<?xml version="1.0" encoding="UTF-8"?><gpx creator="Garmin Connect" version="1.1"
xsi:schemaLocation="http://www.topografix.com/GPX/1/1 http://www.topografix.com/GPX/11.xsd"
xmlns:ns3="http://www.garmin.com/xmlschemas/TrackPointExtension/v1"
xmlns="http://www.topografix.com/GPX/1/1"
xmlns:xsi="http://www.w3.org/2001/XMLSchema-instance"
xmlns:ns2="http://www.garmin.com/xmlschemas/GpxExtensions/v3"><metadata><time>2026-03-08T06:11:23.000Z</time></metadata><trk><type>20260308Mountain hike</type><extensions><totalTime>32382</totalTime><cumulativeDecrease>991.2</cumulativeDecrease><cumulativeClimb>987.5</cumulativeClimb><totalDistance>17560</totalDistance><routeType>0</routeType></extensions><trkseg><trkpt lat="42.078716" lon="23.629152"><ele>1747.5</ele><time>2026-03-08T06:11:23.000Z</time></trkpt>
<trkpt lat="42.078708" lon="23.629148"><ele>1747.5</ele><time>2026-03-08T06:11:24.000Z</time></trkpt>
<trkpt lat="42.078701" lon="23.629157"><ele>1747.5</ele><time>2026-03-08T06:11:25.000Z</time></trkpt>
<trkpt lat="42.078695" lon="23.62916"><ele>1747.5</ele><time>2026-03-08T06:11:26.000Z</time></trkpt>
<trkpt lat="42.078692" lon="23.629163"><ele>1747.5</ele><time>2026-03-08T06:11:27.000Z</time></trkpt>
<trkpt lat="42.078691" lon="23.629163"><ele>1747.5</ele><time>2026-03-08T06:11:28.000Z</time></trkpt>
<trkpt lat="42.078691" lon="23.629162"><ele>1747.5</ele><time>2026-03-08T06:11:29.000Z</time></trkpt>
<trkpt lat="42.078692" lon="23.62916"><ele>1747.5</ele><time>2026-03-08T06:11:30.000Z</time></trkpt>
<trkpt lat="42.078695" lon="23.629156"><ele>1747.5</ele><time>2026-03-08T06:11:31.000Z</time></trkpt>
<trkpt lat="42.078697" lon="23.629153"><ele>1747.5</ele><time>2026-03-08T06:11:32.000Z</time></trkpt>
<trkpt lat="42.0787" lon="23.629149"><ele>1747.5</ele><time>2026-03-08T06:11:33.000Z</time></trkpt>
<trkpt lat="42.078703" lon="23.629145"><ele>1747.5</ele><time>2026-03-08T06:11:34.000Z</time></trkpt>
<trkpt lat="42.078706" lon="23.629142"><ele>1747.5</ele><time>2026-03-08T06:11:35.000Z</time></trkpt>
<trkpt lat="42.078708" lon="23.629139"><ele>1747.5</ele><time>2026-03-08T06:11:36.000Z</time></trkpt>
<trkpt lat="42.07871" lon="23.629136"><ele>1747.4</ele><time>2026-03-08T06:11:37.000Z</time></trkpt>
<trkpt lat="42.078711" lon="23.629135"><ele>1747.4</ele><time>2026-03-08T06:11:38.000Z</time></trkpt>
<trkpt lat="42.078711" lon="23.629134"><ele>1747.4</ele><time>2026-03-08T06:11:39.000Z</time></trkpt>
<trkpt lat="42.078711" lon="23.629134"><ele>1747.4</ele><time>2026-03-08T06:11:40.000Z</time></trkpt>
<trkpt lat="42.07871" lon="23.629133"><ele>1747.4</ele><time>2026-03-08T06:11:41.000Z</time></trkpt>
<trkpt lat="42.07871" lon="23.629132"><ele>1747.4</ele><time>2026-03-08T06:11:42.000Z</time></trkpt>
<trkpt lat="42.07871" lon="23.629131"><ele>1747.4</ele><time>2026-03-08T06:11:43.000Z</time></trkpt>
<trkpt lat="42.07871" lon="23.62913"><ele>1747.4</ele><time>2026-03-08T06:11:44.000Z</time></trkpt>
<trkpt lat="42.078709" lon="23.629129"><ele>1747.4</ele><time>2026-03-08T06:11:45.000Z</time></trkpt>
<trkpt lat="42.078708" lon="23.629135"><ele>1747.4</ele><time>2026-03-08T06:11:46.000Z</time></trkpt>
<trkpt lat="42.078706" lon="23.629141"><ele>1747.3</ele><time>2026-03-08T06:11:47.000Z</time></trkpt>
<trkpt lat="42.078703" lon="23.629148"><ele>1747.3</ele><time>2026-03-08T06:11:48.000Z</time></trkpt>
<trkpt lat="42.0787" lon="23.629154"><ele>1747.3</ele><time>2026-03-08T06:11:49.000Z</time></trkpt>
<trkpt lat="42.078696" lon="23.629161"><ele>1747.3</ele><time>2026-03-08T06:11:50.000Z</time></trkpt>
<trkpt lat="42.078691" lon="23.629162"><ele>1747.3</ele><time>2026-03-08T06:11:51.000Z</time></trkpt>
<trkpt lat="42.078687" lon="23.629163"><ele>1747.1</ele><time>2026-03-08T06:11:52.000Z</time></trkpt>
<trkpt lat="42.078682" lon="23.629164"><ele>1747.1</ele><time>2026-03-08T06:11:53.000Z</time></trkpt>
<trkpt lat="42.078677" lon="23.629165"><ele>1747.1</ele><time>2026-03-08T06:11:54.000Z</time></trkpt>
<trkpt lat="42.078673" lon="23.629167"><ele>1747.1</ele><time>2026-03-08T06:11:55.000Z</time></trkpt>
<trkpt lat="42.078668" lon="23.629167"><ele>1747.1</ele><time>2026-03-08T06:11:56.000Z</time></trkpt>
<trkpt lat="42.078663" lon="23.629166"><ele>1747</ele><time>2026-03-08T06:11:57.000Z</time></trkpt>
<trkpt lat="42.078658" lon="23.629165"><ele>1747</ele><time>2026-03-08T06:11:58.000Z</time></trkpt>
<trkpt lat="42.078655" lon="23.629163"><ele>1747</ele><time>2026-03-08T06:11:59.000Z</time></trkpt>
<trkpt lat="42.078652" lon="23.629162"><ele>1747</ele><time>2026-03-08T06:12:00.000Z</time></trkpt>
<trkpt lat="42.078651" lon="23.629162"><ele>1747</ele><time>2026-03-08T06:12:01.000Z</time></trkpt>
<trkpt lat="42.078649" lon="23.629163"><ele>1746.9</ele><time>2026-03-08T06:12:02.000Z</time></trkpt>
<trkpt lat="42.078649" lon="23.629162"><ele>1746.9</ele><time>2026-03-08T06:12:03.000Z</time></trkpt>
<trkpt lat="42.078649" lon="23.62916"><ele>1746.9</ele><time>2026-03-08T06:12:04.000Z</time></trkpt>
<trkpt lat="42.07865" lon="23.629159"><ele>1746.9</ele><time>2026-03-08T06:12:05.000Z</time></trkpt>
<trkpt lat="42.078653" lon="23.629156"><ele>1746.9</ele><time>2026-03-08T06:12:06.000Z</time></trkpt>
<trkpt lat="42.078656" lon="23.629153"><ele>1746.8</ele><time>2026-03-08T06:12:07.000Z</time></trkpt>
<trkpt lat="42.07866" lon="23.629151"><ele>1746.8</ele><time>2026-03-08T06:12:08.000Z</time></trkpt>
<trkpt lat="42.078662" lon="23.629149"><ele>1746.8</ele><time>2026-03-08T06:12:09.000Z</time></trkpt>
<trkpt lat="42.078664" lon="23.629148"><ele>1746.8</ele><time>2026-03-08T06:12:10.000Z</time></trkpt>
<trkpt lat="42.078664" lon="23.629148"><ele>1746.8</ele><time>2026-03-08T06:12:11.000Z</time></trkpt>
<trkpt lat="42.078665" lon="23.629148"><ele>1746.8</ele><time>2026-03-08T06:12:12.000Z</time></trkpt>
<trkpt lat="42.078664" lon="23.629149"><ele>1746.8</ele><time>2026-03-08T06:12:13.000Z</time></trkpt>
<trkpt lat="42.078663" lon="23.629149"><ele>1746.8</ele><time>2026-03-08T06:12:14.000Z</time></trkpt>
<trkpt lat="42.078662" lon="23.629148"><ele>1746.8</ele><time>2026-03-08T06:12:15.000Z</time></trkpt>
<trkpt lat="42.078658" lon="23.629146"><ele>1746.8</ele><time>2026-03-08T06:12:16.000Z</time></trkpt>
<trkpt lat="42.078654" lon="23.629142"><ele>1746.7</ele><time>2026-03-08T06:12:17.000Z</time></trkpt>
<trkpt lat="42.078653" lon="23.629137"><ele>1746.7</ele><time>2026-03-08T06:12:18.000Z</time></trkpt>
<trkpt lat="42.078654" lon="23.62913"><ele>1746.7</ele><time>2026-03-08T06:12:19.000Z</time></trkpt>
<trkpt lat="42.078658" lon="23.629123"><ele>1746.7</ele><time>2026-03-08T06:12:20.000Z</time></trkpt>
<trkpt lat="42.078664" lon="23.629118"><ele>1746.7</ele><time>2026-03-08T06:12:21.000Z</time></trkpt>
<trkpt lat="42.07867" lon="23.629116"><ele>1746.6</ele><time>2026-03-08T06:12:22.000Z</time></trkpt>
<trkpt lat="42.078675" lon="23.629116"><ele>1746.6</ele><time>2026-03-08T06:12:23.000Z</time></trkpt>
<trkpt lat="42.078677" lon="23.629118"><ele>1746.6</ele><time>2026-03-08T06:12:24.000Z</time></trkpt>
<trkpt lat="42.078678" lon="23.62912"><ele>1746.6</ele><time>2026-03-08T06:12:25.000Z</time></trkpt>
<trkpt lat="42.078679" lon="23.629122"><ele>1746.6</ele><time>2026-03-08T06:12:26.000Z</time></trkpt>
<trkpt lat="42.07868" lon="23.629122"><ele>1746.6</ele><time>2026-03-08T06:12:27.000Z</time></trkpt>
<trkpt lat="42.07868" lon="23.629121"><ele>1746.6</ele><time>2026-03-08T06:12:28.000Z</time></trkpt>
<trkpt lat="42.07868" lon="23.629121"><ele>1746.6</ele><time>2026-03-08T06:12:29.000Z</time></trkpt>
<trkpt lat="42.078681" lon="23.62912"><ele>1746.6</ele><time>2026-03-08T06:12:30.000Z</time></trkpt>
<trkpt lat="42.07868" lon="23.629121"><ele>1746.6</ele><time>2026-03-08T06:12:31.000Z</time></trkpt>
<trkpt lat="42.07868" lon="23.629121"><ele>1746.8</ele><time>2026-03-08T06:12:32.000Z</time></trkpt>
<trkpt lat="42.07868" lon="23.629122"><ele>1746.8</ele><time>2026-03-08T06:12:33.000Z</time></trkpt>
<trkpt lat="42.078679" lon="23.629123"><ele>1746.8</ele><time>2026-03-08T06:12:34.000Z</time></trkpt>
<trkpt lat="42.078678" lon="23.629124"><ele>1746.8</ele><time>2026-03-08T06:12:35.000Z</time></trkpt>
<trkpt lat="42.078677" lon="23.629126"><ele>1746.8</ele><time>2026-03-08T06:12:36.000Z</time></trkpt>
<trkpt lat="42.078676" lon="23.629129"><ele>1747</ele><time>2026-03-08T06:12:37.000Z</time></trkpt>
<trkpt lat="42.078676" lon="23.629133"><ele>1747</ele><time>2026-03-08T06:12:38.000Z</time></trkpt>
<trkpt lat="42.078675" lon="23.629137"><ele>1747</ele><time>2026-03-08T06:12:39.000Z</time></trkpt>
<trkpt lat="42.078674" lon="23.629142"><ele>1747</ele><time>2026-03-08T06:12:40.000Z</time></trkpt>
<trkpt lat="42.078673" lon="23.629147"><ele>1747</ele><time>2026-03-08T06:12:41.000Z</time></trkpt>
<trkpt lat="42.078672" lon="23.629152"><ele>1747.1</ele><time>2026-03-08T06:12:42.000Z</time></trkpt>
<trkpt lat="42.078669" lon="23.629157"><ele>1747.1</ele><time>2026-03-08T06:12:43.000Z</time></trkpt>
<trkpt lat="42.078666" lon="23.629162"><ele>1747.1</ele><time>2026-03-08T06:12:44.000Z</time></trkpt>
<trkpt lat="42.078663" lon="23.629166"><ele>1747.1</ele><time>2026-03-08T06:12:45.000Z</time></trkpt>
<trkpt lat="42.078658" lon="23.629169"><ele>1747.1</ele><time>2026-03-08T06:12:46.000Z</time></trkpt>
<trkpt lat="42.078653" lon="23.629172"><ele>1747.2</ele><time>2026-03-08T06:12:47.000Z</time></trkpt>
<trkpt lat="42.078648" lon="23.629175"><ele>1747.2</ele><time>2026-03-08T06:12:48.000Z</time></trkpt>
<trkpt lat="42.078643" lon="23.629177"><ele>1747.2</ele><time>2026-03-08T06:12:49.000Z</time></trkpt>
<trkpt lat="42.078638" lon="23.629178"><ele>1747.2</ele><time>2026-03-08T06:12:50.000Z</time></trkpt>
<trkpt lat="42.078636" lon="23.629177"><ele>1747.2</ele><time>2026-03-08T06:12:51.000Z</time></trkpt>
<trkpt lat="42.078636" lon="23.629175"><ele>1747.2</ele><time>2026-03-08T06:12:52.000Z</time></trkpt>
<trkpt lat="42.078638" lon="23.629171"><ele>1747.2</ele><time>2026-03-08T06:12:53.000Z</time></trkpt>
<trkpt lat="42.078641" lon="23.629167"><ele>1747.2</ele><time>2026-03-08T06:12:54.000Z</time></trkpt>
<trkpt lat="42.078646" lon="23.629161"><ele>1747.2</ele><time>2026-03-08T06:12:55.000Z</time></trkpt>
<trkpt lat="42.078651" lon="23.629156"><ele>1747.2</ele><time>2026-03-08T06:12:56.000Z</time></trkpt>
<trkpt lat="42.078656" lon="23.629151"><ele>1747.2</ele><time>2026-03-08T06:12:57.000Z</time></trkpt>
<trkpt lat="42.07866" lon="23.629148"><ele>1747.2</ele><time>2026-03-08T06:12:58.000Z</time></trkpt>
<trkpt lat="42.078664" lon="23.629144"><ele>1747.2</ele><time>2026-03-08T06:12:59.000Z</time></trkpt>
<trkpt lat="42.078667" lon="23.629143"><ele>1747.2</ele><time>2026-03-08T06:13:00.000Z</time></trkpt>
<trkpt lat="42.078668" lon="23.629144"><ele>1747.2</ele><time>2026-03-08T06:13:01.000Z</time></trkpt>
<trkpt lat="42.078669" lon="23.629146"><ele>1747.2</ele><time>2026-03-08T06:13:02.000Z</time></trkpt>
<trkpt lat="42.078662" lon="23.629152"><ele>1747.2</ele><time>2026-03-08T06:13:03.000Z</time></trkpt>
<trkpt lat="42.078656" lon="23.629157"><ele>1747.2</ele><time>2026-03-08T06:13:04.000Z</time></trkpt>
<trkpt lat="42.078651" lon="23.629162"><ele>1747.2</ele><time>2026-03-08T06:13:05.000Z</time></trkpt>
<trkpt lat="42.078646" lon="23.629165"><ele>1747.2</ele><time>2026-03-08T06:13:06.000Z</time></trkpt>
<trkpt lat="42.078641" lon="23.629167"><ele>1747.2</ele><time>2026-03-08T06:13:07.000Z</time></trkpt>
<trkpt lat="42.078644" lon="23.629165"><ele>1747.2</ele><time>2026-03-08T06:13:08.000Z</time></trkpt>
<trkpt lat="42.078645" lon="23.629164"><ele>1747.2</ele><time>2026-03-08T06:13:09.000Z</time></trkpt>
<trkpt lat="42.078644" lon="23.629163"><ele>1747.2</ele><time>2026-03-08T06:13:10.000Z</time></trkpt>
<trkpt lat="42.078644" lon="23.629163"><ele>1747.2</ele><time>2026-03-08T06:13:11.000Z</time></trkpt>
<trkpt lat="42.078643" lon="23.629164"><ele>1747.1</ele><time>2026-03-08T06:13:12.000Z</time></trkpt>
<trkpt lat="42.078642" lon="23.629165"><ele>1747.1</ele><time>2026-03-08T06:13:13.000Z</time></trkpt>
<trkpt lat="42.078641" lon="23.629166"><ele>1747.1</ele><time>2026-03-08T06:13:14.000Z</time></trkpt>
<trkpt lat="42.078641" lon="23.629167"><ele>1747.1</ele><time>2026-03-08T06:13:15.000Z</time></trkpt>
<trkpt lat="42.078641" lon="23.629167"><ele>1747.1</ele><time>2026-03-08T06:13:16.000Z</time></trkpt>
<trkpt lat="42.07864" lon="23.629166"><ele>1746.9</ele><time>2026-03-08T06:13:17.000Z</time></trkpt>
<trkpt lat="42.07864" lon="23.629166"><ele>1746.9</ele><time>2026-03-08T06:13:18.000Z</time></trkpt>
<trkpt lat="42.07864" lon="23.629166"><ele>1746.9</ele><time>2026-03-08T06:13:19.000Z</time></trkpt>
<trkpt lat="42.07864" lon="23.629166"><ele>1746.9</ele><time>2026-03-08T06:13:20.000Z</time></trkpt>
<trkpt lat="42.07864" lon="23.629166"><ele>1746.9</ele><time>2026-03-08T06:13:21.000Z</time></trkpt>
<trkpt lat="42.07864" lon="23.629166"><ele>1746.9</ele><time>2026-03-08T06:13:22.000Z</time></trkpt>
<trkpt lat="42.078641" lon="23.629166"><ele>1746.9</ele><time>2026-03-08T06:13:23.000Z</time></trkpt>
<trkpt lat="42.078641" lon="23.629166"><ele>1746.9</ele><time>2026-03-08T06:13:24.000Z</time></trkpt>
<trkpt lat="42.078642" lon="23.629167"><ele>1746.9</ele><time>2026-03-08T06:13:25.000Z</time></trkpt>
<trkpt lat="42.078642" lon="23.629167"><ele>1746.9</ele><time>2026-03-08T06:13:26.000Z</time></trkpt>
<trkpt lat="42.078642" lon="23.629167"><ele>1747</ele><time>2026-03-08T06:13:27.000Z</time></trkpt>
<trkpt lat="42.078642" lon="23.629168"><ele>1747</ele><time>2026-03-08T06:13:28.000Z</time></trkpt>
<trkpt lat="42.078642" lon="23.629167"><ele>1747</ele><time>2026-03-08T06:13:29.000Z</time></trkpt>
<trkpt lat="42.078642" lon="23.629167"><ele>1747</ele><time>2026-03-08T06:13:30.000Z</time></trkpt>
<trkpt lat="42.078642" lon="23.629166"><ele>1747</ele><time>2026-03-08T06:13:31.000Z</time></trkpt>
<trkpt lat="42.078642" lon="23.629166"><ele>1747.2</ele><time>2026-03-08T06:13:32.000Z</time></trkpt>
<trkpt lat="42.078641" lon="23.629166"><ele>1747.2</ele><time>2026-03-08T06:13:33.000Z</time></trkpt>
<trkpt lat="42.078641" lon="23.629166"><ele>1747.2</ele><time>2026-03-08T06:13:34.000Z</time></trkpt>
<trkpt lat="42.07864" lon="23.629166"><ele>1747.2</ele><time>2026-03-08T06:13:35.000Z</time></trkpt>
<trkpt lat="42.078637" lon="23.629165"><ele>1747.2</ele><time>2026-03-08T06:13:36.000Z</time></trkpt>
<trkpt lat="42.078634" lon="23.629162"><ele>1747.3</ele><time>2026-03-08T06:13:37.000Z</time></trkpt>
<trkpt lat="42.078631" lon="23.629159"><ele>1747.3</ele><time>2026-03-08T06:13:38.000Z</time></trkpt>
<trkpt lat="42.078627" lon="23.629156"><ele>1747.3</ele><time>2026-03-08T06:13:39.000Z</time></trkpt>
<trkpt lat="42.078625" lon="23.629152"><ele>1747.3</ele><time>2026-03-08T06:13:40.000Z</time></trkpt>
<trkpt lat="42.078624" lon="23.629151"><ele>1747.3</ele><time>2026-03-08T06:13:41.000Z</time></trkpt>
<trkpt lat="42.078625" lon="23.629151"><ele>1747.2</ele><time>2026-03-08T06:13:42.000Z</time></trkpt>
<trkpt lat="42.078626" lon="23.629151"><ele>1747.2</ele><time>2026-03-08T06:13:43.000Z</time></trkpt>
<trkpt lat="42.078628" lon="23.629151"><ele>1747.2</ele><time>2026-03-08T06:13:44.000Z</time></trkpt>
<trkpt lat="42.078629" lon="23.629151"><ele>1747.2</ele><time>2026-03-08T06:13:45.000Z</time></trkpt>
<trkpt lat="42.078629" lon="23.629151"><ele>1747.2</ele><time>2026-03-08T06:13:46.000Z</time></trkpt>
<trkpt lat="42.07863" lon="23.629151"><ele>1747.1</ele><time>2026-03-08T06:13:47.000Z</time></trkpt>
<trkpt lat="42.078629" lon="23.629153"><ele>1747.1</ele><time>2026-03-08T06:13:48.000Z</time></trkpt>
<trkpt lat="42.078629" lon="23.629155"><ele>1747.1</ele><time>2026-03-08T06:13:49.000Z</time></trkpt>
<trkpt lat="42.07863" lon="23.629159"><ele>1747.1</ele><time>2026-03-08T06:13:50.000Z</time></trkpt>
<trkpt lat="42.078629" lon="23.629169"><ele>1747.1</ele><time>2026-03-08T06:13:51.000Z</time></trkpt>
<trkpt lat="42.078628" lon="23.62918"><ele>1747</ele><time>2026-03-08T06:13:52.000Z</time></trkpt>
<trkpt lat="42.078628" lon="23.629188"><ele>1747</ele><time>2026-03-08T06:13:53.000Z</time></trkpt>
<trkpt lat="42.078627" lon="23.629196"><ele>1747</ele><time>2026-03-08T06:13:54.000Z</time></trkpt>
<trkpt lat="42.078627" lon="23.629201"><ele>1747</ele><time>2026-03-08T06:13:55.000Z</time></trkpt>
<trkpt lat="42.078627" lon="23.629202"><ele>1747</ele><time>2026-03-08T06:13:56.000Z</time></trkpt>
<trkpt lat="42.078627" lon="23.629202"><ele>1746.9</ele><time>2026-03-08T06:13:57.000Z</time></trkpt>
<trkpt lat="42.078627" lon="23.629202"><ele>1746.9</ele><time>2026-03-08T06:13:58.000Z</time></trkpt>
<trkpt lat="42.078627" lon="23.629202"><ele>1746.9</ele><time>2026-03-08T06:13:59.000Z</time></trkpt>
<trkpt lat="42.078626" lon="23.629201"><ele>1746.9</ele><time>2026-03-08T06:14:00.000Z</time></trkpt>
<trkpt lat="42.078626" lon="23.629198"><ele>1746.9</ele><time>2026-03-08T06:14:01.000Z</time></trkpt>
<trkpt lat="42.078627" lon="23.629195"><ele>1746.8</ele><time>2026-03-08T06:14:02.000Z</time></trkpt>
<trkpt lat="42.078627" lon="23.629192"><ele>1746.8</ele><time>2026-03-08T06:14:03.000Z</time></trkpt>
<trkpt lat="42.078628" lon="23.629188"><ele>1746.8</ele><time>2026-03-08T06:14:04.000Z</time></trkpt>
<trkpt lat="42.078628" lon="23.629186"><ele>1746.8</ele><time>2026-03-08T06:14:05.000Z</time></trkpt>
<trkpt lat="42.078629" lon="23.629184"><ele>1746.8</ele><time>2026-03-08T06:14:06.000Z</time></trkpt>
<trkpt lat="42.07863" lon="23.629182"><ele>1746.7</ele><time>2026-03-08T06:14:07.000Z</time></trkpt>
<trkpt lat="42.07863" lon="23.629181"><ele>1746.7</ele><time>2026-03-08T06:14:08.000Z</time></trkpt>
<trkpt lat="42.078631" lon="23.629178"><ele>1746.7</ele><time>2026-03-08T06:14:09.000Z</time></trkpt>
<trkpt lat="42.078631" lon="23.629176"><ele>1746.7</ele><time>2026-03-08T06:14:10.000Z</time></trkpt>
<trkpt lat="42.078631" lon="23.629174"><ele>1746.7</ele><time>2026-03-08T06:14:11.000Z</time></trkpt>
<trkpt lat="42.078631" lon="23.629172"><ele>1746.8</ele><time>2026-03-08T06:14:12.000Z</time></trkpt>
<trkpt lat="42.078631" lon="23.629171"><ele>1746.8</ele><time>2026-03-08T06:14:13.000Z</time></trkpt>
<trkpt lat="42.078631" lon="23.629171"><ele>1746.8</ele><time>2026-03-08T06:14:14.000Z</time></trkpt>
<trkpt lat="42.078631" lon="23.629171"><ele>1746.8</ele><time>2026-03-08T06:14:15.000Z</time></trkpt>
<trkpt lat="42.078631" lon="23.62917"><ele>1746.8</ele><time>2026-03-08T06:14:16.000Z</time></trkpt>
<trkpt lat="42.078632" lon="23.629169"><ele>1746.9</ele><time>2026-03-08T06:14:17.000Z</time></trkpt>
<trkpt lat="42.078634" lon="23.629167"><ele>1746.9</ele><time>2026-03-08T06:14:18.000Z</time></trkpt>
<trkpt lat="42.078636" lon="23.629164"><ele>1746.9</ele><time>2026-03-08T06:14:19.000Z</time></trkpt>
<trkpt lat="42.078639" lon="23.629161"><ele>1746.9</ele><time>2026-03-08T06:14:20.000Z</time></trkpt>
<trkpt lat="42.078641" lon="23.62916"><ele>1746.9</ele><time>2026-03-08T06:14:21.000Z</time></trkpt>
<trkpt lat="42.078643" lon="23.629159"><ele>1747</ele><time>2026-03-08T06:14:22.000Z</time></trkpt>
<trkpt lat="42.078643" lon="23.629158"><ele>1747</ele><time>2026-03-08T06:14:23.000Z</time></trkpt>
<trkpt lat="42.078643" lon="23.629157"><ele>1747</ele><time>2026-03-08T06:14:24.000Z</time></trkpt>
<trkpt lat="42.078643" lon="23.629156"><ele>1747</ele><time>2026-03-08T06:14:25.000Z</time></trkpt>
<trkpt lat="42.078642" lon="23.629154"><ele>1747</ele><time>2026-03-08T06:14:26.000Z</time></trkpt>
<trkpt lat="42.078642" lon="23.629154"><ele>1747.1</ele><time>2026-03-08T06:14:27.000Z</time></trkpt>
<trkpt lat="42.078642" lon="23.629155"><ele>1747.1</ele><time>2026-03-08T06:14:28.000Z</time></trkpt>
<trkpt lat="42.078642" lon="23.629156"><ele>1747.1</ele><time>2026-03-08T06:14:29.000Z</time></trkpt>
<trkpt lat="42.078642" lon="23.629157"><ele>1747.1</ele><time>2026-03-08T06:14:30.000Z</time></trkpt>
<trkpt lat="42.078641" lon="23.629159"><ele>1747.1</ele><time>2026-03-08T06:14:31.000Z</time></trkpt>
<trkpt lat="42.07864" lon="23.629161"><ele>1747.1</ele><time>2026-03-08T06:14:32.000Z</time></trkpt>
<trkpt lat="42.07864" lon="23.629161"><ele>1747.1</ele><time>2026-03-08T06:14:33.000Z</time></trkpt>
<trkpt lat="42.07864" lon="23.629162"><ele>1747.1</ele><time>2026-03-08T06:14:34.000Z</time></trkpt>
<trkpt lat="42.07864" lon="23.629163"><ele>1747.1</ele><time>2026-03-08T06:14:35.000Z</time></trkpt>
<trkpt lat="42.07864" lon="23.629162"><ele>1747.1</ele><time>2026-03-08T06:14:36.000Z</time></trkpt>
<trkpt lat="42.07864" lon="23.629162"><ele>1747</ele><time>2026-03-08T06:14:37.000Z</time></trkpt>
<trkpt lat="42.078639" lon="23.629162"><ele>1747</ele><time>2026-03-08T06:14:38.000Z</time></trkpt>
<trkpt lat="42.078638" lon="23.629162"><ele>1747</ele><time>2026-03-08T06:14:39.000Z</time></trkpt>
<trkpt lat="42.078637" lon="23.629161"><ele>1747</ele><time>2026-03-08T06:14:40.000Z</time></trkpt>
<trkpt lat="42.078635" lon="23.629161"><ele>1747</ele><time>2026-03-08T06:14:41.000Z</time></trkpt>
<trkpt lat="42.078635" lon="23.629161"><ele>1746.9</ele><time>2026-03-08T06:14:42.000Z</time></trkpt>
<trkpt lat="42.078634" lon="23.629161"><ele>1746.9</ele><time>2026-03-08T06:14:43.000Z</time></trkpt>
<trkpt lat="42.078634" lon="23.629161"><ele>1746.9</ele><time>2026-03-08T06:14:44.000Z</time></trkpt>
<trkpt lat="42.078634" lon="23.629161"><ele>1746.9</ele><time>2026-03-08T06:14:45.000Z</time></trkpt>
<trkpt lat="42.078635" lon="23.629162"><ele>1746.9</ele><time>2026-03-08T06:14:46.000Z</time></trkpt>
<trkpt lat="42.078636" lon="23.629161"><ele>1746.8</ele><time>2026-03-08T06:14:47.000Z</time></trkpt>
<trkpt lat="42.078637" lon="23.629161"><ele>1746.8</ele><time>2026-03-08T06:14:48.000Z</time></trkpt>
<trkpt lat="42.078638" lon="23.62916"><ele>1746.8</ele><time>2026-03-08T06:14:49.000Z</time></trkpt>
<trkpt lat="42.078639" lon="23.629158"><ele>1746.8</ele><time>2026-03-08T06:14:50.000Z</time></trkpt>
<trkpt lat="42.07864" lon="23.629157"><ele>1746.8</ele><time>2026-03-08T06:14:51.000Z</time></trkpt>
<trkpt lat="42.07864" lon="23.629158"><ele>1746.7</ele><time>2026-03-08T06:14:52.000Z</time></trkpt>
<trkpt lat="42.07864" lon="23.629159"><ele>1746.7</ele><time>2026-03-08T06:14:53.000Z</time></trkpt>
<trkpt lat="42.078639" lon="23.62916"><ele>1746.7</ele><time>2026-03-08T06:14:54.000Z</time></trkpt>
<trkpt lat="42.078636" lon="23.629162"><ele>1746.7</ele><time>2026-03-08T06:14:55.000Z</time></trkpt>
<trkpt lat="42.078631" lon="23.629161"><ele>1746.7</ele><time>2026-03-08T06:14:56.000Z</time></trkpt>
<trkpt lat="42.078627" lon="23.629157"><ele>1746.7</ele><time>2026-03-08T06:14:57.000Z</time></trkpt>
<trkpt lat="42.078623" lon="23.629151"><ele>1746.7</ele><time>2026-03-08T06:14:58.000Z</time></trkpt>
<trkpt lat="42.07862" lon="23.629145"><ele>1746.7</ele><time>2026-03-08T06:14:59.000Z</time></trkpt>
<trkpt lat="42.078617" lon="23.62914"><ele>1746.7</ele><time>2026-03-08T06:15:00.000Z</time></trkpt>
<trkpt lat="42.078615" lon="23.629136"><ele>1746.7</ele><time>2026-03-08T06:15:01.000Z</time></trkpt>
<trkpt lat="42.078614" lon="23.629134"><ele>1746.8</ele><time>2026-03-08T06:15:02.000Z</time></trkpt>
<trkpt lat="42.078612" lon="23.629134"><ele>1746.8</ele><time>2026-03-08T06:15:03.000Z</time></trkpt>
<trkpt lat="42.078611" lon="23.629134"><ele>1746.8</ele><time>2026-03-08T06:15:04.000Z</time></trkpt>
<trkpt lat="42.078612" lon="23.629133"><ele>1746.8</ele><time>2026-03-08T06:15:05.000Z</time></trkpt>
<trkpt lat="42.078613" lon="23.629131"><ele>1746.8</ele><time>2026-03-08T06:15:06.000Z</time></trkpt>
<trkpt lat="42.078613" lon="23.629132"><ele>1746.8</ele><time>2026-03-08T06:15:07.000Z</time></trkpt>
<trkpt lat="42.078613" lon="23.629133"><ele>1746.8</ele><time>2026-03-08T06:15:08.000Z</time></trkpt>
<trkpt lat="42.078614" lon="23.629132"><ele>1746.8</ele><time>2026-03-08T06:15:09.000Z</time></trkpt>
<trkpt lat="42.078616" lon="23.629133"><ele>1746.8</ele><time>2026-03-08T06:15:10.000Z</time></trkpt>
<trkpt lat="42.078618" lon="23.629135"><ele>1746.8</ele><time>2026-03-08T06:15:11.000Z</time></trkpt>
<trkpt lat="42.078621" lon="23.629139"><ele>1746.7</ele><time>2026-03-08T06:15:12.000Z</time></trkpt>
<trkpt lat="42.078625" lon="23.629142"><ele>1746.7</ele><time>2026-03-08T06:15:13.000Z</time></trkpt>
<trkpt lat="42.078628" lon="23.629148"><ele>1746.7</ele><time>2026-03-08T06:15:14.000Z</time></trkpt>
<trkpt lat="42.078631" lon="23.629154"><ele>1746.7</ele><time>2026-03-08T06:15:15.000Z</time></trkpt>
<trkpt lat="42.078632" lon="23.629161"><ele>1746.7</ele><time>2026-03-08T06:15:16.000Z</time></trkpt>
<trkpt lat="42.078634" lon="23.629167"><ele>1746.6</ele><time>2026-03-08T06:15:17.000Z</time></trkpt>
<trkpt lat="42.078635" lon="23.629171"><ele>1746.6</ele><time>2026-03-08T06:15:18.000Z</time></trkpt>
<trkpt lat="42.078636" lon="23.629174"><ele>1746.6</ele><time>2026-03-08T06:15:19.000Z</time></trkpt>
<trkpt lat="42.078636" lon="23.629176"><ele>1746.6</ele><time>2026-03-08T06:15:20.000Z</time></trkpt>
<trkpt lat="42.078637" lon="23.629176"><ele>1746.6</ele><time>2026-03-08T06:15:21.000Z</time></trkpt>
<trkpt lat="42.078637" lon="23.629175"><ele>1746.7</ele><time>2026-03-08T06:15:22.000Z</time></trkpt>
<trkpt lat="42.078638" lon="23.629175"><ele>1746.7</ele><time>2026-03-08T06:15:23.000Z</time></trkpt>
<trkpt lat="42.078638" lon="23.629176"><ele>1746.7</ele><time>2026-03-08T06:15:24.000Z</time></trkpt>
<trkpt lat="42.078638" lon="23.629176"><ele>1746.7</ele><time>2026-03-08T06:15:25.000Z</time></trkpt>
<trkpt lat="42.078638" lon="23.629177"><ele>1746.7</ele><time>2026-03-08T06:15:26.000Z</time></trkpt>
<trkpt lat="42.078638" lon="23.629178"><ele>1746.8</ele><time>2026-03-08T06:15:27.000Z</time></trkpt>
<trkpt lat="42.078638" lon="23.629178"><ele>1746.8</ele><time>2026-03-08T06:15:28.000Z</time></trkpt>
<trkpt lat="42.078638" lon="23.629178"><ele>1746.8</ele><time>2026-03-08T06:15:29.000Z</time></trkpt>
<trkpt lat="42.078639" lon="23.629178"><ele>1746.8</ele><time>2026-03-08T06:15:30.000Z</time></trkpt>
<trkpt lat="42.07864" lon="23.629177"><ele>1746.8</ele><time>2026-03-08T06:15:31.000Z</time></trkpt>
<trkpt lat="42.078641" lon="23.629177"><ele>1747</ele><time>2026-03-08T06:15:32.000Z</time></trkpt>
<trkpt lat="42.078642" lon="23.629176"><ele>1747</ele><time>2026-03-08T06:15:33.000Z</time></trkpt>
<trkpt lat="42.078642" lon="23.629177"><ele>1747</ele><time>2026-03-08T06:15:34.000Z</time></trkpt>
<trkpt lat="42.078643" lon="23.629178"><ele>1747</ele><time>2026-03-08T06:15:35.000Z</time></trkpt>
<trkpt lat="42.078644" lon="23.629179"><ele>1747</ele><time>2026-03-08T06:15:36.000Z</time></trkpt>
<trkpt lat="42.078644" lon="23.62918"><ele>1747.1</ele><time>2026-03-08T06:15:37.000Z</time></trkpt>
<trkpt lat="42.078645" lon="23.629181"><ele>1747.1</ele><time>2026-03-08T06:15:38.000Z</time></trkpt>
<trkpt lat="42.078645" lon="23.629183"><ele>1747.1</ele><time>2026-03-08T06:15:39.000Z</time></trkpt>
<trkpt lat="42.078645" lon="23.629183"><ele>1747.1</ele><time>2026-03-08T06:15:40.000Z</time></trkpt>
<trkpt lat="42.078644" lon="23.629184"><ele>1747.1</ele><time>2026-03-08T06:15:41.000Z</time></trkpt>
<trkpt lat="42.078644" lon="23.629184"><ele>1747.2</ele><time>2026-03-08T06:15:42.000Z</time></trkpt>
<trkpt lat="42.078644" lon="23.629184"><ele>1747.2</ele><time>2026-03-08T06:15:43.000Z</time></trkpt>
<trkpt lat="42.078644" lon="23.629184"><ele>1747.2</ele><time>2026-03-08T06:15:44.000Z</time></trkpt>
<trkpt lat="42.078644" lon="23.629184"><ele>1747.2</ele><time>2026-03-08T06:15:45.000Z</time></trkpt>
<trkpt lat="42.078644" lon="23.629183"><ele>1747.2</ele><time>2026-03-08T06:15:46.000Z</time></trkpt>
<trkpt lat="42.078645" lon="23.62918"><ele>1747.3</ele><time>2026-03-08T06:15:47.000Z</time></trkpt>
<trkpt lat="42.078646" lon="23.629178"><ele>1747.3</ele><time>2026-03-08T06:15:48.000Z</time></trkpt>
<trkpt lat="42.078647" lon="23.629175"><ele>1747.3</ele><time>2026-03-08T06:15:49.000Z</time></trkpt>
<trkpt lat="42.078648" lon="23.629172"><ele>1747.3</ele><time>2026-03-08T06:15:50.000Z</time></trkpt>
<trkpt lat="42.07865" lon="23.629168"><ele>1747.3</ele><time>2026-03-08T06:15:51.000Z</time></trkpt>
<trkpt lat="42.078652" lon="23.629167"><ele>1747.4</ele><time>2026-03-08T06:15:52.000Z</time></trkpt>
<trkpt lat="42.078653" lon="23.629164"><ele>1747.4</ele><time>2026-03-08T06:15:53.000Z</time></trkpt>
<trkpt lat="42.078655" lon="23.629162"><ele>1747.4</ele><time>2026-03-08T06:15:54.000Z</time></trkpt>
<trkpt lat="42.078656" lon="23.62916"><ele>1747.4</ele><time>2026-03-08T06:15:55.000Z</time></trkpt>
<trkpt lat="42.078656" lon="23.629159"><ele>1747.4</ele><time>2026-03-08T06:15:56.000Z</time></trkpt>
<trkpt lat="42.078656" lon="23.629159"><ele>1747.4</ele><time>2026-03-08T06:15:57.000Z</time></trkpt>
<trkpt lat="42.078655" lon="23.62916"><ele>1747.4</ele><time>2026-03-08T06:15:58.000Z</time></trkpt>
<trkpt lat="42.078655" lon="23.62916"><ele>1747.4</ele><time>2026-03-08T06:15:59.000Z</time></trkpt>
<trkpt lat="42.078654" lon="23.62916"><ele>1747.4</ele><time>2026-03-08T06:16:00.000Z</time></trkpt>
<trkpt lat="42.078654" lon="23.62916"><ele>1747.4</ele><time>2026-03-08T06:16:01.000Z</time></trkpt>
<trkpt lat="42.078654" lon="23.62916"><ele>1747.3</ele><time>2026-03-08T06:16:02.000Z</time></trkpt>
<trkpt lat="42.078654" lon="23.62916"><ele>1747.3</ele><time>2026-03-08T06:16:03.000Z</time></trkpt>
<trkpt lat="42.078653" lon="23.62916"><ele>1747.3</ele><time>2026-03-08T06:16:04.000Z</time></trkpt>
<trkpt lat="42.078653" lon="23.629159"><ele>1747.3</ele><time>2026-03-08T06:16:05.000Z</time></trkpt>
<trkpt lat="42.078653" lon="23.629159"><ele>1747.3</ele><time>2026-03-08T06:16:06.000Z</time></trkpt>
<trkpt lat="42.078653" lon="23.629159"><ele>1747.2</ele><time>2026-03-08T06:16:07.000Z</time></trkpt>
<trkpt lat="42.078654" lon="23.629158"><ele>1747.2</ele><time>2026-03-08T06:16:08.000Z</time></trkpt>
<trkpt lat="42.078655" lon="23.629158"><ele>1747.2</ele><time>2026-03-08T06:16:09.000Z</time></trkpt>
<trkpt lat="42.078656" lon="23.629157"><ele>1747.2</ele><time>2026-03-08T06:16:10.000Z</time></trkpt>
<trkpt lat="42.078657" lon="23.629158"><ele>1747.2</ele><time>2026-03-08T06:16:11.000Z</time></trkpt>
<trkpt lat="42.078657" lon="23.629159"><ele>1747.2</ele><time>2026-03-08T06:16:12.000Z</time></trkpt>
<trkpt lat="42.078657" lon="23.629161"><ele>1747.2</ele><time>2026-03-08T06:16:13.000Z</time></trkpt>
<trkpt lat="42.078658" lon="23.629164"><ele>1747.2</ele><time>2026-03-08T06:16:14.000Z</time></trkpt>
<trkpt lat="42.07866" lon="23.629167"><ele>1747.2</ele><time>2026-03-08T06:16:15.000Z</time></trkpt>
<trkpt lat="42.078661" lon="23.62917"><ele>1747.2</ele><time>2026-03-08T06:16:16.000Z</time></trkpt>
<trkpt lat="42.078663" lon="23.629172"><ele>1747.3</ele><time>2026-03-08T06:16:17.000Z</time></trkpt>
<trkpt lat="42.078664" lon="23.629174"><ele>1747.3</ele><time>2026-03-08T06:16:18.000Z</time></trkpt>
<trkpt lat="42.078664" lon="23.629175"><ele>1747.3</ele><time>2026-03-08T06:16:19.000Z</time></trkpt>
<trkpt lat="42.078665" lon="23.629175"><ele>1747.3</ele><time>2026-03-08T06:16:20.000Z</time></trkpt>
<trkpt lat="42.078665" lon="23.629175"><ele>1747.3</ele><time>2026-03-08T06:16:21.000Z</time></trkpt>
<trkpt lat="42.078665" lon="23.629176"><ele>1747.3</ele><time>2026-03-08T06:16:22.000Z</time></trkpt>
<trkpt lat="42.078665" lon="23.629177"><ele>1747.3</ele><time>2026-03-08T06:16:23.000Z</time></trkpt>
<trkpt lat="42.078664" lon="23.62918"><ele>1747.3</ele><time>2026-03-08T06:16:24.000Z</time></trkpt>
<trkpt lat="42.078663" lon="23.629182"><ele>1747.3</ele><time>2026-03-08T06:16:25.000Z</time></trkpt>
<trkpt lat="42.078661" lon="23.629185"><ele>1747.3</ele><time>2026-03-08T06:16:26.000Z</time></trkpt>
<trkpt lat="42.07866" lon="23.629187"><ele>1747.4</ele><time>2026-03-08T06:16:27.000Z</time></trkpt>
<trkpt lat="42.078659" lon="23.629188"><ele>1747.4</ele><time>2026-03-08T06:16:28.000Z</time></trkpt>
<trkpt lat="42.078658" lon="23.629188"><ele>1747.4</ele><time>2026-03-08T06:16:29.000Z</time></trkpt>
<trkpt lat="42.078658" lon="23.629189"><ele>1747.4</ele><time>2026-03-08T06:16:30.000Z</time></trkpt>
<trkpt lat="42.078658" lon="23.62919"><ele>1747.4</ele><time>2026-03-08T06:16:31.000Z</time></trkpt>
<trkpt lat="42.078658" lon="23.62919"><ele>1747.4</ele><time>2026-03-08T06:16:32.000Z</time></trkpt>
<trkpt lat="42.078658" lon="23.629191"><ele>1747.4</ele><time>2026-03-08T06:16:33.000Z</time></trkpt>
<trkpt lat="42.078657" lon="23.629191"><ele>1747.4</ele><time>2026-03-08T06:16:34.000Z</time></trkpt>
<trkpt lat="42.078657" lon="23.62919"><ele>1747.4</ele><time>2026-03-08T06:16:35.000Z</time></trkpt>
<trkpt lat="42.078657" lon="23.62919"><ele>1747.4</ele><time>2026-03-08T06:16:36.000Z</time></trkpt>
<trkpt lat="42.078656" lon="23.62919"><ele>1747.3</ele><time>2026-03-08T06:16:37.000Z</time></trkpt>
<trkpt lat="42.078656" lon="23.62919"><ele>1747.3</ele><time>2026-03-08T06:16:38.000Z</time></trkpt>
<trkpt lat="42.078656" lon="23.62919"><ele>1747.3</ele><time>2026-03-08T06:16:39.000Z</time></trkpt>
<trkpt lat="42.078656" lon="23.62919"><ele>1747.3</ele><time>2026-03-08T06:16:40.000Z</time></trkpt>
<trkpt lat="42.078656" lon="23.62919"><ele>1747.3</ele><time>2026-03-08T06:16:41.000Z</time></trkpt>
<trkpt lat="42.078656" lon="23.62919"><ele>1747.2</ele><time>2026-03-08T06:16:42.000Z</time></trkpt>
<trkpt lat="42.078655" lon="23.62919"><ele>1747.2</ele><time>2026-03-08T06:16:43.000Z</time></trkpt>
<trkpt lat="42.078655" lon="23.62919"><ele>1747.2</ele><time>2026-03-08T06:16:44.000Z</time></trkpt>
<trkpt lat="42.078655" lon="23.62919"><ele>1747.2</ele><time>2026-03-08T06:16:45.000Z</time></trkpt>
<trkpt lat="42.078655" lon="23.629189"><ele>1747.2</ele><time>2026-03-08T06:16:46.000Z</time></trkpt>
<trkpt lat="42.078656" lon="23.62919"><ele>1747.1</ele><time>2026-03-08T06:16:47.000Z</time></trkpt>
<trkpt lat="42.078657" lon="23.62919"><ele>1747.1</ele><time>2026-03-08T06:16:48.000Z</time></trkpt>
<trkpt lat="42.078658" lon="23.62919"><ele>1747.1</ele><time>2026-03-08T06:16:49.000Z</time></trkpt>
<trkpt lat="42.078658" lon="23.62919"><ele>1747.1</ele><time>2026-03-08T06:16:50.000Z</time></trkpt>
<trkpt lat="42.078659" lon="23.629189"><ele>1747.1</ele><time>2026-03-08T06:16:51.000Z</time></trkpt>
<trkpt lat="42.078659" lon="23.629187"><ele>1747.1</ele><time>2026-03-08T06:16:52.000Z</time></trkpt>
<trkpt lat="42.078658" lon="23.629185"><ele>1747.1</ele><time>2026-03-08T06:16:53.000Z</time></trkpt>
<trkpt lat="42.078658" lon="23.629183"><ele>1747.1</ele><time>2026-03-08T06:16:54.000Z</time></trkpt>
<trkpt lat="42.078658" lon="23.629182"><ele>1747.1</ele><time>2026-03-08T06:16:55.000Z</time></trkpt>
<trkpt lat="42.078658" lon="23.629182"><ele>1747.1</ele><time>2026-03-08T06:16:56.000Z</time></trkpt>
<trkpt lat="42.078658" lon="23.629182"><ele>1747.2</ele><time>2026-03-08T06:16:57.000Z</time></trkpt>
<trkpt lat="42.078658" lon="23.629176"><ele>1747.2</ele><time>2026-03-08T06:16:58.000Z</time></trkpt>
<trkpt lat="42.078658" lon="23.62917"><ele>1747.2</ele><time>2026-03-08T06:16:59.000Z</time></trkpt>
<trkpt lat="42.078658" lon="23.629165"><ele>1747.2</ele><time>2026-03-08T06:17:00.000Z</time></trkpt>
<trkpt lat="42.078657" lon="23.629159"><ele>1747.2</ele><time>2026-03-08T06:17:01.000Z</time></trkpt>
<trkpt lat="42.078657" lon="23.629153"><ele>1747.2</ele><time>2026-03-08T06:17:02.000Z</time></trkpt>
<trkpt lat="42.078657" lon="23.629153"><ele>1747.2</ele><time>2026-03-08T06:17:03.000Z</time></trkpt>
<trkpt lat="42.078657" lon="23.629153"><ele>1747.2</ele><time>2026-03-08T06:17:04.000Z</time></trkpt>
<trkpt lat="42.078657" lon="23.629153"><ele>1747.2</ele><time>2026-03-08T06:17:05.000Z</time></trkpt>
<trkpt lat="42.078658" lon="23.629153"><ele>1747.2</ele><time>2026-03-08T06:17:06.000Z</time></trkpt>
<trkpt lat="42.078658" lon="23.629154"><ele>1747.3</ele><time>2026-03-08T06:17:07.000Z</time></trkpt>
<trkpt lat="42.078659" lon="23.629154"><ele>1747.3</ele><time>2026-03-08T06:17:08.000Z</time></trkpt>
<trkpt lat="42.078658" lon="23.629154"><ele>1747.3</ele><time>2026-03-08T06:17:09.000Z</time></trkpt>
<trkpt lat="42.078658" lon="23.629154"><ele>1747.3</ele><time>2026-03-08T06:17:10.000Z</time></trkpt>
<trkpt lat="42.078657" lon="23.629154"><ele>1747.3</ele><time>2026-03-08T06:17:11.000Z</time></trkpt>
<trkpt lat="42.078657" lon="23.629155"><ele>1747.3</ele><time>2026-03-08T06:17:12.000Z</time></trkpt>
<trkpt lat="42.078657" lon="23.629156"><ele>1747.3</ele><time>2026-03-08T06:17:13.000Z</time></trkpt>
<trkpt lat="42.078657" lon="23.629157"><ele>1747.3</ele><time>2026-03-08T06:17:14.000Z</time></trkpt>
<trkpt lat="42.078657" lon="23.629158"><ele>1747.3</ele><time>2026-03-08T06:17:15.000Z</time></trkpt>
<trkpt lat="42.078657" lon="23.62916"><ele>1747.3</ele><time>2026-03-08T06:17:16.000Z</time></trkpt>
<trkpt lat="42.078656" lon="23.629162"><ele>1747.4</ele><time>2026-03-08T06:17:17.000Z</time></trkpt>
<trkpt lat="42.078655" lon="23.629165"><ele>1747.4</ele><time>2026-03-08T06:17:18.000Z</time></trkpt>
<trkpt lat="42.078655" lon="23.629167"><ele>1747.4</ele><time>2026-03-08T06:17:19.000Z</time></trkpt>
<trkpt lat="42.078654" lon="23.629168"><ele>1747.4</ele><time>2026-03-08T06:17:20.000Z</time></trkpt>
<trkpt lat="42.078654" lon="23.629169"><ele>1747.4</ele><time>2026-03-08T06:17:21.000Z</time></trkpt>
<trkpt lat="42.078654" lon="23.629169"><ele>1747.3</ele><time>2026-03-08T06:17:22.000Z</time></trkpt>
<trkpt lat="42.078654" lon="23.629168"><ele>1747.3</ele><time>2026-03-08T06:17:23.000Z</time></trkpt>
<trkpt lat="42.078653" lon="23.629168"><ele>1747.3</ele><time>2026-03-08T06:17:24.000Z</time></trkpt>
<trkpt lat="42.078653" lon="23.629168"><ele>1747.3</ele><time>2026-03-08T06:17:25.000Z</time></trkpt>
<trkpt lat="42.078653" lon="23.629168"><ele>1747.3</ele><time>2026-03-08T06:17:26.000Z</time></trkpt>
<trkpt lat="42.078652" lon="23.629167"><ele>1747.2</ele><time>2026-03-08T06:17:27.000Z</time></trkpt>
<trkpt lat="42.078652" lon="23.629168"><ele>1747.2</ele><time>2026-03-08T06:17:28.000Z</time></trkpt>
<trkpt lat="42.078656" lon="23.629165"><ele>1747.2</ele><time>2026-03-08T06:17:29.000Z</time></trkpt>
<trkpt lat="42.078659" lon="23.629163"><ele>1747.2</ele><time>2026-03-08T06:17:30.000Z</time></trkpt>
<trkpt lat="42.078662" lon="23.62916"><ele>1747.2</ele><time>2026-03-08T06:17:31.000Z</time></trkpt>
<trkpt lat="42.078666" lon="23.629157"><ele>1747.1</ele><time>2026-03-08T06:17:32.000Z</time></trkpt>
<trkpt lat="42.078669" lon="23.629155"><ele>1747.1</ele><time>2026-03-08T06:17:33.000Z</time></trkpt>
<trkpt lat="42.07867" lon="23.629155"><ele>1747.1</ele><time>2026-03-08T06:17:34.000Z</time></trkpt>
<trkpt lat="42.078672" lon="23.629157"><ele>1747.1</ele><time>2026-03-08T06:17:35.000Z</time></trkpt>
<trkpt lat="42.078673" lon="23.629159"><ele>1747.1</ele><time>2026-03-08T06:17:36.000Z</time></trkpt>
<trkpt lat="42.078673" lon="23.629164"><ele>1747.1</ele><time>2026-03-08T06:17:37.000Z</time></trkpt>
<trkpt lat="42.078672" lon="23.629171"><ele>1747.1</ele><time>2026-03-08T06:17:38.000Z</time></trkpt>
<trkpt lat="42.07867" lon="23.629179"><ele>1747.1</ele><time>2026-03-08T06:17:39.000Z</time></trkpt>
<trkpt lat="42.078667" lon="23.629186"><ele>1747.1</ele><time>2026-03-08T06:17:40.000Z</time></trkpt>
<trkpt lat="42.078664" lon="23.629193"><ele>1747.1</ele><time>2026-03-08T06:17:41.000Z</time></trkpt>
<trkpt lat="42.07866" lon="23.629197"><ele>1747.2</ele><time>2026-03-08T06:17:42.000Z</time></trkpt>
<trkpt lat="42.078657" lon="23.6292"><ele>1747.2</ele><time>2026-03-08T06:17:43.000Z</time></trkpt>
<trkpt lat="42.078654" lon="23.629203"><ele>1747.2</ele><time>2026-03-08T06:17:44.000Z</time></trkpt>
<trkpt lat="42.078651" lon="23.629205"><ele>1747.2</ele><time>2026-03-08T06:17:45.000Z</time></trkpt>
<trkpt lat="42.078649" lon="23.629208"><ele>1747.2</ele><time>2026-03-08T06:17:46.000Z</time></trkpt>
<trkpt lat="42.078648" lon="23.629209"><ele>1747.4</ele><time>2026-03-08T06:17:47.000Z</time></trkpt>
<trkpt lat="42.078649" lon="23.62921"><ele>1747.4</ele><time>2026-03-08T06:17:48.000Z</time></trkpt>
<trkpt lat="42.07865" lon="23.62921"><ele>1747.4</ele><time>2026-03-08T06:17:49.000Z</time></trkpt>
<trkpt lat="42.07865" lon="23.629211"><ele>1747.4</ele><time>2026-03-08T06:17:50.000Z</time></trkpt>
<trkpt lat="42.07865" lon="23.629211"><ele>1747.4</ele><time>2026-03-08T06:17:51.000Z</time></trkpt>
<trkpt lat="42.07865" lon="23.62921"><ele>1747.4</ele><time>2026-03-08T06:17:52.000Z</time></trkpt>
<trkpt lat="42.07865" lon="23.62921"><ele>1747.4</ele><time>2026-03-08T06:17:53.000Z</time></trkpt>
<trkpt lat="42.07865" lon="23.62921"><ele>1747.4</ele><time>2026-03-08T06:17:54.000Z</time></trkpt>
<trkpt lat="42.07865" lon="23.62921"><ele>1747.4</ele><time>2026-03-08T06:17:55.000Z</time></trkpt>
<trkpt lat="42.07865" lon="23.62921"><ele>1747.4</ele><time>2026-03-08T06:17:56.000Z</time></trkpt>
<trkpt lat="42.07865" lon="23.62921"><ele>1747.5</ele><time>2026-03-08T06:17:57.000Z</time></trkpt>
<trkpt lat="42.07865" lon="23.629209"><ele>1747.5</ele><time>2026-03-08T06:17:58.000Z</time></trkpt>
<trkpt lat="42.07865" lon="23.629207"><ele>1747.5</ele><time>2026-03-08T06:17:59.000Z</time></trkpt>
<trkpt lat="42.07865" lon="23.629205"><ele>1747.5</ele><time>2026-03-08T06:18:00.000Z</time></trkpt>
<trkpt lat="42.078651" lon="23.629202"><ele>1747.5</ele><time>2026-03-08T06:18:01.000Z</time></trkpt>
<trkpt lat="42.078652" lon="23.629198"><ele>1747.5</ele><time>2026-03-08T06:18:02.000Z</time></trkpt>
<trkpt lat="42.078653" lon="23.629196"><ele>1747.5</ele><time>2026-03-08T06:18:03.000Z</time></trkpt>
<trkpt lat="42.078655" lon="23.629194"><ele>1747.5</ele><time>2026-03-08T06:18:04.000Z</time></trkpt>
<trkpt lat="42.078656" lon="23.629193"><ele>1747.5</ele><time>2026-03-08T06:18:05.000Z</time></trkpt>
<trkpt lat="42.078657" lon="23.629192"><ele>1747.5</ele><time>2026-03-08T06:18:06.000Z</time></trkpt>
<trkpt lat="42.078657" lon="23.629192"><ele>1747.5</ele><time>2026-03-08T06:18:07.000Z</time></trkpt>
<trkpt lat="42.078657" lon="23.629192"><ele>1747.5</ele><time>2026-03-08T06:18:08.000Z</time></trkpt>
<trkpt lat="42.078657" lon="23.629192"><ele>1747.5</ele><time>2026-03-08T06:18:09.000Z</time></trkpt>
<trkpt lat="42.078657" lon="23.629192"><ele>1747.5</ele><time>2026-03-08T06:18:10.000Z</time></trkpt>
<trkpt lat="42.078658" lon="23.629193"><ele>1747.5</ele><time>2026-03-08T06:18:11.000Z</time></trkpt>
<trkpt lat="42.078658" lon="23.629193"><ele>1747.4</ele><time>2026-03-08T06:18:12.000Z</time></trkpt>
<trkpt lat="42.078659" lon="23.629194"><ele>1747.4</ele><time>2026-03-08T06:18:13.000Z</time></trkpt>
<trkpt lat="42.078659" lon="23.629194"><ele>1747.4</ele><time>2026-03-08T06:18:14.000Z</time></trkpt>
<trkpt lat="42.078659" lon="23.629194"><ele>1747.4</ele><time>2026-03-08T06:18:15.000Z</time></trkpt>
<trkpt lat="42.078659" lon="23.629194"><ele>1747.4</ele><time>2026-03-08T06:18:16.000Z</time></trkpt>
<trkpt lat="42.078659" lon="23.629194"><ele>1747.3</ele><time>2026-03-08T06:18:17.000Z</time></trkpt>
<trkpt lat="42.078659" lon="23.629194"><ele>1747.3</ele><time>2026-03-08T06:18:18.000Z</time></trkpt>
<trkpt lat="42.078659" lon="23.629195"><ele>1747.3</ele><time>2026-03-08T06:18:19.000Z</time></trkpt>
<trkpt lat="42.078659" lon="23.629195"><ele>1747.3</ele><time>2026-03-08T06:18:20.000Z</time></trkpt>
<trkpt lat="42.078658" lon="23.629195"><ele>1747.3</ele><time>2026-03-08T06:18:21.000Z</time></trkpt>
<trkpt lat="42.078657" lon="23.629196"><ele>1747.2</ele><time>2026-03-08T06:18:22.000Z</time></trkpt>
<trkpt lat="42.078655" lon="23.629195"><ele>1747.2</ele><time>2026-03-08T06:18:23.000Z</time></trkpt>
<trkpt lat="42.078654" lon="23.629195"><ele>1747.2</ele><time>2026-03-08T06:18:24.000Z</time></trkpt>
<trkpt lat="42.078653" lon="23.629194"><ele>1747.2</ele><time>2026-03-08T06:18:25.000Z</time></trkpt>
<trkpt lat="42.078652" lon="23.629194"><ele>1747.2</ele><time>2026-03-08T06:18:26.000Z</time></trkpt>
<trkpt lat="42.078652" lon="23.629193"><ele>1747.2</ele><time>2026-03-08T06:18:27.000Z</time></trkpt>
<trkpt lat="42.078652" lon="23.629193"><ele>1747.2</ele><time>2026-03-08T06:18:28.000Z</time></trkpt>
<trkpt lat="42.078652" lon="23.629193"><ele>1747.2</ele><time>2026-03-08T06:18:29.000Z</time></trkpt>
<trkpt lat="42.078652" lon="23.629193"><ele>1747.2</ele><time>2026-03-08T06:18:30.000Z</time></trkpt>
<trkpt lat="42.078652" lon="23.629193"><ele>1747.2</ele><time>2026-03-08T06:18:31.000Z</time></trkpt>
<trkpt lat="42.078652" lon="23.629193"><ele>1747.3</ele><time>2026-03-08T06:18:32.000Z</time></trkpt>
<trkpt lat="42.078653" lon="23.629193"><ele>1747.3</ele><time>2026-03-08T06:18:33.000Z</time></trkpt>
<trkpt lat="42.078653" lon="23.629193"><ele>1747.3</ele><time>2026-03-08T06:18:34.000Z</time></trkpt>
<trkpt lat="42.078653" lon="23.629193"><ele>1747.3</ele><time>2026-03-08T06:18:35.000Z</time></trkpt>
<trkpt lat="42.078653" lon="23.629194"><ele>1747.3</ele><time>2026-03-08T06:18:36.000Z</time></trkpt>
<trkpt lat="42.078653" lon="23.629195"><ele>1747.3</ele><time>2026-03-08T06:18:37.000Z</time></trkpt>
<trkpt lat="42.078652" lon="23.629195"><ele>1747.3</ele><time>2026-03-08T06:18:38.000Z</time></trkpt>
<trkpt lat="42.078652" lon="23.629196"><ele>1747.3</ele><time>2026-03-08T06:18:39.000Z</time></trkpt>
<trkpt lat="42.078652" lon="23.629196"><ele>1747.3</ele><time>2026-03-08T06:18:40.000Z</time></trkpt>
<trkpt lat="42.078652" lon="23.629195"><ele>1747.3</ele><time>2026-03-08T06:18:41.000Z</time></trkpt>
<trkpt lat="42.078652" lon="23.629195"><ele>1747.3</ele><time>2026-03-08T06:18:42.000Z</time></trkpt>
<trkpt lat="42.078651" lon="23.629194"><ele>1747.3</ele><time>2026-03-08T06:18:43.000Z</time></trkpt>
<trkpt lat="42.078651" lon="23.629194"><ele>1747.3</ele><time>2026-03-08T06:18:44.000Z</time></trkpt>
<trkpt lat="42.078651" lon="23.629193"><ele>1747.3</ele><time>2026-03-08T06:18:45.000Z</time></trkpt>
<trkpt lat="42.078651" lon="23.629193"><ele>1747.3</ele><time>2026-03-08T06:18:46.000Z</time></trkpt>
<trkpt lat="42.078651" lon="23.629193"><ele>1747.2</ele><time>2026-03-08T06:18:47.000Z</time></trkpt>
<trkpt lat="42.078651" lon="23.629193"><ele>1747.2</ele><time>2026-03-08T06:18:48.000Z</time></trkpt>
<trkpt lat="42.078651" lon="23.629193"><ele>1747.2</ele><time>2026-03-08T06:18:49.000Z</time></trkpt>
<trkpt lat="42.078651" lon="23.629193"><ele>1747.2</ele><time>2026-03-08T06:18:50.000Z</time></trkpt>
<trkpt lat="42.078651" lon="23.629193"><ele>1747.2</ele><time>2026-03-08T06:18:51.000Z</time></trkpt>
<trkpt lat="42.078651" lon="23.629193"><ele>1747.2</ele><time>2026-03-08T06:18:52.000Z</time></trkpt>
<trkpt lat="42.078651" lon="23.629193"><ele>1747.2</ele><time>2026-03-08T06:18:53.000Z</time></trkpt>
<trkpt lat="42.078651" lon="23.629193"><ele>1747.2</ele><time>2026-03-08T06:18:54.000Z</time></trkpt>
<trkpt lat="42.078651" lon="23.629193"><ele>1747.2</ele><time>2026-03-08T06:18:55.000Z</time></trkpt>
<trkpt lat="42.078651" lon="23.629193"><ele>1747.2</ele><time>2026-03-08T06:18:56.000Z</time></trkpt>
<trkpt lat="42.078651" lon="23.629192"><ele>1747.2</ele><time>2026-03-08T06:18:57.000Z</time></trkpt>
<trkpt lat="42.078651" lon="23.629192"><ele>1747.2</ele><time>2026-03-08T06:18:58.000Z</time></trkpt>
<trkpt lat="42.078651" lon="23.629192"><ele>1747.2</ele><time>2026-03-08T06:18:59.000Z</time></trkpt>
<trkpt lat="42.078651" lon="23.629192"><ele>1747.2</ele><time>2026-03-08T06:19:00.000Z</time></trkpt>
<trkpt lat="42.078651" lon="23.629192"><ele>1747.2</ele><time>2026-03-08T06:19:01.000Z</time></trkpt>
<trkpt lat="42.078651" lon="23.629192"><ele>1746.9</ele><time>2026-03-08T06:19:02.000Z</time></trkpt>
<trkpt lat="42.078651" lon="23.629192"><ele>1746.9</ele><time>2026-03-08T06:19:03.000Z</time></trkpt>
<trkpt lat="42.078651" lon="23.629192"><ele>1746.9</ele><time>2026-03-08T06:19:04.000Z</time></trkpt>
<trkpt lat="42.078651" lon="23.629192"><ele>1746.9</ele><time>2026-03-08T06:19:05.000Z</time></trkpt>
<trkpt lat="42.078651" lon="23.629192"><ele>1746.9</ele><time>2026-03-08T06:19:06.000Z</time></trkpt>
<trkpt lat="42.078651" lon="23.629192"><ele>1746.7</ele><time>2026-03-08T06:19:07.000Z</time></trkpt>
<trkpt lat="42.078651" lon="23.629192"><ele>1746.7</ele><time>2026-03-08T06:19:08.000Z</time></trkpt>
<trkpt lat="42.078651" lon="23.629192"><ele>1746.7</ele><time>2026-03-08T06:19:09.000Z</time></trkpt>
<trkpt lat="42.078651" lon="23.629192"><ele>1746.7</ele><time>2026-03-08T06:19:10.000Z</time></trkpt>
<trkpt lat="42.078651" lon="23.629192"><ele>1746.7</ele><time>2026-03-08T06:19:11.000Z</time></trkpt>
<trkpt lat="42.078651" lon="23.629192"><ele>1746.7</ele><time>2026-03-08T06:19:12.000Z</time></trkpt>
<trkpt lat="42.07865" lon="23.629191"><ele>1746.7</ele><time>2026-03-08T06:19:13.000Z</time></trkpt>
<trkpt lat="42.07865" lon="23.629191"><ele>1746.7</ele><time>2026-03-08T06:19:14.000Z</time></trkpt>
<trkpt lat="42.078649" lon="23.629191"><ele>1746.7</ele><time>2026-03-08T06:19:15.000Z</time></trkpt>
<trkpt lat="42.078649" lon="23.62919"><ele>1746.7</ele><time>2026-03-08T06:19:16.000Z</time></trkpt>
<trkpt lat="42.078649" lon="23.62919"><ele>1746.7</ele><time>2026-03-08T06:19:17.000Z</time></trkpt>
<trkpt lat="42.078649" lon="23.62919"><ele>1746.7</ele><time>2026-03-08T06:19:18.000Z</time></trkpt>
<trkpt lat="42.078648" lon="23.62919"><ele>1746.7</ele><time>2026-03-08T06:19:19.000Z</time></trkpt>
<trkpt lat="42.078648" lon="23.629189"><ele>1746.7</ele><time>2026-03-08T06:19:20.000Z</time></trkpt>
<trkpt lat="42.078647" lon="23.629189"><ele>1746.7</ele><time>2026-03-08T06:19:21.000Z</time></trkpt>
<trkpt lat="42.078647" lon="23.629188"><ele>1746.8</ele><time>2026-03-08T06:19:22.000Z</time></trkpt>
<trkpt lat="42.078646" lon="23.629188"><ele>1746.8</ele><time>2026-03-08T06:19:23.000Z</time></trkpt>
<trkpt lat="42.078646" lon="23.629188"><ele>1746.8</ele><time>2026-03-08T06:19:24.000Z</time></trkpt>
<trkpt lat="42.078646" lon="23.629188"><ele>1746.8</ele><time>2026-03-08T06:19:25.000Z</time></trkpt>
<trkpt lat="42.078646" lon="23.629188"><ele>1746.8</ele><time>2026-03-08T06:19:26.000Z</time></trkpt>
<trkpt lat="42.078646" lon="23.629188"><ele>1746.8</ele><time>2026-03-08T06:19:27.000Z</time></trkpt>
<trkpt lat="42.078646" lon="23.629188"><ele>1746.8</ele><time>2026-03-08T06:19:28.000Z</time></trkpt>
<trkpt lat="42.078646" lon="23.629188"><ele>1746.8</ele><time>2026-03-08T06:19:29.000Z</time></trkpt>
<trkpt lat="42.078646" lon="23.629188"><ele>1746.8</ele><time>2026-03-08T06:19:30.000Z</time></trkpt>
<trkpt lat="42.078646" lon="23.629188"><ele>1746.8</ele><time>2026-03-08T06:19:31.000Z</time></trkpt>
<trkpt lat="42.078646" lon="23.629187"><ele>1746.6</ele><time>2026-03-08T06:19:32.000Z</time></trkpt>
<trkpt lat="42.078646" lon="23.629186"><ele>1746.6</ele><time>2026-03-08T06:19:33.000Z</time></trkpt>
<trkpt lat="42.078645" lon="23.629186"><ele>1746.6</ele><time>2026-03-08T06:19:34.000Z</time></trkpt>
<trkpt lat="42.078645" lon="23.629185"><ele>1746.6</ele><time>2026-03-08T06:19:35.000Z</time></trkpt>
<trkpt lat="42.078644" lon="23.629184"><ele>1746.6</ele><time>2026-03-08T06:19:36.000Z</time></trkpt>
<trkpt lat="42.078644" lon="23.629185"><ele>1746.6</ele><time>2026-03-08T06:19:37.000Z</time></trkpt>
<trkpt lat="42.078644" lon="23.629186"><ele>1746.6</ele><time>2026-03-08T06:19:38.000Z</time></trkpt>
<trkpt lat="42.078644" lon="23.629187"><ele>1746.6</ele><time>2026-03-08T06:19:39.000Z</time></trkpt>
<trkpt lat="42.078644" lon="23.629187"><ele>1746.6</ele><time>2026-03-08T06:19:40.000Z</time></trkpt>
<trkpt lat="42.078644" lon="23.629188"><ele>1746.6</ele><time>2026-03-08T06:19:41.000Z</time></trkpt>
<trkpt lat="42.078644" lon="23.629188"><ele>1746.7</ele><time>2026-03-08T06:19:42.000Z</time></trkpt>
<trkpt lat="42.078644" lon="23.629187"><ele>1746.7</ele><time>2026-03-08T06:19:43.000Z</time></trkpt>
<trkpt lat="42.078645" lon="23.629187"><ele>1746.7</ele><time>2026-03-08T06:19:44.000Z</time></trkpt>
<trkpt lat="42.078645" lon="23.629187"><ele>1746.7</ele><time>2026-03-08T06:19:45.000Z</time></trkpt>
<trkpt lat="42.078645" lon="23.629187"><ele>1746.7</ele><time>2026-03-08T06:19:46.000Z</time></trkpt>
<trkpt lat="42.078645" lon="23.629188"><ele>1746.8</ele><time>2026-03-08T06:19:47.000Z</time></trkpt>
<trkpt lat="42.078645" lon="23.629188"><ele>1746.8</ele><time>2026-03-08T06:19:48.000Z</time></trkpt>
<trkpt lat="42.078646" lon="23.629189"><ele>1746.8</ele><time>2026-03-08T06:19:49.000Z</time></trkpt>
<trkpt lat="42.078648" lon="23.629193"><ele>1746.8</ele><time>2026-03-08T06:19:50.000Z</time></trkpt>
<trkpt lat="42.078651" lon="23.629197"><ele>1746.8</ele><time>2026-03-08T06:19:51.000Z</time></trkpt>
<trkpt lat="42.078655" lon="23.629203"><ele>1746.9</ele><time>2026-03-08T06:19:52.000Z</time></trkpt>
<trkpt lat="42.078661" lon="23.629211"><ele>1746.9</ele><time>2026-03-08T06:19:53.000Z</time></trkpt>
<trkpt lat="42.078665" lon="23.629218"><ele>1746.9</ele><time>2026-03-08T06:19:54.000Z</time></trkpt>
<trkpt lat="42.07867" lon="23.629224"><ele>1746.9</ele><time>2026-03-08T06:19:55.000Z</time></trkpt>
<trkpt lat="42.078675" lon="23.629231"><ele>1746.9</ele><time>2026-03-08T06:19:56.000Z</time></trkpt>
<trkpt lat="42.078681" lon="23.629237"><ele>1746.8</ele><time>2026-03-08T06:19:57.000Z</time></trkpt>
<trkpt lat="42.078688" lon="23.629245"><ele>1746.8</ele><time>2026-03-08T06:19:58.000Z</time></trkpt>
<trkpt lat="42.078695" lon="23.629253"><ele>1746.8</ele><time>2026-03-08T06:19:59.000Z</time></trkpt>
<trkpt lat="42.078701" lon="23.629263"><ele>1746.8</ele><time>2026-03-08T06:20:00.000Z</time></trkpt>
<trkpt lat="42.078707" lon="23.629274"><ele>1746.8</ele><time>2026-03-08T06:20:01.000Z</time></trkpt>
<trkpt lat="42.078712" lon="23.629284"><ele>1746.9</ele><time>2026-03-08T06:20:02.000Z</time></trkpt>
<trkpt lat="42.078717" lon="23.629293"><ele>1746.9</ele><time>2026-03-08T06:20:03.000Z</time></trkpt>
<trkpt lat="42.078723" lon="23.629301"><ele>1746.9</ele><time>2026-03-08T06:20:04.000Z</time></trkpt>
<trkpt lat="42.07873" lon="23.629309"><ele>1746.9</ele><time>2026-03-08T06:20:05.000Z</time></trkpt>
<trkpt lat="42.078737" lon="23.629317"><ele>1746.9</ele><time>2026-03-08T06:20:06.000Z</time></trkpt>
<trkpt lat="42.078743" lon="23.629326"><ele>1747.1</ele><time>2026-03-08T06:20:07.000Z</time></trkpt>
<trkpt lat="42.078749" lon="23.629335"><ele>1747.1</ele><time>2026-03-08T06:20:08.000Z</time></trkpt>
<trkpt lat="42.078756" lon="23.629344"><ele>1747.1</ele><time>2026-03-08T06:20:09.000Z</time></trkpt>
<trkpt lat="42.078763" lon="23.629352"><ele>1747.1</ele><time>2026-03-08T06:20:10.000Z</time></trkpt>
<trkpt lat="42.07877" lon="23.62936"><ele>1747.1</ele><time>2026-03-08T06:20:11.000Z</time></trkpt>
<trkpt lat="42.078778" lon="23.62937"><ele>1747.3</ele><time>2026-03-08T06:20:12.000Z</time></trkpt>
<trkpt lat="42.078786" lon="23.629379"><ele>1747.3</ele><time>2026-03-08T06:20:13.000Z</time></trkpt>
<trkpt lat="42.078793" lon="23.629389"><ele>1747.3</ele><time>2026-03-08T06:20:14.000Z</time></trkpt>
<trkpt lat="42.078799" lon="23.629398"><ele>1747.3</ele><time>2026-03-08T06:20:15.000Z</time></trkpt>
<trkpt lat="42.078806" lon="23.629408"><ele>1747.3</ele><time>2026-03-08T06:20:16.000Z</time></trkpt>
<trkpt lat="42.078812" lon="23.629417"><ele>1747.7</ele><time>2026-03-08T06:20:17.000Z</time></trkpt>
<trkpt lat="42.078817" lon="23.629427"><ele>1747.7</ele><time>2026-03-08T06:20:18.000Z</time></trkpt>
<trkpt lat="42.078823" lon="23.629436"><ele>1747.7</ele><time>2026-03-08T06:20:19.000Z</time></trkpt>
<trkpt lat="42.078831" lon="23.629444"><ele>1747.7</ele><time>2026-03-08T06:20:20.000Z</time></trkpt>
<trkpt lat="42.07884" lon="23.629451"><ele>1747.7</ele><time>2026-03-08T06:20:21.000Z</time></trkpt>
<trkpt lat="42.07885" lon="23.629458"><ele>1748.2</ele><time>2026-03-08T06:20:22.000Z</time></trkpt>
<trkpt lat="42.078861" lon="23.629465"><ele>1748.2</ele><time>2026-03-08T06:20:23.000Z</time></trkpt>
<trkpt lat="42.078872" lon="23.629473"><ele>1748.2</ele><time>2026-03-08T06:20:24.000Z</time></trkpt>
<trkpt lat="42.078882" lon="23.629481"><ele>1748.2</ele><time>2026-03-08T06:20:25.000Z</time></trkpt>
<trkpt lat="42.07889" lon="23.629491"><ele>1748.2</ele><time>2026-03-08T06:20:26.000Z</time></trkpt>
<trkpt lat="42.078896" lon="23.629501"><ele>1748.5</ele><time>2026-03-08T06:20:27.000Z</time></trkpt>
<trkpt lat="42.078901" lon="23.629511"><ele>1748.5</ele><time>2026-03-08T06:20:28.000Z</time></trkpt>
<trkpt lat="42.078905" lon="23.62952"><ele>1748.5</ele><time>2026-03-08T06:20:29.000Z</time></trkpt>
<trkpt lat="42.078908" lon="23.629528"><ele>1748.5</ele><time>2026-03-08T06:20:30.000Z</time></trkpt>
<trkpt lat="42.07891" lon="23.629535"><ele>1748.5</ele><time>2026-03-08T06:20:31.000Z</time></trkpt>
<trkpt lat="42.078913" lon="23.629541"><ele>1749.1</ele><time>2026-03-08T06:20:32.000Z</time></trkpt>
<trkpt lat="42.078918" lon="23.629548"><ele>1749.1</ele><time>2026-03-08T06:20:33.000Z</time></trkpt>
<trkpt lat="42.078923" lon="23.629557"><ele>1749.1</ele><time>2026-03-08T06:20:34.000Z</time></trkpt>
<trkpt lat="42.07893" lon="23.629565"><ele>1749.1</ele><time>2026-03-08T06:20:35.000Z</time></trkpt>
<trkpt lat="42.078936" lon="23.629574"><ele>1749.1</ele><time>2026-03-08T06:20:36.000Z</time></trkpt>
<trkpt lat="42.078944" lon="23.629583"><ele>1749.6</ele><time>2026-03-08T06:20:37.000Z</time></trkpt>
<trkpt lat="42.07895" lon="23.629592"><ele>1749.6</ele><time>2026-03-08T06:20:38.000Z</time></trkpt>
<trkpt lat="42.078956" lon="23.629601"><ele>1749.6</ele><time>2026-03-08T06:20:39.000Z</time></trkpt>
<trkpt lat="42.078961" lon="23.629611"><ele>1749.6</ele><time>2026-03-08T06:20:40.000Z</time></trkpt>
<trkpt lat="42.078967" lon="23.629621"><ele>1749.6</ele><time>2026-03-08T06:20:41.000Z</time></trkpt>
<trkpt lat="42.078973" lon="23.629631"><ele>1749.8</ele><time>2026-03-08T06:20:42.000Z</time></trkpt>
<trkpt lat="42.078978" lon="23.62964"><ele>1749.8</ele><time>2026-03-08T06:20:43.000Z</time></trkpt>
<trkpt lat="42.078983" lon="23.629649"><ele>1749.8</ele><time>2026-03-08T06:20:44.000Z</time></trkpt>
<trkpt lat="42.078986" lon="23.629659"><ele>1749.8</ele><time>2026-03-08T06:20:45.000Z</time></trkpt>
<trkpt lat="42.07899" lon="23.629668"><ele>1749.8</ele><time>2026-03-08T06:20:46.000Z</time></trkpt>
<trkpt lat="42.078993" lon="23.629677"><ele>1750.1</ele><time>2026-03-08T06:20:47.000Z</time></trkpt>
<trkpt lat="42.078996" lon="23.629686"><ele>1750.1</ele><time>2026-03-08T06:20:48.000Z</time></trkpt>
<trkpt lat="42.079" lon="23.629697"><ele>1750.1</ele><time>2026-03-08T06:20:49.000Z</time></trkpt>
<trkpt lat="42.079006" lon="23.629707"><ele>1750.1</ele><time>2026-03-08T06:20:50.000Z</time></trkpt>
<trkpt lat="42.079011" lon="23.629718"><ele>1750.1</ele><time>2026-03-08T06:20:51.000Z</time></trkpt>
<trkpt lat="42.079018" lon="23.629728"><ele>1750.4</ele><time>2026-03-08T06:20:52.000Z</time></trkpt>
<trkpt lat="42.079026" lon="23.629738"><ele>1750.4</ele><time>2026-03-08T06:20:53.000Z</time></trkpt>
<trkpt lat="42.079035" lon="23.629746"><ele>1750.4</ele><time>2026-03-08T06:20:54.000Z</time></trkpt>
<trkpt lat="42.079044" lon="23.629753"><ele>1750.4</ele><time>2026-03-08T06:20:55.000Z</time></trkpt>
<trkpt lat="42.079054" lon="23.62976"><ele>1750.4</ele><time>2026-03-08T06:20:56.000Z</time></trkpt>
<trkpt lat="42.079064" lon="23.629768"><ele>1750.5</ele><time>2026-03-08T06:20:57.000Z</time></trkpt>
<trkpt lat="42.079072" lon="23.629777"><ele>1750.5</ele><time>2026-03-08T06:20:58.000Z</time></trkpt>
<trkpt lat="42.079079" lon="23.629787"><ele>1750.5</ele><time>2026-03-08T06:20:59.000Z</time></trkpt>
<trkpt lat="42.079085" lon="23.629798"><ele>1750.5</ele><time>2026-03-08T06:21:00.000Z</time></trkpt>
<trkpt lat="42.07909" lon="23.62981"><ele>1750.5</ele><time>2026-03-08T06:21:01.000Z</time></trkpt>
<trkpt lat="42.079096" lon="23.62982"><ele>1750.9</ele><time>2026-03-08T06:21:02.000Z</time></trkpt>
<trkpt lat="42.079101" lon="23.62983"><ele>1750.9</ele><time>2026-03-08T06:21:03.000Z</time></trkpt>
<trkpt lat="42.079107" lon="23.62984"><ele>1750.9</ele><time>2026-03-08T06:21:04.000Z</time></trkpt>
<trkpt lat="42.079115" lon="23.629849"><ele>1750.9</ele><time>2026-03-08T06:21:05.000Z</time></trkpt>
<trkpt lat="42.079125" lon="23.629857"><ele>1750.9</ele><time>2026-03-08T06:21:06.000Z</time></trkpt>
<trkpt lat="42.079133" lon="23.629864"><ele>1751.4</ele><time>2026-03-08T06:21:07.000Z</time></trkpt>
<trkpt lat="42.079141" lon="23.629871"><ele>1751.4</ele><time>2026-03-08T06:21:08.000Z</time></trkpt>
<trkpt lat="42.079147" lon="23.629877"><ele>1751.4</ele><time>2026-03-08T06:21:09.000Z</time></trkpt>
<trkpt lat="42.079152" lon="23.629882"><ele>1751.4</ele><time>2026-03-08T06:21:10.000Z</time></trkpt>
<trkpt lat="42.079154" lon="23.629885"><ele>1751.4</ele><time>2026-03-08T06:21:11.000Z</time></trkpt>
<trkpt lat="42.079155" lon="23.629886"><ele>1751.7</ele><time>2026-03-08T06:21:12.000Z</time></trkpt>
<trkpt lat="42.079156" lon="23.629886"><ele>1751.7</ele><time>2026-03-08T06:21:13.000Z</time></trkpt>
<trkpt lat="42.079157" lon="23.629886"><ele>1751.7</ele><time>2026-03-08T06:21:14.000Z</time></trkpt>
<trkpt lat="42.079159" lon="23.629886"><ele>1751.7</ele><time>2026-03-08T06:21:15.000Z</time></trkpt>
<trkpt lat="42.079159" lon="23.629886"><ele>1751.7</ele><time>2026-03-08T06:21:16.000Z</time></trkpt>
<trkpt lat="42.07916" lon="23.629886"><ele>1752.2</ele><time>2026-03-08T06:21:17.000Z</time></trkpt>
<trkpt lat="42.07916" lon="23.629886"><ele>1752.2</ele><time>2026-03-08T06:21:18.000Z</time></trkpt>
<trkpt lat="42.07916" lon="23.629886"><ele>1752.2</ele><time>2026-03-08T06:21:19.000Z</time></trkpt>
<trkpt lat="42.07916" lon="23.629886"><ele>1752.2</ele><time>2026-03-08T06:21:20.000Z</time></trkpt>
<trkpt lat="42.079161" lon="23.629886"><ele>1752.2</ele><time>2026-03-08T06:21:21.000Z</time></trkpt>
<trkpt lat="42.079162" lon="23.629886"><ele>1752.7</ele><time>2026-03-08T06:21:22.000Z</time></trkpt>
<trkpt lat="42.079163" lon="23.629886"><ele>1752.7</ele><time>2026-03-08T06:21:23.000Z</time></trkpt>
<trkpt lat="42.079162" lon="23.629887"><ele>1752.7</ele><time>2026-03-08T06:21:24.000Z</time></trkpt>
<trkpt lat="42.07916" lon="23.629887"><ele>1752.7</ele><time>2026-03-08T06:21:25.000Z</time></trkpt>
<trkpt lat="42.079159" lon="23.629888"><ele>1752.7</ele><time>2026-03-08T06:21:26.000Z</time></trkpt>
<trkpt lat="42.079158" lon="23.629889"><ele>1752.9</ele><time>2026-03-08T06:21:27.000Z</time></trkpt>
<trkpt lat="42.079157" lon="23.629889"><ele>1752.9</ele><time>2026-03-08T06:21:28.000Z</time></trkpt>
<trkpt lat="42.079157" lon="23.629888"><ele>1752.9</ele><time>2026-03-08T06:21:29.000Z</time></trkpt>
<trkpt lat="42.079156" lon="23.629887"><ele>1752.9</ele><time>2026-03-08T06:21:30.000Z</time></trkpt>
<trkpt lat="42.079156" lon="23.629886"><ele>1752.9</ele><time>2026-03-08T06:21:31.000Z</time></trkpt>
<trkpt lat="42.079155" lon="23.629885"><ele>1753.2</ele><time>2026-03-08T06:21:32.000Z</time></trkpt>
<trkpt lat="42.079156" lon="23.629884"><ele>1753.2</ele><time>2026-03-08T06:21:33.000Z</time></trkpt>
<trkpt lat="42.079156" lon="23.629883"><ele>1753.2</ele><time>2026-03-08T06:21:34.000Z</time></trkpt>
<trkpt lat="42.079156" lon="23.629882"><ele>1753.2</ele><time>2026-03-08T06:21:35.000Z</time></trkpt>
<trkpt lat="42.079155" lon="23.629881"><ele>1753.2</ele><time>2026-03-08T06:21:36.000Z</time></trkpt>
<trkpt lat="42.079154" lon="23.629881"><ele>1753.3</ele><time>2026-03-08T06:21:37.000Z</time></trkpt>
<trkpt lat="42.079154" lon="23.62988"><ele>1753.3</ele><time>2026-03-08T06:21:38.000Z</time></trkpt>
<trkpt lat="42.079153" lon="23.629881"><ele>1753.3</ele><time>2026-03-08T06:21:39.000Z</time></trkpt>
<trkpt lat="42.079153" lon="23.629881"><ele>1753.3</ele><time>2026-03-08T06:21:40.000Z</time></trkpt>
<trkpt lat="42.079153" lon="23.629881"><ele>1753.3</ele><time>2026-03-08T06:21:41.000Z</time></trkpt>
<trkpt lat="42.079154" lon="23.62988"><ele>1753.3</ele><time>2026-03-08T06:21:42.000Z</time></trkpt>
<trkpt lat="42.079153" lon="23.62988"><ele>1753.3</ele><time>2026-03-08T06:21:43.000Z</time></trkpt>
<trkpt lat="42.079154" lon="23.62988"><ele>1753.3</ele><time>2026-03-08T06:21:44.000Z</time></trkpt>
<trkpt lat="42.079155" lon="23.629879"><ele>1753.3</ele><time>2026-03-08T06:21:45.000Z</time></trkpt>
<trkpt lat="42.079156" lon="23.629879"><ele>1753.3</ele><time>2026-03-08T06:21:46.000Z</time></trkpt>
<trkpt lat="42.079156" lon="23.62988"><ele>1753.3</ele><time>2026-03-08T06:21:47.000Z</time></trkpt>
<trkpt lat="42.079157" lon="23.629881"><ele>1753.3</ele><time>2026-03-08T06:21:48.000Z</time></trkpt>
<trkpt lat="42.079158" lon="23.629883"><ele>1753.3</ele><time>2026-03-08T06:21:49.000Z</time></trkpt>
<trkpt lat="42.079159" lon="23.629883"><ele>1753.3</ele><time>2026-03-08T06:21:50.000Z</time></trkpt>
<trkpt lat="42.079159" lon="23.629883"><ele>1753.3</ele><time>2026-03-08T06:21:51.000Z</time></trkpt>
<trkpt lat="42.07916" lon="23.629883"><ele>1753.3</ele><time>2026-03-08T06:21:52.000Z</time></trkpt>
<trkpt lat="42.07916" lon="23.629882"><ele>1753.3</ele><time>2026-03-08T06:21:53.000Z</time></trkpt>
<trkpt lat="42.07916" lon="23.629881"><ele>1753.3</ele><time>2026-03-08T06:21:54.000Z</time></trkpt>
<trkpt lat="42.07916" lon="23.629881"><ele>1753.3</ele><time>2026-03-08T06:21:55.000Z</time></trkpt>
<trkpt lat="42.07916" lon="23.629882"><ele>1753.3</ele><time>2026-03-08T06:21:56.000Z</time></trkpt>
<trkpt lat="42.07916" lon="23.629883"><ele>1753.4</ele><time>2026-03-08T06:21:57.000Z</time></trkpt>
<trkpt lat="42.07916" lon="23.629885"><ele>1753.4</ele><time>2026-03-08T06:21:58.000Z</time></trkpt>
<trkpt lat="42.079161" lon="23.629886"><ele>1753.4</ele><time>2026-03-08T06:21:59.000Z</time></trkpt>
<trkpt lat="42.079162" lon="23.629887"><ele>1753.4</ele><time>2026-03-08T06:22:00.000Z</time></trkpt>
<trkpt lat="42.079164" lon="23.629888"><ele>1753.4</ele><time>2026-03-08T06:22:01.000Z</time></trkpt>
<trkpt lat="42.079165" lon="23.629887"><ele>1753.4</ele><time>2026-03-08T06:22:02.000Z</time></trkpt>
<trkpt lat="42.079167" lon="23.629886"><ele>1753.4</ele><time>2026-03-08T06:22:03.000Z</time></trkpt>
<trkpt lat="42.079168" lon="23.629885"><ele>1753.4</ele><time>2026-03-08T06:22:04.000Z</time></trkpt>
<trkpt lat="42.079168" lon="23.629884"><ele>1753.4</ele><time>2026-03-08T06:22:05.000Z</time></trkpt>
<trkpt lat="42.079167" lon="23.629884"><ele>1753.4</ele><time>2026-03-08T06:22:06.000Z</time></trkpt>
<trkpt lat="42.079166" lon="23.629884"><ele>1753.2</ele><time>2026-03-08T06:22:07.000Z</time></trkpt>
<trkpt lat="42.079165" lon="23.629885"><ele>1753.2</ele><time>2026-03-08T06:22:08.000Z</time></trkpt>
<trkpt lat="42.079165" lon="23.629885"><ele>1753.2</ele><time>2026-03-08T06:22:09.000Z</time></trkpt>
<trkpt lat="42.079164" lon="23.629885"><ele>1753.2</ele><time>2026-03-08T06:22:10.000Z</time></trkpt>
<trkpt lat="42.079164" lon="23.629887"><ele>1753.2</ele><time>2026-03-08T06:22:11.000Z</time></trkpt>
<trkpt lat="42.079164" lon="23.629888"><ele>1753.1</ele><time>2026-03-08T06:22:12.000Z</time></trkpt>
<trkpt lat="42.079164" lon="23.629891"><ele>1753.1</ele><time>2026-03-08T06:22:13.000Z</time></trkpt>
<trkpt lat="42.079163" lon="23.629894"><ele>1753.1</ele><time>2026-03-08T06:22:14.000Z</time></trkpt>
<trkpt lat="42.079164" lon="23.629897"><ele>1753.1</ele><time>2026-03-08T06:22:15.000Z</time></trkpt>
<trkpt lat="42.079164" lon="23.629898"><ele>1753.1</ele><time>2026-03-08T06:22:16.000Z</time></trkpt>
<trkpt lat="42.079165" lon="23.629899"><ele>1752.9</ele><time>2026-03-08T06:22:17.000Z</time></trkpt>
<trkpt lat="42.079165" lon="23.629899"><ele>1752.9</ele><time>2026-03-08T06:22:18.000Z</time></trkpt>
<trkpt lat="42.079167" lon="23.629899"><ele>1752.9</ele><time>2026-03-08T06:22:19.000Z</time></trkpt>
<trkpt lat="42.079167" lon="23.629898"><ele>1752.9</ele><time>2026-03-08T06:22:20.000Z</time></trkpt>
<trkpt lat="42.079168" lon="23.629898"><ele>1752.9</ele><time>2026-03-08T06:22:21.000Z</time></trkpt>
<trkpt lat="42.079168" lon="23.629897"><ele>1752.8</ele><time>2026-03-08T06:22:22.000Z</time></trkpt>
<trkpt lat="42.079168" lon="23.629895"><ele>1752.8</ele><time>2026-03-08T06:22:23.000Z</time></trkpt>
<trkpt lat="42.079167" lon="23.629894"><ele>1752.8</ele><time>2026-03-08T06:22:24.000Z</time></trkpt>
<trkpt lat="42.079166" lon="23.629893"><ele>1752.8</ele><time>2026-03-08T06:22:25.000Z</time></trkpt>
<trkpt lat="42.079165" lon="23.629891"><ele>1752.8</ele><time>2026-03-08T06:22:26.000Z</time></trkpt>
<trkpt lat="42.079164" lon="23.629891"><ele>1752.9</ele><time>2026-03-08T06:22:27.000Z</time></trkpt>
<trkpt lat="42.079164" lon="23.629889"><ele>1752.9</ele><time>2026-03-08T06:22:28.000Z</time></trkpt>
<trkpt lat="42.079164" lon="23.629888"><ele>1752.9</ele><time>2026-03-08T06:22:29.000Z</time></trkpt>
<trkpt lat="42.079164" lon="23.629886"><ele>1752.9</ele><time>2026-03-08T06:22:30.000Z</time></trkpt>
<trkpt lat="42.079163" lon="23.629884"><ele>1752.9</ele><time>2026-03-08T06:22:31.000Z</time></trkpt>
<trkpt lat="42.079163" lon="23.629882"><ele>1753</ele><time>2026-03-08T06:22:32.000Z</time></trkpt>
<trkpt lat="42.079162" lon="23.629881"><ele>1753</ele><time>2026-03-08T06:22:33.000Z</time></trkpt>
<trkpt lat="42.079161" lon="23.629881"><ele>1753</ele><time>2026-03-08T06:22:34.000Z</time></trkpt>
<trkpt lat="42.079161" lon="23.62988"><ele>1753</ele><time>2026-03-08T06:22:35.000Z</time></trkpt>
<trkpt lat="42.079161" lon="23.629881"><ele>1753</ele><time>2026-03-08T06:22:36.000Z</time></trkpt>
<trkpt lat="42.079161" lon="23.629881"><ele>1753.1</ele><time>2026-03-08T06:22:37.000Z</time></trkpt>
<trkpt lat="42.079161" lon="23.629881"><ele>1753.1</ele><time>2026-03-08T06:22:38.000Z</time></trkpt>
<trkpt lat="42.07916" lon="23.629881"><ele>1753.1</ele><time>2026-03-08T06:22:39.000Z</time></trkpt>
<trkpt lat="42.07916" lon="23.629881"><ele>1753.1</ele><time>2026-03-08T06:22:40.000Z</time></trkpt>
<trkpt lat="42.07916" lon="23.629881"><ele>1753.1</ele><time>2026-03-08T06:22:41.000Z</time></trkpt>
<trkpt lat="42.079159" lon="23.629881"><ele>1753.2</ele><time>2026-03-08T06:22:42.000Z</time></trkpt>
<trkpt lat="42.079159" lon="23.629881"><ele>1753.2</ele><time>2026-03-08T06:22:43.000Z</time></trkpt>
<trkpt lat="42.079159" lon="23.629881"><ele>1753.2</ele><time>2026-03-08T06:22:44.000Z</time></trkpt>
<trkpt lat="42.079159" lon="23.629881"><ele>1753.2</ele><time>2026-03-08T06:22:45.000Z</time></trkpt>
<trkpt lat="42.079158" lon="23.62988"><ele>1753.2</ele><time>2026-03-08T06:22:46.000Z</time></trkpt>
<trkpt lat="42.079157" lon="23.62988"><ele>1753.3</ele><time>2026-03-08T06:22:47.000Z</time></trkpt>
<trkpt lat="42.079156" lon="23.62988"><ele>1753.3</ele><time>2026-03-08T06:22:48.000Z</time></trkpt>
<trkpt lat="42.079155" lon="23.629879"><ele>1753.3</ele><time>2026-03-08T06:22:49.000Z</time></trkpt>
<trkpt lat="42.079154" lon="23.629879"><ele>1753.3</ele><time>2026-03-08T06:22:50.000Z</time></trkpt>
<trkpt lat="42.079154" lon="23.629879"><ele>1753.3</ele><time>2026-03-08T06:22:51.000Z</time></trkpt>
<trkpt lat="42.079154" lon="23.629879"><ele>1753.1</ele><time>2026-03-08T06:22:52.000Z</time></trkpt>
<trkpt lat="42.079154" lon="23.629879"><ele>1753.1</ele><time>2026-03-08T06:22:53.000Z</time></trkpt>
<trkpt lat="42.079154" lon="23.629879"><ele>1753.1</ele><time>2026-03-08T06:22:54.000Z</time></trkpt>
<trkpt lat="42.079154" lon="23.629879"><ele>1753.1</ele><time>2026-03-08T06:22:55.000Z</time></trkpt>
<trkpt lat="42.079154" lon="23.62988"><ele>1753.1</ele><time>2026-03-08T06:22:56.000Z</time></trkpt>
<trkpt lat="42.079154" lon="23.62988"><ele>1753</ele><time>2026-03-08T06:22:57.000Z</time></trkpt>
<trkpt lat="42.079154" lon="23.62988"><ele>1753</ele><time>2026-03-08T06:22:58.000Z</time></trkpt>
<trkpt lat="42.079154" lon="23.629881"><ele>1753</ele><time>2026-03-08T06:22:59.000Z</time></trkpt>
<trkpt lat="42.079154" lon="23.629881"><ele>1753</ele><time>2026-03-08T06:23:00.000Z</time></trkpt>
<trkpt lat="42.079154" lon="23.629881"><ele>1753</ele><time>2026-03-08T06:23:01.000Z</time></trkpt>
<trkpt lat="42.079153" lon="23.629881"><ele>1752.9</ele><time>2026-03-08T06:23:02.000Z</time></trkpt>
<trkpt lat="42.079154" lon="23.629882"><ele>1752.9</ele><time>2026-03-08T06:23:03.000Z</time></trkpt>
<trkpt lat="42.079154" lon="23.629882"><ele>1752.9</ele><time>2026-03-08T06:23:04.000Z</time></trkpt>
<trkpt lat="42.079155" lon="23.629882"><ele>1752.9</ele><time>2026-03-08T06:23:05.000Z</time></trkpt>
<trkpt lat="42.079155" lon="23.629882"><ele>1752.9</ele><time>2026-03-08T06:23:06.000Z</time></trkpt>
<trkpt lat="42.079155" lon="23.629881"><ele>1753</ele><time>2026-03-08T06:23:07.000Z</time></trkpt>
<trkpt lat="42.079155" lon="23.62988"><ele>1753</ele><time>2026-03-08T06:23:08.000Z</time></trkpt>
<trkpt lat="42.079156" lon="23.629879"><ele>1753</ele><time>2026-03-08T06:23:09.000Z</time></trkpt>
<trkpt lat="42.079156" lon="23.629879"><ele>1753</ele><time>2026-03-08T06:23:10.000Z</time></trkpt>
<trkpt lat="42.079156" lon="23.629879"><ele>1753</ele><time>2026-03-08T06:23:11.000Z</time></trkpt>
<trkpt lat="42.079156" lon="23.629879"><ele>1753.1</ele><time>2026-03-08T06:23:12.000Z</time></trkpt>
<trkpt lat="42.079156" lon="23.629878"><ele>1753.1</ele><time>2026-03-08T06:23:13.000Z</time></trkpt>
<trkpt lat="42.079156" lon="23.629877"><ele>1753.1</ele><time>2026-03-08T06:23:14.000Z</time></trkpt>
<trkpt lat="42.079156" lon="23.629876"><ele>1753.1</ele><time>2026-03-08T06:23:15.000Z</time></trkpt>
<trkpt lat="42.079155" lon="23.629876"><ele>1753.1</ele><time>2026-03-08T06:23:16.000Z</time></trkpt>
<trkpt lat="42.079155" lon="23.629875"><ele>1753.3</ele><time>2026-03-08T06:23:17.000Z</time></trkpt>
<trkpt lat="42.079155" lon="23.629875"><ele>1753.3</ele><time>2026-03-08T06:23:18.000Z</time></trkpt>
<trkpt lat="42.079154" lon="23.629874"><ele>1753.3</ele><time>2026-03-08T06:23:19.000Z</time></trkpt>
<trkpt lat="42.079154" lon="23.629876"><ele>1753.3</ele><time>2026-03-08T06:23:20.000Z</time></trkpt>
<trkpt lat="42.079154" lon="23.629877"><ele>1753.3</ele><time>2026-03-08T06:23:21.000Z</time></trkpt>
<trkpt lat="42.079154" lon="23.62988"><ele>1753.3</ele><time>2026-03-08T06:23:22.000Z</time></trkpt>
<trkpt lat="42.079155" lon="23.629885"><ele>1753.3</ele><time>2026-03-08T06:23:23.000Z</time></trkpt>
<trkpt lat="42.079154" lon="23.62989"><ele>1753.3</ele><time>2026-03-08T06:23:24.000Z</time></trkpt>
<trkpt lat="42.079155" lon="23.629895"><ele>1753.3</ele><time>2026-03-08T06:23:25.000Z</time></trkpt>
<trkpt lat="42.079156" lon="23.629901"><ele>1753.3</ele><time>2026-03-08T06:23:26.000Z</time></trkpt>
<trkpt lat="42.079158" lon="23.629907"><ele>1753.2</ele><time>2026-03-08T06:23:27.000Z</time></trkpt>
<trkpt lat="42.07916" lon="23.629913"><ele>1753.2</ele><time>2026-03-08T06:23:28.000Z</time></trkpt>
<trkpt lat="42.079164" lon="23.62992"><ele>1753.2</ele><time>2026-03-08T06:23:29.000Z</time></trkpt>
<trkpt lat="42.079169" lon="23.629927"><ele>1753.2</ele><time>2026-03-08T06:23:30.000Z</time></trkpt>
<trkpt lat="42.079174" lon="23.629935"><ele>1753.2</ele><time>2026-03-08T06:23:31.000Z</time></trkpt>
<trkpt lat="42.07918" lon="23.629942"><ele>1752.9</ele><time>2026-03-08T06:23:32.000Z</time></trkpt>
<trkpt lat="42.079188" lon="23.62995"><ele>1752.9</ele><time>2026-03-08T06:23:33.000Z</time></trkpt>
<trkpt lat="42.079196" lon="23.629957"><ele>1752.9</ele><time>2026-03-08T06:23:34.000Z</time></trkpt>
<trkpt lat="42.079203" lon="23.629964"><ele>1752.9</ele><time>2026-03-08T06:23:35.000Z</time></trkpt>
<trkpt lat="42.079211" lon="23.629971"><ele>1752.9</ele><time>2026-03-08T06:23:36.000Z</time></trkpt>
<trkpt lat="42.079218" lon="23.62998"><ele>1752.9</ele><time>2026-03-08T06:23:37.000Z</time></trkpt>
<trkpt lat="42.079225" lon="23.629988"><ele>1752.9</ele><time>2026-03-08T06:23:38.000Z</time></trkpt>
<trkpt lat="42.079232" lon="23.629998"><ele>1752.9</ele><time>2026-03-08T06:23:39.000Z</time></trkpt>
<trkpt lat="42.07924" lon="23.630007"><ele>1752.9</ele><time>2026-03-08T06:23:40.000Z</time></trkpt>
<trkpt lat="42.079248" lon="23.630015"><ele>1752.9</ele><time>2026-03-08T06:23:41.000Z</time></trkpt>
<trkpt lat="42.079257" lon="23.630021"><ele>1753</ele><time>2026-03-08T06:23:42.000Z</time></trkpt>
<trkpt lat="42.079265" lon="23.630026"><ele>1753</ele><time>2026-03-08T06:23:43.000Z</time></trkpt>
<trkpt lat="42.079273" lon="23.63003"><ele>1753</ele><time>2026-03-08T06:23:44.000Z</time></trkpt>
<trkpt lat="42.079282" lon="23.630034"><ele>1753</ele><time>2026-03-08T06:23:45.000Z</time></trkpt>
<trkpt lat="42.07929" lon="23.630037"><ele>1753</ele><time>2026-03-08T06:23:46.000Z</time></trkpt>
<trkpt lat="42.079297" lon="23.63004"><ele>1753.4</ele><time>2026-03-08T06:23:47.000Z</time></trkpt>
<trkpt lat="42.079305" lon="23.630045"><ele>1753.4</ele><time>2026-03-08T06:23:48.000Z</time></trkpt>
<trkpt lat="42.079313" lon="23.63005"><ele>1753.4</ele><time>2026-03-08T06:23:49.000Z</time></trkpt>
<trkpt lat="42.079321" lon="23.630056"><ele>1753.4</ele><time>2026-03-08T06:23:50.000Z</time></trkpt>
<trkpt lat="42.079329" lon="23.630063"><ele>1753.4</ele><time>2026-03-08T06:23:51.000Z</time></trkpt>
<trkpt lat="42.079338" lon="23.630071"><ele>1753.8</ele><time>2026-03-08T06:23:52.000Z</time></trkpt>
<trkpt lat="42.079347" lon="23.630079"><ele>1753.8</ele><time>2026-03-08T06:23:53.000Z</time></trkpt>
<trkpt lat="42.079355" lon="23.630087"><ele>1753.8</ele><time>2026-03-08T06:23:54.000Z</time></trkpt>
<trkpt lat="42.079363" lon="23.630096"><ele>1753.8</ele><time>2026-03-08T06:23:55.000Z</time></trkpt>
<trkpt lat="42.079372" lon="23.630102"><ele>1753.8</ele><time>2026-03-08T06:23:56.000Z</time></trkpt>
<trkpt lat="42.07938" lon="23.630109"><ele>1754</ele><time>2026-03-08T06:23:57.000Z</time></trkpt>
<trkpt lat="42.079387" lon="23.630116"><ele>1754</ele><time>2026-03-08T06:23:58.000Z</time></trkpt>
<trkpt lat="42.079394" lon="23.630122"><ele>1754</ele><time>2026-03-08T06:23:59.000Z</time></trkpt>
<trkpt lat="42.079403" lon="23.630126"><ele>1754</ele><time>2026-03-08T06:24:00.000Z</time></trkpt>
<trkpt lat="42.079411" lon="23.63013"><ele>1754</ele><time>2026-03-08T06:24:01.000Z</time></trkpt>
<trkpt lat="42.07942" lon="23.630134"><ele>1754.5</ele><time>2026-03-08T06:24:02.000Z</time></trkpt>
<trkpt lat="42.07943" lon="23.630135"><ele>1754.5</ele><time>2026-03-08T06:24:03.000Z</time></trkpt>
<trkpt lat="42.079439" lon="23.630137"><ele>1754.5</ele><time>2026-03-08T06:24:04.000Z</time></trkpt>
<trkpt lat="42.079447" lon="23.63014"><ele>1754.5</ele><time>2026-03-08T06:24:05.000Z</time></trkpt>
<trkpt lat="42.079456" lon="23.630141"><ele>1754.5</ele><time>2026-03-08T06:24:06.000Z</time></trkpt>
<trkpt lat="42.079465" lon="23.630141"><ele>1754.7</ele><time>2026-03-08T06:24:07.000Z</time></trkpt>
<trkpt lat="42.079474" lon="23.63014"><ele>1754.7</ele><time>2026-03-08T06:24:08.000Z</time></trkpt>
<trkpt lat="42.079485" lon="23.630139"><ele>1754.7</ele><time>2026-03-08T06:24:09.000Z</time></trkpt>
<trkpt lat="42.079497" lon="23.630137"><ele>1754.7</ele><time>2026-03-08T06:24:10.000Z</time></trkpt>
<trkpt lat="42.079509" lon="23.630135"><ele>1754.7</ele><time>2026-03-08T06:24:11.000Z</time></trkpt>
<trkpt lat="42.07952" lon="23.630135"><ele>1754.8</ele><time>2026-03-08T06:24:12.000Z</time></trkpt>
<trkpt lat="42.079531" lon="23.630135"><ele>1754.8</ele><time>2026-03-08T06:24:13.000Z</time></trkpt>
<trkpt lat="42.07954" lon="23.630134"><ele>1754.8</ele><time>2026-03-08T06:24:14.000Z</time></trkpt>
<trkpt lat="42.079549" lon="23.630134"><ele>1754.8</ele><time>2026-03-08T06:24:15.000Z</time></trkpt>
<trkpt lat="42.079557" lon="23.630133"><ele>1754.8</ele><time>2026-03-08T06:24:16.000Z</time></trkpt>
<trkpt lat="42.079566" lon="23.630131"><ele>1755</ele><time>2026-03-08T06:24:17.000Z</time></trkpt>
<trkpt lat="42.079576" lon="23.63013"><ele>1755</ele><time>2026-03-08T06:24:18.000Z</time></trkpt>
<trkpt lat="42.079586" lon="23.630129"><ele>1755</ele><time>2026-03-08T06:24:19.000Z</time></trkpt>
<trkpt lat="42.079595" lon="23.630128"><ele>1755</ele><time>2026-03-08T06:24:20.000Z</time></trkpt>
<trkpt lat="42.079606" lon="23.630128"><ele>1755</ele><time>2026-03-08T06:24:21.000Z</time></trkpt>
<trkpt lat="42.079617" lon="23.630128"><ele>1755.4</ele><time>2026-03-08T06:24:22.000Z</time></trkpt>
<trkpt lat="42.079628" lon="23.630127"><ele>1755.4</ele><time>2026-03-08T06:24:23.000Z</time></trkpt>
<trkpt lat="42.079639" lon="23.630124"><ele>1755.4</ele><time>2026-03-08T06:24:24.000Z</time></trkpt>
<trkpt lat="42.079651" lon="23.630121"><ele>1755.4</ele><time>2026-03-08T06:24:25.000Z</time></trkpt>
<trkpt lat="42.079663" lon="23.630117"><ele>1755.4</ele><time>2026-03-08T06:24:26.000Z</time></trkpt>
<trkpt lat="42.079675" lon="23.630111"><ele>1755.6</ele><time>2026-03-08T06:24:27.000Z</time></trkpt>
<trkpt lat="42.079687" lon="23.630105"><ele>1755.6</ele><time>2026-03-08T06:24:28.000Z</time></trkpt>
<trkpt lat="42.079699" lon="23.630099"><ele>1755.6</ele><time>2026-03-08T06:24:29.000Z</time></trkpt>
<trkpt lat="42.079711" lon="23.630094"><ele>1755.6</ele><time>2026-03-08T06:24:30.000Z</time></trkpt>
<trkpt lat="42.079724" lon="23.63009"><ele>1755.6</ele><time>2026-03-08T06:24:31.000Z</time></trkpt>
<trkpt lat="42.079736" lon="23.630085"><ele>1755.9</ele><time>2026-03-08T06:24:32.000Z</time></trkpt>
<trkpt lat="42.079749" lon="23.630081"><ele>1755.9</ele><time>2026-03-08T06:24:33.000Z</time></trkpt>
<trkpt lat="42.079761" lon="23.630077"><ele>1755.9</ele><time>2026-03-08T06:24:34.000Z</time></trkpt>
<trkpt lat="42.079773" lon="23.630073"><ele>1755.9</ele><time>2026-03-08T06:24:35.000Z</time></trkpt>
<trkpt lat="42.079783" lon="23.630069"><ele>1755.9</ele><time>2026-03-08T06:24:36.000Z</time></trkpt>
<trkpt lat="42.079794" lon="23.630066"><ele>1756.3</ele><time>2026-03-08T06:24:37.000Z</time></trkpt>
<trkpt lat="42.079805" lon="23.630063"><ele>1756.3</ele><time>2026-03-08T06:24:38.000Z</time></trkpt>
<trkpt lat="42.079815" lon="23.630063"><ele>1756.3</ele><time>2026-03-08T06:24:39.000Z</time></trkpt>
<trkpt lat="42.079827" lon="23.630062"><ele>1756.3</ele><time>2026-03-08T06:24:40.000Z</time></trkpt>
<trkpt lat="42.079838" lon="23.630062"><ele>1756.3</ele><time>2026-03-08T06:24:41.000Z</time></trkpt>
<trkpt lat="42.079848" lon="23.630061"><ele>1756.5</ele><time>2026-03-08T06:24:42.000Z</time></trkpt>
<trkpt lat="42.079859" lon="23.63006"><ele>1756.5</ele><time>2026-03-08T06:24:43.000Z</time></trkpt>
<trkpt lat="42.079869" lon="23.630057"><ele>1756.5</ele><time>2026-03-08T06:24:44.000Z</time></trkpt>
<trkpt lat="42.079881" lon="23.630054"><ele>1756.5</ele><time>2026-03-08T06:24:45.000Z</time></trkpt>
<trkpt lat="42.079893" lon="23.630051"><ele>1756.5</ele><time>2026-03-08T06:24:46.000Z</time></trkpt>
<trkpt lat="42.079905" lon="23.630049"><ele>1757</ele><time>2026-03-08T06:24:47.000Z</time></trkpt>
<trkpt lat="42.079917" lon="23.630047"><ele>1757</ele><time>2026-03-08T06:24:48.000Z</time></trkpt>
<trkpt lat="42.079928" lon="23.630048"><ele>1757</ele><time>2026-03-08T06:24:49.000Z</time></trkpt>
<trkpt lat="42.079936" lon="23.630049"><ele>1757</ele><time>2026-03-08T06:24:50.000Z</time></trkpt>
<trkpt lat="42.079944" lon="23.630052"><ele>1757</ele><time>2026-03-08T06:24:51.000Z</time></trkpt>
<trkpt lat="42.07995" lon="23.630055"><ele>1757.6</ele><time>2026-03-08T06:24:52.000Z</time></trkpt>
<trkpt lat="42.079955" lon="23.630058"><ele>1757.6</ele><time>2026-03-08T06:24:53.000Z</time></trkpt>
<trkpt lat="42.079959" lon="23.63006"><ele>1757.6</ele><time>2026-03-08T06:24:54.000Z</time></trkpt>
<trkpt lat="42.079965" lon="23.630061"><ele>1757.6</ele><time>2026-03-08T06:24:55.000Z</time></trkpt>
<trkpt lat="42.079973" lon="23.630061"><ele>1757.6</ele><time>2026-03-08T06:24:56.000Z</time></trkpt>
<trkpt lat="42.079982" lon="23.630061"><ele>1758</ele><time>2026-03-08T06:24:57.000Z</time></trkpt>
<trkpt lat="42.079993" lon="23.630062"><ele>1758</ele><time>2026-03-08T06:24:58.000Z</time></trkpt>
<trkpt lat="42.080007" lon="23.630063"><ele>1758</ele><time>2026-03-08T06:24:59.000Z</time></trkpt>
<trkpt lat="42.080021" lon="23.630065"><ele>1758</ele><time>2026-03-08T06:25:00.000Z</time></trkpt>
<trkpt lat="42.080033" lon="23.630068"><ele>1758</ele><time>2026-03-08T06:25:01.000Z</time></trkpt>
<trkpt lat="42.080045" lon="23.630071"><ele>1758.8</ele><time>2026-03-08T06:25:02.000Z</time></trkpt>
<trkpt lat="42.080057" lon="23.630074"><ele>1758.8</ele><time>2026-03-08T06:25:03.000Z</time></trkpt>
<trkpt lat="42.080069" lon="23.630075"><ele>1758.8</ele><time>2026-03-08T06:25:04.000Z</time></trkpt>
<trkpt lat="42.08008" lon="23.630077"><ele>1758.8</ele><time>2026-03-08T06:25:05.000Z</time></trkpt>
<trkpt lat="42.080092" lon="23.630076"><ele>1758.8</ele><time>2026-03-08T06:25:06.000Z</time></trkpt>
<trkpt lat="42.080105" lon="23.630075"><ele>1759.5</ele><time>2026-03-08T06:25:07.000Z</time></trkpt>
<trkpt lat="42.080117" lon="23.630074"><ele>1759.5</ele><time>2026-03-08T06:25:08.000Z</time></trkpt>
<trkpt lat="42.080127" lon="23.630073"><ele>1759.5</ele><time>2026-03-08T06:25:09.000Z</time></trkpt>
<trkpt lat="42.080138" lon="23.630072"><ele>1759.5</ele><time>2026-03-08T06:25:10.000Z</time></trkpt>
<trkpt lat="42.080149" lon="23.630072"><ele>1759.5</ele><time>2026-03-08T06:25:11.000Z</time></trkpt>
<trkpt lat="42.08016" lon="23.630071"><ele>1759.8</ele><time>2026-03-08T06:25:12.000Z</time></trkpt>
<trkpt lat="42.080172" lon="23.630069"><ele>1759.8</ele><time>2026-03-08T06:25:13.000Z</time></trkpt>
<trkpt lat="42.080184" lon="23.630067"><ele>1759.8</ele><time>2026-03-08T06:25:14.000Z</time></trkpt>
<trkpt lat="42.080196" lon="23.630063"><ele>1759.8</ele><time>2026-03-08T06:25:15.000Z</time></trkpt>
<trkpt lat="42.080208" lon="23.630059"><ele>1759.8</ele><time>2026-03-08T06:25:16.000Z</time></trkpt>
<trkpt lat="42.08022" lon="23.630056"><ele>1760.3</ele><time>2026-03-08T06:25:17.000Z</time></trkpt>
<trkpt lat="42.080234" lon="23.630054"><ele>1760.3</ele><time>2026-03-08T06:25:18.000Z</time></trkpt>
<trkpt lat="42.080248" lon="23.630053"><ele>1760.3</ele><time>2026-03-08T06:25:19.000Z</time></trkpt>
<trkpt lat="42.080263" lon="23.630053"><ele>1760.3</ele><time>2026-03-08T06:25:20.000Z</time></trkpt>
<trkpt lat="42.080278" lon="23.630053"><ele>1760.3</ele><time>2026-03-08T06:25:21.000Z</time></trkpt>
<trkpt lat="42.080292" lon="23.630055"><ele>1761</ele><time>2026-03-08T06:25:22.000Z</time></trkpt>
<trkpt lat="42.080307" lon="23.630056"><ele>1761</ele><time>2026-03-08T06:25:23.000Z</time></trkpt>
<trkpt lat="42.080319" lon="23.630057"><ele>1761</ele><time>2026-03-08T06:25:24.000Z</time></trkpt>
<trkpt lat="42.080332" lon="23.630058"><ele>1761</ele><time>2026-03-08T06:25:25.000Z</time></trkpt>
<trkpt lat="42.080343" lon="23.630057"><ele>1761</ele><time>2026-03-08T06:25:26.000Z</time></trkpt>
<trkpt lat="42.080355" lon="23.630055"><ele>1761.3</ele><time>2026-03-08T06:25:27.000Z</time></trkpt>
<trkpt lat="42.080367" lon="23.630053"><ele>1761.3</ele><time>2026-03-08T06:25:28.000Z</time></trkpt>
<trkpt lat="42.08038" lon="23.630052"><ele>1761.3</ele><time>2026-03-08T06:25:29.000Z</time></trkpt>
<trkpt lat="42.080394" lon="23.630051"><ele>1761.3</ele><time>2026-03-08T06:25:30.000Z</time></trkpt>
<trkpt lat="42.080408" lon="23.630051"><ele>1761.3</ele><time>2026-03-08T06:25:31.000Z</time></trkpt>
<trkpt lat="42.080423" lon="23.630052"><ele>1762</ele><time>2026-03-08T06:25:32.000Z</time></trkpt>
<trkpt lat="42.080436" lon="23.630054"><ele>1762</ele><time>2026-03-08T06:25:33.000Z</time></trkpt>
<trkpt lat="42.080448" lon="23.630057"><ele>1762</ele><time>2026-03-08T06:25:34.000Z</time></trkpt>
<trkpt lat="42.080459" lon="23.630061"><ele>1762</ele><time>2026-03-08T06:25:35.000Z</time></trkpt>
<trkpt lat="42.080468" lon="23.630067"><ele>1762</ele><time>2026-03-08T06:25:36.000Z</time></trkpt>
<trkpt lat="42.080475" lon="23.630074"><ele>1762.5</ele><time>2026-03-08T06:25:37.000Z</time></trkpt>
<trkpt lat="42.080481" lon="23.630081"><ele>1762.5</ele><time>2026-03-08T06:25:38.000Z</time></trkpt>
<trkpt lat="42.080487" lon="23.630087"><ele>1762.5</ele><time>2026-03-08T06:25:39.000Z</time></trkpt>
<trkpt lat="42.080494" lon="23.630091"><ele>1762.5</ele><time>2026-03-08T06:25:40.000Z</time></trkpt>
<trkpt lat="42.080502" lon="23.630094"><ele>1762.5</ele><time>2026-03-08T06:25:41.000Z</time></trkpt>
<trkpt lat="42.080511" lon="23.630095"><ele>1762.7</ele><time>2026-03-08T06:25:42.000Z</time></trkpt>
<trkpt lat="42.080522" lon="23.630096"><ele>1762.7</ele><time>2026-03-08T06:25:43.000Z</time></trkpt>
<trkpt lat="42.080534" lon="23.630097"><ele>1762.7</ele><time>2026-03-08T06:25:44.000Z</time></trkpt>
<trkpt lat="42.080546" lon="23.630097"><ele>1762.7</ele><time>2026-03-08T06:25:45.000Z</time></trkpt>
<trkpt lat="42.080558" lon="23.630096"><ele>1762.7</ele><time>2026-03-08T06:25:46.000Z</time></trkpt>
<trkpt lat="42.08057" lon="23.630094"><ele>1763.1</ele><time>2026-03-08T06:25:47.000Z</time></trkpt>
<trkpt lat="42.08058" lon="23.630092"><ele>1763.1</ele><time>2026-03-08T06:25:48.000Z</time></trkpt>
<trkpt lat="42.080589" lon="23.630088"><ele>1763.1</ele><time>2026-03-08T06:25:49.000Z</time></trkpt>
<trkpt lat="42.080597" lon="23.630083"><ele>1763.1</ele><time>2026-03-08T06:25:50.000Z</time></trkpt>
<trkpt lat="42.080605" lon="23.630079"><ele>1763.1</ele><time>2026-03-08T06:25:51.000Z</time></trkpt>
<trkpt lat="42.080613" lon="23.630076"><ele>1763.5</ele><time>2026-03-08T06:25:52.000Z</time></trkpt>
<trkpt lat="42.080621" lon="23.630073"><ele>1763.5</ele><time>2026-03-08T06:25:53.000Z</time></trkpt>
<trkpt lat="42.08063" lon="23.63007"><ele>1763.5</ele><time>2026-03-08T06:25:54.000Z</time></trkpt>
<trkpt lat="42.080639" lon="23.630068"><ele>1763.5</ele><time>2026-03-08T06:25:55.000Z</time></trkpt>
<trkpt lat="42.080648" lon="23.630065"><ele>1763.5</ele><time>2026-03-08T06:25:56.000Z</time></trkpt>
<trkpt lat="42.080658" lon="23.63006"><ele>1763.8</ele><time>2026-03-08T06:25:57.000Z</time></trkpt>
<trkpt lat="42.08067" lon="23.630056"><ele>1763.8</ele><time>2026-03-08T06:25:58.000Z</time></trkpt>
<trkpt lat="42.080681" lon="23.630052"><ele>1763.8</ele><time>2026-03-08T06:25:59.000Z</time></trkpt>
<trkpt lat="42.080691" lon="23.630048"><ele>1763.8</ele><time>2026-03-08T06:26:00.000Z</time></trkpt>
<trkpt lat="42.080702" lon="23.630046"><ele>1763.8</ele><time>2026-03-08T06:26:01.000Z</time></trkpt>
<trkpt lat="42.080712" lon="23.630044"><ele>1764.4</ele><time>2026-03-08T06:26:02.000Z</time></trkpt>
<trkpt lat="42.080723" lon="23.630042"><ele>1764.4</ele><time>2026-03-08T06:26:03.000Z</time></trkpt>
<trkpt lat="42.080733" lon="23.630041"><ele>1764.4</ele><time>2026-03-08T06:26:04.000Z</time></trkpt>
<trkpt lat="42.080743" lon="23.630039"><ele>1764.4</ele><time>2026-03-08T06:26:05.000Z</time></trkpt>
<trkpt lat="42.080752" lon="23.630039"><ele>1764.4</ele><time>2026-03-08T06:26:06.000Z</time></trkpt>
<trkpt lat="42.080761" lon="23.630039"><ele>1764.9</ele><time>2026-03-08T06:26:07.000Z</time></trkpt>
<trkpt lat="42.08077" lon="23.630037"><ele>1764.9</ele><time>2026-03-08T06:26:08.000Z</time></trkpt>
<trkpt lat="42.080779" lon="23.630036"><ele>1764.9</ele><time>2026-03-08T06:26:09.000Z</time></trkpt>
<trkpt lat="42.08079" lon="23.630035"><ele>1764.9</ele><time>2026-03-08T06:26:10.000Z</time></trkpt>
<trkpt lat="42.080801" lon="23.630035"><ele>1764.9</ele><time>2026-03-08T06:26:11.000Z</time></trkpt>
<trkpt lat="42.080813" lon="23.630034"><ele>1765.1</ele><time>2026-03-08T06:26:12.000Z</time></trkpt>
<trkpt lat="42.080825" lon="23.630035"><ele>1765.1</ele><time>2026-03-08T06:26:13.000Z</time></trkpt>
<trkpt lat="42.080835" lon="23.630036"><ele>1765.1</ele><time>2026-03-08T06:26:14.000Z</time></trkpt>
<trkpt lat="42.080845" lon="23.630036"><ele>1765.1</ele><time>2026-03-08T06:26:15.000Z</time></trkpt>
<trkpt lat="42.080853" lon="23.630037"><ele>1765.1</ele><time>2026-03-08T06:26:16.000Z</time></trkpt>
<trkpt lat="42.080862" lon="23.630037"><ele>1765.5</ele><time>2026-03-08T06:26:17.000Z</time></trkpt>
<trkpt lat="42.080869" lon="23.630035"><ele>1765.5</ele><time>2026-03-08T06:26:18.000Z</time></trkpt>
<trkpt lat="42.080877" lon="23.630033"><ele>1765.5</ele><time>2026-03-08T06:26:19.000Z</time></trkpt>
<trkpt lat="42.080885" lon="23.630029"><ele>1765.5</ele><time>2026-03-08T06:26:20.000Z</time></trkpt>
<trkpt lat="42.080893" lon="23.630024"><ele>1765.5</ele><time>2026-03-08T06:26:21.000Z</time></trkpt>
<trkpt lat="42.0809" lon="23.63002"><ele>1765.7</ele><time>2026-03-08T06:26:22.000Z</time></trkpt>
<trkpt lat="42.080907" lon="23.630015"><ele>1765.7</ele><time>2026-03-08T06:26:23.000Z</time></trkpt>
<trkpt lat="42.080914" lon="23.630011"><ele>1765.7</ele><time>2026-03-08T06:26:24.000Z</time></trkpt>
<trkpt lat="42.080921" lon="23.630008"><ele>1765.7</ele><time>2026-03-08T06:26:25.000Z</time></trkpt>
<trkpt lat="42.080927" lon="23.630007"><ele>1765.7</ele><time>2026-03-08T06:26:26.000Z</time></trkpt>
<trkpt lat="42.080933" lon="23.630006"><ele>1765.9</ele><time>2026-03-08T06:26:27.000Z</time></trkpt>
<trkpt lat="42.080939" lon="23.630005"><ele>1765.9</ele><time>2026-03-08T06:26:28.000Z</time></trkpt>
<trkpt lat="42.080945" lon="23.630005"><ele>1765.9</ele><time>2026-03-08T06:26:29.000Z</time></trkpt>
<trkpt lat="42.080951" lon="23.630004"><ele>1765.9</ele><time>2026-03-08T06:26:30.000Z</time></trkpt>
<trkpt lat="42.080956" lon="23.630003"><ele>1765.9</ele><time>2026-03-08T06:26:31.000Z</time></trkpt>
<trkpt lat="42.080961" lon="23.630002"><ele>1766.4</ele><time>2026-03-08T06:26:32.000Z</time></trkpt>
<trkpt lat="42.080965" lon="23.63"><ele>1766.4</ele><time>2026-03-08T06:26:33.000Z</time></trkpt>
<trkpt lat="42.08097" lon="23.629996"><ele>1766.4</ele><time>2026-03-08T06:26:34.000Z</time></trkpt>
<trkpt lat="42.080977" lon="23.629991"><ele>1766.4</ele><time>2026-03-08T06:26:35.000Z</time></trkpt>
<trkpt lat="42.080983" lon="23.629985"><ele>1766.4</ele><time>2026-03-08T06:26:36.000Z</time></trkpt>
<trkpt lat="42.080991" lon="23.629979"><ele>1766.9</ele><time>2026-03-08T06:26:37.000Z</time></trkpt>
<trkpt lat="42.080999" lon="23.629973"><ele>1766.9</ele><time>2026-03-08T06:26:38.000Z</time></trkpt>
<trkpt lat="42.081007" lon="23.629967"><ele>1766.9</ele><time>2026-03-08T06:26:39.000Z</time></trkpt>
<trkpt lat="42.081015" lon="23.629961"><ele>1766.9</ele><time>2026-03-08T06:26:40.000Z</time></trkpt>
<trkpt lat="42.081024" lon="23.629955"><ele>1766.9</ele><time>2026-03-08T06:26:41.000Z</time></trkpt>
<trkpt lat="42.081034" lon="23.62995"><ele>1767.2</ele><time>2026-03-08T06:26:42.000Z</time></trkpt>
<trkpt lat="42.081045" lon="23.629944"><ele>1767.2</ele><time>2026-03-08T06:26:43.000Z</time></trkpt>
<trkpt lat="42.081057" lon="23.629938"><ele>1767.2</ele><time>2026-03-08T06:26:44.000Z</time></trkpt>
<trkpt lat="42.081067" lon="23.62993"><ele>1767.2</ele><time>2026-03-08T06:26:45.000Z</time></trkpt>
<trkpt lat="42.081077" lon="23.629921"><ele>1767.2</ele><time>2026-03-08T06:26:46.000Z</time></trkpt>
<trkpt lat="42.081087" lon="23.629911"><ele>1767.8</ele><time>2026-03-08T06:26:47.000Z</time></trkpt>
<trkpt lat="42.081096" lon="23.6299"><ele>1767.8</ele><time>2026-03-08T06:26:48.000Z</time></trkpt>
<trkpt lat="42.081107" lon="23.629889"><ele>1767.8</ele><time>2026-03-08T06:26:49.000Z</time></trkpt>
<trkpt lat="42.081118" lon="23.629878"><ele>1767.8</ele><time>2026-03-08T06:26:50.000Z</time></trkpt>
<trkpt lat="42.081127" lon="23.629866"><ele>1767.8</ele><time>2026-03-08T06:26:51.000Z</time></trkpt>
<trkpt lat="42.081135" lon="23.629855"><ele>1768.4</ele><time>2026-03-08T06:26:52.000Z</time></trkpt>
<trkpt lat="42.081141" lon="23.629843"><ele>1768.4</ele><time>2026-03-08T06:26:53.000Z</time></trkpt>
<trkpt lat="42.081144" lon="23.629827"><ele>1768.4</ele><time>2026-03-08T06:26:54.000Z</time></trkpt>
<trkpt lat="42.081146" lon="23.629811"><ele>1768.4</ele><time>2026-03-08T06:26:55.000Z</time></trkpt>
<trkpt lat="42.081146" lon="23.629794"><ele>1768.4</ele><time>2026-03-08T06:26:56.000Z</time></trkpt>
<trkpt lat="42.081146" lon="23.629775"><ele>1768.6</ele><time>2026-03-08T06:26:57.000Z</time></trkpt>
<trkpt lat="42.081146" lon="23.629758"><ele>1768.6</ele><time>2026-03-08T06:26:58.000Z</time></trkpt>
<trkpt lat="42.081146" lon="23.629742"><ele>1768.6</ele><time>2026-03-08T06:26:59.000Z</time></trkpt>
<trkpt lat="42.081147" lon="23.629727"><ele>1768.6</ele><time>2026-03-08T06:27:00.000Z</time></trkpt>
<trkpt lat="42.081147" lon="23.629713"><ele>1768.6</ele><time>2026-03-08T06:27:01.000Z</time></trkpt>
<trkpt lat="42.081146" lon="23.6297"><ele>1769.1</ele><time>2026-03-08T06:27:02.000Z</time></trkpt>
<trkpt lat="42.081144" lon="23.629688"><ele>1769.1</ele><time>2026-03-08T06:27:03.000Z</time></trkpt>
<trkpt lat="42.081141" lon="23.629677"><ele>1769.1</ele><time>2026-03-08T06:27:04.000Z</time></trkpt>
<trkpt lat="42.081138" lon="23.629666"><ele>1769.1</ele><time>2026-03-08T06:27:05.000Z</time></trkpt>
<trkpt lat="42.081134" lon="23.629657"><ele>1769.1</ele><time>2026-03-08T06:27:06.000Z</time></trkpt>
<trkpt lat="42.08113" lon="23.629649"><ele>1769.6</ele><time>2026-03-08T06:27:07.000Z</time></trkpt>
<trkpt lat="42.081127" lon="23.629641"><ele>1769.6</ele><time>2026-03-08T06:27:08.000Z</time></trkpt>
<trkpt lat="42.081124" lon="23.629634"><ele>1769.6</ele><time>2026-03-08T06:27:09.000Z</time></trkpt>
<trkpt lat="42.081119" lon="23.629627"><ele>1769.6</ele><time>2026-03-08T06:27:10.000Z</time></trkpt>
<trkpt lat="42.081115" lon="23.629618"><ele>1769.6</ele><time>2026-03-08T06:27:11.000Z</time></trkpt>
<trkpt lat="42.081108" lon="23.62961"><ele>1769.9</ele><time>2026-03-08T06:27:12.000Z</time></trkpt>
<trkpt lat="42.081099" lon="23.629602"><ele>1769.9</ele><time>2026-03-08T06:27:13.000Z</time></trkpt>
<trkpt lat="42.08109" lon="23.629595"><ele>1769.9</ele><time>2026-03-08T06:27:14.000Z</time></trkpt>
<trkpt lat="42.081079" lon="23.629588"><ele>1769.9</ele><time>2026-03-08T06:27:15.000Z</time></trkpt>
<trkpt lat="42.081068" lon="23.629582"><ele>1769.9</ele><time>2026-03-08T06:27:16.000Z</time></trkpt>
<trkpt lat="42.081057" lon="23.629577"><ele>1770.7</ele><time>2026-03-08T06:27:17.000Z</time></trkpt>
<trkpt lat="42.081045" lon="23.629571"><ele>1770.7</ele><time>2026-03-08T06:27:18.000Z</time></trkpt>
<trkpt lat="42.081034" lon="23.629564"><ele>1770.7</ele><time>2026-03-08T06:27:19.000Z</time></trkpt>
<trkpt lat="42.081024" lon="23.629557"><ele>1770.7</ele><time>2026-03-08T06:27:20.000Z</time></trkpt>
<trkpt lat="42.081015" lon="23.62955"><ele>1770.7</ele><time>2026-03-08T06:27:21.000Z</time></trkpt>
<trkpt lat="42.081007" lon="23.629544"><ele>1771.4</ele><time>2026-03-08T06:27:22.000Z</time></trkpt>
<trkpt lat="42.080999" lon="23.629539"><ele>1771.4</ele><time>2026-03-08T06:27:23.000Z</time></trkpt>
<trkpt lat="42.080991" lon="23.629534"><ele>1771.4</ele><time>2026-03-08T06:27:24.000Z</time></trkpt>
<trkpt lat="42.080983" lon="23.629529"><ele>1771.4</ele><time>2026-03-08T06:27:25.000Z</time></trkpt>
<trkpt lat="42.080975" lon="23.629526"><ele>1771.4</ele><time>2026-03-08T06:27:26.000Z</time></trkpt>
<trkpt lat="42.080967" lon="23.629522"><ele>1771.8</ele><time>2026-03-08T06:27:27.000Z</time></trkpt>
<trkpt lat="42.080958" lon="23.629518"><ele>1771.8</ele><time>2026-03-08T06:27:28.000Z</time></trkpt>
<trkpt lat="42.080949" lon="23.629516"><ele>1771.8</ele><time>2026-03-08T06:27:29.000Z</time></trkpt>
<trkpt lat="42.08094" lon="23.629513"><ele>1771.8</ele><time>2026-03-08T06:27:30.000Z</time></trkpt>
<trkpt lat="42.080932" lon="23.629508"><ele>1771.8</ele><time>2026-03-08T06:27:31.000Z</time></trkpt>
<trkpt lat="42.080923" lon="23.629501"><ele>1772.5</ele><time>2026-03-08T06:27:32.000Z</time></trkpt>
<trkpt lat="42.080915" lon="23.629495"><ele>1772.5</ele><time>2026-03-08T06:27:33.000Z</time></trkpt>
<trkpt lat="42.080906" lon="23.629488"><ele>1772.5</ele><time>2026-03-08T06:27:34.000Z</time></trkpt>
<trkpt lat="42.080896" lon="23.629483"><ele>1772.5</ele><time>2026-03-08T06:27:35.000Z</time></trkpt>
<trkpt lat="42.080886" lon="23.62948"><ele>1772.5</ele><time>2026-03-08T06:27:36.000Z</time></trkpt>
<trkpt lat="42.080875" lon="23.629479"><ele>1773.2</ele><time>2026-03-08T06:27:37.000Z</time></trkpt>
<trkpt lat="42.080864" lon="23.629478"><ele>1773.2</ele><time>2026-03-08T06:27:38.000Z</time></trkpt>
<trkpt lat="42.080853" lon="23.629478"><ele>1773.2</ele><time>2026-03-08T06:27:39.000Z</time></trkpt>
<trkpt lat="42.080842" lon="23.629477"><ele>1773.2</ele><time>2026-03-08T06:27:40.000Z</time></trkpt>
<trkpt lat="42.080832" lon="23.629476"><ele>1773.2</ele><time>2026-03-08T06:27:41.000Z</time></trkpt>
<trkpt lat="42.080823" lon="23.629474"><ele>1773.5</ele><time>2026-03-08T06:27:42.000Z</time></trkpt>
<trkpt lat="42.080813" lon="23.629472"><ele>1773.5</ele><time>2026-03-08T06:27:43.000Z</time></trkpt>
<trkpt lat="42.080803" lon="23.629469"><ele>1773.5</ele><time>2026-03-08T06:27:44.000Z</time></trkpt>
<trkpt lat="42.080793" lon="23.629463"><ele>1773.5</ele><time>2026-03-08T06:27:45.000Z</time></trkpt>
<trkpt lat="42.080782" lon="23.629457"><ele>1773.5</ele><time>2026-03-08T06:27:46.000Z</time></trkpt>
<trkpt lat="42.080771" lon="23.62945"><ele>1774.1</ele><time>2026-03-08T06:27:47.000Z</time></trkpt>
<trkpt lat="42.080761" lon="23.629441"><ele>1774.1</ele><time>2026-03-08T06:27:48.000Z</time></trkpt>
<trkpt lat="42.080751" lon="23.629433"><ele>1774.1</ele><time>2026-03-08T06:27:49.000Z</time></trkpt>
<trkpt lat="42.080743" lon="23.629426"><ele>1774.1</ele><time>2026-03-08T06:27:50.000Z</time></trkpt>
<trkpt lat="42.080734" lon="23.629421"><ele>1774.1</ele><time>2026-03-08T06:27:51.000Z</time></trkpt>
<trkpt lat="42.080726" lon="23.629415"><ele>1774.7</ele><time>2026-03-08T06:27:52.000Z</time></trkpt>
<trkpt lat="42.080717" lon="23.629409"><ele>1774.7</ele><time>2026-03-08T06:27:53.000Z</time></trkpt>
<trkpt lat="42.080708" lon="23.629404"><ele>1774.7</ele><time>2026-03-08T06:27:54.000Z</time></trkpt>
<trkpt lat="42.080698" lon="23.629397"><ele>1774.7</ele><time>2026-03-08T06:27:55.000Z</time></trkpt>
<trkpt lat="42.080689" lon="23.629389"><ele>1774.7</ele><time>2026-03-08T06:27:56.000Z</time></trkpt>
<trkpt lat="42.08068" lon="23.629381"><ele>1775.1</ele><time>2026-03-08T06:27:57.000Z</time></trkpt>
<trkpt lat="42.080673" lon="23.629373"><ele>1775.1</ele><time>2026-03-08T06:27:58.000Z</time></trkpt>
<trkpt lat="42.080666" lon="23.629364"><ele>1775.1</ele><time>2026-03-08T06:27:59.000Z</time></trkpt>
<trkpt lat="42.080661" lon="23.629355"><ele>1775.1</ele><time>2026-03-08T06:28:00.000Z</time></trkpt>
<trkpt lat="42.080655" lon="23.629345"><ele>1775.1</ele><time>2026-03-08T06:28:01.000Z</time></trkpt>
<trkpt lat="42.080649" lon="23.629335"><ele>1775.9</ele><time>2026-03-08T06:28:02.000Z</time></trkpt>
<trkpt lat="42.080642" lon="23.629324"><ele>1775.9</ele><time>2026-03-08T06:28:03.000Z</time></trkpt>
<trkpt lat="42.080634" lon="23.629313"><ele>1775.9</ele><time>2026-03-08T06:28:04.000Z</time></trkpt>
<trkpt lat="42.080626" lon="23.629301"><ele>1775.9</ele><time>2026-03-08T06:28:05.000Z</time></trkpt>
<trkpt lat="42.080619" lon="23.629289"><ele>1775.9</ele><time>2026-03-08T06:28:06.000Z</time></trkpt>
<trkpt lat="42.080613" lon="23.629277"><ele>1776.7</ele><time>2026-03-08T06:28:07.000Z</time></trkpt>
<trkpt lat="42.080608" lon="23.629265"><ele>1776.7</ele><time>2026-03-08T06:28:08.000Z</time></trkpt>
<trkpt lat="42.080603" lon="23.629252"><ele>1776.7</ele><time>2026-03-08T06:28:09.000Z</time></trkpt>
<trkpt lat="42.080599" lon="23.629239"><ele>1776.7</ele><time>2026-03-08T06:28:10.000Z</time></trkpt>
<trkpt lat="42.080595" lon="23.629227"><ele>1776.7</ele><time>2026-03-08T06:28:11.000Z</time></trkpt>
<trkpt lat="42.080592" lon="23.629215"><ele>1777</ele><time>2026-03-08T06:28:12.000Z</time></trkpt>
<trkpt lat="42.080589" lon="23.629202"><ele>1777</ele><time>2026-03-08T06:28:13.000Z</time></trkpt>
<trkpt lat="42.080585" lon="23.629189"><ele>1777</ele><time>2026-03-08T06:28:14.000Z</time></trkpt>
<trkpt lat="42.080583" lon="23.629177"><ele>1777</ele><time>2026-03-08T06:28:15.000Z</time></trkpt>
<trkpt lat="42.08058" lon="23.629164"><ele>1777</ele><time>2026-03-08T06:28:16.000Z</time></trkpt>
<trkpt lat="42.080578" lon="23.62915"><ele>1777.6</ele><time>2026-03-08T06:28:17.000Z</time></trkpt>
<trkpt lat="42.080576" lon="23.629135"><ele>1777.6</ele><time>2026-03-08T06:28:18.000Z</time></trkpt>
<trkpt lat="42.080576" lon="23.629119"><ele>1777.6</ele><time>2026-03-08T06:28:19.000Z</time></trkpt>
<trkpt lat="42.080575" lon="23.629104"><ele>1777.6</ele><time>2026-03-08T06:28:20.000Z</time></trkpt>
<trkpt lat="42.080575" lon="23.629088"><ele>1777.6</ele><time>2026-03-08T06:28:21.000Z</time></trkpt>
<trkpt lat="42.080577" lon="23.629073"><ele>1778</ele><time>2026-03-08T06:28:22.000Z</time></trkpt>
<trkpt lat="42.080578" lon="23.629059"><ele>1778</ele><time>2026-03-08T06:28:23.000Z</time></trkpt>
<trkpt lat="42.08058" lon="23.629045"><ele>1778</ele><time>2026-03-08T06:28:24.000Z</time></trkpt>
<trkpt lat="42.080583" lon="23.629031"><ele>1778</ele><time>2026-03-08T06:28:25.000Z</time></trkpt>
<trkpt lat="42.080586" lon="23.629015"><ele>1778</ele><time>2026-03-08T06:28:26.000Z</time></trkpt>
<trkpt lat="42.080588" lon="23.628999"><ele>1778.2</ele><time>2026-03-08T06:28:27.000Z</time></trkpt>
<trkpt lat="42.080591" lon="23.628984"><ele>1778.2</ele><time>2026-03-08T06:28:28.000Z</time></trkpt>
<trkpt lat="42.080593" lon="23.628968"><ele>1778.2</ele><time>2026-03-08T06:28:29.000Z</time></trkpt>
<trkpt lat="42.080596" lon="23.628953"><ele>1778.2</ele><time>2026-03-08T06:28:30.000Z</time></trkpt>
<trkpt lat="42.080598" lon="23.628938"><ele>1778.2</ele><time>2026-03-08T06:28:31.000Z</time></trkpt>
<trkpt lat="42.080601" lon="23.628925"><ele>1778.7</ele><time>2026-03-08T06:28:32.000Z</time></trkpt>
<trkpt lat="42.080604" lon="23.628913"><ele>1778.7</ele><time>2026-03-08T06:28:33.000Z</time></trkpt>
<trkpt lat="42.080608" lon="23.628902"><ele>1778.7</ele><time>2026-03-08T06:28:34.000Z</time></trkpt>
<trkpt lat="42.080612" lon="23.628891"><ele>1778.7</ele><time>2026-03-08T06:28:35.000Z</time></trkpt>
<trkpt lat="42.080617" lon="23.628879"><ele>1778.7</ele><time>2026-03-08T06:28:36.000Z</time></trkpt>
<trkpt lat="42.080623" lon="23.628866"><ele>1779.2</ele><time>2026-03-08T06:28:37.000Z</time></trkpt>
<trkpt lat="42.08063" lon="23.628853"><ele>1779.2</ele><time>2026-03-08T06:28:38.000Z</time></trkpt>
<trkpt lat="42.080635" lon="23.62884"><ele>1779.2</ele><time>2026-03-08T06:28:39.000Z</time></trkpt>
<trkpt lat="42.08064" lon="23.628829"><ele>1779.2</ele><time>2026-03-08T06:28:40.000Z</time></trkpt>
<trkpt lat="42.080646" lon="23.628818"><ele>1779.2</ele><time>2026-03-08T06:28:41.000Z</time></trkpt>
<trkpt lat="42.080651" lon="23.628807"><ele>1779.4</ele><time>2026-03-08T06:28:42.000Z</time></trkpt>
<trkpt lat="42.080656" lon="23.628796"><ele>1779.4</ele><time>2026-03-08T06:28:43.000Z</time></trkpt>
<trkpt lat="42.080663" lon="23.628784"><ele>1779.4</ele><time>2026-03-08T06:28:44.000Z</time></trkpt>
<trkpt lat="42.08067" lon="23.628771"><ele>1779.4</ele><time>2026-03-08T06:28:45.000Z</time></trkpt>
<trkpt lat="42.080676" lon="23.628758"><ele>1779.4</ele><time>2026-03-08T06:28:46.000Z</time></trkpt>
<trkpt lat="42.080683" lon="23.628746"><ele>1779.9</ele><time>2026-03-08T06:28:47.000Z</time></trkpt>
<trkpt lat="42.08069" lon="23.628734"><ele>1779.9</ele><time>2026-03-08T06:28:48.000Z</time></trkpt>
<trkpt lat="42.080697" lon="23.628723"><ele>1779.9</ele><time>2026-03-08T06:28:49.000Z</time></trkpt>
<trkpt lat="42.080705" lon="23.628712"><ele>1779.9</ele><time>2026-03-08T06:28:50.000Z</time></trkpt>
<trkpt lat="42.080713" lon="23.6287"><ele>1779.9</ele><time>2026-03-08T06:28:51.000Z</time></trkpt>
<trkpt lat="42.080721" lon="23.628689"><ele>1780.3</ele><time>2026-03-08T06:28:52.000Z</time></trkpt>
<trkpt lat="42.080729" lon="23.628677"><ele>1780.3</ele><time>2026-03-08T06:28:53.000Z</time></trkpt>
<trkpt lat="42.080736" lon="23.628665"><ele>1780.3</ele><time>2026-03-08T06:28:54.000Z</time></trkpt>
<trkpt lat="42.080744" lon="23.628654"><ele>1780.3</ele><time>2026-03-08T06:28:55.000Z</time></trkpt>
<trkpt lat="42.080751" lon="23.628643"><ele>1780.3</ele><time>2026-03-08T06:28:56.000Z</time></trkpt>
<trkpt lat="42.080758" lon="23.628633"><ele>1780.6</ele><time>2026-03-08T06:28:57.000Z</time></trkpt>
<trkpt lat="42.080765" lon="23.628622"><ele>1780.6</ele><time>2026-03-08T06:28:58.000Z</time></trkpt>
<trkpt lat="42.080771" lon="23.628613"><ele>1780.6</ele><time>2026-03-08T06:28:59.000Z</time></trkpt>
<trkpt lat="42.080778" lon="23.628603"><ele>1780.6</ele><time>2026-03-08T06:29:00.000Z</time></trkpt>
<trkpt lat="42.080785" lon="23.628593"><ele>1780.6</ele><time>2026-03-08T06:29:01.000Z</time></trkpt>
<trkpt lat="42.080791" lon="23.628583"><ele>1781.1</ele><time>2026-03-08T06:29:02.000Z</time></trkpt>
<trkpt lat="42.080799" lon="23.628572"><ele>1781.1</ele><time>2026-03-08T06:29:03.000Z</time></trkpt>
<trkpt lat="42.080807" lon="23.628561"><ele>1781.1</ele><time>2026-03-08T06:29:04.000Z</time></trkpt>
<trkpt lat="42.080816" lon="23.628551"><ele>1781.1</ele><time>2026-03-08T06:29:05.000Z</time></trkpt>
<trkpt lat="42.080824" lon="23.628541"><ele>1781.1</ele><time>2026-03-08T06:29:06.000Z</time></trkpt>
<trkpt lat="42.080832" lon="23.628532"><ele>1781.5</ele><time>2026-03-08T06:29:07.000Z</time></trkpt>
<trkpt lat="42.080838" lon="23.628525"><ele>1781.5</ele><time>2026-03-08T06:29:08.000Z</time></trkpt>
<trkpt lat="42.080844" lon="23.628517"><ele>1781.5</ele><time>2026-03-08T06:29:09.000Z</time></trkpt>
<trkpt lat="42.080849" lon="23.62851"><ele>1781.5</ele><time>2026-03-08T06:29:10.000Z</time></trkpt>
<trkpt lat="42.080853" lon="23.628502"><ele>1781.5</ele><time>2026-03-08T06:29:11.000Z</time></trkpt>
<trkpt lat="42.080858" lon="23.628492"><ele>1781.7</ele><time>2026-03-08T06:29:12.000Z</time></trkpt>
<trkpt lat="42.080862" lon="23.628483"><ele>1781.7</ele><time>2026-03-08T06:29:13.000Z</time></trkpt>
<trkpt lat="42.080867" lon="23.628472"><ele>1781.7</ele><time>2026-03-08T06:29:14.000Z</time></trkpt>
<trkpt lat="42.080873" lon="23.628462"><ele>1781.7</ele><time>2026-03-08T06:29:15.000Z</time></trkpt>
<trkpt lat="42.080878" lon="23.628452"><ele>1781.7</ele><time>2026-03-08T06:29:16.000Z</time></trkpt>
<trkpt lat="42.080884" lon="23.628442"><ele>1782.1</ele><time>2026-03-08T06:29:17.000Z</time></trkpt>
<trkpt lat="42.080892" lon="23.628432"><ele>1782.1</ele><time>2026-03-08T06:29:18.000Z</time></trkpt>
<trkpt lat="42.0809" lon="23.628422"><ele>1782.1</ele><time>2026-03-08T06:29:19.000Z</time></trkpt>
<trkpt lat="42.08091" lon="23.628412"><ele>1782.1</ele><time>2026-03-08T06:29:20.000Z</time></trkpt>
<trkpt lat="42.080921" lon="23.628401"><ele>1782.1</ele><time>2026-03-08T06:29:21.000Z</time></trkpt>
<trkpt lat="42.080932" lon="23.62839"><ele>1782.7</ele><time>2026-03-08T06:29:22.000Z</time></trkpt>
<trkpt lat="42.080943" lon="23.628379"><ele>1782.7</ele><time>2026-03-08T06:29:23.000Z</time></trkpt>
<trkpt lat="42.080952" lon="23.628368"><ele>1782.7</ele><time>2026-03-08T06:29:24.000Z</time></trkpt>
<trkpt lat="42.08096" lon="23.628359"><ele>1782.7</ele><time>2026-03-08T06:29:25.000Z</time></trkpt>
<trkpt lat="42.080967" lon="23.628349"><ele>1782.7</ele><time>2026-03-08T06:29:26.000Z</time></trkpt>
<trkpt lat="42.080975" lon="23.628339"><ele>1782.9</ele><time>2026-03-08T06:29:27.000Z</time></trkpt>
<trkpt lat="42.080983" lon="23.628328"><ele>1782.9</ele><time>2026-03-08T06:29:28.000Z</time></trkpt>
<trkpt lat="42.080991" lon="23.628316"><ele>1782.9</ele><time>2026-03-08T06:29:29.000Z</time></trkpt>
<trkpt lat="42.080999" lon="23.628303"><ele>1782.9</ele><time>2026-03-08T06:29:30.000Z</time></trkpt>
<trkpt lat="42.081007" lon="23.628288"><ele>1782.9</ele><time>2026-03-08T06:29:31.000Z</time></trkpt>
<trkpt lat="42.081015" lon="23.628275"><ele>1783.6</ele><time>2026-03-08T06:29:32.000Z</time></trkpt>
<trkpt lat="42.081023" lon="23.628261"><ele>1783.6</ele><time>2026-03-08T06:29:33.000Z</time></trkpt>
<trkpt lat="42.081029" lon="23.62825"><ele>1783.6</ele><time>2026-03-08T06:29:34.000Z</time></trkpt>
<trkpt lat="42.081037" lon="23.62824"><ele>1783.6</ele><time>2026-03-08T06:29:35.000Z</time></trkpt>
<trkpt lat="42.081045" lon="23.62823"><ele>1783.6</ele><time>2026-03-08T06:29:36.000Z</time></trkpt>
<trkpt lat="42.081052" lon="23.628221"><ele>1784.4</ele><time>2026-03-08T06:29:37.000Z</time></trkpt>
<trkpt lat="42.08106" lon="23.628212"><ele>1784.4</ele><time>2026-03-08T06:29:38.000Z</time></trkpt>
<trkpt lat="42.081069" lon="23.628203"><ele>1784.4</ele><time>2026-03-08T06:29:39.000Z</time></trkpt>
<trkpt lat="42.081077" lon="23.628193"><ele>1784.4</ele><time>2026-03-08T06:29:40.000Z</time></trkpt>
<trkpt lat="42.081086" lon="23.628185"><ele>1784.4</ele><time>2026-03-08T06:29:41.000Z</time></trkpt>
<trkpt lat="42.081095" lon="23.628175"><ele>1784.9</ele><time>2026-03-08T06:29:42.000Z</time></trkpt>
<trkpt lat="42.081105" lon="23.628164"><ele>1784.9</ele><time>2026-03-08T06:29:43.000Z</time></trkpt>
<trkpt lat="42.081114" lon="23.628152"><ele>1784.9</ele><time>2026-03-08T06:29:44.000Z</time></trkpt>
<trkpt lat="42.081123" lon="23.628139"><ele>1784.9</ele><time>2026-03-08T06:29:45.000Z</time></trkpt>
<trkpt lat="42.081131" lon="23.628125"><ele>1784.9</ele><time>2026-03-08T06:29:46.000Z</time></trkpt>
<trkpt lat="42.081138" lon="23.62811"><ele>1785.8</ele><time>2026-03-08T06:29:47.000Z</time></trkpt>
<trkpt lat="42.081143" lon="23.628097"><ele>1785.8</ele><time>2026-03-08T06:29:48.000Z</time></trkpt>
<trkpt lat="42.081148" lon="23.628083"><ele>1785.8</ele><time>2026-03-08T06:29:49.000Z</time></trkpt>
<trkpt lat="42.081152" lon="23.628069"><ele>1785.8</ele><time>2026-03-08T06:29:50.000Z</time></trkpt>
<trkpt lat="42.081157" lon="23.628054"><ele>1785.8</ele><time>2026-03-08T06:29:51.000Z</time></trkpt>
<trkpt lat="42.081162" lon="23.62804"><ele>1786.9</ele><time>2026-03-08T06:29:52.000Z</time></trkpt>
<trkpt lat="42.081166" lon="23.628026"><ele>1786.9</ele><time>2026-03-08T06:29:53.000Z</time></trkpt>
<trkpt lat="42.081169" lon="23.628012"><ele>1786.9</ele><time>2026-03-08T06:29:54.000Z</time></trkpt>
<trkpt lat="42.081173" lon="23.627997"><ele>1786.9</ele><time>2026-03-08T06:29:55.000Z</time></trkpt>
<trkpt lat="42.081175" lon="23.627983"><ele>1786.9</ele><time>2026-03-08T06:29:56.000Z</time></trkpt>
<trkpt lat="42.081178" lon="23.627969"><ele>1787.3</ele><time>2026-03-08T06:29:57.000Z</time></trkpt>
<trkpt lat="42.081179" lon="23.627954"><ele>1787.3</ele><time>2026-03-08T06:29:58.000Z</time></trkpt>
<trkpt lat="42.081181" lon="23.627941"><ele>1787.3</ele><time>2026-03-08T06:29:59.000Z</time></trkpt>
<trkpt lat="42.081182" lon="23.627928"><ele>1787.3</ele><time>2026-03-08T06:30:00.000Z</time></trkpt>
<trkpt lat="42.081182" lon="23.627915"><ele>1787.3</ele><time>2026-03-08T06:30:01.000Z</time></trkpt>
<trkpt lat="42.081181" lon="23.627903"><ele>1788.3</ele><time>2026-03-08T06:30:02.000Z</time></trkpt>
<trkpt lat="42.081181" lon="23.627891"><ele>1788.3</ele><time>2026-03-08T06:30:03.000Z</time></trkpt>
<trkpt lat="42.08118" lon="23.627877"><ele>1788.3</ele><time>2026-03-08T06:30:04.000Z</time></trkpt>
<trkpt lat="42.081179" lon="23.627864"><ele>1788.3</ele><time>2026-03-08T06:30:05.000Z</time></trkpt>
<trkpt lat="42.081178" lon="23.627851"><ele>1788.3</ele><time>2026-03-08T06:30:06.000Z</time></trkpt>
<trkpt lat="42.081178" lon="23.627837"><ele>1789.4</ele><time>2026-03-08T06:30:07.000Z</time></trkpt>
<trkpt lat="42.081178" lon="23.627823"><ele>1789.4</ele><time>2026-03-08T06:30:08.000Z</time></trkpt>
<trkpt lat="42.081177" lon="23.62781"><ele>1789.4</ele><time>2026-03-08T06:30:09.000Z</time></trkpt>
<trkpt lat="42.081176" lon="23.627796"><ele>1789.4</ele><time>2026-03-08T06:30:10.000Z</time></trkpt>
<trkpt lat="42.081175" lon="23.627782"><ele>1789.4</ele><time>2026-03-08T06:30:11.000Z</time></trkpt>
<trkpt lat="42.081174" lon="23.627769"><ele>1789.9</ele><time>2026-03-08T06:30:12.000Z</time></trkpt>
<trkpt lat="42.081171" lon="23.627757"><ele>1789.9</ele><time>2026-03-08T06:30:13.000Z</time></trkpt>
<trkpt lat="42.081169" lon="23.627745"><ele>1789.9</ele><time>2026-03-08T06:30:14.000Z</time></trkpt>
<trkpt lat="42.081166" lon="23.627731"><ele>1789.9</ele><time>2026-03-08T06:30:15.000Z</time></trkpt>
<trkpt lat="42.081164" lon="23.627717"><ele>1789.9</ele><time>2026-03-08T06:30:16.000Z</time></trkpt>
<trkpt lat="42.081161" lon="23.627702"><ele>1790.9</ele><time>2026-03-08T06:30:17.000Z</time></trkpt>
<trkpt lat="42.081158" lon="23.627689"><ele>1790.9</ele><time>2026-03-08T06:30:18.000Z</time></trkpt>
<trkpt lat="42.081154" lon="23.627676"><ele>1790.9</ele><time>2026-03-08T06:30:19.000Z</time></trkpt>
<trkpt lat="42.081151" lon="23.627665"><ele>1790.9</ele><time>2026-03-08T06:30:20.000Z</time></trkpt>
<trkpt lat="42.081146" lon="23.627654"><ele>1790.9</ele><time>2026-03-08T06:30:21.000Z</time></trkpt>
<trkpt lat="42.081141" lon="23.627642"><ele>1791.8</ele><time>2026-03-08T06:30:22.000Z</time></trkpt>
<trkpt lat="42.081136" lon="23.627628"><ele>1791.8</ele><time>2026-03-08T06:30:23.000Z</time></trkpt>
<trkpt lat="42.081131" lon="23.627614"><ele>1791.8</ele><time>2026-03-08T06:30:24.000Z</time></trkpt>
<trkpt lat="42.081126" lon="23.627597"><ele>1791.8</ele><time>2026-03-08T06:30:25.000Z</time></trkpt>
<trkpt lat="42.081122" lon="23.627581"><ele>1791.8</ele><time>2026-03-08T06:30:26.000Z</time></trkpt>
<trkpt lat="42.08112" lon="23.627565"><ele>1792.1</ele><time>2026-03-08T06:30:27.000Z</time></trkpt>
<trkpt lat="42.081117" lon="23.627549"><ele>1792.1</ele><time>2026-03-08T06:30:28.000Z</time></trkpt>
<trkpt lat="42.081115" lon="23.627534"><ele>1792.1</ele><time>2026-03-08T06:30:29.000Z</time></trkpt>
<trkpt lat="42.081112" lon="23.62752"><ele>1792.1</ele><time>2026-03-08T06:30:30.000Z</time></trkpt>
<trkpt lat="42.08111" lon="23.627506"><ele>1792.1</ele><time>2026-03-08T06:30:31.000Z</time></trkpt>
<trkpt lat="42.081108" lon="23.627491"><ele>1792.6</ele><time>2026-03-08T06:30:32.000Z</time></trkpt>
<trkpt lat="42.081105" lon="23.627475"><ele>1792.6</ele><time>2026-03-08T06:30:33.000Z</time></trkpt>
<trkpt lat="42.081104" lon="23.62746"><ele>1792.6</ele><time>2026-03-08T06:30:34.000Z</time></trkpt>
<trkpt lat="42.081102" lon="23.627445"><ele>1792.6</ele><time>2026-03-08T06:30:35.000Z</time></trkpt>
<trkpt lat="42.0811" lon="23.62743"><ele>1792.6</ele><time>2026-03-08T06:30:36.000Z</time></trkpt>
<trkpt lat="42.081098" lon="23.627416"><ele>1793</ele><time>2026-03-08T06:30:37.000Z</time></trkpt>
<trkpt lat="42.081095" lon="23.627403"><ele>1793</ele><time>2026-03-08T06:30:38.000Z</time></trkpt>
<trkpt lat="42.081093" lon="23.627389"><ele>1793</ele><time>2026-03-08T06:30:39.000Z</time></trkpt>
<trkpt lat="42.081091" lon="23.627374"><ele>1793</ele><time>2026-03-08T06:30:40.000Z</time></trkpt>
<trkpt lat="42.081089" lon="23.62736"><ele>1793</ele><time>2026-03-08T06:30:41.000Z</time></trkpt>
<trkpt lat="42.081087" lon="23.627346"><ele>1793.2</ele><time>2026-03-08T06:30:42.000Z</time></trkpt>
<trkpt lat="42.081085" lon="23.627332"><ele>1793.2</ele><time>2026-03-08T06:30:43.000Z</time></trkpt>
<trkpt lat="42.081084" lon="23.627318"><ele>1793.2</ele><time>2026-03-08T06:30:44.000Z</time></trkpt>
<trkpt lat="42.081083" lon="23.627304"><ele>1793.2</ele><time>2026-03-08T06:30:45.000Z</time></trkpt>
<trkpt lat="42.081081" lon="23.627292"><ele>1793.2</ele><time>2026-03-08T06:30:46.000Z</time></trkpt>
<trkpt lat="42.08108" lon="23.627281"><ele>1793.7</ele><time>2026-03-08T06:30:47.000Z</time></trkpt>
<trkpt lat="42.081079" lon="23.627271"><ele>1793.7</ele><time>2026-03-08T06:30:48.000Z</time></trkpt>
<trkpt lat="42.081078" lon="23.627262"><ele>1793.7</ele><time>2026-03-08T06:30:49.000Z</time></trkpt>
<trkpt lat="42.081075" lon="23.627255"><ele>1793.7</ele><time>2026-03-08T06:30:50.000Z</time></trkpt>
<trkpt lat="42.081072" lon="23.627248"><ele>1793.7</ele><time>2026-03-08T06:30:51.000Z</time></trkpt>
<trkpt lat="42.081069" lon="23.627238"><ele>1794.2</ele><time>2026-03-08T06:30:52.000Z</time></trkpt>
<trkpt lat="42.081065" lon="23.627228"><ele>1794.2</ele><time>2026-03-08T06:30:53.000Z</time></trkpt>
<trkpt lat="42.081062" lon="23.627216"><ele>1794.2</ele><time>2026-03-08T06:30:54.000Z</time></trkpt>
<trkpt lat="42.08106" lon="23.627202"><ele>1794.2</ele><time>2026-03-08T06:30:55.000Z</time></trkpt>
<trkpt lat="42.081058" lon="23.627189"><ele>1794.2</ele><time>2026-03-08T06:30:56.000Z</time></trkpt>
<trkpt lat="42.081056" lon="23.627177"><ele>1794.5</ele><time>2026-03-08T06:30:57.000Z</time></trkpt>
<trkpt lat="42.081056" lon="23.627166"><ele>1794.5</ele><time>2026-03-08T06:30:58.000Z</time></trkpt>
<trkpt lat="42.081056" lon="23.627154"><ele>1794.5</ele><time>2026-03-08T06:30:59.000Z</time></trkpt>
<trkpt lat="42.081055" lon="23.627141"><ele>1794.5</ele><time>2026-03-08T06:31:00.000Z</time></trkpt>
<trkpt lat="42.081055" lon="23.627128"><ele>1794.5</ele><time>2026-03-08T06:31:01.000Z</time></trkpt>
<trkpt lat="42.081056" lon="23.627115"><ele>1795</ele><time>2026-03-08T06:31:02.000Z</time></trkpt>
<trkpt lat="42.081056" lon="23.627102"><ele>1795</ele><time>2026-03-08T06:31:03.000Z</time></trkpt>
<trkpt lat="42.081055" lon="23.627088"><ele>1795</ele><time>2026-03-08T06:31:04.000Z</time></trkpt>
<trkpt lat="42.081056" lon="23.627075"><ele>1795</ele><time>2026-03-08T06:31:05.000Z</time></trkpt>
<trkpt lat="42.081056" lon="23.627062"><ele>1795</ele><time>2026-03-08T06:31:06.000Z</time></trkpt>
<trkpt lat="42.081056" lon="23.62705"><ele>1795.4</ele><time>2026-03-08T06:31:07.000Z</time></trkpt>
<trkpt lat="42.081058" lon="23.627037"><ele>1795.4</ele><time>2026-03-08T06:31:08.000Z</time></trkpt>
<trkpt lat="42.08106" lon="23.627024"><ele>1795.4</ele><time>2026-03-08T06:31:09.000Z</time></trkpt>
<trkpt lat="42.081064" lon="23.627011"><ele>1795.4</ele><time>2026-03-08T06:31:10.000Z</time></trkpt>
<trkpt lat="42.081068" lon="23.626998"><ele>1795.4</ele><time>2026-03-08T06:31:11.000Z</time></trkpt>
<trkpt lat="42.081073" lon="23.626986"><ele>1795.7</ele><time>2026-03-08T06:31:12.000Z</time></trkpt>
<trkpt lat="42.081078" lon="23.626975"><ele>1795.7</ele><time>2026-03-08T06:31:13.000Z</time></trkpt>
<trkpt lat="42.081083" lon="23.626964"><ele>1795.7</ele><time>2026-03-08T06:31:14.000Z</time></trkpt>
<trkpt lat="42.081087" lon="23.626954"><ele>1795.7</ele><time>2026-03-08T06:31:15.000Z</time></trkpt>
<trkpt lat="42.081092" lon="23.626942"><ele>1795.7</ele><time>2026-03-08T06:31:16.000Z</time></trkpt>
<trkpt lat="42.081096" lon="23.62693"><ele>1796.1</ele><time>2026-03-08T06:31:17.000Z</time></trkpt>
<trkpt lat="42.0811" lon="23.626918"><ele>1796.1</ele><time>2026-03-08T06:31:18.000Z</time></trkpt>
<trkpt lat="42.081104" lon="23.626905"><ele>1796.1</ele><time>2026-03-08T06:31:19.000Z</time></trkpt>
<trkpt lat="42.081108" lon="23.626893"><ele>1796.1</ele><time>2026-03-08T06:31:20.000Z</time></trkpt>
<trkpt lat="42.081112" lon="23.62688"><ele>1796.1</ele><time>2026-03-08T06:31:21.000Z</time></trkpt>
<trkpt lat="42.081116" lon="23.626868"><ele>1796.5</ele><time>2026-03-08T06:31:22.000Z</time></trkpt>
<trkpt lat="42.08112" lon="23.626856"><ele>1796.5</ele><time>2026-03-08T06:31:23.000Z</time></trkpt>
<trkpt lat="42.081124" lon="23.626846"><ele>1796.5</ele><time>2026-03-08T06:31:24.000Z</time></trkpt>
<trkpt lat="42.081128" lon="23.626834"><ele>1796.5</ele><time>2026-03-08T06:31:25.000Z</time></trkpt>
<trkpt lat="42.081133" lon="23.626821"><ele>1796.5</ele><time>2026-03-08T06:31:26.000Z</time></trkpt>
<trkpt lat="42.081138" lon="23.626809"><ele>1796.7</ele><time>2026-03-08T06:31:27.000Z</time></trkpt>
<trkpt lat="42.081144" lon="23.626795"><ele>1796.7</ele><time>2026-03-08T06:31:28.000Z</time></trkpt>
<trkpt lat="42.08115" lon="23.626781"><ele>1796.7</ele><time>2026-03-08T06:31:29.000Z</time></trkpt>
<trkpt lat="42.081156" lon="23.626769"><ele>1796.7</ele><time>2026-03-08T06:31:30.000Z</time></trkpt>
<trkpt lat="42.081161" lon="23.626757"><ele>1796.7</ele><time>2026-03-08T06:31:31.000Z</time></trkpt>
<trkpt lat="42.081168" lon="23.626744"><ele>1797.3</ele><time>2026-03-08T06:31:32.000Z</time></trkpt>
<trkpt lat="42.081176" lon="23.626732"><ele>1797.3</ele><time>2026-03-08T06:31:33.000Z</time></trkpt>
<trkpt lat="42.081185" lon="23.626718"><ele>1797.3</ele><time>2026-03-08T06:31:34.000Z</time></trkpt>
<trkpt lat="42.081194" lon="23.626705"><ele>1797.3</ele><time>2026-03-08T06:31:35.000Z</time></trkpt>
<trkpt lat="42.081204" lon="23.626692"><ele>1797.3</ele><time>2026-03-08T06:31:36.000Z</time></trkpt>
<trkpt lat="42.081213" lon="23.626679"><ele>1797.6</ele><time>2026-03-08T06:31:37.000Z</time></trkpt>
<trkpt lat="42.081222" lon="23.626665"><ele>1797.6</ele><time>2026-03-08T06:31:38.000Z</time></trkpt>
<trkpt lat="42.08123" lon="23.626651"><ele>1797.6</ele><time>2026-03-08T06:31:39.000Z</time></trkpt>
<trkpt lat="42.081238" lon="23.626637"><ele>1797.6</ele><time>2026-03-08T06:31:40.000Z</time></trkpt>
<trkpt lat="42.081246" lon="23.626622"><ele>1797.6</ele><time>2026-03-08T06:31:41.000Z</time></trkpt>
<trkpt lat="42.081253" lon="23.626609"><ele>1797.7</ele><time>2026-03-08T06:31:42.000Z</time></trkpt>
<trkpt lat="42.08126" lon="23.626596"><ele>1797.7</ele><time>2026-03-08T06:31:43.000Z</time></trkpt>
<trkpt lat="42.081268" lon="23.626585"><ele>1797.7</ele><time>2026-03-08T06:31:44.000Z</time></trkpt>
<trkpt lat="42.081276" lon="23.626575"><ele>1797.7</ele><time>2026-03-08T06:31:45.000Z</time></trkpt>
<trkpt lat="42.081285" lon="23.626565"><ele>1797.7</ele><time>2026-03-08T06:31:46.000Z</time></trkpt>
<trkpt lat="42.081294" lon="23.626556"><ele>1798</ele><time>2026-03-08T06:31:47.000Z</time></trkpt>
<trkpt lat="42.081303" lon="23.626547"><ele>1798</ele><time>2026-03-08T06:31:48.000Z</time></trkpt>
<trkpt lat="42.081313" lon="23.626538"><ele>1798</ele><time>2026-03-08T06:31:49.000Z</time></trkpt>
<trkpt lat="42.081322" lon="23.626529"><ele>1798</ele><time>2026-03-08T06:31:50.000Z</time></trkpt>
<trkpt lat="42.081331" lon="23.626521"><ele>1798</ele><time>2026-03-08T06:31:51.000Z</time></trkpt>
<trkpt lat="42.08134" lon="23.626514"><ele>1798.4</ele><time>2026-03-08T06:31:52.000Z</time></trkpt>
<trkpt lat="42.08135" lon="23.626506"><ele>1798.4</ele><time>2026-03-08T06:31:53.000Z</time></trkpt>
<trkpt lat="42.081358" lon="23.6265"><ele>1798.4</ele><time>2026-03-08T06:31:54.000Z</time></trkpt>
<trkpt lat="42.081366" lon="23.626493"><ele>1798.4</ele><time>2026-03-08T06:31:55.000Z</time></trkpt>
<trkpt lat="42.081375" lon="23.626486"><ele>1798.4</ele><time>2026-03-08T06:31:56.000Z</time></trkpt>
<trkpt lat="42.081384" lon="23.626478"><ele>1798.6</ele><time>2026-03-08T06:31:57.000Z</time></trkpt>
<trkpt lat="42.081391" lon="23.626471"><ele>1798.6</ele><time>2026-03-08T06:31:58.000Z</time></trkpt>
<trkpt lat="42.081398" lon="23.626463"><ele>1798.6</ele><time>2026-03-08T06:31:59.000Z</time></trkpt>
<trkpt lat="42.081407" lon="23.626456"><ele>1798.6</ele><time>2026-03-08T06:32:00.000Z</time></trkpt>
<trkpt lat="42.081414" lon="23.62645"><ele>1798.6</ele><time>2026-03-08T06:32:01.000Z</time></trkpt>
<trkpt lat="42.08142" lon="23.626443"><ele>1799.1</ele><time>2026-03-08T06:32:02.000Z</time></trkpt>
<trkpt lat="42.081425" lon="23.626436"><ele>1799.1</ele><time>2026-03-08T06:32:03.000Z</time></trkpt>
<trkpt lat="42.08143" lon="23.626426"><ele>1799.1</ele><time>2026-03-08T06:32:04.000Z</time></trkpt>
<trkpt lat="42.081435" lon="23.626416"><ele>1799.1</ele><time>2026-03-08T06:32:05.000Z</time></trkpt>
<trkpt lat="42.08144" lon="23.626404"><ele>1799.1</ele><time>2026-03-08T06:32:06.000Z</time></trkpt>
<trkpt lat="42.081446" lon="23.626392"><ele>1799.5</ele><time>2026-03-08T06:32:07.000Z</time></trkpt>
<trkpt lat="42.081451" lon="23.626379"><ele>1799.5</ele><time>2026-03-08T06:32:08.000Z</time></trkpt>
<trkpt lat="42.081457" lon="23.626367"><ele>1799.5</ele><time>2026-03-08T06:32:09.000Z</time></trkpt>
<trkpt lat="42.081462" lon="23.626352"><ele>1799.5</ele><time>2026-03-08T06:32:10.000Z</time></trkpt>
<trkpt lat="42.081468" lon="23.626338"><ele>1799.5</ele><time>2026-03-08T06:32:11.000Z</time></trkpt>
<trkpt lat="42.081474" lon="23.626323"><ele>1799.7</ele><time>2026-03-08T06:32:12.000Z</time></trkpt>
<trkpt lat="42.081479" lon="23.626308"><ele>1799.7</ele><time>2026-03-08T06:32:13.000Z</time></trkpt>
<trkpt lat="42.081483" lon="23.626294"><ele>1799.7</ele><time>2026-03-08T06:32:14.000Z</time></trkpt>
<trkpt lat="42.081487" lon="23.626281"><ele>1799.7</ele><time>2026-03-08T06:32:15.000Z</time></trkpt>
<trkpt lat="42.08149" lon="23.626269"><ele>1799.7</ele><time>2026-03-08T06:32:16.000Z</time></trkpt>
<trkpt lat="42.081492" lon="23.626257"><ele>1800</ele><time>2026-03-08T06:32:17.000Z</time></trkpt>
<trkpt lat="42.081494" lon="23.626245"><ele>1800</ele><time>2026-03-08T06:32:18.000Z</time></trkpt>
<trkpt lat="42.081496" lon="23.626233"><ele>1800</ele><time>2026-03-08T06:32:19.000Z</time></trkpt>
<trkpt lat="42.081497" lon="23.626221"><ele>1800</ele><time>2026-03-08T06:32:20.000Z</time></trkpt>
<trkpt lat="42.081499" lon="23.626207"><ele>1800</ele><time>2026-03-08T06:32:21.000Z</time></trkpt>
<trkpt lat="42.081501" lon="23.626194"><ele>1800.4</ele><time>2026-03-08T06:32:22.000Z</time></trkpt>
<trkpt lat="42.081502" lon="23.626179"><ele>1800.4</ele><time>2026-03-08T06:32:23.000Z</time></trkpt>
<trkpt lat="42.081502" lon="23.626166"><ele>1800.4</ele><time>2026-03-08T06:32:24.000Z</time></trkpt>
<trkpt lat="42.081502" lon="23.626153"><ele>1800.4</ele><time>2026-03-08T06:32:25.000Z</time></trkpt>
<trkpt lat="42.081502" lon="23.626141"><ele>1800.4</ele><time>2026-03-08T06:32:26.000Z</time></trkpt>
<trkpt lat="42.081501" lon="23.626129"><ele>1800.6</ele><time>2026-03-08T06:32:27.000Z</time></trkpt>
<trkpt lat="42.0815" lon="23.626119"><ele>1800.6</ele><time>2026-03-08T06:32:28.000Z</time></trkpt>
<trkpt lat="42.081499" lon="23.626108"><ele>1800.6</ele><time>2026-03-08T06:32:29.000Z</time></trkpt>
<trkpt lat="42.081497" lon="23.626097"><ele>1800.6</ele><time>2026-03-08T06:32:30.000Z</time></trkpt>
<trkpt lat="42.081495" lon="23.626087"><ele>1800.6</ele><time>2026-03-08T06:32:31.000Z</time></trkpt>
<trkpt lat="42.081494" lon="23.626077"><ele>1801</ele><time>2026-03-08T06:32:32.000Z</time></trkpt>
<trkpt lat="42.081492" lon="23.626065"><ele>1801</ele><time>2026-03-08T06:32:33.000Z</time></trkpt>
<trkpt lat="42.08149" lon="23.626054"><ele>1801</ele><time>2026-03-08T06:32:34.000Z</time></trkpt>
<trkpt lat="42.081489" lon="23.626044"><ele>1801</ele><time>2026-03-08T06:32:35.000Z</time></trkpt>
<trkpt lat="42.081488" lon="23.626032"><ele>1801</ele><time>2026-03-08T06:32:36.000Z</time></trkpt>
<trkpt lat="42.081486" lon="23.626021"><ele>1801.4</ele><time>2026-03-08T06:32:37.000Z</time></trkpt>
<trkpt lat="42.081486" lon="23.626011"><ele>1801.4</ele><time>2026-03-08T06:32:38.000Z</time></trkpt>
<trkpt lat="42.081485" lon="23.626002"><ele>1801.4</ele><time>2026-03-08T06:32:39.000Z</time></trkpt>
<trkpt lat="42.081483" lon="23.625996"><ele>1801.4</ele><time>2026-03-08T06:32:40.000Z</time></trkpt>
<trkpt lat="42.081482" lon="23.625991"><ele>1801.4</ele><time>2026-03-08T06:32:41.000Z</time></trkpt>
<trkpt lat="42.08148" lon="23.625988"><ele>1801.5</ele><time>2026-03-08T06:32:42.000Z</time></trkpt>
<trkpt lat="42.081478" lon="23.625985"><ele>1801.5</ele><time>2026-03-08T06:32:43.000Z</time></trkpt>
<trkpt lat="42.081476" lon="23.625982"><ele>1801.5</ele><time>2026-03-08T06:32:44.000Z</time></trkpt>
<trkpt lat="42.081475" lon="23.62598"><ele>1801.5</ele><time>2026-03-08T06:32:45.000Z</time></trkpt>
<trkpt lat="42.081473" lon="23.625979"><ele>1801.5</ele><time>2026-03-08T06:32:46.000Z</time></trkpt>
<trkpt lat="42.081472" lon="23.625978"><ele>1802</ele><time>2026-03-08T06:32:47.000Z</time></trkpt>
<trkpt lat="42.081471" lon="23.625978"><ele>1802</ele><time>2026-03-08T06:32:48.000Z</time></trkpt>
<trkpt lat="42.08147" lon="23.625979"><ele>1802</ele><time>2026-03-08T06:32:49.000Z</time></trkpt>
<trkpt lat="42.081469" lon="23.625981"><ele>1802</ele><time>2026-03-08T06:32:50.000Z</time></trkpt>
<trkpt lat="42.081468" lon="23.625981"><ele>1802</ele><time>2026-03-08T06:32:51.000Z</time></trkpt>
<trkpt lat="42.081467" lon="23.625982"><ele>1802.5</ele><time>2026-03-08T06:32:52.000Z</time></trkpt>
<trkpt lat="42.081466" lon="23.625983"><ele>1802.5</ele><time>2026-03-08T06:32:53.000Z</time></trkpt>
<trkpt lat="42.081466" lon="23.625985"><ele>1802.5</ele><time>2026-03-08T06:32:54.000Z</time></trkpt>
<trkpt lat="42.081465" lon="23.625986"><ele>1802.5</ele><time>2026-03-08T06:32:55.000Z</time></trkpt>
<trkpt lat="42.081464" lon="23.625988"><ele>1802.5</ele><time>2026-03-08T06:32:56.000Z</time></trkpt>
<trkpt lat="42.081463" lon="23.625989"><ele>1802.8</ele><time>2026-03-08T06:32:57.000Z</time></trkpt>
<trkpt lat="42.081463" lon="23.62599"><ele>1802.8</ele><time>2026-03-08T06:32:58.000Z</time></trkpt>
<trkpt lat="42.081462" lon="23.625992"><ele>1802.8</ele><time>2026-03-08T06:32:59.000Z</time></trkpt>
<trkpt lat="42.081461" lon="23.625992"><ele>1802.8</ele><time>2026-03-08T06:33:00.000Z</time></trkpt>
<trkpt lat="42.08146" lon="23.625991"><ele>1802.8</ele><time>2026-03-08T06:33:01.000Z</time></trkpt>
<trkpt lat="42.081458" lon="23.62599"><ele>1803</ele><time>2026-03-08T06:33:02.000Z</time></trkpt>
<trkpt lat="42.081456" lon="23.625987"><ele>1803</ele><time>2026-03-08T06:33:03.000Z</time></trkpt>
<trkpt lat="42.081454" lon="23.625984"><ele>1803</ele><time>2026-03-08T06:33:04.000Z</time></trkpt>
<trkpt lat="42.081453" lon="23.62598"><ele>1803</ele><time>2026-03-08T06:33:05.000Z</time></trkpt>
<trkpt lat="42.081451" lon="23.625977"><ele>1803</ele><time>2026-03-08T06:33:06.000Z</time></trkpt>
<trkpt lat="42.08145" lon="23.625974"><ele>1802.8</ele><time>2026-03-08T06:33:07.000Z</time></trkpt>
<trkpt lat="42.081448" lon="23.625971"><ele>1802.8</ele><time>2026-03-08T06:33:08.000Z</time></trkpt>
<trkpt lat="42.081445" lon="23.625966"><ele>1802.8</ele><time>2026-03-08T06:33:09.000Z</time></trkpt>
<trkpt lat="42.081441" lon="23.62596"><ele>1802.8</ele><time>2026-03-08T06:33:10.000Z</time></trkpt>
<trkpt lat="42.081437" lon="23.62595"><ele>1802.8</ele><time>2026-03-08T06:33:11.000Z</time></trkpt>
<trkpt lat="42.081435" lon="23.62594"><ele>1802.7</ele><time>2026-03-08T06:33:12.000Z</time></trkpt>
<trkpt lat="42.081433" lon="23.625931"><ele>1802.7</ele><time>2026-03-08T06:33:13.000Z</time></trkpt>
<trkpt lat="42.081432" lon="23.625924"><ele>1802.7</ele><time>2026-03-08T06:33:14.000Z</time></trkpt>
<trkpt lat="42.081432" lon="23.625919"><ele>1802.7</ele><time>2026-03-08T06:33:15.000Z</time></trkpt>
<trkpt lat="42.081431" lon="23.625916"><ele>1802.7</ele><time>2026-03-08T06:33:16.000Z</time></trkpt>
<trkpt lat="42.081428" lon="23.625914"><ele>1802.5</ele><time>2026-03-08T06:33:17.000Z</time></trkpt>
<trkpt lat="42.081426" lon="23.62591"><ele>1802.5</ele><time>2026-03-08T06:33:18.000Z</time></trkpt>
<trkpt lat="42.081423" lon="23.625906"><ele>1802.5</ele><time>2026-03-08T06:33:19.000Z</time></trkpt>
<trkpt lat="42.081422" lon="23.625899"><ele>1802.5</ele><time>2026-03-08T06:33:20.000Z</time></trkpt>
<trkpt lat="42.081421" lon="23.625891"><ele>1802.5</ele><time>2026-03-08T06:33:21.000Z</time></trkpt>
<trkpt lat="42.081421" lon="23.625883"><ele>1802.7</ele><time>2026-03-08T06:33:22.000Z</time></trkpt>
<trkpt lat="42.081421" lon="23.625876"><ele>1802.7</ele><time>2026-03-08T06:33:23.000Z</time></trkpt>
<trkpt lat="42.081421" lon="23.625871"><ele>1802.7</ele><time>2026-03-08T06:33:24.000Z</time></trkpt>
<trkpt lat="42.081421" lon="23.625867"><ele>1802.7</ele><time>2026-03-08T06:33:25.000Z</time></trkpt>
<trkpt lat="42.081421" lon="23.625864"><ele>1802.7</ele><time>2026-03-08T06:33:26.000Z</time></trkpt>
<trkpt lat="42.08142" lon="23.625862"><ele>1802.9</ele><time>2026-03-08T06:33:27.000Z</time></trkpt>
<trkpt lat="42.081418" lon="23.625859"><ele>1802.9</ele><time>2026-03-08T06:33:28.000Z</time></trkpt>
<trkpt lat="42.081415" lon="23.625855"><ele>1802.9</ele><time>2026-03-08T06:33:29.000Z</time></trkpt>
<trkpt lat="42.081411" lon="23.62585"><ele>1802.9</ele><time>2026-03-08T06:33:30.000Z</time></trkpt>
<trkpt lat="42.081406" lon="23.625845"><ele>1802.9</ele><time>2026-03-08T06:33:31.000Z</time></trkpt>
<trkpt lat="42.0814" lon="23.625839"><ele>1803.3</ele><time>2026-03-08T06:33:32.000Z</time></trkpt>
<trkpt lat="42.081394" lon="23.625834"><ele>1803.3</ele><time>2026-03-08T06:33:33.000Z</time></trkpt>
<trkpt lat="42.08139" lon="23.625829"><ele>1803.3</ele><time>2026-03-08T06:33:34.000Z</time></trkpt>
<trkpt lat="42.081387" lon="23.625826"><ele>1803.3</ele><time>2026-03-08T06:33:35.000Z</time></trkpt>
<trkpt lat="42.081384" lon="23.625823"><ele>1803.3</ele><time>2026-03-08T06:33:36.000Z</time></trkpt>
<trkpt lat="42.081381" lon="23.62582"><ele>1803.6</ele><time>2026-03-08T06:33:37.000Z</time></trkpt>
<trkpt lat="42.08138" lon="23.625818"><ele>1803.6</ele><time>2026-03-08T06:33:38.000Z</time></trkpt>
<trkpt lat="42.081378" lon="23.625816"><ele>1803.6</ele><time>2026-03-08T06:33:39.000Z</time></trkpt>
<trkpt lat="42.081375" lon="23.62581"><ele>1803.6</ele><time>2026-03-08T06:33:40.000Z</time></trkpt>
<trkpt lat="42.081373" lon="23.625802"><ele>1803.6</ele><time>2026-03-08T06:33:41.000Z</time></trkpt>
<trkpt lat="42.08137" lon="23.625793"><ele>1803.7</ele><time>2026-03-08T06:33:42.000Z</time></trkpt>
<trkpt lat="42.081365" lon="23.62578"><ele>1803.7</ele><time>2026-03-08T06:33:43.000Z</time></trkpt>
<trkpt lat="42.081361" lon="23.625765"><ele>1803.7</ele><time>2026-03-08T06:33:44.000Z</time></trkpt>
<trkpt lat="42.081357" lon="23.62575"><ele>1803.7</ele><time>2026-03-08T06:33:45.000Z</time></trkpt>
<trkpt lat="42.081354" lon="23.625735"><ele>1803.7</ele><time>2026-03-08T06:33:46.000Z</time></trkpt>
<trkpt lat="42.081352" lon="23.625721"><ele>1804.1</ele><time>2026-03-08T06:33:47.000Z</time></trkpt>
<trkpt lat="42.081349" lon="23.625707"><ele>1804.1</ele><time>2026-03-08T06:33:48.000Z</time></trkpt>
<trkpt lat="42.081346" lon="23.625695"><ele>1804.1</ele><time>2026-03-08T06:33:49.000Z</time></trkpt>
<trkpt lat="42.081344" lon="23.625683"><ele>1804.1</ele><time>2026-03-08T06:33:50.000Z</time></trkpt>
<trkpt lat="42.08134" lon="23.625672"><ele>1804.1</ele><time>2026-03-08T06:33:51.000Z</time></trkpt>
<trkpt lat="42.081337" lon="23.625661"><ele>1804.5</ele><time>2026-03-08T06:33:52.000Z</time></trkpt>
<trkpt lat="42.081333" lon="23.625651"><ele>1804.5</ele><time>2026-03-08T06:33:53.000Z</time></trkpt>
<trkpt lat="42.08133" lon="23.62564"><ele>1804.5</ele><time>2026-03-08T06:33:54.000Z</time></trkpt>
<trkpt lat="42.081327" lon="23.625629"><ele>1804.5</ele><time>2026-03-08T06:33:55.000Z</time></trkpt>
<trkpt lat="42.081323" lon="23.625618"><ele>1804.5</ele><time>2026-03-08T06:33:56.000Z</time></trkpt>
<trkpt lat="42.08132" lon="23.625606"><ele>1804.8</ele><time>2026-03-08T06:33:57.000Z</time></trkpt>
<trkpt lat="42.081317" lon="23.625595"><ele>1804.8</ele><time>2026-03-08T06:33:58.000Z</time></trkpt>
<trkpt lat="42.081313" lon="23.625583"><ele>1804.8</ele><time>2026-03-08T06:33:59.000Z</time></trkpt>
<trkpt lat="42.081311" lon="23.625571"><ele>1804.8</ele><time>2026-03-08T06:34:00.000Z</time></trkpt>
<trkpt lat="42.081308" lon="23.62556"><ele>1804.8</ele><time>2026-03-08T06:34:01.000Z</time></trkpt>
<trkpt lat="42.081305" lon="23.62555"><ele>1805.3</ele><time>2026-03-08T06:34:02.000Z</time></trkpt>
<trkpt lat="42.081301" lon="23.625539"><ele>1805.3</ele><time>2026-03-08T06:34:03.000Z</time></trkpt>
<trkpt lat="42.081296" lon="23.625529"><ele>1805.3</ele><time>2026-03-08T06:34:04.000Z</time></trkpt>
<trkpt lat="42.081293" lon="23.625521"><ele>1805.3</ele><time>2026-03-08T06:34:05.000Z</time></trkpt>
<trkpt lat="42.081289" lon="23.625512"><ele>1805.3</ele><time>2026-03-08T06:34:06.000Z</time></trkpt>
<trkpt lat="42.081287" lon="23.625504"><ele>1805.8</ele><time>2026-03-08T06:34:07.000Z</time></trkpt>
<trkpt lat="42.081286" lon="23.625496"><ele>1805.8</ele><time>2026-03-08T06:34:08.000Z</time></trkpt>
<trkpt lat="42.081286" lon="23.625491"><ele>1805.8</ele><time>2026-03-08T06:34:09.000Z</time></trkpt>
<trkpt lat="42.081285" lon="23.625484"><ele>1805.8</ele><time>2026-03-08T06:34:10.000Z</time></trkpt>
<trkpt lat="42.081284" lon="23.625477"><ele>1805.8</ele><time>2026-03-08T06:34:11.000Z</time></trkpt>
<trkpt lat="42.081283" lon="23.625471"><ele>1806</ele><time>2026-03-08T06:34:12.000Z</time></trkpt>
<trkpt lat="42.081281" lon="23.625464"><ele>1806</ele><time>2026-03-08T06:34:13.000Z</time></trkpt>
<trkpt lat="42.081278" lon="23.625454"><ele>1806</ele><time>2026-03-08T06:34:14.000Z</time></trkpt>
<trkpt lat="42.081274" lon="23.625443"><ele>1806</ele><time>2026-03-08T06:34:15.000Z</time></trkpt>
<trkpt lat="42.08127" lon="23.625431"><ele>1806</ele><time>2026-03-08T06:34:16.000Z</time></trkpt>
<trkpt lat="42.081267" lon="23.625418"><ele>1806.4</ele><time>2026-03-08T06:34:17.000Z</time></trkpt>
<trkpt lat="42.081262" lon="23.625405"><ele>1806.4</ele><time>2026-03-08T06:34:18.000Z</time></trkpt>
<trkpt lat="42.081258" lon="23.625395"><ele>1806.4</ele><time>2026-03-08T06:34:19.000Z</time></trkpt>
<trkpt lat="42.081254" lon="23.625385"><ele>1806.4</ele><time>2026-03-08T06:34:20.000Z</time></trkpt>
<trkpt lat="42.081251" lon="23.625376"><ele>1806.4</ele><time>2026-03-08T06:34:21.000Z</time></trkpt>
<trkpt lat="42.081248" lon="23.625366"><ele>1806.9</ele><time>2026-03-08T06:34:22.000Z</time></trkpt>
<trkpt lat="42.081246" lon="23.625357"><ele>1806.9</ele><time>2026-03-08T06:34:23.000Z</time></trkpt>
<trkpt lat="42.081245" lon="23.625347"><ele>1806.9</ele><time>2026-03-08T06:34:24.000Z</time></trkpt>
<trkpt lat="42.081243" lon="23.625336"><ele>1806.9</ele><time>2026-03-08T06:34:25.000Z</time></trkpt>
<trkpt lat="42.08124" lon="23.625326"><ele>1806.9</ele><time>2026-03-08T06:34:26.000Z</time></trkpt>
<trkpt lat="42.081235" lon="23.625315"><ele>1807.2</ele><time>2026-03-08T06:34:27.000Z</time></trkpt>
<trkpt lat="42.08123" lon="23.625303"><ele>1807.2</ele><time>2026-03-08T06:34:28.000Z</time></trkpt>
<trkpt lat="42.081224" lon="23.625292"><ele>1807.2</ele><time>2026-03-08T06:34:29.000Z</time></trkpt>
<trkpt lat="42.081217" lon="23.62528"><ele>1807.2</ele><time>2026-03-08T06:34:30.000Z</time></trkpt>
<trkpt lat="42.08121" lon="23.625269"><ele>1807.2</ele><time>2026-03-08T06:34:31.000Z</time></trkpt>
<trkpt lat="42.081202" lon="23.625258"><ele>1807.5</ele><time>2026-03-08T06:34:32.000Z</time></trkpt>
<trkpt lat="42.081194" lon="23.625248"><ele>1807.5</ele><time>2026-03-08T06:34:33.000Z</time></trkpt>
<trkpt lat="42.081185" lon="23.625238"><ele>1807.5</ele><time>2026-03-08T06:34:34.000Z</time></trkpt>
<trkpt lat="42.081177" lon="23.625229"><ele>1807.5</ele><time>2026-03-08T06:34:35.000Z</time></trkpt>
<trkpt lat="42.081168" lon="23.625221"><ele>1807.5</ele><time>2026-03-08T06:34:36.000Z</time></trkpt>
<trkpt lat="42.081161" lon="23.625213"><ele>1807.8</ele><time>2026-03-08T06:34:37.000Z</time></trkpt>
<trkpt lat="42.081156" lon="23.625205"><ele>1807.8</ele><time>2026-03-08T06:34:38.000Z</time></trkpt>
<trkpt lat="42.081153" lon="23.6252"><ele>1807.8</ele><time>2026-03-08T06:34:39.000Z</time></trkpt>
<trkpt lat="42.081153" lon="23.625196"><ele>1807.8</ele><time>2026-03-08T06:34:40.000Z</time></trkpt>
<trkpt lat="42.081155" lon="23.625193"><ele>1807.8</ele><time>2026-03-08T06:34:41.000Z</time></trkpt>
<trkpt lat="42.08116" lon="23.625191"><ele>1807.9</ele><time>2026-03-08T06:34:42.000Z</time></trkpt>
<trkpt lat="42.081166" lon="23.62519"><ele>1807.9</ele><time>2026-03-08T06:34:43.000Z</time></trkpt>
<trkpt lat="42.081171" lon="23.625187"><ele>1807.9</ele><time>2026-03-08T06:34:44.000Z</time></trkpt>
<trkpt lat="42.081174" lon="23.625183"><ele>1807.9</ele><time>2026-03-08T06:34:45.000Z</time></trkpt>
<trkpt lat="42.081176" lon="23.62518"><ele>1807.9</ele><time>2026-03-08T06:34:46.000Z</time></trkpt>
<trkpt lat="42.081175" lon="23.625176"><ele>1808.1</ele><time>2026-03-08T06:34:47.000Z</time></trkpt>
<trkpt lat="42.081172" lon="23.625174"><ele>1808.1</ele><time>2026-03-08T06:34:48.000Z</time></trkpt>
<trkpt lat="42.08117" lon="23.625172"><ele>1808.1</ele><time>2026-03-08T06:34:49.000Z</time></trkpt>
<trkpt lat="42.081166" lon="23.62517"><ele>1808.1</ele><time>2026-03-08T06:34:50.000Z</time></trkpt>
<trkpt lat="42.081163" lon="23.625169"><ele>1808.1</ele><time>2026-03-08T06:34:51.000Z</time></trkpt>
<trkpt lat="42.081161" lon="23.625168"><ele>1808.3</ele><time>2026-03-08T06:34:52.000Z</time></trkpt>
<trkpt lat="42.08116" lon="23.625168"><ele>1808.3</ele><time>2026-03-08T06:34:53.000Z</time></trkpt>
<trkpt lat="42.08116" lon="23.625167"><ele>1808.3</ele><time>2026-03-08T06:34:54.000Z</time></trkpt>
<trkpt lat="42.081159" lon="23.625167"><ele>1808.3</ele><time>2026-03-08T06:34:55.000Z</time></trkpt>
<trkpt lat="42.081159" lon="23.625167"><ele>1808.3</ele><time>2026-03-08T06:34:56.000Z</time></trkpt>
<trkpt lat="42.081159" lon="23.625167"><ele>1808.4</ele><time>2026-03-08T06:34:57.000Z</time></trkpt>
<trkpt lat="42.081159" lon="23.625167"><ele>1808.4</ele><time>2026-03-08T06:34:58.000Z</time></trkpt>
<trkpt lat="42.081159" lon="23.625167"><ele>1808.4</ele><time>2026-03-08T06:34:59.000Z</time></trkpt>
<trkpt lat="42.081159" lon="23.625167"><ele>1808.4</ele><time>2026-03-08T06:35:00.000Z</time></trkpt>
<trkpt lat="42.081159" lon="23.625167"><ele>1808.4</ele><time>2026-03-08T06:35:01.000Z</time></trkpt>
<trkpt lat="42.081159" lon="23.625167"><ele>1808.3</ele><time>2026-03-08T06:35:02.000Z</time></trkpt>
<trkpt lat="42.081159" lon="23.625167"><ele>1808.3</ele><time>2026-03-08T06:35:03.000Z</time></trkpt>
<trkpt lat="42.081159" lon="23.625167"><ele>1808.3</ele><time>2026-03-08T06:35:04.000Z</time></trkpt>
<trkpt lat="42.081159" lon="23.625166"><ele>1808.3</ele><time>2026-03-08T06:35:05.000Z</time></trkpt>
<trkpt lat="42.081158" lon="23.625165"><ele>1808.3</ele><time>2026-03-08T06:35:06.000Z</time></trkpt>
<trkpt lat="42.081158" lon="23.625164"><ele>1808.3</ele><time>2026-03-08T06:35:07.000Z</time></trkpt>
<trkpt lat="42.081157" lon="23.625163"><ele>1808.3</ele><time>2026-03-08T06:35:08.000Z</time></trkpt>
<trkpt lat="42.081157" lon="23.625162"><ele>1808.3</ele><time>2026-03-08T06:35:09.000Z</time></trkpt>
<trkpt lat="42.081157" lon="23.625162"><ele>1808.3</ele><time>2026-03-08T06:35:10.000Z</time></trkpt>
<trkpt lat="42.081157" lon="23.625162"><ele>1808.3</ele><time>2026-03-08T06:35:11.000Z</time></trkpt>
<trkpt lat="42.081157" lon="23.625162"><ele>1808.4</ele><time>2026-03-08T06:35:12.000Z</time></trkpt>
<trkpt lat="42.081157" lon="23.625162"><ele>1808.4</ele><time>2026-03-08T06:35:13.000Z</time></trkpt>
<trkpt lat="42.081157" lon="23.625162"><ele>1808.4</ele><time>2026-03-08T06:35:14.000Z</time></trkpt>
<trkpt lat="42.081157" lon="23.625162"><ele>1808.4</ele><time>2026-03-08T06:35:15.000Z</time></trkpt>
<trkpt lat="42.081157" lon="23.625161"><ele>1808.4</ele><time>2026-03-08T06:35:16.000Z</time></trkpt>
<trkpt lat="42.081157" lon="23.62516"><ele>1808.4</ele><time>2026-03-08T06:35:17.000Z</time></trkpt>
<trkpt lat="42.081157" lon="23.625159"><ele>1808.4</ele><time>2026-03-08T06:35:18.000Z</time></trkpt>
<trkpt lat="42.081157" lon="23.625158"><ele>1808.4</ele><time>2026-03-08T06:35:19.000Z</time></trkpt>
<trkpt lat="42.081156" lon="23.625157"><ele>1808.4</ele><time>2026-03-08T06:35:20.000Z</time></trkpt>
<trkpt lat="42.081156" lon="23.625157"><ele>1808.4</ele><time>2026-03-08T06:35:21.000Z</time></trkpt>
<trkpt lat="42.081155" lon="23.625156"><ele>1808.4</ele><time>2026-03-08T06:35:22.000Z</time></trkpt>
<trkpt lat="42.081155" lon="23.625155"><ele>1808.4</ele><time>2026-03-08T06:35:23.000Z</time></trkpt>
<trkpt lat="42.081154" lon="23.625155"><ele>1808.4</ele><time>2026-03-08T06:35:24.000Z</time></trkpt>
<trkpt lat="42.081154" lon="23.625154"><ele>1808.4</ele><time>2026-03-08T06:35:25.000Z</time></trkpt>
<trkpt lat="42.081154" lon="23.625154"><ele>1808.4</ele><time>2026-03-08T06:35:26.000Z</time></trkpt>
<trkpt lat="42.081154" lon="23.625154"><ele>1808.3</ele><time>2026-03-08T06:35:27.000Z</time></trkpt>
<trkpt lat="42.081154" lon="23.625154"><ele>1808.3</ele><time>2026-03-08T06:35:28.000Z</time></trkpt>
<trkpt lat="42.081154" lon="23.625154"><ele>1808.3</ele><time>2026-03-08T06:35:29.000Z</time></trkpt>
<trkpt lat="42.081154" lon="23.625154"><ele>1808.3</ele><time>2026-03-08T06:35:30.000Z</time></trkpt>
<trkpt lat="42.081154" lon="23.625154"><ele>1808.3</ele><time>2026-03-08T06:35:31.000Z</time></trkpt>
<trkpt lat="42.081154" lon="23.625154"><ele>1808.3</ele><time>2026-03-08T06:35:32.000Z</time></trkpt>
<trkpt lat="42.081154" lon="23.625154"><ele>1808.3</ele><time>2026-03-08T06:35:33.000Z</time></trkpt>
<trkpt lat="42.081154" lon="23.625154"><ele>1808.3</ele><time>2026-03-08T06:35:34.000Z</time></trkpt>
<trkpt lat="42.081154" lon="23.625153"><ele>1808.3</ele><time>2026-03-08T06:35:35.000Z</time></trkpt>
<trkpt lat="42.081153" lon="23.625152"><ele>1808.3</ele><time>2026-03-08T06:35:36.000Z</time></trkpt>
<trkpt lat="42.081152" lon="23.625149"><ele>1808.3</ele><time>2026-03-08T06:35:37.000Z</time></trkpt>
<trkpt lat="42.081151" lon="23.625147"><ele>1808.3</ele><time>2026-03-08T06:35:38.000Z</time></trkpt>
<trkpt lat="42.08115" lon="23.625144"><ele>1808.3</ele><time>2026-03-08T06:35:39.000Z</time></trkpt>
<trkpt lat="42.081149" lon="23.625142"><ele>1808.3</ele><time>2026-03-08T06:35:40.000Z</time></trkpt>
<trkpt lat="42.081148" lon="23.625141"><ele>1808.3</ele><time>2026-03-08T06:35:41.000Z</time></trkpt>
<trkpt lat="42.081147" lon="23.62514"><ele>1808.4</ele><time>2026-03-08T06:35:42.000Z</time></trkpt>
<trkpt lat="42.081146" lon="23.625139"><ele>1808.4</ele><time>2026-03-08T06:35:43.000Z</time></trkpt>
<trkpt lat="42.081145" lon="23.625139"><ele>1808.4</ele><time>2026-03-08T06:35:44.000Z</time></trkpt>
<trkpt lat="42.081145" lon="23.625139"><ele>1808.4</ele><time>2026-03-08T06:35:45.000Z</time></trkpt>
<trkpt lat="42.081144" lon="23.625138"><ele>1808.4</ele><time>2026-03-08T06:35:46.000Z</time></trkpt>
<trkpt lat="42.081144" lon="23.625138"><ele>1808.4</ele><time>2026-03-08T06:35:47.000Z</time></trkpt>
<trkpt lat="42.081144" lon="23.625138"><ele>1808.4</ele><time>2026-03-08T06:35:48.000Z</time></trkpt>
<trkpt lat="42.081144" lon="23.625138"><ele>1808.4</ele><time>2026-03-08T06:35:49.000Z</time></trkpt>
<trkpt lat="42.081144" lon="23.625138"><ele>1808.4</ele><time>2026-03-08T06:35:50.000Z</time></trkpt>
<trkpt lat="42.081145" lon="23.625138"><ele>1808.4</ele><time>2026-03-08T06:35:51.000Z</time></trkpt>
<trkpt lat="42.081147" lon="23.625138"><ele>1808.4</ele><time>2026-03-08T06:35:52.000Z</time></trkpt>
<trkpt lat="42.081151" lon="23.625138"><ele>1808.4</ele><time>2026-03-08T06:35:53.000Z</time></trkpt>
<trkpt lat="42.081155" lon="23.625137"><ele>1808.4</ele><time>2026-03-08T06:35:54.000Z</time></trkpt>
<trkpt lat="42.081161" lon="23.625134"><ele>1808.4</ele><time>2026-03-08T06:35:55.000Z</time></trkpt>
<trkpt lat="42.081168" lon="23.625131"><ele>1808.4</ele><time>2026-03-08T06:35:56.000Z</time></trkpt>
<trkpt lat="42.081175" lon="23.625126"><ele>1808.4</ele><time>2026-03-08T06:35:57.000Z</time></trkpt>
<trkpt lat="42.081182" lon="23.625122"><ele>1808.4</ele><time>2026-03-08T06:35:58.000Z</time></trkpt>
<trkpt lat="42.081189" lon="23.625117"><ele>1808.4</ele><time>2026-03-08T06:35:59.000Z</time></trkpt>
<trkpt lat="42.081195" lon="23.625114"><ele>1808.4</ele><time>2026-03-08T06:36:00.000Z</time></trkpt>
<trkpt lat="42.081202" lon="23.62511"><ele>1808.4</ele><time>2026-03-08T06:36:01.000Z</time></trkpt>
<trkpt lat="42.081208" lon="23.625106"><ele>1808.3</ele><time>2026-03-08T06:36:02.000Z</time></trkpt>
<trkpt lat="42.081214" lon="23.625099"><ele>1808.3</ele><time>2026-03-08T06:36:03.000Z</time></trkpt>
<trkpt lat="42.08122" lon="23.625093"><ele>1808.3</ele><time>2026-03-08T06:36:04.000Z</time></trkpt>
<trkpt lat="42.081225" lon="23.625087"><ele>1808.3</ele><time>2026-03-08T06:36:05.000Z</time></trkpt>
<trkpt lat="42.081227" lon="23.625082"><ele>1808.3</ele><time>2026-03-08T06:36:06.000Z</time></trkpt>
<trkpt lat="42.081229" lon="23.625078"><ele>1808.3</ele><time>2026-03-08T06:36:07.000Z</time></trkpt>
<trkpt lat="42.081232" lon="23.625075"><ele>1808.3</ele><time>2026-03-08T06:36:08.000Z</time></trkpt>
<trkpt lat="42.081234" lon="23.625073"><ele>1808.3</ele><time>2026-03-08T06:36:09.000Z</time></trkpt>
<trkpt lat="42.081235" lon="23.625069"><ele>1808.3</ele><time>2026-03-08T06:36:10.000Z</time></trkpt>
<trkpt lat="42.081237" lon="23.625061"><ele>1808.3</ele><time>2026-03-08T06:36:11.000Z</time></trkpt>
<trkpt lat="42.08124" lon="23.62505"><ele>1808.4</ele><time>2026-03-08T06:36:12.000Z</time></trkpt>
<trkpt lat="42.081243" lon="23.625038"><ele>1808.4</ele><time>2026-03-08T06:36:13.000Z</time></trkpt>
<trkpt lat="42.081247" lon="23.625024"><ele>1808.4</ele><time>2026-03-08T06:36:14.000Z</time></trkpt>
<trkpt lat="42.081252" lon="23.625009"><ele>1808.4</ele><time>2026-03-08T06:36:15.000Z</time></trkpt>
<trkpt lat="42.08126" lon="23.624994"><ele>1808.4</ele><time>2026-03-08T06:36:16.000Z</time></trkpt>
<trkpt lat="42.081268" lon="23.624979"><ele>1808.9</ele><time>2026-03-08T06:36:17.000Z</time></trkpt>
<trkpt lat="42.081276" lon="23.624964"><ele>1808.9</ele><time>2026-03-08T06:36:18.000Z</time></trkpt>
<trkpt lat="42.081284" lon="23.62495"><ele>1808.9</ele><time>2026-03-08T06:36:19.000Z</time></trkpt>
<trkpt lat="42.081292" lon="23.624937"><ele>1808.9</ele><time>2026-03-08T06:36:20.000Z</time></trkpt>
<trkpt lat="42.081299" lon="23.624924"><ele>1808.9</ele><time>2026-03-08T06:36:21.000Z</time></trkpt>
<trkpt lat="42.081306" lon="23.624912"><ele>1809.5</ele><time>2026-03-08T06:36:22.000Z</time></trkpt>
<trkpt lat="42.081312" lon="23.624899"><ele>1809.5</ele><time>2026-03-08T06:36:23.000Z</time></trkpt>
<trkpt lat="42.081317" lon="23.624884"><ele>1809.5</ele><time>2026-03-08T06:36:24.000Z</time></trkpt>
<trkpt lat="42.081321" lon="23.624869"><ele>1809.5</ele><time>2026-03-08T06:36:25.000Z</time></trkpt>
<trkpt lat="42.081324" lon="23.624855"><ele>1809.5</ele><time>2026-03-08T06:36:26.000Z</time></trkpt>
<trkpt lat="42.081326" lon="23.624842"><ele>1809.7</ele><time>2026-03-08T06:36:27.000Z</time></trkpt>
<trkpt lat="42.081329" lon="23.624831"><ele>1809.7</ele><time>2026-03-08T06:36:28.000Z</time></trkpt>
<trkpt lat="42.081332" lon="23.624822"><ele>1809.7</ele><time>2026-03-08T06:36:29.000Z</time></trkpt>
<trkpt lat="42.081336" lon="23.624814"><ele>1809.7</ele><time>2026-03-08T06:36:30.000Z</time></trkpt>
<trkpt lat="42.081341" lon="23.624805"><ele>1809.7</ele><time>2026-03-08T06:36:31.000Z</time></trkpt>
<trkpt lat="42.081344" lon="23.624795"><ele>1810.3</ele><time>2026-03-08T06:36:32.000Z</time></trkpt>
<trkpt lat="42.081347" lon="23.624785"><ele>1810.3</ele><time>2026-03-08T06:36:33.000Z</time></trkpt>
<trkpt lat="42.081349" lon="23.624775"><ele>1810.3</ele><time>2026-03-08T06:36:34.000Z</time></trkpt>
<trkpt lat="42.081349" lon="23.624764"><ele>1810.3</ele><time>2026-03-08T06:36:35.000Z</time></trkpt>
<trkpt lat="42.081347" lon="23.624753"><ele>1810.3</ele><time>2026-03-08T06:36:36.000Z</time></trkpt>
<trkpt lat="42.081346" lon="23.624741"><ele>1811.2</ele><time>2026-03-08T06:36:37.000Z</time></trkpt>
<trkpt lat="42.081342" lon="23.624729"><ele>1811.2</ele><time>2026-03-08T06:36:38.000Z</time></trkpt>
<trkpt lat="42.081338" lon="23.624715"><ele>1811.2</ele><time>2026-03-08T06:36:39.000Z</time></trkpt>
<trkpt lat="42.081333" lon="23.624701"><ele>1811.2</ele><time>2026-03-08T06:36:40.000Z</time></trkpt>
<trkpt lat="42.081329" lon="23.624687"><ele>1811.2</ele><time>2026-03-08T06:36:41.000Z</time></trkpt>
<trkpt lat="42.081327" lon="23.624672"><ele>1811.7</ele><time>2026-03-08T06:36:42.000Z</time></trkpt>
<trkpt lat="42.081327" lon="23.624658"><ele>1811.7</ele><time>2026-03-08T06:36:43.000Z</time></trkpt>
<trkpt lat="42.081328" lon="23.624647"><ele>1811.7</ele><time>2026-03-08T06:36:44.000Z</time></trkpt>
<trkpt lat="42.081331" lon="23.624636"><ele>1811.7</ele><time>2026-03-08T06:36:45.000Z</time></trkpt>
<trkpt lat="42.081333" lon="23.624625"><ele>1811.7</ele><time>2026-03-08T06:36:46.000Z</time></trkpt>
<trkpt lat="42.081335" lon="23.624615"><ele>1812.8</ele><time>2026-03-08T06:36:47.000Z</time></trkpt>
<trkpt lat="42.081339" lon="23.624605"><ele>1812.8</ele><time>2026-03-08T06:36:48.000Z</time></trkpt>
<trkpt lat="42.081344" lon="23.624593"><ele>1812.8</ele><time>2026-03-08T06:36:49.000Z</time></trkpt>
<trkpt lat="42.08135" lon="23.62458"><ele>1812.8</ele><time>2026-03-08T06:36:50.000Z</time></trkpt>
<trkpt lat="42.081357" lon="23.624566"><ele>1812.8</ele><time>2026-03-08T06:36:51.000Z</time></trkpt>
<trkpt lat="42.081364" lon="23.62455"><ele>1813.9</ele><time>2026-03-08T06:36:52.000Z</time></trkpt>
<trkpt lat="42.08137" lon="23.624534"><ele>1813.9</ele><time>2026-03-08T06:36:53.000Z</time></trkpt>
<trkpt lat="42.081377" lon="23.624519"><ele>1813.9</ele><time>2026-03-08T06:36:54.000Z</time></trkpt>
<trkpt lat="42.081383" lon="23.624505"><ele>1813.9</ele><time>2026-03-08T06:36:55.000Z</time></trkpt>
<trkpt lat="42.081387" lon="23.624493"><ele>1813.9</ele><time>2026-03-08T06:36:56.000Z</time></trkpt>
<trkpt lat="42.08139" lon="23.624482"><ele>1814.5</ele><time>2026-03-08T06:36:57.000Z</time></trkpt>
<trkpt lat="42.081391" lon="23.62447"><ele>1814.5</ele><time>2026-03-08T06:36:58.000Z</time></trkpt>
<trkpt lat="42.081389" lon="23.624458"><ele>1814.5</ele><time>2026-03-08T06:36:59.000Z</time></trkpt>
<trkpt lat="42.081385" lon="23.624446"><ele>1814.5</ele><time>2026-03-08T06:37:00.000Z</time></trkpt>
<trkpt lat="42.081381" lon="23.624435"><ele>1814.5</ele><time>2026-03-08T06:37:01.000Z</time></trkpt>
<trkpt lat="42.081376" lon="23.624425"><ele>1815.5</ele><time>2026-03-08T06:37:02.000Z</time></trkpt>
<trkpt lat="42.081371" lon="23.624415"><ele>1815.5</ele><time>2026-03-08T06:37:03.000Z</time></trkpt>
<trkpt lat="42.081366" lon="23.624406"><ele>1815.5</ele><time>2026-03-08T06:37:04.000Z</time></trkpt>
<trkpt lat="42.081362" lon="23.624398"><ele>1815.5</ele><time>2026-03-08T06:37:05.000Z</time></trkpt>
<trkpt lat="42.081357" lon="23.624389"><ele>1815.5</ele><time>2026-03-08T06:37:06.000Z</time></trkpt>
<trkpt lat="42.081354" lon="23.624378"><ele>1816.5</ele><time>2026-03-08T06:37:07.000Z</time></trkpt>
<trkpt lat="42.081352" lon="23.624365"><ele>1816.5</ele><time>2026-03-08T06:37:08.000Z</time></trkpt>
<trkpt lat="42.08135" lon="23.624351"><ele>1816.5</ele><time>2026-03-08T06:37:09.000Z</time></trkpt>
<trkpt lat="42.081348" lon="23.624335"><ele>1816.5</ele><time>2026-03-08T06:37:10.000Z</time></trkpt>
<trkpt lat="42.081348" lon="23.624319"><ele>1816.5</ele><time>2026-03-08T06:37:11.000Z</time></trkpt>
<trkpt lat="42.081347" lon="23.624304"><ele>1817.2</ele><time>2026-03-08T06:37:12.000Z</time></trkpt>
<trkpt lat="42.081346" lon="23.624292"><ele>1817.2</ele><time>2026-03-08T06:37:13.000Z</time></trkpt>
<trkpt lat="42.081347" lon="23.62428"><ele>1817.2</ele><time>2026-03-08T06:37:14.000Z</time></trkpt>
<trkpt lat="42.081347" lon="23.62427"><ele>1817.2</ele><time>2026-03-08T06:37:15.000Z</time></trkpt>
<trkpt lat="42.081349" lon="23.624261"><ele>1817.2</ele><time>2026-03-08T06:37:16.000Z</time></trkpt>
<trkpt lat="42.08135" lon="23.624252"><ele>1818.6</ele><time>2026-03-08T06:37:17.000Z</time></trkpt>
<trkpt lat="42.081351" lon="23.624242"><ele>1818.6</ele><time>2026-03-08T06:37:18.000Z</time></trkpt>
<trkpt lat="42.081351" lon="23.624233"><ele>1818.6</ele><time>2026-03-08T06:37:19.000Z</time></trkpt>
<trkpt lat="42.081351" lon="23.624225"><ele>1818.6</ele><time>2026-03-08T06:37:20.000Z</time></trkpt>
<trkpt lat="42.08135" lon="23.624216"><ele>1818.6</ele><time>2026-03-08T06:37:21.000Z</time></trkpt>
<trkpt lat="42.081349" lon="23.624208"><ele>1820</ele><time>2026-03-08T06:37:22.000Z</time></trkpt>
<trkpt lat="42.081349" lon="23.624199"><ele>1820</ele><time>2026-03-08T06:37:23.000Z</time></trkpt>
<trkpt lat="42.08135" lon="23.624188"><ele>1820</ele><time>2026-03-08T06:37:24.000Z</time></trkpt>
<trkpt lat="42.081352" lon="23.624178"><ele>1820</ele><time>2026-03-08T06:37:25.000Z</time></trkpt>
<trkpt lat="42.081355" lon="23.624166"><ele>1820</ele><time>2026-03-08T06:37:26.000Z</time></trkpt>
<trkpt lat="42.081359" lon="23.624154"><ele>1820.7</ele><time>2026-03-08T06:37:27.000Z</time></trkpt>
<trkpt lat="42.081365" lon="23.624145"><ele>1820.7</ele><time>2026-03-08T06:37:28.000Z</time></trkpt>
<trkpt lat="42.081372" lon="23.624139"><ele>1820.7</ele><time>2026-03-08T06:37:29.000Z</time></trkpt>
<trkpt lat="42.081379" lon="23.624133"><ele>1820.7</ele><time>2026-03-08T06:37:30.000Z</time></trkpt>
<trkpt lat="42.081386" lon="23.624128"><ele>1820.7</ele><time>2026-03-08T06:37:31.000Z</time></trkpt>
<trkpt lat="42.081393" lon="23.624122"><ele>1821.8</ele><time>2026-03-08T06:37:32.000Z</time></trkpt>
<trkpt lat="42.0814" lon="23.624115"><ele>1821.8</ele><time>2026-03-08T06:37:33.000Z</time></trkpt>
<trkpt lat="42.081406" lon="23.624105"><ele>1821.8</ele><time>2026-03-08T06:37:34.000Z</time></trkpt>
<trkpt lat="42.081412" lon="23.624094"><ele>1821.8</ele><time>2026-03-08T06:37:35.000Z</time></trkpt>
<trkpt lat="42.081417" lon="23.624083"><ele>1821.8</ele><time>2026-03-08T06:37:36.000Z</time></trkpt>
<trkpt lat="42.08142" lon="23.624071"><ele>1822.9</ele><time>2026-03-08T06:37:37.000Z</time></trkpt>
<trkpt lat="42.081424" lon="23.624059"><ele>1822.9</ele><time>2026-03-08T06:37:38.000Z</time></trkpt>
<trkpt lat="42.081427" lon="23.624047"><ele>1822.9</ele><time>2026-03-08T06:37:39.000Z</time></trkpt>
<trkpt lat="42.081429" lon="23.624037"><ele>1822.9</ele><time>2026-03-08T06:37:40.000Z</time></trkpt>
<trkpt lat="42.081431" lon="23.624027"><ele>1822.9</ele><time>2026-03-08T06:37:41.000Z</time></trkpt>
<trkpt lat="42.081433" lon="23.62402"><ele>1823.3</ele><time>2026-03-08T06:37:42.000Z</time></trkpt>
<trkpt lat="42.081434" lon="23.624013"><ele>1823.3</ele><time>2026-03-08T06:37:43.000Z</time></trkpt>
<trkpt lat="42.081435" lon="23.624007"><ele>1823.3</ele><time>2026-03-08T06:37:44.000Z</time></trkpt>
<trkpt lat="42.081437" lon="23.623999"><ele>1823.3</ele><time>2026-03-08T06:37:45.000Z</time></trkpt>
<trkpt lat="42.08144" lon="23.623992"><ele>1823.3</ele><time>2026-03-08T06:37:46.000Z</time></trkpt>
<trkpt lat="42.081444" lon="23.623983"><ele>1824.1</ele><time>2026-03-08T06:37:47.000Z</time></trkpt>
<trkpt lat="42.081447" lon="23.623975"><ele>1824.1</ele><time>2026-03-08T06:37:48.000Z</time></trkpt>
<trkpt lat="42.081449" lon="23.623965"><ele>1824.1</ele><time>2026-03-08T06:37:49.000Z</time></trkpt>
<trkpt lat="42.081453" lon="23.623954"><ele>1824.1</ele><time>2026-03-08T06:37:50.000Z</time></trkpt>
<trkpt lat="42.081455" lon="23.623943"><ele>1824.1</ele><time>2026-03-08T06:37:51.000Z</time></trkpt>
<trkpt lat="42.081457" lon="23.623932"><ele>1825</ele><time>2026-03-08T06:37:52.000Z</time></trkpt>
<trkpt lat="42.081459" lon="23.62392"><ele>1825</ele><time>2026-03-08T06:37:53.000Z</time></trkpt>
<trkpt lat="42.08146" lon="23.623909"><ele>1825</ele><time>2026-03-08T06:37:54.000Z</time></trkpt>
<trkpt lat="42.081461" lon="23.623899"><ele>1825</ele><time>2026-03-08T06:37:55.000Z</time></trkpt>
<trkpt lat="42.081462" lon="23.62389"><ele>1825</ele><time>2026-03-08T06:37:56.000Z</time></trkpt>
<trkpt lat="42.081465" lon="23.623881"><ele>1825.5</ele><time>2026-03-08T06:37:57.000Z</time></trkpt>
<trkpt lat="42.081467" lon="23.623872"><ele>1825.5</ele><time>2026-03-08T06:37:58.000Z</time></trkpt>
<trkpt lat="42.081471" lon="23.623863"><ele>1825.5</ele><time>2026-03-08T06:37:59.000Z</time></trkpt>
<trkpt lat="42.081476" lon="23.623853"><ele>1825.5</ele><time>2026-03-08T06:38:00.000Z</time></trkpt>
<trkpt lat="42.081481" lon="23.623843"><ele>1825.5</ele><time>2026-03-08T06:38:01.000Z</time></trkpt>
<trkpt lat="42.081486" lon="23.623835"><ele>1826.6</ele><time>2026-03-08T06:38:02.000Z</time></trkpt>
<trkpt lat="42.08149" lon="23.623829"><ele>1826.6</ele><time>2026-03-08T06:38:03.000Z</time></trkpt>
<trkpt lat="42.081493" lon="23.623823"><ele>1826.6</ele><time>2026-03-08T06:38:04.000Z</time></trkpt>
<trkpt lat="42.081497" lon="23.623817"><ele>1826.6</ele><time>2026-03-08T06:38:05.000Z</time></trkpt>
<trkpt lat="42.081502" lon="23.623813"><ele>1826.6</ele><time>2026-03-08T06:38:06.000Z</time></trkpt>
<trkpt lat="42.081506" lon="23.623807"><ele>1827.5</ele><time>2026-03-08T06:38:07.000Z</time></trkpt>
<trkpt lat="42.081511" lon="23.623801"><ele>1827.5</ele><time>2026-03-08T06:38:08.000Z</time></trkpt>
<trkpt lat="42.081517" lon="23.623794"><ele>1827.5</ele><time>2026-03-08T06:38:09.000Z</time></trkpt>
<trkpt lat="42.081522" lon="23.623785"><ele>1827.5</ele><time>2026-03-08T06:38:10.000Z</time></trkpt>
<trkpt lat="42.081527" lon="23.623776"><ele>1827.5</ele><time>2026-03-08T06:38:11.000Z</time></trkpt>
<trkpt lat="42.081532" lon="23.623768"><ele>1828.1</ele><time>2026-03-08T06:38:12.000Z</time></trkpt>
<trkpt lat="42.081538" lon="23.623761"><ele>1828.1</ele><time>2026-03-08T06:38:13.000Z</time></trkpt>
<trkpt lat="42.081545" lon="23.623754"><ele>1828.1</ele><time>2026-03-08T06:38:14.000Z</time></trkpt>
<trkpt lat="42.08155" lon="23.62375"><ele>1828.1</ele><time>2026-03-08T06:38:15.000Z</time></trkpt>
<trkpt lat="42.081557" lon="23.623749"><ele>1828.1</ele><time>2026-03-08T06:38:16.000Z</time></trkpt>
<trkpt lat="42.081563" lon="23.623747"><ele>1829.4</ele><time>2026-03-08T06:38:17.000Z</time></trkpt>
<trkpt lat="42.08157" lon="23.623746"><ele>1829.4</ele><time>2026-03-08T06:38:18.000Z</time></trkpt>
<trkpt lat="42.081577" lon="23.623745"><ele>1829.4</ele><time>2026-03-08T06:38:19.000Z</time></trkpt>
<trkpt lat="42.081585" lon="23.623744"><ele>1829.4</ele><time>2026-03-08T06:38:20.000Z</time></trkpt>
<trkpt lat="42.081593" lon="23.623743"><ele>1829.4</ele><time>2026-03-08T06:38:21.000Z</time></trkpt>
<trkpt lat="42.0816" lon="23.623744"><ele>1830.8</ele><time>2026-03-08T06:38:22.000Z</time></trkpt>
<trkpt lat="42.081606" lon="23.623746"><ele>1830.8</ele><time>2026-03-08T06:38:23.000Z</time></trkpt>
<trkpt lat="42.081612" lon="23.623749"><ele>1830.8</ele><time>2026-03-08T06:38:24.000Z</time></trkpt>
<trkpt lat="42.08162" lon="23.623753"><ele>1830.8</ele><time>2026-03-08T06:38:25.000Z</time></trkpt>
<trkpt lat="42.081628" lon="23.623757"><ele>1830.8</ele><time>2026-03-08T06:38:26.000Z</time></trkpt>
<trkpt lat="42.081636" lon="23.62376"><ele>1831.4</ele><time>2026-03-08T06:38:27.000Z</time></trkpt>
<trkpt lat="42.081644" lon="23.623762"><ele>1831.4</ele><time>2026-03-08T06:38:28.000Z</time></trkpt>
<trkpt lat="42.081653" lon="23.623763"><ele>1831.4</ele><time>2026-03-08T06:38:29.000Z</time></trkpt>
<trkpt lat="42.081661" lon="23.623762"><ele>1831.4</ele><time>2026-03-08T06:38:30.000Z</time></trkpt>
<trkpt lat="42.081668" lon="23.62376"><ele>1831.4</ele><time>2026-03-08T06:38:31.000Z</time></trkpt>
<trkpt lat="42.081675" lon="23.62376"><ele>1832.2</ele><time>2026-03-08T06:38:32.000Z</time></trkpt>
<trkpt lat="42.08168" lon="23.623759"><ele>1832.2</ele><time>2026-03-08T06:38:33.000Z</time></trkpt>
<trkpt lat="42.081683" lon="23.62376"><ele>1832.2</ele><time>2026-03-08T06:38:34.000Z</time></trkpt>
<trkpt lat="42.081685" lon="23.623763"><ele>1832.2</ele><time>2026-03-08T06:38:35.000Z</time></trkpt>
<trkpt lat="42.081687" lon="23.623765"><ele>1832.2</ele><time>2026-03-08T06:38:36.000Z</time></trkpt>
<trkpt lat="42.081688" lon="23.623765"><ele>1832.8</ele><time>2026-03-08T06:38:37.000Z</time></trkpt>
<trkpt lat="42.081691" lon="23.623765"><ele>1832.8</ele><time>2026-03-08T06:38:38.000Z</time></trkpt>
<trkpt lat="42.081696" lon="23.623763"><ele>1832.8</ele><time>2026-03-08T06:38:39.000Z</time></trkpt>
<trkpt lat="42.081701" lon="23.623759"><ele>1832.8</ele><time>2026-03-08T06:38:40.000Z</time></trkpt>
<trkpt lat="42.081707" lon="23.623755"><ele>1832.8</ele><time>2026-03-08T06:38:41.000Z</time></trkpt>
<trkpt lat="42.081713" lon="23.623753"><ele>1833.1</ele><time>2026-03-08T06:38:42.000Z</time></trkpt>
<trkpt lat="42.081719" lon="23.623752"><ele>1833.1</ele><time>2026-03-08T06:38:43.000Z</time></trkpt>
<trkpt lat="42.081724" lon="23.623751"><ele>1833.1</ele><time>2026-03-08T06:38:44.000Z</time></trkpt>
<trkpt lat="42.081728" lon="23.62375"><ele>1833.1</ele><time>2026-03-08T06:38:45.000Z</time></trkpt>
<trkpt lat="42.081732" lon="23.623748"><ele>1833.1</ele><time>2026-03-08T06:38:46.000Z</time></trkpt>
<trkpt lat="42.081737" lon="23.623743"><ele>1834</ele><time>2026-03-08T06:38:47.000Z</time></trkpt>
<trkpt lat="42.081741" lon="23.623735"><ele>1834</ele><time>2026-03-08T06:38:48.000Z</time></trkpt>
<trkpt lat="42.081745" lon="23.623727"><ele>1834</ele><time>2026-03-08T06:38:49.000Z</time></trkpt>
<trkpt lat="42.081748" lon="23.623717"><ele>1834</ele><time>2026-03-08T06:38:50.000Z</time></trkpt>
<trkpt lat="42.08175" lon="23.623708"><ele>1834</ele><time>2026-03-08T06:38:51.000Z</time></trkpt>
<trkpt lat="42.081753" lon="23.623699"><ele>1835.1</ele><time>2026-03-08T06:38:52.000Z</time></trkpt>
<trkpt lat="42.081756" lon="23.623692"><ele>1835.1</ele><time>2026-03-08T06:38:53.000Z</time></trkpt>
<trkpt lat="42.081759" lon="23.623684"><ele>1835.1</ele><time>2026-03-08T06:38:54.000Z</time></trkpt>
<trkpt lat="42.081764" lon="23.623678"><ele>1835.1</ele><time>2026-03-08T06:38:55.000Z</time></trkpt>
<trkpt lat="42.081769" lon="23.623672"><ele>1835.1</ele><time>2026-03-08T06:38:56.000Z</time></trkpt>
<trkpt lat="42.081774" lon="23.623667"><ele>1835.7</ele><time>2026-03-08T06:38:57.000Z</time></trkpt>
<trkpt lat="42.081777" lon="23.623664"><ele>1835.7</ele><time>2026-03-08T06:38:58.000Z</time></trkpt>
<trkpt lat="42.08178" lon="23.623661"><ele>1835.7</ele><time>2026-03-08T06:38:59.000Z</time></trkpt>
<trkpt lat="42.08178" lon="23.623659"><ele>1835.7</ele><time>2026-03-08T06:39:00.000Z</time></trkpt>
<trkpt lat="42.081779" lon="23.623657"><ele>1835.7</ele><time>2026-03-08T06:39:01.000Z</time></trkpt>
<trkpt lat="42.081777" lon="23.623655"><ele>1837</ele><time>2026-03-08T06:39:02.000Z</time></trkpt>
<trkpt lat="42.081775" lon="23.623653"><ele>1837</ele><time>2026-03-08T06:39:03.000Z</time></trkpt>
<trkpt lat="42.081773" lon="23.62365"><ele>1837</ele><time>2026-03-08T06:39:04.000Z</time></trkpt>
<trkpt lat="42.081772" lon="23.623647"><ele>1837</ele><time>2026-03-08T06:39:05.000Z</time></trkpt>
<trkpt lat="42.081771" lon="23.623645"><ele>1837</ele><time>2026-03-08T06:39:06.000Z</time></trkpt>
<trkpt lat="42.081771" lon="23.623642"><ele>1838</ele><time>2026-03-08T06:39:07.000Z</time></trkpt>
<trkpt lat="42.081772" lon="23.623639"><ele>1838</ele><time>2026-03-08T06:39:08.000Z</time></trkpt>
<trkpt lat="42.081775" lon="23.623636"><ele>1838</ele><time>2026-03-08T06:39:09.000Z</time></trkpt>
<trkpt lat="42.08178" lon="23.623633"><ele>1838</ele><time>2026-03-08T06:39:10.000Z</time></trkpt>
<trkpt lat="42.081786" lon="23.623629"><ele>1838</ele><time>2026-03-08T06:39:11.000Z</time></trkpt>
<trkpt lat="42.081795" lon="23.623624"><ele>1838.4</ele><time>2026-03-08T06:39:12.000Z</time></trkpt>
<trkpt lat="42.081804" lon="23.623619"><ele>1838.4</ele><time>2026-03-08T06:39:13.000Z</time></trkpt>
<trkpt lat="42.081811" lon="23.623612"><ele>1838.4</ele><time>2026-03-08T06:39:14.000Z</time></trkpt>
<trkpt lat="42.081818" lon="23.623604"><ele>1838.4</ele><time>2026-03-08T06:39:15.000Z</time></trkpt>
<trkpt lat="42.081822" lon="23.623597"><ele>1838.4</ele><time>2026-03-08T06:39:16.000Z</time></trkpt>
<trkpt lat="42.081825" lon="23.62359"><ele>1838.6</ele><time>2026-03-08T06:39:17.000Z</time></trkpt>
<trkpt lat="42.081826" lon="23.623584"><ele>1838.6</ele><time>2026-03-08T06:39:18.000Z</time></trkpt>
<trkpt lat="42.081827" lon="23.62358"><ele>1838.6</ele><time>2026-03-08T06:39:19.000Z</time></trkpt>
<trkpt lat="42.081828" lon="23.623577"><ele>1838.6</ele><time>2026-03-08T06:39:20.000Z</time></trkpt>
<trkpt lat="42.081829" lon="23.623575"><ele>1838.6</ele><time>2026-03-08T06:39:21.000Z</time></trkpt>
<trkpt lat="42.081829" lon="23.623574"><ele>1838.8</ele><time>2026-03-08T06:39:22.000Z</time></trkpt>
<trkpt lat="42.08183" lon="23.623572"><ele>1838.8</ele><time>2026-03-08T06:39:23.000Z</time></trkpt>
<trkpt lat="42.081831" lon="23.623569"><ele>1838.8</ele><time>2026-03-08T06:39:24.000Z</time></trkpt>
<trkpt lat="42.08183" lon="23.623564"><ele>1838.8</ele><time>2026-03-08T06:39:25.000Z</time></trkpt>
<trkpt lat="42.081831" lon="23.623558"><ele>1838.8</ele><time>2026-03-08T06:39:26.000Z</time></trkpt>
<trkpt lat="42.081831" lon="23.62355"><ele>1839.1</ele><time>2026-03-08T06:39:27.000Z</time></trkpt>
<trkpt lat="42.081832" lon="23.62354"><ele>1839.1</ele><time>2026-03-08T06:39:28.000Z</time></trkpt>
<trkpt lat="42.081833" lon="23.62353"><ele>1839.1</ele><time>2026-03-08T06:39:29.000Z</time></trkpt>
<trkpt lat="42.081836" lon="23.623521"><ele>1839.1</ele><time>2026-03-08T06:39:30.000Z</time></trkpt>
<trkpt lat="42.081839" lon="23.623511"><ele>1839.1</ele><time>2026-03-08T06:39:31.000Z</time></trkpt>
<trkpt lat="42.081843" lon="23.623502"><ele>1839.8</ele><time>2026-03-08T06:39:32.000Z</time></trkpt>
<trkpt lat="42.081847" lon="23.623494"><ele>1839.8</ele><time>2026-03-08T06:39:33.000Z</time></trkpt>
<trkpt lat="42.081853" lon="23.623487"><ele>1839.8</ele><time>2026-03-08T06:39:34.000Z</time></trkpt>
<trkpt lat="42.08186" lon="23.623482"><ele>1839.8</ele><time>2026-03-08T06:39:35.000Z</time></trkpt>
<trkpt lat="42.081866" lon="23.623476"><ele>1839.8</ele><time>2026-03-08T06:39:36.000Z</time></trkpt>
<trkpt lat="42.081872" lon="23.623471"><ele>1840.6</ele><time>2026-03-08T06:39:37.000Z</time></trkpt>
<trkpt lat="42.081877" lon="23.623465"><ele>1840.6</ele><time>2026-03-08T06:39:38.000Z</time></trkpt>
<trkpt lat="42.081881" lon="23.62346"><ele>1840.6</ele><time>2026-03-08T06:39:39.000Z</time></trkpt>
<trkpt lat="42.081883" lon="23.623453"><ele>1840.6</ele><time>2026-03-08T06:39:40.000Z</time></trkpt>
<trkpt lat="42.081885" lon="23.623447"><ele>1840.6</ele><time>2026-03-08T06:39:41.000Z</time></trkpt>
<trkpt lat="42.081887" lon="23.623439"><ele>1841</ele><time>2026-03-08T06:39:42.000Z</time></trkpt>
<trkpt lat="42.08189" lon="23.62343"><ele>1841</ele><time>2026-03-08T06:39:43.000Z</time></trkpt>
<trkpt lat="42.081892" lon="23.623421"><ele>1841</ele><time>2026-03-08T06:39:44.000Z</time></trkpt>
<trkpt lat="42.081895" lon="23.623414"><ele>1841</ele><time>2026-03-08T06:39:45.000Z</time></trkpt>
<trkpt lat="42.0819" lon="23.623406"><ele>1841</ele><time>2026-03-08T06:39:46.000Z</time></trkpt>
<trkpt lat="42.081905" lon="23.623399"><ele>1841.9</ele><time>2026-03-08T06:39:47.000Z</time></trkpt>
<trkpt lat="42.081909" lon="23.623392"><ele>1841.9</ele><time>2026-03-08T06:39:48.000Z</time></trkpt>
<trkpt lat="42.081915" lon="23.623385"><ele>1841.9</ele><time>2026-03-08T06:39:49.000Z</time></trkpt>
<trkpt lat="42.081922" lon="23.623376"><ele>1841.9</ele><time>2026-03-08T06:39:50.000Z</time></trkpt>
<trkpt lat="42.081928" lon="23.623365"><ele>1841.9</ele><time>2026-03-08T06:39:51.000Z</time></trkpt>
<trkpt lat="42.081933" lon="23.623354"><ele>1842.8</ele><time>2026-03-08T06:39:52.000Z</time></trkpt>
<trkpt lat="42.081937" lon="23.623343"><ele>1842.8</ele><time>2026-03-08T06:39:53.000Z</time></trkpt>
<trkpt lat="42.08194" lon="23.62333"><ele>1842.8</ele><time>2026-03-08T06:39:54.000Z</time></trkpt>
<trkpt lat="42.081941" lon="23.623316"><ele>1842.8</ele><time>2026-03-08T06:39:55.000Z</time></trkpt>
<trkpt lat="42.081941" lon="23.6233"><ele>1842.8</ele><time>2026-03-08T06:39:56.000Z</time></trkpt>
<trkpt lat="42.081941" lon="23.623284"><ele>1843.2</ele><time>2026-03-08T06:39:57.000Z</time></trkpt>
<trkpt lat="42.081941" lon="23.623269"><ele>1843.2</ele><time>2026-03-08T06:39:58.000Z</time></trkpt>
<trkpt lat="42.081942" lon="23.623255"><ele>1843.2</ele><time>2026-03-08T06:39:59.000Z</time></trkpt>
<trkpt lat="42.081944" lon="23.623243"><ele>1843.2</ele><time>2026-03-08T06:40:00.000Z</time></trkpt>
<trkpt lat="42.081946" lon="23.623235"><ele>1843.2</ele><time>2026-03-08T06:40:01.000Z</time></trkpt>
<trkpt lat="42.081949" lon="23.623229"><ele>1844.1</ele><time>2026-03-08T06:40:02.000Z</time></trkpt>
<trkpt lat="42.081952" lon="23.623225"><ele>1844.1</ele><time>2026-03-08T06:40:03.000Z</time></trkpt>
<trkpt lat="42.081955" lon="23.623221"><ele>1844.1</ele><time>2026-03-08T06:40:04.000Z</time></trkpt>
<trkpt lat="42.081957" lon="23.623217"><ele>1844.1</ele><time>2026-03-08T06:40:05.000Z</time></trkpt>
<trkpt lat="42.081959" lon="23.623213"><ele>1844.1</ele><time>2026-03-08T06:40:06.000Z</time></trkpt>
<trkpt lat="42.081961" lon="23.623208"><ele>1845</ele><time>2026-03-08T06:40:07.000Z</time></trkpt>
<trkpt lat="42.081963" lon="23.623204"><ele>1845</ele><time>2026-03-08T06:40:08.000Z</time></trkpt>
<trkpt lat="42.081964" lon="23.623202"><ele>1845</ele><time>2026-03-08T06:40:09.000Z</time></trkpt>
<trkpt lat="42.081966" lon="23.623201"><ele>1845</ele><time>2026-03-08T06:40:10.000Z</time></trkpt>
<trkpt lat="42.081968" lon="23.623203"><ele>1845</ele><time>2026-03-08T06:40:11.000Z</time></trkpt>
<trkpt lat="42.081972" lon="23.623205"><ele>1845.4</ele><time>2026-03-08T06:40:12.000Z</time></trkpt>
<trkpt lat="42.081977" lon="23.623209"><ele>1845.4</ele><time>2026-03-08T06:40:13.000Z</time></trkpt>
<trkpt lat="42.081982" lon="23.623213"><ele>1845.4</ele><time>2026-03-08T06:40:14.000Z</time></trkpt>
<trkpt lat="42.081987" lon="23.623218"><ele>1845.4</ele><time>2026-03-08T06:40:15.000Z</time></trkpt>
<trkpt lat="42.081992" lon="23.623223"><ele>1845.4</ele><time>2026-03-08T06:40:16.000Z</time></trkpt>
<trkpt lat="42.081997" lon="23.623228"><ele>1846</ele><time>2026-03-08T06:40:17.000Z</time></trkpt>
<trkpt lat="42.082002" lon="23.623231"><ele>1846</ele><time>2026-03-08T06:40:18.000Z</time></trkpt>
<trkpt lat="42.082008" lon="23.623235"><ele>1846</ele><time>2026-03-08T06:40:19.000Z</time></trkpt>
<trkpt lat="42.082015" lon="23.623239"><ele>1846</ele><time>2026-03-08T06:40:20.000Z</time></trkpt>
<trkpt lat="42.082022" lon="23.623242"><ele>1846</ele><time>2026-03-08T06:40:21.000Z</time></trkpt>
<trkpt lat="42.08203" lon="23.623244"><ele>1846.3</ele><time>2026-03-08T06:40:22.000Z</time></trkpt>
<trkpt lat="42.082038" lon="23.623248"><ele>1846.3</ele><time>2026-03-08T06:40:23.000Z</time></trkpt>
<trkpt lat="42.082047" lon="23.623251"><ele>1846.3</ele><time>2026-03-08T06:40:24.000Z</time></trkpt>
<trkpt lat="42.082055" lon="23.623254"><ele>1846.3</ele><time>2026-03-08T06:40:25.000Z</time></trkpt>
<trkpt lat="42.082065" lon="23.623258"><ele>1846.3</ele><time>2026-03-08T06:40:26.000Z</time></trkpt>
<trkpt lat="42.082076" lon="23.623261"><ele>1846.4</ele><time>2026-03-08T06:40:27.000Z</time></trkpt>
<trkpt lat="42.082087" lon="23.623263"><ele>1846.4</ele><time>2026-03-08T06:40:28.000Z</time></trkpt>
<trkpt lat="42.082098" lon="23.623265"><ele>1846.4</ele><time>2026-03-08T06:40:29.000Z</time></trkpt>
<trkpt lat="42.082111" lon="23.623266"><ele>1846.4</ele><time>2026-03-08T06:40:30.000Z</time></trkpt>
<trkpt lat="42.082123" lon="23.623268"><ele>1846.4</ele><time>2026-03-08T06:40:31.000Z</time></trkpt>
<trkpt lat="42.082135" lon="23.623272"><ele>1846.4</ele><time>2026-03-08T06:40:32.000Z</time></trkpt>
<trkpt lat="42.082147" lon="23.623275"><ele>1846.4</ele><time>2026-03-08T06:40:33.000Z</time></trkpt>
<trkpt lat="42.082157" lon="23.62328"><ele>1846.4</ele><time>2026-03-08T06:40:34.000Z</time></trkpt>
<trkpt lat="42.082166" lon="23.623284"><ele>1846.4</ele><time>2026-03-08T06:40:35.000Z</time></trkpt>
<trkpt lat="42.082175" lon="23.623288"><ele>1846.4</ele><time>2026-03-08T06:40:36.000Z</time></trkpt>
<trkpt lat="42.082182" lon="23.623292"><ele>1846.5</ele><time>2026-03-08T06:40:37.000Z</time></trkpt>
<trkpt lat="42.082188" lon="23.623297"><ele>1846.5</ele><time>2026-03-08T06:40:38.000Z</time></trkpt>
<trkpt lat="42.082194" lon="23.623302"><ele>1846.5</ele><time>2026-03-08T06:40:39.000Z</time></trkpt>
<trkpt lat="42.082201" lon="23.623307"><ele>1846.5</ele><time>2026-03-08T06:40:40.000Z</time></trkpt>
<trkpt lat="42.082208" lon="23.623311"><ele>1846.5</ele><time>2026-03-08T06:40:41.000Z</time></trkpt>
<trkpt lat="42.082217" lon="23.623312"><ele>1846.7</ele><time>2026-03-08T06:40:42.000Z</time></trkpt>
<trkpt lat="42.082227" lon="23.623311"><ele>1846.7</ele><time>2026-03-08T06:40:43.000Z</time></trkpt>
<trkpt lat="42.082237" lon="23.623307"><ele>1846.7</ele><time>2026-03-08T06:40:44.000Z</time></trkpt>
<trkpt lat="42.082249" lon="23.6233"><ele>1846.7</ele><time>2026-03-08T06:40:45.000Z</time></trkpt>
<trkpt lat="42.082261" lon="23.623292"><ele>1846.7</ele><time>2026-03-08T06:40:46.000Z</time></trkpt>
<trkpt lat="42.082274" lon="23.623285"><ele>1846.9</ele><time>2026-03-08T06:40:47.000Z</time></trkpt>
<trkpt lat="42.082287" lon="23.623276"><ele>1846.9</ele><time>2026-03-08T06:40:48.000Z</time></trkpt>
<trkpt lat="42.0823" lon="23.623266"><ele>1846.9</ele><time>2026-03-08T06:40:49.000Z</time></trkpt>
<trkpt lat="42.082312" lon="23.623255"><ele>1846.9</ele><time>2026-03-08T06:40:50.000Z</time></trkpt>
<trkpt lat="42.082321" lon="23.623243"><ele>1846.9</ele><time>2026-03-08T06:40:51.000Z</time></trkpt>
<trkpt lat="42.082328" lon="23.623231"><ele>1847.1</ele><time>2026-03-08T06:40:52.000Z</time></trkpt>
<trkpt lat="42.082334" lon="23.623221"><ele>1847.1</ele><time>2026-03-08T06:40:53.000Z</time></trkpt>
<trkpt lat="42.08234" lon="23.623211"><ele>1847.1</ele><time>2026-03-08T06:40:54.000Z</time></trkpt>
<trkpt lat="42.082345" lon="23.623205"><ele>1847.1</ele><time>2026-03-08T06:40:55.000Z</time></trkpt>
<trkpt lat="42.082352" lon="23.6232"><ele>1847.1</ele><time>2026-03-08T06:40:56.000Z</time></trkpt>
<trkpt lat="42.082358" lon="23.623197"><ele>1847.1</ele><time>2026-03-08T06:40:57.000Z</time></trkpt>
<trkpt lat="42.082363" lon="23.623194"><ele>1847.1</ele><time>2026-03-08T06:40:58.000Z</time></trkpt>
<trkpt lat="42.082369" lon="23.623191"><ele>1847.1</ele><time>2026-03-08T06:40:59.000Z</time></trkpt>
<trkpt lat="42.082374" lon="23.623187"><ele>1847.1</ele><time>2026-03-08T06:41:00.000Z</time></trkpt>
<trkpt lat="42.082379" lon="23.623182"><ele>1847.1</ele><time>2026-03-08T06:41:01.000Z</time></trkpt>
<trkpt lat="42.082384" lon="23.623177"><ele>1847.3</ele><time>2026-03-08T06:41:02.000Z</time></trkpt>
<trkpt lat="42.082391" lon="23.623172"><ele>1847.3</ele><time>2026-03-08T06:41:03.000Z</time></trkpt>
<trkpt lat="42.082396" lon="23.623168"><ele>1847.3</ele><time>2026-03-08T06:41:04.000Z</time></trkpt>
<trkpt lat="42.082401" lon="23.623165"><ele>1847.3</ele><time>2026-03-08T06:41:05.000Z</time></trkpt>
<trkpt lat="42.082405" lon="23.623163"><ele>1847.3</ele><time>2026-03-08T06:41:06.000Z</time></trkpt>
<trkpt lat="42.082409" lon="23.62316"><ele>1847.6</ele><time>2026-03-08T06:41:07.000Z</time></trkpt>
<trkpt lat="42.082411" lon="23.623157"><ele>1847.6</ele><time>2026-03-08T06:41:08.000Z</time></trkpt>
<trkpt lat="42.082411" lon="23.623154"><ele>1847.6</ele><time>2026-03-08T06:41:09.000Z</time></trkpt>
<trkpt lat="42.082411" lon="23.623151"><ele>1847.6</ele><time>2026-03-08T06:41:10.000Z</time></trkpt>
<trkpt lat="42.082411" lon="23.623149"><ele>1847.6</ele><time>2026-03-08T06:41:11.000Z</time></trkpt>
<trkpt lat="42.082409" lon="23.623147"><ele>1847.7</ele><time>2026-03-08T06:41:12.000Z</time></trkpt>
<trkpt lat="42.082409" lon="23.623146"><ele>1847.7</ele><time>2026-03-08T06:41:13.000Z</time></trkpt>
<trkpt lat="42.08241" lon="23.623145"><ele>1847.7</ele><time>2026-03-08T06:41:14.000Z</time></trkpt>
<trkpt lat="42.082412" lon="23.623143"><ele>1847.7</ele><time>2026-03-08T06:41:15.000Z</time></trkpt>
<trkpt lat="42.082417" lon="23.623141"><ele>1847.7</ele><time>2026-03-08T06:41:16.000Z</time></trkpt>
<trkpt lat="42.082423" lon="23.623139"><ele>1847.9</ele><time>2026-03-08T06:41:17.000Z</time></trkpt>
<trkpt lat="42.08243" lon="23.623136"><ele>1847.9</ele><time>2026-03-08T06:41:18.000Z</time></trkpt>
<trkpt lat="42.082437" lon="23.623132"><ele>1847.9</ele><time>2026-03-08T06:41:19.000Z</time></trkpt>
<trkpt lat="42.082444" lon="23.623129"><ele>1847.9</ele><time>2026-03-08T06:41:20.000Z</time></trkpt>
<trkpt lat="42.082451" lon="23.623126"><ele>1847.9</ele><time>2026-03-08T06:41:21.000Z</time></trkpt>
<trkpt lat="42.082458" lon="23.623122"><ele>1848.1</ele><time>2026-03-08T06:41:22.000Z</time></trkpt>
<trkpt lat="42.082465" lon="23.623118"><ele>1848.1</ele><time>2026-03-08T06:41:23.000Z</time></trkpt>
<trkpt lat="42.082473" lon="23.623114"><ele>1848.1</ele><time>2026-03-08T06:41:24.000Z</time></trkpt>
<trkpt lat="42.08248" lon="23.623109"><ele>1848.1</ele><time>2026-03-08T06:41:25.000Z</time></trkpt>
<trkpt lat="42.082487" lon="23.623104"><ele>1848.1</ele><time>2026-03-08T06:41:26.000Z</time></trkpt>
<trkpt lat="42.082494" lon="23.623099"><ele>1848.1</ele><time>2026-03-08T06:41:27.000Z</time></trkpt>
<trkpt lat="42.082501" lon="23.623094"><ele>1848.1</ele><time>2026-03-08T06:41:28.000Z</time></trkpt>
<trkpt lat="42.082508" lon="23.623088"><ele>1848.1</ele><time>2026-03-08T06:41:29.000Z</time></trkpt>
<trkpt lat="42.082515" lon="23.623082"><ele>1848.1</ele><time>2026-03-08T06:41:30.000Z</time></trkpt>
<trkpt lat="42.082523" lon="23.623074"><ele>1848.1</ele><time>2026-03-08T06:41:31.000Z</time></trkpt>
<trkpt lat="42.08253" lon="23.623067"><ele>1848.5</ele><time>2026-03-08T06:41:32.000Z</time></trkpt>
<trkpt lat="42.082537" lon="23.623058"><ele>1848.5</ele><time>2026-03-08T06:41:33.000Z</time></trkpt>
<trkpt lat="42.082544" lon="23.62305"><ele>1848.5</ele><time>2026-03-08T06:41:34.000Z</time></trkpt>
<trkpt lat="42.082552" lon="23.623044"><ele>1848.5</ele><time>2026-03-08T06:41:35.000Z</time></trkpt>
<trkpt lat="42.082558" lon="23.623039"><ele>1848.5</ele><time>2026-03-08T06:41:36.000Z</time></trkpt>
<trkpt lat="42.082563" lon="23.623034"><ele>1849.2</ele><time>2026-03-08T06:41:37.000Z</time></trkpt>
<trkpt lat="42.082568" lon="23.623029"><ele>1849.2</ele><time>2026-03-08T06:41:38.000Z</time></trkpt>
<trkpt lat="42.082571" lon="23.623024"><ele>1849.2</ele><time>2026-03-08T06:41:39.000Z</time></trkpt>
<trkpt lat="42.082574" lon="23.623019"><ele>1849.2</ele><time>2026-03-08T06:41:40.000Z</time></trkpt>
<trkpt lat="42.082578" lon="23.623013"><ele>1849.2</ele><time>2026-03-08T06:41:41.000Z</time></trkpt>
<trkpt lat="42.082583" lon="23.623008"><ele>1849.7</ele><time>2026-03-08T06:41:42.000Z</time></trkpt>
<trkpt lat="42.08259" lon="23.623002"><ele>1849.7</ele><time>2026-03-08T06:41:43.000Z</time></trkpt>
<trkpt lat="42.082597" lon="23.622996"><ele>1849.7</ele><time>2026-03-08T06:41:44.000Z</time></trkpt>
<trkpt lat="42.082605" lon="23.62299"><ele>1849.7</ele><time>2026-03-08T06:41:45.000Z</time></trkpt>
<trkpt lat="42.082613" lon="23.622985"><ele>1849.7</ele><time>2026-03-08T06:41:46.000Z</time></trkpt>
<trkpt lat="42.08262" lon="23.622981"><ele>1850.6</ele><time>2026-03-08T06:41:47.000Z</time></trkpt>
<trkpt lat="42.082626" lon="23.622977"><ele>1850.6</ele><time>2026-03-08T06:41:48.000Z</time></trkpt>
<trkpt lat="42.082633" lon="23.622973"><ele>1850.6</ele><time>2026-03-08T06:41:49.000Z</time></trkpt>
<trkpt lat="42.08264" lon="23.62297"><ele>1850.6</ele><time>2026-03-08T06:41:50.000Z</time></trkpt>
<trkpt lat="42.082647" lon="23.622968"><ele>1850.6</ele><time>2026-03-08T06:41:51.000Z</time></trkpt>
<trkpt lat="42.082654" lon="23.622966"><ele>1851.5</ele><time>2026-03-08T06:41:52.000Z</time></trkpt>
<trkpt lat="42.082659" lon="23.622965"><ele>1851.5</ele><time>2026-03-08T06:41:53.000Z</time></trkpt>
<trkpt lat="42.082662" lon="23.622965"><ele>1851.5</ele><time>2026-03-08T06:41:54.000Z</time></trkpt>
<trkpt lat="42.082665" lon="23.622965"><ele>1851.5</ele><time>2026-03-08T06:41:55.000Z</time></trkpt>
<trkpt lat="42.082668" lon="23.622966"><ele>1851.5</ele><time>2026-03-08T06:41:56.000Z</time></trkpt>
<trkpt lat="42.082672" lon="23.622966"><ele>1851.9</ele><time>2026-03-08T06:41:57.000Z</time></trkpt>
<trkpt lat="42.082678" lon="23.622964"><ele>1851.9</ele><time>2026-03-08T06:41:58.000Z</time></trkpt>
<trkpt lat="42.082684" lon="23.62296"><ele>1851.9</ele><time>2026-03-08T06:41:59.000Z</time></trkpt>
<trkpt lat="42.082691" lon="23.622955"><ele>1851.9</ele><time>2026-03-08T06:42:00.000Z</time></trkpt>
<trkpt lat="42.082697" lon="23.622948"><ele>1851.9</ele><time>2026-03-08T06:42:01.000Z</time></trkpt>
<trkpt lat="42.082704" lon="23.62294"><ele>1852.8</ele><time>2026-03-08T06:42:02.000Z</time></trkpt>
<trkpt lat="42.08271" lon="23.622932"><ele>1852.8</ele><time>2026-03-08T06:42:03.000Z</time></trkpt>
<trkpt lat="42.082716" lon="23.622926"><ele>1852.8</ele><time>2026-03-08T06:42:04.000Z</time></trkpt>
<trkpt lat="42.082721" lon="23.62292"><ele>1852.8</ele><time>2026-03-08T06:42:05.000Z</time></trkpt>
<trkpt lat="42.082726" lon="23.622915"><ele>1852.8</ele><time>2026-03-08T06:42:06.000Z</time></trkpt>
<trkpt lat="42.082729" lon="23.62291"><ele>1853.6</ele><time>2026-03-08T06:42:07.000Z</time></trkpt>
<trkpt lat="42.082733" lon="23.622907"><ele>1853.6</ele><time>2026-03-08T06:42:08.000Z</time></trkpt>
<trkpt lat="42.082735" lon="23.622903"><ele>1853.6</ele><time>2026-03-08T06:42:09.000Z</time></trkpt>
<trkpt lat="42.082736" lon="23.622901"><ele>1853.6</ele><time>2026-03-08T06:42:10.000Z</time></trkpt>
<trkpt lat="42.082736" lon="23.622899"><ele>1853.6</ele><time>2026-03-08T06:42:11.000Z</time></trkpt>
<trkpt lat="42.082736" lon="23.622896"><ele>1854</ele><time>2026-03-08T06:42:12.000Z</time></trkpt>
<trkpt lat="42.082735" lon="23.622893"><ele>1854</ele><time>2026-03-08T06:42:13.000Z</time></trkpt>
<trkpt lat="42.082734" lon="23.622889"><ele>1854</ele><time>2026-03-08T06:42:14.000Z</time></trkpt>
<trkpt lat="42.082734" lon="23.622884"><ele>1854</ele><time>2026-03-08T06:42:15.000Z</time></trkpt>
<trkpt lat="42.082734" lon="23.622878"><ele>1854</ele><time>2026-03-08T06:42:16.000Z</time></trkpt>
<trkpt lat="42.082734" lon="23.622872"><ele>1854.8</ele><time>2026-03-08T06:42:17.000Z</time></trkpt>
<trkpt lat="42.082735" lon="23.622867"><ele>1854.8</ele><time>2026-03-08T06:42:18.000Z</time></trkpt>
<trkpt lat="42.082735" lon="23.622861"><ele>1854.8</ele><time>2026-03-08T06:42:19.000Z</time></trkpt>
<trkpt lat="42.082736" lon="23.622856"><ele>1854.8</ele><time>2026-03-08T06:42:20.000Z</time></trkpt>
<trkpt lat="42.082737" lon="23.622852"><ele>1854.8</ele><time>2026-03-08T06:42:21.000Z</time></trkpt>
<trkpt lat="42.082738" lon="23.622847"><ele>1855.7</ele><time>2026-03-08T06:42:22.000Z</time></trkpt>
<trkpt lat="42.082739" lon="23.622843"><ele>1855.7</ele><time>2026-03-08T06:42:23.000Z</time></trkpt>
<trkpt lat="42.08274" lon="23.622839"><ele>1855.7</ele><time>2026-03-08T06:42:24.000Z</time></trkpt>
<trkpt lat="42.082741" lon="23.622835"><ele>1855.7</ele><time>2026-03-08T06:42:25.000Z</time></trkpt>
<trkpt lat="42.082742" lon="23.622829"><ele>1855.7</ele><time>2026-03-08T06:42:26.000Z</time></trkpt>
<trkpt lat="42.082741" lon="23.622823"><ele>1856.1</ele><time>2026-03-08T06:42:27.000Z</time></trkpt>
<trkpt lat="42.082741" lon="23.622816"><ele>1856.1</ele><time>2026-03-08T06:42:28.000Z</time></trkpt>
<trkpt lat="42.082741" lon="23.622808"><ele>1856.1</ele><time>2026-03-08T06:42:29.000Z</time></trkpt>
<trkpt lat="42.082741" lon="23.622801"><ele>1856.1</ele><time>2026-03-08T06:42:30.000Z</time></trkpt>
<trkpt lat="42.082741" lon="23.622794"><ele>1856.1</ele><time>2026-03-08T06:42:31.000Z</time></trkpt>
<trkpt lat="42.082742" lon="23.622787"><ele>1857</ele><time>2026-03-08T06:42:32.000Z</time></trkpt>
<trkpt lat="42.082742" lon="23.622781"><ele>1857</ele><time>2026-03-08T06:42:33.000Z</time></trkpt>
<trkpt lat="42.082743" lon="23.622776"><ele>1857</ele><time>2026-03-08T06:42:34.000Z</time></trkpt>
<trkpt lat="42.082743" lon="23.62277"><ele>1857</ele><time>2026-03-08T06:42:35.000Z</time></trkpt>
<trkpt lat="42.082744" lon="23.622765"><ele>1857</ele><time>2026-03-08T06:42:36.000Z</time></trkpt>
<trkpt lat="42.082746" lon="23.62276"><ele>1858</ele><time>2026-03-08T06:42:37.000Z</time></trkpt>
<trkpt lat="42.082748" lon="23.622756"><ele>1858</ele><time>2026-03-08T06:42:38.000Z</time></trkpt>
<trkpt lat="42.08275" lon="23.622751"><ele>1858</ele><time>2026-03-08T06:42:39.000Z</time></trkpt>
<trkpt lat="42.082752" lon="23.622745"><ele>1858</ele><time>2026-03-08T06:42:40.000Z</time></trkpt>
<trkpt lat="42.082754" lon="23.62274"><ele>1858</ele><time>2026-03-08T06:42:41.000Z</time></trkpt>
<trkpt lat="42.082755" lon="23.622734"><ele>1858.6</ele><time>2026-03-08T06:42:42.000Z</time></trkpt>
<trkpt lat="42.082756" lon="23.622728"><ele>1858.6</ele><time>2026-03-08T06:42:43.000Z</time></trkpt>
<trkpt lat="42.082758" lon="23.622723"><ele>1858.6</ele><time>2026-03-08T06:42:44.000Z</time></trkpt>
<trkpt lat="42.082759" lon="23.622717"><ele>1858.6</ele><time>2026-03-08T06:42:45.000Z</time></trkpt>
<trkpt lat="42.082759" lon="23.622712"><ele>1858.6</ele><time>2026-03-08T06:42:46.000Z</time></trkpt>
<trkpt lat="42.08276" lon="23.622706"><ele>1859.6</ele><time>2026-03-08T06:42:47.000Z</time></trkpt>
<trkpt lat="42.08276" lon="23.622699"><ele>1859.6</ele><time>2026-03-08T06:42:48.000Z</time></trkpt>
<trkpt lat="42.082759" lon="23.622692"><ele>1859.6</ele><time>2026-03-08T06:42:49.000Z</time></trkpt>
<trkpt lat="42.082758" lon="23.622686"><ele>1859.6</ele><time>2026-03-08T06:42:50.000Z</time></trkpt>
<trkpt lat="42.082758" lon="23.62268"><ele>1859.6</ele><time>2026-03-08T06:42:51.000Z</time></trkpt>
<trkpt lat="42.082757" lon="23.622675"><ele>1860.6</ele><time>2026-03-08T06:42:52.000Z</time></trkpt>
<trkpt lat="42.082757" lon="23.62267"><ele>1860.6</ele><time>2026-03-08T06:42:53.000Z</time></trkpt>
<trkpt lat="42.082757" lon="23.622665"><ele>1860.6</ele><time>2026-03-08T06:42:54.000Z</time></trkpt>
<trkpt lat="42.082757" lon="23.622659"><ele>1860.6</ele><time>2026-03-08T06:42:55.000Z</time></trkpt>
<trkpt lat="42.082757" lon="23.622652"><ele>1860.6</ele><time>2026-03-08T06:42:56.000Z</time></trkpt>
<trkpt lat="42.082758" lon="23.622644"><ele>1861.1</ele><time>2026-03-08T06:42:57.000Z</time></trkpt>
<trkpt lat="42.082758" lon="23.622636"><ele>1861.1</ele><time>2026-03-08T06:42:58.000Z</time></trkpt>
<trkpt lat="42.082757" lon="23.622627"><ele>1861.1</ele><time>2026-03-08T06:42:59.000Z</time></trkpt>
<trkpt lat="42.082757" lon="23.622619"><ele>1861.1</ele><time>2026-03-08T06:43:00.000Z</time></trkpt>
<trkpt lat="42.082756" lon="23.622611"><ele>1861.1</ele><time>2026-03-08T06:43:01.000Z</time></trkpt>
<trkpt lat="42.082756" lon="23.622603"><ele>1862.2</ele><time>2026-03-08T06:43:02.000Z</time></trkpt>
<trkpt lat="42.082755" lon="23.622595"><ele>1862.2</ele><time>2026-03-08T06:43:03.000Z</time></trkpt>
<trkpt lat="42.082755" lon="23.622588"><ele>1862.2</ele><time>2026-03-08T06:43:04.000Z</time></trkpt>
<trkpt lat="42.082755" lon="23.62258"><ele>1862.2</ele><time>2026-03-08T06:43:05.000Z</time></trkpt>
<trkpt lat="42.082755" lon="23.622573"><ele>1862.2</ele><time>2026-03-08T06:43:06.000Z</time></trkpt>
<trkpt lat="42.082755" lon="23.622565"><ele>1863.4</ele><time>2026-03-08T06:43:07.000Z</time></trkpt>
<trkpt lat="42.082755" lon="23.622558"><ele>1863.4</ele><time>2026-03-08T06:43:08.000Z</time></trkpt>
<trkpt lat="42.082755" lon="23.622551"><ele>1863.4</ele><time>2026-03-08T06:43:09.000Z</time></trkpt>
<trkpt lat="42.082754" lon="23.622544"><ele>1863.4</ele><time>2026-03-08T06:43:10.000Z</time></trkpt>
<trkpt lat="42.082755" lon="23.622537"><ele>1863.4</ele><time>2026-03-08T06:43:11.000Z</time></trkpt>
<trkpt lat="42.082755" lon="23.62253"><ele>1864</ele><time>2026-03-08T06:43:12.000Z</time></trkpt>
<trkpt lat="42.082755" lon="23.622523"><ele>1864</ele><time>2026-03-08T06:43:13.000Z</time></trkpt>
<trkpt lat="42.082754" lon="23.622516"><ele>1864</ele><time>2026-03-08T06:43:14.000Z</time></trkpt>
<trkpt lat="42.082753" lon="23.622508"><ele>1864</ele><time>2026-03-08T06:43:15.000Z</time></trkpt>
<trkpt lat="42.082753" lon="23.6225"><ele>1864</ele><time>2026-03-08T06:43:16.000Z</time></trkpt>
<trkpt lat="42.082751" lon="23.622492"><ele>1865.4</ele><time>2026-03-08T06:43:17.000Z</time></trkpt>
<trkpt lat="42.08275" lon="23.622484"><ele>1865.4</ele><time>2026-03-08T06:43:18.000Z</time></trkpt>
<trkpt lat="42.082749" lon="23.622476"><ele>1865.4</ele><time>2026-03-08T06:43:19.000Z</time></trkpt>
<trkpt lat="42.082747" lon="23.622469"><ele>1865.4</ele><time>2026-03-08T06:43:20.000Z</time></trkpt>
<trkpt lat="42.082746" lon="23.622462"><ele>1865.4</ele><time>2026-03-08T06:43:21.000Z</time></trkpt>
<trkpt lat="42.082745" lon="23.622456"><ele>1866.6</ele><time>2026-03-08T06:43:22.000Z</time></trkpt>
<trkpt lat="42.082744" lon="23.62245"><ele>1866.6</ele><time>2026-03-08T06:43:23.000Z</time></trkpt>
<trkpt lat="42.082742" lon="23.622444"><ele>1866.6</ele><time>2026-03-08T06:43:24.000Z</time></trkpt>
<trkpt lat="42.082741" lon="23.622437"><ele>1866.6</ele><time>2026-03-08T06:43:25.000Z</time></trkpt>
<trkpt lat="42.082739" lon="23.62243"><ele>1866.6</ele><time>2026-03-08T06:43:26.000Z</time></trkpt>
<trkpt lat="42.082738" lon="23.622423"><ele>1867.2</ele><time>2026-03-08T06:43:27.000Z</time></trkpt>
<trkpt lat="42.082738" lon="23.622415"><ele>1867.2</ele><time>2026-03-08T06:43:28.000Z</time></trkpt>
<trkpt lat="42.082738" lon="23.622407"><ele>1867.2</ele><time>2026-03-08T06:43:29.000Z</time></trkpt>
<trkpt lat="42.082738" lon="23.622399"><ele>1867.2</ele><time>2026-03-08T06:43:30.000Z</time></trkpt>
<trkpt lat="42.082739" lon="23.62239"><ele>1867.2</ele><time>2026-03-08T06:43:31.000Z</time></trkpt>
<trkpt lat="42.08274" lon="23.622382"><ele>1868.3</ele><time>2026-03-08T06:43:32.000Z</time></trkpt>
<trkpt lat="42.082741" lon="23.622373"><ele>1868.3</ele><time>2026-03-08T06:43:33.000Z</time></trkpt>
<trkpt lat="42.082742" lon="23.622364"><ele>1868.3</ele><time>2026-03-08T06:43:34.000Z</time></trkpt>
<trkpt lat="42.082744" lon="23.622356"><ele>1868.3</ele><time>2026-03-08T06:43:35.000Z</time></trkpt>
<trkpt lat="42.082745" lon="23.622348"><ele>1868.3</ele><time>2026-03-08T06:43:36.000Z</time></trkpt>
<trkpt lat="42.082747" lon="23.622339"><ele>1869.3</ele><time>2026-03-08T06:43:37.000Z</time></trkpt>
<trkpt lat="42.082747" lon="23.62233"><ele>1869.3</ele><time>2026-03-08T06:43:38.000Z</time></trkpt>
<trkpt lat="42.082747" lon="23.622321"><ele>1869.3</ele><time>2026-03-08T06:43:39.000Z</time></trkpt>
<trkpt lat="42.082747" lon="23.622313"><ele>1869.3</ele><time>2026-03-08T06:43:40.000Z</time></trkpt>
<trkpt lat="42.082747" lon="23.622306"><ele>1869.3</ele><time>2026-03-08T06:43:41.000Z</time></trkpt>
<trkpt lat="42.082747" lon="23.622299"><ele>1869.8</ele><time>2026-03-08T06:43:42.000Z</time></trkpt>
<trkpt lat="42.082748" lon="23.622292"><ele>1869.8</ele><time>2026-03-08T06:43:43.000Z</time></trkpt>
<trkpt lat="42.082749" lon="23.622285"><ele>1869.8</ele><time>2026-03-08T06:43:44.000Z</time></trkpt>
<trkpt lat="42.082749" lon="23.622278"><ele>1869.8</ele><time>2026-03-08T06:43:45.000Z</time></trkpt>
<trkpt lat="42.08275" lon="23.622271"><ele>1869.8</ele><time>2026-03-08T06:43:46.000Z</time></trkpt>
<trkpt lat="42.082752" lon="23.622263"><ele>1870.6</ele><time>2026-03-08T06:43:47.000Z</time></trkpt>
<trkpt lat="42.082753" lon="23.622254"><ele>1870.6</ele><time>2026-03-08T06:43:48.000Z</time></trkpt>
<trkpt lat="42.082755" lon="23.622245"><ele>1870.6</ele><time>2026-03-08T06:43:49.000Z</time></trkpt>
<trkpt lat="42.082757" lon="23.622236"><ele>1870.6</ele><time>2026-03-08T06:43:50.000Z</time></trkpt>
<trkpt lat="42.082759" lon="23.622227"><ele>1870.6</ele><time>2026-03-08T06:43:51.000Z</time></trkpt>
<trkpt lat="42.082761" lon="23.622217"><ele>1871.5</ele><time>2026-03-08T06:43:52.000Z</time></trkpt>
<trkpt lat="42.082762" lon="23.622207"><ele>1871.5</ele><time>2026-03-08T06:43:53.000Z</time></trkpt>
<trkpt lat="42.082762" lon="23.622197"><ele>1871.5</ele><time>2026-03-08T06:43:54.000Z</time></trkpt>
<trkpt lat="42.082763" lon="23.622188"><ele>1871.5</ele><time>2026-03-08T06:43:55.000Z</time></trkpt>
<trkpt lat="42.082762" lon="23.622178"><ele>1871.5</ele><time>2026-03-08T06:43:56.000Z</time></trkpt>
<trkpt lat="42.082761" lon="23.622169"><ele>1871.9</ele><time>2026-03-08T06:43:57.000Z</time></trkpt>
<trkpt lat="42.08276" lon="23.62216"><ele>1871.9</ele><time>2026-03-08T06:43:58.000Z</time></trkpt>
<trkpt lat="42.082761" lon="23.622151"><ele>1871.9</ele><time>2026-03-08T06:43:59.000Z</time></trkpt>
<trkpt lat="42.082761" lon="23.622142"><ele>1871.9</ele><time>2026-03-08T06:44:00.000Z</time></trkpt>
<trkpt lat="42.082761" lon="23.622132"><ele>1871.9</ele><time>2026-03-08T06:44:01.000Z</time></trkpt>
<trkpt lat="42.082762" lon="23.622122"><ele>1872.7</ele><time>2026-03-08T06:44:02.000Z</time></trkpt>
<trkpt lat="42.082762" lon="23.622112"><ele>1872.7</ele><time>2026-03-08T06:44:03.000Z</time></trkpt>
<trkpt lat="42.082763" lon="23.622103"><ele>1872.7</ele><time>2026-03-08T06:44:04.000Z</time></trkpt>
<trkpt lat="42.082764" lon="23.622097"><ele>1872.7</ele><time>2026-03-08T06:44:05.000Z</time></trkpt>
<trkpt lat="42.082764" lon="23.622094"><ele>1872.7</ele><time>2026-03-08T06:44:06.000Z</time></trkpt>
<trkpt lat="42.082764" lon="23.622092"><ele>1873.5</ele><time>2026-03-08T06:44:07.000Z</time></trkpt>
<trkpt lat="42.082763" lon="23.622092"><ele>1873.5</ele><time>2026-03-08T06:44:08.000Z</time></trkpt>
<trkpt lat="42.082762" lon="23.622092"><ele>1873.5</ele><time>2026-03-08T06:44:09.000Z</time></trkpt>
<trkpt lat="42.082761" lon="23.622092"><ele>1873.5</ele><time>2026-03-08T06:44:10.000Z</time></trkpt>
<trkpt lat="42.082761" lon="23.622092"><ele>1873.5</ele><time>2026-03-08T06:44:11.000Z</time></trkpt>
<trkpt lat="42.08276" lon="23.622092"><ele>1873.9</ele><time>2026-03-08T06:44:12.000Z</time></trkpt>
<trkpt lat="42.08276" lon="23.622092"><ele>1873.9</ele><time>2026-03-08T06:44:13.000Z</time></trkpt>
<trkpt lat="42.08276" lon="23.622092"><ele>1873.9</ele><time>2026-03-08T06:44:14.000Z</time></trkpt>
<trkpt lat="42.08276" lon="23.622092"><ele>1873.9</ele><time>2026-03-08T06:44:15.000Z</time></trkpt>
<trkpt lat="42.08276" lon="23.622092"><ele>1873.9</ele><time>2026-03-08T06:44:16.000Z</time></trkpt>
<trkpt lat="42.08276" lon="23.622092"><ele>1874.6</ele><time>2026-03-08T06:44:17.000Z</time></trkpt>
<trkpt lat="42.08276" lon="23.622092"><ele>1874.6</ele><time>2026-03-08T06:44:18.000Z</time></trkpt>
<trkpt lat="42.082761" lon="23.622092"><ele>1874.6</ele><time>2026-03-08T06:44:19.000Z</time></trkpt>
<trkpt lat="42.082762" lon="23.622092"><ele>1874.6</ele><time>2026-03-08T06:44:20.000Z</time></trkpt>
<trkpt lat="42.082762" lon="23.622092"><ele>1874.6</ele><time>2026-03-08T06:44:21.000Z</time></trkpt>
<trkpt lat="42.082763" lon="23.622092"><ele>1875</ele><time>2026-03-08T06:44:22.000Z</time></trkpt>
<trkpt lat="42.082764" lon="23.622092"><ele>1875</ele><time>2026-03-08T06:44:23.000Z</time></trkpt>
<trkpt lat="42.082764" lon="23.622092"><ele>1875</ele><time>2026-03-08T06:44:24.000Z</time></trkpt>
<trkpt lat="42.082765" lon="23.622093"><ele>1875</ele><time>2026-03-08T06:44:25.000Z</time></trkpt>
<trkpt lat="42.082765" lon="23.622093"><ele>1875</ele><time>2026-03-08T06:44:26.000Z</time></trkpt>
<trkpt lat="42.082766" lon="23.622093"><ele>1875.2</ele><time>2026-03-08T06:44:27.000Z</time></trkpt>
<trkpt lat="42.082767" lon="23.622094"><ele>1875.2</ele><time>2026-03-08T06:44:28.000Z</time></trkpt>
<trkpt lat="42.082768" lon="23.622093"><ele>1875.2</ele><time>2026-03-08T06:44:29.000Z</time></trkpt>
<trkpt lat="42.082769" lon="23.622091"><ele>1875.2</ele><time>2026-03-08T06:44:30.000Z</time></trkpt>
<trkpt lat="42.082771" lon="23.62209"><ele>1875.2</ele><time>2026-03-08T06:44:31.000Z</time></trkpt>
<trkpt lat="42.082772" lon="23.622088"><ele>1875.2</ele><time>2026-03-08T06:44:32.000Z</time></trkpt>
<trkpt lat="42.082774" lon="23.622085"><ele>1875.2</ele><time>2026-03-08T06:44:33.000Z</time></trkpt>
<trkpt lat="42.082775" lon="23.622083"><ele>1875.2</ele><time>2026-03-08T06:44:34.000Z</time></trkpt>
<trkpt lat="42.082777" lon="23.622079"><ele>1875.2</ele><time>2026-03-08T06:44:35.000Z</time></trkpt>
<trkpt lat="42.082778" lon="23.622073"><ele>1875.2</ele><time>2026-03-08T06:44:36.000Z</time></trkpt>
<trkpt lat="42.082778" lon="23.622067"><ele>1875</ele><time>2026-03-08T06:44:37.000Z</time></trkpt>
<trkpt lat="42.082779" lon="23.622058"><ele>1875</ele><time>2026-03-08T06:44:38.000Z</time></trkpt>
<trkpt lat="42.08278" lon="23.622049"><ele>1875</ele><time>2026-03-08T06:44:39.000Z</time></trkpt>
<trkpt lat="42.08278" lon="23.622041"><ele>1875</ele><time>2026-03-08T06:44:40.000Z</time></trkpt>
<trkpt lat="42.08278" lon="23.622035"><ele>1875</ele><time>2026-03-08T06:44:41.000Z</time></trkpt>
<trkpt lat="42.08278" lon="23.622031"><ele>1874.9</ele><time>2026-03-08T06:44:42.000Z</time></trkpt>
<trkpt lat="42.082781" lon="23.622027"><ele>1874.9</ele><time>2026-03-08T06:44:43.000Z</time></trkpt>
<trkpt lat="42.082782" lon="23.622027"><ele>1874.9</ele><time>2026-03-08T06:44:44.000Z</time></trkpt>
<trkpt lat="42.082784" lon="23.622027"><ele>1874.9</ele><time>2026-03-08T06:44:45.000Z</time></trkpt>
<trkpt lat="42.082786" lon="23.622026"><ele>1874.9</ele><time>2026-03-08T06:44:46.000Z</time></trkpt>
<trkpt lat="42.082788" lon="23.622026"><ele>1874.6</ele><time>2026-03-08T06:44:47.000Z</time></trkpt>
<trkpt lat="42.082789" lon="23.622025"><ele>1874.6</ele><time>2026-03-08T06:44:48.000Z</time></trkpt>
<trkpt lat="42.082789" lon="23.622025"><ele>1874.6</ele><time>2026-03-08T06:44:49.000Z</time></trkpt>
<trkpt lat="42.08279" lon="23.622025"><ele>1874.6</ele><time>2026-03-08T06:44:50.000Z</time></trkpt>
<trkpt lat="42.08279" lon="23.622025"><ele>1874.6</ele><time>2026-03-08T06:44:51.000Z</time></trkpt>
<trkpt lat="42.08279" lon="23.622025"><ele>1874.7</ele><time>2026-03-08T06:44:52.000Z</time></trkpt>
<trkpt lat="42.08279" lon="23.622025"><ele>1874.7</ele><time>2026-03-08T06:44:53.000Z</time></trkpt>
<trkpt lat="42.08279" lon="23.622024"><ele>1874.7</ele><time>2026-03-08T06:44:54.000Z</time></trkpt>
<trkpt lat="42.082791" lon="23.622022"><ele>1874.7</ele><time>2026-03-08T06:44:55.000Z</time></trkpt>
<trkpt lat="42.082792" lon="23.622019"><ele>1874.7</ele><time>2026-03-08T06:44:56.000Z</time></trkpt>
<trkpt lat="42.082794" lon="23.622017"><ele>1874.8</ele><time>2026-03-08T06:44:57.000Z</time></trkpt>
<trkpt lat="42.082795" lon="23.622014"><ele>1874.8</ele><time>2026-03-08T06:44:58.000Z</time></trkpt>
<trkpt lat="42.082797" lon="23.622014"><ele>1874.8</ele><time>2026-03-08T06:44:59.000Z</time></trkpt>
<trkpt lat="42.082798" lon="23.622015"><ele>1874.8</ele><time>2026-03-08T06:45:00.000Z</time></trkpt>
<trkpt lat="42.082799" lon="23.622015"><ele>1874.8</ele><time>2026-03-08T06:45:01.000Z</time></trkpt>
<trkpt lat="42.082799" lon="23.622016"><ele>1874.9</ele><time>2026-03-08T06:45:02.000Z</time></trkpt>
<trkpt lat="42.082799" lon="23.622016"><ele>1874.9</ele><time>2026-03-08T06:45:03.000Z</time></trkpt>
<trkpt lat="42.082799" lon="23.622016"><ele>1874.9</ele><time>2026-03-08T06:45:04.000Z</time></trkpt>
<trkpt lat="42.082799" lon="23.622017"><ele>1874.9</ele><time>2026-03-08T06:45:05.000Z</time></trkpt>
<trkpt lat="42.082799" lon="23.622017"><ele>1874.9</ele><time>2026-03-08T06:45:06.000Z</time></trkpt>
<trkpt lat="42.082799" lon="23.622017"><ele>1875.1</ele><time>2026-03-08T06:45:07.000Z</time></trkpt>
<trkpt lat="42.082798" lon="23.622017"><ele>1875.1</ele><time>2026-03-08T06:45:08.000Z</time></trkpt>
<trkpt lat="42.082798" lon="23.622017"><ele>1875.1</ele><time>2026-03-08T06:45:09.000Z</time></trkpt>
<trkpt lat="42.082798" lon="23.622017"><ele>1875.1</ele><time>2026-03-08T06:45:10.000Z</time></trkpt>
<trkpt lat="42.082797" lon="23.622017"><ele>1875.1</ele><time>2026-03-08T06:45:11.000Z</time></trkpt>
<trkpt lat="42.082797" lon="23.622017"><ele>1875.2</ele><time>2026-03-08T06:45:12.000Z</time></trkpt>
<trkpt lat="42.082797" lon="23.622017"><ele>1875.2</ele><time>2026-03-08T06:45:13.000Z</time></trkpt>
<trkpt lat="42.082797" lon="23.622017"><ele>1875.2</ele><time>2026-03-08T06:45:14.000Z</time></trkpt>
<trkpt lat="42.082796" lon="23.622018"><ele>1875.2</ele><time>2026-03-08T06:45:15.000Z</time></trkpt>
<trkpt lat="42.082795" lon="23.622017"><ele>1875.2</ele><time>2026-03-08T06:45:16.000Z</time></trkpt>
<trkpt lat="42.082793" lon="23.622017"><ele>1875.4</ele><time>2026-03-08T06:45:17.000Z</time></trkpt>
<trkpt lat="42.082792" lon="23.622016"><ele>1875.4</ele><time>2026-03-08T06:45:18.000Z</time></trkpt>
<trkpt lat="42.082791" lon="23.622016"><ele>1875.4</ele><time>2026-03-08T06:45:19.000Z</time></trkpt>
<trkpt lat="42.08279" lon="23.622014"><ele>1875.4</ele><time>2026-03-08T06:45:20.000Z</time></trkpt>
<trkpt lat="42.08279" lon="23.622013"><ele>1875.4</ele><time>2026-03-08T06:45:21.000Z</time></trkpt>
<trkpt lat="42.08279" lon="23.622011"><ele>1875.5</ele><time>2026-03-08T06:45:22.000Z</time></trkpt>
<trkpt lat="42.08279" lon="23.62201"><ele>1875.5</ele><time>2026-03-08T06:45:23.000Z</time></trkpt>
<trkpt lat="42.08279" lon="23.622008"><ele>1875.5</ele><time>2026-03-08T06:45:24.000Z</time></trkpt>
<trkpt lat="42.082789" lon="23.622008"><ele>1875.5</ele><time>2026-03-08T06:45:25.000Z</time></trkpt>
<trkpt lat="42.082789" lon="23.622007"><ele>1875.5</ele><time>2026-03-08T06:45:26.000Z</time></trkpt>
<trkpt lat="42.082789" lon="23.622007"><ele>1875.5</ele><time>2026-03-08T06:45:27.000Z</time></trkpt>
<trkpt lat="42.082789" lon="23.622007"><ele>1875.5</ele><time>2026-03-08T06:45:28.000Z</time></trkpt>
<trkpt lat="42.082789" lon="23.622007"><ele>1875.5</ele><time>2026-03-08T06:45:29.000Z</time></trkpt>
<trkpt lat="42.082789" lon="23.622007"><ele>1875.5</ele><time>2026-03-08T06:45:30.000Z</time></trkpt>
<trkpt lat="42.082788" lon="23.622007"><ele>1875.5</ele><time>2026-03-08T06:45:31.000Z</time></trkpt>
<trkpt lat="42.082788" lon="23.622007"><ele>1875.3</ele><time>2026-03-08T06:45:32.000Z</time></trkpt>
<trkpt lat="42.082788" lon="23.622007"><ele>1875.3</ele><time>2026-03-08T06:45:33.000Z</time></trkpt>
<trkpt lat="42.082788" lon="23.622007"><ele>1875.3</ele><time>2026-03-08T06:45:34.000Z</time></trkpt>
<trkpt lat="42.082788" lon="23.622007"><ele>1875.3</ele><time>2026-03-08T06:45:35.000Z</time></trkpt>
<trkpt lat="42.082788" lon="23.622007"><ele>1875.3</ele><time>2026-03-08T06:45:36.000Z</time></trkpt>
<trkpt lat="42.082788" lon="23.622007"><ele>1875.3</ele><time>2026-03-08T06:45:37.000Z</time></trkpt>
<trkpt lat="42.082788" lon="23.622007"><ele>1875.3</ele><time>2026-03-08T06:45:38.000Z</time></trkpt>
<trkpt lat="42.082787" lon="23.622007"><ele>1875.3</ele><time>2026-03-08T06:45:39.000Z</time></trkpt>
<trkpt lat="42.082787" lon="23.622007"><ele>1875.3</ele><time>2026-03-08T06:45:40.000Z</time></trkpt>
<trkpt lat="42.082786" lon="23.622006"><ele>1875.3</ele><time>2026-03-08T06:45:41.000Z</time></trkpt>
<trkpt lat="42.082786" lon="23.622006"><ele>1875.2</ele><time>2026-03-08T06:45:42.000Z</time></trkpt>
<trkpt lat="42.082786" lon="23.622006"><ele>1875.2</ele><time>2026-03-08T06:45:43.000Z</time></trkpt>
<trkpt lat="42.082786" lon="23.622006"><ele>1875.2</ele><time>2026-03-08T06:45:44.000Z</time></trkpt>
<trkpt lat="42.082786" lon="23.622006"><ele>1875.2</ele><time>2026-03-08T06:45:45.000Z</time></trkpt>
<trkpt lat="42.082786" lon="23.622006"><ele>1875.2</ele><time>2026-03-08T06:45:46.000Z</time></trkpt>
<trkpt lat="42.082786" lon="23.622006"><ele>1875.2</ele><time>2026-03-08T06:45:47.000Z</time></trkpt>
<trkpt lat="42.082786" lon="23.622006"><ele>1875.2</ele><time>2026-03-08T06:45:48.000Z</time></trkpt>
<trkpt lat="42.082786" lon="23.622006"><ele>1875.2</ele><time>2026-03-08T06:45:49.000Z</time></trkpt>
<trkpt lat="42.082786" lon="23.622006"><ele>1875.2</ele><time>2026-03-08T06:45:50.000Z</time></trkpt>
<trkpt lat="42.082787" lon="23.622006"><ele>1875.2</ele><time>2026-03-08T06:45:51.000Z</time></trkpt>
<trkpt lat="42.082788" lon="23.622006"><ele>1875.1</ele><time>2026-03-08T06:45:52.000Z</time></trkpt>
<trkpt lat="42.08279" lon="23.622007"><ele>1875.1</ele><time>2026-03-08T06:45:53.000Z</time></trkpt>
<trkpt lat="42.082791" lon="23.622007"><ele>1875.1</ele><time>2026-03-08T06:45:54.000Z</time></trkpt>
<trkpt lat="42.082792" lon="23.622007"><ele>1875.1</ele><time>2026-03-08T06:45:55.000Z</time></trkpt>
<trkpt lat="42.082792" lon="23.622006"><ele>1875.1</ele><time>2026-03-08T06:45:56.000Z</time></trkpt>
<trkpt lat="42.082791" lon="23.622006"><ele>1875.1</ele><time>2026-03-08T06:45:57.000Z</time></trkpt>
<trkpt lat="42.082791" lon="23.622005"><ele>1875.1</ele><time>2026-03-08T06:45:58.000Z</time></trkpt>
<trkpt lat="42.082791" lon="23.622005"><ele>1875.1</ele><time>2026-03-08T06:45:59.000Z</time></trkpt>
<trkpt lat="42.082791" lon="23.622005"><ele>1875.1</ele><time>2026-03-08T06:46:00.000Z</time></trkpt>
<trkpt lat="42.08279" lon="23.622005"><ele>1875.1</ele><time>2026-03-08T06:46:01.000Z</time></trkpt>
<trkpt lat="42.08279" lon="23.622006"><ele>1875</ele><time>2026-03-08T06:46:02.000Z</time></trkpt>
<trkpt lat="42.08279" lon="23.622007"><ele>1875</ele><time>2026-03-08T06:46:03.000Z</time></trkpt>
<trkpt lat="42.08279" lon="23.622009"><ele>1875</ele><time>2026-03-08T06:46:04.000Z</time></trkpt>
<trkpt lat="42.082789" lon="23.62201"><ele>1875</ele><time>2026-03-08T06:46:05.000Z</time></trkpt>
<trkpt lat="42.08279" lon="23.622011"><ele>1875</ele><time>2026-03-08T06:46:06.000Z</time></trkpt>
<trkpt lat="42.08279" lon="23.622012"><ele>1875.2</ele><time>2026-03-08T06:46:07.000Z</time></trkpt>
<trkpt lat="42.082789" lon="23.622012"><ele>1875.2</ele><time>2026-03-08T06:46:08.000Z</time></trkpt>
<trkpt lat="42.082789" lon="23.622012"><ele>1875.2</ele><time>2026-03-08T06:46:09.000Z</time></trkpt>
<trkpt lat="42.082789" lon="23.622012"><ele>1875.2</ele><time>2026-03-08T06:46:10.000Z</time></trkpt>
<trkpt lat="42.08279" lon="23.622011"><ele>1875.2</ele><time>2026-03-08T06:46:11.000Z</time></trkpt>
<trkpt lat="42.08279" lon="23.62201"><ele>1875.2</ele><time>2026-03-08T06:46:12.000Z</time></trkpt>
<trkpt lat="42.082791" lon="23.62201"><ele>1875.2</ele><time>2026-03-08T06:46:13.000Z</time></trkpt>
<trkpt lat="42.082791" lon="23.622009"><ele>1875.2</ele><time>2026-03-08T06:46:14.000Z</time></trkpt>
<trkpt lat="42.082792" lon="23.622006"><ele>1875.2</ele><time>2026-03-08T06:46:15.000Z</time></trkpt>
<trkpt lat="42.082793" lon="23.622003"><ele>1875.2</ele><time>2026-03-08T06:46:16.000Z</time></trkpt>
<trkpt lat="42.082793" lon="23.621997"><ele>1875.1</ele><time>2026-03-08T06:46:17.000Z</time></trkpt>
<trkpt lat="42.082792" lon="23.621989"><ele>1875.1</ele><time>2026-03-08T06:46:18.000Z</time></trkpt>
<trkpt lat="42.082792" lon="23.621979"><ele>1875.1</ele><time>2026-03-08T06:46:19.000Z</time></trkpt>
<trkpt lat="42.082791" lon="23.621969"><ele>1875.1</ele><time>2026-03-08T06:46:20.000Z</time></trkpt>
<trkpt lat="42.08279" lon="23.621959"><ele>1875.1</ele><time>2026-03-08T06:46:21.000Z</time></trkpt>
<trkpt lat="42.082789" lon="23.621948"><ele>1875.2</ele><time>2026-03-08T06:46:22.000Z</time></trkpt>
<trkpt lat="42.08279" lon="23.621938"><ele>1875.2</ele><time>2026-03-08T06:46:23.000Z</time></trkpt>
<trkpt lat="42.08279" lon="23.621927"><ele>1875.2</ele><time>2026-03-08T06:46:24.000Z</time></trkpt>
<trkpt lat="42.08279" lon="23.621917"><ele>1875.2</ele><time>2026-03-08T06:46:25.000Z</time></trkpt>
<trkpt lat="42.082791" lon="23.621904"><ele>1875.2</ele><time>2026-03-08T06:46:26.000Z</time></trkpt>
<trkpt lat="42.082792" lon="23.621892"><ele>1875.2</ele><time>2026-03-08T06:46:27.000Z</time></trkpt>
<trkpt lat="42.082793" lon="23.62188"><ele>1875.2</ele><time>2026-03-08T06:46:28.000Z</time></trkpt>
<trkpt lat="42.082795" lon="23.62187"><ele>1875.2</ele><time>2026-03-08T06:46:29.000Z</time></trkpt>
<trkpt lat="42.082797" lon="23.62186"><ele>1875.2</ele><time>2026-03-08T06:46:30.000Z</time></trkpt>
<trkpt lat="42.0828" lon="23.62185"><ele>1875.2</ele><time>2026-03-08T06:46:31.000Z</time></trkpt>
<trkpt lat="42.082803" lon="23.621841"><ele>1875.5</ele><time>2026-03-08T06:46:32.000Z</time></trkpt>
<trkpt lat="42.082805" lon="23.621831"><ele>1875.5</ele><time>2026-03-08T06:46:33.000Z</time></trkpt>
<trkpt lat="42.082807" lon="23.62182"><ele>1875.5</ele><time>2026-03-08T06:46:34.000Z</time></trkpt>
<trkpt lat="42.082808" lon="23.62181"><ele>1875.5</ele><time>2026-03-08T06:46:35.000Z</time></trkpt>
<trkpt lat="42.082808" lon="23.6218"><ele>1875.5</ele><time>2026-03-08T06:46:36.000Z</time></trkpt>
<trkpt lat="42.082809" lon="23.62179"><ele>1876.1</ele><time>2026-03-08T06:46:37.000Z</time></trkpt>
<trkpt lat="42.082811" lon="23.62178"><ele>1876.1</ele><time>2026-03-08T06:46:38.000Z</time></trkpt>
<trkpt lat="42.082812" lon="23.621771"><ele>1876.1</ele><time>2026-03-08T06:46:39.000Z</time></trkpt>
<trkpt lat="42.082814" lon="23.621762"><ele>1876.1</ele><time>2026-03-08T06:46:40.000Z</time></trkpt>
<trkpt lat="42.082817" lon="23.621753"><ele>1876.1</ele><time>2026-03-08T06:46:41.000Z</time></trkpt>
<trkpt lat="42.082818" lon="23.621747"><ele>1876.4</ele><time>2026-03-08T06:46:42.000Z</time></trkpt>
<trkpt lat="42.08282" lon="23.621741"><ele>1876.4</ele><time>2026-03-08T06:46:43.000Z</time></trkpt>
<trkpt lat="42.082822" lon="23.621736"><ele>1876.4</ele><time>2026-03-08T06:46:44.000Z</time></trkpt>
<trkpt lat="42.082823" lon="23.621732"><ele>1876.4</ele><time>2026-03-08T06:46:45.000Z</time></trkpt>
<trkpt lat="42.082824" lon="23.621728"><ele>1876.4</ele><time>2026-03-08T06:46:46.000Z</time></trkpt>
<trkpt lat="42.082825" lon="23.621722"><ele>1877</ele><time>2026-03-08T06:46:47.000Z</time></trkpt>
<trkpt lat="42.082825" lon="23.621715"><ele>1877</ele><time>2026-03-08T06:46:48.000Z</time></trkpt>
<trkpt lat="42.082826" lon="23.621706"><ele>1877</ele><time>2026-03-08T06:46:49.000Z</time></trkpt>
<trkpt lat="42.082825" lon="23.621697"><ele>1877</ele><time>2026-03-08T06:46:50.000Z</time></trkpt>
<trkpt lat="42.082826" lon="23.621688"><ele>1877</ele><time>2026-03-08T06:46:51.000Z</time></trkpt>
<trkpt lat="42.082827" lon="23.62168"><ele>1877.6</ele><time>2026-03-08T06:46:52.000Z</time></trkpt>
<trkpt lat="42.082827" lon="23.621672"><ele>1877.6</ele><time>2026-03-08T06:46:53.000Z</time></trkpt>
<trkpt lat="42.082828" lon="23.621665"><ele>1877.6</ele><time>2026-03-08T06:46:54.000Z</time></trkpt>
<trkpt lat="42.08283" lon="23.621659"><ele>1877.6</ele><time>2026-03-08T06:46:55.000Z</time></trkpt>
<trkpt lat="42.082833" lon="23.621653"><ele>1877.6</ele><time>2026-03-08T06:46:56.000Z</time></trkpt>
<trkpt lat="42.082836" lon="23.621646"><ele>1877.9</ele><time>2026-03-08T06:46:57.000Z</time></trkpt>
<trkpt lat="42.082839" lon="23.621641"><ele>1877.9</ele><time>2026-03-08T06:46:58.000Z</time></trkpt>
<trkpt lat="42.082842" lon="23.621636"><ele>1877.9</ele><time>2026-03-08T06:46:59.000Z</time></trkpt>
<trkpt lat="42.082844" lon="23.621631"><ele>1877.9</ele><time>2026-03-08T06:47:00.000Z</time></trkpt>
<trkpt lat="42.082846" lon="23.621626"><ele>1877.9</ele><time>2026-03-08T06:47:01.000Z</time></trkpt>
<trkpt lat="42.082847" lon="23.621621"><ele>1878.7</ele><time>2026-03-08T06:47:02.000Z</time></trkpt>
<trkpt lat="42.082848" lon="23.621616"><ele>1878.7</ele><time>2026-03-08T06:47:03.000Z</time></trkpt>
<trkpt lat="42.082849" lon="23.62161"><ele>1878.7</ele><time>2026-03-08T06:47:04.000Z</time></trkpt>
<trkpt lat="42.08285" lon="23.621605"><ele>1878.7</ele><time>2026-03-08T06:47:05.000Z</time></trkpt>
<trkpt lat="42.082851" lon="23.621599"><ele>1878.7</ele><time>2026-03-08T06:47:06.000Z</time></trkpt>
<trkpt lat="42.082851" lon="23.621593"><ele>1879.7</ele><time>2026-03-08T06:47:07.000Z</time></trkpt>
<trkpt lat="42.082852" lon="23.621586"><ele>1879.7</ele><time>2026-03-08T06:47:08.000Z</time></trkpt>
<trkpt lat="42.082852" lon="23.621579"><ele>1879.7</ele><time>2026-03-08T06:47:09.000Z</time></trkpt>
<trkpt lat="42.082853" lon="23.621571"><ele>1879.7</ele><time>2026-03-08T06:47:10.000Z</time></trkpt>
<trkpt lat="42.082855" lon="23.621564"><ele>1879.7</ele><time>2026-03-08T06:47:11.000Z</time></trkpt>
<trkpt lat="42.082857" lon="23.621557"><ele>1880.3</ele><time>2026-03-08T06:47:12.000Z</time></trkpt>
<trkpt lat="42.082858" lon="23.62155"><ele>1880.3</ele><time>2026-03-08T06:47:13.000Z</time></trkpt>
<trkpt lat="42.08286" lon="23.621543"><ele>1880.3</ele><time>2026-03-08T06:47:14.000Z</time></trkpt>
<trkpt lat="42.082861" lon="23.621537"><ele>1880.3</ele><time>2026-03-08T06:47:15.000Z</time></trkpt>
<trkpt lat="42.082861" lon="23.62153"><ele>1880.3</ele><time>2026-03-08T06:47:16.000Z</time></trkpt>
<trkpt lat="42.082862" lon="23.621524"><ele>1881.4</ele><time>2026-03-08T06:47:17.000Z</time></trkpt>
<trkpt lat="42.082862" lon="23.621516"><ele>1881.4</ele><time>2026-03-08T06:47:18.000Z</time></trkpt>
<trkpt lat="42.082862" lon="23.621509"><ele>1881.4</ele><time>2026-03-08T06:47:19.000Z</time></trkpt>
<trkpt lat="42.082862" lon="23.6215"><ele>1881.4</ele><time>2026-03-08T06:47:20.000Z</time></trkpt>
<trkpt lat="42.082861" lon="23.621491"><ele>1881.4</ele><time>2026-03-08T06:47:21.000Z</time></trkpt>
<trkpt lat="42.08286" lon="23.621482"><ele>1882.2</ele><time>2026-03-08T06:47:22.000Z</time></trkpt>
<trkpt lat="42.082859" lon="23.621473"><ele>1882.2</ele><time>2026-03-08T06:47:23.000Z</time></trkpt>
<trkpt lat="42.082858" lon="23.621466"><ele>1882.2</ele><time>2026-03-08T06:47:24.000Z</time></trkpt>
<trkpt lat="42.082858" lon="23.621458"><ele>1882.2</ele><time>2026-03-08T06:47:25.000Z</time></trkpt>
<trkpt lat="42.08286" lon="23.62145"><ele>1882.2</ele><time>2026-03-08T06:47:26.000Z</time></trkpt>
<trkpt lat="42.082862" lon="23.621444"><ele>1882.6</ele><time>2026-03-08T06:47:27.000Z</time></trkpt>
<trkpt lat="42.082866" lon="23.621438"><ele>1882.6</ele><time>2026-03-08T06:47:28.000Z</time></trkpt>
<trkpt lat="42.08287" lon="23.621434"><ele>1882.6</ele><time>2026-03-08T06:47:29.000Z</time></trkpt>
<trkpt lat="42.082874" lon="23.621433"><ele>1882.6</ele><time>2026-03-08T06:47:30.000Z</time></trkpt>
<trkpt lat="42.082876" lon="23.621432"><ele>1882.6</ele><time>2026-03-08T06:47:31.000Z</time></trkpt>
<trkpt lat="42.082878" lon="23.62143"><ele>1883.3</ele><time>2026-03-08T06:47:32.000Z</time></trkpt>
<trkpt lat="42.082878" lon="23.621428"><ele>1883.3</ele><time>2026-03-08T06:47:33.000Z</time></trkpt>
<trkpt lat="42.082878" lon="23.621424"><ele>1883.3</ele><time>2026-03-08T06:47:34.000Z</time></trkpt>
<trkpt lat="42.082878" lon="23.621418"><ele>1883.3</ele><time>2026-03-08T06:47:35.000Z</time></trkpt>
<trkpt lat="42.082879" lon="23.621412"><ele>1883.3</ele><time>2026-03-08T06:47:36.000Z</time></trkpt>
<trkpt lat="42.08288" lon="23.621405"><ele>1884</ele><time>2026-03-08T06:47:37.000Z</time></trkpt>
<trkpt lat="42.082881" lon="23.621401"><ele>1884</ele><time>2026-03-08T06:47:38.000Z</time></trkpt>
<trkpt lat="42.082883" lon="23.621397"><ele>1884</ele><time>2026-03-08T06:47:39.000Z</time></trkpt>
<trkpt lat="42.082883" lon="23.621396"><ele>1884</ele><time>2026-03-08T06:47:40.000Z</time></trkpt>
<trkpt lat="42.082884" lon="23.621394"><ele>1884</ele><time>2026-03-08T06:47:41.000Z</time></trkpt>
<trkpt lat="42.082884" lon="23.621394"><ele>1884.3</ele><time>2026-03-08T06:47:42.000Z</time></trkpt>
<trkpt lat="42.082884" lon="23.621394"><ele>1884.3</ele><time>2026-03-08T06:47:43.000Z</time></trkpt>
<trkpt lat="42.082884" lon="23.621394"><ele>1884.3</ele><time>2026-03-08T06:47:44.000Z</time></trkpt>
<trkpt lat="42.082884" lon="23.621394"><ele>1884.3</ele><time>2026-03-08T06:47:45.000Z</time></trkpt>
<trkpt lat="42.082884" lon="23.621394"><ele>1884.3</ele><time>2026-03-08T06:47:46.000Z</time></trkpt>
<trkpt lat="42.082884" lon="23.621393"><ele>1884.7</ele><time>2026-03-08T06:47:47.000Z</time></trkpt>
<trkpt lat="42.082884" lon="23.621392"><ele>1884.7</ele><time>2026-03-08T06:47:48.000Z</time></trkpt>
<trkpt lat="42.082884" lon="23.621392"><ele>1884.7</ele><time>2026-03-08T06:47:49.000Z</time></trkpt>
<trkpt lat="42.082885" lon="23.62139"><ele>1884.7</ele><time>2026-03-08T06:47:50.000Z</time></trkpt>
<trkpt lat="42.082887" lon="23.621387"><ele>1884.7</ele><time>2026-03-08T06:47:51.000Z</time></trkpt>
<trkpt lat="42.082889" lon="23.621383"><ele>1885.1</ele><time>2026-03-08T06:47:52.000Z</time></trkpt>
<trkpt lat="42.082892" lon="23.62138"><ele>1885.1</ele><time>2026-03-08T06:47:53.000Z</time></trkpt>
<trkpt lat="42.082894" lon="23.621376"><ele>1885.1</ele><time>2026-03-08T06:47:54.000Z</time></trkpt>
<trkpt lat="42.082895" lon="23.621375"><ele>1885.1</ele><time>2026-03-08T06:47:55.000Z</time></trkpt>
<trkpt lat="42.082895" lon="23.621374"><ele>1885.1</ele><time>2026-03-08T06:47:56.000Z</time></trkpt>
<trkpt lat="42.082893" lon="23.621374"><ele>1885.3</ele><time>2026-03-08T06:47:57.000Z</time></trkpt>
<trkpt lat="42.082893" lon="23.621374"><ele>1885.3</ele><time>2026-03-08T06:47:58.000Z</time></trkpt>
<trkpt lat="42.082892" lon="23.621373"><ele>1885.3</ele><time>2026-03-08T06:47:59.000Z</time></trkpt>
<trkpt lat="42.082893" lon="23.621371"><ele>1885.3</ele><time>2026-03-08T06:48:00.000Z</time></trkpt>
<trkpt lat="42.082893" lon="23.621369"><ele>1885.3</ele><time>2026-03-08T06:48:01.000Z</time></trkpt>
<trkpt lat="42.082893" lon="23.621368"><ele>1885.6</ele><time>2026-03-08T06:48:02.000Z</time></trkpt>
<trkpt lat="42.082894" lon="23.621366"><ele>1885.6</ele><time>2026-03-08T06:48:03.000Z</time></trkpt>
<trkpt lat="42.082894" lon="23.621365"><ele>1885.6</ele><time>2026-03-08T06:48:04.000Z</time></trkpt>
<trkpt lat="42.082894" lon="23.621365"><ele>1885.6</ele><time>2026-03-08T06:48:05.000Z</time></trkpt>
<trkpt lat="42.082894" lon="23.621365"><ele>1885.6</ele><time>2026-03-08T06:48:06.000Z</time></trkpt>
<trkpt lat="42.082894" lon="23.621365"><ele>1885.6</ele><time>2026-03-08T06:48:07.000Z</time></trkpt>
<trkpt lat="42.082894" lon="23.621365"><ele>1885.6</ele><time>2026-03-08T06:48:08.000Z</time></trkpt>
<trkpt lat="42.082894" lon="23.621365"><ele>1885.6</ele><time>2026-03-08T06:48:09.000Z</time></trkpt>
<trkpt lat="42.082894" lon="23.621365"><ele>1885.6</ele><time>2026-03-08T06:48:10.000Z</time></trkpt>
<trkpt lat="42.082894" lon="23.621365"><ele>1885.6</ele><time>2026-03-08T06:48:11.000Z</time></trkpt>
<trkpt lat="42.082894" lon="23.621365"><ele>1885.6</ele><time>2026-03-08T06:48:12.000Z</time></trkpt>
<trkpt lat="42.082894" lon="23.621366"><ele>1885.6</ele><time>2026-03-08T06:48:13.000Z</time></trkpt>
<trkpt lat="42.082892" lon="23.621368"><ele>1885.6</ele><time>2026-03-08T06:48:14.000Z</time></trkpt>
<trkpt lat="42.082891" lon="23.621372"><ele>1885.6</ele><time>2026-03-08T06:48:15.000Z</time></trkpt>
<trkpt lat="42.082889" lon="23.621379"><ele>1885.6</ele><time>2026-03-08T06:48:16.000Z</time></trkpt>
<trkpt lat="42.082887" lon="23.621385"><ele>1885.6</ele><time>2026-03-08T06:48:17.000Z</time></trkpt>
<trkpt lat="42.082886" lon="23.62139"><ele>1885.6</ele><time>2026-03-08T06:48:18.000Z</time></trkpt>
<trkpt lat="42.082885" lon="23.621393"><ele>1885.6</ele><time>2026-03-08T06:48:19.000Z</time></trkpt>
<trkpt lat="42.082886" lon="23.621391"><ele>1885.6</ele><time>2026-03-08T06:48:20.000Z</time></trkpt>
<trkpt lat="42.082886" lon="23.621384"><ele>1885.6</ele><time>2026-03-08T06:48:21.000Z</time></trkpt>
<trkpt lat="42.082887" lon="23.621376"><ele>1885.5</ele><time>2026-03-08T06:48:22.000Z</time></trkpt>
<trkpt lat="42.082888" lon="23.621368"><ele>1885.5</ele><time>2026-03-08T06:48:23.000Z</time></trkpt>
<trkpt lat="42.082888" lon="23.621364"><ele>1885.5</ele><time>2026-03-08T06:48:24.000Z</time></trkpt>
<trkpt lat="42.082887" lon="23.621365"><ele>1885.5</ele><time>2026-03-08T06:48:25.000Z</time></trkpt>
<trkpt lat="42.082886" lon="23.621372"><ele>1885.5</ele><time>2026-03-08T06:48:26.000Z</time></trkpt>
<trkpt lat="42.082884" lon="23.621382"><ele>1885.4</ele><time>2026-03-08T06:48:27.000Z</time></trkpt>
<trkpt lat="42.082883" lon="23.621396"><ele>1885.4</ele><time>2026-03-08T06:48:28.000Z</time></trkpt>
<trkpt lat="42.082882" lon="23.621411"><ele>1885.4</ele><time>2026-03-08T06:48:29.000Z</time></trkpt>
<trkpt lat="42.082881" lon="23.621426"><ele>1885.4</ele><time>2026-03-08T06:48:30.000Z</time></trkpt>
<trkpt lat="42.08288" lon="23.62144"><ele>1885.4</ele><time>2026-03-08T06:48:31.000Z</time></trkpt>
<trkpt lat="42.082877" lon="23.621452"><ele>1885.3</ele><time>2026-03-08T06:48:32.000Z</time></trkpt>
<trkpt lat="42.082873" lon="23.62146"><ele>1885.3</ele><time>2026-03-08T06:48:33.000Z</time></trkpt>
<trkpt lat="42.08287" lon="23.621463"><ele>1885.3</ele><time>2026-03-08T06:48:34.000Z</time></trkpt>
<trkpt lat="42.082868" lon="23.621461"><ele>1885.3</ele><time>2026-03-08T06:48:35.000Z</time></trkpt>
<trkpt lat="42.082866" lon="23.621455"><ele>1885.3</ele><time>2026-03-08T06:48:36.000Z</time></trkpt>
<trkpt lat="42.082866" lon="23.621446"><ele>1884.6</ele><time>2026-03-08T06:48:37.000Z</time></trkpt>
<trkpt lat="42.082866" lon="23.621436"><ele>1884.6</ele><time>2026-03-08T06:48:38.000Z</time></trkpt>
<trkpt lat="42.082866" lon="23.621426"><ele>1884.6</ele><time>2026-03-08T06:48:39.000Z</time></trkpt>
<trkpt lat="42.082867" lon="23.621416"><ele>1884.6</ele><time>2026-03-08T06:48:40.000Z</time></trkpt>
<trkpt lat="42.082866" lon="23.621407"><ele>1884.6</ele><time>2026-03-08T06:48:41.000Z</time></trkpt>
<trkpt lat="42.082865" lon="23.621399"><ele>1884.3</ele><time>2026-03-08T06:48:42.000Z</time></trkpt>
<trkpt lat="42.082865" lon="23.621391"><ele>1884.3</ele><time>2026-03-08T06:48:43.000Z</time></trkpt>
<trkpt lat="42.082863" lon="23.621382"><ele>1884.3</ele><time>2026-03-08T06:48:44.000Z</time></trkpt>
<trkpt lat="42.082861" lon="23.621372"><ele>1884.3</ele><time>2026-03-08T06:48:45.000Z</time></trkpt>
<trkpt lat="42.082859" lon="23.621365"><ele>1884.3</ele><time>2026-03-08T06:48:46.000Z</time></trkpt>
<trkpt lat="42.082856" lon="23.621359"><ele>1883.7</ele><time>2026-03-08T06:48:47.000Z</time></trkpt>
<trkpt lat="42.082854" lon="23.621355"><ele>1883.7</ele><time>2026-03-08T06:48:48.000Z</time></trkpt>
<trkpt lat="42.082854" lon="23.621351"><ele>1883.7</ele><time>2026-03-08T06:48:49.000Z</time></trkpt>
<trkpt lat="42.082853" lon="23.62135"><ele>1883.7</ele><time>2026-03-08T06:48:50.000Z</time></trkpt>
<trkpt lat="42.082853" lon="23.621349"><ele>1883.7</ele><time>2026-03-08T06:48:51.000Z</time></trkpt>
<trkpt lat="42.082853" lon="23.621348"><ele>1884</ele><time>2026-03-08T06:48:52.000Z</time></trkpt>
<trkpt lat="42.082853" lon="23.621348"><ele>1884</ele><time>2026-03-08T06:48:53.000Z</time></trkpt>
<trkpt lat="42.082853" lon="23.621348"><ele>1884</ele><time>2026-03-08T06:48:54.000Z</time></trkpt>
<trkpt lat="42.082853" lon="23.621348"><ele>1884</ele><time>2026-03-08T06:48:55.000Z</time></trkpt>
<trkpt lat="42.082853" lon="23.621348"><ele>1884</ele><time>2026-03-08T06:48:56.000Z</time></trkpt>
<trkpt lat="42.082853" lon="23.621349"><ele>1884.4</ele><time>2026-03-08T06:48:57.000Z</time></trkpt>
<trkpt lat="42.082853" lon="23.621349"><ele>1884.4</ele><time>2026-03-08T06:48:58.000Z</time></trkpt>
<trkpt lat="42.082853" lon="23.621349"><ele>1884.4</ele><time>2026-03-08T06:48:59.000Z</time></trkpt>
<trkpt lat="42.082853" lon="23.621349"><ele>1884.4</ele><time>2026-03-08T06:49:00.000Z</time></trkpt>
<trkpt lat="42.082853" lon="23.621349"><ele>1884.4</ele><time>2026-03-08T06:49:01.000Z</time></trkpt>
<trkpt lat="42.082852" lon="23.621349"><ele>1885.3</ele><time>2026-03-08T06:49:02.000Z</time></trkpt>
<trkpt lat="42.08285" lon="23.62135"><ele>1885.3</ele><time>2026-03-08T06:49:03.000Z</time></trkpt>
<trkpt lat="42.082847" lon="23.621351"><ele>1885.3</ele><time>2026-03-08T06:49:04.000Z</time></trkpt>
<trkpt lat="42.082844" lon="23.621352"><ele>1885.3</ele><time>2026-03-08T06:49:05.000Z</time></trkpt>
<trkpt lat="42.08284" lon="23.621353"><ele>1885.3</ele><time>2026-03-08T06:49:06.000Z</time></trkpt>
<trkpt lat="42.082836" lon="23.621353"><ele>1885.7</ele><time>2026-03-08T06:49:07.000Z</time></trkpt>
<trkpt lat="42.082835" lon="23.621353"><ele>1885.7</ele><time>2026-03-08T06:49:08.000Z</time></trkpt>
<trkpt lat="42.082834" lon="23.621352"><ele>1885.7</ele><time>2026-03-08T06:49:09.000Z</time></trkpt>
<trkpt lat="42.082833" lon="23.621353"><ele>1885.7</ele><time>2026-03-08T06:49:10.000Z</time></trkpt>
<trkpt lat="42.082834" lon="23.621353"><ele>1885.7</ele><time>2026-03-08T06:49:11.000Z</time></trkpt>
<trkpt lat="42.082835" lon="23.621354"><ele>1885.7</ele><time>2026-03-08T06:49:12.000Z</time></trkpt>
<trkpt lat="42.082835" lon="23.621355"><ele>1885.7</ele><time>2026-03-08T06:49:13.000Z</time></trkpt>
<trkpt lat="42.082834" lon="23.621355"><ele>1885.7</ele><time>2026-03-08T06:49:14.000Z</time></trkpt>
<trkpt lat="42.082834" lon="23.621355"><ele>1885.7</ele><time>2026-03-08T06:49:15.000Z</time></trkpt>
<trkpt lat="42.082834" lon="23.621354"><ele>1885.7</ele><time>2026-03-08T06:49:16.000Z</time></trkpt>
<trkpt lat="42.082832" lon="23.621354"><ele>1885.7</ele><time>2026-03-08T06:49:17.000Z</time></trkpt>
<trkpt lat="42.082831" lon="23.621354"><ele>1885.7</ele><time>2026-03-08T06:49:18.000Z</time></trkpt>
<trkpt lat="42.082829" lon="23.621354"><ele>1885.7</ele><time>2026-03-08T06:49:19.000Z</time></trkpt>
<trkpt lat="42.082827" lon="23.621355"><ele>1885.7</ele><time>2026-03-08T06:49:20.000Z</time></trkpt>
<trkpt lat="42.082824" lon="23.621354"><ele>1885.7</ele><time>2026-03-08T06:49:21.000Z</time></trkpt>
<trkpt lat="42.082823" lon="23.621352"><ele>1885.7</ele><time>2026-03-08T06:49:22.000Z</time></trkpt>
<trkpt lat="42.082823" lon="23.62135"><ele>1885.7</ele><time>2026-03-08T06:49:23.000Z</time></trkpt>
<trkpt lat="42.082824" lon="23.621345"><ele>1885.7</ele><time>2026-03-08T06:49:24.000Z</time></trkpt>
<trkpt lat="42.082828" lon="23.621339"><ele>1885.7</ele><time>2026-03-08T06:49:25.000Z</time></trkpt>
<trkpt lat="42.082833" lon="23.621336"><ele>1885.7</ele><time>2026-03-08T06:49:26.000Z</time></trkpt>
<trkpt lat="42.08284" lon="23.621335"><ele>1885.7</ele><time>2026-03-08T06:49:27.000Z</time></trkpt>
<trkpt lat="42.082846" lon="23.621336"><ele>1885.7</ele><time>2026-03-08T06:49:28.000Z</time></trkpt>
<trkpt lat="42.08285" lon="23.621339"><ele>1885.7</ele><time>2026-03-08T06:49:29.000Z</time></trkpt>
<trkpt lat="42.082853" lon="23.621341"><ele>1885.7</ele><time>2026-03-08T06:49:30.000Z</time></trkpt>
<trkpt lat="42.082857" lon="23.621338"><ele>1885.7</ele><time>2026-03-08T06:49:31.000Z</time></trkpt>
<trkpt lat="42.08286" lon="23.62133"><ele>1885.7</ele><time>2026-03-08T06:49:32.000Z</time></trkpt>
<trkpt lat="42.082863" lon="23.621321"><ele>1885.7</ele><time>2026-03-08T06:49:33.000Z</time></trkpt>
<trkpt lat="42.082867" lon="23.62131"><ele>1885.7</ele><time>2026-03-08T06:49:34.000Z</time></trkpt>
<trkpt lat="42.082871" lon="23.6213"><ele>1885.7</ele><time>2026-03-08T06:49:35.000Z</time></trkpt>
<trkpt lat="42.082873" lon="23.621293"><ele>1885.7</ele><time>2026-03-08T06:49:36.000Z</time></trkpt>
<trkpt lat="42.082875" lon="23.621288"><ele>1885.7</ele><time>2026-03-08T06:49:37.000Z</time></trkpt>
<trkpt lat="42.082877" lon="23.621285"><ele>1885.7</ele><time>2026-03-08T06:49:38.000Z</time></trkpt>
<trkpt lat="42.082877" lon="23.621284"><ele>1885.7</ele><time>2026-03-08T06:49:39.000Z</time></trkpt>
<trkpt lat="42.082878" lon="23.621283"><ele>1885.7</ele><time>2026-03-08T06:49:40.000Z</time></trkpt>
<trkpt lat="42.082878" lon="23.621283"><ele>1885.7</ele><time>2026-03-08T06:49:41.000Z</time></trkpt>
<trkpt lat="42.082878" lon="23.621282"><ele>1885.7</ele><time>2026-03-08T06:49:42.000Z</time></trkpt>
<trkpt lat="42.082878" lon="23.621282"><ele>1885.7</ele><time>2026-03-08T06:49:43.000Z</time></trkpt>
<trkpt lat="42.082878" lon="23.621282"><ele>1885.7</ele><time>2026-03-08T06:49:44.000Z</time></trkpt>
<trkpt lat="42.082879" lon="23.621282"><ele>1885.7</ele><time>2026-03-08T06:49:45.000Z</time></trkpt>
<trkpt lat="42.082879" lon="23.621282"><ele>1885.7</ele><time>2026-03-08T06:49:46.000Z</time></trkpt>
<trkpt lat="42.082879" lon="23.621283"><ele>1886</ele><time>2026-03-08T06:49:47.000Z</time></trkpt>
<trkpt lat="42.082879" lon="23.621283"><ele>1886</ele><time>2026-03-08T06:49:48.000Z</time></trkpt>
<trkpt lat="42.082879" lon="23.621283"><ele>1886</ele><time>2026-03-08T06:49:49.000Z</time></trkpt>
<trkpt lat="42.082879" lon="23.621284"><ele>1886</ele><time>2026-03-08T06:49:50.000Z</time></trkpt>
<trkpt lat="42.082878" lon="23.621284"><ele>1886</ele><time>2026-03-08T06:49:51.000Z</time></trkpt>
<trkpt lat="42.082878" lon="23.621284"><ele>1886.3</ele><time>2026-03-08T06:49:52.000Z</time></trkpt>
<trkpt lat="42.082878" lon="23.621284"><ele>1886.3</ele><time>2026-03-08T06:49:53.000Z</time></trkpt>
<trkpt lat="42.082878" lon="23.621285"><ele>1886.3</ele><time>2026-03-08T06:49:54.000Z</time></trkpt>
<trkpt lat="42.082878" lon="23.621285"><ele>1886.3</ele><time>2026-03-08T06:49:55.000Z</time></trkpt>
<trkpt lat="42.082878" lon="23.621285"><ele>1886.3</ele><time>2026-03-08T06:49:56.000Z</time></trkpt>
<trkpt lat="42.082878" lon="23.621286"><ele>1886.6</ele><time>2026-03-08T06:49:57.000Z</time></trkpt>
<trkpt lat="42.082879" lon="23.621287"><ele>1886.6</ele><time>2026-03-08T06:49:58.000Z</time></trkpt>
<trkpt lat="42.082879" lon="23.621288"><ele>1886.6</ele><time>2026-03-08T06:49:59.000Z</time></trkpt>
<trkpt lat="42.082879" lon="23.621288"><ele>1886.6</ele><time>2026-03-08T06:50:00.000Z</time></trkpt>
<trkpt lat="42.082879" lon="23.621289"><ele>1886.6</ele><time>2026-03-08T06:50:01.000Z</time></trkpt>
<trkpt lat="42.082879" lon="23.621288"><ele>1886.7</ele><time>2026-03-08T06:50:02.000Z</time></trkpt>
<trkpt lat="42.082879" lon="23.621288"><ele>1886.7</ele><time>2026-03-08T06:50:03.000Z</time></trkpt>
<trkpt lat="42.082878" lon="23.621288"><ele>1886.7</ele><time>2026-03-08T06:50:04.000Z</time></trkpt>
<trkpt lat="42.082878" lon="23.621288"><ele>1886.7</ele><time>2026-03-08T06:50:05.000Z</time></trkpt>
<trkpt lat="42.082878" lon="23.621287"><ele>1886.7</ele><time>2026-03-08T06:50:06.000Z</time></trkpt>
<trkpt lat="42.082877" lon="23.621285"><ele>1886.7</ele><time>2026-03-08T06:50:07.000Z</time></trkpt>
<trkpt lat="42.082877" lon="23.621281"><ele>1886.7</ele><time>2026-03-08T06:50:08.000Z</time></trkpt>
<trkpt lat="42.082876" lon="23.621275"><ele>1886.7</ele><time>2026-03-08T06:50:09.000Z</time></trkpt>
<trkpt lat="42.082876" lon="23.621268"><ele>1886.7</ele><time>2026-03-08T06:50:10.000Z</time></trkpt>
<trkpt lat="42.082876" lon="23.621258"><ele>1886.7</ele><time>2026-03-08T06:50:11.000Z</time></trkpt>
<trkpt lat="42.082877" lon="23.621249"><ele>1886.7</ele><time>2026-03-08T06:50:12.000Z</time></trkpt>
<trkpt lat="42.082876" lon="23.621241"><ele>1886.7</ele><time>2026-03-08T06:50:13.000Z</time></trkpt>
<trkpt lat="42.082876" lon="23.621232"><ele>1886.7</ele><time>2026-03-08T06:50:14.000Z</time></trkpt>
<trkpt lat="42.082876" lon="23.621225"><ele>1886.7</ele><time>2026-03-08T06:50:15.000Z</time></trkpt>
<trkpt lat="42.082875" lon="23.621217"><ele>1886.7</ele><time>2026-03-08T06:50:16.000Z</time></trkpt>
<trkpt lat="42.082874" lon="23.621209"><ele>1886.8</ele><time>2026-03-08T06:50:17.000Z</time></trkpt>
<trkpt lat="42.082873" lon="23.621201"><ele>1886.8</ele><time>2026-03-08T06:50:18.000Z</time></trkpt>
<trkpt lat="42.082873" lon="23.621192"><ele>1886.8</ele><time>2026-03-08T06:50:19.000Z</time></trkpt>
<trkpt lat="42.082872" lon="23.621183"><ele>1886.8</ele><time>2026-03-08T06:50:20.000Z</time></trkpt>
<trkpt lat="42.082873" lon="23.621173"><ele>1886.8</ele><time>2026-03-08T06:50:21.000Z</time></trkpt>
<trkpt lat="42.082872" lon="23.621164"><ele>1887.4</ele><time>2026-03-08T06:50:22.000Z</time></trkpt>
<trkpt lat="42.082872" lon="23.621155"><ele>1887.4</ele><time>2026-03-08T06:50:23.000Z</time></trkpt>
<trkpt lat="42.082874" lon="23.621144"><ele>1887.4</ele><time>2026-03-08T06:50:24.000Z</time></trkpt>
<trkpt lat="42.082875" lon="23.621134"><ele>1887.4</ele><time>2026-03-08T06:50:25.000Z</time></trkpt>
<trkpt lat="42.082876" lon="23.621126"><ele>1887.4</ele><time>2026-03-08T06:50:26.000Z</time></trkpt>
<trkpt lat="42.082878" lon="23.621118"><ele>1887.8</ele><time>2026-03-08T06:50:27.000Z</time></trkpt>
<trkpt lat="42.082879" lon="23.621109"><ele>1887.8</ele><time>2026-03-08T06:50:28.000Z</time></trkpt>
<trkpt lat="42.08288" lon="23.621102"><ele>1887.8</ele><time>2026-03-08T06:50:29.000Z</time></trkpt>
<trkpt lat="42.082881" lon="23.621094"><ele>1887.8</ele><time>2026-03-08T06:50:30.000Z</time></trkpt>
<trkpt lat="42.082882" lon="23.621087"><ele>1887.8</ele><time>2026-03-08T06:50:31.000Z</time></trkpt>
<trkpt lat="42.082882" lon="23.621079"><ele>1889.1</ele><time>2026-03-08T06:50:32.000Z</time></trkpt>
<trkpt lat="42.082883" lon="23.621073"><ele>1889.1</ele><time>2026-03-08T06:50:33.000Z</time></trkpt>
<trkpt lat="42.082883" lon="23.621067"><ele>1889.1</ele><time>2026-03-08T06:50:34.000Z</time></trkpt>
<trkpt lat="42.082883" lon="23.621062"><ele>1889.1</ele><time>2026-03-08T06:50:35.000Z</time></trkpt>
<trkpt lat="42.082884" lon="23.621056"><ele>1889.1</ele><time>2026-03-08T06:50:36.000Z</time></trkpt>
<trkpt lat="42.082885" lon="23.621051"><ele>1890.5</ele><time>2026-03-08T06:50:37.000Z</time></trkpt>
<trkpt lat="42.082886" lon="23.621045"><ele>1890.5</ele><time>2026-03-08T06:50:38.000Z</time></trkpt>
<trkpt lat="42.082886" lon="23.621038"><ele>1890.5</ele><time>2026-03-08T06:50:39.000Z</time></trkpt>
<trkpt lat="42.082887" lon="23.621032"><ele>1890.5</ele><time>2026-03-08T06:50:40.000Z</time></trkpt>
<trkpt lat="42.082887" lon="23.621024"><ele>1890.5</ele><time>2026-03-08T06:50:41.000Z</time></trkpt>
<trkpt lat="42.082887" lon="23.621017"><ele>1891.2</ele><time>2026-03-08T06:50:42.000Z</time></trkpt>
<trkpt lat="42.082887" lon="23.62101"><ele>1891.2</ele><time>2026-03-08T06:50:43.000Z</time></trkpt>
<trkpt lat="42.082889" lon="23.621001"><ele>1891.2</ele><time>2026-03-08T06:50:44.000Z</time></trkpt>
<trkpt lat="42.082889" lon="23.620994"><ele>1891.2</ele><time>2026-03-08T06:50:45.000Z</time></trkpt>
<trkpt lat="42.082891" lon="23.620987"><ele>1891.2</ele><time>2026-03-08T06:50:46.000Z</time></trkpt>
<trkpt lat="42.082891" lon="23.62098"><ele>1892.5</ele><time>2026-03-08T06:50:47.000Z</time></trkpt>
<trkpt lat="42.082892" lon="23.620973"><ele>1892.5</ele><time>2026-03-08T06:50:48.000Z</time></trkpt>
<trkpt lat="42.082892" lon="23.620967"><ele>1892.5</ele><time>2026-03-08T06:50:49.000Z</time></trkpt>
<trkpt lat="42.082891" lon="23.62096"><ele>1892.5</ele><time>2026-03-08T06:50:50.000Z</time></trkpt>
<trkpt lat="42.082891" lon="23.620953"><ele>1892.5</ele><time>2026-03-08T06:50:51.000Z</time></trkpt>
<trkpt lat="42.08289" lon="23.620945"><ele>1893.7</ele><time>2026-03-08T06:50:52.000Z</time></trkpt>
<trkpt lat="42.082889" lon="23.620937"><ele>1893.7</ele><time>2026-03-08T06:50:53.000Z</time></trkpt>
<trkpt lat="42.082888" lon="23.620928"><ele>1893.7</ele><time>2026-03-08T06:50:54.000Z</time></trkpt>
<trkpt lat="42.082887" lon="23.62092"><ele>1893.7</ele><time>2026-03-08T06:50:55.000Z</time></trkpt>
<trkpt lat="42.082886" lon="23.62091"><ele>1893.7</ele><time>2026-03-08T06:50:56.000Z</time></trkpt>
<trkpt lat="42.082885" lon="23.620901"><ele>1894.1</ele><time>2026-03-08T06:50:57.000Z</time></trkpt>
<trkpt lat="42.082884" lon="23.620892"><ele>1894.1</ele><time>2026-03-08T06:50:58.000Z</time></trkpt>
<trkpt lat="42.082882" lon="23.620883"><ele>1894.1</ele><time>2026-03-08T06:50:59.000Z</time></trkpt>
<trkpt lat="42.08288" lon="23.620874"><ele>1894.1</ele><time>2026-03-08T06:51:00.000Z</time></trkpt>
<trkpt lat="42.082877" lon="23.620866"><ele>1894.1</ele><time>2026-03-08T06:51:01.000Z</time></trkpt>
<trkpt lat="42.082874" lon="23.620856"><ele>1895</ele><time>2026-03-08T06:51:02.000Z</time></trkpt>
<trkpt lat="42.082871" lon="23.620847"><ele>1895</ele><time>2026-03-08T06:51:03.000Z</time></trkpt>
<trkpt lat="42.082868" lon="23.620839"><ele>1895</ele><time>2026-03-08T06:51:04.000Z</time></trkpt>
<trkpt lat="42.082864" lon="23.62083"><ele>1895</ele><time>2026-03-08T06:51:05.000Z</time></trkpt>
<trkpt lat="42.082861" lon="23.62082"><ele>1895</ele><time>2026-03-08T06:51:06.000Z</time></trkpt>
<trkpt lat="42.082859" lon="23.62081"><ele>1896.1</ele><time>2026-03-08T06:51:07.000Z</time></trkpt>
<trkpt lat="42.082856" lon="23.6208"><ele>1896.1</ele><time>2026-03-08T06:51:08.000Z</time></trkpt>
<trkpt lat="42.082854" lon="23.620789"><ele>1896.1</ele><time>2026-03-08T06:51:09.000Z</time></trkpt>
<trkpt lat="42.082852" lon="23.620778"><ele>1896.1</ele><time>2026-03-08T06:51:10.000Z</time></trkpt>
<trkpt lat="42.08285" lon="23.620768"><ele>1896.1</ele><time>2026-03-08T06:51:11.000Z</time></trkpt>
<trkpt lat="42.082849" lon="23.620759"><ele>1896.6</ele><time>2026-03-08T06:51:12.000Z</time></trkpt>
<trkpt lat="42.082847" lon="23.62075"><ele>1896.6</ele><time>2026-03-08T06:51:13.000Z</time></trkpt>
<trkpt lat="42.082845" lon="23.620741"><ele>1896.6</ele><time>2026-03-08T06:51:14.000Z</time></trkpt>
<trkpt lat="42.082843" lon="23.620735"><ele>1896.6</ele><time>2026-03-08T06:51:15.000Z</time></trkpt>
<trkpt lat="42.08284" lon="23.620727"><ele>1896.6</ele><time>2026-03-08T06:51:16.000Z</time></trkpt>
<trkpt lat="42.082838" lon="23.620719"><ele>1897.8</ele><time>2026-03-08T06:51:17.000Z</time></trkpt>
<trkpt lat="42.082835" lon="23.620711"><ele>1897.8</ele><time>2026-03-08T06:51:18.000Z</time></trkpt>
<trkpt lat="42.082832" lon="23.620704"><ele>1897.8</ele><time>2026-03-08T06:51:19.000Z</time></trkpt>
<trkpt lat="42.08283" lon="23.620696"><ele>1897.8</ele><time>2026-03-08T06:51:20.000Z</time></trkpt>
<trkpt lat="42.082828" lon="23.620687"><ele>1897.8</ele><time>2026-03-08T06:51:21.000Z</time></trkpt>
<trkpt lat="42.082826" lon="23.620679"><ele>1898.8</ele><time>2026-03-08T06:51:22.000Z</time></trkpt>
<trkpt lat="42.082824" lon="23.620669"><ele>1898.8</ele><time>2026-03-08T06:51:23.000Z</time></trkpt>
<trkpt lat="42.082821" lon="23.620659"><ele>1898.8</ele><time>2026-03-08T06:51:24.000Z</time></trkpt>
<trkpt lat="42.082819" lon="23.620649"><ele>1898.8</ele><time>2026-03-08T06:51:25.000Z</time></trkpt>
<trkpt lat="42.082816" lon="23.620639"><ele>1898.8</ele><time>2026-03-08T06:51:26.000Z</time></trkpt>
<trkpt lat="42.082814" lon="23.620628"><ele>1899.3</ele><time>2026-03-08T06:51:27.000Z</time></trkpt>
<trkpt lat="42.082814" lon="23.620617"><ele>1899.3</ele><time>2026-03-08T06:51:28.000Z</time></trkpt>
<trkpt lat="42.082814" lon="23.620608"><ele>1899.3</ele><time>2026-03-08T06:51:29.000Z</time></trkpt>
<trkpt lat="42.082816" lon="23.620599"><ele>1899.3</ele><time>2026-03-08T06:51:30.000Z</time></trkpt>
<trkpt lat="42.082819" lon="23.620591"><ele>1899.3</ele><time>2026-03-08T06:51:31.000Z</time></trkpt>
<trkpt lat="42.082824" lon="23.620583"><ele>1900.4</ele><time>2026-03-08T06:51:32.000Z</time></trkpt>
<trkpt lat="42.08283" lon="23.620578"><ele>1900.4</ele><time>2026-03-08T06:51:33.000Z</time></trkpt>
<trkpt lat="42.082837" lon="23.620572"><ele>1900.4</ele><time>2026-03-08T06:51:34.000Z</time></trkpt>
<trkpt lat="42.082843" lon="23.620569"><ele>1900.4</ele><time>2026-03-08T06:51:35.000Z</time></trkpt>
<trkpt lat="42.082848" lon="23.620567"><ele>1900.4</ele><time>2026-03-08T06:51:36.000Z</time></trkpt>
<trkpt lat="42.082851" lon="23.620566"><ele>1901.4</ele><time>2026-03-08T06:51:37.000Z</time></trkpt>
<trkpt lat="42.082853" lon="23.620566"><ele>1901.4</ele><time>2026-03-08T06:51:38.000Z</time></trkpt>
<trkpt lat="42.082854" lon="23.620566"><ele>1901.4</ele><time>2026-03-08T06:51:39.000Z</time></trkpt>
<trkpt lat="42.082854" lon="23.620566"><ele>1901.4</ele><time>2026-03-08T06:51:40.000Z</time></trkpt>
<trkpt lat="42.082855" lon="23.620566"><ele>1901.4</ele><time>2026-03-08T06:51:41.000Z</time></trkpt>
<trkpt lat="42.082855" lon="23.620565"><ele>1901.8</ele><time>2026-03-08T06:51:42.000Z</time></trkpt>
<trkpt lat="42.082855" lon="23.620565"><ele>1901.8</ele><time>2026-03-08T06:51:43.000Z</time></trkpt>
<trkpt lat="42.082855" lon="23.620565"><ele>1901.8</ele><time>2026-03-08T06:51:44.000Z</time></trkpt>
<trkpt lat="42.082855" lon="23.620564"><ele>1901.8</ele><time>2026-03-08T06:51:45.000Z</time></trkpt>
<trkpt lat="42.082857" lon="23.620561"><ele>1901.8</ele><time>2026-03-08T06:51:46.000Z</time></trkpt>
<trkpt lat="42.08286" lon="23.620559"><ele>1902.3</ele><time>2026-03-08T06:51:47.000Z</time></trkpt>
<trkpt lat="42.082865" lon="23.620556"><ele>1902.3</ele><time>2026-03-08T06:51:48.000Z</time></trkpt>
<trkpt lat="42.082872" lon="23.620553"><ele>1902.3</ele><time>2026-03-08T06:51:49.000Z</time></trkpt>
<trkpt lat="42.082881" lon="23.620549"><ele>1902.3</ele><time>2026-03-08T06:51:50.000Z</time></trkpt>
<trkpt lat="42.08289" lon="23.620547"><ele>1902.3</ele><time>2026-03-08T06:51:51.000Z</time></trkpt>
<trkpt lat="42.082899" lon="23.620544"><ele>1902.5</ele><time>2026-03-08T06:51:52.000Z</time></trkpt>
<trkpt lat="42.082909" lon="23.62054"><ele>1902.5</ele><time>2026-03-08T06:51:53.000Z</time></trkpt>
<trkpt lat="42.082918" lon="23.620536"><ele>1902.5</ele><time>2026-03-08T06:51:54.000Z</time></trkpt>
<trkpt lat="42.082926" lon="23.620532"><ele>1902.5</ele><time>2026-03-08T06:51:55.000Z</time></trkpt>
<trkpt lat="42.082935" lon="23.620529"><ele>1902.5</ele><time>2026-03-08T06:51:56.000Z</time></trkpt>
<trkpt lat="42.082944" lon="23.620526"><ele>1902.6</ele><time>2026-03-08T06:51:57.000Z</time></trkpt>
<trkpt lat="42.082953" lon="23.620522"><ele>1902.6</ele><time>2026-03-08T06:51:58.000Z</time></trkpt>
<trkpt lat="42.082961" lon="23.620519"><ele>1902.6</ele><time>2026-03-08T06:51:59.000Z</time></trkpt>
<trkpt lat="42.082969" lon="23.620515"><ele>1902.6</ele><time>2026-03-08T06:52:00.000Z</time></trkpt>
<trkpt lat="42.082976" lon="23.620513"><ele>1902.6</ele><time>2026-03-08T06:52:01.000Z</time></trkpt>
<trkpt lat="42.082982" lon="23.620508"><ele>1902.8</ele><time>2026-03-08T06:52:02.000Z</time></trkpt>
<trkpt lat="42.082989" lon="23.620505"><ele>1902.8</ele><time>2026-03-08T06:52:03.000Z</time></trkpt>
<trkpt lat="42.082997" lon="23.620501"><ele>1902.8</ele><time>2026-03-08T06:52:04.000Z</time></trkpt>
<trkpt lat="42.083005" lon="23.620498"><ele>1902.8</ele><time>2026-03-08T06:52:05.000Z</time></trkpt>
<trkpt lat="42.083015" lon="23.620494"><ele>1902.8</ele><time>2026-03-08T06:52:06.000Z</time></trkpt>
<trkpt lat="42.083025" lon="23.62049"><ele>1903.2</ele><time>2026-03-08T06:52:07.000Z</time></trkpt>
<trkpt lat="42.083036" lon="23.620485"><ele>1903.2</ele><time>2026-03-08T06:52:08.000Z</time></trkpt>
<trkpt lat="42.083046" lon="23.62048"><ele>1903.2</ele><time>2026-03-08T06:52:09.000Z</time></trkpt>
<trkpt lat="42.083057" lon="23.620474"><ele>1903.2</ele><time>2026-03-08T06:52:10.000Z</time></trkpt>
<trkpt lat="42.083066" lon="23.620466"><ele>1903.2</ele><time>2026-03-08T06:52:11.000Z</time></trkpt>
<trkpt lat="42.083074" lon="23.62046"><ele>1903.5</ele><time>2026-03-08T06:52:12.000Z</time></trkpt>
<trkpt lat="42.083081" lon="23.620454"><ele>1903.5</ele><time>2026-03-08T06:52:13.000Z</time></trkpt>
<trkpt lat="42.083088" lon="23.62045"><ele>1903.5</ele><time>2026-03-08T06:52:14.000Z</time></trkpt>
<trkpt lat="42.083095" lon="23.620445"><ele>1903.5</ele><time>2026-03-08T06:52:15.000Z</time></trkpt>
<trkpt lat="42.083103" lon="23.620442"><ele>1903.5</ele><time>2026-03-08T06:52:16.000Z</time></trkpt>
<trkpt lat="42.083113" lon="23.620439"><ele>1904.1</ele><time>2026-03-08T06:52:17.000Z</time></trkpt>
<trkpt lat="42.083122" lon="23.620435"><ele>1904.1</ele><time>2026-03-08T06:52:18.000Z</time></trkpt>
<trkpt lat="42.083132" lon="23.620431"><ele>1904.1</ele><time>2026-03-08T06:52:19.000Z</time></trkpt>
<trkpt lat="42.08314" lon="23.620425"><ele>1904.1</ele><time>2026-03-08T06:52:20.000Z</time></trkpt>
<trkpt lat="42.083148" lon="23.620419"><ele>1904.1</ele><time>2026-03-08T06:52:21.000Z</time></trkpt>
<trkpt lat="42.083156" lon="23.620412"><ele>1904.7</ele><time>2026-03-08T06:52:22.000Z</time></trkpt>
<trkpt lat="42.083165" lon="23.620404"><ele>1904.7</ele><time>2026-03-08T06:52:23.000Z</time></trkpt>
<trkpt lat="42.083172" lon="23.620397"><ele>1904.7</ele><time>2026-03-08T06:52:24.000Z</time></trkpt>
<trkpt lat="42.083181" lon="23.620391"><ele>1904.7</ele><time>2026-03-08T06:52:25.000Z</time></trkpt>
<trkpt lat="42.08319" lon="23.620386"><ele>1904.7</ele><time>2026-03-08T06:52:26.000Z</time></trkpt>
<trkpt lat="42.083198" lon="23.620383"><ele>1905</ele><time>2026-03-08T06:52:27.000Z</time></trkpt>
<trkpt lat="42.083206" lon="23.62038"><ele>1905</ele><time>2026-03-08T06:52:28.000Z</time></trkpt>
<trkpt lat="42.083215" lon="23.620378"><ele>1905</ele><time>2026-03-08T06:52:29.000Z</time></trkpt>
<trkpt lat="42.083224" lon="23.620376"><ele>1905</ele><time>2026-03-08T06:52:30.000Z</time></trkpt>
<trkpt lat="42.083234" lon="23.620374"><ele>1905</ele><time>2026-03-08T06:52:31.000Z</time></trkpt>
<trkpt lat="42.083243" lon="23.620373"><ele>1905.7</ele><time>2026-03-08T06:52:32.000Z</time></trkpt>
<trkpt lat="42.083253" lon="23.620372"><ele>1905.7</ele><time>2026-03-08T06:52:33.000Z</time></trkpt>
<trkpt lat="42.083264" lon="23.62037"><ele>1905.7</ele><time>2026-03-08T06:52:34.000Z</time></trkpt>
<trkpt lat="42.083275" lon="23.620369"><ele>1905.7</ele><time>2026-03-08T06:52:35.000Z</time></trkpt>
<trkpt lat="42.083286" lon="23.620367"><ele>1905.7</ele><time>2026-03-08T06:52:36.000Z</time></trkpt>
<trkpt lat="42.083297" lon="23.620366"><ele>1906.4</ele><time>2026-03-08T06:52:37.000Z</time></trkpt>
<trkpt lat="42.083308" lon="23.620365"><ele>1906.4</ele><time>2026-03-08T06:52:38.000Z</time></trkpt>
<trkpt lat="42.08332" lon="23.620366"><ele>1906.4</ele><time>2026-03-08T06:52:39.000Z</time></trkpt>
<trkpt lat="42.083332" lon="23.620367"><ele>1906.4</ele><time>2026-03-08T06:52:40.000Z</time></trkpt>
<trkpt lat="42.083344" lon="23.620368"><ele>1906.4</ele><time>2026-03-08T06:52:41.000Z</time></trkpt>
<trkpt lat="42.083357" lon="23.620369"><ele>1906.7</ele><time>2026-03-08T06:52:42.000Z</time></trkpt>
<trkpt lat="42.083368" lon="23.62037"><ele>1906.7</ele><time>2026-03-08T06:52:43.000Z</time></trkpt>
<trkpt lat="42.08338" lon="23.62037"><ele>1906.7</ele><time>2026-03-08T06:52:44.000Z</time></trkpt>
<trkpt lat="42.08339" lon="23.620369"><ele>1906.7</ele><time>2026-03-08T06:52:45.000Z</time></trkpt>
<trkpt lat="42.0834" lon="23.620368"><ele>1906.7</ele><time>2026-03-08T06:52:46.000Z</time></trkpt>
<trkpt lat="42.08341" lon="23.620367"><ele>1907.4</ele><time>2026-03-08T06:52:47.000Z</time></trkpt>
<trkpt lat="42.08342" lon="23.620366"><ele>1907.4</ele><time>2026-03-08T06:52:48.000Z</time></trkpt>
<trkpt lat="42.08343" lon="23.620367"><ele>1907.4</ele><time>2026-03-08T06:52:49.000Z</time></trkpt>
<trkpt lat="42.083439" lon="23.620369"><ele>1907.4</ele><time>2026-03-08T06:52:50.000Z</time></trkpt>
<trkpt lat="42.083447" lon="23.620371"><ele>1907.4</ele><time>2026-03-08T06:52:51.000Z</time></trkpt>
<trkpt lat="42.083456" lon="23.620375"><ele>1908.2</ele><time>2026-03-08T06:52:52.000Z</time></trkpt>
<trkpt lat="42.083465" lon="23.620377"><ele>1908.2</ele><time>2026-03-08T06:52:53.000Z</time></trkpt>
<trkpt lat="42.083473" lon="23.620379"><ele>1908.2</ele><time>2026-03-08T06:52:54.000Z</time></trkpt>
<trkpt lat="42.083482" lon="23.620381"><ele>1908.2</ele><time>2026-03-08T06:52:55.000Z</time></trkpt>
<trkpt lat="42.083491" lon="23.620381"><ele>1908.2</ele><time>2026-03-08T06:52:56.000Z</time></trkpt>
<trkpt lat="42.083501" lon="23.620382"><ele>1908.5</ele><time>2026-03-08T06:52:57.000Z</time></trkpt>
<trkpt lat="42.083511" lon="23.620383"><ele>1908.5</ele><time>2026-03-08T06:52:58.000Z</time></trkpt>
<trkpt lat="42.083522" lon="23.620383"><ele>1908.5</ele><time>2026-03-08T06:52:59.000Z</time></trkpt>
<trkpt lat="42.083532" lon="23.620383"><ele>1908.5</ele><time>2026-03-08T06:53:00.000Z</time></trkpt>
<trkpt lat="42.083542" lon="23.620382"><ele>1908.5</ele><time>2026-03-08T06:53:01.000Z</time></trkpt>
<trkpt lat="42.08355" lon="23.620382"><ele>1909.2</ele><time>2026-03-08T06:53:02.000Z</time></trkpt>
<trkpt lat="42.083559" lon="23.620384"><ele>1909.2</ele><time>2026-03-08T06:53:03.000Z</time></trkpt>
<trkpt lat="42.083568" lon="23.620386"><ele>1909.2</ele><time>2026-03-08T06:53:04.000Z</time></trkpt>
<trkpt lat="42.083578" lon="23.620389"><ele>1909.2</ele><time>2026-03-08T06:53:05.000Z</time></trkpt>
<trkpt lat="42.083588" lon="23.620392"><ele>1909.2</ele><time>2026-03-08T06:53:06.000Z</time></trkpt>
<trkpt lat="42.083598" lon="23.620396"><ele>1909.7</ele><time>2026-03-08T06:53:07.000Z</time></trkpt>
<trkpt lat="42.08361" lon="23.620398"><ele>1909.7</ele><time>2026-03-08T06:53:08.000Z</time></trkpt>
<trkpt lat="42.083622" lon="23.620399"><ele>1909.7</ele><time>2026-03-08T06:53:09.000Z</time></trkpt>
<trkpt lat="42.083632" lon="23.620401"><ele>1909.7</ele><time>2026-03-08T06:53:10.000Z</time></trkpt>
<trkpt lat="42.083643" lon="23.620403"><ele>1909.7</ele><time>2026-03-08T06:53:11.000Z</time></trkpt>
<trkpt lat="42.083653" lon="23.620404"><ele>1909.9</ele><time>2026-03-08T06:53:12.000Z</time></trkpt>
<trkpt lat="42.083664" lon="23.620406"><ele>1909.9</ele><time>2026-03-08T06:53:13.000Z</time></trkpt>
<trkpt lat="42.083674" lon="23.620409"><ele>1909.9</ele><time>2026-03-08T06:53:14.000Z</time></trkpt>
<trkpt lat="42.083684" lon="23.620413"><ele>1909.9</ele><time>2026-03-08T06:53:15.000Z</time></trkpt>
<trkpt lat="42.083693" lon="23.620418"><ele>1909.9</ele><time>2026-03-08T06:53:16.000Z</time></trkpt>
<trkpt lat="42.083702" lon="23.620425"><ele>1910.4</ele><time>2026-03-08T06:53:17.000Z</time></trkpt>
<trkpt lat="42.08371" lon="23.620432"><ele>1910.4</ele><time>2026-03-08T06:53:18.000Z</time></trkpt>
<trkpt lat="42.083718" lon="23.620441"><ele>1910.4</ele><time>2026-03-08T06:53:19.000Z</time></trkpt>
<trkpt lat="42.083726" lon="23.620449"><ele>1910.4</ele><time>2026-03-08T06:53:20.000Z</time></trkpt>
<trkpt lat="42.083735" lon="23.620457"><ele>1910.4</ele><time>2026-03-08T06:53:21.000Z</time></trkpt>
<trkpt lat="42.083742" lon="23.620465"><ele>1911</ele><time>2026-03-08T06:53:22.000Z</time></trkpt>
<trkpt lat="42.08375" lon="23.620471"><ele>1911</ele><time>2026-03-08T06:53:23.000Z</time></trkpt>
<trkpt lat="42.083758" lon="23.620477"><ele>1911</ele><time>2026-03-08T06:53:24.000Z</time></trkpt>
<trkpt lat="42.083765" lon="23.620485"><ele>1911</ele><time>2026-03-08T06:53:25.000Z</time></trkpt>
<trkpt lat="42.083773" lon="23.620493"><ele>1911</ele><time>2026-03-08T06:53:26.000Z</time></trkpt>
<trkpt lat="42.083782" lon="23.620502"><ele>1911.3</ele><time>2026-03-08T06:53:27.000Z</time></trkpt>
<trkpt lat="42.083791" lon="23.620512"><ele>1911.3</ele><time>2026-03-08T06:53:28.000Z</time></trkpt>
<trkpt lat="42.0838" lon="23.620522"><ele>1911.3</ele><time>2026-03-08T06:53:29.000Z</time></trkpt>
<trkpt lat="42.083808" lon="23.620532"><ele>1911.3</ele><time>2026-03-08T06:53:30.000Z</time></trkpt>
<trkpt lat="42.083816" lon="23.62054"><ele>1911.3</ele><time>2026-03-08T06:53:31.000Z</time></trkpt>
<trkpt lat="42.083824" lon="23.620548"><ele>1911.8</ele><time>2026-03-08T06:53:32.000Z</time></trkpt>
<trkpt lat="42.083832" lon="23.620557"><ele>1911.8</ele><time>2026-03-08T06:53:33.000Z</time></trkpt>
<trkpt lat="42.083841" lon="23.620565"><ele>1911.8</ele><time>2026-03-08T06:53:34.000Z</time></trkpt>
<trkpt lat="42.083851" lon="23.620574"><ele>1911.8</ele><time>2026-03-08T06:53:35.000Z</time></trkpt>
<trkpt lat="42.08386" lon="23.620582"><ele>1911.8</ele><time>2026-03-08T06:53:36.000Z</time></trkpt>
<trkpt lat="42.083869" lon="23.620592"><ele>1912.3</ele><time>2026-03-08T06:53:37.000Z</time></trkpt>
<trkpt lat="42.083876" lon="23.6206"><ele>1912.3</ele><time>2026-03-08T06:53:38.000Z</time></trkpt>
<trkpt lat="42.083881" lon="23.620609"><ele>1912.3</ele><time>2026-03-08T06:53:39.000Z</time></trkpt>
<trkpt lat="42.083886" lon="23.620617"><ele>1912.3</ele><time>2026-03-08T06:53:40.000Z</time></trkpt>
<trkpt lat="42.083892" lon="23.620627"><ele>1912.3</ele><time>2026-03-08T06:53:41.000Z</time></trkpt>
<trkpt lat="42.083897" lon="23.620636"><ele>1912.5</ele><time>2026-03-08T06:53:42.000Z</time></trkpt>
<trkpt lat="42.083903" lon="23.620646"><ele>1912.5</ele><time>2026-03-08T06:53:43.000Z</time></trkpt>
<trkpt lat="42.083911" lon="23.620655"><ele>1912.5</ele><time>2026-03-08T06:53:44.000Z</time></trkpt>
<trkpt lat="42.083919" lon="23.620664"><ele>1912.5</ele><time>2026-03-08T06:53:45.000Z</time></trkpt>
<trkpt lat="42.083927" lon="23.620673"><ele>1912.5</ele><time>2026-03-08T06:53:46.000Z</time></trkpt>
<trkpt lat="42.083935" lon="23.620683"><ele>1912.9</ele><time>2026-03-08T06:53:47.000Z</time></trkpt>
<trkpt lat="42.083944" lon="23.620693"><ele>1912.9</ele><time>2026-03-08T06:53:48.000Z</time></trkpt>
<trkpt lat="42.083953" lon="23.620705"><ele>1912.9</ele><time>2026-03-08T06:53:49.000Z</time></trkpt>
<trkpt lat="42.083962" lon="23.620716"><ele>1912.9</ele><time>2026-03-08T06:53:50.000Z</time></trkpt>
<trkpt lat="42.083971" lon="23.620727"><ele>1912.9</ele><time>2026-03-08T06:53:51.000Z</time></trkpt>
<trkpt lat="42.083981" lon="23.620736"><ele>1913.4</ele><time>2026-03-08T06:53:52.000Z</time></trkpt>
<trkpt lat="42.083991" lon="23.620745"><ele>1913.4</ele><time>2026-03-08T06:53:53.000Z</time></trkpt>
<trkpt lat="42.084001" lon="23.620754"><ele>1913.4</ele><time>2026-03-08T06:53:54.000Z</time></trkpt>
<trkpt lat="42.08401" lon="23.620762"><ele>1913.4</ele><time>2026-03-08T06:53:55.000Z</time></trkpt>
<trkpt lat="42.08402" lon="23.620769"><ele>1913.4</ele><time>2026-03-08T06:53:56.000Z</time></trkpt>
<trkpt lat="42.084031" lon="23.620776"><ele>1913.6</ele><time>2026-03-08T06:53:57.000Z</time></trkpt>
<trkpt lat="42.084043" lon="23.620783"><ele>1913.6</ele><time>2026-03-08T06:53:58.000Z</time></trkpt>
<trkpt lat="42.084056" lon="23.620788"><ele>1913.6</ele><time>2026-03-08T06:53:59.000Z</time></trkpt>
<trkpt lat="42.084068" lon="23.620794"><ele>1913.6</ele><time>2026-03-08T06:54:00.000Z</time></trkpt>
<trkpt lat="42.08408" lon="23.6208"><ele>1913.6</ele><time>2026-03-08T06:54:01.000Z</time></trkpt>
<trkpt lat="42.084092" lon="23.620805"><ele>1914.2</ele><time>2026-03-08T06:54:02.000Z</time></trkpt>
<trkpt lat="42.084104" lon="23.620808"><ele>1914.2</ele><time>2026-03-08T06:54:03.000Z</time></trkpt>
<trkpt lat="42.084116" lon="23.620809"><ele>1914.2</ele><time>2026-03-08T06:54:04.000Z</time></trkpt>
<trkpt lat="42.084128" lon="23.620809"><ele>1914.2</ele><time>2026-03-08T06:54:05.000Z</time></trkpt>
<trkpt lat="42.08414" lon="23.620807"><ele>1914.2</ele><time>2026-03-08T06:54:06.000Z</time></trkpt>
<trkpt lat="42.084152" lon="23.620805"><ele>1914.8</ele><time>2026-03-08T06:54:07.000Z</time></trkpt>
<trkpt lat="42.084163" lon="23.620803"><ele>1914.8</ele><time>2026-03-08T06:54:08.000Z</time></trkpt>
<trkpt lat="42.084174" lon="23.620802"><ele>1914.8</ele><time>2026-03-08T06:54:09.000Z</time></trkpt>
<trkpt lat="42.084184" lon="23.6208"><ele>1914.8</ele><time>2026-03-08T06:54:10.000Z</time></trkpt>
<trkpt lat="42.084192" lon="23.620799"><ele>1914.8</ele><time>2026-03-08T06:54:11.000Z</time></trkpt>
<trkpt lat="42.0842" lon="23.620797"><ele>1915.1</ele><time>2026-03-08T06:54:12.000Z</time></trkpt>
<trkpt lat="42.084208" lon="23.620794"><ele>1915.1</ele><time>2026-03-08T06:54:13.000Z</time></trkpt>
<trkpt lat="42.084217" lon="23.62079"><ele>1915.1</ele><time>2026-03-08T06:54:14.000Z</time></trkpt>
<trkpt lat="42.084225" lon="23.620786"><ele>1915.1</ele><time>2026-03-08T06:54:15.000Z</time></trkpt>
<trkpt lat="42.084234" lon="23.620782"><ele>1915.1</ele><time>2026-03-08T06:54:16.000Z</time></trkpt>
<trkpt lat="42.084243" lon="23.620778"><ele>1915.7</ele><time>2026-03-08T06:54:17.000Z</time></trkpt>
<trkpt lat="42.084252" lon="23.620774"><ele>1915.7</ele><time>2026-03-08T06:54:18.000Z</time></trkpt>
<trkpt lat="42.08426" lon="23.620769"><ele>1915.7</ele><time>2026-03-08T06:54:19.000Z</time></trkpt>
<trkpt lat="42.084269" lon="23.620765"><ele>1915.7</ele><time>2026-03-08T06:54:20.000Z</time></trkpt>
<trkpt lat="42.084279" lon="23.620759"><ele>1915.7</ele><time>2026-03-08T06:54:21.000Z</time></trkpt>
<trkpt lat="42.084289" lon="23.620754"><ele>1916.3</ele><time>2026-03-08T06:54:22.000Z</time></trkpt>
<trkpt lat="42.084297" lon="23.620748"><ele>1916.3</ele><time>2026-03-08T06:54:23.000Z</time></trkpt>
<trkpt lat="42.084305" lon="23.620743"><ele>1916.3</ele><time>2026-03-08T06:54:24.000Z</time></trkpt>
<trkpt lat="42.084314" lon="23.620738"><ele>1916.3</ele><time>2026-03-08T06:54:25.000Z</time></trkpt>
<trkpt lat="42.084323" lon="23.620733"><ele>1916.3</ele><time>2026-03-08T06:54:26.000Z</time></trkpt>
<trkpt lat="42.084333" lon="23.620727"><ele>1916.6</ele><time>2026-03-08T06:54:27.000Z</time></trkpt>
<trkpt lat="42.084344" lon="23.620722"><ele>1916.6</ele><time>2026-03-08T06:54:28.000Z</time></trkpt>
<trkpt lat="42.084354" lon="23.620716"><ele>1916.6</ele><time>2026-03-08T06:54:29.000Z</time></trkpt>
<trkpt lat="42.084363" lon="23.620709"><ele>1916.6</ele><time>2026-03-08T06:54:30.000Z</time></trkpt>
<trkpt lat="42.08437" lon="23.620703"><ele>1916.6</ele><time>2026-03-08T06:54:31.000Z</time></trkpt>
<trkpt lat="42.084376" lon="23.620696"><ele>1916.8</ele><time>2026-03-08T06:54:32.000Z</time></trkpt>
<trkpt lat="42.084382" lon="23.620688"><ele>1916.8</ele><time>2026-03-08T06:54:33.000Z</time></trkpt>
<trkpt lat="42.084387" lon="23.620679"><ele>1916.8</ele><time>2026-03-08T06:54:34.000Z</time></trkpt>
<trkpt lat="42.084393" lon="23.620671"><ele>1916.8</ele><time>2026-03-08T06:54:35.000Z</time></trkpt>
<trkpt lat="42.084399" lon="23.620663"><ele>1916.8</ele><time>2026-03-08T06:54:36.000Z</time></trkpt>
<trkpt lat="42.084407" lon="23.620655"><ele>1917.2</ele><time>2026-03-08T06:54:37.000Z</time></trkpt>
<trkpt lat="42.084415" lon="23.620648"><ele>1917.2</ele><time>2026-03-08T06:54:38.000Z</time></trkpt>
<trkpt lat="42.084423" lon="23.620642"><ele>1917.2</ele><time>2026-03-08T06:54:39.000Z</time></trkpt>
<trkpt lat="42.084431" lon="23.620636"><ele>1917.2</ele><time>2026-03-08T06:54:40.000Z</time></trkpt>
<trkpt lat="42.08444" lon="23.620628"><ele>1917.2</ele><time>2026-03-08T06:54:41.000Z</time></trkpt>
<trkpt lat="42.084447" lon="23.620621"><ele>1917.4</ele><time>2026-03-08T06:54:42.000Z</time></trkpt>
<trkpt lat="42.084454" lon="23.620613"><ele>1917.4</ele><time>2026-03-08T06:54:43.000Z</time></trkpt>
<trkpt lat="42.084461" lon="23.620604"><ele>1917.4</ele><time>2026-03-08T06:54:44.000Z</time></trkpt>
<trkpt lat="42.084466" lon="23.620595"><ele>1917.4</ele><time>2026-03-08T06:54:45.000Z</time></trkpt>
<trkpt lat="42.084472" lon="23.620586"><ele>1917.4</ele><time>2026-03-08T06:54:46.000Z</time></trkpt>
<trkpt lat="42.084479" lon="23.620576"><ele>1917.9</ele><time>2026-03-08T06:54:47.000Z</time></trkpt>
<trkpt lat="42.084484" lon="23.620567"><ele>1917.9</ele><time>2026-03-08T06:54:48.000Z</time></trkpt>
<trkpt lat="42.084491" lon="23.620557"><ele>1917.9</ele><time>2026-03-08T06:54:49.000Z</time></trkpt>
<trkpt lat="42.0845" lon="23.620545"><ele>1917.9</ele><time>2026-03-08T06:54:50.000Z</time></trkpt>
<trkpt lat="42.08451" lon="23.620533"><ele>1917.9</ele><time>2026-03-08T06:54:51.000Z</time></trkpt>
<trkpt lat="42.084519" lon="23.620521"><ele>1918.4</ele><time>2026-03-08T06:54:52.000Z</time></trkpt>
<trkpt lat="42.084528" lon="23.62051"><ele>1918.4</ele><time>2026-03-08T06:54:53.000Z</time></trkpt>
<trkpt lat="42.084537" lon="23.6205"><ele>1918.4</ele><time>2026-03-08T06:54:54.000Z</time></trkpt>
<trkpt lat="42.084543" lon="23.62049"><ele>1918.4</ele><time>2026-03-08T06:54:55.000Z</time></trkpt>
<trkpt lat="42.084549" lon="23.62048"><ele>1918.4</ele><time>2026-03-08T06:54:56.000Z</time></trkpt>
<trkpt lat="42.084553" lon="23.620468"><ele>1918.7</ele><time>2026-03-08T06:54:57.000Z</time></trkpt>
<trkpt lat="42.084557" lon="23.620456"><ele>1918.7</ele><time>2026-03-08T06:54:58.000Z</time></trkpt>
<trkpt lat="42.08456" lon="23.620443"><ele>1918.7</ele><time>2026-03-08T06:54:59.000Z</time></trkpt>
<trkpt lat="42.084564" lon="23.620429"><ele>1918.7</ele><time>2026-03-08T06:55:00.000Z</time></trkpt>
<trkpt lat="42.084567" lon="23.620415"><ele>1918.7</ele><time>2026-03-08T06:55:01.000Z</time></trkpt>
<trkpt lat="42.084571" lon="23.620401"><ele>1919.4</ele><time>2026-03-08T06:55:02.000Z</time></trkpt>
<trkpt lat="42.084576" lon="23.620388"><ele>1919.4</ele><time>2026-03-08T06:55:03.000Z</time></trkpt>
<trkpt lat="42.08458" lon="23.620374"><ele>1919.4</ele><time>2026-03-08T06:55:04.000Z</time></trkpt>
<trkpt lat="42.084585" lon="23.62036"><ele>1919.4</ele><time>2026-03-08T06:55:05.000Z</time></trkpt>
<trkpt lat="42.084591" lon="23.620346"><ele>1919.4</ele><time>2026-03-08T06:55:06.000Z</time></trkpt>
<trkpt lat="42.084596" lon="23.620333"><ele>1920.1</ele><time>2026-03-08T06:55:07.000Z</time></trkpt>
<trkpt lat="42.084601" lon="23.620321"><ele>1920.1</ele><time>2026-03-08T06:55:08.000Z</time></trkpt>
<trkpt lat="42.084606" lon="23.62031"><ele>1920.1</ele><time>2026-03-08T06:55:09.000Z</time></trkpt>
<trkpt lat="42.084609" lon="23.620299"><ele>1920.1</ele><time>2026-03-08T06:55:10.000Z</time></trkpt>
<trkpt lat="42.084613" lon="23.620288"><ele>1920.1</ele><time>2026-03-08T06:55:11.000Z</time></trkpt>
<trkpt lat="42.084617" lon="23.620278"><ele>1920.3</ele><time>2026-03-08T06:55:12.000Z</time></trkpt>
<trkpt lat="42.084621" lon="23.620269"><ele>1920.3</ele><time>2026-03-08T06:55:13.000Z</time></trkpt>
<trkpt lat="42.084626" lon="23.62026"><ele>1920.3</ele><time>2026-03-08T06:55:14.000Z</time></trkpt>
<trkpt lat="42.084631" lon="23.620251"><ele>1920.3</ele><time>2026-03-08T06:55:15.000Z</time></trkpt>
<trkpt lat="42.084636" lon="23.620241"><ele>1920.3</ele><time>2026-03-08T06:55:16.000Z</time></trkpt>
<trkpt lat="42.084641" lon="23.620231"><ele>1920.8</ele><time>2026-03-08T06:55:17.000Z</time></trkpt>
<trkpt lat="42.084646" lon="23.62022"><ele>1920.8</ele><time>2026-03-08T06:55:18.000Z</time></trkpt>
<trkpt lat="42.084651" lon="23.620208"><ele>1920.8</ele><time>2026-03-08T06:55:19.000Z</time></trkpt>
<trkpt lat="42.084656" lon="23.620196"><ele>1920.8</ele><time>2026-03-08T06:55:20.000Z</time></trkpt>
<trkpt lat="42.084661" lon="23.620185"><ele>1920.8</ele><time>2026-03-08T06:55:21.000Z</time></trkpt>
<trkpt lat="42.084666" lon="23.620174"><ele>1921.3</ele><time>2026-03-08T06:55:22.000Z</time></trkpt>
<trkpt lat="42.08467" lon="23.620162"><ele>1921.3</ele><time>2026-03-08T06:55:23.000Z</time></trkpt>
<trkpt lat="42.084674" lon="23.620151"><ele>1921.3</ele><time>2026-03-08T06:55:24.000Z</time></trkpt>
<trkpt lat="42.084679" lon="23.620139"><ele>1921.3</ele><time>2026-03-08T06:55:25.000Z</time></trkpt>
<trkpt lat="42.084684" lon="23.620128"><ele>1921.3</ele><time>2026-03-08T06:55:26.000Z</time></trkpt>
<trkpt lat="42.084689" lon="23.620115"><ele>1921.6</ele><time>2026-03-08T06:55:27.000Z</time></trkpt>
<trkpt lat="42.084695" lon="23.620102"><ele>1921.6</ele><time>2026-03-08T06:55:28.000Z</time></trkpt>
<trkpt lat="42.0847" lon="23.620089"><ele>1921.6</ele><time>2026-03-08T06:55:29.000Z</time></trkpt>
<trkpt lat="42.084705" lon="23.620077"><ele>1921.6</ele><time>2026-03-08T06:55:30.000Z</time></trkpt>
<trkpt lat="42.084711" lon="23.620065"><ele>1921.6</ele><time>2026-03-08T06:55:31.000Z</time></trkpt>
<trkpt lat="42.084716" lon="23.620053"><ele>1922.3</ele><time>2026-03-08T06:55:32.000Z</time></trkpt>
<trkpt lat="42.084721" lon="23.620042"><ele>1922.3</ele><time>2026-03-08T06:55:33.000Z</time></trkpt>
<trkpt lat="42.084727" lon="23.620032"><ele>1922.3</ele><time>2026-03-08T06:55:34.000Z</time></trkpt>
<trkpt lat="42.084733" lon="23.62002"><ele>1922.3</ele><time>2026-03-08T06:55:35.000Z</time></trkpt>
<trkpt lat="42.084739" lon="23.620008"><ele>1922.3</ele><time>2026-03-08T06:55:36.000Z</time></trkpt>
<trkpt lat="42.084745" lon="23.619995"><ele>1923.1</ele><time>2026-03-08T06:55:37.000Z</time></trkpt>
<trkpt lat="42.084751" lon="23.619983"><ele>1923.1</ele><time>2026-03-08T06:55:38.000Z</time></trkpt>
<trkpt lat="42.084757" lon="23.619971"><ele>1923.1</ele><time>2026-03-08T06:55:39.000Z</time></trkpt>
<trkpt lat="42.084762" lon="23.619959"><ele>1923.1</ele><time>2026-03-08T06:55:40.000Z</time></trkpt>
<trkpt lat="42.084767" lon="23.619949"><ele>1923.1</ele><time>2026-03-08T06:55:41.000Z</time></trkpt>
<trkpt lat="42.084773" lon="23.619939"><ele>1923.5</ele><time>2026-03-08T06:55:42.000Z</time></trkpt>
<trkpt lat="42.084779" lon="23.619928"><ele>1923.5</ele><time>2026-03-08T06:55:43.000Z</time></trkpt>
<trkpt lat="42.084785" lon="23.619917"><ele>1923.5</ele><time>2026-03-08T06:55:44.000Z</time></trkpt>
<trkpt lat="42.08479" lon="23.619905"><ele>1923.5</ele><time>2026-03-08T06:55:45.000Z</time></trkpt>
<trkpt lat="42.084795" lon="23.619892"><ele>1923.5</ele><time>2026-03-08T06:55:46.000Z</time></trkpt>
<trkpt lat="42.084798" lon="23.619878"><ele>1924</ele><time>2026-03-08T06:55:47.000Z</time></trkpt>
<trkpt lat="42.084801" lon="23.619864"><ele>1924</ele><time>2026-03-08T06:55:48.000Z</time></trkpt>
<trkpt lat="42.084803" lon="23.619849"><ele>1924</ele><time>2026-03-08T06:55:49.000Z</time></trkpt>
<trkpt lat="42.084805" lon="23.619836"><ele>1924</ele><time>2026-03-08T06:55:50.000Z</time></trkpt>
<trkpt lat="42.084808" lon="23.619824"><ele>1924</ele><time>2026-03-08T06:55:51.000Z</time></trkpt>
<trkpt lat="42.084811" lon="23.619814"><ele>1924.5</ele><time>2026-03-08T06:55:52.000Z</time></trkpt>
<trkpt lat="42.084816" lon="23.619804"><ele>1924.5</ele><time>2026-03-08T06:55:53.000Z</time></trkpt>
<trkpt lat="42.084822" lon="23.619794"><ele>1924.5</ele><time>2026-03-08T06:55:54.000Z</time></trkpt>
<trkpt lat="42.084829" lon="23.619783"><ele>1924.5</ele><time>2026-03-08T06:55:55.000Z</time></trkpt>
<trkpt lat="42.084836" lon="23.619773"><ele>1924.5</ele><time>2026-03-08T06:55:56.000Z</time></trkpt>
<trkpt lat="42.084844" lon="23.619763"><ele>1924.8</ele><time>2026-03-08T06:55:57.000Z</time></trkpt>
<trkpt lat="42.084853" lon="23.619754"><ele>1924.8</ele><time>2026-03-08T06:55:58.000Z</time></trkpt>
<trkpt lat="42.084861" lon="23.619746"><ele>1924.8</ele><time>2026-03-08T06:55:59.000Z</time></trkpt>
<trkpt lat="42.08487" lon="23.619737"><ele>1924.8</ele><time>2026-03-08T06:56:00.000Z</time></trkpt>
<trkpt lat="42.084878" lon="23.619727"><ele>1924.8</ele><time>2026-03-08T06:56:01.000Z</time></trkpt>
<trkpt lat="42.084884" lon="23.619716"><ele>1925.5</ele><time>2026-03-08T06:56:02.000Z</time></trkpt>
<trkpt lat="42.08489" lon="23.619705"><ele>1925.5</ele><time>2026-03-08T06:56:03.000Z</time></trkpt>
<trkpt lat="42.084897" lon="23.619694"><ele>1925.5</ele><time>2026-03-08T06:56:04.000Z</time></trkpt>
<trkpt lat="42.084905" lon="23.619684"><ele>1925.5</ele><time>2026-03-08T06:56:05.000Z</time></trkpt>
<trkpt lat="42.084913" lon="23.619675"><ele>1925.5</ele><time>2026-03-08T06:56:06.000Z</time></trkpt>
<trkpt lat="42.084922" lon="23.619666"><ele>1926</ele><time>2026-03-08T06:56:07.000Z</time></trkpt>
<trkpt lat="42.084929" lon="23.619657"><ele>1926</ele><time>2026-03-08T06:56:08.000Z</time></trkpt>
<trkpt lat="42.084937" lon="23.619649"><ele>1926</ele><time>2026-03-08T06:56:09.000Z</time></trkpt>
<trkpt lat="42.084945" lon="23.61964"><ele>1926</ele><time>2026-03-08T06:56:10.000Z</time></trkpt>
<trkpt lat="42.084953" lon="23.619631"><ele>1926</ele><time>2026-03-08T06:56:11.000Z</time></trkpt>
<trkpt lat="42.084961" lon="23.619624"><ele>1926.3</ele><time>2026-03-08T06:56:12.000Z</time></trkpt>
<trkpt lat="42.08497" lon="23.619617"><ele>1926.3</ele><time>2026-03-08T06:56:13.000Z</time></trkpt>
<trkpt lat="42.084979" lon="23.619611"><ele>1926.3</ele><time>2026-03-08T06:56:14.000Z</time></trkpt>
<trkpt lat="42.084986" lon="23.619608"><ele>1926.3</ele><time>2026-03-08T06:56:15.000Z</time></trkpt>
<trkpt lat="42.084993" lon="23.619605"><ele>1926.3</ele><time>2026-03-08T06:56:16.000Z</time></trkpt>
<trkpt lat="42.085001" lon="23.619602"><ele>1926.6</ele><time>2026-03-08T06:56:17.000Z</time></trkpt>
<trkpt lat="42.085008" lon="23.619599"><ele>1926.6</ele><time>2026-03-08T06:56:18.000Z</time></trkpt>
<trkpt lat="42.085016" lon="23.619598"><ele>1926.6</ele><time>2026-03-08T06:56:19.000Z</time></trkpt>
<trkpt lat="42.085025" lon="23.619598"><ele>1926.6</ele><time>2026-03-08T06:56:20.000Z</time></trkpt>
<trkpt lat="42.085036" lon="23.6196"><ele>1926.6</ele><time>2026-03-08T06:56:21.000Z</time></trkpt>
<trkpt lat="42.085047" lon="23.619604"><ele>1927</ele><time>2026-03-08T06:56:22.000Z</time></trkpt>
<trkpt lat="42.085058" lon="23.619609"><ele>1927</ele><time>2026-03-08T06:56:23.000Z</time></trkpt>
<trkpt lat="42.085069" lon="23.619615"><ele>1927</ele><time>2026-03-08T06:56:24.000Z</time></trkpt>
<trkpt lat="42.085079" lon="23.619621"><ele>1927</ele><time>2026-03-08T06:56:25.000Z</time></trkpt>
<trkpt lat="42.085089" lon="23.619629"><ele>1927</ele><time>2026-03-08T06:56:26.000Z</time></trkpt>
<trkpt lat="42.085098" lon="23.619636"><ele>1927.2</ele><time>2026-03-08T06:56:27.000Z</time></trkpt>
<trkpt lat="42.085107" lon="23.619642"><ele>1927.2</ele><time>2026-03-08T06:56:28.000Z</time></trkpt>
<trkpt lat="42.085116" lon="23.619649"><ele>1927.2</ele><time>2026-03-08T06:56:29.000Z</time></trkpt>
<trkpt lat="42.085125" lon="23.619657"><ele>1927.2</ele><time>2026-03-08T06:56:30.000Z</time></trkpt>
<trkpt lat="42.085134" lon="23.619663"><ele>1927.2</ele><time>2026-03-08T06:56:31.000Z</time></trkpt>
<trkpt lat="42.085142" lon="23.61967"><ele>1927.6</ele><time>2026-03-08T06:56:32.000Z</time></trkpt>
<trkpt lat="42.08515" lon="23.619678"><ele>1927.6</ele><time>2026-03-08T06:56:33.000Z</time></trkpt>
<trkpt lat="42.085158" lon="23.619686"><ele>1927.6</ele><time>2026-03-08T06:56:34.000Z</time></trkpt>
<trkpt lat="42.085165" lon="23.619695"><ele>1927.6</ele><time>2026-03-08T06:56:35.000Z</time></trkpt>
<trkpt lat="42.085171" lon="23.619706"><ele>1927.6</ele><time>2026-03-08T06:56:36.000Z</time></trkpt>
<trkpt lat="42.085175" lon="23.619717"><ele>1928.1</ele><time>2026-03-08T06:56:37.000Z</time></trkpt>
<trkpt lat="42.085178" lon="23.619728"><ele>1928.1</ele><time>2026-03-08T06:56:38.000Z</time></trkpt>
<trkpt lat="42.08518" lon="23.61974"><ele>1928.1</ele><time>2026-03-08T06:56:39.000Z</time></trkpt>
<trkpt lat="42.085182" lon="23.619753"><ele>1928.1</ele><time>2026-03-08T06:56:40.000Z</time></trkpt>
<trkpt lat="42.085185" lon="23.619765"><ele>1928.1</ele><time>2026-03-08T06:56:41.000Z</time></trkpt>
<trkpt lat="42.085189" lon="23.619779"><ele>1928.3</ele><time>2026-03-08T06:56:42.000Z</time></trkpt>
<trkpt lat="42.085193" lon="23.619793"><ele>1928.3</ele><time>2026-03-08T06:56:43.000Z</time></trkpt>
<trkpt lat="42.085196" lon="23.619806"><ele>1928.3</ele><time>2026-03-08T06:56:44.000Z</time></trkpt>
<trkpt lat="42.0852" lon="23.619819"><ele>1928.3</ele><time>2026-03-08T06:56:45.000Z</time></trkpt>
<trkpt lat="42.085204" lon="23.619832"><ele>1928.3</ele><time>2026-03-08T06:56:46.000Z</time></trkpt>
<trkpt lat="42.085208" lon="23.619844"><ele>1928.7</ele><time>2026-03-08T06:56:47.000Z</time></trkpt>
<trkpt lat="42.085213" lon="23.619856"><ele>1928.7</ele><time>2026-03-08T06:56:48.000Z</time></trkpt>
<trkpt lat="42.085216" lon="23.619869"><ele>1928.7</ele><time>2026-03-08T06:56:49.000Z</time></trkpt>
<trkpt lat="42.085219" lon="23.619881"><ele>1928.7</ele><time>2026-03-08T06:56:50.000Z</time></trkpt>
<trkpt lat="42.085223" lon="23.619893"><ele>1928.7</ele><time>2026-03-08T06:56:51.000Z</time></trkpt>
<trkpt lat="42.085226" lon="23.619904"><ele>1929.2</ele><time>2026-03-08T06:56:52.000Z</time></trkpt>
<trkpt lat="42.085229" lon="23.619917"><ele>1929.2</ele><time>2026-03-08T06:56:53.000Z</time></trkpt>
<trkpt lat="42.085234" lon="23.619929"><ele>1929.2</ele><time>2026-03-08T06:56:54.000Z</time></trkpt>
<trkpt lat="42.085239" lon="23.619941"><ele>1929.2</ele><time>2026-03-08T06:56:55.000Z</time></trkpt>
<trkpt lat="42.085243" lon="23.619953"><ele>1929.2</ele><time>2026-03-08T06:56:56.000Z</time></trkpt>
<trkpt lat="42.085247" lon="23.619967"><ele>1929.4</ele><time>2026-03-08T06:56:57.000Z</time></trkpt>
<trkpt lat="42.085251" lon="23.61998"><ele>1929.4</ele><time>2026-03-08T06:56:58.000Z</time></trkpt>
<trkpt lat="42.085253" lon="23.619992"><ele>1929.4</ele><time>2026-03-08T06:56:59.000Z</time></trkpt>
<trkpt lat="42.085256" lon="23.620004"><ele>1929.4</ele><time>2026-03-08T06:57:00.000Z</time></trkpt>
<trkpt lat="42.085259" lon="23.620018"><ele>1929.4</ele><time>2026-03-08T06:57:01.000Z</time></trkpt>
<trkpt lat="42.085261" lon="23.620031"><ele>1930</ele><time>2026-03-08T06:57:02.000Z</time></trkpt>
<trkpt lat="42.085264" lon="23.620045"><ele>1930</ele><time>2026-03-08T06:57:03.000Z</time></trkpt>
<trkpt lat="42.085268" lon="23.620058"><ele>1930</ele><time>2026-03-08T06:57:04.000Z</time></trkpt>
<trkpt lat="42.08527" lon="23.620071"><ele>1930</ele><time>2026-03-08T06:57:05.000Z</time></trkpt>
<trkpt lat="42.085272" lon="23.620083"><ele>1930</ele><time>2026-03-08T06:57:06.000Z</time></trkpt>
<trkpt lat="42.085275" lon="23.620094"><ele>1930.6</ele><time>2026-03-08T06:57:07.000Z</time></trkpt>
<trkpt lat="42.085278" lon="23.620106"><ele>1930.6</ele><time>2026-03-08T06:57:08.000Z</time></trkpt>
<trkpt lat="42.085282" lon="23.620118"><ele>1930.6</ele><time>2026-03-08T06:57:09.000Z</time></trkpt>
<trkpt lat="42.085286" lon="23.620132"><ele>1930.6</ele><time>2026-03-08T06:57:10.000Z</time></trkpt>
<trkpt lat="42.085291" lon="23.620145"><ele>1930.6</ele><time>2026-03-08T06:57:11.000Z</time></trkpt>
<trkpt lat="42.085296" lon="23.620159"><ele>1930.8</ele><time>2026-03-08T06:57:12.000Z</time></trkpt>
<trkpt lat="42.085299" lon="23.620173"><ele>1930.8</ele><time>2026-03-08T06:57:13.000Z</time></trkpt>
<trkpt lat="42.085302" lon="23.620186"><ele>1930.8</ele><time>2026-03-08T06:57:14.000Z</time></trkpt>
<trkpt lat="42.085306" lon="23.6202"><ele>1930.8</ele><time>2026-03-08T06:57:15.000Z</time></trkpt>
<trkpt lat="42.085309" lon="23.620213"><ele>1930.8</ele><time>2026-03-08T06:57:16.000Z</time></trkpt>
<trkpt lat="42.085312" lon="23.620226"><ele>1931.3</ele><time>2026-03-08T06:57:17.000Z</time></trkpt>
<trkpt lat="42.085316" lon="23.62024"><ele>1931.3</ele><time>2026-03-08T06:57:18.000Z</time></trkpt>
<trkpt lat="42.085319" lon="23.620253"><ele>1931.3</ele><time>2026-03-08T06:57:19.000Z</time></trkpt>
<trkpt lat="42.085321" lon="23.620265"><ele>1931.3</ele><time>2026-03-08T06:57:20.000Z</time></trkpt>
<trkpt lat="42.085322" lon="23.620279"><ele>1931.3</ele><time>2026-03-08T06:57:21.000Z</time></trkpt>
<trkpt lat="42.085323" lon="23.620291"><ele>1931.5</ele><time>2026-03-08T06:57:22.000Z</time></trkpt>
<trkpt lat="42.085324" lon="23.620304"><ele>1931.5</ele><time>2026-03-08T06:57:23.000Z</time></trkpt>
<trkpt lat="42.085325" lon="23.620318"><ele>1931.5</ele><time>2026-03-08T06:57:24.000Z</time></trkpt>
<trkpt lat="42.085328" lon="23.620332"><ele>1931.5</ele><time>2026-03-08T06:57:25.000Z</time></trkpt>
<trkpt lat="42.085332" lon="23.620345"><ele>1931.5</ele><time>2026-03-08T06:57:26.000Z</time></trkpt>
<trkpt lat="42.085336" lon="23.620359"><ele>1931.6</ele><time>2026-03-08T06:57:27.000Z</time></trkpt>
<trkpt lat="42.08534" lon="23.620371"><ele>1931.6</ele><time>2026-03-08T06:57:28.000Z</time></trkpt>
<trkpt lat="42.085343" lon="23.620383"><ele>1931.6</ele><time>2026-03-08T06:57:29.000Z</time></trkpt>
<trkpt lat="42.085347" lon="23.620394"><ele>1931.6</ele><time>2026-03-08T06:57:30.000Z</time></trkpt>
<trkpt lat="42.08535" lon="23.620406"><ele>1931.6</ele><time>2026-03-08T06:57:31.000Z</time></trkpt>
<trkpt lat="42.085353" lon="23.620417"><ele>1931.8</ele><time>2026-03-08T06:57:32.000Z</time></trkpt>
<trkpt lat="42.085356" lon="23.620428"><ele>1931.8</ele><time>2026-03-08T06:57:33.000Z</time></trkpt>
<trkpt lat="42.085359" lon="23.62044"><ele>1931.8</ele><time>2026-03-08T06:57:34.000Z</time></trkpt>
<trkpt lat="42.08536" lon="23.620453"><ele>1931.8</ele><time>2026-03-08T06:57:35.000Z</time></trkpt>
<trkpt lat="42.085359" lon="23.620466"><ele>1931.8</ele><time>2026-03-08T06:57:36.000Z</time></trkpt>
<trkpt lat="42.085357" lon="23.62048"><ele>1932.2</ele><time>2026-03-08T06:57:37.000Z</time></trkpt>
<trkpt lat="42.085356" lon="23.620493"><ele>1932.2</ele><time>2026-03-08T06:57:38.000Z</time></trkpt>
<trkpt lat="42.085355" lon="23.620505"><ele>1932.2</ele><time>2026-03-08T06:57:39.000Z</time></trkpt>
<trkpt lat="42.085352" lon="23.620516"><ele>1932.2</ele><time>2026-03-08T06:57:40.000Z</time></trkpt>
<trkpt lat="42.085351" lon="23.620525"><ele>1932.2</ele><time>2026-03-08T06:57:41.000Z</time></trkpt>
<trkpt lat="42.08535" lon="23.620534"><ele>1932.5</ele><time>2026-03-08T06:57:42.000Z</time></trkpt>
<trkpt lat="42.08535" lon="23.62054"><ele>1932.5</ele><time>2026-03-08T06:57:43.000Z</time></trkpt>
<trkpt lat="42.085351" lon="23.620544"><ele>1932.5</ele><time>2026-03-08T06:57:44.000Z</time></trkpt>
<trkpt lat="42.085352" lon="23.620546"><ele>1932.5</ele><time>2026-03-08T06:57:45.000Z</time></trkpt>
<trkpt lat="42.085354" lon="23.620547"><ele>1932.5</ele><time>2026-03-08T06:57:46.000Z</time></trkpt>
<trkpt lat="42.085356" lon="23.620549"><ele>1932.8</ele><time>2026-03-08T06:57:47.000Z</time></trkpt>
<trkpt lat="42.085358" lon="23.620553"><ele>1932.8</ele><time>2026-03-08T06:57:48.000Z</time></trkpt>
<trkpt lat="42.08536" lon="23.620559"><ele>1932.8</ele><time>2026-03-08T06:57:49.000Z</time></trkpt>
<trkpt lat="42.085362" lon="23.620568"><ele>1932.8</ele><time>2026-03-08T06:57:50.000Z</time></trkpt>
<trkpt lat="42.085364" lon="23.620578"><ele>1932.8</ele><time>2026-03-08T06:57:51.000Z</time></trkpt>
<trkpt lat="42.085365" lon="23.62059"><ele>1933.2</ele><time>2026-03-08T06:57:52.000Z</time></trkpt>
<trkpt lat="42.085366" lon="23.620601"><ele>1933.2</ele><time>2026-03-08T06:57:53.000Z</time></trkpt>
<trkpt lat="42.085369" lon="23.620613"><ele>1933.2</ele><time>2026-03-08T06:57:54.000Z</time></trkpt>
<trkpt lat="42.085371" lon="23.620625"><ele>1933.2</ele><time>2026-03-08T06:57:55.000Z</time></trkpt>
<trkpt lat="42.085374" lon="23.620636"><ele>1933.2</ele><time>2026-03-08T06:57:56.000Z</time></trkpt>
<trkpt lat="42.085377" lon="23.620648"><ele>1933.3</ele><time>2026-03-08T06:57:57.000Z</time></trkpt>
<trkpt lat="42.085379" lon="23.620661"><ele>1933.3</ele><time>2026-03-08T06:57:58.000Z</time></trkpt>
<trkpt lat="42.085379" lon="23.620674"><ele>1933.3</ele><time>2026-03-08T06:57:59.000Z</time></trkpt>
<trkpt lat="42.085379" lon="23.620687"><ele>1933.3</ele><time>2026-03-08T06:58:00.000Z</time></trkpt>
<trkpt lat="42.085378" lon="23.620701"><ele>1933.3</ele><time>2026-03-08T06:58:01.000Z</time></trkpt>
<trkpt lat="42.085376" lon="23.620714"><ele>1933.5</ele><time>2026-03-08T06:58:02.000Z</time></trkpt>
<trkpt lat="42.085374" lon="23.620728"><ele>1933.5</ele><time>2026-03-08T06:58:03.000Z</time></trkpt>
<trkpt lat="42.085372" lon="23.620741"><ele>1933.5</ele><time>2026-03-08T06:58:04.000Z</time></trkpt>
<trkpt lat="42.085371" lon="23.620753"><ele>1933.5</ele><time>2026-03-08T06:58:05.000Z</time></trkpt>
<trkpt lat="42.08537" lon="23.620764"><ele>1933.5</ele><time>2026-03-08T06:58:06.000Z</time></trkpt>
<trkpt lat="42.08537" lon="23.620775"><ele>1933.6</ele><time>2026-03-08T06:58:07.000Z</time></trkpt>
<trkpt lat="42.08537" lon="23.620786"><ele>1933.6</ele><time>2026-03-08T06:58:08.000Z</time></trkpt>
<trkpt lat="42.085371" lon="23.620797"><ele>1933.6</ele><time>2026-03-08T06:58:09.000Z</time></trkpt>
<trkpt lat="42.085373" lon="23.620809"><ele>1933.6</ele><time>2026-03-08T06:58:10.000Z</time></trkpt>
<trkpt lat="42.085375" lon="23.620821"><ele>1933.6</ele><time>2026-03-08T06:58:11.000Z</time></trkpt>
<trkpt lat="42.085376" lon="23.620833"><ele>1933.7</ele><time>2026-03-08T06:58:12.000Z</time></trkpt>
<trkpt lat="42.085378" lon="23.620845"><ele>1933.7</ele><time>2026-03-08T06:58:13.000Z</time></trkpt>
<trkpt lat="42.085379" lon="23.620855"><ele>1933.7</ele><time>2026-03-08T06:58:14.000Z</time></trkpt>
<trkpt lat="42.085378" lon="23.620861"><ele>1933.7</ele><time>2026-03-08T06:58:15.000Z</time></trkpt>
<trkpt lat="42.085378" lon="23.620865"><ele>1933.7</ele><time>2026-03-08T06:58:16.000Z</time></trkpt>
<trkpt lat="42.085377" lon="23.620866"><ele>1934.1</ele><time>2026-03-08T06:58:17.000Z</time></trkpt>
<trkpt lat="42.085376" lon="23.620866"><ele>1934.1</ele><time>2026-03-08T06:58:18.000Z</time></trkpt>
<trkpt lat="42.085375" lon="23.620865"><ele>1934.1</ele><time>2026-03-08T06:58:19.000Z</time></trkpt>
<trkpt lat="42.085376" lon="23.620866"><ele>1934.1</ele><time>2026-03-08T06:58:20.000Z</time></trkpt>
<trkpt lat="42.085376" lon="23.620868"><ele>1934.1</ele><time>2026-03-08T06:58:21.000Z</time></trkpt>
<trkpt lat="42.085377" lon="23.620874"><ele>1934.5</ele><time>2026-03-08T06:58:22.000Z</time></trkpt>
<trkpt lat="42.085378" lon="23.620882"><ele>1934.5</ele><time>2026-03-08T06:58:23.000Z</time></trkpt>
<trkpt lat="42.085381" lon="23.620891"><ele>1934.5</ele><time>2026-03-08T06:58:24.000Z</time></trkpt>
<trkpt lat="42.085382" lon="23.620901"><ele>1934.5</ele><time>2026-03-08T06:58:25.000Z</time></trkpt>
<trkpt lat="42.085385" lon="23.620911"><ele>1934.5</ele><time>2026-03-08T06:58:26.000Z</time></trkpt>
<trkpt lat="42.085387" lon="23.620921"><ele>1934.7</ele><time>2026-03-08T06:58:27.000Z</time></trkpt>
<trkpt lat="42.08539" lon="23.620932"><ele>1934.7</ele><time>2026-03-08T06:58:28.000Z</time></trkpt>
<trkpt lat="42.085391" lon="23.620945"><ele>1934.7</ele><time>2026-03-08T06:58:29.000Z</time></trkpt>
<trkpt lat="42.085394" lon="23.620958"><ele>1934.7</ele><time>2026-03-08T06:58:30.000Z</time></trkpt>
<trkpt lat="42.085395" lon="23.620971"><ele>1934.7</ele><time>2026-03-08T06:58:31.000Z</time></trkpt>
<trkpt lat="42.085395" lon="23.620984"><ele>1934.9</ele><time>2026-03-08T06:58:32.000Z</time></trkpt>
<trkpt lat="42.085395" lon="23.620998"><ele>1934.9</ele><time>2026-03-08T06:58:33.000Z</time></trkpt>
<trkpt lat="42.085396" lon="23.62101"><ele>1934.9</ele><time>2026-03-08T06:58:34.000Z</time></trkpt>
<trkpt lat="42.085397" lon="23.621022"><ele>1934.9</ele><time>2026-03-08T06:58:35.000Z</time></trkpt>
<trkpt lat="42.085399" lon="23.621034"><ele>1934.9</ele><time>2026-03-08T06:58:36.000Z</time></trkpt>
<trkpt lat="42.085401" lon="23.621046"><ele>1935</ele><time>2026-03-08T06:58:37.000Z</time></trkpt>
<trkpt lat="42.085402" lon="23.621058"><ele>1935</ele><time>2026-03-08T06:58:38.000Z</time></trkpt>
<trkpt lat="42.085402" lon="23.621071"><ele>1935</ele><time>2026-03-08T06:58:39.000Z</time></trkpt>
<trkpt lat="42.085401" lon="23.621084"><ele>1935</ele><time>2026-03-08T06:58:40.000Z</time></trkpt>
<trkpt lat="42.085399" lon="23.621097"><ele>1935</ele><time>2026-03-08T06:58:41.000Z</time></trkpt>
<trkpt lat="42.085398" lon="23.621109"><ele>1935.2</ele><time>2026-03-08T06:58:42.000Z</time></trkpt>
<trkpt lat="42.085399" lon="23.621123"><ele>1935.2</ele><time>2026-03-08T06:58:43.000Z</time></trkpt>
<trkpt lat="42.085401" lon="23.621136"><ele>1935.2</ele><time>2026-03-08T06:58:44.000Z</time></trkpt>
<trkpt lat="42.085403" lon="23.62115"><ele>1935.2</ele><time>2026-03-08T06:58:45.000Z</time></trkpt>
<trkpt lat="42.085405" lon="23.621164"><ele>1935.2</ele><time>2026-03-08T06:58:46.000Z</time></trkpt>
<trkpt lat="42.085408" lon="23.621177"><ele>1935.5</ele><time>2026-03-08T06:58:47.000Z</time></trkpt>
<trkpt lat="42.085411" lon="23.62119"><ele>1935.5</ele><time>2026-03-08T06:58:48.000Z</time></trkpt>
<trkpt lat="42.085413" lon="23.621203"><ele>1935.5</ele><time>2026-03-08T06:58:49.000Z</time></trkpt>
<trkpt lat="42.085415" lon="23.621216"><ele>1935.5</ele><time>2026-03-08T06:58:50.000Z</time></trkpt>
<trkpt lat="42.085418" lon="23.621229"><ele>1935.5</ele><time>2026-03-08T06:58:51.000Z</time></trkpt>
<trkpt lat="42.085421" lon="23.621242"><ele>1935.9</ele><time>2026-03-08T06:58:52.000Z</time></trkpt>
<trkpt lat="42.085425" lon="23.621253"><ele>1935.9</ele><time>2026-03-08T06:58:53.000Z</time></trkpt>
<trkpt lat="42.085429" lon="23.621263"><ele>1935.9</ele><time>2026-03-08T06:58:54.000Z</time></trkpt>
<trkpt lat="42.085433" lon="23.621273"><ele>1935.9</ele><time>2026-03-08T06:58:55.000Z</time></trkpt>
<trkpt lat="42.085434" lon="23.621283"><ele>1935.9</ele><time>2026-03-08T06:58:56.000Z</time></trkpt>
<trkpt lat="42.085433" lon="23.62129"><ele>1936.1</ele><time>2026-03-08T06:58:57.000Z</time></trkpt>
<trkpt lat="42.085433" lon="23.621298"><ele>1936.1</ele><time>2026-03-08T06:58:58.000Z</time></trkpt>
<trkpt lat="42.085433" lon="23.621305"><ele>1936.1</ele><time>2026-03-08T06:58:59.000Z</time></trkpt>
<trkpt lat="42.085435" lon="23.621312"><ele>1936.1</ele><time>2026-03-08T06:59:00.000Z</time></trkpt>
<trkpt lat="42.085437" lon="23.621319"><ele>1936.1</ele><time>2026-03-08T06:59:01.000Z</time></trkpt>
<trkpt lat="42.085442" lon="23.621329"><ele>1936.5</ele><time>2026-03-08T06:59:02.000Z</time></trkpt>
<trkpt lat="42.085447" lon="23.62134"><ele>1936.5</ele><time>2026-03-08T06:59:03.000Z</time></trkpt>
<trkpt lat="42.085451" lon="23.62135"><ele>1936.5</ele><time>2026-03-08T06:59:04.000Z</time></trkpt>
<trkpt lat="42.085457" lon="23.621359"><ele>1936.5</ele><time>2026-03-08T06:59:05.000Z</time></trkpt>
<trkpt lat="42.085462" lon="23.621367"><ele>1936.5</ele><time>2026-03-08T06:59:06.000Z</time></trkpt>
<trkpt lat="42.085469" lon="23.621374"><ele>1937.1</ele><time>2026-03-08T06:59:07.000Z</time></trkpt>
<trkpt lat="42.085474" lon="23.62138"><ele>1937.1</ele><time>2026-03-08T06:59:08.000Z</time></trkpt>
<trkpt lat="42.08548" lon="23.621386"><ele>1937.1</ele><time>2026-03-08T06:59:09.000Z</time></trkpt>
<trkpt lat="42.085486" lon="23.621393"><ele>1937.1</ele><time>2026-03-08T06:59:10.000Z</time></trkpt>
<trkpt lat="42.085492" lon="23.621401"><ele>1937.1</ele><time>2026-03-08T06:59:11.000Z</time></trkpt>
<trkpt lat="42.085498" lon="23.621409"><ele>1937.4</ele><time>2026-03-08T06:59:12.000Z</time></trkpt>
<trkpt lat="42.085503" lon="23.621418"><ele>1937.4</ele><time>2026-03-08T06:59:13.000Z</time></trkpt>
<trkpt lat="42.085509" lon="23.621427"><ele>1937.4</ele><time>2026-03-08T06:59:14.000Z</time></trkpt>
<trkpt lat="42.085515" lon="23.621436"><ele>1937.4</ele><time>2026-03-08T06:59:15.000Z</time></trkpt>
<trkpt lat="42.08552" lon="23.621444"><ele>1937.4</ele><time>2026-03-08T06:59:16.000Z</time></trkpt>
<trkpt lat="42.085526" lon="23.621452"><ele>1937.8</ele><time>2026-03-08T06:59:17.000Z</time></trkpt>
<trkpt lat="42.085532" lon="23.621458"><ele>1937.8</ele><time>2026-03-08T06:59:18.000Z</time></trkpt>
<trkpt lat="42.085539" lon="23.621464"><ele>1937.8</ele><time>2026-03-08T06:59:19.000Z</time></trkpt>
<trkpt lat="42.085544" lon="23.621471"><ele>1937.8</ele><time>2026-03-08T06:59:20.000Z</time></trkpt>
<trkpt lat="42.085551" lon="23.621477"><ele>1937.8</ele><time>2026-03-08T06:59:21.000Z</time></trkpt>
<trkpt lat="42.085558" lon="23.621484"><ele>1938.2</ele><time>2026-03-08T06:59:22.000Z</time></trkpt>
<trkpt lat="42.085566" lon="23.621491"><ele>1938.2</ele><time>2026-03-08T06:59:23.000Z</time></trkpt>
<trkpt lat="42.085573" lon="23.621499"><ele>1938.2</ele><time>2026-03-08T06:59:24.000Z</time></trkpt>
<trkpt lat="42.085581" lon="23.621506"><ele>1938.2</ele><time>2026-03-08T06:59:25.000Z</time></trkpt>
<trkpt lat="42.085588" lon="23.621515"><ele>1938.2</ele><time>2026-03-08T06:59:26.000Z</time></trkpt>
<trkpt lat="42.085595" lon="23.621523"><ele>1938.4</ele><time>2026-03-08T06:59:27.000Z</time></trkpt>
<trkpt lat="42.085599" lon="23.62153"><ele>1938.4</ele><time>2026-03-08T06:59:28.000Z</time></trkpt>
<trkpt lat="42.085602" lon="23.621535"><ele>1938.4</ele><time>2026-03-08T06:59:29.000Z</time></trkpt>
<trkpt lat="42.085604" lon="23.621538"><ele>1938.4</ele><time>2026-03-08T06:59:30.000Z</time></trkpt>
<trkpt lat="42.085604" lon="23.621539"><ele>1938.4</ele><time>2026-03-08T06:59:31.000Z</time></trkpt>
<trkpt lat="42.085604" lon="23.621539"><ele>1938.6</ele><time>2026-03-08T06:59:32.000Z</time></trkpt>
<trkpt lat="42.085605" lon="23.621539"><ele>1938.6</ele><time>2026-03-08T06:59:33.000Z</time></trkpt>
<trkpt lat="42.085605" lon="23.621539"><ele>1938.6</ele><time>2026-03-08T06:59:34.000Z</time></trkpt>
<trkpt lat="42.085606" lon="23.621539"><ele>1938.6</ele><time>2026-03-08T06:59:35.000Z</time></trkpt>
<trkpt lat="42.085607" lon="23.62154"><ele>1938.6</ele><time>2026-03-08T06:59:36.000Z</time></trkpt>
<trkpt lat="42.085608" lon="23.62154"><ele>1938.8</ele><time>2026-03-08T06:59:37.000Z</time></trkpt>
<trkpt lat="42.085609" lon="23.621541"><ele>1938.8</ele><time>2026-03-08T06:59:38.000Z</time></trkpt>
<trkpt lat="42.08561" lon="23.621542"><ele>1938.8</ele><time>2026-03-08T06:59:39.000Z</time></trkpt>
<trkpt lat="42.08561" lon="23.621543"><ele>1938.8</ele><time>2026-03-08T06:59:40.000Z</time></trkpt>
<trkpt lat="42.085611" lon="23.621543"><ele>1938.8</ele><time>2026-03-08T06:59:41.000Z</time></trkpt>
<trkpt lat="42.085611" lon="23.621543"><ele>1938.8</ele><time>2026-03-08T06:59:42.000Z</time></trkpt>
<trkpt lat="42.085611" lon="23.621543"><ele>1938.8</ele><time>2026-03-08T06:59:43.000Z</time></trkpt>
<trkpt lat="42.085613" lon="23.621545"><ele>1938.8</ele><time>2026-03-08T06:59:44.000Z</time></trkpt>
<trkpt lat="42.085615" lon="23.621549"><ele>1938.8</ele><time>2026-03-08T06:59:45.000Z</time></trkpt>
<trkpt lat="42.085617" lon="23.621554"><ele>1938.8</ele><time>2026-03-08T06:59:46.000Z</time></trkpt>
<trkpt lat="42.085618" lon="23.621561"><ele>1939</ele><time>2026-03-08T06:59:47.000Z</time></trkpt>
<trkpt lat="42.08562" lon="23.621568"><ele>1939</ele><time>2026-03-08T06:59:48.000Z</time></trkpt>
<trkpt lat="42.08562" lon="23.621574"><ele>1939</ele><time>2026-03-08T06:59:49.000Z</time></trkpt>
<trkpt lat="42.085619" lon="23.621577"><ele>1939</ele><time>2026-03-08T06:59:50.000Z</time></trkpt>
<trkpt lat="42.08562" lon="23.621579"><ele>1939</ele><time>2026-03-08T06:59:51.000Z</time></trkpt>
<trkpt lat="42.08562" lon="23.621581"><ele>1939.2</ele><time>2026-03-08T06:59:52.000Z</time></trkpt>
<trkpt lat="42.085621" lon="23.621581"><ele>1939.2</ele><time>2026-03-08T06:59:53.000Z</time></trkpt>
<trkpt lat="42.085621" lon="23.621581"><ele>1939.2</ele><time>2026-03-08T06:59:54.000Z</time></trkpt>
<trkpt lat="42.085621" lon="23.621581"><ele>1939.2</ele><time>2026-03-08T06:59:55.000Z</time></trkpt>
<trkpt lat="42.085621" lon="23.621581"><ele>1939.2</ele><time>2026-03-08T06:59:56.000Z</time></trkpt>
<trkpt lat="42.085621" lon="23.621581"><ele>1939.3</ele><time>2026-03-08T06:59:57.000Z</time></trkpt>
<trkpt lat="42.085621" lon="23.621581"><ele>1939.3</ele><time>2026-03-08T06:59:58.000Z</time></trkpt>
<trkpt lat="42.085621" lon="23.621581"><ele>1939.3</ele><time>2026-03-08T06:59:59.000Z</time></trkpt>
<trkpt lat="42.085621" lon="23.621581"><ele>1939.3</ele><time>2026-03-08T07:00:00.000Z</time></trkpt>
<trkpt lat="42.085621" lon="23.621581"><ele>1939.3</ele><time>2026-03-08T07:00:01.000Z</time></trkpt>
<trkpt lat="42.085621" lon="23.621581"><ele>1939.3</ele><time>2026-03-08T07:00:02.000Z</time></trkpt>
<trkpt lat="42.085622" lon="23.621581"><ele>1939.3</ele><time>2026-03-08T07:00:03.000Z</time></trkpt>
<trkpt lat="42.085622" lon="23.621581"><ele>1939.3</ele><time>2026-03-08T07:00:04.000Z</time></trkpt>
<trkpt lat="42.085623" lon="23.621581"><ele>1939.3</ele><time>2026-03-08T07:00:05.000Z</time></trkpt>
<trkpt lat="42.085623" lon="23.621581"><ele>1939.3</ele><time>2026-03-08T07:00:06.000Z</time></trkpt>
<trkpt lat="42.085623" lon="23.621581"><ele>1939.3</ele><time>2026-03-08T07:00:07.000Z</time></trkpt>
<trkpt lat="42.085623" lon="23.621581"><ele>1939.3</ele><time>2026-03-08T07:00:08.000Z</time></trkpt>
<trkpt lat="42.085623" lon="23.621581"><ele>1939.3</ele><time>2026-03-08T07:00:09.000Z</time></trkpt>
<trkpt lat="42.085623" lon="23.621581"><ele>1939.3</ele><time>2026-03-08T07:00:10.000Z</time></trkpt>
<trkpt lat="42.085623" lon="23.621581"><ele>1939.3</ele><time>2026-03-08T07:00:11.000Z</time></trkpt>
<trkpt lat="42.085623" lon="23.621581"><ele>1939.3</ele><time>2026-03-08T07:00:12.000Z</time></trkpt>
<trkpt lat="42.085624" lon="23.621581"><ele>1939.3</ele><time>2026-03-08T07:00:13.000Z</time></trkpt>
<trkpt lat="42.085624" lon="23.621581"><ele>1939.3</ele><time>2026-03-08T07:00:14.000Z</time></trkpt>
<trkpt lat="42.085625" lon="23.621581"><ele>1939.3</ele><time>2026-03-08T07:00:15.000Z</time></trkpt>
<trkpt lat="42.085625" lon="23.621581"><ele>1939.3</ele><time>2026-03-08T07:00:16.000Z</time></trkpt>
<trkpt lat="42.085626" lon="23.621581"><ele>1939.3</ele><time>2026-03-08T07:00:17.000Z</time></trkpt>
<trkpt lat="42.085626" lon="23.621581"><ele>1939.3</ele><time>2026-03-08T07:00:18.000Z</time></trkpt>
<trkpt lat="42.085626" lon="23.621581"><ele>1939.3</ele><time>2026-03-08T07:00:19.000Z</time></trkpt>
<trkpt lat="42.085626" lon="23.621581"><ele>1939.3</ele><time>2026-03-08T07:00:20.000Z</time></trkpt>
<trkpt lat="42.085626" lon="23.621581"><ele>1939.3</ele><time>2026-03-08T07:00:21.000Z</time></trkpt>
<trkpt lat="42.085626" lon="23.621581"><ele>1939.3</ele><time>2026-03-08T07:00:22.000Z</time></trkpt>
<trkpt lat="42.085626" lon="23.621581"><ele>1939.3</ele><time>2026-03-08T07:00:23.000Z</time></trkpt>
<trkpt lat="42.085626" lon="23.621581"><ele>1939.3</ele><time>2026-03-08T07:00:24.000Z</time></trkpt>
<trkpt lat="42.085626" lon="23.621581"><ele>1939.3</ele><time>2026-03-08T07:00:25.000Z</time></trkpt>
<trkpt lat="42.085626" lon="23.621581"><ele>1939.3</ele><time>2026-03-08T07:00:26.000Z</time></trkpt>
<trkpt lat="42.085625" lon="23.62158"><ele>1939.3</ele><time>2026-03-08T07:00:27.000Z</time></trkpt>
<trkpt lat="42.085624" lon="23.621579"><ele>1939.3</ele><time>2026-03-08T07:00:28.000Z</time></trkpt>
<trkpt lat="42.085622" lon="23.621579"><ele>1939.3</ele><time>2026-03-08T07:00:29.000Z</time></trkpt>
<trkpt lat="42.085619" lon="23.62158"><ele>1939.3</ele><time>2026-03-08T07:00:30.000Z</time></trkpt>
<trkpt lat="42.085616" lon="23.621581"><ele>1939.3</ele><time>2026-03-08T07:00:31.000Z</time></trkpt>
<trkpt lat="42.085614" lon="23.621584"><ele>1939.2</ele><time>2026-03-08T07:00:32.000Z</time></trkpt>
<trkpt lat="42.085612" lon="23.621586"><ele>1939.2</ele><time>2026-03-08T07:00:33.000Z</time></trkpt>
<trkpt lat="42.08561" lon="23.621586"><ele>1939.2</ele><time>2026-03-08T07:00:34.000Z</time></trkpt>
<trkpt lat="42.085608" lon="23.621586"><ele>1939.2</ele><time>2026-03-08T07:00:35.000Z</time></trkpt>
<trkpt lat="42.085607" lon="23.621586"><ele>1939.2</ele><time>2026-03-08T07:00:36.000Z</time></trkpt>
<trkpt lat="42.085607" lon="23.621584"><ele>1939.1</ele><time>2026-03-08T07:00:37.000Z</time></trkpt>
<trkpt lat="42.085607" lon="23.621582"><ele>1939.1</ele><time>2026-03-08T07:00:38.000Z</time></trkpt>
<trkpt lat="42.085608" lon="23.621581"><ele>1939.1</ele><time>2026-03-08T07:00:39.000Z</time></trkpt>
<trkpt lat="42.085609" lon="23.62158"><ele>1939.1</ele><time>2026-03-08T07:00:40.000Z</time></trkpt>
<trkpt lat="42.08561" lon="23.621579"><ele>1939.1</ele><time>2026-03-08T07:00:41.000Z</time></trkpt>
<trkpt lat="42.08561" lon="23.621579"><ele>1939</ele><time>2026-03-08T07:00:42.000Z</time></trkpt>
<trkpt lat="42.085609" lon="23.621581"><ele>1939</ele><time>2026-03-08T07:00:43.000Z</time></trkpt>
<trkpt lat="42.085609" lon="23.621582"><ele>1939</ele><time>2026-03-08T07:00:44.000Z</time></trkpt>
<trkpt lat="42.085608" lon="23.621583"><ele>1939</ele><time>2026-03-08T07:00:45.000Z</time></trkpt>
<trkpt lat="42.085608" lon="23.621585"><ele>1939</ele><time>2026-03-08T07:00:46.000Z</time></trkpt>
<trkpt lat="42.085607" lon="23.621586"><ele>1939</ele><time>2026-03-08T07:00:47.000Z</time></trkpt>
<trkpt lat="42.085607" lon="23.621586"><ele>1939</ele><time>2026-03-08T07:00:48.000Z</time></trkpt>
<trkpt lat="42.085608" lon="23.621585"><ele>1939</ele><time>2026-03-08T07:00:49.000Z</time></trkpt>
<trkpt lat="42.085608" lon="23.621585"><ele>1939</ele><time>2026-03-08T07:00:50.000Z</time></trkpt>
<trkpt lat="42.085608" lon="23.621585"><ele>1939</ele><time>2026-03-08T07:00:51.000Z</time></trkpt>
<trkpt lat="42.08561" lon="23.621584"><ele>1939</ele><time>2026-03-08T07:00:52.000Z</time></trkpt>
<trkpt lat="42.085611" lon="23.621583"><ele>1939</ele><time>2026-03-08T07:00:53.000Z</time></trkpt>
<trkpt lat="42.085612" lon="23.621582"><ele>1939</ele><time>2026-03-08T07:00:54.000Z</time></trkpt>
<trkpt lat="42.085612" lon="23.621582"><ele>1939</ele><time>2026-03-08T07:00:55.000Z</time></trkpt>
<trkpt lat="42.085613" lon="23.621582"><ele>1939</ele><time>2026-03-08T07:00:56.000Z</time></trkpt>
<trkpt lat="42.085612" lon="23.621583"><ele>1939</ele><time>2026-03-08T07:00:57.000Z</time></trkpt>
<trkpt lat="42.08561" lon="23.621585"><ele>1939</ele><time>2026-03-08T07:00:58.000Z</time></trkpt>
<trkpt lat="42.08561" lon="23.621587"><ele>1939</ele><time>2026-03-08T07:00:59.000Z</time></trkpt>
<trkpt lat="42.085609" lon="23.621589"><ele>1939</ele><time>2026-03-08T07:01:00.000Z</time></trkpt>
<trkpt lat="42.085608" lon="23.62159"><ele>1939</ele><time>2026-03-08T07:01:01.000Z</time></trkpt>
<trkpt lat="42.085606" lon="23.621591"><ele>1939.3</ele><time>2026-03-08T07:01:02.000Z</time></trkpt>
<trkpt lat="42.085606" lon="23.621592"><ele>1939.3</ele><time>2026-03-08T07:01:03.000Z</time></trkpt>
<trkpt lat="42.085604" lon="23.621592"><ele>1939.3</ele><time>2026-03-08T07:01:04.000Z</time></trkpt>
<trkpt lat="42.085602" lon="23.621593"><ele>1939.3</ele><time>2026-03-08T07:01:05.000Z</time></trkpt>
<trkpt lat="42.085602" lon="23.621593"><ele>1939.3</ele><time>2026-03-08T07:01:06.000Z</time></trkpt>
<trkpt lat="42.085602" lon="23.621594"><ele>1939.4</ele><time>2026-03-08T07:01:07.000Z</time></trkpt>
<trkpt lat="42.085602" lon="23.621594"><ele>1939.4</ele><time>2026-03-08T07:01:08.000Z</time></trkpt>
<trkpt lat="42.085602" lon="23.621593"><ele>1939.4</ele><time>2026-03-08T07:01:09.000Z</time></trkpt>
<trkpt lat="42.085602" lon="23.621592"><ele>1939.4</ele><time>2026-03-08T07:01:10.000Z</time></trkpt>
<trkpt lat="42.085603" lon="23.621591"><ele>1939.4</ele><time>2026-03-08T07:01:11.000Z</time></trkpt>
<trkpt lat="42.085603" lon="23.62159"><ele>1939.4</ele><time>2026-03-08T07:01:12.000Z</time></trkpt>
<trkpt lat="42.085603" lon="23.62159"><ele>1939.4</ele><time>2026-03-08T07:01:13.000Z</time></trkpt>
<trkpt lat="42.085603" lon="23.621591"><ele>1939.4</ele><time>2026-03-08T07:01:14.000Z</time></trkpt>
<trkpt lat="42.085603" lon="23.621592"><ele>1939.4</ele><time>2026-03-08T07:01:15.000Z</time></trkpt>
<trkpt lat="42.085603" lon="23.621594"><ele>1939.4</ele><time>2026-03-08T07:01:16.000Z</time></trkpt>
<trkpt lat="42.085603" lon="23.621596"><ele>1939.4</ele><time>2026-03-08T07:01:17.000Z</time></trkpt>
<trkpt lat="42.085603" lon="23.621598"><ele>1939.4</ele><time>2026-03-08T07:01:18.000Z</time></trkpt>
<trkpt lat="42.085603" lon="23.621598"><ele>1939.4</ele><time>2026-03-08T07:01:19.000Z</time></trkpt>
<trkpt lat="42.085604" lon="23.621598"><ele>1939.4</ele><time>2026-03-08T07:01:20.000Z</time></trkpt>
<trkpt lat="42.085604" lon="23.621596"><ele>1939.4</ele><time>2026-03-08T07:01:21.000Z</time></trkpt>
<trkpt lat="42.085605" lon="23.621595"><ele>1939.4</ele><time>2026-03-08T07:01:22.000Z</time></trkpt>
<trkpt lat="42.085605" lon="23.621593"><ele>1939.4</ele><time>2026-03-08T07:01:23.000Z</time></trkpt>
<trkpt lat="42.085606" lon="23.621592"><ele>1939.4</ele><time>2026-03-08T07:01:24.000Z</time></trkpt>
<trkpt lat="42.085606" lon="23.621591"><ele>1939.4</ele><time>2026-03-08T07:01:25.000Z</time></trkpt>
<trkpt lat="42.085606" lon="23.62159"><ele>1939.4</ele><time>2026-03-08T07:01:26.000Z</time></trkpt>
<trkpt lat="42.085606" lon="23.62159"><ele>1939.3</ele><time>2026-03-08T07:01:27.000Z</time></trkpt>
<trkpt lat="42.085606" lon="23.62159"><ele>1939.3</ele><time>2026-03-08T07:01:28.000Z</time></trkpt>
<trkpt lat="42.085606" lon="23.62159"><ele>1939.3</ele><time>2026-03-08T07:01:29.000Z</time></trkpt>
<trkpt lat="42.085606" lon="23.62159"><ele>1939.3</ele><time>2026-03-08T07:01:30.000Z</time></trkpt>
<trkpt lat="42.085606" lon="23.62159"><ele>1939.3</ele><time>2026-03-08T07:01:31.000Z</time></trkpt>
<trkpt lat="42.085606" lon="23.62159"><ele>1938.9</ele><time>2026-03-08T07:01:32.000Z</time></trkpt>
<trkpt lat="42.085606" lon="23.62159"><ele>1938.9</ele><time>2026-03-08T07:01:33.000Z</time></trkpt>
<trkpt lat="42.085607" lon="23.621591"><ele>1938.9</ele><time>2026-03-08T07:01:34.000Z</time></trkpt>
<trkpt lat="42.085607" lon="23.621591"><ele>1938.9</ele><time>2026-03-08T07:01:35.000Z</time></trkpt>
<trkpt lat="42.085608" lon="23.621592"><ele>1938.9</ele><time>2026-03-08T07:01:36.000Z</time></trkpt>
<trkpt lat="42.085608" lon="23.621592"><ele>1938.8</ele><time>2026-03-08T07:01:37.000Z</time></trkpt>
<trkpt lat="42.085608" lon="23.621592"><ele>1938.8</ele><time>2026-03-08T07:01:38.000Z</time></trkpt>
<trkpt lat="42.085607" lon="23.621592"><ele>1938.8</ele><time>2026-03-08T07:01:39.000Z</time></trkpt>
<trkpt lat="42.085606" lon="23.621593"><ele>1938.8</ele><time>2026-03-08T07:01:40.000Z</time></trkpt>
<trkpt lat="42.085605" lon="23.621592"><ele>1938.8</ele><time>2026-03-08T07:01:41.000Z</time></trkpt>
<trkpt lat="42.085604" lon="23.621593"><ele>1938.9</ele><time>2026-03-08T07:01:42.000Z</time></trkpt>
<trkpt lat="42.085603" lon="23.621593"><ele>1938.9</ele><time>2026-03-08T07:01:43.000Z</time></trkpt>
<trkpt lat="42.085603" lon="23.621593"><ele>1938.9</ele><time>2026-03-08T07:01:44.000Z</time></trkpt>
<trkpt lat="42.085603" lon="23.621593"><ele>1938.9</ele><time>2026-03-08T07:01:45.000Z</time></trkpt>
<trkpt lat="42.085602" lon="23.621593"><ele>1938.9</ele><time>2026-03-08T07:01:46.000Z</time></trkpt>
<trkpt lat="42.085602" lon="23.621593"><ele>1939</ele><time>2026-03-08T07:01:47.000Z</time></trkpt>
<trkpt lat="42.085601" lon="23.621593"><ele>1939</ele><time>2026-03-08T07:01:48.000Z</time></trkpt>
<trkpt lat="42.085601" lon="23.621593"><ele>1939</ele><time>2026-03-08T07:01:49.000Z</time></trkpt>
<trkpt lat="42.0856" lon="23.621593"><ele>1939</ele><time>2026-03-08T07:01:50.000Z</time></trkpt>
<trkpt lat="42.0856" lon="23.621593"><ele>1939</ele><time>2026-03-08T07:01:51.000Z</time></trkpt>
<trkpt lat="42.085599" lon="23.621594"><ele>1939</ele><time>2026-03-08T07:01:52.000Z</time></trkpt>
<trkpt lat="42.0856" lon="23.621595"><ele>1939</ele><time>2026-03-08T07:01:53.000Z</time></trkpt>
<trkpt lat="42.0856" lon="23.621595"><ele>1939</ele><time>2026-03-08T07:01:54.000Z</time></trkpt>
<trkpt lat="42.085601" lon="23.621596"><ele>1939</ele><time>2026-03-08T07:01:55.000Z</time></trkpt>
<trkpt lat="42.085602" lon="23.621598"><ele>1939</ele><time>2026-03-08T07:01:56.000Z</time></trkpt>
<trkpt lat="42.085603" lon="23.6216"><ele>1938.9</ele><time>2026-03-08T07:01:57.000Z</time></trkpt>
<trkpt lat="42.085604" lon="23.621601"><ele>1938.9</ele><time>2026-03-08T07:01:58.000Z</time></trkpt>
<trkpt lat="42.085605" lon="23.621603"><ele>1938.9</ele><time>2026-03-08T07:01:59.000Z</time></trkpt>
<trkpt lat="42.085607" lon="23.621604"><ele>1938.9</ele><time>2026-03-08T07:02:00.000Z</time></trkpt>
<trkpt lat="42.085609" lon="23.621604"><ele>1938.9</ele><time>2026-03-08T07:02:01.000Z</time></trkpt>
<trkpt lat="42.085611" lon="23.621603"><ele>1938.7</ele><time>2026-03-08T07:02:02.000Z</time></trkpt>
<trkpt lat="42.085614" lon="23.621602"><ele>1938.7</ele><time>2026-03-08T07:02:03.000Z</time></trkpt>
<trkpt lat="42.085618" lon="23.621601"><ele>1938.7</ele><time>2026-03-08T07:02:04.000Z</time></trkpt>
<trkpt lat="42.08562" lon="23.621601"><ele>1938.7</ele><time>2026-03-08T07:02:05.000Z</time></trkpt>
<trkpt lat="42.085623" lon="23.6216"><ele>1938.7</ele><time>2026-03-08T07:02:06.000Z</time></trkpt>
<trkpt lat="42.085625" lon="23.621599"><ele>1938.7</ele><time>2026-03-08T07:02:07.000Z</time></trkpt>
<trkpt lat="42.085625" lon="23.621598"><ele>1938.7</ele><time>2026-03-08T07:02:08.000Z</time></trkpt>
<trkpt lat="42.085625" lon="23.621597"><ele>1938.7</ele><time>2026-03-08T07:02:09.000Z</time></trkpt>
<trkpt lat="42.085626" lon="23.621596"><ele>1938.7</ele><time>2026-03-08T07:02:10.000Z</time></trkpt>
<trkpt lat="42.085627" lon="23.621596"><ele>1938.7</ele><time>2026-03-08T07:02:11.000Z</time></trkpt>
<trkpt lat="42.085627" lon="23.621595"><ele>1938.8</ele><time>2026-03-08T07:02:12.000Z</time></trkpt>
<trkpt lat="42.085628" lon="23.621595"><ele>1938.8</ele><time>2026-03-08T07:02:13.000Z</time></trkpt>
<trkpt lat="42.085627" lon="23.621594"><ele>1938.8</ele><time>2026-03-08T07:02:14.000Z</time></trkpt>
<trkpt lat="42.085625" lon="23.621595"><ele>1938.8</ele><time>2026-03-08T07:02:15.000Z</time></trkpt>
<trkpt lat="42.085623" lon="23.621594"><ele>1938.8</ele><time>2026-03-08T07:02:16.000Z</time></trkpt>
<trkpt lat="42.085621" lon="23.621594"><ele>1939</ele><time>2026-03-08T07:02:17.000Z</time></trkpt>
<trkpt lat="42.08562" lon="23.621593"><ele>1939</ele><time>2026-03-08T07:02:18.000Z</time></trkpt>
<trkpt lat="42.085617" lon="23.621593"><ele>1939</ele><time>2026-03-08T07:02:19.000Z</time></trkpt>
<trkpt lat="42.085616" lon="23.621592"><ele>1939</ele><time>2026-03-08T07:02:20.000Z</time></trkpt>
<trkpt lat="42.085614" lon="23.621592"><ele>1939</ele><time>2026-03-08T07:02:21.000Z</time></trkpt>
<trkpt lat="42.085613" lon="23.621591"><ele>1939.2</ele><time>2026-03-08T07:02:22.000Z</time></trkpt>
<trkpt lat="42.085611" lon="23.621591"><ele>1939.2</ele><time>2026-03-08T07:02:23.000Z</time></trkpt>
<trkpt lat="42.08561" lon="23.62159"><ele>1939.2</ele><time>2026-03-08T07:02:24.000Z</time></trkpt>
<trkpt lat="42.085608" lon="23.621589"><ele>1939.2</ele><time>2026-03-08T07:02:25.000Z</time></trkpt>
<trkpt lat="42.085607" lon="23.621588"><ele>1939.2</ele><time>2026-03-08T07:02:26.000Z</time></trkpt>
<trkpt lat="42.085606" lon="23.621588"><ele>1939.1</ele><time>2026-03-08T07:02:27.000Z</time></trkpt>
<trkpt lat="42.085607" lon="23.621588"><ele>1939.1</ele><time>2026-03-08T07:02:28.000Z</time></trkpt>
<trkpt lat="42.085608" lon="23.621587"><ele>1939.1</ele><time>2026-03-08T07:02:29.000Z</time></trkpt>
<trkpt lat="42.08561" lon="23.621587"><ele>1939.1</ele><time>2026-03-08T07:02:30.000Z</time></trkpt>
<trkpt lat="42.085612" lon="23.621586"><ele>1939.1</ele><time>2026-03-08T07:02:31.000Z</time></trkpt>
<trkpt lat="42.085613" lon="23.621585"><ele>1939</ele><time>2026-03-08T07:02:32.000Z</time></trkpt>
<trkpt lat="42.085614" lon="23.621584"><ele>1939</ele><time>2026-03-08T07:02:33.000Z</time></trkpt>
<trkpt lat="42.085615" lon="23.621583"><ele>1939</ele><time>2026-03-08T07:02:34.000Z</time></trkpt>
<trkpt lat="42.085615" lon="23.621582"><ele>1939</ele><time>2026-03-08T07:02:35.000Z</time></trkpt>
<trkpt lat="42.085616" lon="23.62158"><ele>1939</ele><time>2026-03-08T07:02:36.000Z</time></trkpt>
<trkpt lat="42.085617" lon="23.621579"><ele>1938.8</ele><time>2026-03-08T07:02:37.000Z</time></trkpt>
<trkpt lat="42.085617" lon="23.621577"><ele>1938.8</ele><time>2026-03-08T07:02:38.000Z</time></trkpt>
<trkpt lat="42.085618" lon="23.621575"><ele>1938.8</ele><time>2026-03-08T07:02:39.000Z</time></trkpt>
<trkpt lat="42.085618" lon="23.621575"><ele>1938.8</ele><time>2026-03-08T07:02:40.000Z</time></trkpt>
<trkpt lat="42.085618" lon="23.621575"><ele>1938.8</ele><time>2026-03-08T07:02:41.000Z</time></trkpt>
<trkpt lat="42.085617" lon="23.621575"><ele>1938.8</ele><time>2026-03-08T07:02:42.000Z</time></trkpt>
<trkpt lat="42.085617" lon="23.621576"><ele>1938.8</ele><time>2026-03-08T07:02:43.000Z</time></trkpt>
<trkpt lat="42.085617" lon="23.621578"><ele>1938.8</ele><time>2026-03-08T07:02:44.000Z</time></trkpt>
<trkpt lat="42.085617" lon="23.621579"><ele>1938.8</ele><time>2026-03-08T07:02:45.000Z</time></trkpt>
<trkpt lat="42.085618" lon="23.62158"><ele>1938.8</ele><time>2026-03-08T07:02:46.000Z</time></trkpt>
<trkpt lat="42.08562" lon="23.62158"><ele>1938.7</ele><time>2026-03-08T07:02:47.000Z</time></trkpt>
<trkpt lat="42.085621" lon="23.621581"><ele>1938.7</ele><time>2026-03-08T07:02:48.000Z</time></trkpt>
<trkpt lat="42.085622" lon="23.621582"><ele>1938.7</ele><time>2026-03-08T07:02:49.000Z</time></trkpt>
<trkpt lat="42.085623" lon="23.621582"><ele>1938.7</ele><time>2026-03-08T07:02:50.000Z</time></trkpt>
<trkpt lat="42.085624" lon="23.621583"><ele>1938.7</ele><time>2026-03-08T07:02:51.000Z</time></trkpt>
<trkpt lat="42.085624" lon="23.621583"><ele>1938.8</ele><time>2026-03-08T07:02:52.000Z</time></trkpt>
<trkpt lat="42.085623" lon="23.621584"><ele>1938.8</ele><time>2026-03-08T07:02:53.000Z</time></trkpt>
<trkpt lat="42.085621" lon="23.621585"><ele>1938.8</ele><time>2026-03-08T07:02:54.000Z</time></trkpt>
<trkpt lat="42.085619" lon="23.621585"><ele>1938.8</ele><time>2026-03-08T07:02:55.000Z</time></trkpt>
<trkpt lat="42.085618" lon="23.621586"><ele>1938.8</ele><time>2026-03-08T07:02:56.000Z</time></trkpt>
<trkpt lat="42.085616" lon="23.621589"><ele>1938.9</ele><time>2026-03-08T07:02:57.000Z</time></trkpt>
<trkpt lat="42.085616" lon="23.62159"><ele>1938.9</ele><time>2026-03-08T07:02:58.000Z</time></trkpt>
<trkpt lat="42.085616" lon="23.621591"><ele>1938.9</ele><time>2026-03-08T07:02:59.000Z</time></trkpt>
<trkpt lat="42.085616" lon="23.621591"><ele>1938.9</ele><time>2026-03-08T07:03:00.000Z</time></trkpt>
<trkpt lat="42.085616" lon="23.621592"><ele>1938.9</ele><time>2026-03-08T07:03:01.000Z</time></trkpt>
<trkpt lat="42.085616" lon="23.621591"><ele>1938.8</ele><time>2026-03-08T07:03:02.000Z</time></trkpt>
<trkpt lat="42.085615" lon="23.621591"><ele>1938.8</ele><time>2026-03-08T07:03:03.000Z</time></trkpt>
<trkpt lat="42.085614" lon="23.621591"><ele>1938.8</ele><time>2026-03-08T07:03:04.000Z</time></trkpt>
<trkpt lat="42.085614" lon="23.621592"><ele>1938.8</ele><time>2026-03-08T07:03:05.000Z</time></trkpt>
<trkpt lat="42.085614" lon="23.621592"><ele>1938.8</ele><time>2026-03-08T07:03:06.000Z</time></trkpt>
<trkpt lat="42.085614" lon="23.621592"><ele>1938.7</ele><time>2026-03-08T07:03:07.000Z</time></trkpt>
<trkpt lat="42.085615" lon="23.621591"><ele>1938.7</ele><time>2026-03-08T07:03:08.000Z</time></trkpt>
<trkpt lat="42.085615" lon="23.621591"><ele>1938.7</ele><time>2026-03-08T07:03:09.000Z</time></trkpt>
<trkpt lat="42.085615" lon="23.621591"><ele>1938.7</ele><time>2026-03-08T07:03:10.000Z</time></trkpt>
<trkpt lat="42.085614" lon="23.62159"><ele>1938.7</ele><time>2026-03-08T07:03:11.000Z</time></trkpt>
<trkpt lat="42.085612" lon="23.62159"><ele>1938.5</ele><time>2026-03-08T07:03:12.000Z</time></trkpt>
<trkpt lat="42.08561" lon="23.62159"><ele>1938.5</ele><time>2026-03-08T07:03:13.000Z</time></trkpt>
<trkpt lat="42.085608" lon="23.62159"><ele>1938.5</ele><time>2026-03-08T07:03:14.000Z</time></trkpt>
<trkpt lat="42.085606" lon="23.62159"><ele>1938.5</ele><time>2026-03-08T07:03:15.000Z</time></trkpt>
<trkpt lat="42.085607" lon="23.621591"><ele>1938.5</ele><time>2026-03-08T07:03:16.000Z</time></trkpt>
<trkpt lat="42.085607" lon="23.621591"><ele>1938.3</ele><time>2026-03-08T07:03:17.000Z</time></trkpt>
<trkpt lat="42.085608" lon="23.621592"><ele>1938.3</ele><time>2026-03-08T07:03:18.000Z</time></trkpt>
<trkpt lat="42.085609" lon="23.621592"><ele>1938.3</ele><time>2026-03-08T07:03:19.000Z</time></trkpt>
<trkpt lat="42.085609" lon="23.621592"><ele>1938.3</ele><time>2026-03-08T07:03:20.000Z</time></trkpt>
<trkpt lat="42.085608" lon="23.621591"><ele>1938.3</ele><time>2026-03-08T07:03:21.000Z</time></trkpt>
<trkpt lat="42.085607" lon="23.62159"><ele>1938</ele><time>2026-03-08T07:03:22.000Z</time></trkpt>
<trkpt lat="42.085607" lon="23.62159"><ele>1938</ele><time>2026-03-08T07:03:23.000Z</time></trkpt>
<trkpt lat="42.085607" lon="23.621589"><ele>1938</ele><time>2026-03-08T07:03:24.000Z</time></trkpt>
<trkpt lat="42.085606" lon="23.62159"><ele>1938</ele><time>2026-03-08T07:03:25.000Z</time></trkpt>
<trkpt lat="42.085604" lon="23.62159"><ele>1938</ele><time>2026-03-08T07:03:26.000Z</time></trkpt>
<trkpt lat="42.085603" lon="23.62159"><ele>1938</ele><time>2026-03-08T07:03:27.000Z</time></trkpt>
<trkpt lat="42.0856" lon="23.62159"><ele>1938</ele><time>2026-03-08T07:03:28.000Z</time></trkpt>
<trkpt lat="42.085598" lon="23.621591"><ele>1938</ele><time>2026-03-08T07:03:29.000Z</time></trkpt>
<trkpt lat="42.085595" lon="23.621591"><ele>1938</ele><time>2026-03-08T07:03:30.000Z</time></trkpt>
<trkpt lat="42.085593" lon="23.621592"><ele>1938</ele><time>2026-03-08T07:03:31.000Z</time></trkpt>
<trkpt lat="42.085592" lon="23.621594"><ele>1938</ele><time>2026-03-08T07:03:32.000Z</time></trkpt>
<trkpt lat="42.085593" lon="23.621595"><ele>1938</ele><time>2026-03-08T07:03:33.000Z</time></trkpt>
<trkpt lat="42.085594" lon="23.621596"><ele>1938</ele><time>2026-03-08T07:03:34.000Z</time></trkpt>
<trkpt lat="42.085594" lon="23.621598"><ele>1938</ele><time>2026-03-08T07:03:35.000Z</time></trkpt>
<trkpt lat="42.085595" lon="23.6216"><ele>1938</ele><time>2026-03-08T07:03:36.000Z</time></trkpt>
<trkpt lat="42.085596" lon="23.621601"><ele>1938.2</ele><time>2026-03-08T07:03:37.000Z</time></trkpt>
<trkpt lat="42.085597" lon="23.621603"><ele>1938.2</ele><time>2026-03-08T07:03:38.000Z</time></trkpt>
<trkpt lat="42.085597" lon="23.621604"><ele>1938.2</ele><time>2026-03-08T07:03:39.000Z</time></trkpt>
<trkpt lat="42.085599" lon="23.621605"><ele>1938.2</ele><time>2026-03-08T07:03:40.000Z</time></trkpt>
<trkpt lat="42.085601" lon="23.621605"><ele>1938.2</ele><time>2026-03-08T07:03:41.000Z</time></trkpt>
<trkpt lat="42.085601" lon="23.621606"><ele>1938.4</ele><time>2026-03-08T07:03:42.000Z</time></trkpt>
<trkpt lat="42.085601" lon="23.621606"><ele>1938.4</ele><time>2026-03-08T07:03:43.000Z</time></trkpt>
<trkpt lat="42.085601" lon="23.621605"><ele>1938.4</ele><time>2026-03-08T07:03:44.000Z</time></trkpt>
<trkpt lat="42.0856" lon="23.621605"><ele>1938.4</ele><time>2026-03-08T07:03:45.000Z</time></trkpt>
<trkpt lat="42.085599" lon="23.621605"><ele>1938.4</ele><time>2026-03-08T07:03:46.000Z</time></trkpt>
<trkpt lat="42.0856" lon="23.621604"><ele>1938.8</ele><time>2026-03-08T07:03:47.000Z</time></trkpt>
<trkpt lat="42.0856" lon="23.621604"><ele>1938.8</ele><time>2026-03-08T07:03:48.000Z</time></trkpt>
<trkpt lat="42.085601" lon="23.621604"><ele>1938.8</ele><time>2026-03-08T07:03:49.000Z</time></trkpt>
<trkpt lat="42.085602" lon="23.621604"><ele>1938.8</ele><time>2026-03-08T07:03:50.000Z</time></trkpt>
<trkpt lat="42.085603" lon="23.621604"><ele>1938.8</ele><time>2026-03-08T07:03:51.000Z</time></trkpt>
<trkpt lat="42.085603" lon="23.621604"><ele>1938.9</ele><time>2026-03-08T07:03:52.000Z</time></trkpt>
<trkpt lat="42.085604" lon="23.621603"><ele>1938.9</ele><time>2026-03-08T07:03:53.000Z</time></trkpt>
<trkpt lat="42.085605" lon="23.621602"><ele>1938.9</ele><time>2026-03-08T07:03:54.000Z</time></trkpt>
<trkpt lat="42.085605" lon="23.621601"><ele>1938.9</ele><time>2026-03-08T07:03:55.000Z</time></trkpt>
<trkpt lat="42.085606" lon="23.6216"><ele>1938.9</ele><time>2026-03-08T07:03:56.000Z</time></trkpt>
<trkpt lat="42.085606" lon="23.621599"><ele>1938.9</ele><time>2026-03-08T07:03:57.000Z</time></trkpt>
<trkpt lat="42.085606" lon="23.621599"><ele>1938.9</ele><time>2026-03-08T07:03:58.000Z</time></trkpt>
<trkpt lat="42.085606" lon="23.621599"><ele>1938.9</ele><time>2026-03-08T07:03:59.000Z</time></trkpt>
<trkpt lat="42.085606" lon="23.621599"><ele>1938.9</ele><time>2026-03-08T07:04:00.000Z</time></trkpt>
<trkpt lat="42.085607" lon="23.621599"><ele>1938.9</ele><time>2026-03-08T07:04:01.000Z</time></trkpt>
<trkpt lat="42.085607" lon="23.621599"><ele>1938.9</ele><time>2026-03-08T07:04:02.000Z</time></trkpt>
<trkpt lat="42.085608" lon="23.621599"><ele>1938.9</ele><time>2026-03-08T07:04:03.000Z</time></trkpt>
<trkpt lat="42.085608" lon="23.621599"><ele>1938.9</ele><time>2026-03-08T07:04:04.000Z</time></trkpt>
<trkpt lat="42.085608" lon="23.621599"><ele>1938.9</ele><time>2026-03-08T07:04:05.000Z</time></trkpt>
<trkpt lat="42.085607" lon="23.621599"><ele>1938.9</ele><time>2026-03-08T07:04:06.000Z</time></trkpt>
<trkpt lat="42.085606" lon="23.621599"><ele>1938.9</ele><time>2026-03-08T07:04:07.000Z</time></trkpt>
<trkpt lat="42.085605" lon="23.6216"><ele>1938.9</ele><time>2026-03-08T07:04:08.000Z</time></trkpt>
<trkpt lat="42.085604" lon="23.621601"><ele>1938.9</ele><time>2026-03-08T07:04:09.000Z</time></trkpt>
<trkpt lat="42.085604" lon="23.621601"><ele>1938.9</ele><time>2026-03-08T07:04:10.000Z</time></trkpt>
<trkpt lat="42.085603" lon="23.621602"><ele>1938.9</ele><time>2026-03-08T07:04:11.000Z</time></trkpt>
<trkpt lat="42.085602" lon="23.621602"><ele>1938.9</ele><time>2026-03-08T07:04:12.000Z</time></trkpt>
<trkpt lat="42.085601" lon="23.621604"><ele>1938.9</ele><time>2026-03-08T07:04:13.000Z</time></trkpt>
<trkpt lat="42.085599" lon="23.621604"><ele>1938.9</ele><time>2026-03-08T07:04:14.000Z</time></trkpt>
<trkpt lat="42.085598" lon="23.621604"><ele>1938.9</ele><time>2026-03-08T07:04:15.000Z</time></trkpt>
<trkpt lat="42.085596" lon="23.621604"><ele>1938.9</ele><time>2026-03-08T07:04:16.000Z</time></trkpt>
<trkpt lat="42.085596" lon="23.621604"><ele>1938.9</ele><time>2026-03-08T07:04:17.000Z</time></trkpt>
<trkpt lat="42.085596" lon="23.621601"><ele>1938.9</ele><time>2026-03-08T07:04:18.000Z</time></trkpt>
<trkpt lat="42.085596" lon="23.621599"><ele>1938.9</ele><time>2026-03-08T07:04:19.000Z</time></trkpt>
<trkpt lat="42.085596" lon="23.621597"><ele>1938.9</ele><time>2026-03-08T07:04:20.000Z</time></trkpt>
<trkpt lat="42.085595" lon="23.621594"><ele>1938.9</ele><time>2026-03-08T07:04:21.000Z</time></trkpt>
<trkpt lat="42.085595" lon="23.62159"><ele>1938.9</ele><time>2026-03-08T07:04:22.000Z</time></trkpt>
<trkpt lat="42.085594" lon="23.621588"><ele>1938.9</ele><time>2026-03-08T07:04:23.000Z</time></trkpt>
<trkpt lat="42.085594" lon="23.621586"><ele>1938.9</ele><time>2026-03-08T07:04:24.000Z</time></trkpt>
<trkpt lat="42.085593" lon="23.621584"><ele>1938.9</ele><time>2026-03-08T07:04:25.000Z</time></trkpt>
<trkpt lat="42.085593" lon="23.621584"><ele>1938.9</ele><time>2026-03-08T07:04:26.000Z</time></trkpt>
<trkpt lat="42.085592" lon="23.621585"><ele>1938.9</ele><time>2026-03-08T07:04:27.000Z</time></trkpt>
<trkpt lat="42.085592" lon="23.621586"><ele>1938.9</ele><time>2026-03-08T07:04:28.000Z</time></trkpt>
<trkpt lat="42.085592" lon="23.621588"><ele>1938.9</ele><time>2026-03-08T07:04:29.000Z</time></trkpt>
<trkpt lat="42.085592" lon="23.621589"><ele>1938.9</ele><time>2026-03-08T07:04:30.000Z</time></trkpt>
<trkpt lat="42.085593" lon="23.621589"><ele>1938.9</ele><time>2026-03-08T07:04:31.000Z</time></trkpt>
<trkpt lat="42.085594" lon="23.621589"><ele>1938.8</ele><time>2026-03-08T07:04:32.000Z</time></trkpt>
<trkpt lat="42.085595" lon="23.621589"><ele>1938.8</ele><time>2026-03-08T07:04:33.000Z</time></trkpt>
<trkpt lat="42.085598" lon="23.621588"><ele>1938.8</ele><time>2026-03-08T07:04:34.000Z</time></trkpt>
<trkpt lat="42.0856" lon="23.621587"><ele>1938.8</ele><time>2026-03-08T07:04:35.000Z</time></trkpt>
<trkpt lat="42.085602" lon="23.621587"><ele>1938.8</ele><time>2026-03-08T07:04:36.000Z</time></trkpt>
<trkpt lat="42.085604" lon="23.621587"><ele>1938.9</ele><time>2026-03-08T07:04:37.000Z</time></trkpt>
<trkpt lat="42.085605" lon="23.621586"><ele>1938.9</ele><time>2026-03-08T07:04:38.000Z</time></trkpt>
<trkpt lat="42.085606" lon="23.621587"><ele>1938.9</ele><time>2026-03-08T07:04:39.000Z</time></trkpt>
<trkpt lat="42.085607" lon="23.621587"><ele>1938.9</ele><time>2026-03-08T07:04:40.000Z</time></trkpt>
<trkpt lat="42.085608" lon="23.621587"><ele>1938.9</ele><time>2026-03-08T07:04:41.000Z</time></trkpt>
<trkpt lat="42.08561" lon="23.621587"><ele>1939</ele><time>2026-03-08T07:04:42.000Z</time></trkpt>
<trkpt lat="42.085612" lon="23.621586"><ele>1939</ele><time>2026-03-08T07:04:43.000Z</time></trkpt>
<trkpt lat="42.085613" lon="23.621585"><ele>1939</ele><time>2026-03-08T07:04:44.000Z</time></trkpt>
<trkpt lat="42.085614" lon="23.621584"><ele>1939</ele><time>2026-03-08T07:04:45.000Z</time></trkpt>
<trkpt lat="42.085614" lon="23.621583"><ele>1939</ele><time>2026-03-08T07:04:46.000Z</time></trkpt>
<trkpt lat="42.085614" lon="23.621583"><ele>1939.3</ele><time>2026-03-08T07:04:47.000Z</time></trkpt>
<trkpt lat="42.085615" lon="23.621583"><ele>1939.3</ele><time>2026-03-08T07:04:48.000Z</time></trkpt>
<trkpt lat="42.085615" lon="23.621583"><ele>1939.3</ele><time>2026-03-08T07:04:49.000Z</time></trkpt>
<trkpt lat="42.085616" lon="23.621584"><ele>1939.3</ele><time>2026-03-08T07:04:50.000Z</time></trkpt>
<trkpt lat="42.085617" lon="23.621585"><ele>1939.3</ele><time>2026-03-08T07:04:51.000Z</time></trkpt>
<trkpt lat="42.085619" lon="23.621586"><ele>1939.3</ele><time>2026-03-08T07:04:52.000Z</time></trkpt>
<trkpt lat="42.085619" lon="23.621587"><ele>1939.3</ele><time>2026-03-08T07:04:53.000Z</time></trkpt>
<trkpt lat="42.085619" lon="23.621588"><ele>1939.3</ele><time>2026-03-08T07:04:54.000Z</time></trkpt>
<trkpt lat="42.085618" lon="23.621587"><ele>1939.3</ele><time>2026-03-08T07:04:55.000Z</time></trkpt>
<trkpt lat="42.085617" lon="23.621586"><ele>1939.3</ele><time>2026-03-08T07:04:56.000Z</time></trkpt>
<trkpt lat="42.085615" lon="23.621586"><ele>1939.2</ele><time>2026-03-08T07:04:57.000Z</time></trkpt>
<trkpt lat="42.085613" lon="23.621586"><ele>1939.2</ele><time>2026-03-08T07:04:58.000Z</time></trkpt>
<trkpt lat="42.085611" lon="23.621587"><ele>1939.2</ele><time>2026-03-08T07:04:59.000Z</time></trkpt>
<trkpt lat="42.08561" lon="23.621588"><ele>1939.2</ele><time>2026-03-08T07:05:00.000Z</time></trkpt>
<trkpt lat="42.085608" lon="23.62159"><ele>1939.2</ele><time>2026-03-08T07:05:01.000Z</time></trkpt>
<trkpt lat="42.085607" lon="23.621592"><ele>1938.9</ele><time>2026-03-08T07:05:02.000Z</time></trkpt>
<trkpt lat="42.085606" lon="23.621592"><ele>1938.9</ele><time>2026-03-08T07:05:03.000Z</time></trkpt>
<trkpt lat="42.085604" lon="23.621592"><ele>1938.9</ele><time>2026-03-08T07:05:04.000Z</time></trkpt>
<trkpt lat="42.085602" lon="23.621591"><ele>1938.9</ele><time>2026-03-08T07:05:05.000Z</time></trkpt>
<trkpt lat="42.0856" lon="23.621591"><ele>1938.9</ele><time>2026-03-08T07:05:06.000Z</time></trkpt>
<trkpt lat="42.085597" lon="23.62159"><ele>1938.8</ele><time>2026-03-08T07:05:07.000Z</time></trkpt>
<trkpt lat="42.085596" lon="23.621588"><ele>1938.8</ele><time>2026-03-08T07:05:08.000Z</time></trkpt>
<trkpt lat="42.085595" lon="23.621587"><ele>1938.8</ele><time>2026-03-08T07:05:09.000Z</time></trkpt>
<trkpt lat="42.085594" lon="23.621586"><ele>1938.8</ele><time>2026-03-08T07:05:10.000Z</time></trkpt>
<trkpt lat="42.085594" lon="23.621585"><ele>1938.8</ele><time>2026-03-08T07:05:11.000Z</time></trkpt>
<trkpt lat="42.085593" lon="23.621584"><ele>1938.8</ele><time>2026-03-08T07:05:12.000Z</time></trkpt>
<trkpt lat="42.085593" lon="23.621584"><ele>1938.8</ele><time>2026-03-08T07:05:13.000Z</time></trkpt>
<trkpt lat="42.085591" lon="23.621585"><ele>1938.8</ele><time>2026-03-08T07:05:14.000Z</time></trkpt>
<trkpt lat="42.08559" lon="23.621586"><ele>1938.8</ele><time>2026-03-08T07:05:15.000Z</time></trkpt>
<trkpt lat="42.085589" lon="23.621588"><ele>1938.8</ele><time>2026-03-08T07:05:16.000Z</time></trkpt>
<trkpt lat="42.085588" lon="23.621589"><ele>1939</ele><time>2026-03-08T07:05:17.000Z</time></trkpt>
<trkpt lat="42.085588" lon="23.621589"><ele>1939</ele><time>2026-03-08T07:05:18.000Z</time></trkpt>
<trkpt lat="42.085589" lon="23.621589"><ele>1939</ele><time>2026-03-08T07:05:19.000Z</time></trkpt>
<trkpt lat="42.08559" lon="23.621589"><ele>1939</ele><time>2026-03-08T07:05:20.000Z</time></trkpt>
<trkpt lat="42.085591" lon="23.621588"><ele>1939</ele><time>2026-03-08T07:05:21.000Z</time></trkpt>
<trkpt lat="42.085593" lon="23.621588"><ele>1939.1</ele><time>2026-03-08T07:05:22.000Z</time></trkpt>
<trkpt lat="42.085594" lon="23.621588"><ele>1939.1</ele><time>2026-03-08T07:05:23.000Z</time></trkpt>
<trkpt lat="42.085596" lon="23.621588"><ele>1939.1</ele><time>2026-03-08T07:05:24.000Z</time></trkpt>
<trkpt lat="42.085598" lon="23.62159"><ele>1939.1</ele><time>2026-03-08T07:05:25.000Z</time></trkpt>
<trkpt lat="42.085599" lon="23.621591"><ele>1939.1</ele><time>2026-03-08T07:05:26.000Z</time></trkpt>
<trkpt lat="42.0856" lon="23.621592"><ele>1939.2</ele><time>2026-03-08T07:05:27.000Z</time></trkpt>
<trkpt lat="42.085602" lon="23.621593"><ele>1939.2</ele><time>2026-03-08T07:05:28.000Z</time></trkpt>
<trkpt lat="42.085602" lon="23.621593"><ele>1939.2</ele><time>2026-03-08T07:05:29.000Z</time></trkpt>
<trkpt lat="42.085602" lon="23.621592"><ele>1939.2</ele><time>2026-03-08T07:05:30.000Z</time></trkpt>
<trkpt lat="42.085602" lon="23.621591"><ele>1939.2</ele><time>2026-03-08T07:05:31.000Z</time></trkpt>
<trkpt lat="42.085602" lon="23.621591"><ele>1939.2</ele><time>2026-03-08T07:05:32.000Z</time></trkpt>
<trkpt lat="42.085603" lon="23.62159"><ele>1939.2</ele><time>2026-03-08T07:05:33.000Z</time></trkpt>
<trkpt lat="42.085605" lon="23.621588"><ele>1939.2</ele><time>2026-03-08T07:05:34.000Z</time></trkpt>
<trkpt lat="42.085608" lon="23.621587"><ele>1939.2</ele><time>2026-03-08T07:05:35.000Z</time></trkpt>
<trkpt lat="42.085611" lon="23.621586"><ele>1939.2</ele><time>2026-03-08T07:05:36.000Z</time></trkpt>
<trkpt lat="42.085614" lon="23.621585"><ele>1939.1</ele><time>2026-03-08T07:05:37.000Z</time></trkpt>
<trkpt lat="42.085618" lon="23.621585"><ele>1939.1</ele><time>2026-03-08T07:05:38.000Z</time></trkpt>
<trkpt lat="42.08562" lon="23.621586"><ele>1939.1</ele><time>2026-03-08T07:05:39.000Z</time></trkpt>
<trkpt lat="42.085622" lon="23.621586"><ele>1939.1</ele><time>2026-03-08T07:05:40.000Z</time></trkpt>
<trkpt lat="42.085623" lon="23.621586"><ele>1939.1</ele><time>2026-03-08T07:05:41.000Z</time></trkpt>
<trkpt lat="42.085624" lon="23.621585"><ele>1939</ele><time>2026-03-08T07:05:42.000Z</time></trkpt>
<trkpt lat="42.085623" lon="23.621585"><ele>1939</ele><time>2026-03-08T07:05:43.000Z</time></trkpt>
<trkpt lat="42.085622" lon="23.621583"><ele>1939</ele><time>2026-03-08T07:05:44.000Z</time></trkpt>
<trkpt lat="42.085621" lon="23.621581"><ele>1939</ele><time>2026-03-08T07:05:45.000Z</time></trkpt>
<trkpt lat="42.085621" lon="23.621578"><ele>1939</ele><time>2026-03-08T07:05:46.000Z</time></trkpt>
<trkpt lat="42.08562" lon="23.621576"><ele>1938.9</ele><time>2026-03-08T07:05:47.000Z</time></trkpt>
<trkpt lat="42.085621" lon="23.621572"><ele>1938.9</ele><time>2026-03-08T07:05:48.000Z</time></trkpt>
<trkpt lat="42.085622" lon="23.62157"><ele>1938.9</ele><time>2026-03-08T07:05:49.000Z</time></trkpt>
<trkpt lat="42.085622" lon="23.621567"><ele>1938.9</ele><time>2026-03-08T07:05:50.000Z</time></trkpt>
<trkpt lat="42.08562" lon="23.621566"><ele>1938.9</ele><time>2026-03-08T07:05:51.000Z</time></trkpt>
<trkpt lat="42.085619" lon="23.621564"><ele>1939.1</ele><time>2026-03-08T07:05:52.000Z</time></trkpt>
<trkpt lat="42.085617" lon="23.621564"><ele>1939.1</ele><time>2026-03-08T07:05:53.000Z</time></trkpt>
<trkpt lat="42.085615" lon="23.621564"><ele>1939.1</ele><time>2026-03-08T07:05:54.000Z</time></trkpt>
<trkpt lat="42.085613" lon="23.621564"><ele>1939.1</ele><time>2026-03-08T07:05:55.000Z</time></trkpt>
<trkpt lat="42.085612" lon="23.621564"><ele>1939.1</ele><time>2026-03-08T07:05:56.000Z</time></trkpt>
<trkpt lat="42.085612" lon="23.621565"><ele>1939.1</ele><time>2026-03-08T07:05:57.000Z</time></trkpt>
<trkpt lat="42.085611" lon="23.621565"><ele>1939.1</ele><time>2026-03-08T07:05:58.000Z</time></trkpt>
<trkpt lat="42.085611" lon="23.621566"><ele>1939.1</ele><time>2026-03-08T07:05:59.000Z</time></trkpt>
<trkpt lat="42.08561" lon="23.621567"><ele>1939.1</ele><time>2026-03-08T07:06:00.000Z</time></trkpt>
<trkpt lat="42.085607" lon="23.621569"><ele>1939.1</ele><time>2026-03-08T07:06:01.000Z</time></trkpt>
<trkpt lat="42.085605" lon="23.621571"><ele>1939.2</ele><time>2026-03-08T07:06:02.000Z</time></trkpt>
<trkpt lat="42.085602" lon="23.621573"><ele>1939.2</ele><time>2026-03-08T07:06:03.000Z</time></trkpt>
<trkpt lat="42.0856" lon="23.621576"><ele>1939.2</ele><time>2026-03-08T07:06:04.000Z</time></trkpt>
<trkpt lat="42.0856" lon="23.621579"><ele>1939.2</ele><time>2026-03-08T07:06:05.000Z</time></trkpt>
<trkpt lat="42.085601" lon="23.621581"><ele>1939.2</ele><time>2026-03-08T07:06:06.000Z</time></trkpt>
<trkpt lat="42.085601" lon="23.621583"><ele>1939.2</ele><time>2026-03-08T07:06:07.000Z</time></trkpt>
<trkpt lat="42.085602" lon="23.621584"><ele>1939.2</ele><time>2026-03-08T07:06:08.000Z</time></trkpt>
<trkpt lat="42.085603" lon="23.621584"><ele>1939.2</ele><time>2026-03-08T07:06:09.000Z</time></trkpt>
<trkpt lat="42.085603" lon="23.621584"><ele>1939.2</ele><time>2026-03-08T07:06:10.000Z</time></trkpt>
<trkpt lat="42.085604" lon="23.621584"><ele>1939.2</ele><time>2026-03-08T07:06:11.000Z</time></trkpt>
<trkpt lat="42.085604" lon="23.621584"><ele>1939.1</ele><time>2026-03-08T07:06:12.000Z</time></trkpt>
<trkpt lat="42.085605" lon="23.621584"><ele>1939.1</ele><time>2026-03-08T07:06:13.000Z</time></trkpt>
<trkpt lat="42.085605" lon="23.621585"><ele>1939.1</ele><time>2026-03-08T07:06:14.000Z</time></trkpt>
<trkpt lat="42.085605" lon="23.621586"><ele>1939.1</ele><time>2026-03-08T07:06:15.000Z</time></trkpt>
<trkpt lat="42.085606" lon="23.621586"><ele>1939.1</ele><time>2026-03-08T07:06:16.000Z</time></trkpt>
<trkpt lat="42.085606" lon="23.621589"><ele>1939.2</ele><time>2026-03-08T07:06:17.000Z</time></trkpt>
<trkpt lat="42.085605" lon="23.621593"><ele>1939.2</ele><time>2026-03-08T07:06:18.000Z</time></trkpt>
<trkpt lat="42.085606" lon="23.621598"><ele>1939.2</ele><time>2026-03-08T07:06:19.000Z</time></trkpt>
<trkpt lat="42.085608" lon="23.621603"><ele>1939.2</ele><time>2026-03-08T07:06:20.000Z</time></trkpt>
<trkpt lat="42.085611" lon="23.621611"><ele>1939.2</ele><time>2026-03-08T07:06:21.000Z</time></trkpt>
<trkpt lat="42.085614" lon="23.621617"><ele>1939.1</ele><time>2026-03-08T07:06:22.000Z</time></trkpt>
<trkpt lat="42.08562" lon="23.621621"><ele>1939.1</ele><time>2026-03-08T07:06:23.000Z</time></trkpt>
<trkpt lat="42.085627" lon="23.621626"><ele>1939.1</ele><time>2026-03-08T07:06:24.000Z</time></trkpt>
<trkpt lat="42.085635" lon="23.621632"><ele>1939.1</ele><time>2026-03-08T07:06:25.000Z</time></trkpt>
<trkpt lat="42.085644" lon="23.621637"><ele>1939.1</ele><time>2026-03-08T07:06:26.000Z</time></trkpt>
<trkpt lat="42.085653" lon="23.621643"><ele>1939.1</ele><time>2026-03-08T07:06:27.000Z</time></trkpt>
<trkpt lat="42.085662" lon="23.621649"><ele>1939.1</ele><time>2026-03-08T07:06:28.000Z</time></trkpt>
<trkpt lat="42.085671" lon="23.621656"><ele>1939.1</ele><time>2026-03-08T07:06:29.000Z</time></trkpt>
<trkpt lat="42.08568" lon="23.621663"><ele>1939.1</ele><time>2026-03-08T07:06:30.000Z</time></trkpt>
<trkpt lat="42.085691" lon="23.62167"><ele>1939.1</ele><time>2026-03-08T07:06:31.000Z</time></trkpt>
<trkpt lat="42.085702" lon="23.621678"><ele>1939</ele><time>2026-03-08T07:06:32.000Z</time></trkpt>
<trkpt lat="42.085713" lon="23.621687"><ele>1939</ele><time>2026-03-08T07:06:33.000Z</time></trkpt>
<trkpt lat="42.085725" lon="23.621695"><ele>1939</ele><time>2026-03-08T07:06:34.000Z</time></trkpt>
<trkpt lat="42.085735" lon="23.621704"><ele>1939</ele><time>2026-03-08T07:06:35.000Z</time></trkpt>
<trkpt lat="42.085744" lon="23.621712"><ele>1939</ele><time>2026-03-08T07:06:36.000Z</time></trkpt>
<trkpt lat="42.085754" lon="23.621719"><ele>1939.3</ele><time>2026-03-08T07:06:37.000Z</time></trkpt>
<trkpt lat="42.085766" lon="23.621727"><ele>1939.3</ele><time>2026-03-08T07:06:38.000Z</time></trkpt>
<trkpt lat="42.085777" lon="23.621735"><ele>1939.3</ele><time>2026-03-08T07:06:39.000Z</time></trkpt>
<trkpt lat="42.085788" lon="23.621744"><ele>1939.3</ele><time>2026-03-08T07:06:40.000Z</time></trkpt>
<trkpt lat="42.085799" lon="23.621752"><ele>1939.3</ele><time>2026-03-08T07:06:41.000Z</time></trkpt>
<trkpt lat="42.085808" lon="23.621761"><ele>1939.5</ele><time>2026-03-08T07:06:42.000Z</time></trkpt>
<trkpt lat="42.085817" lon="23.62177"><ele>1939.5</ele><time>2026-03-08T07:06:43.000Z</time></trkpt>
<trkpt lat="42.085826" lon="23.621778"><ele>1939.5</ele><time>2026-03-08T07:06:44.000Z</time></trkpt>
<trkpt lat="42.085836" lon="23.621787"><ele>1939.5</ele><time>2026-03-08T07:06:45.000Z</time></trkpt>
<trkpt lat="42.085847" lon="23.621796"><ele>1939.5</ele><time>2026-03-08T07:06:46.000Z</time></trkpt>
<trkpt lat="42.085858" lon="23.621805"><ele>1939.8</ele><time>2026-03-08T07:06:47.000Z</time></trkpt>
<trkpt lat="42.085869" lon="23.621814"><ele>1939.8</ele><time>2026-03-08T07:06:48.000Z</time></trkpt>
<trkpt lat="42.085881" lon="23.621822"><ele>1939.8</ele><time>2026-03-08T07:06:49.000Z</time></trkpt>
<trkpt lat="42.085893" lon="23.621829"><ele>1939.8</ele><time>2026-03-08T07:06:50.000Z</time></trkpt>
<trkpt lat="42.085905" lon="23.621835"><ele>1939.8</ele><time>2026-03-08T07:06:51.000Z</time></trkpt>
<trkpt lat="42.085918" lon="23.621838"><ele>1940.2</ele><time>2026-03-08T07:06:52.000Z</time></trkpt>
<trkpt lat="42.085933" lon="23.621841"><ele>1940.2</ele><time>2026-03-08T07:06:53.000Z</time></trkpt>
<trkpt lat="42.085947" lon="23.621843"><ele>1940.2</ele><time>2026-03-08T07:06:54.000Z</time></trkpt>
<trkpt lat="42.085961" lon="23.621845"><ele>1940.2</ele><time>2026-03-08T07:06:55.000Z</time></trkpt>
<trkpt lat="42.085975" lon="23.621847"><ele>1940.2</ele><time>2026-03-08T07:06:56.000Z</time></trkpt>
<trkpt lat="42.085989" lon="23.621849"><ele>1940.4</ele><time>2026-03-08T07:06:57.000Z</time></trkpt>
<trkpt lat="42.086002" lon="23.621851"><ele>1940.4</ele><time>2026-03-08T07:06:58.000Z</time></trkpt>
<trkpt lat="42.086016" lon="23.621852"><ele>1940.4</ele><time>2026-03-08T07:06:59.000Z</time></trkpt>
<trkpt lat="42.08603" lon="23.621852"><ele>1940.4</ele><time>2026-03-08T07:07:00.000Z</time></trkpt>
<trkpt lat="42.086043" lon="23.621851"><ele>1940.4</ele><time>2026-03-08T07:07:01.000Z</time></trkpt>
<trkpt lat="42.086055" lon="23.621851"><ele>1940.7</ele><time>2026-03-08T07:07:02.000Z</time></trkpt>
<trkpt lat="42.086065" lon="23.62185"><ele>1940.7</ele><time>2026-03-08T07:07:03.000Z</time></trkpt>
<trkpt lat="42.086076" lon="23.62185"><ele>1940.7</ele><time>2026-03-08T07:07:04.000Z</time></trkpt>
<trkpt lat="42.086085" lon="23.62185"><ele>1940.7</ele><time>2026-03-08T07:07:05.000Z</time></trkpt>
<trkpt lat="42.086094" lon="23.621849"><ele>1940.7</ele><time>2026-03-08T07:07:06.000Z</time></trkpt>
<trkpt lat="42.086104" lon="23.621849"><ele>1941.1</ele><time>2026-03-08T07:07:07.000Z</time></trkpt>
<trkpt lat="42.086114" lon="23.621849"><ele>1941.1</ele><time>2026-03-08T07:07:08.000Z</time></trkpt>
<trkpt lat="42.086124" lon="23.621848"><ele>1941.1</ele><time>2026-03-08T07:07:09.000Z</time></trkpt>
<trkpt lat="42.086136" lon="23.621847"><ele>1941.1</ele><time>2026-03-08T07:07:10.000Z</time></trkpt>
<trkpt lat="42.086149" lon="23.621845"><ele>1941.1</ele><time>2026-03-08T07:07:11.000Z</time></trkpt>
<trkpt lat="42.086162" lon="23.621843"><ele>1941.2</ele><time>2026-03-08T07:07:12.000Z</time></trkpt>
<trkpt lat="42.086177" lon="23.62184"><ele>1941.2</ele><time>2026-03-08T07:07:13.000Z</time></trkpt>
<trkpt lat="42.086191" lon="23.621836"><ele>1941.2</ele><time>2026-03-08T07:07:14.000Z</time></trkpt>
<trkpt lat="42.086205" lon="23.621831"><ele>1941.2</ele><time>2026-03-08T07:07:15.000Z</time></trkpt>
<trkpt lat="42.086218" lon="23.621825"><ele>1941.2</ele><time>2026-03-08T07:07:16.000Z</time></trkpt>
<trkpt lat="42.086232" lon="23.621819"><ele>1941.4</ele><time>2026-03-08T07:07:17.000Z</time></trkpt>
<trkpt lat="42.086245" lon="23.621815"><ele>1941.4</ele><time>2026-03-08T07:07:18.000Z</time></trkpt>
<trkpt lat="42.086258" lon="23.621811"><ele>1941.4</ele><time>2026-03-08T07:07:19.000Z</time></trkpt>
<trkpt lat="42.086271" lon="23.621809"><ele>1941.4</ele><time>2026-03-08T07:07:20.000Z</time></trkpt>
<trkpt lat="42.086284" lon="23.621806"><ele>1941.4</ele><time>2026-03-08T07:07:21.000Z</time></trkpt>
<trkpt lat="42.086296" lon="23.621802"><ele>1941.5</ele><time>2026-03-08T07:07:22.000Z</time></trkpt>
<trkpt lat="42.08631" lon="23.621797"><ele>1941.5</ele><time>2026-03-08T07:07:23.000Z</time></trkpt>
<trkpt lat="42.086323" lon="23.621791"><ele>1941.5</ele><time>2026-03-08T07:07:24.000Z</time></trkpt>
<trkpt lat="42.086335" lon="23.621786"><ele>1941.5</ele><time>2026-03-08T07:07:25.000Z</time></trkpt>
<trkpt lat="42.086348" lon="23.62178"><ele>1941.5</ele><time>2026-03-08T07:07:26.000Z</time></trkpt>
<trkpt lat="42.086362" lon="23.621776"><ele>1941.5</ele><time>2026-03-08T07:07:27.000Z</time></trkpt>
<trkpt lat="42.086375" lon="23.621772"><ele>1941.5</ele><time>2026-03-08T07:07:28.000Z</time></trkpt>
<trkpt lat="42.086388" lon="23.621768"><ele>1941.5</ele><time>2026-03-08T07:07:29.000Z</time></trkpt>
<trkpt lat="42.086402" lon="23.621764"><ele>1941.5</ele><time>2026-03-08T07:07:30.000Z</time></trkpt>
<trkpt lat="42.086415" lon="23.62176"><ele>1941.5</ele><time>2026-03-08T07:07:31.000Z</time></trkpt>
<trkpt lat="42.086428" lon="23.621756"><ele>1941.5</ele><time>2026-03-08T07:07:32.000Z</time></trkpt>
<trkpt lat="42.086441" lon="23.621752"><ele>1941.5</ele><time>2026-03-08T07:07:33.000Z</time></trkpt>
<trkpt lat="42.086454" lon="23.621748"><ele>1941.5</ele><time>2026-03-08T07:07:34.000Z</time></trkpt>
<trkpt lat="42.086466" lon="23.621743"><ele>1941.5</ele><time>2026-03-08T07:07:35.000Z</time></trkpt>
<trkpt lat="42.086479" lon="23.621739"><ele>1941.5</ele><time>2026-03-08T07:07:36.000Z</time></trkpt>
<trkpt lat="42.086491" lon="23.621736"><ele>1941.7</ele><time>2026-03-08T07:07:37.000Z</time></trkpt>
<trkpt lat="42.086503" lon="23.621733"><ele>1941.7</ele><time>2026-03-08T07:07:38.000Z</time></trkpt>
<trkpt lat="42.086515" lon="23.62173"><ele>1941.7</ele><time>2026-03-08T07:07:39.000Z</time></trkpt>
<trkpt lat="42.086528" lon="23.621728"><ele>1941.7</ele><time>2026-03-08T07:07:40.000Z</time></trkpt>
<trkpt lat="42.08654" lon="23.621727"><ele>1941.7</ele><time>2026-03-08T07:07:41.000Z</time></trkpt>
<trkpt lat="42.086552" lon="23.621725"><ele>1941.9</ele><time>2026-03-08T07:07:42.000Z</time></trkpt>
<trkpt lat="42.086564" lon="23.621723"><ele>1941.9</ele><time>2026-03-08T07:07:43.000Z</time></trkpt>
<trkpt lat="42.086577" lon="23.621722"><ele>1941.9</ele><time>2026-03-08T07:07:44.000Z</time></trkpt>
<trkpt lat="42.08659" lon="23.621721"><ele>1941.9</ele><time>2026-03-08T07:07:45.000Z</time></trkpt>
<trkpt lat="42.086602" lon="23.62172"><ele>1941.9</ele><time>2026-03-08T07:07:46.000Z</time></trkpt>
<trkpt lat="42.086614" lon="23.621718"><ele>1942.3</ele><time>2026-03-08T07:07:47.000Z</time></trkpt>
<trkpt lat="42.086627" lon="23.621715"><ele>1942.3</ele><time>2026-03-08T07:07:48.000Z</time></trkpt>
<trkpt lat="42.086639" lon="23.621712"><ele>1942.3</ele><time>2026-03-08T07:07:49.000Z</time></trkpt>
<trkpt lat="42.086651" lon="23.621708"><ele>1942.3</ele><time>2026-03-08T07:07:50.000Z</time></trkpt>
<trkpt lat="42.086663" lon="23.621703"><ele>1942.3</ele><time>2026-03-08T07:07:51.000Z</time></trkpt>
<trkpt lat="42.086676" lon="23.621701"><ele>1942.5</ele><time>2026-03-08T07:07:52.000Z</time></trkpt>
<trkpt lat="42.086689" lon="23.621699"><ele>1942.5</ele><time>2026-03-08T07:07:53.000Z</time></trkpt>
<trkpt lat="42.086701" lon="23.621697"><ele>1942.5</ele><time>2026-03-08T07:07:54.000Z</time></trkpt>
<trkpt lat="42.086713" lon="23.621696"><ele>1942.5</ele><time>2026-03-08T07:07:55.000Z</time></trkpt>
<trkpt lat="42.086724" lon="23.621695"><ele>1942.5</ele><time>2026-03-08T07:07:56.000Z</time></trkpt>
<trkpt lat="42.086736" lon="23.621693"><ele>1942.6</ele><time>2026-03-08T07:07:57.000Z</time></trkpt>
<trkpt lat="42.086747" lon="23.621692"><ele>1942.6</ele><time>2026-03-08T07:07:58.000Z</time></trkpt>
<trkpt lat="42.086758" lon="23.62169"><ele>1942.6</ele><time>2026-03-08T07:07:59.000Z</time></trkpt>
<trkpt lat="42.086771" lon="23.621689"><ele>1942.6</ele><time>2026-03-08T07:08:00.000Z</time></trkpt>
<trkpt lat="42.086783" lon="23.621689"><ele>1942.6</ele><time>2026-03-08T07:08:01.000Z</time></trkpt>
<trkpt lat="42.086795" lon="23.621689"><ele>1942.6</ele><time>2026-03-08T07:08:02.000Z</time></trkpt>
<trkpt lat="42.086808" lon="23.621689"><ele>1942.6</ele><time>2026-03-08T07:08:03.000Z</time></trkpt>
<trkpt lat="42.086821" lon="23.621689"><ele>1942.6</ele><time>2026-03-08T07:08:04.000Z</time></trkpt>
<trkpt lat="42.086832" lon="23.621689"><ele>1942.6</ele><time>2026-03-08T07:08:05.000Z</time></trkpt>
<trkpt lat="42.086844" lon="23.621689"><ele>1942.6</ele><time>2026-03-08T07:08:06.000Z</time></trkpt>
<trkpt lat="42.086856" lon="23.621689"><ele>1942.8</ele><time>2026-03-08T07:08:07.000Z</time></trkpt>
<trkpt lat="42.086868" lon="23.621691"><ele>1942.8</ele><time>2026-03-08T07:08:08.000Z</time></trkpt>
<trkpt lat="42.086879" lon="23.621695"><ele>1942.8</ele><time>2026-03-08T07:08:09.000Z</time></trkpt>
<trkpt lat="42.086892" lon="23.621699"><ele>1942.8</ele><time>2026-03-08T07:08:10.000Z</time></trkpt>
<trkpt lat="42.086904" lon="23.621705"><ele>1942.8</ele><time>2026-03-08T07:08:11.000Z</time></trkpt>
<trkpt lat="42.086916" lon="23.62171"><ele>1943</ele><time>2026-03-08T07:08:12.000Z</time></trkpt>
<trkpt lat="42.086928" lon="23.621716"><ele>1943</ele><time>2026-03-08T07:08:13.000Z</time></trkpt>
<trkpt lat="42.086941" lon="23.62172"><ele>1943</ele><time>2026-03-08T07:08:14.000Z</time></trkpt>
<trkpt lat="42.086952" lon="23.621724"><ele>1943</ele><time>2026-03-08T07:08:15.000Z</time></trkpt>
<trkpt lat="42.086963" lon="23.621729"><ele>1943</ele><time>2026-03-08T07:08:16.000Z</time></trkpt>
<trkpt lat="42.086974" lon="23.621735"><ele>1943.2</ele><time>2026-03-08T07:08:17.000Z</time></trkpt>
<trkpt lat="42.086985" lon="23.62174"><ele>1943.2</ele><time>2026-03-08T07:08:18.000Z</time></trkpt>
<trkpt lat="42.086996" lon="23.621747"><ele>1943.2</ele><time>2026-03-08T07:08:19.000Z</time></trkpt>
<trkpt lat="42.087006" lon="23.621754"><ele>1943.2</ele><time>2026-03-08T07:08:20.000Z</time></trkpt>
<trkpt lat="42.087016" lon="23.621762"><ele>1943.2</ele><time>2026-03-08T07:08:21.000Z</time></trkpt>
<trkpt lat="42.087025" lon="23.621772"><ele>1943.5</ele><time>2026-03-08T07:08:22.000Z</time></trkpt>
<trkpt lat="42.087034" lon="23.621783"><ele>1943.5</ele><time>2026-03-08T07:08:23.000Z</time></trkpt>
<trkpt lat="42.087045" lon="23.621793"><ele>1943.5</ele><time>2026-03-08T07:08:24.000Z</time></trkpt>
<trkpt lat="42.087055" lon="23.621803"><ele>1943.5</ele><time>2026-03-08T07:08:25.000Z</time></trkpt>
<trkpt lat="42.087066" lon="23.621813"><ele>1943.5</ele><time>2026-03-08T07:08:26.000Z</time></trkpt>
<trkpt lat="42.087076" lon="23.621822"><ele>1943.6</ele><time>2026-03-08T07:08:27.000Z</time></trkpt>
<trkpt lat="42.087087" lon="23.621831"><ele>1943.6</ele><time>2026-03-08T07:08:28.000Z</time></trkpt>
<trkpt lat="42.087098" lon="23.62184"><ele>1943.6</ele><time>2026-03-08T07:08:29.000Z</time></trkpt>
<trkpt lat="42.087108" lon="23.621848"><ele>1943.6</ele><time>2026-03-08T07:08:30.000Z</time></trkpt>
<trkpt lat="42.087118" lon="23.621855"><ele>1943.6</ele><time>2026-03-08T07:08:31.000Z</time></trkpt>
<trkpt lat="42.087128" lon="23.621862"><ele>1943.8</ele><time>2026-03-08T07:08:32.000Z</time></trkpt>
<trkpt lat="42.087138" lon="23.621869"><ele>1943.8</ele><time>2026-03-08T07:08:33.000Z</time></trkpt>
<trkpt lat="42.087147" lon="23.621875"><ele>1943.8</ele><time>2026-03-08T07:08:34.000Z</time></trkpt>
<trkpt lat="42.087156" lon="23.621882"><ele>1943.8</ele><time>2026-03-08T07:08:35.000Z</time></trkpt>
<trkpt lat="42.087164" lon="23.621889"><ele>1943.8</ele><time>2026-03-08T07:08:36.000Z</time></trkpt>
<trkpt lat="42.087172" lon="23.621896"><ele>1943.9</ele><time>2026-03-08T07:08:37.000Z</time></trkpt>
<trkpt lat="42.08718" lon="23.621904"><ele>1943.9</ele><time>2026-03-08T07:08:38.000Z</time></trkpt>
<trkpt lat="42.087188" lon="23.62191"><ele>1943.9</ele><time>2026-03-08T07:08:39.000Z</time></trkpt>
<trkpt lat="42.087197" lon="23.621917"><ele>1943.9</ele><time>2026-03-08T07:08:40.000Z</time></trkpt>
<trkpt lat="42.087205" lon="23.621925"><ele>1943.9</ele><time>2026-03-08T07:08:41.000Z</time></trkpt>
<trkpt lat="42.087214" lon="23.621932"><ele>1943.9</ele><time>2026-03-08T07:08:42.000Z</time></trkpt>
<trkpt lat="42.087225" lon="23.621939"><ele>1943.9</ele><time>2026-03-08T07:08:43.000Z</time></trkpt>
<trkpt lat="42.087237" lon="23.621946"><ele>1943.9</ele><time>2026-03-08T07:08:44.000Z</time></trkpt>
<trkpt lat="42.08725" lon="23.621954"><ele>1943.9</ele><time>2026-03-08T07:08:45.000Z</time></trkpt>
<trkpt lat="42.087264" lon="23.621963"><ele>1943.9</ele><time>2026-03-08T07:08:46.000Z</time></trkpt>
<trkpt lat="42.087276" lon="23.621971"><ele>1944.2</ele><time>2026-03-08T07:08:47.000Z</time></trkpt>
<trkpt lat="42.087287" lon="23.62198"><ele>1944.2</ele><time>2026-03-08T07:08:48.000Z</time></trkpt>
<trkpt lat="42.087297" lon="23.621989"><ele>1944.2</ele><time>2026-03-08T07:08:49.000Z</time></trkpt>
<trkpt lat="42.087307" lon="23.621998"><ele>1944.2</ele><time>2026-03-08T07:08:50.000Z</time></trkpt>
<trkpt lat="42.087317" lon="23.622006"><ele>1944.2</ele><time>2026-03-08T07:08:51.000Z</time></trkpt>
<trkpt lat="42.087327" lon="23.622015"><ele>1944.4</ele><time>2026-03-08T07:08:52.000Z</time></trkpt>
<trkpt lat="42.087338" lon="23.622023"><ele>1944.4</ele><time>2026-03-08T07:08:53.000Z</time></trkpt>
<trkpt lat="42.08735" lon="23.622032"><ele>1944.4</ele><time>2026-03-08T07:08:54.000Z</time></trkpt>
<trkpt lat="42.087361" lon="23.62204"><ele>1944.4</ele><time>2026-03-08T07:08:55.000Z</time></trkpt>
<trkpt lat="42.087371" lon="23.62205"><ele>1944.4</ele><time>2026-03-08T07:08:56.000Z</time></trkpt>
<trkpt lat="42.087382" lon="23.62206"><ele>1944.5</ele><time>2026-03-08T07:08:57.000Z</time></trkpt>
<trkpt lat="42.087392" lon="23.622072"><ele>1944.5</ele><time>2026-03-08T07:08:58.000Z</time></trkpt>
<trkpt lat="42.087401" lon="23.622083"><ele>1944.5</ele><time>2026-03-08T07:08:59.000Z</time></trkpt>
<trkpt lat="42.08741" lon="23.622096"><ele>1944.5</ele><time>2026-03-08T07:09:00.000Z</time></trkpt>
<trkpt lat="42.08742" lon="23.622107"><ele>1944.5</ele><time>2026-03-08T07:09:01.000Z</time></trkpt>
<trkpt lat="42.087428" lon="23.622119"><ele>1944.7</ele><time>2026-03-08T07:09:02.000Z</time></trkpt>
<trkpt lat="42.087437" lon="23.622131"><ele>1944.7</ele><time>2026-03-08T07:09:03.000Z</time></trkpt>
<trkpt lat="42.087446" lon="23.622142"><ele>1944.7</ele><time>2026-03-08T07:09:04.000Z</time></trkpt>
<trkpt lat="42.087457" lon="23.622153"><ele>1944.7</ele><time>2026-03-08T07:09:05.000Z</time></trkpt>
<trkpt lat="42.087467" lon="23.622165"><ele>1944.7</ele><time>2026-03-08T07:09:06.000Z</time></trkpt>
<trkpt lat="42.087477" lon="23.622177"><ele>1945</ele><time>2026-03-08T07:09:07.000Z</time></trkpt>
<trkpt lat="42.087489" lon="23.622189"><ele>1945</ele><time>2026-03-08T07:09:08.000Z</time></trkpt>
<trkpt lat="42.087499" lon="23.622199"><ele>1945</ele><time>2026-03-08T07:09:09.000Z</time></trkpt>
<trkpt lat="42.08751" lon="23.622211"><ele>1945</ele><time>2026-03-08T07:09:10.000Z</time></trkpt>
<trkpt lat="42.087522" lon="23.622222"><ele>1945</ele><time>2026-03-08T07:09:11.000Z</time></trkpt>
<trkpt lat="42.087534" lon="23.622233"><ele>1945.2</ele><time>2026-03-08T07:09:12.000Z</time></trkpt>
<trkpt lat="42.087545" lon="23.622245"><ele>1945.2</ele><time>2026-03-08T07:09:13.000Z</time></trkpt>
<trkpt lat="42.087555" lon="23.622259"><ele>1945.2</ele><time>2026-03-08T07:09:14.000Z</time></trkpt>
<trkpt lat="42.087564" lon="23.622272"><ele>1945.2</ele><time>2026-03-08T07:09:15.000Z</time></trkpt>
<trkpt lat="42.087571" lon="23.622287"><ele>1945.2</ele><time>2026-03-08T07:09:16.000Z</time></trkpt>
<trkpt lat="42.087578" lon="23.6223"><ele>1945.5</ele><time>2026-03-08T07:09:17.000Z</time></trkpt>
<trkpt lat="42.087584" lon="23.622314"><ele>1945.5</ele><time>2026-03-08T07:09:18.000Z</time></trkpt>
<trkpt lat="42.08759" lon="23.622326"><ele>1945.5</ele><time>2026-03-08T07:09:19.000Z</time></trkpt>
<trkpt lat="42.087597" lon="23.622339"><ele>1945.5</ele><time>2026-03-08T07:09:20.000Z</time></trkpt>
<trkpt lat="42.087605" lon="23.62235"><ele>1945.5</ele><time>2026-03-08T07:09:21.000Z</time></trkpt>
<trkpt lat="42.087614" lon="23.622362"><ele>1945.6</ele><time>2026-03-08T07:09:22.000Z</time></trkpt>
<trkpt lat="42.087624" lon="23.622374"><ele>1945.6</ele><time>2026-03-08T07:09:23.000Z</time></trkpt>
<trkpt lat="42.087634" lon="23.622386"><ele>1945.6</ele><time>2026-03-08T07:09:24.000Z</time></trkpt>
<trkpt lat="42.087645" lon="23.622398"><ele>1945.6</ele><time>2026-03-08T07:09:25.000Z</time></trkpt>
<trkpt lat="42.087656" lon="23.622409"><ele>1945.6</ele><time>2026-03-08T07:09:26.000Z</time></trkpt>
<trkpt lat="42.087667" lon="23.622421"><ele>1945.6</ele><time>2026-03-08T07:09:27.000Z</time></trkpt>
<trkpt lat="42.087676" lon="23.622432"><ele>1945.6</ele><time>2026-03-08T07:09:28.000Z</time></trkpt>
<trkpt lat="42.087686" lon="23.622444"><ele>1945.6</ele><time>2026-03-08T07:09:29.000Z</time></trkpt>
<trkpt lat="42.087695" lon="23.622454"><ele>1945.6</ele><time>2026-03-08T07:09:30.000Z</time></trkpt>
<trkpt lat="42.087703" lon="23.622465"><ele>1945.6</ele><time>2026-03-08T07:09:31.000Z</time></trkpt>
<trkpt lat="42.087711" lon="23.622474"><ele>1945.8</ele><time>2026-03-08T07:09:32.000Z</time></trkpt>
<trkpt lat="42.087718" lon="23.622483"><ele>1945.8</ele><time>2026-03-08T07:09:33.000Z</time></trkpt>
<trkpt lat="42.087725" lon="23.622493"><ele>1945.8</ele><time>2026-03-08T07:09:34.000Z</time></trkpt>
<trkpt lat="42.087731" lon="23.622503"><ele>1945.8</ele><time>2026-03-08T07:09:35.000Z</time></trkpt>
<trkpt lat="42.087737" lon="23.622513"><ele>1945.8</ele><time>2026-03-08T07:09:36.000Z</time></trkpt>
<trkpt lat="42.087743" lon="23.622522"><ele>1946.1</ele><time>2026-03-08T07:09:37.000Z</time></trkpt>
<trkpt lat="42.08775" lon="23.622531"><ele>1946.1</ele><time>2026-03-08T07:09:38.000Z</time></trkpt>
<trkpt lat="42.087757" lon="23.62254"><ele>1946.1</ele><time>2026-03-08T07:09:39.000Z</time></trkpt>
<trkpt lat="42.087765" lon="23.622548"><ele>1946.1</ele><time>2026-03-08T07:09:40.000Z</time></trkpt>
<trkpt lat="42.087773" lon="23.622559"><ele>1946.1</ele><time>2026-03-08T07:09:41.000Z</time></trkpt>
<trkpt lat="42.087781" lon="23.62257"><ele>1946.3</ele><time>2026-03-08T07:09:42.000Z</time></trkpt>
<trkpt lat="42.08779" lon="23.62258"><ele>1946.3</ele><time>2026-03-08T07:09:43.000Z</time></trkpt>
<trkpt lat="42.087799" lon="23.62259"><ele>1946.3</ele><time>2026-03-08T07:09:44.000Z</time></trkpt>
<trkpt lat="42.087807" lon="23.6226"><ele>1946.3</ele><time>2026-03-08T07:09:45.000Z</time></trkpt>
<trkpt lat="42.087817" lon="23.622609"><ele>1946.3</ele><time>2026-03-08T07:09:46.000Z</time></trkpt>
<trkpt lat="42.087828" lon="23.622615"><ele>1946.6</ele><time>2026-03-08T07:09:47.000Z</time></trkpt>
<trkpt lat="42.087838" lon="23.622621"><ele>1946.6</ele><time>2026-03-08T07:09:48.000Z</time></trkpt>
<trkpt lat="42.087849" lon="23.622623"><ele>1946.6</ele><time>2026-03-08T07:09:49.000Z</time></trkpt>
<trkpt lat="42.08786" lon="23.622624"><ele>1946.6</ele><time>2026-03-08T07:09:50.000Z</time></trkpt>
<trkpt lat="42.08787" lon="23.622623"><ele>1946.6</ele><time>2026-03-08T07:09:51.000Z</time></trkpt>
<trkpt lat="42.087877" lon="23.622621"><ele>1946.9</ele><time>2026-03-08T07:09:52.000Z</time></trkpt>
<trkpt lat="42.087884" lon="23.622618"><ele>1946.9</ele><time>2026-03-08T07:09:53.000Z</time></trkpt>
<trkpt lat="42.087891" lon="23.622617"><ele>1946.9</ele><time>2026-03-08T07:09:54.000Z</time></trkpt>
<trkpt lat="42.087896" lon="23.622616"><ele>1946.9</ele><time>2026-03-08T07:09:55.000Z</time></trkpt>
<trkpt lat="42.087901" lon="23.622615"><ele>1946.9</ele><time>2026-03-08T07:09:56.000Z</time></trkpt>
<trkpt lat="42.087909" lon="23.622612"><ele>1947.1</ele><time>2026-03-08T07:09:57.000Z</time></trkpt>
<trkpt lat="42.087916" lon="23.622609"><ele>1947.1</ele><time>2026-03-08T07:09:58.000Z</time></trkpt>
<trkpt lat="42.087923" lon="23.622604"><ele>1947.1</ele><time>2026-03-08T07:09:59.000Z</time></trkpt>
<trkpt lat="42.087932" lon="23.622596"><ele>1947.1</ele><time>2026-03-08T07:10:00.000Z</time></trkpt>
<trkpt lat="42.087941" lon="23.622586"><ele>1947.1</ele><time>2026-03-08T07:10:01.000Z</time></trkpt>
<trkpt lat="42.08795" lon="23.622576"><ele>1947.5</ele><time>2026-03-08T07:10:02.000Z</time></trkpt>
<trkpt lat="42.087959" lon="23.622565"><ele>1947.5</ele><time>2026-03-08T07:10:03.000Z</time></trkpt>
<trkpt lat="42.087968" lon="23.622553"><ele>1947.5</ele><time>2026-03-08T07:10:04.000Z</time></trkpt>
<trkpt lat="42.087975" lon="23.622543"><ele>1947.5</ele><time>2026-03-08T07:10:05.000Z</time></trkpt>
<trkpt lat="42.087981" lon="23.622534"><ele>1947.5</ele><time>2026-03-08T07:10:06.000Z</time></trkpt>
<trkpt lat="42.087987" lon="23.622526"><ele>1947.9</ele><time>2026-03-08T07:10:07.000Z</time></trkpt>
<trkpt lat="42.087991" lon="23.62252"><ele>1947.9</ele><time>2026-03-08T07:10:08.000Z</time></trkpt>
<trkpt lat="42.087995" lon="23.622513"><ele>1947.9</ele><time>2026-03-08T07:10:09.000Z</time></trkpt>
<trkpt lat="42.087999" lon="23.622506"><ele>1947.9</ele><time>2026-03-08T07:10:10.000Z</time></trkpt>
<trkpt lat="42.088003" lon="23.622498"><ele>1947.9</ele><time>2026-03-08T07:10:11.000Z</time></trkpt>
<trkpt lat="42.088007" lon="23.622489"><ele>1948.1</ele><time>2026-03-08T07:10:12.000Z</time></trkpt>
<trkpt lat="42.088011" lon="23.622479"><ele>1948.1</ele><time>2026-03-08T07:10:13.000Z</time></trkpt>
<trkpt lat="42.088014" lon="23.622469"><ele>1948.1</ele><time>2026-03-08T07:10:14.000Z</time></trkpt>
<trkpt lat="42.088016" lon="23.622458"><ele>1948.1</ele><time>2026-03-08T07:10:15.000Z</time></trkpt>
<trkpt lat="42.088016" lon="23.622445"><ele>1948.1</ele><time>2026-03-08T07:10:16.000Z</time></trkpt>
<trkpt lat="42.088016" lon="23.622431"><ele>1948.9</ele><time>2026-03-08T07:10:17.000Z</time></trkpt>
<trkpt lat="42.088014" lon="23.622417"><ele>1948.9</ele><time>2026-03-08T07:10:18.000Z</time></trkpt>
<trkpt lat="42.088013" lon="23.622402"><ele>1948.9</ele><time>2026-03-08T07:10:19.000Z</time></trkpt>
<trkpt lat="42.088012" lon="23.622385"><ele>1948.9</ele><time>2026-03-08T07:10:20.000Z</time></trkpt>
<trkpt lat="42.08801" lon="23.62237"><ele>1948.9</ele><time>2026-03-08T07:10:21.000Z</time></trkpt>
<trkpt lat="42.088008" lon="23.622355"><ele>1949.7</ele><time>2026-03-08T07:10:22.000Z</time></trkpt>
<trkpt lat="42.088007" lon="23.622339"><ele>1949.7</ele><time>2026-03-08T07:10:23.000Z</time></trkpt>
<trkpt lat="42.088004" lon="23.622324"><ele>1949.7</ele><time>2026-03-08T07:10:24.000Z</time></trkpt>
<trkpt lat="42.088002" lon="23.622311"><ele>1949.7</ele><time>2026-03-08T07:10:25.000Z</time></trkpt>
<trkpt lat="42.088" lon="23.622297"><ele>1949.7</ele><time>2026-03-08T07:10:26.000Z</time></trkpt>
<trkpt lat="42.087998" lon="23.622283"><ele>1950</ele><time>2026-03-08T07:10:27.000Z</time></trkpt>
<trkpt lat="42.087996" lon="23.62227"><ele>1950</ele><time>2026-03-08T07:10:28.000Z</time></trkpt>
<trkpt lat="42.087994" lon="23.622257"><ele>1950</ele><time>2026-03-08T07:10:29.000Z</time></trkpt>
<trkpt lat="42.087993" lon="23.622243"><ele>1950</ele><time>2026-03-08T07:10:30.000Z</time></trkpt>
<trkpt lat="42.087992" lon="23.62223"><ele>1950</ele><time>2026-03-08T07:10:31.000Z</time></trkpt>
<trkpt lat="42.087991" lon="23.622216"><ele>1950.7</ele><time>2026-03-08T07:10:32.000Z</time></trkpt>
<trkpt lat="42.08799" lon="23.622203"><ele>1950.7</ele><time>2026-03-08T07:10:33.000Z</time></trkpt>
<trkpt lat="42.08799" lon="23.62219"><ele>1950.7</ele><time>2026-03-08T07:10:34.000Z</time></trkpt>
<trkpt lat="42.087989" lon="23.622178"><ele>1950.7</ele><time>2026-03-08T07:10:35.000Z</time></trkpt>
<trkpt lat="42.087987" lon="23.622166"><ele>1950.7</ele><time>2026-03-08T07:10:36.000Z</time></trkpt>
<trkpt lat="42.087985" lon="23.622154"><ele>1951.4</ele><time>2026-03-08T07:10:37.000Z</time></trkpt>
<trkpt lat="42.087982" lon="23.622142"><ele>1951.4</ele><time>2026-03-08T07:10:38.000Z</time></trkpt>
<trkpt lat="42.087978" lon="23.62213"><ele>1951.4</ele><time>2026-03-08T07:10:39.000Z</time></trkpt>
<trkpt lat="42.087974" lon="23.622116"><ele>1951.4</ele><time>2026-03-08T07:10:40.000Z</time></trkpt>
<trkpt lat="42.08797" lon="23.622102"><ele>1951.4</ele><time>2026-03-08T07:10:41.000Z</time></trkpt>
<trkpt lat="42.087968" lon="23.622086"><ele>1951.8</ele><time>2026-03-08T07:10:42.000Z</time></trkpt>
<trkpt lat="42.087967" lon="23.62207"><ele>1951.8</ele><time>2026-03-08T07:10:43.000Z</time></trkpt>
<trkpt lat="42.087968" lon="23.622053"><ele>1951.8</ele><time>2026-03-08T07:10:44.000Z</time></trkpt>
<trkpt lat="42.087969" lon="23.622036"><ele>1951.8</ele><time>2026-03-08T07:10:45.000Z</time></trkpt>
<trkpt lat="42.08797" lon="23.62202"><ele>1951.8</ele><time>2026-03-08T07:10:46.000Z</time></trkpt>
<trkpt lat="42.087971" lon="23.622004"><ele>1952.5</ele><time>2026-03-08T07:10:47.000Z</time></trkpt>
<trkpt lat="42.087972" lon="23.621989"><ele>1952.5</ele><time>2026-03-08T07:10:48.000Z</time></trkpt>
<trkpt lat="42.087974" lon="23.621973"><ele>1952.5</ele><time>2026-03-08T07:10:49.000Z</time></trkpt>
<trkpt lat="42.087976" lon="23.621958"><ele>1952.5</ele><time>2026-03-08T07:10:50.000Z</time></trkpt>
<trkpt lat="42.087978" lon="23.621944"><ele>1952.5</ele><time>2026-03-08T07:10:51.000Z</time></trkpt>
<trkpt lat="42.087982" lon="23.621929"><ele>1953.1</ele><time>2026-03-08T07:10:52.000Z</time></trkpt>
<trkpt lat="42.087985" lon="23.621914"><ele>1953.1</ele><time>2026-03-08T07:10:53.000Z</time></trkpt>
<trkpt lat="42.087989" lon="23.6219"><ele>1953.1</ele><time>2026-03-08T07:10:54.000Z</time></trkpt>
<trkpt lat="42.087995" lon="23.621886"><ele>1953.1</ele><time>2026-03-08T07:10:55.000Z</time></trkpt>
<trkpt lat="42.088" lon="23.621874"><ele>1953.1</ele><time>2026-03-08T07:10:56.000Z</time></trkpt>
<trkpt lat="42.088006" lon="23.621864"><ele>1953.4</ele><time>2026-03-08T07:10:57.000Z</time></trkpt>
<trkpt lat="42.088013" lon="23.621853"><ele>1953.4</ele><time>2026-03-08T07:10:58.000Z</time></trkpt>
<trkpt lat="42.088021" lon="23.621843"><ele>1953.4</ele><time>2026-03-08T07:10:59.000Z</time></trkpt>
<trkpt lat="42.088028" lon="23.621833"><ele>1953.4</ele><time>2026-03-08T07:11:00.000Z</time></trkpt>
<trkpt lat="42.088036" lon="23.621822"><ele>1953.4</ele><time>2026-03-08T07:11:01.000Z</time></trkpt>
<trkpt lat="42.088043" lon="23.621811"><ele>1953.9</ele><time>2026-03-08T07:11:02.000Z</time></trkpt>
<trkpt lat="42.088052" lon="23.621802"><ele>1953.9</ele><time>2026-03-08T07:11:03.000Z</time></trkpt>
<trkpt lat="42.088061" lon="23.621795"><ele>1953.9</ele><time>2026-03-08T07:11:04.000Z</time></trkpt>
<trkpt lat="42.08807" lon="23.621789"><ele>1953.9</ele><time>2026-03-08T07:11:05.000Z</time></trkpt>
<trkpt lat="42.08808" lon="23.621787"><ele>1953.9</ele><time>2026-03-08T07:11:06.000Z</time></trkpt>
<trkpt lat="42.08809" lon="23.621785"><ele>1954.5</ele><time>2026-03-08T07:11:07.000Z</time></trkpt>
<trkpt lat="42.088099" lon="23.621783"><ele>1954.5</ele><time>2026-03-08T07:11:08.000Z</time></trkpt>
<trkpt lat="42.088107" lon="23.621781"><ele>1954.5</ele><time>2026-03-08T07:11:09.000Z</time></trkpt>
<trkpt lat="42.088114" lon="23.621778"><ele>1954.5</ele><time>2026-03-08T07:11:10.000Z</time></trkpt>
<trkpt lat="42.088122" lon="23.621774"><ele>1954.5</ele><time>2026-03-08T07:11:11.000Z</time></trkpt>
<trkpt lat="42.08813" lon="23.621768"><ele>1954.8</ele><time>2026-03-08T07:11:12.000Z</time></trkpt>
<trkpt lat="42.088138" lon="23.621763"><ele>1954.8</ele><time>2026-03-08T07:11:13.000Z</time></trkpt>
<trkpt lat="42.088147" lon="23.621758"><ele>1954.8</ele><time>2026-03-08T07:11:14.000Z</time></trkpt>
<trkpt lat="42.088156" lon="23.621753"><ele>1954.8</ele><time>2026-03-08T07:11:15.000Z</time></trkpt>
<trkpt lat="42.088165" lon="23.621748"><ele>1954.8</ele><time>2026-03-08T07:11:16.000Z</time></trkpt>
<trkpt lat="42.088174" lon="23.621743"><ele>1955.3</ele><time>2026-03-08T07:11:17.000Z</time></trkpt>
<trkpt lat="42.088182" lon="23.621738"><ele>1955.3</ele><time>2026-03-08T07:11:18.000Z</time></trkpt>
<trkpt lat="42.08819" lon="23.621733"><ele>1955.3</ele><time>2026-03-08T07:11:19.000Z</time></trkpt>
<trkpt lat="42.088198" lon="23.621728"><ele>1955.3</ele><time>2026-03-08T07:11:20.000Z</time></trkpt>
<trkpt lat="42.088205" lon="23.621724"><ele>1955.3</ele><time>2026-03-08T07:11:21.000Z</time></trkpt>
<trkpt lat="42.088213" lon="23.621718"><ele>1955.6</ele><time>2026-03-08T07:11:22.000Z</time></trkpt>
<trkpt lat="42.088221" lon="23.621714"><ele>1955.6</ele><time>2026-03-08T07:11:23.000Z</time></trkpt>
<trkpt lat="42.088229" lon="23.621709"><ele>1955.6</ele><time>2026-03-08T07:11:24.000Z</time></trkpt>
<trkpt lat="42.088238" lon="23.621703"><ele>1955.6</ele><time>2026-03-08T07:11:25.000Z</time></trkpt>
<trkpt lat="42.088246" lon="23.621698"><ele>1955.6</ele><time>2026-03-08T07:11:26.000Z</time></trkpt>
<trkpt lat="42.088255" lon="23.621693"><ele>1955.7</ele><time>2026-03-08T07:11:27.000Z</time></trkpt>
<trkpt lat="42.088264" lon="23.621687"><ele>1955.7</ele><time>2026-03-08T07:11:28.000Z</time></trkpt>
<trkpt lat="42.088273" lon="23.621681"><ele>1955.7</ele><time>2026-03-08T07:11:29.000Z</time></trkpt>
<trkpt lat="42.088283" lon="23.621675"><ele>1955.7</ele><time>2026-03-08T07:11:30.000Z</time></trkpt>
<trkpt lat="42.088293" lon="23.621669"><ele>1955.7</ele><time>2026-03-08T07:11:31.000Z</time></trkpt>
<trkpt lat="42.088303" lon="23.621663"><ele>1956.3</ele><time>2026-03-08T07:11:32.000Z</time></trkpt>
<trkpt lat="42.088313" lon="23.621657"><ele>1956.3</ele><time>2026-03-08T07:11:33.000Z</time></trkpt>
<trkpt lat="42.088322" lon="23.621651"><ele>1956.3</ele><time>2026-03-08T07:11:34.000Z</time></trkpt>
<trkpt lat="42.088332" lon="23.621647"><ele>1956.3</ele><time>2026-03-08T07:11:35.000Z</time></trkpt>
<trkpt lat="42.08834" lon="23.621644"><ele>1956.3</ele><time>2026-03-08T07:11:36.000Z</time></trkpt>
<trkpt lat="42.088347" lon="23.62164"><ele>1957.1</ele><time>2026-03-08T07:11:37.000Z</time></trkpt>
<trkpt lat="42.088355" lon="23.621635"><ele>1957.1</ele><time>2026-03-08T07:11:38.000Z</time></trkpt>
<trkpt lat="42.088363" lon="23.62163"><ele>1957.1</ele><time>2026-03-08T07:11:39.000Z</time></trkpt>
<trkpt lat="42.088371" lon="23.621624"><ele>1957.1</ele><time>2026-03-08T07:11:40.000Z</time></trkpt>
<trkpt lat="42.08838" lon="23.621618"><ele>1957.1</ele><time>2026-03-08T07:11:41.000Z</time></trkpt>
<trkpt lat="42.088389" lon="23.621613"><ele>1957.4</ele><time>2026-03-08T07:11:42.000Z</time></trkpt>
<trkpt lat="42.088398" lon="23.62161"><ele>1957.4</ele><time>2026-03-08T07:11:43.000Z</time></trkpt>
<trkpt lat="42.088407" lon="23.621608"><ele>1957.4</ele><time>2026-03-08T07:11:44.000Z</time></trkpt>
<trkpt lat="42.088418" lon="23.621607"><ele>1957.4</ele><time>2026-03-08T07:11:45.000Z</time></trkpt>
<trkpt lat="42.088428" lon="23.621606"><ele>1957.4</ele><time>2026-03-08T07:11:46.000Z</time></trkpt>
<trkpt lat="42.088438" lon="23.621604"><ele>1957.9</ele><time>2026-03-08T07:11:47.000Z</time></trkpt>
<trkpt lat="42.088447" lon="23.621601"><ele>1957.9</ele><time>2026-03-08T07:11:48.000Z</time></trkpt>
<trkpt lat="42.088456" lon="23.621596"><ele>1957.9</ele><time>2026-03-08T07:11:49.000Z</time></trkpt>
<trkpt lat="42.088464" lon="23.62159"><ele>1957.9</ele><time>2026-03-08T07:11:50.000Z</time></trkpt>
<trkpt lat="42.088472" lon="23.621584"><ele>1957.9</ele><time>2026-03-08T07:11:51.000Z</time></trkpt>
<trkpt lat="42.088481" lon="23.621578"><ele>1958.3</ele><time>2026-03-08T07:11:52.000Z</time></trkpt>
<trkpt lat="42.088488" lon="23.621572"><ele>1958.3</ele><time>2026-03-08T07:11:53.000Z</time></trkpt>
<trkpt lat="42.088495" lon="23.621566"><ele>1958.3</ele><time>2026-03-08T07:11:54.000Z</time></trkpt>
<trkpt lat="42.088502" lon="23.62156"><ele>1958.3</ele><time>2026-03-08T07:11:55.000Z</time></trkpt>
<trkpt lat="42.088509" lon="23.621553"><ele>1958.3</ele><time>2026-03-08T07:11:56.000Z</time></trkpt>
<trkpt lat="42.088515" lon="23.621548"><ele>1958.4</ele><time>2026-03-08T07:11:57.000Z</time></trkpt>
<trkpt lat="42.088523" lon="23.621542"><ele>1958.4</ele><time>2026-03-08T07:11:58.000Z</time></trkpt>
<trkpt lat="42.088532" lon="23.621536"><ele>1958.4</ele><time>2026-03-08T07:11:59.000Z</time></trkpt>
<trkpt lat="42.088541" lon="23.621531"><ele>1958.4</ele><time>2026-03-08T07:12:00.000Z</time></trkpt>
<trkpt lat="42.08855" lon="23.621527"><ele>1958.4</ele><time>2026-03-08T07:12:01.000Z</time></trkpt>
<trkpt lat="42.088559" lon="23.621521"><ele>1958.8</ele><time>2026-03-08T07:12:02.000Z</time></trkpt>
<trkpt lat="42.088568" lon="23.621514"><ele>1958.8</ele><time>2026-03-08T07:12:03.000Z</time></trkpt>
<trkpt lat="42.088575" lon="23.621506"><ele>1958.8</ele><time>2026-03-08T07:12:04.000Z</time></trkpt>
<trkpt lat="42.088583" lon="23.621496"><ele>1958.8</ele><time>2026-03-08T07:12:05.000Z</time></trkpt>
<trkpt lat="42.08859" lon="23.621486"><ele>1958.8</ele><time>2026-03-08T07:12:06.000Z</time></trkpt>
<trkpt lat="42.088598" lon="23.621478"><ele>1959.3</ele><time>2026-03-08T07:12:07.000Z</time></trkpt>
<trkpt lat="42.088606" lon="23.62147"><ele>1959.3</ele><time>2026-03-08T07:12:08.000Z</time></trkpt>
<trkpt lat="42.088613" lon="23.621462"><ele>1959.3</ele><time>2026-03-08T07:12:09.000Z</time></trkpt>
<trkpt lat="42.088622" lon="23.621456"><ele>1959.3</ele><time>2026-03-08T07:12:10.000Z</time></trkpt>
<trkpt lat="42.08863" lon="23.62145"><ele>1959.3</ele><time>2026-03-08T07:12:11.000Z</time></trkpt>
<trkpt lat="42.088637" lon="23.621445"><ele>1959.6</ele><time>2026-03-08T07:12:12.000Z</time></trkpt>
<trkpt lat="42.088646" lon="23.62144"><ele>1959.6</ele><time>2026-03-08T07:12:13.000Z</time></trkpt>
<trkpt lat="42.088654" lon="23.621436"><ele>1959.6</ele><time>2026-03-08T07:12:14.000Z</time></trkpt>
<trkpt lat="42.088662" lon="23.621431"><ele>1959.6</ele><time>2026-03-08T07:12:15.000Z</time></trkpt>
<trkpt lat="42.08867" lon="23.621426"><ele>1959.6</ele><time>2026-03-08T07:12:16.000Z</time></trkpt>
<trkpt lat="42.088677" lon="23.621421"><ele>1960.1</ele><time>2026-03-08T07:12:17.000Z</time></trkpt>
<trkpt lat="42.088683" lon="23.621416"><ele>1960.1</ele><time>2026-03-08T07:12:18.000Z</time></trkpt>
<trkpt lat="42.08869" lon="23.621412"><ele>1960.1</ele><time>2026-03-08T07:12:19.000Z</time></trkpt>
<trkpt lat="42.088695" lon="23.621408"><ele>1960.1</ele><time>2026-03-08T07:12:20.000Z</time></trkpt>
<trkpt lat="42.088701" lon="23.621405"><ele>1960.1</ele><time>2026-03-08T07:12:21.000Z</time></trkpt>
<trkpt lat="42.088708" lon="23.6214"><ele>1960.6</ele><time>2026-03-08T07:12:22.000Z</time></trkpt>
<trkpt lat="42.088714" lon="23.621397"><ele>1960.6</ele><time>2026-03-08T07:12:23.000Z</time></trkpt>
<trkpt lat="42.088722" lon="23.621392"><ele>1960.6</ele><time>2026-03-08T07:12:24.000Z</time></trkpt>
<trkpt lat="42.08873" lon="23.621387"><ele>1960.6</ele><time>2026-03-08T07:12:25.000Z</time></trkpt>
<trkpt lat="42.088739" lon="23.621381"><ele>1960.6</ele><time>2026-03-08T07:12:26.000Z</time></trkpt>
<trkpt lat="42.088749" lon="23.621376"><ele>1960.9</ele><time>2026-03-08T07:12:27.000Z</time></trkpt>
<trkpt lat="42.088758" lon="23.621371"><ele>1960.9</ele><time>2026-03-08T07:12:28.000Z</time></trkpt>
<trkpt lat="42.088768" lon="23.621366"><ele>1960.9</ele><time>2026-03-08T07:12:29.000Z</time></trkpt>
<trkpt lat="42.088778" lon="23.621361"><ele>1960.9</ele><time>2026-03-08T07:12:30.000Z</time></trkpt>
<trkpt lat="42.088787" lon="23.621355"><ele>1960.9</ele><time>2026-03-08T07:12:31.000Z</time></trkpt>
<trkpt lat="42.088796" lon="23.621349"><ele>1961.5</ele><time>2026-03-08T07:12:32.000Z</time></trkpt>
<trkpt lat="42.088805" lon="23.621343"><ele>1961.5</ele><time>2026-03-08T07:12:33.000Z</time></trkpt>
<trkpt lat="42.088815" lon="23.621335"><ele>1961.5</ele><time>2026-03-08T07:12:34.000Z</time></trkpt>
<trkpt lat="42.088826" lon="23.621328"><ele>1961.5</ele><time>2026-03-08T07:12:35.000Z</time></trkpt>
<trkpt lat="42.088836" lon="23.621321"><ele>1961.5</ele><time>2026-03-08T07:12:36.000Z</time></trkpt>
<trkpt lat="42.088847" lon="23.621314"><ele>1962.1</ele><time>2026-03-08T07:12:37.000Z</time></trkpt>
<trkpt lat="42.088857" lon="23.621308"><ele>1962.1</ele><time>2026-03-08T07:12:38.000Z</time></trkpt>
<trkpt lat="42.088867" lon="23.6213"><ele>1962.1</ele><time>2026-03-08T07:12:39.000Z</time></trkpt>
<trkpt lat="42.088877" lon="23.621292"><ele>1962.1</ele><time>2026-03-08T07:12:40.000Z</time></trkpt>
<trkpt lat="42.088886" lon="23.621284"><ele>1962.1</ele><time>2026-03-08T07:12:41.000Z</time></trkpt>
<trkpt lat="42.088895" lon="23.621276"><ele>1962.4</ele><time>2026-03-08T07:12:42.000Z</time></trkpt>
<trkpt lat="42.088903" lon="23.621268"><ele>1962.4</ele><time>2026-03-08T07:12:43.000Z</time></trkpt>
<trkpt lat="42.088911" lon="23.621261"><ele>1962.4</ele><time>2026-03-08T07:12:44.000Z</time></trkpt>
<trkpt lat="42.088919" lon="23.621256"><ele>1962.4</ele><time>2026-03-08T07:12:45.000Z</time></trkpt>
<trkpt lat="42.088926" lon="23.621251"><ele>1962.4</ele><time>2026-03-08T07:12:46.000Z</time></trkpt>
<trkpt lat="42.088933" lon="23.621245"><ele>1963</ele><time>2026-03-08T07:12:47.000Z</time></trkpt>
<trkpt lat="42.088941" lon="23.621239"><ele>1963</ele><time>2026-03-08T07:12:48.000Z</time></trkpt>
<trkpt lat="42.088948" lon="23.621233"><ele>1963</ele><time>2026-03-08T07:12:49.000Z</time></trkpt>
<trkpt lat="42.088955" lon="23.621226"><ele>1963</ele><time>2026-03-08T07:12:50.000Z</time></trkpt>
<trkpt lat="42.088963" lon="23.621217"><ele>1963</ele><time>2026-03-08T07:12:51.000Z</time></trkpt>
<trkpt lat="42.08897" lon="23.621209"><ele>1963.4</ele><time>2026-03-08T07:12:52.000Z</time></trkpt>
<trkpt lat="42.088978" lon="23.621201"><ele>1963.4</ele><time>2026-03-08T07:12:53.000Z</time></trkpt>
<trkpt lat="42.088986" lon="23.621194"><ele>1963.4</ele><time>2026-03-08T07:12:54.000Z</time></trkpt>
<trkpt lat="42.088993" lon="23.621186"><ele>1963.4</ele><time>2026-03-08T07:12:55.000Z</time></trkpt>
<trkpt lat="42.089001" lon="23.621178"><ele>1963.4</ele><time>2026-03-08T07:12:56.000Z</time></trkpt>
<trkpt lat="42.089008" lon="23.62117"><ele>1963.7</ele><time>2026-03-08T07:12:57.000Z</time></trkpt>
<trkpt lat="42.089015" lon="23.621161"><ele>1963.7</ele><time>2026-03-08T07:12:58.000Z</time></trkpt>
<trkpt lat="42.089021" lon="23.621151"><ele>1963.7</ele><time>2026-03-08T07:12:59.000Z</time></trkpt>
<trkpt lat="42.089028" lon="23.621143"><ele>1963.7</ele><time>2026-03-08T07:13:00.000Z</time></trkpt>
<trkpt lat="42.089034" lon="23.621134"><ele>1963.7</ele><time>2026-03-08T07:13:01.000Z</time></trkpt>
<trkpt lat="42.089041" lon="23.621125"><ele>1964.2</ele><time>2026-03-08T07:13:02.000Z</time></trkpt>
<trkpt lat="42.089049" lon="23.621115"><ele>1964.2</ele><time>2026-03-08T07:13:03.000Z</time></trkpt>
<trkpt lat="42.089057" lon="23.621104"><ele>1964.2</ele><time>2026-03-08T07:13:04.000Z</time></trkpt>
<trkpt lat="42.089064" lon="23.621092"><ele>1964.2</ele><time>2026-03-08T07:13:05.000Z</time></trkpt>
<trkpt lat="42.089073" lon="23.621082"><ele>1964.2</ele><time>2026-03-08T07:13:06.000Z</time></trkpt>
<trkpt lat="42.089081" lon="23.621071"><ele>1964.6</ele><time>2026-03-08T07:13:07.000Z</time></trkpt>
<trkpt lat="42.08909" lon="23.62106"><ele>1964.6</ele><time>2026-03-08T07:13:08.000Z</time></trkpt>
<trkpt lat="42.089097" lon="23.62105"><ele>1964.6</ele><time>2026-03-08T07:13:09.000Z</time></trkpt>
<trkpt lat="42.089104" lon="23.621041"><ele>1964.6</ele><time>2026-03-08T07:13:10.000Z</time></trkpt>
<trkpt lat="42.089109" lon="23.621031"><ele>1964.6</ele><time>2026-03-08T07:13:11.000Z</time></trkpt>
<trkpt lat="42.089114" lon="23.621021"><ele>1964.8</ele><time>2026-03-08T07:13:12.000Z</time></trkpt>
<trkpt lat="42.089117" lon="23.621009"><ele>1964.8</ele><time>2026-03-08T07:13:13.000Z</time></trkpt>
<trkpt lat="42.089119" lon="23.620997"><ele>1964.8</ele><time>2026-03-08T07:13:14.000Z</time></trkpt>
<trkpt lat="42.089122" lon="23.620984"><ele>1964.8</ele><time>2026-03-08T07:13:15.000Z</time></trkpt>
<trkpt lat="42.089123" lon="23.620969"><ele>1964.8</ele><time>2026-03-08T07:13:16.000Z</time></trkpt>
<trkpt lat="42.089125" lon="23.620956"><ele>1965.2</ele><time>2026-03-08T07:13:17.000Z</time></trkpt>
<trkpt lat="42.089129" lon="23.620944"><ele>1965.2</ele><time>2026-03-08T07:13:18.000Z</time></trkpt>
<trkpt lat="42.089136" lon="23.620934"><ele>1965.2</ele><time>2026-03-08T07:13:19.000Z</time></trkpt>
<trkpt lat="42.089145" lon="23.620924"><ele>1965.2</ele><time>2026-03-08T07:13:20.000Z</time></trkpt>
<trkpt lat="42.089156" lon="23.620916"><ele>1965.2</ele><time>2026-03-08T07:13:21.000Z</time></trkpt>
<trkpt lat="42.089168" lon="23.620906"><ele>1965.6</ele><time>2026-03-08T07:13:22.000Z</time></trkpt>
<trkpt lat="42.089178" lon="23.620896"><ele>1965.6</ele><time>2026-03-08T07:13:23.000Z</time></trkpt>
<trkpt lat="42.089188" lon="23.620886"><ele>1965.6</ele><time>2026-03-08T07:13:24.000Z</time></trkpt>
<trkpt lat="42.089197" lon="23.620877"><ele>1965.6</ele><time>2026-03-08T07:13:25.000Z</time></trkpt>
<trkpt lat="42.089205" lon="23.620867"><ele>1965.6</ele><time>2026-03-08T07:13:26.000Z</time></trkpt>
<trkpt lat="42.089212" lon="23.620858"><ele>1965.7</ele><time>2026-03-08T07:13:27.000Z</time></trkpt>
<trkpt lat="42.08922" lon="23.620851"><ele>1965.7</ele><time>2026-03-08T07:13:28.000Z</time></trkpt>
<trkpt lat="42.089227" lon="23.620843"><ele>1965.7</ele><time>2026-03-08T07:13:29.000Z</time></trkpt>
<trkpt lat="42.089234" lon="23.620836"><ele>1965.7</ele><time>2026-03-08T07:13:30.000Z</time></trkpt>
<trkpt lat="42.08924" lon="23.620829"><ele>1965.7</ele><time>2026-03-08T07:13:31.000Z</time></trkpt>
<trkpt lat="42.089247" lon="23.620822"><ele>1966</ele><time>2026-03-08T07:13:32.000Z</time></trkpt>
<trkpt lat="42.089253" lon="23.620816"><ele>1966</ele><time>2026-03-08T07:13:33.000Z</time></trkpt>
<trkpt lat="42.089259" lon="23.620809"><ele>1966</ele><time>2026-03-08T07:13:34.000Z</time></trkpt>
<trkpt lat="42.089263" lon="23.620802"><ele>1966</ele><time>2026-03-08T07:13:35.000Z</time></trkpt>
<trkpt lat="42.089268" lon="23.620795"><ele>1966</ele><time>2026-03-08T07:13:36.000Z</time></trkpt>
<trkpt lat="42.089273" lon="23.620787"><ele>1966.3</ele><time>2026-03-08T07:13:37.000Z</time></trkpt>
<trkpt lat="42.089279" lon="23.620779"><ele>1966.3</ele><time>2026-03-08T07:13:38.000Z</time></trkpt>
<trkpt lat="42.089283" lon="23.620768"><ele>1966.3</ele><time>2026-03-08T07:13:39.000Z</time></trkpt>
<trkpt lat="42.089287" lon="23.620757"><ele>1966.3</ele><time>2026-03-08T07:13:40.000Z</time></trkpt>
<trkpt lat="42.089291" lon="23.620746"><ele>1966.3</ele><time>2026-03-08T07:13:41.000Z</time></trkpt>
<trkpt lat="42.089296" lon="23.620736"><ele>1966.5</ele><time>2026-03-08T07:13:42.000Z</time></trkpt>
<trkpt lat="42.089302" lon="23.620725"><ele>1966.5</ele><time>2026-03-08T07:13:43.000Z</time></trkpt>
<trkpt lat="42.089309" lon="23.620715"><ele>1966.5</ele><time>2026-03-08T07:13:44.000Z</time></trkpt>
<trkpt lat="42.089318" lon="23.620705"><ele>1966.5</ele><time>2026-03-08T07:13:45.000Z</time></trkpt>
<trkpt lat="42.089326" lon="23.620694"><ele>1966.5</ele><time>2026-03-08T07:13:46.000Z</time></trkpt>
<trkpt lat="42.089333" lon="23.620683"><ele>1966.8</ele><time>2026-03-08T07:13:47.000Z</time></trkpt>
<trkpt lat="42.089339" lon="23.620672"><ele>1966.8</ele><time>2026-03-08T07:13:48.000Z</time></trkpt>
<trkpt lat="42.089344" lon="23.620661"><ele>1966.8</ele><time>2026-03-08T07:13:49.000Z</time></trkpt>
<trkpt lat="42.089349" lon="23.62065"><ele>1966.8</ele><time>2026-03-08T07:13:50.000Z</time></trkpt>
<trkpt lat="42.089352" lon="23.620638"><ele>1966.8</ele><time>2026-03-08T07:13:51.000Z</time></trkpt>
<trkpt lat="42.089355" lon="23.620626"><ele>1967.1</ele><time>2026-03-08T07:13:52.000Z</time></trkpt>
<trkpt lat="42.089358" lon="23.620615"><ele>1967.1</ele><time>2026-03-08T07:13:53.000Z</time></trkpt>
<trkpt lat="42.089361" lon="23.620604"><ele>1967.1</ele><time>2026-03-08T07:13:54.000Z</time></trkpt>
<trkpt lat="42.089364" lon="23.620593"><ele>1967.1</ele><time>2026-03-08T07:13:55.000Z</time></trkpt>
<trkpt lat="42.089368" lon="23.620582"><ele>1967.1</ele><time>2026-03-08T07:13:56.000Z</time></trkpt>
<trkpt lat="42.089372" lon="23.620571"><ele>1967.3</ele><time>2026-03-08T07:13:57.000Z</time></trkpt>
<trkpt lat="42.089376" lon="23.620561"><ele>1967.3</ele><time>2026-03-08T07:13:58.000Z</time></trkpt>
<trkpt lat="42.089381" lon="23.620549"><ele>1967.3</ele><time>2026-03-08T07:13:59.000Z</time></trkpt>
<trkpt lat="42.089385" lon="23.620538"><ele>1967.3</ele><time>2026-03-08T07:14:00.000Z</time></trkpt>
<trkpt lat="42.08939" lon="23.620526"><ele>1967.3</ele><time>2026-03-08T07:14:01.000Z</time></trkpt>
<trkpt lat="42.089395" lon="23.620514"><ele>1967.5</ele><time>2026-03-08T07:14:02.000Z</time></trkpt>
<trkpt lat="42.0894" lon="23.620501"><ele>1967.5</ele><time>2026-03-08T07:14:03.000Z</time></trkpt>
<trkpt lat="42.089406" lon="23.620488"><ele>1967.5</ele><time>2026-03-08T07:14:04.000Z</time></trkpt>
<trkpt lat="42.089412" lon="23.620475"><ele>1967.5</ele><time>2026-03-08T07:14:05.000Z</time></trkpt>
<trkpt lat="42.089417" lon="23.620463"><ele>1967.5</ele><time>2026-03-08T07:14:06.000Z</time></trkpt>
<trkpt lat="42.089422" lon="23.620451"><ele>1967.9</ele><time>2026-03-08T07:14:07.000Z</time></trkpt>
<trkpt lat="42.089427" lon="23.620439"><ele>1967.9</ele><time>2026-03-08T07:14:08.000Z</time></trkpt>
<trkpt lat="42.08943" lon="23.620428"><ele>1967.9</ele><time>2026-03-08T07:14:09.000Z</time></trkpt>
<trkpt lat="42.089433" lon="23.620417"><ele>1967.9</ele><time>2026-03-08T07:14:10.000Z</time></trkpt>
<trkpt lat="42.089437" lon="23.620406"><ele>1967.9</ele><time>2026-03-08T07:14:11.000Z</time></trkpt>
<trkpt lat="42.089442" lon="23.620394"><ele>1968.1</ele><time>2026-03-08T07:14:12.000Z</time></trkpt>
<trkpt lat="42.089447" lon="23.620383"><ele>1968.1</ele><time>2026-03-08T07:14:13.000Z</time></trkpt>
<trkpt lat="42.089452" lon="23.620372"><ele>1968.1</ele><time>2026-03-08T07:14:14.000Z</time></trkpt>
<trkpt lat="42.089458" lon="23.62036"><ele>1968.1</ele><time>2026-03-08T07:14:15.000Z</time></trkpt>
<trkpt lat="42.089462" lon="23.62035"><ele>1968.1</ele><time>2026-03-08T07:14:16.000Z</time></trkpt>
<trkpt lat="42.089466" lon="23.620339"><ele>1968.6</ele><time>2026-03-08T07:14:17.000Z</time></trkpt>
<trkpt lat="42.08947" lon="23.620328"><ele>1968.6</ele><time>2026-03-08T07:14:18.000Z</time></trkpt>
<trkpt lat="42.089474" lon="23.620317"><ele>1968.6</ele><time>2026-03-08T07:14:19.000Z</time></trkpt>
<trkpt lat="42.089476" lon="23.620306"><ele>1968.6</ele><time>2026-03-08T07:14:20.000Z</time></trkpt>
<trkpt lat="42.089477" lon="23.620295"><ele>1968.6</ele><time>2026-03-08T07:14:21.000Z</time></trkpt>
<trkpt lat="42.089478" lon="23.620284"><ele>1968.9</ele><time>2026-03-08T07:14:22.000Z</time></trkpt>
<trkpt lat="42.089479" lon="23.620274"><ele>1968.9</ele><time>2026-03-08T07:14:23.000Z</time></trkpt>
<trkpt lat="42.08948" lon="23.620263"><ele>1968.9</ele><time>2026-03-08T07:14:24.000Z</time></trkpt>
<trkpt lat="42.089482" lon="23.620253"><ele>1968.9</ele><time>2026-03-08T07:14:25.000Z</time></trkpt>
<trkpt lat="42.089486" lon="23.620242"><ele>1968.9</ele><time>2026-03-08T07:14:26.000Z</time></trkpt>
<trkpt lat="42.089491" lon="23.620232"><ele>1969</ele><time>2026-03-08T07:14:27.000Z</time></trkpt>
<trkpt lat="42.089496" lon="23.620222"><ele>1969</ele><time>2026-03-08T07:14:28.000Z</time></trkpt>
<trkpt lat="42.089504" lon="23.620212"><ele>1969</ele><time>2026-03-08T07:14:29.000Z</time></trkpt>
<trkpt lat="42.089512" lon="23.620203"><ele>1969</ele><time>2026-03-08T07:14:30.000Z</time></trkpt>
<trkpt lat="42.08952" lon="23.620193"><ele>1969</ele><time>2026-03-08T07:14:31.000Z</time></trkpt>
<trkpt lat="42.089527" lon="23.620184"><ele>1969.4</ele><time>2026-03-08T07:14:32.000Z</time></trkpt>
<trkpt lat="42.089534" lon="23.620175"><ele>1969.4</ele><time>2026-03-08T07:14:33.000Z</time></trkpt>
<trkpt lat="42.08954" lon="23.620165"><ele>1969.4</ele><time>2026-03-08T07:14:34.000Z</time></trkpt>
<trkpt lat="42.089545" lon="23.620156"><ele>1969.4</ele><time>2026-03-08T07:14:35.000Z</time></trkpt>
<trkpt lat="42.089549" lon="23.620147"><ele>1969.4</ele><time>2026-03-08T07:14:36.000Z</time></trkpt>
<trkpt lat="42.089555" lon="23.620137"><ele>1969.8</ele><time>2026-03-08T07:14:37.000Z</time></trkpt>
<trkpt lat="42.08956" lon="23.620127"><ele>1969.8</ele><time>2026-03-08T07:14:38.000Z</time></trkpt>
<trkpt lat="42.089564" lon="23.620116"><ele>1969.8</ele><time>2026-03-08T07:14:39.000Z</time></trkpt>
<trkpt lat="42.089569" lon="23.620104"><ele>1969.8</ele><time>2026-03-08T07:14:40.000Z</time></trkpt>
<trkpt lat="42.089575" lon="23.620092"><ele>1969.8</ele><time>2026-03-08T07:14:41.000Z</time></trkpt>
<trkpt lat="42.089579" lon="23.620081"><ele>1970</ele><time>2026-03-08T07:14:42.000Z</time></trkpt>
<trkpt lat="42.089584" lon="23.620068"><ele>1970</ele><time>2026-03-08T07:14:43.000Z</time></trkpt>
<trkpt lat="42.089591" lon="23.620056"><ele>1970</ele><time>2026-03-08T07:14:44.000Z</time></trkpt>
<trkpt lat="42.089597" lon="23.620044"><ele>1970</ele><time>2026-03-08T07:14:45.000Z</time></trkpt>
<trkpt lat="42.089604" lon="23.620033"><ele>1970</ele><time>2026-03-08T07:14:46.000Z</time></trkpt>
<trkpt lat="42.089611" lon="23.620022"><ele>1970.4</ele><time>2026-03-08T07:14:47.000Z</time></trkpt>
<trkpt lat="42.089619" lon="23.620013"><ele>1970.4</ele><time>2026-03-08T07:14:48.000Z</time></trkpt>
<trkpt lat="42.089626" lon="23.620005"><ele>1970.4</ele><time>2026-03-08T07:14:49.000Z</time></trkpt>
<trkpt lat="42.089634" lon="23.619996"><ele>1970.4</ele><time>2026-03-08T07:14:50.000Z</time></trkpt>
<trkpt lat="42.089643" lon="23.619989"><ele>1970.4</ele><time>2026-03-08T07:14:51.000Z</time></trkpt>
<trkpt lat="42.089652" lon="23.619981"><ele>1970.8</ele><time>2026-03-08T07:14:52.000Z</time></trkpt>
<trkpt lat="42.08966" lon="23.619972"><ele>1970.8</ele><time>2026-03-08T07:14:53.000Z</time></trkpt>
<trkpt lat="42.089669" lon="23.619964"><ele>1970.8</ele><time>2026-03-08T07:14:54.000Z</time></trkpt>
<trkpt lat="42.089676" lon="23.619955"><ele>1970.8</ele><time>2026-03-08T07:14:55.000Z</time></trkpt>
<trkpt lat="42.089682" lon="23.619945"><ele>1970.8</ele><time>2026-03-08T07:14:56.000Z</time></trkpt>
<trkpt lat="42.089687" lon="23.619935"><ele>1970.9</ele><time>2026-03-08T07:14:57.000Z</time></trkpt>
<trkpt lat="42.089692" lon="23.619925"><ele>1970.9</ele><time>2026-03-08T07:14:58.000Z</time></trkpt>
<trkpt lat="42.089695" lon="23.619914"><ele>1970.9</ele><time>2026-03-08T07:14:59.000Z</time></trkpt>
<trkpt lat="42.0897" lon="23.619902"><ele>1970.9</ele><time>2026-03-08T07:15:00.000Z</time></trkpt>
<trkpt lat="42.089704" lon="23.619889"><ele>1970.9</ele><time>2026-03-08T07:15:01.000Z</time></trkpt>
<trkpt lat="42.089707" lon="23.619876"><ele>1971.3</ele><time>2026-03-08T07:15:02.000Z</time></trkpt>
<trkpt lat="42.089711" lon="23.619862"><ele>1971.3</ele><time>2026-03-08T07:15:03.000Z</time></trkpt>
<trkpt lat="42.089715" lon="23.619848"><ele>1971.3</ele><time>2026-03-08T07:15:04.000Z</time></trkpt>
<trkpt lat="42.089719" lon="23.619835"><ele>1971.3</ele><time>2026-03-08T07:15:05.000Z</time></trkpt>
<trkpt lat="42.089724" lon="23.619822"><ele>1971.3</ele><time>2026-03-08T07:15:06.000Z</time></trkpt>
<trkpt lat="42.08973" lon="23.619808"><ele>1971.6</ele><time>2026-03-08T07:15:07.000Z</time></trkpt>
<trkpt lat="42.089735" lon="23.619796"><ele>1971.6</ele><time>2026-03-08T07:15:08.000Z</time></trkpt>
<trkpt lat="42.08974" lon="23.619784"><ele>1971.6</ele><time>2026-03-08T07:15:09.000Z</time></trkpt>
<trkpt lat="42.089746" lon="23.619772"><ele>1971.6</ele><time>2026-03-08T07:15:10.000Z</time></trkpt>
<trkpt lat="42.089751" lon="23.619762"><ele>1971.6</ele><time>2026-03-08T07:15:11.000Z</time></trkpt>
<trkpt lat="42.089756" lon="23.619754"><ele>1971.8</ele><time>2026-03-08T07:15:12.000Z</time></trkpt>
<trkpt lat="42.089763" lon="23.619746"><ele>1971.8</ele><time>2026-03-08T07:15:13.000Z</time></trkpt>
<trkpt lat="42.08977" lon="23.619737"><ele>1971.8</ele><time>2026-03-08T07:15:14.000Z</time></trkpt>
<trkpt lat="42.089777" lon="23.619728"><ele>1971.8</ele><time>2026-03-08T07:15:15.000Z</time></trkpt>
<trkpt lat="42.089785" lon="23.619719"><ele>1971.8</ele><time>2026-03-08T07:15:16.000Z</time></trkpt>
<trkpt lat="42.089792" lon="23.619708"><ele>1972.3</ele><time>2026-03-08T07:15:17.000Z</time></trkpt>
<trkpt lat="42.089798" lon="23.619697"><ele>1972.3</ele><time>2026-03-08T07:15:18.000Z</time></trkpt>
<trkpt lat="42.089803" lon="23.619687"><ele>1972.3</ele><time>2026-03-08T07:15:19.000Z</time></trkpt>
<trkpt lat="42.089808" lon="23.619675"><ele>1972.3</ele><time>2026-03-08T07:15:20.000Z</time></trkpt>
<trkpt lat="42.089814" lon="23.619664"><ele>1972.3</ele><time>2026-03-08T07:15:21.000Z</time></trkpt>
<trkpt lat="42.089819" lon="23.619654"><ele>1972.7</ele><time>2026-03-08T07:15:22.000Z</time></trkpt>
<trkpt lat="42.089825" lon="23.619645"><ele>1972.7</ele><time>2026-03-08T07:15:23.000Z</time></trkpt>
<trkpt lat="42.089831" lon="23.619636"><ele>1972.7</ele><time>2026-03-08T07:15:24.000Z</time></trkpt>
<trkpt lat="42.089836" lon="23.619627"><ele>1972.7</ele><time>2026-03-08T07:15:25.000Z</time></trkpt>
<trkpt lat="42.089842" lon="23.619618"><ele>1972.7</ele><time>2026-03-08T07:15:26.000Z</time></trkpt>
<trkpt lat="42.089847" lon="23.619609"><ele>1972.9</ele><time>2026-03-08T07:15:27.000Z</time></trkpt>
<trkpt lat="42.089853" lon="23.6196"><ele>1972.9</ele><time>2026-03-08T07:15:28.000Z</time></trkpt>
<trkpt lat="42.08986" lon="23.619591"><ele>1972.9</ele><time>2026-03-08T07:15:29.000Z</time></trkpt>
<trkpt lat="42.089868" lon="23.619581"><ele>1972.9</ele><time>2026-03-08T07:15:30.000Z</time></trkpt>
<trkpt lat="42.089875" lon="23.619571"><ele>1972.9</ele><time>2026-03-08T07:15:31.000Z</time></trkpt>
<trkpt lat="42.089881" lon="23.619559"><ele>1973.3</ele><time>2026-03-08T07:15:32.000Z</time></trkpt>
<trkpt lat="42.089887" lon="23.619547"><ele>1973.3</ele><time>2026-03-08T07:15:33.000Z</time></trkpt>
<trkpt lat="42.089894" lon="23.619535"><ele>1973.3</ele><time>2026-03-08T07:15:34.000Z</time></trkpt>
<trkpt lat="42.089899" lon="23.619523"><ele>1973.3</ele><time>2026-03-08T07:15:35.000Z</time></trkpt>
<trkpt lat="42.089906" lon="23.619512"><ele>1973.3</ele><time>2026-03-08T07:15:36.000Z</time></trkpt>
<trkpt lat="42.089914" lon="23.619501"><ele>1973.5</ele><time>2026-03-08T07:15:37.000Z</time></trkpt>
<trkpt lat="42.089922" lon="23.61949"><ele>1973.5</ele><time>2026-03-08T07:15:38.000Z</time></trkpt>
<trkpt lat="42.089929" lon="23.61948"><ele>1973.5</ele><time>2026-03-08T07:15:39.000Z</time></trkpt>
<trkpt lat="42.089937" lon="23.61947"><ele>1973.5</ele><time>2026-03-08T07:15:40.000Z</time></trkpt>
<trkpt lat="42.089945" lon="23.61946"><ele>1973.5</ele><time>2026-03-08T07:15:41.000Z</time></trkpt>
<trkpt lat="42.089954" lon="23.619451"><ele>1973.6</ele><time>2026-03-08T07:15:42.000Z</time></trkpt>
<trkpt lat="42.089962" lon="23.619441"><ele>1973.6</ele><time>2026-03-08T07:15:43.000Z</time></trkpt>
<trkpt lat="42.08997" lon="23.61943"><ele>1973.6</ele><time>2026-03-08T07:15:44.000Z</time></trkpt>
<trkpt lat="42.089979" lon="23.619419"><ele>1973.6</ele><time>2026-03-08T07:15:45.000Z</time></trkpt>
<trkpt lat="42.089986" lon="23.619408"><ele>1973.6</ele><time>2026-03-08T07:15:46.000Z</time></trkpt>
<trkpt lat="42.089993" lon="23.619398"><ele>1973.8</ele><time>2026-03-08T07:15:47.000Z</time></trkpt>
<trkpt lat="42.089999" lon="23.619388"><ele>1973.8</ele><time>2026-03-08T07:15:48.000Z</time></trkpt>
<trkpt lat="42.090007" lon="23.619379"><ele>1973.8</ele><time>2026-03-08T07:15:49.000Z</time></trkpt>
<trkpt lat="42.090014" lon="23.61937"><ele>1973.8</ele><time>2026-03-08T07:15:50.000Z</time></trkpt>
<trkpt lat="42.090021" lon="23.619362"><ele>1973.8</ele><time>2026-03-08T07:15:51.000Z</time></trkpt>
<trkpt lat="42.090029" lon="23.619353"><ele>1974.1</ele><time>2026-03-08T07:15:52.000Z</time></trkpt>
<trkpt lat="42.090036" lon="23.619345"><ele>1974.1</ele><time>2026-03-08T07:15:53.000Z</time></trkpt>
<trkpt lat="42.090044" lon="23.619336"><ele>1974.1</ele><time>2026-03-08T07:15:54.000Z</time></trkpt>
<trkpt lat="42.090052" lon="23.619327"><ele>1974.1</ele><time>2026-03-08T07:15:55.000Z</time></trkpt>
<trkpt lat="42.09006" lon="23.619317"><ele>1974.1</ele><time>2026-03-08T07:15:56.000Z</time></trkpt>
<trkpt lat="42.090068" lon="23.619306"><ele>1974.3</ele><time>2026-03-08T07:15:57.000Z</time></trkpt>
<trkpt lat="42.090076" lon="23.619295"><ele>1974.3</ele><time>2026-03-08T07:15:58.000Z</time></trkpt>
<trkpt lat="42.090084" lon="23.619284"><ele>1974.3</ele><time>2026-03-08T07:15:59.000Z</time></trkpt>
<trkpt lat="42.090091" lon="23.619273"><ele>1974.3</ele><time>2026-03-08T07:16:00.000Z</time></trkpt>
<trkpt lat="42.090097" lon="23.61926"><ele>1974.3</ele><time>2026-03-08T07:16:01.000Z</time></trkpt>
<trkpt lat="42.090103" lon="23.619247"><ele>1974.7</ele><time>2026-03-08T07:16:02.000Z</time></trkpt>
<trkpt lat="42.090109" lon="23.619234"><ele>1974.7</ele><time>2026-03-08T07:16:03.000Z</time></trkpt>
<trkpt lat="42.090115" lon="23.619221"><ele>1974.7</ele><time>2026-03-08T07:16:04.000Z</time></trkpt>
<trkpt lat="42.090123" lon="23.619208"><ele>1974.7</ele><time>2026-03-08T07:16:05.000Z</time></trkpt>
<trkpt lat="42.090131" lon="23.619196"><ele>1974.7</ele><time>2026-03-08T07:16:06.000Z</time></trkpt>
<trkpt lat="42.090141" lon="23.619186"><ele>1975.1</ele><time>2026-03-08T07:16:07.000Z</time></trkpt>
<trkpt lat="42.090152" lon="23.619177"><ele>1975.1</ele><time>2026-03-08T07:16:08.000Z</time></trkpt>
<trkpt lat="42.090162" lon="23.619169"><ele>1975.1</ele><time>2026-03-08T07:16:09.000Z</time></trkpt>
<trkpt lat="42.090173" lon="23.619162"><ele>1975.1</ele><time>2026-03-08T07:16:10.000Z</time></trkpt>
<trkpt lat="42.090184" lon="23.619155"><ele>1975.1</ele><time>2026-03-08T07:16:11.000Z</time></trkpt>
<trkpt lat="42.090194" lon="23.619147"><ele>1975.4</ele><time>2026-03-08T07:16:12.000Z</time></trkpt>
<trkpt lat="42.090204" lon="23.619139"><ele>1975.4</ele><time>2026-03-08T07:16:13.000Z</time></trkpt>
<trkpt lat="42.090213" lon="23.619131"><ele>1975.4</ele><time>2026-03-08T07:16:14.000Z</time></trkpt>
<trkpt lat="42.090222" lon="23.619122"><ele>1975.4</ele><time>2026-03-08T07:16:15.000Z</time></trkpt>
<trkpt lat="42.09023" lon="23.619112"><ele>1975.4</ele><time>2026-03-08T07:16:16.000Z</time></trkpt>
<trkpt lat="42.090238" lon="23.619102"><ele>1975.8</ele><time>2026-03-08T07:16:17.000Z</time></trkpt>
<trkpt lat="42.090246" lon="23.619091"><ele>1975.8</ele><time>2026-03-08T07:16:18.000Z</time></trkpt>
<trkpt lat="42.090254" lon="23.619081"><ele>1975.8</ele><time>2026-03-08T07:16:19.000Z</time></trkpt>
<trkpt lat="42.090263" lon="23.619071"><ele>1975.8</ele><time>2026-03-08T07:16:20.000Z</time></trkpt>
<trkpt lat="42.090273" lon="23.61906"><ele>1975.8</ele><time>2026-03-08T07:16:21.000Z</time></trkpt>
<trkpt lat="42.090284" lon="23.619051"><ele>1975.9</ele><time>2026-03-08T07:16:22.000Z</time></trkpt>
<trkpt lat="42.090294" lon="23.619041"><ele>1975.9</ele><time>2026-03-08T07:16:23.000Z</time></trkpt>
<trkpt lat="42.090305" lon="23.619032"><ele>1975.9</ele><time>2026-03-08T07:16:24.000Z</time></trkpt>
<trkpt lat="42.090314" lon="23.619023"><ele>1975.9</ele><time>2026-03-08T07:16:25.000Z</time></trkpt>
<trkpt lat="42.090323" lon="23.619015"><ele>1975.9</ele><time>2026-03-08T07:16:26.000Z</time></trkpt>
<trkpt lat="42.090333" lon="23.619006"><ele>1976</ele><time>2026-03-08T07:16:27.000Z</time></trkpt>
<trkpt lat="42.090343" lon="23.618998"><ele>1976</ele><time>2026-03-08T07:16:28.000Z</time></trkpt>
<trkpt lat="42.090354" lon="23.618991"><ele>1976</ele><time>2026-03-08T07:16:29.000Z</time></trkpt>
<trkpt lat="42.090367" lon="23.618984"><ele>1976</ele><time>2026-03-08T07:16:30.000Z</time></trkpt>
<trkpt lat="42.090381" lon="23.618977"><ele>1976</ele><time>2026-03-08T07:16:31.000Z</time></trkpt>
<trkpt lat="42.090394" lon="23.61897"><ele>1976.3</ele><time>2026-03-08T07:16:32.000Z</time></trkpt>
<trkpt lat="42.090406" lon="23.618965"><ele>1976.3</ele><time>2026-03-08T07:16:33.000Z</time></trkpt>
<trkpt lat="42.090418" lon="23.618959"><ele>1976.3</ele><time>2026-03-08T07:16:34.000Z</time></trkpt>
<trkpt lat="42.09043" lon="23.618954"><ele>1976.3</ele><time>2026-03-08T07:16:35.000Z</time></trkpt>
<trkpt lat="42.090442" lon="23.61895"><ele>1976.3</ele><time>2026-03-08T07:16:36.000Z</time></trkpt>
<trkpt lat="42.090455" lon="23.618946"><ele>1976.7</ele><time>2026-03-08T07:16:37.000Z</time></trkpt>
<trkpt lat="42.090468" lon="23.618943"><ele>1976.7</ele><time>2026-03-08T07:16:38.000Z</time></trkpt>
<trkpt lat="42.090481" lon="23.618939"><ele>1976.7</ele><time>2026-03-08T07:16:39.000Z</time></trkpt>
<trkpt lat="42.090493" lon="23.618935"><ele>1976.7</ele><time>2026-03-08T07:16:40.000Z</time></trkpt>
<trkpt lat="42.090504" lon="23.618932"><ele>1976.7</ele><time>2026-03-08T07:16:41.000Z</time></trkpt>
<trkpt lat="42.090515" lon="23.618928"><ele>1976.8</ele><time>2026-03-08T07:16:42.000Z</time></trkpt>
<trkpt lat="42.090525" lon="23.618925"><ele>1976.8</ele><time>2026-03-08T07:16:43.000Z</time></trkpt>
<trkpt lat="42.090535" lon="23.618921"><ele>1976.8</ele><time>2026-03-08T07:16:44.000Z</time></trkpt>
<trkpt lat="42.090546" lon="23.618917"><ele>1976.8</ele><time>2026-03-08T07:16:45.000Z</time></trkpt>
<trkpt lat="42.090556" lon="23.618912"><ele>1976.8</ele><time>2026-03-08T07:16:46.000Z</time></trkpt>
<trkpt lat="42.090567" lon="23.618907"><ele>1977.1</ele><time>2026-03-08T07:16:47.000Z</time></trkpt>
<trkpt lat="42.090577" lon="23.618901"><ele>1977.1</ele><time>2026-03-08T07:16:48.000Z</time></trkpt>
<trkpt lat="42.090586" lon="23.618895"><ele>1977.1</ele><time>2026-03-08T07:16:49.000Z</time></trkpt>
<trkpt lat="42.090596" lon="23.61889"><ele>1977.1</ele><time>2026-03-08T07:16:50.000Z</time></trkpt>
<trkpt lat="42.090605" lon="23.618884"><ele>1977.1</ele><time>2026-03-08T07:16:51.000Z</time></trkpt>
<trkpt lat="42.090614" lon="23.61888"><ele>1977.4</ele><time>2026-03-08T07:16:52.000Z</time></trkpt>
<trkpt lat="42.090623" lon="23.618876"><ele>1977.4</ele><time>2026-03-08T07:16:53.000Z</time></trkpt>
<trkpt lat="42.090633" lon="23.618872"><ele>1977.4</ele><time>2026-03-08T07:16:54.000Z</time></trkpt>
<trkpt lat="42.090643" lon="23.618869"><ele>1977.4</ele><time>2026-03-08T07:16:55.000Z</time></trkpt>
<trkpt lat="42.090653" lon="23.618867"><ele>1977.4</ele><time>2026-03-08T07:16:56.000Z</time></trkpt>
<trkpt lat="42.090664" lon="23.618866"><ele>1977.5</ele><time>2026-03-08T07:16:57.000Z</time></trkpt>
<trkpt lat="42.090674" lon="23.618864"><ele>1977.5</ele><time>2026-03-08T07:16:58.000Z</time></trkpt>
<trkpt lat="42.090685" lon="23.618861"><ele>1977.5</ele><time>2026-03-08T07:16:59.000Z</time></trkpt>
<trkpt lat="42.090697" lon="23.618857"><ele>1977.5</ele><time>2026-03-08T07:17:00.000Z</time></trkpt>
<trkpt lat="42.090708" lon="23.618854"><ele>1977.5</ele><time>2026-03-08T07:17:01.000Z</time></trkpt>
<trkpt lat="42.09072" lon="23.618849"><ele>1977.8</ele><time>2026-03-08T07:17:02.000Z</time></trkpt>
<trkpt lat="42.09073" lon="23.618845"><ele>1977.8</ele><time>2026-03-08T07:17:03.000Z</time></trkpt>
<trkpt lat="42.09074" lon="23.618841"><ele>1977.8</ele><time>2026-03-08T07:17:04.000Z</time></trkpt>
<trkpt lat="42.090749" lon="23.618837"><ele>1977.8</ele><time>2026-03-08T07:17:05.000Z</time></trkpt>
<trkpt lat="42.090759" lon="23.618832"><ele>1977.8</ele><time>2026-03-08T07:17:06.000Z</time></trkpt>
<trkpt lat="42.090769" lon="23.618826"><ele>1978.1</ele><time>2026-03-08T07:17:07.000Z</time></trkpt>
<trkpt lat="42.090779" lon="23.618821"><ele>1978.1</ele><time>2026-03-08T07:17:08.000Z</time></trkpt>
<trkpt lat="42.090789" lon="23.618814"><ele>1978.1</ele><time>2026-03-08T07:17:09.000Z</time></trkpt>
<trkpt lat="42.090799" lon="23.618808"><ele>1978.1</ele><time>2026-03-08T07:17:10.000Z</time></trkpt>
<trkpt lat="42.090809" lon="23.618802"><ele>1978.1</ele><time>2026-03-08T07:17:11.000Z</time></trkpt>
<trkpt lat="42.090819" lon="23.618796"><ele>1978.2</ele><time>2026-03-08T07:17:12.000Z</time></trkpt>
<trkpt lat="42.090828" lon="23.618792"><ele>1978.2</ele><time>2026-03-08T07:17:13.000Z</time></trkpt>
<trkpt lat="42.090838" lon="23.618789"><ele>1978.2</ele><time>2026-03-08T07:17:14.000Z</time></trkpt>
<trkpt lat="42.090849" lon="23.618786"><ele>1978.2</ele><time>2026-03-08T07:17:15.000Z</time></trkpt>
<trkpt lat="42.09086" lon="23.618783"><ele>1978.2</ele><time>2026-03-08T07:17:16.000Z</time></trkpt>
<trkpt lat="42.090872" lon="23.61878"><ele>1978.4</ele><time>2026-03-08T07:17:17.000Z</time></trkpt>
<trkpt lat="42.090884" lon="23.618777"><ele>1978.4</ele><time>2026-03-08T07:17:18.000Z</time></trkpt>
<trkpt lat="42.090897" lon="23.618773"><ele>1978.4</ele><time>2026-03-08T07:17:19.000Z</time></trkpt>
<trkpt lat="42.090908" lon="23.61877"><ele>1978.4</ele><time>2026-03-08T07:17:20.000Z</time></trkpt>
<trkpt lat="42.090919" lon="23.618767"><ele>1978.4</ele><time>2026-03-08T07:17:21.000Z</time></trkpt>
<trkpt lat="42.090929" lon="23.618765"><ele>1978.5</ele><time>2026-03-08T07:17:22.000Z</time></trkpt>
<trkpt lat="42.090939" lon="23.618762"><ele>1978.5</ele><time>2026-03-08T07:17:23.000Z</time></trkpt>
<trkpt lat="42.090949" lon="23.618758"><ele>1978.5</ele><time>2026-03-08T07:17:24.000Z</time></trkpt>
<trkpt lat="42.090959" lon="23.618753"><ele>1978.5</ele><time>2026-03-08T07:17:25.000Z</time></trkpt>
<trkpt lat="42.090971" lon="23.618748"><ele>1978.5</ele><time>2026-03-08T07:17:26.000Z</time></trkpt>
<trkpt lat="42.090982" lon="23.618742"><ele>1978.7</ele><time>2026-03-08T07:17:27.000Z</time></trkpt>
<trkpt lat="42.090994" lon="23.618736"><ele>1978.7</ele><time>2026-03-08T07:17:28.000Z</time></trkpt>
<trkpt lat="42.091006" lon="23.618731"><ele>1978.7</ele><time>2026-03-08T07:17:29.000Z</time></trkpt>
<trkpt lat="42.091018" lon="23.618727"><ele>1978.7</ele><time>2026-03-08T07:17:30.000Z</time></trkpt>
<trkpt lat="42.091028" lon="23.618723"><ele>1978.7</ele><time>2026-03-08T07:17:31.000Z</time></trkpt>
<trkpt lat="42.091039" lon="23.618719"><ele>1978.9</ele><time>2026-03-08T07:17:32.000Z</time></trkpt>
<trkpt lat="42.091049" lon="23.618716"><ele>1978.9</ele><time>2026-03-08T07:17:33.000Z</time></trkpt>
<trkpt lat="42.091058" lon="23.618713"><ele>1978.9</ele><time>2026-03-08T07:17:34.000Z</time></trkpt>
<trkpt lat="42.091067" lon="23.618708"><ele>1978.9</ele><time>2026-03-08T07:17:35.000Z</time></trkpt>
<trkpt lat="42.091076" lon="23.618704"><ele>1978.9</ele><time>2026-03-08T07:17:36.000Z</time></trkpt>
<trkpt lat="42.091085" lon="23.618699"><ele>1979.3</ele><time>2026-03-08T07:17:37.000Z</time></trkpt>
<trkpt lat="42.091094" lon="23.618693"><ele>1979.3</ele><time>2026-03-08T07:17:38.000Z</time></trkpt>
<trkpt lat="42.091104" lon="23.618687"><ele>1979.3</ele><time>2026-03-08T07:17:39.000Z</time></trkpt>
<trkpt lat="42.091114" lon="23.618682"><ele>1979.3</ele><time>2026-03-08T07:17:40.000Z</time></trkpt>
<trkpt lat="42.091124" lon="23.618676"><ele>1979.3</ele><time>2026-03-08T07:17:41.000Z</time></trkpt>
<trkpt lat="42.091134" lon="23.618671"><ele>1979.5</ele><time>2026-03-08T07:17:42.000Z</time></trkpt>
<trkpt lat="42.091145" lon="23.618666"><ele>1979.5</ele><time>2026-03-08T07:17:43.000Z</time></trkpt>
<trkpt lat="42.091156" lon="23.618661"><ele>1979.5</ele><time>2026-03-08T07:17:44.000Z</time></trkpt>
<trkpt lat="42.091168" lon="23.618655"><ele>1979.5</ele><time>2026-03-08T07:17:45.000Z</time></trkpt>
<trkpt lat="42.09118" lon="23.618649"><ele>1979.5</ele><time>2026-03-08T07:17:46.000Z</time></trkpt>
<trkpt lat="42.091193" lon="23.618643"><ele>1979.8</ele><time>2026-03-08T07:17:47.000Z</time></trkpt>
<trkpt lat="42.091205" lon="23.618638"><ele>1979.8</ele><time>2026-03-08T07:17:48.000Z</time></trkpt>
<trkpt lat="42.091217" lon="23.618633"><ele>1979.8</ele><time>2026-03-08T07:17:49.000Z</time></trkpt>
<trkpt lat="42.091229" lon="23.618629"><ele>1979.8</ele><time>2026-03-08T07:17:50.000Z</time></trkpt>
<trkpt lat="42.09124" lon="23.618626"><ele>1979.8</ele><time>2026-03-08T07:17:51.000Z</time></trkpt>
<trkpt lat="42.09125" lon="23.618622"><ele>1980</ele><time>2026-03-08T07:17:52.000Z</time></trkpt>
<trkpt lat="42.09126" lon="23.61862"><ele>1980</ele><time>2026-03-08T07:17:53.000Z</time></trkpt>
<trkpt lat="42.091271" lon="23.618617"><ele>1980</ele><time>2026-03-08T07:17:54.000Z</time></trkpt>
<trkpt lat="42.091282" lon="23.618614"><ele>1980</ele><time>2026-03-08T07:17:55.000Z</time></trkpt>
<trkpt lat="42.091294" lon="23.618611"><ele>1980</ele><time>2026-03-08T07:17:56.000Z</time></trkpt>
<trkpt lat="42.091307" lon="23.618607"><ele>1980.1</ele><time>2026-03-08T07:17:57.000Z</time></trkpt>
<trkpt lat="42.091321" lon="23.618602"><ele>1980.1</ele><time>2026-03-08T07:17:58.000Z</time></trkpt>
<trkpt lat="42.091333" lon="23.618597"><ele>1980.1</ele><time>2026-03-08T07:17:59.000Z</time></trkpt>
<trkpt lat="42.091345" lon="23.618592"><ele>1980.1</ele><time>2026-03-08T07:18:00.000Z</time></trkpt>
<trkpt lat="42.091356" lon="23.618587"><ele>1980.1</ele><time>2026-03-08T07:18:01.000Z</time></trkpt>
<trkpt lat="42.091366" lon="23.618581"><ele>1980.3</ele><time>2026-03-08T07:18:02.000Z</time></trkpt>
<trkpt lat="42.091375" lon="23.618576"><ele>1980.3</ele><time>2026-03-08T07:18:03.000Z</time></trkpt>
<trkpt lat="42.091384" lon="23.618571"><ele>1980.3</ele><time>2026-03-08T07:18:04.000Z</time></trkpt>
<trkpt lat="42.091393" lon="23.618566"><ele>1980.3</ele><time>2026-03-08T07:18:05.000Z</time></trkpt>
<trkpt lat="42.091403" lon="23.618562"><ele>1980.3</ele><time>2026-03-08T07:18:06.000Z</time></trkpt>
<trkpt lat="42.091413" lon="23.618557"><ele>1980.7</ele><time>2026-03-08T07:18:07.000Z</time></trkpt>
<trkpt lat="42.091423" lon="23.618553"><ele>1980.7</ele><time>2026-03-08T07:18:08.000Z</time></trkpt>
<trkpt lat="42.091433" lon="23.618549"><ele>1980.7</ele><time>2026-03-08T07:18:09.000Z</time></trkpt>
<trkpt lat="42.091443" lon="23.618546"><ele>1980.7</ele><time>2026-03-08T07:18:10.000Z</time></trkpt>
<trkpt lat="42.091453" lon="23.618542"><ele>1980.7</ele><time>2026-03-08T07:18:11.000Z</time></trkpt>
<trkpt lat="42.091462" lon="23.618538"><ele>1980.9</ele><time>2026-03-08T07:18:12.000Z</time></trkpt>
<trkpt lat="42.091471" lon="23.618535"><ele>1980.9</ele><time>2026-03-08T07:18:13.000Z</time></trkpt>
<trkpt lat="42.09148" lon="23.618533"><ele>1980.9</ele><time>2026-03-08T07:18:14.000Z</time></trkpt>
<trkpt lat="42.091489" lon="23.618531"><ele>1980.9</ele><time>2026-03-08T07:18:15.000Z</time></trkpt>
<trkpt lat="42.091497" lon="23.618528"><ele>1980.9</ele><time>2026-03-08T07:18:16.000Z</time></trkpt>
<trkpt lat="42.091506" lon="23.618525"><ele>1981.1</ele><time>2026-03-08T07:18:17.000Z</time></trkpt>
<trkpt lat="42.091514" lon="23.618523"><ele>1981.1</ele><time>2026-03-08T07:18:18.000Z</time></trkpt>
<trkpt lat="42.09152" lon="23.61852"><ele>1981.1</ele><time>2026-03-08T07:18:19.000Z</time></trkpt>
<trkpt lat="42.091526" lon="23.618517"><ele>1981.1</ele><time>2026-03-08T07:18:20.000Z</time></trkpt>
<trkpt lat="42.091534" lon="23.618514"><ele>1981.1</ele><time>2026-03-08T07:18:21.000Z</time></trkpt>
<trkpt lat="42.091542" lon="23.618512"><ele>1981.2</ele><time>2026-03-08T07:18:22.000Z</time></trkpt>
<trkpt lat="42.091551" lon="23.61851"><ele>1981.2</ele><time>2026-03-08T07:18:23.000Z</time></trkpt>
<trkpt lat="42.091562" lon="23.618508"><ele>1981.2</ele><time>2026-03-08T07:18:24.000Z</time></trkpt>
<trkpt lat="42.091573" lon="23.618506"><ele>1981.2</ele><time>2026-03-08T07:18:25.000Z</time></trkpt>
<trkpt lat="42.091583" lon="23.618503"><ele>1981.2</ele><time>2026-03-08T07:18:26.000Z</time></trkpt>
<trkpt lat="42.091592" lon="23.6185"><ele>1981.3</ele><time>2026-03-08T07:18:27.000Z</time></trkpt>
<trkpt lat="42.0916" lon="23.618497"><ele>1981.3</ele><time>2026-03-08T07:18:28.000Z</time></trkpt>
<trkpt lat="42.091609" lon="23.618494"><ele>1981.3</ele><time>2026-03-08T07:18:29.000Z</time></trkpt>
<trkpt lat="42.091618" lon="23.618491"><ele>1981.3</ele><time>2026-03-08T07:18:30.000Z</time></trkpt>
<trkpt lat="42.091627" lon="23.618487"><ele>1981.3</ele><time>2026-03-08T07:18:31.000Z</time></trkpt>
<trkpt lat="42.091638" lon="23.618484"><ele>1981.5</ele><time>2026-03-08T07:18:32.000Z</time></trkpt>
<trkpt lat="42.091649" lon="23.618481"><ele>1981.5</ele><time>2026-03-08T07:18:33.000Z</time></trkpt>
<trkpt lat="42.091661" lon="23.618477"><ele>1981.5</ele><time>2026-03-08T07:18:34.000Z</time></trkpt>
<trkpt lat="42.091672" lon="23.618472"><ele>1981.5</ele><time>2026-03-08T07:18:35.000Z</time></trkpt>
<trkpt lat="42.091683" lon="23.618466"><ele>1981.5</ele><time>2026-03-08T07:18:36.000Z</time></trkpt>
<trkpt lat="42.091694" lon="23.618461"><ele>1981.6</ele><time>2026-03-08T07:18:37.000Z</time></trkpt>
<trkpt lat="42.091705" lon="23.618457"><ele>1981.6</ele><time>2026-03-08T07:18:38.000Z</time></trkpt>
<trkpt lat="42.091716" lon="23.618453"><ele>1981.6</ele><time>2026-03-08T07:18:39.000Z</time></trkpt>
<trkpt lat="42.091726" lon="23.61845"><ele>1981.6</ele><time>2026-03-08T07:18:40.000Z</time></trkpt>
<trkpt lat="42.091737" lon="23.618448"><ele>1981.6</ele><time>2026-03-08T07:18:41.000Z</time></trkpt>
<trkpt lat="42.091748" lon="23.618445"><ele>1981.7</ele><time>2026-03-08T07:18:42.000Z</time></trkpt>
<trkpt lat="42.091758" lon="23.618443"><ele>1981.7</ele><time>2026-03-08T07:18:43.000Z</time></trkpt>
<trkpt lat="42.091769" lon="23.618441"><ele>1981.7</ele><time>2026-03-08T07:18:44.000Z</time></trkpt>
<trkpt lat="42.091779" lon="23.618438"><ele>1981.7</ele><time>2026-03-08T07:18:45.000Z</time></trkpt>
<trkpt lat="42.091789" lon="23.618436"><ele>1981.7</ele><time>2026-03-08T07:18:46.000Z</time></trkpt>
<trkpt lat="42.091799" lon="23.618433"><ele>1982.1</ele><time>2026-03-08T07:18:47.000Z</time></trkpt>
<trkpt lat="42.09181" lon="23.61843"><ele>1982.1</ele><time>2026-03-08T07:18:48.000Z</time></trkpt>
<trkpt lat="42.091821" lon="23.618427"><ele>1982.1</ele><time>2026-03-08T07:18:49.000Z</time></trkpt>
<trkpt lat="42.091832" lon="23.618424"><ele>1982.1</ele><time>2026-03-08T07:18:50.000Z</time></trkpt>
<trkpt lat="42.091842" lon="23.618421"><ele>1982.1</ele><time>2026-03-08T07:18:51.000Z</time></trkpt>
<trkpt lat="42.091853" lon="23.618418"><ele>1982.6</ele><time>2026-03-08T07:18:52.000Z</time></trkpt>
<trkpt lat="42.091863" lon="23.618414"><ele>1982.6</ele><time>2026-03-08T07:18:53.000Z</time></trkpt>
<trkpt lat="42.091873" lon="23.61841"><ele>1982.6</ele><time>2026-03-08T07:18:54.000Z</time></trkpt>
<trkpt lat="42.091884" lon="23.618406"><ele>1982.6</ele><time>2026-03-08T07:18:55.000Z</time></trkpt>
<trkpt lat="42.091895" lon="23.618404"><ele>1982.6</ele><time>2026-03-08T07:18:56.000Z</time></trkpt>
<trkpt lat="42.091906" lon="23.618402"><ele>1982.9</ele><time>2026-03-08T07:18:57.000Z</time></trkpt>
<trkpt lat="42.091916" lon="23.618398"><ele>1982.9</ele><time>2026-03-08T07:18:58.000Z</time></trkpt>
<trkpt lat="42.091927" lon="23.618394"><ele>1982.9</ele><time>2026-03-08T07:18:59.000Z</time></trkpt>
<trkpt lat="42.091937" lon="23.618388"><ele>1982.9</ele><time>2026-03-08T07:19:00.000Z</time></trkpt>
<trkpt lat="42.091947" lon="23.618381"><ele>1982.9</ele><time>2026-03-08T07:19:01.000Z</time></trkpt>
<trkpt lat="42.091957" lon="23.618375"><ele>1983.3</ele><time>2026-03-08T07:19:02.000Z</time></trkpt>
<trkpt lat="42.091967" lon="23.618369"><ele>1983.3</ele><time>2026-03-08T07:19:03.000Z</time></trkpt>
<trkpt lat="42.091978" lon="23.618363"><ele>1983.3</ele><time>2026-03-08T07:19:04.000Z</time></trkpt>
<trkpt lat="42.091989" lon="23.618358"><ele>1983.3</ele><time>2026-03-08T07:19:05.000Z</time></trkpt>
<trkpt lat="42.092" lon="23.618353"><ele>1983.3</ele><time>2026-03-08T07:19:06.000Z</time></trkpt>
<trkpt lat="42.092011" lon="23.618349"><ele>1983.6</ele><time>2026-03-08T07:19:07.000Z</time></trkpt>
<trkpt lat="42.09202" lon="23.618345"><ele>1983.6</ele><time>2026-03-08T07:19:08.000Z</time></trkpt>
<trkpt lat="42.092028" lon="23.61834"><ele>1983.6</ele><time>2026-03-08T07:19:09.000Z</time></trkpt>
<trkpt lat="42.092034" lon="23.618334"><ele>1983.6</ele><time>2026-03-08T07:19:10.000Z</time></trkpt>
<trkpt lat="42.09204" lon="23.618327"><ele>1983.6</ele><time>2026-03-08T07:19:11.000Z</time></trkpt>
<trkpt lat="42.092047" lon="23.618319"><ele>1983.6</ele><time>2026-03-08T07:19:12.000Z</time></trkpt>
<trkpt lat="42.092053" lon="23.618311"><ele>1983.6</ele><time>2026-03-08T07:19:13.000Z</time></trkpt>
<trkpt lat="42.09206" lon="23.618305"><ele>1983.6</ele><time>2026-03-08T07:19:14.000Z</time></trkpt>
<trkpt lat="42.092064" lon="23.618299"><ele>1983.6</ele><time>2026-03-08T07:19:15.000Z</time></trkpt>
<trkpt lat="42.092068" lon="23.618295"><ele>1983.6</ele><time>2026-03-08T07:19:16.000Z</time></trkpt>
<trkpt lat="42.09207" lon="23.618293"><ele>1983.7</ele><time>2026-03-08T07:19:17.000Z</time></trkpt>
<trkpt lat="42.09207" lon="23.618292"><ele>1983.7</ele><time>2026-03-08T07:19:18.000Z</time></trkpt>
<trkpt lat="42.09207" lon="23.618291"><ele>1983.7</ele><time>2026-03-08T07:19:19.000Z</time></trkpt>
<trkpt lat="42.09207" lon="23.618291"><ele>1983.7</ele><time>2026-03-08T07:19:20.000Z</time></trkpt>
<trkpt lat="42.092069" lon="23.61829"><ele>1983.7</ele><time>2026-03-08T07:19:21.000Z</time></trkpt>
<trkpt lat="42.092069" lon="23.618289"><ele>1983.8</ele><time>2026-03-08T07:19:22.000Z</time></trkpt>
<trkpt lat="42.092069" lon="23.618289"><ele>1983.8</ele><time>2026-03-08T07:19:23.000Z</time></trkpt>
<trkpt lat="42.092068" lon="23.618288"><ele>1983.8</ele><time>2026-03-08T07:19:24.000Z</time></trkpt>
<trkpt lat="42.092067" lon="23.618288"><ele>1983.8</ele><time>2026-03-08T07:19:25.000Z</time></trkpt>
<trkpt lat="42.092067" lon="23.618287"><ele>1983.8</ele><time>2026-03-08T07:19:26.000Z</time></trkpt>
<trkpt lat="42.092067" lon="23.618286"><ele>1983.8</ele><time>2026-03-08T07:19:27.000Z</time></trkpt>
<trkpt lat="42.092066" lon="23.618285"><ele>1983.8</ele><time>2026-03-08T07:19:28.000Z</time></trkpt>
<trkpt lat="42.092066" lon="23.618284"><ele>1983.8</ele><time>2026-03-08T07:19:29.000Z</time></trkpt>
<trkpt lat="42.092067" lon="23.618284"><ele>1983.8</ele><time>2026-03-08T07:19:30.000Z</time></trkpt>
<trkpt lat="42.092067" lon="23.618284"><ele>1983.8</ele><time>2026-03-08T07:19:31.000Z</time></trkpt>
<trkpt lat="42.092067" lon="23.618284"><ele>1983.7</ele><time>2026-03-08T07:19:32.000Z</time></trkpt>
<trkpt lat="42.092068" lon="23.618285"><ele>1983.7</ele><time>2026-03-08T07:19:33.000Z</time></trkpt>
<trkpt lat="42.092067" lon="23.618285"><ele>1983.7</ele><time>2026-03-08T07:19:34.000Z</time></trkpt>
<trkpt lat="42.092067" lon="23.618285"><ele>1983.7</ele><time>2026-03-08T07:19:35.000Z</time></trkpt>
<trkpt lat="42.092067" lon="23.618284"><ele>1983.7</ele><time>2026-03-08T07:19:36.000Z</time></trkpt>
<trkpt lat="42.092066" lon="23.618284"><ele>1983.7</ele><time>2026-03-08T07:19:37.000Z</time></trkpt>
<trkpt lat="42.092065" lon="23.618284"><ele>1983.7</ele><time>2026-03-08T07:19:38.000Z</time></trkpt>
<trkpt lat="42.092065" lon="23.618284"><ele>1983.7</ele><time>2026-03-08T07:19:39.000Z</time></trkpt>
<trkpt lat="42.092064" lon="23.618285"><ele>1983.7</ele><time>2026-03-08T07:19:40.000Z</time></trkpt>
<trkpt lat="42.092063" lon="23.618286"><ele>1983.7</ele><time>2026-03-08T07:19:41.000Z</time></trkpt>
<trkpt lat="42.092063" lon="23.618286"><ele>1983.7</ele><time>2026-03-08T07:19:42.000Z</time></trkpt>
<trkpt lat="42.092062" lon="23.618287"><ele>1983.7</ele><time>2026-03-08T07:19:43.000Z</time></trkpt>
<trkpt lat="42.092062" lon="23.618287"><ele>1983.7</ele><time>2026-03-08T07:19:44.000Z</time></trkpt>
<trkpt lat="42.092061" lon="23.618287"><ele>1983.7</ele><time>2026-03-08T07:19:45.000Z</time></trkpt>
<trkpt lat="42.092061" lon="23.618287"><ele>1983.7</ele><time>2026-03-08T07:19:46.000Z</time></trkpt>
<trkpt lat="42.092061" lon="23.618287"><ele>1983.7</ele><time>2026-03-08T07:19:47.000Z</time></trkpt>
<trkpt lat="42.092062" lon="23.618288"><ele>1983.7</ele><time>2026-03-08T07:19:48.000Z</time></trkpt>
<trkpt lat="42.092062" lon="23.618289"><ele>1983.7</ele><time>2026-03-08T07:19:49.000Z</time></trkpt>
<trkpt lat="42.092063" lon="23.61829"><ele>1983.7</ele><time>2026-03-08T07:19:50.000Z</time></trkpt>
<trkpt lat="42.092063" lon="23.618292"><ele>1983.7</ele><time>2026-03-08T07:19:51.000Z</time></trkpt>
<trkpt lat="42.092063" lon="23.618293"><ele>1983.6</ele><time>2026-03-08T07:19:52.000Z</time></trkpt>
<trkpt lat="42.092063" lon="23.618293"><ele>1983.6</ele><time>2026-03-08T07:19:53.000Z</time></trkpt>
<trkpt lat="42.092063" lon="23.618294"><ele>1983.6</ele><time>2026-03-08T07:19:54.000Z</time></trkpt>
<trkpt lat="42.092062" lon="23.618295"><ele>1983.6</ele><time>2026-03-08T07:19:55.000Z</time></trkpt>
<trkpt lat="42.092061" lon="23.618295"><ele>1983.6</ele><time>2026-03-08T07:19:56.000Z</time></trkpt>
<trkpt lat="42.09206" lon="23.618296"><ele>1983.7</ele><time>2026-03-08T07:19:57.000Z</time></trkpt>
<trkpt lat="42.09206" lon="23.618296"><ele>1983.7</ele><time>2026-03-08T07:19:58.000Z</time></trkpt>
<trkpt lat="42.09206" lon="23.618296"><ele>1983.7</ele><time>2026-03-08T07:19:59.000Z</time></trkpt>
<trkpt lat="42.09206" lon="23.618295"><ele>1983.7</ele><time>2026-03-08T07:20:00.000Z</time></trkpt>
<trkpt lat="42.09206" lon="23.618295"><ele>1983.7</ele><time>2026-03-08T07:20:01.000Z</time></trkpt>
<trkpt lat="42.09206" lon="23.618294"><ele>1983.7</ele><time>2026-03-08T07:20:02.000Z</time></trkpt>
<trkpt lat="42.09206" lon="23.618293"><ele>1983.7</ele><time>2026-03-08T07:20:03.000Z</time></trkpt>
<trkpt lat="42.092059" lon="23.618291"><ele>1983.7</ele><time>2026-03-08T07:20:04.000Z</time></trkpt>
<trkpt lat="42.092059" lon="23.618288"><ele>1983.7</ele><time>2026-03-08T07:20:05.000Z</time></trkpt>
<trkpt lat="42.092058" lon="23.618285"><ele>1983.7</ele><time>2026-03-08T07:20:06.000Z</time></trkpt>
<trkpt lat="42.092057" lon="23.618281"><ele>1983.6</ele><time>2026-03-08T07:20:07.000Z</time></trkpt>
<trkpt lat="42.092055" lon="23.618278"><ele>1983.6</ele><time>2026-03-08T07:20:08.000Z</time></trkpt>
<trkpt lat="42.092054" lon="23.618277"><ele>1983.6</ele><time>2026-03-08T07:20:09.000Z</time></trkpt>
<trkpt lat="42.092052" lon="23.618276"><ele>1983.6</ele><time>2026-03-08T07:20:10.000Z</time></trkpt>
<trkpt lat="42.09205" lon="23.618274"><ele>1983.6</ele><time>2026-03-08T07:20:11.000Z</time></trkpt>
<trkpt lat="42.092048" lon="23.618272"><ele>1983.6</ele><time>2026-03-08T07:20:12.000Z</time></trkpt>
<trkpt lat="42.092046" lon="23.618268"><ele>1983.6</ele><time>2026-03-08T07:20:13.000Z</time></trkpt>
<trkpt lat="42.092042" lon="23.618263"><ele>1983.6</ele><time>2026-03-08T07:20:14.000Z</time></trkpt>
<trkpt lat="42.092037" lon="23.618257"><ele>1983.6</ele><time>2026-03-08T07:20:15.000Z</time></trkpt>
<trkpt lat="42.092033" lon="23.618252"><ele>1983.6</ele><time>2026-03-08T07:20:16.000Z</time></trkpt>
<trkpt lat="42.09203" lon="23.618249"><ele>1983.6</ele><time>2026-03-08T07:20:17.000Z</time></trkpt>
<trkpt lat="42.092028" lon="23.618248"><ele>1983.6</ele><time>2026-03-08T07:20:18.000Z</time></trkpt>
<trkpt lat="42.092028" lon="23.618247"><ele>1983.6</ele><time>2026-03-08T07:20:19.000Z</time></trkpt>
<trkpt lat="42.09203" lon="23.618246"><ele>1983.6</ele><time>2026-03-08T07:20:20.000Z</time></trkpt>
<trkpt lat="42.092034" lon="23.618246"><ele>1983.6</ele><time>2026-03-08T07:20:21.000Z</time></trkpt>
<trkpt lat="42.092039" lon="23.618244"><ele>1983.6</ele><time>2026-03-08T07:20:22.000Z</time></trkpt>
<trkpt lat="42.092047" lon="23.618242"><ele>1983.6</ele><time>2026-03-08T07:20:23.000Z</time></trkpt>
<trkpt lat="42.092057" lon="23.618242"><ele>1983.6</ele><time>2026-03-08T07:20:24.000Z</time></trkpt>
<trkpt lat="42.092068" lon="23.618243"><ele>1983.6</ele><time>2026-03-08T07:20:25.000Z</time></trkpt>
<trkpt lat="42.092078" lon="23.618243"><ele>1983.6</ele><time>2026-03-08T07:20:26.000Z</time></trkpt>
<trkpt lat="42.092089" lon="23.618243"><ele>1983.6</ele><time>2026-03-08T07:20:27.000Z</time></trkpt>
<trkpt lat="42.092099" lon="23.618244"><ele>1983.6</ele><time>2026-03-08T07:20:28.000Z</time></trkpt>
<trkpt lat="42.09211" lon="23.618243"><ele>1983.6</ele><time>2026-03-08T07:20:29.000Z</time></trkpt>
<trkpt lat="42.092121" lon="23.618243"><ele>1983.6</ele><time>2026-03-08T07:20:30.000Z</time></trkpt>
<trkpt lat="42.09213" lon="23.618242"><ele>1983.6</ele><time>2026-03-08T07:20:31.000Z</time></trkpt>
<trkpt lat="42.092137" lon="23.618241"><ele>1983.7</ele><time>2026-03-08T07:20:32.000Z</time></trkpt>
<trkpt lat="42.092141" lon="23.618242"><ele>1983.7</ele><time>2026-03-08T07:20:33.000Z</time></trkpt>
<trkpt lat="42.092142" lon="23.618243"><ele>1983.7</ele><time>2026-03-08T07:20:34.000Z</time></trkpt>
<trkpt lat="42.092142" lon="23.618244"><ele>1983.7</ele><time>2026-03-08T07:20:35.000Z</time></trkpt>
<trkpt lat="42.092142" lon="23.618246"><ele>1983.7</ele><time>2026-03-08T07:20:36.000Z</time></trkpt>
<trkpt lat="42.092141" lon="23.618248"><ele>1983.7</ele><time>2026-03-08T07:20:37.000Z</time></trkpt>
<trkpt lat="42.09214" lon="23.618249"><ele>1983.7</ele><time>2026-03-08T07:20:38.000Z</time></trkpt>
<trkpt lat="42.092139" lon="23.618248"><ele>1983.7</ele><time>2026-03-08T07:20:39.000Z</time></trkpt>
<trkpt lat="42.092139" lon="23.618248"><ele>1983.7</ele><time>2026-03-08T07:20:40.000Z</time></trkpt>
<trkpt lat="42.092138" lon="23.618248"><ele>1983.7</ele><time>2026-03-08T07:20:41.000Z</time></trkpt>
<trkpt lat="42.092137" lon="23.618248"><ele>1983.7</ele><time>2026-03-08T07:20:42.000Z</time></trkpt>
<trkpt lat="42.092136" lon="23.618248"><ele>1983.7</ele><time>2026-03-08T07:20:43.000Z</time></trkpt>
<trkpt lat="42.092136" lon="23.618247"><ele>1983.7</ele><time>2026-03-08T07:20:44.000Z</time></trkpt>
<trkpt lat="42.092135" lon="23.618247"><ele>1983.7</ele><time>2026-03-08T07:20:45.000Z</time></trkpt>
<trkpt lat="42.092134" lon="23.618246"><ele>1983.7</ele><time>2026-03-08T07:20:46.000Z</time></trkpt>
<trkpt lat="42.092133" lon="23.618246"><ele>1983.4</ele><time>2026-03-08T07:20:47.000Z</time></trkpt>
<trkpt lat="42.092132" lon="23.618245"><ele>1983.4</ele><time>2026-03-08T07:20:48.000Z</time></trkpt>
<trkpt lat="42.092132" lon="23.618245"><ele>1983.4</ele><time>2026-03-08T07:20:49.000Z</time></trkpt>
<trkpt lat="42.092131" lon="23.618244"><ele>1983.4</ele><time>2026-03-08T07:20:50.000Z</time></trkpt>
<trkpt lat="42.092131" lon="23.618244"><ele>1983.4</ele><time>2026-03-08T07:20:51.000Z</time></trkpt>
<trkpt lat="42.092132" lon="23.618245"><ele>1983.2</ele><time>2026-03-08T07:20:52.000Z</time></trkpt>
<trkpt lat="42.092133" lon="23.618246"><ele>1983.2</ele><time>2026-03-08T07:20:53.000Z</time></trkpt>
<trkpt lat="42.092134" lon="23.618247"><ele>1983.2</ele><time>2026-03-08T07:20:54.000Z</time></trkpt>
<trkpt lat="42.092135" lon="23.618248"><ele>1983.2</ele><time>2026-03-08T07:20:55.000Z</time></trkpt>
<trkpt lat="42.092137" lon="23.618248"><ele>1983.2</ele><time>2026-03-08T07:20:56.000Z</time></trkpt>
<trkpt lat="42.092138" lon="23.618248"><ele>1983.1</ele><time>2026-03-08T07:20:57.000Z</time></trkpt>
<trkpt lat="42.092139" lon="23.618248"><ele>1983.1</ele><time>2026-03-08T07:20:58.000Z</time></trkpt>
<trkpt lat="42.09214" lon="23.618248"><ele>1983.1</ele><time>2026-03-08T07:20:59.000Z</time></trkpt>
<trkpt lat="42.09214" lon="23.618248"><ele>1983.1</ele><time>2026-03-08T07:21:00.000Z</time></trkpt>
<trkpt lat="42.09214" lon="23.618248"><ele>1983.1</ele><time>2026-03-08T07:21:01.000Z</time></trkpt>
<trkpt lat="42.09214" lon="23.618247"><ele>1983</ele><time>2026-03-08T07:21:02.000Z</time></trkpt>
<trkpt lat="42.09214" lon="23.618247"><ele>1983</ele><time>2026-03-08T07:21:03.000Z</time></trkpt>
<trkpt lat="42.09214" lon="23.618248"><ele>1983</ele><time>2026-03-08T07:21:04.000Z</time></trkpt>
<trkpt lat="42.09214" lon="23.618248"><ele>1983</ele><time>2026-03-08T07:21:05.000Z</time></trkpt>
<trkpt lat="42.09214" lon="23.618248"><ele>1983</ele><time>2026-03-08T07:21:06.000Z</time></trkpt>
<trkpt lat="42.092138" lon="23.618248"><ele>1983</ele><time>2026-03-08T07:21:07.000Z</time></trkpt>
<trkpt lat="42.092136" lon="23.618246"><ele>1983</ele><time>2026-03-08T07:21:08.000Z</time></trkpt>
<trkpt lat="42.092134" lon="23.618243"><ele>1983</ele><time>2026-03-08T07:21:09.000Z</time></trkpt>
<trkpt lat="42.092133" lon="23.618236"><ele>1983</ele><time>2026-03-08T07:21:10.000Z</time></trkpt>
<trkpt lat="42.092134" lon="23.61823"><ele>1983</ele><time>2026-03-08T07:21:11.000Z</time></trkpt>
<trkpt lat="42.092136" lon="23.618221"><ele>1983</ele><time>2026-03-08T07:21:12.000Z</time></trkpt>
<trkpt lat="42.092142" lon="23.618214"><ele>1983</ele><time>2026-03-08T07:21:13.000Z</time></trkpt>
<trkpt lat="42.092147" lon="23.618209"><ele>1983</ele><time>2026-03-08T07:21:14.000Z</time></trkpt>
<trkpt lat="42.092153" lon="23.618206"><ele>1983</ele><time>2026-03-08T07:21:15.000Z</time></trkpt>
<trkpt lat="42.092159" lon="23.618204"><ele>1983</ele><time>2026-03-08T07:21:16.000Z</time></trkpt>
<trkpt lat="42.092164" lon="23.618204"><ele>1983</ele><time>2026-03-08T07:21:17.000Z</time></trkpt>
<trkpt lat="42.092166" lon="23.618203"><ele>1983</ele><time>2026-03-08T07:21:18.000Z</time></trkpt>
<trkpt lat="42.092169" lon="23.618203"><ele>1983</ele><time>2026-03-08T07:21:19.000Z</time></trkpt>
<trkpt lat="42.09217" lon="23.618205"><ele>1983</ele><time>2026-03-08T07:21:20.000Z</time></trkpt>
<trkpt lat="42.09217" lon="23.618205"><ele>1983</ele><time>2026-03-08T07:21:21.000Z</time></trkpt>
<trkpt lat="42.092169" lon="23.618205"><ele>1983.1</ele><time>2026-03-08T07:21:22.000Z</time></trkpt>
<trkpt lat="42.092169" lon="23.618206"><ele>1983.1</ele><time>2026-03-08T07:21:23.000Z</time></trkpt>
<trkpt lat="42.092169" lon="23.618207"><ele>1983.1</ele><time>2026-03-08T07:21:24.000Z</time></trkpt>
<trkpt lat="42.092169" lon="23.618206"><ele>1983.1</ele><time>2026-03-08T07:21:25.000Z</time></trkpt>
<trkpt lat="42.092169" lon="23.618206"><ele>1983.1</ele><time>2026-03-08T07:21:26.000Z</time></trkpt>
<trkpt lat="42.092169" lon="23.618206"><ele>1983.1</ele><time>2026-03-08T07:21:27.000Z</time></trkpt>
<trkpt lat="42.092169" lon="23.618206"><ele>1983.1</ele><time>2026-03-08T07:21:28.000Z</time></trkpt>
<trkpt lat="42.092169" lon="23.618206"><ele>1983.1</ele><time>2026-03-08T07:21:29.000Z</time></trkpt>
<trkpt lat="42.092169" lon="23.618206"><ele>1983.1</ele><time>2026-03-08T07:21:30.000Z</time></trkpt>
<trkpt lat="42.092169" lon="23.618206"><ele>1983.1</ele><time>2026-03-08T07:21:31.000Z</time></trkpt>
<trkpt lat="42.092169" lon="23.618206"><ele>1983.2</ele><time>2026-03-08T07:21:32.000Z</time></trkpt>
<trkpt lat="42.092169" lon="23.618207"><ele>1983.2</ele><time>2026-03-08T07:21:33.000Z</time></trkpt>
<trkpt lat="42.09217" lon="23.618209"><ele>1983.2</ele><time>2026-03-08T07:21:34.000Z</time></trkpt>
<trkpt lat="42.092171" lon="23.61821"><ele>1983.2</ele><time>2026-03-08T07:21:35.000Z</time></trkpt>
<trkpt lat="42.092174" lon="23.618211"><ele>1983.2</ele><time>2026-03-08T07:21:36.000Z</time></trkpt>
<trkpt lat="42.092177" lon="23.618211"><ele>1983.3</ele><time>2026-03-08T07:21:37.000Z</time></trkpt>
<trkpt lat="42.092182" lon="23.618211"><ele>1983.3</ele><time>2026-03-08T07:21:38.000Z</time></trkpt>
<trkpt lat="42.092188" lon="23.61821"><ele>1983.3</ele><time>2026-03-08T07:21:39.000Z</time></trkpt>
<trkpt lat="42.092193" lon="23.61821"><ele>1983.3</ele><time>2026-03-08T07:21:40.000Z</time></trkpt>
<trkpt lat="42.092196" lon="23.61821"><ele>1983.3</ele><time>2026-03-08T07:21:41.000Z</time></trkpt>
<trkpt lat="42.092198" lon="23.618212"><ele>1983.4</ele><time>2026-03-08T07:21:42.000Z</time></trkpt>
<trkpt lat="42.092197" lon="23.618213"><ele>1983.4</ele><time>2026-03-08T07:21:43.000Z</time></trkpt>
<trkpt lat="42.092195" lon="23.618213"><ele>1983.4</ele><time>2026-03-08T07:21:44.000Z</time></trkpt>
<trkpt lat="42.092194" lon="23.618212"><ele>1983.4</ele><time>2026-03-08T07:21:45.000Z</time></trkpt>
<trkpt lat="42.092193" lon="23.618211"><ele>1983.4</ele><time>2026-03-08T07:21:46.000Z</time></trkpt>
<trkpt lat="42.092192" lon="23.61821"><ele>1983.5</ele><time>2026-03-08T07:21:47.000Z</time></trkpt>
<trkpt lat="42.092191" lon="23.618209"><ele>1983.5</ele><time>2026-03-08T07:21:48.000Z</time></trkpt>
<trkpt lat="42.09219" lon="23.618209"><ele>1983.5</ele><time>2026-03-08T07:21:49.000Z</time></trkpt>
<trkpt lat="42.092188" lon="23.618209"><ele>1983.5</ele><time>2026-03-08T07:21:50.000Z</time></trkpt>
<trkpt lat="42.092188" lon="23.618209"><ele>1983.5</ele><time>2026-03-08T07:21:51.000Z</time></trkpt>
<trkpt lat="42.092188" lon="23.618208"><ele>1983.6</ele><time>2026-03-08T07:21:52.000Z</time></trkpt>
<trkpt lat="42.092187" lon="23.618207"><ele>1983.6</ele><time>2026-03-08T07:21:53.000Z</time></trkpt>
<trkpt lat="42.092187" lon="23.618207"><ele>1983.6</ele><time>2026-03-08T07:21:54.000Z</time></trkpt>
<trkpt lat="42.092185" lon="23.618208"><ele>1983.6</ele><time>2026-03-08T07:21:55.000Z</time></trkpt>
<trkpt lat="42.092182" lon="23.618208"><ele>1983.6</ele><time>2026-03-08T07:21:56.000Z</time></trkpt>
<trkpt lat="42.092179" lon="23.618209"><ele>1983.6</ele><time>2026-03-08T07:21:57.000Z</time></trkpt>
<trkpt lat="42.092176" lon="23.618211"><ele>1983.6</ele><time>2026-03-08T07:21:58.000Z</time></trkpt>
<trkpt lat="42.092174" lon="23.618212"><ele>1983.6</ele><time>2026-03-08T07:21:59.000Z</time></trkpt>
<trkpt lat="42.092174" lon="23.618213"><ele>1983.6</ele><time>2026-03-08T07:22:00.000Z</time></trkpt>
<trkpt lat="42.092174" lon="23.618214"><ele>1983.6</ele><time>2026-03-08T07:22:01.000Z</time></trkpt>
<trkpt lat="42.092176" lon="23.618215"><ele>1983.7</ele><time>2026-03-08T07:22:02.000Z</time></trkpt>
<trkpt lat="42.092178" lon="23.618216"><ele>1983.7</ele><time>2026-03-08T07:22:03.000Z</time></trkpt>
<trkpt lat="42.092179" lon="23.618218"><ele>1983.7</ele><time>2026-03-08T07:22:04.000Z</time></trkpt>
<trkpt lat="42.092181" lon="23.618217"><ele>1983.7</ele><time>2026-03-08T07:22:05.000Z</time></trkpt>
<trkpt lat="42.092181" lon="23.618218"><ele>1983.7</ele><time>2026-03-08T07:22:06.000Z</time></trkpt>
<trkpt lat="42.092182" lon="23.618218"><ele>1983.7</ele><time>2026-03-08T07:22:07.000Z</time></trkpt>
<trkpt lat="42.092183" lon="23.618216"><ele>1983.7</ele><time>2026-03-08T07:22:08.000Z</time></trkpt>
<trkpt lat="42.092184" lon="23.618215"><ele>1983.7</ele><time>2026-03-08T07:22:09.000Z</time></trkpt>
<trkpt lat="42.092185" lon="23.618214"><ele>1983.7</ele><time>2026-03-08T07:22:10.000Z</time></trkpt>
<trkpt lat="42.092186" lon="23.618213"><ele>1983.7</ele><time>2026-03-08T07:22:11.000Z</time></trkpt>
<trkpt lat="42.092186" lon="23.618211"><ele>1983.8</ele><time>2026-03-08T07:22:12.000Z</time></trkpt>
<trkpt lat="42.092187" lon="23.61821"><ele>1983.8</ele><time>2026-03-08T07:22:13.000Z</time></trkpt>
<trkpt lat="42.092187" lon="23.618209"><ele>1983.8</ele><time>2026-03-08T07:22:14.000Z</time></trkpt>
<trkpt lat="42.092187" lon="23.618208"><ele>1983.8</ele><time>2026-03-08T07:22:15.000Z</time></trkpt>
<trkpt lat="42.092187" lon="23.618206"><ele>1983.8</ele><time>2026-03-08T07:22:16.000Z</time></trkpt>
<trkpt lat="42.092188" lon="23.618206"><ele>1983.8</ele><time>2026-03-08T07:22:17.000Z</time></trkpt>
<trkpt lat="42.092189" lon="23.618205"><ele>1983.8</ele><time>2026-03-08T07:22:18.000Z</time></trkpt>
<trkpt lat="42.092189" lon="23.618205"><ele>1983.8</ele><time>2026-03-08T07:22:19.000Z</time></trkpt>
<trkpt lat="42.09219" lon="23.618205"><ele>1983.8</ele><time>2026-03-08T07:22:20.000Z</time></trkpt>
<trkpt lat="42.092191" lon="23.618206"><ele>1983.8</ele><time>2026-03-08T07:22:21.000Z</time></trkpt>
<trkpt lat="42.092191" lon="23.618206"><ele>1983.5</ele><time>2026-03-08T07:22:22.000Z</time></trkpt>
<trkpt lat="42.092191" lon="23.618207"><ele>1983.5</ele><time>2026-03-08T07:22:23.000Z</time></trkpt>
<trkpt lat="42.092191" lon="23.618207"><ele>1983.5</ele><time>2026-03-08T07:22:24.000Z</time></trkpt>
<trkpt lat="42.092191" lon="23.618207"><ele>1983.5</ele><time>2026-03-08T07:22:25.000Z</time></trkpt>
<trkpt lat="42.092192" lon="23.618207"><ele>1983.5</ele><time>2026-03-08T07:22:26.000Z</time></trkpt>
<trkpt lat="42.092192" lon="23.618207"><ele>1983.3</ele><time>2026-03-08T07:22:27.000Z</time></trkpt>
<trkpt lat="42.092193" lon="23.618208"><ele>1983.3</ele><time>2026-03-08T07:22:28.000Z</time></trkpt>
<trkpt lat="42.092193" lon="23.618208"><ele>1983.3</ele><time>2026-03-08T07:22:29.000Z</time></trkpt>
<trkpt lat="42.092194" lon="23.618209"><ele>1983.3</ele><time>2026-03-08T07:22:30.000Z</time></trkpt>
<trkpt lat="42.092195" lon="23.618209"><ele>1983.3</ele><time>2026-03-08T07:22:31.000Z</time></trkpt>
<trkpt lat="42.092196" lon="23.618209"><ele>1983.2</ele><time>2026-03-08T07:22:32.000Z</time></trkpt>
<trkpt lat="42.092197" lon="23.618208"><ele>1983.2</ele><time>2026-03-08T07:22:33.000Z</time></trkpt>
<trkpt lat="42.092197" lon="23.618208"><ele>1983.2</ele><time>2026-03-08T07:22:34.000Z</time></trkpt>
<trkpt lat="42.092198" lon="23.618208"><ele>1983.2</ele><time>2026-03-08T07:22:35.000Z</time></trkpt>
<trkpt lat="42.092199" lon="23.618208"><ele>1983.2</ele><time>2026-03-08T07:22:36.000Z</time></trkpt>
<trkpt lat="42.092199" lon="23.618209"><ele>1983.2</ele><time>2026-03-08T07:22:37.000Z</time></trkpt>
<trkpt lat="42.092199" lon="23.61821"><ele>1983.2</ele><time>2026-03-08T07:22:38.000Z</time></trkpt>
<trkpt lat="42.092199" lon="23.618211"><ele>1983.2</ele><time>2026-03-08T07:22:39.000Z</time></trkpt>
<trkpt lat="42.092198" lon="23.618212"><ele>1983.2</ele><time>2026-03-08T07:22:40.000Z</time></trkpt>
<trkpt lat="42.092198" lon="23.618213"><ele>1983.2</ele><time>2026-03-08T07:22:41.000Z</time></trkpt>
<trkpt lat="42.092197" lon="23.618213"><ele>1983.3</ele><time>2026-03-08T07:22:42.000Z</time></trkpt>
<trkpt lat="42.092197" lon="23.618213"><ele>1983.3</ele><time>2026-03-08T07:22:43.000Z</time></trkpt>
<trkpt lat="42.092197" lon="23.618212"><ele>1983.3</ele><time>2026-03-08T07:22:44.000Z</time></trkpt>
<trkpt lat="42.092197" lon="23.618212"><ele>1983.3</ele><time>2026-03-08T07:22:45.000Z</time></trkpt>
<trkpt lat="42.092197" lon="23.618212"><ele>1983.3</ele><time>2026-03-08T07:22:46.000Z</time></trkpt>
<trkpt lat="42.092197" lon="23.618212"><ele>1983.3</ele><time>2026-03-08T07:22:47.000Z</time></trkpt>
<trkpt lat="42.092197" lon="23.618213"><ele>1983.3</ele><time>2026-03-08T07:22:48.000Z</time></trkpt>
<trkpt lat="42.092198" lon="23.618213"><ele>1983.3</ele><time>2026-03-08T07:22:49.000Z</time></trkpt>
<trkpt lat="42.092198" lon="23.618213"><ele>1983.3</ele><time>2026-03-08T07:22:50.000Z</time></trkpt>
<trkpt lat="42.092199" lon="23.618214"><ele>1983.3</ele><time>2026-03-08T07:22:51.000Z</time></trkpt>
<trkpt lat="42.092199" lon="23.618213"><ele>1983.3</ele><time>2026-03-08T07:22:52.000Z</time></trkpt>
<trkpt lat="42.0922" lon="23.618213"><ele>1983.3</ele><time>2026-03-08T07:22:53.000Z</time></trkpt>
<trkpt lat="42.0922" lon="23.618213"><ele>1983.3</ele><time>2026-03-08T07:22:54.000Z</time></trkpt>
<trkpt lat="42.0922" lon="23.618214"><ele>1983.3</ele><time>2026-03-08T07:22:55.000Z</time></trkpt>
<trkpt lat="42.0922" lon="23.618214"><ele>1983.3</ele><time>2026-03-08T07:22:56.000Z</time></trkpt>
<trkpt lat="42.0922" lon="23.618214"><ele>1983.3</ele><time>2026-03-08T07:22:57.000Z</time></trkpt>
<trkpt lat="42.0922" lon="23.618214"><ele>1983.3</ele><time>2026-03-08T07:22:58.000Z</time></trkpt>
<trkpt lat="42.0922" lon="23.618215"><ele>1983.3</ele><time>2026-03-08T07:22:59.000Z</time></trkpt>
<trkpt lat="42.0922" lon="23.618215"><ele>1983.3</ele><time>2026-03-08T07:23:00.000Z</time></trkpt>
<trkpt lat="42.092201" lon="23.618215"><ele>1983.3</ele><time>2026-03-08T07:23:01.000Z</time></trkpt>
<trkpt lat="42.092201" lon="23.618215"><ele>1983.4</ele><time>2026-03-08T07:23:02.000Z</time></trkpt>
<trkpt lat="42.092201" lon="23.618215"><ele>1983.4</ele><time>2026-03-08T07:23:03.000Z</time></trkpt>
<trkpt lat="42.092201" lon="23.618215"><ele>1983.4</ele><time>2026-03-08T07:23:04.000Z</time></trkpt>
<trkpt lat="42.092201" lon="23.618215"><ele>1983.4</ele><time>2026-03-08T07:23:05.000Z</time></trkpt>
<trkpt lat="42.0922" lon="23.618215"><ele>1983.4</ele><time>2026-03-08T07:23:06.000Z</time></trkpt>
<trkpt lat="42.0922" lon="23.618215"><ele>1983.5</ele><time>2026-03-08T07:23:07.000Z</time></trkpt>
<trkpt lat="42.0922" lon="23.618215"><ele>1983.5</ele><time>2026-03-08T07:23:08.000Z</time></trkpt>
<trkpt lat="42.0922" lon="23.618214"><ele>1983.5</ele><time>2026-03-08T07:23:09.000Z</time></trkpt>
<trkpt lat="42.0922" lon="23.618213"><ele>1983.5</ele><time>2026-03-08T07:23:10.000Z</time></trkpt>
<trkpt lat="42.092201" lon="23.618212"><ele>1983.5</ele><time>2026-03-08T07:23:11.000Z</time></trkpt>
<trkpt lat="42.092202" lon="23.618211"><ele>1983.5</ele><time>2026-03-08T07:23:12.000Z</time></trkpt>
<trkpt lat="42.092204" lon="23.61821"><ele>1983.5</ele><time>2026-03-08T07:23:13.000Z</time></trkpt>
<trkpt lat="42.092206" lon="23.61821"><ele>1983.5</ele><time>2026-03-08T07:23:14.000Z</time></trkpt>
<trkpt lat="42.092207" lon="23.61821"><ele>1983.5</ele><time>2026-03-08T07:23:15.000Z</time></trkpt>
<trkpt lat="42.092208" lon="23.618211"><ele>1983.5</ele><time>2026-03-08T07:23:16.000Z</time></trkpt>
<trkpt lat="42.092209" lon="23.618212"><ele>1983.6</ele><time>2026-03-08T07:23:17.000Z</time></trkpt>
<trkpt lat="42.09221" lon="23.618213"><ele>1983.6</ele><time>2026-03-08T07:23:18.000Z</time></trkpt>
<trkpt lat="42.09221" lon="23.618214"><ele>1983.6</ele><time>2026-03-08T07:23:19.000Z</time></trkpt>
<trkpt lat="42.092211" lon="23.618215"><ele>1983.6</ele><time>2026-03-08T07:23:20.000Z</time></trkpt>
<trkpt lat="42.092211" lon="23.618216"><ele>1983.6</ele><time>2026-03-08T07:23:21.000Z</time></trkpt>
<trkpt lat="42.092211" lon="23.618216"><ele>1983.6</ele><time>2026-03-08T07:23:22.000Z</time></trkpt>
<trkpt lat="42.092211" lon="23.618216"><ele>1983.6</ele><time>2026-03-08T07:23:23.000Z</time></trkpt>
<trkpt lat="42.092211" lon="23.618216"><ele>1983.6</ele><time>2026-03-08T07:23:24.000Z</time></trkpt>
<trkpt lat="42.092211" lon="23.618216"><ele>1983.6</ele><time>2026-03-08T07:23:25.000Z</time></trkpt>
<trkpt lat="42.092211" lon="23.618216"><ele>1983.6</ele><time>2026-03-08T07:23:26.000Z</time></trkpt>
<trkpt lat="42.092211" lon="23.618216"><ele>1983.6</ele><time>2026-03-08T07:23:27.000Z</time></trkpt>
<trkpt lat="42.092211" lon="23.618216"><ele>1983.6</ele><time>2026-03-08T07:23:28.000Z</time></trkpt>
<trkpt lat="42.092211" lon="23.618216"><ele>1983.6</ele><time>2026-03-08T07:23:29.000Z</time></trkpt>
<trkpt lat="42.092212" lon="23.618217"><ele>1983.6</ele><time>2026-03-08T07:23:30.000Z</time></trkpt>
<trkpt lat="42.092212" lon="23.618217"><ele>1983.6</ele><time>2026-03-08T07:23:31.000Z</time></trkpt>
<trkpt lat="42.092211" lon="23.618216"><ele>1983.6</ele><time>2026-03-08T07:23:32.000Z</time></trkpt>
<trkpt lat="42.09221" lon="23.618216"><ele>1983.6</ele><time>2026-03-08T07:23:33.000Z</time></trkpt>
<trkpt lat="42.09221" lon="23.618215"><ele>1983.6</ele><time>2026-03-08T07:23:34.000Z</time></trkpt>
<trkpt lat="42.092209" lon="23.618215"><ele>1983.6</ele><time>2026-03-08T07:23:35.000Z</time></trkpt>
<trkpt lat="42.092208" lon="23.618214"><ele>1983.6</ele><time>2026-03-08T07:23:36.000Z</time></trkpt>
<trkpt lat="42.092208" lon="23.618213"><ele>1983.6</ele><time>2026-03-08T07:23:37.000Z</time></trkpt>
<trkpt lat="42.092208" lon="23.618213"><ele>1983.6</ele><time>2026-03-08T07:23:38.000Z</time></trkpt>
<trkpt lat="42.092209" lon="23.618213"><ele>1983.6</ele><time>2026-03-08T07:23:39.000Z</time></trkpt>
<trkpt lat="42.092209" lon="23.618212"><ele>1983.6</ele><time>2026-03-08T07:23:40.000Z</time></trkpt>
<trkpt lat="42.092209" lon="23.618212"><ele>1983.6</ele><time>2026-03-08T07:23:41.000Z</time></trkpt>
<trkpt lat="42.09221" lon="23.618212"><ele>1983.6</ele><time>2026-03-08T07:23:42.000Z</time></trkpt>
<trkpt lat="42.09221" lon="23.618212"><ele>1983.6</ele><time>2026-03-08T07:23:43.000Z</time></trkpt>
<trkpt lat="42.092211" lon="23.618213"><ele>1983.6</ele><time>2026-03-08T07:23:44.000Z</time></trkpt>
<trkpt lat="42.092212" lon="23.618213"><ele>1983.6</ele><time>2026-03-08T07:23:45.000Z</time></trkpt>
<trkpt lat="42.092212" lon="23.618213"><ele>1983.6</ele><time>2026-03-08T07:23:46.000Z</time></trkpt>
<trkpt lat="42.092212" lon="23.618213"><ele>1983.6</ele><time>2026-03-08T07:23:47.000Z</time></trkpt>
<trkpt lat="42.092212" lon="23.618214"><ele>1983.6</ele><time>2026-03-08T07:23:48.000Z</time></trkpt>
<trkpt lat="42.092212" lon="23.618214"><ele>1983.6</ele><time>2026-03-08T07:23:49.000Z</time></trkpt>
<trkpt lat="42.092212" lon="23.618214"><ele>1983.6</ele><time>2026-03-08T07:23:50.000Z</time></trkpt>
<trkpt lat="42.092212" lon="23.618214"><ele>1983.6</ele><time>2026-03-08T07:23:51.000Z</time></trkpt>
<trkpt lat="42.092212" lon="23.618214"><ele>1983.5</ele><time>2026-03-08T07:23:52.000Z</time></trkpt>
<trkpt lat="42.092212" lon="23.618214"><ele>1983.5</ele><time>2026-03-08T07:23:53.000Z</time></trkpt>
<trkpt lat="42.092213" lon="23.618215"><ele>1983.5</ele><time>2026-03-08T07:23:54.000Z</time></trkpt>
<trkpt lat="42.092214" lon="23.618215"><ele>1983.5</ele><time>2026-03-08T07:23:55.000Z</time></trkpt>
<trkpt lat="42.092214" lon="23.618216"><ele>1983.5</ele><time>2026-03-08T07:23:56.000Z</time></trkpt>
<trkpt lat="42.092214" lon="23.618216"><ele>1983.5</ele><time>2026-03-08T07:23:57.000Z</time></trkpt>
<trkpt lat="42.092214" lon="23.618217"><ele>1983.5</ele><time>2026-03-08T07:23:58.000Z</time></trkpt>
<trkpt lat="42.092214" lon="23.618217"><ele>1983.5</ele><time>2026-03-08T07:23:59.000Z</time></trkpt>
<trkpt lat="42.092213" lon="23.618218"><ele>1983.5</ele><time>2026-03-08T07:24:00.000Z</time></trkpt>
<trkpt lat="42.092213" lon="23.618218"><ele>1983.5</ele><time>2026-03-08T07:24:01.000Z</time></trkpt>
<trkpt lat="42.092213" lon="23.618219"><ele>1983.9</ele><time>2026-03-08T07:24:02.000Z</time></trkpt>
<trkpt lat="42.092213" lon="23.618219"><ele>1983.9</ele><time>2026-03-08T07:24:03.000Z</time></trkpt>
<trkpt lat="42.092213" lon="23.618219"><ele>1983.9</ele><time>2026-03-08T07:24:04.000Z</time></trkpt>
<trkpt lat="42.092212" lon="23.61822"><ele>1983.9</ele><time>2026-03-08T07:24:05.000Z</time></trkpt>
<trkpt lat="42.092212" lon="23.61822"><ele>1983.9</ele><time>2026-03-08T07:24:06.000Z</time></trkpt>
<trkpt lat="42.092212" lon="23.618221"><ele>1984.3</ele><time>2026-03-08T07:24:07.000Z</time></trkpt>
<trkpt lat="42.092212" lon="23.618221"><ele>1984.3</ele><time>2026-03-08T07:24:08.000Z</time></trkpt>
<trkpt lat="42.092212" lon="23.618221"><ele>1984.3</ele><time>2026-03-08T07:24:09.000Z</time></trkpt>
<trkpt lat="42.092212" lon="23.618222"><ele>1984.3</ele><time>2026-03-08T07:24:10.000Z</time></trkpt>
<trkpt lat="42.092211" lon="23.618223"><ele>1984.3</ele><time>2026-03-08T07:24:11.000Z</time></trkpt>
<trkpt lat="42.092211" lon="23.618223"><ele>1984.4</ele><time>2026-03-08T07:24:12.000Z</time></trkpt>
<trkpt lat="42.09221" lon="23.618223"><ele>1984.4</ele><time>2026-03-08T07:24:13.000Z</time></trkpt>
<trkpt lat="42.09221" lon="23.618223"><ele>1984.4</ele><time>2026-03-08T07:24:14.000Z</time></trkpt>
<trkpt lat="42.09221" lon="23.618223"><ele>1984.4</ele><time>2026-03-08T07:24:15.000Z</time></trkpt>
<trkpt lat="42.09221" lon="23.618223"><ele>1984.4</ele><time>2026-03-08T07:24:16.000Z</time></trkpt>
<trkpt lat="42.09221" lon="23.618224"><ele>1984.4</ele><time>2026-03-08T07:24:17.000Z</time></trkpt>
<trkpt lat="42.092209" lon="23.618224"><ele>1984.4</ele><time>2026-03-08T07:24:18.000Z</time></trkpt>
<trkpt lat="42.092209" lon="23.618224"><ele>1984.4</ele><time>2026-03-08T07:24:19.000Z</time></trkpt>
<trkpt lat="42.092209" lon="23.618224"><ele>1984.4</ele><time>2026-03-08T07:24:20.000Z</time></trkpt>
<trkpt lat="42.092208" lon="23.618224"><ele>1984.4</ele><time>2026-03-08T07:24:21.000Z</time></trkpt>
<trkpt lat="42.092209" lon="23.618223"><ele>1984.3</ele><time>2026-03-08T07:24:22.000Z</time></trkpt>
<trkpt lat="42.092209" lon="23.618223"><ele>1984.3</ele><time>2026-03-08T07:24:23.000Z</time></trkpt>
<trkpt lat="42.092209" lon="23.618222"><ele>1984.3</ele><time>2026-03-08T07:24:24.000Z</time></trkpt>
<trkpt lat="42.092209" lon="23.618221"><ele>1984.3</ele><time>2026-03-08T07:24:25.000Z</time></trkpt>
<trkpt lat="42.092209" lon="23.61822"><ele>1984.3</ele><time>2026-03-08T07:24:26.000Z</time></trkpt>
<trkpt lat="42.09221" lon="23.618219"><ele>1984.3</ele><time>2026-03-08T07:24:27.000Z</time></trkpt>
<trkpt lat="42.09221" lon="23.618219"><ele>1984.3</ele><time>2026-03-08T07:24:28.000Z</time></trkpt>
<trkpt lat="42.09221" lon="23.618219"><ele>1984.3</ele><time>2026-03-08T07:24:29.000Z</time></trkpt>
<trkpt lat="42.09221" lon="23.618219"><ele>1984.3</ele><time>2026-03-08T07:24:30.000Z</time></trkpt>
<trkpt lat="42.092211" lon="23.618218"><ele>1984.3</ele><time>2026-03-08T07:24:31.000Z</time></trkpt>
<trkpt lat="42.092211" lon="23.618217"><ele>1984.5</ele><time>2026-03-08T07:24:32.000Z</time></trkpt>
<trkpt lat="42.09221" lon="23.618215"><ele>1984.5</ele><time>2026-03-08T07:24:33.000Z</time></trkpt>
<trkpt lat="42.092209" lon="23.618212"><ele>1984.5</ele><time>2026-03-08T07:24:34.000Z</time></trkpt>
<trkpt lat="42.092208" lon="23.618206"><ele>1984.5</ele><time>2026-03-08T07:24:35.000Z</time></trkpt>
<trkpt lat="42.092205" lon="23.618199"><ele>1984.5</ele><time>2026-03-08T07:24:36.000Z</time></trkpt>
<trkpt lat="42.092203" lon="23.618192"><ele>1984.5</ele><time>2026-03-08T07:24:37.000Z</time></trkpt>
<trkpt lat="42.092203" lon="23.618184"><ele>1984.5</ele><time>2026-03-08T07:24:38.000Z</time></trkpt>
<trkpt lat="42.092203" lon="23.618175"><ele>1984.5</ele><time>2026-03-08T07:24:39.000Z</time></trkpt>
<trkpt lat="42.092205" lon="23.618168"><ele>1984.5</ele><time>2026-03-08T07:24:40.000Z</time></trkpt>
<trkpt lat="42.092207" lon="23.618161"><ele>1984.5</ele><time>2026-03-08T07:24:41.000Z</time></trkpt>
<trkpt lat="42.092209" lon="23.618156"><ele>1984.4</ele><time>2026-03-08T07:24:42.000Z</time></trkpt>
<trkpt lat="42.092209" lon="23.618151"><ele>1984.4</ele><time>2026-03-08T07:24:43.000Z</time></trkpt>
<trkpt lat="42.092209" lon="23.618148"><ele>1984.4</ele><time>2026-03-08T07:24:44.000Z</time></trkpt>
<trkpt lat="42.092209" lon="23.618145"><ele>1984.4</ele><time>2026-03-08T07:24:45.000Z</time></trkpt>
<trkpt lat="42.092209" lon="23.618142"><ele>1984.4</ele><time>2026-03-08T07:24:46.000Z</time></trkpt>
<trkpt lat="42.092209" lon="23.61814"><ele>1984.4</ele><time>2026-03-08T07:24:47.000Z</time></trkpt>
<trkpt lat="42.092209" lon="23.618137"><ele>1984.4</ele><time>2026-03-08T07:24:48.000Z</time></trkpt>
<trkpt lat="42.092209" lon="23.618134"><ele>1984.4</ele><time>2026-03-08T07:24:49.000Z</time></trkpt>
<trkpt lat="42.09221" lon="23.618131"><ele>1984.4</ele><time>2026-03-08T07:24:50.000Z</time></trkpt>
<trkpt lat="42.09221" lon="23.618127"><ele>1984.4</ele><time>2026-03-08T07:24:51.000Z</time></trkpt>
<trkpt lat="42.09221" lon="23.618124"><ele>1984.7</ele><time>2026-03-08T07:24:52.000Z</time></trkpt>
<trkpt lat="42.09221" lon="23.618122"><ele>1984.7</ele><time>2026-03-08T07:24:53.000Z</time></trkpt>
<trkpt lat="42.092211" lon="23.61812"><ele>1984.7</ele><time>2026-03-08T07:24:54.000Z</time></trkpt>
<trkpt lat="42.092211" lon="23.618119"><ele>1984.7</ele><time>2026-03-08T07:24:55.000Z</time></trkpt>
<trkpt lat="42.09221" lon="23.618118"><ele>1984.7</ele><time>2026-03-08T07:24:56.000Z</time></trkpt>
<trkpt lat="42.092209" lon="23.618116"><ele>1985.1</ele><time>2026-03-08T07:24:57.000Z</time></trkpt>
<trkpt lat="42.092209" lon="23.618115"><ele>1985.1</ele><time>2026-03-08T07:24:58.000Z</time></trkpt>
<trkpt lat="42.092208" lon="23.618114"><ele>1985.1</ele><time>2026-03-08T07:24:59.000Z</time></trkpt>
<trkpt lat="42.092208" lon="23.618113"><ele>1985.1</ele><time>2026-03-08T07:25:00.000Z</time></trkpt>
<trkpt lat="42.092208" lon="23.618112"><ele>1985.1</ele><time>2026-03-08T07:25:01.000Z</time></trkpt>
<trkpt lat="42.092208" lon="23.618111"><ele>1985.5</ele><time>2026-03-08T07:25:02.000Z</time></trkpt>
<trkpt lat="42.092208" lon="23.618109"><ele>1985.5</ele><time>2026-03-08T07:25:03.000Z</time></trkpt>
<trkpt lat="42.092208" lon="23.618107"><ele>1985.5</ele><time>2026-03-08T07:25:04.000Z</time></trkpt>
<trkpt lat="42.092208" lon="23.618105"><ele>1985.5</ele><time>2026-03-08T07:25:05.000Z</time></trkpt>
<trkpt lat="42.092209" lon="23.618103"><ele>1985.5</ele><time>2026-03-08T07:25:06.000Z</time></trkpt>
<trkpt lat="42.092209" lon="23.618102"><ele>1985.6</ele><time>2026-03-08T07:25:07.000Z</time></trkpt>
<trkpt lat="42.092209" lon="23.618102"><ele>1985.6</ele><time>2026-03-08T07:25:08.000Z</time></trkpt>
<trkpt lat="42.09221" lon="23.6181"><ele>1985.6</ele><time>2026-03-08T07:25:09.000Z</time></trkpt>
<trkpt lat="42.092209" lon="23.6181"><ele>1985.6</ele><time>2026-03-08T07:25:10.000Z</time></trkpt>
<trkpt lat="42.092209" lon="23.618099"><ele>1985.6</ele><time>2026-03-08T07:25:11.000Z</time></trkpt>
<trkpt lat="42.092208" lon="23.618098"><ele>1985.5</ele><time>2026-03-08T07:25:12.000Z</time></trkpt>
<trkpt lat="42.092208" lon="23.618097"><ele>1985.5</ele><time>2026-03-08T07:25:13.000Z</time></trkpt>
<trkpt lat="42.092207" lon="23.618097"><ele>1985.5</ele><time>2026-03-08T07:25:14.000Z</time></trkpt>
<trkpt lat="42.092207" lon="23.618097"><ele>1985.5</ele><time>2026-03-08T07:25:15.000Z</time></trkpt>
<trkpt lat="42.092207" lon="23.618097"><ele>1985.5</ele><time>2026-03-08T07:25:16.000Z</time></trkpt>
<trkpt lat="42.092208" lon="23.618096"><ele>1985.3</ele><time>2026-03-08T07:25:17.000Z</time></trkpt>
<trkpt lat="42.092209" lon="23.618094"><ele>1985.3</ele><time>2026-03-08T07:25:18.000Z</time></trkpt>
<trkpt lat="42.09221" lon="23.618092"><ele>1985.3</ele><time>2026-03-08T07:25:19.000Z</time></trkpt>
<trkpt lat="42.092211" lon="23.61809"><ele>1985.3</ele><time>2026-03-08T07:25:20.000Z</time></trkpt>
<trkpt lat="42.092212" lon="23.618088"><ele>1985.3</ele><time>2026-03-08T07:25:21.000Z</time></trkpt>
<trkpt lat="42.092212" lon="23.618087"><ele>1985.3</ele><time>2026-03-08T07:25:22.000Z</time></trkpt>
<trkpt lat="42.092212" lon="23.618087"><ele>1985.3</ele><time>2026-03-08T07:25:23.000Z</time></trkpt>
<trkpt lat="42.092212" lon="23.618086"><ele>1985.3</ele><time>2026-03-08T07:25:24.000Z</time></trkpt>
<trkpt lat="42.09221" lon="23.618085"><ele>1985.3</ele><time>2026-03-08T07:25:25.000Z</time></trkpt>
<trkpt lat="42.092208" lon="23.618083"><ele>1985.3</ele><time>2026-03-08T07:25:26.000Z</time></trkpt>
<trkpt lat="42.092206" lon="23.618081"><ele>1985.3</ele><time>2026-03-08T07:25:27.000Z</time></trkpt>
<trkpt lat="42.092204" lon="23.61808"><ele>1985.3</ele><time>2026-03-08T07:25:28.000Z</time></trkpt>
<trkpt lat="42.092202" lon="23.61808"><ele>1985.3</ele><time>2026-03-08T07:25:29.000Z</time></trkpt>
<trkpt lat="42.092201" lon="23.618081"><ele>1985.3</ele><time>2026-03-08T07:25:30.000Z</time></trkpt>
<trkpt lat="42.0922" lon="23.618081"><ele>1985.3</ele><time>2026-03-08T07:25:31.000Z</time></trkpt>
<trkpt lat="42.092199" lon="23.618082"><ele>1985.3</ele><time>2026-03-08T07:25:32.000Z</time></trkpt>
<trkpt lat="42.092198" lon="23.618083"><ele>1985.3</ele><time>2026-03-08T07:25:33.000Z</time></trkpt>
<trkpt lat="42.092197" lon="23.618084"><ele>1985.3</ele><time>2026-03-08T07:25:34.000Z</time></trkpt>
<trkpt lat="42.092196" lon="23.618084"><ele>1985.3</ele><time>2026-03-08T07:25:35.000Z</time></trkpt>
<trkpt lat="42.092195" lon="23.618085"><ele>1985.3</ele><time>2026-03-08T07:25:36.000Z</time></trkpt>
<trkpt lat="42.092194" lon="23.618086"><ele>1985.3</ele><time>2026-03-08T07:25:37.000Z</time></trkpt>
<trkpt lat="42.092193" lon="23.618086"><ele>1985.3</ele><time>2026-03-08T07:25:38.000Z</time></trkpt>
<trkpt lat="42.092193" lon="23.618087"><ele>1985.3</ele><time>2026-03-08T07:25:39.000Z</time></trkpt>
<trkpt lat="42.092194" lon="23.618089"><ele>1985.3</ele><time>2026-03-08T07:25:40.000Z</time></trkpt>
<trkpt lat="42.092195" lon="23.61809"><ele>1985.3</ele><time>2026-03-08T07:25:41.000Z</time></trkpt>
<trkpt lat="42.092196" lon="23.618092"><ele>1985.2</ele><time>2026-03-08T07:25:42.000Z</time></trkpt>
<trkpt lat="42.092197" lon="23.618094"><ele>1985.2</ele><time>2026-03-08T07:25:43.000Z</time></trkpt>
<trkpt lat="42.092197" lon="23.618095"><ele>1985.2</ele><time>2026-03-08T07:25:44.000Z</time></trkpt>
<trkpt lat="42.092198" lon="23.618095"><ele>1985.2</ele><time>2026-03-08T07:25:45.000Z</time></trkpt>
<trkpt lat="42.0922" lon="23.618095"><ele>1985.2</ele><time>2026-03-08T07:25:46.000Z</time></trkpt>
<trkpt lat="42.092201" lon="23.618095"><ele>1985.1</ele><time>2026-03-08T07:25:47.000Z</time></trkpt>
<trkpt lat="42.092202" lon="23.618095"><ele>1985.1</ele><time>2026-03-08T07:25:48.000Z</time></trkpt>
<trkpt lat="42.092202" lon="23.618095"><ele>1985.1</ele><time>2026-03-08T07:25:49.000Z</time></trkpt>
<trkpt lat="42.092202" lon="23.618095"><ele>1985.1</ele><time>2026-03-08T07:25:50.000Z</time></trkpt>
<trkpt lat="42.092202" lon="23.618095"><ele>1985.1</ele><time>2026-03-08T07:25:51.000Z</time></trkpt>
<trkpt lat="42.092202" lon="23.618095"><ele>1985</ele><time>2026-03-08T07:25:52.000Z</time></trkpt>
<trkpt lat="42.092202" lon="23.618095"><ele>1985</ele><time>2026-03-08T07:25:53.000Z</time></trkpt>
<trkpt lat="42.092201" lon="23.618096"><ele>1985</ele><time>2026-03-08T07:25:54.000Z</time></trkpt>
<trkpt lat="42.092201" lon="23.618097"><ele>1985</ele><time>2026-03-08T07:25:55.000Z</time></trkpt>
<trkpt lat="42.092201" lon="23.618098"><ele>1985</ele><time>2026-03-08T07:25:56.000Z</time></trkpt>
<trkpt lat="42.0922" lon="23.618099"><ele>1985</ele><time>2026-03-08T07:25:57.000Z</time></trkpt>
<trkpt lat="42.0922" lon="23.6181"><ele>1985</ele><time>2026-03-08T07:25:58.000Z</time></trkpt>
<trkpt lat="42.0922" lon="23.618101"><ele>1985</ele><time>2026-03-08T07:25:59.000Z</time></trkpt>
<trkpt lat="42.092201" lon="23.618101"><ele>1985</ele><time>2026-03-08T07:26:00.000Z</time></trkpt>
<trkpt lat="42.092201" lon="23.618101"><ele>1985</ele><time>2026-03-08T07:26:01.000Z</time></trkpt>
<trkpt lat="42.092202" lon="23.618102"><ele>1984.9</ele><time>2026-03-08T07:26:02.000Z</time></trkpt>
<trkpt lat="42.092203" lon="23.618102"><ele>1984.9</ele><time>2026-03-08T07:26:03.000Z</time></trkpt>
<trkpt lat="42.092203" lon="23.618103"><ele>1984.9</ele><time>2026-03-08T07:26:04.000Z</time></trkpt>
<trkpt lat="42.092204" lon="23.618104"><ele>1984.9</ele><time>2026-03-08T07:26:05.000Z</time></trkpt>
<trkpt lat="42.092205" lon="23.618104"><ele>1984.9</ele><time>2026-03-08T07:26:06.000Z</time></trkpt>
<trkpt lat="42.092204" lon="23.618104"><ele>1984.9</ele><time>2026-03-08T07:26:07.000Z</time></trkpt>
<trkpt lat="42.092204" lon="23.618104"><ele>1984.9</ele><time>2026-03-08T07:26:08.000Z</time></trkpt>
<trkpt lat="42.092204" lon="23.618104"><ele>1984.9</ele><time>2026-03-08T07:26:09.000Z</time></trkpt>
<trkpt lat="42.092204" lon="23.618103"><ele>1984.9</ele><time>2026-03-08T07:26:10.000Z</time></trkpt>
<trkpt lat="42.092205" lon="23.618102"><ele>1984.9</ele><time>2026-03-08T07:26:11.000Z</time></trkpt>
<trkpt lat="42.092205" lon="23.618102"><ele>1985</ele><time>2026-03-08T07:26:12.000Z</time></trkpt>
<trkpt lat="42.092206" lon="23.618101"><ele>1985</ele><time>2026-03-08T07:26:13.000Z</time></trkpt>
<trkpt lat="42.092206" lon="23.618101"><ele>1985</ele><time>2026-03-08T07:26:14.000Z</time></trkpt>
<trkpt lat="42.092208" lon="23.618101"><ele>1985</ele><time>2026-03-08T07:26:15.000Z</time></trkpt>
<trkpt lat="42.092209" lon="23.618102"><ele>1985</ele><time>2026-03-08T07:26:16.000Z</time></trkpt>
<trkpt lat="42.092211" lon="23.618103"><ele>1985.1</ele><time>2026-03-08T07:26:17.000Z</time></trkpt>
<trkpt lat="42.092212" lon="23.618104"><ele>1985.1</ele><time>2026-03-08T07:26:18.000Z</time></trkpt>
<trkpt lat="42.092213" lon="23.618104"><ele>1985.1</ele><time>2026-03-08T07:26:19.000Z</time></trkpt>
<trkpt lat="42.092213" lon="23.618104"><ele>1985.1</ele><time>2026-03-08T07:26:20.000Z</time></trkpt>
<trkpt lat="42.092213" lon="23.618104"><ele>1985.1</ele><time>2026-03-08T07:26:21.000Z</time></trkpt>
<trkpt lat="42.092214" lon="23.618105"><ele>1985</ele><time>2026-03-08T07:26:22.000Z</time></trkpt>
<trkpt lat="42.092215" lon="23.618108"><ele>1985</ele><time>2026-03-08T07:26:23.000Z</time></trkpt>
<trkpt lat="42.092215" lon="23.618112"><ele>1985</ele><time>2026-03-08T07:26:24.000Z</time></trkpt>
<trkpt lat="42.092216" lon="23.618119"><ele>1985</ele><time>2026-03-08T07:26:25.000Z</time></trkpt>
<trkpt lat="42.092216" lon="23.618126"><ele>1985</ele><time>2026-03-08T07:26:26.000Z</time></trkpt>
<trkpt lat="42.092213" lon="23.618134"><ele>1984.9</ele><time>2026-03-08T07:26:27.000Z</time></trkpt>
<trkpt lat="42.092211" lon="23.618141"><ele>1984.9</ele><time>2026-03-08T07:26:28.000Z</time></trkpt>
<trkpt lat="42.092208" lon="23.618148"><ele>1984.9</ele><time>2026-03-08T07:26:29.000Z</time></trkpt>
<trkpt lat="42.092206" lon="23.618156"><ele>1984.9</ele><time>2026-03-08T07:26:30.000Z</time></trkpt>
<trkpt lat="42.092204" lon="23.618165"><ele>1984.9</ele><time>2026-03-08T07:26:31.000Z</time></trkpt>
<trkpt lat="42.092203" lon="23.618174"><ele>1984.8</ele><time>2026-03-08T07:26:32.000Z</time></trkpt>
<trkpt lat="42.092202" lon="23.618184"><ele>1984.8</ele><time>2026-03-08T07:26:33.000Z</time></trkpt>
<trkpt lat="42.092201" lon="23.618192"><ele>1984.8</ele><time>2026-03-08T07:26:34.000Z</time></trkpt>
<trkpt lat="42.0922" lon="23.618198"><ele>1984.8</ele><time>2026-03-08T07:26:35.000Z</time></trkpt>
<trkpt lat="42.0922" lon="23.618202"><ele>1984.8</ele><time>2026-03-08T07:26:36.000Z</time></trkpt>
<trkpt lat="42.092201" lon="23.618204"><ele>1984.5</ele><time>2026-03-08T07:26:37.000Z</time></trkpt>
<trkpt lat="42.092204" lon="23.618206"><ele>1984.5</ele><time>2026-03-08T07:26:38.000Z</time></trkpt>
<trkpt lat="42.092206" lon="23.618206"><ele>1984.5</ele><time>2026-03-08T07:26:39.000Z</time></trkpt>
<trkpt lat="42.092207" lon="23.618206"><ele>1984.5</ele><time>2026-03-08T07:26:40.000Z</time></trkpt>
<trkpt lat="42.092209" lon="23.618205"><ele>1984.5</ele><time>2026-03-08T07:26:41.000Z</time></trkpt>
<trkpt lat="42.092209" lon="23.618205"><ele>1984.3</ele><time>2026-03-08T07:26:42.000Z</time></trkpt>
<trkpt lat="42.092208" lon="23.618204"><ele>1984.3</ele><time>2026-03-08T07:26:43.000Z</time></trkpt>
<trkpt lat="42.092209" lon="23.618203"><ele>1984.3</ele><time>2026-03-08T07:26:44.000Z</time></trkpt>
<trkpt lat="42.092208" lon="23.618202"><ele>1984.3</ele><time>2026-03-08T07:26:45.000Z</time></trkpt>
<trkpt lat="42.092208" lon="23.618201"><ele>1984.3</ele><time>2026-03-08T07:26:46.000Z</time></trkpt>
<trkpt lat="42.092208" lon="23.6182"><ele>1983.8</ele><time>2026-03-08T07:26:47.000Z</time></trkpt>
<trkpt lat="42.092207" lon="23.618199"><ele>1983.8</ele><time>2026-03-08T07:26:48.000Z</time></trkpt>
<trkpt lat="42.092207" lon="23.618197"><ele>1983.8</ele><time>2026-03-08T07:26:49.000Z</time></trkpt>
<trkpt lat="42.092206" lon="23.618197"><ele>1983.8</ele><time>2026-03-08T07:26:50.000Z</time></trkpt>
<trkpt lat="42.092205" lon="23.618197"><ele>1983.8</ele><time>2026-03-08T07:26:51.000Z</time></trkpt>
<trkpt lat="42.092204" lon="23.618198"><ele>1983.5</ele><time>2026-03-08T07:26:52.000Z</time></trkpt>
<trkpt lat="42.092204" lon="23.618198"><ele>1983.5</ele><time>2026-03-08T07:26:53.000Z</time></trkpt>
<trkpt lat="42.092203" lon="23.6182"><ele>1983.5</ele><time>2026-03-08T07:26:54.000Z</time></trkpt>
<trkpt lat="42.092203" lon="23.618202"><ele>1983.5</ele><time>2026-03-08T07:26:55.000Z</time></trkpt>
<trkpt lat="42.092203" lon="23.618205"><ele>1983.5</ele><time>2026-03-08T07:26:56.000Z</time></trkpt>
<trkpt lat="42.092204" lon="23.618207"><ele>1983.4</ele><time>2026-03-08T07:26:57.000Z</time></trkpt>
<trkpt lat="42.092204" lon="23.618209"><ele>1983.4</ele><time>2026-03-08T07:26:58.000Z</time></trkpt>
<trkpt lat="42.092205" lon="23.618211"><ele>1983.4</ele><time>2026-03-08T07:26:59.000Z</time></trkpt>
<trkpt lat="42.092205" lon="23.618211"><ele>1983.4</ele><time>2026-03-08T07:27:00.000Z</time></trkpt>
<trkpt lat="42.092205" lon="23.618211"><ele>1983.4</ele><time>2026-03-08T07:27:01.000Z</time></trkpt>
<trkpt lat="42.092206" lon="23.618211"><ele>1983.4</ele><time>2026-03-08T07:27:02.000Z</time></trkpt>
<trkpt lat="42.092208" lon="23.618211"><ele>1983.4</ele><time>2026-03-08T07:27:03.000Z</time></trkpt>
<trkpt lat="42.092209" lon="23.618211"><ele>1983.4</ele><time>2026-03-08T07:27:04.000Z</time></trkpt>
<trkpt lat="42.092211" lon="23.618212"><ele>1983.4</ele><time>2026-03-08T07:27:05.000Z</time></trkpt>
<trkpt lat="42.092211" lon="23.618213"><ele>1983.4</ele><time>2026-03-08T07:27:06.000Z</time></trkpt>
<trkpt lat="42.09221" lon="23.618214"><ele>1983.4</ele><time>2026-03-08T07:27:07.000Z</time></trkpt>
<trkpt lat="42.092208" lon="23.618215"><ele>1983.4</ele><time>2026-03-08T07:27:08.000Z</time></trkpt>
<trkpt lat="42.092205" lon="23.618216"><ele>1983.4</ele><time>2026-03-08T07:27:09.000Z</time></trkpt>
<trkpt lat="42.092203" lon="23.618216"><ele>1983.4</ele><time>2026-03-08T07:27:10.000Z</time></trkpt>
<trkpt lat="42.092202" lon="23.618215"><ele>1983.4</ele><time>2026-03-08T07:27:11.000Z</time></trkpt>
<trkpt lat="42.0922" lon="23.618216"><ele>1983.3</ele><time>2026-03-08T07:27:12.000Z</time></trkpt>
<trkpt lat="42.0922" lon="23.618216"><ele>1983.3</ele><time>2026-03-08T07:27:13.000Z</time></trkpt>
<trkpt lat="42.0922" lon="23.618217"><ele>1983.3</ele><time>2026-03-08T07:27:14.000Z</time></trkpt>
<trkpt lat="42.092199" lon="23.618217"><ele>1983.3</ele><time>2026-03-08T07:27:15.000Z</time></trkpt>
<trkpt lat="42.092199" lon="23.618218"><ele>1983.3</ele><time>2026-03-08T07:27:16.000Z</time></trkpt>
<trkpt lat="42.0922" lon="23.618218"><ele>1983.4</ele><time>2026-03-08T07:27:17.000Z</time></trkpt>
<trkpt lat="42.0922" lon="23.618219"><ele>1983.4</ele><time>2026-03-08T07:27:18.000Z</time></trkpt>
<trkpt lat="42.0922" lon="23.618219"><ele>1983.4</ele><time>2026-03-08T07:27:19.000Z</time></trkpt>
<trkpt lat="42.0922" lon="23.618219"><ele>1983.4</ele><time>2026-03-08T07:27:20.000Z</time></trkpt>
<trkpt lat="42.0922" lon="23.618219"><ele>1983.4</ele><time>2026-03-08T07:27:21.000Z</time></trkpt>
<trkpt lat="42.0922" lon="23.618219"><ele>1983.7</ele><time>2026-03-08T07:27:22.000Z</time></trkpt>
<trkpt lat="42.092201" lon="23.618218"><ele>1983.7</ele><time>2026-03-08T07:27:23.000Z</time></trkpt>
<trkpt lat="42.092201" lon="23.618218"><ele>1983.7</ele><time>2026-03-08T07:27:24.000Z</time></trkpt>
<trkpt lat="42.092201" lon="23.618217"><ele>1983.7</ele><time>2026-03-08T07:27:25.000Z</time></trkpt>
<trkpt lat="42.092201" lon="23.618217"><ele>1983.7</ele><time>2026-03-08T07:27:26.000Z</time></trkpt>
<trkpt lat="42.0922" lon="23.618216"><ele>1983.8</ele><time>2026-03-08T07:27:27.000Z</time></trkpt>
<trkpt lat="42.0922" lon="23.618216"><ele>1983.8</ele><time>2026-03-08T07:27:28.000Z</time></trkpt>
<trkpt lat="42.092199" lon="23.618216"><ele>1983.8</ele><time>2026-03-08T07:27:29.000Z</time></trkpt>
<trkpt lat="42.092199" lon="23.618216"><ele>1983.8</ele><time>2026-03-08T07:27:30.000Z</time></trkpt>
<trkpt lat="42.092199" lon="23.618215"><ele>1983.8</ele><time>2026-03-08T07:27:31.000Z</time></trkpt>
<trkpt lat="42.092199" lon="23.618215"><ele>1983.9</ele><time>2026-03-08T07:27:32.000Z</time></trkpt>
<trkpt lat="42.0922" lon="23.618215"><ele>1983.9</ele><time>2026-03-08T07:27:33.000Z</time></trkpt>
<trkpt lat="42.0922" lon="23.618214"><ele>1983.9</ele><time>2026-03-08T07:27:34.000Z</time></trkpt>
<trkpt lat="42.092201" lon="23.618214"><ele>1983.9</ele><time>2026-03-08T07:27:35.000Z</time></trkpt>
<trkpt lat="42.092202" lon="23.618214"><ele>1983.9</ele><time>2026-03-08T07:27:36.000Z</time></trkpt>
<trkpt lat="42.092202" lon="23.618214"><ele>1983.8</ele><time>2026-03-08T07:27:37.000Z</time></trkpt>
<trkpt lat="42.092201" lon="23.618214"><ele>1983.8</ele><time>2026-03-08T07:27:38.000Z</time></trkpt>
<trkpt lat="42.0922" lon="23.618214"><ele>1983.8</ele><time>2026-03-08T07:27:39.000Z</time></trkpt>
<trkpt lat="42.092199" lon="23.618214"><ele>1983.8</ele><time>2026-03-08T07:27:40.000Z</time></trkpt>
<trkpt lat="42.092199" lon="23.618214"><ele>1983.8</ele><time>2026-03-08T07:27:41.000Z</time></trkpt>
<trkpt lat="42.092198" lon="23.618213"><ele>1983.7</ele><time>2026-03-08T07:27:42.000Z</time></trkpt>
<trkpt lat="42.092199" lon="23.618212"><ele>1983.7</ele><time>2026-03-08T07:27:43.000Z</time></trkpt>
<trkpt lat="42.092199" lon="23.618212"><ele>1983.7</ele><time>2026-03-08T07:27:44.000Z</time></trkpt>
<trkpt lat="42.0922" lon="23.618211"><ele>1983.7</ele><time>2026-03-08T07:27:45.000Z</time></trkpt>
<trkpt lat="42.092201" lon="23.618211"><ele>1983.7</ele><time>2026-03-08T07:27:46.000Z</time></trkpt>
<trkpt lat="42.092203" lon="23.618211"><ele>1983.5</ele><time>2026-03-08T07:27:47.000Z</time></trkpt>
<trkpt lat="42.092203" lon="23.618211"><ele>1983.5</ele><time>2026-03-08T07:27:48.000Z</time></trkpt>
<trkpt lat="42.092203" lon="23.61821"><ele>1983.5</ele><time>2026-03-08T07:27:49.000Z</time></trkpt>
<trkpt lat="42.092202" lon="23.618209"><ele>1983.5</ele><time>2026-03-08T07:27:50.000Z</time></trkpt>
<trkpt lat="42.092202" lon="23.618208"><ele>1983.5</ele><time>2026-03-08T07:27:51.000Z</time></trkpt>
<trkpt lat="42.0922" lon="23.618208"><ele>1983.4</ele><time>2026-03-08T07:27:52.000Z</time></trkpt>
<trkpt lat="42.0922" lon="23.618207"><ele>1983.4</ele><time>2026-03-08T07:27:53.000Z</time></trkpt>
<trkpt lat="42.0922" lon="23.618207"><ele>1983.4</ele><time>2026-03-08T07:27:54.000Z</time></trkpt>
<trkpt lat="42.092199" lon="23.618208"><ele>1983.4</ele><time>2026-03-08T07:27:55.000Z</time></trkpt>
<trkpt lat="42.092198" lon="23.618209"><ele>1983.4</ele><time>2026-03-08T07:27:56.000Z</time></trkpt>
<trkpt lat="42.092198" lon="23.61821"><ele>1983.5</ele><time>2026-03-08T07:27:57.000Z</time></trkpt>
<trkpt lat="42.092197" lon="23.618211"><ele>1983.5</ele><time>2026-03-08T07:27:58.000Z</time></trkpt>
<trkpt lat="42.092197" lon="23.618212"><ele>1983.5</ele><time>2026-03-08T07:27:59.000Z</time></trkpt>
<trkpt lat="42.092197" lon="23.618212"><ele>1983.5</ele><time>2026-03-08T07:28:00.000Z</time></trkpt>
<trkpt lat="42.092197" lon="23.618213"><ele>1983.5</ele><time>2026-03-08T07:28:01.000Z</time></trkpt>
<trkpt lat="42.092198" lon="23.618213"><ele>1983.9</ele><time>2026-03-08T07:28:02.000Z</time></trkpt>
<trkpt lat="42.092199" lon="23.618213"><ele>1983.9</ele><time>2026-03-08T07:28:03.000Z</time></trkpt>
<trkpt lat="42.0922" lon="23.618214"><ele>1983.9</ele><time>2026-03-08T07:28:04.000Z</time></trkpt>
<trkpt lat="42.092201" lon="23.618213"><ele>1983.9</ele><time>2026-03-08T07:28:05.000Z</time></trkpt>
<trkpt lat="42.092202" lon="23.618212"><ele>1983.9</ele><time>2026-03-08T07:28:06.000Z</time></trkpt>
<trkpt lat="42.092202" lon="23.618211"><ele>1984.1</ele><time>2026-03-08T07:28:07.000Z</time></trkpt>
<trkpt lat="42.092202" lon="23.618211"><ele>1984.1</ele><time>2026-03-08T07:28:08.000Z</time></trkpt>
<trkpt lat="42.092202" lon="23.618211"><ele>1984.1</ele><time>2026-03-08T07:28:09.000Z</time></trkpt>
<trkpt lat="42.092202" lon="23.618212"><ele>1984.1</ele><time>2026-03-08T07:28:10.000Z</time></trkpt>
<trkpt lat="42.092201" lon="23.618213"><ele>1984.1</ele><time>2026-03-08T07:28:11.000Z</time></trkpt>
<trkpt lat="42.0922" lon="23.618213"><ele>1984.2</ele><time>2026-03-08T07:28:12.000Z</time></trkpt>
<trkpt lat="42.092199" lon="23.618212"><ele>1984.2</ele><time>2026-03-08T07:28:13.000Z</time></trkpt>
<trkpt lat="42.092199" lon="23.618209"><ele>1984.2</ele><time>2026-03-08T07:28:14.000Z</time></trkpt>
<trkpt lat="42.092201" lon="23.618206"><ele>1984.2</ele><time>2026-03-08T07:28:15.000Z</time></trkpt>
<trkpt lat="42.092204" lon="23.618204"><ele>1984.2</ele><time>2026-03-08T07:28:16.000Z</time></trkpt>
<trkpt lat="42.092208" lon="23.618201"><ele>1984</ele><time>2026-03-08T07:28:17.000Z</time></trkpt>
<trkpt lat="42.092212" lon="23.618197"><ele>1984</ele><time>2026-03-08T07:28:18.000Z</time></trkpt>
<trkpt lat="42.092215" lon="23.618194"><ele>1984</ele><time>2026-03-08T07:28:19.000Z</time></trkpt>
<trkpt lat="42.092217" lon="23.618192"><ele>1984</ele><time>2026-03-08T07:28:20.000Z</time></trkpt>
<trkpt lat="42.092218" lon="23.618189"><ele>1984</ele><time>2026-03-08T07:28:21.000Z</time></trkpt>
<trkpt lat="42.092219" lon="23.618189"><ele>1983.9</ele><time>2026-03-08T07:28:22.000Z</time></trkpt>
<trkpt lat="42.092219" lon="23.618188"><ele>1983.9</ele><time>2026-03-08T07:28:23.000Z</time></trkpt>
<trkpt lat="42.092219" lon="23.618188"><ele>1983.9</ele><time>2026-03-08T07:28:24.000Z</time></trkpt>
<trkpt lat="42.09222" lon="23.618189"><ele>1983.9</ele><time>2026-03-08T07:28:25.000Z</time></trkpt>
<trkpt lat="42.09222" lon="23.618189"><ele>1983.9</ele><time>2026-03-08T07:28:26.000Z</time></trkpt>
<trkpt lat="42.092219" lon="23.618189"><ele>1983.9</ele><time>2026-03-08T07:28:27.000Z</time></trkpt>
<trkpt lat="42.092219" lon="23.618189"><ele>1983.9</ele><time>2026-03-08T07:28:28.000Z</time></trkpt>
<trkpt lat="42.092218" lon="23.618188"><ele>1983.9</ele><time>2026-03-08T07:28:29.000Z</time></trkpt>
<trkpt lat="42.092217" lon="23.618187"><ele>1983.9</ele><time>2026-03-08T07:28:30.000Z</time></trkpt>
<trkpt lat="42.092217" lon="23.618187"><ele>1983.9</ele><time>2026-03-08T07:28:31.000Z</time></trkpt>
<trkpt lat="42.092215" lon="23.618186"><ele>1984.1</ele><time>2026-03-08T07:28:32.000Z</time></trkpt>
<trkpt lat="42.092213" lon="23.618186"><ele>1984.1</ele><time>2026-03-08T07:28:33.000Z</time></trkpt>
<trkpt lat="42.09221" lon="23.618187"><ele>1984.1</ele><time>2026-03-08T07:28:34.000Z</time></trkpt>
<trkpt lat="42.092207" lon="23.618187"><ele>1984.1</ele><time>2026-03-08T07:28:35.000Z</time></trkpt>
<trkpt lat="42.092204" lon="23.618186"><ele>1984.1</ele><time>2026-03-08T07:28:36.000Z</time></trkpt>
<trkpt lat="42.092205" lon="23.618185"><ele>1984.3</ele><time>2026-03-08T07:28:37.000Z</time></trkpt>
<trkpt lat="42.092208" lon="23.618184"><ele>1984.3</ele><time>2026-03-08T07:28:38.000Z</time></trkpt>
<trkpt lat="42.092213" lon="23.618183"><ele>1984.3</ele><time>2026-03-08T07:28:39.000Z</time></trkpt>
<trkpt lat="42.092219" lon="23.618183"><ele>1984.3</ele><time>2026-03-08T07:28:40.000Z</time></trkpt>
<trkpt lat="42.092224" lon="23.618184"><ele>1984.3</ele><time>2026-03-08T07:28:41.000Z</time></trkpt>
<trkpt lat="42.092227" lon="23.618185"><ele>1984.3</ele><time>2026-03-08T07:28:42.000Z</time></trkpt>
<trkpt lat="42.092228" lon="23.618185"><ele>1984.3</ele><time>2026-03-08T07:28:43.000Z</time></trkpt>
<trkpt lat="42.09223" lon="23.618185"><ele>1984.3</ele><time>2026-03-08T07:28:44.000Z</time></trkpt>
<trkpt lat="42.092232" lon="23.618184"><ele>1984.3</ele><time>2026-03-08T07:28:45.000Z</time></trkpt>
<trkpt lat="42.092235" lon="23.618181"><ele>1984.3</ele><time>2026-03-08T07:28:46.000Z</time></trkpt>
<trkpt lat="42.092239" lon="23.618178"><ele>1984.3</ele><time>2026-03-08T07:28:47.000Z</time></trkpt>
<trkpt lat="42.092243" lon="23.618177"><ele>1984.3</ele><time>2026-03-08T07:28:48.000Z</time></trkpt>
<trkpt lat="42.092245" lon="23.618175"><ele>1984.3</ele><time>2026-03-08T07:28:49.000Z</time></trkpt>
<trkpt lat="42.092246" lon="23.618174"><ele>1984.3</ele><time>2026-03-08T07:28:50.000Z</time></trkpt>
<trkpt lat="42.092245" lon="23.618174"><ele>1984.3</ele><time>2026-03-08T07:28:51.000Z</time></trkpt>
<trkpt lat="42.092241" lon="23.618176"><ele>1984.2</ele><time>2026-03-08T07:28:52.000Z</time></trkpt>
<trkpt lat="42.092236" lon="23.618178"><ele>1984.2</ele><time>2026-03-08T07:28:53.000Z</time></trkpt>
<trkpt lat="42.09223" lon="23.618181"><ele>1984.2</ele><time>2026-03-08T07:28:54.000Z</time></trkpt>
<trkpt lat="42.092222" lon="23.618185"><ele>1984.2</ele><time>2026-03-08T07:28:55.000Z</time></trkpt>
<trkpt lat="42.092214" lon="23.618189"><ele>1984.2</ele><time>2026-03-08T07:28:56.000Z</time></trkpt>
<trkpt lat="42.092207" lon="23.618195"><ele>1984.1</ele><time>2026-03-08T07:28:57.000Z</time></trkpt>
<trkpt lat="42.092201" lon="23.618199"><ele>1984.1</ele><time>2026-03-08T07:28:58.000Z</time></trkpt>
<trkpt lat="42.092198" lon="23.618203"><ele>1984.1</ele><time>2026-03-08T07:28:59.000Z</time></trkpt>
<trkpt lat="42.092197" lon="23.618206"><ele>1984.1</ele><time>2026-03-08T07:29:00.000Z</time></trkpt>
<trkpt lat="42.092197" lon="23.618208"><ele>1984.1</ele><time>2026-03-08T07:29:01.000Z</time></trkpt>
<trkpt lat="42.092197" lon="23.618209"><ele>1984.1</ele><time>2026-03-08T07:29:02.000Z</time></trkpt>
<trkpt lat="42.092197" lon="23.61821"><ele>1984.1</ele><time>2026-03-08T07:29:03.000Z</time></trkpt>
<trkpt lat="42.092197" lon="23.61821"><ele>1984.1</ele><time>2026-03-08T07:29:04.000Z</time></trkpt>
<trkpt lat="42.092196" lon="23.61821"><ele>1984.1</ele><time>2026-03-08T07:29:05.000Z</time></trkpt>
<trkpt lat="42.092196" lon="23.61821"><ele>1984.1</ele><time>2026-03-08T07:29:06.000Z</time></trkpt>
<trkpt lat="42.092197" lon="23.61821"><ele>1984.1</ele><time>2026-03-08T07:29:07.000Z</time></trkpt>
<trkpt lat="42.092201" lon="23.61821"><ele>1984.1</ele><time>2026-03-08T07:29:08.000Z</time></trkpt>
<trkpt lat="42.092206" lon="23.618208"><ele>1984.1</ele><time>2026-03-08T07:29:09.000Z</time></trkpt>
<trkpt lat="42.092214" lon="23.618206"><ele>1984.1</ele><time>2026-03-08T07:29:10.000Z</time></trkpt>
<trkpt lat="42.092224" lon="23.618204"><ele>1984.1</ele><time>2026-03-08T07:29:11.000Z</time></trkpt>
<trkpt lat="42.092234" lon="23.6182"><ele>1984</ele><time>2026-03-08T07:29:12.000Z</time></trkpt>
<trkpt lat="42.092244" lon="23.618194"><ele>1984</ele><time>2026-03-08T07:29:13.000Z</time></trkpt>
<trkpt lat="42.092254" lon="23.618189"><ele>1984</ele><time>2026-03-08T07:29:14.000Z</time></trkpt>
<trkpt lat="42.092262" lon="23.618184"><ele>1984</ele><time>2026-03-08T07:29:15.000Z</time></trkpt>
<trkpt lat="42.092271" lon="23.61818"><ele>1984</ele><time>2026-03-08T07:29:16.000Z</time></trkpt>
<trkpt lat="42.09228" lon="23.618178"><ele>1984</ele><time>2026-03-08T07:29:17.000Z</time></trkpt>
<trkpt lat="42.092288" lon="23.618177"><ele>1984</ele><time>2026-03-08T07:29:18.000Z</time></trkpt>
<trkpt lat="42.092297" lon="23.618176"><ele>1984</ele><time>2026-03-08T07:29:19.000Z</time></trkpt>
<trkpt lat="42.092307" lon="23.618175"><ele>1984</ele><time>2026-03-08T07:29:20.000Z</time></trkpt>
<trkpt lat="42.092317" lon="23.618174"><ele>1984</ele><time>2026-03-08T07:29:21.000Z</time></trkpt>
<trkpt lat="42.092327" lon="23.618172"><ele>1984.2</ele><time>2026-03-08T07:29:22.000Z</time></trkpt>
<trkpt lat="42.092338" lon="23.618171"><ele>1984.2</ele><time>2026-03-08T07:29:23.000Z</time></trkpt>
<trkpt lat="42.092349" lon="23.618171"><ele>1984.2</ele><time>2026-03-08T07:29:24.000Z</time></trkpt>
<trkpt lat="42.09236" lon="23.61817"><ele>1984.2</ele><time>2026-03-08T07:29:25.000Z</time></trkpt>
<trkpt lat="42.092371" lon="23.618169"><ele>1984.2</ele><time>2026-03-08T07:29:26.000Z</time></trkpt>
<trkpt lat="42.092382" lon="23.618169"><ele>1984.3</ele><time>2026-03-08T07:29:27.000Z</time></trkpt>
<trkpt lat="42.092392" lon="23.61817"><ele>1984.3</ele><time>2026-03-08T07:29:28.000Z</time></trkpt>
<trkpt lat="42.092402" lon="23.61817"><ele>1984.3</ele><time>2026-03-08T07:29:29.000Z</time></trkpt>
<trkpt lat="42.09241" lon="23.618171"><ele>1984.3</ele><time>2026-03-08T07:29:30.000Z</time></trkpt>
<trkpt lat="42.092416" lon="23.618172"><ele>1984.3</ele><time>2026-03-08T07:29:31.000Z</time></trkpt>
<trkpt lat="42.092419" lon="23.618174"><ele>1984.6</ele><time>2026-03-08T07:29:32.000Z</time></trkpt>
<trkpt lat="42.092421" lon="23.618175"><ele>1984.6</ele><time>2026-03-08T07:29:33.000Z</time></trkpt>
<trkpt lat="42.092422" lon="23.618176"><ele>1984.6</ele><time>2026-03-08T07:29:34.000Z</time></trkpt>
<trkpt lat="42.092424" lon="23.618176"><ele>1984.6</ele><time>2026-03-08T07:29:35.000Z</time></trkpt>
<trkpt lat="42.092426" lon="23.618177"><ele>1984.6</ele><time>2026-03-08T07:29:36.000Z</time></trkpt>
<trkpt lat="42.092428" lon="23.618177"><ele>1984.7</ele><time>2026-03-08T07:29:37.000Z</time></trkpt>
<trkpt lat="42.092428" lon="23.618177"><ele>1984.7</ele><time>2026-03-08T07:29:38.000Z</time></trkpt>
<trkpt lat="42.092428" lon="23.618176"><ele>1984.7</ele><time>2026-03-08T07:29:39.000Z</time></trkpt>
<trkpt lat="42.092426" lon="23.618175"><ele>1984.7</ele><time>2026-03-08T07:29:40.000Z</time></trkpt>
<trkpt lat="42.092425" lon="23.618174"><ele>1984.7</ele><time>2026-03-08T07:29:41.000Z</time></trkpt>
<trkpt lat="42.092424" lon="23.618171"><ele>1984.7</ele><time>2026-03-08T07:29:42.000Z</time></trkpt>
<trkpt lat="42.092423" lon="23.618169"><ele>1984.7</ele><time>2026-03-08T07:29:43.000Z</time></trkpt>
<trkpt lat="42.092423" lon="23.618168"><ele>1984.7</ele><time>2026-03-08T07:29:44.000Z</time></trkpt>
<trkpt lat="42.092423" lon="23.618167"><ele>1984.7</ele><time>2026-03-08T07:29:45.000Z</time></trkpt>
<trkpt lat="42.092423" lon="23.618167"><ele>1984.7</ele><time>2026-03-08T07:29:46.000Z</time></trkpt>
<trkpt lat="42.092424" lon="23.618166"><ele>1984.7</ele><time>2026-03-08T07:29:47.000Z</time></trkpt>
<trkpt lat="42.092425" lon="23.618166"><ele>1984.7</ele><time>2026-03-08T07:29:48.000Z</time></trkpt>
<trkpt lat="42.092426" lon="23.618165"><ele>1984.7</ele><time>2026-03-08T07:29:49.000Z</time></trkpt>
<trkpt lat="42.092426" lon="23.618165"><ele>1984.7</ele><time>2026-03-08T07:29:50.000Z</time></trkpt>
<trkpt lat="42.092427" lon="23.618164"><ele>1984.7</ele><time>2026-03-08T07:29:51.000Z</time></trkpt>
<trkpt lat="42.092427" lon="23.618164"><ele>1984.8</ele><time>2026-03-08T07:29:52.000Z</time></trkpt>
<trkpt lat="42.092427" lon="23.618164"><ele>1984.8</ele><time>2026-03-08T07:29:53.000Z</time></trkpt>
<trkpt lat="42.092427" lon="23.618164"><ele>1984.8</ele><time>2026-03-08T07:29:54.000Z</time></trkpt>
<trkpt lat="42.092427" lon="23.618164"><ele>1984.8</ele><time>2026-03-08T07:29:55.000Z</time></trkpt>
<trkpt lat="42.092428" lon="23.618164"><ele>1984.8</ele><time>2026-03-08T07:29:56.000Z</time></trkpt>
<trkpt lat="42.092428" lon="23.618164"><ele>1984.7</ele><time>2026-03-08T07:29:57.000Z</time></trkpt>
<trkpt lat="42.092429" lon="23.618164"><ele>1984.7</ele><time>2026-03-08T07:29:58.000Z</time></trkpt>
<trkpt lat="42.092429" lon="23.618163"><ele>1984.7</ele><time>2026-03-08T07:29:59.000Z</time></trkpt>
<trkpt lat="42.09243" lon="23.618162"><ele>1984.7</ele><time>2026-03-08T07:30:00.000Z</time></trkpt>
<trkpt lat="42.09243" lon="23.618161"><ele>1984.7</ele><time>2026-03-08T07:30:01.000Z</time></trkpt>
<trkpt lat="42.092429" lon="23.618161"><ele>1984.7</ele><time>2026-03-08T07:30:02.000Z</time></trkpt>
<trkpt lat="42.092429" lon="23.618161"><ele>1984.7</ele><time>2026-03-08T07:30:03.000Z</time></trkpt>
<trkpt lat="42.092429" lon="23.618162"><ele>1984.7</ele><time>2026-03-08T07:30:04.000Z</time></trkpt>
<trkpt lat="42.092428" lon="23.618162"><ele>1984.7</ele><time>2026-03-08T07:30:05.000Z</time></trkpt>
<trkpt lat="42.092428" lon="23.618162"><ele>1984.7</ele><time>2026-03-08T07:30:06.000Z</time></trkpt>
<trkpt lat="42.092428" lon="23.618161"><ele>1984.7</ele><time>2026-03-08T07:30:07.000Z</time></trkpt>
<trkpt lat="42.092428" lon="23.61816"><ele>1984.7</ele><time>2026-03-08T07:30:08.000Z</time></trkpt>
<trkpt lat="42.092428" lon="23.61816"><ele>1984.7</ele><time>2026-03-08T07:30:09.000Z</time></trkpt>
<trkpt lat="42.092428" lon="23.61816"><ele>1984.7</ele><time>2026-03-08T07:30:10.000Z</time></trkpt>
<trkpt lat="42.092428" lon="23.61816"><ele>1984.7</ele><time>2026-03-08T07:30:11.000Z</time></trkpt>
<trkpt lat="42.092428" lon="23.61816"><ele>1984.7</ele><time>2026-03-08T07:30:12.000Z</time></trkpt>
<trkpt lat="42.092427" lon="23.618159"><ele>1984.7</ele><time>2026-03-08T07:30:13.000Z</time></trkpt>
<trkpt lat="42.092426" lon="23.618158"><ele>1984.7</ele><time>2026-03-08T07:30:14.000Z</time></trkpt>
<trkpt lat="42.092425" lon="23.618157"><ele>1984.7</ele><time>2026-03-08T07:30:15.000Z</time></trkpt>
<trkpt lat="42.092424" lon="23.618156"><ele>1984.7</ele><time>2026-03-08T07:30:16.000Z</time></trkpt>
<trkpt lat="42.092423" lon="23.618155"><ele>1984.6</ele><time>2026-03-08T07:30:17.000Z</time></trkpt>
<trkpt lat="42.092422" lon="23.618154"><ele>1984.6</ele><time>2026-03-08T07:30:18.000Z</time></trkpt>
<trkpt lat="42.092422" lon="23.618154"><ele>1984.6</ele><time>2026-03-08T07:30:19.000Z</time></trkpt>
<trkpt lat="42.092422" lon="23.618154"><ele>1984.6</ele><time>2026-03-08T07:30:20.000Z</time></trkpt>
<trkpt lat="42.092422" lon="23.618154"><ele>1984.6</ele><time>2026-03-08T07:30:21.000Z</time></trkpt>
<trkpt lat="42.092422" lon="23.618154"><ele>1984.4</ele><time>2026-03-08T07:30:22.000Z</time></trkpt>
<trkpt lat="42.092422" lon="23.618154"><ele>1984.4</ele><time>2026-03-08T07:30:23.000Z</time></trkpt>
<trkpt lat="42.092422" lon="23.618154"><ele>1984.4</ele><time>2026-03-08T07:30:24.000Z</time></trkpt>
<trkpt lat="42.092422" lon="23.618154"><ele>1984.4</ele><time>2026-03-08T07:30:25.000Z</time></trkpt>
<trkpt lat="42.092422" lon="23.618154"><ele>1984.4</ele><time>2026-03-08T07:30:26.000Z</time></trkpt>
<trkpt lat="42.092422" lon="23.618154"><ele>1984.5</ele><time>2026-03-08T07:30:27.000Z</time></trkpt>
<trkpt lat="42.092422" lon="23.618154"><ele>1984.5</ele><time>2026-03-08T07:30:28.000Z</time></trkpt>
<trkpt lat="42.092422" lon="23.618154"><ele>1984.5</ele><time>2026-03-08T07:30:29.000Z</time></trkpt>
<trkpt lat="42.092422" lon="23.618154"><ele>1984.5</ele><time>2026-03-08T07:30:30.000Z</time></trkpt>
<trkpt lat="42.092422" lon="23.618154"><ele>1984.5</ele><time>2026-03-08T07:30:31.000Z</time></trkpt>
<trkpt lat="42.092422" lon="23.618154"><ele>1984.6</ele><time>2026-03-08T07:30:32.000Z</time></trkpt>
<trkpt lat="42.092422" lon="23.618155"><ele>1984.6</ele><time>2026-03-08T07:30:33.000Z</time></trkpt>
<trkpt lat="42.092423" lon="23.618155"><ele>1984.6</ele><time>2026-03-08T07:30:34.000Z</time></trkpt>
<trkpt lat="42.092424" lon="23.618156"><ele>1984.6</ele><time>2026-03-08T07:30:35.000Z</time></trkpt>
<trkpt lat="42.092425" lon="23.618157"><ele>1984.6</ele><time>2026-03-08T07:30:36.000Z</time></trkpt>
<trkpt lat="42.092426" lon="23.618158"><ele>1984.5</ele><time>2026-03-08T07:30:37.000Z</time></trkpt>
<trkpt lat="42.092427" lon="23.618158"><ele>1984.5</ele><time>2026-03-08T07:30:38.000Z</time></trkpt>
<trkpt lat="42.092427" lon="23.618159"><ele>1984.5</ele><time>2026-03-08T07:30:39.000Z</time></trkpt>
<trkpt lat="42.092426" lon="23.618157"><ele>1984.5</ele><time>2026-03-08T07:30:40.000Z</time></trkpt>
<trkpt lat="42.092426" lon="23.618157"><ele>1984.5</ele><time>2026-03-08T07:30:41.000Z</time></trkpt>
<trkpt lat="42.092425" lon="23.618156"><ele>1984.4</ele><time>2026-03-08T07:30:42.000Z</time></trkpt>
<trkpt lat="42.092424" lon="23.618155"><ele>1984.4</ele><time>2026-03-08T07:30:43.000Z</time></trkpt>
<trkpt lat="42.092425" lon="23.618155"><ele>1984.4</ele><time>2026-03-08T07:30:44.000Z</time></trkpt>
<trkpt lat="42.092425" lon="23.618155"><ele>1984.4</ele><time>2026-03-08T07:30:45.000Z</time></trkpt>
<trkpt lat="42.092426" lon="23.618156"><ele>1984.4</ele><time>2026-03-08T07:30:46.000Z</time></trkpt>
<trkpt lat="42.092427" lon="23.618157"><ele>1984.3</ele><time>2026-03-08T07:30:47.000Z</time></trkpt>
<trkpt lat="42.092428" lon="23.618158"><ele>1984.3</ele><time>2026-03-08T07:30:48.000Z</time></trkpt>
<trkpt lat="42.092429" lon="23.618158"><ele>1984.3</ele><time>2026-03-08T07:30:49.000Z</time></trkpt>
<trkpt lat="42.092429" lon="23.618158"><ele>1984.3</ele><time>2026-03-08T07:30:50.000Z</time></trkpt>
<trkpt lat="42.092429" lon="23.618158"><ele>1984.3</ele><time>2026-03-08T07:30:51.000Z</time></trkpt>
<trkpt lat="42.092429" lon="23.618158"><ele>1984.4</ele><time>2026-03-08T07:30:52.000Z</time></trkpt>
<trkpt lat="42.092429" lon="23.618158"><ele>1984.4</ele><time>2026-03-08T07:30:53.000Z</time></trkpt>
<trkpt lat="42.092429" lon="23.618158"><ele>1984.4</ele><time>2026-03-08T07:30:54.000Z</time></trkpt>
<trkpt lat="42.092429" lon="23.618158"><ele>1984.4</ele><time>2026-03-08T07:30:55.000Z</time></trkpt>
<trkpt lat="42.092429" lon="23.618158"><ele>1984.4</ele><time>2026-03-08T07:30:56.000Z</time></trkpt>
<trkpt lat="42.092429" lon="23.618158"><ele>1984.4</ele><time>2026-03-08T07:30:57.000Z</time></trkpt>
<trkpt lat="42.092429" lon="23.618158"><ele>1984.4</ele><time>2026-03-08T07:30:58.000Z</time></trkpt>
<trkpt lat="42.092429" lon="23.618158"><ele>1984.4</ele><time>2026-03-08T07:30:59.000Z</time></trkpt>
<trkpt lat="42.092429" lon="23.618158"><ele>1984.4</ele><time>2026-03-08T07:31:00.000Z</time></trkpt>
<trkpt lat="42.092429" lon="23.618158"><ele>1984.4</ele><time>2026-03-08T07:31:01.000Z</time></trkpt>
<trkpt lat="42.092429" lon="23.618158"><ele>1984.4</ele><time>2026-03-08T07:31:02.000Z</time></trkpt>
<trkpt lat="42.092429" lon="23.618158"><ele>1984.4</ele><time>2026-03-08T07:31:03.000Z</time></trkpt>
<trkpt lat="42.092428" lon="23.618158"><ele>1984.4</ele><time>2026-03-08T07:31:04.000Z</time></trkpt>
<trkpt lat="42.092428" lon="23.618158"><ele>1984.4</ele><time>2026-03-08T07:31:05.000Z</time></trkpt>
<trkpt lat="42.092428" lon="23.618158"><ele>1984.4</ele><time>2026-03-08T07:31:06.000Z</time></trkpt>
<trkpt lat="42.092428" lon="23.618158"><ele>1984.4</ele><time>2026-03-08T07:31:07.000Z</time></trkpt>
<trkpt lat="42.092429" lon="23.618156"><ele>1984.4</ele><time>2026-03-08T07:31:08.000Z</time></trkpt>
<trkpt lat="42.092431" lon="23.618154"><ele>1984.4</ele><time>2026-03-08T07:31:09.000Z</time></trkpt>
<trkpt lat="42.092433" lon="23.618151"><ele>1984.4</ele><time>2026-03-08T07:31:10.000Z</time></trkpt>
<trkpt lat="42.092434" lon="23.618148"><ele>1984.4</ele><time>2026-03-08T07:31:11.000Z</time></trkpt>
<trkpt lat="42.092435" lon="23.618144"><ele>1984.4</ele><time>2026-03-08T07:31:12.000Z</time></trkpt>
<trkpt lat="42.092436" lon="23.618142"><ele>1984.4</ele><time>2026-03-08T07:31:13.000Z</time></trkpt>
<trkpt lat="42.092436" lon="23.618141"><ele>1984.4</ele><time>2026-03-08T07:31:14.000Z</time></trkpt>
<trkpt lat="42.092436" lon="23.61814"><ele>1984.4</ele><time>2026-03-08T07:31:15.000Z</time></trkpt>
<trkpt lat="42.092436" lon="23.61814"><ele>1984.4</ele><time>2026-03-08T07:31:16.000Z</time></trkpt>
<trkpt lat="42.092436" lon="23.61814"><ele>1984.3</ele><time>2026-03-08T07:31:17.000Z</time></trkpt>
<trkpt lat="42.092435" lon="23.618141"><ele>1984.3</ele><time>2026-03-08T07:31:18.000Z</time></trkpt>
<trkpt lat="42.092435" lon="23.618141"><ele>1984.3</ele><time>2026-03-08T07:31:19.000Z</time></trkpt>
<trkpt lat="42.092435" lon="23.618142"><ele>1984.3</ele><time>2026-03-08T07:31:20.000Z</time></trkpt>
<trkpt lat="42.092436" lon="23.618142"><ele>1984.3</ele><time>2026-03-08T07:31:21.000Z</time></trkpt>
<trkpt lat="42.092436" lon="23.618142"><ele>1984.3</ele><time>2026-03-08T07:31:22.000Z</time></trkpt>
<trkpt lat="42.092437" lon="23.618142"><ele>1984.3</ele><time>2026-03-08T07:31:23.000Z</time></trkpt>
<trkpt lat="42.092438" lon="23.618142"><ele>1984.3</ele><time>2026-03-08T07:31:24.000Z</time></trkpt>
<trkpt lat="42.092439" lon="23.618143"><ele>1984.3</ele><time>2026-03-08T07:31:25.000Z</time></trkpt>
<trkpt lat="42.09244" lon="23.618143"><ele>1984.3</ele><time>2026-03-08T07:31:26.000Z</time></trkpt>
<trkpt lat="42.09244" lon="23.618144"><ele>1984.4</ele><time>2026-03-08T07:31:27.000Z</time></trkpt>
<trkpt lat="42.09244" lon="23.618145"><ele>1984.4</ele><time>2026-03-08T07:31:28.000Z</time></trkpt>
<trkpt lat="42.09244" lon="23.618145"><ele>1984.4</ele><time>2026-03-08T07:31:29.000Z</time></trkpt>
<trkpt lat="42.09244" lon="23.618146"><ele>1984.4</ele><time>2026-03-08T07:31:30.000Z</time></trkpt>
<trkpt lat="42.09244" lon="23.618146"><ele>1984.4</ele><time>2026-03-08T07:31:31.000Z</time></trkpt>
<trkpt lat="42.09244" lon="23.618147"><ele>1984.4</ele><time>2026-03-08T07:31:32.000Z</time></trkpt>
<trkpt lat="42.09244" lon="23.618147"><ele>1984.4</ele><time>2026-03-08T07:31:33.000Z</time></trkpt>
<trkpt lat="42.09244" lon="23.618147"><ele>1984.4</ele><time>2026-03-08T07:31:34.000Z</time></trkpt>
<trkpt lat="42.09244" lon="23.618147"><ele>1984.4</ele><time>2026-03-08T07:31:35.000Z</time></trkpt>
<trkpt lat="42.09244" lon="23.618147"><ele>1984.4</ele><time>2026-03-08T07:31:36.000Z</time></trkpt>
<trkpt lat="42.09244" lon="23.618147"><ele>1984.3</ele><time>2026-03-08T07:31:37.000Z</time></trkpt>
<trkpt lat="42.09244" lon="23.618147"><ele>1984.3</ele><time>2026-03-08T07:31:38.000Z</time></trkpt>
<trkpt lat="42.09244" lon="23.618147"><ele>1984.3</ele><time>2026-03-08T07:31:39.000Z</time></trkpt>
<trkpt lat="42.09244" lon="23.618147"><ele>1984.3</ele><time>2026-03-08T07:31:40.000Z</time></trkpt>
<trkpt lat="42.09244" lon="23.618147"><ele>1984.3</ele><time>2026-03-08T07:31:41.000Z</time></trkpt>
<trkpt lat="42.09244" lon="23.618147"><ele>1984.3</ele><time>2026-03-08T07:31:42.000Z</time></trkpt>
<trkpt lat="42.09244" lon="23.618147"><ele>1984.3</ele><time>2026-03-08T07:31:43.000Z</time></trkpt>
<trkpt lat="42.09244" lon="23.618147"><ele>1984.3</ele><time>2026-03-08T07:31:44.000Z</time></trkpt>
<trkpt lat="42.09244" lon="23.618147"><ele>1984.3</ele><time>2026-03-08T07:31:45.000Z</time></trkpt>
<trkpt lat="42.09244" lon="23.618147"><ele>1984.3</ele><time>2026-03-08T07:31:46.000Z</time></trkpt>
<trkpt lat="42.09244" lon="23.618147"><ele>1984.2</ele><time>2026-03-08T07:31:47.000Z</time></trkpt>
<trkpt lat="42.09244" lon="23.618147"><ele>1984.2</ele><time>2026-03-08T07:31:48.000Z</time></trkpt>
<trkpt lat="42.09244" lon="23.618147"><ele>1984.2</ele><time>2026-03-08T07:31:49.000Z</time></trkpt>
<trkpt lat="42.09244" lon="23.618147"><ele>1984.2</ele><time>2026-03-08T07:31:50.000Z</time></trkpt>
<trkpt lat="42.092439" lon="23.618147"><ele>1984.2</ele><time>2026-03-08T07:31:51.000Z</time></trkpt>
<trkpt lat="42.092439" lon="23.618147"><ele>1984</ele><time>2026-03-08T07:31:52.000Z</time></trkpt>
<trkpt lat="42.092439" lon="23.618147"><ele>1984</ele><time>2026-03-08T07:31:53.000Z</time></trkpt>
<trkpt lat="42.092439" lon="23.618147"><ele>1984</ele><time>2026-03-08T07:31:54.000Z</time></trkpt>
<trkpt lat="42.092439" lon="23.618148"><ele>1984</ele><time>2026-03-08T07:31:55.000Z</time></trkpt>
<trkpt lat="42.092439" lon="23.618148"><ele>1984</ele><time>2026-03-08T07:31:56.000Z</time></trkpt>
<trkpt lat="42.09244" lon="23.618147"><ele>1983.9</ele><time>2026-03-08T07:31:57.000Z</time></trkpt>
<trkpt lat="42.092442" lon="23.618147"><ele>1983.9</ele><time>2026-03-08T07:31:58.000Z</time></trkpt>
<trkpt lat="42.092443" lon="23.618145"><ele>1983.9</ele><time>2026-03-08T07:31:59.000Z</time></trkpt>
<trkpt lat="42.092445" lon="23.618143"><ele>1983.9</ele><time>2026-03-08T07:32:00.000Z</time></trkpt>
<trkpt lat="42.092448" lon="23.618141"><ele>1983.9</ele><time>2026-03-08T07:32:01.000Z</time></trkpt>
<trkpt lat="42.092452" lon="23.61814"><ele>1983.8</ele><time>2026-03-08T07:32:02.000Z</time></trkpt>
<trkpt lat="42.092458" lon="23.618139"><ele>1983.8</ele><time>2026-03-08T07:32:03.000Z</time></trkpt>
<trkpt lat="42.092465" lon="23.61814"><ele>1983.8</ele><time>2026-03-08T07:32:04.000Z</time></trkpt>
<trkpt lat="42.092474" lon="23.61814"><ele>1983.8</ele><time>2026-03-08T07:32:05.000Z</time></trkpt>
<trkpt lat="42.092484" lon="23.618141"><ele>1983.8</ele><time>2026-03-08T07:32:06.000Z</time></trkpt>
<trkpt lat="42.092494" lon="23.618141"><ele>1983.8</ele><time>2026-03-08T07:32:07.000Z</time></trkpt>
<trkpt lat="42.092505" lon="23.618142"><ele>1983.8</ele><time>2026-03-08T07:32:08.000Z</time></trkpt>
<trkpt lat="42.092516" lon="23.618143"><ele>1983.8</ele><time>2026-03-08T07:32:09.000Z</time></trkpt>
<trkpt lat="42.092527" lon="23.618143"><ele>1983.8</ele><time>2026-03-08T07:32:10.000Z</time></trkpt>
<trkpt lat="42.092536" lon="23.618142"><ele>1983.8</ele><time>2026-03-08T07:32:11.000Z</time></trkpt>
<trkpt lat="42.092545" lon="23.61814"><ele>1983.9</ele><time>2026-03-08T07:32:12.000Z</time></trkpt>
<trkpt lat="42.092553" lon="23.618138"><ele>1983.9</ele><time>2026-03-08T07:32:13.000Z</time></trkpt>
<trkpt lat="42.092561" lon="23.618135"><ele>1983.9</ele><time>2026-03-08T07:32:14.000Z</time></trkpt>
<trkpt lat="42.092568" lon="23.618132"><ele>1983.9</ele><time>2026-03-08T07:32:15.000Z</time></trkpt>
<trkpt lat="42.092576" lon="23.618129"><ele>1983.9</ele><time>2026-03-08T07:32:16.000Z</time></trkpt>
<trkpt lat="42.092585" lon="23.618126"><ele>1984.2</ele><time>2026-03-08T07:32:17.000Z</time></trkpt>
<trkpt lat="42.092595" lon="23.618122"><ele>1984.2</ele><time>2026-03-08T07:32:18.000Z</time></trkpt>
<trkpt lat="42.092606" lon="23.618118"><ele>1984.2</ele><time>2026-03-08T07:32:19.000Z</time></trkpt>
<trkpt lat="42.092616" lon="23.618114"><ele>1984.2</ele><time>2026-03-08T07:32:20.000Z</time></trkpt>
<trkpt lat="42.092627" lon="23.618109"><ele>1984.2</ele><time>2026-03-08T07:32:21.000Z</time></trkpt>
<trkpt lat="42.092637" lon="23.618105"><ele>1984.8</ele><time>2026-03-08T07:32:22.000Z</time></trkpt>
<trkpt lat="42.092646" lon="23.618099"><ele>1984.8</ele><time>2026-03-08T07:32:23.000Z</time></trkpt>
<trkpt lat="42.092655" lon="23.618094"><ele>1984.8</ele><time>2026-03-08T07:32:24.000Z</time></trkpt>
<trkpt lat="42.092664" lon="23.61809"><ele>1984.8</ele><time>2026-03-08T07:32:25.000Z</time></trkpt>
<trkpt lat="42.092672" lon="23.618086"><ele>1984.8</ele><time>2026-03-08T07:32:26.000Z</time></trkpt>
<trkpt lat="42.09268" lon="23.618084"><ele>1985.1</ele><time>2026-03-08T07:32:27.000Z</time></trkpt>
<trkpt lat="42.092689" lon="23.618082"><ele>1985.1</ele><time>2026-03-08T07:32:28.000Z</time></trkpt>
<trkpt lat="42.092697" lon="23.618082"><ele>1985.1</ele><time>2026-03-08T07:32:29.000Z</time></trkpt>
<trkpt lat="42.092704" lon="23.618082"><ele>1985.1</ele><time>2026-03-08T07:32:30.000Z</time></trkpt>
<trkpt lat="42.092713" lon="23.618081"><ele>1985.1</ele><time>2026-03-08T07:32:31.000Z</time></trkpt>
<trkpt lat="42.092721" lon="23.61808"><ele>1985.7</ele><time>2026-03-08T07:32:32.000Z</time></trkpt>
<trkpt lat="42.092728" lon="23.61808"><ele>1985.7</ele><time>2026-03-08T07:32:33.000Z</time></trkpt>
<trkpt lat="42.092736" lon="23.61808"><ele>1985.7</ele><time>2026-03-08T07:32:34.000Z</time></trkpt>
<trkpt lat="42.092745" lon="23.618079"><ele>1985.7</ele><time>2026-03-08T07:32:35.000Z</time></trkpt>
<trkpt lat="42.092755" lon="23.618079"><ele>1985.7</ele><time>2026-03-08T07:32:36.000Z</time></trkpt>
<trkpt lat="42.092765" lon="23.618079"><ele>1986.1</ele><time>2026-03-08T07:32:37.000Z</time></trkpt>
<trkpt lat="42.092775" lon="23.618077"><ele>1986.1</ele><time>2026-03-08T07:32:38.000Z</time></trkpt>
<trkpt lat="42.092785" lon="23.618075"><ele>1986.1</ele><time>2026-03-08T07:32:39.000Z</time></trkpt>
<trkpt lat="42.092795" lon="23.618073"><ele>1986.1</ele><time>2026-03-08T07:32:40.000Z</time></trkpt>
<trkpt lat="42.092804" lon="23.618071"><ele>1986.1</ele><time>2026-03-08T07:32:41.000Z</time></trkpt>
<trkpt lat="42.092813" lon="23.618068"><ele>1986.2</ele><time>2026-03-08T07:32:42.000Z</time></trkpt>
<trkpt lat="42.092822" lon="23.618066"><ele>1986.2</ele><time>2026-03-08T07:32:43.000Z</time></trkpt>
<trkpt lat="42.092831" lon="23.618065"><ele>1986.2</ele><time>2026-03-08T07:32:44.000Z</time></trkpt>
<trkpt lat="42.092839" lon="23.618063"><ele>1986.2</ele><time>2026-03-08T07:32:45.000Z</time></trkpt>
<trkpt lat="42.092848" lon="23.618061"><ele>1986.2</ele><time>2026-03-08T07:32:46.000Z</time></trkpt>
<trkpt lat="42.092856" lon="23.618058"><ele>1986.4</ele><time>2026-03-08T07:32:47.000Z</time></trkpt>
<trkpt lat="42.092865" lon="23.618053"><ele>1986.4</ele><time>2026-03-08T07:32:48.000Z</time></trkpt>
<trkpt lat="42.092874" lon="23.618047"><ele>1986.4</ele><time>2026-03-08T07:32:49.000Z</time></trkpt>
<trkpt lat="42.092882" lon="23.61804"><ele>1986.4</ele><time>2026-03-08T07:32:50.000Z</time></trkpt>
<trkpt lat="42.09289" lon="23.618033"><ele>1986.4</ele><time>2026-03-08T07:32:51.000Z</time></trkpt>
<trkpt lat="42.092897" lon="23.618027"><ele>1986.9</ele><time>2026-03-08T07:32:52.000Z</time></trkpt>
<trkpt lat="42.092903" lon="23.61802"><ele>1986.9</ele><time>2026-03-08T07:32:53.000Z</time></trkpt>
<trkpt lat="42.092909" lon="23.618014"><ele>1986.9</ele><time>2026-03-08T07:32:54.000Z</time></trkpt>
<trkpt lat="42.092914" lon="23.618008"><ele>1986.9</ele><time>2026-03-08T07:32:55.000Z</time></trkpt>
<trkpt lat="42.092918" lon="23.618001"><ele>1986.9</ele><time>2026-03-08T07:32:56.000Z</time></trkpt>
<trkpt lat="42.092921" lon="23.617995"><ele>1987.2</ele><time>2026-03-08T07:32:57.000Z</time></trkpt>
<trkpt lat="42.092924" lon="23.617988"><ele>1987.2</ele><time>2026-03-08T07:32:58.000Z</time></trkpt>
<trkpt lat="42.092927" lon="23.617982"><ele>1987.2</ele><time>2026-03-08T07:32:59.000Z</time></trkpt>
<trkpt lat="42.092931" lon="23.617975"><ele>1987.2</ele><time>2026-03-08T07:33:00.000Z</time></trkpt>
<trkpt lat="42.092937" lon="23.617969"><ele>1987.2</ele><time>2026-03-08T07:33:01.000Z</time></trkpt>
<trkpt lat="42.092944" lon="23.617963"><ele>1987.9</ele><time>2026-03-08T07:33:02.000Z</time></trkpt>
<trkpt lat="42.092951" lon="23.617958"><ele>1987.9</ele><time>2026-03-08T07:33:03.000Z</time></trkpt>
<trkpt lat="42.092957" lon="23.617953"><ele>1987.9</ele><time>2026-03-08T07:33:04.000Z</time></trkpt>
<trkpt lat="42.092963" lon="23.61795"><ele>1987.9</ele><time>2026-03-08T07:33:05.000Z</time></trkpt>
<trkpt lat="42.09297" lon="23.617947"><ele>1987.9</ele><time>2026-03-08T07:33:06.000Z</time></trkpt>
<trkpt lat="42.092976" lon="23.617946"><ele>1988.7</ele><time>2026-03-08T07:33:07.000Z</time></trkpt>
<trkpt lat="42.092983" lon="23.617946"><ele>1988.7</ele><time>2026-03-08T07:33:08.000Z</time></trkpt>
<trkpt lat="42.09299" lon="23.617949"><ele>1988.7</ele><time>2026-03-08T07:33:09.000Z</time></trkpt>
<trkpt lat="42.092998" lon="23.617951"><ele>1988.7</ele><time>2026-03-08T07:33:10.000Z</time></trkpt>
<trkpt lat="42.093004" lon="23.617956"><ele>1988.7</ele><time>2026-03-08T07:33:11.000Z</time></trkpt>
<trkpt lat="42.09301" lon="23.61796"><ele>1989.1</ele><time>2026-03-08T07:33:12.000Z</time></trkpt>
<trkpt lat="42.093016" lon="23.617966"><ele>1989.1</ele><time>2026-03-08T07:33:13.000Z</time></trkpt>
<trkpt lat="42.093022" lon="23.61797"><ele>1989.1</ele><time>2026-03-08T07:33:14.000Z</time></trkpt>
<trkpt lat="42.093028" lon="23.617974"><ele>1989.1</ele><time>2026-03-08T07:33:15.000Z</time></trkpt>
<trkpt lat="42.093034" lon="23.617977"><ele>1989.1</ele><time>2026-03-08T07:33:16.000Z</time></trkpt>
<trkpt lat="42.09304" lon="23.61798"><ele>1990.1</ele><time>2026-03-08T07:33:17.000Z</time></trkpt>
<trkpt lat="42.093045" lon="23.617983"><ele>1990.1</ele><time>2026-03-08T07:33:18.000Z</time></trkpt>
<trkpt lat="42.093051" lon="23.617985"><ele>1990.1</ele><time>2026-03-08T07:33:19.000Z</time></trkpt>
<trkpt lat="42.093056" lon="23.617988"><ele>1990.1</ele><time>2026-03-08T07:33:20.000Z</time></trkpt>
<trkpt lat="42.09306" lon="23.61799"><ele>1990.1</ele><time>2026-03-08T07:33:21.000Z</time></trkpt>
<trkpt lat="42.093066" lon="23.617993"><ele>1991.1</ele><time>2026-03-08T07:33:22.000Z</time></trkpt>
<trkpt lat="42.093072" lon="23.617995"><ele>1991.1</ele><time>2026-03-08T07:33:23.000Z</time></trkpt>
<trkpt lat="42.093078" lon="23.617997"><ele>1991.1</ele><time>2026-03-08T07:33:24.000Z</time></trkpt>
<trkpt lat="42.093085" lon="23.617997"><ele>1991.1</ele><time>2026-03-08T07:33:25.000Z</time></trkpt>
<trkpt lat="42.093093" lon="23.617997"><ele>1991.1</ele><time>2026-03-08T07:33:26.000Z</time></trkpt>
<trkpt lat="42.093101" lon="23.617996"><ele>1991.7</ele><time>2026-03-08T07:33:27.000Z</time></trkpt>
<trkpt lat="42.093109" lon="23.617994"><ele>1991.7</ele><time>2026-03-08T07:33:28.000Z</time></trkpt>
<trkpt lat="42.093118" lon="23.617991"><ele>1991.7</ele><time>2026-03-08T07:33:29.000Z</time></trkpt>
<trkpt lat="42.093127" lon="23.617988"><ele>1991.7</ele><time>2026-03-08T07:33:30.000Z</time></trkpt>
<trkpt lat="42.093135" lon="23.617984"><ele>1991.7</ele><time>2026-03-08T07:33:31.000Z</time></trkpt>
<trkpt lat="42.093144" lon="23.61798"><ele>1992.8</ele><time>2026-03-08T07:33:32.000Z</time></trkpt>
<trkpt lat="42.093155" lon="23.617976"><ele>1992.8</ele><time>2026-03-08T07:33:33.000Z</time></trkpt>
<trkpt lat="42.093167" lon="23.617973"><ele>1992.8</ele><time>2026-03-08T07:33:34.000Z</time></trkpt>
<trkpt lat="42.093177" lon="23.617972"><ele>1992.8</ele><time>2026-03-08T07:33:35.000Z</time></trkpt>
<trkpt lat="42.093187" lon="23.617973"><ele>1992.8</ele><time>2026-03-08T07:33:36.000Z</time></trkpt>
<trkpt lat="42.093197" lon="23.617974"><ele>1993.6</ele><time>2026-03-08T07:33:37.000Z</time></trkpt>
<trkpt lat="42.093205" lon="23.617977"><ele>1993.6</ele><time>2026-03-08T07:33:38.000Z</time></trkpt>
<trkpt lat="42.093212" lon="23.617979"><ele>1993.6</ele><time>2026-03-08T07:33:39.000Z</time></trkpt>
<trkpt lat="42.09322" lon="23.617982"><ele>1993.6</ele><time>2026-03-08T07:33:40.000Z</time></trkpt>
<trkpt lat="42.093228" lon="23.617984"><ele>1993.6</ele><time>2026-03-08T07:33:41.000Z</time></trkpt>
<trkpt lat="42.093236" lon="23.617986"><ele>1994</ele><time>2026-03-08T07:33:42.000Z</time></trkpt>
<trkpt lat="42.093243" lon="23.617987"><ele>1994</ele><time>2026-03-08T07:33:43.000Z</time></trkpt>
<trkpt lat="42.093251" lon="23.617988"><ele>1994</ele><time>2026-03-08T07:33:44.000Z</time></trkpt>
<trkpt lat="42.093258" lon="23.617988"><ele>1994</ele><time>2026-03-08T07:33:45.000Z</time></trkpt>
<trkpt lat="42.093263" lon="23.617987"><ele>1994</ele><time>2026-03-08T07:33:46.000Z</time></trkpt>
<trkpt lat="42.093269" lon="23.617985"><ele>1994.8</ele><time>2026-03-08T07:33:47.000Z</time></trkpt>
<trkpt lat="42.093276" lon="23.617981"><ele>1994.8</ele><time>2026-03-08T07:33:48.000Z</time></trkpt>
<trkpt lat="42.093281" lon="23.617978"><ele>1994.8</ele><time>2026-03-08T07:33:49.000Z</time></trkpt>
<trkpt lat="42.093288" lon="23.617973"><ele>1994.8</ele><time>2026-03-08T07:33:50.000Z</time></trkpt>
<trkpt lat="42.093295" lon="23.617967"><ele>1994.8</ele><time>2026-03-08T07:33:51.000Z</time></trkpt>
<trkpt lat="42.093301" lon="23.617962"><ele>1995.6</ele><time>2026-03-08T07:33:52.000Z</time></trkpt>
<trkpt lat="42.093308" lon="23.617956"><ele>1995.6</ele><time>2026-03-08T07:33:53.000Z</time></trkpt>
<trkpt lat="42.093314" lon="23.617951"><ele>1995.6</ele><time>2026-03-08T07:33:54.000Z</time></trkpt>
<trkpt lat="42.093321" lon="23.617946"><ele>1995.6</ele><time>2026-03-08T07:33:55.000Z</time></trkpt>
<trkpt lat="42.093327" lon="23.617942"><ele>1995.6</ele><time>2026-03-08T07:33:56.000Z</time></trkpt>
<trkpt lat="42.093334" lon="23.617938"><ele>1996.1</ele><time>2026-03-08T07:33:57.000Z</time></trkpt>
<trkpt lat="42.093339" lon="23.617936"><ele>1996.1</ele><time>2026-03-08T07:33:58.000Z</time></trkpt>
<trkpt lat="42.093342" lon="23.617935"><ele>1996.1</ele><time>2026-03-08T07:33:59.000Z</time></trkpt>
<trkpt lat="42.093344" lon="23.617934"><ele>1996.1</ele><time>2026-03-08T07:34:00.000Z</time></trkpt>
<trkpt lat="42.093346" lon="23.617933"><ele>1996.1</ele><time>2026-03-08T07:34:01.000Z</time></trkpt>
<trkpt lat="42.093346" lon="23.617932"><ele>1997.1</ele><time>2026-03-08T07:34:02.000Z</time></trkpt>
<trkpt lat="42.093348" lon="23.617931"><ele>1997.1</ele><time>2026-03-08T07:34:03.000Z</time></trkpt>
<trkpt lat="42.093352" lon="23.617928"><ele>1997.1</ele><time>2026-03-08T07:34:04.000Z</time></trkpt>
<trkpt lat="42.093357" lon="23.617924"><ele>1997.1</ele><time>2026-03-08T07:34:05.000Z</time></trkpt>
<trkpt lat="42.093362" lon="23.61792"><ele>1997.1</ele><time>2026-03-08T07:34:06.000Z</time></trkpt>
<trkpt lat="42.093369" lon="23.617915"><ele>1998</ele><time>2026-03-08T07:34:07.000Z</time></trkpt>
<trkpt lat="42.093376" lon="23.617909"><ele>1998</ele><time>2026-03-08T07:34:08.000Z</time></trkpt>
<trkpt lat="42.093382" lon="23.617903"><ele>1998</ele><time>2026-03-08T07:34:09.000Z</time></trkpt>
<trkpt lat="42.093389" lon="23.617897"><ele>1998</ele><time>2026-03-08T07:34:10.000Z</time></trkpt>
<trkpt lat="42.093397" lon="23.617892"><ele>1998</ele><time>2026-03-08T07:34:11.000Z</time></trkpt>
<trkpt lat="42.093404" lon="23.617887"><ele>1998.4</ele><time>2026-03-08T07:34:12.000Z</time></trkpt>
<trkpt lat="42.093412" lon="23.617883"><ele>1998.4</ele><time>2026-03-08T07:34:13.000Z</time></trkpt>
<trkpt lat="42.093419" lon="23.617879"><ele>1998.4</ele><time>2026-03-08T07:34:14.000Z</time></trkpt>
<trkpt lat="42.093426" lon="23.617876"><ele>1998.4</ele><time>2026-03-08T07:34:15.000Z</time></trkpt>
<trkpt lat="42.093433" lon="23.617872"><ele>1998.4</ele><time>2026-03-08T07:34:16.000Z</time></trkpt>
<trkpt lat="42.09344" lon="23.617867"><ele>1999</ele><time>2026-03-08T07:34:17.000Z</time></trkpt>
<trkpt lat="42.093446" lon="23.617862"><ele>1999</ele><time>2026-03-08T07:34:18.000Z</time></trkpt>
<trkpt lat="42.093452" lon="23.617857"><ele>1999</ele><time>2026-03-08T07:34:19.000Z</time></trkpt>
<trkpt lat="42.093459" lon="23.617852"><ele>1999</ele><time>2026-03-08T07:34:20.000Z</time></trkpt>
<trkpt lat="42.093467" lon="23.617848"><ele>1999</ele><time>2026-03-08T07:34:21.000Z</time></trkpt>
<trkpt lat="42.093475" lon="23.617843"><ele>1999.6</ele><time>2026-03-08T07:34:22.000Z</time></trkpt>
<trkpt lat="42.093483" lon="23.617839"><ele>1999.6</ele><time>2026-03-08T07:34:23.000Z</time></trkpt>
<trkpt lat="42.09349" lon="23.617834"><ele>1999.6</ele><time>2026-03-08T07:34:24.000Z</time></trkpt>
<trkpt lat="42.093498" lon="23.617829"><ele>1999.6</ele><time>2026-03-08T07:34:25.000Z</time></trkpt>
<trkpt lat="42.093505" lon="23.617824"><ele>1999.6</ele><time>2026-03-08T07:34:26.000Z</time></trkpt>
<trkpt lat="42.093512" lon="23.61782"><ele>2000</ele><time>2026-03-08T07:34:27.000Z</time></trkpt>
<trkpt lat="42.093518" lon="23.617814"><ele>2000</ele><time>2026-03-08T07:34:28.000Z</time></trkpt>
<trkpt lat="42.093525" lon="23.617808"><ele>2000</ele><time>2026-03-08T07:34:29.000Z</time></trkpt>
<trkpt lat="42.093532" lon="23.617802"><ele>2000</ele><time>2026-03-08T07:34:30.000Z</time></trkpt>
<trkpt lat="42.093539" lon="23.617795"><ele>2000</ele><time>2026-03-08T07:34:31.000Z</time></trkpt>
<trkpt lat="42.093547" lon="23.617788"><ele>2001.1</ele><time>2026-03-08T07:34:32.000Z</time></trkpt>
<trkpt lat="42.093555" lon="23.617782"><ele>2001.1</ele><time>2026-03-08T07:34:33.000Z</time></trkpt>
<trkpt lat="42.093562" lon="23.617777"><ele>2001.1</ele><time>2026-03-08T07:34:34.000Z</time></trkpt>
<trkpt lat="42.09357" lon="23.617772"><ele>2001.1</ele><time>2026-03-08T07:34:35.000Z</time></trkpt>
<trkpt lat="42.093577" lon="23.617768"><ele>2001.1</ele><time>2026-03-08T07:34:36.000Z</time></trkpt>
<trkpt lat="42.093583" lon="23.617763"><ele>2002.5</ele><time>2026-03-08T07:34:37.000Z</time></trkpt>
<trkpt lat="42.093588" lon="23.617757"><ele>2002.5</ele><time>2026-03-08T07:34:38.000Z</time></trkpt>
<trkpt lat="42.093594" lon="23.61775"><ele>2002.5</ele><time>2026-03-08T07:34:39.000Z</time></trkpt>
<trkpt lat="42.093598" lon="23.617745"><ele>2002.5</ele><time>2026-03-08T07:34:40.000Z</time></trkpt>
<trkpt lat="42.093603" lon="23.617739"><ele>2002.5</ele><time>2026-03-08T07:34:41.000Z</time></trkpt>
<trkpt lat="42.093608" lon="23.617733"><ele>2003.2</ele><time>2026-03-08T07:34:42.000Z</time></trkpt>
<trkpt lat="42.093613" lon="23.617729"><ele>2003.2</ele><time>2026-03-08T07:34:43.000Z</time></trkpt>
<trkpt lat="42.093617" lon="23.617724"><ele>2003.2</ele><time>2026-03-08T07:34:44.000Z</time></trkpt>
<trkpt lat="42.093622" lon="23.61772"><ele>2003.2</ele><time>2026-03-08T07:34:45.000Z</time></trkpt>
<trkpt lat="42.093627" lon="23.617716"><ele>2003.2</ele><time>2026-03-08T07:34:46.000Z</time></trkpt>
<trkpt lat="42.093632" lon="23.617713"><ele>2004.6</ele><time>2026-03-08T07:34:47.000Z</time></trkpt>
<trkpt lat="42.093637" lon="23.617709"><ele>2004.6</ele><time>2026-03-08T07:34:48.000Z</time></trkpt>
<trkpt lat="42.093643" lon="23.617705"><ele>2004.6</ele><time>2026-03-08T07:34:49.000Z</time></trkpt>
<trkpt lat="42.093648" lon="23.6177"><ele>2004.6</ele><time>2026-03-08T07:34:50.000Z</time></trkpt>
<trkpt lat="42.093655" lon="23.617695"><ele>2004.6</ele><time>2026-03-08T07:34:51.000Z</time></trkpt>
<trkpt lat="42.09366" lon="23.617691"><ele>2005.5</ele><time>2026-03-08T07:34:52.000Z</time></trkpt>
<trkpt lat="42.093665" lon="23.617687"><ele>2005.5</ele><time>2026-03-08T07:34:53.000Z</time></trkpt>
<trkpt lat="42.093671" lon="23.617684"><ele>2005.5</ele><time>2026-03-08T07:34:54.000Z</time></trkpt>
<trkpt lat="42.093676" lon="23.61768"><ele>2005.5</ele><time>2026-03-08T07:34:55.000Z</time></trkpt>
<trkpt lat="42.09368" lon="23.617676"><ele>2005.5</ele><time>2026-03-08T07:34:56.000Z</time></trkpt>
<trkpt lat="42.093684" lon="23.617672"><ele>2005.9</ele><time>2026-03-08T07:34:57.000Z</time></trkpt>
<trkpt lat="42.093688" lon="23.617668"><ele>2005.9</ele><time>2026-03-08T07:34:58.000Z</time></trkpt>
<trkpt lat="42.093689" lon="23.617666"><ele>2005.9</ele><time>2026-03-08T07:34:59.000Z</time></trkpt>
<trkpt lat="42.093691" lon="23.617666"><ele>2005.9</ele><time>2026-03-08T07:35:00.000Z</time></trkpt>
<trkpt lat="42.093692" lon="23.617666"><ele>2005.9</ele><time>2026-03-08T07:35:01.000Z</time></trkpt>
<trkpt lat="42.093692" lon="23.617666"><ele>2006.5</ele><time>2026-03-08T07:35:02.000Z</time></trkpt>
<trkpt lat="42.093694" lon="23.617665"><ele>2006.5</ele><time>2026-03-08T07:35:03.000Z</time></trkpt>
<trkpt lat="42.093697" lon="23.617662"><ele>2006.5</ele><time>2026-03-08T07:35:04.000Z</time></trkpt>
<trkpt lat="42.093701" lon="23.617659"><ele>2006.5</ele><time>2026-03-08T07:35:05.000Z</time></trkpt>
<trkpt lat="42.093706" lon="23.617655"><ele>2006.5</ele><time>2026-03-08T07:35:06.000Z</time></trkpt>
<trkpt lat="42.093714" lon="23.617651"><ele>2007</ele><time>2026-03-08T07:35:07.000Z</time></trkpt>
<trkpt lat="42.093723" lon="23.617648"><ele>2007</ele><time>2026-03-08T07:35:08.000Z</time></trkpt>
<trkpt lat="42.093731" lon="23.617644"><ele>2007</ele><time>2026-03-08T07:35:09.000Z</time></trkpt>
<trkpt lat="42.093739" lon="23.61764"><ele>2007</ele><time>2026-03-08T07:35:10.000Z</time></trkpt>
<trkpt lat="42.093747" lon="23.617635"><ele>2007</ele><time>2026-03-08T07:35:11.000Z</time></trkpt>
<trkpt lat="42.093755" lon="23.617631"><ele>2007.2</ele><time>2026-03-08T07:35:12.000Z</time></trkpt>
<trkpt lat="42.093764" lon="23.617627"><ele>2007.2</ele><time>2026-03-08T07:35:13.000Z</time></trkpt>
<trkpt lat="42.093773" lon="23.617624"><ele>2007.2</ele><time>2026-03-08T07:35:14.000Z</time></trkpt>
<trkpt lat="42.093784" lon="23.617621"><ele>2007.2</ele><time>2026-03-08T07:35:15.000Z</time></trkpt>
<trkpt lat="42.093794" lon="23.617619"><ele>2007.2</ele><time>2026-03-08T07:35:16.000Z</time></trkpt>
<trkpt lat="42.093804" lon="23.617616"><ele>2007.6</ele><time>2026-03-08T07:35:17.000Z</time></trkpt>
<trkpt lat="42.093813" lon="23.617613"><ele>2007.6</ele><time>2026-03-08T07:35:18.000Z</time></trkpt>
<trkpt lat="42.093822" lon="23.61761"><ele>2007.6</ele><time>2026-03-08T07:35:19.000Z</time></trkpt>
<trkpt lat="42.093831" lon="23.617606"><ele>2007.6</ele><time>2026-03-08T07:35:20.000Z</time></trkpt>
<trkpt lat="42.093838" lon="23.617602"><ele>2007.6</ele><time>2026-03-08T07:35:21.000Z</time></trkpt>
<trkpt lat="42.093846" lon="23.617597"><ele>2008.1</ele><time>2026-03-08T07:35:22.000Z</time></trkpt>
<trkpt lat="42.093851" lon="23.617593"><ele>2008.1</ele><time>2026-03-08T07:35:23.000Z</time></trkpt>
<trkpt lat="42.093856" lon="23.617589"><ele>2008.1</ele><time>2026-03-08T07:35:24.000Z</time></trkpt>
<trkpt lat="42.093859" lon="23.617586"><ele>2008.1</ele><time>2026-03-08T07:35:25.000Z</time></trkpt>
<trkpt lat="42.093861" lon="23.617584"><ele>2008.1</ele><time>2026-03-08T07:35:26.000Z</time></trkpt>
<trkpt lat="42.093862" lon="23.617584"><ele>2008.4</ele><time>2026-03-08T07:35:27.000Z</time></trkpt>
<trkpt lat="42.093863" lon="23.617583"><ele>2008.4</ele><time>2026-03-08T07:35:28.000Z</time></trkpt>
<trkpt lat="42.093864" lon="23.617584"><ele>2008.4</ele><time>2026-03-08T07:35:29.000Z</time></trkpt>
<trkpt lat="42.093865" lon="23.617584"><ele>2008.4</ele><time>2026-03-08T07:35:30.000Z</time></trkpt>
<trkpt lat="42.093866" lon="23.617583"><ele>2008.4</ele><time>2026-03-08T07:35:31.000Z</time></trkpt>
<trkpt lat="42.093869" lon="23.617581"><ele>2009</ele><time>2026-03-08T07:35:32.000Z</time></trkpt>
<trkpt lat="42.093873" lon="23.617576"><ele>2009</ele><time>2026-03-08T07:35:33.000Z</time></trkpt>
<trkpt lat="42.09388" lon="23.61757"><ele>2009</ele><time>2026-03-08T07:35:34.000Z</time></trkpt>
<trkpt lat="42.093887" lon="23.617564"><ele>2009</ele><time>2026-03-08T07:35:35.000Z</time></trkpt>
<trkpt lat="42.093894" lon="23.617558"><ele>2009</ele><time>2026-03-08T07:35:36.000Z</time></trkpt>
<trkpt lat="42.0939" lon="23.617554"><ele>2009.4</ele><time>2026-03-08T07:35:37.000Z</time></trkpt>
<trkpt lat="42.093904" lon="23.617551"><ele>2009.4</ele><time>2026-03-08T07:35:38.000Z</time></trkpt>
<trkpt lat="42.093906" lon="23.61755"><ele>2009.4</ele><time>2026-03-08T07:35:39.000Z</time></trkpt>
<trkpt lat="42.093906" lon="23.617549"><ele>2009.4</ele><time>2026-03-08T07:35:40.000Z</time></trkpt>
<trkpt lat="42.093906" lon="23.617548"><ele>2009.4</ele><time>2026-03-08T07:35:41.000Z</time></trkpt>
<trkpt lat="42.093905" lon="23.617548"><ele>2009.6</ele><time>2026-03-08T07:35:42.000Z</time></trkpt>
<trkpt lat="42.093905" lon="23.617548"><ele>2009.6</ele><time>2026-03-08T07:35:43.000Z</time></trkpt>
<trkpt lat="42.093905" lon="23.617548"><ele>2009.6</ele><time>2026-03-08T07:35:44.000Z</time></trkpt>
<trkpt lat="42.093904" lon="23.617548"><ele>2009.6</ele><time>2026-03-08T07:35:45.000Z</time></trkpt>
<trkpt lat="42.093904" lon="23.617548"><ele>2009.6</ele><time>2026-03-08T07:35:46.000Z</time></trkpt>
<trkpt lat="42.093905" lon="23.617548"><ele>2010.1</ele><time>2026-03-08T07:35:47.000Z</time></trkpt>
<trkpt lat="42.093905" lon="23.617548"><ele>2010.1</ele><time>2026-03-08T07:35:48.000Z</time></trkpt>
<trkpt lat="42.093905" lon="23.617547"><ele>2010.1</ele><time>2026-03-08T07:35:49.000Z</time></trkpt>
<trkpt lat="42.093906" lon="23.617546"><ele>2010.1</ele><time>2026-03-08T07:35:50.000Z</time></trkpt>
<trkpt lat="42.093906" lon="23.617546"><ele>2010.1</ele><time>2026-03-08T07:35:51.000Z</time></trkpt>
<trkpt lat="42.093906" lon="23.617545"><ele>2010.4</ele><time>2026-03-08T07:35:52.000Z</time></trkpt>
<trkpt lat="42.093906" lon="23.617545"><ele>2010.4</ele><time>2026-03-08T07:35:53.000Z</time></trkpt>
<trkpt lat="42.093906" lon="23.617545"><ele>2010.4</ele><time>2026-03-08T07:35:54.000Z</time></trkpt>
<trkpt lat="42.093906" lon="23.617545"><ele>2010.4</ele><time>2026-03-08T07:35:55.000Z</time></trkpt>
<trkpt lat="42.093906" lon="23.617545"><ele>2010.4</ele><time>2026-03-08T07:35:56.000Z</time></trkpt>
<trkpt lat="42.093906" lon="23.617545"><ele>2010.5</ele><time>2026-03-08T07:35:57.000Z</time></trkpt>
<trkpt lat="42.093906" lon="23.617545"><ele>2010.5</ele><time>2026-03-08T07:35:58.000Z</time></trkpt>
<trkpt lat="42.093906" lon="23.617545"><ele>2010.5</ele><time>2026-03-08T07:35:59.000Z</time></trkpt>
<trkpt lat="42.093906" lon="23.617544"><ele>2010.5</ele><time>2026-03-08T07:36:00.000Z</time></trkpt>
<trkpt lat="42.093906" lon="23.617544"><ele>2010.5</ele><time>2026-03-08T07:36:01.000Z</time></trkpt>
<trkpt lat="42.093906" lon="23.617544"><ele>2010.5</ele><time>2026-03-08T07:36:02.000Z</time></trkpt>
<trkpt lat="42.093906" lon="23.617544"><ele>2010.5</ele><time>2026-03-08T07:36:03.000Z</time></trkpt>
<trkpt lat="42.093906" lon="23.617543"><ele>2010.5</ele><time>2026-03-08T07:36:04.000Z</time></trkpt>
<trkpt lat="42.093906" lon="23.617543"><ele>2010.5</ele><time>2026-03-08T07:36:05.000Z</time></trkpt>
<trkpt lat="42.093906" lon="23.617543"><ele>2010.5</ele><time>2026-03-08T07:36:06.000Z</time></trkpt>
<trkpt lat="42.093906" lon="23.617543"><ele>2010.6</ele><time>2026-03-08T07:36:07.000Z</time></trkpt>
<trkpt lat="42.093906" lon="23.617543"><ele>2010.6</ele><time>2026-03-08T07:36:08.000Z</time></trkpt>
<trkpt lat="42.093906" lon="23.617543"><ele>2010.6</ele><time>2026-03-08T07:36:09.000Z</time></trkpt>
<trkpt lat="42.093906" lon="23.617543"><ele>2010.6</ele><time>2026-03-08T07:36:10.000Z</time></trkpt>
<trkpt lat="42.093906" lon="23.617542"><ele>2010.6</ele><time>2026-03-08T07:36:11.000Z</time></trkpt>
<trkpt lat="42.093906" lon="23.617542"><ele>2010.6</ele><time>2026-03-08T07:36:12.000Z</time></trkpt>
<trkpt lat="42.093906" lon="23.617542"><ele>2010.6</ele><time>2026-03-08T07:36:13.000Z</time></trkpt>
<trkpt lat="42.093906" lon="23.617542"><ele>2010.6</ele><time>2026-03-08T07:36:14.000Z</time></trkpt>
<trkpt lat="42.093906" lon="23.617542"><ele>2010.6</ele><time>2026-03-08T07:36:15.000Z</time></trkpt>
<trkpt lat="42.093906" lon="23.617542"><ele>2010.6</ele><time>2026-03-08T07:36:16.000Z</time></trkpt>
<trkpt lat="42.093906" lon="23.617541"><ele>2010.5</ele><time>2026-03-08T07:36:17.000Z</time></trkpt>
<trkpt lat="42.093906" lon="23.617541"><ele>2010.5</ele><time>2026-03-08T07:36:18.000Z</time></trkpt>
<trkpt lat="42.093907" lon="23.617541"><ele>2010.5</ele><time>2026-03-08T07:36:19.000Z</time></trkpt>
<trkpt lat="42.093907" lon="23.617541"><ele>2010.5</ele><time>2026-03-08T07:36:20.000Z</time></trkpt>
<trkpt lat="42.093906" lon="23.617542"><ele>2010.5</ele><time>2026-03-08T07:36:21.000Z</time></trkpt>
<trkpt lat="42.093906" lon="23.617542"><ele>2010.5</ele><time>2026-03-08T07:36:22.000Z</time></trkpt>
<trkpt lat="42.093906" lon="23.617542"><ele>2010.5</ele><time>2026-03-08T07:36:23.000Z</time></trkpt>
<trkpt lat="42.093906" lon="23.617542"><ele>2010.5</ele><time>2026-03-08T07:36:24.000Z</time></trkpt>
<trkpt lat="42.093906" lon="23.617542"><ele>2010.5</ele><time>2026-03-08T07:36:25.000Z</time></trkpt>
<trkpt lat="42.093906" lon="23.617542"><ele>2010.5</ele><time>2026-03-08T07:36:26.000Z</time></trkpt>
<trkpt lat="42.093906" lon="23.617542"><ele>2010.5</ele><time>2026-03-08T07:36:27.000Z</time></trkpt>
<trkpt lat="42.093906" lon="23.617543"><ele>2010.5</ele><time>2026-03-08T07:36:28.000Z</time></trkpt>
<trkpt lat="42.093906" lon="23.617543"><ele>2010.5</ele><time>2026-03-08T07:36:29.000Z</time></trkpt>
<trkpt lat="42.093906" lon="23.617544"><ele>2010.5</ele><time>2026-03-08T07:36:30.000Z</time></trkpt>
<trkpt lat="42.093905" lon="23.617545"><ele>2010.5</ele><time>2026-03-08T07:36:31.000Z</time></trkpt>
<trkpt lat="42.093904" lon="23.617546"><ele>2010.8</ele><time>2026-03-08T07:36:32.000Z</time></trkpt>
<trkpt lat="42.093904" lon="23.617547"><ele>2010.8</ele><time>2026-03-08T07:36:33.000Z</time></trkpt>
<trkpt lat="42.093903" lon="23.617548"><ele>2010.8</ele><time>2026-03-08T07:36:34.000Z</time></trkpt>
<trkpt lat="42.093903" lon="23.617549"><ele>2010.8</ele><time>2026-03-08T07:36:35.000Z</time></trkpt>
<trkpt lat="42.093903" lon="23.617549"><ele>2010.8</ele><time>2026-03-08T07:36:36.000Z</time></trkpt>
<trkpt lat="42.093903" lon="23.61755"><ele>2011.2</ele><time>2026-03-08T07:36:37.000Z</time></trkpt>
<trkpt lat="42.093903" lon="23.61755"><ele>2011.2</ele><time>2026-03-08T07:36:38.000Z</time></trkpt>
<trkpt lat="42.093903" lon="23.617549"><ele>2011.2</ele><time>2026-03-08T07:36:39.000Z</time></trkpt>
<trkpt lat="42.093903" lon="23.617548"><ele>2011.2</ele><time>2026-03-08T07:36:40.000Z</time></trkpt>
<trkpt lat="42.093902" lon="23.617548"><ele>2011.2</ele><time>2026-03-08T07:36:41.000Z</time></trkpt>
<trkpt lat="42.093903" lon="23.617548"><ele>2011.3</ele><time>2026-03-08T07:36:42.000Z</time></trkpt>
<trkpt lat="42.093903" lon="23.617548"><ele>2011.3</ele><time>2026-03-08T07:36:43.000Z</time></trkpt>
<trkpt lat="42.093904" lon="23.617548"><ele>2011.3</ele><time>2026-03-08T07:36:44.000Z</time></trkpt>
<trkpt lat="42.093904" lon="23.617549"><ele>2011.3</ele><time>2026-03-08T07:36:45.000Z</time></trkpt>
<trkpt lat="42.093905" lon="23.617549"><ele>2011.3</ele><time>2026-03-08T07:36:46.000Z</time></trkpt>
<trkpt lat="42.093905" lon="23.617549"><ele>2011.2</ele><time>2026-03-08T07:36:47.000Z</time></trkpt>
<trkpt lat="42.093905" lon="23.617549"><ele>2011.2</ele><time>2026-03-08T07:36:48.000Z</time></trkpt>
<trkpt lat="42.093905" lon="23.617549"><ele>2011.2</ele><time>2026-03-08T07:36:49.000Z</time></trkpt>
<trkpt lat="42.093905" lon="23.617549"><ele>2011.2</ele><time>2026-03-08T07:36:50.000Z</time></trkpt>
<trkpt lat="42.093905" lon="23.617549"><ele>2011.2</ele><time>2026-03-08T07:36:51.000Z</time></trkpt>
<trkpt lat="42.093905" lon="23.61755"><ele>2011.2</ele><time>2026-03-08T07:36:52.000Z</time></trkpt>
<trkpt lat="42.093905" lon="23.61755"><ele>2011.2</ele><time>2026-03-08T07:36:53.000Z</time></trkpt>
<trkpt lat="42.093904" lon="23.61755"><ele>2011.2</ele><time>2026-03-08T07:36:54.000Z</time></trkpt>
<trkpt lat="42.093904" lon="23.61755"><ele>2011.2</ele><time>2026-03-08T07:36:55.000Z</time></trkpt>
<trkpt lat="42.093903" lon="23.61755"><ele>2011.2</ele><time>2026-03-08T07:36:56.000Z</time></trkpt>
<trkpt lat="42.093903" lon="23.61755"><ele>2011.2</ele><time>2026-03-08T07:36:57.000Z</time></trkpt>
<trkpt lat="42.093903" lon="23.61755"><ele>2011.2</ele><time>2026-03-08T07:36:58.000Z</time></trkpt>
<trkpt lat="42.093903" lon="23.61755"><ele>2011.2</ele><time>2026-03-08T07:36:59.000Z</time></trkpt>
<trkpt lat="42.093903" lon="23.61755"><ele>2011.2</ele><time>2026-03-08T07:37:00.000Z</time></trkpt>
<trkpt lat="42.093903" lon="23.61755"><ele>2011.2</ele><time>2026-03-08T07:37:01.000Z</time></trkpt>
<trkpt lat="42.093903" lon="23.61755"><ele>2011.3</ele><time>2026-03-08T07:37:02.000Z</time></trkpt>
<trkpt lat="42.093903" lon="23.61755"><ele>2011.3</ele><time>2026-03-08T07:37:03.000Z</time></trkpt>
<trkpt lat="42.093903" lon="23.61755"><ele>2011.3</ele><time>2026-03-08T07:37:04.000Z</time></trkpt>
<trkpt lat="42.093903" lon="23.61755"><ele>2011.3</ele><time>2026-03-08T07:37:05.000Z</time></trkpt>
<trkpt lat="42.093903" lon="23.617551"><ele>2011.3</ele><time>2026-03-08T07:37:06.000Z</time></trkpt>
<trkpt lat="42.093903" lon="23.617551"><ele>2011.3</ele><time>2026-03-08T07:37:07.000Z</time></trkpt>
<trkpt lat="42.093902" lon="23.617552"><ele>2011.3</ele><time>2026-03-08T07:37:08.000Z</time></trkpt>
<trkpt lat="42.093902" lon="23.617552"><ele>2011.3</ele><time>2026-03-08T07:37:09.000Z</time></trkpt>
<trkpt lat="42.093902" lon="23.617553"><ele>2011.3</ele><time>2026-03-08T07:37:10.000Z</time></trkpt>
<trkpt lat="42.093902" lon="23.617553"><ele>2011.3</ele><time>2026-03-08T07:37:11.000Z</time></trkpt>
<trkpt lat="42.093902" lon="23.617553"><ele>2011.2</ele><time>2026-03-08T07:37:12.000Z</time></trkpt>
<trkpt lat="42.093902" lon="23.617553"><ele>2011.2</ele><time>2026-03-08T07:37:13.000Z</time></trkpt>
<trkpt lat="42.093902" lon="23.617553"><ele>2011.2</ele><time>2026-03-08T07:37:14.000Z</time></trkpt>
<trkpt lat="42.093902" lon="23.617553"><ele>2011.2</ele><time>2026-03-08T07:37:15.000Z</time></trkpt>
<trkpt lat="42.093902" lon="23.617553"><ele>2011.2</ele><time>2026-03-08T07:37:16.000Z</time></trkpt>
<trkpt lat="42.093902" lon="23.617553"><ele>2011.2</ele><time>2026-03-08T07:37:17.000Z</time></trkpt>
<trkpt lat="42.093902" lon="23.617552"><ele>2011.2</ele><time>2026-03-08T07:37:18.000Z</time></trkpt>
<trkpt lat="42.093902" lon="23.617552"><ele>2011.2</ele><time>2026-03-08T07:37:19.000Z</time></trkpt>
<trkpt lat="42.093902" lon="23.617551"><ele>2011.2</ele><time>2026-03-08T07:37:20.000Z</time></trkpt>
<trkpt lat="42.093902" lon="23.61755"><ele>2011.2</ele><time>2026-03-08T07:37:21.000Z</time></trkpt>
<trkpt lat="42.093902" lon="23.61755"><ele>2011.3</ele><time>2026-03-08T07:37:22.000Z</time></trkpt>
<trkpt lat="42.093902" lon="23.61755"><ele>2011.3</ele><time>2026-03-08T07:37:23.000Z</time></trkpt>
<trkpt lat="42.093902" lon="23.61755"><ele>2011.3</ele><time>2026-03-08T07:37:24.000Z</time></trkpt>
<trkpt lat="42.093902" lon="23.617549"><ele>2011.3</ele><time>2026-03-08T07:37:25.000Z</time></trkpt>
<trkpt lat="42.093903" lon="23.617548"><ele>2011.3</ele><time>2026-03-08T07:37:26.000Z</time></trkpt>
<trkpt lat="42.093904" lon="23.617547"><ele>2011.4</ele><time>2026-03-08T07:37:27.000Z</time></trkpt>
<trkpt lat="42.093904" lon="23.617545"><ele>2011.4</ele><time>2026-03-08T07:37:28.000Z</time></trkpt>
<trkpt lat="42.093905" lon="23.617545"><ele>2011.4</ele><time>2026-03-08T07:37:29.000Z</time></trkpt>
<trkpt lat="42.093905" lon="23.617544"><ele>2011.4</ele><time>2026-03-08T07:37:30.000Z</time></trkpt>
<trkpt lat="42.093905" lon="23.617544"><ele>2011.4</ele><time>2026-03-08T07:37:31.000Z</time></trkpt>
<trkpt lat="42.093905" lon="23.617544"><ele>2011.4</ele><time>2026-03-08T07:37:32.000Z</time></trkpt>
<trkpt lat="42.093907" lon="23.617543"><ele>2011.4</ele><time>2026-03-08T07:37:33.000Z</time></trkpt>
<trkpt lat="42.093908" lon="23.617542"><ele>2011.4</ele><time>2026-03-08T07:37:34.000Z</time></trkpt>
<trkpt lat="42.093911" lon="23.617541"><ele>2011.4</ele><time>2026-03-08T07:37:35.000Z</time></trkpt>
<trkpt lat="42.093916" lon="23.61754"><ele>2011.4</ele><time>2026-03-08T07:37:36.000Z</time></trkpt>
<trkpt lat="42.093921" lon="23.61754"><ele>2011.5</ele><time>2026-03-08T07:37:37.000Z</time></trkpt>
<trkpt lat="42.093926" lon="23.617542"><ele>2011.5</ele><time>2026-03-08T07:37:38.000Z</time></trkpt>
<trkpt lat="42.093929" lon="23.617543"><ele>2011.5</ele><time>2026-03-08T07:37:39.000Z</time></trkpt>
<trkpt lat="42.093931" lon="23.617545"><ele>2011.5</ele><time>2026-03-08T07:37:40.000Z</time></trkpt>
<trkpt lat="42.093931" lon="23.617547"><ele>2011.5</ele><time>2026-03-08T07:37:41.000Z</time></trkpt>
<trkpt lat="42.093931" lon="23.617548"><ele>2011.6</ele><time>2026-03-08T07:37:42.000Z</time></trkpt>
<trkpt lat="42.093931" lon="23.617547"><ele>2011.6</ele><time>2026-03-08T07:37:43.000Z</time></trkpt>
<trkpt lat="42.09393" lon="23.617547"><ele>2011.6</ele><time>2026-03-08T07:37:44.000Z</time></trkpt>
<trkpt lat="42.09393" lon="23.617547"><ele>2011.6</ele><time>2026-03-08T07:37:45.000Z</time></trkpt>
<trkpt lat="42.09393" lon="23.617546"><ele>2011.6</ele><time>2026-03-08T07:37:46.000Z</time></trkpt>
<trkpt lat="42.09393" lon="23.617546"><ele>2011.7</ele><time>2026-03-08T07:37:47.000Z</time></trkpt>
<trkpt lat="42.09393" lon="23.617545"><ele>2011.7</ele><time>2026-03-08T07:37:48.000Z</time></trkpt>
<trkpt lat="42.09393" lon="23.617544"><ele>2011.7</ele><time>2026-03-08T07:37:49.000Z</time></trkpt>
<trkpt lat="42.09393" lon="23.617543"><ele>2011.7</ele><time>2026-03-08T07:37:50.000Z</time></trkpt>
<trkpt lat="42.09393" lon="23.617542"><ele>2011.7</ele><time>2026-03-08T07:37:51.000Z</time></trkpt>
<trkpt lat="42.093929" lon="23.617542"><ele>2011.7</ele><time>2026-03-08T07:37:52.000Z</time></trkpt>
<trkpt lat="42.093929" lon="23.617542"><ele>2011.7</ele><time>2026-03-08T07:37:53.000Z</time></trkpt>
<trkpt lat="42.093928" lon="23.617541"><ele>2011.7</ele><time>2026-03-08T07:37:54.000Z</time></trkpt>
<trkpt lat="42.093927" lon="23.617541"><ele>2011.7</ele><time>2026-03-08T07:37:55.000Z</time></trkpt>
<trkpt lat="42.093926" lon="23.617542"><ele>2011.7</ele><time>2026-03-08T07:37:56.000Z</time></trkpt>
<trkpt lat="42.093925" lon="23.617543"><ele>2011.7</ele><time>2026-03-08T07:37:57.000Z</time></trkpt>
<trkpt lat="42.093923" lon="23.617544"><ele>2011.7</ele><time>2026-03-08T07:37:58.000Z</time></trkpt>
<trkpt lat="42.09392" lon="23.617545"><ele>2011.7</ele><time>2026-03-08T07:37:59.000Z</time></trkpt>
<trkpt lat="42.093918" lon="23.617546"><ele>2011.7</ele><time>2026-03-08T07:38:00.000Z</time></trkpt>
<trkpt lat="42.093916" lon="23.617546"><ele>2011.7</ele><time>2026-03-08T07:38:01.000Z</time></trkpt>
<trkpt lat="42.093915" lon="23.617546"><ele>2011.7</ele><time>2026-03-08T07:38:02.000Z</time></trkpt>
<trkpt lat="42.093915" lon="23.617545"><ele>2011.7</ele><time>2026-03-08T07:38:03.000Z</time></trkpt>
<trkpt lat="42.093915" lon="23.617544"><ele>2011.7</ele><time>2026-03-08T07:38:04.000Z</time></trkpt>
<trkpt lat="42.093915" lon="23.617543"><ele>2011.7</ele><time>2026-03-08T07:38:05.000Z</time></trkpt>
<trkpt lat="42.093916" lon="23.617543"><ele>2011.7</ele><time>2026-03-08T07:38:06.000Z</time></trkpt>
<trkpt lat="42.093916" lon="23.617542"><ele>2011.6</ele><time>2026-03-08T07:38:07.000Z</time></trkpt>
<trkpt lat="42.093916" lon="23.617542"><ele>2011.6</ele><time>2026-03-08T07:38:08.000Z</time></trkpt>
<trkpt lat="42.093916" lon="23.617542"><ele>2011.6</ele><time>2026-03-08T07:38:09.000Z</time></trkpt>
<trkpt lat="42.093916" lon="23.617543"><ele>2011.6</ele><time>2026-03-08T07:38:10.000Z</time></trkpt>
<trkpt lat="42.093916" lon="23.617543"><ele>2011.6</ele><time>2026-03-08T07:38:11.000Z</time></trkpt>
<trkpt lat="42.093916" lon="23.617544"><ele>2011.5</ele><time>2026-03-08T07:38:12.000Z</time></trkpt>
<trkpt lat="42.093916" lon="23.617544"><ele>2011.5</ele><time>2026-03-08T07:38:13.000Z</time></trkpt>
<trkpt lat="42.093916" lon="23.617544"><ele>2011.5</ele><time>2026-03-08T07:38:14.000Z</time></trkpt>
<trkpt lat="42.093915" lon="23.617545"><ele>2011.5</ele><time>2026-03-08T07:38:15.000Z</time></trkpt>
<trkpt lat="42.093915" lon="23.617545"><ele>2011.5</ele><time>2026-03-08T07:38:16.000Z</time></trkpt>
<trkpt lat="42.093915" lon="23.617545"><ele>2011.5</ele><time>2026-03-08T07:38:17.000Z</time></trkpt>
<trkpt lat="42.093914" lon="23.617545"><ele>2011.5</ele><time>2026-03-08T07:38:18.000Z</time></trkpt>
<trkpt lat="42.093914" lon="23.617545"><ele>2011.5</ele><time>2026-03-08T07:38:19.000Z</time></trkpt>
<trkpt lat="42.093914" lon="23.617545"><ele>2011.5</ele><time>2026-03-08T07:38:20.000Z</time></trkpt>
<trkpt lat="42.093914" lon="23.617545"><ele>2011.5</ele><time>2026-03-08T07:38:21.000Z</time></trkpt>
<trkpt lat="42.093914" lon="23.617545"><ele>2011.8</ele><time>2026-03-08T07:38:22.000Z</time></trkpt>
<trkpt lat="42.093914" lon="23.617545"><ele>2011.8</ele><time>2026-03-08T07:38:23.000Z</time></trkpt>
<trkpt lat="42.093914" lon="23.617545"><ele>2011.8</ele><time>2026-03-08T07:38:24.000Z</time></trkpt>
<trkpt lat="42.093914" lon="23.617545"><ele>2011.8</ele><time>2026-03-08T07:38:25.000Z</time></trkpt>
<trkpt lat="42.093914" lon="23.617545"><ele>2011.8</ele><time>2026-03-08T07:38:26.000Z</time></trkpt>
<trkpt lat="42.093914" lon="23.617545"><ele>2011.9</ele><time>2026-03-08T07:38:27.000Z</time></trkpt>
<trkpt lat="42.093914" lon="23.617545"><ele>2011.9</ele><time>2026-03-08T07:38:28.000Z</time></trkpt>
<trkpt lat="42.093914" lon="23.617546"><ele>2011.9</ele><time>2026-03-08T07:38:29.000Z</time></trkpt>
<trkpt lat="42.093915" lon="23.617546"><ele>2011.9</ele><time>2026-03-08T07:38:30.000Z</time></trkpt>
<trkpt lat="42.093915" lon="23.617547"><ele>2011.9</ele><time>2026-03-08T07:38:31.000Z</time></trkpt>
<trkpt lat="42.093915" lon="23.617548"><ele>2011.9</ele><time>2026-03-08T07:38:32.000Z</time></trkpt>
<trkpt lat="42.093915" lon="23.617549"><ele>2011.9</ele><time>2026-03-08T07:38:33.000Z</time></trkpt>
<trkpt lat="42.093915" lon="23.617549"><ele>2011.9</ele><time>2026-03-08T07:38:34.000Z</time></trkpt>
<trkpt lat="42.093915" lon="23.617549"><ele>2011.9</ele><time>2026-03-08T07:38:35.000Z</time></trkpt>
<trkpt lat="42.093915" lon="23.61755"><ele>2011.9</ele><time>2026-03-08T07:38:36.000Z</time></trkpt>
<trkpt lat="42.093915" lon="23.61755"><ele>2011.6</ele><time>2026-03-08T07:38:37.000Z</time></trkpt>
<trkpt lat="42.093915" lon="23.61755"><ele>2011.6</ele><time>2026-03-08T07:38:38.000Z</time></trkpt>
<trkpt lat="42.093915" lon="23.61755"><ele>2011.6</ele><time>2026-03-08T07:38:39.000Z</time></trkpt>
<trkpt lat="42.093915" lon="23.617551"><ele>2011.6</ele><time>2026-03-08T07:38:40.000Z</time></trkpt>
<trkpt lat="42.093914" lon="23.617551"><ele>2011.6</ele><time>2026-03-08T07:38:41.000Z</time></trkpt>
<trkpt lat="42.093914" lon="23.617551"><ele>2011.6</ele><time>2026-03-08T07:38:42.000Z</time></trkpt>
<trkpt lat="42.093914" lon="23.617551"><ele>2011.6</ele><time>2026-03-08T07:38:43.000Z</time></trkpt>
<trkpt lat="42.093915" lon="23.617551"><ele>2011.6</ele><time>2026-03-08T07:38:44.000Z</time></trkpt>
<trkpt lat="42.093916" lon="23.617552"><ele>2011.6</ele><time>2026-03-08T07:38:45.000Z</time></trkpt>
<trkpt lat="42.093917" lon="23.617553"><ele>2011.6</ele><time>2026-03-08T07:38:46.000Z</time></trkpt>
<trkpt lat="42.093918" lon="23.617553"><ele>2011.7</ele><time>2026-03-08T07:38:47.000Z</time></trkpt>
<trkpt lat="42.093919" lon="23.617554"><ele>2011.7</ele><time>2026-03-08T07:38:48.000Z</time></trkpt>
<trkpt lat="42.093919" lon="23.617554"><ele>2011.7</ele><time>2026-03-08T07:38:49.000Z</time></trkpt>
<trkpt lat="42.093919" lon="23.617554"><ele>2011.7</ele><time>2026-03-08T07:38:50.000Z</time></trkpt>
<trkpt lat="42.093919" lon="23.617554"><ele>2011.7</ele><time>2026-03-08T07:38:51.000Z</time></trkpt>
<trkpt lat="42.093919" lon="23.617554"><ele>2011.9</ele><time>2026-03-08T07:38:52.000Z</time></trkpt>
<trkpt lat="42.093919" lon="23.617554"><ele>2011.9</ele><time>2026-03-08T07:38:53.000Z</time></trkpt>
<trkpt lat="42.093919" lon="23.617554"><ele>2011.9</ele><time>2026-03-08T07:38:54.000Z</time></trkpt>
<trkpt lat="42.093919" lon="23.617554"><ele>2011.9</ele><time>2026-03-08T07:38:55.000Z</time></trkpt>
<trkpt lat="42.093919" lon="23.617555"><ele>2011.9</ele><time>2026-03-08T07:38:56.000Z</time></trkpt>
<trkpt lat="42.093919" lon="23.617555"><ele>2011.9</ele><time>2026-03-08T07:38:57.000Z</time></trkpt>
<trkpt lat="42.093919" lon="23.617555"><ele>2011.9</ele><time>2026-03-08T07:38:58.000Z</time></trkpt>
<trkpt lat="42.093919" lon="23.617555"><ele>2011.9</ele><time>2026-03-08T07:38:59.000Z</time></trkpt>
<trkpt lat="42.093919" lon="23.617555"><ele>2011.9</ele><time>2026-03-08T07:39:00.000Z</time></trkpt>
<trkpt lat="42.093919" lon="23.617555"><ele>2011.9</ele><time>2026-03-08T07:39:01.000Z</time></trkpt>
<trkpt lat="42.093919" lon="23.617555"><ele>2011.8</ele><time>2026-03-08T07:39:02.000Z</time></trkpt>
<trkpt lat="42.093919" lon="23.617555"><ele>2011.8</ele><time>2026-03-08T07:39:03.000Z</time></trkpt>
<trkpt lat="42.093919" lon="23.617555"><ele>2011.8</ele><time>2026-03-08T07:39:04.000Z</time></trkpt>
<trkpt lat="42.093919" lon="23.617555"><ele>2011.8</ele><time>2026-03-08T07:39:05.000Z</time></trkpt>
<trkpt lat="42.093919" lon="23.617555"><ele>2011.8</ele><time>2026-03-08T07:39:06.000Z</time></trkpt>
<trkpt lat="42.093919" lon="23.617555"><ele>2011.8</ele><time>2026-03-08T07:39:07.000Z</time></trkpt>
<trkpt lat="42.093919" lon="23.617555"><ele>2011.8</ele><time>2026-03-08T07:39:08.000Z</time></trkpt>
<trkpt lat="42.093919" lon="23.617555"><ele>2011.8</ele><time>2026-03-08T07:39:09.000Z</time></trkpt>
<trkpt lat="42.093919" lon="23.617555"><ele>2011.8</ele><time>2026-03-08T07:39:10.000Z</time></trkpt>
<trkpt lat="42.09392" lon="23.617554"><ele>2011.8</ele><time>2026-03-08T07:39:11.000Z</time></trkpt>
<trkpt lat="42.09392" lon="23.617554"><ele>2011.8</ele><time>2026-03-08T07:39:12.000Z</time></trkpt>
<trkpt lat="42.093921" lon="23.617554"><ele>2011.8</ele><time>2026-03-08T07:39:13.000Z</time></trkpt>
<trkpt lat="42.093921" lon="23.617553"><ele>2011.8</ele><time>2026-03-08T07:39:14.000Z</time></trkpt>
<trkpt lat="42.093921" lon="23.617552"><ele>2011.8</ele><time>2026-03-08T07:39:15.000Z</time></trkpt>
<trkpt lat="42.093921" lon="23.617552"><ele>2011.8</ele><time>2026-03-08T07:39:16.000Z</time></trkpt>
<trkpt lat="42.093921" lon="23.617552"><ele>2011.9</ele><time>2026-03-08T07:39:17.000Z</time></trkpt>
<trkpt lat="42.093921" lon="23.617551"><ele>2011.9</ele><time>2026-03-08T07:39:18.000Z</time></trkpt>
<trkpt lat="42.093921" lon="23.617551"><ele>2011.9</ele><time>2026-03-08T07:39:19.000Z</time></trkpt>
<trkpt lat="42.093921" lon="23.617551"><ele>2011.9</ele><time>2026-03-08T07:39:20.000Z</time></trkpt>
<trkpt lat="42.093921" lon="23.617551"><ele>2011.9</ele><time>2026-03-08T07:39:21.000Z</time></trkpt>
<trkpt lat="42.093921" lon="23.617551"><ele>2011.9</ele><time>2026-03-08T07:39:22.000Z</time></trkpt>
<trkpt lat="42.093921" lon="23.617552"><ele>2011.9</ele><time>2026-03-08T07:39:23.000Z</time></trkpt>
<trkpt lat="42.093921" lon="23.617553"><ele>2011.9</ele><time>2026-03-08T07:39:24.000Z</time></trkpt>
<trkpt lat="42.093921" lon="23.617553"><ele>2011.9</ele><time>2026-03-08T07:39:25.000Z</time></trkpt>
<trkpt lat="42.093921" lon="23.617554"><ele>2011.9</ele><time>2026-03-08T07:39:26.000Z</time></trkpt>
<trkpt lat="42.093921" lon="23.617554"><ele>2012</ele><time>2026-03-08T07:39:27.000Z</time></trkpt>
<trkpt lat="42.09392" lon="23.617554"><ele>2012</ele><time>2026-03-08T07:39:28.000Z</time></trkpt>
<trkpt lat="42.09392" lon="23.617553"><ele>2012</ele><time>2026-03-08T07:39:29.000Z</time></trkpt>
<trkpt lat="42.093919" lon="23.617552"><ele>2012</ele><time>2026-03-08T07:39:30.000Z</time></trkpt>
<trkpt lat="42.093919" lon="23.617551"><ele>2012</ele><time>2026-03-08T07:39:31.000Z</time></trkpt>
<trkpt lat="42.093922" lon="23.617549"><ele>2012.1</ele><time>2026-03-08T07:39:32.000Z</time></trkpt>
<trkpt lat="42.093926" lon="23.617546"><ele>2012.1</ele><time>2026-03-08T07:39:33.000Z</time></trkpt>
<trkpt lat="42.093932" lon="23.617541"><ele>2012.1</ele><time>2026-03-08T07:39:34.000Z</time></trkpt>
<trkpt lat="42.09394" lon="23.617536"><ele>2012.1</ele><time>2026-03-08T07:39:35.000Z</time></trkpt>
<trkpt lat="42.09395" lon="23.617529"><ele>2012.1</ele><time>2026-03-08T07:39:36.000Z</time></trkpt>
<trkpt lat="42.093959" lon="23.617523"><ele>2012</ele><time>2026-03-08T07:39:37.000Z</time></trkpt>
<trkpt lat="42.093969" lon="23.617516"><ele>2012</ele><time>2026-03-08T07:39:38.000Z</time></trkpt>
<trkpt lat="42.093978" lon="23.617509"><ele>2012</ele><time>2026-03-08T07:39:39.000Z</time></trkpt>
<trkpt lat="42.093987" lon="23.617502"><ele>2012</ele><time>2026-03-08T07:39:40.000Z</time></trkpt>
<trkpt lat="42.093996" lon="23.617495"><ele>2012</ele><time>2026-03-08T07:39:41.000Z</time></trkpt>
<trkpt lat="42.094006" lon="23.617489"><ele>2011.9</ele><time>2026-03-08T07:39:42.000Z</time></trkpt>
<trkpt lat="42.094016" lon="23.617483"><ele>2011.9</ele><time>2026-03-08T07:39:43.000Z</time></trkpt>
<trkpt lat="42.094026" lon="23.617478"><ele>2011.9</ele><time>2026-03-08T07:39:44.000Z</time></trkpt>
<trkpt lat="42.094036" lon="23.617471"><ele>2011.9</ele><time>2026-03-08T07:39:45.000Z</time></trkpt>
<trkpt lat="42.094045" lon="23.617464"><ele>2011.9</ele><time>2026-03-08T07:39:46.000Z</time></trkpt>
<trkpt lat="42.094054" lon="23.617457"><ele>2011.8</ele><time>2026-03-08T07:39:47.000Z</time></trkpt>
<trkpt lat="42.094062" lon="23.617449"><ele>2011.8</ele><time>2026-03-08T07:39:48.000Z</time></trkpt>
<trkpt lat="42.09407" lon="23.61744"><ele>2011.8</ele><time>2026-03-08T07:39:49.000Z</time></trkpt>
<trkpt lat="42.094078" lon="23.617432"><ele>2011.8</ele><time>2026-03-08T07:39:50.000Z</time></trkpt>
<trkpt lat="42.094086" lon="23.617423"><ele>2011.8</ele><time>2026-03-08T07:39:51.000Z</time></trkpt>
<trkpt lat="42.094095" lon="23.617415"><ele>2011.8</ele><time>2026-03-08T07:39:52.000Z</time></trkpt>
<trkpt lat="42.094104" lon="23.617406"><ele>2011.8</ele><time>2026-03-08T07:39:53.000Z</time></trkpt>
<trkpt lat="42.094113" lon="23.617396"><ele>2011.8</ele><time>2026-03-08T07:39:54.000Z</time></trkpt>
<trkpt lat="42.094124" lon="23.617388"><ele>2011.8</ele><time>2026-03-08T07:39:55.000Z</time></trkpt>
<trkpt lat="42.094134" lon="23.617379"><ele>2011.8</ele><time>2026-03-08T07:39:56.000Z</time></trkpt>
<trkpt lat="42.094144" lon="23.61737"><ele>2011.9</ele><time>2026-03-08T07:39:57.000Z</time></trkpt>
<trkpt lat="42.094154" lon="23.617363"><ele>2011.9</ele><time>2026-03-08T07:39:58.000Z</time></trkpt>
<trkpt lat="42.094163" lon="23.617357"><ele>2011.9</ele><time>2026-03-08T07:39:59.000Z</time></trkpt>
<trkpt lat="42.094171" lon="23.617348"><ele>2011.9</ele><time>2026-03-08T07:40:00.000Z</time></trkpt>
<trkpt lat="42.094178" lon="23.61734"><ele>2011.9</ele><time>2026-03-08T07:40:01.000Z</time></trkpt>
<trkpt lat="42.094184" lon="23.617331"><ele>2012.2</ele><time>2026-03-08T07:40:02.000Z</time></trkpt>
<trkpt lat="42.09419" lon="23.617322"><ele>2012.2</ele><time>2026-03-08T07:40:03.000Z</time></trkpt>
<trkpt lat="42.094195" lon="23.617312"><ele>2012.2</ele><time>2026-03-08T07:40:04.000Z</time></trkpt>
<trkpt lat="42.0942" lon="23.617304"><ele>2012.2</ele><time>2026-03-08T07:40:05.000Z</time></trkpt>
<trkpt lat="42.094206" lon="23.617295"><ele>2012.2</ele><time>2026-03-08T07:40:06.000Z</time></trkpt>
<trkpt lat="42.094212" lon="23.617288"><ele>2012.5</ele><time>2026-03-08T07:40:07.000Z</time></trkpt>
<trkpt lat="42.094218" lon="23.617281"><ele>2012.5</ele><time>2026-03-08T07:40:08.000Z</time></trkpt>
<trkpt lat="42.094225" lon="23.617274"><ele>2012.5</ele><time>2026-03-08T07:40:09.000Z</time></trkpt>
<trkpt lat="42.094232" lon="23.617268"><ele>2012.5</ele><time>2026-03-08T07:40:10.000Z</time></trkpt>
<trkpt lat="42.094239" lon="23.617262"><ele>2012.5</ele><time>2026-03-08T07:40:11.000Z</time></trkpt>
<trkpt lat="42.094246" lon="23.617255"><ele>2012.7</ele><time>2026-03-08T07:40:12.000Z</time></trkpt>
<trkpt lat="42.094254" lon="23.617247"><ele>2012.7</ele><time>2026-03-08T07:40:13.000Z</time></trkpt>
<trkpt lat="42.094261" lon="23.61724"><ele>2012.7</ele><time>2026-03-08T07:40:14.000Z</time></trkpt>
<trkpt lat="42.094268" lon="23.617232"><ele>2012.7</ele><time>2026-03-08T07:40:15.000Z</time></trkpt>
<trkpt lat="42.094275" lon="23.617224"><ele>2012.7</ele><time>2026-03-08T07:40:16.000Z</time></trkpt>
<trkpt lat="42.094282" lon="23.617216"><ele>2013.1</ele><time>2026-03-08T07:40:17.000Z</time></trkpt>
<trkpt lat="42.09429" lon="23.617209"><ele>2013.1</ele><time>2026-03-08T07:40:18.000Z</time></trkpt>
<trkpt lat="42.094298" lon="23.617201"><ele>2013.1</ele><time>2026-03-08T07:40:19.000Z</time></trkpt>
<trkpt lat="42.094306" lon="23.617193"><ele>2013.1</ele><time>2026-03-08T07:40:20.000Z</time></trkpt>
<trkpt lat="42.094314" lon="23.617185"><ele>2013.1</ele><time>2026-03-08T07:40:21.000Z</time></trkpt>
<trkpt lat="42.094322" lon="23.617177"><ele>2013.5</ele><time>2026-03-08T07:40:22.000Z</time></trkpt>
<trkpt lat="42.094332" lon="23.617169"><ele>2013.5</ele><time>2026-03-08T07:40:23.000Z</time></trkpt>
<trkpt lat="42.094342" lon="23.617161"><ele>2013.5</ele><time>2026-03-08T07:40:24.000Z</time></trkpt>
<trkpt lat="42.094352" lon="23.617154"><ele>2013.5</ele><time>2026-03-08T07:40:25.000Z</time></trkpt>
<trkpt lat="42.094362" lon="23.617147"><ele>2013.5</ele><time>2026-03-08T07:40:26.000Z</time></trkpt>
<trkpt lat="42.094371" lon="23.61714"><ele>2013.6</ele><time>2026-03-08T07:40:27.000Z</time></trkpt>
<trkpt lat="42.094381" lon="23.617132"><ele>2013.6</ele><time>2026-03-08T07:40:28.000Z</time></trkpt>
<trkpt lat="42.09439" lon="23.617124"><ele>2013.6</ele><time>2026-03-08T07:40:29.000Z</time></trkpt>
<trkpt lat="42.094399" lon="23.617115"><ele>2013.6</ele><time>2026-03-08T07:40:30.000Z</time></trkpt>
<trkpt lat="42.094408" lon="23.617104"><ele>2013.6</ele><time>2026-03-08T07:40:31.000Z</time></trkpt>
<trkpt lat="42.094416" lon="23.617095"><ele>2013.8</ele><time>2026-03-08T07:40:32.000Z</time></trkpt>
<trkpt lat="42.094423" lon="23.617087"><ele>2013.8</ele><time>2026-03-08T07:40:33.000Z</time></trkpt>
<trkpt lat="42.094431" lon="23.617079"><ele>2013.8</ele><time>2026-03-08T07:40:34.000Z</time></trkpt>
<trkpt lat="42.094438" lon="23.617072"><ele>2013.8</ele><time>2026-03-08T07:40:35.000Z</time></trkpt>
<trkpt lat="42.094446" lon="23.617066"><ele>2013.8</ele><time>2026-03-08T07:40:36.000Z</time></trkpt>
<trkpt lat="42.094454" lon="23.617059"><ele>2014</ele><time>2026-03-08T07:40:37.000Z</time></trkpt>
<trkpt lat="42.094464" lon="23.617052"><ele>2014</ele><time>2026-03-08T07:40:38.000Z</time></trkpt>
<trkpt lat="42.094472" lon="23.617045"><ele>2014</ele><time>2026-03-08T07:40:39.000Z</time></trkpt>
<trkpt lat="42.094482" lon="23.617039"><ele>2014</ele><time>2026-03-08T07:40:40.000Z</time></trkpt>
<trkpt lat="42.094492" lon="23.617033"><ele>2014</ele><time>2026-03-08T07:40:41.000Z</time></trkpt>
<trkpt lat="42.094502" lon="23.617027"><ele>2014.1</ele><time>2026-03-08T07:40:42.000Z</time></trkpt>
<trkpt lat="42.09451" lon="23.61702"><ele>2014.1</ele><time>2026-03-08T07:40:43.000Z</time></trkpt>
<trkpt lat="42.094519" lon="23.617011"><ele>2014.1</ele><time>2026-03-08T07:40:44.000Z</time></trkpt>
<trkpt lat="42.094528" lon="23.617001"><ele>2014.1</ele><time>2026-03-08T07:40:45.000Z</time></trkpt>
<trkpt lat="42.094537" lon="23.616991"><ele>2014.1</ele><time>2026-03-08T07:40:46.000Z</time></trkpt>
<trkpt lat="42.094545" lon="23.616981"><ele>2014.4</ele><time>2026-03-08T07:40:47.000Z</time></trkpt>
<trkpt lat="42.094554" lon="23.616971"><ele>2014.4</ele><time>2026-03-08T07:40:48.000Z</time></trkpt>
<trkpt lat="42.094564" lon="23.616961"><ele>2014.4</ele><time>2026-03-08T07:40:49.000Z</time></trkpt>
<trkpt lat="42.094573" lon="23.616952"><ele>2014.4</ele><time>2026-03-08T07:40:50.000Z</time></trkpt>
<trkpt lat="42.094582" lon="23.616944"><ele>2014.4</ele><time>2026-03-08T07:40:51.000Z</time></trkpt>
<trkpt lat="42.094592" lon="23.616936"><ele>2014.7</ele><time>2026-03-08T07:40:52.000Z</time></trkpt>
<trkpt lat="42.094602" lon="23.616928"><ele>2014.7</ele><time>2026-03-08T07:40:53.000Z</time></trkpt>
<trkpt lat="42.094612" lon="23.61692"><ele>2014.7</ele><time>2026-03-08T07:40:54.000Z</time></trkpt>
<trkpt lat="42.094623" lon="23.616911"><ele>2014.7</ele><time>2026-03-08T07:40:55.000Z</time></trkpt>
<trkpt lat="42.094633" lon="23.616902"><ele>2014.7</ele><time>2026-03-08T07:40:56.000Z</time></trkpt>
<trkpt lat="42.094643" lon="23.616893"><ele>2014.9</ele><time>2026-03-08T07:40:57.000Z</time></trkpt>
<trkpt lat="42.094653" lon="23.616884"><ele>2014.9</ele><time>2026-03-08T07:40:58.000Z</time></trkpt>
<trkpt lat="42.094662" lon="23.616876"><ele>2014.9</ele><time>2026-03-08T07:40:59.000Z</time></trkpt>
<trkpt lat="42.09467" lon="23.616869"><ele>2014.9</ele><time>2026-03-08T07:41:00.000Z</time></trkpt>
<trkpt lat="42.094679" lon="23.61686"><ele>2014.9</ele><time>2026-03-08T07:41:01.000Z</time></trkpt>
<trkpt lat="42.094687" lon="23.616852"><ele>2015.2</ele><time>2026-03-08T07:41:02.000Z</time></trkpt>
<trkpt lat="42.094695" lon="23.616842"><ele>2015.2</ele><time>2026-03-08T07:41:03.000Z</time></trkpt>
<trkpt lat="42.094703" lon="23.616832"><ele>2015.2</ele><time>2026-03-08T07:41:04.000Z</time></trkpt>
<trkpt lat="42.09471" lon="23.61682"><ele>2015.2</ele><time>2026-03-08T07:41:05.000Z</time></trkpt>
<trkpt lat="42.094718" lon="23.616809"><ele>2015.2</ele><time>2026-03-08T07:41:06.000Z</time></trkpt>
<trkpt lat="42.094727" lon="23.616798"><ele>2015.5</ele><time>2026-03-08T07:41:07.000Z</time></trkpt>
<trkpt lat="42.094736" lon="23.616788"><ele>2015.5</ele><time>2026-03-08T07:41:08.000Z</time></trkpt>
<trkpt lat="42.094746" lon="23.616778"><ele>2015.5</ele><time>2026-03-08T07:41:09.000Z</time></trkpt>
<trkpt lat="42.094756" lon="23.61677"><ele>2015.5</ele><time>2026-03-08T07:41:10.000Z</time></trkpt>
<trkpt lat="42.094765" lon="23.616762"><ele>2015.5</ele><time>2026-03-08T07:41:11.000Z</time></trkpt>
<trkpt lat="42.094774" lon="23.616752"><ele>2015.7</ele><time>2026-03-08T07:41:12.000Z</time></trkpt>
<trkpt lat="42.094783" lon="23.616743"><ele>2015.7</ele><time>2026-03-08T07:41:13.000Z</time></trkpt>
<trkpt lat="42.094792" lon="23.616733"><ele>2015.7</ele><time>2026-03-08T07:41:14.000Z</time></trkpt>
<trkpt lat="42.094801" lon="23.616723"><ele>2015.7</ele><time>2026-03-08T07:41:15.000Z</time></trkpt>
<trkpt lat="42.09481" lon="23.616714"><ele>2015.7</ele><time>2026-03-08T07:41:16.000Z</time></trkpt>
<trkpt lat="42.094819" lon="23.616705"><ele>2016</ele><time>2026-03-08T07:41:17.000Z</time></trkpt>
<trkpt lat="42.094827" lon="23.616695"><ele>2016</ele><time>2026-03-08T07:41:18.000Z</time></trkpt>
<trkpt lat="42.094836" lon="23.616686"><ele>2016</ele><time>2026-03-08T07:41:19.000Z</time></trkpt>
<trkpt lat="42.094844" lon="23.616677"><ele>2016</ele><time>2026-03-08T07:41:20.000Z</time></trkpt>
<trkpt lat="42.094852" lon="23.616668"><ele>2016</ele><time>2026-03-08T07:41:21.000Z</time></trkpt>
<trkpt lat="42.09486" lon="23.616659"><ele>2016.3</ele><time>2026-03-08T07:41:22.000Z</time></trkpt>
<trkpt lat="42.094868" lon="23.616649"><ele>2016.3</ele><time>2026-03-08T07:41:23.000Z</time></trkpt>
<trkpt lat="42.094875" lon="23.616641"><ele>2016.3</ele><time>2026-03-08T07:41:24.000Z</time></trkpt>
<trkpt lat="42.094883" lon="23.616631"><ele>2016.3</ele><time>2026-03-08T07:41:25.000Z</time></trkpt>
<trkpt lat="42.09489" lon="23.616622"><ele>2016.3</ele><time>2026-03-08T07:41:26.000Z</time></trkpt>
<trkpt lat="42.094897" lon="23.616613"><ele>2016.3</ele><time>2026-03-08T07:41:27.000Z</time></trkpt>
<trkpt lat="42.094903" lon="23.616604"><ele>2016.3</ele><time>2026-03-08T07:41:28.000Z</time></trkpt>
<trkpt lat="42.094911" lon="23.616595"><ele>2016.3</ele><time>2026-03-08T07:41:29.000Z</time></trkpt>
<trkpt lat="42.094918" lon="23.616585"><ele>2016.3</ele><time>2026-03-08T07:41:30.000Z</time></trkpt>
<trkpt lat="42.094926" lon="23.616576"><ele>2016.3</ele><time>2026-03-08T07:41:31.000Z</time></trkpt>
<trkpt lat="42.094933" lon="23.616566"><ele>2016.4</ele><time>2026-03-08T07:41:32.000Z</time></trkpt>
<trkpt lat="42.094941" lon="23.616555"><ele>2016.4</ele><time>2026-03-08T07:41:33.000Z</time></trkpt>
<trkpt lat="42.09495" lon="23.616546"><ele>2016.4</ele><time>2026-03-08T07:41:34.000Z</time></trkpt>
<trkpt lat="42.094959" lon="23.616537"><ele>2016.4</ele><time>2026-03-08T07:41:35.000Z</time></trkpt>
<trkpt lat="42.094968" lon="23.616528"><ele>2016.4</ele><time>2026-03-08T07:41:36.000Z</time></trkpt>
<trkpt lat="42.094978" lon="23.616521"><ele>2016.6</ele><time>2026-03-08T07:41:37.000Z</time></trkpt>
<trkpt lat="42.094987" lon="23.616515"><ele>2016.6</ele><time>2026-03-08T07:41:38.000Z</time></trkpt>
<trkpt lat="42.094995" lon="23.616509"><ele>2016.6</ele><time>2026-03-08T07:41:39.000Z</time></trkpt>
<trkpt lat="42.095004" lon="23.616502"><ele>2016.6</ele><time>2026-03-08T07:41:40.000Z</time></trkpt>
<trkpt lat="42.095012" lon="23.616496"><ele>2016.6</ele><time>2026-03-08T07:41:41.000Z</time></trkpt>
<trkpt lat="42.095019" lon="23.616488"><ele>2016.8</ele><time>2026-03-08T07:41:42.000Z</time></trkpt>
<trkpt lat="42.095026" lon="23.616479"><ele>2016.8</ele><time>2026-03-08T07:41:43.000Z</time></trkpt>
<trkpt lat="42.095034" lon="23.61647"><ele>2016.8</ele><time>2026-03-08T07:41:44.000Z</time></trkpt>
<trkpt lat="42.095041" lon="23.616462"><ele>2016.8</ele><time>2026-03-08T07:41:45.000Z</time></trkpt>
<trkpt lat="42.095047" lon="23.616453"><ele>2016.8</ele><time>2026-03-08T07:41:46.000Z</time></trkpt>
<trkpt lat="42.095054" lon="23.616445"><ele>2017.3</ele><time>2026-03-08T07:41:47.000Z</time></trkpt>
<trkpt lat="42.095061" lon="23.616438"><ele>2017.3</ele><time>2026-03-08T07:41:48.000Z</time></trkpt>
<trkpt lat="42.095068" lon="23.616432"><ele>2017.3</ele><time>2026-03-08T07:41:49.000Z</time></trkpt>
<trkpt lat="42.095075" lon="23.616426"><ele>2017.3</ele><time>2026-03-08T07:41:50.000Z</time></trkpt>
<trkpt lat="42.095082" lon="23.616422"><ele>2017.3</ele><time>2026-03-08T07:41:51.000Z</time></trkpt>
<trkpt lat="42.09509" lon="23.616418"><ele>2017.4</ele><time>2026-03-08T07:41:52.000Z</time></trkpt>
<trkpt lat="42.095097" lon="23.616414"><ele>2017.4</ele><time>2026-03-08T07:41:53.000Z</time></trkpt>
<trkpt lat="42.095105" lon="23.616411"><ele>2017.4</ele><time>2026-03-08T07:41:54.000Z</time></trkpt>
<trkpt lat="42.095112" lon="23.616407"><ele>2017.4</ele><time>2026-03-08T07:41:55.000Z</time></trkpt>
<trkpt lat="42.095119" lon="23.616403"><ele>2017.4</ele><time>2026-03-08T07:41:56.000Z</time></trkpt>
<trkpt lat="42.095125" lon="23.616399"><ele>2017.4</ele><time>2026-03-08T07:41:57.000Z</time></trkpt>
<trkpt lat="42.095132" lon="23.616394"><ele>2017.4</ele><time>2026-03-08T07:41:58.000Z</time></trkpt>
<trkpt lat="42.095138" lon="23.616389"><ele>2017.4</ele><time>2026-03-08T07:41:59.000Z</time></trkpt>
<trkpt lat="42.095145" lon="23.616383"><ele>2017.4</ele><time>2026-03-08T07:42:00.000Z</time></trkpt>
<trkpt lat="42.095151" lon="23.616377"><ele>2017.4</ele><time>2026-03-08T07:42:01.000Z</time></trkpt>
<trkpt lat="42.095156" lon="23.616372"><ele>2017.4</ele><time>2026-03-08T07:42:02.000Z</time></trkpt>
<trkpt lat="42.095161" lon="23.616368"><ele>2017.4</ele><time>2026-03-08T07:42:03.000Z</time></trkpt>
<trkpt lat="42.095165" lon="23.616362"><ele>2017.4</ele><time>2026-03-08T07:42:04.000Z</time></trkpt>
<trkpt lat="42.095169" lon="23.616356"><ele>2017.4</ele><time>2026-03-08T07:42:05.000Z</time></trkpt>
<trkpt lat="42.095173" lon="23.616349"><ele>2017.4</ele><time>2026-03-08T07:42:06.000Z</time></trkpt>
<trkpt lat="42.095179" lon="23.616341"><ele>2017.6</ele><time>2026-03-08T07:42:07.000Z</time></trkpt>
<trkpt lat="42.095184" lon="23.616333"><ele>2017.6</ele><time>2026-03-08T07:42:08.000Z</time></trkpt>
<trkpt lat="42.09519" lon="23.616327"><ele>2017.6</ele><time>2026-03-08T07:42:09.000Z</time></trkpt>
<trkpt lat="42.095196" lon="23.616321"><ele>2017.6</ele><time>2026-03-08T07:42:10.000Z</time></trkpt>
<trkpt lat="42.095201" lon="23.616317"><ele>2017.6</ele><time>2026-03-08T07:42:11.000Z</time></trkpt>
<trkpt lat="42.095204" lon="23.616314"><ele>2017.8</ele><time>2026-03-08T07:42:12.000Z</time></trkpt>
<trkpt lat="42.095207" lon="23.61631"><ele>2017.8</ele><time>2026-03-08T07:42:13.000Z</time></trkpt>
<trkpt lat="42.095208" lon="23.616307"><ele>2017.8</ele><time>2026-03-08T07:42:14.000Z</time></trkpt>
<trkpt lat="42.095209" lon="23.616303"><ele>2017.8</ele><time>2026-03-08T07:42:15.000Z</time></trkpt>
<trkpt lat="42.09521" lon="23.616299"><ele>2017.8</ele><time>2026-03-08T07:42:16.000Z</time></trkpt>
<trkpt lat="42.095211" lon="23.616297"><ele>2018</ele><time>2026-03-08T07:42:17.000Z</time></trkpt>
<trkpt lat="42.09521" lon="23.616295"><ele>2018</ele><time>2026-03-08T07:42:18.000Z</time></trkpt>
<trkpt lat="42.09521" lon="23.616293"><ele>2018</ele><time>2026-03-08T07:42:19.000Z</time></trkpt>
<trkpt lat="42.095209" lon="23.616293"><ele>2018</ele><time>2026-03-08T07:42:20.000Z</time></trkpt>
<trkpt lat="42.09521" lon="23.616292"><ele>2018</ele><time>2026-03-08T07:42:21.000Z</time></trkpt>
<trkpt lat="42.095213" lon="23.616289"><ele>2018.2</ele><time>2026-03-08T07:42:22.000Z</time></trkpt>
<trkpt lat="42.095216" lon="23.616285"><ele>2018.2</ele><time>2026-03-08T07:42:23.000Z</time></trkpt>
<trkpt lat="42.095221" lon="23.61628"><ele>2018.2</ele><time>2026-03-08T07:42:24.000Z</time></trkpt>
<trkpt lat="42.095226" lon="23.616273"><ele>2018.2</ele><time>2026-03-08T07:42:25.000Z</time></trkpt>
<trkpt lat="42.09523" lon="23.616265"><ele>2018.2</ele><time>2026-03-08T07:42:26.000Z</time></trkpt>
<trkpt lat="42.095234" lon="23.616258"><ele>2018.3</ele><time>2026-03-08T07:42:27.000Z</time></trkpt>
<trkpt lat="42.095239" lon="23.61625"><ele>2018.3</ele><time>2026-03-08T07:42:28.000Z</time></trkpt>
<trkpt lat="42.095243" lon="23.616243"><ele>2018.3</ele><time>2026-03-08T07:42:29.000Z</time></trkpt>
<trkpt lat="42.095247" lon="23.616238"><ele>2018.3</ele><time>2026-03-08T07:42:30.000Z</time></trkpt>
<trkpt lat="42.095252" lon="23.616233"><ele>2018.3</ele><time>2026-03-08T07:42:31.000Z</time></trkpt>
<trkpt lat="42.095257" lon="23.616228"><ele>2018.3</ele><time>2026-03-08T07:42:32.000Z</time></trkpt>
<trkpt lat="42.095263" lon="23.616224"><ele>2018.3</ele><time>2026-03-08T07:42:33.000Z</time></trkpt>
<trkpt lat="42.095269" lon="23.616218"><ele>2018.3</ele><time>2026-03-08T07:42:34.000Z</time></trkpt>
<trkpt lat="42.095275" lon="23.616212"><ele>2018.3</ele><time>2026-03-08T07:42:35.000Z</time></trkpt>
<trkpt lat="42.095282" lon="23.616207"><ele>2018.3</ele><time>2026-03-08T07:42:36.000Z</time></trkpt>
<trkpt lat="42.095287" lon="23.6162"><ele>2018.2</ele><time>2026-03-08T07:42:37.000Z</time></trkpt>
<trkpt lat="42.095292" lon="23.616195"><ele>2018.2</ele><time>2026-03-08T07:42:38.000Z</time></trkpt>
<trkpt lat="42.095297" lon="23.61619"><ele>2018.2</ele><time>2026-03-08T07:42:39.000Z</time></trkpt>
<trkpt lat="42.095301" lon="23.616185"><ele>2018.2</ele><time>2026-03-08T07:42:40.000Z</time></trkpt>
<trkpt lat="42.095304" lon="23.616181"><ele>2018.2</ele><time>2026-03-08T07:42:41.000Z</time></trkpt>
<trkpt lat="42.095308" lon="23.616175"><ele>2018.2</ele><time>2026-03-08T07:42:42.000Z</time></trkpt>
<trkpt lat="42.095312" lon="23.616169"><ele>2018.2</ele><time>2026-03-08T07:42:43.000Z</time></trkpt>
<trkpt lat="42.095317" lon="23.616162"><ele>2018.2</ele><time>2026-03-08T07:42:44.000Z</time></trkpt>
<trkpt lat="42.095322" lon="23.616154"><ele>2018.2</ele><time>2026-03-08T07:42:45.000Z</time></trkpt>
<trkpt lat="42.095327" lon="23.616144"><ele>2018.2</ele><time>2026-03-08T07:42:46.000Z</time></trkpt>
<trkpt lat="42.095333" lon="23.616135"><ele>2018.1</ele><time>2026-03-08T07:42:47.000Z</time></trkpt>
<trkpt lat="42.095339" lon="23.616125"><ele>2018.1</ele><time>2026-03-08T07:42:48.000Z</time></trkpt>
<trkpt lat="42.095344" lon="23.616116"><ele>2018.1</ele><time>2026-03-08T07:42:49.000Z</time></trkpt>
<trkpt lat="42.09535" lon="23.616106"><ele>2018.1</ele><time>2026-03-08T07:42:50.000Z</time></trkpt>
<trkpt lat="42.095355" lon="23.616096"><ele>2018.1</ele><time>2026-03-08T07:42:51.000Z</time></trkpt>
<trkpt lat="42.095361" lon="23.616087"><ele>2018.4</ele><time>2026-03-08T07:42:52.000Z</time></trkpt>
<trkpt lat="42.095367" lon="23.616079"><ele>2018.4</ele><time>2026-03-08T07:42:53.000Z</time></trkpt>
<trkpt lat="42.095374" lon="23.616071"><ele>2018.4</ele><time>2026-03-08T07:42:54.000Z</time></trkpt>
<trkpt lat="42.095381" lon="23.616064"><ele>2018.4</ele><time>2026-03-08T07:42:55.000Z</time></trkpt>
<trkpt lat="42.095389" lon="23.616058"><ele>2018.4</ele><time>2026-03-08T07:42:56.000Z</time></trkpt>
<trkpt lat="42.095396" lon="23.616052"><ele>2018.6</ele><time>2026-03-08T07:42:57.000Z</time></trkpt>
<trkpt lat="42.095402" lon="23.616046"><ele>2018.6</ele><time>2026-03-08T07:42:58.000Z</time></trkpt>
<trkpt lat="42.095408" lon="23.616039"><ele>2018.6</ele><time>2026-03-08T07:42:59.000Z</time></trkpt>
<trkpt lat="42.095413" lon="23.616031"><ele>2018.6</ele><time>2026-03-08T07:43:00.000Z</time></trkpt>
<trkpt lat="42.095418" lon="23.616023"><ele>2018.6</ele><time>2026-03-08T07:43:01.000Z</time></trkpt>
<trkpt lat="42.095425" lon="23.616014"><ele>2019.1</ele><time>2026-03-08T07:43:02.000Z</time></trkpt>
<trkpt lat="42.095432" lon="23.616005"><ele>2019.1</ele><time>2026-03-08T07:43:03.000Z</time></trkpt>
<trkpt lat="42.095439" lon="23.615995"><ele>2019.1</ele><time>2026-03-08T07:43:04.000Z</time></trkpt>
<trkpt lat="42.095447" lon="23.615987"><ele>2019.1</ele><time>2026-03-08T07:43:05.000Z</time></trkpt>
<trkpt lat="42.095456" lon="23.615978"><ele>2019.1</ele><time>2026-03-08T07:43:06.000Z</time></trkpt>
<trkpt lat="42.095464" lon="23.615971"><ele>2019.4</ele><time>2026-03-08T07:43:07.000Z</time></trkpt>
<trkpt lat="42.095471" lon="23.615964"><ele>2019.4</ele><time>2026-03-08T07:43:08.000Z</time></trkpt>
<trkpt lat="42.095478" lon="23.615958"><ele>2019.4</ele><time>2026-03-08T07:43:09.000Z</time></trkpt>
<trkpt lat="42.095485" lon="23.615952"><ele>2019.4</ele><time>2026-03-08T07:43:10.000Z</time></trkpt>
<trkpt lat="42.095491" lon="23.615947"><ele>2019.4</ele><time>2026-03-08T07:43:11.000Z</time></trkpt>
<trkpt lat="42.095497" lon="23.615942"><ele>2019.6</ele><time>2026-03-08T07:43:12.000Z</time></trkpt>
<trkpt lat="42.095503" lon="23.615938"><ele>2019.6</ele><time>2026-03-08T07:43:13.000Z</time></trkpt>
<trkpt lat="42.095509" lon="23.615934"><ele>2019.6</ele><time>2026-03-08T07:43:14.000Z</time></trkpt>
<trkpt lat="42.095515" lon="23.61593"><ele>2019.6</ele><time>2026-03-08T07:43:15.000Z</time></trkpt>
<trkpt lat="42.09552" lon="23.615925"><ele>2019.6</ele><time>2026-03-08T07:43:16.000Z</time></trkpt>
<trkpt lat="42.095524" lon="23.615921"><ele>2019.8</ele><time>2026-03-08T07:43:17.000Z</time></trkpt>
<trkpt lat="42.095529" lon="23.615916"><ele>2019.8</ele><time>2026-03-08T07:43:18.000Z</time></trkpt>
<trkpt lat="42.095533" lon="23.61591"><ele>2019.8</ele><time>2026-03-08T07:43:19.000Z</time></trkpt>
<trkpt lat="42.095539" lon="23.615906"><ele>2019.8</ele><time>2026-03-08T07:43:20.000Z</time></trkpt>
<trkpt lat="42.095545" lon="23.6159"><ele>2019.8</ele><time>2026-03-08T07:43:21.000Z</time></trkpt>
<trkpt lat="42.095551" lon="23.615895"><ele>2020.2</ele><time>2026-03-08T07:43:22.000Z</time></trkpt>
<trkpt lat="42.095557" lon="23.615889"><ele>2020.2</ele><time>2026-03-08T07:43:23.000Z</time></trkpt>
<trkpt lat="42.095563" lon="23.615885"><ele>2020.2</ele><time>2026-03-08T07:43:24.000Z</time></trkpt>
<trkpt lat="42.095569" lon="23.61588"><ele>2020.2</ele><time>2026-03-08T07:43:25.000Z</time></trkpt>
<trkpt lat="42.095575" lon="23.615876"><ele>2020.2</ele><time>2026-03-08T07:43:26.000Z</time></trkpt>
<trkpt lat="42.095581" lon="23.615872"><ele>2020.3</ele><time>2026-03-08T07:43:27.000Z</time></trkpt>
<trkpt lat="42.095587" lon="23.615868"><ele>2020.3</ele><time>2026-03-08T07:43:28.000Z</time></trkpt>
<trkpt lat="42.095592" lon="23.615863"><ele>2020.3</ele><time>2026-03-08T07:43:29.000Z</time></trkpt>
<trkpt lat="42.095596" lon="23.615858"><ele>2020.3</ele><time>2026-03-08T07:43:30.000Z</time></trkpt>
<trkpt lat="42.095599" lon="23.615852"><ele>2020.3</ele><time>2026-03-08T07:43:31.000Z</time></trkpt>
<trkpt lat="42.095601" lon="23.615847"><ele>2020.9</ele><time>2026-03-08T07:43:32.000Z</time></trkpt>
<trkpt lat="42.095602" lon="23.615843"><ele>2020.9</ele><time>2026-03-08T07:43:33.000Z</time></trkpt>
<trkpt lat="42.095602" lon="23.61584"><ele>2020.9</ele><time>2026-03-08T07:43:34.000Z</time></trkpt>
<trkpt lat="42.095602" lon="23.615838"><ele>2020.9</ele><time>2026-03-08T07:43:35.000Z</time></trkpt>
<trkpt lat="42.095601" lon="23.615837"><ele>2020.9</ele><time>2026-03-08T07:43:36.000Z</time></trkpt>
<trkpt lat="42.095601" lon="23.615836"><ele>2021.5</ele><time>2026-03-08T07:43:37.000Z</time></trkpt>
<trkpt lat="42.095601" lon="23.615835"><ele>2021.5</ele><time>2026-03-08T07:43:38.000Z</time></trkpt>
<trkpt lat="42.0956" lon="23.615835"><ele>2021.5</ele><time>2026-03-08T07:43:39.000Z</time></trkpt>
<trkpt lat="42.0956" lon="23.615834"><ele>2021.5</ele><time>2026-03-08T07:43:40.000Z</time></trkpt>
<trkpt lat="42.095601" lon="23.615834"><ele>2021.5</ele><time>2026-03-08T07:43:41.000Z</time></trkpt>
<trkpt lat="42.095601" lon="23.615834"><ele>2021.8</ele><time>2026-03-08T07:43:42.000Z</time></trkpt>
<trkpt lat="42.095601" lon="23.615834"><ele>2021.8</ele><time>2026-03-08T07:43:43.000Z</time></trkpt>
<trkpt lat="42.095601" lon="23.615834"><ele>2021.8</ele><time>2026-03-08T07:43:44.000Z</time></trkpt>
<trkpt lat="42.095602" lon="23.615834"><ele>2021.8</ele><time>2026-03-08T07:43:45.000Z</time></trkpt>
<trkpt lat="42.095605" lon="23.615833"><ele>2021.8</ele><time>2026-03-08T07:43:46.000Z</time></trkpt>
<trkpt lat="42.095608" lon="23.615831"><ele>2022.3</ele><time>2026-03-08T07:43:47.000Z</time></trkpt>
<trkpt lat="42.095612" lon="23.615828"><ele>2022.3</ele><time>2026-03-08T07:43:48.000Z</time></trkpt>
<trkpt lat="42.095619" lon="23.615824"><ele>2022.3</ele><time>2026-03-08T07:43:49.000Z</time></trkpt>
<trkpt lat="42.095626" lon="23.615821"><ele>2022.3</ele><time>2026-03-08T07:43:50.000Z</time></trkpt>
<trkpt lat="42.095633" lon="23.615818"><ele>2022.3</ele><time>2026-03-08T07:43:51.000Z</time></trkpt>
<trkpt lat="42.09564" lon="23.615815"><ele>2022.3</ele><time>2026-03-08T07:43:52.000Z</time></trkpt>
<trkpt lat="42.095648" lon="23.615812"><ele>2022.3</ele><time>2026-03-08T07:43:53.000Z</time></trkpt>
<trkpt lat="42.095656" lon="23.615808"><ele>2022.3</ele><time>2026-03-08T07:43:54.000Z</time></trkpt>
<trkpt lat="42.095663" lon="23.615804"><ele>2022.3</ele><time>2026-03-08T07:43:55.000Z</time></trkpt>
<trkpt lat="42.09567" lon="23.615799"><ele>2022.3</ele><time>2026-03-08T07:43:56.000Z</time></trkpt>
<trkpt lat="42.095678" lon="23.615795"><ele>2022.3</ele><time>2026-03-08T07:43:57.000Z</time></trkpt>
<trkpt lat="42.095684" lon="23.61579"><ele>2022.3</ele><time>2026-03-08T07:43:58.000Z</time></trkpt>
<trkpt lat="42.095688" lon="23.615787"><ele>2022.3</ele><time>2026-03-08T07:43:59.000Z</time></trkpt>
<trkpt lat="42.09569" lon="23.615783"><ele>2022.3</ele><time>2026-03-08T07:44:00.000Z</time></trkpt>
<trkpt lat="42.095691" lon="23.61578"><ele>2022.3</ele><time>2026-03-08T07:44:01.000Z</time></trkpt>
<trkpt lat="42.09569" lon="23.615777"><ele>2022.4</ele><time>2026-03-08T07:44:02.000Z</time></trkpt>
<trkpt lat="42.09569" lon="23.615772"><ele>2022.4</ele><time>2026-03-08T07:44:03.000Z</time></trkpt>
<trkpt lat="42.095691" lon="23.615767"><ele>2022.4</ele><time>2026-03-08T07:44:04.000Z</time></trkpt>
<trkpt lat="42.095692" lon="23.615759"><ele>2022.4</ele><time>2026-03-08T07:44:05.000Z</time></trkpt>
<trkpt lat="42.095694" lon="23.615749"><ele>2022.4</ele><time>2026-03-08T07:44:06.000Z</time></trkpt>
<trkpt lat="42.095697" lon="23.615737"><ele>2022.7</ele><time>2026-03-08T07:44:07.000Z</time></trkpt>
<trkpt lat="42.095699" lon="23.615726"><ele>2022.7</ele><time>2026-03-08T07:44:08.000Z</time></trkpt>
<trkpt lat="42.095701" lon="23.615712"><ele>2022.7</ele><time>2026-03-08T07:44:09.000Z</time></trkpt>
<trkpt lat="42.095702" lon="23.615699"><ele>2022.7</ele><time>2026-03-08T07:44:10.000Z</time></trkpt>
<trkpt lat="42.095706" lon="23.615685"><ele>2022.7</ele><time>2026-03-08T07:44:11.000Z</time></trkpt>
<trkpt lat="42.09571" lon="23.615672"><ele>2022.9</ele><time>2026-03-08T07:44:12.000Z</time></trkpt>
<trkpt lat="42.095716" lon="23.615658"><ele>2022.9</ele><time>2026-03-08T07:44:13.000Z</time></trkpt>
<trkpt lat="42.095722" lon="23.615646"><ele>2022.9</ele><time>2026-03-08T07:44:14.000Z</time></trkpt>
<trkpt lat="42.095728" lon="23.615636"><ele>2022.9</ele><time>2026-03-08T07:44:15.000Z</time></trkpt>
<trkpt lat="42.095734" lon="23.615628"><ele>2022.9</ele><time>2026-03-08T07:44:16.000Z</time></trkpt>
<trkpt lat="42.095739" lon="23.615621"><ele>2023.2</ele><time>2026-03-08T07:44:17.000Z</time></trkpt>
<trkpt lat="42.095744" lon="23.615615"><ele>2023.2</ele><time>2026-03-08T07:44:18.000Z</time></trkpt>
<trkpt lat="42.09575" lon="23.61561"><ele>2023.2</ele><time>2026-03-08T07:44:19.000Z</time></trkpt>
<trkpt lat="42.095755" lon="23.615604"><ele>2023.2</ele><time>2026-03-08T07:44:20.000Z</time></trkpt>
<trkpt lat="42.095759" lon="23.615598"><ele>2023.2</ele><time>2026-03-08T07:44:21.000Z</time></trkpt>
<trkpt lat="42.095764" lon="23.615591"><ele>2023.7</ele><time>2026-03-08T07:44:22.000Z</time></trkpt>
<trkpt lat="42.095767" lon="23.615584"><ele>2023.7</ele><time>2026-03-08T07:44:23.000Z</time></trkpt>
<trkpt lat="42.095771" lon="23.615576"><ele>2023.7</ele><time>2026-03-08T07:44:24.000Z</time></trkpt>
<trkpt lat="42.095774" lon="23.615567"><ele>2023.7</ele><time>2026-03-08T07:44:25.000Z</time></trkpt>
<trkpt lat="42.095778" lon="23.615558"><ele>2023.7</ele><time>2026-03-08T07:44:26.000Z</time></trkpt>
<trkpt lat="42.095783" lon="23.615549"><ele>2023.9</ele><time>2026-03-08T07:44:27.000Z</time></trkpt>
<trkpt lat="42.095788" lon="23.61554"><ele>2023.9</ele><time>2026-03-08T07:44:28.000Z</time></trkpt>
<trkpt lat="42.095793" lon="23.61553"><ele>2023.9</ele><time>2026-03-08T07:44:29.000Z</time></trkpt>
<trkpt lat="42.095798" lon="23.615521"><ele>2023.9</ele><time>2026-03-08T07:44:30.000Z</time></trkpt>
<trkpt lat="42.095804" lon="23.615513"><ele>2023.9</ele><time>2026-03-08T07:44:31.000Z</time></trkpt>
<trkpt lat="42.09581" lon="23.615505"><ele>2024.4</ele><time>2026-03-08T07:44:32.000Z</time></trkpt>
<trkpt lat="42.095815" lon="23.615497"><ele>2024.4</ele><time>2026-03-08T07:44:33.000Z</time></trkpt>
<trkpt lat="42.095821" lon="23.615488"><ele>2024.4</ele><time>2026-03-08T07:44:34.000Z</time></trkpt>
<trkpt lat="42.095827" lon="23.61548"><ele>2024.4</ele><time>2026-03-08T07:44:35.000Z</time></trkpt>
<trkpt lat="42.095832" lon="23.615471"><ele>2024.4</ele><time>2026-03-08T07:44:36.000Z</time></trkpt>
<trkpt lat="42.095837" lon="23.615463"><ele>2025</ele><time>2026-03-08T07:44:37.000Z</time></trkpt>
<trkpt lat="42.095841" lon="23.615455"><ele>2025</ele><time>2026-03-08T07:44:38.000Z</time></trkpt>
<trkpt lat="42.095846" lon="23.615447"><ele>2025</ele><time>2026-03-08T07:44:39.000Z</time></trkpt>
<trkpt lat="42.09585" lon="23.615438"><ele>2025</ele><time>2026-03-08T07:44:40.000Z</time></trkpt>
<trkpt lat="42.095853" lon="23.615429"><ele>2025</ele><time>2026-03-08T07:44:41.000Z</time></trkpt>
<trkpt lat="42.095857" lon="23.615419"><ele>2025.3</ele><time>2026-03-08T07:44:42.000Z</time></trkpt>
<trkpt lat="42.095862" lon="23.615408"><ele>2025.3</ele><time>2026-03-08T07:44:43.000Z</time></trkpt>
<trkpt lat="42.095866" lon="23.615396"><ele>2025.3</ele><time>2026-03-08T07:44:44.000Z</time></trkpt>
<trkpt lat="42.095871" lon="23.615384"><ele>2025.3</ele><time>2026-03-08T07:44:45.000Z</time></trkpt>
<trkpt lat="42.095876" lon="23.615372"><ele>2025.3</ele><time>2026-03-08T07:44:46.000Z</time></trkpt>
<trkpt lat="42.09588" lon="23.61536"><ele>2026</ele><time>2026-03-08T07:44:47.000Z</time></trkpt>
<trkpt lat="42.095885" lon="23.615348"><ele>2026</ele><time>2026-03-08T07:44:48.000Z</time></trkpt>
<trkpt lat="42.09589" lon="23.615337"><ele>2026</ele><time>2026-03-08T07:44:49.000Z</time></trkpt>
<trkpt lat="42.095895" lon="23.615326"><ele>2026</ele><time>2026-03-08T07:44:50.000Z</time></trkpt>
<trkpt lat="42.095901" lon="23.615315"><ele>2026</ele><time>2026-03-08T07:44:51.000Z</time></trkpt>
<trkpt lat="42.095906" lon="23.615305"><ele>2026.8</ele><time>2026-03-08T07:44:52.000Z</time></trkpt>
<trkpt lat="42.095912" lon="23.615296"><ele>2026.8</ele><time>2026-03-08T07:44:53.000Z</time></trkpt>
<trkpt lat="42.095916" lon="23.615287"><ele>2026.8</ele><time>2026-03-08T07:44:54.000Z</time></trkpt>
<trkpt lat="42.095921" lon="23.615278"><ele>2026.8</ele><time>2026-03-08T07:44:55.000Z</time></trkpt>
<trkpt lat="42.095925" lon="23.615267"><ele>2026.8</ele><time>2026-03-08T07:44:56.000Z</time></trkpt>
<trkpt lat="42.095929" lon="23.615258"><ele>2027.1</ele><time>2026-03-08T07:44:57.000Z</time></trkpt>
<trkpt lat="42.095933" lon="23.615248"><ele>2027.1</ele><time>2026-03-08T07:44:58.000Z</time></trkpt>
<trkpt lat="42.095938" lon="23.615237"><ele>2027.1</ele><time>2026-03-08T07:44:59.000Z</time></trkpt>
<trkpt lat="42.095944" lon="23.615226"><ele>2027.1</ele><time>2026-03-08T07:45:00.000Z</time></trkpt>
<trkpt lat="42.09595" lon="23.615216"><ele>2027.1</ele><time>2026-03-08T07:45:01.000Z</time></trkpt>
<trkpt lat="42.095956" lon="23.615206"><ele>2027.8</ele><time>2026-03-08T07:45:02.000Z</time></trkpt>
<trkpt lat="42.095962" lon="23.615197"><ele>2027.8</ele><time>2026-03-08T07:45:03.000Z</time></trkpt>
<trkpt lat="42.095968" lon="23.615189"><ele>2027.8</ele><time>2026-03-08T07:45:04.000Z</time></trkpt>
<trkpt lat="42.095974" lon="23.615182"><ele>2027.8</ele><time>2026-03-08T07:45:05.000Z</time></trkpt>
<trkpt lat="42.095979" lon="23.615176"><ele>2027.8</ele><time>2026-03-08T07:45:06.000Z</time></trkpt>
<trkpt lat="42.095985" lon="23.615169"><ele>2028.4</ele><time>2026-03-08T07:45:07.000Z</time></trkpt>
<trkpt lat="42.095991" lon="23.615164"><ele>2028.4</ele><time>2026-03-08T07:45:08.000Z</time></trkpt>
<trkpt lat="42.095996" lon="23.615159"><ele>2028.4</ele><time>2026-03-08T07:45:09.000Z</time></trkpt>
<trkpt lat="42.096003" lon="23.615153"><ele>2028.4</ele><time>2026-03-08T07:45:10.000Z</time></trkpt>
<trkpt lat="42.096011" lon="23.615146"><ele>2028.4</ele><time>2026-03-08T07:45:11.000Z</time></trkpt>
<trkpt lat="42.096018" lon="23.61514"><ele>2028.7</ele><time>2026-03-08T07:45:12.000Z</time></trkpt>
<trkpt lat="42.096025" lon="23.615133"><ele>2028.7</ele><time>2026-03-08T07:45:13.000Z</time></trkpt>
<trkpt lat="42.096032" lon="23.615126"><ele>2028.7</ele><time>2026-03-08T07:45:14.000Z</time></trkpt>
<trkpt lat="42.096039" lon="23.615118"><ele>2028.7</ele><time>2026-03-08T07:45:15.000Z</time></trkpt>
<trkpt lat="42.096046" lon="23.61511"><ele>2028.7</ele><time>2026-03-08T07:45:16.000Z</time></trkpt>
<trkpt lat="42.096053" lon="23.615101"><ele>2029.2</ele><time>2026-03-08T07:45:17.000Z</time></trkpt>
<trkpt lat="42.09606" lon="23.615092"><ele>2029.2</ele><time>2026-03-08T07:45:18.000Z</time></trkpt>
<trkpt lat="42.096068" lon="23.615082"><ele>2029.2</ele><time>2026-03-08T07:45:19.000Z</time></trkpt>
<trkpt lat="42.096077" lon="23.615073"><ele>2029.2</ele><time>2026-03-08T07:45:20.000Z</time></trkpt>
<trkpt lat="42.096085" lon="23.615065"><ele>2029.2</ele><time>2026-03-08T07:45:21.000Z</time></trkpt>
<trkpt lat="42.096093" lon="23.615057"><ele>2029.4</ele><time>2026-03-08T07:45:22.000Z</time></trkpt>
<trkpt lat="42.096101" lon="23.61505"><ele>2029.4</ele><time>2026-03-08T07:45:23.000Z</time></trkpt>
<trkpt lat="42.096109" lon="23.615044"><ele>2029.4</ele><time>2026-03-08T07:45:24.000Z</time></trkpt>
<trkpt lat="42.096116" lon="23.615038"><ele>2029.4</ele><time>2026-03-08T07:45:25.000Z</time></trkpt>
<trkpt lat="42.096124" lon="23.615032"><ele>2029.4</ele><time>2026-03-08T07:45:26.000Z</time></trkpt>
<trkpt lat="42.096132" lon="23.615025"><ele>2029.4</ele><time>2026-03-08T07:45:27.000Z</time></trkpt>
<trkpt lat="42.096139" lon="23.615018"><ele>2029.4</ele><time>2026-03-08T07:45:28.000Z</time></trkpt>
<trkpt lat="42.096145" lon="23.615011"><ele>2029.4</ele><time>2026-03-08T07:45:29.000Z</time></trkpt>
<trkpt lat="42.096152" lon="23.615003"><ele>2029.4</ele><time>2026-03-08T07:45:30.000Z</time></trkpt>
<trkpt lat="42.096158" lon="23.614997"><ele>2029.4</ele><time>2026-03-08T07:45:31.000Z</time></trkpt>
<trkpt lat="42.096165" lon="23.61499"><ele>2029.3</ele><time>2026-03-08T07:45:32.000Z</time></trkpt>
<trkpt lat="42.096172" lon="23.614984"><ele>2029.3</ele><time>2026-03-08T07:45:33.000Z</time></trkpt>
<trkpt lat="42.096179" lon="23.614978"><ele>2029.3</ele><time>2026-03-08T07:45:34.000Z</time></trkpt>
<trkpt lat="42.096186" lon="23.614971"><ele>2029.3</ele><time>2026-03-08T07:45:35.000Z</time></trkpt>
<trkpt lat="42.096194" lon="23.614964"><ele>2029.3</ele><time>2026-03-08T07:45:36.000Z</time></trkpt>
<trkpt lat="42.096201" lon="23.614958"><ele>2029.3</ele><time>2026-03-08T07:45:37.000Z</time></trkpt>
<trkpt lat="42.09621" lon="23.614952"><ele>2029.3</ele><time>2026-03-08T07:45:38.000Z</time></trkpt>
<trkpt lat="42.096218" lon="23.614946"><ele>2029.3</ele><time>2026-03-08T07:45:39.000Z</time></trkpt>
<trkpt lat="42.096226" lon="23.614939"><ele>2029.3</ele><time>2026-03-08T07:45:40.000Z</time></trkpt>
<trkpt lat="42.096234" lon="23.614934"><ele>2029.3</ele><time>2026-03-08T07:45:41.000Z</time></trkpt>
<trkpt lat="42.096242" lon="23.614928"><ele>2029.4</ele><time>2026-03-08T07:45:42.000Z</time></trkpt>
<trkpt lat="42.09625" lon="23.614922"><ele>2029.4</ele><time>2026-03-08T07:45:43.000Z</time></trkpt>
<trkpt lat="42.096258" lon="23.614916"><ele>2029.4</ele><time>2026-03-08T07:45:44.000Z</time></trkpt>
<trkpt lat="42.096265" lon="23.614911"><ele>2029.4</ele><time>2026-03-08T07:45:45.000Z</time></trkpt>
<trkpt lat="42.096273" lon="23.614905"><ele>2029.4</ele><time>2026-03-08T07:45:46.000Z</time></trkpt>
<trkpt lat="42.09628" lon="23.614899"><ele>2029.9</ele><time>2026-03-08T07:45:47.000Z</time></trkpt>
<trkpt lat="42.096286" lon="23.614892"><ele>2029.9</ele><time>2026-03-08T07:45:48.000Z</time></trkpt>
<trkpt lat="42.096292" lon="23.614886"><ele>2029.9</ele><time>2026-03-08T07:45:49.000Z</time></trkpt>
<trkpt lat="42.096299" lon="23.614879"><ele>2029.9</ele><time>2026-03-08T07:45:50.000Z</time></trkpt>
<trkpt lat="42.096305" lon="23.614873"><ele>2029.9</ele><time>2026-03-08T07:45:51.000Z</time></trkpt>
<trkpt lat="42.096312" lon="23.614867"><ele>2030.6</ele><time>2026-03-08T07:45:52.000Z</time></trkpt>
<trkpt lat="42.09632" lon="23.614861"><ele>2030.6</ele><time>2026-03-08T07:45:53.000Z</time></trkpt>
<trkpt lat="42.096328" lon="23.614855"><ele>2030.6</ele><time>2026-03-08T07:45:54.000Z</time></trkpt>
<trkpt lat="42.096336" lon="23.614849"><ele>2030.6</ele><time>2026-03-08T07:45:55.000Z</time></trkpt>
<trkpt lat="42.096345" lon="23.614843"><ele>2030.6</ele><time>2026-03-08T07:45:56.000Z</time></trkpt>
<trkpt lat="42.096353" lon="23.614836"><ele>2030.9</ele><time>2026-03-08T07:45:57.000Z</time></trkpt>
<trkpt lat="42.096361" lon="23.614829"><ele>2030.9</ele><time>2026-03-08T07:45:58.000Z</time></trkpt>
<trkpt lat="42.09637" lon="23.614822"><ele>2030.9</ele><time>2026-03-08T07:45:59.000Z</time></trkpt>
<trkpt lat="42.096378" lon="23.614814"><ele>2030.9</ele><time>2026-03-08T07:46:00.000Z</time></trkpt>
<trkpt lat="42.096385" lon="23.614806"><ele>2030.9</ele><time>2026-03-08T07:46:01.000Z</time></trkpt>
<trkpt lat="42.096392" lon="23.614797"><ele>2031.3</ele><time>2026-03-08T07:46:02.000Z</time></trkpt>
<trkpt lat="42.0964" lon="23.614788"><ele>2031.3</ele><time>2026-03-08T07:46:03.000Z</time></trkpt>
<trkpt lat="42.096407" lon="23.614781"><ele>2031.3</ele><time>2026-03-08T07:46:04.000Z</time></trkpt>
<trkpt lat="42.096415" lon="23.614774"><ele>2031.3</ele><time>2026-03-08T07:46:05.000Z</time></trkpt>
<trkpt lat="42.096423" lon="23.614768"><ele>2031.3</ele><time>2026-03-08T07:46:06.000Z</time></trkpt>
<trkpt lat="42.096431" lon="23.614762"><ele>2031.6</ele><time>2026-03-08T07:46:07.000Z</time></trkpt>
<trkpt lat="42.096439" lon="23.614756"><ele>2031.6</ele><time>2026-03-08T07:46:08.000Z</time></trkpt>
<trkpt lat="42.096447" lon="23.614749"><ele>2031.6</ele><time>2026-03-08T07:46:09.000Z</time></trkpt>
<trkpt lat="42.096454" lon="23.614742"><ele>2031.6</ele><time>2026-03-08T07:46:10.000Z</time></trkpt>
<trkpt lat="42.096461" lon="23.614733"><ele>2031.6</ele><time>2026-03-08T07:46:11.000Z</time></trkpt>
<trkpt lat="42.096468" lon="23.614724"><ele>2031.8</ele><time>2026-03-08T07:46:12.000Z</time></trkpt>
<trkpt lat="42.096476" lon="23.614715"><ele>2031.8</ele><time>2026-03-08T07:46:13.000Z</time></trkpt>
<trkpt lat="42.096483" lon="23.614706"><ele>2031.8</ele><time>2026-03-08T07:46:14.000Z</time></trkpt>
<trkpt lat="42.096491" lon="23.614699"><ele>2031.8</ele><time>2026-03-08T07:46:15.000Z</time></trkpt>
<trkpt lat="42.0965" lon="23.614691"><ele>2031.8</ele><time>2026-03-08T07:46:16.000Z</time></trkpt>
<trkpt lat="42.096509" lon="23.614684"><ele>2032.3</ele><time>2026-03-08T07:46:17.000Z</time></trkpt>
<trkpt lat="42.096516" lon="23.614677"><ele>2032.3</ele><time>2026-03-08T07:46:18.000Z</time></trkpt>
<trkpt lat="42.096523" lon="23.61467"><ele>2032.3</ele><time>2026-03-08T07:46:19.000Z</time></trkpt>
<trkpt lat="42.09653" lon="23.614663"><ele>2032.3</ele><time>2026-03-08T07:46:20.000Z</time></trkpt>
<trkpt lat="42.096537" lon="23.614655"><ele>2032.3</ele><time>2026-03-08T07:46:21.000Z</time></trkpt>
<trkpt lat="42.096543" lon="23.614646"><ele>2032.6</ele><time>2026-03-08T07:46:22.000Z</time></trkpt>
<trkpt lat="42.09655" lon="23.614638"><ele>2032.6</ele><time>2026-03-08T07:46:23.000Z</time></trkpt>
<trkpt lat="42.096557" lon="23.61463"><ele>2032.6</ele><time>2026-03-08T07:46:24.000Z</time></trkpt>
<trkpt lat="42.096564" lon="23.614621"><ele>2032.6</ele><time>2026-03-08T07:46:25.000Z</time></trkpt>
<trkpt lat="42.096571" lon="23.614612"><ele>2032.6</ele><time>2026-03-08T07:46:26.000Z</time></trkpt>
<trkpt lat="42.096578" lon="23.614604"><ele>2032.7</ele><time>2026-03-08T07:46:27.000Z</time></trkpt>
<trkpt lat="42.096585" lon="23.614596"><ele>2032.7</ele><time>2026-03-08T07:46:28.000Z</time></trkpt>
<trkpt lat="42.096593" lon="23.614587"><ele>2032.7</ele><time>2026-03-08T07:46:29.000Z</time></trkpt>
<trkpt lat="42.096601" lon="23.614579"><ele>2032.7</ele><time>2026-03-08T07:46:30.000Z</time></trkpt>
<trkpt lat="42.096609" lon="23.614571"><ele>2032.7</ele><time>2026-03-08T07:46:31.000Z</time></trkpt>
<trkpt lat="42.096618" lon="23.614563"><ele>2032.8</ele><time>2026-03-08T07:46:32.000Z</time></trkpt>
<trkpt lat="42.096627" lon="23.614557"><ele>2032.8</ele><time>2026-03-08T07:46:33.000Z</time></trkpt>
<trkpt lat="42.096634" lon="23.614549"><ele>2032.8</ele><time>2026-03-08T07:46:34.000Z</time></trkpt>
<trkpt lat="42.096642" lon="23.614542"><ele>2032.8</ele><time>2026-03-08T07:46:35.000Z</time></trkpt>
<trkpt lat="42.09665" lon="23.614536"><ele>2032.8</ele><time>2026-03-08T07:46:36.000Z</time></trkpt>
<trkpt lat="42.096657" lon="23.614528"><ele>2032.9</ele><time>2026-03-08T07:46:37.000Z</time></trkpt>
<trkpt lat="42.096664" lon="23.61452"><ele>2032.9</ele><time>2026-03-08T07:46:38.000Z</time></trkpt>
<trkpt lat="42.096671" lon="23.614512"><ele>2032.9</ele><time>2026-03-08T07:46:39.000Z</time></trkpt>
<trkpt lat="42.096677" lon="23.614503"><ele>2032.9</ele><time>2026-03-08T07:46:40.000Z</time></trkpt>
<trkpt lat="42.096684" lon="23.614495"><ele>2032.9</ele><time>2026-03-08T07:46:41.000Z</time></trkpt>
<trkpt lat="42.09669" lon="23.614486"><ele>2033</ele><time>2026-03-08T07:46:42.000Z</time></trkpt>
<trkpt lat="42.096696" lon="23.614477"><ele>2033</ele><time>2026-03-08T07:46:43.000Z</time></trkpt>
<trkpt lat="42.096702" lon="23.614469"><ele>2033</ele><time>2026-03-08T07:46:44.000Z</time></trkpt>
<trkpt lat="42.096708" lon="23.61446"><ele>2033</ele><time>2026-03-08T07:46:45.000Z</time></trkpt>
<trkpt lat="42.096715" lon="23.614451"><ele>2033</ele><time>2026-03-08T07:46:46.000Z</time></trkpt>
<trkpt lat="42.096722" lon="23.614442"><ele>2033.2</ele><time>2026-03-08T07:46:47.000Z</time></trkpt>
<trkpt lat="42.096728" lon="23.614433"><ele>2033.2</ele><time>2026-03-08T07:46:48.000Z</time></trkpt>
<trkpt lat="42.096734" lon="23.614425"><ele>2033.2</ele><time>2026-03-08T07:46:49.000Z</time></trkpt>
<trkpt lat="42.096741" lon="23.614417"><ele>2033.2</ele><time>2026-03-08T07:46:50.000Z</time></trkpt>
<trkpt lat="42.096747" lon="23.614409"><ele>2033.2</ele><time>2026-03-08T07:46:51.000Z</time></trkpt>
<trkpt lat="42.096753" lon="23.614403"><ele>2033.4</ele><time>2026-03-08T07:46:52.000Z</time></trkpt>
<trkpt lat="42.09676" lon="23.614395"><ele>2033.4</ele><time>2026-03-08T07:46:53.000Z</time></trkpt>
<trkpt lat="42.096768" lon="23.614389"><ele>2033.4</ele><time>2026-03-08T07:46:54.000Z</time></trkpt>
<trkpt lat="42.096775" lon="23.614382"><ele>2033.4</ele><time>2026-03-08T07:46:55.000Z</time></trkpt>
<trkpt lat="42.096782" lon="23.614376"><ele>2033.4</ele><time>2026-03-08T07:46:56.000Z</time></trkpt>
<trkpt lat="42.09679" lon="23.614371"><ele>2033.5</ele><time>2026-03-08T07:46:57.000Z</time></trkpt>
<trkpt lat="42.096797" lon="23.614365"><ele>2033.5</ele><time>2026-03-08T07:46:58.000Z</time></trkpt>
<trkpt lat="42.096805" lon="23.614359"><ele>2033.5</ele><time>2026-03-08T07:46:59.000Z</time></trkpt>
<trkpt lat="42.096812" lon="23.614351"><ele>2033.5</ele><time>2026-03-08T07:47:00.000Z</time></trkpt>
<trkpt lat="42.096819" lon="23.614343"><ele>2033.5</ele><time>2026-03-08T07:47:01.000Z</time></trkpt>
<trkpt lat="42.096827" lon="23.614334"><ele>2033.7</ele><time>2026-03-08T07:47:02.000Z</time></trkpt>
<trkpt lat="42.096834" lon="23.614325"><ele>2033.7</ele><time>2026-03-08T07:47:03.000Z</time></trkpt>
<trkpt lat="42.096841" lon="23.614316"><ele>2033.7</ele><time>2026-03-08T07:47:04.000Z</time></trkpt>
<trkpt lat="42.096848" lon="23.614306"><ele>2033.7</ele><time>2026-03-08T07:47:05.000Z</time></trkpt>
<trkpt lat="42.096854" lon="23.614296"><ele>2033.7</ele><time>2026-03-08T07:47:06.000Z</time></trkpt>
<trkpt lat="42.096861" lon="23.614286"><ele>2034</ele><time>2026-03-08T07:47:07.000Z</time></trkpt>
<trkpt lat="42.096866" lon="23.614277"><ele>2034</ele><time>2026-03-08T07:47:08.000Z</time></trkpt>
<trkpt lat="42.096872" lon="23.614268"><ele>2034</ele><time>2026-03-08T07:47:09.000Z</time></trkpt>
<trkpt lat="42.096878" lon="23.614259"><ele>2034</ele><time>2026-03-08T07:47:10.000Z</time></trkpt>
<trkpt lat="42.096883" lon="23.614251"><ele>2034</ele><time>2026-03-08T07:47:11.000Z</time></trkpt>
<trkpt lat="42.096889" lon="23.614242"><ele>2034.2</ele><time>2026-03-08T07:47:12.000Z</time></trkpt>
<trkpt lat="42.096896" lon="23.614233"><ele>2034.2</ele><time>2026-03-08T07:47:13.000Z</time></trkpt>
<trkpt lat="42.096903" lon="23.614226"><ele>2034.2</ele><time>2026-03-08T07:47:14.000Z</time></trkpt>
<trkpt lat="42.096911" lon="23.61422"><ele>2034.2</ele><time>2026-03-08T07:47:15.000Z</time></trkpt>
<trkpt lat="42.096919" lon="23.614213"><ele>2034.2</ele><time>2026-03-08T07:47:16.000Z</time></trkpt>
<trkpt lat="42.096928" lon="23.614207"><ele>2034.6</ele><time>2026-03-08T07:47:17.000Z</time></trkpt>
<trkpt lat="42.096936" lon="23.614201"><ele>2034.6</ele><time>2026-03-08T07:47:18.000Z</time></trkpt>
<trkpt lat="42.096944" lon="23.614195"><ele>2034.6</ele><time>2026-03-08T07:47:19.000Z</time></trkpt>
<trkpt lat="42.096952" lon="23.614189"><ele>2034.6</ele><time>2026-03-08T07:47:20.000Z</time></trkpt>
<trkpt lat="42.09696" lon="23.614183"><ele>2034.6</ele><time>2026-03-08T07:47:21.000Z</time></trkpt>
<trkpt lat="42.096967" lon="23.614177"><ele>2035.2</ele><time>2026-03-08T07:47:22.000Z</time></trkpt>
<trkpt lat="42.096975" lon="23.614172"><ele>2035.2</ele><time>2026-03-08T07:47:23.000Z</time></trkpt>
<trkpt lat="42.096983" lon="23.614166"><ele>2035.2</ele><time>2026-03-08T07:47:24.000Z</time></trkpt>
<trkpt lat="42.096992" lon="23.61416"><ele>2035.2</ele><time>2026-03-08T07:47:25.000Z</time></trkpt>
<trkpt lat="42.097001" lon="23.614154"><ele>2035.2</ele><time>2026-03-08T07:47:26.000Z</time></trkpt>
<trkpt lat="42.097009" lon="23.614149"><ele>2035.4</ele><time>2026-03-08T07:47:27.000Z</time></trkpt>
<trkpt lat="42.097018" lon="23.614143"><ele>2035.4</ele><time>2026-03-08T07:47:28.000Z</time></trkpt>
<trkpt lat="42.097026" lon="23.614138"><ele>2035.4</ele><time>2026-03-08T07:47:29.000Z</time></trkpt>
<trkpt lat="42.097033" lon="23.614132"><ele>2035.4</ele><time>2026-03-08T07:47:30.000Z</time></trkpt>
<trkpt lat="42.097041" lon="23.614126"><ele>2035.4</ele><time>2026-03-08T07:47:31.000Z</time></trkpt>
<trkpt lat="42.097049" lon="23.61412"><ele>2035.8</ele><time>2026-03-08T07:47:32.000Z</time></trkpt>
<trkpt lat="42.097057" lon="23.614113"><ele>2035.8</ele><time>2026-03-08T07:47:33.000Z</time></trkpt>
<trkpt lat="42.097064" lon="23.614107"><ele>2035.8</ele><time>2026-03-08T07:47:34.000Z</time></trkpt>
<trkpt lat="42.097072" lon="23.6141"><ele>2035.8</ele><time>2026-03-08T07:47:35.000Z</time></trkpt>
<trkpt lat="42.097079" lon="23.614093"><ele>2035.8</ele><time>2026-03-08T07:47:36.000Z</time></trkpt>
<trkpt lat="42.097086" lon="23.614085"><ele>2035.9</ele><time>2026-03-08T07:47:37.000Z</time></trkpt>
<trkpt lat="42.097092" lon="23.614078"><ele>2035.9</ele><time>2026-03-08T07:47:38.000Z</time></trkpt>
<trkpt lat="42.097099" lon="23.614071"><ele>2035.9</ele><time>2026-03-08T07:47:39.000Z</time></trkpt>
<trkpt lat="42.097105" lon="23.614064"><ele>2035.9</ele><time>2026-03-08T07:47:40.000Z</time></trkpt>
<trkpt lat="42.097112" lon="23.614058"><ele>2035.9</ele><time>2026-03-08T07:47:41.000Z</time></trkpt>
<trkpt lat="42.097118" lon="23.614053"><ele>2036</ele><time>2026-03-08T07:47:42.000Z</time></trkpt>
<trkpt lat="42.097125" lon="23.614047"><ele>2036</ele><time>2026-03-08T07:47:43.000Z</time></trkpt>
<trkpt lat="42.097131" lon="23.614041"><ele>2036</ele><time>2026-03-08T07:47:44.000Z</time></trkpt>
<trkpt lat="42.097136" lon="23.614035"><ele>2036</ele><time>2026-03-08T07:47:45.000Z</time></trkpt>
<trkpt lat="42.097141" lon="23.614028"><ele>2036</ele><time>2026-03-08T07:47:46.000Z</time></trkpt>
<trkpt lat="42.097146" lon="23.61402"><ele>2036.2</ele><time>2026-03-08T07:47:47.000Z</time></trkpt>
<trkpt lat="42.097151" lon="23.614013"><ele>2036.2</ele><time>2026-03-08T07:47:48.000Z</time></trkpt>
<trkpt lat="42.097157" lon="23.614005"><ele>2036.2</ele><time>2026-03-08T07:47:49.000Z</time></trkpt>
<trkpt lat="42.097163" lon="23.613996"><ele>2036.2</ele><time>2026-03-08T07:47:50.000Z</time></trkpt>
<trkpt lat="42.097169" lon="23.613988"><ele>2036.2</ele><time>2026-03-08T07:47:51.000Z</time></trkpt>
<trkpt lat="42.097176" lon="23.61398"><ele>2036.6</ele><time>2026-03-08T07:47:52.000Z</time></trkpt>
<trkpt lat="42.097183" lon="23.613971"><ele>2036.6</ele><time>2026-03-08T07:47:53.000Z</time></trkpt>
<trkpt lat="42.09719" lon="23.613963"><ele>2036.6</ele><time>2026-03-08T07:47:54.000Z</time></trkpt>
<trkpt lat="42.097196" lon="23.613954"><ele>2036.6</ele><time>2026-03-08T07:47:55.000Z</time></trkpt>
<trkpt lat="42.097202" lon="23.613946"><ele>2036.6</ele><time>2026-03-08T07:47:56.000Z</time></trkpt>
<trkpt lat="42.097207" lon="23.613938"><ele>2036.9</ele><time>2026-03-08T07:47:57.000Z</time></trkpt>
<trkpt lat="42.097211" lon="23.613929"><ele>2036.9</ele><time>2026-03-08T07:47:58.000Z</time></trkpt>
<trkpt lat="42.097216" lon="23.61392"><ele>2036.9</ele><time>2026-03-08T07:47:59.000Z</time></trkpt>
<trkpt lat="42.097221" lon="23.613911"><ele>2036.9</ele><time>2026-03-08T07:48:00.000Z</time></trkpt>
<trkpt lat="42.097226" lon="23.613903"><ele>2036.9</ele><time>2026-03-08T07:48:01.000Z</time></trkpt>
<trkpt lat="42.097231" lon="23.613894"><ele>2037.5</ele><time>2026-03-08T07:48:02.000Z</time></trkpt>
<trkpt lat="42.097237" lon="23.613886"><ele>2037.5</ele><time>2026-03-08T07:48:03.000Z</time></trkpt>
<trkpt lat="42.097244" lon="23.613877"><ele>2037.5</ele><time>2026-03-08T07:48:04.000Z</time></trkpt>
<trkpt lat="42.097251" lon="23.613868"><ele>2037.5</ele><time>2026-03-08T07:48:05.000Z</time></trkpt>
<trkpt lat="42.097259" lon="23.61386"><ele>2037.5</ele><time>2026-03-08T07:48:06.000Z</time></trkpt>
<trkpt lat="42.097267" lon="23.61385"><ele>2037.9</ele><time>2026-03-08T07:48:07.000Z</time></trkpt>
<trkpt lat="42.097275" lon="23.613841"><ele>2037.9</ele><time>2026-03-08T07:48:08.000Z</time></trkpt>
<trkpt lat="42.097282" lon="23.613833"><ele>2037.9</ele><time>2026-03-08T07:48:09.000Z</time></trkpt>
<trkpt lat="42.097289" lon="23.613825"><ele>2037.9</ele><time>2026-03-08T07:48:10.000Z</time></trkpt>
<trkpt lat="42.097296" lon="23.613818"><ele>2037.9</ele><time>2026-03-08T07:48:11.000Z</time></trkpt>
<trkpt lat="42.097302" lon="23.613811"><ele>2038.1</ele><time>2026-03-08T07:48:12.000Z</time></trkpt>
<trkpt lat="42.097307" lon="23.613804"><ele>2038.1</ele><time>2026-03-08T07:48:13.000Z</time></trkpt>
<trkpt lat="42.097312" lon="23.613799"><ele>2038.1</ele><time>2026-03-08T07:48:14.000Z</time></trkpt>
<trkpt lat="42.097316" lon="23.613793"><ele>2038.1</ele><time>2026-03-08T07:48:15.000Z</time></trkpt>
<trkpt lat="42.09732" lon="23.613787"><ele>2038.1</ele><time>2026-03-08T07:48:16.000Z</time></trkpt>
<trkpt lat="42.097324" lon="23.613781"><ele>2038.3</ele><time>2026-03-08T07:48:17.000Z</time></trkpt>
<trkpt lat="42.097329" lon="23.613775"><ele>2038.3</ele><time>2026-03-08T07:48:18.000Z</time></trkpt>
<trkpt lat="42.097335" lon="23.613767"><ele>2038.3</ele><time>2026-03-08T07:48:19.000Z</time></trkpt>
<trkpt lat="42.097341" lon="23.61376"><ele>2038.3</ele><time>2026-03-08T07:48:20.000Z</time></trkpt>
<trkpt lat="42.097347" lon="23.613754"><ele>2038.3</ele><time>2026-03-08T07:48:21.000Z</time></trkpt>
<trkpt lat="42.097354" lon="23.613749"><ele>2038.6</ele><time>2026-03-08T07:48:22.000Z</time></trkpt>
<trkpt lat="42.097361" lon="23.613745"><ele>2038.6</ele><time>2026-03-08T07:48:23.000Z</time></trkpt>
<trkpt lat="42.097369" lon="23.613742"><ele>2038.6</ele><time>2026-03-08T07:48:24.000Z</time></trkpt>
<trkpt lat="42.097375" lon="23.613738"><ele>2038.6</ele><time>2026-03-08T07:48:25.000Z</time></trkpt>
<trkpt lat="42.097381" lon="23.613734"><ele>2038.6</ele><time>2026-03-08T07:48:26.000Z</time></trkpt>
<trkpt lat="42.097386" lon="23.613728"><ele>2038.8</ele><time>2026-03-08T07:48:27.000Z</time></trkpt>
<trkpt lat="42.097392" lon="23.613722"><ele>2038.8</ele><time>2026-03-08T07:48:28.000Z</time></trkpt>
<trkpt lat="42.097398" lon="23.613716"><ele>2038.8</ele><time>2026-03-08T07:48:29.000Z</time></trkpt>
<trkpt lat="42.097405" lon="23.613709"><ele>2038.8</ele><time>2026-03-08T07:48:30.000Z</time></trkpt>
<trkpt lat="42.097413" lon="23.613702"><ele>2038.8</ele><time>2026-03-08T07:48:31.000Z</time></trkpt>
<trkpt lat="42.097421" lon="23.613695"><ele>2039.4</ele><time>2026-03-08T07:48:32.000Z</time></trkpt>
<trkpt lat="42.097429" lon="23.613687"><ele>2039.4</ele><time>2026-03-08T07:48:33.000Z</time></trkpt>
<trkpt lat="42.097436" lon="23.613679"><ele>2039.4</ele><time>2026-03-08T07:48:34.000Z</time></trkpt>
<trkpt lat="42.097444" lon="23.613672"><ele>2039.4</ele><time>2026-03-08T07:48:35.000Z</time></trkpt>
<trkpt lat="42.097452" lon="23.613663"><ele>2039.4</ele><time>2026-03-08T07:48:36.000Z</time></trkpt>
<trkpt lat="42.097459" lon="23.613655"><ele>2039.9</ele><time>2026-03-08T07:48:37.000Z</time></trkpt>
<trkpt lat="42.097467" lon="23.613646"><ele>2039.9</ele><time>2026-03-08T07:48:38.000Z</time></trkpt>
<trkpt lat="42.097474" lon="23.613638"><ele>2039.9</ele><time>2026-03-08T07:48:39.000Z</time></trkpt>
<trkpt lat="42.097481" lon="23.613631"><ele>2039.9</ele><time>2026-03-08T07:48:40.000Z</time></trkpt>
<trkpt lat="42.097487" lon="23.613624"><ele>2039.9</ele><time>2026-03-08T07:48:41.000Z</time></trkpt>
<trkpt lat="42.097494" lon="23.613617"><ele>2040.1</ele><time>2026-03-08T07:48:42.000Z</time></trkpt>
<trkpt lat="42.097502" lon="23.61361"><ele>2040.1</ele><time>2026-03-08T07:48:43.000Z</time></trkpt>
<trkpt lat="42.09751" lon="23.613602"><ele>2040.1</ele><time>2026-03-08T07:48:44.000Z</time></trkpt>
<trkpt lat="42.097518" lon="23.613593"><ele>2040.1</ele><time>2026-03-08T07:48:45.000Z</time></trkpt>
<trkpt lat="42.097527" lon="23.613585"><ele>2040.1</ele><time>2026-03-08T07:48:46.000Z</time></trkpt>
<trkpt lat="42.097535" lon="23.613576"><ele>2040.5</ele><time>2026-03-08T07:48:47.000Z</time></trkpt>
<trkpt lat="42.097543" lon="23.613568"><ele>2040.5</ele><time>2026-03-08T07:48:48.000Z</time></trkpt>
<trkpt lat="42.09755" lon="23.613559"><ele>2040.5</ele><time>2026-03-08T07:48:49.000Z</time></trkpt>
<trkpt lat="42.097558" lon="23.613552"><ele>2040.5</ele><time>2026-03-08T07:48:50.000Z</time></trkpt>
<trkpt lat="42.097564" lon="23.613545"><ele>2040.5</ele><time>2026-03-08T07:48:51.000Z</time></trkpt>
<trkpt lat="42.09757" lon="23.613538"><ele>2041</ele><time>2026-03-08T07:48:52.000Z</time></trkpt>
<trkpt lat="42.097574" lon="23.613532"><ele>2041</ele><time>2026-03-08T07:48:53.000Z</time></trkpt>
<trkpt lat="42.097579" lon="23.613526"><ele>2041</ele><time>2026-03-08T07:48:54.000Z</time></trkpt>
<trkpt lat="42.097583" lon="23.613519"><ele>2041</ele><time>2026-03-08T07:48:55.000Z</time></trkpt>
<trkpt lat="42.097588" lon="23.613513"><ele>2041</ele><time>2026-03-08T07:48:56.000Z</time></trkpt>
<trkpt lat="42.097592" lon="23.613507"><ele>2041.2</ele><time>2026-03-08T07:48:57.000Z</time></trkpt>
<trkpt lat="42.097596" lon="23.6135"><ele>2041.2</ele><time>2026-03-08T07:48:58.000Z</time></trkpt>
<trkpt lat="42.097601" lon="23.613493"><ele>2041.2</ele><time>2026-03-08T07:48:59.000Z</time></trkpt>
<trkpt lat="42.097605" lon="23.613487"><ele>2041.2</ele><time>2026-03-08T07:49:00.000Z</time></trkpt>
<trkpt lat="42.09761" lon="23.613479"><ele>2041.2</ele><time>2026-03-08T07:49:01.000Z</time></trkpt>
<trkpt lat="42.097615" lon="23.613471"><ele>2041.7</ele><time>2026-03-08T07:49:02.000Z</time></trkpt>
<trkpt lat="42.09762" lon="23.613463"><ele>2041.7</ele><time>2026-03-08T07:49:03.000Z</time></trkpt>
<trkpt lat="42.097625" lon="23.613455"><ele>2041.7</ele><time>2026-03-08T07:49:04.000Z</time></trkpt>
<trkpt lat="42.097631" lon="23.613447"><ele>2041.7</ele><time>2026-03-08T07:49:05.000Z</time></trkpt>
<trkpt lat="42.097636" lon="23.613437"><ele>2041.7</ele><time>2026-03-08T07:49:06.000Z</time></trkpt>
<trkpt lat="42.097643" lon="23.613426"><ele>2042.4</ele><time>2026-03-08T07:49:07.000Z</time></trkpt>
<trkpt lat="42.097649" lon="23.613415"><ele>2042.4</ele><time>2026-03-08T07:49:08.000Z</time></trkpt>
<trkpt lat="42.097656" lon="23.613404"><ele>2042.4</ele><time>2026-03-08T07:49:09.000Z</time></trkpt>
<trkpt lat="42.097663" lon="23.613394"><ele>2042.4</ele><time>2026-03-08T07:49:10.000Z</time></trkpt>
<trkpt lat="42.097672" lon="23.613385"><ele>2042.4</ele><time>2026-03-08T07:49:11.000Z</time></trkpt>
<trkpt lat="42.09768" lon="23.613376"><ele>2042.8</ele><time>2026-03-08T07:49:12.000Z</time></trkpt>
<trkpt lat="42.09769" lon="23.613368"><ele>2042.8</ele><time>2026-03-08T07:49:13.000Z</time></trkpt>
<trkpt lat="42.097699" lon="23.61336"><ele>2042.8</ele><time>2026-03-08T07:49:14.000Z</time></trkpt>
<trkpt lat="42.097709" lon="23.613353"><ele>2042.8</ele><time>2026-03-08T07:49:15.000Z</time></trkpt>
<trkpt lat="42.097718" lon="23.613348"><ele>2042.8</ele><time>2026-03-08T07:49:16.000Z</time></trkpt>
<trkpt lat="42.097727" lon="23.613343"><ele>2043.5</ele><time>2026-03-08T07:49:17.000Z</time></trkpt>
<trkpt lat="42.097736" lon="23.613339"><ele>2043.5</ele><time>2026-03-08T07:49:18.000Z</time></trkpt>
<trkpt lat="42.097744" lon="23.613335"><ele>2043.5</ele><time>2026-03-08T07:49:19.000Z</time></trkpt>
<trkpt lat="42.097753" lon="23.613331"><ele>2043.5</ele><time>2026-03-08T07:49:20.000Z</time></trkpt>
<trkpt lat="42.097762" lon="23.613328"><ele>2043.5</ele><time>2026-03-08T07:49:21.000Z</time></trkpt>
<trkpt lat="42.097771" lon="23.613325"><ele>2044</ele><time>2026-03-08T07:49:22.000Z</time></trkpt>
<trkpt lat="42.097778" lon="23.613322"><ele>2044</ele><time>2026-03-08T07:49:23.000Z</time></trkpt>
<trkpt lat="42.097785" lon="23.61332"><ele>2044</ele><time>2026-03-08T07:49:24.000Z</time></trkpt>
<trkpt lat="42.097791" lon="23.613317"><ele>2044</ele><time>2026-03-08T07:49:25.000Z</time></trkpt>
<trkpt lat="42.097796" lon="23.613315"><ele>2044</ele><time>2026-03-08T07:49:26.000Z</time></trkpt>
<trkpt lat="42.097802" lon="23.613311"><ele>2044.2</ele><time>2026-03-08T07:49:27.000Z</time></trkpt>
<trkpt lat="42.097808" lon="23.613308"><ele>2044.2</ele><time>2026-03-08T07:49:28.000Z</time></trkpt>
<trkpt lat="42.097815" lon="23.613304"><ele>2044.2</ele><time>2026-03-08T07:49:29.000Z</time></trkpt>
<trkpt lat="42.097823" lon="23.613299"><ele>2044.2</ele><time>2026-03-08T07:49:30.000Z</time></trkpt>
<trkpt lat="42.097831" lon="23.613295"><ele>2044.2</ele><time>2026-03-08T07:49:31.000Z</time></trkpt>
<trkpt lat="42.097839" lon="23.61329"><ele>2044.6</ele><time>2026-03-08T07:49:32.000Z</time></trkpt>
<trkpt lat="42.097847" lon="23.613285"><ele>2044.6</ele><time>2026-03-08T07:49:33.000Z</time></trkpt>
<trkpt lat="42.097856" lon="23.613281"><ele>2044.6</ele><time>2026-03-08T07:49:34.000Z</time></trkpt>
<trkpt lat="42.097863" lon="23.613277"><ele>2044.6</ele><time>2026-03-08T07:49:35.000Z</time></trkpt>
<trkpt lat="42.097871" lon="23.613274"><ele>2044.6</ele><time>2026-03-08T07:49:36.000Z</time></trkpt>
<trkpt lat="42.09788" lon="23.61327"><ele>2045.1</ele><time>2026-03-08T07:49:37.000Z</time></trkpt>
<trkpt lat="42.097889" lon="23.613266"><ele>2045.1</ele><time>2026-03-08T07:49:38.000Z</time></trkpt>
<trkpt lat="42.097897" lon="23.613261"><ele>2045.1</ele><time>2026-03-08T07:49:39.000Z</time></trkpt>
<trkpt lat="42.097906" lon="23.613256"><ele>2045.1</ele><time>2026-03-08T07:49:40.000Z</time></trkpt>
<trkpt lat="42.097914" lon="23.613251"><ele>2045.1</ele><time>2026-03-08T07:49:41.000Z</time></trkpt>
<trkpt lat="42.097921" lon="23.613246"><ele>2045.3</ele><time>2026-03-08T07:49:42.000Z</time></trkpt>
<trkpt lat="42.097927" lon="23.613242"><ele>2045.3</ele><time>2026-03-08T07:49:43.000Z</time></trkpt>
<trkpt lat="42.097935" lon="23.613238"><ele>2045.3</ele><time>2026-03-08T07:49:44.000Z</time></trkpt>
<trkpt lat="42.097942" lon="23.613235"><ele>2045.3</ele><time>2026-03-08T07:49:45.000Z</time></trkpt>
<trkpt lat="42.09795" lon="23.613231"><ele>2045.3</ele><time>2026-03-08T07:49:46.000Z</time></trkpt>
<trkpt lat="42.097957" lon="23.613227"><ele>2045.8</ele><time>2026-03-08T07:49:47.000Z</time></trkpt>
<trkpt lat="42.097964" lon="23.613223"><ele>2045.8</ele><time>2026-03-08T07:49:48.000Z</time></trkpt>
<trkpt lat="42.09797" lon="23.613217"><ele>2045.8</ele><time>2026-03-08T07:49:49.000Z</time></trkpt>
<trkpt lat="42.097977" lon="23.613211"><ele>2045.8</ele><time>2026-03-08T07:49:50.000Z</time></trkpt>
<trkpt lat="42.097982" lon="23.613205"><ele>2045.8</ele><time>2026-03-08T07:49:51.000Z</time></trkpt>
<trkpt lat="42.09799" lon="23.613198"><ele>2046.3</ele><time>2026-03-08T07:49:52.000Z</time></trkpt>
<trkpt lat="42.097997" lon="23.613192"><ele>2046.3</ele><time>2026-03-08T07:49:53.000Z</time></trkpt>
<trkpt lat="42.098005" lon="23.613185"><ele>2046.3</ele><time>2026-03-08T07:49:54.000Z</time></trkpt>
<trkpt lat="42.098012" lon="23.613179"><ele>2046.3</ele><time>2026-03-08T07:49:55.000Z</time></trkpt>
<trkpt lat="42.098019" lon="23.613173"><ele>2046.3</ele><time>2026-03-08T07:49:56.000Z</time></trkpt>
<trkpt lat="42.098024" lon="23.613166"><ele>2046.5</ele><time>2026-03-08T07:49:57.000Z</time></trkpt>
<trkpt lat="42.098029" lon="23.61316"><ele>2046.5</ele><time>2026-03-08T07:49:58.000Z</time></trkpt>
<trkpt lat="42.098033" lon="23.613155"><ele>2046.5</ele><time>2026-03-08T07:49:59.000Z</time></trkpt>
<trkpt lat="42.098034" lon="23.613151"><ele>2046.5</ele><time>2026-03-08T07:50:00.000Z</time></trkpt>
<trkpt lat="42.098035" lon="23.613147"><ele>2046.5</ele><time>2026-03-08T07:50:01.000Z</time></trkpt>
<trkpt lat="42.098037" lon="23.613143"><ele>2047</ele><time>2026-03-08T07:50:02.000Z</time></trkpt>
<trkpt lat="42.09804" lon="23.613139"><ele>2047</ele><time>2026-03-08T07:50:03.000Z</time></trkpt>
<trkpt lat="42.098042" lon="23.613134"><ele>2047</ele><time>2026-03-08T07:50:04.000Z</time></trkpt>
<trkpt lat="42.098044" lon="23.61313"><ele>2047</ele><time>2026-03-08T07:50:05.000Z</time></trkpt>
<trkpt lat="42.098045" lon="23.613127"><ele>2047</ele><time>2026-03-08T07:50:06.000Z</time></trkpt>
<trkpt lat="42.098044" lon="23.613125"><ele>2047.6</ele><time>2026-03-08T07:50:07.000Z</time></trkpt>
<trkpt lat="42.098042" lon="23.613124"><ele>2047.6</ele><time>2026-03-08T07:50:08.000Z</time></trkpt>
<trkpt lat="42.098041" lon="23.613124"><ele>2047.6</ele><time>2026-03-08T07:50:09.000Z</time></trkpt>
<trkpt lat="42.098041" lon="23.613124"><ele>2047.6</ele><time>2026-03-08T07:50:10.000Z</time></trkpt>
<trkpt lat="42.098041" lon="23.613123"><ele>2047.6</ele><time>2026-03-08T07:50:11.000Z</time></trkpt>
<trkpt lat="42.098042" lon="23.613123"><ele>2047.8</ele><time>2026-03-08T07:50:12.000Z</time></trkpt>
<trkpt lat="42.098042" lon="23.613122"><ele>2047.8</ele><time>2026-03-08T07:50:13.000Z</time></trkpt>
<trkpt lat="42.098043" lon="23.613122"><ele>2047.8</ele><time>2026-03-08T07:50:14.000Z</time></trkpt>
<trkpt lat="42.098043" lon="23.613121"><ele>2047.8</ele><time>2026-03-08T07:50:15.000Z</time></trkpt>
<trkpt lat="42.098043" lon="23.613121"><ele>2047.8</ele><time>2026-03-08T07:50:16.000Z</time></trkpt>
<trkpt lat="42.098045" lon="23.61312"><ele>2048.3</ele><time>2026-03-08T07:50:17.000Z</time></trkpt>
<trkpt lat="42.098048" lon="23.613117"><ele>2048.3</ele><time>2026-03-08T07:50:18.000Z</time></trkpt>
<trkpt lat="42.098052" lon="23.613112"><ele>2048.3</ele><time>2026-03-08T07:50:19.000Z</time></trkpt>
<trkpt lat="42.098058" lon="23.613106"><ele>2048.3</ele><time>2026-03-08T07:50:20.000Z</time></trkpt>
<trkpt lat="42.098066" lon="23.613097"><ele>2048.3</ele><time>2026-03-08T07:50:21.000Z</time></trkpt>
<trkpt lat="42.098073" lon="23.613089"><ele>2048.6</ele><time>2026-03-08T07:50:22.000Z</time></trkpt>
<trkpt lat="42.098079" lon="23.613081"><ele>2048.6</ele><time>2026-03-08T07:50:23.000Z</time></trkpt>
<trkpt lat="42.098086" lon="23.613072"><ele>2048.6</ele><time>2026-03-08T07:50:24.000Z</time></trkpt>
<trkpt lat="42.098093" lon="23.613065"><ele>2048.6</ele><time>2026-03-08T07:50:25.000Z</time></trkpt>
<trkpt lat="42.098099" lon="23.613057"><ele>2048.6</ele><time>2026-03-08T07:50:26.000Z</time></trkpt>
<trkpt lat="42.098105" lon="23.613049"><ele>2048.7</ele><time>2026-03-08T07:50:27.000Z</time></trkpt>
<trkpt lat="42.098111" lon="23.613042"><ele>2048.7</ele><time>2026-03-08T07:50:28.000Z</time></trkpt>
<trkpt lat="42.098117" lon="23.613034"><ele>2048.7</ele><time>2026-03-08T07:50:29.000Z</time></trkpt>
<trkpt lat="42.098122" lon="23.613025"><ele>2048.7</ele><time>2026-03-08T07:50:30.000Z</time></trkpt>
<trkpt lat="42.098127" lon="23.613018"><ele>2048.7</ele><time>2026-03-08T07:50:31.000Z</time></trkpt>
<trkpt lat="42.098132" lon="23.61301"><ele>2049</ele><time>2026-03-08T07:50:32.000Z</time></trkpt>
<trkpt lat="42.098139" lon="23.613002"><ele>2049</ele><time>2026-03-08T07:50:33.000Z</time></trkpt>
<trkpt lat="42.098145" lon="23.612995"><ele>2049</ele><time>2026-03-08T07:50:34.000Z</time></trkpt>
<trkpt lat="42.098152" lon="23.612988"><ele>2049</ele><time>2026-03-08T07:50:35.000Z</time></trkpt>
<trkpt lat="42.098159" lon="23.61298"><ele>2049</ele><time>2026-03-08T07:50:36.000Z</time></trkpt>
<trkpt lat="42.098167" lon="23.612971"><ele>2049.6</ele><time>2026-03-08T07:50:37.000Z</time></trkpt>
<trkpt lat="42.098173" lon="23.612963"><ele>2049.6</ele><time>2026-03-08T07:50:38.000Z</time></trkpt>
<trkpt lat="42.098179" lon="23.612954"><ele>2049.6</ele><time>2026-03-08T07:50:39.000Z</time></trkpt>
<trkpt lat="42.098185" lon="23.612944"><ele>2049.6</ele><time>2026-03-08T07:50:40.000Z</time></trkpt>
<trkpt lat="42.09819" lon="23.612933"><ele>2049.6</ele><time>2026-03-08T07:50:41.000Z</time></trkpt>
<trkpt lat="42.098195" lon="23.612924"><ele>2050</ele><time>2026-03-08T07:50:42.000Z</time></trkpt>
<trkpt lat="42.098201" lon="23.612913"><ele>2050</ele><time>2026-03-08T07:50:43.000Z</time></trkpt>
<trkpt lat="42.098207" lon="23.612903"><ele>2050</ele><time>2026-03-08T07:50:44.000Z</time></trkpt>
<trkpt lat="42.098213" lon="23.612893"><ele>2050</ele><time>2026-03-08T07:50:45.000Z</time></trkpt>
<trkpt lat="42.098218" lon="23.612884"><ele>2050</ele><time>2026-03-08T07:50:46.000Z</time></trkpt>
<trkpt lat="42.098224" lon="23.612876"><ele>2050.9</ele><time>2026-03-08T07:50:47.000Z</time></trkpt>
<trkpt lat="42.09823" lon="23.612866"><ele>2050.9</ele><time>2026-03-08T07:50:48.000Z</time></trkpt>
<trkpt lat="42.098236" lon="23.612857"><ele>2050.9</ele><time>2026-03-08T07:50:49.000Z</time></trkpt>
<trkpt lat="42.098241" lon="23.612849"><ele>2050.9</ele><time>2026-03-08T07:50:50.000Z</time></trkpt>
<trkpt lat="42.098248" lon="23.61284"><ele>2050.9</ele><time>2026-03-08T07:50:51.000Z</time></trkpt>
<trkpt lat="42.098254" lon="23.612831"><ele>2051.6</ele><time>2026-03-08T07:50:52.000Z</time></trkpt>
<trkpt lat="42.098261" lon="23.612822"><ele>2051.6</ele><time>2026-03-08T07:50:53.000Z</time></trkpt>
<trkpt lat="42.098268" lon="23.612813"><ele>2051.6</ele><time>2026-03-08T07:50:54.000Z</time></trkpt>
<trkpt lat="42.098274" lon="23.612804"><ele>2051.6</ele><time>2026-03-08T07:50:55.000Z</time></trkpt>
<trkpt lat="42.098282" lon="23.612795"><ele>2051.6</ele><time>2026-03-08T07:50:56.000Z</time></trkpt>
<trkpt lat="42.098289" lon="23.612787"><ele>2051.8</ele><time>2026-03-08T07:50:57.000Z</time></trkpt>
<trkpt lat="42.098295" lon="23.61278"><ele>2051.8</ele><time>2026-03-08T07:50:58.000Z</time></trkpt>
<trkpt lat="42.098301" lon="23.612773"><ele>2051.8</ele><time>2026-03-08T07:50:59.000Z</time></trkpt>
<trkpt lat="42.098307" lon="23.612767"><ele>2051.8</ele><time>2026-03-08T07:51:00.000Z</time></trkpt>
<trkpt lat="42.098312" lon="23.61276"><ele>2051.8</ele><time>2026-03-08T07:51:01.000Z</time></trkpt>
<trkpt lat="42.098317" lon="23.612754"><ele>2052.1</ele><time>2026-03-08T07:51:02.000Z</time></trkpt>
<trkpt lat="42.098323" lon="23.612747"><ele>2052.1</ele><time>2026-03-08T07:51:03.000Z</time></trkpt>
<trkpt lat="42.098329" lon="23.61274"><ele>2052.1</ele><time>2026-03-08T07:51:04.000Z</time></trkpt>
<trkpt lat="42.098335" lon="23.612733"><ele>2052.1</ele><time>2026-03-08T07:51:05.000Z</time></trkpt>
<trkpt lat="42.098343" lon="23.612727"><ele>2052.1</ele><time>2026-03-08T07:51:06.000Z</time></trkpt>
<trkpt lat="42.09835" lon="23.612721"><ele>2052.6</ele><time>2026-03-08T07:51:07.000Z</time></trkpt>
<trkpt lat="42.098358" lon="23.612714"><ele>2052.6</ele><time>2026-03-08T07:51:08.000Z</time></trkpt>
<trkpt lat="42.098365" lon="23.612706"><ele>2052.6</ele><time>2026-03-08T07:51:09.000Z</time></trkpt>
<trkpt lat="42.098373" lon="23.612699"><ele>2052.6</ele><time>2026-03-08T07:51:10.000Z</time></trkpt>
<trkpt lat="42.098379" lon="23.612692"><ele>2052.6</ele><time>2026-03-08T07:51:11.000Z</time></trkpt>
<trkpt lat="42.098385" lon="23.612684"><ele>2052.9</ele><time>2026-03-08T07:51:12.000Z</time></trkpt>
<trkpt lat="42.098392" lon="23.612676"><ele>2052.9</ele><time>2026-03-08T07:51:13.000Z</time></trkpt>
<trkpt lat="42.098397" lon="23.61267"><ele>2052.9</ele><time>2026-03-08T07:51:14.000Z</time></trkpt>
<trkpt lat="42.098402" lon="23.612663"><ele>2052.9</ele><time>2026-03-08T07:51:15.000Z</time></trkpt>
<trkpt lat="42.098407" lon="23.612655"><ele>2052.9</ele><time>2026-03-08T07:51:16.000Z</time></trkpt>
<trkpt lat="42.098413" lon="23.612648"><ele>2053.5</ele><time>2026-03-08T07:51:17.000Z</time></trkpt>
<trkpt lat="42.098418" lon="23.61264"><ele>2053.5</ele><time>2026-03-08T07:51:18.000Z</time></trkpt>
<trkpt lat="42.098425" lon="23.612632"><ele>2053.5</ele><time>2026-03-08T07:51:19.000Z</time></trkpt>
<trkpt lat="42.098431" lon="23.612623"><ele>2053.5</ele><time>2026-03-08T07:51:20.000Z</time></trkpt>
<trkpt lat="42.098436" lon="23.612614"><ele>2053.5</ele><time>2026-03-08T07:51:21.000Z</time></trkpt>
<trkpt lat="42.098442" lon="23.612605"><ele>2054.2</ele><time>2026-03-08T07:51:22.000Z</time></trkpt>
<trkpt lat="42.098447" lon="23.612596"><ele>2054.2</ele><time>2026-03-08T07:51:23.000Z</time></trkpt>
<trkpt lat="42.098453" lon="23.612586"><ele>2054.2</ele><time>2026-03-08T07:51:24.000Z</time></trkpt>
<trkpt lat="42.098459" lon="23.612577"><ele>2054.2</ele><time>2026-03-08T07:51:25.000Z</time></trkpt>
<trkpt lat="42.098465" lon="23.612568"><ele>2054.2</ele><time>2026-03-08T07:51:26.000Z</time></trkpt>
<trkpt lat="42.09847" lon="23.612559"><ele>2054.5</ele><time>2026-03-08T07:51:27.000Z</time></trkpt>
<trkpt lat="42.098476" lon="23.612551"><ele>2054.5</ele><time>2026-03-08T07:51:28.000Z</time></trkpt>
<trkpt lat="42.098481" lon="23.612543"><ele>2054.5</ele><time>2026-03-08T07:51:29.000Z</time></trkpt>
<trkpt lat="42.098486" lon="23.612535"><ele>2054.5</ele><time>2026-03-08T07:51:30.000Z</time></trkpt>
<trkpt lat="42.098493" lon="23.612529"><ele>2054.5</ele><time>2026-03-08T07:51:31.000Z</time></trkpt>
<trkpt lat="42.0985" lon="23.612523"><ele>2055.2</ele><time>2026-03-08T07:51:32.000Z</time></trkpt>
<trkpt lat="42.098508" lon="23.612517"><ele>2055.2</ele><time>2026-03-08T07:51:33.000Z</time></trkpt>
<trkpt lat="42.098516" lon="23.612511"><ele>2055.2</ele><time>2026-03-08T07:51:34.000Z</time></trkpt>
<trkpt lat="42.098525" lon="23.612506"><ele>2055.2</ele><time>2026-03-08T07:51:35.000Z</time></trkpt>
<trkpt lat="42.098533" lon="23.6125"><ele>2055.2</ele><time>2026-03-08T07:51:36.000Z</time></trkpt>
<trkpt lat="42.09854" lon="23.612493"><ele>2055.9</ele><time>2026-03-08T07:51:37.000Z</time></trkpt>
<trkpt lat="42.098547" lon="23.612486"><ele>2055.9</ele><time>2026-03-08T07:51:38.000Z</time></trkpt>
<trkpt lat="42.098554" lon="23.612479"><ele>2055.9</ele><time>2026-03-08T07:51:39.000Z</time></trkpt>
<trkpt lat="42.098561" lon="23.612472"><ele>2055.9</ele><time>2026-03-08T07:51:40.000Z</time></trkpt>
<trkpt lat="42.098568" lon="23.612465"><ele>2055.9</ele><time>2026-03-08T07:51:41.000Z</time></trkpt>
<trkpt lat="42.098576" lon="23.612457"><ele>2056.3</ele><time>2026-03-08T07:51:42.000Z</time></trkpt>
<trkpt lat="42.098583" lon="23.612451"><ele>2056.3</ele><time>2026-03-08T07:51:43.000Z</time></trkpt>
<trkpt lat="42.098591" lon="23.612444"><ele>2056.3</ele><time>2026-03-08T07:51:44.000Z</time></trkpt>
<trkpt lat="42.098599" lon="23.612437"><ele>2056.3</ele><time>2026-03-08T07:51:45.000Z</time></trkpt>
<trkpt lat="42.098607" lon="23.612432"><ele>2056.3</ele><time>2026-03-08T07:51:46.000Z</time></trkpt>
<trkpt lat="42.098613" lon="23.612427"><ele>2057</ele><time>2026-03-08T07:51:47.000Z</time></trkpt>
<trkpt lat="42.09862" lon="23.612422"><ele>2057</ele><time>2026-03-08T07:51:48.000Z</time></trkpt>
<trkpt lat="42.098627" lon="23.612418"><ele>2057</ele><time>2026-03-08T07:51:49.000Z</time></trkpt>
<trkpt lat="42.098633" lon="23.612414"><ele>2057</ele><time>2026-03-08T07:51:50.000Z</time></trkpt>
<trkpt lat="42.098641" lon="23.61241"><ele>2057</ele><time>2026-03-08T07:51:51.000Z</time></trkpt>
<trkpt lat="42.098649" lon="23.612405"><ele>2057.7</ele><time>2026-03-08T07:51:52.000Z</time></trkpt>
<trkpt lat="42.098658" lon="23.6124"><ele>2057.7</ele><time>2026-03-08T07:51:53.000Z</time></trkpt>
<trkpt lat="42.098666" lon="23.612395"><ele>2057.7</ele><time>2026-03-08T07:51:54.000Z</time></trkpt>
<trkpt lat="42.098674" lon="23.61239"><ele>2057.7</ele><time>2026-03-08T07:51:55.000Z</time></trkpt>
<trkpt lat="42.098682" lon="23.612384"><ele>2057.7</ele><time>2026-03-08T07:51:56.000Z</time></trkpt>
<trkpt lat="42.09869" lon="23.612378"><ele>2058.1</ele><time>2026-03-08T07:51:57.000Z</time></trkpt>
<trkpt lat="42.098697" lon="23.612372"><ele>2058.1</ele><time>2026-03-08T07:51:58.000Z</time></trkpt>
<trkpt lat="42.098703" lon="23.612367"><ele>2058.1</ele><time>2026-03-08T07:51:59.000Z</time></trkpt>
<trkpt lat="42.098711" lon="23.612361"><ele>2058.1</ele><time>2026-03-08T07:52:00.000Z</time></trkpt>
<trkpt lat="42.098719" lon="23.612355"><ele>2058.1</ele><time>2026-03-08T07:52:01.000Z</time></trkpt>
<trkpt lat="42.098726" lon="23.612349"><ele>2058.9</ele><time>2026-03-08T07:52:02.000Z</time></trkpt>
<trkpt lat="42.098734" lon="23.612343"><ele>2058.9</ele><time>2026-03-08T07:52:03.000Z</time></trkpt>
<trkpt lat="42.098743" lon="23.612338"><ele>2058.9</ele><time>2026-03-08T07:52:04.000Z</time></trkpt>
<trkpt lat="42.098751" lon="23.612332"><ele>2058.9</ele><time>2026-03-08T07:52:05.000Z</time></trkpt>
<trkpt lat="42.098758" lon="23.612328"><ele>2058.9</ele><time>2026-03-08T07:52:06.000Z</time></trkpt>
<trkpt lat="42.098766" lon="23.612323"><ele>2059.8</ele><time>2026-03-08T07:52:07.000Z</time></trkpt>
<trkpt lat="42.098774" lon="23.612318"><ele>2059.8</ele><time>2026-03-08T07:52:08.000Z</time></trkpt>
<trkpt lat="42.098783" lon="23.612313"><ele>2059.8</ele><time>2026-03-08T07:52:09.000Z</time></trkpt>
<trkpt lat="42.098792" lon="23.612308"><ele>2059.8</ele><time>2026-03-08T07:52:10.000Z</time></trkpt>
<trkpt lat="42.098801" lon="23.612302"><ele>2059.8</ele><time>2026-03-08T07:52:11.000Z</time></trkpt>
<trkpt lat="42.09881" lon="23.612296"><ele>2060.1</ele><time>2026-03-08T07:52:12.000Z</time></trkpt>
<trkpt lat="42.098819" lon="23.612291"><ele>2060.1</ele><time>2026-03-08T07:52:13.000Z</time></trkpt>
<trkpt lat="42.098827" lon="23.612285"><ele>2060.1</ele><time>2026-03-08T07:52:14.000Z</time></trkpt>
<trkpt lat="42.098835" lon="23.612279"><ele>2060.1</ele><time>2026-03-08T07:52:15.000Z</time></trkpt>
<trkpt lat="42.098842" lon="23.612275"><ele>2060.1</ele><time>2026-03-08T07:52:16.000Z</time></trkpt>
<trkpt lat="42.09885" lon="23.61227"><ele>2060.7</ele><time>2026-03-08T07:52:17.000Z</time></trkpt>
<trkpt lat="42.098857" lon="23.612265"><ele>2060.7</ele><time>2026-03-08T07:52:18.000Z</time></trkpt>
<trkpt lat="42.098863" lon="23.612261"><ele>2060.7</ele><time>2026-03-08T07:52:19.000Z</time></trkpt>
<trkpt lat="42.09887" lon="23.612256"><ele>2060.7</ele><time>2026-03-08T07:52:20.000Z</time></trkpt>
<trkpt lat="42.098878" lon="23.612251"><ele>2060.7</ele><time>2026-03-08T07:52:21.000Z</time></trkpt>
<trkpt lat="42.098885" lon="23.612245"><ele>2061.1</ele><time>2026-03-08T07:52:22.000Z</time></trkpt>
<trkpt lat="42.098892" lon="23.612239"><ele>2061.1</ele><time>2026-03-08T07:52:23.000Z</time></trkpt>
<trkpt lat="42.098898" lon="23.612233"><ele>2061.1</ele><time>2026-03-08T07:52:24.000Z</time></trkpt>
<trkpt lat="42.098902" lon="23.612228"><ele>2061.1</ele><time>2026-03-08T07:52:25.000Z</time></trkpt>
<trkpt lat="42.098905" lon="23.612225"><ele>2061.1</ele><time>2026-03-08T07:52:26.000Z</time></trkpt>
<trkpt lat="42.098905" lon="23.612222"><ele>2061.4</ele><time>2026-03-08T07:52:27.000Z</time></trkpt>
<trkpt lat="42.098905" lon="23.612219"><ele>2061.4</ele><time>2026-03-08T07:52:28.000Z</time></trkpt>
<trkpt lat="42.098904" lon="23.612216"><ele>2061.4</ele><time>2026-03-08T07:52:29.000Z</time></trkpt>
<trkpt lat="42.098904" lon="23.612213"><ele>2061.4</ele><time>2026-03-08T07:52:30.000Z</time></trkpt>
<trkpt lat="42.098903" lon="23.61221"><ele>2061.4</ele><time>2026-03-08T07:52:31.000Z</time></trkpt>
<trkpt lat="42.098903" lon="23.612209"><ele>2061.9</ele><time>2026-03-08T07:52:32.000Z</time></trkpt>
<trkpt lat="42.098904" lon="23.612208"><ele>2061.9</ele><time>2026-03-08T07:52:33.000Z</time></trkpt>
<trkpt lat="42.098905" lon="23.612207"><ele>2061.9</ele><time>2026-03-08T07:52:34.000Z</time></trkpt>
<trkpt lat="42.098905" lon="23.612207"><ele>2061.9</ele><time>2026-03-08T07:52:35.000Z</time></trkpt>
<trkpt lat="42.098905" lon="23.612206"><ele>2061.9</ele><time>2026-03-08T07:52:36.000Z</time></trkpt>
<trkpt lat="42.098905" lon="23.612205"><ele>2062.2</ele><time>2026-03-08T07:52:37.000Z</time></trkpt>
<trkpt lat="42.098905" lon="23.612204"><ele>2062.2</ele><time>2026-03-08T07:52:38.000Z</time></trkpt>
<trkpt lat="42.098906" lon="23.612202"><ele>2062.2</ele><time>2026-03-08T07:52:39.000Z</time></trkpt>
<trkpt lat="42.098909" lon="23.612198"><ele>2062.2</ele><time>2026-03-08T07:52:40.000Z</time></trkpt>
<trkpt lat="42.098914" lon="23.612192"><ele>2062.2</ele><time>2026-03-08T07:52:41.000Z</time></trkpt>
<trkpt lat="42.098921" lon="23.612185"><ele>2062.2</ele><time>2026-03-08T07:52:42.000Z</time></trkpt>
<trkpt lat="42.098929" lon="23.612177"><ele>2062.2</ele><time>2026-03-08T07:52:43.000Z</time></trkpt>
<trkpt lat="42.098936" lon="23.612168"><ele>2062.2</ele><time>2026-03-08T07:52:44.000Z</time></trkpt>
<trkpt lat="42.098942" lon="23.612159"><ele>2062.2</ele><time>2026-03-08T07:52:45.000Z</time></trkpt>
<trkpt lat="42.098949" lon="23.61215"><ele>2062.2</ele><time>2026-03-08T07:52:46.000Z</time></trkpt>
<trkpt lat="42.098955" lon="23.61214"><ele>2062.2</ele><time>2026-03-08T07:52:47.000Z</time></trkpt>
<trkpt lat="42.098961" lon="23.612131"><ele>2062.2</ele><time>2026-03-08T07:52:48.000Z</time></trkpt>
<trkpt lat="42.098967" lon="23.612122"><ele>2062.2</ele><time>2026-03-08T07:52:49.000Z</time></trkpt>
<trkpt lat="42.098973" lon="23.612113"><ele>2062.2</ele><time>2026-03-08T07:52:50.000Z</time></trkpt>
<trkpt lat="42.098978" lon="23.612105"><ele>2062.2</ele><time>2026-03-08T07:52:51.000Z</time></trkpt>
<trkpt lat="42.098983" lon="23.612097"><ele>2062.3</ele><time>2026-03-08T07:52:52.000Z</time></trkpt>
<trkpt lat="42.098989" lon="23.612088"><ele>2062.3</ele><time>2026-03-08T07:52:53.000Z</time></trkpt>
<trkpt lat="42.098995" lon="23.61208"><ele>2062.3</ele><time>2026-03-08T07:52:54.000Z</time></trkpt>
<trkpt lat="42.099" lon="23.612074"><ele>2062.3</ele><time>2026-03-08T07:52:55.000Z</time></trkpt>
<trkpt lat="42.099006" lon="23.612066"><ele>2062.3</ele><time>2026-03-08T07:52:56.000Z</time></trkpt>
<trkpt lat="42.099011" lon="23.612058"><ele>2062.3</ele><time>2026-03-08T07:52:57.000Z</time></trkpt>
<trkpt lat="42.099017" lon="23.61205"><ele>2062.3</ele><time>2026-03-08T07:52:58.000Z</time></trkpt>
<trkpt lat="42.099022" lon="23.612042"><ele>2062.3</ele><time>2026-03-08T07:52:59.000Z</time></trkpt>
<trkpt lat="42.099027" lon="23.612033"><ele>2062.3</ele><time>2026-03-08T07:53:00.000Z</time></trkpt>
<trkpt lat="42.099033" lon="23.612023"><ele>2062.3</ele><time>2026-03-08T07:53:01.000Z</time></trkpt>
<trkpt lat="42.099038" lon="23.612013"><ele>2062.5</ele><time>2026-03-08T07:53:02.000Z</time></trkpt>
<trkpt lat="42.099043" lon="23.612003"><ele>2062.5</ele><time>2026-03-08T07:53:03.000Z</time></trkpt>
<trkpt lat="42.099047" lon="23.611993"><ele>2062.5</ele><time>2026-03-08T07:53:04.000Z</time></trkpt>
<trkpt lat="42.099049" lon="23.611985"><ele>2062.5</ele><time>2026-03-08T07:53:05.000Z</time></trkpt>
<trkpt lat="42.099051" lon="23.611981"><ele>2062.5</ele><time>2026-03-08T07:53:06.000Z</time></trkpt>
<trkpt lat="42.099052" lon="23.611976"><ele>2062.8</ele><time>2026-03-08T07:53:07.000Z</time></trkpt>
<trkpt lat="42.099053" lon="23.611971"><ele>2062.8</ele><time>2026-03-08T07:53:08.000Z</time></trkpt>
<trkpt lat="42.099056" lon="23.611966"><ele>2062.8</ele><time>2026-03-08T07:53:09.000Z</time></trkpt>
<trkpt lat="42.09906" lon="23.611957"><ele>2062.8</ele><time>2026-03-08T07:53:10.000Z</time></trkpt>
<trkpt lat="42.099065" lon="23.611946"><ele>2062.8</ele><time>2026-03-08T07:53:11.000Z</time></trkpt>
<trkpt lat="42.099071" lon="23.611935"><ele>2062.9</ele><time>2026-03-08T07:53:12.000Z</time></trkpt>
<trkpt lat="42.099077" lon="23.611924"><ele>2062.9</ele><time>2026-03-08T07:53:13.000Z</time></trkpt>
<trkpt lat="42.099082" lon="23.611914"><ele>2062.9</ele><time>2026-03-08T07:53:14.000Z</time></trkpt>
<trkpt lat="42.099086" lon="23.611905"><ele>2062.9</ele><time>2026-03-08T07:53:15.000Z</time></trkpt>
<trkpt lat="42.099091" lon="23.611897"><ele>2062.9</ele><time>2026-03-08T07:53:16.000Z</time></trkpt>
<trkpt lat="42.099095" lon="23.611889"><ele>2062.9</ele><time>2026-03-08T07:53:17.000Z</time></trkpt>
<trkpt lat="42.0991" lon="23.611881"><ele>2062.9</ele><time>2026-03-08T07:53:18.000Z</time></trkpt>
<trkpt lat="42.099105" lon="23.611872"><ele>2062.9</ele><time>2026-03-08T07:53:19.000Z</time></trkpt>
<trkpt lat="42.099109" lon="23.611865"><ele>2062.9</ele><time>2026-03-08T07:53:20.000Z</time></trkpt>
<trkpt lat="42.099114" lon="23.611856"><ele>2062.9</ele><time>2026-03-08T07:53:21.000Z</time></trkpt>
<trkpt lat="42.099118" lon="23.611848"><ele>2062.9</ele><time>2026-03-08T07:53:22.000Z</time></trkpt>
<trkpt lat="42.099121" lon="23.61184"><ele>2062.9</ele><time>2026-03-08T07:53:23.000Z</time></trkpt>
<trkpt lat="42.099124" lon="23.611832"><ele>2062.9</ele><time>2026-03-08T07:53:24.000Z</time></trkpt>
<trkpt lat="42.099128" lon="23.611824"><ele>2062.9</ele><time>2026-03-08T07:53:25.000Z</time></trkpt>
<trkpt lat="42.099131" lon="23.611817"><ele>2062.9</ele><time>2026-03-08T07:53:26.000Z</time></trkpt>
<trkpt lat="42.099134" lon="23.611811"><ele>2063</ele><time>2026-03-08T07:53:27.000Z</time></trkpt>
<trkpt lat="42.099138" lon="23.611804"><ele>2063</ele><time>2026-03-08T07:53:28.000Z</time></trkpt>
<trkpt lat="42.099143" lon="23.611797"><ele>2063</ele><time>2026-03-08T07:53:29.000Z</time></trkpt>
<trkpt lat="42.099147" lon="23.611791"><ele>2063</ele><time>2026-03-08T07:53:30.000Z</time></trkpt>
<trkpt lat="42.099151" lon="23.611784"><ele>2063</ele><time>2026-03-08T07:53:31.000Z</time></trkpt>
<trkpt lat="42.099156" lon="23.611777"><ele>2063.4</ele><time>2026-03-08T07:53:32.000Z</time></trkpt>
<trkpt lat="42.099161" lon="23.61177"><ele>2063.4</ele><time>2026-03-08T07:53:33.000Z</time></trkpt>
<trkpt lat="42.099167" lon="23.611764"><ele>2063.4</ele><time>2026-03-08T07:53:34.000Z</time></trkpt>
<trkpt lat="42.099173" lon="23.611758"><ele>2063.4</ele><time>2026-03-08T07:53:35.000Z</time></trkpt>
<trkpt lat="42.099179" lon="23.611753"><ele>2063.4</ele><time>2026-03-08T07:53:36.000Z</time></trkpt>
<trkpt lat="42.099187" lon="23.611748"><ele>2063.8</ele><time>2026-03-08T07:53:37.000Z</time></trkpt>
<trkpt lat="42.099194" lon="23.611744"><ele>2063.8</ele><time>2026-03-08T07:53:38.000Z</time></trkpt>
<trkpt lat="42.0992" lon="23.611739"><ele>2063.8</ele><time>2026-03-08T07:53:39.000Z</time></trkpt>
<trkpt lat="42.099207" lon="23.611733"><ele>2063.8</ele><time>2026-03-08T07:53:40.000Z</time></trkpt>
<trkpt lat="42.099214" lon="23.611726"><ele>2063.8</ele><time>2026-03-08T07:53:41.000Z</time></trkpt>
<trkpt lat="42.099221" lon="23.611719"><ele>2064</ele><time>2026-03-08T07:53:42.000Z</time></trkpt>
<trkpt lat="42.099228" lon="23.611711"><ele>2064</ele><time>2026-03-08T07:53:43.000Z</time></trkpt>
<trkpt lat="42.099236" lon="23.611702"><ele>2064</ele><time>2026-03-08T07:53:44.000Z</time></trkpt>
<trkpt lat="42.099243" lon="23.611693"><ele>2064</ele><time>2026-03-08T07:53:45.000Z</time></trkpt>
<trkpt lat="42.09925" lon="23.611684"><ele>2064</ele><time>2026-03-08T07:53:46.000Z</time></trkpt>
<trkpt lat="42.099256" lon="23.611675"><ele>2064.3</ele><time>2026-03-08T07:53:47.000Z</time></trkpt>
<trkpt lat="42.099263" lon="23.611666"><ele>2064.3</ele><time>2026-03-08T07:53:48.000Z</time></trkpt>
<trkpt lat="42.099269" lon="23.611657"><ele>2064.3</ele><time>2026-03-08T07:53:49.000Z</time></trkpt>
<trkpt lat="42.099275" lon="23.611648"><ele>2064.3</ele><time>2026-03-08T07:53:50.000Z</time></trkpt>
<trkpt lat="42.099281" lon="23.611639"><ele>2064.3</ele><time>2026-03-08T07:53:51.000Z</time></trkpt>
<trkpt lat="42.099287" lon="23.611631"><ele>2064.4</ele><time>2026-03-08T07:53:52.000Z</time></trkpt>
<trkpt lat="42.099293" lon="23.611623"><ele>2064.4</ele><time>2026-03-08T07:53:53.000Z</time></trkpt>
<trkpt lat="42.099299" lon="23.611615"><ele>2064.4</ele><time>2026-03-08T07:53:54.000Z</time></trkpt>
<trkpt lat="42.099305" lon="23.611608"><ele>2064.4</ele><time>2026-03-08T07:53:55.000Z</time></trkpt>
<trkpt lat="42.09931" lon="23.611602"><ele>2064.4</ele><time>2026-03-08T07:53:56.000Z</time></trkpt>
<trkpt lat="42.099316" lon="23.611595"><ele>2064.5</ele><time>2026-03-08T07:53:57.000Z</time></trkpt>
<trkpt lat="42.099323" lon="23.611589"><ele>2064.5</ele><time>2026-03-08T07:53:58.000Z</time></trkpt>
<trkpt lat="42.099328" lon="23.611584"><ele>2064.5</ele><time>2026-03-08T07:53:59.000Z</time></trkpt>
<trkpt lat="42.099334" lon="23.611579"><ele>2064.5</ele><time>2026-03-08T07:54:00.000Z</time></trkpt>
<trkpt lat="42.099341" lon="23.611572"><ele>2064.5</ele><time>2026-03-08T07:54:01.000Z</time></trkpt>
<trkpt lat="42.099347" lon="23.611566"><ele>2064.8</ele><time>2026-03-08T07:54:02.000Z</time></trkpt>
<trkpt lat="42.099354" lon="23.611559"><ele>2064.8</ele><time>2026-03-08T07:54:03.000Z</time></trkpt>
<trkpt lat="42.099361" lon="23.611551"><ele>2064.8</ele><time>2026-03-08T07:54:04.000Z</time></trkpt>
<trkpt lat="42.099365" lon="23.611545"><ele>2064.8</ele><time>2026-03-08T07:54:05.000Z</time></trkpt>
<trkpt lat="42.099368" lon="23.611541"><ele>2064.8</ele><time>2026-03-08T07:54:06.000Z</time></trkpt>
<trkpt lat="42.09937" lon="23.611537"><ele>2065.1</ele><time>2026-03-08T07:54:07.000Z</time></trkpt>
<trkpt lat="42.099371" lon="23.611534"><ele>2065.1</ele><time>2026-03-08T07:54:08.000Z</time></trkpt>
<trkpt lat="42.09937" lon="23.611531"><ele>2065.1</ele><time>2026-03-08T07:54:09.000Z</time></trkpt>
<trkpt lat="42.099369" lon="23.611528"><ele>2065.1</ele><time>2026-03-08T07:54:10.000Z</time></trkpt>
<trkpt lat="42.09937" lon="23.611525"><ele>2065.1</ele><time>2026-03-08T07:54:11.000Z</time></trkpt>
<trkpt lat="42.099371" lon="23.611521"><ele>2065.3</ele><time>2026-03-08T07:54:12.000Z</time></trkpt>
<trkpt lat="42.099374" lon="23.611518"><ele>2065.3</ele><time>2026-03-08T07:54:13.000Z</time></trkpt>
<trkpt lat="42.099376" lon="23.611516"><ele>2065.3</ele><time>2026-03-08T07:54:14.000Z</time></trkpt>
<trkpt lat="42.099379" lon="23.611514"><ele>2065.3</ele><time>2026-03-08T07:54:15.000Z</time></trkpt>
<trkpt lat="42.099381" lon="23.611514"><ele>2065.3</ele><time>2026-03-08T07:54:16.000Z</time></trkpt>
<trkpt lat="42.099382" lon="23.611515"><ele>2065.8</ele><time>2026-03-08T07:54:17.000Z</time></trkpt>
<trkpt lat="42.099381" lon="23.611516"><ele>2065.8</ele><time>2026-03-08T07:54:18.000Z</time></trkpt>
<trkpt lat="42.099381" lon="23.611516"><ele>2065.8</ele><time>2026-03-08T07:54:19.000Z</time></trkpt>
<trkpt lat="42.099382" lon="23.611517"><ele>2065.8</ele><time>2026-03-08T07:54:20.000Z</time></trkpt>
<trkpt lat="42.099381" lon="23.611517"><ele>2065.8</ele><time>2026-03-08T07:54:21.000Z</time></trkpt>
<trkpt lat="42.099381" lon="23.611517"><ele>2066.3</ele><time>2026-03-08T07:54:22.000Z</time></trkpt>
<trkpt lat="42.099381" lon="23.611517"><ele>2066.3</ele><time>2026-03-08T07:54:23.000Z</time></trkpt>
<trkpt lat="42.099381" lon="23.611517"><ele>2066.3</ele><time>2026-03-08T07:54:24.000Z</time></trkpt>
<trkpt lat="42.099381" lon="23.611517"><ele>2066.3</ele><time>2026-03-08T07:54:25.000Z</time></trkpt>
<trkpt lat="42.099381" lon="23.611517"><ele>2066.3</ele><time>2026-03-08T07:54:26.000Z</time></trkpt>
<trkpt lat="42.099382" lon="23.611516"><ele>2066.4</ele><time>2026-03-08T07:54:27.000Z</time></trkpt>
<trkpt lat="42.099382" lon="23.611515"><ele>2066.4</ele><time>2026-03-08T07:54:28.000Z</time></trkpt>
<trkpt lat="42.099382" lon="23.611515"><ele>2066.4</ele><time>2026-03-08T07:54:29.000Z</time></trkpt>
<trkpt lat="42.099383" lon="23.611513"><ele>2066.4</ele><time>2026-03-08T07:54:30.000Z</time></trkpt>
<trkpt lat="42.099385" lon="23.611509"><ele>2066.4</ele><time>2026-03-08T07:54:31.000Z</time></trkpt>
<trkpt lat="42.099388" lon="23.611505"><ele>2066.4</ele><time>2026-03-08T07:54:32.000Z</time></trkpt>
<trkpt lat="42.099392" lon="23.6115"><ele>2066.4</ele><time>2026-03-08T07:54:33.000Z</time></trkpt>
<trkpt lat="42.099397" lon="23.611493"><ele>2066.4</ele><time>2026-03-08T07:54:34.000Z</time></trkpt>
<trkpt lat="42.099402" lon="23.611488"><ele>2066.4</ele><time>2026-03-08T07:54:35.000Z</time></trkpt>
<trkpt lat="42.099406" lon="23.611484"><ele>2066.4</ele><time>2026-03-08T07:54:36.000Z</time></trkpt>
<trkpt lat="42.09941" lon="23.61148"><ele>2066.3</ele><time>2026-03-08T07:54:37.000Z</time></trkpt>
<trkpt lat="42.099413" lon="23.611478"><ele>2066.3</ele><time>2026-03-08T07:54:38.000Z</time></trkpt>
<trkpt lat="42.099414" lon="23.611476"><ele>2066.3</ele><time>2026-03-08T07:54:39.000Z</time></trkpt>
<trkpt lat="42.099416" lon="23.611474"><ele>2066.3</ele><time>2026-03-08T07:54:40.000Z</time></trkpt>
<trkpt lat="42.099416" lon="23.611472"><ele>2066.3</ele><time>2026-03-08T07:54:41.000Z</time></trkpt>
<trkpt lat="42.099417" lon="23.611469"><ele>2066.3</ele><time>2026-03-08T07:54:42.000Z</time></trkpt>
<trkpt lat="42.099418" lon="23.611466"><ele>2066.3</ele><time>2026-03-08T07:54:43.000Z</time></trkpt>
<trkpt lat="42.09942" lon="23.611462"><ele>2066.3</ele><time>2026-03-08T07:54:44.000Z</time></trkpt>
<trkpt lat="42.099423" lon="23.611457"><ele>2066.3</ele><time>2026-03-08T07:54:45.000Z</time></trkpt>
<trkpt lat="42.099427" lon="23.611451"><ele>2066.3</ele><time>2026-03-08T07:54:46.000Z</time></trkpt>
<trkpt lat="42.099432" lon="23.611446"><ele>2066.5</ele><time>2026-03-08T07:54:47.000Z</time></trkpt>
<trkpt lat="42.099437" lon="23.611439"><ele>2066.5</ele><time>2026-03-08T07:54:48.000Z</time></trkpt>
<trkpt lat="42.099442" lon="23.611432"><ele>2066.5</ele><time>2026-03-08T07:54:49.000Z</time></trkpt>
<trkpt lat="42.099448" lon="23.611425"><ele>2066.5</ele><time>2026-03-08T07:54:50.000Z</time></trkpt>
<trkpt lat="42.099453" lon="23.611416"><ele>2066.5</ele><time>2026-03-08T07:54:51.000Z</time></trkpt>
<trkpt lat="42.099458" lon="23.611407"><ele>2066.9</ele><time>2026-03-08T07:54:52.000Z</time></trkpt>
<trkpt lat="42.099464" lon="23.611398"><ele>2066.9</ele><time>2026-03-08T07:54:53.000Z</time></trkpt>
<trkpt lat="42.099469" lon="23.611389"><ele>2066.9</ele><time>2026-03-08T07:54:54.000Z</time></trkpt>
<trkpt lat="42.099474" lon="23.611379"><ele>2066.9</ele><time>2026-03-08T07:54:55.000Z</time></trkpt>
<trkpt lat="42.099479" lon="23.61137"><ele>2066.9</ele><time>2026-03-08T07:54:56.000Z</time></trkpt>
<trkpt lat="42.099483" lon="23.611362"><ele>2067</ele><time>2026-03-08T07:54:57.000Z</time></trkpt>
<trkpt lat="42.099488" lon="23.611353"><ele>2067</ele><time>2026-03-08T07:54:58.000Z</time></trkpt>
<trkpt lat="42.099494" lon="23.611344"><ele>2067</ele><time>2026-03-08T07:54:59.000Z</time></trkpt>
<trkpt lat="42.0995" lon="23.611336"><ele>2067</ele><time>2026-03-08T07:55:00.000Z</time></trkpt>
<trkpt lat="42.099505" lon="23.611329"><ele>2067</ele><time>2026-03-08T07:55:01.000Z</time></trkpt>
<trkpt lat="42.099511" lon="23.611321"><ele>2067.4</ele><time>2026-03-08T07:55:02.000Z</time></trkpt>
<trkpt lat="42.099516" lon="23.611314"><ele>2067.4</ele><time>2026-03-08T07:55:03.000Z</time></trkpt>
<trkpt lat="42.09952" lon="23.611307"><ele>2067.4</ele><time>2026-03-08T07:55:04.000Z</time></trkpt>
<trkpt lat="42.099525" lon="23.611301"><ele>2067.4</ele><time>2026-03-08T07:55:05.000Z</time></trkpt>
<trkpt lat="42.099531" lon="23.611293"><ele>2067.4</ele><time>2026-03-08T07:55:06.000Z</time></trkpt>
<trkpt lat="42.099536" lon="23.611284"><ele>2067.7</ele><time>2026-03-08T07:55:07.000Z</time></trkpt>
<trkpt lat="42.099541" lon="23.611274"><ele>2067.7</ele><time>2026-03-08T07:55:08.000Z</time></trkpt>
<trkpt lat="42.099546" lon="23.611263"><ele>2067.7</ele><time>2026-03-08T07:55:09.000Z</time></trkpt>
<trkpt lat="42.099553" lon="23.611252"><ele>2067.7</ele><time>2026-03-08T07:55:10.000Z</time></trkpt>
<trkpt lat="42.099559" lon="23.611241"><ele>2067.7</ele><time>2026-03-08T07:55:11.000Z</time></trkpt>
<trkpt lat="42.099565" lon="23.61123"><ele>2067.8</ele><time>2026-03-08T07:55:12.000Z</time></trkpt>
<trkpt lat="42.099572" lon="23.61122"><ele>2067.8</ele><time>2026-03-08T07:55:13.000Z</time></trkpt>
<trkpt lat="42.099578" lon="23.61121"><ele>2067.8</ele><time>2026-03-08T07:55:14.000Z</time></trkpt>
<trkpt lat="42.099583" lon="23.611201"><ele>2067.8</ele><time>2026-03-08T07:55:15.000Z</time></trkpt>
<trkpt lat="42.099587" lon="23.611193"><ele>2067.8</ele><time>2026-03-08T07:55:16.000Z</time></trkpt>
<trkpt lat="42.099592" lon="23.611186"><ele>2068</ele><time>2026-03-08T07:55:17.000Z</time></trkpt>
<trkpt lat="42.099596" lon="23.611181"><ele>2068</ele><time>2026-03-08T07:55:18.000Z</time></trkpt>
<trkpt lat="42.099599" lon="23.611178"><ele>2068</ele><time>2026-03-08T07:55:19.000Z</time></trkpt>
<trkpt lat="42.0996" lon="23.611176"><ele>2068</ele><time>2026-03-08T07:55:20.000Z</time></trkpt>
<trkpt lat="42.099601" lon="23.611175"><ele>2068</ele><time>2026-03-08T07:55:21.000Z</time></trkpt>
<trkpt lat="42.0996" lon="23.611175"><ele>2068.3</ele><time>2026-03-08T07:55:22.000Z</time></trkpt>
<trkpt lat="42.0996" lon="23.611175"><ele>2068.3</ele><time>2026-03-08T07:55:23.000Z</time></trkpt>
<trkpt lat="42.099599" lon="23.611176"><ele>2068.3</ele><time>2026-03-08T07:55:24.000Z</time></trkpt>
<trkpt lat="42.0996" lon="23.611176"><ele>2068.3</ele><time>2026-03-08T07:55:25.000Z</time></trkpt>
<trkpt lat="42.0996" lon="23.611176"><ele>2068.3</ele><time>2026-03-08T07:55:26.000Z</time></trkpt>
<trkpt lat="42.0996" lon="23.611176"><ele>2068.6</ele><time>2026-03-08T07:55:27.000Z</time></trkpt>
<trkpt lat="42.0996" lon="23.611175"><ele>2068.6</ele><time>2026-03-08T07:55:28.000Z</time></trkpt>
<trkpt lat="42.0996" lon="23.611175"><ele>2068.6</ele><time>2026-03-08T07:55:29.000Z</time></trkpt>
<trkpt lat="42.0996" lon="23.611174"><ele>2068.6</ele><time>2026-03-08T07:55:30.000Z</time></trkpt>
<trkpt lat="42.099599" lon="23.611174"><ele>2068.6</ele><time>2026-03-08T07:55:31.000Z</time></trkpt>
<trkpt lat="42.099599" lon="23.611174"><ele>2069</ele><time>2026-03-08T07:55:32.000Z</time></trkpt>
<trkpt lat="42.099599" lon="23.611173"><ele>2069</ele><time>2026-03-08T07:55:33.000Z</time></trkpt>
<trkpt lat="42.099599" lon="23.611173"><ele>2069</ele><time>2026-03-08T07:55:34.000Z</time></trkpt>
<trkpt lat="42.099599" lon="23.611173"><ele>2069</ele><time>2026-03-08T07:55:35.000Z</time></trkpt>
<trkpt lat="42.099599" lon="23.611173"><ele>2069</ele><time>2026-03-08T07:55:36.000Z</time></trkpt>
<trkpt lat="42.099599" lon="23.611174"><ele>2069.3</ele><time>2026-03-08T07:55:37.000Z</time></trkpt>
<trkpt lat="42.0996" lon="23.611175"><ele>2069.3</ele><time>2026-03-08T07:55:38.000Z</time></trkpt>
<trkpt lat="42.099601" lon="23.611176"><ele>2069.3</ele><time>2026-03-08T07:55:39.000Z</time></trkpt>
<trkpt lat="42.099602" lon="23.611176"><ele>2069.3</ele><time>2026-03-08T07:55:40.000Z</time></trkpt>
<trkpt lat="42.099602" lon="23.611177"><ele>2069.3</ele><time>2026-03-08T07:55:41.000Z</time></trkpt>
<trkpt lat="42.099603" lon="23.611177"><ele>2069.4</ele><time>2026-03-08T07:55:42.000Z</time></trkpt>
<trkpt lat="42.099604" lon="23.611177"><ele>2069.4</ele><time>2026-03-08T07:55:43.000Z</time></trkpt>
<trkpt lat="42.099604" lon="23.611177"><ele>2069.4</ele><time>2026-03-08T07:55:44.000Z</time></trkpt>
<trkpt lat="42.099604" lon="23.611177"><ele>2069.4</ele><time>2026-03-08T07:55:45.000Z</time></trkpt>
<trkpt lat="42.099604" lon="23.611178"><ele>2069.4</ele><time>2026-03-08T07:55:46.000Z</time></trkpt>
<trkpt lat="42.099604" lon="23.611178"><ele>2069.5</ele><time>2026-03-08T07:55:47.000Z</time></trkpt>
<trkpt lat="42.099604" lon="23.611178"><ele>2069.5</ele><time>2026-03-08T07:55:48.000Z</time></trkpt>
<trkpt lat="42.099604" lon="23.611178"><ele>2069.5</ele><time>2026-03-08T07:55:49.000Z</time></trkpt>
<trkpt lat="42.099604" lon="23.611179"><ele>2069.5</ele><time>2026-03-08T07:55:50.000Z</time></trkpt>
<trkpt lat="42.099604" lon="23.611179"><ele>2069.5</ele><time>2026-03-08T07:55:51.000Z</time></trkpt>
<trkpt lat="42.099604" lon="23.611179"><ele>2069.2</ele><time>2026-03-08T07:55:52.000Z</time></trkpt>
<trkpt lat="42.099604" lon="23.611179"><ele>2069.2</ele><time>2026-03-08T07:55:53.000Z</time></trkpt>
<trkpt lat="42.099604" lon="23.611179"><ele>2069.2</ele><time>2026-03-08T07:55:54.000Z</time></trkpt>
<trkpt lat="42.099604" lon="23.611179"><ele>2069.2</ele><time>2026-03-08T07:55:55.000Z</time></trkpt>
<trkpt lat="42.099604" lon="23.611179"><ele>2069.2</ele><time>2026-03-08T07:55:56.000Z</time></trkpt>
<trkpt lat="42.099604" lon="23.611179"><ele>2069.1</ele><time>2026-03-08T07:55:57.000Z</time></trkpt>
<trkpt lat="42.099604" lon="23.611179"><ele>2069.1</ele><time>2026-03-08T07:55:58.000Z</time></trkpt>
<trkpt lat="42.099604" lon="23.611179"><ele>2069.1</ele><time>2026-03-08T07:55:59.000Z</time></trkpt>
<trkpt lat="42.099604" lon="23.611179"><ele>2069.1</ele><time>2026-03-08T07:56:00.000Z</time></trkpt>
<trkpt lat="42.099604" lon="23.611178"><ele>2069.1</ele><time>2026-03-08T07:56:01.000Z</time></trkpt>
<trkpt lat="42.099604" lon="23.611178"><ele>2069</ele><time>2026-03-08T07:56:02.000Z</time></trkpt>
<trkpt lat="42.099603" lon="23.611178"><ele>2069</ele><time>2026-03-08T07:56:03.000Z</time></trkpt>
<trkpt lat="42.099603" lon="23.611178"><ele>2069</ele><time>2026-03-08T07:56:04.000Z</time></trkpt>
<trkpt lat="42.099603" lon="23.611177"><ele>2069</ele><time>2026-03-08T07:56:05.000Z</time></trkpt>
<trkpt lat="42.099603" lon="23.611177"><ele>2069</ele><time>2026-03-08T07:56:06.000Z</time></trkpt>
<trkpt lat="42.099603" lon="23.611177"><ele>2069</ele><time>2026-03-08T07:56:07.000Z</time></trkpt>
<trkpt lat="42.099603" lon="23.611177"><ele>2069</ele><time>2026-03-08T07:56:08.000Z</time></trkpt>
<trkpt lat="42.099603" lon="23.611177"><ele>2069</ele><time>2026-03-08T07:56:09.000Z</time></trkpt>
<trkpt lat="42.099603" lon="23.611177"><ele>2069</ele><time>2026-03-08T07:56:10.000Z</time></trkpt>
<trkpt lat="42.099602" lon="23.611177"><ele>2069</ele><time>2026-03-08T07:56:11.000Z</time></trkpt>
<trkpt lat="42.099602" lon="23.611177"><ele>2069</ele><time>2026-03-08T07:56:12.000Z</time></trkpt>
<trkpt lat="42.099602" lon="23.611178"><ele>2069</ele><time>2026-03-08T07:56:13.000Z</time></trkpt>
<trkpt lat="42.099601" lon="23.611178"><ele>2069</ele><time>2026-03-08T07:56:14.000Z</time></trkpt>
<trkpt lat="42.099601" lon="23.611178"><ele>2069</ele><time>2026-03-08T07:56:15.000Z</time></trkpt>
<trkpt lat="42.099601" lon="23.611178"><ele>2069</ele><time>2026-03-08T07:56:16.000Z</time></trkpt>
<trkpt lat="42.099601" lon="23.611178"><ele>2068.9</ele><time>2026-03-08T07:56:17.000Z</time></trkpt>
<trkpt lat="42.099601" lon="23.611178"><ele>2068.9</ele><time>2026-03-08T07:56:18.000Z</time></trkpt>
<trkpt lat="42.099601" lon="23.611178"><ele>2068.9</ele><time>2026-03-08T07:56:19.000Z</time></trkpt>
<trkpt lat="42.099601" lon="23.611178"><ele>2068.9</ele><time>2026-03-08T07:56:20.000Z</time></trkpt>
<trkpt lat="42.099601" lon="23.611178"><ele>2068.9</ele><time>2026-03-08T07:56:21.000Z</time></trkpt>
<trkpt lat="42.099602" lon="23.611178"><ele>2068.9</ele><time>2026-03-08T07:56:22.000Z</time></trkpt>
<trkpt lat="42.099602" lon="23.611178"><ele>2068.9</ele><time>2026-03-08T07:56:23.000Z</time></trkpt>
<trkpt lat="42.099602" lon="23.611178"><ele>2068.9</ele><time>2026-03-08T07:56:24.000Z</time></trkpt>
<trkpt lat="42.099602" lon="23.611178"><ele>2068.9</ele><time>2026-03-08T07:56:25.000Z</time></trkpt>
<trkpt lat="42.099602" lon="23.611178"><ele>2068.9</ele><time>2026-03-08T07:56:26.000Z</time></trkpt>
<trkpt lat="42.099602" lon="23.611178"><ele>2069</ele><time>2026-03-08T07:56:27.000Z</time></trkpt>
<trkpt lat="42.099602" lon="23.611178"><ele>2069</ele><time>2026-03-08T07:56:28.000Z</time></trkpt>
<trkpt lat="42.099602" lon="23.611178"><ele>2069</ele><time>2026-03-08T07:56:29.000Z</time></trkpt>
<trkpt lat="42.099602" lon="23.611178"><ele>2069</ele><time>2026-03-08T07:56:30.000Z</time></trkpt>
<trkpt lat="42.099602" lon="23.611178"><ele>2069</ele><time>2026-03-08T07:56:31.000Z</time></trkpt>
<trkpt lat="42.099602" lon="23.611178"><ele>2069.1</ele><time>2026-03-08T07:56:32.000Z</time></trkpt>
<trkpt lat="42.099602" lon="23.611178"><ele>2069.1</ele><time>2026-03-08T07:56:33.000Z</time></trkpt>
<trkpt lat="42.099603" lon="23.611177"><ele>2069.1</ele><time>2026-03-08T07:56:34.000Z</time></trkpt>
<trkpt lat="42.099603" lon="23.611177"><ele>2069.1</ele><time>2026-03-08T07:56:35.000Z</time></trkpt>
<trkpt lat="42.099603" lon="23.611176"><ele>2069.1</ele><time>2026-03-08T07:56:36.000Z</time></trkpt>
<trkpt lat="42.099603" lon="23.611176"><ele>2069.3</ele><time>2026-03-08T07:56:37.000Z</time></trkpt>
<trkpt lat="42.099604" lon="23.611175"><ele>2069.3</ele><time>2026-03-08T07:56:38.000Z</time></trkpt>
<trkpt lat="42.099604" lon="23.611175"><ele>2069.3</ele><time>2026-03-08T07:56:39.000Z</time></trkpt>
<trkpt lat="42.099604" lon="23.611175"><ele>2069.3</ele><time>2026-03-08T07:56:40.000Z</time></trkpt>
<trkpt lat="42.099604" lon="23.611175"><ele>2069.3</ele><time>2026-03-08T07:56:41.000Z</time></trkpt>
<trkpt lat="42.099604" lon="23.611175"><ele>2069.3</ele><time>2026-03-08T07:56:42.000Z</time></trkpt>
<trkpt lat="42.099603" lon="23.611175"><ele>2069.3</ele><time>2026-03-08T07:56:43.000Z</time></trkpt>
<trkpt lat="42.099603" lon="23.611175"><ele>2069.3</ele><time>2026-03-08T07:56:44.000Z</time></trkpt>
<trkpt lat="42.099603" lon="23.611175"><ele>2069.3</ele><time>2026-03-08T07:56:45.000Z</time></trkpt>
<trkpt lat="42.099603" lon="23.611175"><ele>2069.3</ele><time>2026-03-08T07:56:46.000Z</time></trkpt>
<trkpt lat="42.099603" lon="23.611175"><ele>2069.2</ele><time>2026-03-08T07:56:47.000Z</time></trkpt>
<trkpt lat="42.099603" lon="23.611175"><ele>2069.2</ele><time>2026-03-08T07:56:48.000Z</time></trkpt>
<trkpt lat="42.099603" lon="23.611175"><ele>2069.2</ele><time>2026-03-08T07:56:49.000Z</time></trkpt>
<trkpt lat="42.099603" lon="23.611175"><ele>2069.2</ele><time>2026-03-08T07:56:50.000Z</time></trkpt>
<trkpt lat="42.099603" lon="23.611175"><ele>2069.2</ele><time>2026-03-08T07:56:51.000Z</time></trkpt>
<trkpt lat="42.099603" lon="23.611175"><ele>2069</ele><time>2026-03-08T07:56:52.000Z</time></trkpt>
<trkpt lat="42.099603" lon="23.611175"><ele>2069</ele><time>2026-03-08T07:56:53.000Z</time></trkpt>
<trkpt lat="42.099603" lon="23.611175"><ele>2069</ele><time>2026-03-08T07:56:54.000Z</time></trkpt>
<trkpt lat="42.099603" lon="23.611175"><ele>2069</ele><time>2026-03-08T07:56:55.000Z</time></trkpt>
<trkpt lat="42.099603" lon="23.611175"><ele>2069</ele><time>2026-03-08T07:56:56.000Z</time></trkpt>
<trkpt lat="42.099603" lon="23.611175"><ele>2068.9</ele><time>2026-03-08T07:56:57.000Z</time></trkpt>
<trkpt lat="42.099603" lon="23.611174"><ele>2068.9</ele><time>2026-03-08T07:56:58.000Z</time></trkpt>
<trkpt lat="42.099603" lon="23.611173"><ele>2068.9</ele><time>2026-03-08T07:56:59.000Z</time></trkpt>
<trkpt lat="42.099603" lon="23.611172"><ele>2068.9</ele><time>2026-03-08T07:57:00.000Z</time></trkpt>
<trkpt lat="42.099603" lon="23.611172"><ele>2068.9</ele><time>2026-03-08T07:57:01.000Z</time></trkpt>
<trkpt lat="42.099603" lon="23.611171"><ele>2068.8</ele><time>2026-03-08T07:57:02.000Z</time></trkpt>
<trkpt lat="42.099603" lon="23.611171"><ele>2068.8</ele><time>2026-03-08T07:57:03.000Z</time></trkpt>
<trkpt lat="42.099603" lon="23.611171"><ele>2068.8</ele><time>2026-03-08T07:57:04.000Z</time></trkpt>
<trkpt lat="42.099603" lon="23.611171"><ele>2068.8</ele><time>2026-03-08T07:57:05.000Z</time></trkpt>
<trkpt lat="42.099603" lon="23.611171"><ele>2068.8</ele><time>2026-03-08T07:57:06.000Z</time></trkpt>
<trkpt lat="42.099603" lon="23.611171"><ele>2068.8</ele><time>2026-03-08T07:57:07.000Z</time></trkpt>
<trkpt lat="42.099604" lon="23.61117"><ele>2068.8</ele><time>2026-03-08T07:57:08.000Z</time></trkpt>
<trkpt lat="42.099607" lon="23.611166"><ele>2068.8</ele><time>2026-03-08T07:57:09.000Z</time></trkpt>
<trkpt lat="42.09961" lon="23.611161"><ele>2068.8</ele><time>2026-03-08T07:57:10.000Z</time></trkpt>
<trkpt lat="42.099614" lon="23.611156"><ele>2068.8</ele><time>2026-03-08T07:57:11.000Z</time></trkpt>
<trkpt lat="42.099618" lon="23.611149"><ele>2068.9</ele><time>2026-03-08T07:57:12.000Z</time></trkpt>
<trkpt lat="42.099621" lon="23.611144"><ele>2068.9</ele><time>2026-03-08T07:57:13.000Z</time></trkpt>
<trkpt lat="42.099625" lon="23.611138"><ele>2068.9</ele><time>2026-03-08T07:57:14.000Z</time></trkpt>
<trkpt lat="42.099629" lon="23.611133"><ele>2068.9</ele><time>2026-03-08T07:57:15.000Z</time></trkpt>
<trkpt lat="42.099633" lon="23.611126"><ele>2068.9</ele><time>2026-03-08T07:57:16.000Z</time></trkpt>
<trkpt lat="42.099638" lon="23.611118"><ele>2068.9</ele><time>2026-03-08T07:57:17.000Z</time></trkpt>
<trkpt lat="42.099643" lon="23.611108"><ele>2068.9</ele><time>2026-03-08T07:57:18.000Z</time></trkpt>
<trkpt lat="42.099648" lon="23.611098"><ele>2068.9</ele><time>2026-03-08T07:57:19.000Z</time></trkpt>
<trkpt lat="42.099652" lon="23.611088"><ele>2068.9</ele><time>2026-03-08T07:57:20.000Z</time></trkpt>
<trkpt lat="42.099657" lon="23.611077"><ele>2068.9</ele><time>2026-03-08T07:57:21.000Z</time></trkpt>
<trkpt lat="42.099661" lon="23.611067"><ele>2069.1</ele><time>2026-03-08T07:57:22.000Z</time></trkpt>
<trkpt lat="42.099664" lon="23.611059"><ele>2069.1</ele><time>2026-03-08T07:57:23.000Z</time></trkpt>
<trkpt lat="42.099668" lon="23.611052"><ele>2069.1</ele><time>2026-03-08T07:57:24.000Z</time></trkpt>
<trkpt lat="42.099671" lon="23.611045"><ele>2069.1</ele><time>2026-03-08T07:57:25.000Z</time></trkpt>
<trkpt lat="42.099674" lon="23.611038"><ele>2069.1</ele><time>2026-03-08T07:57:26.000Z</time></trkpt>
<trkpt lat="42.099678" lon="23.611032"><ele>2069.2</ele><time>2026-03-08T07:57:27.000Z</time></trkpt>
<trkpt lat="42.099682" lon="23.611025"><ele>2069.2</ele><time>2026-03-08T07:57:28.000Z</time></trkpt>
<trkpt lat="42.099685" lon="23.611017"><ele>2069.2</ele><time>2026-03-08T07:57:29.000Z</time></trkpt>
<trkpt lat="42.099689" lon="23.611009"><ele>2069.2</ele><time>2026-03-08T07:57:30.000Z</time></trkpt>
<trkpt lat="42.099693" lon="23.611"><ele>2069.2</ele><time>2026-03-08T07:57:31.000Z</time></trkpt>
<trkpt lat="42.099696" lon="23.610992"><ele>2069.5</ele><time>2026-03-08T07:57:32.000Z</time></trkpt>
<trkpt lat="42.0997" lon="23.610983"><ele>2069.5</ele><time>2026-03-08T07:57:33.000Z</time></trkpt>
<trkpt lat="42.099704" lon="23.610976"><ele>2069.5</ele><time>2026-03-08T07:57:34.000Z</time></trkpt>
<trkpt lat="42.099708" lon="23.610968"><ele>2069.5</ele><time>2026-03-08T07:57:35.000Z</time></trkpt>
<trkpt lat="42.099713" lon="23.610959"><ele>2069.5</ele><time>2026-03-08T07:57:36.000Z</time></trkpt>
<trkpt lat="42.099716" lon="23.61095"><ele>2070</ele><time>2026-03-08T07:57:37.000Z</time></trkpt>
<trkpt lat="42.09972" lon="23.61094"><ele>2070</ele><time>2026-03-08T07:57:38.000Z</time></trkpt>
<trkpt lat="42.099724" lon="23.610929"><ele>2070</ele><time>2026-03-08T07:57:39.000Z</time></trkpt>
<trkpt lat="42.099728" lon="23.610918"><ele>2070</ele><time>2026-03-08T07:57:40.000Z</time></trkpt>
<trkpt lat="42.099732" lon="23.610907"><ele>2070</ele><time>2026-03-08T07:57:41.000Z</time></trkpt>
<trkpt lat="42.099736" lon="23.610897"><ele>2070.3</ele><time>2026-03-08T07:57:42.000Z</time></trkpt>
<trkpt lat="42.099741" lon="23.610885"><ele>2070.3</ele><time>2026-03-08T07:57:43.000Z</time></trkpt>
<trkpt lat="42.099747" lon="23.610873"><ele>2070.3</ele><time>2026-03-08T07:57:44.000Z</time></trkpt>
<trkpt lat="42.099752" lon="23.610861"><ele>2070.3</ele><time>2026-03-08T07:57:45.000Z</time></trkpt>
<trkpt lat="42.099757" lon="23.610849"><ele>2070.3</ele><time>2026-03-08T07:57:46.000Z</time></trkpt>
<trkpt lat="42.099762" lon="23.610837"><ele>2070.9</ele><time>2026-03-08T07:57:47.000Z</time></trkpt>
<trkpt lat="42.099767" lon="23.610825"><ele>2070.9</ele><time>2026-03-08T07:57:48.000Z</time></trkpt>
<trkpt lat="42.099772" lon="23.610814"><ele>2070.9</ele><time>2026-03-08T07:57:49.000Z</time></trkpt>
<trkpt lat="42.099776" lon="23.610802"><ele>2070.9</ele><time>2026-03-08T07:57:50.000Z</time></trkpt>
<trkpt lat="42.09978" lon="23.610789"><ele>2070.9</ele><time>2026-03-08T07:57:51.000Z</time></trkpt>
<trkpt lat="42.099784" lon="23.610776"><ele>2071.5</ele><time>2026-03-08T07:57:52.000Z</time></trkpt>
<trkpt lat="42.099787" lon="23.610763"><ele>2071.5</ele><time>2026-03-08T07:57:53.000Z</time></trkpt>
<trkpt lat="42.09979" lon="23.61075"><ele>2071.5</ele><time>2026-03-08T07:57:54.000Z</time></trkpt>
<trkpt lat="42.099794" lon="23.610737"><ele>2071.5</ele><time>2026-03-08T07:57:55.000Z</time></trkpt>
<trkpt lat="42.099799" lon="23.610724"><ele>2071.5</ele><time>2026-03-08T07:57:56.000Z</time></trkpt>
<trkpt lat="42.099803" lon="23.610712"><ele>2071.8</ele><time>2026-03-08T07:57:57.000Z</time></trkpt>
<trkpt lat="42.099808" lon="23.610701"><ele>2071.8</ele><time>2026-03-08T07:57:58.000Z</time></trkpt>
<trkpt lat="42.099814" lon="23.61069"><ele>2071.8</ele><time>2026-03-08T07:57:59.000Z</time></trkpt>
<trkpt lat="42.099818" lon="23.61068"><ele>2071.8</ele><time>2026-03-08T07:58:00.000Z</time></trkpt>
<trkpt lat="42.099821" lon="23.610672"><ele>2071.8</ele><time>2026-03-08T07:58:01.000Z</time></trkpt>
<trkpt lat="42.099824" lon="23.610663"><ele>2072.3</ele><time>2026-03-08T07:58:02.000Z</time></trkpt>
<trkpt lat="42.099828" lon="23.610653"><ele>2072.3</ele><time>2026-03-08T07:58:03.000Z</time></trkpt>
<trkpt lat="42.099831" lon="23.610645"><ele>2072.3</ele><time>2026-03-08T07:58:04.000Z</time></trkpt>
<trkpt lat="42.099834" lon="23.610636"><ele>2072.3</ele><time>2026-03-08T07:58:05.000Z</time></trkpt>
<trkpt lat="42.099838" lon="23.610625"><ele>2072.3</ele><time>2026-03-08T07:58:06.000Z</time></trkpt>
<trkpt lat="42.099842" lon="23.610616"><ele>2072.8</ele><time>2026-03-08T07:58:07.000Z</time></trkpt>
<trkpt lat="42.099845" lon="23.610607"><ele>2072.8</ele><time>2026-03-08T07:58:08.000Z</time></trkpt>
<trkpt lat="42.099849" lon="23.610598"><ele>2072.8</ele><time>2026-03-08T07:58:09.000Z</time></trkpt>
<trkpt lat="42.099853" lon="23.610588"><ele>2072.8</ele><time>2026-03-08T07:58:10.000Z</time></trkpt>
<trkpt lat="42.099858" lon="23.610578"><ele>2072.8</ele><time>2026-03-08T07:58:11.000Z</time></trkpt>
<trkpt lat="42.099863" lon="23.610569"><ele>2073.2</ele><time>2026-03-08T07:58:12.000Z</time></trkpt>
<trkpt lat="42.099867" lon="23.610559"><ele>2073.2</ele><time>2026-03-08T07:58:13.000Z</time></trkpt>
<trkpt lat="42.099872" lon="23.610549"><ele>2073.2</ele><time>2026-03-08T07:58:14.000Z</time></trkpt>
<trkpt lat="42.099875" lon="23.610539"><ele>2073.2</ele><time>2026-03-08T07:58:15.000Z</time></trkpt>
<trkpt lat="42.099878" lon="23.610528"><ele>2073.2</ele><time>2026-03-08T07:58:16.000Z</time></trkpt>
<trkpt lat="42.099882" lon="23.610516"><ele>2073.8</ele><time>2026-03-08T07:58:17.000Z</time></trkpt>
<trkpt lat="42.099885" lon="23.610503"><ele>2073.8</ele><time>2026-03-08T07:58:18.000Z</time></trkpt>
<trkpt lat="42.099888" lon="23.61049"><ele>2073.8</ele><time>2026-03-08T07:58:19.000Z</time></trkpt>
<trkpt lat="42.099891" lon="23.610477"><ele>2073.8</ele><time>2026-03-08T07:58:20.000Z</time></trkpt>
<trkpt lat="42.099894" lon="23.610464"><ele>2073.8</ele><time>2026-03-08T07:58:21.000Z</time></trkpt>
<trkpt lat="42.099897" lon="23.610451"><ele>2074.4</ele><time>2026-03-08T07:58:22.000Z</time></trkpt>
<trkpt lat="42.0999" lon="23.610438"><ele>2074.4</ele><time>2026-03-08T07:58:23.000Z</time></trkpt>
<trkpt lat="42.099904" lon="23.610427"><ele>2074.4</ele><time>2026-03-08T07:58:24.000Z</time></trkpt>
<trkpt lat="42.099907" lon="23.610415"><ele>2074.4</ele><time>2026-03-08T07:58:25.000Z</time></trkpt>
<trkpt lat="42.099911" lon="23.610402"><ele>2074.4</ele><time>2026-03-08T07:58:26.000Z</time></trkpt>
<trkpt lat="42.099914" lon="23.610391"><ele>2074.7</ele><time>2026-03-08T07:58:27.000Z</time></trkpt>
<trkpt lat="42.099917" lon="23.61038"><ele>2074.7</ele><time>2026-03-08T07:58:28.000Z</time></trkpt>
<trkpt lat="42.09992" lon="23.610368"><ele>2074.7</ele><time>2026-03-08T07:58:29.000Z</time></trkpt>
<trkpt lat="42.099924" lon="23.610358"><ele>2074.7</ele><time>2026-03-08T07:58:30.000Z</time></trkpt>
<trkpt lat="42.099928" lon="23.610348"><ele>2074.7</ele><time>2026-03-08T07:58:31.000Z</time></trkpt>
<trkpt lat="42.099932" lon="23.610338"><ele>2075.4</ele><time>2026-03-08T07:58:32.000Z</time></trkpt>
<trkpt lat="42.099936" lon="23.610328"><ele>2075.4</ele><time>2026-03-08T07:58:33.000Z</time></trkpt>
<trkpt lat="42.099939" lon="23.610319"><ele>2075.4</ele><time>2026-03-08T07:58:34.000Z</time></trkpt>
<trkpt lat="42.099942" lon="23.610309"><ele>2075.4</ele><time>2026-03-08T07:58:35.000Z</time></trkpt>
<trkpt lat="42.099945" lon="23.610299"><ele>2075.4</ele><time>2026-03-08T07:58:36.000Z</time></trkpt>
<trkpt lat="42.099947" lon="23.610289"><ele>2076</ele><time>2026-03-08T07:58:37.000Z</time></trkpt>
<trkpt lat="42.09995" lon="23.610277"><ele>2076</ele><time>2026-03-08T07:58:38.000Z</time></trkpt>
<trkpt lat="42.099953" lon="23.610267"><ele>2076</ele><time>2026-03-08T07:58:39.000Z</time></trkpt>
<trkpt lat="42.099957" lon="23.610256"><ele>2076</ele><time>2026-03-08T07:58:40.000Z</time></trkpt>
<trkpt lat="42.09996" lon="23.610245"><ele>2076</ele><time>2026-03-08T07:58:41.000Z</time></trkpt>
<trkpt lat="42.099963" lon="23.610233"><ele>2076.4</ele><time>2026-03-08T07:58:42.000Z</time></trkpt>
<trkpt lat="42.099966" lon="23.610222"><ele>2076.4</ele><time>2026-03-08T07:58:43.000Z</time></trkpt>
<trkpt lat="42.099969" lon="23.610211"><ele>2076.4</ele><time>2026-03-08T07:58:44.000Z</time></trkpt>
<trkpt lat="42.099972" lon="23.6102"><ele>2076.4</ele><time>2026-03-08T07:58:45.000Z</time></trkpt>
<trkpt lat="42.099975" lon="23.61019"><ele>2076.4</ele><time>2026-03-08T07:58:46.000Z</time></trkpt>
<trkpt lat="42.099978" lon="23.61018"><ele>2077.1</ele><time>2026-03-08T07:58:47.000Z</time></trkpt>
<trkpt lat="42.09998" lon="23.61017"><ele>2077.1</ele><time>2026-03-08T07:58:48.000Z</time></trkpt>
<trkpt lat="42.099983" lon="23.61016"><ele>2077.1</ele><time>2026-03-08T07:58:49.000Z</time></trkpt>
<trkpt lat="42.099985" lon="23.61015"><ele>2077.1</ele><time>2026-03-08T07:58:50.000Z</time></trkpt>
<trkpt lat="42.099987" lon="23.61014"><ele>2077.1</ele><time>2026-03-08T07:58:51.000Z</time></trkpt>
<trkpt lat="42.099989" lon="23.610131"><ele>2077.8</ele><time>2026-03-08T07:58:52.000Z</time></trkpt>
<trkpt lat="42.099993" lon="23.610121"><ele>2077.8</ele><time>2026-03-08T07:58:53.000Z</time></trkpt>
<trkpt lat="42.099996" lon="23.610111"><ele>2077.8</ele><time>2026-03-08T07:58:54.000Z</time></trkpt>
<trkpt lat="42.099999" lon="23.610103"><ele>2077.8</ele><time>2026-03-08T07:58:55.000Z</time></trkpt>
<trkpt lat="42.100002" lon="23.610094"><ele>2077.8</ele><time>2026-03-08T07:58:56.000Z</time></trkpt>
<trkpt lat="42.100006" lon="23.610085"><ele>2078.2</ele><time>2026-03-08T07:58:57.000Z</time></trkpt>
<trkpt lat="42.100008" lon="23.610076"><ele>2078.2</ele><time>2026-03-08T07:58:58.000Z</time></trkpt>
<trkpt lat="42.100011" lon="23.610067"><ele>2078.2</ele><time>2026-03-08T07:58:59.000Z</time></trkpt>
<trkpt lat="42.100013" lon="23.610059"><ele>2078.2</ele><time>2026-03-08T07:59:00.000Z</time></trkpt>
<trkpt lat="42.100015" lon="23.610049"><ele>2078.2</ele><time>2026-03-08T07:59:01.000Z</time></trkpt>
<trkpt lat="42.100016" lon="23.610041"><ele>2078.9</ele><time>2026-03-08T07:59:02.000Z</time></trkpt>
<trkpt lat="42.100017" lon="23.610032"><ele>2078.9</ele><time>2026-03-08T07:59:03.000Z</time></trkpt>
<trkpt lat="42.100018" lon="23.610022"><ele>2078.9</ele><time>2026-03-08T07:59:04.000Z</time></trkpt>
<trkpt lat="42.10002" lon="23.610012"><ele>2078.9</ele><time>2026-03-08T07:59:05.000Z</time></trkpt>
<trkpt lat="42.100022" lon="23.610002"><ele>2078.9</ele><time>2026-03-08T07:59:06.000Z</time></trkpt>
<trkpt lat="42.100025" lon="23.609991"><ele>2079.8</ele><time>2026-03-08T07:59:07.000Z</time></trkpt>
<trkpt lat="42.100029" lon="23.609979"><ele>2079.8</ele><time>2026-03-08T07:59:08.000Z</time></trkpt>
<trkpt lat="42.100032" lon="23.609968"><ele>2079.8</ele><time>2026-03-08T07:59:09.000Z</time></trkpt>
<trkpt lat="42.100035" lon="23.609957"><ele>2079.8</ele><time>2026-03-08T07:59:10.000Z</time></trkpt>
<trkpt lat="42.100039" lon="23.609945"><ele>2079.8</ele><time>2026-03-08T07:59:11.000Z</time></trkpt>
<trkpt lat="42.100042" lon="23.609933"><ele>2080.3</ele><time>2026-03-08T07:59:12.000Z</time></trkpt>
<trkpt lat="42.100045" lon="23.609922"><ele>2080.3</ele><time>2026-03-08T07:59:13.000Z</time></trkpt>
<trkpt lat="42.100049" lon="23.60991"><ele>2080.3</ele><time>2026-03-08T07:59:14.000Z</time></trkpt>
<trkpt lat="42.100052" lon="23.609898"><ele>2080.3</ele><time>2026-03-08T07:59:15.000Z</time></trkpt>
<trkpt lat="42.100054" lon="23.609887"><ele>2080.3</ele><time>2026-03-08T07:59:16.000Z</time></trkpt>
<trkpt lat="42.100057" lon="23.609876"><ele>2081.2</ele><time>2026-03-08T07:59:17.000Z</time></trkpt>
<trkpt lat="42.10006" lon="23.609864"><ele>2081.2</ele><time>2026-03-08T07:59:18.000Z</time></trkpt>
<trkpt lat="42.100062" lon="23.609853"><ele>2081.2</ele><time>2026-03-08T07:59:19.000Z</time></trkpt>
<trkpt lat="42.100065" lon="23.609842"><ele>2081.2</ele><time>2026-03-08T07:59:20.000Z</time></trkpt>
<trkpt lat="42.100068" lon="23.609832"><ele>2081.2</ele><time>2026-03-08T07:59:21.000Z</time></trkpt>
<trkpt lat="42.100071" lon="23.60982"><ele>2082</ele><time>2026-03-08T07:59:22.000Z</time></trkpt>
<trkpt lat="42.100073" lon="23.609809"><ele>2082</ele><time>2026-03-08T07:59:23.000Z</time></trkpt>
<trkpt lat="42.100075" lon="23.609797"><ele>2082</ele><time>2026-03-08T07:59:24.000Z</time></trkpt>
<trkpt lat="42.100077" lon="23.609786"><ele>2082</ele><time>2026-03-08T07:59:25.000Z</time></trkpt>
<trkpt lat="42.100079" lon="23.609775"><ele>2082</ele><time>2026-03-08T07:59:26.000Z</time></trkpt>
<trkpt lat="42.100082" lon="23.609764"><ele>2082.4</ele><time>2026-03-08T07:59:27.000Z</time></trkpt>
<trkpt lat="42.100085" lon="23.609753"><ele>2082.4</ele><time>2026-03-08T07:59:28.000Z</time></trkpt>
<trkpt lat="42.100087" lon="23.609743"><ele>2082.4</ele><time>2026-03-08T07:59:29.000Z</time></trkpt>
<trkpt lat="42.100089" lon="23.609732"><ele>2082.4</ele><time>2026-03-08T07:59:30.000Z</time></trkpt>
<trkpt lat="42.10009" lon="23.60972"><ele>2082.4</ele><time>2026-03-08T07:59:31.000Z</time></trkpt>
<trkpt lat="42.100092" lon="23.609709"><ele>2083</ele><time>2026-03-08T07:59:32.000Z</time></trkpt>
<trkpt lat="42.100095" lon="23.609699"><ele>2083</ele><time>2026-03-08T07:59:33.000Z</time></trkpt>
<trkpt lat="42.100098" lon="23.609688"><ele>2083</ele><time>2026-03-08T07:59:34.000Z</time></trkpt>
<trkpt lat="42.100101" lon="23.609677"><ele>2083</ele><time>2026-03-08T07:59:35.000Z</time></trkpt>
<trkpt lat="42.100103" lon="23.609666"><ele>2083</ele><time>2026-03-08T07:59:36.000Z</time></trkpt>
<trkpt lat="42.100105" lon="23.609655"><ele>2083.5</ele><time>2026-03-08T07:59:37.000Z</time></trkpt>
<trkpt lat="42.100107" lon="23.609643"><ele>2083.5</ele><time>2026-03-08T07:59:38.000Z</time></trkpt>
<trkpt lat="42.100109" lon="23.609632"><ele>2083.5</ele><time>2026-03-08T07:59:39.000Z</time></trkpt>
<trkpt lat="42.100111" lon="23.609621"><ele>2083.5</ele><time>2026-03-08T07:59:40.000Z</time></trkpt>
<trkpt lat="42.100114" lon="23.609612"><ele>2083.5</ele><time>2026-03-08T07:59:41.000Z</time></trkpt>
<trkpt lat="42.100117" lon="23.609601"><ele>2083.7</ele><time>2026-03-08T07:59:42.000Z</time></trkpt>
<trkpt lat="42.10012" lon="23.609591"><ele>2083.7</ele><time>2026-03-08T07:59:43.000Z</time></trkpt>
<trkpt lat="42.100123" lon="23.609582"><ele>2083.7</ele><time>2026-03-08T07:59:44.000Z</time></trkpt>
<trkpt lat="42.100126" lon="23.609572"><ele>2083.7</ele><time>2026-03-08T07:59:45.000Z</time></trkpt>
<trkpt lat="42.100128" lon="23.60956"><ele>2083.7</ele><time>2026-03-08T07:59:46.000Z</time></trkpt>
<trkpt lat="42.100131" lon="23.609548"><ele>2084.2</ele><time>2026-03-08T07:59:47.000Z</time></trkpt>
<trkpt lat="42.100134" lon="23.609536"><ele>2084.2</ele><time>2026-03-08T07:59:48.000Z</time></trkpt>
<trkpt lat="42.100136" lon="23.609525"><ele>2084.2</ele><time>2026-03-08T07:59:49.000Z</time></trkpt>
<trkpt lat="42.100139" lon="23.609513"><ele>2084.2</ele><time>2026-03-08T07:59:50.000Z</time></trkpt>
<trkpt lat="42.100142" lon="23.609502"><ele>2084.2</ele><time>2026-03-08T07:59:51.000Z</time></trkpt>
<trkpt lat="42.100145" lon="23.60949"><ele>2084.8</ele><time>2026-03-08T07:59:52.000Z</time></trkpt>
<trkpt lat="42.100148" lon="23.609479"><ele>2084.8</ele><time>2026-03-08T07:59:53.000Z</time></trkpt>
<trkpt lat="42.100151" lon="23.609467"><ele>2084.8</ele><time>2026-03-08T07:59:54.000Z</time></trkpt>
<trkpt lat="42.100155" lon="23.609455"><ele>2084.8</ele><time>2026-03-08T07:59:55.000Z</time></trkpt>
<trkpt lat="42.100158" lon="23.609445"><ele>2084.8</ele><time>2026-03-08T07:59:56.000Z</time></trkpt>
<trkpt lat="42.100161" lon="23.609435"><ele>2085.1</ele><time>2026-03-08T07:59:57.000Z</time></trkpt>
<trkpt lat="42.100164" lon="23.609425"><ele>2085.1</ele><time>2026-03-08T07:59:58.000Z</time></trkpt>
<trkpt lat="42.100166" lon="23.609415"><ele>2085.1</ele><time>2026-03-08T07:59:59.000Z</time></trkpt>
<trkpt lat="42.100169" lon="23.609406"><ele>2085.1</ele><time>2026-03-08T08:00:00.000Z</time></trkpt>
<trkpt lat="42.100171" lon="23.609397"><ele>2085.1</ele><time>2026-03-08T08:00:01.000Z</time></trkpt>
<trkpt lat="42.100174" lon="23.609387"><ele>2085.6</ele><time>2026-03-08T08:00:02.000Z</time></trkpt>
<trkpt lat="42.100177" lon="23.609378"><ele>2085.6</ele><time>2026-03-08T08:00:03.000Z</time></trkpt>
<trkpt lat="42.10018" lon="23.60937"><ele>2085.6</ele><time>2026-03-08T08:00:04.000Z</time></trkpt>
<trkpt lat="42.100183" lon="23.609361"><ele>2085.6</ele><time>2026-03-08T08:00:05.000Z</time></trkpt>
<trkpt lat="42.100186" lon="23.609351"><ele>2085.6</ele><time>2026-03-08T08:00:06.000Z</time></trkpt>
<trkpt lat="42.100188" lon="23.609342"><ele>2086</ele><time>2026-03-08T08:00:07.000Z</time></trkpt>
<trkpt lat="42.100189" lon="23.609333"><ele>2086</ele><time>2026-03-08T08:00:08.000Z</time></trkpt>
<trkpt lat="42.100192" lon="23.609323"><ele>2086</ele><time>2026-03-08T08:00:09.000Z</time></trkpt>
<trkpt lat="42.100194" lon="23.609313"><ele>2086</ele><time>2026-03-08T08:00:10.000Z</time></trkpt>
<trkpt lat="42.100196" lon="23.609304"><ele>2086</ele><time>2026-03-08T08:00:11.000Z</time></trkpt>
<trkpt lat="42.100199" lon="23.609294"><ele>2086.2</ele><time>2026-03-08T08:00:12.000Z</time></trkpt>
<trkpt lat="42.100202" lon="23.609284"><ele>2086.2</ele><time>2026-03-08T08:00:13.000Z</time></trkpt>
<trkpt lat="42.100205" lon="23.609275"><ele>2086.2</ele><time>2026-03-08T08:00:14.000Z</time></trkpt>
<trkpt lat="42.100208" lon="23.609265"><ele>2086.2</ele><time>2026-03-08T08:00:15.000Z</time></trkpt>
<trkpt lat="42.100213" lon="23.609254"><ele>2086.2</ele><time>2026-03-08T08:00:16.000Z</time></trkpt>
<trkpt lat="42.100218" lon="23.609242"><ele>2086.7</ele><time>2026-03-08T08:00:17.000Z</time></trkpt>
<trkpt lat="42.100224" lon="23.60923"><ele>2086.7</ele><time>2026-03-08T08:00:18.000Z</time></trkpt>
<trkpt lat="42.100229" lon="23.609216"><ele>2086.7</ele><time>2026-03-08T08:00:19.000Z</time></trkpt>
<trkpt lat="42.100234" lon="23.609203"><ele>2086.7</ele><time>2026-03-08T08:00:20.000Z</time></trkpt>
<trkpt lat="42.100238" lon="23.609191"><ele>2086.7</ele><time>2026-03-08T08:00:21.000Z</time></trkpt>
<trkpt lat="42.100241" lon="23.609178"><ele>2087.3</ele><time>2026-03-08T08:00:22.000Z</time></trkpt>
<trkpt lat="42.100243" lon="23.609167"><ele>2087.3</ele><time>2026-03-08T08:00:23.000Z</time></trkpt>
<trkpt lat="42.100246" lon="23.609158"><ele>2087.3</ele><time>2026-03-08T08:00:24.000Z</time></trkpt>
<trkpt lat="42.100249" lon="23.609149"><ele>2087.3</ele><time>2026-03-08T08:00:25.000Z</time></trkpt>
<trkpt lat="42.100251" lon="23.609139"><ele>2087.3</ele><time>2026-03-08T08:00:26.000Z</time></trkpt>
<trkpt lat="42.100254" lon="23.609131"><ele>2087.6</ele><time>2026-03-08T08:00:27.000Z</time></trkpt>
<trkpt lat="42.100257" lon="23.609122"><ele>2087.6</ele><time>2026-03-08T08:00:28.000Z</time></trkpt>
<trkpt lat="42.10026" lon="23.609114"><ele>2087.6</ele><time>2026-03-08T08:00:29.000Z</time></trkpt>
<trkpt lat="42.100262" lon="23.609106"><ele>2087.6</ele><time>2026-03-08T08:00:30.000Z</time></trkpt>
<trkpt lat="42.100264" lon="23.609098"><ele>2087.6</ele><time>2026-03-08T08:00:31.000Z</time></trkpt>
<trkpt lat="42.100266" lon="23.609089"><ele>2088.3</ele><time>2026-03-08T08:00:32.000Z</time></trkpt>
<trkpt lat="42.100268" lon="23.609081"><ele>2088.3</ele><time>2026-03-08T08:00:33.000Z</time></trkpt>
<trkpt lat="42.10027" lon="23.609072"><ele>2088.3</ele><time>2026-03-08T08:00:34.000Z</time></trkpt>
<trkpt lat="42.100272" lon="23.609063"><ele>2088.3</ele><time>2026-03-08T08:00:35.000Z</time></trkpt>
<trkpt lat="42.100274" lon="23.609054"><ele>2088.3</ele><time>2026-03-08T08:00:36.000Z</time></trkpt>
<trkpt lat="42.100276" lon="23.609046"><ele>2088.8</ele><time>2026-03-08T08:00:37.000Z</time></trkpt>
<trkpt lat="42.100279" lon="23.609037"><ele>2088.8</ele><time>2026-03-08T08:00:38.000Z</time></trkpt>
<trkpt lat="42.100282" lon="23.60903"><ele>2088.8</ele><time>2026-03-08T08:00:39.000Z</time></trkpt>
<trkpt lat="42.100285" lon="23.609022"><ele>2088.8</ele><time>2026-03-08T08:00:40.000Z</time></trkpt>
<trkpt lat="42.100289" lon="23.609013"><ele>2088.8</ele><time>2026-03-08T08:00:41.000Z</time></trkpt>
<trkpt lat="42.100291" lon="23.609004"><ele>2089</ele><time>2026-03-08T08:00:42.000Z</time></trkpt>
<trkpt lat="42.100293" lon="23.608994"><ele>2089</ele><time>2026-03-08T08:00:43.000Z</time></trkpt>
<trkpt lat="42.100296" lon="23.608984"><ele>2089</ele><time>2026-03-08T08:00:44.000Z</time></trkpt>
<trkpt lat="42.100299" lon="23.608974"><ele>2089</ele><time>2026-03-08T08:00:45.000Z</time></trkpt>
<trkpt lat="42.100301" lon="23.608965"><ele>2089</ele><time>2026-03-08T08:00:46.000Z</time></trkpt>
<trkpt lat="42.100304" lon="23.608955"><ele>2089.3</ele><time>2026-03-08T08:00:47.000Z</time></trkpt>
<trkpt lat="42.100307" lon="23.608945"><ele>2089.3</ele><time>2026-03-08T08:00:48.000Z</time></trkpt>
<trkpt lat="42.10031" lon="23.608935"><ele>2089.3</ele><time>2026-03-08T08:00:49.000Z</time></trkpt>
<trkpt lat="42.100312" lon="23.608924"><ele>2089.3</ele><time>2026-03-08T08:00:50.000Z</time></trkpt>
<trkpt lat="42.100315" lon="23.608914"><ele>2089.3</ele><time>2026-03-08T08:00:51.000Z</time></trkpt>
<trkpt lat="42.100318" lon="23.608903"><ele>2089.5</ele><time>2026-03-08T08:00:52.000Z</time></trkpt>
<trkpt lat="42.10032" lon="23.608892"><ele>2089.5</ele><time>2026-03-08T08:00:53.000Z</time></trkpt>
<trkpt lat="42.100323" lon="23.608881"><ele>2089.5</ele><time>2026-03-08T08:00:54.000Z</time></trkpt>
<trkpt lat="42.100325" lon="23.608871"><ele>2089.5</ele><time>2026-03-08T08:00:55.000Z</time></trkpt>
<trkpt lat="42.100328" lon="23.608859"><ele>2089.5</ele><time>2026-03-08T08:00:56.000Z</time></trkpt>
<trkpt lat="42.10033" lon="23.608848"><ele>2089.6</ele><time>2026-03-08T08:00:57.000Z</time></trkpt>
<trkpt lat="42.100331" lon="23.608837"><ele>2089.6</ele><time>2026-03-08T08:00:58.000Z</time></trkpt>
<trkpt lat="42.100334" lon="23.608826"><ele>2089.6</ele><time>2026-03-08T08:00:59.000Z</time></trkpt>
<trkpt lat="42.100336" lon="23.608815"><ele>2089.6</ele><time>2026-03-08T08:01:00.000Z</time></trkpt>
<trkpt lat="42.100338" lon="23.608803"><ele>2089.6</ele><time>2026-03-08T08:01:01.000Z</time></trkpt>
<trkpt lat="42.10034" lon="23.608791"><ele>2089.7</ele><time>2026-03-08T08:01:02.000Z</time></trkpt>
<trkpt lat="42.100343" lon="23.60878"><ele>2089.7</ele><time>2026-03-08T08:01:03.000Z</time></trkpt>
<trkpt lat="42.100346" lon="23.608769"><ele>2089.7</ele><time>2026-03-08T08:01:04.000Z</time></trkpt>
<trkpt lat="42.100349" lon="23.608759"><ele>2089.7</ele><time>2026-03-08T08:01:05.000Z</time></trkpt>
<trkpt lat="42.100351" lon="23.60875"><ele>2089.7</ele><time>2026-03-08T08:01:06.000Z</time></trkpt>
<trkpt lat="42.100354" lon="23.608741"><ele>2090.1</ele><time>2026-03-08T08:01:07.000Z</time></trkpt>
<trkpt lat="42.100357" lon="23.608733"><ele>2090.1</ele><time>2026-03-08T08:01:08.000Z</time></trkpt>
<trkpt lat="42.10036" lon="23.608724"><ele>2090.1</ele><time>2026-03-08T08:01:09.000Z</time></trkpt>
<trkpt lat="42.100364" lon="23.608714"><ele>2090.1</ele><time>2026-03-08T08:01:10.000Z</time></trkpt>
<trkpt lat="42.100367" lon="23.608705"><ele>2090.1</ele><time>2026-03-08T08:01:11.000Z</time></trkpt>
<trkpt lat="42.10037" lon="23.608695"><ele>2090.3</ele><time>2026-03-08T08:01:12.000Z</time></trkpt>
<trkpt lat="42.100373" lon="23.608685"><ele>2090.3</ele><time>2026-03-08T08:01:13.000Z</time></trkpt>
<trkpt lat="42.100376" lon="23.608674"><ele>2090.3</ele><time>2026-03-08T08:01:14.000Z</time></trkpt>
<trkpt lat="42.100379" lon="23.608664"><ele>2090.3</ele><time>2026-03-08T08:01:15.000Z</time></trkpt>
<trkpt lat="42.100381" lon="23.608655"><ele>2090.3</ele><time>2026-03-08T08:01:16.000Z</time></trkpt>
<trkpt lat="42.100384" lon="23.608646"><ele>2090.8</ele><time>2026-03-08T08:01:17.000Z</time></trkpt>
<trkpt lat="42.100386" lon="23.608638"><ele>2090.8</ele><time>2026-03-08T08:01:18.000Z</time></trkpt>
<trkpt lat="42.100388" lon="23.608631"><ele>2090.8</ele><time>2026-03-08T08:01:19.000Z</time></trkpt>
<trkpt lat="42.10039" lon="23.608625"><ele>2090.8</ele><time>2026-03-08T08:01:20.000Z</time></trkpt>
<trkpt lat="42.100391" lon="23.608622"><ele>2090.8</ele><time>2026-03-08T08:01:21.000Z</time></trkpt>
<trkpt lat="42.100392" lon="23.608618"><ele>2091.2</ele><time>2026-03-08T08:01:22.000Z</time></trkpt>
<trkpt lat="42.100392" lon="23.608618"><ele>2091.2</ele><time>2026-03-08T08:01:23.000Z</time></trkpt>
<trkpt lat="42.100393" lon="23.608618"><ele>2091.2</ele><time>2026-03-08T08:01:24.000Z</time></trkpt>
<trkpt lat="42.100393" lon="23.608618"><ele>2091.2</ele><time>2026-03-08T08:01:25.000Z</time></trkpt>
<trkpt lat="42.100393" lon="23.608618"><ele>2091.2</ele><time>2026-03-08T08:01:26.000Z</time></trkpt>
<trkpt lat="42.100394" lon="23.608618"><ele>2091.5</ele><time>2026-03-08T08:01:27.000Z</time></trkpt>
<trkpt lat="42.100394" lon="23.608617"><ele>2091.5</ele><time>2026-03-08T08:01:28.000Z</time></trkpt>
<trkpt lat="42.100394" lon="23.608617"><ele>2091.5</ele><time>2026-03-08T08:01:29.000Z</time></trkpt>
<trkpt lat="42.100394" lon="23.608617"><ele>2091.5</ele><time>2026-03-08T08:01:30.000Z</time></trkpt>
<trkpt lat="42.100394" lon="23.608617"><ele>2091.5</ele><time>2026-03-08T08:01:31.000Z</time></trkpt>
<trkpt lat="42.100394" lon="23.608617"><ele>2091.7</ele><time>2026-03-08T08:01:32.000Z</time></trkpt>
<trkpt lat="42.100394" lon="23.608617"><ele>2091.7</ele><time>2026-03-08T08:01:33.000Z</time></trkpt>
<trkpt lat="42.100394" lon="23.608617"><ele>2091.7</ele><time>2026-03-08T08:01:34.000Z</time></trkpt>
<trkpt lat="42.100394" lon="23.608617"><ele>2091.7</ele><time>2026-03-08T08:01:35.000Z</time></trkpt>
<trkpt lat="42.100393" lon="23.608617"><ele>2091.7</ele><time>2026-03-08T08:01:36.000Z</time></trkpt>
<trkpt lat="42.100393" lon="23.608617"><ele>2091.8</ele><time>2026-03-08T08:01:37.000Z</time></trkpt>
<trkpt lat="42.100392" lon="23.608617"><ele>2091.8</ele><time>2026-03-08T08:01:38.000Z</time></trkpt>
<trkpt lat="42.100392" lon="23.608616"><ele>2091.8</ele><time>2026-03-08T08:01:39.000Z</time></trkpt>
<trkpt lat="42.100391" lon="23.608616"><ele>2091.8</ele><time>2026-03-08T08:01:40.000Z</time></trkpt>
<trkpt lat="42.100391" lon="23.608617"><ele>2091.8</ele><time>2026-03-08T08:01:41.000Z</time></trkpt>
<trkpt lat="42.100391" lon="23.608617"><ele>2091.7</ele><time>2026-03-08T08:01:42.000Z</time></trkpt>
<trkpt lat="42.100391" lon="23.608617"><ele>2091.7</ele><time>2026-03-08T08:01:43.000Z</time></trkpt>
<trkpt lat="42.100391" lon="23.608617"><ele>2091.7</ele><time>2026-03-08T08:01:44.000Z</time></trkpt>
<trkpt lat="42.100391" lon="23.608616"><ele>2091.7</ele><time>2026-03-08T08:01:45.000Z</time></trkpt>
<trkpt lat="42.100391" lon="23.608614"><ele>2091.7</ele><time>2026-03-08T08:01:46.000Z</time></trkpt>
<trkpt lat="42.100391" lon="23.608613"><ele>2091.7</ele><time>2026-03-08T08:01:47.000Z</time></trkpt>
<trkpt lat="42.100391" lon="23.608611"><ele>2091.7</ele><time>2026-03-08T08:01:48.000Z</time></trkpt>
<trkpt lat="42.100391" lon="23.60861"><ele>2091.7</ele><time>2026-03-08T08:01:49.000Z</time></trkpt>
<trkpt lat="42.100391" lon="23.608609"><ele>2091.7</ele><time>2026-03-08T08:01:50.000Z</time></trkpt>
<trkpt lat="42.100391" lon="23.608609"><ele>2091.7</ele><time>2026-03-08T08:01:51.000Z</time></trkpt>
<trkpt lat="42.100391" lon="23.608609"><ele>2091.8</ele><time>2026-03-08T08:01:52.000Z</time></trkpt>
<trkpt lat="42.100391" lon="23.608608"><ele>2091.8</ele><time>2026-03-08T08:01:53.000Z</time></trkpt>
<trkpt lat="42.100391" lon="23.608608"><ele>2091.8</ele><time>2026-03-08T08:01:54.000Z</time></trkpt>
<trkpt lat="42.100391" lon="23.608608"><ele>2091.8</ele><time>2026-03-08T08:01:55.000Z</time></trkpt>
<trkpt lat="42.100391" lon="23.608608"><ele>2091.8</ele><time>2026-03-08T08:01:56.000Z</time></trkpt>
<trkpt lat="42.100391" lon="23.608608"><ele>2091.8</ele><time>2026-03-08T08:01:57.000Z</time></trkpt>
<trkpt lat="42.100391" lon="23.608608"><ele>2091.8</ele><time>2026-03-08T08:01:58.000Z</time></trkpt>
<trkpt lat="42.100391" lon="23.608608"><ele>2091.8</ele><time>2026-03-08T08:01:59.000Z</time></trkpt>
<trkpt lat="42.100391" lon="23.608608"><ele>2091.8</ele><time>2026-03-08T08:02:00.000Z</time></trkpt>
<trkpt lat="42.100391" lon="23.608608"><ele>2091.8</ele><time>2026-03-08T08:02:01.000Z</time></trkpt>
<trkpt lat="42.100391" lon="23.608608"><ele>2091.7</ele><time>2026-03-08T08:02:02.000Z</time></trkpt>
<trkpt lat="42.100391" lon="23.608608"><ele>2091.7</ele><time>2026-03-08T08:02:03.000Z</time></trkpt>
<trkpt lat="42.100391" lon="23.608608"><ele>2091.7</ele><time>2026-03-08T08:02:04.000Z</time></trkpt>
<trkpt lat="42.100391" lon="23.608608"><ele>2091.7</ele><time>2026-03-08T08:02:05.000Z</time></trkpt>
<trkpt lat="42.100391" lon="23.608608"><ele>2091.7</ele><time>2026-03-08T08:02:06.000Z</time></trkpt>
<trkpt lat="42.100391" lon="23.608608"><ele>2091.5</ele><time>2026-03-08T08:02:07.000Z</time></trkpt>
<trkpt lat="42.100391" lon="23.608608"><ele>2091.5</ele><time>2026-03-08T08:02:08.000Z</time></trkpt>
<trkpt lat="42.100391" lon="23.608608"><ele>2091.5</ele><time>2026-03-08T08:02:09.000Z</time></trkpt>
<trkpt lat="42.100391" lon="23.608608"><ele>2091.5</ele><time>2026-03-08T08:02:10.000Z</time></trkpt>
<trkpt lat="42.100391" lon="23.608609"><ele>2091.5</ele><time>2026-03-08T08:02:11.000Z</time></trkpt>
<trkpt lat="42.10039" lon="23.608609"><ele>2091.5</ele><time>2026-03-08T08:02:12.000Z</time></trkpt>
<trkpt lat="42.10039" lon="23.608609"><ele>2091.5</ele><time>2026-03-08T08:02:13.000Z</time></trkpt>
<trkpt lat="42.10039" lon="23.608609"><ele>2091.5</ele><time>2026-03-08T08:02:14.000Z</time></trkpt>
<trkpt lat="42.10039" lon="23.608609"><ele>2091.5</ele><time>2026-03-08T08:02:15.000Z</time></trkpt>
<trkpt lat="42.10039" lon="23.608609"><ele>2091.5</ele><time>2026-03-08T08:02:16.000Z</time></trkpt>
<trkpt lat="42.10039" lon="23.608609"><ele>2091.5</ele><time>2026-03-08T08:02:17.000Z</time></trkpt>
<trkpt lat="42.10039" lon="23.608609"><ele>2091.5</ele><time>2026-03-08T08:02:18.000Z</time></trkpt>
<trkpt lat="42.10039" lon="23.608609"><ele>2091.5</ele><time>2026-03-08T08:02:19.000Z</time></trkpt>
<trkpt lat="42.10039" lon="23.608608"><ele>2091.5</ele><time>2026-03-08T08:02:20.000Z</time></trkpt>
<trkpt lat="42.100389" lon="23.608607"><ele>2091.5</ele><time>2026-03-08T08:02:21.000Z</time></trkpt>
<trkpt lat="42.100389" lon="23.608607"><ele>2091.6</ele><time>2026-03-08T08:02:22.000Z</time></trkpt>
<trkpt lat="42.100388" lon="23.608606"><ele>2091.6</ele><time>2026-03-08T08:02:23.000Z</time></trkpt>
<trkpt lat="42.100388" lon="23.608606"><ele>2091.6</ele><time>2026-03-08T08:02:24.000Z</time></trkpt>
<trkpt lat="42.100388" lon="23.608606"><ele>2091.6</ele><time>2026-03-08T08:02:25.000Z</time></trkpt>
<trkpt lat="42.100387" lon="23.608606"><ele>2091.6</ele><time>2026-03-08T08:02:26.000Z</time></trkpt>
<trkpt lat="42.100386" lon="23.608606"><ele>2091.6</ele><time>2026-03-08T08:02:27.000Z</time></trkpt>
<trkpt lat="42.100386" lon="23.608606"><ele>2091.6</ele><time>2026-03-08T08:02:28.000Z</time></trkpt>
<trkpt lat="42.100385" lon="23.608605"><ele>2091.6</ele><time>2026-03-08T08:02:29.000Z</time></trkpt>
<trkpt lat="42.100385" lon="23.608605"><ele>2091.6</ele><time>2026-03-08T08:02:30.000Z</time></trkpt>
<trkpt lat="42.100385" lon="23.608606"><ele>2091.6</ele><time>2026-03-08T08:02:31.000Z</time></trkpt>
<trkpt lat="42.100385" lon="23.608607"><ele>2091.5</ele><time>2026-03-08T08:02:32.000Z</time></trkpt>
<trkpt lat="42.100386" lon="23.608607"><ele>2091.5</ele><time>2026-03-08T08:02:33.000Z</time></trkpt>
<trkpt lat="42.100387" lon="23.608607"><ele>2091.5</ele><time>2026-03-08T08:02:34.000Z</time></trkpt>
<trkpt lat="42.100387" lon="23.608607"><ele>2091.5</ele><time>2026-03-08T08:02:35.000Z</time></trkpt>
<trkpt lat="42.100388" lon="23.608607"><ele>2091.5</ele><time>2026-03-08T08:02:36.000Z</time></trkpt>
<trkpt lat="42.100388" lon="23.608608"><ele>2091.6</ele><time>2026-03-08T08:02:37.000Z</time></trkpt>
<trkpt lat="42.100389" lon="23.608608"><ele>2091.6</ele><time>2026-03-08T08:02:38.000Z</time></trkpt>
<trkpt lat="42.100389" lon="23.608609"><ele>2091.6</ele><time>2026-03-08T08:02:39.000Z</time></trkpt>
<trkpt lat="42.100389" lon="23.608609"><ele>2091.6</ele><time>2026-03-08T08:02:40.000Z</time></trkpt>
<trkpt lat="42.100389" lon="23.608609"><ele>2091.6</ele><time>2026-03-08T08:02:41.000Z</time></trkpt>
<trkpt lat="42.100389" lon="23.608609"><ele>2091.6</ele><time>2026-03-08T08:02:42.000Z</time></trkpt>
<trkpt lat="42.100389" lon="23.608609"><ele>2091.6</ele><time>2026-03-08T08:02:43.000Z</time></trkpt>
<trkpt lat="42.100389" lon="23.608609"><ele>2091.6</ele><time>2026-03-08T08:02:44.000Z</time></trkpt>
<trkpt lat="42.100389" lon="23.608609"><ele>2091.6</ele><time>2026-03-08T08:02:45.000Z</time></trkpt>
<trkpt lat="42.100389" lon="23.608609"><ele>2091.6</ele><time>2026-03-08T08:02:46.000Z</time></trkpt>
<trkpt lat="42.100389" lon="23.608609"><ele>2091.5</ele><time>2026-03-08T08:02:47.000Z</time></trkpt>
<trkpt lat="42.100389" lon="23.608609"><ele>2091.5</ele><time>2026-03-08T08:02:48.000Z</time></trkpt>
<trkpt lat="42.100389" lon="23.608609"><ele>2091.5</ele><time>2026-03-08T08:02:49.000Z</time></trkpt>
<trkpt lat="42.100389" lon="23.608609"><ele>2091.5</ele><time>2026-03-08T08:02:50.000Z</time></trkpt>
<trkpt lat="42.100389" lon="23.608608"><ele>2091.5</ele><time>2026-03-08T08:02:51.000Z</time></trkpt>
<trkpt lat="42.100389" lon="23.608608"><ele>2091.5</ele><time>2026-03-08T08:02:52.000Z</time></trkpt>
<trkpt lat="42.100389" lon="23.608607"><ele>2091.5</ele><time>2026-03-08T08:02:53.000Z</time></trkpt>
<trkpt lat="42.10039" lon="23.608607"><ele>2091.5</ele><time>2026-03-08T08:02:54.000Z</time></trkpt>
<trkpt lat="42.100389" lon="23.608606"><ele>2091.5</ele><time>2026-03-08T08:02:55.000Z</time></trkpt>
<trkpt lat="42.100389" lon="23.608606"><ele>2091.5</ele><time>2026-03-08T08:02:56.000Z</time></trkpt>
<trkpt lat="42.100389" lon="23.608606"><ele>2091.5</ele><time>2026-03-08T08:02:57.000Z</time></trkpt>
<trkpt lat="42.100388" lon="23.608606"><ele>2091.5</ele><time>2026-03-08T08:02:58.000Z</time></trkpt>
<trkpt lat="42.100388" lon="23.608606"><ele>2091.5</ele><time>2026-03-08T08:02:59.000Z</time></trkpt>
<trkpt lat="42.100388" lon="23.608606"><ele>2091.5</ele><time>2026-03-08T08:03:00.000Z</time></trkpt>
<trkpt lat="42.100388" lon="23.608606"><ele>2091.5</ele><time>2026-03-08T08:03:01.000Z</time></trkpt>
<trkpt lat="42.100388" lon="23.608606"><ele>2091.7</ele><time>2026-03-08T08:03:02.000Z</time></trkpt>
<trkpt lat="42.100388" lon="23.608606"><ele>2091.7</ele><time>2026-03-08T08:03:03.000Z</time></trkpt>
<trkpt lat="42.100388" lon="23.608606"><ele>2091.7</ele><time>2026-03-08T08:03:04.000Z</time></trkpt>
<trkpt lat="42.100388" lon="23.608606"><ele>2091.7</ele><time>2026-03-08T08:03:05.000Z</time></trkpt>
<trkpt lat="42.100388" lon="23.608606"><ele>2091.7</ele><time>2026-03-08T08:03:06.000Z</time></trkpt>
<trkpt lat="42.100388" lon="23.608606"><ele>2091.8</ele><time>2026-03-08T08:03:07.000Z</time></trkpt>
<trkpt lat="42.100388" lon="23.608606"><ele>2091.8</ele><time>2026-03-08T08:03:08.000Z</time></trkpt>
<trkpt lat="42.100388" lon="23.608606"><ele>2091.8</ele><time>2026-03-08T08:03:09.000Z</time></trkpt>
<trkpt lat="42.100388" lon="23.608606"><ele>2091.8</ele><time>2026-03-08T08:03:10.000Z</time></trkpt>
<trkpt lat="42.100388" lon="23.608606"><ele>2091.8</ele><time>2026-03-08T08:03:11.000Z</time></trkpt>
<trkpt lat="42.100388" lon="23.608606"><ele>2091.9</ele><time>2026-03-08T08:03:12.000Z</time></trkpt>
<trkpt lat="42.100388" lon="23.608606"><ele>2091.9</ele><time>2026-03-08T08:03:13.000Z</time></trkpt>
<trkpt lat="42.100388" lon="23.608606"><ele>2091.9</ele><time>2026-03-08T08:03:14.000Z</time></trkpt>
<trkpt lat="42.100388" lon="23.608606"><ele>2091.9</ele><time>2026-03-08T08:03:15.000Z</time></trkpt>
<trkpt lat="42.100388" lon="23.608606"><ele>2091.9</ele><time>2026-03-08T08:03:16.000Z</time></trkpt>
<trkpt lat="42.100388" lon="23.608606"><ele>2091.8</ele><time>2026-03-08T08:03:17.000Z</time></trkpt>
<trkpt lat="42.100387" lon="23.608607"><ele>2091.8</ele><time>2026-03-08T08:03:18.000Z</time></trkpt>
<trkpt lat="42.100387" lon="23.608607"><ele>2091.8</ele><time>2026-03-08T08:03:19.000Z</time></trkpt>
<trkpt lat="42.100387" lon="23.608607"><ele>2091.8</ele><time>2026-03-08T08:03:20.000Z</time></trkpt>
<trkpt lat="42.100387" lon="23.608607"><ele>2091.8</ele><time>2026-03-08T08:03:21.000Z</time></trkpt>
<trkpt lat="42.100387" lon="23.608607"><ele>2091.7</ele><time>2026-03-08T08:03:22.000Z</time></trkpt>
<trkpt lat="42.100387" lon="23.608607"><ele>2091.7</ele><time>2026-03-08T08:03:23.000Z</time></trkpt>
<trkpt lat="42.100387" lon="23.608607"><ele>2091.7</ele><time>2026-03-08T08:03:24.000Z</time></trkpt>
<trkpt lat="42.100387" lon="23.608608"><ele>2091.7</ele><time>2026-03-08T08:03:25.000Z</time></trkpt>
<trkpt lat="42.100387" lon="23.608608"><ele>2091.7</ele><time>2026-03-08T08:03:26.000Z</time></trkpt>
<trkpt lat="42.100388" lon="23.608609"><ele>2091.6</ele><time>2026-03-08T08:03:27.000Z</time></trkpt>
<trkpt lat="42.100387" lon="23.608609"><ele>2091.6</ele><time>2026-03-08T08:03:28.000Z</time></trkpt>
<trkpt lat="42.100386" lon="23.608609"><ele>2091.6</ele><time>2026-03-08T08:03:29.000Z</time></trkpt>
<trkpt lat="42.100385" lon="23.608609"><ele>2091.6</ele><time>2026-03-08T08:03:30.000Z</time></trkpt>
<trkpt lat="42.100384" lon="23.608609"><ele>2091.6</ele><time>2026-03-08T08:03:31.000Z</time></trkpt>
<trkpt lat="42.100382" lon="23.608609"><ele>2091.5</ele><time>2026-03-08T08:03:32.000Z</time></trkpt>
<trkpt lat="42.100381" lon="23.608608"><ele>2091.5</ele><time>2026-03-08T08:03:33.000Z</time></trkpt>
<trkpt lat="42.100381" lon="23.608608"><ele>2091.5</ele><time>2026-03-08T08:03:34.000Z</time></trkpt>
<trkpt lat="42.10038" lon="23.608608"><ele>2091.5</ele><time>2026-03-08T08:03:35.000Z</time></trkpt>
<trkpt lat="42.10038" lon="23.608608"><ele>2091.5</ele><time>2026-03-08T08:03:36.000Z</time></trkpt>
<trkpt lat="42.10038" lon="23.608608"><ele>2091.3</ele><time>2026-03-08T08:03:37.000Z</time></trkpt>
<trkpt lat="42.10038" lon="23.608608"><ele>2091.3</ele><time>2026-03-08T08:03:38.000Z</time></trkpt>
<trkpt lat="42.10038" lon="23.608608"><ele>2091.3</ele><time>2026-03-08T08:03:39.000Z</time></trkpt>
<trkpt lat="42.10038" lon="23.608608"><ele>2091.3</ele><time>2026-03-08T08:03:40.000Z</time></trkpt>
<trkpt lat="42.10038" lon="23.608608"><ele>2091.3</ele><time>2026-03-08T08:03:41.000Z</time></trkpt>
<trkpt lat="42.10038" lon="23.608608"><ele>2091.2</ele><time>2026-03-08T08:03:42.000Z</time></trkpt>
<trkpt lat="42.10038" lon="23.608608"><ele>2091.2</ele><time>2026-03-08T08:03:43.000Z</time></trkpt>
<trkpt lat="42.10038" lon="23.608608"><ele>2091.2</ele><time>2026-03-08T08:03:44.000Z</time></trkpt>
<trkpt lat="42.10038" lon="23.608608"><ele>2091.2</ele><time>2026-03-08T08:03:45.000Z</time></trkpt>
<trkpt lat="42.10038" lon="23.608608"><ele>2091.2</ele><time>2026-03-08T08:03:46.000Z</time></trkpt>
<trkpt lat="42.10038" lon="23.608608"><ele>2091.2</ele><time>2026-03-08T08:03:47.000Z</time></trkpt>
<trkpt lat="42.10038" lon="23.608608"><ele>2091.2</ele><time>2026-03-08T08:03:48.000Z</time></trkpt>
<trkpt lat="42.100379" lon="23.608608"><ele>2091.2</ele><time>2026-03-08T08:03:49.000Z</time></trkpt>
<trkpt lat="42.100379" lon="23.608608"><ele>2091.2</ele><time>2026-03-08T08:03:50.000Z</time></trkpt>
<trkpt lat="42.100379" lon="23.608608"><ele>2091.2</ele><time>2026-03-08T08:03:51.000Z</time></trkpt>
<trkpt lat="42.100379" lon="23.608608"><ele>2091.1</ele><time>2026-03-08T08:03:52.000Z</time></trkpt>
<trkpt lat="42.10038" lon="23.608608"><ele>2091.1</ele><time>2026-03-08T08:03:53.000Z</time></trkpt>
<trkpt lat="42.10038" lon="23.608608"><ele>2091.1</ele><time>2026-03-08T08:03:54.000Z</time></trkpt>
<trkpt lat="42.10038" lon="23.608608"><ele>2091.1</ele><time>2026-03-08T08:03:55.000Z</time></trkpt>
<trkpt lat="42.100381" lon="23.608608"><ele>2091.1</ele><time>2026-03-08T08:03:56.000Z</time></trkpt>
<trkpt lat="42.100381" lon="23.608607"><ele>2091</ele><time>2026-03-08T08:03:57.000Z</time></trkpt>
<trkpt lat="42.100382" lon="23.608603"><ele>2091</ele><time>2026-03-08T08:03:58.000Z</time></trkpt>
<trkpt lat="42.100383" lon="23.608598"><ele>2091</ele><time>2026-03-08T08:03:59.000Z</time></trkpt>
<trkpt lat="42.100384" lon="23.608591"><ele>2091</ele><time>2026-03-08T08:04:00.000Z</time></trkpt>
<trkpt lat="42.100386" lon="23.608582"><ele>2091</ele><time>2026-03-08T08:04:01.000Z</time></trkpt>
<trkpt lat="42.100388" lon="23.608571"><ele>2091</ele><time>2026-03-08T08:04:02.000Z</time></trkpt>
<trkpt lat="42.10039" lon="23.608561"><ele>2091</ele><time>2026-03-08T08:04:03.000Z</time></trkpt>
<trkpt lat="42.100392" lon="23.60855"><ele>2091</ele><time>2026-03-08T08:04:04.000Z</time></trkpt>
<trkpt lat="42.100394" lon="23.608539"><ele>2091</ele><time>2026-03-08T08:04:05.000Z</time></trkpt>
<trkpt lat="42.100397" lon="23.608527"><ele>2091</ele><time>2026-03-08T08:04:06.000Z</time></trkpt>
<trkpt lat="42.1004" lon="23.608515"><ele>2091</ele><time>2026-03-08T08:04:07.000Z</time></trkpt>
<trkpt lat="42.100403" lon="23.608503"><ele>2091</ele><time>2026-03-08T08:04:08.000Z</time></trkpt>
<trkpt lat="42.100407" lon="23.608492"><ele>2091</ele><time>2026-03-08T08:04:09.000Z</time></trkpt>
<trkpt lat="42.10041" lon="23.608481"><ele>2091</ele><time>2026-03-08T08:04:10.000Z</time></trkpt>
<trkpt lat="42.100414" lon="23.608472"><ele>2091</ele><time>2026-03-08T08:04:11.000Z</time></trkpt>
<trkpt lat="42.100418" lon="23.608464"><ele>2091.1</ele><time>2026-03-08T08:04:12.000Z</time></trkpt>
<trkpt lat="42.100421" lon="23.608459"><ele>2091.1</ele><time>2026-03-08T08:04:13.000Z</time></trkpt>
<trkpt lat="42.100423" lon="23.608455"><ele>2091.1</ele><time>2026-03-08T08:04:14.000Z</time></trkpt>
<trkpt lat="42.100425" lon="23.608453"><ele>2091.1</ele><time>2026-03-08T08:04:15.000Z</time></trkpt>
<trkpt lat="42.100425" lon="23.608452"><ele>2091.1</ele><time>2026-03-08T08:04:16.000Z</time></trkpt>
<trkpt lat="42.100425" lon="23.608453"><ele>2091.5</ele><time>2026-03-08T08:04:17.000Z</time></trkpt>
<trkpt lat="42.100425" lon="23.608453"><ele>2091.5</ele><time>2026-03-08T08:04:18.000Z</time></trkpt>
<trkpt lat="42.100424" lon="23.608453"><ele>2091.5</ele><time>2026-03-08T08:04:19.000Z</time></trkpt>
<trkpt lat="42.100424" lon="23.608453"><ele>2091.5</ele><time>2026-03-08T08:04:20.000Z</time></trkpt>
<trkpt lat="42.100424" lon="23.608453"><ele>2091.5</ele><time>2026-03-08T08:04:21.000Z</time></trkpt>
<trkpt lat="42.100424" lon="23.608453"><ele>2091.9</ele><time>2026-03-08T08:04:22.000Z</time></trkpt>
<trkpt lat="42.100424" lon="23.608453"><ele>2091.9</ele><time>2026-03-08T08:04:23.000Z</time></trkpt>
<trkpt lat="42.100424" lon="23.608452"><ele>2091.9</ele><time>2026-03-08T08:04:24.000Z</time></trkpt>
<trkpt lat="42.100424" lon="23.608452"><ele>2091.9</ele><time>2026-03-08T08:04:25.000Z</time></trkpt>
<trkpt lat="42.100424" lon="23.608452"><ele>2091.9</ele><time>2026-03-08T08:04:26.000Z</time></trkpt>
<trkpt lat="42.100424" lon="23.608452"><ele>2092</ele><time>2026-03-08T08:04:27.000Z</time></trkpt>
<trkpt lat="42.100423" lon="23.608452"><ele>2092</ele><time>2026-03-08T08:04:28.000Z</time></trkpt>
<trkpt lat="42.100423" lon="23.608452"><ele>2092</ele><time>2026-03-08T08:04:29.000Z</time></trkpt>
<trkpt lat="42.100423" lon="23.608452"><ele>2092</ele><time>2026-03-08T08:04:30.000Z</time></trkpt>
<trkpt lat="42.100423" lon="23.608452"><ele>2092</ele><time>2026-03-08T08:04:31.000Z</time></trkpt>
<trkpt lat="42.100423" lon="23.608452"><ele>2092.2</ele><time>2026-03-08T08:04:32.000Z</time></trkpt>
<trkpt lat="42.100423" lon="23.608452"><ele>2092.2</ele><time>2026-03-08T08:04:33.000Z</time></trkpt>
<trkpt lat="42.100423" lon="23.608452"><ele>2092.2</ele><time>2026-03-08T08:04:34.000Z</time></trkpt>
<trkpt lat="42.100423" lon="23.608452"><ele>2092.2</ele><time>2026-03-08T08:04:35.000Z</time></trkpt>
<trkpt lat="42.100424" lon="23.608452"><ele>2092.2</ele><time>2026-03-08T08:04:36.000Z</time></trkpt>
<trkpt lat="42.100424" lon="23.608452"><ele>2092.3</ele><time>2026-03-08T08:04:37.000Z</time></trkpt>
<trkpt lat="42.100424" lon="23.608452"><ele>2092.3</ele><time>2026-03-08T08:04:38.000Z</time></trkpt>
<trkpt lat="42.100425" lon="23.608452"><ele>2092.3</ele><time>2026-03-08T08:04:39.000Z</time></trkpt>
<trkpt lat="42.100425" lon="23.608452"><ele>2092.3</ele><time>2026-03-08T08:04:40.000Z</time></trkpt>
<trkpt lat="42.100425" lon="23.608452"><ele>2092.3</ele><time>2026-03-08T08:04:41.000Z</time></trkpt>
<trkpt lat="42.100425" lon="23.608452"><ele>2092.3</ele><time>2026-03-08T08:04:42.000Z</time></trkpt>
<trkpt lat="42.100425" lon="23.608452"><ele>2092.3</ele><time>2026-03-08T08:04:43.000Z</time></trkpt>
<trkpt lat="42.100425" lon="23.608452"><ele>2092.3</ele><time>2026-03-08T08:04:44.000Z</time></trkpt>
<trkpt lat="42.100425" lon="23.608452"><ele>2092.3</ele><time>2026-03-08T08:04:45.000Z</time></trkpt>
<trkpt lat="42.100425" lon="23.608452"><ele>2092.3</ele><time>2026-03-08T08:04:46.000Z</time></trkpt>
<trkpt lat="42.100425" lon="23.608452"><ele>2092.4</ele><time>2026-03-08T08:04:47.000Z</time></trkpt>
<trkpt lat="42.100425" lon="23.608452"><ele>2092.4</ele><time>2026-03-08T08:04:48.000Z</time></trkpt>
<trkpt lat="42.100425" lon="23.608452"><ele>2092.4</ele><time>2026-03-08T08:04:49.000Z</time></trkpt>
<trkpt lat="42.100425" lon="23.608452"><ele>2092.4</ele><time>2026-03-08T08:04:50.000Z</time></trkpt>
<trkpt lat="42.100425" lon="23.608452"><ele>2092.4</ele><time>2026-03-08T08:04:51.000Z</time></trkpt>
<trkpt lat="42.100425" lon="23.608452"><ele>2092.6</ele><time>2026-03-08T08:04:52.000Z</time></trkpt>
<trkpt lat="42.100425" lon="23.608452"><ele>2092.6</ele><time>2026-03-08T08:04:53.000Z</time></trkpt>
<trkpt lat="42.100425" lon="23.608452"><ele>2092.6</ele><time>2026-03-08T08:04:54.000Z</time></trkpt>
<trkpt lat="42.100425" lon="23.608452"><ele>2092.6</ele><time>2026-03-08T08:04:55.000Z</time></trkpt>
<trkpt lat="42.100425" lon="23.608452"><ele>2092.6</ele><time>2026-03-08T08:04:56.000Z</time></trkpt>
<trkpt lat="42.100425" lon="23.608452"><ele>2092.6</ele><time>2026-03-08T08:04:57.000Z</time></trkpt>
<trkpt lat="42.100425" lon="23.608452"><ele>2092.6</ele><time>2026-03-08T08:04:58.000Z</time></trkpt>
<trkpt lat="42.100425" lon="23.608452"><ele>2092.6</ele><time>2026-03-08T08:04:59.000Z</time></trkpt>
<trkpt lat="42.100425" lon="23.608452"><ele>2092.6</ele><time>2026-03-08T08:05:00.000Z</time></trkpt>
<trkpt lat="42.100425" lon="23.608452"><ele>2092.6</ele><time>2026-03-08T08:05:01.000Z</time></trkpt>
<trkpt lat="42.100425" lon="23.608452"><ele>2092.7</ele><time>2026-03-08T08:05:02.000Z</time></trkpt>
<trkpt lat="42.100425" lon="23.608452"><ele>2092.7</ele><time>2026-03-08T08:05:03.000Z</time></trkpt>
<trkpt lat="42.100425" lon="23.608452"><ele>2092.7</ele><time>2026-03-08T08:05:04.000Z</time></trkpt>
<trkpt lat="42.100425" lon="23.608452"><ele>2092.7</ele><time>2026-03-08T08:05:05.000Z</time></trkpt>
<trkpt lat="42.100425" lon="23.608452"><ele>2092.7</ele><time>2026-03-08T08:05:06.000Z</time></trkpt>
<trkpt lat="42.100425" lon="23.608452"><ele>2092.6</ele><time>2026-03-08T08:05:07.000Z</time></trkpt>
<trkpt lat="42.100425" lon="23.608452"><ele>2092.6</ele><time>2026-03-08T08:05:08.000Z</time></trkpt>
<trkpt lat="42.100425" lon="23.608452"><ele>2092.6</ele><time>2026-03-08T08:05:09.000Z</time></trkpt>
<trkpt lat="42.100425" lon="23.608452"><ele>2092.6</ele><time>2026-03-08T08:05:10.000Z</time></trkpt>
<trkpt lat="42.100425" lon="23.608452"><ele>2092.6</ele><time>2026-03-08T08:05:11.000Z</time></trkpt>
<trkpt lat="42.100425" lon="23.608452"><ele>2092.6</ele><time>2026-03-08T08:05:12.000Z</time></trkpt>
<trkpt lat="42.100425" lon="23.608452"><ele>2092.6</ele><time>2026-03-08T08:05:13.000Z</time></trkpt>
<trkpt lat="42.100424" lon="23.608452"><ele>2092.6</ele><time>2026-03-08T08:05:14.000Z</time></trkpt>
<trkpt lat="42.100424" lon="23.608452"><ele>2092.6</ele><time>2026-03-08T08:05:15.000Z</time></trkpt>
<trkpt lat="42.100424" lon="23.608452"><ele>2092.6</ele><time>2026-03-08T08:05:16.000Z</time></trkpt>
<trkpt lat="42.100423" lon="23.608452"><ele>2092.6</ele><time>2026-03-08T08:05:17.000Z</time></trkpt>
<trkpt lat="42.100423" lon="23.608452"><ele>2092.6</ele><time>2026-03-08T08:05:18.000Z</time></trkpt>
<trkpt lat="42.100423" lon="23.608452"><ele>2092.6</ele><time>2026-03-08T08:05:19.000Z</time></trkpt>
<trkpt lat="42.100423" lon="23.608452"><ele>2092.6</ele><time>2026-03-08T08:05:20.000Z</time></trkpt>
<trkpt lat="42.100423" lon="23.608452"><ele>2092.6</ele><time>2026-03-08T08:05:21.000Z</time></trkpt>
<trkpt lat="42.100423" lon="23.608452"><ele>2092.6</ele><time>2026-03-08T08:05:22.000Z</time></trkpt>
<trkpt lat="42.100423" lon="23.608452"><ele>2092.6</ele><time>2026-03-08T08:05:23.000Z</time></trkpt>
<trkpt lat="42.100423" lon="23.608452"><ele>2092.6</ele><time>2026-03-08T08:05:24.000Z</time></trkpt>
<trkpt lat="42.100423" lon="23.608452"><ele>2092.6</ele><time>2026-03-08T08:05:25.000Z</time></trkpt>
<trkpt lat="42.100423" lon="23.608452"><ele>2092.6</ele><time>2026-03-08T08:05:26.000Z</time></trkpt>
<trkpt lat="42.100423" lon="23.608452"><ele>2092.5</ele><time>2026-03-08T08:05:27.000Z</time></trkpt>
<trkpt lat="42.100423" lon="23.608452"><ele>2092.5</ele><time>2026-03-08T08:05:28.000Z</time></trkpt>
<trkpt lat="42.100423" lon="23.608452"><ele>2092.5</ele><time>2026-03-08T08:05:29.000Z</time></trkpt>
<trkpt lat="42.100423" lon="23.608452"><ele>2092.5</ele><time>2026-03-08T08:05:30.000Z</time></trkpt>
<trkpt lat="42.100423" lon="23.608452"><ele>2092.5</ele><time>2026-03-08T08:05:31.000Z</time></trkpt>
<trkpt lat="42.100423" lon="23.608452"><ele>2092.5</ele><time>2026-03-08T08:05:32.000Z</time></trkpt>
<trkpt lat="42.100423" lon="23.608452"><ele>2092.5</ele><time>2026-03-08T08:05:33.000Z</time></trkpt>
<trkpt lat="42.100423" lon="23.608452"><ele>2092.5</ele><time>2026-03-08T08:05:34.000Z</time></trkpt>
<trkpt lat="42.100423" lon="23.608452"><ele>2092.5</ele><time>2026-03-08T08:05:35.000Z</time></trkpt>
<trkpt lat="42.100423" lon="23.608452"><ele>2092.5</ele><time>2026-03-08T08:05:36.000Z</time></trkpt>
<trkpt lat="42.100423" lon="23.608452"><ele>2092.5</ele><time>2026-03-08T08:05:37.000Z</time></trkpt>
<trkpt lat="42.100423" lon="23.608452"><ele>2092.5</ele><time>2026-03-08T08:05:38.000Z</time></trkpt>
<trkpt lat="42.100423" lon="23.608452"><ele>2092.5</ele><time>2026-03-08T08:05:39.000Z</time></trkpt>
<trkpt lat="42.100422" lon="23.608452"><ele>2092.5</ele><time>2026-03-08T08:05:40.000Z</time></trkpt>
<trkpt lat="42.100421" lon="23.608453"><ele>2092.5</ele><time>2026-03-08T08:05:41.000Z</time></trkpt>
<trkpt lat="42.10042" lon="23.608453"><ele>2092.6</ele><time>2026-03-08T08:05:42.000Z</time></trkpt>
<trkpt lat="42.100419" lon="23.608455"><ele>2092.6</ele><time>2026-03-08T08:05:43.000Z</time></trkpt>
<trkpt lat="42.100418" lon="23.608456"><ele>2092.6</ele><time>2026-03-08T08:05:44.000Z</time></trkpt>
<trkpt lat="42.100418" lon="23.608457"><ele>2092.6</ele><time>2026-03-08T08:05:45.000Z</time></trkpt>
<trkpt lat="42.100418" lon="23.608458"><ele>2092.6</ele><time>2026-03-08T08:05:46.000Z</time></trkpt>
<trkpt lat="42.100418" lon="23.608459"><ele>2093</ele><time>2026-03-08T08:05:47.000Z</time></trkpt>
<trkpt lat="42.100418" lon="23.608459"><ele>2093</ele><time>2026-03-08T08:05:48.000Z</time></trkpt>
<trkpt lat="42.100419" lon="23.608459"><ele>2093</ele><time>2026-03-08T08:05:49.000Z</time></trkpt>
<trkpt lat="42.100419" lon="23.608459"><ele>2093</ele><time>2026-03-08T08:05:50.000Z</time></trkpt>
<trkpt lat="42.10042" lon="23.608459"><ele>2093</ele><time>2026-03-08T08:05:51.000Z</time></trkpt>
<trkpt lat="42.100421" lon="23.608459"><ele>2093.3</ele><time>2026-03-08T08:05:52.000Z</time></trkpt>
<trkpt lat="42.100421" lon="23.60846"><ele>2093.3</ele><time>2026-03-08T08:05:53.000Z</time></trkpt>
<trkpt lat="42.100421" lon="23.60846"><ele>2093.3</ele><time>2026-03-08T08:05:54.000Z</time></trkpt>
<trkpt lat="42.100422" lon="23.60846"><ele>2093.3</ele><time>2026-03-08T08:05:55.000Z</time></trkpt>
<trkpt lat="42.100422" lon="23.60846"><ele>2093.3</ele><time>2026-03-08T08:05:56.000Z</time></trkpt>
<trkpt lat="42.100422" lon="23.60846"><ele>2093.3</ele><time>2026-03-08T08:05:57.000Z</time></trkpt>
<trkpt lat="42.100422" lon="23.60846"><ele>2093.3</ele><time>2026-03-08T08:05:58.000Z</time></trkpt>
<trkpt lat="42.100422" lon="23.60846"><ele>2093.3</ele><time>2026-03-08T08:05:59.000Z</time></trkpt>
<trkpt lat="42.100422" lon="23.60846"><ele>2093.3</ele><time>2026-03-08T08:06:00.000Z</time></trkpt>
<trkpt lat="42.100422" lon="23.60846"><ele>2093.3</ele><time>2026-03-08T08:06:01.000Z</time></trkpt>
<trkpt lat="42.100422" lon="23.60846"><ele>2093.2</ele><time>2026-03-08T08:06:02.000Z</time></trkpt>
<trkpt lat="42.100422" lon="23.60846"><ele>2093.2</ele><time>2026-03-08T08:06:03.000Z</time></trkpt>
<trkpt lat="42.100422" lon="23.60846"><ele>2093.2</ele><time>2026-03-08T08:06:04.000Z</time></trkpt>
<trkpt lat="42.100422" lon="23.60846"><ele>2093.2</ele><time>2026-03-08T08:06:05.000Z</time></trkpt>
<trkpt lat="42.100422" lon="23.60846"><ele>2093.2</ele><time>2026-03-08T08:06:06.000Z</time></trkpt>
<trkpt lat="42.100422" lon="23.60846"><ele>2093.2</ele><time>2026-03-08T08:06:07.000Z</time></trkpt>
<trkpt lat="42.100422" lon="23.60846"><ele>2093.2</ele><time>2026-03-08T08:06:08.000Z</time></trkpt>
<trkpt lat="42.100422" lon="23.60846"><ele>2093.2</ele><time>2026-03-08T08:06:09.000Z</time></trkpt>
<trkpt lat="42.100422" lon="23.60846"><ele>2093.2</ele><time>2026-03-08T08:06:10.000Z</time></trkpt>
<trkpt lat="42.100422" lon="23.60846"><ele>2093.2</ele><time>2026-03-08T08:06:11.000Z</time></trkpt>
<trkpt lat="42.100422" lon="23.60846"><ele>2093.2</ele><time>2026-03-08T08:06:12.000Z</time></trkpt>
<trkpt lat="42.100422" lon="23.60846"><ele>2093.2</ele><time>2026-03-08T08:06:13.000Z</time></trkpt>
<trkpt lat="42.100422" lon="23.60846"><ele>2093.2</ele><time>2026-03-08T08:06:14.000Z</time></trkpt>
<trkpt lat="42.100422" lon="23.60846"><ele>2093.2</ele><time>2026-03-08T08:06:15.000Z</time></trkpt>
<trkpt lat="42.100422" lon="23.608459"><ele>2093.2</ele><time>2026-03-08T08:06:16.000Z</time></trkpt>
<trkpt lat="42.100423" lon="23.608458"><ele>2093.2</ele><time>2026-03-08T08:06:17.000Z</time></trkpt>
<trkpt lat="42.100424" lon="23.608457"><ele>2093.2</ele><time>2026-03-08T08:06:18.000Z</time></trkpt>
<trkpt lat="42.100425" lon="23.608455"><ele>2093.2</ele><time>2026-03-08T08:06:19.000Z</time></trkpt>
<trkpt lat="42.100426" lon="23.608454"><ele>2093.2</ele><time>2026-03-08T08:06:20.000Z</time></trkpt>
<trkpt lat="42.100426" lon="23.608453"><ele>2093.2</ele><time>2026-03-08T08:06:21.000Z</time></trkpt>
<trkpt lat="42.100426" lon="23.608453"><ele>2093.4</ele><time>2026-03-08T08:06:22.000Z</time></trkpt>
<trkpt lat="42.100424" lon="23.608453"><ele>2093.4</ele><time>2026-03-08T08:06:23.000Z</time></trkpt>
<trkpt lat="42.100423" lon="23.608453"><ele>2093.4</ele><time>2026-03-08T08:06:24.000Z</time></trkpt>
<trkpt lat="42.100421" lon="23.608452"><ele>2093.4</ele><time>2026-03-08T08:06:25.000Z</time></trkpt>
<trkpt lat="42.100419" lon="23.608451"><ele>2093.4</ele><time>2026-03-08T08:06:26.000Z</time></trkpt>
<trkpt lat="42.100417" lon="23.608448"><ele>2093.5</ele><time>2026-03-08T08:06:27.000Z</time></trkpt>
<trkpt lat="42.100415" lon="23.608445"><ele>2093.5</ele><time>2026-03-08T08:06:28.000Z</time></trkpt>
<trkpt lat="42.100414" lon="23.608442"><ele>2093.5</ele><time>2026-03-08T08:06:29.000Z</time></trkpt>
<trkpt lat="42.100414" lon="23.60844"><ele>2093.5</ele><time>2026-03-08T08:06:30.000Z</time></trkpt>
<trkpt lat="42.100415" lon="23.60844"><ele>2093.5</ele><time>2026-03-08T08:06:31.000Z</time></trkpt>
<trkpt lat="42.100415" lon="23.608441"><ele>2093.7</ele><time>2026-03-08T08:06:32.000Z</time></trkpt>
<trkpt lat="42.100416" lon="23.608442"><ele>2093.7</ele><time>2026-03-08T08:06:33.000Z</time></trkpt>
<trkpt lat="42.100416" lon="23.608443"><ele>2093.7</ele><time>2026-03-08T08:06:34.000Z</time></trkpt>
<trkpt lat="42.100416" lon="23.608444"><ele>2093.7</ele><time>2026-03-08T08:06:35.000Z</time></trkpt>
<trkpt lat="42.100416" lon="23.608444"><ele>2093.7</ele><time>2026-03-08T08:06:36.000Z</time></trkpt>
<trkpt lat="42.100416" lon="23.608444"><ele>2093.7</ele><time>2026-03-08T08:06:37.000Z</time></trkpt>
<trkpt lat="42.100415" lon="23.608444"><ele>2093.7</ele><time>2026-03-08T08:06:38.000Z</time></trkpt>
<trkpt lat="42.100415" lon="23.608444"><ele>2093.7</ele><time>2026-03-08T08:06:39.000Z</time></trkpt>
<trkpt lat="42.100415" lon="23.608444"><ele>2093.7</ele><time>2026-03-08T08:06:40.000Z</time></trkpt>
<trkpt lat="42.100415" lon="23.608444"><ele>2093.7</ele><time>2026-03-08T08:06:41.000Z</time></trkpt>
<trkpt lat="42.100415" lon="23.608444"><ele>2093.7</ele><time>2026-03-08T08:06:42.000Z</time></trkpt>
<trkpt lat="42.100415" lon="23.608444"><ele>2093.7</ele><time>2026-03-08T08:06:43.000Z</time></trkpt>
<trkpt lat="42.100415" lon="23.608444"><ele>2093.7</ele><time>2026-03-08T08:06:44.000Z</time></trkpt>
<trkpt lat="42.100415" lon="23.608444"><ele>2093.7</ele><time>2026-03-08T08:06:45.000Z</time></trkpt>
<trkpt lat="42.100415" lon="23.608444"><ele>2093.7</ele><time>2026-03-08T08:06:46.000Z</time></trkpt>
<trkpt lat="42.100415" lon="23.608444"><ele>2093.6</ele><time>2026-03-08T08:06:47.000Z</time></trkpt>
<trkpt lat="42.100415" lon="23.608444"><ele>2093.6</ele><time>2026-03-08T08:06:48.000Z</time></trkpt>
<trkpt lat="42.100415" lon="23.608444"><ele>2093.6</ele><time>2026-03-08T08:06:49.000Z</time></trkpt>
<trkpt lat="42.100415" lon="23.608444"><ele>2093.6</ele><time>2026-03-08T08:06:50.000Z</time></trkpt>
<trkpt lat="42.100415" lon="23.608444"><ele>2093.6</ele><time>2026-03-08T08:06:51.000Z</time></trkpt>
<trkpt lat="42.100415" lon="23.608444"><ele>2093.5</ele><time>2026-03-08T08:06:52.000Z</time></trkpt>
<trkpt lat="42.100415" lon="23.608444"><ele>2093.5</ele><time>2026-03-08T08:06:53.000Z</time></trkpt>
<trkpt lat="42.100415" lon="23.608444"><ele>2093.5</ele><time>2026-03-08T08:06:54.000Z</time></trkpt>
<trkpt lat="42.100415" lon="23.608443"><ele>2093.5</ele><time>2026-03-08T08:06:55.000Z</time></trkpt>
<trkpt lat="42.100415" lon="23.608444"><ele>2093.5</ele><time>2026-03-08T08:06:56.000Z</time></trkpt>
<trkpt lat="42.100415" lon="23.608444"><ele>2093.6</ele><time>2026-03-08T08:06:57.000Z</time></trkpt>
<trkpt lat="42.100415" lon="23.608444"><ele>2093.6</ele><time>2026-03-08T08:06:58.000Z</time></trkpt>
<trkpt lat="42.100415" lon="23.608444"><ele>2093.6</ele><time>2026-03-08T08:06:59.000Z</time></trkpt>
<trkpt lat="42.100415" lon="23.608444"><ele>2093.6</ele><time>2026-03-08T08:07:00.000Z</time></trkpt>
<trkpt lat="42.100416" lon="23.608444"><ele>2093.6</ele><time>2026-03-08T08:07:01.000Z</time></trkpt>
<trkpt lat="42.100416" lon="23.608444"><ele>2093.7</ele><time>2026-03-08T08:07:02.000Z</time></trkpt>
<trkpt lat="42.100416" lon="23.608444"><ele>2093.7</ele><time>2026-03-08T08:07:03.000Z</time></trkpt>
<trkpt lat="42.100416" lon="23.608444"><ele>2093.7</ele><time>2026-03-08T08:07:04.000Z</time></trkpt>
<trkpt lat="42.100416" lon="23.608444"><ele>2093.7</ele><time>2026-03-08T08:07:05.000Z</time></trkpt>
<trkpt lat="42.100416" lon="23.608444"><ele>2093.7</ele><time>2026-03-08T08:07:06.000Z</time></trkpt>
<trkpt lat="42.100416" lon="23.608444"><ele>2093.9</ele><time>2026-03-08T08:07:07.000Z</time></trkpt>
<trkpt lat="42.100417" lon="23.608444"><ele>2093.9</ele><time>2026-03-08T08:07:08.000Z</time></trkpt>
<trkpt lat="42.100417" lon="23.608444"><ele>2093.9</ele><time>2026-03-08T08:07:09.000Z</time></trkpt>
<trkpt lat="42.100418" lon="23.608445"><ele>2093.9</ele><time>2026-03-08T08:07:10.000Z</time></trkpt>
<trkpt lat="42.100418" lon="23.608445"><ele>2093.9</ele><time>2026-03-08T08:07:11.000Z</time></trkpt>
<trkpt lat="42.100419" lon="23.608445"><ele>2094</ele><time>2026-03-08T08:07:12.000Z</time></trkpt>
<trkpt lat="42.100418" lon="23.608444"><ele>2094</ele><time>2026-03-08T08:07:13.000Z</time></trkpt>
<trkpt lat="42.100418" lon="23.608442"><ele>2094</ele><time>2026-03-08T08:07:14.000Z</time></trkpt>
<trkpt lat="42.100417" lon="23.608439"><ele>2094</ele><time>2026-03-08T08:07:15.000Z</time></trkpt>
<trkpt lat="42.100416" lon="23.608437"><ele>2094</ele><time>2026-03-08T08:07:16.000Z</time></trkpt>
<trkpt lat="42.100417" lon="23.608434"><ele>2094.1</ele><time>2026-03-08T08:07:17.000Z</time></trkpt>
<trkpt lat="42.100419" lon="23.608429"><ele>2094.1</ele><time>2026-03-08T08:07:18.000Z</time></trkpt>
<trkpt lat="42.100422" lon="23.608423"><ele>2094.1</ele><time>2026-03-08T08:07:19.000Z</time></trkpt>
<trkpt lat="42.100427" lon="23.608416"><ele>2094.1</ele><time>2026-03-08T08:07:20.000Z</time></trkpt>
<trkpt lat="42.100431" lon="23.608406"><ele>2094.1</ele><time>2026-03-08T08:07:21.000Z</time></trkpt>
<trkpt lat="42.100436" lon="23.608397"><ele>2094.3</ele><time>2026-03-08T08:07:22.000Z</time></trkpt>
<trkpt lat="42.10044" lon="23.608389"><ele>2094.3</ele><time>2026-03-08T08:07:23.000Z</time></trkpt>
<trkpt lat="42.100443" lon="23.608381"><ele>2094.3</ele><time>2026-03-08T08:07:24.000Z</time></trkpt>
<trkpt lat="42.100446" lon="23.608374"><ele>2094.3</ele><time>2026-03-08T08:07:25.000Z</time></trkpt>
<trkpt lat="42.100447" lon="23.608367"><ele>2094.3</ele><time>2026-03-08T08:07:26.000Z</time></trkpt>
<trkpt lat="42.100448" lon="23.608361"><ele>2094.3</ele><time>2026-03-08T08:07:27.000Z</time></trkpt>
<trkpt lat="42.10045" lon="23.608355"><ele>2094.3</ele><time>2026-03-08T08:07:28.000Z</time></trkpt>
<trkpt lat="42.100451" lon="23.608348"><ele>2094.3</ele><time>2026-03-08T08:07:29.000Z</time></trkpt>
<trkpt lat="42.100453" lon="23.608341"><ele>2094.3</ele><time>2026-03-08T08:07:30.000Z</time></trkpt>
<trkpt lat="42.100455" lon="23.608332"><ele>2094.3</ele><time>2026-03-08T08:07:31.000Z</time></trkpt>
<trkpt lat="42.100457" lon="23.608324"><ele>2094.6</ele><time>2026-03-08T08:07:32.000Z</time></trkpt>
<trkpt lat="42.100459" lon="23.608316"><ele>2094.6</ele><time>2026-03-08T08:07:33.000Z</time></trkpt>
<trkpt lat="42.10046" lon="23.608307"><ele>2094.6</ele><time>2026-03-08T08:07:34.000Z</time></trkpt>
<trkpt lat="42.100461" lon="23.608299"><ele>2094.6</ele><time>2026-03-08T08:07:35.000Z</time></trkpt>
<trkpt lat="42.100462" lon="23.608291"><ele>2094.6</ele><time>2026-03-08T08:07:36.000Z</time></trkpt>
<trkpt lat="42.100463" lon="23.608281"><ele>2094.9</ele><time>2026-03-08T08:07:37.000Z</time></trkpt>
<trkpt lat="42.100464" lon="23.608271"><ele>2094.9</ele><time>2026-03-08T08:07:38.000Z</time></trkpt>
<trkpt lat="42.100465" lon="23.608261"><ele>2094.9</ele><time>2026-03-08T08:07:39.000Z</time></trkpt>
<trkpt lat="42.100466" lon="23.608251"><ele>2094.9</ele><time>2026-03-08T08:07:40.000Z</time></trkpt>
<trkpt lat="42.100468" lon="23.60824"><ele>2094.9</ele><time>2026-03-08T08:07:41.000Z</time></trkpt>
<trkpt lat="42.100469" lon="23.608228"><ele>2095.1</ele><time>2026-03-08T08:07:42.000Z</time></trkpt>
<trkpt lat="42.100471" lon="23.608217"><ele>2095.1</ele><time>2026-03-08T08:07:43.000Z</time></trkpt>
<trkpt lat="42.100473" lon="23.608206"><ele>2095.1</ele><time>2026-03-08T08:07:44.000Z</time></trkpt>
<trkpt lat="42.100476" lon="23.608196"><ele>2095.1</ele><time>2026-03-08T08:07:45.000Z</time></trkpt>
<trkpt lat="42.100479" lon="23.608185"><ele>2095.1</ele><time>2026-03-08T08:07:46.000Z</time></trkpt>
<trkpt lat="42.100482" lon="23.608175"><ele>2095.5</ele><time>2026-03-08T08:07:47.000Z</time></trkpt>
<trkpt lat="42.100486" lon="23.608166"><ele>2095.5</ele><time>2026-03-08T08:07:48.000Z</time></trkpt>
<trkpt lat="42.10049" lon="23.608156"><ele>2095.5</ele><time>2026-03-08T08:07:49.000Z</time></trkpt>
<trkpt lat="42.100493" lon="23.608146"><ele>2095.5</ele><time>2026-03-08T08:07:50.000Z</time></trkpt>
<trkpt lat="42.100497" lon="23.608136"><ele>2095.5</ele><time>2026-03-08T08:07:51.000Z</time></trkpt>
<trkpt lat="42.100501" lon="23.608127"><ele>2095.9</ele><time>2026-03-08T08:07:52.000Z</time></trkpt>
<trkpt lat="42.100503" lon="23.608117"><ele>2095.9</ele><time>2026-03-08T08:07:53.000Z</time></trkpt>
<trkpt lat="42.100506" lon="23.608107"><ele>2095.9</ele><time>2026-03-08T08:07:54.000Z</time></trkpt>
<trkpt lat="42.100508" lon="23.608097"><ele>2095.9</ele><time>2026-03-08T08:07:55.000Z</time></trkpt>
<trkpt lat="42.100511" lon="23.608087"><ele>2095.9</ele><time>2026-03-08T08:07:56.000Z</time></trkpt>
<trkpt lat="42.100513" lon="23.608076"><ele>2096.1</ele><time>2026-03-08T08:07:57.000Z</time></trkpt>
<trkpt lat="42.100516" lon="23.608065"><ele>2096.1</ele><time>2026-03-08T08:07:58.000Z</time></trkpt>
<trkpt lat="42.100518" lon="23.608056"><ele>2096.1</ele><time>2026-03-08T08:07:59.000Z</time></trkpt>
<trkpt lat="42.10052" lon="23.608045"><ele>2096.1</ele><time>2026-03-08T08:08:00.000Z</time></trkpt>
<trkpt lat="42.100522" lon="23.608034"><ele>2096.1</ele><time>2026-03-08T08:08:01.000Z</time></trkpt>
<trkpt lat="42.100524" lon="23.608023"><ele>2096.4</ele><time>2026-03-08T08:08:02.000Z</time></trkpt>
<trkpt lat="42.100526" lon="23.608012"><ele>2096.4</ele><time>2026-03-08T08:08:03.000Z</time></trkpt>
<trkpt lat="42.100529" lon="23.608"><ele>2096.4</ele><time>2026-03-08T08:08:04.000Z</time></trkpt>
<trkpt lat="42.100532" lon="23.607988"><ele>2096.4</ele><time>2026-03-08T08:08:05.000Z</time></trkpt>
<trkpt lat="42.100535" lon="23.607977"><ele>2096.4</ele><time>2026-03-08T08:08:06.000Z</time></trkpt>
<trkpt lat="42.100537" lon="23.607966"><ele>2096.7</ele><time>2026-03-08T08:08:07.000Z</time></trkpt>
<trkpt lat="42.10054" lon="23.607956"><ele>2096.7</ele><time>2026-03-08T08:08:08.000Z</time></trkpt>
<trkpt lat="42.100543" lon="23.607945"><ele>2096.7</ele><time>2026-03-08T08:08:09.000Z</time></trkpt>
<trkpt lat="42.100546" lon="23.607934"><ele>2096.7</ele><time>2026-03-08T08:08:10.000Z</time></trkpt>
<trkpt lat="42.100548" lon="23.607924"><ele>2096.7</ele><time>2026-03-08T08:08:11.000Z</time></trkpt>
<trkpt lat="42.100549" lon="23.607913"><ele>2096.8</ele><time>2026-03-08T08:08:12.000Z</time></trkpt>
<trkpt lat="42.10055" lon="23.607903"><ele>2096.8</ele><time>2026-03-08T08:08:13.000Z</time></trkpt>
<trkpt lat="42.100551" lon="23.607894"><ele>2096.8</ele><time>2026-03-08T08:08:14.000Z</time></trkpt>
<trkpt lat="42.100552" lon="23.607889"><ele>2096.8</ele><time>2026-03-08T08:08:15.000Z</time></trkpt>
<trkpt lat="42.100552" lon="23.607885"><ele>2096.8</ele><time>2026-03-08T08:08:16.000Z</time></trkpt>
<trkpt lat="42.100553" lon="23.607882"><ele>2097.1</ele><time>2026-03-08T08:08:17.000Z</time></trkpt>
<trkpt lat="42.100553" lon="23.607882"><ele>2097.1</ele><time>2026-03-08T08:08:18.000Z</time></trkpt>
<trkpt lat="42.100553" lon="23.607883"><ele>2097.1</ele><time>2026-03-08T08:08:19.000Z</time></trkpt>
<trkpt lat="42.100553" lon="23.607882"><ele>2097.1</ele><time>2026-03-08T08:08:20.000Z</time></trkpt>
<trkpt lat="42.100554" lon="23.60788"><ele>2097.1</ele><time>2026-03-08T08:08:21.000Z</time></trkpt>
<trkpt lat="42.100556" lon="23.607875"><ele>2097.3</ele><time>2026-03-08T08:08:22.000Z</time></trkpt>
<trkpt lat="42.100559" lon="23.607869"><ele>2097.3</ele><time>2026-03-08T08:08:23.000Z</time></trkpt>
<trkpt lat="42.100562" lon="23.607861"><ele>2097.3</ele><time>2026-03-08T08:08:24.000Z</time></trkpt>
<trkpt lat="42.100566" lon="23.607849"><ele>2097.3</ele><time>2026-03-08T08:08:25.000Z</time></trkpt>
<trkpt lat="42.100569" lon="23.607839"><ele>2097.3</ele><time>2026-03-08T08:08:26.000Z</time></trkpt>
<trkpt lat="42.100572" lon="23.607828"><ele>2097.3</ele><time>2026-03-08T08:08:27.000Z</time></trkpt>
<trkpt lat="42.100574" lon="23.607817"><ele>2097.3</ele><time>2026-03-08T08:08:28.000Z</time></trkpt>
<trkpt lat="42.100576" lon="23.607807"><ele>2097.3</ele><time>2026-03-08T08:08:29.000Z</time></trkpt>
<trkpt lat="42.100578" lon="23.607797"><ele>2097.3</ele><time>2026-03-08T08:08:30.000Z</time></trkpt>
<trkpt lat="42.10058" lon="23.607785"><ele>2097.3</ele><time>2026-03-08T08:08:31.000Z</time></trkpt>
<trkpt lat="42.100582" lon="23.607772"><ele>2097.4</ele><time>2026-03-08T08:08:32.000Z</time></trkpt>
<trkpt lat="42.100585" lon="23.60776"><ele>2097.4</ele><time>2026-03-08T08:08:33.000Z</time></trkpt>
<trkpt lat="42.100587" lon="23.607746"><ele>2097.4</ele><time>2026-03-08T08:08:34.000Z</time></trkpt>
<trkpt lat="42.100589" lon="23.607733"><ele>2097.4</ele><time>2026-03-08T08:08:35.000Z</time></trkpt>
<trkpt lat="42.100591" lon="23.60772"><ele>2097.4</ele><time>2026-03-08T08:08:36.000Z</time></trkpt>
<trkpt lat="42.100594" lon="23.607706"><ele>2097.6</ele><time>2026-03-08T08:08:37.000Z</time></trkpt>
<trkpt lat="42.100598" lon="23.607691"><ele>2097.6</ele><time>2026-03-08T08:08:38.000Z</time></trkpt>
<trkpt lat="42.100601" lon="23.607677"><ele>2097.6</ele><time>2026-03-08T08:08:39.000Z</time></trkpt>
<trkpt lat="42.100605" lon="23.607662"><ele>2097.6</ele><time>2026-03-08T08:08:40.000Z</time></trkpt>
<trkpt lat="42.100608" lon="23.607647"><ele>2097.6</ele><time>2026-03-08T08:08:41.000Z</time></trkpt>
<trkpt lat="42.100611" lon="23.607633"><ele>2097.8</ele><time>2026-03-08T08:08:42.000Z</time></trkpt>
<trkpt lat="42.100613" lon="23.607621"><ele>2097.8</ele><time>2026-03-08T08:08:43.000Z</time></trkpt>
<trkpt lat="42.100615" lon="23.60761"><ele>2097.8</ele><time>2026-03-08T08:08:44.000Z</time></trkpt>
<trkpt lat="42.100617" lon="23.607598"><ele>2097.8</ele><time>2026-03-08T08:08:45.000Z</time></trkpt>
<trkpt lat="42.10062" lon="23.607587"><ele>2097.8</ele><time>2026-03-08T08:08:46.000Z</time></trkpt>
<trkpt lat="42.100622" lon="23.607577"><ele>2098.2</ele><time>2026-03-08T08:08:47.000Z</time></trkpt>
<trkpt lat="42.100624" lon="23.607568"><ele>2098.2</ele><time>2026-03-08T08:08:48.000Z</time></trkpt>
<trkpt lat="42.100627" lon="23.607557"><ele>2098.2</ele><time>2026-03-08T08:08:49.000Z</time></trkpt>
<trkpt lat="42.10063" lon="23.607547"><ele>2098.2</ele><time>2026-03-08T08:08:50.000Z</time></trkpt>
<trkpt lat="42.100632" lon="23.607538"><ele>2098.2</ele><time>2026-03-08T08:08:51.000Z</time></trkpt>
<trkpt lat="42.100635" lon="23.607528"><ele>2098.7</ele><time>2026-03-08T08:08:52.000Z</time></trkpt>
<trkpt lat="42.100637" lon="23.607517"><ele>2098.7</ele><time>2026-03-08T08:08:53.000Z</time></trkpt>
<trkpt lat="42.100639" lon="23.607505"><ele>2098.7</ele><time>2026-03-08T08:08:54.000Z</time></trkpt>
<trkpt lat="42.100641" lon="23.607493"><ele>2098.7</ele><time>2026-03-08T08:08:55.000Z</time></trkpt>
<trkpt lat="42.100643" lon="23.60748"><ele>2098.7</ele><time>2026-03-08T08:08:56.000Z</time></trkpt>
<trkpt lat="42.100645" lon="23.607467"><ele>2098.9</ele><time>2026-03-08T08:08:57.000Z</time></trkpt>
<trkpt lat="42.100646" lon="23.607454"><ele>2098.9</ele><time>2026-03-08T08:08:58.000Z</time></trkpt>
<trkpt lat="42.100648" lon="23.60744"><ele>2098.9</ele><time>2026-03-08T08:08:59.000Z</time></trkpt>
<trkpt lat="42.100649" lon="23.607427"><ele>2098.9</ele><time>2026-03-08T08:09:00.000Z</time></trkpt>
<trkpt lat="42.100651" lon="23.607413"><ele>2098.9</ele><time>2026-03-08T08:09:01.000Z</time></trkpt>
<trkpt lat="42.100653" lon="23.607399"><ele>2099.4</ele><time>2026-03-08T08:09:02.000Z</time></trkpt>
<trkpt lat="42.100655" lon="23.607384"><ele>2099.4</ele><time>2026-03-08T08:09:03.000Z</time></trkpt>
<trkpt lat="42.100657" lon="23.607369"><ele>2099.4</ele><time>2026-03-08T08:09:04.000Z</time></trkpt>
<trkpt lat="42.100658" lon="23.607355"><ele>2099.4</ele><time>2026-03-08T08:09:05.000Z</time></trkpt>
<trkpt lat="42.10066" lon="23.607341"><ele>2099.4</ele><time>2026-03-08T08:09:06.000Z</time></trkpt>
<trkpt lat="42.100663" lon="23.607327"><ele>2099.8</ele><time>2026-03-08T08:09:07.000Z</time></trkpt>
<trkpt lat="42.100665" lon="23.607314"><ele>2099.8</ele><time>2026-03-08T08:09:08.000Z</time></trkpt>
<trkpt lat="42.100668" lon="23.607301"><ele>2099.8</ele><time>2026-03-08T08:09:09.000Z</time></trkpt>
<trkpt lat="42.100672" lon="23.607288"><ele>2099.8</ele><time>2026-03-08T08:09:10.000Z</time></trkpt>
<trkpt lat="42.100675" lon="23.607275"><ele>2099.8</ele><time>2026-03-08T08:09:11.000Z</time></trkpt>
<trkpt lat="42.100677" lon="23.607262"><ele>2099.9</ele><time>2026-03-08T08:09:12.000Z</time></trkpt>
<trkpt lat="42.10068" lon="23.60725"><ele>2099.9</ele><time>2026-03-08T08:09:13.000Z</time></trkpt>
<trkpt lat="42.100682" lon="23.607238"><ele>2099.9</ele><time>2026-03-08T08:09:14.000Z</time></trkpt>
<trkpt lat="42.100685" lon="23.607226"><ele>2099.9</ele><time>2026-03-08T08:09:15.000Z</time></trkpt>
<trkpt lat="42.100687" lon="23.607215"><ele>2099.9</ele><time>2026-03-08T08:09:16.000Z</time></trkpt>
<trkpt lat="42.100689" lon="23.607205"><ele>2100.2</ele><time>2026-03-08T08:09:17.000Z</time></trkpt>
<trkpt lat="42.100692" lon="23.607194"><ele>2100.2</ele><time>2026-03-08T08:09:18.000Z</time></trkpt>
<trkpt lat="42.100694" lon="23.607184"><ele>2100.2</ele><time>2026-03-08T08:09:19.000Z</time></trkpt>
<trkpt lat="42.100696" lon="23.607174"><ele>2100.2</ele><time>2026-03-08T08:09:20.000Z</time></trkpt>
<trkpt lat="42.100699" lon="23.607164"><ele>2100.2</ele><time>2026-03-08T08:09:21.000Z</time></trkpt>
<trkpt lat="42.100701" lon="23.607153"><ele>2100.5</ele><time>2026-03-08T08:09:22.000Z</time></trkpt>
<trkpt lat="42.100704" lon="23.607143"><ele>2100.5</ele><time>2026-03-08T08:09:23.000Z</time></trkpt>
<trkpt lat="42.100705" lon="23.607135"><ele>2100.5</ele><time>2026-03-08T08:09:24.000Z</time></trkpt>
<trkpt lat="42.100707" lon="23.607126"><ele>2100.5</ele><time>2026-03-08T08:09:25.000Z</time></trkpt>
<trkpt lat="42.100708" lon="23.607118"><ele>2100.5</ele><time>2026-03-08T08:09:26.000Z</time></trkpt>
<trkpt lat="42.100709" lon="23.60711"><ele>2100.7</ele><time>2026-03-08T08:09:27.000Z</time></trkpt>
<trkpt lat="42.100711" lon="23.607102"><ele>2100.7</ele><time>2026-03-08T08:09:28.000Z</time></trkpt>
<trkpt lat="42.100712" lon="23.607093"><ele>2100.7</ele><time>2026-03-08T08:09:29.000Z</time></trkpt>
<trkpt lat="42.100713" lon="23.607085"><ele>2100.7</ele><time>2026-03-08T08:09:30.000Z</time></trkpt>
<trkpt lat="42.100713" lon="23.607076"><ele>2100.7</ele><time>2026-03-08T08:09:31.000Z</time></trkpt>
<trkpt lat="42.100714" lon="23.607067"><ele>2101.2</ele><time>2026-03-08T08:09:32.000Z</time></trkpt>
<trkpt lat="42.100715" lon="23.607056"><ele>2101.2</ele><time>2026-03-08T08:09:33.000Z</time></trkpt>
<trkpt lat="42.100716" lon="23.607046"><ele>2101.2</ele><time>2026-03-08T08:09:34.000Z</time></trkpt>
<trkpt lat="42.100718" lon="23.607037"><ele>2101.2</ele><time>2026-03-08T08:09:35.000Z</time></trkpt>
<trkpt lat="42.100722" lon="23.607028"><ele>2101.2</ele><time>2026-03-08T08:09:36.000Z</time></trkpt>
<trkpt lat="42.100725" lon="23.607019"><ele>2101.7</ele><time>2026-03-08T08:09:37.000Z</time></trkpt>
<trkpt lat="42.100728" lon="23.607011"><ele>2101.7</ele><time>2026-03-08T08:09:38.000Z</time></trkpt>
<trkpt lat="42.100731" lon="23.607003"><ele>2101.7</ele><time>2026-03-08T08:09:39.000Z</time></trkpt>
<trkpt lat="42.100733" lon="23.606993"><ele>2101.7</ele><time>2026-03-08T08:09:40.000Z</time></trkpt>
<trkpt lat="42.100735" lon="23.606983"><ele>2101.7</ele><time>2026-03-08T08:09:41.000Z</time></trkpt>
<trkpt lat="42.100737" lon="23.606972"><ele>2101.9</ele><time>2026-03-08T08:09:42.000Z</time></trkpt>
<trkpt lat="42.100738" lon="23.60696"><ele>2101.9</ele><time>2026-03-08T08:09:43.000Z</time></trkpt>
<trkpt lat="42.10074" lon="23.606949"><ele>2101.9</ele><time>2026-03-08T08:09:44.000Z</time></trkpt>
<trkpt lat="42.100742" lon="23.606936"><ele>2101.9</ele><time>2026-03-08T08:09:45.000Z</time></trkpt>
<trkpt lat="42.100743" lon="23.606922"><ele>2101.9</ele><time>2026-03-08T08:09:46.000Z</time></trkpt>
<trkpt lat="42.100745" lon="23.606909"><ele>2102.3</ele><time>2026-03-08T08:09:47.000Z</time></trkpt>
<trkpt lat="42.100746" lon="23.606897"><ele>2102.3</ele><time>2026-03-08T08:09:48.000Z</time></trkpt>
<trkpt lat="42.100747" lon="23.606885"><ele>2102.3</ele><time>2026-03-08T08:09:49.000Z</time></trkpt>
<trkpt lat="42.100749" lon="23.606873"><ele>2102.3</ele><time>2026-03-08T08:09:50.000Z</time></trkpt>
<trkpt lat="42.10075" lon="23.606862"><ele>2102.3</ele><time>2026-03-08T08:09:51.000Z</time></trkpt>
<trkpt lat="42.100751" lon="23.606851"><ele>2103</ele><time>2026-03-08T08:09:52.000Z</time></trkpt>
<trkpt lat="42.100753" lon="23.606839"><ele>2103</ele><time>2026-03-08T08:09:53.000Z</time></trkpt>
<trkpt lat="42.100755" lon="23.606827"><ele>2103</ele><time>2026-03-08T08:09:54.000Z</time></trkpt>
<trkpt lat="42.100757" lon="23.606816"><ele>2103</ele><time>2026-03-08T08:09:55.000Z</time></trkpt>
<trkpt lat="42.100758" lon="23.606804"><ele>2103</ele><time>2026-03-08T08:09:56.000Z</time></trkpt>
<trkpt lat="42.100759" lon="23.606791"><ele>2103.3</ele><time>2026-03-08T08:09:57.000Z</time></trkpt>
<trkpt lat="42.100761" lon="23.606779"><ele>2103.3</ele><time>2026-03-08T08:09:58.000Z</time></trkpt>
<trkpt lat="42.100763" lon="23.606767"><ele>2103.3</ele><time>2026-03-08T08:09:59.000Z</time></trkpt>
<trkpt lat="42.100765" lon="23.606755"><ele>2103.3</ele><time>2026-03-08T08:10:00.000Z</time></trkpt>
<trkpt lat="42.100768" lon="23.606743"><ele>2103.3</ele><time>2026-03-08T08:10:01.000Z</time></trkpt>
<trkpt lat="42.100771" lon="23.606732"><ele>2103.7</ele><time>2026-03-08T08:10:02.000Z</time></trkpt>
<trkpt lat="42.100774" lon="23.60672"><ele>2103.7</ele><time>2026-03-08T08:10:03.000Z</time></trkpt>
<trkpt lat="42.100776" lon="23.606707"><ele>2103.7</ele><time>2026-03-08T08:10:04.000Z</time></trkpt>
<trkpt lat="42.100779" lon="23.606695"><ele>2103.7</ele><time>2026-03-08T08:10:05.000Z</time></trkpt>
<trkpt lat="42.100781" lon="23.606684"><ele>2103.7</ele><time>2026-03-08T08:10:06.000Z</time></trkpt>
<trkpt lat="42.100784" lon="23.606671"><ele>2104</ele><time>2026-03-08T08:10:07.000Z</time></trkpt>
<trkpt lat="42.100786" lon="23.606659"><ele>2104</ele><time>2026-03-08T08:10:08.000Z</time></trkpt>
<trkpt lat="42.100789" lon="23.606647"><ele>2104</ele><time>2026-03-08T08:10:09.000Z</time></trkpt>
<trkpt lat="42.100791" lon="23.606635"><ele>2104</ele><time>2026-03-08T08:10:10.000Z</time></trkpt>
<trkpt lat="42.100793" lon="23.606623"><ele>2104</ele><time>2026-03-08T08:10:11.000Z</time></trkpt>
<trkpt lat="42.100795" lon="23.606611"><ele>2104.1</ele><time>2026-03-08T08:10:12.000Z</time></trkpt>
<trkpt lat="42.100797" lon="23.606599"><ele>2104.1</ele><time>2026-03-08T08:10:13.000Z</time></trkpt>
<trkpt lat="42.1008" lon="23.606588"><ele>2104.1</ele><time>2026-03-08T08:10:14.000Z</time></trkpt>
<trkpt lat="42.100802" lon="23.606576"><ele>2104.1</ele><time>2026-03-08T08:10:15.000Z</time></trkpt>
<trkpt lat="42.100804" lon="23.606563"><ele>2104.1</ele><time>2026-03-08T08:10:16.000Z</time></trkpt>
<trkpt lat="42.100806" lon="23.606551"><ele>2104.4</ele><time>2026-03-08T08:10:17.000Z</time></trkpt>
<trkpt lat="42.100807" lon="23.606539"><ele>2104.4</ele><time>2026-03-08T08:10:18.000Z</time></trkpt>
<trkpt lat="42.100809" lon="23.606526"><ele>2104.4</ele><time>2026-03-08T08:10:19.000Z</time></trkpt>
<trkpt lat="42.100811" lon="23.606513"><ele>2104.4</ele><time>2026-03-08T08:10:20.000Z</time></trkpt>
<trkpt lat="42.100813" lon="23.606501"><ele>2104.4</ele><time>2026-03-08T08:10:21.000Z</time></trkpt>
<trkpt lat="42.100814" lon="23.60649"><ele>2104.8</ele><time>2026-03-08T08:10:22.000Z</time></trkpt>
<trkpt lat="42.100815" lon="23.606478"><ele>2104.8</ele><time>2026-03-08T08:10:23.000Z</time></trkpt>
<trkpt lat="42.100816" lon="23.606466"><ele>2104.8</ele><time>2026-03-08T08:10:24.000Z</time></trkpt>
<trkpt lat="42.100817" lon="23.606454"><ele>2104.8</ele><time>2026-03-08T08:10:25.000Z</time></trkpt>
<trkpt lat="42.100817" lon="23.606443"><ele>2104.8</ele><time>2026-03-08T08:10:26.000Z</time></trkpt>
<trkpt lat="42.100817" lon="23.606432"><ele>2105</ele><time>2026-03-08T08:10:27.000Z</time></trkpt>
<trkpt lat="42.100818" lon="23.606421"><ele>2105</ele><time>2026-03-08T08:10:28.000Z</time></trkpt>
<trkpt lat="42.100818" lon="23.606409"><ele>2105</ele><time>2026-03-08T08:10:29.000Z</time></trkpt>
<trkpt lat="42.100819" lon="23.606397"><ele>2105</ele><time>2026-03-08T08:10:30.000Z</time></trkpt>
<trkpt lat="42.10082" lon="23.606385"><ele>2105</ele><time>2026-03-08T08:10:31.000Z</time></trkpt>
<trkpt lat="42.100821" lon="23.606371"><ele>2105.5</ele><time>2026-03-08T08:10:32.000Z</time></trkpt>
<trkpt lat="42.100824" lon="23.606358"><ele>2105.5</ele><time>2026-03-08T08:10:33.000Z</time></trkpt>
<trkpt lat="42.100826" lon="23.606344"><ele>2105.5</ele><time>2026-03-08T08:10:34.000Z</time></trkpt>
<trkpt lat="42.100828" lon="23.606331"><ele>2105.5</ele><time>2026-03-08T08:10:35.000Z</time></trkpt>
<trkpt lat="42.100831" lon="23.606319"><ele>2105.5</ele><time>2026-03-08T08:10:36.000Z</time></trkpt>
<trkpt lat="42.100833" lon="23.606309"><ele>2106</ele><time>2026-03-08T08:10:37.000Z</time></trkpt>
<trkpt lat="42.100835" lon="23.6063"><ele>2106</ele><time>2026-03-08T08:10:38.000Z</time></trkpt>
<trkpt lat="42.100836" lon="23.60629"><ele>2106</ele><time>2026-03-08T08:10:39.000Z</time></trkpt>
<trkpt lat="42.100838" lon="23.606282"><ele>2106</ele><time>2026-03-08T08:10:40.000Z</time></trkpt>
<trkpt lat="42.100838" lon="23.606273"><ele>2106</ele><time>2026-03-08T08:10:41.000Z</time></trkpt>
<trkpt lat="42.10084" lon="23.606259"><ele>2106.2</ele><time>2026-03-08T08:10:42.000Z</time></trkpt>
<trkpt lat="42.100841" lon="23.606245"><ele>2106.2</ele><time>2026-03-08T08:10:43.000Z</time></trkpt>
<trkpt lat="42.100842" lon="23.60623"><ele>2106.2</ele><time>2026-03-08T08:10:44.000Z</time></trkpt>
<trkpt lat="42.100843" lon="23.606215"><ele>2106.2</ele><time>2026-03-08T08:10:45.000Z</time></trkpt>
<trkpt lat="42.100844" lon="23.606199"><ele>2106.2</ele><time>2026-03-08T08:10:46.000Z</time></trkpt>
<trkpt lat="42.100845" lon="23.606185"><ele>2106.5</ele><time>2026-03-08T08:10:47.000Z</time></trkpt>
<trkpt lat="42.100845" lon="23.606172"><ele>2106.5</ele><time>2026-03-08T08:10:48.000Z</time></trkpt>
<trkpt lat="42.100846" lon="23.606161"><ele>2106.5</ele><time>2026-03-08T08:10:49.000Z</time></trkpt>
<trkpt lat="42.100847" lon="23.606151"><ele>2106.5</ele><time>2026-03-08T08:10:50.000Z</time></trkpt>
<trkpt lat="42.100847" lon="23.606142"><ele>2106.5</ele><time>2026-03-08T08:10:51.000Z</time></trkpt>
<trkpt lat="42.100847" lon="23.606134"><ele>2106.8</ele><time>2026-03-08T08:10:52.000Z</time></trkpt>
<trkpt lat="42.100848" lon="23.606126"><ele>2106.8</ele><time>2026-03-08T08:10:53.000Z</time></trkpt>
<trkpt lat="42.100849" lon="23.606116"><ele>2106.8</ele><time>2026-03-08T08:10:54.000Z</time></trkpt>
<trkpt lat="42.10085" lon="23.606106"><ele>2106.8</ele><time>2026-03-08T08:10:55.000Z</time></trkpt>
<trkpt lat="42.100851" lon="23.606097"><ele>2106.8</ele><time>2026-03-08T08:10:56.000Z</time></trkpt>
<trkpt lat="42.100851" lon="23.606087"><ele>2107</ele><time>2026-03-08T08:10:57.000Z</time></trkpt>
<trkpt lat="42.100852" lon="23.606076"><ele>2107</ele><time>2026-03-08T08:10:58.000Z</time></trkpt>
<trkpt lat="42.100853" lon="23.606066"><ele>2107</ele><time>2026-03-08T08:10:59.000Z</time></trkpt>
<trkpt lat="42.100854" lon="23.606056"><ele>2107</ele><time>2026-03-08T08:11:00.000Z</time></trkpt>
<trkpt lat="42.100855" lon="23.606046"><ele>2107</ele><time>2026-03-08T08:11:01.000Z</time></trkpt>
<trkpt lat="42.100857" lon="23.606035"><ele>2107.5</ele><time>2026-03-08T08:11:02.000Z</time></trkpt>
<trkpt lat="42.100857" lon="23.606024"><ele>2107.5</ele><time>2026-03-08T08:11:03.000Z</time></trkpt>
<trkpt lat="42.100858" lon="23.606013"><ele>2107.5</ele><time>2026-03-08T08:11:04.000Z</time></trkpt>
<trkpt lat="42.100859" lon="23.606001"><ele>2107.5</ele><time>2026-03-08T08:11:05.000Z</time></trkpt>
<trkpt lat="42.10086" lon="23.605989"><ele>2107.5</ele><time>2026-03-08T08:11:06.000Z</time></trkpt>
<trkpt lat="42.10086" lon="23.605979"><ele>2107.9</ele><time>2026-03-08T08:11:07.000Z</time></trkpt>
<trkpt lat="42.100861" lon="23.605968"><ele>2107.9</ele><time>2026-03-08T08:11:08.000Z</time></trkpt>
<trkpt lat="42.100862" lon="23.605957"><ele>2107.9</ele><time>2026-03-08T08:11:09.000Z</time></trkpt>
<trkpt lat="42.100863" lon="23.605946"><ele>2107.9</ele><time>2026-03-08T08:11:10.000Z</time></trkpt>
<trkpt lat="42.100864" lon="23.605936"><ele>2107.9</ele><time>2026-03-08T08:11:11.000Z</time></trkpt>
<trkpt lat="42.100864" lon="23.605928"><ele>2108</ele><time>2026-03-08T08:11:12.000Z</time></trkpt>
<trkpt lat="42.100865" lon="23.605921"><ele>2108</ele><time>2026-03-08T08:11:13.000Z</time></trkpt>
<trkpt lat="42.100865" lon="23.605915"><ele>2108</ele><time>2026-03-08T08:11:14.000Z</time></trkpt>
<trkpt lat="42.100866" lon="23.605909"><ele>2108</ele><time>2026-03-08T08:11:15.000Z</time></trkpt>
<trkpt lat="42.100867" lon="23.605902"><ele>2108</ele><time>2026-03-08T08:11:16.000Z</time></trkpt>
<trkpt lat="42.100869" lon="23.605894"><ele>2108.4</ele><time>2026-03-08T08:11:17.000Z</time></trkpt>
<trkpt lat="42.10087" lon="23.605885"><ele>2108.4</ele><time>2026-03-08T08:11:18.000Z</time></trkpt>
<trkpt lat="42.100872" lon="23.605876"><ele>2108.4</ele><time>2026-03-08T08:11:19.000Z</time></trkpt>
<trkpt lat="42.100873" lon="23.605867"><ele>2108.4</ele><time>2026-03-08T08:11:20.000Z</time></trkpt>
<trkpt lat="42.100874" lon="23.605859"><ele>2108.4</ele><time>2026-03-08T08:11:21.000Z</time></trkpt>
<trkpt lat="42.100875" lon="23.60585"><ele>2108.7</ele><time>2026-03-08T08:11:22.000Z</time></trkpt>
<trkpt lat="42.100876" lon="23.605841"><ele>2108.7</ele><time>2026-03-08T08:11:23.000Z</time></trkpt>
<trkpt lat="42.100877" lon="23.605832"><ele>2108.7</ele><time>2026-03-08T08:11:24.000Z</time></trkpt>
<trkpt lat="42.100878" lon="23.605823"><ele>2108.7</ele><time>2026-03-08T08:11:25.000Z</time></trkpt>
<trkpt lat="42.100879" lon="23.605813"><ele>2108.7</ele><time>2026-03-08T08:11:26.000Z</time></trkpt>
<trkpt lat="42.10088" lon="23.605804"><ele>2108.9</ele><time>2026-03-08T08:11:27.000Z</time></trkpt>
<trkpt lat="42.100881" lon="23.605795"><ele>2108.9</ele><time>2026-03-08T08:11:28.000Z</time></trkpt>
<trkpt lat="42.100882" lon="23.605784"><ele>2108.9</ele><time>2026-03-08T08:11:29.000Z</time></trkpt>
<trkpt lat="42.100884" lon="23.605774"><ele>2108.9</ele><time>2026-03-08T08:11:30.000Z</time></trkpt>
<trkpt lat="42.100887" lon="23.605763"><ele>2108.9</ele><time>2026-03-08T08:11:31.000Z</time></trkpt>
<trkpt lat="42.100889" lon="23.605751"><ele>2109.2</ele><time>2026-03-08T08:11:32.000Z</time></trkpt>
<trkpt lat="42.100892" lon="23.605739"><ele>2109.2</ele><time>2026-03-08T08:11:33.000Z</time></trkpt>
<trkpt lat="42.100893" lon="23.605727"><ele>2109.2</ele><time>2026-03-08T08:11:34.000Z</time></trkpt>
<trkpt lat="42.100895" lon="23.605714"><ele>2109.2</ele><time>2026-03-08T08:11:35.000Z</time></trkpt>
<trkpt lat="42.100896" lon="23.605701"><ele>2109.2</ele><time>2026-03-08T08:11:36.000Z</time></trkpt>
<trkpt lat="42.100898" lon="23.605688"><ele>2109.6</ele><time>2026-03-08T08:11:37.000Z</time></trkpt>
<trkpt lat="42.100899" lon="23.605676"><ele>2109.6</ele><time>2026-03-08T08:11:38.000Z</time></trkpt>
<trkpt lat="42.100901" lon="23.605664"><ele>2109.6</ele><time>2026-03-08T08:11:39.000Z</time></trkpt>
<trkpt lat="42.100902" lon="23.605652"><ele>2109.6</ele><time>2026-03-08T08:11:40.000Z</time></trkpt>
<trkpt lat="42.100904" lon="23.605641"><ele>2109.6</ele><time>2026-03-08T08:11:41.000Z</time></trkpt>
<trkpt lat="42.100906" lon="23.605628"><ele>2109.7</ele><time>2026-03-08T08:11:42.000Z</time></trkpt>
<trkpt lat="42.100908" lon="23.605614"><ele>2109.7</ele><time>2026-03-08T08:11:43.000Z</time></trkpt>
<trkpt lat="42.10091" lon="23.6056"><ele>2109.7</ele><time>2026-03-08T08:11:44.000Z</time></trkpt>
<trkpt lat="42.100912" lon="23.605586"><ele>2109.7</ele><time>2026-03-08T08:11:45.000Z</time></trkpt>
<trkpt lat="42.100914" lon="23.605572"><ele>2109.7</ele><time>2026-03-08T08:11:46.000Z</time></trkpt>
<trkpt lat="42.100915" lon="23.605559"><ele>2110.1</ele><time>2026-03-08T08:11:47.000Z</time></trkpt>
<trkpt lat="42.100916" lon="23.605546"><ele>2110.1</ele><time>2026-03-08T08:11:48.000Z</time></trkpt>
<trkpt lat="42.100917" lon="23.605534"><ele>2110.1</ele><time>2026-03-08T08:11:49.000Z</time></trkpt>
<trkpt lat="42.100918" lon="23.605523"><ele>2110.1</ele><time>2026-03-08T08:11:50.000Z</time></trkpt>
<trkpt lat="42.100918" lon="23.605512"><ele>2110.1</ele><time>2026-03-08T08:11:51.000Z</time></trkpt>
<trkpt lat="42.10092" lon="23.6055"><ele>2110.4</ele><time>2026-03-08T08:11:52.000Z</time></trkpt>
<trkpt lat="42.100921" lon="23.605489"><ele>2110.4</ele><time>2026-03-08T08:11:53.000Z</time></trkpt>
<trkpt lat="42.100922" lon="23.605479"><ele>2110.4</ele><time>2026-03-08T08:11:54.000Z</time></trkpt>
<trkpt lat="42.100922" lon="23.605468"><ele>2110.4</ele><time>2026-03-08T08:11:55.000Z</time></trkpt>
<trkpt lat="42.100923" lon="23.605456"><ele>2110.4</ele><time>2026-03-08T08:11:56.000Z</time></trkpt>
<trkpt lat="42.100924" lon="23.605444"><ele>2110.6</ele><time>2026-03-08T08:11:57.000Z</time></trkpt>
<trkpt lat="42.100925" lon="23.605433"><ele>2110.6</ele><time>2026-03-08T08:11:58.000Z</time></trkpt>
<trkpt lat="42.100927" lon="23.605421"><ele>2110.6</ele><time>2026-03-08T08:11:59.000Z</time></trkpt>
<trkpt lat="42.100928" lon="23.605408"><ele>2110.6</ele><time>2026-03-08T08:12:00.000Z</time></trkpt>
<trkpt lat="42.10093" lon="23.605397"><ele>2110.6</ele><time>2026-03-08T08:12:01.000Z</time></trkpt>
<trkpt lat="42.100932" lon="23.605386"><ele>2110.9</ele><time>2026-03-08T08:12:02.000Z</time></trkpt>
<trkpt lat="42.100933" lon="23.605374"><ele>2110.9</ele><time>2026-03-08T08:12:03.000Z</time></trkpt>
<trkpt lat="42.100934" lon="23.605363"><ele>2110.9</ele><time>2026-03-08T08:12:04.000Z</time></trkpt>
<trkpt lat="42.100936" lon="23.605352"><ele>2110.9</ele><time>2026-03-08T08:12:05.000Z</time></trkpt>
<trkpt lat="42.100938" lon="23.60534"><ele>2110.9</ele><time>2026-03-08T08:12:06.000Z</time></trkpt>
<trkpt lat="42.100939" lon="23.605328"><ele>2111.4</ele><time>2026-03-08T08:12:07.000Z</time></trkpt>
<trkpt lat="42.10094" lon="23.605316"><ele>2111.4</ele><time>2026-03-08T08:12:08.000Z</time></trkpt>
<trkpt lat="42.100942" lon="23.605304"><ele>2111.4</ele><time>2026-03-08T08:12:09.000Z</time></trkpt>
<trkpt lat="42.100944" lon="23.605291"><ele>2111.4</ele><time>2026-03-08T08:12:10.000Z</time></trkpt>
<trkpt lat="42.100946" lon="23.605279"><ele>2111.4</ele><time>2026-03-08T08:12:11.000Z</time></trkpt>
<trkpt lat="42.100947" lon="23.605267"><ele>2111.7</ele><time>2026-03-08T08:12:12.000Z</time></trkpt>
<trkpt lat="42.100949" lon="23.605255"><ele>2111.7</ele><time>2026-03-08T08:12:13.000Z</time></trkpt>
<trkpt lat="42.10095" lon="23.605243"><ele>2111.7</ele><time>2026-03-08T08:12:14.000Z</time></trkpt>
<trkpt lat="42.100951" lon="23.60523"><ele>2111.7</ele><time>2026-03-08T08:12:15.000Z</time></trkpt>
<trkpt lat="42.100952" lon="23.605217"><ele>2111.7</ele><time>2026-03-08T08:12:16.000Z</time></trkpt>
<trkpt lat="42.100953" lon="23.605204"><ele>2112.2</ele><time>2026-03-08T08:12:17.000Z</time></trkpt>
<trkpt lat="42.100954" lon="23.605191"><ele>2112.2</ele><time>2026-03-08T08:12:18.000Z</time></trkpt>
<trkpt lat="42.100956" lon="23.605178"><ele>2112.2</ele><time>2026-03-08T08:12:19.000Z</time></trkpt>
<trkpt lat="42.100958" lon="23.605165"><ele>2112.2</ele><time>2026-03-08T08:12:20.000Z</time></trkpt>
<trkpt lat="42.100961" lon="23.605152"><ele>2112.2</ele><time>2026-03-08T08:12:21.000Z</time></trkpt>
<trkpt lat="42.100963" lon="23.605139"><ele>2112.6</ele><time>2026-03-08T08:12:22.000Z</time></trkpt>
<trkpt lat="42.100965" lon="23.605126"><ele>2112.6</ele><time>2026-03-08T08:12:23.000Z</time></trkpt>
<trkpt lat="42.100967" lon="23.605113"><ele>2112.6</ele><time>2026-03-08T08:12:24.000Z</time></trkpt>
<trkpt lat="42.100969" lon="23.605099"><ele>2112.6</ele><time>2026-03-08T08:12:25.000Z</time></trkpt>
<trkpt lat="42.100971" lon="23.605087"><ele>2112.6</ele><time>2026-03-08T08:12:26.000Z</time></trkpt>
<trkpt lat="42.100973" lon="23.605074"><ele>2112.7</ele><time>2026-03-08T08:12:27.000Z</time></trkpt>
<trkpt lat="42.100974" lon="23.605062"><ele>2112.7</ele><time>2026-03-08T08:12:28.000Z</time></trkpt>
<trkpt lat="42.100975" lon="23.605049"><ele>2112.7</ele><time>2026-03-08T08:12:29.000Z</time></trkpt>
<trkpt lat="42.100976" lon="23.605038"><ele>2112.7</ele><time>2026-03-08T08:12:30.000Z</time></trkpt>
<trkpt lat="42.100978" lon="23.605027"><ele>2112.7</ele><time>2026-03-08T08:12:31.000Z</time></trkpt>
<trkpt lat="42.100979" lon="23.605015"><ele>2113</ele><time>2026-03-08T08:12:32.000Z</time></trkpt>
<trkpt lat="42.100981" lon="23.605003"><ele>2113</ele><time>2026-03-08T08:12:33.000Z</time></trkpt>
<trkpt lat="42.100983" lon="23.604992"><ele>2113</ele><time>2026-03-08T08:12:34.000Z</time></trkpt>
<trkpt lat="42.100985" lon="23.604981"><ele>2113</ele><time>2026-03-08T08:12:35.000Z</time></trkpt>
<trkpt lat="42.100987" lon="23.604969"><ele>2113</ele><time>2026-03-08T08:12:36.000Z</time></trkpt>
<trkpt lat="42.100988" lon="23.604956"><ele>2113.1</ele><time>2026-03-08T08:12:37.000Z</time></trkpt>
<trkpt lat="42.10099" lon="23.604943"><ele>2113.1</ele><time>2026-03-08T08:12:38.000Z</time></trkpt>
<trkpt lat="42.100991" lon="23.604929"><ele>2113.1</ele><time>2026-03-08T08:12:39.000Z</time></trkpt>
<trkpt lat="42.100993" lon="23.604915"><ele>2113.1</ele><time>2026-03-08T08:12:40.000Z</time></trkpt>
<trkpt lat="42.100994" lon="23.604903"><ele>2113.1</ele><time>2026-03-08T08:12:41.000Z</time></trkpt>
<trkpt lat="42.100995" lon="23.604891"><ele>2113.2</ele><time>2026-03-08T08:12:42.000Z</time></trkpt>
<trkpt lat="42.100996" lon="23.60488"><ele>2113.2</ele><time>2026-03-08T08:12:43.000Z</time></trkpt>
<trkpt lat="42.100998" lon="23.604869"><ele>2113.2</ele><time>2026-03-08T08:12:44.000Z</time></trkpt>
<trkpt lat="42.100999" lon="23.604858"><ele>2113.2</ele><time>2026-03-08T08:12:45.000Z</time></trkpt>
<trkpt lat="42.101001" lon="23.604846"><ele>2113.2</ele><time>2026-03-08T08:12:46.000Z</time></trkpt>
<trkpt lat="42.101003" lon="23.604834"><ele>2113.4</ele><time>2026-03-08T08:12:47.000Z</time></trkpt>
<trkpt lat="42.101005" lon="23.604823"><ele>2113.4</ele><time>2026-03-08T08:12:48.000Z</time></trkpt>
<trkpt lat="42.101007" lon="23.604812"><ele>2113.4</ele><time>2026-03-08T08:12:49.000Z</time></trkpt>
<trkpt lat="42.101008" lon="23.6048"><ele>2113.4</ele><time>2026-03-08T08:12:50.000Z</time></trkpt>
<trkpt lat="42.101009" lon="23.604789"><ele>2113.4</ele><time>2026-03-08T08:12:51.000Z</time></trkpt>
<trkpt lat="42.101009" lon="23.604777"><ele>2113.4</ele><time>2026-03-08T08:12:52.000Z</time></trkpt>
<trkpt lat="42.101011" lon="23.604765"><ele>2113.4</ele><time>2026-03-08T08:12:53.000Z</time></trkpt>
<trkpt lat="42.101012" lon="23.604752"><ele>2113.4</ele><time>2026-03-08T08:12:54.000Z</time></trkpt>
<trkpt lat="42.101014" lon="23.60474"><ele>2113.4</ele><time>2026-03-08T08:12:55.000Z</time></trkpt>
<trkpt lat="42.101016" lon="23.604729"><ele>2113.4</ele><time>2026-03-08T08:12:56.000Z</time></trkpt>
<trkpt lat="42.101019" lon="23.604718"><ele>2113.4</ele><time>2026-03-08T08:12:57.000Z</time></trkpt>
<trkpt lat="42.101022" lon="23.604707"><ele>2113.4</ele><time>2026-03-08T08:12:58.000Z</time></trkpt>
<trkpt lat="42.101025" lon="23.604696"><ele>2113.4</ele><time>2026-03-08T08:12:59.000Z</time></trkpt>
<trkpt lat="42.101027" lon="23.604684"><ele>2113.4</ele><time>2026-03-08T08:13:00.000Z</time></trkpt>
<trkpt lat="42.101029" lon="23.604673"><ele>2113.4</ele><time>2026-03-08T08:13:01.000Z</time></trkpt>
<trkpt lat="42.101031" lon="23.604662"><ele>2113.7</ele><time>2026-03-08T08:13:02.000Z</time></trkpt>
<trkpt lat="42.101032" lon="23.60465"><ele>2113.7</ele><time>2026-03-08T08:13:03.000Z</time></trkpt>
<trkpt lat="42.101033" lon="23.604639"><ele>2113.7</ele><time>2026-03-08T08:13:04.000Z</time></trkpt>
<trkpt lat="42.101035" lon="23.604631"><ele>2113.7</ele><time>2026-03-08T08:13:05.000Z</time></trkpt>
<trkpt lat="42.101037" lon="23.604623"><ele>2113.7</ele><time>2026-03-08T08:13:06.000Z</time></trkpt>
<trkpt lat="42.101038" lon="23.604615"><ele>2114.3</ele><time>2026-03-08T08:13:07.000Z</time></trkpt>
<trkpt lat="42.101039" lon="23.604608"><ele>2114.3</ele><time>2026-03-08T08:13:08.000Z</time></trkpt>
<trkpt lat="42.101041" lon="23.604601"><ele>2114.3</ele><time>2026-03-08T08:13:09.000Z</time></trkpt>
<trkpt lat="42.101042" lon="23.604593"><ele>2114.3</ele><time>2026-03-08T08:13:10.000Z</time></trkpt>
<trkpt lat="42.101043" lon="23.604585"><ele>2114.3</ele><time>2026-03-08T08:13:11.000Z</time></trkpt>
<trkpt lat="42.101044" lon="23.604576"><ele>2114.7</ele><time>2026-03-08T08:13:12.000Z</time></trkpt>
<trkpt lat="42.101045" lon="23.604566"><ele>2114.7</ele><time>2026-03-08T08:13:13.000Z</time></trkpt>
<trkpt lat="42.101045" lon="23.604556"><ele>2114.7</ele><time>2026-03-08T08:13:14.000Z</time></trkpt>
<trkpt lat="42.101046" lon="23.604547"><ele>2114.7</ele><time>2026-03-08T08:13:15.000Z</time></trkpt>
<trkpt lat="42.101047" lon="23.604538"><ele>2114.7</ele><time>2026-03-08T08:13:16.000Z</time></trkpt>
<trkpt lat="42.101048" lon="23.604529"><ele>2115.6</ele><time>2026-03-08T08:13:17.000Z</time></trkpt>
<trkpt lat="42.101049" lon="23.604521"><ele>2115.6</ele><time>2026-03-08T08:13:18.000Z</time></trkpt>
<trkpt lat="42.101051" lon="23.604514"><ele>2115.6</ele><time>2026-03-08T08:13:19.000Z</time></trkpt>
<trkpt lat="42.101053" lon="23.604506"><ele>2115.6</ele><time>2026-03-08T08:13:20.000Z</time></trkpt>
<trkpt lat="42.101056" lon="23.604499"><ele>2115.6</ele><time>2026-03-08T08:13:21.000Z</time></trkpt>
<trkpt lat="42.101057" lon="23.604491"><ele>2116.5</ele><time>2026-03-08T08:13:22.000Z</time></trkpt>
<trkpt lat="42.101059" lon="23.604482"><ele>2116.5</ele><time>2026-03-08T08:13:23.000Z</time></trkpt>
<trkpt lat="42.10106" lon="23.604473"><ele>2116.5</ele><time>2026-03-08T08:13:24.000Z</time></trkpt>
<trkpt lat="42.101062" lon="23.604464"><ele>2116.5</ele><time>2026-03-08T08:13:25.000Z</time></trkpt>
<trkpt lat="42.101062" lon="23.604455"><ele>2116.5</ele><time>2026-03-08T08:13:26.000Z</time></trkpt>
<trkpt lat="42.101062" lon="23.604447"><ele>2116.9</ele><time>2026-03-08T08:13:27.000Z</time></trkpt>
<trkpt lat="42.101062" lon="23.604439"><ele>2116.9</ele><time>2026-03-08T08:13:28.000Z</time></trkpt>
<trkpt lat="42.101062" lon="23.604431"><ele>2116.9</ele><time>2026-03-08T08:13:29.000Z</time></trkpt>
<trkpt lat="42.10106" lon="23.604423"><ele>2116.9</ele><time>2026-03-08T08:13:30.000Z</time></trkpt>
<trkpt lat="42.101059" lon="23.604414"><ele>2116.9</ele><time>2026-03-08T08:13:31.000Z</time></trkpt>
<trkpt lat="42.10106" lon="23.604404"><ele>2117.7</ele><time>2026-03-08T08:13:32.000Z</time></trkpt>
<trkpt lat="42.10106" lon="23.604395"><ele>2117.7</ele><time>2026-03-08T08:13:33.000Z</time></trkpt>
<trkpt lat="42.101061" lon="23.604385"><ele>2117.7</ele><time>2026-03-08T08:13:34.000Z</time></trkpt>
<trkpt lat="42.101063" lon="23.604375"><ele>2117.7</ele><time>2026-03-08T08:13:35.000Z</time></trkpt>
<trkpt lat="42.101065" lon="23.604365"><ele>2117.7</ele><time>2026-03-08T08:13:36.000Z</time></trkpt>
<trkpt lat="42.101067" lon="23.604356"><ele>2118.5</ele><time>2026-03-08T08:13:37.000Z</time></trkpt>
<trkpt lat="42.10107" lon="23.604347"><ele>2118.5</ele><time>2026-03-08T08:13:38.000Z</time></trkpt>
<trkpt lat="42.101072" lon="23.604338"><ele>2118.5</ele><time>2026-03-08T08:13:39.000Z</time></trkpt>
<trkpt lat="42.101075" lon="23.604331"><ele>2118.5</ele><time>2026-03-08T08:13:40.000Z</time></trkpt>
<trkpt lat="42.101078" lon="23.604325"><ele>2118.5</ele><time>2026-03-08T08:13:41.000Z</time></trkpt>
<trkpt lat="42.101081" lon="23.60432"><ele>2118.8</ele><time>2026-03-08T08:13:42.000Z</time></trkpt>
<trkpt lat="42.101084" lon="23.604314"><ele>2118.8</ele><time>2026-03-08T08:13:43.000Z</time></trkpt>
<trkpt lat="42.101086" lon="23.604309"><ele>2118.8</ele><time>2026-03-08T08:13:44.000Z</time></trkpt>
<trkpt lat="42.101087" lon="23.604302"><ele>2118.8</ele><time>2026-03-08T08:13:45.000Z</time></trkpt>
<trkpt lat="42.101089" lon="23.604294"><ele>2118.8</ele><time>2026-03-08T08:13:46.000Z</time></trkpt>
<trkpt lat="42.101089" lon="23.604284"><ele>2119.6</ele><time>2026-03-08T08:13:47.000Z</time></trkpt>
<trkpt lat="42.101091" lon="23.604275"><ele>2119.6</ele><time>2026-03-08T08:13:48.000Z</time></trkpt>
<trkpt lat="42.101094" lon="23.604265"><ele>2119.6</ele><time>2026-03-08T08:13:49.000Z</time></trkpt>
<trkpt lat="42.101096" lon="23.604257"><ele>2119.6</ele><time>2026-03-08T08:13:50.000Z</time></trkpt>
<trkpt lat="42.101099" lon="23.60425"><ele>2119.6</ele><time>2026-03-08T08:13:51.000Z</time></trkpt>
<trkpt lat="42.101101" lon="23.604242"><ele>2120.5</ele><time>2026-03-08T08:13:52.000Z</time></trkpt>
<trkpt lat="42.101103" lon="23.604233"><ele>2120.5</ele><time>2026-03-08T08:13:53.000Z</time></trkpt>
<trkpt lat="42.101104" lon="23.604225"><ele>2120.5</ele><time>2026-03-08T08:13:54.000Z</time></trkpt>
<trkpt lat="42.101105" lon="23.604217"><ele>2120.5</ele><time>2026-03-08T08:13:55.000Z</time></trkpt>
<trkpt lat="42.101108" lon="23.604207"><ele>2120.5</ele><time>2026-03-08T08:13:56.000Z</time></trkpt>
<trkpt lat="42.101109" lon="23.604199"><ele>2121</ele><time>2026-03-08T08:13:57.000Z</time></trkpt>
<trkpt lat="42.101111" lon="23.604192"><ele>2121</ele><time>2026-03-08T08:13:58.000Z</time></trkpt>
<trkpt lat="42.101113" lon="23.604185"><ele>2121</ele><time>2026-03-08T08:13:59.000Z</time></trkpt>
<trkpt lat="42.101116" lon="23.604176"><ele>2121</ele><time>2026-03-08T08:14:00.000Z</time></trkpt>
<trkpt lat="42.101118" lon="23.604169"><ele>2121</ele><time>2026-03-08T08:14:01.000Z</time></trkpt>
<trkpt lat="42.10112" lon="23.60416"><ele>2122</ele><time>2026-03-08T08:14:02.000Z</time></trkpt>
<trkpt lat="42.101122" lon="23.604151"><ele>2122</ele><time>2026-03-08T08:14:03.000Z</time></trkpt>
<trkpt lat="42.101123" lon="23.604141"><ele>2122</ele><time>2026-03-08T08:14:04.000Z</time></trkpt>
<trkpt lat="42.101124" lon="23.604131"><ele>2122</ele><time>2026-03-08T08:14:05.000Z</time></trkpt>
<trkpt lat="42.101125" lon="23.604119"><ele>2122</ele><time>2026-03-08T08:14:06.000Z</time></trkpt>
<trkpt lat="42.101125" lon="23.604107"><ele>2123.1</ele><time>2026-03-08T08:14:07.000Z</time></trkpt>
<trkpt lat="42.101126" lon="23.604095"><ele>2123.1</ele><time>2026-03-08T08:14:08.000Z</time></trkpt>
<trkpt lat="42.101127" lon="23.604083"><ele>2123.1</ele><time>2026-03-08T08:14:09.000Z</time></trkpt>
<trkpt lat="42.101128" lon="23.604071"><ele>2123.1</ele><time>2026-03-08T08:14:10.000Z</time></trkpt>
<trkpt lat="42.101129" lon="23.60406"><ele>2123.1</ele><time>2026-03-08T08:14:11.000Z</time></trkpt>
<trkpt lat="42.10113" lon="23.604051"><ele>2123.7</ele><time>2026-03-08T08:14:12.000Z</time></trkpt>
<trkpt lat="42.101131" lon="23.60404"><ele>2123.7</ele><time>2026-03-08T08:14:13.000Z</time></trkpt>
<trkpt lat="42.101133" lon="23.604031"><ele>2123.7</ele><time>2026-03-08T08:14:14.000Z</time></trkpt>
<trkpt lat="42.101134" lon="23.604022"><ele>2123.7</ele><time>2026-03-08T08:14:15.000Z</time></trkpt>
<trkpt lat="42.101137" lon="23.604012"><ele>2123.7</ele><time>2026-03-08T08:14:16.000Z</time></trkpt>
<trkpt lat="42.101139" lon="23.604002"><ele>2124.8</ele><time>2026-03-08T08:14:17.000Z</time></trkpt>
<trkpt lat="42.101141" lon="23.603993"><ele>2124.8</ele><time>2026-03-08T08:14:18.000Z</time></trkpt>
<trkpt lat="42.101143" lon="23.603984"><ele>2124.8</ele><time>2026-03-08T08:14:19.000Z</time></trkpt>
<trkpt lat="42.101145" lon="23.603974"><ele>2124.8</ele><time>2026-03-08T08:14:20.000Z</time></trkpt>
<trkpt lat="42.101147" lon="23.603966"><ele>2124.8</ele><time>2026-03-08T08:14:21.000Z</time></trkpt>
<trkpt lat="42.101149" lon="23.603958"><ele>2125.6</ele><time>2026-03-08T08:14:22.000Z</time></trkpt>
<trkpt lat="42.101151" lon="23.60395"><ele>2125.6</ele><time>2026-03-08T08:14:23.000Z</time></trkpt>
<trkpt lat="42.101153" lon="23.603942"><ele>2125.6</ele><time>2026-03-08T08:14:24.000Z</time></trkpt>
<trkpt lat="42.101154" lon="23.603936"><ele>2125.6</ele><time>2026-03-08T08:14:25.000Z</time></trkpt>
<trkpt lat="42.101156" lon="23.603929"><ele>2125.6</ele><time>2026-03-08T08:14:26.000Z</time></trkpt>
<trkpt lat="42.101157" lon="23.603921"><ele>2126</ele><time>2026-03-08T08:14:27.000Z</time></trkpt>
<trkpt lat="42.101159" lon="23.603913"><ele>2126</ele><time>2026-03-08T08:14:28.000Z</time></trkpt>
<trkpt lat="42.101159" lon="23.603905"><ele>2126</ele><time>2026-03-08T08:14:29.000Z</time></trkpt>
<trkpt lat="42.10116" lon="23.603895"><ele>2126</ele><time>2026-03-08T08:14:30.000Z</time></trkpt>
<trkpt lat="42.101161" lon="23.603885"><ele>2126</ele><time>2026-03-08T08:14:31.000Z</time></trkpt>
<trkpt lat="42.101162" lon="23.603877"><ele>2126.6</ele><time>2026-03-08T08:14:32.000Z</time></trkpt>
<trkpt lat="42.101164" lon="23.603866"><ele>2126.6</ele><time>2026-03-08T08:14:33.000Z</time></trkpt>
<trkpt lat="42.101166" lon="23.603856"><ele>2126.6</ele><time>2026-03-08T08:14:34.000Z</time></trkpt>
<trkpt lat="42.101167" lon="23.603846"><ele>2126.6</ele><time>2026-03-08T08:14:35.000Z</time></trkpt>
<trkpt lat="42.101169" lon="23.603836"><ele>2126.6</ele><time>2026-03-08T08:14:36.000Z</time></trkpt>
<trkpt lat="42.101171" lon="23.603825"><ele>2127.4</ele><time>2026-03-08T08:14:37.000Z</time></trkpt>
<trkpt lat="42.101173" lon="23.603816"><ele>2127.4</ele><time>2026-03-08T08:14:38.000Z</time></trkpt>
<trkpt lat="42.101175" lon="23.603807"><ele>2127.4</ele><time>2026-03-08T08:14:39.000Z</time></trkpt>
<trkpt lat="42.101177" lon="23.603797"><ele>2127.4</ele><time>2026-03-08T08:14:40.000Z</time></trkpt>
<trkpt lat="42.101179" lon="23.603789"><ele>2127.4</ele><time>2026-03-08T08:14:41.000Z</time></trkpt>
<trkpt lat="42.101181" lon="23.603781"><ele>2127.9</ele><time>2026-03-08T08:14:42.000Z</time></trkpt>
<trkpt lat="42.101183" lon="23.603771"><ele>2127.9</ele><time>2026-03-08T08:14:43.000Z</time></trkpt>
<trkpt lat="42.101185" lon="23.603763"><ele>2127.9</ele><time>2026-03-08T08:14:44.000Z</time></trkpt>
<trkpt lat="42.101186" lon="23.603754"><ele>2127.9</ele><time>2026-03-08T08:14:45.000Z</time></trkpt>
<trkpt lat="42.101188" lon="23.603745"><ele>2127.9</ele><time>2026-03-08T08:14:46.000Z</time></trkpt>
<trkpt lat="42.101189" lon="23.603737"><ele>2129</ele><time>2026-03-08T08:14:47.000Z</time></trkpt>
<trkpt lat="42.101191" lon="23.603729"><ele>2129</ele><time>2026-03-08T08:14:48.000Z</time></trkpt>
<trkpt lat="42.101193" lon="23.603719"><ele>2129</ele><time>2026-03-08T08:14:49.000Z</time></trkpt>
<trkpt lat="42.101196" lon="23.603711"><ele>2129</ele><time>2026-03-08T08:14:50.000Z</time></trkpt>
<trkpt lat="42.101199" lon="23.603702"><ele>2129</ele><time>2026-03-08T08:14:51.000Z</time></trkpt>
<trkpt lat="42.101203" lon="23.603693"><ele>2130</ele><time>2026-03-08T08:14:52.000Z</time></trkpt>
<trkpt lat="42.101206" lon="23.603685"><ele>2130</ele><time>2026-03-08T08:14:53.000Z</time></trkpt>
<trkpt lat="42.101211" lon="23.603678"><ele>2130</ele><time>2026-03-08T08:14:54.000Z</time></trkpt>
<trkpt lat="42.101215" lon="23.60367"><ele>2130</ele><time>2026-03-08T08:14:55.000Z</time></trkpt>
<trkpt lat="42.101221" lon="23.603665"><ele>2130</ele><time>2026-03-08T08:14:56.000Z</time></trkpt>
<trkpt lat="42.101227" lon="23.60366"><ele>2130.4</ele><time>2026-03-08T08:14:57.000Z</time></trkpt>
<trkpt lat="42.101233" lon="23.603655"><ele>2130.4</ele><time>2026-03-08T08:14:58.000Z</time></trkpt>
<trkpt lat="42.101239" lon="23.60365"><ele>2130.4</ele><time>2026-03-08T08:14:59.000Z</time></trkpt>
<trkpt lat="42.101245" lon="23.603645"><ele>2130.4</ele><time>2026-03-08T08:15:00.000Z</time></trkpt>
<trkpt lat="42.10125" lon="23.603639"><ele>2130.4</ele><time>2026-03-08T08:15:01.000Z</time></trkpt>
<trkpt lat="42.101253" lon="23.603632"><ele>2131.2</ele><time>2026-03-08T08:15:02.000Z</time></trkpt>
<trkpt lat="42.101255" lon="23.603625"><ele>2131.2</ele><time>2026-03-08T08:15:03.000Z</time></trkpt>
<trkpt lat="42.101256" lon="23.603617"><ele>2131.2</ele><time>2026-03-08T08:15:04.000Z</time></trkpt>
<trkpt lat="42.101256" lon="23.603608"><ele>2131.2</ele><time>2026-03-08T08:15:05.000Z</time></trkpt>
<trkpt lat="42.101256" lon="23.6036"><ele>2131.2</ele><time>2026-03-08T08:15:06.000Z</time></trkpt>
<trkpt lat="42.101255" lon="23.603592"><ele>2132</ele><time>2026-03-08T08:15:07.000Z</time></trkpt>
<trkpt lat="42.101255" lon="23.603586"><ele>2132</ele><time>2026-03-08T08:15:08.000Z</time></trkpt>
<trkpt lat="42.101255" lon="23.603581"><ele>2132</ele><time>2026-03-08T08:15:09.000Z</time></trkpt>
<trkpt lat="42.101255" lon="23.603579"><ele>2132</ele><time>2026-03-08T08:15:10.000Z</time></trkpt>
<trkpt lat="42.101254" lon="23.603577"><ele>2132</ele><time>2026-03-08T08:15:11.000Z</time></trkpt>
<trkpt lat="42.101253" lon="23.603576"><ele>2132.4</ele><time>2026-03-08T08:15:12.000Z</time></trkpt>
<trkpt lat="42.101252" lon="23.603574"><ele>2132.4</ele><time>2026-03-08T08:15:13.000Z</time></trkpt>
<trkpt lat="42.10125" lon="23.603572"><ele>2132.4</ele><time>2026-03-08T08:15:14.000Z</time></trkpt>
<trkpt lat="42.101248" lon="23.603569"><ele>2132.4</ele><time>2026-03-08T08:15:15.000Z</time></trkpt>
<trkpt lat="42.101246" lon="23.603563"><ele>2132.4</ele><time>2026-03-08T08:15:16.000Z</time></trkpt>
<trkpt lat="42.101245" lon="23.603556"><ele>2133.1</ele><time>2026-03-08T08:15:17.000Z</time></trkpt>
<trkpt lat="42.101244" lon="23.603548"><ele>2133.1</ele><time>2026-03-08T08:15:18.000Z</time></trkpt>
<trkpt lat="42.101243" lon="23.60354"><ele>2133.1</ele><time>2026-03-08T08:15:19.000Z</time></trkpt>
<trkpt lat="42.101243" lon="23.603534"><ele>2133.1</ele><time>2026-03-08T08:15:20.000Z</time></trkpt>
<trkpt lat="42.101242" lon="23.60353"><ele>2133.1</ele><time>2026-03-08T08:15:21.000Z</time></trkpt>
<trkpt lat="42.101241" lon="23.603528"><ele>2133.3</ele><time>2026-03-08T08:15:22.000Z</time></trkpt>
<trkpt lat="42.101241" lon="23.603527"><ele>2133.3</ele><time>2026-03-08T08:15:23.000Z</time></trkpt>
<trkpt lat="42.10124" lon="23.603527"><ele>2133.3</ele><time>2026-03-08T08:15:24.000Z</time></trkpt>
<trkpt lat="42.10124" lon="23.603527"><ele>2133.3</ele><time>2026-03-08T08:15:25.000Z</time></trkpt>
<trkpt lat="42.10124" lon="23.603526"><ele>2133.3</ele><time>2026-03-08T08:15:26.000Z</time></trkpt>
<trkpt lat="42.10124" lon="23.603526"><ele>2133.4</ele><time>2026-03-08T08:15:27.000Z</time></trkpt>
<trkpt lat="42.101241" lon="23.603526"><ele>2133.4</ele><time>2026-03-08T08:15:28.000Z</time></trkpt>
<trkpt lat="42.101241" lon="23.603526"><ele>2133.4</ele><time>2026-03-08T08:15:29.000Z</time></trkpt>
<trkpt lat="42.101241" lon="23.603526"><ele>2133.4</ele><time>2026-03-08T08:15:30.000Z</time></trkpt>
<trkpt lat="42.101242" lon="23.603526"><ele>2133.4</ele><time>2026-03-08T08:15:31.000Z</time></trkpt>
<trkpt lat="42.101242" lon="23.603526"><ele>2133.6</ele><time>2026-03-08T08:15:32.000Z</time></trkpt>
<trkpt lat="42.101242" lon="23.603526"><ele>2133.6</ele><time>2026-03-08T08:15:33.000Z</time></trkpt>
<trkpt lat="42.101243" lon="23.603526"><ele>2133.6</ele><time>2026-03-08T08:15:34.000Z</time></trkpt>
<trkpt lat="42.101243" lon="23.603526"><ele>2133.6</ele><time>2026-03-08T08:15:35.000Z</time></trkpt>
<trkpt lat="42.101243" lon="23.603526"><ele>2133.6</ele><time>2026-03-08T08:15:36.000Z</time></trkpt>
<trkpt lat="42.101243" lon="23.603526"><ele>2133.9</ele><time>2026-03-08T08:15:37.000Z</time></trkpt>
<trkpt lat="42.101243" lon="23.603526"><ele>2133.9</ele><time>2026-03-08T08:15:38.000Z</time></trkpt>
<trkpt lat="42.101243" lon="23.603526"><ele>2133.9</ele><time>2026-03-08T08:15:39.000Z</time></trkpt>
<trkpt lat="42.101243" lon="23.603526"><ele>2133.9</ele><time>2026-03-08T08:15:40.000Z</time></trkpt>
<trkpt lat="42.101243" lon="23.603526"><ele>2133.9</ele><time>2026-03-08T08:15:41.000Z</time></trkpt>
<trkpt lat="42.101243" lon="23.603526"><ele>2134</ele><time>2026-03-08T08:15:42.000Z</time></trkpt>
<trkpt lat="42.101244" lon="23.603526"><ele>2134</ele><time>2026-03-08T08:15:43.000Z</time></trkpt>
<trkpt lat="42.101244" lon="23.603525"><ele>2134</ele><time>2026-03-08T08:15:44.000Z</time></trkpt>
<trkpt lat="42.101245" lon="23.603525"><ele>2134</ele><time>2026-03-08T08:15:45.000Z</time></trkpt>
<trkpt lat="42.101245" lon="23.603524"><ele>2134</ele><time>2026-03-08T08:15:46.000Z</time></trkpt>
<trkpt lat="42.101245" lon="23.603524"><ele>2134</ele><time>2026-03-08T08:15:47.000Z</time></trkpt>
<trkpt lat="42.101245" lon="23.603524"><ele>2134</ele><time>2026-03-08T08:15:48.000Z</time></trkpt>
<trkpt lat="42.101245" lon="23.603524"><ele>2134</ele><time>2026-03-08T08:15:49.000Z</time></trkpt>
<trkpt lat="42.101245" lon="23.603524"><ele>2134</ele><time>2026-03-08T08:15:50.000Z</time></trkpt>
<trkpt lat="42.101245" lon="23.603524"><ele>2134</ele><time>2026-03-08T08:15:51.000Z</time></trkpt>
<trkpt lat="42.101245" lon="23.603523"><ele>2134</ele><time>2026-03-08T08:15:52.000Z</time></trkpt>
<trkpt lat="42.101245" lon="23.603519"><ele>2134</ele><time>2026-03-08T08:15:53.000Z</time></trkpt>
<trkpt lat="42.101245" lon="23.603513"><ele>2134</ele><time>2026-03-08T08:15:54.000Z</time></trkpt>
<trkpt lat="42.101245" lon="23.603505"><ele>2134</ele><time>2026-03-08T08:15:55.000Z</time></trkpt>
<trkpt lat="42.101244" lon="23.603496"><ele>2134</ele><time>2026-03-08T08:15:56.000Z</time></trkpt>
<trkpt lat="42.101245" lon="23.603486"><ele>2134</ele><time>2026-03-08T08:15:57.000Z</time></trkpt>
<trkpt lat="42.101245" lon="23.603475"><ele>2134</ele><time>2026-03-08T08:15:58.000Z</time></trkpt>
<trkpt lat="42.101245" lon="23.603465"><ele>2134</ele><time>2026-03-08T08:15:59.000Z</time></trkpt>
<trkpt lat="42.101246" lon="23.603458"><ele>2134</ele><time>2026-03-08T08:16:00.000Z</time></trkpt>
<trkpt lat="42.101246" lon="23.603452"><ele>2134</ele><time>2026-03-08T08:16:01.000Z</time></trkpt>
<trkpt lat="42.101245" lon="23.603447"><ele>2134.2</ele><time>2026-03-08T08:16:02.000Z</time></trkpt>
<trkpt lat="42.101245" lon="23.603445"><ele>2134.2</ele><time>2026-03-08T08:16:03.000Z</time></trkpt>
<trkpt lat="42.101245" lon="23.603445"><ele>2134.2</ele><time>2026-03-08T08:16:04.000Z</time></trkpt>
<trkpt lat="42.101246" lon="23.603445"><ele>2134.2</ele><time>2026-03-08T08:16:05.000Z</time></trkpt>
<trkpt lat="42.101247" lon="23.603446"><ele>2134.2</ele><time>2026-03-08T08:16:06.000Z</time></trkpt>
<trkpt lat="42.101249" lon="23.603446"><ele>2134.4</ele><time>2026-03-08T08:16:07.000Z</time></trkpt>
<trkpt lat="42.101251" lon="23.603444"><ele>2134.4</ele><time>2026-03-08T08:16:08.000Z</time></trkpt>
<trkpt lat="42.101251" lon="23.603439"><ele>2134.4</ele><time>2026-03-08T08:16:09.000Z</time></trkpt>
<trkpt lat="42.101251" lon="23.603431"><ele>2134.4</ele><time>2026-03-08T08:16:10.000Z</time></trkpt>
<trkpt lat="42.101251" lon="23.603422"><ele>2134.4</ele><time>2026-03-08T08:16:11.000Z</time></trkpt>
<trkpt lat="42.101251" lon="23.603413"><ele>2134.6</ele><time>2026-03-08T08:16:12.000Z</time></trkpt>
<trkpt lat="42.101251" lon="23.603402"><ele>2134.6</ele><time>2026-03-08T08:16:13.000Z</time></trkpt>
<trkpt lat="42.101251" lon="23.603392"><ele>2134.6</ele><time>2026-03-08T08:16:14.000Z</time></trkpt>
<trkpt lat="42.10125" lon="23.603381"><ele>2134.6</ele><time>2026-03-08T08:16:15.000Z</time></trkpt>
<trkpt lat="42.101249" lon="23.603369"><ele>2134.6</ele><time>2026-03-08T08:16:16.000Z</time></trkpt>
<trkpt lat="42.101248" lon="23.603356"><ele>2134.8</ele><time>2026-03-08T08:16:17.000Z</time></trkpt>
<trkpt lat="42.101247" lon="23.603344"><ele>2134.8</ele><time>2026-03-08T08:16:18.000Z</time></trkpt>
<trkpt lat="42.101245" lon="23.603332"><ele>2134.8</ele><time>2026-03-08T08:16:19.000Z</time></trkpt>
<trkpt lat="42.101244" lon="23.60332"><ele>2134.8</ele><time>2026-03-08T08:16:20.000Z</time></trkpt>
<trkpt lat="42.101244" lon="23.603309"><ele>2134.8</ele><time>2026-03-08T08:16:21.000Z</time></trkpt>
<trkpt lat="42.101244" lon="23.603298"><ele>2135.1</ele><time>2026-03-08T08:16:22.000Z</time></trkpt>
<trkpt lat="42.101245" lon="23.603287"><ele>2135.1</ele><time>2026-03-08T08:16:23.000Z</time></trkpt>
<trkpt lat="42.101246" lon="23.603276"><ele>2135.1</ele><time>2026-03-08T08:16:24.000Z</time></trkpt>
<trkpt lat="42.101247" lon="23.603265"><ele>2135.1</ele><time>2026-03-08T08:16:25.000Z</time></trkpt>
<trkpt lat="42.101248" lon="23.603254"><ele>2135.1</ele><time>2026-03-08T08:16:26.000Z</time></trkpt>
<trkpt lat="42.101248" lon="23.603243"><ele>2135.3</ele><time>2026-03-08T08:16:27.000Z</time></trkpt>
<trkpt lat="42.101247" lon="23.603232"><ele>2135.3</ele><time>2026-03-08T08:16:28.000Z</time></trkpt>
<trkpt lat="42.101247" lon="23.60322"><ele>2135.3</ele><time>2026-03-08T08:16:29.000Z</time></trkpt>
<trkpt lat="42.101246" lon="23.60321"><ele>2135.3</ele><time>2026-03-08T08:16:30.000Z</time></trkpt>
<trkpt lat="42.101247" lon="23.603199"><ele>2135.3</ele><time>2026-03-08T08:16:31.000Z</time></trkpt>
<trkpt lat="42.101248" lon="23.603187"><ele>2135.7</ele><time>2026-03-08T08:16:32.000Z</time></trkpt>
<trkpt lat="42.101249" lon="23.603178"><ele>2135.7</ele><time>2026-03-08T08:16:33.000Z</time></trkpt>
<trkpt lat="42.10125" lon="23.603168"><ele>2135.7</ele><time>2026-03-08T08:16:34.000Z</time></trkpt>
<trkpt lat="42.101252" lon="23.603159"><ele>2135.7</ele><time>2026-03-08T08:16:35.000Z</time></trkpt>
<trkpt lat="42.101253" lon="23.603151"><ele>2135.7</ele><time>2026-03-08T08:16:36.000Z</time></trkpt>
<trkpt lat="42.101255" lon="23.603142"><ele>2136.3</ele><time>2026-03-08T08:16:37.000Z</time></trkpt>
<trkpt lat="42.101256" lon="23.603132"><ele>2136.3</ele><time>2026-03-08T08:16:38.000Z</time></trkpt>
<trkpt lat="42.101256" lon="23.603122"><ele>2136.3</ele><time>2026-03-08T08:16:39.000Z</time></trkpt>
<trkpt lat="42.101256" lon="23.603113"><ele>2136.3</ele><time>2026-03-08T08:16:40.000Z</time></trkpt>
<trkpt lat="42.101256" lon="23.603101"><ele>2136.3</ele><time>2026-03-08T08:16:41.000Z</time></trkpt>
<trkpt lat="42.101256" lon="23.60309"><ele>2136.5</ele><time>2026-03-08T08:16:42.000Z</time></trkpt>
<trkpt lat="42.101255" lon="23.60308"><ele>2136.5</ele><time>2026-03-08T08:16:43.000Z</time></trkpt>
<trkpt lat="42.101254" lon="23.603068"><ele>2136.5</ele><time>2026-03-08T08:16:44.000Z</time></trkpt>
<trkpt lat="42.101253" lon="23.603056"><ele>2136.5</ele><time>2026-03-08T08:16:45.000Z</time></trkpt>
<trkpt lat="42.101252" lon="23.603046"><ele>2136.5</ele><time>2026-03-08T08:16:46.000Z</time></trkpt>
<trkpt lat="42.10125" lon="23.603035"><ele>2137.1</ele><time>2026-03-08T08:16:47.000Z</time></trkpt>
<trkpt lat="42.101249" lon="23.603024"><ele>2137.1</ele><time>2026-03-08T08:16:48.000Z</time></trkpt>
<trkpt lat="42.101249" lon="23.603015"><ele>2137.1</ele><time>2026-03-08T08:16:49.000Z</time></trkpt>
<trkpt lat="42.101249" lon="23.603004"><ele>2137.1</ele><time>2026-03-08T08:16:50.000Z</time></trkpt>
<trkpt lat="42.10125" lon="23.602992"><ele>2137.1</ele><time>2026-03-08T08:16:51.000Z</time></trkpt>
<trkpt lat="42.10125" lon="23.602979"><ele>2137.8</ele><time>2026-03-08T08:16:52.000Z</time></trkpt>
<trkpt lat="42.10125" lon="23.602968"><ele>2137.8</ele><time>2026-03-08T08:16:53.000Z</time></trkpt>
<trkpt lat="42.101249" lon="23.602956"><ele>2137.8</ele><time>2026-03-08T08:16:54.000Z</time></trkpt>
<trkpt lat="42.101248" lon="23.602945"><ele>2137.8</ele><time>2026-03-08T08:16:55.000Z</time></trkpt>
<trkpt lat="42.101247" lon="23.602935"><ele>2137.8</ele><time>2026-03-08T08:16:56.000Z</time></trkpt>
<trkpt lat="42.101246" lon="23.602924"><ele>2138.2</ele><time>2026-03-08T08:16:57.000Z</time></trkpt>
<trkpt lat="42.101246" lon="23.602914"><ele>2138.2</ele><time>2026-03-08T08:16:58.000Z</time></trkpt>
<trkpt lat="42.101247" lon="23.602905"><ele>2138.2</ele><time>2026-03-08T08:16:59.000Z</time></trkpt>
<trkpt lat="42.101248" lon="23.602896"><ele>2138.2</ele><time>2026-03-08T08:17:00.000Z</time></trkpt>
<trkpt lat="42.10125" lon="23.602889"><ele>2138.2</ele><time>2026-03-08T08:17:01.000Z</time></trkpt>
<trkpt lat="42.101251" lon="23.602885"><ele>2138.9</ele><time>2026-03-08T08:17:02.000Z</time></trkpt>
<trkpt lat="42.101253" lon="23.602883"><ele>2138.9</ele><time>2026-03-08T08:17:03.000Z</time></trkpt>
<trkpt lat="42.101254" lon="23.602882"><ele>2138.9</ele><time>2026-03-08T08:17:04.000Z</time></trkpt>
<trkpt lat="42.101255" lon="23.602882"><ele>2138.9</ele><time>2026-03-08T08:17:05.000Z</time></trkpt>
<trkpt lat="42.101256" lon="23.602883"><ele>2138.9</ele><time>2026-03-08T08:17:06.000Z</time></trkpt>
<trkpt lat="42.101256" lon="23.602883"><ele>2139.5</ele><time>2026-03-08T08:17:07.000Z</time></trkpt>
<trkpt lat="42.101256" lon="23.602883"><ele>2139.5</ele><time>2026-03-08T08:17:08.000Z</time></trkpt>
<trkpt lat="42.101256" lon="23.602883"><ele>2139.5</ele><time>2026-03-08T08:17:09.000Z</time></trkpt>
<trkpt lat="42.101256" lon="23.602883"><ele>2139.5</ele><time>2026-03-08T08:17:10.000Z</time></trkpt>
<trkpt lat="42.101256" lon="23.602883"><ele>2139.5</ele><time>2026-03-08T08:17:11.000Z</time></trkpt>
<trkpt lat="42.101256" lon="23.602883"><ele>2139.7</ele><time>2026-03-08T08:17:12.000Z</time></trkpt>
<trkpt lat="42.101256" lon="23.602883"><ele>2139.7</ele><time>2026-03-08T08:17:13.000Z</time></trkpt>
<trkpt lat="42.101256" lon="23.602883"><ele>2139.7</ele><time>2026-03-08T08:17:14.000Z</time></trkpt>
<trkpt lat="42.101256" lon="23.602883"><ele>2139.7</ele><time>2026-03-08T08:17:15.000Z</time></trkpt>
<trkpt lat="42.101256" lon="23.602883"><ele>2139.7</ele><time>2026-03-08T08:17:16.000Z</time></trkpt>
<trkpt lat="42.101256" lon="23.602883"><ele>2140.1</ele><time>2026-03-08T08:17:17.000Z</time></trkpt>
<trkpt lat="42.101256" lon="23.602883"><ele>2140.1</ele><time>2026-03-08T08:17:18.000Z</time></trkpt>
<trkpt lat="42.101256" lon="23.602883"><ele>2140.1</ele><time>2026-03-08T08:17:19.000Z</time></trkpt>
<trkpt lat="42.101256" lon="23.602883"><ele>2140.1</ele><time>2026-03-08T08:17:20.000Z</time></trkpt>
<trkpt lat="42.101256" lon="23.602883"><ele>2140.1</ele><time>2026-03-08T08:17:21.000Z</time></trkpt>
<trkpt lat="42.101256" lon="23.602883"><ele>2140.2</ele><time>2026-03-08T08:17:22.000Z</time></trkpt>
<trkpt lat="42.101256" lon="23.602883"><ele>2140.2</ele><time>2026-03-08T08:17:23.000Z</time></trkpt>
<trkpt lat="42.101257" lon="23.602883"><ele>2140.2</ele><time>2026-03-08T08:17:24.000Z</time></trkpt>
<trkpt lat="42.101256" lon="23.602883"><ele>2140.2</ele><time>2026-03-08T08:17:25.000Z</time></trkpt>
<trkpt lat="42.101256" lon="23.602882"><ele>2140.2</ele><time>2026-03-08T08:17:26.000Z</time></trkpt>
<trkpt lat="42.101256" lon="23.602882"><ele>2140.2</ele><time>2026-03-08T08:17:27.000Z</time></trkpt>
<trkpt lat="42.101256" lon="23.602882"><ele>2140.2</ele><time>2026-03-08T08:17:28.000Z</time></trkpt>
<trkpt lat="42.101255" lon="23.602882"><ele>2140.2</ele><time>2026-03-08T08:17:29.000Z</time></trkpt>
<trkpt lat="42.101255" lon="23.602882"><ele>2140.2</ele><time>2026-03-08T08:17:30.000Z</time></trkpt>
<trkpt lat="42.101255" lon="23.602882"><ele>2140.2</ele><time>2026-03-08T08:17:31.000Z</time></trkpt>
<trkpt lat="42.101255" lon="23.602882"><ele>2140.3</ele><time>2026-03-08T08:17:32.000Z</time></trkpt>
<trkpt lat="42.101255" lon="23.602882"><ele>2140.3</ele><time>2026-03-08T08:17:33.000Z</time></trkpt>
<trkpt lat="42.101255" lon="23.602882"><ele>2140.3</ele><time>2026-03-08T08:17:34.000Z</time></trkpt>
<trkpt lat="42.101255" lon="23.602882"><ele>2140.3</ele><time>2026-03-08T08:17:35.000Z</time></trkpt>
<trkpt lat="42.101255" lon="23.602882"><ele>2140.3</ele><time>2026-03-08T08:17:36.000Z</time></trkpt>
<trkpt lat="42.101255" lon="23.602882"><ele>2140.3</ele><time>2026-03-08T08:17:37.000Z</time></trkpt>
<trkpt lat="42.101255" lon="23.602882"><ele>2140.3</ele><time>2026-03-08T08:17:38.000Z</time></trkpt>
<trkpt lat="42.101255" lon="23.602883"><ele>2140.3</ele><time>2026-03-08T08:17:39.000Z</time></trkpt>
<trkpt lat="42.101255" lon="23.602883"><ele>2140.3</ele><time>2026-03-08T08:17:40.000Z</time></trkpt>
<trkpt lat="42.101255" lon="23.602883"><ele>2140.3</ele><time>2026-03-08T08:17:41.000Z</time></trkpt>
<trkpt lat="42.101255" lon="23.602883"><ele>2140.3</ele><time>2026-03-08T08:17:42.000Z</time></trkpt>
<trkpt lat="42.101255" lon="23.602883"><ele>2140.3</ele><time>2026-03-08T08:17:43.000Z</time></trkpt>
<trkpt lat="42.101255" lon="23.602883"><ele>2140.3</ele><time>2026-03-08T08:17:44.000Z</time></trkpt>
<trkpt lat="42.101255" lon="23.602883"><ele>2140.3</ele><time>2026-03-08T08:17:45.000Z</time></trkpt>
<trkpt lat="42.101255" lon="23.602883"><ele>2140.3</ele><time>2026-03-08T08:17:46.000Z</time></trkpt>
<trkpt lat="42.101255" lon="23.602883"><ele>2140.1</ele><time>2026-03-08T08:17:47.000Z</time></trkpt>
<trkpt lat="42.101255" lon="23.602883"><ele>2140.1</ele><time>2026-03-08T08:17:48.000Z</time></trkpt>
<trkpt lat="42.101255" lon="23.602883"><ele>2140.1</ele><time>2026-03-08T08:17:49.000Z</time></trkpt>
<trkpt lat="42.101255" lon="23.602883"><ele>2140.1</ele><time>2026-03-08T08:17:50.000Z</time></trkpt>
<trkpt lat="42.101255" lon="23.602883"><ele>2140.1</ele><time>2026-03-08T08:17:51.000Z</time></trkpt>
<trkpt lat="42.101254" lon="23.602883"><ele>2140</ele><time>2026-03-08T08:17:52.000Z</time></trkpt>
<trkpt lat="42.101254" lon="23.602883"><ele>2140</ele><time>2026-03-08T08:17:53.000Z</time></trkpt>
<trkpt lat="42.101253" lon="23.602883"><ele>2140</ele><time>2026-03-08T08:17:54.000Z</time></trkpt>
<trkpt lat="42.101253" lon="23.602883"><ele>2140</ele><time>2026-03-08T08:17:55.000Z</time></trkpt>
<trkpt lat="42.101253" lon="23.602883"><ele>2140</ele><time>2026-03-08T08:17:56.000Z</time></trkpt>
<trkpt lat="42.101253" lon="23.602883"><ele>2140</ele><time>2026-03-08T08:17:57.000Z</time></trkpt>
<trkpt lat="42.101253" lon="23.602883"><ele>2140</ele><time>2026-03-08T08:17:58.000Z</time></trkpt>
<trkpt lat="42.101253" lon="23.602883"><ele>2140</ele><time>2026-03-08T08:17:59.000Z</time></trkpt>
<trkpt lat="42.101253" lon="23.602883"><ele>2140</ele><time>2026-03-08T08:18:00.000Z</time></trkpt>
<trkpt lat="42.101253" lon="23.602883"><ele>2140</ele><time>2026-03-08T08:18:01.000Z</time></trkpt>
<trkpt lat="42.101253" lon="23.602883"><ele>2139.9</ele><time>2026-03-08T08:18:02.000Z</time></trkpt>
<trkpt lat="42.101253" lon="23.602883"><ele>2139.9</ele><time>2026-03-08T08:18:03.000Z</time></trkpt>
<trkpt lat="42.101253" lon="23.602883"><ele>2139.9</ele><time>2026-03-08T08:18:04.000Z</time></trkpt>
<trkpt lat="42.101253" lon="23.602883"><ele>2139.9</ele><time>2026-03-08T08:18:05.000Z</time></trkpt>
<trkpt lat="42.101253" lon="23.602883"><ele>2139.9</ele><time>2026-03-08T08:18:06.000Z</time></trkpt>
<trkpt lat="42.101253" lon="23.602883"><ele>2139.9</ele><time>2026-03-08T08:18:07.000Z</time></trkpt>
<trkpt lat="42.101253" lon="23.602883"><ele>2139.9</ele><time>2026-03-08T08:18:08.000Z</time></trkpt>
<trkpt lat="42.101253" lon="23.602883"><ele>2139.9</ele><time>2026-03-08T08:18:09.000Z</time></trkpt>
<trkpt lat="42.101253" lon="23.602883"><ele>2139.9</ele><time>2026-03-08T08:18:10.000Z</time></trkpt>
<trkpt lat="42.101253" lon="23.602883"><ele>2139.9</ele><time>2026-03-08T08:18:11.000Z</time></trkpt>
<trkpt lat="42.101253" lon="23.602883"><ele>2140</ele><time>2026-03-08T08:18:12.000Z</time></trkpt>
<trkpt lat="42.101253" lon="23.602883"><ele>2140</ele><time>2026-03-08T08:18:13.000Z</time></trkpt>
<trkpt lat="42.101253" lon="23.602883"><ele>2140</ele><time>2026-03-08T08:18:14.000Z</time></trkpt>
<trkpt lat="42.101253" lon="23.602883"><ele>2140</ele><time>2026-03-08T08:18:15.000Z</time></trkpt>
<trkpt lat="42.101254" lon="23.602883"><ele>2140</ele><time>2026-03-08T08:18:16.000Z</time></trkpt>
<trkpt lat="42.101254" lon="23.602883"><ele>2140.1</ele><time>2026-03-08T08:18:17.000Z</time></trkpt>
<trkpt lat="42.101254" lon="23.602883"><ele>2140.1</ele><time>2026-03-08T08:18:18.000Z</time></trkpt>
<trkpt lat="42.101255" lon="23.602882"><ele>2140.1</ele><time>2026-03-08T08:18:19.000Z</time></trkpt>
<trkpt lat="42.101255" lon="23.602882"><ele>2140.1</ele><time>2026-03-08T08:18:20.000Z</time></trkpt>
<trkpt lat="42.101255" lon="23.602881"><ele>2140.1</ele><time>2026-03-08T08:18:21.000Z</time></trkpt>
<trkpt lat="42.101255" lon="23.602881"><ele>2140</ele><time>2026-03-08T08:18:22.000Z</time></trkpt>
<trkpt lat="42.101254" lon="23.60288"><ele>2140</ele><time>2026-03-08T08:18:23.000Z</time></trkpt>
<trkpt lat="42.101253" lon="23.60288"><ele>2140</ele><time>2026-03-08T08:18:24.000Z</time></trkpt>
<trkpt lat="42.101252" lon="23.60288"><ele>2140</ele><time>2026-03-08T08:18:25.000Z</time></trkpt>
<trkpt lat="42.101252" lon="23.60288"><ele>2140</ele><time>2026-03-08T08:18:26.000Z</time></trkpt>
<trkpt lat="42.101251" lon="23.602881"><ele>2139.9</ele><time>2026-03-08T08:18:27.000Z</time></trkpt>
<trkpt lat="42.101251" lon="23.602881"><ele>2139.9</ele><time>2026-03-08T08:18:28.000Z</time></trkpt>
<trkpt lat="42.101251" lon="23.602881"><ele>2139.9</ele><time>2026-03-08T08:18:29.000Z</time></trkpt>
<trkpt lat="42.101252" lon="23.602881"><ele>2139.9</ele><time>2026-03-08T08:18:30.000Z</time></trkpt>
<trkpt lat="42.101252" lon="23.602881"><ele>2139.9</ele><time>2026-03-08T08:18:31.000Z</time></trkpt>
<trkpt lat="42.101254" lon="23.602881"><ele>2139.7</ele><time>2026-03-08T08:18:32.000Z</time></trkpt>
<trkpt lat="42.101254" lon="23.602881"><ele>2139.7</ele><time>2026-03-08T08:18:33.000Z</time></trkpt>
<trkpt lat="42.101255" lon="23.602882"><ele>2139.7</ele><time>2026-03-08T08:18:34.000Z</time></trkpt>
<trkpt lat="42.101256" lon="23.602882"><ele>2139.7</ele><time>2026-03-08T08:18:35.000Z</time></trkpt>
<trkpt lat="42.101256" lon="23.602882"><ele>2139.7</ele><time>2026-03-08T08:18:36.000Z</time></trkpt>
<trkpt lat="42.101256" lon="23.602882"><ele>2139.5</ele><time>2026-03-08T08:18:37.000Z</time></trkpt>
<trkpt lat="42.101256" lon="23.602882"><ele>2139.5</ele><time>2026-03-08T08:18:38.000Z</time></trkpt>
<trkpt lat="42.101256" lon="23.602881"><ele>2139.5</ele><time>2026-03-08T08:18:39.000Z</time></trkpt>
<trkpt lat="42.101257" lon="23.602881"><ele>2139.5</ele><time>2026-03-08T08:18:40.000Z</time></trkpt>
<trkpt lat="42.101257" lon="23.60288"><ele>2139.5</ele><time>2026-03-08T08:18:41.000Z</time></trkpt>
<trkpt lat="42.101257" lon="23.602878"><ele>2139.5</ele><time>2026-03-08T08:18:42.000Z</time></trkpt>
<trkpt lat="42.101258" lon="23.602877"><ele>2139.5</ele><time>2026-03-08T08:18:43.000Z</time></trkpt>
<trkpt lat="42.101258" lon="23.602877"><ele>2139.5</ele><time>2026-03-08T08:18:44.000Z</time></trkpt>
<trkpt lat="42.101259" lon="23.602876"><ele>2139.5</ele><time>2026-03-08T08:18:45.000Z</time></trkpt>
<trkpt lat="42.10126" lon="23.602875"><ele>2139.5</ele><time>2026-03-08T08:18:46.000Z</time></trkpt>
<trkpt lat="42.10126" lon="23.602875"><ele>2139.4</ele><time>2026-03-08T08:18:47.000Z</time></trkpt>
<trkpt lat="42.10126" lon="23.602874"><ele>2139.4</ele><time>2026-03-08T08:18:48.000Z</time></trkpt>
<trkpt lat="42.10126" lon="23.602874"><ele>2139.4</ele><time>2026-03-08T08:18:49.000Z</time></trkpt>
<trkpt lat="42.10126" lon="23.602873"><ele>2139.4</ele><time>2026-03-08T08:18:50.000Z</time></trkpt>
<trkpt lat="42.101261" lon="23.602873"><ele>2139.4</ele><time>2026-03-08T08:18:51.000Z</time></trkpt>
<trkpt lat="42.101261" lon="23.602873"><ele>2139.2</ele><time>2026-03-08T08:18:52.000Z</time></trkpt>
<trkpt lat="42.101261" lon="23.602873"><ele>2139.2</ele><time>2026-03-08T08:18:53.000Z</time></trkpt>
<trkpt lat="42.101261" lon="23.602873"><ele>2139.2</ele><time>2026-03-08T08:18:54.000Z</time></trkpt>
<trkpt lat="42.101261" lon="23.602873"><ele>2139.2</ele><time>2026-03-08T08:18:55.000Z</time></trkpt>
<trkpt lat="42.101261" lon="23.602873"><ele>2139.2</ele><time>2026-03-08T08:18:56.000Z</time></trkpt>
<trkpt lat="42.101261" lon="23.602873"><ele>2139.1</ele><time>2026-03-08T08:18:57.000Z</time></trkpt>
<trkpt lat="42.101261" lon="23.602873"><ele>2139.1</ele><time>2026-03-08T08:18:58.000Z</time></trkpt>
<trkpt lat="42.101261" lon="23.602873"><ele>2139.1</ele><time>2026-03-08T08:18:59.000Z</time></trkpt>
<trkpt lat="42.101261" lon="23.602873"><ele>2139.1</ele><time>2026-03-08T08:19:00.000Z</time></trkpt>
<trkpt lat="42.101261" lon="23.602873"><ele>2139.1</ele><time>2026-03-08T08:19:01.000Z</time></trkpt>
<trkpt lat="42.101261" lon="23.602873"><ele>2138.9</ele><time>2026-03-08T08:19:02.000Z</time></trkpt>
<trkpt lat="42.10126" lon="23.602874"><ele>2138.9</ele><time>2026-03-08T08:19:03.000Z</time></trkpt>
<trkpt lat="42.10126" lon="23.602874"><ele>2138.9</ele><time>2026-03-08T08:19:04.000Z</time></trkpt>
<trkpt lat="42.101259" lon="23.602875"><ele>2138.9</ele><time>2026-03-08T08:19:05.000Z</time></trkpt>
<trkpt lat="42.101258" lon="23.602875"><ele>2138.9</ele><time>2026-03-08T08:19:06.000Z</time></trkpt>
<trkpt lat="42.101257" lon="23.602876"><ele>2139</ele><time>2026-03-08T08:19:07.000Z</time></trkpt>
<trkpt lat="42.101257" lon="23.602876"><ele>2139</ele><time>2026-03-08T08:19:08.000Z</time></trkpt>
<trkpt lat="42.101256" lon="23.602876"><ele>2139</ele><time>2026-03-08T08:19:09.000Z</time></trkpt>
<trkpt lat="42.101256" lon="23.602876"><ele>2139</ele><time>2026-03-08T08:19:10.000Z</time></trkpt>
<trkpt lat="42.101256" lon="23.602876"><ele>2139</ele><time>2026-03-08T08:19:11.000Z</time></trkpt>
<trkpt lat="42.101256" lon="23.602876"><ele>2139.1</ele><time>2026-03-08T08:19:12.000Z</time></trkpt>
<trkpt lat="42.101256" lon="23.602876"><ele>2139.1</ele><time>2026-03-08T08:19:13.000Z</time></trkpt>
<trkpt lat="42.101256" lon="23.602876"><ele>2139.1</ele><time>2026-03-08T08:19:14.000Z</time></trkpt>
<trkpt lat="42.101256" lon="23.602876"><ele>2139.1</ele><time>2026-03-08T08:19:15.000Z</time></trkpt>
<trkpt lat="42.101256" lon="23.602876"><ele>2139.1</ele><time>2026-03-08T08:19:16.000Z</time></trkpt>
<trkpt lat="42.101256" lon="23.602876"><ele>2139.2</ele><time>2026-03-08T08:19:17.000Z</time></trkpt>
<trkpt lat="42.101256" lon="23.602876"><ele>2139.2</ele><time>2026-03-08T08:19:18.000Z</time></trkpt>
<trkpt lat="42.101256" lon="23.602876"><ele>2139.2</ele><time>2026-03-08T08:19:19.000Z</time></trkpt>
<trkpt lat="42.101256" lon="23.602876"><ele>2139.2</ele><time>2026-03-08T08:19:20.000Z</time></trkpt>
<trkpt lat="42.101256" lon="23.602876"><ele>2139.2</ele><time>2026-03-08T08:19:21.000Z</time></trkpt>
<trkpt lat="42.101256" lon="23.602876"><ele>2139.1</ele><time>2026-03-08T08:19:22.000Z</time></trkpt>
<trkpt lat="42.101256" lon="23.602876"><ele>2139.1</ele><time>2026-03-08T08:19:23.000Z</time></trkpt>
<trkpt lat="42.101256" lon="23.602876"><ele>2139.1</ele><time>2026-03-08T08:19:24.000Z</time></trkpt>
<trkpt lat="42.101256" lon="23.602876"><ele>2139.1</ele><time>2026-03-08T08:19:25.000Z</time></trkpt>
<trkpt lat="42.101256" lon="23.602876"><ele>2139.1</ele><time>2026-03-08T08:19:26.000Z</time></trkpt>
<trkpt lat="42.101256" lon="23.602876"><ele>2139.1</ele><time>2026-03-08T08:19:27.000Z</time></trkpt>
<trkpt lat="42.101256" lon="23.602876"><ele>2139.1</ele><time>2026-03-08T08:19:28.000Z</time></trkpt>
<trkpt lat="42.101256" lon="23.602876"><ele>2139.1</ele><time>2026-03-08T08:19:29.000Z</time></trkpt>
<trkpt lat="42.101256" lon="23.602876"><ele>2139.1</ele><time>2026-03-08T08:19:30.000Z</time></trkpt>
<trkpt lat="42.101256" lon="23.602876"><ele>2139.1</ele><time>2026-03-08T08:19:31.000Z</time></trkpt>
<trkpt lat="42.101256" lon="23.602876"><ele>2139.1</ele><time>2026-03-08T08:19:32.000Z</time></trkpt>
<trkpt lat="42.101256" lon="23.602876"><ele>2139.1</ele><time>2026-03-08T08:19:33.000Z</time></trkpt>
<trkpt lat="42.101256" lon="23.602876"><ele>2139.1</ele><time>2026-03-08T08:19:34.000Z</time></trkpt>
<trkpt lat="42.101256" lon="23.602876"><ele>2139.1</ele><time>2026-03-08T08:19:35.000Z</time></trkpt>
<trkpt lat="42.101256" lon="23.602876"><ele>2139.1</ele><time>2026-03-08T08:19:36.000Z</time></trkpt>
<trkpt lat="42.101256" lon="23.602876"><ele>2139.2</ele><time>2026-03-08T08:19:37.000Z</time></trkpt>
<trkpt lat="42.101256" lon="23.602876"><ele>2139.2</ele><time>2026-03-08T08:19:38.000Z</time></trkpt>
<trkpt lat="42.101256" lon="23.602876"><ele>2139.2</ele><time>2026-03-08T08:19:39.000Z</time></trkpt>
<trkpt lat="42.101256" lon="23.602875"><ele>2139.2</ele><time>2026-03-08T08:19:40.000Z</time></trkpt>
<trkpt lat="42.101257" lon="23.602875"><ele>2139.2</ele><time>2026-03-08T08:19:41.000Z</time></trkpt>
<trkpt lat="42.101257" lon="23.602874"><ele>2139.2</ele><time>2026-03-08T08:19:42.000Z</time></trkpt>
<trkpt lat="42.101258" lon="23.602874"><ele>2139.2</ele><time>2026-03-08T08:19:43.000Z</time></trkpt>
<trkpt lat="42.101258" lon="23.602873"><ele>2139.2</ele><time>2026-03-08T08:19:44.000Z</time></trkpt>
<trkpt lat="42.101259" lon="23.602873"><ele>2139.2</ele><time>2026-03-08T08:19:45.000Z</time></trkpt>
<trkpt lat="42.101259" lon="23.602873"><ele>2139.2</ele><time>2026-03-08T08:19:46.000Z</time></trkpt>
<trkpt lat="42.101258" lon="23.602873"><ele>2139.1</ele><time>2026-03-08T08:19:47.000Z</time></trkpt>
<trkpt lat="42.101259" lon="23.602872"><ele>2139.1</ele><time>2026-03-08T08:19:48.000Z</time></trkpt>
<trkpt lat="42.101259" lon="23.602872"><ele>2139.1</ele><time>2026-03-08T08:19:49.000Z</time></trkpt>
<trkpt lat="42.101259" lon="23.602872"><ele>2139.1</ele><time>2026-03-08T08:19:50.000Z</time></trkpt>
<trkpt lat="42.10126" lon="23.602871"><ele>2139.1</ele><time>2026-03-08T08:19:51.000Z</time></trkpt>
<trkpt lat="42.101261" lon="23.602871"><ele>2139.1</ele><time>2026-03-08T08:19:52.000Z</time></trkpt>
<trkpt lat="42.101261" lon="23.602872"><ele>2139.1</ele><time>2026-03-08T08:19:53.000Z</time></trkpt>
<trkpt lat="42.101261" lon="23.602873"><ele>2139.1</ele><time>2026-03-08T08:19:54.000Z</time></trkpt>
<trkpt lat="42.101261" lon="23.602873"><ele>2139.1</ele><time>2026-03-08T08:19:55.000Z</time></trkpt>
<trkpt lat="42.101261" lon="23.602874"><ele>2139.1</ele><time>2026-03-08T08:19:56.000Z</time></trkpt>
<trkpt lat="42.101261" lon="23.602874"><ele>2139.1</ele><time>2026-03-08T08:19:57.000Z</time></trkpt>
<trkpt lat="42.101261" lon="23.602874"><ele>2139.1</ele><time>2026-03-08T08:19:58.000Z</time></trkpt>
<trkpt lat="42.101261" lon="23.602874"><ele>2139.1</ele><time>2026-03-08T08:19:59.000Z</time></trkpt>
<trkpt lat="42.101261" lon="23.602874"><ele>2139.1</ele><time>2026-03-08T08:20:00.000Z</time></trkpt>
<trkpt lat="42.101261" lon="23.602874"><ele>2139.1</ele><time>2026-03-08T08:20:01.000Z</time></trkpt>
<trkpt lat="42.101261" lon="23.602874"><ele>2139.1</ele><time>2026-03-08T08:20:02.000Z</time></trkpt>
<trkpt lat="42.101261" lon="23.602874"><ele>2139.1</ele><time>2026-03-08T08:20:03.000Z</time></trkpt>
<trkpt lat="42.101261" lon="23.602874"><ele>2139.1</ele><time>2026-03-08T08:20:04.000Z</time></trkpt>
<trkpt lat="42.101261" lon="23.602874"><ele>2139.1</ele><time>2026-03-08T08:20:05.000Z</time></trkpt>
<trkpt lat="42.101261" lon="23.602874"><ele>2139.1</ele><time>2026-03-08T08:20:06.000Z</time></trkpt>
<trkpt lat="42.101261" lon="23.602874"><ele>2139</ele><time>2026-03-08T08:20:07.000Z</time></trkpt>
<trkpt lat="42.101261" lon="23.602874"><ele>2139</ele><time>2026-03-08T08:20:08.000Z</time></trkpt>
<trkpt lat="42.101261" lon="23.602874"><ele>2139</ele><time>2026-03-08T08:20:09.000Z</time></trkpt>
<trkpt lat="42.101261" lon="23.602874"><ele>2139</ele><time>2026-03-08T08:20:10.000Z</time></trkpt>
<trkpt lat="42.101261" lon="23.602874"><ele>2139</ele><time>2026-03-08T08:20:11.000Z</time></trkpt>
<trkpt lat="42.101261" lon="23.602874"><ele>2139</ele><time>2026-03-08T08:20:12.000Z</time></trkpt>
<trkpt lat="42.10126" lon="23.602874"><ele>2139</ele><time>2026-03-08T08:20:13.000Z</time></trkpt>
<trkpt lat="42.10126" lon="23.602874"><ele>2139</ele><time>2026-03-08T08:20:14.000Z</time></trkpt>
<trkpt lat="42.10126" lon="23.602874"><ele>2139</ele><time>2026-03-08T08:20:15.000Z</time></trkpt>
<trkpt lat="42.10126" lon="23.602874"><ele>2139</ele><time>2026-03-08T08:20:16.000Z</time></trkpt>
<trkpt lat="42.10126" lon="23.602874"><ele>2139.1</ele><time>2026-03-08T08:20:17.000Z</time></trkpt>
<trkpt lat="42.10126" lon="23.602874"><ele>2139.1</ele><time>2026-03-08T08:20:18.000Z</time></trkpt>
<trkpt lat="42.10126" lon="23.602875"><ele>2139.1</ele><time>2026-03-08T08:20:19.000Z</time></trkpt>
<trkpt lat="42.10126" lon="23.602875"><ele>2139.1</ele><time>2026-03-08T08:20:20.000Z</time></trkpt>
<trkpt lat="42.10126" lon="23.602875"><ele>2139.1</ele><time>2026-03-08T08:20:21.000Z</time></trkpt>
<trkpt lat="42.10126" lon="23.602875"><ele>2139.2</ele><time>2026-03-08T08:20:22.000Z</time></trkpt>
<trkpt lat="42.101261" lon="23.602875"><ele>2139.2</ele><time>2026-03-08T08:20:23.000Z</time></trkpt>
<trkpt lat="42.101261" lon="23.602875"><ele>2139.2</ele><time>2026-03-08T08:20:24.000Z</time></trkpt>
<trkpt lat="42.10126" lon="23.602877"><ele>2139.2</ele><time>2026-03-08T08:20:25.000Z</time></trkpt>
<trkpt lat="42.10126" lon="23.602879"><ele>2139.2</ele><time>2026-03-08T08:20:26.000Z</time></trkpt>
<trkpt lat="42.10126" lon="23.60288"><ele>2139.2</ele><time>2026-03-08T08:20:27.000Z</time></trkpt>
<trkpt lat="42.101259" lon="23.60288"><ele>2139.2</ele><time>2026-03-08T08:20:28.000Z</time></trkpt>
<trkpt lat="42.101259" lon="23.602879"><ele>2139.2</ele><time>2026-03-08T08:20:29.000Z</time></trkpt>
<trkpt lat="42.10126" lon="23.602874"><ele>2139.2</ele><time>2026-03-08T08:20:30.000Z</time></trkpt>
<trkpt lat="42.101261" lon="23.602869"><ele>2139.2</ele><time>2026-03-08T08:20:31.000Z</time></trkpt>
<trkpt lat="42.101262" lon="23.602861"><ele>2139.1</ele><time>2026-03-08T08:20:32.000Z</time></trkpt>
<trkpt lat="42.101262" lon="23.602853"><ele>2139.1</ele><time>2026-03-08T08:20:33.000Z</time></trkpt>
<trkpt lat="42.101262" lon="23.602843"><ele>2139.1</ele><time>2026-03-08T08:20:34.000Z</time></trkpt>
<trkpt lat="42.101261" lon="23.602834"><ele>2139.1</ele><time>2026-03-08T08:20:35.000Z</time></trkpt>
<trkpt lat="42.10126" lon="23.602824"><ele>2139.1</ele><time>2026-03-08T08:20:36.000Z</time></trkpt>
<trkpt lat="42.101258" lon="23.602816"><ele>2139</ele><time>2026-03-08T08:20:37.000Z</time></trkpt>
<trkpt lat="42.101257" lon="23.602807"><ele>2139</ele><time>2026-03-08T08:20:38.000Z</time></trkpt>
<trkpt lat="42.101255" lon="23.602798"><ele>2139</ele><time>2026-03-08T08:20:39.000Z</time></trkpt>
<trkpt lat="42.101254" lon="23.60279"><ele>2139</ele><time>2026-03-08T08:20:40.000Z</time></trkpt>
<trkpt lat="42.101252" lon="23.602781"><ele>2139</ele><time>2026-03-08T08:20:41.000Z</time></trkpt>
<trkpt lat="42.10125" lon="23.602772"><ele>2139.2</ele><time>2026-03-08T08:20:42.000Z</time></trkpt>
<trkpt lat="42.101247" lon="23.602765"><ele>2139.2</ele><time>2026-03-08T08:20:43.000Z</time></trkpt>
<trkpt lat="42.101245" lon="23.602758"><ele>2139.2</ele><time>2026-03-08T08:20:44.000Z</time></trkpt>
<trkpt lat="42.101242" lon="23.602752"><ele>2139.2</ele><time>2026-03-08T08:20:45.000Z</time></trkpt>
<trkpt lat="42.10124" lon="23.602745"><ele>2139.2</ele><time>2026-03-08T08:20:46.000Z</time></trkpt>
<trkpt lat="42.10124" lon="23.602739"><ele>2139.7</ele><time>2026-03-08T08:20:47.000Z</time></trkpt>
<trkpt lat="42.101239" lon="23.602732"><ele>2139.7</ele><time>2026-03-08T08:20:48.000Z</time></trkpt>
<trkpt lat="42.101238" lon="23.602724"><ele>2139.7</ele><time>2026-03-08T08:20:49.000Z</time></trkpt>
<trkpt lat="42.101237" lon="23.602715"><ele>2139.7</ele><time>2026-03-08T08:20:50.000Z</time></trkpt>
<trkpt lat="42.101235" lon="23.602706"><ele>2139.7</ele><time>2026-03-08T08:20:51.000Z</time></trkpt>
<trkpt lat="42.101233" lon="23.602696"><ele>2140.2</ele><time>2026-03-08T08:20:52.000Z</time></trkpt>
<trkpt lat="42.101231" lon="23.602685"><ele>2140.2</ele><time>2026-03-08T08:20:53.000Z</time></trkpt>
<trkpt lat="42.101229" lon="23.602675"><ele>2140.2</ele><time>2026-03-08T08:20:54.000Z</time></trkpt>
<trkpt lat="42.101227" lon="23.602663"><ele>2140.2</ele><time>2026-03-08T08:20:55.000Z</time></trkpt>
<trkpt lat="42.101224" lon="23.602652"><ele>2140.2</ele><time>2026-03-08T08:20:56.000Z</time></trkpt>
<trkpt lat="42.10122" lon="23.60264"><ele>2140.5</ele><time>2026-03-08T08:20:57.000Z</time></trkpt>
<trkpt lat="42.101217" lon="23.60263"><ele>2140.5</ele><time>2026-03-08T08:20:58.000Z</time></trkpt>
<trkpt lat="42.101214" lon="23.602618"><ele>2140.5</ele><time>2026-03-08T08:20:59.000Z</time></trkpt>
<trkpt lat="42.101212" lon="23.602607"><ele>2140.5</ele><time>2026-03-08T08:21:00.000Z</time></trkpt>
<trkpt lat="42.101209" lon="23.602596"><ele>2140.5</ele><time>2026-03-08T08:21:01.000Z</time></trkpt>
<trkpt lat="42.101207" lon="23.602586"><ele>2140.9</ele><time>2026-03-08T08:21:02.000Z</time></trkpt>
<trkpt lat="42.101204" lon="23.602575"><ele>2140.9</ele><time>2026-03-08T08:21:03.000Z</time></trkpt>
<trkpt lat="42.101201" lon="23.602564"><ele>2140.9</ele><time>2026-03-08T08:21:04.000Z</time></trkpt>
<trkpt lat="42.101198" lon="23.602554"><ele>2140.9</ele><time>2026-03-08T08:21:05.000Z</time></trkpt>
<trkpt lat="42.101195" lon="23.602544"><ele>2140.9</ele><time>2026-03-08T08:21:06.000Z</time></trkpt>
<trkpt lat="42.101192" lon="23.602533"><ele>2141.3</ele><time>2026-03-08T08:21:07.000Z</time></trkpt>
<trkpt lat="42.101189" lon="23.602522"><ele>2141.3</ele><time>2026-03-08T08:21:08.000Z</time></trkpt>
<trkpt lat="42.101187" lon="23.602513"><ele>2141.3</ele><time>2026-03-08T08:21:09.000Z</time></trkpt>
<trkpt lat="42.101186" lon="23.602503"><ele>2141.3</ele><time>2026-03-08T08:21:10.000Z</time></trkpt>
<trkpt lat="42.101185" lon="23.602493"><ele>2141.3</ele><time>2026-03-08T08:21:11.000Z</time></trkpt>
<trkpt lat="42.101184" lon="23.602483"><ele>2141.4</ele><time>2026-03-08T08:21:12.000Z</time></trkpt>
<trkpt lat="42.101184" lon="23.602474"><ele>2141.4</ele><time>2026-03-08T08:21:13.000Z</time></trkpt>
<trkpt lat="42.101183" lon="23.602465"><ele>2141.4</ele><time>2026-03-08T08:21:14.000Z</time></trkpt>
<trkpt lat="42.101181" lon="23.602456"><ele>2141.4</ele><time>2026-03-08T08:21:15.000Z</time></trkpt>
<trkpt lat="42.101181" lon="23.602446"><ele>2141.4</ele><time>2026-03-08T08:21:16.000Z</time></trkpt>
<trkpt lat="42.10118" lon="23.602438"><ele>2141.8</ele><time>2026-03-08T08:21:17.000Z</time></trkpt>
<trkpt lat="42.101179" lon="23.602428"><ele>2141.8</ele><time>2026-03-08T08:21:18.000Z</time></trkpt>
<trkpt lat="42.101179" lon="23.602418"><ele>2141.8</ele><time>2026-03-08T08:21:19.000Z</time></trkpt>
<trkpt lat="42.101178" lon="23.602409"><ele>2141.8</ele><time>2026-03-08T08:21:20.000Z</time></trkpt>
<trkpt lat="42.101178" lon="23.602399"><ele>2141.8</ele><time>2026-03-08T08:21:21.000Z</time></trkpt>
<trkpt lat="42.101177" lon="23.602389"><ele>2142.1</ele><time>2026-03-08T08:21:22.000Z</time></trkpt>
<trkpt lat="42.101176" lon="23.602379"><ele>2142.1</ele><time>2026-03-08T08:21:23.000Z</time></trkpt>
<trkpt lat="42.101174" lon="23.60237"><ele>2142.1</ele><time>2026-03-08T08:21:24.000Z</time></trkpt>
<trkpt lat="42.101172" lon="23.60236"><ele>2142.1</ele><time>2026-03-08T08:21:25.000Z</time></trkpt>
<trkpt lat="42.101171" lon="23.60235"><ele>2142.1</ele><time>2026-03-08T08:21:26.000Z</time></trkpt>
<trkpt lat="42.10117" lon="23.60234"><ele>2142.2</ele><time>2026-03-08T08:21:27.000Z</time></trkpt>
<trkpt lat="42.10117" lon="23.602329"><ele>2142.2</ele><time>2026-03-08T08:21:28.000Z</time></trkpt>
<trkpt lat="42.101169" lon="23.602317"><ele>2142.2</ele><time>2026-03-08T08:21:29.000Z</time></trkpt>
<trkpt lat="42.101167" lon="23.602304"><ele>2142.2</ele><time>2026-03-08T08:21:30.000Z</time></trkpt>
<trkpt lat="42.101166" lon="23.602292"><ele>2142.2</ele><time>2026-03-08T08:21:31.000Z</time></trkpt>
<trkpt lat="42.101165" lon="23.60228"><ele>2142.7</ele><time>2026-03-08T08:21:32.000Z</time></trkpt>
<trkpt lat="42.101163" lon="23.602267"><ele>2142.7</ele><time>2026-03-08T08:21:33.000Z</time></trkpt>
<trkpt lat="42.101162" lon="23.602254"><ele>2142.7</ele><time>2026-03-08T08:21:34.000Z</time></trkpt>
<trkpt lat="42.101162" lon="23.602241"><ele>2142.7</ele><time>2026-03-08T08:21:35.000Z</time></trkpt>
<trkpt lat="42.101161" lon="23.602229"><ele>2142.7</ele><time>2026-03-08T08:21:36.000Z</time></trkpt>
<trkpt lat="42.101161" lon="23.602216"><ele>2143.2</ele><time>2026-03-08T08:21:37.000Z</time></trkpt>
<trkpt lat="42.10116" lon="23.602203"><ele>2143.2</ele><time>2026-03-08T08:21:38.000Z</time></trkpt>
<trkpt lat="42.10116" lon="23.602191"><ele>2143.2</ele><time>2026-03-08T08:21:39.000Z</time></trkpt>
<trkpt lat="42.10116" lon="23.602179"><ele>2143.2</ele><time>2026-03-08T08:21:40.000Z</time></trkpt>
<trkpt lat="42.101161" lon="23.602166"><ele>2143.2</ele><time>2026-03-08T08:21:41.000Z</time></trkpt>
<trkpt lat="42.101161" lon="23.602153"><ele>2143.5</ele><time>2026-03-08T08:21:42.000Z</time></trkpt>
<trkpt lat="42.101162" lon="23.602141"><ele>2143.5</ele><time>2026-03-08T08:21:43.000Z</time></trkpt>
<trkpt lat="42.101163" lon="23.602128"><ele>2143.5</ele><time>2026-03-08T08:21:44.000Z</time></trkpt>
<trkpt lat="42.101164" lon="23.602114"><ele>2143.5</ele><time>2026-03-08T08:21:45.000Z</time></trkpt>
<trkpt lat="42.101164" lon="23.602101"><ele>2143.5</ele><time>2026-03-08T08:21:46.000Z</time></trkpt>
<trkpt lat="42.101165" lon="23.602089"><ele>2144.1</ele><time>2026-03-08T08:21:47.000Z</time></trkpt>
<trkpt lat="42.101165" lon="23.602076"><ele>2144.1</ele><time>2026-03-08T08:21:48.000Z</time></trkpt>
<trkpt lat="42.101165" lon="23.602064"><ele>2144.1</ele><time>2026-03-08T08:21:49.000Z</time></trkpt>
<trkpt lat="42.101165" lon="23.602055"><ele>2144.1</ele><time>2026-03-08T08:21:50.000Z</time></trkpt>
<trkpt lat="42.101165" lon="23.602045"><ele>2144.1</ele><time>2026-03-08T08:21:51.000Z</time></trkpt>
<trkpt lat="42.101164" lon="23.602036"><ele>2144.6</ele><time>2026-03-08T08:21:52.000Z</time></trkpt>
<trkpt lat="42.101164" lon="23.602028"><ele>2144.6</ele><time>2026-03-08T08:21:53.000Z</time></trkpt>
<trkpt lat="42.101164" lon="23.60202"><ele>2144.6</ele><time>2026-03-08T08:21:54.000Z</time></trkpt>
<trkpt lat="42.101164" lon="23.602012"><ele>2144.6</ele><time>2026-03-08T08:21:55.000Z</time></trkpt>
<trkpt lat="42.101165" lon="23.602003"><ele>2144.6</ele><time>2026-03-08T08:21:56.000Z</time></trkpt>
<trkpt lat="42.101166" lon="23.601996"><ele>2144.9</ele><time>2026-03-08T08:21:57.000Z</time></trkpt>
<trkpt lat="42.101167" lon="23.601987"><ele>2144.9</ele><time>2026-03-08T08:21:58.000Z</time></trkpt>
<trkpt lat="42.101167" lon="23.601978"><ele>2144.9</ele><time>2026-03-08T08:21:59.000Z</time></trkpt>
<trkpt lat="42.101168" lon="23.601969"><ele>2144.9</ele><time>2026-03-08T08:22:00.000Z</time></trkpt>
<trkpt lat="42.101168" lon="23.601959"><ele>2144.9</ele><time>2026-03-08T08:22:01.000Z</time></trkpt>
<trkpt lat="42.101168" lon="23.601948"><ele>2145.4</ele><time>2026-03-08T08:22:02.000Z</time></trkpt>
<trkpt lat="42.101168" lon="23.601937"><ele>2145.4</ele><time>2026-03-08T08:22:03.000Z</time></trkpt>
<trkpt lat="42.101169" lon="23.601927"><ele>2145.4</ele><time>2026-03-08T08:22:04.000Z</time></trkpt>
<trkpt lat="42.10117" lon="23.601916"><ele>2145.4</ele><time>2026-03-08T08:22:05.000Z</time></trkpt>
<trkpt lat="42.10117" lon="23.601905"><ele>2145.4</ele><time>2026-03-08T08:22:06.000Z</time></trkpt>
<trkpt lat="42.10117" lon="23.601895"><ele>2146</ele><time>2026-03-08T08:22:07.000Z</time></trkpt>
<trkpt lat="42.10117" lon="23.601886"><ele>2146</ele><time>2026-03-08T08:22:08.000Z</time></trkpt>
<trkpt lat="42.10117" lon="23.601877"><ele>2146</ele><time>2026-03-08T08:22:09.000Z</time></trkpt>
<trkpt lat="42.10117" lon="23.601867"><ele>2146</ele><time>2026-03-08T08:22:10.000Z</time></trkpt>
<trkpt lat="42.10117" lon="23.601858"><ele>2146</ele><time>2026-03-08T08:22:11.000Z</time></trkpt>
<trkpt lat="42.101171" lon="23.601849"><ele>2146.3</ele><time>2026-03-08T08:22:12.000Z</time></trkpt>
<trkpt lat="42.101171" lon="23.60184"><ele>2146.3</ele><time>2026-03-08T08:22:13.000Z</time></trkpt>
<trkpt lat="42.10117" lon="23.601829"><ele>2146.3</ele><time>2026-03-08T08:22:14.000Z</time></trkpt>
<trkpt lat="42.10117" lon="23.601819"><ele>2146.3</ele><time>2026-03-08T08:22:15.000Z</time></trkpt>
<trkpt lat="42.101169" lon="23.601809"><ele>2146.3</ele><time>2026-03-08T08:22:16.000Z</time></trkpt>
<trkpt lat="42.101169" lon="23.601798"><ele>2146.9</ele><time>2026-03-08T08:22:17.000Z</time></trkpt>
<trkpt lat="42.101168" lon="23.601787"><ele>2146.9</ele><time>2026-03-08T08:22:18.000Z</time></trkpt>
<trkpt lat="42.101168" lon="23.601776"><ele>2146.9</ele><time>2026-03-08T08:22:19.000Z</time></trkpt>
<trkpt lat="42.101168" lon="23.601764"><ele>2146.9</ele><time>2026-03-08T08:22:20.000Z</time></trkpt>
<trkpt lat="42.101168" lon="23.601752"><ele>2146.9</ele><time>2026-03-08T08:22:21.000Z</time></trkpt>
<trkpt lat="42.101168" lon="23.60174"><ele>2147.3</ele><time>2026-03-08T08:22:22.000Z</time></trkpt>
<trkpt lat="42.101168" lon="23.601728"><ele>2147.3</ele><time>2026-03-08T08:22:23.000Z</time></trkpt>
<trkpt lat="42.101168" lon="23.601715"><ele>2147.3</ele><time>2026-03-08T08:22:24.000Z</time></trkpt>
<trkpt lat="42.101167" lon="23.601704"><ele>2147.3</ele><time>2026-03-08T08:22:25.000Z</time></trkpt>
<trkpt lat="42.101168" lon="23.601692"><ele>2147.3</ele><time>2026-03-08T08:22:26.000Z</time></trkpt>
<trkpt lat="42.101168" lon="23.60168"><ele>2147.6</ele><time>2026-03-08T08:22:27.000Z</time></trkpt>
<trkpt lat="42.101168" lon="23.601669"><ele>2147.6</ele><time>2026-03-08T08:22:28.000Z</time></trkpt>
<trkpt lat="42.101169" lon="23.601657"><ele>2147.6</ele><time>2026-03-08T08:22:29.000Z</time></trkpt>
<trkpt lat="42.101169" lon="23.601644"><ele>2147.6</ele><time>2026-03-08T08:22:30.000Z</time></trkpt>
<trkpt lat="42.101169" lon="23.601633"><ele>2147.6</ele><time>2026-03-08T08:22:31.000Z</time></trkpt>
<trkpt lat="42.101169" lon="23.601622"><ele>2148.2</ele><time>2026-03-08T08:22:32.000Z</time></trkpt>
<trkpt lat="42.101169" lon="23.601609"><ele>2148.2</ele><time>2026-03-08T08:22:33.000Z</time></trkpt>
<trkpt lat="42.101169" lon="23.601598"><ele>2148.2</ele><time>2026-03-08T08:22:34.000Z</time></trkpt>
<trkpt lat="42.10117" lon="23.601588"><ele>2148.2</ele><time>2026-03-08T08:22:35.000Z</time></trkpt>
<trkpt lat="42.101171" lon="23.601576"><ele>2148.2</ele><time>2026-03-08T08:22:36.000Z</time></trkpt>
<trkpt lat="42.101172" lon="23.601566"><ele>2148.9</ele><time>2026-03-08T08:22:37.000Z</time></trkpt>
<trkpt lat="42.101173" lon="23.601556"><ele>2148.9</ele><time>2026-03-08T08:22:38.000Z</time></trkpt>
<trkpt lat="42.101174" lon="23.601546"><ele>2148.9</ele><time>2026-03-08T08:22:39.000Z</time></trkpt>
<trkpt lat="42.101174" lon="23.601536"><ele>2148.9</ele><time>2026-03-08T08:22:40.000Z</time></trkpt>
<trkpt lat="42.101175" lon="23.601527"><ele>2148.9</ele><time>2026-03-08T08:22:41.000Z</time></trkpt>
<trkpt lat="42.101176" lon="23.601517"><ele>2149.2</ele><time>2026-03-08T08:22:42.000Z</time></trkpt>
<trkpt lat="42.101177" lon="23.601508"><ele>2149.2</ele><time>2026-03-08T08:22:43.000Z</time></trkpt>
<trkpt lat="42.101177" lon="23.601499"><ele>2149.2</ele><time>2026-03-08T08:22:44.000Z</time></trkpt>
<trkpt lat="42.101177" lon="23.60149"><ele>2149.2</ele><time>2026-03-08T08:22:45.000Z</time></trkpt>
<trkpt lat="42.101177" lon="23.60148"><ele>2149.2</ele><time>2026-03-08T08:22:46.000Z</time></trkpt>
<trkpt lat="42.101177" lon="23.601471"><ele>2149.5</ele><time>2026-03-08T08:22:47.000Z</time></trkpt>
<trkpt lat="42.101178" lon="23.601462"><ele>2149.5</ele><time>2026-03-08T08:22:48.000Z</time></trkpt>
<trkpt lat="42.101179" lon="23.601452"><ele>2149.5</ele><time>2026-03-08T08:22:49.000Z</time></trkpt>
<trkpt lat="42.10118" lon="23.601443"><ele>2149.5</ele><time>2026-03-08T08:22:50.000Z</time></trkpt>
<trkpt lat="42.101181" lon="23.601434"><ele>2149.5</ele><time>2026-03-08T08:22:51.000Z</time></trkpt>
<trkpt lat="42.101181" lon="23.601424"><ele>2149.9</ele><time>2026-03-08T08:22:52.000Z</time></trkpt>
<trkpt lat="42.101183" lon="23.601415"><ele>2149.9</ele><time>2026-03-08T08:22:53.000Z</time></trkpt>
<trkpt lat="42.101184" lon="23.601405"><ele>2149.9</ele><time>2026-03-08T08:22:54.000Z</time></trkpt>
<trkpt lat="42.101186" lon="23.601397"><ele>2149.9</ele><time>2026-03-08T08:22:55.000Z</time></trkpt>
<trkpt lat="42.101187" lon="23.601389"><ele>2149.9</ele><time>2026-03-08T08:22:56.000Z</time></trkpt>
<trkpt lat="42.101188" lon="23.601381"><ele>2150.1</ele><time>2026-03-08T08:22:57.000Z</time></trkpt>
<trkpt lat="42.101189" lon="23.601372"><ele>2150.1</ele><time>2026-03-08T08:22:58.000Z</time></trkpt>
<trkpt lat="42.10119" lon="23.601365"><ele>2150.1</ele><time>2026-03-08T08:22:59.000Z</time></trkpt>
<trkpt lat="42.101192" lon="23.601357"><ele>2150.1</ele><time>2026-03-08T08:23:00.000Z</time></trkpt>
<trkpt lat="42.101193" lon="23.601349"><ele>2150.1</ele><time>2026-03-08T08:23:01.000Z</time></trkpt>
<trkpt lat="42.101193" lon="23.601342"><ele>2150.5</ele><time>2026-03-08T08:23:02.000Z</time></trkpt>
<trkpt lat="42.101194" lon="23.601334"><ele>2150.5</ele><time>2026-03-08T08:23:03.000Z</time></trkpt>
<trkpt lat="42.101194" lon="23.601327"><ele>2150.5</ele><time>2026-03-08T08:23:04.000Z</time></trkpt>
<trkpt lat="42.101194" lon="23.601319"><ele>2150.5</ele><time>2026-03-08T08:23:05.000Z</time></trkpt>
<trkpt lat="42.101195" lon="23.601311"><ele>2150.5</ele><time>2026-03-08T08:23:06.000Z</time></trkpt>
<trkpt lat="42.101196" lon="23.601302"><ele>2150.9</ele><time>2026-03-08T08:23:07.000Z</time></trkpt>
<trkpt lat="42.101197" lon="23.601294"><ele>2150.9</ele><time>2026-03-08T08:23:08.000Z</time></trkpt>
<trkpt lat="42.101199" lon="23.601285"><ele>2150.9</ele><time>2026-03-08T08:23:09.000Z</time></trkpt>
<trkpt lat="42.101202" lon="23.601276"><ele>2150.9</ele><time>2026-03-08T08:23:10.000Z</time></trkpt>
<trkpt lat="42.101204" lon="23.601267"><ele>2150.9</ele><time>2026-03-08T08:23:11.000Z</time></trkpt>
<trkpt lat="42.101207" lon="23.601258"><ele>2151.1</ele><time>2026-03-08T08:23:12.000Z</time></trkpt>
<trkpt lat="42.10121" lon="23.60125"><ele>2151.1</ele><time>2026-03-08T08:23:13.000Z</time></trkpt>
<trkpt lat="42.101213" lon="23.601245"><ele>2151.1</ele><time>2026-03-08T08:23:14.000Z</time></trkpt>
<trkpt lat="42.101214" lon="23.60124"><ele>2151.1</ele><time>2026-03-08T08:23:15.000Z</time></trkpt>
<trkpt lat="42.101216" lon="23.601237"><ele>2151.1</ele><time>2026-03-08T08:23:16.000Z</time></trkpt>
<trkpt lat="42.101217" lon="23.601236"><ele>2151.5</ele><time>2026-03-08T08:23:17.000Z</time></trkpt>
<trkpt lat="42.101219" lon="23.601236"><ele>2151.5</ele><time>2026-03-08T08:23:18.000Z</time></trkpt>
<trkpt lat="42.10122" lon="23.601237"><ele>2151.5</ele><time>2026-03-08T08:23:19.000Z</time></trkpt>
<trkpt lat="42.101221" lon="23.601237"><ele>2151.5</ele><time>2026-03-08T08:23:20.000Z</time></trkpt>
<trkpt lat="42.101221" lon="23.601239"><ele>2151.5</ele><time>2026-03-08T08:23:21.000Z</time></trkpt>
<trkpt lat="42.101222" lon="23.601239"><ele>2151.7</ele><time>2026-03-08T08:23:22.000Z</time></trkpt>
<trkpt lat="42.101222" lon="23.60124"><ele>2151.7</ele><time>2026-03-08T08:23:23.000Z</time></trkpt>
<trkpt lat="42.101222" lon="23.60124"><ele>2151.7</ele><time>2026-03-08T08:23:24.000Z</time></trkpt>
<trkpt lat="42.101222" lon="23.601237"><ele>2151.7</ele><time>2026-03-08T08:23:25.000Z</time></trkpt>
<trkpt lat="42.101223" lon="23.601233"><ele>2151.7</ele><time>2026-03-08T08:23:26.000Z</time></trkpt>
<trkpt lat="42.101224" lon="23.601227"><ele>2151.7</ele><time>2026-03-08T08:23:27.000Z</time></trkpt>
<trkpt lat="42.101226" lon="23.601218"><ele>2151.7</ele><time>2026-03-08T08:23:28.000Z</time></trkpt>
<trkpt lat="42.101227" lon="23.601207"><ele>2151.7</ele><time>2026-03-08T08:23:29.000Z</time></trkpt>
<trkpt lat="42.101229" lon="23.601197"><ele>2151.7</ele><time>2026-03-08T08:23:30.000Z</time></trkpt>
<trkpt lat="42.101231" lon="23.601187"><ele>2151.7</ele><time>2026-03-08T08:23:31.000Z</time></trkpt>
<trkpt lat="42.101232" lon="23.601177"><ele>2151.8</ele><time>2026-03-08T08:23:32.000Z</time></trkpt>
<trkpt lat="42.101234" lon="23.601167"><ele>2151.8</ele><time>2026-03-08T08:23:33.000Z</time></trkpt>
<trkpt lat="42.101237" lon="23.601157"><ele>2151.8</ele><time>2026-03-08T08:23:34.000Z</time></trkpt>
<trkpt lat="42.10124" lon="23.601147"><ele>2151.8</ele><time>2026-03-08T08:23:35.000Z</time></trkpt>
<trkpt lat="42.101242" lon="23.601138"><ele>2151.8</ele><time>2026-03-08T08:23:36.000Z</time></trkpt>
<trkpt lat="42.101245" lon="23.601128"><ele>2151.9</ele><time>2026-03-08T08:23:37.000Z</time></trkpt>
<trkpt lat="42.101249" lon="23.601117"><ele>2151.9</ele><time>2026-03-08T08:23:38.000Z</time></trkpt>
<trkpt lat="42.101251" lon="23.601107"><ele>2151.9</ele><time>2026-03-08T08:23:39.000Z</time></trkpt>
<trkpt lat="42.101254" lon="23.601097"><ele>2151.9</ele><time>2026-03-08T08:23:40.000Z</time></trkpt>
<trkpt lat="42.101256" lon="23.601087"><ele>2151.9</ele><time>2026-03-08T08:23:41.000Z</time></trkpt>
<trkpt lat="42.101259" lon="23.601077"><ele>2152</ele><time>2026-03-08T08:23:42.000Z</time></trkpt>
<trkpt lat="42.101262" lon="23.601068"><ele>2152</ele><time>2026-03-08T08:23:43.000Z</time></trkpt>
<trkpt lat="42.101264" lon="23.601059"><ele>2152</ele><time>2026-03-08T08:23:44.000Z</time></trkpt>
<trkpt lat="42.101267" lon="23.60105"><ele>2152</ele><time>2026-03-08T08:23:45.000Z</time></trkpt>
<trkpt lat="42.10127" lon="23.601041"><ele>2152</ele><time>2026-03-08T08:23:46.000Z</time></trkpt>
<trkpt lat="42.101272" lon="23.601034"><ele>2152.5</ele><time>2026-03-08T08:23:47.000Z</time></trkpt>
<trkpt lat="42.101274" lon="23.601026"><ele>2152.5</ele><time>2026-03-08T08:23:48.000Z</time></trkpt>
<trkpt lat="42.101276" lon="23.60102"><ele>2152.5</ele><time>2026-03-08T08:23:49.000Z</time></trkpt>
<trkpt lat="42.101278" lon="23.601015"><ele>2152.5</ele><time>2026-03-08T08:23:50.000Z</time></trkpt>
<trkpt lat="42.101279" lon="23.60101"><ele>2152.5</ele><time>2026-03-08T08:23:51.000Z</time></trkpt>
<trkpt lat="42.101282" lon="23.601005"><ele>2153.1</ele><time>2026-03-08T08:23:52.000Z</time></trkpt>
<trkpt lat="42.101284" lon="23.601"><ele>2153.1</ele><time>2026-03-08T08:23:53.000Z</time></trkpt>
<trkpt lat="42.101286" lon="23.600994"><ele>2153.1</ele><time>2026-03-08T08:23:54.000Z</time></trkpt>
<trkpt lat="42.101289" lon="23.600986"><ele>2153.1</ele><time>2026-03-08T08:23:55.000Z</time></trkpt>
<trkpt lat="42.10129" lon="23.600977"><ele>2153.1</ele><time>2026-03-08T08:23:56.000Z</time></trkpt>
<trkpt lat="42.10129" lon="23.600966"><ele>2153.4</ele><time>2026-03-08T08:23:57.000Z</time></trkpt>
<trkpt lat="42.101289" lon="23.600955"><ele>2153.4</ele><time>2026-03-08T08:23:58.000Z</time></trkpt>
<trkpt lat="42.101288" lon="23.600942"><ele>2153.4</ele><time>2026-03-08T08:23:59.000Z</time></trkpt>
<trkpt lat="42.101284" lon="23.600929"><ele>2153.4</ele><time>2026-03-08T08:24:00.000Z</time></trkpt>
<trkpt lat="42.10128" lon="23.600916"><ele>2153.4</ele><time>2026-03-08T08:24:01.000Z</time></trkpt>
<trkpt lat="42.101277" lon="23.600903"><ele>2153.7</ele><time>2026-03-08T08:24:02.000Z</time></trkpt>
<trkpt lat="42.101274" lon="23.600889"><ele>2153.7</ele><time>2026-03-08T08:24:03.000Z</time></trkpt>
<trkpt lat="42.101272" lon="23.600876"><ele>2153.7</ele><time>2026-03-08T08:24:04.000Z</time></trkpt>
<trkpt lat="42.101269" lon="23.600864"><ele>2153.7</ele><time>2026-03-08T08:24:05.000Z</time></trkpt>
<trkpt lat="42.101267" lon="23.600853"><ele>2153.7</ele><time>2026-03-08T08:24:06.000Z</time></trkpt>
<trkpt lat="42.101264" lon="23.600841"><ele>2153.9</ele><time>2026-03-08T08:24:07.000Z</time></trkpt>
<trkpt lat="42.101262" lon="23.600829"><ele>2153.9</ele><time>2026-03-08T08:24:08.000Z</time></trkpt>
<trkpt lat="42.101259" lon="23.600817"><ele>2153.9</ele><time>2026-03-08T08:24:09.000Z</time></trkpt>
<trkpt lat="42.101257" lon="23.600805"><ele>2153.9</ele><time>2026-03-08T08:24:10.000Z</time></trkpt>
<trkpt lat="42.101255" lon="23.600793"><ele>2153.9</ele><time>2026-03-08T08:24:11.000Z</time></trkpt>
<trkpt lat="42.101252" lon="23.600781"><ele>2154</ele><time>2026-03-08T08:24:12.000Z</time></trkpt>
<trkpt lat="42.101248" lon="23.60077"><ele>2154</ele><time>2026-03-08T08:24:13.000Z</time></trkpt>
<trkpt lat="42.101244" lon="23.600759"><ele>2154</ele><time>2026-03-08T08:24:14.000Z</time></trkpt>
<trkpt lat="42.101239" lon="23.600748"><ele>2154</ele><time>2026-03-08T08:24:15.000Z</time></trkpt>
<trkpt lat="42.101234" lon="23.600738"><ele>2154</ele><time>2026-03-08T08:24:16.000Z</time></trkpt>
<trkpt lat="42.101229" lon="23.600727"><ele>2154.2</ele><time>2026-03-08T08:24:17.000Z</time></trkpt>
<trkpt lat="42.101224" lon="23.600716"><ele>2154.2</ele><time>2026-03-08T08:24:18.000Z</time></trkpt>
<trkpt lat="42.10122" lon="23.600705"><ele>2154.2</ele><time>2026-03-08T08:24:19.000Z</time></trkpt>
<trkpt lat="42.101215" lon="23.600692"><ele>2154.2</ele><time>2026-03-08T08:24:20.000Z</time></trkpt>
<trkpt lat="42.101211" lon="23.600678"><ele>2154.2</ele><time>2026-03-08T08:24:21.000Z</time></trkpt>
<trkpt lat="42.101208" lon="23.600664"><ele>2154.2</ele><time>2026-03-08T08:24:22.000Z</time></trkpt>
<trkpt lat="42.101206" lon="23.60065"><ele>2154.2</ele><time>2026-03-08T08:24:23.000Z</time></trkpt>
<trkpt lat="42.101205" lon="23.600636"><ele>2154.2</ele><time>2026-03-08T08:24:24.000Z</time></trkpt>
<trkpt lat="42.101205" lon="23.600621"><ele>2154.2</ele><time>2026-03-08T08:24:25.000Z</time></trkpt>
<trkpt lat="42.101206" lon="23.600607"><ele>2154.2</ele><time>2026-03-08T08:24:26.000Z</time></trkpt>
<trkpt lat="42.101206" lon="23.600593"><ele>2154.2</ele><time>2026-03-08T08:24:27.000Z</time></trkpt>
<trkpt lat="42.101207" lon="23.600579"><ele>2154.2</ele><time>2026-03-08T08:24:28.000Z</time></trkpt>
<trkpt lat="42.101208" lon="23.600566"><ele>2154.2</ele><time>2026-03-08T08:24:29.000Z</time></trkpt>
<trkpt lat="42.101209" lon="23.600553"><ele>2154.2</ele><time>2026-03-08T08:24:30.000Z</time></trkpt>
<trkpt lat="42.10121" lon="23.60054"><ele>2154.2</ele><time>2026-03-08T08:24:31.000Z</time></trkpt>
<trkpt lat="42.101211" lon="23.600528"><ele>2154.2</ele><time>2026-03-08T08:24:32.000Z</time></trkpt>
<trkpt lat="42.101211" lon="23.600516"><ele>2154.2</ele><time>2026-03-08T08:24:33.000Z</time></trkpt>
<trkpt lat="42.10121" lon="23.600506"><ele>2154.2</ele><time>2026-03-08T08:24:34.000Z</time></trkpt>
<trkpt lat="42.101209" lon="23.600496"><ele>2154.2</ele><time>2026-03-08T08:24:35.000Z</time></trkpt>
<trkpt lat="42.101206" lon="23.600487"><ele>2154.2</ele><time>2026-03-08T08:24:36.000Z</time></trkpt>
<trkpt lat="42.101204" lon="23.600477"><ele>2154.5</ele><time>2026-03-08T08:24:37.000Z</time></trkpt>
<trkpt lat="42.101202" lon="23.600467"><ele>2154.5</ele><time>2026-03-08T08:24:38.000Z</time></trkpt>
<trkpt lat="42.1012" lon="23.600456"><ele>2154.5</ele><time>2026-03-08T08:24:39.000Z</time></trkpt>
<trkpt lat="42.1012" lon="23.600443"><ele>2154.5</ele><time>2026-03-08T08:24:40.000Z</time></trkpt>
<trkpt lat="42.101201" lon="23.60043"><ele>2154.5</ele><time>2026-03-08T08:24:41.000Z</time></trkpt>
<trkpt lat="42.101202" lon="23.600416"><ele>2154.6</ele><time>2026-03-08T08:24:42.000Z</time></trkpt>
<trkpt lat="42.101204" lon="23.600402"><ele>2154.6</ele><time>2026-03-08T08:24:43.000Z</time></trkpt>
<trkpt lat="42.101207" lon="23.600388"><ele>2154.6</ele><time>2026-03-08T08:24:44.000Z</time></trkpt>
<trkpt lat="42.101208" lon="23.600375"><ele>2154.6</ele><time>2026-03-08T08:24:45.000Z</time></trkpt>
<trkpt lat="42.10121" lon="23.600362"><ele>2154.6</ele><time>2026-03-08T08:24:46.000Z</time></trkpt>
<trkpt lat="42.101212" lon="23.60035"><ele>2154.9</ele><time>2026-03-08T08:24:47.000Z</time></trkpt>
<trkpt lat="42.101214" lon="23.600339"><ele>2154.9</ele><time>2026-03-08T08:24:48.000Z</time></trkpt>
<trkpt lat="42.101215" lon="23.600328"><ele>2154.9</ele><time>2026-03-08T08:24:49.000Z</time></trkpt>
<trkpt lat="42.101217" lon="23.600318"><ele>2154.9</ele><time>2026-03-08T08:24:50.000Z</time></trkpt>
<trkpt lat="42.101218" lon="23.60031"><ele>2154.9</ele><time>2026-03-08T08:24:51.000Z</time></trkpt>
<trkpt lat="42.101218" lon="23.600301"><ele>2155.2</ele><time>2026-03-08T08:24:52.000Z</time></trkpt>
<trkpt lat="42.101218" lon="23.600291"><ele>2155.2</ele><time>2026-03-08T08:24:53.000Z</time></trkpt>
<trkpt lat="42.101219" lon="23.600283"><ele>2155.2</ele><time>2026-03-08T08:24:54.000Z</time></trkpt>
<trkpt lat="42.101221" lon="23.600276"><ele>2155.2</ele><time>2026-03-08T08:24:55.000Z</time></trkpt>
<trkpt lat="42.101222" lon="23.600271"><ele>2155.2</ele><time>2026-03-08T08:24:56.000Z</time></trkpt>
<trkpt lat="42.101223" lon="23.600268"><ele>2155.4</ele><time>2026-03-08T08:24:57.000Z</time></trkpt>
<trkpt lat="42.101224" lon="23.600267"><ele>2155.4</ele><time>2026-03-08T08:24:58.000Z</time></trkpt>
<trkpt lat="42.101225" lon="23.600268"><ele>2155.4</ele><time>2026-03-08T08:24:59.000Z</time></trkpt>
<trkpt lat="42.101225" lon="23.600268"><ele>2155.4</ele><time>2026-03-08T08:25:00.000Z</time></trkpt>
<trkpt lat="42.101226" lon="23.600268"><ele>2155.4</ele><time>2026-03-08T08:25:01.000Z</time></trkpt>
<trkpt lat="42.101226" lon="23.600268"><ele>2155.7</ele><time>2026-03-08T08:25:02.000Z</time></trkpt>
<trkpt lat="42.101226" lon="23.600268"><ele>2155.7</ele><time>2026-03-08T08:25:03.000Z</time></trkpt>
<trkpt lat="42.101226" lon="23.600269"><ele>2155.7</ele><time>2026-03-08T08:25:04.000Z</time></trkpt>
<trkpt lat="42.101225" lon="23.600269"><ele>2155.7</ele><time>2026-03-08T08:25:05.000Z</time></trkpt>
<trkpt lat="42.101225" lon="23.600269"><ele>2155.7</ele><time>2026-03-08T08:25:06.000Z</time></trkpt>
<trkpt lat="42.101225" lon="23.600269"><ele>2156</ele><time>2026-03-08T08:25:07.000Z</time></trkpt>
<trkpt lat="42.101225" lon="23.600269"><ele>2156</ele><time>2026-03-08T08:25:08.000Z</time></trkpt>
<trkpt lat="42.101225" lon="23.600269"><ele>2156</ele><time>2026-03-08T08:25:09.000Z</time></trkpt>
<trkpt lat="42.101225" lon="23.600269"><ele>2156</ele><time>2026-03-08T08:25:10.000Z</time></trkpt>
<trkpt lat="42.101226" lon="23.600269"><ele>2156</ele><time>2026-03-08T08:25:11.000Z</time></trkpt>
<trkpt lat="42.101226" lon="23.600269"><ele>2156</ele><time>2026-03-08T08:25:12.000Z</time></trkpt>
<trkpt lat="42.101226" lon="23.600268"><ele>2156</ele><time>2026-03-08T08:25:13.000Z</time></trkpt>
<trkpt lat="42.101227" lon="23.600268"><ele>2156</ele><time>2026-03-08T08:25:14.000Z</time></trkpt>
<trkpt lat="42.101227" lon="23.600268"><ele>2156</ele><time>2026-03-08T08:25:15.000Z</time></trkpt>
<trkpt lat="42.101227" lon="23.600268"><ele>2156</ele><time>2026-03-08T08:25:16.000Z</time></trkpt>
<trkpt lat="42.101227" lon="23.600268"><ele>2156</ele><time>2026-03-08T08:25:17.000Z</time></trkpt>
<trkpt lat="42.101227" lon="23.600268"><ele>2156</ele><time>2026-03-08T08:25:18.000Z</time></trkpt>
<trkpt lat="42.101227" lon="23.600268"><ele>2156</ele><time>2026-03-08T08:25:19.000Z</time></trkpt>
<trkpt lat="42.101227" lon="23.600268"><ele>2156</ele><time>2026-03-08T08:25:20.000Z</time></trkpt>
<trkpt lat="42.101227" lon="23.600268"><ele>2156</ele><time>2026-03-08T08:25:21.000Z</time></trkpt>
<trkpt lat="42.101227" lon="23.600268"><ele>2156.1</ele><time>2026-03-08T08:25:22.000Z</time></trkpt>
<trkpt lat="42.101227" lon="23.600268"><ele>2156.1</ele><time>2026-03-08T08:25:23.000Z</time></trkpt>
<trkpt lat="42.101227" lon="23.600268"><ele>2156.1</ele><time>2026-03-08T08:25:24.000Z</time></trkpt>
<trkpt lat="42.101227" lon="23.600268"><ele>2156.1</ele><time>2026-03-08T08:25:25.000Z</time></trkpt>
<trkpt lat="42.101226" lon="23.600268"><ele>2156.1</ele><time>2026-03-08T08:25:26.000Z</time></trkpt>
<trkpt lat="42.101226" lon="23.600268"><ele>2156.1</ele><time>2026-03-08T08:25:27.000Z</time></trkpt>
<trkpt lat="42.101226" lon="23.600268"><ele>2156.1</ele><time>2026-03-08T08:25:28.000Z</time></trkpt>
<trkpt lat="42.101226" lon="23.600268"><ele>2156.1</ele><time>2026-03-08T08:25:29.000Z</time></trkpt>
<trkpt lat="42.101226" lon="23.600268"><ele>2156.1</ele><time>2026-03-08T08:25:30.000Z</time></trkpt>
<trkpt lat="42.101226" lon="23.600268"><ele>2156.1</ele><time>2026-03-08T08:25:31.000Z</time></trkpt>
<trkpt lat="42.101226" lon="23.600268"><ele>2156.2</ele><time>2026-03-08T08:25:32.000Z</time></trkpt>
<trkpt lat="42.101226" lon="23.600268"><ele>2156.2</ele><time>2026-03-08T08:25:33.000Z</time></trkpt>
<trkpt lat="42.101226" lon="23.600268"><ele>2156.2</ele><time>2026-03-08T08:25:34.000Z</time></trkpt>
<trkpt lat="42.101226" lon="23.600268"><ele>2156.2</ele><time>2026-03-08T08:25:35.000Z</time></trkpt>
<trkpt lat="42.101226" lon="23.600268"><ele>2156.2</ele><time>2026-03-08T08:25:36.000Z</time></trkpt>
<trkpt lat="42.101226" lon="23.600268"><ele>2156.2</ele><time>2026-03-08T08:25:37.000Z</time></trkpt>
<trkpt lat="42.101226" lon="23.600268"><ele>2156.2</ele><time>2026-03-08T08:25:38.000Z</time></trkpt>
<trkpt lat="42.101226" lon="23.600268"><ele>2156.2</ele><time>2026-03-08T08:25:39.000Z</time></trkpt>
<trkpt lat="42.101226" lon="23.600268"><ele>2156.2</ele><time>2026-03-08T08:25:40.000Z</time></trkpt>
<trkpt lat="42.101227" lon="23.600267"><ele>2156.2</ele><time>2026-03-08T08:25:41.000Z</time></trkpt>
<trkpt lat="42.101227" lon="23.600267"><ele>2156.2</ele><time>2026-03-08T08:25:42.000Z</time></trkpt>
<trkpt lat="42.101227" lon="23.600267"><ele>2156.2</ele><time>2026-03-08T08:25:43.000Z</time></trkpt>
<trkpt lat="42.101227" lon="23.600267"><ele>2156.2</ele><time>2026-03-08T08:25:44.000Z</time></trkpt>
<trkpt lat="42.101227" lon="23.600267"><ele>2156.2</ele><time>2026-03-08T08:25:45.000Z</time></trkpt>
<trkpt lat="42.101227" lon="23.600267"><ele>2156.2</ele><time>2026-03-08T08:25:46.000Z</time></trkpt>
<trkpt lat="42.101227" lon="23.600267"><ele>2156.2</ele><time>2026-03-08T08:25:47.000Z</time></trkpt>
<trkpt lat="42.101227" lon="23.600267"><ele>2156.2</ele><time>2026-03-08T08:25:48.000Z</time></trkpt>
<trkpt lat="42.101227" lon="23.600267"><ele>2156.2</ele><time>2026-03-08T08:25:49.000Z</time></trkpt>
<trkpt lat="42.101227" lon="23.600267"><ele>2156.2</ele><time>2026-03-08T08:25:50.000Z</time></trkpt>
<trkpt lat="42.101227" lon="23.600267"><ele>2156.2</ele><time>2026-03-08T08:25:51.000Z</time></trkpt>
<trkpt lat="42.101227" lon="23.600267"><ele>2156.1</ele><time>2026-03-08T08:25:52.000Z</time></trkpt>
<trkpt lat="42.101227" lon="23.600267"><ele>2156.1</ele><time>2026-03-08T08:25:53.000Z</time></trkpt>
<trkpt lat="42.101227" lon="23.600267"><ele>2156.1</ele><time>2026-03-08T08:25:54.000Z</time></trkpt>
<trkpt lat="42.101227" lon="23.600267"><ele>2156.1</ele><time>2026-03-08T08:25:55.000Z</time></trkpt>
<trkpt lat="42.101227" lon="23.600267"><ele>2156.1</ele><time>2026-03-08T08:25:56.000Z</time></trkpt>
<trkpt lat="42.101226" lon="23.600267"><ele>2156.1</ele><time>2026-03-08T08:25:57.000Z</time></trkpt>
<trkpt lat="42.101226" lon="23.600267"><ele>2156.1</ele><time>2026-03-08T08:25:58.000Z</time></trkpt>
<trkpt lat="42.101225" lon="23.600268"><ele>2156.1</ele><time>2026-03-08T08:25:59.000Z</time></trkpt>
<trkpt lat="42.101224" lon="23.600268"><ele>2156.1</ele><time>2026-03-08T08:26:00.000Z</time></trkpt>
<trkpt lat="42.101223" lon="23.600268"><ele>2156.1</ele><time>2026-03-08T08:26:01.000Z</time></trkpt>
<trkpt lat="42.101222" lon="23.600268"><ele>2156.2</ele><time>2026-03-08T08:26:02.000Z</time></trkpt>
<trkpt lat="42.101222" lon="23.600267"><ele>2156.2</ele><time>2026-03-08T08:26:03.000Z</time></trkpt>
<trkpt lat="42.101221" lon="23.600266"><ele>2156.2</ele><time>2026-03-08T08:26:04.000Z</time></trkpt>
<trkpt lat="42.101221" lon="23.600266"><ele>2156.2</ele><time>2026-03-08T08:26:05.000Z</time></trkpt>
<trkpt lat="42.101221" lon="23.600265"><ele>2156.2</ele><time>2026-03-08T08:26:06.000Z</time></trkpt>
<trkpt lat="42.101221" lon="23.600265"><ele>2156.3</ele><time>2026-03-08T08:26:07.000Z</time></trkpt>
<trkpt lat="42.101221" lon="23.600265"><ele>2156.3</ele><time>2026-03-08T08:26:08.000Z</time></trkpt>
<trkpt lat="42.101222" lon="23.600265"><ele>2156.3</ele><time>2026-03-08T08:26:09.000Z</time></trkpt>
<trkpt lat="42.101222" lon="23.600265"><ele>2156.3</ele><time>2026-03-08T08:26:10.000Z</time></trkpt>
<trkpt lat="42.101222" lon="23.600265"><ele>2156.3</ele><time>2026-03-08T08:26:11.000Z</time></trkpt>
<trkpt lat="42.101222" lon="23.600265"><ele>2156.3</ele><time>2026-03-08T08:26:12.000Z</time></trkpt>
<trkpt lat="42.101222" lon="23.600265"><ele>2156.3</ele><time>2026-03-08T08:26:13.000Z</time></trkpt>
<trkpt lat="42.101222" lon="23.600265"><ele>2156.3</ele><time>2026-03-08T08:26:14.000Z</time></trkpt>
<trkpt lat="42.101222" lon="23.600265"><ele>2156.3</ele><time>2026-03-08T08:26:15.000Z</time></trkpt>
<trkpt lat="42.101222" lon="23.600266"><ele>2156.3</ele><time>2026-03-08T08:26:16.000Z</time></trkpt>
<trkpt lat="42.101222" lon="23.600266"><ele>2156.4</ele><time>2026-03-08T08:26:17.000Z</time></trkpt>
<trkpt lat="42.101222" lon="23.600267"><ele>2156.4</ele><time>2026-03-08T08:26:18.000Z</time></trkpt>
<trkpt lat="42.101222" lon="23.600268"><ele>2156.4</ele><time>2026-03-08T08:26:19.000Z</time></trkpt>
<trkpt lat="42.101221" lon="23.600268"><ele>2156.4</ele><time>2026-03-08T08:26:20.000Z</time></trkpt>
<trkpt lat="42.101221" lon="23.600268"><ele>2156.4</ele><time>2026-03-08T08:26:21.000Z</time></trkpt>
<trkpt lat="42.101221" lon="23.600269"><ele>2156.4</ele><time>2026-03-08T08:26:22.000Z</time></trkpt>
<trkpt lat="42.101222" lon="23.600269"><ele>2156.4</ele><time>2026-03-08T08:26:23.000Z</time></trkpt>
<trkpt lat="42.101222" lon="23.600269"><ele>2156.4</ele><time>2026-03-08T08:26:24.000Z</time></trkpt>
<trkpt lat="42.101222" lon="23.600269"><ele>2156.4</ele><time>2026-03-08T08:26:25.000Z</time></trkpt>
<trkpt lat="42.101222" lon="23.600269"><ele>2156.4</ele><time>2026-03-08T08:26:26.000Z</time></trkpt>
<trkpt lat="42.101222" lon="23.600269"><ele>2156.4</ele><time>2026-03-08T08:26:27.000Z</time></trkpt>
<trkpt lat="42.101222" lon="23.600269"><ele>2156.4</ele><time>2026-03-08T08:26:28.000Z</time></trkpt>
<trkpt lat="42.101222" lon="23.600269"><ele>2156.4</ele><time>2026-03-08T08:26:29.000Z</time></trkpt>
<trkpt lat="42.101222" lon="23.600269"><ele>2156.4</ele><time>2026-03-08T08:26:30.000Z</time></trkpt>
<trkpt lat="42.101222" lon="23.600269"><ele>2156.4</ele><time>2026-03-08T08:26:31.000Z</time></trkpt>
<trkpt lat="42.101222" lon="23.600269"><ele>2156.5</ele><time>2026-03-08T08:26:32.000Z</time></trkpt>
<trkpt lat="42.101222" lon="23.600269"><ele>2156.5</ele><time>2026-03-08T08:26:33.000Z</time></trkpt>
<trkpt lat="42.101222" lon="23.600269"><ele>2156.5</ele><time>2026-03-08T08:26:34.000Z</time></trkpt>
<trkpt lat="42.101222" lon="23.600269"><ele>2156.5</ele><time>2026-03-08T08:26:35.000Z</time></trkpt>
<trkpt lat="42.101222" lon="23.600269"><ele>2156.5</ele><time>2026-03-08T08:26:36.000Z</time></trkpt>
<trkpt lat="42.101221" lon="23.600269"><ele>2156.5</ele><time>2026-03-08T08:26:37.000Z</time></trkpt>
<trkpt lat="42.101221" lon="23.600268"><ele>2156.5</ele><time>2026-03-08T08:26:38.000Z</time></trkpt>
<trkpt lat="42.101221" lon="23.600266"><ele>2156.5</ele><time>2026-03-08T08:26:39.000Z</time></trkpt>
<trkpt lat="42.101222" lon="23.600262"><ele>2156.5</ele><time>2026-03-08T08:26:40.000Z</time></trkpt>
<trkpt lat="42.101223" lon="23.600256"><ele>2156.5</ele><time>2026-03-08T08:26:41.000Z</time></trkpt>
<trkpt lat="42.101224" lon="23.600249"><ele>2156.4</ele><time>2026-03-08T08:26:42.000Z</time></trkpt>
<trkpt lat="42.101226" lon="23.600239"><ele>2156.4</ele><time>2026-03-08T08:26:43.000Z</time></trkpt>
<trkpt lat="42.101228" lon="23.600228"><ele>2156.4</ele><time>2026-03-08T08:26:44.000Z</time></trkpt>
<trkpt lat="42.10123" lon="23.600218"><ele>2156.4</ele><time>2026-03-08T08:26:45.000Z</time></trkpt>
<trkpt lat="42.101232" lon="23.600208"><ele>2156.4</ele><time>2026-03-08T08:26:46.000Z</time></trkpt>
<trkpt lat="42.101235" lon="23.600196"><ele>2156.4</ele><time>2026-03-08T08:26:47.000Z</time></trkpt>
<trkpt lat="42.101236" lon="23.600185"><ele>2156.4</ele><time>2026-03-08T08:26:48.000Z</time></trkpt>
<trkpt lat="42.101237" lon="23.600173"><ele>2156.4</ele><time>2026-03-08T08:26:49.000Z</time></trkpt>
<trkpt lat="42.101238" lon="23.60016"><ele>2156.4</ele><time>2026-03-08T08:26:50.000Z</time></trkpt>
<trkpt lat="42.101239" lon="23.600146"><ele>2156.4</ele><time>2026-03-08T08:26:51.000Z</time></trkpt>
<trkpt lat="42.101241" lon="23.600133"><ele>2156.7</ele><time>2026-03-08T08:26:52.000Z</time></trkpt>
<trkpt lat="42.101243" lon="23.60012"><ele>2156.7</ele><time>2026-03-08T08:26:53.000Z</time></trkpt>
<trkpt lat="42.101244" lon="23.600107"><ele>2156.7</ele><time>2026-03-08T08:26:54.000Z</time></trkpt>
<trkpt lat="42.101245" lon="23.600094"><ele>2156.7</ele><time>2026-03-08T08:26:55.000Z</time></trkpt>
<trkpt lat="42.101245" lon="23.600082"><ele>2156.7</ele><time>2026-03-08T08:26:56.000Z</time></trkpt>
<trkpt lat="42.101245" lon="23.60007"><ele>2156.8</ele><time>2026-03-08T08:26:57.000Z</time></trkpt>
<trkpt lat="42.101245" lon="23.600059"><ele>2156.8</ele><time>2026-03-08T08:26:58.000Z</time></trkpt>
<trkpt lat="42.101246" lon="23.600048"><ele>2156.8</ele><time>2026-03-08T08:26:59.000Z</time></trkpt>
<trkpt lat="42.101246" lon="23.600036"><ele>2156.8</ele><time>2026-03-08T08:27:00.000Z</time></trkpt>
<trkpt lat="42.101247" lon="23.600024"><ele>2156.8</ele><time>2026-03-08T08:27:01.000Z</time></trkpt>
<trkpt lat="42.101248" lon="23.600012"><ele>2157</ele><time>2026-03-08T08:27:02.000Z</time></trkpt>
<trkpt lat="42.101248" lon="23.599999"><ele>2157</ele><time>2026-03-08T08:27:03.000Z</time></trkpt>
<trkpt lat="42.101249" lon="23.599987"><ele>2157</ele><time>2026-03-08T08:27:04.000Z</time></trkpt>
<trkpt lat="42.10125" lon="23.599974"><ele>2157</ele><time>2026-03-08T08:27:05.000Z</time></trkpt>
<trkpt lat="42.101252" lon="23.599961"><ele>2157</ele><time>2026-03-08T08:27:06.000Z</time></trkpt>
<trkpt lat="42.101253" lon="23.599949"><ele>2156.8</ele><time>2026-03-08T08:27:07.000Z</time></trkpt>
<trkpt lat="42.101254" lon="23.599937"><ele>2156.8</ele><time>2026-03-08T08:27:08.000Z</time></trkpt>
<trkpt lat="42.101255" lon="23.599925"><ele>2156.8</ele><time>2026-03-08T08:27:09.000Z</time></trkpt>
<trkpt lat="42.101256" lon="23.599914"><ele>2156.8</ele><time>2026-03-08T08:27:10.000Z</time></trkpt>
<trkpt lat="42.101257" lon="23.599903"><ele>2156.8</ele><time>2026-03-08T08:27:11.000Z</time></trkpt>
<trkpt lat="42.101258" lon="23.599891"><ele>2156.7</ele><time>2026-03-08T08:27:12.000Z</time></trkpt>
<trkpt lat="42.101259" lon="23.599878"><ele>2156.7</ele><time>2026-03-08T08:27:13.000Z</time></trkpt>
<trkpt lat="42.101261" lon="23.599865"><ele>2156.7</ele><time>2026-03-08T08:27:14.000Z</time></trkpt>
<trkpt lat="42.101262" lon="23.599854"><ele>2156.7</ele><time>2026-03-08T08:27:15.000Z</time></trkpt>
<trkpt lat="42.101262" lon="23.599844"><ele>2156.7</ele><time>2026-03-08T08:27:16.000Z</time></trkpt>
<trkpt lat="42.10126" lon="23.599833"><ele>2156.6</ele><time>2026-03-08T08:27:17.000Z</time></trkpt>
<trkpt lat="42.101259" lon="23.599821"><ele>2156.6</ele><time>2026-03-08T08:27:18.000Z</time></trkpt>
<trkpt lat="42.101257" lon="23.59981"><ele>2156.6</ele><time>2026-03-08T08:27:19.000Z</time></trkpt>
<trkpt lat="42.101255" lon="23.599798"><ele>2156.6</ele><time>2026-03-08T08:27:20.000Z</time></trkpt>
<trkpt lat="42.101253" lon="23.599784"><ele>2156.6</ele><time>2026-03-08T08:27:21.000Z</time></trkpt>
<trkpt lat="42.101251" lon="23.59977"><ele>2156.6</ele><time>2026-03-08T08:27:22.000Z</time></trkpt>
<trkpt lat="42.101249" lon="23.599757"><ele>2156.6</ele><time>2026-03-08T08:27:23.000Z</time></trkpt>
<trkpt lat="42.101247" lon="23.599742"><ele>2156.6</ele><time>2026-03-08T08:27:24.000Z</time></trkpt>
<trkpt lat="42.101245" lon="23.599729"><ele>2156.6</ele><time>2026-03-08T08:27:25.000Z</time></trkpt>
<trkpt lat="42.101244" lon="23.599716"><ele>2156.6</ele><time>2026-03-08T08:27:26.000Z</time></trkpt>
<trkpt lat="42.101242" lon="23.599703"><ele>2156.5</ele><time>2026-03-08T08:27:27.000Z</time></trkpt>
<trkpt lat="42.101241" lon="23.59969"><ele>2156.5</ele><time>2026-03-08T08:27:28.000Z</time></trkpt>
<trkpt lat="42.10124" lon="23.599677"><ele>2156.5</ele><time>2026-03-08T08:27:29.000Z</time></trkpt>
<trkpt lat="42.101239" lon="23.599663"><ele>2156.5</ele><time>2026-03-08T08:27:30.000Z</time></trkpt>
<trkpt lat="42.101239" lon="23.59965"><ele>2156.5</ele><time>2026-03-08T08:27:31.000Z</time></trkpt>
<trkpt lat="42.101239" lon="23.599637"><ele>2156.1</ele><time>2026-03-08T08:27:32.000Z</time></trkpt>
<trkpt lat="42.101239" lon="23.599624"><ele>2156.1</ele><time>2026-03-08T08:27:33.000Z</time></trkpt>
<trkpt lat="42.101239" lon="23.599611"><ele>2156.1</ele><time>2026-03-08T08:27:34.000Z</time></trkpt>
<trkpt lat="42.101239" lon="23.599598"><ele>2156.1</ele><time>2026-03-08T08:27:35.000Z</time></trkpt>
<trkpt lat="42.101238" lon="23.599585"><ele>2156.1</ele><time>2026-03-08T08:27:36.000Z</time></trkpt>
<trkpt lat="42.101237" lon="23.599571"><ele>2155.7</ele><time>2026-03-08T08:27:37.000Z</time></trkpt>
<trkpt lat="42.101235" lon="23.599558"><ele>2155.7</ele><time>2026-03-08T08:27:38.000Z</time></trkpt>
<trkpt lat="42.101233" lon="23.599544"><ele>2155.7</ele><time>2026-03-08T08:27:39.000Z</time></trkpt>
<trkpt lat="42.101232" lon="23.599531"><ele>2155.7</ele><time>2026-03-08T08:27:40.000Z</time></trkpt>
<trkpt lat="42.10123" lon="23.599519"><ele>2155.7</ele><time>2026-03-08T08:27:41.000Z</time></trkpt>
<trkpt lat="42.101229" lon="23.599508"><ele>2155.6</ele><time>2026-03-08T08:27:42.000Z</time></trkpt>
<trkpt lat="42.101228" lon="23.599499"><ele>2155.6</ele><time>2026-03-08T08:27:43.000Z</time></trkpt>
<trkpt lat="42.101228" lon="23.599489"><ele>2155.6</ele><time>2026-03-08T08:27:44.000Z</time></trkpt>
<trkpt lat="42.101228" lon="23.599481"><ele>2155.6</ele><time>2026-03-08T08:27:45.000Z</time></trkpt>
<trkpt lat="42.101227" lon="23.599473"><ele>2155.6</ele><time>2026-03-08T08:27:46.000Z</time></trkpt>
<trkpt lat="42.101228" lon="23.599464"><ele>2155.5</ele><time>2026-03-08T08:27:47.000Z</time></trkpt>
<trkpt lat="42.101228" lon="23.599456"><ele>2155.5</ele><time>2026-03-08T08:27:48.000Z</time></trkpt>
<trkpt lat="42.101227" lon="23.599447"><ele>2155.5</ele><time>2026-03-08T08:27:49.000Z</time></trkpt>
<trkpt lat="42.101227" lon="23.599437"><ele>2155.5</ele><time>2026-03-08T08:27:50.000Z</time></trkpt>
<trkpt lat="42.101226" lon="23.599427"><ele>2155.5</ele><time>2026-03-08T08:27:51.000Z</time></trkpt>
<trkpt lat="42.101226" lon="23.599416"><ele>2155.5</ele><time>2026-03-08T08:27:52.000Z</time></trkpt>
<trkpt lat="42.101227" lon="23.599404"><ele>2155.5</ele><time>2026-03-08T08:27:53.000Z</time></trkpt>
<trkpt lat="42.101227" lon="23.599392"><ele>2155.5</ele><time>2026-03-08T08:27:54.000Z</time></trkpt>
<trkpt lat="42.101228" lon="23.59938"><ele>2155.5</ele><time>2026-03-08T08:27:55.000Z</time></trkpt>
<trkpt lat="42.101228" lon="23.599367"><ele>2155.5</ele><time>2026-03-08T08:27:56.000Z</time></trkpt>
<trkpt lat="42.101228" lon="23.599354"><ele>2155.4</ele><time>2026-03-08T08:27:57.000Z</time></trkpt>
<trkpt lat="42.101228" lon="23.599342"><ele>2155.4</ele><time>2026-03-08T08:27:58.000Z</time></trkpt>
<trkpt lat="42.101227" lon="23.599329"><ele>2155.4</ele><time>2026-03-08T08:27:59.000Z</time></trkpt>
<trkpt lat="42.101226" lon="23.599317"><ele>2155.4</ele><time>2026-03-08T08:28:00.000Z</time></trkpt>
<trkpt lat="42.101225" lon="23.599306"><ele>2155.4</ele><time>2026-03-08T08:28:01.000Z</time></trkpt>
<trkpt lat="42.101224" lon="23.599295"><ele>2155.2</ele><time>2026-03-08T08:28:02.000Z</time></trkpt>
<trkpt lat="42.101223" lon="23.599283"><ele>2155.2</ele><time>2026-03-08T08:28:03.000Z</time></trkpt>
<trkpt lat="42.101222" lon="23.599271"><ele>2155.2</ele><time>2026-03-08T08:28:04.000Z</time></trkpt>
<trkpt lat="42.10122" lon="23.599258"><ele>2155.2</ele><time>2026-03-08T08:28:05.000Z</time></trkpt>
<trkpt lat="42.101217" lon="23.599244"><ele>2155.2</ele><time>2026-03-08T08:28:06.000Z</time></trkpt>
<trkpt lat="42.101215" lon="23.599231"><ele>2155</ele><time>2026-03-08T08:28:07.000Z</time></trkpt>
<trkpt lat="42.101213" lon="23.599218"><ele>2155</ele><time>2026-03-08T08:28:08.000Z</time></trkpt>
<trkpt lat="42.101211" lon="23.599206"><ele>2155</ele><time>2026-03-08T08:28:09.000Z</time></trkpt>
<trkpt lat="42.101209" lon="23.599194"><ele>2155</ele><time>2026-03-08T08:28:10.000Z</time></trkpt>
<trkpt lat="42.101208" lon="23.599181"><ele>2155</ele><time>2026-03-08T08:28:11.000Z</time></trkpt>
<trkpt lat="42.101207" lon="23.599168"><ele>2154.8</ele><time>2026-03-08T08:28:12.000Z</time></trkpt>
<trkpt lat="42.101205" lon="23.599154"><ele>2154.8</ele><time>2026-03-08T08:28:13.000Z</time></trkpt>
<trkpt lat="42.101204" lon="23.599141"><ele>2154.8</ele><time>2026-03-08T08:28:14.000Z</time></trkpt>
<trkpt lat="42.101202" lon="23.599128"><ele>2154.8</ele><time>2026-03-08T08:28:15.000Z</time></trkpt>
<trkpt lat="42.1012" lon="23.599115"><ele>2154.8</ele><time>2026-03-08T08:28:16.000Z</time></trkpt>
<trkpt lat="42.101198" lon="23.5991"><ele>2154.4</ele><time>2026-03-08T08:28:17.000Z</time></trkpt>
<trkpt lat="42.101195" lon="23.599085"><ele>2154.4</ele><time>2026-03-08T08:28:18.000Z</time></trkpt>
<trkpt lat="42.101193" lon="23.59907"><ele>2154.4</ele><time>2026-03-08T08:28:19.000Z</time></trkpt>
<trkpt lat="42.101191" lon="23.599056"><ele>2154.4</ele><time>2026-03-08T08:28:20.000Z</time></trkpt>
<trkpt lat="42.101189" lon="23.599041"><ele>2154.4</ele><time>2026-03-08T08:28:21.000Z</time></trkpt>
<trkpt lat="42.101187" lon="23.599028"><ele>2154</ele><time>2026-03-08T08:28:22.000Z</time></trkpt>
<trkpt lat="42.101185" lon="23.599014"><ele>2154</ele><time>2026-03-08T08:28:23.000Z</time></trkpt>
<trkpt lat="42.101183" lon="23.598999"><ele>2154</ele><time>2026-03-08T08:28:24.000Z</time></trkpt>
<trkpt lat="42.101181" lon="23.598984"><ele>2154</ele><time>2026-03-08T08:28:25.000Z</time></trkpt>
<trkpt lat="42.10118" lon="23.59897"><ele>2154</ele><time>2026-03-08T08:28:26.000Z</time></trkpt>
<trkpt lat="42.101178" lon="23.598955"><ele>2153.7</ele><time>2026-03-08T08:28:27.000Z</time></trkpt>
<trkpt lat="42.101177" lon="23.59894"><ele>2153.7</ele><time>2026-03-08T08:28:28.000Z</time></trkpt>
<trkpt lat="42.101177" lon="23.598926"><ele>2153.7</ele><time>2026-03-08T08:28:29.000Z</time></trkpt>
<trkpt lat="42.101177" lon="23.598913"><ele>2153.7</ele><time>2026-03-08T08:28:30.000Z</time></trkpt>
<trkpt lat="42.101178" lon="23.598899"><ele>2153.7</ele><time>2026-03-08T08:28:31.000Z</time></trkpt>
<trkpt lat="42.101178" lon="23.598886"><ele>2153.2</ele><time>2026-03-08T08:28:32.000Z</time></trkpt>
<trkpt lat="42.101179" lon="23.598873"><ele>2153.2</ele><time>2026-03-08T08:28:33.000Z</time></trkpt>
<trkpt lat="42.101179" lon="23.598859"><ele>2153.2</ele><time>2026-03-08T08:28:34.000Z</time></trkpt>
<trkpt lat="42.101179" lon="23.598845"><ele>2153.2</ele><time>2026-03-08T08:28:35.000Z</time></trkpt>
<trkpt lat="42.101178" lon="23.598832"><ele>2153.2</ele><time>2026-03-08T08:28:36.000Z</time></trkpt>
<trkpt lat="42.101178" lon="23.598818"><ele>2152.7</ele><time>2026-03-08T08:28:37.000Z</time></trkpt>
<trkpt lat="42.101177" lon="23.598804"><ele>2152.7</ele><time>2026-03-08T08:28:38.000Z</time></trkpt>
<trkpt lat="42.101177" lon="23.598791"><ele>2152.7</ele><time>2026-03-08T08:28:39.000Z</time></trkpt>
<trkpt lat="42.101177" lon="23.598777"><ele>2152.7</ele><time>2026-03-08T08:28:40.000Z</time></trkpt>
<trkpt lat="42.101177" lon="23.598763"><ele>2152.7</ele><time>2026-03-08T08:28:41.000Z</time></trkpt>
<trkpt lat="42.101178" lon="23.598748"><ele>2152.5</ele><time>2026-03-08T08:28:42.000Z</time></trkpt>
<trkpt lat="42.101178" lon="23.598734"><ele>2152.5</ele><time>2026-03-08T08:28:43.000Z</time></trkpt>
<trkpt lat="42.101177" lon="23.59872"><ele>2152.5</ele><time>2026-03-08T08:28:44.000Z</time></trkpt>
<trkpt lat="42.101177" lon="23.598707"><ele>2152.5</ele><time>2026-03-08T08:28:45.000Z</time></trkpt>
<trkpt lat="42.101176" lon="23.598693"><ele>2152.5</ele><time>2026-03-08T08:28:46.000Z</time></trkpt>
<trkpt lat="42.101175" lon="23.59868"><ele>2152.3</ele><time>2026-03-08T08:28:47.000Z</time></trkpt>
<trkpt lat="42.101174" lon="23.598668"><ele>2152.3</ele><time>2026-03-08T08:28:48.000Z</time></trkpt>
<trkpt lat="42.101173" lon="23.598656"><ele>2152.3</ele><time>2026-03-08T08:28:49.000Z</time></trkpt>
<trkpt lat="42.101173" lon="23.598644"><ele>2152.3</ele><time>2026-03-08T08:28:50.000Z</time></trkpt>
<trkpt lat="42.101173" lon="23.598633"><ele>2152.3</ele><time>2026-03-08T08:28:51.000Z</time></trkpt>
<trkpt lat="42.101172" lon="23.598622"><ele>2152.3</ele><time>2026-03-08T08:28:52.000Z</time></trkpt>
<trkpt lat="42.101171" lon="23.59861"><ele>2152.3</ele><time>2026-03-08T08:28:53.000Z</time></trkpt>
<trkpt lat="42.101171" lon="23.598598"><ele>2152.3</ele><time>2026-03-08T08:28:54.000Z</time></trkpt>
<trkpt lat="42.101169" lon="23.598586"><ele>2152.3</ele><time>2026-03-08T08:28:55.000Z</time></trkpt>
<trkpt lat="42.101168" lon="23.598574"><ele>2152.3</ele><time>2026-03-08T08:28:56.000Z</time></trkpt>
<trkpt lat="42.101166" lon="23.598562"><ele>2152.3</ele><time>2026-03-08T08:28:57.000Z</time></trkpt>
<trkpt lat="42.101164" lon="23.598551"><ele>2152.3</ele><time>2026-03-08T08:28:58.000Z</time></trkpt>
<trkpt lat="42.101162" lon="23.598539"><ele>2152.3</ele><time>2026-03-08T08:28:59.000Z</time></trkpt>
<trkpt lat="42.10116" lon="23.598527"><ele>2152.3</ele><time>2026-03-08T08:29:00.000Z</time></trkpt>
<trkpt lat="42.101158" lon="23.598515"><ele>2152.3</ele><time>2026-03-08T08:29:01.000Z</time></trkpt>
<trkpt lat="42.101157" lon="23.598502"><ele>2152.3</ele><time>2026-03-08T08:29:02.000Z</time></trkpt>
<trkpt lat="42.101155" lon="23.59849"><ele>2152.3</ele><time>2026-03-08T08:29:03.000Z</time></trkpt>
<trkpt lat="42.101152" lon="23.598479"><ele>2152.3</ele><time>2026-03-08T08:29:04.000Z</time></trkpt>
<trkpt lat="42.101149" lon="23.598469"><ele>2152.3</ele><time>2026-03-08T08:29:05.000Z</time></trkpt>
<trkpt lat="42.101146" lon="23.598459"><ele>2152.3</ele><time>2026-03-08T08:29:06.000Z</time></trkpt>
<trkpt lat="42.101142" lon="23.598449"><ele>2152.2</ele><time>2026-03-08T08:29:07.000Z</time></trkpt>
<trkpt lat="42.101138" lon="23.59844"><ele>2152.2</ele><time>2026-03-08T08:29:08.000Z</time></trkpt>
<trkpt lat="42.101135" lon="23.59843"><ele>2152.2</ele><time>2026-03-08T08:29:09.000Z</time></trkpt>
<trkpt lat="42.101132" lon="23.598419"><ele>2152.2</ele><time>2026-03-08T08:29:10.000Z</time></trkpt>
<trkpt lat="42.101128" lon="23.598407"><ele>2152.2</ele><time>2026-03-08T08:29:11.000Z</time></trkpt>
<trkpt lat="42.101126" lon="23.598395"><ele>2152.2</ele><time>2026-03-08T08:29:12.000Z</time></trkpt>
<trkpt lat="42.101123" lon="23.598382"><ele>2152.2</ele><time>2026-03-08T08:29:13.000Z</time></trkpt>
<trkpt lat="42.101122" lon="23.598368"><ele>2152.2</ele><time>2026-03-08T08:29:14.000Z</time></trkpt>
<trkpt lat="42.101121" lon="23.598355"><ele>2152.2</ele><time>2026-03-08T08:29:15.000Z</time></trkpt>
<trkpt lat="42.101121" lon="23.598343"><ele>2152.2</ele><time>2026-03-08T08:29:16.000Z</time></trkpt>
<trkpt lat="42.101122" lon="23.598332"><ele>2152.1</ele><time>2026-03-08T08:29:17.000Z</time></trkpt>
<trkpt lat="42.101123" lon="23.598322"><ele>2152.1</ele><time>2026-03-08T08:29:18.000Z</time></trkpt>
<trkpt lat="42.101123" lon="23.598312"><ele>2152.1</ele><time>2026-03-08T08:29:19.000Z</time></trkpt>
<trkpt lat="42.101123" lon="23.598303"><ele>2152.1</ele><time>2026-03-08T08:29:20.000Z</time></trkpt>
<trkpt lat="42.101124" lon="23.598294"><ele>2152.1</ele><time>2026-03-08T08:29:21.000Z</time></trkpt>
<trkpt lat="42.101124" lon="23.598282"><ele>2152</ele><time>2026-03-08T08:29:22.000Z</time></trkpt>
<trkpt lat="42.101124" lon="23.598272"><ele>2152</ele><time>2026-03-08T08:29:23.000Z</time></trkpt>
<trkpt lat="42.101125" lon="23.598262"><ele>2152</ele><time>2026-03-08T08:29:24.000Z</time></trkpt>
<trkpt lat="42.101126" lon="23.598251"><ele>2152</ele><time>2026-03-08T08:29:25.000Z</time></trkpt>
<trkpt lat="42.101126" lon="23.598241"><ele>2152</ele><time>2026-03-08T08:29:26.000Z</time></trkpt>
<trkpt lat="42.101128" lon="23.598231"><ele>2152</ele><time>2026-03-08T08:29:27.000Z</time></trkpt>
<trkpt lat="42.10113" lon="23.598222"><ele>2152</ele><time>2026-03-08T08:29:28.000Z</time></trkpt>
<trkpt lat="42.101131" lon="23.598214"><ele>2152</ele><time>2026-03-08T08:29:29.000Z</time></trkpt>
<trkpt lat="42.101133" lon="23.598206"><ele>2152</ele><time>2026-03-08T08:29:30.000Z</time></trkpt>
<trkpt lat="42.101134" lon="23.598196"><ele>2152</ele><time>2026-03-08T08:29:31.000Z</time></trkpt>
<trkpt lat="42.101136" lon="23.598187"><ele>2152.1</ele><time>2026-03-08T08:29:32.000Z</time></trkpt>
<trkpt lat="42.101137" lon="23.598178"><ele>2152.1</ele><time>2026-03-08T08:29:33.000Z</time></trkpt>
<trkpt lat="42.101139" lon="23.598169"><ele>2152.1</ele><time>2026-03-08T08:29:34.000Z</time></trkpt>
<trkpt lat="42.101141" lon="23.59816"><ele>2152.1</ele><time>2026-03-08T08:29:35.000Z</time></trkpt>
<trkpt lat="42.101143" lon="23.598151"><ele>2152.1</ele><time>2026-03-08T08:29:36.000Z</time></trkpt>
<trkpt lat="42.101145" lon="23.598143"><ele>2152.3</ele><time>2026-03-08T08:29:37.000Z</time></trkpt>
<trkpt lat="42.101147" lon="23.598135"><ele>2152.3</ele><time>2026-03-08T08:29:38.000Z</time></trkpt>
<trkpt lat="42.101147" lon="23.598129"><ele>2152.3</ele><time>2026-03-08T08:29:39.000Z</time></trkpt>
<trkpt lat="42.101146" lon="23.598124"><ele>2152.3</ele><time>2026-03-08T08:29:40.000Z</time></trkpt>
<trkpt lat="42.101145" lon="23.598122"><ele>2152.3</ele><time>2026-03-08T08:29:41.000Z</time></trkpt>
<trkpt lat="42.101144" lon="23.598122"><ele>2152.4</ele><time>2026-03-08T08:29:42.000Z</time></trkpt>
<trkpt lat="42.101142" lon="23.598121"><ele>2152.4</ele><time>2026-03-08T08:29:43.000Z</time></trkpt>
<trkpt lat="42.101142" lon="23.598121"><ele>2152.4</ele><time>2026-03-08T08:29:44.000Z</time></trkpt>
<trkpt lat="42.101141" lon="23.598121"><ele>2152.4</ele><time>2026-03-08T08:29:45.000Z</time></trkpt>
<trkpt lat="42.10114" lon="23.598121"><ele>2152.4</ele><time>2026-03-08T08:29:46.000Z</time></trkpt>
<trkpt lat="42.10114" lon="23.598121"><ele>2152.6</ele><time>2026-03-08T08:29:47.000Z</time></trkpt>
<trkpt lat="42.101141" lon="23.598122"><ele>2152.6</ele><time>2026-03-08T08:29:48.000Z</time></trkpt>
<trkpt lat="42.101141" lon="23.598122"><ele>2152.6</ele><time>2026-03-08T08:29:49.000Z</time></trkpt>
<trkpt lat="42.101142" lon="23.598123"><ele>2152.6</ele><time>2026-03-08T08:29:50.000Z</time></trkpt>
<trkpt lat="42.101143" lon="23.598123"><ele>2152.6</ele><time>2026-03-08T08:29:51.000Z</time></trkpt>
<trkpt lat="42.101143" lon="23.598123"><ele>2152.8</ele><time>2026-03-08T08:29:52.000Z</time></trkpt>
<trkpt lat="42.101143" lon="23.598123"><ele>2152.8</ele><time>2026-03-08T08:29:53.000Z</time></trkpt>
<trkpt lat="42.101143" lon="23.598123"><ele>2152.8</ele><time>2026-03-08T08:29:54.000Z</time></trkpt>
<trkpt lat="42.101143" lon="23.598123"><ele>2152.8</ele><time>2026-03-08T08:29:55.000Z</time></trkpt>
<trkpt lat="42.101143" lon="23.598123"><ele>2152.8</ele><time>2026-03-08T08:29:56.000Z</time></trkpt>
<trkpt lat="42.101143" lon="23.598123"><ele>2152.7</ele><time>2026-03-08T08:29:57.000Z</time></trkpt>
<trkpt lat="42.101143" lon="23.598123"><ele>2152.7</ele><time>2026-03-08T08:29:58.000Z</time></trkpt>
<trkpt lat="42.101143" lon="23.598123"><ele>2152.7</ele><time>2026-03-08T08:29:59.000Z</time></trkpt>
<trkpt lat="42.101143" lon="23.598122"><ele>2152.7</ele><time>2026-03-08T08:30:00.000Z</time></trkpt>
<trkpt lat="42.101144" lon="23.598122"><ele>2152.7</ele><time>2026-03-08T08:30:01.000Z</time></trkpt>
<trkpt lat="42.101144" lon="23.598122"><ele>2152.6</ele><time>2026-03-08T08:30:02.000Z</time></trkpt>
<trkpt lat="42.101145" lon="23.598122"><ele>2152.6</ele><time>2026-03-08T08:30:03.000Z</time></trkpt>
<trkpt lat="42.101145" lon="23.598122"><ele>2152.6</ele><time>2026-03-08T08:30:04.000Z</time></trkpt>
<trkpt lat="42.101145" lon="23.598122"><ele>2152.6</ele><time>2026-03-08T08:30:05.000Z</time></trkpt>
<trkpt lat="42.101144" lon="23.598122"><ele>2152.6</ele><time>2026-03-08T08:30:06.000Z</time></trkpt>
<trkpt lat="42.101143" lon="23.598122"><ele>2152.4</ele><time>2026-03-08T08:30:07.000Z</time></trkpt>
<trkpt lat="42.101142" lon="23.598122"><ele>2152.4</ele><time>2026-03-08T08:30:08.000Z</time></trkpt>
<trkpt lat="42.101141" lon="23.598122"><ele>2152.4</ele><time>2026-03-08T08:30:09.000Z</time></trkpt>
<trkpt lat="42.10114" lon="23.598122"><ele>2152.4</ele><time>2026-03-08T08:30:10.000Z</time></trkpt>
<trkpt lat="42.101139" lon="23.598122"><ele>2152.4</ele><time>2026-03-08T08:30:11.000Z</time></trkpt>
<trkpt lat="42.101139" lon="23.598122"><ele>2152.4</ele><time>2026-03-08T08:30:12.000Z</time></trkpt>
<trkpt lat="42.101139" lon="23.598122"><ele>2152.4</ele><time>2026-03-08T08:30:13.000Z</time></trkpt>
<trkpt lat="42.101139" lon="23.598122"><ele>2152.4</ele><time>2026-03-08T08:30:14.000Z</time></trkpt>
<trkpt lat="42.101139" lon="23.598122"><ele>2152.4</ele><time>2026-03-08T08:30:15.000Z</time></trkpt>
<trkpt lat="42.101139" lon="23.598122"><ele>2152.4</ele><time>2026-03-08T08:30:16.000Z</time></trkpt>
<trkpt lat="42.10114" lon="23.598122"><ele>2152.4</ele><time>2026-03-08T08:30:17.000Z</time></trkpt>
<trkpt lat="42.101141" lon="23.598122"><ele>2152.4</ele><time>2026-03-08T08:30:18.000Z</time></trkpt>
<trkpt lat="42.101142" lon="23.598122"><ele>2152.4</ele><time>2026-03-08T08:30:19.000Z</time></trkpt>
<trkpt lat="42.101143" lon="23.598122"><ele>2152.4</ele><time>2026-03-08T08:30:20.000Z</time></trkpt>
<trkpt lat="42.101144" lon="23.598122"><ele>2152.4</ele><time>2026-03-08T08:30:21.000Z</time></trkpt>
<trkpt lat="42.101144" lon="23.598123"><ele>2152.5</ele><time>2026-03-08T08:30:22.000Z</time></trkpt>
<trkpt lat="42.101144" lon="23.598123"><ele>2152.5</ele><time>2026-03-08T08:30:23.000Z</time></trkpt>
<trkpt lat="42.101145" lon="23.598123"><ele>2152.5</ele><time>2026-03-08T08:30:24.000Z</time></trkpt>
<trkpt lat="42.101145" lon="23.598123"><ele>2152.5</ele><time>2026-03-08T08:30:25.000Z</time></trkpt>
<trkpt lat="42.101145" lon="23.598123"><ele>2152.5</ele><time>2026-03-08T08:30:26.000Z</time></trkpt>
<trkpt lat="42.101145" lon="23.598123"><ele>2152.5</ele><time>2026-03-08T08:30:27.000Z</time></trkpt>
<trkpt lat="42.101145" lon="23.598123"><ele>2152.5</ele><time>2026-03-08T08:30:28.000Z</time></trkpt>
<trkpt lat="42.101145" lon="23.598123"><ele>2152.5</ele><time>2026-03-08T08:30:29.000Z</time></trkpt>
<trkpt lat="42.101145" lon="23.598123"><ele>2152.5</ele><time>2026-03-08T08:30:30.000Z</time></trkpt>
<trkpt lat="42.101145" lon="23.598123"><ele>2152.5</ele><time>2026-03-08T08:30:31.000Z</time></trkpt>
<trkpt lat="42.101145" lon="23.598123"><ele>2152.6</ele><time>2026-03-08T08:30:32.000Z</time></trkpt>
<trkpt lat="42.101145" lon="23.598123"><ele>2152.6</ele><time>2026-03-08T08:30:33.000Z</time></trkpt>
<trkpt lat="42.101145" lon="23.598123"><ele>2152.6</ele><time>2026-03-08T08:30:34.000Z</time></trkpt>
<trkpt lat="42.101145" lon="23.598124"><ele>2152.6</ele><time>2026-03-08T08:30:35.000Z</time></trkpt>
<trkpt lat="42.101144" lon="23.598124"><ele>2152.6</ele><time>2026-03-08T08:30:36.000Z</time></trkpt>
<trkpt lat="42.101144" lon="23.598124"><ele>2152.7</ele><time>2026-03-08T08:30:37.000Z</time></trkpt>
<trkpt lat="42.101144" lon="23.598124"><ele>2152.7</ele><time>2026-03-08T08:30:38.000Z</time></trkpt>
<trkpt lat="42.101144" lon="23.598124"><ele>2152.7</ele><time>2026-03-08T08:30:39.000Z</time></trkpt>
<trkpt lat="42.101144" lon="23.598124"><ele>2152.7</ele><time>2026-03-08T08:30:40.000Z</time></trkpt>
<trkpt lat="42.101144" lon="23.598124"><ele>2152.7</ele><time>2026-03-08T08:30:41.000Z</time></trkpt>
<trkpt lat="42.101144" lon="23.598125"><ele>2152.7</ele><time>2026-03-08T08:30:42.000Z</time></trkpt>
<trkpt lat="42.101144" lon="23.598125"><ele>2152.7</ele><time>2026-03-08T08:30:43.000Z</time></trkpt>
<trkpt lat="42.101144" lon="23.598125"><ele>2152.7</ele><time>2026-03-08T08:30:44.000Z</time></trkpt>
<trkpt lat="42.101144" lon="23.598126"><ele>2152.7</ele><time>2026-03-08T08:30:45.000Z</time></trkpt>
<trkpt lat="42.101144" lon="23.598127"><ele>2152.7</ele><time>2026-03-08T08:30:46.000Z</time></trkpt>
<trkpt lat="42.101144" lon="23.598127"><ele>2152.6</ele><time>2026-03-08T08:30:47.000Z</time></trkpt>
<trkpt lat="42.101143" lon="23.598128"><ele>2152.6</ele><time>2026-03-08T08:30:48.000Z</time></trkpt>
<trkpt lat="42.101143" lon="23.598128"><ele>2152.6</ele><time>2026-03-08T08:30:49.000Z</time></trkpt>
<trkpt lat="42.101143" lon="23.598128"><ele>2152.6</ele><time>2026-03-08T08:30:50.000Z</time></trkpt>
<trkpt lat="42.101143" lon="23.598127"><ele>2152.6</ele><time>2026-03-08T08:30:51.000Z</time></trkpt>
<trkpt lat="42.101143" lon="23.598127"><ele>2152.5</ele><time>2026-03-08T08:30:52.000Z</time></trkpt>
<trkpt lat="42.101143" lon="23.598127"><ele>2152.5</ele><time>2026-03-08T08:30:53.000Z</time></trkpt>
<trkpt lat="42.101143" lon="23.598127"><ele>2152.5</ele><time>2026-03-08T08:30:54.000Z</time></trkpt>
<trkpt lat="42.101143" lon="23.598127"><ele>2152.5</ele><time>2026-03-08T08:30:55.000Z</time></trkpt>
<trkpt lat="42.101143" lon="23.598127"><ele>2152.5</ele><time>2026-03-08T08:30:56.000Z</time></trkpt>
<trkpt lat="42.101143" lon="23.598127"><ele>2152.5</ele><time>2026-03-08T08:30:57.000Z</time></trkpt>
<trkpt lat="42.101143" lon="23.598127"><ele>2152.5</ele><time>2026-03-08T08:30:58.000Z</time></trkpt>
<trkpt lat="42.101144" lon="23.598127"><ele>2152.5</ele><time>2026-03-08T08:30:59.000Z</time></trkpt>
<trkpt lat="42.101145" lon="23.598127"><ele>2152.5</ele><time>2026-03-08T08:31:00.000Z</time></trkpt>
<trkpt lat="42.101146" lon="23.598127"><ele>2152.5</ele><time>2026-03-08T08:31:01.000Z</time></trkpt>
<trkpt lat="42.101147" lon="23.598127"><ele>2152.5</ele><time>2026-03-08T08:31:02.000Z</time></trkpt>
<trkpt lat="42.101148" lon="23.598128"><ele>2152.5</ele><time>2026-03-08T08:31:03.000Z</time></trkpt>
<trkpt lat="42.101148" lon="23.598127"><ele>2152.5</ele><time>2026-03-08T08:31:04.000Z</time></trkpt>
<trkpt lat="42.101149" lon="23.598126"><ele>2152.5</ele><time>2026-03-08T08:31:05.000Z</time></trkpt>
<trkpt lat="42.101149" lon="23.598125"><ele>2152.5</ele><time>2026-03-08T08:31:06.000Z</time></trkpt>
<trkpt lat="42.101149" lon="23.598125"><ele>2152.4</ele><time>2026-03-08T08:31:07.000Z</time></trkpt>
<trkpt lat="42.101149" lon="23.598124"><ele>2152.4</ele><time>2026-03-08T08:31:08.000Z</time></trkpt>
<trkpt lat="42.101149" lon="23.598124"><ele>2152.4</ele><time>2026-03-08T08:31:09.000Z</time></trkpt>
<trkpt lat="42.101149" lon="23.598124"><ele>2152.4</ele><time>2026-03-08T08:31:10.000Z</time></trkpt>
<trkpt lat="42.101149" lon="23.598124"><ele>2152.4</ele><time>2026-03-08T08:31:11.000Z</time></trkpt>
<trkpt lat="42.101149" lon="23.598124"><ele>2152.4</ele><time>2026-03-08T08:31:12.000Z</time></trkpt>
<trkpt lat="42.101149" lon="23.598124"><ele>2152.4</ele><time>2026-03-08T08:31:13.000Z</time></trkpt>
<trkpt lat="42.101149" lon="23.598124"><ele>2152.4</ele><time>2026-03-08T08:31:14.000Z</time></trkpt>
<trkpt lat="42.101149" lon="23.598124"><ele>2152.4</ele><time>2026-03-08T08:31:15.000Z</time></trkpt>
<trkpt lat="42.10115" lon="23.598123"><ele>2152.4</ele><time>2026-03-08T08:31:16.000Z</time></trkpt>
<trkpt lat="42.101149" lon="23.598121"><ele>2152.4</ele><time>2026-03-08T08:31:17.000Z</time></trkpt>
<trkpt lat="42.101149" lon="23.598121"><ele>2152.4</ele><time>2026-03-08T08:31:18.000Z</time></trkpt>
<trkpt lat="42.101148" lon="23.598119"><ele>2152.4</ele><time>2026-03-08T08:31:19.000Z</time></trkpt>
<trkpt lat="42.101148" lon="23.598118"><ele>2152.4</ele><time>2026-03-08T08:31:20.000Z</time></trkpt>
<trkpt lat="42.101147" lon="23.598117"><ele>2152.4</ele><time>2026-03-08T08:31:21.000Z</time></trkpt>
<trkpt lat="42.101147" lon="23.598117"><ele>2152.4</ele><time>2026-03-08T08:31:22.000Z</time></trkpt>
<trkpt lat="42.101147" lon="23.598116"><ele>2152.4</ele><time>2026-03-08T08:31:23.000Z</time></trkpt>
<trkpt lat="42.101147" lon="23.598115"><ele>2152.4</ele><time>2026-03-08T08:31:24.000Z</time></trkpt>
<trkpt lat="42.101146" lon="23.598114"><ele>2152.4</ele><time>2026-03-08T08:31:25.000Z</time></trkpt>
<trkpt lat="42.101146" lon="23.598114"><ele>2152.4</ele><time>2026-03-08T08:31:26.000Z</time></trkpt>
<trkpt lat="42.101147" lon="23.598114"><ele>2152.5</ele><time>2026-03-08T08:31:27.000Z</time></trkpt>
<trkpt lat="42.101147" lon="23.598113"><ele>2152.5</ele><time>2026-03-08T08:31:28.000Z</time></trkpt>
<trkpt lat="42.101147" lon="23.598113"><ele>2152.5</ele><time>2026-03-08T08:31:29.000Z</time></trkpt>
<trkpt lat="42.101147" lon="23.598113"><ele>2152.5</ele><time>2026-03-08T08:31:30.000Z</time></trkpt>
<trkpt lat="42.101147" lon="23.598112"><ele>2152.5</ele><time>2026-03-08T08:31:31.000Z</time></trkpt>
<trkpt lat="42.101147" lon="23.598112"><ele>2152.7</ele><time>2026-03-08T08:31:32.000Z</time></trkpt>
<trkpt lat="42.101147" lon="23.598112"><ele>2152.7</ele><time>2026-03-08T08:31:33.000Z</time></trkpt>
<trkpt lat="42.101147" lon="23.598112"><ele>2152.7</ele><time>2026-03-08T08:31:34.000Z</time></trkpt>
<trkpt lat="42.101147" lon="23.598112"><ele>2152.7</ele><time>2026-03-08T08:31:35.000Z</time></trkpt>
<trkpt lat="42.101147" lon="23.598112"><ele>2152.7</ele><time>2026-03-08T08:31:36.000Z</time></trkpt>
<trkpt lat="42.101147" lon="23.598112"><ele>2152.7</ele><time>2026-03-08T08:31:37.000Z</time></trkpt>
<trkpt lat="42.101147" lon="23.598112"><ele>2152.7</ele><time>2026-03-08T08:31:38.000Z</time></trkpt>
<trkpt lat="42.101147" lon="23.598112"><ele>2152.7</ele><time>2026-03-08T08:31:39.000Z</time></trkpt>
<trkpt lat="42.101147" lon="23.598112"><ele>2152.7</ele><time>2026-03-08T08:31:40.000Z</time></trkpt>
<trkpt lat="42.101147" lon="23.598112"><ele>2152.7</ele><time>2026-03-08T08:31:41.000Z</time></trkpt>
<trkpt lat="42.101147" lon="23.598113"><ele>2152.7</ele><time>2026-03-08T08:31:42.000Z</time></trkpt>
<trkpt lat="42.101147" lon="23.598113"><ele>2152.7</ele><time>2026-03-08T08:31:43.000Z</time></trkpt>
<trkpt lat="42.101146" lon="23.598113"><ele>2152.7</ele><time>2026-03-08T08:31:44.000Z</time></trkpt>
<trkpt lat="42.101146" lon="23.598113"><ele>2152.7</ele><time>2026-03-08T08:31:45.000Z</time></trkpt>
<trkpt lat="42.101146" lon="23.598113"><ele>2152.7</ele><time>2026-03-08T08:31:46.000Z</time></trkpt>
<trkpt lat="42.101146" lon="23.598113"><ele>2152.6</ele><time>2026-03-08T08:31:47.000Z</time></trkpt>
<trkpt lat="42.101146" lon="23.598113"><ele>2152.6</ele><time>2026-03-08T08:31:48.000Z</time></trkpt>
<trkpt lat="42.101146" lon="23.598113"><ele>2152.6</ele><time>2026-03-08T08:31:49.000Z</time></trkpt>
<trkpt lat="42.101146" lon="23.598113"><ele>2152.6</ele><time>2026-03-08T08:31:50.000Z</time></trkpt>
<trkpt lat="42.101146" lon="23.598113"><ele>2152.6</ele><time>2026-03-08T08:31:51.000Z</time></trkpt>
<trkpt lat="42.101146" lon="23.598113"><ele>2152.6</ele><time>2026-03-08T08:31:52.000Z</time></trkpt>
<trkpt lat="42.101146" lon="23.598113"><ele>2152.6</ele><time>2026-03-08T08:31:53.000Z</time></trkpt>
<trkpt lat="42.101146" lon="23.598113"><ele>2152.6</ele><time>2026-03-08T08:31:54.000Z</time></trkpt>
<trkpt lat="42.101146" lon="23.598111"><ele>2152.6</ele><time>2026-03-08T08:31:55.000Z</time></trkpt>
<trkpt lat="42.101147" lon="23.598106"><ele>2152.6</ele><time>2026-03-08T08:31:56.000Z</time></trkpt>
<trkpt lat="42.101147" lon="23.598098"><ele>2152.6</ele><time>2026-03-08T08:31:57.000Z</time></trkpt>
<trkpt lat="42.101146" lon="23.598087"><ele>2152.6</ele><time>2026-03-08T08:31:58.000Z</time></trkpt>
<trkpt lat="42.101147" lon="23.598074"><ele>2152.6</ele><time>2026-03-08T08:31:59.000Z</time></trkpt>
<trkpt lat="42.101147" lon="23.59806"><ele>2152.6</ele><time>2026-03-08T08:32:00.000Z</time></trkpt>
<trkpt lat="42.101146" lon="23.598047"><ele>2152.6</ele><time>2026-03-08T08:32:01.000Z</time></trkpt>
<trkpt lat="42.101146" lon="23.598034"><ele>2152.7</ele><time>2026-03-08T08:32:02.000Z</time></trkpt>
<trkpt lat="42.101145" lon="23.598022"><ele>2152.7</ele><time>2026-03-08T08:32:03.000Z</time></trkpt>
<trkpt lat="42.101145" lon="23.598009"><ele>2152.7</ele><time>2026-03-08T08:32:04.000Z</time></trkpt>
<trkpt lat="42.101146" lon="23.597996"><ele>2152.7</ele><time>2026-03-08T08:32:05.000Z</time></trkpt>
<trkpt lat="42.101148" lon="23.597984"><ele>2152.7</ele><time>2026-03-08T08:32:06.000Z</time></trkpt>
<trkpt lat="42.10115" lon="23.597972"><ele>2152.9</ele><time>2026-03-08T08:32:07.000Z</time></trkpt>
<trkpt lat="42.101153" lon="23.597961"><ele>2152.9</ele><time>2026-03-08T08:32:08.000Z</time></trkpt>
<trkpt lat="42.101156" lon="23.59795"><ele>2152.9</ele><time>2026-03-08T08:32:09.000Z</time></trkpt>
<trkpt lat="42.101158" lon="23.597939"><ele>2152.9</ele><time>2026-03-08T08:32:10.000Z</time></trkpt>
<trkpt lat="42.101159" lon="23.597928"><ele>2152.9</ele><time>2026-03-08T08:32:11.000Z</time></trkpt>
<trkpt lat="42.10116" lon="23.597915"><ele>2152.9</ele><time>2026-03-08T08:32:12.000Z</time></trkpt>
<trkpt lat="42.10116" lon="23.597902"><ele>2152.9</ele><time>2026-03-08T08:32:13.000Z</time></trkpt>
<trkpt lat="42.101161" lon="23.597889"><ele>2152.9</ele><time>2026-03-08T08:32:14.000Z</time></trkpt>
<trkpt lat="42.101163" lon="23.597876"><ele>2152.9</ele><time>2026-03-08T08:32:15.000Z</time></trkpt>
<trkpt lat="42.101165" lon="23.597864"><ele>2152.9</ele><time>2026-03-08T08:32:16.000Z</time></trkpt>
<trkpt lat="42.101166" lon="23.597851"><ele>2153</ele><time>2026-03-08T08:32:17.000Z</time></trkpt>
<trkpt lat="42.101167" lon="23.597838"><ele>2153</ele><time>2026-03-08T08:32:18.000Z</time></trkpt>
<trkpt lat="42.101168" lon="23.597825"><ele>2153</ele><time>2026-03-08T08:32:19.000Z</time></trkpt>
<trkpt lat="42.101168" lon="23.597811"><ele>2153</ele><time>2026-03-08T08:32:20.000Z</time></trkpt>
<trkpt lat="42.101167" lon="23.597796"><ele>2153</ele><time>2026-03-08T08:32:21.000Z</time></trkpt>
<trkpt lat="42.101167" lon="23.597782"><ele>2153.1</ele><time>2026-03-08T08:32:22.000Z</time></trkpt>
<trkpt lat="42.101166" lon="23.597767"><ele>2153.1</ele><time>2026-03-08T08:32:23.000Z</time></trkpt>
<trkpt lat="42.101165" lon="23.597754"><ele>2153.1</ele><time>2026-03-08T08:32:24.000Z</time></trkpt>
<trkpt lat="42.101165" lon="23.59774"><ele>2153.1</ele><time>2026-03-08T08:32:25.000Z</time></trkpt>
<trkpt lat="42.101164" lon="23.597727"><ele>2153.1</ele><time>2026-03-08T08:32:26.000Z</time></trkpt>
<trkpt lat="42.101162" lon="23.597713"><ele>2153.2</ele><time>2026-03-08T08:32:27.000Z</time></trkpt>
<trkpt lat="42.101161" lon="23.5977"><ele>2153.2</ele><time>2026-03-08T08:32:28.000Z</time></trkpt>
<trkpt lat="42.10116" lon="23.597687"><ele>2153.2</ele><time>2026-03-08T08:32:29.000Z</time></trkpt>
<trkpt lat="42.10116" lon="23.597674"><ele>2153.2</ele><time>2026-03-08T08:32:30.000Z</time></trkpt>
<trkpt lat="42.101158" lon="23.597662"><ele>2153.2</ele><time>2026-03-08T08:32:31.000Z</time></trkpt>
<trkpt lat="42.101158" lon="23.59765"><ele>2153.5</ele><time>2026-03-08T08:32:32.000Z</time></trkpt>
<trkpt lat="42.101157" lon="23.597639"><ele>2153.5</ele><time>2026-03-08T08:32:33.000Z</time></trkpt>
<trkpt lat="42.101155" lon="23.597627"><ele>2153.5</ele><time>2026-03-08T08:32:34.000Z</time></trkpt>
<trkpt lat="42.101153" lon="23.597616"><ele>2153.5</ele><time>2026-03-08T08:32:35.000Z</time></trkpt>
<trkpt lat="42.101152" lon="23.597604"><ele>2153.5</ele><time>2026-03-08T08:32:36.000Z</time></trkpt>
<trkpt lat="42.101151" lon="23.597593"><ele>2153.9</ele><time>2026-03-08T08:32:37.000Z</time></trkpt>
<trkpt lat="42.10115" lon="23.597581"><ele>2153.9</ele><time>2026-03-08T08:32:38.000Z</time></trkpt>
<trkpt lat="42.10115" lon="23.597571"><ele>2153.9</ele><time>2026-03-08T08:32:39.000Z</time></trkpt>
<trkpt lat="42.10115" lon="23.597561"><ele>2153.9</ele><time>2026-03-08T08:32:40.000Z</time></trkpt>
<trkpt lat="42.101151" lon="23.597551"><ele>2153.9</ele><time>2026-03-08T08:32:41.000Z</time></trkpt>
<trkpt lat="42.101152" lon="23.59754"><ele>2154.1</ele><time>2026-03-08T08:32:42.000Z</time></trkpt>
<trkpt lat="42.101153" lon="23.59753"><ele>2154.1</ele><time>2026-03-08T08:32:43.000Z</time></trkpt>
<trkpt lat="42.101155" lon="23.597519"><ele>2154.1</ele><time>2026-03-08T08:32:44.000Z</time></trkpt>
<trkpt lat="42.101157" lon="23.597508"><ele>2154.1</ele><time>2026-03-08T08:32:45.000Z</time></trkpt>
<trkpt lat="42.101159" lon="23.597498"><ele>2154.1</ele><time>2026-03-08T08:32:46.000Z</time></trkpt>
<trkpt lat="42.101161" lon="23.597489"><ele>2154.4</ele><time>2026-03-08T08:32:47.000Z</time></trkpt>
<trkpt lat="42.101163" lon="23.597478"><ele>2154.4</ele><time>2026-03-08T08:32:48.000Z</time></trkpt>
<trkpt lat="42.101163" lon="23.597469"><ele>2154.4</ele><time>2026-03-08T08:32:49.000Z</time></trkpt>
<trkpt lat="42.101164" lon="23.597458"><ele>2154.4</ele><time>2026-03-08T08:32:50.000Z</time></trkpt>
<trkpt lat="42.101164" lon="23.597447"><ele>2154.4</ele><time>2026-03-08T08:32:51.000Z</time></trkpt>
<trkpt lat="42.101163" lon="23.597435"><ele>2154.6</ele><time>2026-03-08T08:32:52.000Z</time></trkpt>
<trkpt lat="42.101162" lon="23.597424"><ele>2154.6</ele><time>2026-03-08T08:32:53.000Z</time></trkpt>
<trkpt lat="42.101162" lon="23.597413"><ele>2154.6</ele><time>2026-03-08T08:32:54.000Z</time></trkpt>
<trkpt lat="42.10116" lon="23.597402"><ele>2154.6</ele><time>2026-03-08T08:32:55.000Z</time></trkpt>
<trkpt lat="42.101159" lon="23.597391"><ele>2154.6</ele><time>2026-03-08T08:32:56.000Z</time></trkpt>
<trkpt lat="42.101157" lon="23.597381"><ele>2154.7</ele><time>2026-03-08T08:32:57.000Z</time></trkpt>
<trkpt lat="42.101154" lon="23.59737"><ele>2154.7</ele><time>2026-03-08T08:32:58.000Z</time></trkpt>
<trkpt lat="42.101152" lon="23.597358"><ele>2154.7</ele><time>2026-03-08T08:32:59.000Z</time></trkpt>
<trkpt lat="42.101149" lon="23.597346"><ele>2154.7</ele><time>2026-03-08T08:33:00.000Z</time></trkpt>
<trkpt lat="42.101147" lon="23.597335"><ele>2154.7</ele><time>2026-03-08T08:33:01.000Z</time></trkpt>
<trkpt lat="42.101145" lon="23.597323"><ele>2155</ele><time>2026-03-08T08:33:02.000Z</time></trkpt>
<trkpt lat="42.101144" lon="23.59731"><ele>2155</ele><time>2026-03-08T08:33:03.000Z</time></trkpt>
<trkpt lat="42.101142" lon="23.597298"><ele>2155</ele><time>2026-03-08T08:33:04.000Z</time></trkpt>
<trkpt lat="42.101142" lon="23.597286"><ele>2155</ele><time>2026-03-08T08:33:05.000Z</time></trkpt>
<trkpt lat="42.101142" lon="23.597274"><ele>2155</ele><time>2026-03-08T08:33:06.000Z</time></trkpt>
<trkpt lat="42.101142" lon="23.597262"><ele>2155.3</ele><time>2026-03-08T08:33:07.000Z</time></trkpt>
<trkpt lat="42.101142" lon="23.597251"><ele>2155.3</ele><time>2026-03-08T08:33:08.000Z</time></trkpt>
<trkpt lat="42.101142" lon="23.59724"><ele>2155.3</ele><time>2026-03-08T08:33:09.000Z</time></trkpt>
<trkpt lat="42.101142" lon="23.597228"><ele>2155.3</ele><time>2026-03-08T08:33:10.000Z</time></trkpt>
<trkpt lat="42.101141" lon="23.597217"><ele>2155.3</ele><time>2026-03-08T08:33:11.000Z</time></trkpt>
<trkpt lat="42.10114" lon="23.597206"><ele>2155.5</ele><time>2026-03-08T08:33:12.000Z</time></trkpt>
<trkpt lat="42.101139" lon="23.597195"><ele>2155.5</ele><time>2026-03-08T08:33:13.000Z</time></trkpt>
<trkpt lat="42.101136" lon="23.597184"><ele>2155.5</ele><time>2026-03-08T08:33:14.000Z</time></trkpt>
<trkpt lat="42.101134" lon="23.597173"><ele>2155.5</ele><time>2026-03-08T08:33:15.000Z</time></trkpt>
<trkpt lat="42.101131" lon="23.597162"><ele>2155.5</ele><time>2026-03-08T08:33:16.000Z</time></trkpt>
<trkpt lat="42.101129" lon="23.59715"><ele>2155.8</ele><time>2026-03-08T08:33:17.000Z</time></trkpt>
<trkpt lat="42.101127" lon="23.59714"><ele>2155.8</ele><time>2026-03-08T08:33:18.000Z</time></trkpt>
<trkpt lat="42.101127" lon="23.59713"><ele>2155.8</ele><time>2026-03-08T08:33:19.000Z</time></trkpt>
<trkpt lat="42.101126" lon="23.597119"><ele>2155.8</ele><time>2026-03-08T08:33:20.000Z</time></trkpt>
<trkpt lat="42.101125" lon="23.597109"><ele>2155.8</ele><time>2026-03-08T08:33:21.000Z</time></trkpt>
<trkpt lat="42.101125" lon="23.597101"><ele>2156</ele><time>2026-03-08T08:33:22.000Z</time></trkpt>
<trkpt lat="42.101123" lon="23.597092"><ele>2156</ele><time>2026-03-08T08:33:23.000Z</time></trkpt>
<trkpt lat="42.101121" lon="23.597082"><ele>2156</ele><time>2026-03-08T08:33:24.000Z</time></trkpt>
<trkpt lat="42.101119" lon="23.597073"><ele>2156</ele><time>2026-03-08T08:33:25.000Z</time></trkpt>
<trkpt lat="42.101117" lon="23.597063"><ele>2156</ele><time>2026-03-08T08:33:26.000Z</time></trkpt>
<trkpt lat="42.101116" lon="23.597053"><ele>2156.1</ele><time>2026-03-08T08:33:27.000Z</time></trkpt>
<trkpt lat="42.101114" lon="23.597043"><ele>2156.1</ele><time>2026-03-08T08:33:28.000Z</time></trkpt>
<trkpt lat="42.101113" lon="23.597034"><ele>2156.1</ele><time>2026-03-08T08:33:29.000Z</time></trkpt>
<trkpt lat="42.101113" lon="23.597025"><ele>2156.1</ele><time>2026-03-08T08:33:30.000Z</time></trkpt>
<trkpt lat="42.101111" lon="23.597015"><ele>2156.1</ele><time>2026-03-08T08:33:31.000Z</time></trkpt>
<trkpt lat="42.101109" lon="23.597008"><ele>2156.5</ele><time>2026-03-08T08:33:32.000Z</time></trkpt>
<trkpt lat="42.101108" lon="23.596999"><ele>2156.5</ele><time>2026-03-08T08:33:33.000Z</time></trkpt>
<trkpt lat="42.101105" lon="23.59699"><ele>2156.5</ele><time>2026-03-08T08:33:34.000Z</time></trkpt>
<trkpt lat="42.101103" lon="23.596982"><ele>2156.5</ele><time>2026-03-08T08:33:35.000Z</time></trkpt>
<trkpt lat="42.101101" lon="23.596975"><ele>2156.5</ele><time>2026-03-08T08:33:36.000Z</time></trkpt>
<trkpt lat="42.101099" lon="23.596968"><ele>2157.2</ele><time>2026-03-08T08:33:37.000Z</time></trkpt>
<trkpt lat="42.101098" lon="23.59696"><ele>2157.2</ele><time>2026-03-08T08:33:38.000Z</time></trkpt>
<trkpt lat="42.101097" lon="23.596951"><ele>2157.2</ele><time>2026-03-08T08:33:39.000Z</time></trkpt>
<trkpt lat="42.101095" lon="23.596942"><ele>2157.2</ele><time>2026-03-08T08:33:40.000Z</time></trkpt>
<trkpt lat="42.101093" lon="23.596932"><ele>2157.2</ele><time>2026-03-08T08:33:41.000Z</time></trkpt>
<trkpt lat="42.101091" lon="23.596921"><ele>2157.6</ele><time>2026-03-08T08:33:42.000Z</time></trkpt>
<trkpt lat="42.101089" lon="23.596911"><ele>2157.6</ele><time>2026-03-08T08:33:43.000Z</time></trkpt>
<trkpt lat="42.101088" lon="23.596903"><ele>2157.6</ele><time>2026-03-08T08:33:44.000Z</time></trkpt>
<trkpt lat="42.101086" lon="23.596893"><ele>2157.6</ele><time>2026-03-08T08:33:45.000Z</time></trkpt>
<trkpt lat="42.101085" lon="23.596885"><ele>2157.6</ele><time>2026-03-08T08:33:46.000Z</time></trkpt>
<trkpt lat="42.101085" lon="23.596876"><ele>2158.3</ele><time>2026-03-08T08:33:47.000Z</time></trkpt>
<trkpt lat="42.101084" lon="23.596866"><ele>2158.3</ele><time>2026-03-08T08:33:48.000Z</time></trkpt>
<trkpt lat="42.101082" lon="23.596857"><ele>2158.3</ele><time>2026-03-08T08:33:49.000Z</time></trkpt>
<trkpt lat="42.101081" lon="23.596848"><ele>2158.3</ele><time>2026-03-08T08:33:50.000Z</time></trkpt>
<trkpt lat="42.10108" lon="23.596839"><ele>2158.3</ele><time>2026-03-08T08:33:51.000Z</time></trkpt>
<trkpt lat="42.101078" lon="23.59683"><ele>2158.9</ele><time>2026-03-08T08:33:52.000Z</time></trkpt>
<trkpt lat="42.101075" lon="23.596822"><ele>2158.9</ele><time>2026-03-08T08:33:53.000Z</time></trkpt>
<trkpt lat="42.101073" lon="23.596814"><ele>2158.9</ele><time>2026-03-08T08:33:54.000Z</time></trkpt>
<trkpt lat="42.10107" lon="23.596806"><ele>2158.9</ele><time>2026-03-08T08:33:55.000Z</time></trkpt>
<trkpt lat="42.101068" lon="23.596795"><ele>2158.9</ele><time>2026-03-08T08:33:56.000Z</time></trkpt>
<trkpt lat="42.101066" lon="23.596785"><ele>2159.1</ele><time>2026-03-08T08:33:57.000Z</time></trkpt>
<trkpt lat="42.101064" lon="23.596775"><ele>2159.1</ele><time>2026-03-08T08:33:58.000Z</time></trkpt>
<trkpt lat="42.101062" lon="23.596764"><ele>2159.1</ele><time>2026-03-08T08:33:59.000Z</time></trkpt>
<trkpt lat="42.10106" lon="23.596754"><ele>2159.1</ele><time>2026-03-08T08:34:00.000Z</time></trkpt>
<trkpt lat="42.101058" lon="23.596745"><ele>2159.1</ele><time>2026-03-08T08:34:01.000Z</time></trkpt>
<trkpt lat="42.101055" lon="23.596735"><ele>2159.5</ele><time>2026-03-08T08:34:02.000Z</time></trkpt>
<trkpt lat="42.101053" lon="23.596726"><ele>2159.5</ele><time>2026-03-08T08:34:03.000Z</time></trkpt>
<trkpt lat="42.10105" lon="23.59672"><ele>2159.5</ele><time>2026-03-08T08:34:04.000Z</time></trkpt>
<trkpt lat="42.101047" lon="23.596713"><ele>2159.5</ele><time>2026-03-08T08:34:05.000Z</time></trkpt>
<trkpt lat="42.101044" lon="23.596706"><ele>2159.5</ele><time>2026-03-08T08:34:06.000Z</time></trkpt>
<trkpt lat="42.101043" lon="23.596699"><ele>2160</ele><time>2026-03-08T08:34:07.000Z</time></trkpt>
<trkpt lat="42.10104" lon="23.59669"><ele>2160</ele><time>2026-03-08T08:34:08.000Z</time></trkpt>
<trkpt lat="42.101039" lon="23.59668"><ele>2160</ele><time>2026-03-08T08:34:09.000Z</time></trkpt>
<trkpt lat="42.101039" lon="23.596668"><ele>2160</ele><time>2026-03-08T08:34:10.000Z</time></trkpt>
<trkpt lat="42.101038" lon="23.596657"><ele>2160</ele><time>2026-03-08T08:34:11.000Z</time></trkpt>
<trkpt lat="42.101036" lon="23.596646"><ele>2160.2</ele><time>2026-03-08T08:34:12.000Z</time></trkpt>
<trkpt lat="42.101035" lon="23.596636"><ele>2160.2</ele><time>2026-03-08T08:34:13.000Z</time></trkpt>
<trkpt lat="42.101034" lon="23.596627"><ele>2160.2</ele><time>2026-03-08T08:34:14.000Z</time></trkpt>
<trkpt lat="42.101032" lon="23.596618"><ele>2160.2</ele><time>2026-03-08T08:34:15.000Z</time></trkpt>
<trkpt lat="42.101031" lon="23.596608"><ele>2160.2</ele><time>2026-03-08T08:34:16.000Z</time></trkpt>
<trkpt lat="42.10103" lon="23.596597"><ele>2160.7</ele><time>2026-03-08T08:34:17.000Z</time></trkpt>
<trkpt lat="42.101029" lon="23.596586"><ele>2160.7</ele><time>2026-03-08T08:34:18.000Z</time></trkpt>
<trkpt lat="42.101028" lon="23.596576"><ele>2160.7</ele><time>2026-03-08T08:34:19.000Z</time></trkpt>
<trkpt lat="42.101026" lon="23.596565"><ele>2160.7</ele><time>2026-03-08T08:34:20.000Z</time></trkpt>
<trkpt lat="42.101025" lon="23.596556"><ele>2160.7</ele><time>2026-03-08T08:34:21.000Z</time></trkpt>
<trkpt lat="42.101024" lon="23.596548"><ele>2161</ele><time>2026-03-08T08:34:22.000Z</time></trkpt>
<trkpt lat="42.101023" lon="23.59654"><ele>2161</ele><time>2026-03-08T08:34:23.000Z</time></trkpt>
<trkpt lat="42.101022" lon="23.596531"><ele>2161</ele><time>2026-03-08T08:34:24.000Z</time></trkpt>
<trkpt lat="42.10102" lon="23.596523"><ele>2161</ele><time>2026-03-08T08:34:25.000Z</time></trkpt>
<trkpt lat="42.101018" lon="23.596514"><ele>2161</ele><time>2026-03-08T08:34:26.000Z</time></trkpt>
<trkpt lat="42.101016" lon="23.596504"><ele>2161.2</ele><time>2026-03-08T08:34:27.000Z</time></trkpt>
<trkpt lat="42.101014" lon="23.596494"><ele>2161.2</ele><time>2026-03-08T08:34:28.000Z</time></trkpt>
<trkpt lat="42.101012" lon="23.596483"><ele>2161.2</ele><time>2026-03-08T08:34:29.000Z</time></trkpt>
<trkpt lat="42.101011" lon="23.596472"><ele>2161.2</ele><time>2026-03-08T08:34:30.000Z</time></trkpt>
<trkpt lat="42.10101" lon="23.59646"><ele>2161.2</ele><time>2026-03-08T08:34:31.000Z</time></trkpt>
<trkpt lat="42.10101" lon="23.596448"><ele>2161.6</ele><time>2026-03-08T08:34:32.000Z</time></trkpt>
<trkpt lat="42.10101" lon="23.596437"><ele>2161.6</ele><time>2026-03-08T08:34:33.000Z</time></trkpt>
<trkpt lat="42.101009" lon="23.596426"><ele>2161.6</ele><time>2026-03-08T08:34:34.000Z</time></trkpt>
<trkpt lat="42.101009" lon="23.596414"><ele>2161.6</ele><time>2026-03-08T08:34:35.000Z</time></trkpt>
<trkpt lat="42.101009" lon="23.596403"><ele>2161.6</ele><time>2026-03-08T08:34:36.000Z</time></trkpt>
<trkpt lat="42.101009" lon="23.596393"><ele>2162.3</ele><time>2026-03-08T08:34:37.000Z</time></trkpt>
<trkpt lat="42.10101" lon="23.596383"><ele>2162.3</ele><time>2026-03-08T08:34:38.000Z</time></trkpt>
<trkpt lat="42.101011" lon="23.596373"><ele>2162.3</ele><time>2026-03-08T08:34:39.000Z</time></trkpt>
<trkpt lat="42.101012" lon="23.596363"><ele>2162.3</ele><time>2026-03-08T08:34:40.000Z</time></trkpt>
<trkpt lat="42.101013" lon="23.596354"><ele>2162.3</ele><time>2026-03-08T08:34:41.000Z</time></trkpt>
<trkpt lat="42.101012" lon="23.596346"><ele>2162.7</ele><time>2026-03-08T08:34:42.000Z</time></trkpt>
<trkpt lat="42.101011" lon="23.596337"><ele>2162.7</ele><time>2026-03-08T08:34:43.000Z</time></trkpt>
<trkpt lat="42.10101" lon="23.59633"><ele>2162.7</ele><time>2026-03-08T08:34:44.000Z</time></trkpt>
<trkpt lat="42.101008" lon="23.596323"><ele>2162.7</ele><time>2026-03-08T08:34:45.000Z</time></trkpt>
<trkpt lat="42.101005" lon="23.596315"><ele>2162.7</ele><time>2026-03-08T08:34:46.000Z</time></trkpt>
<trkpt lat="42.101003" lon="23.596308"><ele>2163.5</ele><time>2026-03-08T08:34:47.000Z</time></trkpt>
<trkpt lat="42.101002" lon="23.596299"><ele>2163.5</ele><time>2026-03-08T08:34:48.000Z</time></trkpt>
<trkpt lat="42.101001" lon="23.59629"><ele>2163.5</ele><time>2026-03-08T08:34:49.000Z</time></trkpt>
<trkpt lat="42.101001" lon="23.596281"><ele>2163.5</ele><time>2026-03-08T08:34:50.000Z</time></trkpt>
<trkpt lat="42.101001" lon="23.596271"><ele>2163.5</ele><time>2026-03-08T08:34:51.000Z</time></trkpt>
<trkpt lat="42.101" lon="23.596261"><ele>2164</ele><time>2026-03-08T08:34:52.000Z</time></trkpt>
<trkpt lat="42.101" lon="23.596251"><ele>2164</ele><time>2026-03-08T08:34:53.000Z</time></trkpt>
<trkpt lat="42.100999" lon="23.596241"><ele>2164</ele><time>2026-03-08T08:34:54.000Z</time></trkpt>
<trkpt lat="42.100998" lon="23.596232"><ele>2164</ele><time>2026-03-08T08:34:55.000Z</time></trkpt>
<trkpt lat="42.100998" lon="23.596222"><ele>2164</ele><time>2026-03-08T08:34:56.000Z</time></trkpt>
<trkpt lat="42.100998" lon="23.596212"><ele>2164.3</ele><time>2026-03-08T08:34:57.000Z</time></trkpt>
<trkpt lat="42.100997" lon="23.596204"><ele>2164.3</ele><time>2026-03-08T08:34:58.000Z</time></trkpt>
<trkpt lat="42.100997" lon="23.596195"><ele>2164.3</ele><time>2026-03-08T08:34:59.000Z</time></trkpt>
<trkpt lat="42.100996" lon="23.596186"><ele>2164.3</ele><time>2026-03-08T08:35:00.000Z</time></trkpt>
<trkpt lat="42.100995" lon="23.596177"><ele>2164.3</ele><time>2026-03-08T08:35:01.000Z</time></trkpt>
<trkpt lat="42.100994" lon="23.596168"><ele>2164.9</ele><time>2026-03-08T08:35:02.000Z</time></trkpt>
<trkpt lat="42.100993" lon="23.596158"><ele>2164.9</ele><time>2026-03-08T08:35:03.000Z</time></trkpt>
<trkpt lat="42.100992" lon="23.596148"><ele>2164.9</ele><time>2026-03-08T08:35:04.000Z</time></trkpt>
<trkpt lat="42.100991" lon="23.596138"><ele>2164.9</ele><time>2026-03-08T08:35:05.000Z</time></trkpt>
<trkpt lat="42.10099" lon="23.596128"><ele>2164.9</ele><time>2026-03-08T08:35:06.000Z</time></trkpt>
<trkpt lat="42.100988" lon="23.596118"><ele>2165.6</ele><time>2026-03-08T08:35:07.000Z</time></trkpt>
<trkpt lat="42.100988" lon="23.596108"><ele>2165.6</ele><time>2026-03-08T08:35:08.000Z</time></trkpt>
<trkpt lat="42.100987" lon="23.596099"><ele>2165.6</ele><time>2026-03-08T08:35:09.000Z</time></trkpt>
<trkpt lat="42.100987" lon="23.596089"><ele>2165.6</ele><time>2026-03-08T08:35:10.000Z</time></trkpt>
<trkpt lat="42.100987" lon="23.59608"><ele>2165.6</ele><time>2026-03-08T08:35:11.000Z</time></trkpt>
<trkpt lat="42.100987" lon="23.596071"><ele>2166</ele><time>2026-03-08T08:35:12.000Z</time></trkpt>
<trkpt lat="42.100987" lon="23.596062"><ele>2166</ele><time>2026-03-08T08:35:13.000Z</time></trkpt>
<trkpt lat="42.100986" lon="23.596053"><ele>2166</ele><time>2026-03-08T08:35:14.000Z</time></trkpt>
<trkpt lat="42.100985" lon="23.596042"><ele>2166</ele><time>2026-03-08T08:35:15.000Z</time></trkpt>
<trkpt lat="42.100983" lon="23.596031"><ele>2166</ele><time>2026-03-08T08:35:16.000Z</time></trkpt>
<trkpt lat="42.100981" lon="23.596021"><ele>2166.5</ele><time>2026-03-08T08:35:17.000Z</time></trkpt>
<trkpt lat="42.100979" lon="23.596011"><ele>2166.5</ele><time>2026-03-08T08:35:18.000Z</time></trkpt>
<trkpt lat="42.100977" lon="23.595999"><ele>2166.5</ele><time>2026-03-08T08:35:19.000Z</time></trkpt>
<trkpt lat="42.100975" lon="23.595987"><ele>2166.5</ele><time>2026-03-08T08:35:20.000Z</time></trkpt>
<trkpt lat="42.100973" lon="23.595976"><ele>2166.5</ele><time>2026-03-08T08:35:21.000Z</time></trkpt>
<trkpt lat="42.100971" lon="23.595964"><ele>2166.9</ele><time>2026-03-08T08:35:22.000Z</time></trkpt>
<trkpt lat="42.100969" lon="23.595952"><ele>2166.9</ele><time>2026-03-08T08:35:23.000Z</time></trkpt>
<trkpt lat="42.100967" lon="23.595942"><ele>2166.9</ele><time>2026-03-08T08:35:24.000Z</time></trkpt>
<trkpt lat="42.100964" lon="23.595933"><ele>2166.9</ele><time>2026-03-08T08:35:25.000Z</time></trkpt>
<trkpt lat="42.100961" lon="23.595924"><ele>2166.9</ele><time>2026-03-08T08:35:26.000Z</time></trkpt>
<trkpt lat="42.100957" lon="23.595915"><ele>2167.1</ele><time>2026-03-08T08:35:27.000Z</time></trkpt>
<trkpt lat="42.100953" lon="23.595905"><ele>2167.1</ele><time>2026-03-08T08:35:28.000Z</time></trkpt>
<trkpt lat="42.100949" lon="23.595895"><ele>2167.1</ele><time>2026-03-08T08:35:29.000Z</time></trkpt>
<trkpt lat="42.100946" lon="23.595884"><ele>2167.1</ele><time>2026-03-08T08:35:30.000Z</time></trkpt>
<trkpt lat="42.100944" lon="23.595872"><ele>2167.1</ele><time>2026-03-08T08:35:31.000Z</time></trkpt>
<trkpt lat="42.100943" lon="23.59586"><ele>2167.6</ele><time>2026-03-08T08:35:32.000Z</time></trkpt>
<trkpt lat="42.100943" lon="23.595848"><ele>2167.6</ele><time>2026-03-08T08:35:33.000Z</time></trkpt>
<trkpt lat="42.100943" lon="23.595837"><ele>2167.6</ele><time>2026-03-08T08:35:34.000Z</time></trkpt>
<trkpt lat="42.100943" lon="23.595824"><ele>2167.6</ele><time>2026-03-08T08:35:35.000Z</time></trkpt>
<trkpt lat="42.100942" lon="23.595813"><ele>2167.6</ele><time>2026-03-08T08:35:36.000Z</time></trkpt>
<trkpt lat="42.100941" lon="23.595802"><ele>2168.2</ele><time>2026-03-08T08:35:37.000Z</time></trkpt>
<trkpt lat="42.100939" lon="23.595791"><ele>2168.2</ele><time>2026-03-08T08:35:38.000Z</time></trkpt>
<trkpt lat="42.100938" lon="23.59578"><ele>2168.2</ele><time>2026-03-08T08:35:39.000Z</time></trkpt>
<trkpt lat="42.100937" lon="23.595771"><ele>2168.2</ele><time>2026-03-08T08:35:40.000Z</time></trkpt>
<trkpt lat="42.100936" lon="23.595761"><ele>2168.2</ele><time>2026-03-08T08:35:41.000Z</time></trkpt>
<trkpt lat="42.100935" lon="23.595749"><ele>2168.5</ele><time>2026-03-08T08:35:42.000Z</time></trkpt>
<trkpt lat="42.100934" lon="23.595737"><ele>2168.5</ele><time>2026-03-08T08:35:43.000Z</time></trkpt>
<trkpt lat="42.100933" lon="23.595724"><ele>2168.5</ele><time>2026-03-08T08:35:44.000Z</time></trkpt>
<trkpt lat="42.100931" lon="23.595711"><ele>2168.5</ele><time>2026-03-08T08:35:45.000Z</time></trkpt>
<trkpt lat="42.100929" lon="23.595697"><ele>2168.5</ele><time>2026-03-08T08:35:46.000Z</time></trkpt>
<trkpt lat="42.100927" lon="23.595685"><ele>2169</ele><time>2026-03-08T08:35:47.000Z</time></trkpt>
<trkpt lat="42.100926" lon="23.595675"><ele>2169</ele><time>2026-03-08T08:35:48.000Z</time></trkpt>
<trkpt lat="42.100925" lon="23.595665"><ele>2169</ele><time>2026-03-08T08:35:49.000Z</time></trkpt>
<trkpt lat="42.100924" lon="23.595657"><ele>2169</ele><time>2026-03-08T08:35:50.000Z</time></trkpt>
<trkpt lat="42.100924" lon="23.595649"><ele>2169</ele><time>2026-03-08T08:35:51.000Z</time></trkpt>
<trkpt lat="42.100924" lon="23.595642"><ele>2169.5</ele><time>2026-03-08T08:35:52.000Z</time></trkpt>
<trkpt lat="42.100924" lon="23.595634"><ele>2169.5</ele><time>2026-03-08T08:35:53.000Z</time></trkpt>
<trkpt lat="42.100924" lon="23.595625"><ele>2169.5</ele><time>2026-03-08T08:35:54.000Z</time></trkpt>
<trkpt lat="42.100924" lon="23.595616"><ele>2169.5</ele><time>2026-03-08T08:35:55.000Z</time></trkpt>
<trkpt lat="42.100924" lon="23.595608"><ele>2169.5</ele><time>2026-03-08T08:35:56.000Z</time></trkpt>
<trkpt lat="42.100924" lon="23.595598"><ele>2169.8</ele><time>2026-03-08T08:35:57.000Z</time></trkpt>
<trkpt lat="42.100923" lon="23.595588"><ele>2169.8</ele><time>2026-03-08T08:35:58.000Z</time></trkpt>
<trkpt lat="42.100922" lon="23.59558"><ele>2169.8</ele><time>2026-03-08T08:35:59.000Z</time></trkpt>
<trkpt lat="42.100921" lon="23.595571"><ele>2169.8</ele><time>2026-03-08T08:36:00.000Z</time></trkpt>
<trkpt lat="42.100921" lon="23.595562"><ele>2169.8</ele><time>2026-03-08T08:36:01.000Z</time></trkpt>
<trkpt lat="42.10092" lon="23.595554"><ele>2170.5</ele><time>2026-03-08T08:36:02.000Z</time></trkpt>
<trkpt lat="42.100919" lon="23.595547"><ele>2170.5</ele><time>2026-03-08T08:36:03.000Z</time></trkpt>
<trkpt lat="42.100918" lon="23.595538"><ele>2170.5</ele><time>2026-03-08T08:36:04.000Z</time></trkpt>
<trkpt lat="42.100918" lon="23.595529"><ele>2170.5</ele><time>2026-03-08T08:36:05.000Z</time></trkpt>
<trkpt lat="42.100917" lon="23.59552"><ele>2170.5</ele><time>2026-03-08T08:36:06.000Z</time></trkpt>
<trkpt lat="42.100918" lon="23.595512"><ele>2171.2</ele><time>2026-03-08T08:36:07.000Z</time></trkpt>
<trkpt lat="42.100918" lon="23.595507"><ele>2171.2</ele><time>2026-03-08T08:36:08.000Z</time></trkpt>
<trkpt lat="42.100918" lon="23.595504"><ele>2171.2</ele><time>2026-03-08T08:36:09.000Z</time></trkpt>
<trkpt lat="42.100918" lon="23.595502"><ele>2171.2</ele><time>2026-03-08T08:36:10.000Z</time></trkpt>
<trkpt lat="42.100918" lon="23.595502"><ele>2171.2</ele><time>2026-03-08T08:36:11.000Z</time></trkpt>
<trkpt lat="42.100918" lon="23.595503"><ele>2171.5</ele><time>2026-03-08T08:36:12.000Z</time></trkpt>
<trkpt lat="42.100918" lon="23.595502"><ele>2171.5</ele><time>2026-03-08T08:36:13.000Z</time></trkpt>
<trkpt lat="42.100919" lon="23.595502"><ele>2171.5</ele><time>2026-03-08T08:36:14.000Z</time></trkpt>
<trkpt lat="42.100919" lon="23.595502"><ele>2171.5</ele><time>2026-03-08T08:36:15.000Z</time></trkpt>
<trkpt lat="42.100919" lon="23.595502"><ele>2171.5</ele><time>2026-03-08T08:36:16.000Z</time></trkpt>
<trkpt lat="42.100919" lon="23.595502"><ele>2172</ele><time>2026-03-08T08:36:17.000Z</time></trkpt>
<trkpt lat="42.100919" lon="23.595502"><ele>2172</ele><time>2026-03-08T08:36:18.000Z</time></trkpt>
<trkpt lat="42.100919" lon="23.595502"><ele>2172</ele><time>2026-03-08T08:36:19.000Z</time></trkpt>
<trkpt lat="42.100919" lon="23.595502"><ele>2172</ele><time>2026-03-08T08:36:20.000Z</time></trkpt>
<trkpt lat="42.100919" lon="23.595502"><ele>2172</ele><time>2026-03-08T08:36:21.000Z</time></trkpt>
<trkpt lat="42.100919" lon="23.595502"><ele>2172.1</ele><time>2026-03-08T08:36:22.000Z</time></trkpt>
<trkpt lat="42.100919" lon="23.595502"><ele>2172.1</ele><time>2026-03-08T08:36:23.000Z</time></trkpt>
<trkpt lat="42.100919" lon="23.595502"><ele>2172.1</ele><time>2026-03-08T08:36:24.000Z</time></trkpt>
<trkpt lat="42.100919" lon="23.595502"><ele>2172.1</ele><time>2026-03-08T08:36:25.000Z</time></trkpt>
<trkpt lat="42.100919" lon="23.595502"><ele>2172.1</ele><time>2026-03-08T08:36:26.000Z</time></trkpt>
<trkpt lat="42.100919" lon="23.595502"><ele>2172.1</ele><time>2026-03-08T08:36:27.000Z</time></trkpt>
<trkpt lat="42.10092" lon="23.595501"><ele>2172.1</ele><time>2026-03-08T08:36:28.000Z</time></trkpt>
<trkpt lat="42.10092" lon="23.595501"><ele>2172.1</ele><time>2026-03-08T08:36:29.000Z</time></trkpt>
<trkpt lat="42.100921" lon="23.5955"><ele>2172.1</ele><time>2026-03-08T08:36:30.000Z</time></trkpt>
<trkpt lat="42.100921" lon="23.5955"><ele>2172.1</ele><time>2026-03-08T08:36:31.000Z</time></trkpt>
<trkpt lat="42.100922" lon="23.595499"><ele>2172</ele><time>2026-03-08T08:36:32.000Z</time></trkpt>
<trkpt lat="42.100922" lon="23.595499"><ele>2172</ele><time>2026-03-08T08:36:33.000Z</time></trkpt>
<trkpt lat="42.100922" lon="23.595499"><ele>2172</ele><time>2026-03-08T08:36:34.000Z</time></trkpt>
<trkpt lat="42.100922" lon="23.595499"><ele>2172</ele><time>2026-03-08T08:36:35.000Z</time></trkpt>
<trkpt lat="42.100922" lon="23.595499"><ele>2172</ele><time>2026-03-08T08:36:36.000Z</time></trkpt>
<trkpt lat="42.100922" lon="23.595499"><ele>2172</ele><time>2026-03-08T08:36:37.000Z</time></trkpt>
<trkpt lat="42.100922" lon="23.595499"><ele>2172</ele><time>2026-03-08T08:36:38.000Z</time></trkpt>
<trkpt lat="42.100922" lon="23.595499"><ele>2172</ele><time>2026-03-08T08:36:39.000Z</time></trkpt>
<trkpt lat="42.100922" lon="23.595499"><ele>2172</ele><time>2026-03-08T08:36:40.000Z</time></trkpt>
<trkpt lat="42.100923" lon="23.5955"><ele>2172</ele><time>2026-03-08T08:36:41.000Z</time></trkpt>
<trkpt lat="42.100923" lon="23.5955"><ele>2171.9</ele><time>2026-03-08T08:36:42.000Z</time></trkpt>
<trkpt lat="42.100923" lon="23.5955"><ele>2171.9</ele><time>2026-03-08T08:36:43.000Z</time></trkpt>
<trkpt lat="42.100923" lon="23.5955"><ele>2171.9</ele><time>2026-03-08T08:36:44.000Z</time></trkpt>
<trkpt lat="42.100923" lon="23.5955"><ele>2171.9</ele><time>2026-03-08T08:36:45.000Z</time></trkpt>
<trkpt lat="42.100923" lon="23.5955"><ele>2171.9</ele><time>2026-03-08T08:36:46.000Z</time></trkpt>
<trkpt lat="42.100923" lon="23.5955"><ele>2171.9</ele><time>2026-03-08T08:36:47.000Z</time></trkpt>
<trkpt lat="42.100923" lon="23.5955"><ele>2171.9</ele><time>2026-03-08T08:36:48.000Z</time></trkpt>
<trkpt lat="42.100923" lon="23.5955"><ele>2171.9</ele><time>2026-03-08T08:36:49.000Z</time></trkpt>
<trkpt lat="42.100923" lon="23.595499"><ele>2171.9</ele><time>2026-03-08T08:36:50.000Z</time></trkpt>
<trkpt lat="42.100922" lon="23.595499"><ele>2171.9</ele><time>2026-03-08T08:36:51.000Z</time></trkpt>
<trkpt lat="42.100922" lon="23.595498"><ele>2171.9</ele><time>2026-03-08T08:36:52.000Z</time></trkpt>
<trkpt lat="42.100921" lon="23.595499"><ele>2171.9</ele><time>2026-03-08T08:36:53.000Z</time></trkpt>
<trkpt lat="42.100921" lon="23.595499"><ele>2171.9</ele><time>2026-03-08T08:36:54.000Z</time></trkpt>
<trkpt lat="42.100921" lon="23.5955"><ele>2171.9</ele><time>2026-03-08T08:36:55.000Z</time></trkpt>
<trkpt lat="42.100921" lon="23.595501"><ele>2171.9</ele><time>2026-03-08T08:36:56.000Z</time></trkpt>
<trkpt lat="42.100922" lon="23.595502"><ele>2172</ele><time>2026-03-08T08:36:57.000Z</time></trkpt>
<trkpt lat="42.100921" lon="23.595502"><ele>2172</ele><time>2026-03-08T08:36:58.000Z</time></trkpt>
<trkpt lat="42.10092" lon="23.595499"><ele>2172</ele><time>2026-03-08T08:36:59.000Z</time></trkpt>
<trkpt lat="42.100919" lon="23.595496"><ele>2172</ele><time>2026-03-08T08:37:00.000Z</time></trkpt>
<trkpt lat="42.100918" lon="23.595491"><ele>2172</ele><time>2026-03-08T08:37:01.000Z</time></trkpt>
<trkpt lat="42.100917" lon="23.595484"><ele>2172.2</ele><time>2026-03-08T08:37:02.000Z</time></trkpt>
<trkpt lat="42.100917" lon="23.595475"><ele>2172.2</ele><time>2026-03-08T08:37:03.000Z</time></trkpt>
<trkpt lat="42.100917" lon="23.595466"><ele>2172.2</ele><time>2026-03-08T08:37:04.000Z</time></trkpt>
<trkpt lat="42.100916" lon="23.595455"><ele>2172.2</ele><time>2026-03-08T08:37:05.000Z</time></trkpt>
<trkpt lat="42.100915" lon="23.595444"><ele>2172.2</ele><time>2026-03-08T08:37:06.000Z</time></trkpt>
<trkpt lat="42.100914" lon="23.595433"><ele>2172.5</ele><time>2026-03-08T08:37:07.000Z</time></trkpt>
<trkpt lat="42.100913" lon="23.595422"><ele>2172.5</ele><time>2026-03-08T08:37:08.000Z</time></trkpt>
<trkpt lat="42.100911" lon="23.595413"><ele>2172.5</ele><time>2026-03-08T08:37:09.000Z</time></trkpt>
<trkpt lat="42.10091" lon="23.595404"><ele>2172.5</ele><time>2026-03-08T08:37:10.000Z</time></trkpt>
<trkpt lat="42.100908" lon="23.595396"><ele>2172.5</ele><time>2026-03-08T08:37:11.000Z</time></trkpt>
<trkpt lat="42.100906" lon="23.59539"><ele>2172.6</ele><time>2026-03-08T08:37:12.000Z</time></trkpt>
<trkpt lat="42.100904" lon="23.595383"><ele>2172.6</ele><time>2026-03-08T08:37:13.000Z</time></trkpt>
<trkpt lat="42.100903" lon="23.595376"><ele>2172.6</ele><time>2026-03-08T08:37:14.000Z</time></trkpt>
<trkpt lat="42.100902" lon="23.59537"><ele>2172.6</ele><time>2026-03-08T08:37:15.000Z</time></trkpt>
<trkpt lat="42.100902" lon="23.595364"><ele>2172.6</ele><time>2026-03-08T08:37:16.000Z</time></trkpt>
<trkpt lat="42.100901" lon="23.595359"><ele>2172.9</ele><time>2026-03-08T08:37:17.000Z</time></trkpt>
<trkpt lat="42.100901" lon="23.595354"><ele>2172.9</ele><time>2026-03-08T08:37:18.000Z</time></trkpt>
<trkpt lat="42.100901" lon="23.595349"><ele>2172.9</ele><time>2026-03-08T08:37:19.000Z</time></trkpt>
<trkpt lat="42.100902" lon="23.595343"><ele>2172.9</ele><time>2026-03-08T08:37:20.000Z</time></trkpt>
<trkpt lat="42.100903" lon="23.595337"><ele>2172.9</ele><time>2026-03-08T08:37:21.000Z</time></trkpt>
<trkpt lat="42.100904" lon="23.59533"><ele>2173.2</ele><time>2026-03-08T08:37:22.000Z</time></trkpt>
<trkpt lat="42.100904" lon="23.595323"><ele>2173.2</ele><time>2026-03-08T08:37:23.000Z</time></trkpt>
<trkpt lat="42.100905" lon="23.595316"><ele>2173.2</ele><time>2026-03-08T08:37:24.000Z</time></trkpt>
<trkpt lat="42.100905" lon="23.595308"><ele>2173.2</ele><time>2026-03-08T08:37:25.000Z</time></trkpt>
<trkpt lat="42.100906" lon="23.595299"><ele>2173.2</ele><time>2026-03-08T08:37:26.000Z</time></trkpt>
<trkpt lat="42.100906" lon="23.595291"><ele>2173.4</ele><time>2026-03-08T08:37:27.000Z</time></trkpt>
<trkpt lat="42.100906" lon="23.595282"><ele>2173.4</ele><time>2026-03-08T08:37:28.000Z</time></trkpt>
<trkpt lat="42.100907" lon="23.595272"><ele>2173.4</ele><time>2026-03-08T08:37:29.000Z</time></trkpt>
<trkpt lat="42.100908" lon="23.595262"><ele>2173.4</ele><time>2026-03-08T08:37:30.000Z</time></trkpt>
<trkpt lat="42.100909" lon="23.595254"><ele>2173.4</ele><time>2026-03-08T08:37:31.000Z</time></trkpt>
<trkpt lat="42.10091" lon="23.595246"><ele>2173.9</ele><time>2026-03-08T08:37:32.000Z</time></trkpt>
<trkpt lat="42.100912" lon="23.59524"><ele>2173.9</ele><time>2026-03-08T08:37:33.000Z</time></trkpt>
<trkpt lat="42.100912" lon="23.595237"><ele>2173.9</ele><time>2026-03-08T08:37:34.000Z</time></trkpt>
<trkpt lat="42.100913" lon="23.595235"><ele>2173.9</ele><time>2026-03-08T08:37:35.000Z</time></trkpt>
<trkpt lat="42.100912" lon="23.595234"><ele>2173.9</ele><time>2026-03-08T08:37:36.000Z</time></trkpt>
<trkpt lat="42.100911" lon="23.595234"><ele>2174.4</ele><time>2026-03-08T08:37:37.000Z</time></trkpt>
<trkpt lat="42.100912" lon="23.595234"><ele>2174.4</ele><time>2026-03-08T08:37:38.000Z</time></trkpt>
<trkpt lat="42.100912" lon="23.595233"><ele>2174.4</ele><time>2026-03-08T08:37:39.000Z</time></trkpt>
<trkpt lat="42.100913" lon="23.595232"><ele>2174.4</ele><time>2026-03-08T08:37:40.000Z</time></trkpt>
<trkpt lat="42.100915" lon="23.595231"><ele>2174.4</ele><time>2026-03-08T08:37:41.000Z</time></trkpt>
<trkpt lat="42.100916" lon="23.59523"><ele>2174.6</ele><time>2026-03-08T08:37:42.000Z</time></trkpt>
<trkpt lat="42.100917" lon="23.59523"><ele>2174.6</ele><time>2026-03-08T08:37:43.000Z</time></trkpt>
<trkpt lat="42.100917" lon="23.595231"><ele>2174.6</ele><time>2026-03-08T08:37:44.000Z</time></trkpt>
<trkpt lat="42.100917" lon="23.595231"><ele>2174.6</ele><time>2026-03-08T08:37:45.000Z</time></trkpt>
<trkpt lat="42.100917" lon="23.595233"><ele>2174.6</ele><time>2026-03-08T08:37:46.000Z</time></trkpt>
<trkpt lat="42.100917" lon="23.595234"><ele>2175.1</ele><time>2026-03-08T08:37:47.000Z</time></trkpt>
<trkpt lat="42.100917" lon="23.595234"><ele>2175.1</ele><time>2026-03-08T08:37:48.000Z</time></trkpt>
<trkpt lat="42.100918" lon="23.595235"><ele>2175.1</ele><time>2026-03-08T08:37:49.000Z</time></trkpt>
<trkpt lat="42.100918" lon="23.595236"><ele>2175.1</ele><time>2026-03-08T08:37:50.000Z</time></trkpt>
<trkpt lat="42.100918" lon="23.595236"><ele>2175.1</ele><time>2026-03-08T08:37:51.000Z</time></trkpt>
<trkpt lat="42.100918" lon="23.595236"><ele>2175.2</ele><time>2026-03-08T08:37:52.000Z</time></trkpt>
<trkpt lat="42.100918" lon="23.595236"><ele>2175.2</ele><time>2026-03-08T08:37:53.000Z</time></trkpt>
<trkpt lat="42.100918" lon="23.595236"><ele>2175.2</ele><time>2026-03-08T08:37:54.000Z</time></trkpt>
<trkpt lat="42.100918" lon="23.595236"><ele>2175.2</ele><time>2026-03-08T08:37:55.000Z</time></trkpt>
<trkpt lat="42.100918" lon="23.595236"><ele>2175.2</ele><time>2026-03-08T08:37:56.000Z</time></trkpt>
<trkpt lat="42.100918" lon="23.595236"><ele>2175.1</ele><time>2026-03-08T08:37:57.000Z</time></trkpt>
<trkpt lat="42.100918" lon="23.595236"><ele>2175.1</ele><time>2026-03-08T08:37:58.000Z</time></trkpt>
<trkpt lat="42.100918" lon="23.595236"><ele>2175.1</ele><time>2026-03-08T08:37:59.000Z</time></trkpt>
<trkpt lat="42.100918" lon="23.595236"><ele>2175.1</ele><time>2026-03-08T08:38:00.000Z</time></trkpt>
<trkpt lat="42.100918" lon="23.595236"><ele>2175.1</ele><time>2026-03-08T08:38:01.000Z</time></trkpt>
<trkpt lat="42.100918" lon="23.595236"><ele>2174.9</ele><time>2026-03-08T08:38:02.000Z</time></trkpt>
<trkpt lat="42.100918" lon="23.595236"><ele>2174.9</ele><time>2026-03-08T08:38:03.000Z</time></trkpt>
<trkpt lat="42.100918" lon="23.595236"><ele>2174.9</ele><time>2026-03-08T08:38:04.000Z</time></trkpt>
<trkpt lat="42.100918" lon="23.595236"><ele>2174.9</ele><time>2026-03-08T08:38:05.000Z</time></trkpt>
<trkpt lat="42.100918" lon="23.595236"><ele>2174.9</ele><time>2026-03-08T08:38:06.000Z</time></trkpt>
<trkpt lat="42.100918" lon="23.595236"><ele>2174.6</ele><time>2026-03-08T08:38:07.000Z</time></trkpt>
<trkpt lat="42.100918" lon="23.595236"><ele>2174.6</ele><time>2026-03-08T08:38:08.000Z</time></trkpt>
<trkpt lat="42.100918" lon="23.595236"><ele>2174.6</ele><time>2026-03-08T08:38:09.000Z</time></trkpt>
<trkpt lat="42.100918" lon="23.595236"><ele>2174.6</ele><time>2026-03-08T08:38:10.000Z</time></trkpt>
<trkpt lat="42.100918" lon="23.595236"><ele>2174.6</ele><time>2026-03-08T08:38:11.000Z</time></trkpt>
<trkpt lat="42.100918" lon="23.595236"><ele>2174.5</ele><time>2026-03-08T08:38:12.000Z</time></trkpt>
<trkpt lat="42.100918" lon="23.595236"><ele>2174.5</ele><time>2026-03-08T08:38:13.000Z</time></trkpt>
<trkpt lat="42.100918" lon="23.595236"><ele>2174.5</ele><time>2026-03-08T08:38:14.000Z</time></trkpt>
<trkpt lat="42.100918" lon="23.595237"><ele>2174.5</ele><time>2026-03-08T08:38:15.000Z</time></trkpt>
<trkpt lat="42.100918" lon="23.595237"><ele>2174.5</ele><time>2026-03-08T08:38:16.000Z</time></trkpt>
<trkpt lat="42.100918" lon="23.595238"><ele>2174.5</ele><time>2026-03-08T08:38:17.000Z</time></trkpt>
<trkpt lat="42.100917" lon="23.595239"><ele>2174.5</ele><time>2026-03-08T08:38:18.000Z</time></trkpt>
<trkpt lat="42.100916" lon="23.595239"><ele>2174.5</ele><time>2026-03-08T08:38:19.000Z</time></trkpt>
<trkpt lat="42.100915" lon="23.59524"><ele>2174.5</ele><time>2026-03-08T08:38:20.000Z</time></trkpt>
<trkpt lat="42.100914" lon="23.595241"><ele>2174.5</ele><time>2026-03-08T08:38:21.000Z</time></trkpt>
<trkpt lat="42.100914" lon="23.595241"><ele>2174.5</ele><time>2026-03-08T08:38:22.000Z</time></trkpt>
<trkpt lat="42.100914" lon="23.595242"><ele>2174.5</ele><time>2026-03-08T08:38:23.000Z</time></trkpt>
<trkpt lat="42.100913" lon="23.595242"><ele>2174.5</ele><time>2026-03-08T08:38:24.000Z</time></trkpt>
<trkpt lat="42.100913" lon="23.595242"><ele>2174.5</ele><time>2026-03-08T08:38:25.000Z</time></trkpt>
<trkpt lat="42.100913" lon="23.595242"><ele>2174.5</ele><time>2026-03-08T08:38:26.000Z</time></trkpt>
<trkpt lat="42.100913" lon="23.595241"><ele>2174.5</ele><time>2026-03-08T08:38:27.000Z</time></trkpt>
<trkpt lat="42.100913" lon="23.595241"><ele>2174.5</ele><time>2026-03-08T08:38:28.000Z</time></trkpt>
<trkpt lat="42.100912" lon="23.59524"><ele>2174.5</ele><time>2026-03-08T08:38:29.000Z</time></trkpt>
<trkpt lat="42.100912" lon="23.59524"><ele>2174.5</ele><time>2026-03-08T08:38:30.000Z</time></trkpt>
<trkpt lat="42.100912" lon="23.59524"><ele>2174.5</ele><time>2026-03-08T08:38:31.000Z</time></trkpt>
<trkpt lat="42.100912" lon="23.595239"><ele>2174.6</ele><time>2026-03-08T08:38:32.000Z</time></trkpt>
<trkpt lat="42.100912" lon="23.595238"><ele>2174.6</ele><time>2026-03-08T08:38:33.000Z</time></trkpt>
<trkpt lat="42.100913" lon="23.595237"><ele>2174.6</ele><time>2026-03-08T08:38:34.000Z</time></trkpt>
<trkpt lat="42.100913" lon="23.595236"><ele>2174.6</ele><time>2026-03-08T08:38:35.000Z</time></trkpt>
<trkpt lat="42.100913" lon="23.595235"><ele>2174.6</ele><time>2026-03-08T08:38:36.000Z</time></trkpt>
<trkpt lat="42.100913" lon="23.595234"><ele>2174.5</ele><time>2026-03-08T08:38:37.000Z</time></trkpt>
<trkpt lat="42.100913" lon="23.595234"><ele>2174.5</ele><time>2026-03-08T08:38:38.000Z</time></trkpt>
<trkpt lat="42.100913" lon="23.595235"><ele>2174.5</ele><time>2026-03-08T08:38:39.000Z</time></trkpt>
<trkpt lat="42.100913" lon="23.595235"><ele>2174.5</ele><time>2026-03-08T08:38:40.000Z</time></trkpt>
<trkpt lat="42.100913" lon="23.595235"><ele>2174.5</ele><time>2026-03-08T08:38:41.000Z</time></trkpt>
<trkpt lat="42.100913" lon="23.595236"><ele>2174.4</ele><time>2026-03-08T08:38:42.000Z</time></trkpt>
<trkpt lat="42.100913" lon="23.595236"><ele>2174.4</ele><time>2026-03-08T08:38:43.000Z</time></trkpt>
<trkpt lat="42.100913" lon="23.595236"><ele>2174.4</ele><time>2026-03-08T08:38:44.000Z</time></trkpt>
<trkpt lat="42.100913" lon="23.595236"><ele>2174.4</ele><time>2026-03-08T08:38:45.000Z</time></trkpt>
<trkpt lat="42.100913" lon="23.595236"><ele>2174.4</ele><time>2026-03-08T08:38:46.000Z</time></trkpt>
<trkpt lat="42.100913" lon="23.595236"><ele>2174.3</ele><time>2026-03-08T08:38:47.000Z</time></trkpt>
<trkpt lat="42.100913" lon="23.595236"><ele>2174.3</ele><time>2026-03-08T08:38:48.000Z</time></trkpt>
<trkpt lat="42.100913" lon="23.595236"><ele>2174.3</ele><time>2026-03-08T08:38:49.000Z</time></trkpt>
<trkpt lat="42.100913" lon="23.595236"><ele>2174.3</ele><time>2026-03-08T08:38:50.000Z</time></trkpt>
<trkpt lat="42.100913" lon="23.595236"><ele>2174.3</ele><time>2026-03-08T08:38:51.000Z</time></trkpt>
<trkpt lat="42.100913" lon="23.595236"><ele>2174.2</ele><time>2026-03-08T08:38:52.000Z</time></trkpt>
<trkpt lat="42.100913" lon="23.595236"><ele>2174.2</ele><time>2026-03-08T08:38:53.000Z</time></trkpt>
<trkpt lat="42.100913" lon="23.595236"><ele>2174.2</ele><time>2026-03-08T08:38:54.000Z</time></trkpt>
<trkpt lat="42.100913" lon="23.595236"><ele>2174.2</ele><time>2026-03-08T08:38:55.000Z</time></trkpt>
<trkpt lat="42.100913" lon="23.595236"><ele>2174.2</ele><time>2026-03-08T08:38:56.000Z</time></trkpt>
<trkpt lat="42.100913" lon="23.595236"><ele>2174.2</ele><time>2026-03-08T08:38:57.000Z</time></trkpt>
<trkpt lat="42.100913" lon="23.595236"><ele>2174.2</ele><time>2026-03-08T08:38:58.000Z</time></trkpt>
<trkpt lat="42.100913" lon="23.595236"><ele>2174.2</ele><time>2026-03-08T08:38:59.000Z</time></trkpt>
<trkpt lat="42.100913" lon="23.595236"><ele>2174.2</ele><time>2026-03-08T08:39:00.000Z</time></trkpt>
<trkpt lat="42.100913" lon="23.595236"><ele>2174.2</ele><time>2026-03-08T08:39:01.000Z</time></trkpt>
<trkpt lat="42.100913" lon="23.595237"><ele>2174.3</ele><time>2026-03-08T08:39:02.000Z</time></trkpt>
<trkpt lat="42.100913" lon="23.595237"><ele>2174.3</ele><time>2026-03-08T08:39:03.000Z</time></trkpt>
<trkpt lat="42.100913" lon="23.595238"><ele>2174.3</ele><time>2026-03-08T08:39:04.000Z</time></trkpt>
<trkpt lat="42.100913" lon="23.595238"><ele>2174.3</ele><time>2026-03-08T08:39:05.000Z</time></trkpt>
<trkpt lat="42.100913" lon="23.595238"><ele>2174.3</ele><time>2026-03-08T08:39:06.000Z</time></trkpt>
<trkpt lat="42.100913" lon="23.595238"><ele>2174.4</ele><time>2026-03-08T08:39:07.000Z</time></trkpt>
<trkpt lat="42.100913" lon="23.595238"><ele>2174.4</ele><time>2026-03-08T08:39:08.000Z</time></trkpt>
<trkpt lat="42.100912" lon="23.595239"><ele>2174.4</ele><time>2026-03-08T08:39:09.000Z</time></trkpt>
<trkpt lat="42.100911" lon="23.595239"><ele>2174.4</ele><time>2026-03-08T08:39:10.000Z</time></trkpt>
<trkpt lat="42.100909" lon="23.595239"><ele>2174.4</ele><time>2026-03-08T08:39:11.000Z</time></trkpt>
<trkpt lat="42.100908" lon="23.59524"><ele>2174.5</ele><time>2026-03-08T08:39:12.000Z</time></trkpt>
<trkpt lat="42.100907" lon="23.59524"><ele>2174.5</ele><time>2026-03-08T08:39:13.000Z</time></trkpt>
<trkpt lat="42.100906" lon="23.59524"><ele>2174.5</ele><time>2026-03-08T08:39:14.000Z</time></trkpt>
<trkpt lat="42.100906" lon="23.59524"><ele>2174.5</ele><time>2026-03-08T08:39:15.000Z</time></trkpt>
<trkpt lat="42.100906" lon="23.59524"><ele>2174.5</ele><time>2026-03-08T08:39:16.000Z</time></trkpt>
<trkpt lat="42.100906" lon="23.59524"><ele>2174.5</ele><time>2026-03-08T08:39:17.000Z</time></trkpt>
<trkpt lat="42.100906" lon="23.59524"><ele>2174.5</ele><time>2026-03-08T08:39:18.000Z</time></trkpt>
<trkpt lat="42.100906" lon="23.59524"><ele>2174.5</ele><time>2026-03-08T08:39:19.000Z</time></trkpt>
<trkpt lat="42.100906" lon="23.59524"><ele>2174.5</ele><time>2026-03-08T08:39:20.000Z</time></trkpt>
<trkpt lat="42.100906" lon="23.59524"><ele>2174.5</ele><time>2026-03-08T08:39:21.000Z</time></trkpt>
<trkpt lat="42.100907" lon="23.59524"><ele>2174.7</ele><time>2026-03-08T08:39:22.000Z</time></trkpt>
<trkpt lat="42.100907" lon="23.59524"><ele>2174.7</ele><time>2026-03-08T08:39:23.000Z</time></trkpt>
<trkpt lat="42.100907" lon="23.59524"><ele>2174.7</ele><time>2026-03-08T08:39:24.000Z</time></trkpt>
<trkpt lat="42.100907" lon="23.595239"><ele>2174.7</ele><time>2026-03-08T08:39:25.000Z</time></trkpt>
<trkpt lat="42.100907" lon="23.595239"><ele>2174.7</ele><time>2026-03-08T08:39:26.000Z</time></trkpt>
<trkpt lat="42.100907" lon="23.595239"><ele>2174.6</ele><time>2026-03-08T08:39:27.000Z</time></trkpt>
<trkpt lat="42.100907" lon="23.595239"><ele>2174.6</ele><time>2026-03-08T08:39:28.000Z</time></trkpt>
<trkpt lat="42.100907" lon="23.595239"><ele>2174.6</ele><time>2026-03-08T08:39:29.000Z</time></trkpt>
<trkpt lat="42.100907" lon="23.595239"><ele>2174.6</ele><time>2026-03-08T08:39:30.000Z</time></trkpt>
<trkpt lat="42.100907" lon="23.595239"><ele>2174.6</ele><time>2026-03-08T08:39:31.000Z</time></trkpt>
<trkpt lat="42.100907" lon="23.595239"><ele>2174.4</ele><time>2026-03-08T08:39:32.000Z</time></trkpt>
<trkpt lat="42.100908" lon="23.595237"><ele>2174.4</ele><time>2026-03-08T08:39:33.000Z</time></trkpt>
<trkpt lat="42.100908" lon="23.595233"><ele>2174.4</ele><time>2026-03-08T08:39:34.000Z</time></trkpt>
<trkpt lat="42.100908" lon="23.595228"><ele>2174.4</ele><time>2026-03-08T08:39:35.000Z</time></trkpt>
<trkpt lat="42.100908" lon="23.59522"><ele>2174.4</ele><time>2026-03-08T08:39:36.000Z</time></trkpt>
<trkpt lat="42.100909" lon="23.595211"><ele>2174.1</ele><time>2026-03-08T08:39:37.000Z</time></trkpt>
<trkpt lat="42.100909" lon="23.595201"><ele>2174.1</ele><time>2026-03-08T08:39:38.000Z</time></trkpt>
<trkpt lat="42.10091" lon="23.595191"><ele>2174.1</ele><time>2026-03-08T08:39:39.000Z</time></trkpt>
<trkpt lat="42.100912" lon="23.59518"><ele>2174.1</ele><time>2026-03-08T08:39:40.000Z</time></trkpt>
<trkpt lat="42.100913" lon="23.595168"><ele>2174.1</ele><time>2026-03-08T08:39:41.000Z</time></trkpt>
<trkpt lat="42.100913" lon="23.595155"><ele>2174.1</ele><time>2026-03-08T08:39:42.000Z</time></trkpt>
<trkpt lat="42.100913" lon="23.595142"><ele>2174.1</ele><time>2026-03-08T08:39:43.000Z</time></trkpt>
<trkpt lat="42.100913" lon="23.595129"><ele>2174.1</ele><time>2026-03-08T08:39:44.000Z</time></trkpt>
<trkpt lat="42.100914" lon="23.595117"><ele>2174.1</ele><time>2026-03-08T08:39:45.000Z</time></trkpt>
<trkpt lat="42.100914" lon="23.595105"><ele>2174.1</ele><time>2026-03-08T08:39:46.000Z</time></trkpt>
<trkpt lat="42.100914" lon="23.595095"><ele>2174.2</ele><time>2026-03-08T08:39:47.000Z</time></trkpt>
<trkpt lat="42.100914" lon="23.595085"><ele>2174.2</ele><time>2026-03-08T08:39:48.000Z</time></trkpt>
<trkpt lat="42.100913" lon="23.595076"><ele>2174.2</ele><time>2026-03-08T08:39:49.000Z</time></trkpt>
<trkpt lat="42.100912" lon="23.595067"><ele>2174.2</ele><time>2026-03-08T08:39:50.000Z</time></trkpt>
<trkpt lat="42.10091" lon="23.595058"><ele>2174.2</ele><time>2026-03-08T08:39:51.000Z</time></trkpt>
<trkpt lat="42.100908" lon="23.595049"><ele>2174.6</ele><time>2026-03-08T08:39:52.000Z</time></trkpt>
<trkpt lat="42.100906" lon="23.595041"><ele>2174.6</ele><time>2026-03-08T08:39:53.000Z</time></trkpt>
<trkpt lat="42.100905" lon="23.595033"><ele>2174.6</ele><time>2026-03-08T08:39:54.000Z</time></trkpt>
<trkpt lat="42.100905" lon="23.595024"><ele>2174.6</ele><time>2026-03-08T08:39:55.000Z</time></trkpt>
<trkpt lat="42.100906" lon="23.595015"><ele>2174.6</ele><time>2026-03-08T08:39:56.000Z</time></trkpt>
<trkpt lat="42.100907" lon="23.595005"><ele>2174.9</ele><time>2026-03-08T08:39:57.000Z</time></trkpt>
<trkpt lat="42.100906" lon="23.594995"><ele>2174.9</ele><time>2026-03-08T08:39:58.000Z</time></trkpt>
<trkpt lat="42.100906" lon="23.594983"><ele>2174.9</ele><time>2026-03-08T08:39:59.000Z</time></trkpt>
<trkpt lat="42.100905" lon="23.594971"><ele>2174.9</ele><time>2026-03-08T08:40:00.000Z</time></trkpt>
<trkpt lat="42.100903" lon="23.594958"><ele>2174.9</ele><time>2026-03-08T08:40:01.000Z</time></trkpt>
<trkpt lat="42.100902" lon="23.594946"><ele>2175.5</ele><time>2026-03-08T08:40:02.000Z</time></trkpt>
<trkpt lat="42.100901" lon="23.594932"><ele>2175.5</ele><time>2026-03-08T08:40:03.000Z</time></trkpt>
<trkpt lat="42.100901" lon="23.594919"><ele>2175.5</ele><time>2026-03-08T08:40:04.000Z</time></trkpt>
<trkpt lat="42.1009" lon="23.594906"><ele>2175.5</ele><time>2026-03-08T08:40:05.000Z</time></trkpt>
<trkpt lat="42.1009" lon="23.594893"><ele>2175.5</ele><time>2026-03-08T08:40:06.000Z</time></trkpt>
<trkpt lat="42.1009" lon="23.594878"><ele>2176.2</ele><time>2026-03-08T08:40:07.000Z</time></trkpt>
<trkpt lat="42.1009" lon="23.594865"><ele>2176.2</ele><time>2026-03-08T08:40:08.000Z</time></trkpt>
<trkpt lat="42.100899" lon="23.594851"><ele>2176.2</ele><time>2026-03-08T08:40:09.000Z</time></trkpt>
<trkpt lat="42.100899" lon="23.594837"><ele>2176.2</ele><time>2026-03-08T08:40:10.000Z</time></trkpt>
<trkpt lat="42.100899" lon="23.594823"><ele>2176.2</ele><time>2026-03-08T08:40:11.000Z</time></trkpt>
<trkpt lat="42.100899" lon="23.594809"><ele>2176.7</ele><time>2026-03-08T08:40:12.000Z</time></trkpt>
<trkpt lat="42.100899" lon="23.594797"><ele>2176.7</ele><time>2026-03-08T08:40:13.000Z</time></trkpt>
<trkpt lat="42.100899" lon="23.594784"><ele>2176.7</ele><time>2026-03-08T08:40:14.000Z</time></trkpt>
<trkpt lat="42.1009" lon="23.594773"><ele>2176.7</ele><time>2026-03-08T08:40:15.000Z</time></trkpt>
<trkpt lat="42.100901" lon="23.594762"><ele>2176.7</ele><time>2026-03-08T08:40:16.000Z</time></trkpt>
<trkpt lat="42.100902" lon="23.594751"><ele>2177.6</ele><time>2026-03-08T08:40:17.000Z</time></trkpt>
<trkpt lat="42.100903" lon="23.594739"><ele>2177.6</ele><time>2026-03-08T08:40:18.000Z</time></trkpt>
<trkpt lat="42.100904" lon="23.594726"><ele>2177.6</ele><time>2026-03-08T08:40:19.000Z</time></trkpt>
<trkpt lat="42.100906" lon="23.594714"><ele>2177.6</ele><time>2026-03-08T08:40:20.000Z</time></trkpt>
<trkpt lat="42.100908" lon="23.594702"><ele>2177.6</ele><time>2026-03-08T08:40:21.000Z</time></trkpt>
<trkpt lat="42.100909" lon="23.59469"><ele>2178.2</ele><time>2026-03-08T08:40:22.000Z</time></trkpt>
<trkpt lat="42.10091" lon="23.594677"><ele>2178.2</ele><time>2026-03-08T08:40:23.000Z</time></trkpt>
<trkpt lat="42.100911" lon="23.594664"><ele>2178.2</ele><time>2026-03-08T08:40:24.000Z</time></trkpt>
<trkpt lat="42.100911" lon="23.594651"><ele>2178.2</ele><time>2026-03-08T08:40:25.000Z</time></trkpt>
<trkpt lat="42.100911" lon="23.594638"><ele>2178.2</ele><time>2026-03-08T08:40:26.000Z</time></trkpt>
<trkpt lat="42.100912" lon="23.594625"><ele>2178.4</ele><time>2026-03-08T08:40:27.000Z</time></trkpt>
<trkpt lat="42.100911" lon="23.594613"><ele>2178.4</ele><time>2026-03-08T08:40:28.000Z</time></trkpt>
<trkpt lat="42.100911" lon="23.594601"><ele>2178.4</ele><time>2026-03-08T08:40:29.000Z</time></trkpt>
<trkpt lat="42.10091" lon="23.594589"><ele>2178.4</ele><time>2026-03-08T08:40:30.000Z</time></trkpt>
<trkpt lat="42.10091" lon="23.594578"><ele>2178.4</ele><time>2026-03-08T08:40:31.000Z</time></trkpt>
<trkpt lat="42.10091" lon="23.594566"><ele>2178.7</ele><time>2026-03-08T08:40:32.000Z</time></trkpt>
<trkpt lat="42.100909" lon="23.594556"><ele>2178.7</ele><time>2026-03-08T08:40:33.000Z</time></trkpt>
<trkpt lat="42.100909" lon="23.594546"><ele>2178.7</ele><time>2026-03-08T08:40:34.000Z</time></trkpt>
<trkpt lat="42.100908" lon="23.594537"><ele>2178.7</ele><time>2026-03-08T08:40:35.000Z</time></trkpt>
<trkpt lat="42.100907" lon="23.594527"><ele>2178.7</ele><time>2026-03-08T08:40:36.000Z</time></trkpt>
<trkpt lat="42.100907" lon="23.594517"><ele>2179.2</ele><time>2026-03-08T08:40:37.000Z</time></trkpt>
<trkpt lat="42.100909" lon="23.594506"><ele>2179.2</ele><time>2026-03-08T08:40:38.000Z</time></trkpt>
<trkpt lat="42.100911" lon="23.594496"><ele>2179.2</ele><time>2026-03-08T08:40:39.000Z</time></trkpt>
<trkpt lat="42.100913" lon="23.594485"><ele>2179.2</ele><time>2026-03-08T08:40:40.000Z</time></trkpt>
<trkpt lat="42.100915" lon="23.594475"><ele>2179.2</ele><time>2026-03-08T08:40:41.000Z</time></trkpt>
<trkpt lat="42.100916" lon="23.594464"><ele>2179.3</ele><time>2026-03-08T08:40:42.000Z</time></trkpt>
<trkpt lat="42.100915" lon="23.594453"><ele>2179.3</ele><time>2026-03-08T08:40:43.000Z</time></trkpt>
<trkpt lat="42.100915" lon="23.594441"><ele>2179.3</ele><time>2026-03-08T08:40:44.000Z</time></trkpt>
<trkpt lat="42.100915" lon="23.594427"><ele>2179.3</ele><time>2026-03-08T08:40:45.000Z</time></trkpt>
<trkpt lat="42.100914" lon="23.594414"><ele>2179.3</ele><time>2026-03-08T08:40:46.000Z</time></trkpt>
<trkpt lat="42.100912" lon="23.5944"><ele>2179.6</ele><time>2026-03-08T08:40:47.000Z</time></trkpt>
<trkpt lat="42.10091" lon="23.594385"><ele>2179.6</ele><time>2026-03-08T08:40:48.000Z</time></trkpt>
<trkpt lat="42.100907" lon="23.594371"><ele>2179.6</ele><time>2026-03-08T08:40:49.000Z</time></trkpt>
<trkpt lat="42.100905" lon="23.594357"><ele>2179.6</ele><time>2026-03-08T08:40:50.000Z</time></trkpt>
<trkpt lat="42.100904" lon="23.594343"><ele>2179.6</ele><time>2026-03-08T08:40:51.000Z</time></trkpt>
<trkpt lat="42.100904" lon="23.594329"><ele>2180</ele><time>2026-03-08T08:40:52.000Z</time></trkpt>
<trkpt lat="42.100904" lon="23.594315"><ele>2180</ele><time>2026-03-08T08:40:53.000Z</time></trkpt>
<trkpt lat="42.100903" lon="23.594303"><ele>2180</ele><time>2026-03-08T08:40:54.000Z</time></trkpt>
<trkpt lat="42.100903" lon="23.594291"><ele>2180</ele><time>2026-03-08T08:40:55.000Z</time></trkpt>
<trkpt lat="42.100902" lon="23.59428"><ele>2180</ele><time>2026-03-08T08:40:56.000Z</time></trkpt>
<trkpt lat="42.100901" lon="23.59427"><ele>2180.2</ele><time>2026-03-08T08:40:57.000Z</time></trkpt>
<trkpt lat="42.1009" lon="23.594259"><ele>2180.2</ele><time>2026-03-08T08:40:58.000Z</time></trkpt>
<trkpt lat="42.100901" lon="23.594248"><ele>2180.2</ele><time>2026-03-08T08:40:59.000Z</time></trkpt>
<trkpt lat="42.100901" lon="23.594237"><ele>2180.2</ele><time>2026-03-08T08:41:00.000Z</time></trkpt>
<trkpt lat="42.100901" lon="23.594225"><ele>2180.2</ele><time>2026-03-08T08:41:01.000Z</time></trkpt>
<trkpt lat="42.100901" lon="23.594213"><ele>2180.6</ele><time>2026-03-08T08:41:02.000Z</time></trkpt>
<trkpt lat="42.1009" lon="23.594202"><ele>2180.6</ele><time>2026-03-08T08:41:03.000Z</time></trkpt>
<trkpt lat="42.1009" lon="23.59419"><ele>2180.6</ele><time>2026-03-08T08:41:04.000Z</time></trkpt>
<trkpt lat="42.1009" lon="23.594178"><ele>2180.6</ele><time>2026-03-08T08:41:05.000Z</time></trkpt>
<trkpt lat="42.100901" lon="23.594168"><ele>2180.6</ele><time>2026-03-08T08:41:06.000Z</time></trkpt>
<trkpt lat="42.100902" lon="23.594157"><ele>2180.9</ele><time>2026-03-08T08:41:07.000Z</time></trkpt>
<trkpt lat="42.100903" lon="23.594147"><ele>2180.9</ele><time>2026-03-08T08:41:08.000Z</time></trkpt>
<trkpt lat="42.100905" lon="23.594137"><ele>2180.9</ele><time>2026-03-08T08:41:09.000Z</time></trkpt>
<trkpt lat="42.100906" lon="23.594128"><ele>2180.9</ele><time>2026-03-08T08:41:10.000Z</time></trkpt>
<trkpt lat="42.100906" lon="23.594118"><ele>2180.9</ele><time>2026-03-08T08:41:11.000Z</time></trkpt>
<trkpt lat="42.100907" lon="23.594108"><ele>2181.1</ele><time>2026-03-08T08:41:12.000Z</time></trkpt>
<trkpt lat="42.100908" lon="23.594099"><ele>2181.1</ele><time>2026-03-08T08:41:13.000Z</time></trkpt>
<trkpt lat="42.100908" lon="23.59409"><ele>2181.1</ele><time>2026-03-08T08:41:14.000Z</time></trkpt>
<trkpt lat="42.100908" lon="23.594082"><ele>2181.1</ele><time>2026-03-08T08:41:15.000Z</time></trkpt>
<trkpt lat="42.100907" lon="23.594073"><ele>2181.1</ele><time>2026-03-08T08:41:16.000Z</time></trkpt>
<trkpt lat="42.100906" lon="23.594065"><ele>2181.5</ele><time>2026-03-08T08:41:17.000Z</time></trkpt>
<trkpt lat="42.100905" lon="23.594056"><ele>2181.5</ele><time>2026-03-08T08:41:18.000Z</time></trkpt>
<trkpt lat="42.100904" lon="23.594047"><ele>2181.5</ele><time>2026-03-08T08:41:19.000Z</time></trkpt>
<trkpt lat="42.100903" lon="23.594037"><ele>2181.5</ele><time>2026-03-08T08:41:20.000Z</time></trkpt>
<trkpt lat="42.100902" lon="23.594027"><ele>2181.5</ele><time>2026-03-08T08:41:21.000Z</time></trkpt>
<trkpt lat="42.100901" lon="23.594017"><ele>2181.9</ele><time>2026-03-08T08:41:22.000Z</time></trkpt>
<trkpt lat="42.100901" lon="23.594005"><ele>2181.9</ele><time>2026-03-08T08:41:23.000Z</time></trkpt>
<trkpt lat="42.1009" lon="23.593994"><ele>2181.9</ele><time>2026-03-08T08:41:24.000Z</time></trkpt>
<trkpt lat="42.1009" lon="23.593982"><ele>2181.9</ele><time>2026-03-08T08:41:25.000Z</time></trkpt>
<trkpt lat="42.1009" lon="23.593969"><ele>2181.9</ele><time>2026-03-08T08:41:26.000Z</time></trkpt>
<trkpt lat="42.100899" lon="23.593957"><ele>2182.1</ele><time>2026-03-08T08:41:27.000Z</time></trkpt>
<trkpt lat="42.100899" lon="23.593945"><ele>2182.1</ele><time>2026-03-08T08:41:28.000Z</time></trkpt>
<trkpt lat="42.100899" lon="23.593932"><ele>2182.1</ele><time>2026-03-08T08:41:29.000Z</time></trkpt>
<trkpt lat="42.100899" lon="23.593919"><ele>2182.1</ele><time>2026-03-08T08:41:30.000Z</time></trkpt>
<trkpt lat="42.100898" lon="23.593906"><ele>2182.1</ele><time>2026-03-08T08:41:31.000Z</time></trkpt>
<trkpt lat="42.100899" lon="23.593893"><ele>2182.6</ele><time>2026-03-08T08:41:32.000Z</time></trkpt>
<trkpt lat="42.100899" lon="23.59388"><ele>2182.6</ele><time>2026-03-08T08:41:33.000Z</time></trkpt>
<trkpt lat="42.100899" lon="23.593868"><ele>2182.6</ele><time>2026-03-08T08:41:34.000Z</time></trkpt>
<trkpt lat="42.1009" lon="23.593856"><ele>2182.6</ele><time>2026-03-08T08:41:35.000Z</time></trkpt>
<trkpt lat="42.100902" lon="23.593846"><ele>2182.6</ele><time>2026-03-08T08:41:36.000Z</time></trkpt>
<trkpt lat="42.100903" lon="23.593835"><ele>2182.9</ele><time>2026-03-08T08:41:37.000Z</time></trkpt>
<trkpt lat="42.100904" lon="23.593825"><ele>2182.9</ele><time>2026-03-08T08:41:38.000Z</time></trkpt>
<trkpt lat="42.100904" lon="23.593814"><ele>2182.9</ele><time>2026-03-08T08:41:39.000Z</time></trkpt>
<trkpt lat="42.100904" lon="23.593802"><ele>2182.9</ele><time>2026-03-08T08:41:40.000Z</time></trkpt>
<trkpt lat="42.100904" lon="23.59379"><ele>2182.9</ele><time>2026-03-08T08:41:41.000Z</time></trkpt>
<trkpt lat="42.100904" lon="23.593779"><ele>2183.1</ele><time>2026-03-08T08:41:42.000Z</time></trkpt>
<trkpt lat="42.100905" lon="23.593768"><ele>2183.1</ele><time>2026-03-08T08:41:43.000Z</time></trkpt>
<trkpt lat="42.100905" lon="23.593758"><ele>2183.1</ele><time>2026-03-08T08:41:44.000Z</time></trkpt>
<trkpt lat="42.100906" lon="23.593748"><ele>2183.1</ele><time>2026-03-08T08:41:45.000Z</time></trkpt>
<trkpt lat="42.100907" lon="23.593737"><ele>2183.1</ele><time>2026-03-08T08:41:46.000Z</time></trkpt>
<trkpt lat="42.100907" lon="23.593726"><ele>2183.4</ele><time>2026-03-08T08:41:47.000Z</time></trkpt>
<trkpt lat="42.100909" lon="23.593715"><ele>2183.4</ele><time>2026-03-08T08:41:48.000Z</time></trkpt>
<trkpt lat="42.100912" lon="23.593703"><ele>2183.4</ele><time>2026-03-08T08:41:49.000Z</time></trkpt>
<trkpt lat="42.100913" lon="23.593692"><ele>2183.4</ele><time>2026-03-08T08:41:50.000Z</time></trkpt>
<trkpt lat="42.100914" lon="23.593682"><ele>2183.4</ele><time>2026-03-08T08:41:51.000Z</time></trkpt>
<trkpt lat="42.100913" lon="23.593671"><ele>2183.8</ele><time>2026-03-08T08:41:52.000Z</time></trkpt>
<trkpt lat="42.100913" lon="23.59366"><ele>2183.8</ele><time>2026-03-08T08:41:53.000Z</time></trkpt>
<trkpt lat="42.100913" lon="23.593649"><ele>2183.8</ele><time>2026-03-08T08:41:54.000Z</time></trkpt>
<trkpt lat="42.100914" lon="23.593639"><ele>2183.8</ele><time>2026-03-08T08:41:55.000Z</time></trkpt>
<trkpt lat="42.100915" lon="23.593629"><ele>2183.8</ele><time>2026-03-08T08:41:56.000Z</time></trkpt>
<trkpt lat="42.100916" lon="23.593618"><ele>2184.1</ele><time>2026-03-08T08:41:57.000Z</time></trkpt>
<trkpt lat="42.100918" lon="23.593609"><ele>2184.1</ele><time>2026-03-08T08:41:58.000Z</time></trkpt>
<trkpt lat="42.100921" lon="23.593599"><ele>2184.1</ele><time>2026-03-08T08:41:59.000Z</time></trkpt>
<trkpt lat="42.100924" lon="23.593589"><ele>2184.1</ele><time>2026-03-08T08:42:00.000Z</time></trkpt>
<trkpt lat="42.100927" lon="23.593578"><ele>2184.1</ele><time>2026-03-08T08:42:01.000Z</time></trkpt>
<trkpt lat="42.10093" lon="23.593568"><ele>2184.5</ele><time>2026-03-08T08:42:02.000Z</time></trkpt>
<trkpt lat="42.100933" lon="23.593557"><ele>2184.5</ele><time>2026-03-08T08:42:03.000Z</time></trkpt>
<trkpt lat="42.100935" lon="23.593547"><ele>2184.5</ele><time>2026-03-08T08:42:04.000Z</time></trkpt>
<trkpt lat="42.100937" lon="23.593537"><ele>2184.5</ele><time>2026-03-08T08:42:05.000Z</time></trkpt>
<trkpt lat="42.100938" lon="23.593528"><ele>2184.5</ele><time>2026-03-08T08:42:06.000Z</time></trkpt>
<trkpt lat="42.10094" lon="23.593518"><ele>2184.8</ele><time>2026-03-08T08:42:07.000Z</time></trkpt>
<trkpt lat="42.10094" lon="23.593509"><ele>2184.8</ele><time>2026-03-08T08:42:08.000Z</time></trkpt>
<trkpt lat="42.100941" lon="23.593501"><ele>2184.8</ele><time>2026-03-08T08:42:09.000Z</time></trkpt>
<trkpt lat="42.100941" lon="23.593494"><ele>2184.8</ele><time>2026-03-08T08:42:10.000Z</time></trkpt>
<trkpt lat="42.100941" lon="23.593489"><ele>2184.8</ele><time>2026-03-08T08:42:11.000Z</time></trkpt>
<trkpt lat="42.100939" lon="23.593486"><ele>2185</ele><time>2026-03-08T08:42:12.000Z</time></trkpt>
<trkpt lat="42.100938" lon="23.593485"><ele>2185</ele><time>2026-03-08T08:42:13.000Z</time></trkpt>
<trkpt lat="42.100937" lon="23.593484"><ele>2185</ele><time>2026-03-08T08:42:14.000Z</time></trkpt>
<trkpt lat="42.100936" lon="23.593483"><ele>2185</ele><time>2026-03-08T08:42:15.000Z</time></trkpt>
<trkpt lat="42.100936" lon="23.593483"><ele>2185</ele><time>2026-03-08T08:42:16.000Z</time></trkpt>
<trkpt lat="42.100935" lon="23.593483"><ele>2185.2</ele><time>2026-03-08T08:42:17.000Z</time></trkpt>
<trkpt lat="42.100935" lon="23.593483"><ele>2185.2</ele><time>2026-03-08T08:42:18.000Z</time></trkpt>
<trkpt lat="42.100936" lon="23.593483"><ele>2185.2</ele><time>2026-03-08T08:42:19.000Z</time></trkpt>
<trkpt lat="42.100937" lon="23.593482"><ele>2185.2</ele><time>2026-03-08T08:42:20.000Z</time></trkpt>
<trkpt lat="42.100938" lon="23.593482"><ele>2185.2</ele><time>2026-03-08T08:42:21.000Z</time></trkpt>
<trkpt lat="42.100938" lon="23.593482"><ele>2185.3</ele><time>2026-03-08T08:42:22.000Z</time></trkpt>
<trkpt lat="42.100939" lon="23.593481"><ele>2185.3</ele><time>2026-03-08T08:42:23.000Z</time></trkpt>
<trkpt lat="42.100939" lon="23.593481"><ele>2185.3</ele><time>2026-03-08T08:42:24.000Z</time></trkpt>
<trkpt lat="42.100938" lon="23.59348"><ele>2185.3</ele><time>2026-03-08T08:42:25.000Z</time></trkpt>
<trkpt lat="42.100937" lon="23.59348"><ele>2185.3</ele><time>2026-03-08T08:42:26.000Z</time></trkpt>
<trkpt lat="42.100936" lon="23.593479"><ele>2185.3</ele><time>2026-03-08T08:42:27.000Z</time></trkpt>
<trkpt lat="42.100935" lon="23.593478"><ele>2185.3</ele><time>2026-03-08T08:42:28.000Z</time></trkpt>
<trkpt lat="42.100935" lon="23.593478"><ele>2185.3</ele><time>2026-03-08T08:42:29.000Z</time></trkpt>
<trkpt lat="42.100935" lon="23.593478"><ele>2185.3</ele><time>2026-03-08T08:42:30.000Z</time></trkpt>
<trkpt lat="42.100935" lon="23.593478"><ele>2185.3</ele><time>2026-03-08T08:42:31.000Z</time></trkpt>
<trkpt lat="42.100935" lon="23.593476"><ele>2185</ele><time>2026-03-08T08:42:32.000Z</time></trkpt>
<trkpt lat="42.100935" lon="23.593473"><ele>2185</ele><time>2026-03-08T08:42:33.000Z</time></trkpt>
<trkpt lat="42.100934" lon="23.593466"><ele>2185</ele><time>2026-03-08T08:42:34.000Z</time></trkpt>
<trkpt lat="42.100933" lon="23.593458"><ele>2185</ele><time>2026-03-08T08:42:35.000Z</time></trkpt>
<trkpt lat="42.100932" lon="23.593448"><ele>2185</ele><time>2026-03-08T08:42:36.000Z</time></trkpt>
<trkpt lat="42.100932" lon="23.593439"><ele>2184.8</ele><time>2026-03-08T08:42:37.000Z</time></trkpt>
<trkpt lat="42.100933" lon="23.593428"><ele>2184.8</ele><time>2026-03-08T08:42:38.000Z</time></trkpt>
<trkpt lat="42.100935" lon="23.593418"><ele>2184.8</ele><time>2026-03-08T08:42:39.000Z</time></trkpt>
<trkpt lat="42.100936" lon="23.593408"><ele>2184.8</ele><time>2026-03-08T08:42:40.000Z</time></trkpt>
<trkpt lat="42.100939" lon="23.593398"><ele>2184.8</ele><time>2026-03-08T08:42:41.000Z</time></trkpt>
<trkpt lat="42.100942" lon="23.593387"><ele>2184.9</ele><time>2026-03-08T08:42:42.000Z</time></trkpt>
<trkpt lat="42.100944" lon="23.593376"><ele>2184.9</ele><time>2026-03-08T08:42:43.000Z</time></trkpt>
<trkpt lat="42.100945" lon="23.593366"><ele>2184.9</ele><time>2026-03-08T08:42:44.000Z</time></trkpt>
<trkpt lat="42.100948" lon="23.593356"><ele>2184.9</ele><time>2026-03-08T08:42:45.000Z</time></trkpt>
<trkpt lat="42.10095" lon="23.593345"><ele>2184.9</ele><time>2026-03-08T08:42:46.000Z</time></trkpt>
<trkpt lat="42.100954" lon="23.593334"><ele>2185.1</ele><time>2026-03-08T08:42:47.000Z</time></trkpt>
<trkpt lat="42.100957" lon="23.593324"><ele>2185.1</ele><time>2026-03-08T08:42:48.000Z</time></trkpt>
<trkpt lat="42.100961" lon="23.593314"><ele>2185.1</ele><time>2026-03-08T08:42:49.000Z</time></trkpt>
<trkpt lat="42.100965" lon="23.593304"><ele>2185.1</ele><time>2026-03-08T08:42:50.000Z</time></trkpt>
<trkpt lat="42.100967" lon="23.593295"><ele>2185.1</ele><time>2026-03-08T08:42:51.000Z</time></trkpt>
<trkpt lat="42.100969" lon="23.593286"><ele>2185.2</ele><time>2026-03-08T08:42:52.000Z</time></trkpt>
<trkpt lat="42.10097" lon="23.593277"><ele>2185.2</ele><time>2026-03-08T08:42:53.000Z</time></trkpt>
<trkpt lat="42.10097" lon="23.593268"><ele>2185.2</ele><time>2026-03-08T08:42:54.000Z</time></trkpt>
<trkpt lat="42.10097" lon="23.593259"><ele>2185.2</ele><time>2026-03-08T08:42:55.000Z</time></trkpt>
<trkpt lat="42.10097" lon="23.593249"><ele>2185.2</ele><time>2026-03-08T08:42:56.000Z</time></trkpt>
<trkpt lat="42.10097" lon="23.593239"><ele>2185.3</ele><time>2026-03-08T08:42:57.000Z</time></trkpt>
<trkpt lat="42.100971" lon="23.593229"><ele>2185.3</ele><time>2026-03-08T08:42:58.000Z</time></trkpt>
<trkpt lat="42.10097" lon="23.59322"><ele>2185.3</ele><time>2026-03-08T08:42:59.000Z</time></trkpt>
<trkpt lat="42.100969" lon="23.593212"><ele>2185.3</ele><time>2026-03-08T08:43:00.000Z</time></trkpt>
<trkpt lat="42.10097" lon="23.593204"><ele>2185.3</ele><time>2026-03-08T08:43:01.000Z</time></trkpt>
<trkpt lat="42.10097" lon="23.593196"><ele>2185.3</ele><time>2026-03-08T08:43:02.000Z</time></trkpt>
<trkpt lat="42.100971" lon="23.593188"><ele>2185.3</ele><time>2026-03-08T08:43:03.000Z</time></trkpt>
<trkpt lat="42.100971" lon="23.593178"><ele>2185.3</ele><time>2026-03-08T08:43:04.000Z</time></trkpt>
<trkpt lat="42.100972" lon="23.593167"><ele>2185.3</ele><time>2026-03-08T08:43:05.000Z</time></trkpt>
<trkpt lat="42.100973" lon="23.593157"><ele>2185.3</ele><time>2026-03-08T08:43:06.000Z</time></trkpt>
<trkpt lat="42.100973" lon="23.593147"><ele>2185.4</ele><time>2026-03-08T08:43:07.000Z</time></trkpt>
<trkpt lat="42.100974" lon="23.593137"><ele>2185.4</ele><time>2026-03-08T08:43:08.000Z</time></trkpt>
<trkpt lat="42.100975" lon="23.593128"><ele>2185.4</ele><time>2026-03-08T08:43:09.000Z</time></trkpt>
<trkpt lat="42.100976" lon="23.593119"><ele>2185.4</ele><time>2026-03-08T08:43:10.000Z</time></trkpt>
<trkpt lat="42.100978" lon="23.59311"><ele>2185.4</ele><time>2026-03-08T08:43:11.000Z</time></trkpt>
<trkpt lat="42.100979" lon="23.593101"><ele>2185.5</ele><time>2026-03-08T08:43:12.000Z</time></trkpt>
<trkpt lat="42.100981" lon="23.593091"><ele>2185.5</ele><time>2026-03-08T08:43:13.000Z</time></trkpt>
<trkpt lat="42.100983" lon="23.593082"><ele>2185.5</ele><time>2026-03-08T08:43:14.000Z</time></trkpt>
<trkpt lat="42.100984" lon="23.593072"><ele>2185.5</ele><time>2026-03-08T08:43:15.000Z</time></trkpt>
<trkpt lat="42.100985" lon="23.593063"><ele>2185.5</ele><time>2026-03-08T08:43:16.000Z</time></trkpt>
<trkpt lat="42.100987" lon="23.593054"><ele>2185.7</ele><time>2026-03-08T08:43:17.000Z</time></trkpt>
<trkpt lat="42.100988" lon="23.593046"><ele>2185.7</ele><time>2026-03-08T08:43:18.000Z</time></trkpt>
<trkpt lat="42.100989" lon="23.593038"><ele>2185.7</ele><time>2026-03-08T08:43:19.000Z</time></trkpt>
<trkpt lat="42.100989" lon="23.593031"><ele>2185.7</ele><time>2026-03-08T08:43:20.000Z</time></trkpt>
<trkpt lat="42.100989" lon="23.593025"><ele>2185.7</ele><time>2026-03-08T08:43:21.000Z</time></trkpt>
<trkpt lat="42.100988" lon="23.593018"><ele>2186.1</ele><time>2026-03-08T08:43:22.000Z</time></trkpt>
<trkpt lat="42.100987" lon="23.593012"><ele>2186.1</ele><time>2026-03-08T08:43:23.000Z</time></trkpt>
<trkpt lat="42.100985" lon="23.593005"><ele>2186.1</ele><time>2026-03-08T08:43:24.000Z</time></trkpt>
<trkpt lat="42.100983" lon="23.592999"><ele>2186.1</ele><time>2026-03-08T08:43:25.000Z</time></trkpt>
<trkpt lat="42.100981" lon="23.592993"><ele>2186.1</ele><time>2026-03-08T08:43:26.000Z</time></trkpt>
<trkpt lat="42.10098" lon="23.592988"><ele>2186.2</ele><time>2026-03-08T08:43:27.000Z</time></trkpt>
<trkpt lat="42.100979" lon="23.592982"><ele>2186.2</ele><time>2026-03-08T08:43:28.000Z</time></trkpt>
<trkpt lat="42.100978" lon="23.592975"><ele>2186.2</ele><time>2026-03-08T08:43:29.000Z</time></trkpt>
<trkpt lat="42.100978" lon="23.592969"><ele>2186.2</ele><time>2026-03-08T08:43:30.000Z</time></trkpt>
<trkpt lat="42.100978" lon="23.592962"><ele>2186.2</ele><time>2026-03-08T08:43:31.000Z</time></trkpt>
<trkpt lat="42.100979" lon="23.592956"><ele>2186.4</ele><time>2026-03-08T08:43:32.000Z</time></trkpt>
<trkpt lat="42.100979" lon="23.59295"><ele>2186.4</ele><time>2026-03-08T08:43:33.000Z</time></trkpt>
<trkpt lat="42.100979" lon="23.592944"><ele>2186.4</ele><time>2026-03-08T08:43:34.000Z</time></trkpt>
<trkpt lat="42.100979" lon="23.592938"><ele>2186.4</ele><time>2026-03-08T08:43:35.000Z</time></trkpt>
<trkpt lat="42.100979" lon="23.592931"><ele>2186.4</ele><time>2026-03-08T08:43:36.000Z</time></trkpt>
<trkpt lat="42.10098" lon="23.592924"><ele>2186.5</ele><time>2026-03-08T08:43:37.000Z</time></trkpt>
<trkpt lat="42.10098" lon="23.592917"><ele>2186.5</ele><time>2026-03-08T08:43:38.000Z</time></trkpt>
<trkpt lat="42.100981" lon="23.592909"><ele>2186.5</ele><time>2026-03-08T08:43:39.000Z</time></trkpt>
<trkpt lat="42.100982" lon="23.592901"><ele>2186.5</ele><time>2026-03-08T08:43:40.000Z</time></trkpt>
<trkpt lat="42.100983" lon="23.592894"><ele>2186.5</ele><time>2026-03-08T08:43:41.000Z</time></trkpt>
<trkpt lat="42.100985" lon="23.592885"><ele>2186.5</ele><time>2026-03-08T08:43:42.000Z</time></trkpt>
<trkpt lat="42.100986" lon="23.592878"><ele>2186.5</ele><time>2026-03-08T08:43:43.000Z</time></trkpt>
<trkpt lat="42.100988" lon="23.592872"><ele>2186.5</ele><time>2026-03-08T08:43:44.000Z</time></trkpt>
<trkpt lat="42.100989" lon="23.592865"><ele>2186.5</ele><time>2026-03-08T08:43:45.000Z</time></trkpt>
<trkpt lat="42.100991" lon="23.592857"><ele>2186.5</ele><time>2026-03-08T08:43:46.000Z</time></trkpt>
<trkpt lat="42.100992" lon="23.59285"><ele>2186.7</ele><time>2026-03-08T08:43:47.000Z</time></trkpt>
<trkpt lat="42.100993" lon="23.592842"><ele>2186.7</ele><time>2026-03-08T08:43:48.000Z</time></trkpt>
<trkpt lat="42.100995" lon="23.592835"><ele>2186.7</ele><time>2026-03-08T08:43:49.000Z</time></trkpt>
<trkpt lat="42.100995" lon="23.592828"><ele>2186.7</ele><time>2026-03-08T08:43:50.000Z</time></trkpt>
<trkpt lat="42.100995" lon="23.592822"><ele>2186.7</ele><time>2026-03-08T08:43:51.000Z</time></trkpt>
<trkpt lat="42.100995" lon="23.592815"><ele>2186.9</ele><time>2026-03-08T08:43:52.000Z</time></trkpt>
<trkpt lat="42.100995" lon="23.592806"><ele>2186.9</ele><time>2026-03-08T08:43:53.000Z</time></trkpt>
<trkpt lat="42.100995" lon="23.592797"><ele>2186.9</ele><time>2026-03-08T08:43:54.000Z</time></trkpt>
<trkpt lat="42.100996" lon="23.592786"><ele>2186.9</ele><time>2026-03-08T08:43:55.000Z</time></trkpt>
<trkpt lat="42.100997" lon="23.592775"><ele>2186.9</ele><time>2026-03-08T08:43:56.000Z</time></trkpt>
<trkpt lat="42.100999" lon="23.592763"><ele>2186.9</ele><time>2026-03-08T08:43:57.000Z</time></trkpt>
<trkpt lat="42.101" lon="23.592751"><ele>2186.9</ele><time>2026-03-08T08:43:58.000Z</time></trkpt>
<trkpt lat="42.101" lon="23.59274"><ele>2186.9</ele><time>2026-03-08T08:43:59.000Z</time></trkpt>
<trkpt lat="42.101" lon="23.59273"><ele>2186.9</ele><time>2026-03-08T08:44:00.000Z</time></trkpt>
<trkpt lat="42.100999" lon="23.59272"><ele>2186.9</ele><time>2026-03-08T08:44:01.000Z</time></trkpt>
<trkpt lat="42.100998" lon="23.592711"><ele>2187</ele><time>2026-03-08T08:44:02.000Z</time></trkpt>
<trkpt lat="42.100996" lon="23.592702"><ele>2187</ele><time>2026-03-08T08:44:03.000Z</time></trkpt>
<trkpt lat="42.100996" lon="23.592692"><ele>2187</ele><time>2026-03-08T08:44:04.000Z</time></trkpt>
<trkpt lat="42.100995" lon="23.592682"><ele>2187</ele><time>2026-03-08T08:44:05.000Z</time></trkpt>
<trkpt lat="42.100995" lon="23.592671"><ele>2187</ele><time>2026-03-08T08:44:06.000Z</time></trkpt>
<trkpt lat="42.100996" lon="23.59266"><ele>2187.3</ele><time>2026-03-08T08:44:07.000Z</time></trkpt>
<trkpt lat="42.100996" lon="23.592651"><ele>2187.3</ele><time>2026-03-08T08:44:08.000Z</time></trkpt>
<trkpt lat="42.100997" lon="23.59264"><ele>2187.3</ele><time>2026-03-08T08:44:09.000Z</time></trkpt>
<trkpt lat="42.100998" lon="23.59263"><ele>2187.3</ele><time>2026-03-08T08:44:10.000Z</time></trkpt>
<trkpt lat="42.101" lon="23.592621"><ele>2187.3</ele><time>2026-03-08T08:44:11.000Z</time></trkpt>
<trkpt lat="42.101001" lon="23.592611"><ele>2187.5</ele><time>2026-03-08T08:44:12.000Z</time></trkpt>
<trkpt lat="42.101003" lon="23.592601"><ele>2187.5</ele><time>2026-03-08T08:44:13.000Z</time></trkpt>
<trkpt lat="42.101005" lon="23.592591"><ele>2187.5</ele><time>2026-03-08T08:44:14.000Z</time></trkpt>
<trkpt lat="42.101006" lon="23.59258"><ele>2187.5</ele><time>2026-03-08T08:44:15.000Z</time></trkpt>
<trkpt lat="42.101008" lon="23.592569"><ele>2187.5</ele><time>2026-03-08T08:44:16.000Z</time></trkpt>
<trkpt lat="42.101011" lon="23.592557"><ele>2187.8</ele><time>2026-03-08T08:44:17.000Z</time></trkpt>
<trkpt lat="42.101014" lon="23.592545"><ele>2187.8</ele><time>2026-03-08T08:44:18.000Z</time></trkpt>
<trkpt lat="42.101018" lon="23.592533"><ele>2187.8</ele><time>2026-03-08T08:44:19.000Z</time></trkpt>
<trkpt lat="42.101021" lon="23.592521"><ele>2187.8</ele><time>2026-03-08T08:44:20.000Z</time></trkpt>
<trkpt lat="42.101025" lon="23.592509"><ele>2187.8</ele><time>2026-03-08T08:44:21.000Z</time></trkpt>
<trkpt lat="42.101027" lon="23.592497"><ele>2188.1</ele><time>2026-03-08T08:44:22.000Z</time></trkpt>
<trkpt lat="42.101029" lon="23.592483"><ele>2188.1</ele><time>2026-03-08T08:44:23.000Z</time></trkpt>
<trkpt lat="42.101031" lon="23.59247"><ele>2188.1</ele><time>2026-03-08T08:44:24.000Z</time></trkpt>
<trkpt lat="42.101032" lon="23.592456"><ele>2188.1</ele><time>2026-03-08T08:44:25.000Z</time></trkpt>
<trkpt lat="42.101034" lon="23.592443"><ele>2188.1</ele><time>2026-03-08T08:44:26.000Z</time></trkpt>
<trkpt lat="42.101036" lon="23.592432"><ele>2188.2</ele><time>2026-03-08T08:44:27.000Z</time></trkpt>
<trkpt lat="42.101039" lon="23.592422"><ele>2188.2</ele><time>2026-03-08T08:44:28.000Z</time></trkpt>
<trkpt lat="42.101042" lon="23.592412"><ele>2188.2</ele><time>2026-03-08T08:44:29.000Z</time></trkpt>
<trkpt lat="42.101045" lon="23.592401"><ele>2188.2</ele><time>2026-03-08T08:44:30.000Z</time></trkpt>
<trkpt lat="42.101049" lon="23.592392"><ele>2188.2</ele><time>2026-03-08T08:44:31.000Z</time></trkpt>
<trkpt lat="42.101052" lon="23.592383"><ele>2188.5</ele><time>2026-03-08T08:44:32.000Z</time></trkpt>
<trkpt lat="42.101056" lon="23.592373"><ele>2188.5</ele><time>2026-03-08T08:44:33.000Z</time></trkpt>
<trkpt lat="42.101061" lon="23.592364"><ele>2188.5</ele><time>2026-03-08T08:44:34.000Z</time></trkpt>
<trkpt lat="42.101065" lon="23.592355"><ele>2188.5</ele><time>2026-03-08T08:44:35.000Z</time></trkpt>
<trkpt lat="42.10107" lon="23.592346"><ele>2188.5</ele><time>2026-03-08T08:44:36.000Z</time></trkpt>
<trkpt lat="42.101074" lon="23.592336"><ele>2188.5</ele><time>2026-03-08T08:44:37.000Z</time></trkpt>
<trkpt lat="42.101079" lon="23.592326"><ele>2188.5</ele><time>2026-03-08T08:44:38.000Z</time></trkpt>
<trkpt lat="42.101083" lon="23.592316"><ele>2188.5</ele><time>2026-03-08T08:44:39.000Z</time></trkpt>
<trkpt lat="42.101087" lon="23.592307"><ele>2188.5</ele><time>2026-03-08T08:44:40.000Z</time></trkpt>
<trkpt lat="42.101091" lon="23.592297"><ele>2188.5</ele><time>2026-03-08T08:44:41.000Z</time></trkpt>
<trkpt lat="42.101094" lon="23.592288"><ele>2188.5</ele><time>2026-03-08T08:44:42.000Z</time></trkpt>
<trkpt lat="42.101096" lon="23.592278"><ele>2188.5</ele><time>2026-03-08T08:44:43.000Z</time></trkpt>
<trkpt lat="42.101099" lon="23.592269"><ele>2188.5</ele><time>2026-03-08T08:44:44.000Z</time></trkpt>
<trkpt lat="42.101102" lon="23.592259"><ele>2188.5</ele><time>2026-03-08T08:44:45.000Z</time></trkpt>
<trkpt lat="42.101106" lon="23.592249"><ele>2188.5</ele><time>2026-03-08T08:44:46.000Z</time></trkpt>
<trkpt lat="42.101111" lon="23.59224"><ele>2188.7</ele><time>2026-03-08T08:44:47.000Z</time></trkpt>
<trkpt lat="42.101117" lon="23.592233"><ele>2188.7</ele><time>2026-03-08T08:44:48.000Z</time></trkpt>
<trkpt lat="42.101123" lon="23.592224"><ele>2188.7</ele><time>2026-03-08T08:44:49.000Z</time></trkpt>
<trkpt lat="42.101129" lon="23.592217"><ele>2188.7</ele><time>2026-03-08T08:44:50.000Z</time></trkpt>
<trkpt lat="42.101135" lon="23.592209"><ele>2188.7</ele><time>2026-03-08T08:44:51.000Z</time></trkpt>
<trkpt lat="42.10114" lon="23.592201"><ele>2189</ele><time>2026-03-08T08:44:52.000Z</time></trkpt>
<trkpt lat="42.101144" lon="23.592193"><ele>2189</ele><time>2026-03-08T08:44:53.000Z</time></trkpt>
<trkpt lat="42.101148" lon="23.592185"><ele>2189</ele><time>2026-03-08T08:44:54.000Z</time></trkpt>
<trkpt lat="42.101152" lon="23.592177"><ele>2189</ele><time>2026-03-08T08:44:55.000Z</time></trkpt>
<trkpt lat="42.101155" lon="23.592169"><ele>2189</ele><time>2026-03-08T08:44:56.000Z</time></trkpt>
<trkpt lat="42.101159" lon="23.59216"><ele>2189.1</ele><time>2026-03-08T08:44:57.000Z</time></trkpt>
<trkpt lat="42.101163" lon="23.592151"><ele>2189.1</ele><time>2026-03-08T08:44:58.000Z</time></trkpt>
<trkpt lat="42.101166" lon="23.592141"><ele>2189.1</ele><time>2026-03-08T08:44:59.000Z</time></trkpt>
<trkpt lat="42.101168" lon="23.592132"><ele>2189.1</ele><time>2026-03-08T08:45:00.000Z</time></trkpt>
<trkpt lat="42.101171" lon="23.592124"><ele>2189.1</ele><time>2026-03-08T08:45:01.000Z</time></trkpt>
<trkpt lat="42.101174" lon="23.592117"><ele>2189.3</ele><time>2026-03-08T08:45:02.000Z</time></trkpt>
<trkpt lat="42.101177" lon="23.59211"><ele>2189.3</ele><time>2026-03-08T08:45:03.000Z</time></trkpt>
<trkpt lat="42.101181" lon="23.592103"><ele>2189.3</ele><time>2026-03-08T08:45:04.000Z</time></trkpt>
<trkpt lat="42.101185" lon="23.592096"><ele>2189.3</ele><time>2026-03-08T08:45:05.000Z</time></trkpt>
<trkpt lat="42.101188" lon="23.592089"><ele>2189.3</ele><time>2026-03-08T08:45:06.000Z</time></trkpt>
<trkpt lat="42.101192" lon="23.592082"><ele>2189.5</ele><time>2026-03-08T08:45:07.000Z</time></trkpt>
<trkpt lat="42.101196" lon="23.592074"><ele>2189.5</ele><time>2026-03-08T08:45:08.000Z</time></trkpt>
<trkpt lat="42.101202" lon="23.592065"><ele>2189.5</ele><time>2026-03-08T08:45:09.000Z</time></trkpt>
<trkpt lat="42.101208" lon="23.592058"><ele>2189.5</ele><time>2026-03-08T08:45:10.000Z</time></trkpt>
<trkpt lat="42.101214" lon="23.592051"><ele>2189.5</ele><time>2026-03-08T08:45:11.000Z</time></trkpt>
<trkpt lat="42.101222" lon="23.592044"><ele>2189.6</ele><time>2026-03-08T08:45:12.000Z</time></trkpt>
<trkpt lat="42.101228" lon="23.592037"><ele>2189.6</ele><time>2026-03-08T08:45:13.000Z</time></trkpt>
<trkpt lat="42.101232" lon="23.592032"><ele>2189.6</ele><time>2026-03-08T08:45:14.000Z</time></trkpt>
<trkpt lat="42.101237" lon="23.592026"><ele>2189.6</ele><time>2026-03-08T08:45:15.000Z</time></trkpt>
<trkpt lat="42.101241" lon="23.592019"><ele>2189.6</ele><time>2026-03-08T08:45:16.000Z</time></trkpt>
<trkpt lat="42.101245" lon="23.592013"><ele>2189.5</ele><time>2026-03-08T08:45:17.000Z</time></trkpt>
<trkpt lat="42.101249" lon="23.592007"><ele>2189.5</ele><time>2026-03-08T08:45:18.000Z</time></trkpt>
<trkpt lat="42.101252" lon="23.592"><ele>2189.5</ele><time>2026-03-08T08:45:19.000Z</time></trkpt>
<trkpt lat="42.101256" lon="23.591992"><ele>2189.5</ele><time>2026-03-08T08:45:20.000Z</time></trkpt>
<trkpt lat="42.101259" lon="23.591985"><ele>2189.5</ele><time>2026-03-08T08:45:21.000Z</time></trkpt>
<trkpt lat="42.101264" lon="23.591977"><ele>2189.5</ele><time>2026-03-08T08:45:22.000Z</time></trkpt>
<trkpt lat="42.10127" lon="23.591968"><ele>2189.5</ele><time>2026-03-08T08:45:23.000Z</time></trkpt>
<trkpt lat="42.101277" lon="23.59196"><ele>2189.5</ele><time>2026-03-08T08:45:24.000Z</time></trkpt>
<trkpt lat="42.101285" lon="23.591954"><ele>2189.5</ele><time>2026-03-08T08:45:25.000Z</time></trkpt>
<trkpt lat="42.101292" lon="23.591948"><ele>2189.5</ele><time>2026-03-08T08:45:26.000Z</time></trkpt>
<trkpt lat="42.1013" lon="23.591942"><ele>2189.6</ele><time>2026-03-08T08:45:27.000Z</time></trkpt>
<trkpt lat="42.101307" lon="23.591936"><ele>2189.6</ele><time>2026-03-08T08:45:28.000Z</time></trkpt>
<trkpt lat="42.101313" lon="23.591931"><ele>2189.6</ele><time>2026-03-08T08:45:29.000Z</time></trkpt>
<trkpt lat="42.101318" lon="23.591925"><ele>2189.6</ele><time>2026-03-08T08:45:30.000Z</time></trkpt>
<trkpt lat="42.101325" lon="23.59192"><ele>2189.6</ele><time>2026-03-08T08:45:31.000Z</time></trkpt>
<trkpt lat="42.101331" lon="23.591915"><ele>2190.1</ele><time>2026-03-08T08:45:32.000Z</time></trkpt>
<trkpt lat="42.101336" lon="23.591909"><ele>2190.1</ele><time>2026-03-08T08:45:33.000Z</time></trkpt>
<trkpt lat="42.101341" lon="23.591902"><ele>2190.1</ele><time>2026-03-08T08:45:34.000Z</time></trkpt>
<trkpt lat="42.101346" lon="23.591895"><ele>2190.1</ele><time>2026-03-08T08:45:35.000Z</time></trkpt>
<trkpt lat="42.10135" lon="23.591888"><ele>2190.1</ele><time>2026-03-08T08:45:36.000Z</time></trkpt>
<trkpt lat="42.101354" lon="23.59188"><ele>2191</ele><time>2026-03-08T08:45:37.000Z</time></trkpt>
<trkpt lat="42.101359" lon="23.591873"><ele>2191</ele><time>2026-03-08T08:45:38.000Z</time></trkpt>
<trkpt lat="42.101365" lon="23.591866"><ele>2191</ele><time>2026-03-08T08:45:39.000Z</time></trkpt>
<trkpt lat="42.101371" lon="23.591859"><ele>2191</ele><time>2026-03-08T08:45:40.000Z</time></trkpt>
<trkpt lat="42.101378" lon="23.59185"><ele>2191</ele><time>2026-03-08T08:45:41.000Z</time></trkpt>
<trkpt lat="42.101384" lon="23.591843"><ele>2191.3</ele><time>2026-03-08T08:45:42.000Z</time></trkpt>
<trkpt lat="42.10139" lon="23.591834"><ele>2191.3</ele><time>2026-03-08T08:45:43.000Z</time></trkpt>
<trkpt lat="42.101396" lon="23.591826"><ele>2191.3</ele><time>2026-03-08T08:45:44.000Z</time></trkpt>
<trkpt lat="42.101403" lon="23.591818"><ele>2191.3</ele><time>2026-03-08T08:45:45.000Z</time></trkpt>
<trkpt lat="42.101409" lon="23.59181"><ele>2191.3</ele><time>2026-03-08T08:45:46.000Z</time></trkpt>
<trkpt lat="42.101415" lon="23.591802"><ele>2192</ele><time>2026-03-08T08:45:47.000Z</time></trkpt>
<trkpt lat="42.101421" lon="23.591793"><ele>2192</ele><time>2026-03-08T08:45:48.000Z</time></trkpt>
<trkpt lat="42.101428" lon="23.591784"><ele>2192</ele><time>2026-03-08T08:45:49.000Z</time></trkpt>
<trkpt lat="42.101434" lon="23.591775"><ele>2192</ele><time>2026-03-08T08:45:50.000Z</time></trkpt>
<trkpt lat="42.10144" lon="23.591765"><ele>2192</ele><time>2026-03-08T08:45:51.000Z</time></trkpt>
<trkpt lat="42.101446" lon="23.591756"><ele>2192.6</ele><time>2026-03-08T08:45:52.000Z</time></trkpt>
<trkpt lat="42.101453" lon="23.591747"><ele>2192.6</ele><time>2026-03-08T08:45:53.000Z</time></trkpt>
<trkpt lat="42.101459" lon="23.591737"><ele>2192.6</ele><time>2026-03-08T08:45:54.000Z</time></trkpt>
<trkpt lat="42.101465" lon="23.591728"><ele>2192.6</ele><time>2026-03-08T08:45:55.000Z</time></trkpt>
<trkpt lat="42.101471" lon="23.591721"><ele>2192.6</ele><time>2026-03-08T08:45:56.000Z</time></trkpt>
<trkpt lat="42.101476" lon="23.591713"><ele>2192.8</ele><time>2026-03-08T08:45:57.000Z</time></trkpt>
<trkpt lat="42.101482" lon="23.591706"><ele>2192.8</ele><time>2026-03-08T08:45:58.000Z</time></trkpt>
<trkpt lat="42.101487" lon="23.591699"><ele>2192.8</ele><time>2026-03-08T08:45:59.000Z</time></trkpt>
<trkpt lat="42.101492" lon="23.591692"><ele>2192.8</ele><time>2026-03-08T08:46:00.000Z</time></trkpt>
<trkpt lat="42.101497" lon="23.591686"><ele>2192.8</ele><time>2026-03-08T08:46:01.000Z</time></trkpt>
<trkpt lat="42.101502" lon="23.59168"><ele>2193.2</ele><time>2026-03-08T08:46:02.000Z</time></trkpt>
<trkpt lat="42.101508" lon="23.591674"><ele>2193.2</ele><time>2026-03-08T08:46:03.000Z</time></trkpt>
<trkpt lat="42.101512" lon="23.59167"><ele>2193.2</ele><time>2026-03-08T08:46:04.000Z</time></trkpt>
<trkpt lat="42.101518" lon="23.591666"><ele>2193.2</ele><time>2026-03-08T08:46:05.000Z</time></trkpt>
<trkpt lat="42.101523" lon="23.591662"><ele>2193.2</ele><time>2026-03-08T08:46:06.000Z</time></trkpt>
<trkpt lat="42.101529" lon="23.591658"><ele>2193.6</ele><time>2026-03-08T08:46:07.000Z</time></trkpt>
<trkpt lat="42.101534" lon="23.591653"><ele>2193.6</ele><time>2026-03-08T08:46:08.000Z</time></trkpt>
<trkpt lat="42.10154" lon="23.591647"><ele>2193.6</ele><time>2026-03-08T08:46:09.000Z</time></trkpt>
<trkpt lat="42.101547" lon="23.591642"><ele>2193.6</ele><time>2026-03-08T08:46:10.000Z</time></trkpt>
<trkpt lat="42.101553" lon="23.591636"><ele>2193.6</ele><time>2026-03-08T08:46:11.000Z</time></trkpt>
<trkpt lat="42.101559" lon="23.591631"><ele>2193.7</ele><time>2026-03-08T08:46:12.000Z</time></trkpt>
<trkpt lat="42.101564" lon="23.591627"><ele>2193.7</ele><time>2026-03-08T08:46:13.000Z</time></trkpt>
<trkpt lat="42.101569" lon="23.591621"><ele>2193.7</ele><time>2026-03-08T08:46:14.000Z</time></trkpt>
<trkpt lat="42.101572" lon="23.591614"><ele>2193.7</ele><time>2026-03-08T08:46:15.000Z</time></trkpt>
<trkpt lat="42.101575" lon="23.591607"><ele>2193.7</ele><time>2026-03-08T08:46:16.000Z</time></trkpt>
<trkpt lat="42.101579" lon="23.5916"><ele>2194.1</ele><time>2026-03-08T08:46:17.000Z</time></trkpt>
<trkpt lat="42.101582" lon="23.591592"><ele>2194.1</ele><time>2026-03-08T08:46:18.000Z</time></trkpt>
<trkpt lat="42.101584" lon="23.591584"><ele>2194.1</ele><time>2026-03-08T08:46:19.000Z</time></trkpt>
<trkpt lat="42.101586" lon="23.591576"><ele>2194.1</ele><time>2026-03-08T08:46:20.000Z</time></trkpt>
<trkpt lat="42.101587" lon="23.591567"><ele>2194.1</ele><time>2026-03-08T08:46:21.000Z</time></trkpt>
<trkpt lat="42.101588" lon="23.591559"><ele>2194.6</ele><time>2026-03-08T08:46:22.000Z</time></trkpt>
<trkpt lat="42.101589" lon="23.59155"><ele>2194.6</ele><time>2026-03-08T08:46:23.000Z</time></trkpt>
<trkpt lat="42.101589" lon="23.591542"><ele>2194.6</ele><time>2026-03-08T08:46:24.000Z</time></trkpt>
<trkpt lat="42.10159" lon="23.591535"><ele>2194.6</ele><time>2026-03-08T08:46:25.000Z</time></trkpt>
<trkpt lat="42.101592" lon="23.591527"><ele>2194.6</ele><time>2026-03-08T08:46:26.000Z</time></trkpt>
<trkpt lat="42.101593" lon="23.59152"><ele>2195</ele><time>2026-03-08T08:46:27.000Z</time></trkpt>
<trkpt lat="42.101595" lon="23.591513"><ele>2195</ele><time>2026-03-08T08:46:28.000Z</time></trkpt>
<trkpt lat="42.101596" lon="23.591508"><ele>2195</ele><time>2026-03-08T08:46:29.000Z</time></trkpt>
<trkpt lat="42.101598" lon="23.591503"><ele>2195</ele><time>2026-03-08T08:46:30.000Z</time></trkpt>
<trkpt lat="42.101598" lon="23.591501"><ele>2195</ele><time>2026-03-08T08:46:31.000Z</time></trkpt>
<trkpt lat="42.101598" lon="23.591499"><ele>2195.7</ele><time>2026-03-08T08:46:32.000Z</time></trkpt>
<trkpt lat="42.101596" lon="23.591498"><ele>2195.7</ele><time>2026-03-08T08:46:33.000Z</time></trkpt>
<trkpt lat="42.101594" lon="23.591497"><ele>2195.7</ele><time>2026-03-08T08:46:34.000Z</time></trkpt>
<trkpt lat="42.101593" lon="23.591497"><ele>2195.7</ele><time>2026-03-08T08:46:35.000Z</time></trkpt>
<trkpt lat="42.101592" lon="23.591496"><ele>2195.7</ele><time>2026-03-08T08:46:36.000Z</time></trkpt>
<trkpt lat="42.101591" lon="23.591496"><ele>2196.4</ele><time>2026-03-08T08:46:37.000Z</time></trkpt>
<trkpt lat="42.10159" lon="23.591496"><ele>2196.4</ele><time>2026-03-08T08:46:38.000Z</time></trkpt>
<trkpt lat="42.101589" lon="23.591495"><ele>2196.4</ele><time>2026-03-08T08:46:39.000Z</time></trkpt>
<trkpt lat="42.101588" lon="23.591495"><ele>2196.4</ele><time>2026-03-08T08:46:40.000Z</time></trkpt>
<trkpt lat="42.101587" lon="23.591494"><ele>2196.4</ele><time>2026-03-08T08:46:41.000Z</time></trkpt>
<trkpt lat="42.101586" lon="23.591494"><ele>2196.7</ele><time>2026-03-08T08:46:42.000Z</time></trkpt>
<trkpt lat="42.101586" lon="23.591493"><ele>2196.7</ele><time>2026-03-08T08:46:43.000Z</time></trkpt>
<trkpt lat="42.101586" lon="23.591493"><ele>2196.7</ele><time>2026-03-08T08:46:44.000Z</time></trkpt>
<trkpt lat="42.101587" lon="23.59149"><ele>2196.7</ele><time>2026-03-08T08:46:45.000Z</time></trkpt>
<trkpt lat="42.101588" lon="23.591485"><ele>2196.7</ele><time>2026-03-08T08:46:46.000Z</time></trkpt>
<trkpt lat="42.101589" lon="23.591478"><ele>2197</ele><time>2026-03-08T08:46:47.000Z</time></trkpt>
<trkpt lat="42.101591" lon="23.591469"><ele>2197</ele><time>2026-03-08T08:46:48.000Z</time></trkpt>
<trkpt lat="42.101593" lon="23.59146"><ele>2197</ele><time>2026-03-08T08:46:49.000Z</time></trkpt>
<trkpt lat="42.101594" lon="23.59145"><ele>2197</ele><time>2026-03-08T08:46:50.000Z</time></trkpt>
<trkpt lat="42.101596" lon="23.59144"><ele>2197</ele><time>2026-03-08T08:46:51.000Z</time></trkpt>
<trkpt lat="42.101599" lon="23.59143"><ele>2197.2</ele><time>2026-03-08T08:46:52.000Z</time></trkpt>
<trkpt lat="42.101601" lon="23.591421"><ele>2197.2</ele><time>2026-03-08T08:46:53.000Z</time></trkpt>
<trkpt lat="42.101603" lon="23.59141"><ele>2197.2</ele><time>2026-03-08T08:46:54.000Z</time></trkpt>
<trkpt lat="42.101606" lon="23.5914"><ele>2197.2</ele><time>2026-03-08T08:46:55.000Z</time></trkpt>
<trkpt lat="42.101607" lon="23.59139"><ele>2197.2</ele><time>2026-03-08T08:46:56.000Z</time></trkpt>
<trkpt lat="42.101607" lon="23.59138"><ele>2197.3</ele><time>2026-03-08T08:46:57.000Z</time></trkpt>
<trkpt lat="42.101607" lon="23.59137"><ele>2197.3</ele><time>2026-03-08T08:46:58.000Z</time></trkpt>
<trkpt lat="42.101607" lon="23.591359"><ele>2197.3</ele><time>2026-03-08T08:46:59.000Z</time></trkpt>
<trkpt lat="42.101606" lon="23.591349"><ele>2197.3</ele><time>2026-03-08T08:47:00.000Z</time></trkpt>
<trkpt lat="42.101607" lon="23.591339"><ele>2197.3</ele><time>2026-03-08T08:47:01.000Z</time></trkpt>
<trkpt lat="42.10161" lon="23.59133"><ele>2197.5</ele><time>2026-03-08T08:47:02.000Z</time></trkpt>
<trkpt lat="42.101614" lon="23.591323"><ele>2197.5</ele><time>2026-03-08T08:47:03.000Z</time></trkpt>
<trkpt lat="42.10162" lon="23.591317"><ele>2197.5</ele><time>2026-03-08T08:47:04.000Z</time></trkpt>
<trkpt lat="42.101628" lon="23.591311"><ele>2197.5</ele><time>2026-03-08T08:47:05.000Z</time></trkpt>
<trkpt lat="42.101634" lon="23.591306"><ele>2197.5</ele><time>2026-03-08T08:47:06.000Z</time></trkpt>
<trkpt lat="42.101641" lon="23.591301"><ele>2197.7</ele><time>2026-03-08T08:47:07.000Z</time></trkpt>
<trkpt lat="42.101648" lon="23.591295"><ele>2197.7</ele><time>2026-03-08T08:47:08.000Z</time></trkpt>
<trkpt lat="42.101653" lon="23.591289"><ele>2197.7</ele><time>2026-03-08T08:47:09.000Z</time></trkpt>
<trkpt lat="42.101659" lon="23.591283"><ele>2197.7</ele><time>2026-03-08T08:47:10.000Z</time></trkpt>
<trkpt lat="42.101664" lon="23.591277"><ele>2197.7</ele><time>2026-03-08T08:47:11.000Z</time></trkpt>
<trkpt lat="42.101669" lon="23.591269"><ele>2197.9</ele><time>2026-03-08T08:47:12.000Z</time></trkpt>
<trkpt lat="42.101672" lon="23.591263"><ele>2197.9</ele><time>2026-03-08T08:47:13.000Z</time></trkpt>
<trkpt lat="42.101674" lon="23.591255"><ele>2197.9</ele><time>2026-03-08T08:47:14.000Z</time></trkpt>
<trkpt lat="42.101675" lon="23.591247"><ele>2197.9</ele><time>2026-03-08T08:47:15.000Z</time></trkpt>
<trkpt lat="42.101674" lon="23.591239"><ele>2197.9</ele><time>2026-03-08T08:47:16.000Z</time></trkpt>
<trkpt lat="42.101673" lon="23.591231"><ele>2198.2</ele><time>2026-03-08T08:47:17.000Z</time></trkpt>
<trkpt lat="42.101671" lon="23.591222"><ele>2198.2</ele><time>2026-03-08T08:47:18.000Z</time></trkpt>
<trkpt lat="42.10167" lon="23.591213"><ele>2198.2</ele><time>2026-03-08T08:47:19.000Z</time></trkpt>
<trkpt lat="42.101667" lon="23.591205"><ele>2198.2</ele><time>2026-03-08T08:47:20.000Z</time></trkpt>
<trkpt lat="42.101665" lon="23.591197"><ele>2198.2</ele><time>2026-03-08T08:47:21.000Z</time></trkpt>
<trkpt lat="42.101663" lon="23.59119"><ele>2198.7</ele><time>2026-03-08T08:47:22.000Z</time></trkpt>
<trkpt lat="42.101661" lon="23.591185"><ele>2198.7</ele><time>2026-03-08T08:47:23.000Z</time></trkpt>
<trkpt lat="42.101661" lon="23.591181"><ele>2198.7</ele><time>2026-03-08T08:47:24.000Z</time></trkpt>
<trkpt lat="42.101661" lon="23.591179"><ele>2198.7</ele><time>2026-03-08T08:47:25.000Z</time></trkpt>
<trkpt lat="42.101663" lon="23.591179"><ele>2198.7</ele><time>2026-03-08T08:47:26.000Z</time></trkpt>
<trkpt lat="42.101664" lon="23.591179"><ele>2199</ele><time>2026-03-08T08:47:27.000Z</time></trkpt>
<trkpt lat="42.101666" lon="23.59118"><ele>2199</ele><time>2026-03-08T08:47:28.000Z</time></trkpt>
<trkpt lat="42.101667" lon="23.591181"><ele>2199</ele><time>2026-03-08T08:47:29.000Z</time></trkpt>
<trkpt lat="42.101668" lon="23.591182"><ele>2199</ele><time>2026-03-08T08:47:30.000Z</time></trkpt>
<trkpt lat="42.101669" lon="23.591182"><ele>2199</ele><time>2026-03-08T08:47:31.000Z</time></trkpt>
<trkpt lat="42.101669" lon="23.591182"><ele>2199.4</ele><time>2026-03-08T08:47:32.000Z</time></trkpt>
<trkpt lat="42.101669" lon="23.591181"><ele>2199.4</ele><time>2026-03-08T08:47:33.000Z</time></trkpt>
<trkpt lat="42.101669" lon="23.591181"><ele>2199.4</ele><time>2026-03-08T08:47:34.000Z</time></trkpt>
<trkpt lat="42.101669" lon="23.59118"><ele>2199.4</ele><time>2026-03-08T08:47:35.000Z</time></trkpt>
<trkpt lat="42.101669" lon="23.59118"><ele>2199.4</ele><time>2026-03-08T08:47:36.000Z</time></trkpt>
<trkpt lat="42.10167" lon="23.59118"><ele>2199.6</ele><time>2026-03-08T08:47:37.000Z</time></trkpt>
<trkpt lat="42.10167" lon="23.59118"><ele>2199.6</ele><time>2026-03-08T08:47:38.000Z</time></trkpt>
<trkpt lat="42.101671" lon="23.59118"><ele>2199.6</ele><time>2026-03-08T08:47:39.000Z</time></trkpt>
<trkpt lat="42.101671" lon="23.59118"><ele>2199.6</ele><time>2026-03-08T08:47:40.000Z</time></trkpt>
<trkpt lat="42.101671" lon="23.59118"><ele>2199.6</ele><time>2026-03-08T08:47:41.000Z</time></trkpt>
<trkpt lat="42.101671" lon="23.59118"><ele>2199.6</ele><time>2026-03-08T08:47:42.000Z</time></trkpt>
<trkpt lat="42.101671" lon="23.59118"><ele>2199.6</ele><time>2026-03-08T08:47:43.000Z</time></trkpt>
<trkpt lat="42.101671" lon="23.59118"><ele>2199.6</ele><time>2026-03-08T08:47:44.000Z</time></trkpt>
<trkpt lat="42.101671" lon="23.59118"><ele>2199.6</ele><time>2026-03-08T08:47:45.000Z</time></trkpt>
<trkpt lat="42.101671" lon="23.59118"><ele>2199.6</ele><time>2026-03-08T08:47:46.000Z</time></trkpt>
<trkpt lat="42.101671" lon="23.59118"><ele>2199.5</ele><time>2026-03-08T08:47:47.000Z</time></trkpt>
<trkpt lat="42.101671" lon="23.59118"><ele>2199.5</ele><time>2026-03-08T08:47:48.000Z</time></trkpt>
<trkpt lat="42.101671" lon="23.59118"><ele>2199.5</ele><time>2026-03-08T08:47:49.000Z</time></trkpt>
<trkpt lat="42.101671" lon="23.59118"><ele>2199.5</ele><time>2026-03-08T08:47:50.000Z</time></trkpt>
<trkpt lat="42.101671" lon="23.59118"><ele>2199.5</ele><time>2026-03-08T08:47:51.000Z</time></trkpt>
<trkpt lat="42.101671" lon="23.59118"><ele>2199.3</ele><time>2026-03-08T08:47:52.000Z</time></trkpt>
<trkpt lat="42.101671" lon="23.59118"><ele>2199.3</ele><time>2026-03-08T08:47:53.000Z</time></trkpt>
<trkpt lat="42.101671" lon="23.59118"><ele>2199.3</ele><time>2026-03-08T08:47:54.000Z</time></trkpt>
<trkpt lat="42.101671" lon="23.59118"><ele>2199.3</ele><time>2026-03-08T08:47:55.000Z</time></trkpt>
<trkpt lat="42.101671" lon="23.59118"><ele>2199.3</ele><time>2026-03-08T08:47:56.000Z</time></trkpt>
<trkpt lat="42.101671" lon="23.59118"><ele>2199.3</ele><time>2026-03-08T08:47:57.000Z</time></trkpt>
<trkpt lat="42.101671" lon="23.59118"><ele>2199.3</ele><time>2026-03-08T08:47:58.000Z</time></trkpt>
<trkpt lat="42.10167" lon="23.59118"><ele>2199.3</ele><time>2026-03-08T08:47:59.000Z</time></trkpt>
<trkpt lat="42.101671" lon="23.591179"><ele>2199.3</ele><time>2026-03-08T08:48:00.000Z</time></trkpt>
<trkpt lat="42.101671" lon="23.591179"><ele>2199.3</ele><time>2026-03-08T08:48:01.000Z</time></trkpt>
<trkpt lat="42.101671" lon="23.591178"><ele>2199.4</ele><time>2026-03-08T08:48:02.000Z</time></trkpt>
<trkpt lat="42.101671" lon="23.591177"><ele>2199.4</ele><time>2026-03-08T08:48:03.000Z</time></trkpt>
<trkpt lat="42.101672" lon="23.591178"><ele>2199.4</ele><time>2026-03-08T08:48:04.000Z</time></trkpt>
<trkpt lat="42.101671" lon="23.591178"><ele>2199.4</ele><time>2026-03-08T08:48:05.000Z</time></trkpt>
<trkpt lat="42.101672" lon="23.591178"><ele>2199.4</ele><time>2026-03-08T08:48:06.000Z</time></trkpt>
<trkpt lat="42.101672" lon="23.591178"><ele>2199.6</ele><time>2026-03-08T08:48:07.000Z</time></trkpt>
<trkpt lat="42.101672" lon="23.591178"><ele>2199.6</ele><time>2026-03-08T08:48:08.000Z</time></trkpt>
<trkpt lat="42.101672" lon="23.591179"><ele>2199.6</ele><time>2026-03-08T08:48:09.000Z</time></trkpt>
<trkpt lat="42.101671" lon="23.591179"><ele>2199.6</ele><time>2026-03-08T08:48:10.000Z</time></trkpt>
<trkpt lat="42.10167" lon="23.591179"><ele>2199.6</ele><time>2026-03-08T08:48:11.000Z</time></trkpt>
<trkpt lat="42.101669" lon="23.591179"><ele>2199.6</ele><time>2026-03-08T08:48:12.000Z</time></trkpt>
<trkpt lat="42.101669" lon="23.591179"><ele>2199.6</ele><time>2026-03-08T08:48:13.000Z</time></trkpt>
<trkpt lat="42.101668" lon="23.591179"><ele>2199.6</ele><time>2026-03-08T08:48:14.000Z</time></trkpt>
<trkpt lat="42.101668" lon="23.591178"><ele>2199.6</ele><time>2026-03-08T08:48:15.000Z</time></trkpt>
<trkpt lat="42.101668" lon="23.591178"><ele>2199.6</ele><time>2026-03-08T08:48:16.000Z</time></trkpt>
<trkpt lat="42.101668" lon="23.591177"><ele>2199.7</ele><time>2026-03-08T08:48:17.000Z</time></trkpt>
<trkpt lat="42.101668" lon="23.591176"><ele>2199.7</ele><time>2026-03-08T08:48:18.000Z</time></trkpt>
<trkpt lat="42.101668" lon="23.591176"><ele>2199.7</ele><time>2026-03-08T08:48:19.000Z</time></trkpt>
<trkpt lat="42.101668" lon="23.591175"><ele>2199.7</ele><time>2026-03-08T08:48:20.000Z</time></trkpt>
<trkpt lat="42.101668" lon="23.591175"><ele>2199.7</ele><time>2026-03-08T08:48:21.000Z</time></trkpt>
<trkpt lat="42.101668" lon="23.591175"><ele>2199.8</ele><time>2026-03-08T08:48:22.000Z</time></trkpt>
<trkpt lat="42.101668" lon="23.591176"><ele>2199.8</ele><time>2026-03-08T08:48:23.000Z</time></trkpt>
<trkpt lat="42.101668" lon="23.591178"><ele>2199.8</ele><time>2026-03-08T08:48:24.000Z</time></trkpt>
<trkpt lat="42.101669" lon="23.591179"><ele>2199.8</ele><time>2026-03-08T08:48:25.000Z</time></trkpt>
<trkpt lat="42.101669" lon="23.591181"><ele>2199.8</ele><time>2026-03-08T08:48:26.000Z</time></trkpt>
<trkpt lat="42.101669" lon="23.591183"><ele>2200</ele><time>2026-03-08T08:48:27.000Z</time></trkpt>
<trkpt lat="42.101669" lon="23.591184"><ele>2200</ele><time>2026-03-08T08:48:28.000Z</time></trkpt>
<trkpt lat="42.101668" lon="23.591185"><ele>2200</ele><time>2026-03-08T08:48:29.000Z</time></trkpt>
<trkpt lat="42.101668" lon="23.591187"><ele>2200</ele><time>2026-03-08T08:48:30.000Z</time></trkpt>
<trkpt lat="42.101668" lon="23.591188"><ele>2200</ele><time>2026-03-08T08:48:31.000Z</time></trkpt>
<trkpt lat="42.101667" lon="23.59119"><ele>2200.5</ele><time>2026-03-08T08:48:32.000Z</time></trkpt>
<trkpt lat="42.101667" lon="23.59119"><ele>2200.5</ele><time>2026-03-08T08:48:33.000Z</time></trkpt>
<trkpt lat="42.101667" lon="23.591191"><ele>2200.5</ele><time>2026-03-08T08:48:34.000Z</time></trkpt>
<trkpt lat="42.101667" lon="23.591191"><ele>2200.5</ele><time>2026-03-08T08:48:35.000Z</time></trkpt>
<trkpt lat="42.101667" lon="23.591191"><ele>2200.5</ele><time>2026-03-08T08:48:36.000Z</time></trkpt>
<trkpt lat="42.101667" lon="23.591191"><ele>2200.5</ele><time>2026-03-08T08:48:37.000Z</time></trkpt>
<trkpt lat="42.101668" lon="23.59119"><ele>2200.5</ele><time>2026-03-08T08:48:38.000Z</time></trkpt>
<trkpt lat="42.101669" lon="23.59119"><ele>2200.5</ele><time>2026-03-08T08:48:39.000Z</time></trkpt>
<trkpt lat="42.10167" lon="23.591189"><ele>2200.5</ele><time>2026-03-08T08:48:40.000Z</time></trkpt>
<trkpt lat="42.101672" lon="23.591187"><ele>2200.5</ele><time>2026-03-08T08:48:41.000Z</time></trkpt>
<trkpt lat="42.101673" lon="23.591186"><ele>2200.4</ele><time>2026-03-08T08:48:42.000Z</time></trkpt>
<trkpt lat="42.101673" lon="23.591186"><ele>2200.4</ele><time>2026-03-08T08:48:43.000Z</time></trkpt>
<trkpt lat="42.101673" lon="23.591185"><ele>2200.4</ele><time>2026-03-08T08:48:44.000Z</time></trkpt>
<trkpt lat="42.101673" lon="23.591185"><ele>2200.4</ele><time>2026-03-08T08:48:45.000Z</time></trkpt>
<trkpt lat="42.101673" lon="23.591185"><ele>2200.4</ele><time>2026-03-08T08:48:46.000Z</time></trkpt>
<trkpt lat="42.101673" lon="23.591185"><ele>2200.1</ele><time>2026-03-08T08:48:47.000Z</time></trkpt>
<trkpt lat="42.101673" lon="23.591185"><ele>2200.1</ele><time>2026-03-08T08:48:48.000Z</time></trkpt>
<trkpt lat="42.101674" lon="23.591185"><ele>2200.1</ele><time>2026-03-08T08:48:49.000Z</time></trkpt>
<trkpt lat="42.101675" lon="23.591184"><ele>2200.1</ele><time>2026-03-08T08:48:50.000Z</time></trkpt>
<trkpt lat="42.101676" lon="23.591184"><ele>2200.1</ele><time>2026-03-08T08:48:51.000Z</time></trkpt>
<trkpt lat="42.101677" lon="23.591184"><ele>2199.9</ele><time>2026-03-08T08:48:52.000Z</time></trkpt>
<trkpt lat="42.101677" lon="23.591183"><ele>2199.9</ele><time>2026-03-08T08:48:53.000Z</time></trkpt>
<trkpt lat="42.101678" lon="23.591183"><ele>2199.9</ele><time>2026-03-08T08:48:54.000Z</time></trkpt>
<trkpt lat="42.101678" lon="23.591182"><ele>2199.9</ele><time>2026-03-08T08:48:55.000Z</time></trkpt>
<trkpt lat="42.101677" lon="23.591181"><ele>2199.9</ele><time>2026-03-08T08:48:56.000Z</time></trkpt>
<trkpt lat="42.101677" lon="23.591181"><ele>2199.9</ele><time>2026-03-08T08:48:57.000Z</time></trkpt>
<trkpt lat="42.101676" lon="23.59118"><ele>2199.9</ele><time>2026-03-08T08:48:58.000Z</time></trkpt>
<trkpt lat="42.101676" lon="23.59118"><ele>2199.9</ele><time>2026-03-08T08:48:59.000Z</time></trkpt>
<trkpt lat="42.101676" lon="23.591181"><ele>2199.9</ele><time>2026-03-08T08:49:00.000Z</time></trkpt>
<trkpt lat="42.101676" lon="23.591181"><ele>2199.9</ele><time>2026-03-08T08:49:01.000Z</time></trkpt>
<trkpt lat="42.101676" lon="23.591181"><ele>2199.9</ele><time>2026-03-08T08:49:02.000Z</time></trkpt>
<trkpt lat="42.101675" lon="23.591182"><ele>2199.9</ele><time>2026-03-08T08:49:03.000Z</time></trkpt>
<trkpt lat="42.101675" lon="23.591182"><ele>2199.9</ele><time>2026-03-08T08:49:04.000Z</time></trkpt>
<trkpt lat="42.101674" lon="23.591182"><ele>2199.9</ele><time>2026-03-08T08:49:05.000Z</time></trkpt>
<trkpt lat="42.101674" lon="23.591183"><ele>2199.9</ele><time>2026-03-08T08:49:06.000Z</time></trkpt>
<trkpt lat="42.101673" lon="23.591183"><ele>2200</ele><time>2026-03-08T08:49:07.000Z</time></trkpt>
<trkpt lat="42.101673" lon="23.591183"><ele>2200</ele><time>2026-03-08T08:49:08.000Z</time></trkpt>
<trkpt lat="42.101673" lon="23.591183"><ele>2200</ele><time>2026-03-08T08:49:09.000Z</time></trkpt>
<trkpt lat="42.101673" lon="23.591183"><ele>2200</ele><time>2026-03-08T08:49:10.000Z</time></trkpt>
<trkpt lat="42.101673" lon="23.591183"><ele>2200</ele><time>2026-03-08T08:49:11.000Z</time></trkpt>
<trkpt lat="42.101673" lon="23.591183"><ele>2200</ele><time>2026-03-08T08:49:12.000Z</time></trkpt>
<trkpt lat="42.101673" lon="23.591183"><ele>2200</ele><time>2026-03-08T08:49:13.000Z</time></trkpt>
<trkpt lat="42.101673" lon="23.591183"><ele>2200</ele><time>2026-03-08T08:49:14.000Z</time></trkpt>
<trkpt lat="42.101673" lon="23.591183"><ele>2200</ele><time>2026-03-08T08:49:15.000Z</time></trkpt>
<trkpt lat="42.101673" lon="23.591183"><ele>2200</ele><time>2026-03-08T08:49:16.000Z</time></trkpt>
<trkpt lat="42.101673" lon="23.591183"><ele>2199.9</ele><time>2026-03-08T08:49:17.000Z</time></trkpt>
<trkpt lat="42.101673" lon="23.591183"><ele>2199.9</ele><time>2026-03-08T08:49:18.000Z</time></trkpt>
<trkpt lat="42.101672" lon="23.591183"><ele>2199.9</ele><time>2026-03-08T08:49:19.000Z</time></trkpt>
<trkpt lat="42.101672" lon="23.591184"><ele>2199.9</ele><time>2026-03-08T08:49:20.000Z</time></trkpt>
<trkpt lat="42.101672" lon="23.591184"><ele>2199.9</ele><time>2026-03-08T08:49:21.000Z</time></trkpt>
<trkpt lat="42.101672" lon="23.591184"><ele>2199.9</ele><time>2026-03-08T08:49:22.000Z</time></trkpt>
<trkpt lat="42.101672" lon="23.591183"><ele>2199.9</ele><time>2026-03-08T08:49:23.000Z</time></trkpt>
<trkpt lat="42.101673" lon="23.591183"><ele>2199.9</ele><time>2026-03-08T08:49:24.000Z</time></trkpt>
<trkpt lat="42.101673" lon="23.591182"><ele>2199.9</ele><time>2026-03-08T08:49:25.000Z</time></trkpt>
<trkpt lat="42.101672" lon="23.591181"><ele>2199.9</ele><time>2026-03-08T08:49:26.000Z</time></trkpt>
<trkpt lat="42.101672" lon="23.59118"><ele>2199.9</ele><time>2026-03-08T08:49:27.000Z</time></trkpt>
<trkpt lat="42.101671" lon="23.59118"><ele>2199.9</ele><time>2026-03-08T08:49:28.000Z</time></trkpt>
<trkpt lat="42.101671" lon="23.59118"><ele>2199.9</ele><time>2026-03-08T08:49:29.000Z</time></trkpt>
<trkpt lat="42.101671" lon="23.59118"><ele>2199.9</ele><time>2026-03-08T08:49:30.000Z</time></trkpt>
<trkpt lat="42.101671" lon="23.59118"><ele>2199.9</ele><time>2026-03-08T08:49:31.000Z</time></trkpt>
<trkpt lat="42.101671" lon="23.59118"><ele>2200</ele><time>2026-03-08T08:49:32.000Z</time></trkpt>
<trkpt lat="42.101671" lon="23.59118"><ele>2200</ele><time>2026-03-08T08:49:33.000Z</time></trkpt>
<trkpt lat="42.101671" lon="23.59118"><ele>2200</ele><time>2026-03-08T08:49:34.000Z</time></trkpt>
<trkpt lat="42.101671" lon="23.59118"><ele>2200</ele><time>2026-03-08T08:49:35.000Z</time></trkpt>
<trkpt lat="42.101671" lon="23.59118"><ele>2200</ele><time>2026-03-08T08:49:36.000Z</time></trkpt>
<trkpt lat="42.101671" lon="23.59118"><ele>2200</ele><time>2026-03-08T08:49:37.000Z</time></trkpt>
<trkpt lat="42.101672" lon="23.59118"><ele>2200</ele><time>2026-03-08T08:49:38.000Z</time></trkpt>
<trkpt lat="42.101672" lon="23.59118"><ele>2200</ele><time>2026-03-08T08:49:39.000Z</time></trkpt>
<trkpt lat="42.101672" lon="23.591179"><ele>2200</ele><time>2026-03-08T08:49:40.000Z</time></trkpt>
<trkpt lat="42.101672" lon="23.591179"><ele>2200</ele><time>2026-03-08T08:49:41.000Z</time></trkpt>
<trkpt lat="42.101672" lon="23.591179"><ele>2200</ele><time>2026-03-08T08:49:42.000Z</time></trkpt>
<trkpt lat="42.101673" lon="23.591178"><ele>2200</ele><time>2026-03-08T08:49:43.000Z</time></trkpt>
<trkpt lat="42.101673" lon="23.591178"><ele>2200</ele><time>2026-03-08T08:49:44.000Z</time></trkpt>
<trkpt lat="42.101673" lon="23.591177"><ele>2200</ele><time>2026-03-08T08:49:45.000Z</time></trkpt>
<trkpt lat="42.101673" lon="23.591177"><ele>2200</ele><time>2026-03-08T08:49:46.000Z</time></trkpt>
<trkpt lat="42.101674" lon="23.591176"><ele>2199.8</ele><time>2026-03-08T08:49:47.000Z</time></trkpt>
<trkpt lat="42.101675" lon="23.591177"><ele>2199.8</ele><time>2026-03-08T08:49:48.000Z</time></trkpt>
<trkpt lat="42.101677" lon="23.591177"><ele>2199.8</ele><time>2026-03-08T08:49:49.000Z</time></trkpt>
<trkpt lat="42.101679" lon="23.591178"><ele>2199.8</ele><time>2026-03-08T08:49:50.000Z</time></trkpt>
<trkpt lat="42.101682" lon="23.591179"><ele>2199.8</ele><time>2026-03-08T08:49:51.000Z</time></trkpt>
<trkpt lat="42.101684" lon="23.59118"><ele>2199.9</ele><time>2026-03-08T08:49:52.000Z</time></trkpt>
<trkpt lat="42.101687" lon="23.591181"><ele>2199.9</ele><time>2026-03-08T08:49:53.000Z</time></trkpt>
<trkpt lat="42.101688" lon="23.591181"><ele>2199.9</ele><time>2026-03-08T08:49:54.000Z</time></trkpt>
<trkpt lat="42.10169" lon="23.591181"><ele>2199.9</ele><time>2026-03-08T08:49:55.000Z</time></trkpt>
<trkpt lat="42.101691" lon="23.591182"><ele>2199.9</ele><time>2026-03-08T08:49:56.000Z</time></trkpt>
<trkpt lat="42.101691" lon="23.591182"><ele>2200</ele><time>2026-03-08T08:49:57.000Z</time></trkpt>
<trkpt lat="42.101691" lon="23.591181"><ele>2200</ele><time>2026-03-08T08:49:58.000Z</time></trkpt>
<trkpt lat="42.101689" lon="23.591181"><ele>2200</ele><time>2026-03-08T08:49:59.000Z</time></trkpt>
<trkpt lat="42.101688" lon="23.591182"><ele>2200</ele><time>2026-03-08T08:50:00.000Z</time></trkpt>
<trkpt lat="42.101687" lon="23.591182"><ele>2200</ele><time>2026-03-08T08:50:01.000Z</time></trkpt>
<trkpt lat="42.101685" lon="23.591183"><ele>2200.2</ele><time>2026-03-08T08:50:02.000Z</time></trkpt>
<trkpt lat="42.101684" lon="23.591184"><ele>2200.2</ele><time>2026-03-08T08:50:03.000Z</time></trkpt>
<trkpt lat="42.101684" lon="23.591185"><ele>2200.2</ele><time>2026-03-08T08:50:04.000Z</time></trkpt>
<trkpt lat="42.101684" lon="23.591185"><ele>2200.2</ele><time>2026-03-08T08:50:05.000Z</time></trkpt>
<trkpt lat="42.101683" lon="23.591184"><ele>2200.2</ele><time>2026-03-08T08:50:06.000Z</time></trkpt>
<trkpt lat="42.101683" lon="23.591184"><ele>2200.2</ele><time>2026-03-08T08:50:07.000Z</time></trkpt>
<trkpt lat="42.101683" lon="23.591183"><ele>2200.2</ele><time>2026-03-08T08:50:08.000Z</time></trkpt>
<trkpt lat="42.101683" lon="23.591183"><ele>2200.2</ele><time>2026-03-08T08:50:09.000Z</time></trkpt>
<trkpt lat="42.101683" lon="23.591183"><ele>2200.2</ele><time>2026-03-08T08:50:10.000Z</time></trkpt>
<trkpt lat="42.101683" lon="23.591183"><ele>2200.2</ele><time>2026-03-08T08:50:11.000Z</time></trkpt>
<trkpt lat="42.101683" lon="23.591183"><ele>2200.2</ele><time>2026-03-08T08:50:12.000Z</time></trkpt>
<trkpt lat="42.101683" lon="23.591182"><ele>2200.2</ele><time>2026-03-08T08:50:13.000Z</time></trkpt>
<trkpt lat="42.101683" lon="23.591181"><ele>2200.2</ele><time>2026-03-08T08:50:14.000Z</time></trkpt>
<trkpt lat="42.101682" lon="23.59118"><ele>2200.2</ele><time>2026-03-08T08:50:15.000Z</time></trkpt>
<trkpt lat="42.101681" lon="23.591179"><ele>2200.2</ele><time>2026-03-08T08:50:16.000Z</time></trkpt>
<trkpt lat="42.10168" lon="23.591177"><ele>2200.1</ele><time>2026-03-08T08:50:17.000Z</time></trkpt>
<trkpt lat="42.10168" lon="23.591177"><ele>2200.1</ele><time>2026-03-08T08:50:18.000Z</time></trkpt>
<trkpt lat="42.10168" lon="23.591177"><ele>2200.1</ele><time>2026-03-08T08:50:19.000Z</time></trkpt>
<trkpt lat="42.10168" lon="23.591177"><ele>2200.1</ele><time>2026-03-08T08:50:20.000Z</time></trkpt>
<trkpt lat="42.10168" lon="23.591177"><ele>2200.1</ele><time>2026-03-08T08:50:21.000Z</time></trkpt>
<trkpt lat="42.10168" lon="23.591177"><ele>2200</ele><time>2026-03-08T08:50:22.000Z</time></trkpt>
<trkpt lat="42.101679" lon="23.591177"><ele>2200</ele><time>2026-03-08T08:50:23.000Z</time></trkpt>
<trkpt lat="42.101679" lon="23.591178"><ele>2200</ele><time>2026-03-08T08:50:24.000Z</time></trkpt>
<trkpt lat="42.101679" lon="23.59118"><ele>2200</ele><time>2026-03-08T08:50:25.000Z</time></trkpt>
<trkpt lat="42.101679" lon="23.59118"><ele>2200</ele><time>2026-03-08T08:50:26.000Z</time></trkpt>
<trkpt lat="42.101678" lon="23.59118"><ele>2199.9</ele><time>2026-03-08T08:50:27.000Z</time></trkpt>
<trkpt lat="42.101677" lon="23.591181"><ele>2199.9</ele><time>2026-03-08T08:50:28.000Z</time></trkpt>
<trkpt lat="42.101676" lon="23.59118"><ele>2199.9</ele><time>2026-03-08T08:50:29.000Z</time></trkpt>
<trkpt lat="42.101676" lon="23.591178"><ele>2199.9</ele><time>2026-03-08T08:50:30.000Z</time></trkpt>
<trkpt lat="42.101676" lon="23.591178"><ele>2199.9</ele><time>2026-03-08T08:50:31.000Z</time></trkpt>
<trkpt lat="42.101677" lon="23.591179"><ele>2199.8</ele><time>2026-03-08T08:50:32.000Z</time></trkpt>
<trkpt lat="42.101678" lon="23.591179"><ele>2199.8</ele><time>2026-03-08T08:50:33.000Z</time></trkpt>
<trkpt lat="42.101678" lon="23.591179"><ele>2199.8</ele><time>2026-03-08T08:50:34.000Z</time></trkpt>
<trkpt lat="42.101679" lon="23.59118"><ele>2199.8</ele><time>2026-03-08T08:50:35.000Z</time></trkpt>
<trkpt lat="42.10168" lon="23.59118"><ele>2199.8</ele><time>2026-03-08T08:50:36.000Z</time></trkpt>
<trkpt lat="42.101681" lon="23.591179"><ele>2199.6</ele><time>2026-03-08T08:50:37.000Z</time></trkpt>
<trkpt lat="42.101681" lon="23.591179"><ele>2199.6</ele><time>2026-03-08T08:50:38.000Z</time></trkpt>
<trkpt lat="42.101682" lon="23.591178"><ele>2199.6</ele><time>2026-03-08T08:50:39.000Z</time></trkpt>
<trkpt lat="42.101682" lon="23.591178"><ele>2199.6</ele><time>2026-03-08T08:50:40.000Z</time></trkpt>
<trkpt lat="42.101683" lon="23.591177"><ele>2199.6</ele><time>2026-03-08T08:50:41.000Z</time></trkpt>
<trkpt lat="42.101683" lon="23.591178"><ele>2199.5</ele><time>2026-03-08T08:50:42.000Z</time></trkpt>
<trkpt lat="42.101683" lon="23.591179"><ele>2199.5</ele><time>2026-03-08T08:50:43.000Z</time></trkpt>
<trkpt lat="42.101683" lon="23.591179"><ele>2199.5</ele><time>2026-03-08T08:50:44.000Z</time></trkpt>
<trkpt lat="42.101683" lon="23.59118"><ele>2199.5</ele><time>2026-03-08T08:50:45.000Z</time></trkpt>
<trkpt lat="42.101683" lon="23.59118"><ele>2199.5</ele><time>2026-03-08T08:50:46.000Z</time></trkpt>
<trkpt lat="42.101683" lon="23.59118"><ele>2199.3</ele><time>2026-03-08T08:50:47.000Z</time></trkpt>
<trkpt lat="42.101683" lon="23.59118"><ele>2199.3</ele><time>2026-03-08T08:50:48.000Z</time></trkpt>
<trkpt lat="42.101683" lon="23.59118"><ele>2199.3</ele><time>2026-03-08T08:50:49.000Z</time></trkpt>
<trkpt lat="42.101682" lon="23.59118"><ele>2199.3</ele><time>2026-03-08T08:50:50.000Z</time></trkpt>
<trkpt lat="42.101682" lon="23.59118"><ele>2199.3</ele><time>2026-03-08T08:50:51.000Z</time></trkpt>
<trkpt lat="42.101682" lon="23.591179"><ele>2199.2</ele><time>2026-03-08T08:50:52.000Z</time></trkpt>
<trkpt lat="42.101682" lon="23.591179"><ele>2199.2</ele><time>2026-03-08T08:50:53.000Z</time></trkpt>
<trkpt lat="42.101682" lon="23.591179"><ele>2199.2</ele><time>2026-03-08T08:50:54.000Z</time></trkpt>
<trkpt lat="42.101682" lon="23.591179"><ele>2199.2</ele><time>2026-03-08T08:50:55.000Z</time></trkpt>
<trkpt lat="42.101682" lon="23.591179"><ele>2199.2</ele><time>2026-03-08T08:50:56.000Z</time></trkpt>
<trkpt lat="42.101683" lon="23.591178"><ele>2199.2</ele><time>2026-03-08T08:50:57.000Z</time></trkpt>
<trkpt lat="42.101683" lon="23.591178"><ele>2199.2</ele><time>2026-03-08T08:50:58.000Z</time></trkpt>
<trkpt lat="42.101684" lon="23.591178"><ele>2199.2</ele><time>2026-03-08T08:50:59.000Z</time></trkpt>
<trkpt lat="42.101684" lon="23.591178"><ele>2199.2</ele><time>2026-03-08T08:51:00.000Z</time></trkpt>
<trkpt lat="42.101684" lon="23.591179"><ele>2199.2</ele><time>2026-03-08T08:51:01.000Z</time></trkpt>
<trkpt lat="42.101684" lon="23.591179"><ele>2199.1</ele><time>2026-03-08T08:51:02.000Z</time></trkpt>
<trkpt lat="42.101683" lon="23.59118"><ele>2199.1</ele><time>2026-03-08T08:51:03.000Z</time></trkpt>
<trkpt lat="42.101683" lon="23.59118"><ele>2199.1</ele><time>2026-03-08T08:51:04.000Z</time></trkpt>
<trkpt lat="42.101684" lon="23.59118"><ele>2199.1</ele><time>2026-03-08T08:51:05.000Z</time></trkpt>
<trkpt lat="42.101684" lon="23.591181"><ele>2199.1</ele><time>2026-03-08T08:51:06.000Z</time></trkpt>
<trkpt lat="42.101685" lon="23.591181"><ele>2199.1</ele><time>2026-03-08T08:51:07.000Z</time></trkpt>
<trkpt lat="42.101686" lon="23.591182"><ele>2199.1</ele><time>2026-03-08T08:51:08.000Z</time></trkpt>
<trkpt lat="42.101687" lon="23.591183"><ele>2199.1</ele><time>2026-03-08T08:51:09.000Z</time></trkpt>
<trkpt lat="42.101687" lon="23.591183"><ele>2199.1</ele><time>2026-03-08T08:51:10.000Z</time></trkpt>
<trkpt lat="42.101687" lon="23.591183"><ele>2199.1</ele><time>2026-03-08T08:51:11.000Z</time></trkpt>
<trkpt lat="42.101686" lon="23.591182"><ele>2199.2</ele><time>2026-03-08T08:51:12.000Z</time></trkpt>
<trkpt lat="42.101685" lon="23.591182"><ele>2199.2</ele><time>2026-03-08T08:51:13.000Z</time></trkpt>
<trkpt lat="42.101685" lon="23.591181"><ele>2199.2</ele><time>2026-03-08T08:51:14.000Z</time></trkpt>
<trkpt lat="42.101684" lon="23.591181"><ele>2199.2</ele><time>2026-03-08T08:51:15.000Z</time></trkpt>
<trkpt lat="42.101685" lon="23.591181"><ele>2199.2</ele><time>2026-03-08T08:51:16.000Z</time></trkpt>
<trkpt lat="42.101685" lon="23.59118"><ele>2199.5</ele><time>2026-03-08T08:51:17.000Z</time></trkpt>
<trkpt lat="42.101685" lon="23.59118"><ele>2199.5</ele><time>2026-03-08T08:51:18.000Z</time></trkpt>
<trkpt lat="42.101685" lon="23.59118"><ele>2199.5</ele><time>2026-03-08T08:51:19.000Z</time></trkpt>
<trkpt lat="42.101685" lon="23.59118"><ele>2199.5</ele><time>2026-03-08T08:51:20.000Z</time></trkpt>
<trkpt lat="42.101685" lon="23.591181"><ele>2199.5</ele><time>2026-03-08T08:51:21.000Z</time></trkpt>
<trkpt lat="42.101685" lon="23.591181"><ele>2199.7</ele><time>2026-03-08T08:51:22.000Z</time></trkpt>
<trkpt lat="42.101685" lon="23.591182"><ele>2199.7</ele><time>2026-03-08T08:51:23.000Z</time></trkpt>
<trkpt lat="42.101685" lon="23.591182"><ele>2199.7</ele><time>2026-03-08T08:51:24.000Z</time></trkpt>
<trkpt lat="42.101685" lon="23.591182"><ele>2199.7</ele><time>2026-03-08T08:51:25.000Z</time></trkpt>
<trkpt lat="42.101686" lon="23.591182"><ele>2199.7</ele><time>2026-03-08T08:51:26.000Z</time></trkpt>
<trkpt lat="42.101686" lon="23.591182"><ele>2199.8</ele><time>2026-03-08T08:51:27.000Z</time></trkpt>
<trkpt lat="42.101687" lon="23.591182"><ele>2199.8</ele><time>2026-03-08T08:51:28.000Z</time></trkpt>
<trkpt lat="42.101687" lon="23.591182"><ele>2199.8</ele><time>2026-03-08T08:51:29.000Z</time></trkpt>
<trkpt lat="42.101687" lon="23.591182"><ele>2199.8</ele><time>2026-03-08T08:51:30.000Z</time></trkpt>
<trkpt lat="42.101687" lon="23.591182"><ele>2199.8</ele><time>2026-03-08T08:51:31.000Z</time></trkpt>
<trkpt lat="42.101687" lon="23.591182"><ele>2199.9</ele><time>2026-03-08T08:51:32.000Z</time></trkpt>
<trkpt lat="42.101686" lon="23.591182"><ele>2199.9</ele><time>2026-03-08T08:51:33.000Z</time></trkpt>
<trkpt lat="42.101686" lon="23.591182"><ele>2199.9</ele><time>2026-03-08T08:51:34.000Z</time></trkpt>
<trkpt lat="42.101686" lon="23.591182"><ele>2199.9</ele><time>2026-03-08T08:51:35.000Z</time></trkpt>
<trkpt lat="42.101685" lon="23.591181"><ele>2199.9</ele><time>2026-03-08T08:51:36.000Z</time></trkpt>
<trkpt lat="42.101685" lon="23.591181"><ele>2199.9</ele><time>2026-03-08T08:51:37.000Z</time></trkpt>
<trkpt lat="42.101685" lon="23.591181"><ele>2199.9</ele><time>2026-03-08T08:51:38.000Z</time></trkpt>
<trkpt lat="42.101685" lon="23.591181"><ele>2199.9</ele><time>2026-03-08T08:51:39.000Z</time></trkpt>
<trkpt lat="42.101685" lon="23.591181"><ele>2199.9</ele><time>2026-03-08T08:51:40.000Z</time></trkpt>
<trkpt lat="42.101685" lon="23.591181"><ele>2199.9</ele><time>2026-03-08T08:51:41.000Z</time></trkpt>
<trkpt lat="42.101685" lon="23.591181"><ele>2199.8</ele><time>2026-03-08T08:51:42.000Z</time></trkpt>
<trkpt lat="42.101685" lon="23.591181"><ele>2199.8</ele><time>2026-03-08T08:51:43.000Z</time></trkpt>
<trkpt lat="42.101685" lon="23.591181"><ele>2199.8</ele><time>2026-03-08T08:51:44.000Z</time></trkpt>
<trkpt lat="42.101685" lon="23.591181"><ele>2199.8</ele><time>2026-03-08T08:51:45.000Z</time></trkpt>
<trkpt lat="42.101685" lon="23.591181"><ele>2199.8</ele><time>2026-03-08T08:51:46.000Z</time></trkpt>
<trkpt lat="42.101685" lon="23.59118"><ele>2199.8</ele><time>2026-03-08T08:51:47.000Z</time></trkpt>
<trkpt lat="42.101685" lon="23.59118"><ele>2199.8</ele><time>2026-03-08T08:51:48.000Z</time></trkpt>
<trkpt lat="42.101684" lon="23.591179"><ele>2199.8</ele><time>2026-03-08T08:51:49.000Z</time></trkpt>
<trkpt lat="42.101684" lon="23.591179"><ele>2199.8</ele><time>2026-03-08T08:51:50.000Z</time></trkpt>
<trkpt lat="42.101684" lon="23.591179"><ele>2199.8</ele><time>2026-03-08T08:51:51.000Z</time></trkpt>
<trkpt lat="42.101684" lon="23.591179"><ele>2199.9</ele><time>2026-03-08T08:51:52.000Z</time></trkpt>
<trkpt lat="42.101684" lon="23.591179"><ele>2199.9</ele><time>2026-03-08T08:51:53.000Z</time></trkpt>
<trkpt lat="42.101684" lon="23.591179"><ele>2199.9</ele><time>2026-03-08T08:51:54.000Z</time></trkpt>
<trkpt lat="42.101684" lon="23.591179"><ele>2199.9</ele><time>2026-03-08T08:51:55.000Z</time></trkpt>
<trkpt lat="42.101684" lon="23.591179"><ele>2199.9</ele><time>2026-03-08T08:51:56.000Z</time></trkpt>
<trkpt lat="42.101684" lon="23.591179"><ele>2199.9</ele><time>2026-03-08T08:51:57.000Z</time></trkpt>
<trkpt lat="42.101684" lon="23.591179"><ele>2199.9</ele><time>2026-03-08T08:51:58.000Z</time></trkpt>
<trkpt lat="42.101684" lon="23.591179"><ele>2199.9</ele><time>2026-03-08T08:51:59.000Z</time></trkpt>
<trkpt lat="42.101684" lon="23.591179"><ele>2199.9</ele><time>2026-03-08T08:52:00.000Z</time></trkpt>
<trkpt lat="42.101684" lon="23.591179"><ele>2199.9</ele><time>2026-03-08T08:52:01.000Z</time></trkpt>
<trkpt lat="42.101684" lon="23.591179"><ele>2200</ele><time>2026-03-08T08:52:02.000Z</time></trkpt>
<trkpt lat="42.101684" lon="23.591179"><ele>2200</ele><time>2026-03-08T08:52:03.000Z</time></trkpt>
<trkpt lat="42.101684" lon="23.591179"><ele>2200</ele><time>2026-03-08T08:52:04.000Z</time></trkpt>
<trkpt lat="42.101684" lon="23.591179"><ele>2200</ele><time>2026-03-08T08:52:05.000Z</time></trkpt>
<trkpt lat="42.101684" lon="23.591179"><ele>2200</ele><time>2026-03-08T08:52:06.000Z</time></trkpt>
<trkpt lat="42.101684" lon="23.591179"><ele>2200</ele><time>2026-03-08T08:52:07.000Z</time></trkpt>
<trkpt lat="42.101684" lon="23.591179"><ele>2200</ele><time>2026-03-08T08:52:08.000Z</time></trkpt>
<trkpt lat="42.101684" lon="23.591179"><ele>2200</ele><time>2026-03-08T08:52:09.000Z</time></trkpt>
<trkpt lat="42.101684" lon="23.591179"><ele>2200</ele><time>2026-03-08T08:52:10.000Z</time></trkpt>
<trkpt lat="42.101684" lon="23.591179"><ele>2200</ele><time>2026-03-08T08:52:11.000Z</time></trkpt>
<trkpt lat="42.101684" lon="23.591179"><ele>2200.1</ele><time>2026-03-08T08:52:12.000Z</time></trkpt>
<trkpt lat="42.101685" lon="23.591179"><ele>2200.1</ele><time>2026-03-08T08:52:13.000Z</time></trkpt>
<trkpt lat="42.101685" lon="23.591179"><ele>2200.1</ele><time>2026-03-08T08:52:14.000Z</time></trkpt>
<trkpt lat="42.101685" lon="23.59118"><ele>2200.1</ele><time>2026-03-08T08:52:15.000Z</time></trkpt>
<trkpt lat="42.101686" lon="23.59118"><ele>2200.1</ele><time>2026-03-08T08:52:16.000Z</time></trkpt>
<trkpt lat="42.101686" lon="23.591181"><ele>2200</ele><time>2026-03-08T08:52:17.000Z</time></trkpt>
<trkpt lat="42.101686" lon="23.591182"><ele>2200</ele><time>2026-03-08T08:52:18.000Z</time></trkpt>
<trkpt lat="42.101686" lon="23.591182"><ele>2200</ele><time>2026-03-08T08:52:19.000Z</time></trkpt>
<trkpt lat="42.101686" lon="23.591181"><ele>2200</ele><time>2026-03-08T08:52:20.000Z</time></trkpt>
<trkpt lat="42.101686" lon="23.591181"><ele>2200</ele><time>2026-03-08T08:52:21.000Z</time></trkpt>
<trkpt lat="42.101687" lon="23.59118"><ele>2199.8</ele><time>2026-03-08T08:52:22.000Z</time></trkpt>
<trkpt lat="42.101687" lon="23.591181"><ele>2199.8</ele><time>2026-03-08T08:52:23.000Z</time></trkpt>
<trkpt lat="42.101686" lon="23.591182"><ele>2199.8</ele><time>2026-03-08T08:52:24.000Z</time></trkpt>
<trkpt lat="42.101686" lon="23.591183"><ele>2199.8</ele><time>2026-03-08T08:52:25.000Z</time></trkpt>
<trkpt lat="42.101686" lon="23.591184"><ele>2199.8</ele><time>2026-03-08T08:52:26.000Z</time></trkpt>
<trkpt lat="42.101686" lon="23.591184"><ele>2199.6</ele><time>2026-03-08T08:52:27.000Z</time></trkpt>
<trkpt lat="42.101686" lon="23.591184"><ele>2199.6</ele><time>2026-03-08T08:52:28.000Z</time></trkpt>
<trkpt lat="42.101687" lon="23.591184"><ele>2199.6</ele><time>2026-03-08T08:52:29.000Z</time></trkpt>
<trkpt lat="42.101688" lon="23.591184"><ele>2199.6</ele><time>2026-03-08T08:52:30.000Z</time></trkpt>
<trkpt lat="42.101689" lon="23.591182"><ele>2199.6</ele><time>2026-03-08T08:52:31.000Z</time></trkpt>
<trkpt lat="42.101689" lon="23.591181"><ele>2199.6</ele><time>2026-03-08T08:52:32.000Z</time></trkpt>
<trkpt lat="42.101689" lon="23.591178"><ele>2199.6</ele><time>2026-03-08T08:52:33.000Z</time></trkpt>
<trkpt lat="42.101688" lon="23.591175"><ele>2199.6</ele><time>2026-03-08T08:52:34.000Z</time></trkpt>
<trkpt lat="42.101686" lon="23.591172"><ele>2199.6</ele><time>2026-03-08T08:52:35.000Z</time></trkpt>
<trkpt lat="42.101685" lon="23.59117"><ele>2199.6</ele><time>2026-03-08T08:52:36.000Z</time></trkpt>
<trkpt lat="42.101684" lon="23.591169"><ele>2200</ele><time>2026-03-08T08:52:37.000Z</time></trkpt>
<trkpt lat="42.101685" lon="23.59117"><ele>2200</ele><time>2026-03-08T08:52:38.000Z</time></trkpt>
<trkpt lat="42.101685" lon="23.59117"><ele>2200</ele><time>2026-03-08T08:52:39.000Z</time></trkpt>
<trkpt lat="42.101686" lon="23.59117"><ele>2200</ele><time>2026-03-08T08:52:40.000Z</time></trkpt>
<trkpt lat="42.101686" lon="23.59117"><ele>2200</ele><time>2026-03-08T08:52:41.000Z</time></trkpt>
<trkpt lat="42.101687" lon="23.59117"><ele>2200.2</ele><time>2026-03-08T08:52:42.000Z</time></trkpt>
<trkpt lat="42.101687" lon="23.591171"><ele>2200.2</ele><time>2026-03-08T08:52:43.000Z</time></trkpt>
<trkpt lat="42.101687" lon="23.591172"><ele>2200.2</ele><time>2026-03-08T08:52:44.000Z</time></trkpt>
<trkpt lat="42.101687" lon="23.591172"><ele>2200.2</ele><time>2026-03-08T08:52:45.000Z</time></trkpt>
<trkpt lat="42.101687" lon="23.591173"><ele>2200.2</ele><time>2026-03-08T08:52:46.000Z</time></trkpt>
<trkpt lat="42.101686" lon="23.591173"><ele>2200.1</ele><time>2026-03-08T08:52:47.000Z</time></trkpt>
<trkpt lat="42.101686" lon="23.591173"><ele>2200.1</ele><time>2026-03-08T08:52:48.000Z</time></trkpt>
<trkpt lat="42.101686" lon="23.591174"><ele>2200.1</ele><time>2026-03-08T08:52:49.000Z</time></trkpt>
<trkpt lat="42.101687" lon="23.591174"><ele>2200.1</ele><time>2026-03-08T08:52:50.000Z</time></trkpt>
<trkpt lat="42.101687" lon="23.591175"><ele>2200.1</ele><time>2026-03-08T08:52:51.000Z</time></trkpt>
<trkpt lat="42.101688" lon="23.591176"><ele>2199.8</ele><time>2026-03-08T08:52:52.000Z</time></trkpt>
<trkpt lat="42.101689" lon="23.591177"><ele>2199.8</ele><time>2026-03-08T08:52:53.000Z</time></trkpt>
<trkpt lat="42.10169" lon="23.591177"><ele>2199.8</ele><time>2026-03-08T08:52:54.000Z</time></trkpt>
<trkpt lat="42.10169" lon="23.591176"><ele>2199.8</ele><time>2026-03-08T08:52:55.000Z</time></trkpt>
<trkpt lat="42.10169" lon="23.591176"><ele>2199.8</ele><time>2026-03-08T08:52:56.000Z</time></trkpt>
<trkpt lat="42.101689" lon="23.591175"><ele>2199.6</ele><time>2026-03-08T08:52:57.000Z</time></trkpt>
<trkpt lat="42.101689" lon="23.591174"><ele>2199.6</ele><time>2026-03-08T08:52:58.000Z</time></trkpt>
<trkpt lat="42.101689" lon="23.591173"><ele>2199.6</ele><time>2026-03-08T08:52:59.000Z</time></trkpt>
<trkpt lat="42.101688" lon="23.591173"><ele>2199.6</ele><time>2026-03-08T08:53:00.000Z</time></trkpt>
<trkpt lat="42.101688" lon="23.591173"><ele>2199.6</ele><time>2026-03-08T08:53:01.000Z</time></trkpt>
<trkpt lat="42.101688" lon="23.591173"><ele>2199.5</ele><time>2026-03-08T08:53:02.000Z</time></trkpt>
<trkpt lat="42.101688" lon="23.591174"><ele>2199.5</ele><time>2026-03-08T08:53:03.000Z</time></trkpt>
<trkpt lat="42.101688" lon="23.591175"><ele>2199.5</ele><time>2026-03-08T08:53:04.000Z</time></trkpt>
<trkpt lat="42.101689" lon="23.591176"><ele>2199.5</ele><time>2026-03-08T08:53:05.000Z</time></trkpt>
<trkpt lat="42.101689" lon="23.591177"><ele>2199.5</ele><time>2026-03-08T08:53:06.000Z</time></trkpt>
<trkpt lat="42.10169" lon="23.591177"><ele>2199.5</ele><time>2026-03-08T08:53:07.000Z</time></trkpt>
<trkpt lat="42.10169" lon="23.591177"><ele>2199.5</ele><time>2026-03-08T08:53:08.000Z</time></trkpt>
<trkpt lat="42.10169" lon="23.591176"><ele>2199.5</ele><time>2026-03-08T08:53:09.000Z</time></trkpt>
<trkpt lat="42.10169" lon="23.591176"><ele>2199.5</ele><time>2026-03-08T08:53:10.000Z</time></trkpt>
<trkpt lat="42.101691" lon="23.591175"><ele>2199.5</ele><time>2026-03-08T08:53:11.000Z</time></trkpt>
<trkpt lat="42.101691" lon="23.591175"><ele>2199.5</ele><time>2026-03-08T08:53:12.000Z</time></trkpt>
<trkpt lat="42.101691" lon="23.591175"><ele>2199.5</ele><time>2026-03-08T08:53:13.000Z</time></trkpt>
<trkpt lat="42.101691" lon="23.591175"><ele>2199.5</ele><time>2026-03-08T08:53:14.000Z</time></trkpt>
<trkpt lat="42.101691" lon="23.591174"><ele>2199.5</ele><time>2026-03-08T08:53:15.000Z</time></trkpt>
<trkpt lat="42.10169" lon="23.591174"><ele>2199.5</ele><time>2026-03-08T08:53:16.000Z</time></trkpt>
<trkpt lat="42.10169" lon="23.591173"><ele>2199.6</ele><time>2026-03-08T08:53:17.000Z</time></trkpt>
<trkpt lat="42.10169" lon="23.591173"><ele>2199.6</ele><time>2026-03-08T08:53:18.000Z</time></trkpt>
<trkpt lat="42.10169" lon="23.591172"><ele>2199.6</ele><time>2026-03-08T08:53:19.000Z</time></trkpt>
<trkpt lat="42.101691" lon="23.591172"><ele>2199.6</ele><time>2026-03-08T08:53:20.000Z</time></trkpt>
<trkpt lat="42.101691" lon="23.591172"><ele>2199.6</ele><time>2026-03-08T08:53:21.000Z</time></trkpt>
<trkpt lat="42.101691" lon="23.591173"><ele>2199.6</ele><time>2026-03-08T08:53:22.000Z</time></trkpt>
<trkpt lat="42.101691" lon="23.591173"><ele>2199.6</ele><time>2026-03-08T08:53:23.000Z</time></trkpt>
<trkpt lat="42.101691" lon="23.591173"><ele>2199.6</ele><time>2026-03-08T08:53:24.000Z</time></trkpt>
<trkpt lat="42.101691" lon="23.591173"><ele>2199.6</ele><time>2026-03-08T08:53:25.000Z</time></trkpt>
<trkpt lat="42.101691" lon="23.591173"><ele>2199.6</ele><time>2026-03-08T08:53:26.000Z</time></trkpt>
<trkpt lat="42.101691" lon="23.591173"><ele>2199.6</ele><time>2026-03-08T08:53:27.000Z</time></trkpt>
<trkpt lat="42.101691" lon="23.591173"><ele>2199.6</ele><time>2026-03-08T08:53:28.000Z</time></trkpt>
<trkpt lat="42.101691" lon="23.591172"><ele>2199.6</ele><time>2026-03-08T08:53:29.000Z</time></trkpt>
<trkpt lat="42.101691" lon="23.591172"><ele>2199.6</ele><time>2026-03-08T08:53:30.000Z</time></trkpt>
<trkpt lat="42.101692" lon="23.591172"><ele>2199.6</ele><time>2026-03-08T08:53:31.000Z</time></trkpt>
<trkpt lat="42.101692" lon="23.591172"><ele>2199.4</ele><time>2026-03-08T08:53:32.000Z</time></trkpt>
<trkpt lat="42.101692" lon="23.591172"><ele>2199.4</ele><time>2026-03-08T08:53:33.000Z</time></trkpt>
<trkpt lat="42.101692" lon="23.591172"><ele>2199.4</ele><time>2026-03-08T08:53:34.000Z</time></trkpt>
<trkpt lat="42.101691" lon="23.591171"><ele>2199.4</ele><time>2026-03-08T08:53:35.000Z</time></trkpt>
<trkpt lat="42.101691" lon="23.59117"><ele>2199.4</ele><time>2026-03-08T08:53:36.000Z</time></trkpt>
<trkpt lat="42.101691" lon="23.591169"><ele>2199.5</ele><time>2026-03-08T08:53:37.000Z</time></trkpt>
<trkpt lat="42.10169" lon="23.591168"><ele>2199.5</ele><time>2026-03-08T08:53:38.000Z</time></trkpt>
<trkpt lat="42.10169" lon="23.591167"><ele>2199.5</ele><time>2026-03-08T08:53:39.000Z</time></trkpt>
<trkpt lat="42.10169" lon="23.591167"><ele>2199.5</ele><time>2026-03-08T08:53:40.000Z</time></trkpt>
<trkpt lat="42.10169" lon="23.591167"><ele>2199.5</ele><time>2026-03-08T08:53:41.000Z</time></trkpt>
<trkpt lat="42.10169" lon="23.591168"><ele>2199.5</ele><time>2026-03-08T08:53:42.000Z</time></trkpt>
<trkpt lat="42.101691" lon="23.591168"><ele>2199.5</ele><time>2026-03-08T08:53:43.000Z</time></trkpt>
<trkpt lat="42.101691" lon="23.591168"><ele>2199.5</ele><time>2026-03-08T08:53:44.000Z</time></trkpt>
<trkpt lat="42.101691" lon="23.591168"><ele>2199.5</ele><time>2026-03-08T08:53:45.000Z</time></trkpt>
<trkpt lat="42.101691" lon="23.591168"><ele>2199.5</ele><time>2026-03-08T08:53:46.000Z</time></trkpt>
<trkpt lat="42.10169" lon="23.591167"><ele>2199.5</ele><time>2026-03-08T08:53:47.000Z</time></trkpt>
<trkpt lat="42.10169" lon="23.591167"><ele>2199.5</ele><time>2026-03-08T08:53:48.000Z</time></trkpt>
<trkpt lat="42.10169" lon="23.591166"><ele>2199.5</ele><time>2026-03-08T08:53:49.000Z</time></trkpt>
<trkpt lat="42.101689" lon="23.591166"><ele>2199.5</ele><time>2026-03-08T08:53:50.000Z</time></trkpt>
<trkpt lat="42.101688" lon="23.591167"><ele>2199.5</ele><time>2026-03-08T08:53:51.000Z</time></trkpt>
<trkpt lat="42.101687" lon="23.591168"><ele>2199.7</ele><time>2026-03-08T08:53:52.000Z</time></trkpt>
<trkpt lat="42.101685" lon="23.591169"><ele>2199.7</ele><time>2026-03-08T08:53:53.000Z</time></trkpt>
<trkpt lat="42.101683" lon="23.59117"><ele>2199.7</ele><time>2026-03-08T08:53:54.000Z</time></trkpt>
<trkpt lat="42.101682" lon="23.591171"><ele>2199.7</ele><time>2026-03-08T08:53:55.000Z</time></trkpt>
<trkpt lat="42.101681" lon="23.591171"><ele>2199.7</ele><time>2026-03-08T08:53:56.000Z</time></trkpt>
<trkpt lat="42.101679" lon="23.591171"><ele>2199.9</ele><time>2026-03-08T08:53:57.000Z</time></trkpt>
<trkpt lat="42.101679" lon="23.591172"><ele>2199.9</ele><time>2026-03-08T08:53:58.000Z</time></trkpt>
<trkpt lat="42.101678" lon="23.591173"><ele>2199.9</ele><time>2026-03-08T08:53:59.000Z</time></trkpt>
<trkpt lat="42.101677" lon="23.591175"><ele>2199.9</ele><time>2026-03-08T08:54:00.000Z</time></trkpt>
<trkpt lat="42.101677" lon="23.591176"><ele>2199.9</ele><time>2026-03-08T08:54:01.000Z</time></trkpt>
<trkpt lat="42.101677" lon="23.591176"><ele>2200.2</ele><time>2026-03-08T08:54:02.000Z</time></trkpt>
<trkpt lat="42.101677" lon="23.591176"><ele>2200.2</ele><time>2026-03-08T08:54:03.000Z</time></trkpt>
<trkpt lat="42.101677" lon="23.591177"><ele>2200.2</ele><time>2026-03-08T08:54:04.000Z</time></trkpt>
<trkpt lat="42.101677" lon="23.591178"><ele>2200.2</ele><time>2026-03-08T08:54:05.000Z</time></trkpt>
<trkpt lat="42.101677" lon="23.591179"><ele>2200.2</ele><time>2026-03-08T08:54:06.000Z</time></trkpt>
<trkpt lat="42.101677" lon="23.591179"><ele>2200.5</ele><time>2026-03-08T08:54:07.000Z</time></trkpt>
<trkpt lat="42.101676" lon="23.59118"><ele>2200.5</ele><time>2026-03-08T08:54:08.000Z</time></trkpt>
<trkpt lat="42.101676" lon="23.591181"><ele>2200.5</ele><time>2026-03-08T08:54:09.000Z</time></trkpt>
<trkpt lat="42.101676" lon="23.591181"><ele>2200.5</ele><time>2026-03-08T08:54:10.000Z</time></trkpt>
<trkpt lat="42.101676" lon="23.591181"><ele>2200.5</ele><time>2026-03-08T08:54:11.000Z</time></trkpt>
<trkpt lat="42.101676" lon="23.591181"><ele>2200.6</ele><time>2026-03-08T08:54:12.000Z</time></trkpt>
<trkpt lat="42.101676" lon="23.591181"><ele>2200.6</ele><time>2026-03-08T08:54:13.000Z</time></trkpt>
<trkpt lat="42.101676" lon="23.591181"><ele>2200.6</ele><time>2026-03-08T08:54:14.000Z</time></trkpt>
<trkpt lat="42.101676" lon="23.591181"><ele>2200.6</ele><time>2026-03-08T08:54:15.000Z</time></trkpt>
<trkpt lat="42.101676" lon="23.591181"><ele>2200.6</ele><time>2026-03-08T08:54:16.000Z</time></trkpt>
<trkpt lat="42.101676" lon="23.591181"><ele>2200.8</ele><time>2026-03-08T08:54:17.000Z</time></trkpt>
<trkpt lat="42.101676" lon="23.591181"><ele>2200.8</ele><time>2026-03-08T08:54:18.000Z</time></trkpt>
<trkpt lat="42.101676" lon="23.591181"><ele>2200.8</ele><time>2026-03-08T08:54:19.000Z</time></trkpt>
<trkpt lat="42.101676" lon="23.591181"><ele>2200.8</ele><time>2026-03-08T08:54:20.000Z</time></trkpt>
<trkpt lat="42.101676" lon="23.591181"><ele>2200.8</ele><time>2026-03-08T08:54:21.000Z</time></trkpt>
<trkpt lat="42.101676" lon="23.591181"><ele>2200.8</ele><time>2026-03-08T08:54:22.000Z</time></trkpt>
<trkpt lat="42.101676" lon="23.591181"><ele>2200.8</ele><time>2026-03-08T08:54:23.000Z</time></trkpt>
<trkpt lat="42.101676" lon="23.591181"><ele>2200.8</ele><time>2026-03-08T08:54:24.000Z</time></trkpt>
<trkpt lat="42.101676" lon="23.591181"><ele>2200.8</ele><time>2026-03-08T08:54:25.000Z</time></trkpt>
<trkpt lat="42.101676" lon="23.591181"><ele>2200.8</ele><time>2026-03-08T08:54:26.000Z</time></trkpt>
<trkpt lat="42.101677" lon="23.591181"><ele>2200.8</ele><time>2026-03-08T08:54:27.000Z</time></trkpt>
<trkpt lat="42.101677" lon="23.591181"><ele>2200.8</ele><time>2026-03-08T08:54:28.000Z</time></trkpt>
<trkpt lat="42.101678" lon="23.59118"><ele>2200.8</ele><time>2026-03-08T08:54:29.000Z</time></trkpt>
<trkpt lat="42.101678" lon="23.59118"><ele>2200.8</ele><time>2026-03-08T08:54:30.000Z</time></trkpt>
<trkpt lat="42.101679" lon="23.59118"><ele>2200.8</ele><time>2026-03-08T08:54:31.000Z</time></trkpt>
<trkpt lat="42.101681" lon="23.591178"><ele>2200.8</ele><time>2026-03-08T08:54:32.000Z</time></trkpt>
<trkpt lat="42.101682" lon="23.591176"><ele>2200.8</ele><time>2026-03-08T08:54:33.000Z</time></trkpt>
<trkpt lat="42.101683" lon="23.591174"><ele>2200.8</ele><time>2026-03-08T08:54:34.000Z</time></trkpt>
<trkpt lat="42.101684" lon="23.591173"><ele>2200.8</ele><time>2026-03-08T08:54:35.000Z</time></trkpt>
<trkpt lat="42.101684" lon="23.591174"><ele>2200.8</ele><time>2026-03-08T08:54:36.000Z</time></trkpt>
<trkpt lat="42.101684" lon="23.591175"><ele>2200.9</ele><time>2026-03-08T08:54:37.000Z</time></trkpt>
<trkpt lat="42.101685" lon="23.591178"><ele>2200.9</ele><time>2026-03-08T08:54:38.000Z</time></trkpt>
<trkpt lat="42.101686" lon="23.59118"><ele>2200.9</ele><time>2026-03-08T08:54:39.000Z</time></trkpt>
<trkpt lat="42.101686" lon="23.591182"><ele>2200.9</ele><time>2026-03-08T08:54:40.000Z</time></trkpt>
<trkpt lat="42.101687" lon="23.591183"><ele>2200.9</ele><time>2026-03-08T08:54:41.000Z</time></trkpt>
<trkpt lat="42.101688" lon="23.591184"><ele>2200.9</ele><time>2026-03-08T08:54:42.000Z</time></trkpt>
<trkpt lat="42.101688" lon="23.591186"><ele>2200.9</ele><time>2026-03-08T08:54:43.000Z</time></trkpt>
<trkpt lat="42.101689" lon="23.591187"><ele>2200.9</ele><time>2026-03-08T08:54:44.000Z</time></trkpt>
<trkpt lat="42.101689" lon="23.591188"><ele>2200.9</ele><time>2026-03-08T08:54:45.000Z</time></trkpt>
<trkpt lat="42.10169" lon="23.591188"><ele>2200.9</ele><time>2026-03-08T08:54:46.000Z</time></trkpt>
<trkpt lat="42.10169" lon="23.591189"><ele>2200.6</ele><time>2026-03-08T08:54:47.000Z</time></trkpt>
<trkpt lat="42.10169" lon="23.591189"><ele>2200.6</ele><time>2026-03-08T08:54:48.000Z</time></trkpt>
<trkpt lat="42.10169" lon="23.591189"><ele>2200.6</ele><time>2026-03-08T08:54:49.000Z</time></trkpt>
<trkpt lat="42.10169" lon="23.591189"><ele>2200.6</ele><time>2026-03-08T08:54:50.000Z</time></trkpt>
<trkpt lat="42.10169" lon="23.591189"><ele>2200.6</ele><time>2026-03-08T08:54:51.000Z</time></trkpt>
<trkpt lat="42.10169" lon="23.591189"><ele>2200.3</ele><time>2026-03-08T08:54:52.000Z</time></trkpt>
<trkpt lat="42.10169" lon="23.591189"><ele>2200.3</ele><time>2026-03-08T08:54:53.000Z</time></trkpt>
<trkpt lat="42.10169" lon="23.591189"><ele>2200.3</ele><time>2026-03-08T08:54:54.000Z</time></trkpt>
<trkpt lat="42.10169" lon="23.591189"><ele>2200.3</ele><time>2026-03-08T08:54:55.000Z</time></trkpt>
<trkpt lat="42.10169" lon="23.591189"><ele>2200.3</ele><time>2026-03-08T08:54:56.000Z</time></trkpt>
<trkpt lat="42.10169" lon="23.591189"><ele>2200.3</ele><time>2026-03-08T08:54:57.000Z</time></trkpt>
<trkpt lat="42.10169" lon="23.591189"><ele>2200.3</ele><time>2026-03-08T08:54:58.000Z</time></trkpt>
<trkpt lat="42.10169" lon="23.59119"><ele>2200.3</ele><time>2026-03-08T08:54:59.000Z</time></trkpt>
<trkpt lat="42.101689" lon="23.591191"><ele>2200.3</ele><time>2026-03-08T08:55:00.000Z</time></trkpt>
<trkpt lat="42.10169" lon="23.591192"><ele>2200.3</ele><time>2026-03-08T08:55:01.000Z</time></trkpt>
<trkpt lat="42.10169" lon="23.591194"><ele>2200.3</ele><time>2026-03-08T08:55:02.000Z</time></trkpt>
<trkpt lat="42.10169" lon="23.591195"><ele>2200.3</ele><time>2026-03-08T08:55:03.000Z</time></trkpt>
<trkpt lat="42.10169" lon="23.591194"><ele>2200.3</ele><time>2026-03-08T08:55:04.000Z</time></trkpt>
<trkpt lat="42.101691" lon="23.591194"><ele>2200.3</ele><time>2026-03-08T08:55:05.000Z</time></trkpt>
<trkpt lat="42.10169" lon="23.591193"><ele>2200.3</ele><time>2026-03-08T08:55:06.000Z</time></trkpt>
<trkpt lat="42.101689" lon="23.591192"><ele>2200.2</ele><time>2026-03-08T08:55:07.000Z</time></trkpt>
<trkpt lat="42.101688" lon="23.59119"><ele>2200.2</ele><time>2026-03-08T08:55:08.000Z</time></trkpt>
<trkpt lat="42.101688" lon="23.59119"><ele>2200.2</ele><time>2026-03-08T08:55:09.000Z</time></trkpt>
<trkpt lat="42.101687" lon="23.591189"><ele>2200.2</ele><time>2026-03-08T08:55:10.000Z</time></trkpt>
<trkpt lat="42.101687" lon="23.591188"><ele>2200.2</ele><time>2026-03-08T08:55:11.000Z</time></trkpt>
<trkpt lat="42.101687" lon="23.591188"><ele>2200.2</ele><time>2026-03-08T08:55:12.000Z</time></trkpt>
<trkpt lat="42.101687" lon="23.591189"><ele>2200.2</ele><time>2026-03-08T08:55:13.000Z</time></trkpt>
<trkpt lat="42.101686" lon="23.59119"><ele>2200.2</ele><time>2026-03-08T08:55:14.000Z</time></trkpt>
<trkpt lat="42.101686" lon="23.591191"><ele>2200.2</ele><time>2026-03-08T08:55:15.000Z</time></trkpt>
<trkpt lat="42.101686" lon="23.591192"><ele>2200.2</ele><time>2026-03-08T08:55:16.000Z</time></trkpt>
<trkpt lat="42.101686" lon="23.591192"><ele>2200.1</ele><time>2026-03-08T08:55:17.000Z</time></trkpt>
<trkpt lat="42.101687" lon="23.591192"><ele>2200.1</ele><time>2026-03-08T08:55:18.000Z</time></trkpt>
<trkpt lat="42.101687" lon="23.591193"><ele>2200.1</ele><time>2026-03-08T08:55:19.000Z</time></trkpt>
<trkpt lat="42.101687" lon="23.591193"><ele>2200.1</ele><time>2026-03-08T08:55:20.000Z</time></trkpt>
<trkpt lat="42.101687" lon="23.591193"><ele>2200.1</ele><time>2026-03-08T08:55:21.000Z</time></trkpt>
<trkpt lat="42.101687" lon="23.591193"><ele>2200.2</ele><time>2026-03-08T08:55:22.000Z</time></trkpt>
<trkpt lat="42.101687" lon="23.591193"><ele>2200.2</ele><time>2026-03-08T08:55:23.000Z</time></trkpt>
<trkpt lat="42.101687" lon="23.591193"><ele>2200.2</ele><time>2026-03-08T08:55:24.000Z</time></trkpt>
<trkpt lat="42.101687" lon="23.591193"><ele>2200.2</ele><time>2026-03-08T08:55:25.000Z</time></trkpt>
<trkpt lat="42.101687" lon="23.591193"><ele>2200.2</ele><time>2026-03-08T08:55:26.000Z</time></trkpt>
<trkpt lat="42.101687" lon="23.591193"><ele>2200.2</ele><time>2026-03-08T08:55:27.000Z</time></trkpt>
<trkpt lat="42.101687" lon="23.591193"><ele>2200.2</ele><time>2026-03-08T08:55:28.000Z</time></trkpt>
<trkpt lat="42.101687" lon="23.591193"><ele>2200.2</ele><time>2026-03-08T08:55:29.000Z</time></trkpt>
<trkpt lat="42.101687" lon="23.591193"><ele>2200.2</ele><time>2026-03-08T08:55:30.000Z</time></trkpt>
<trkpt lat="42.101687" lon="23.591193"><ele>2200.2</ele><time>2026-03-08T08:55:31.000Z</time></trkpt>
<trkpt lat="42.101687" lon="23.591193"><ele>2200.1</ele><time>2026-03-08T08:55:32.000Z</time></trkpt>
<trkpt lat="42.101687" lon="23.591193"><ele>2200.1</ele><time>2026-03-08T08:55:33.000Z</time></trkpt>
<trkpt lat="42.101688" lon="23.591194"><ele>2200.1</ele><time>2026-03-08T08:55:34.000Z</time></trkpt>
<trkpt lat="42.101688" lon="23.591194"><ele>2200.1</ele><time>2026-03-08T08:55:35.000Z</time></trkpt>
<trkpt lat="42.101688" lon="23.591195"><ele>2200.1</ele><time>2026-03-08T08:55:36.000Z</time></trkpt>
<trkpt lat="42.101688" lon="23.591195"><ele>2200</ele><time>2026-03-08T08:55:37.000Z</time></trkpt>
<trkpt lat="42.101688" lon="23.591195"><ele>2200</ele><time>2026-03-08T08:55:38.000Z</time></trkpt>
<trkpt lat="42.101688" lon="23.591195"><ele>2200</ele><time>2026-03-08T08:55:39.000Z</time></trkpt>
<trkpt lat="42.101688" lon="23.591195"><ele>2200</ele><time>2026-03-08T08:55:40.000Z</time></trkpt>
<trkpt lat="42.101688" lon="23.591195"><ele>2200</ele><time>2026-03-08T08:55:41.000Z</time></trkpt>
<trkpt lat="42.101688" lon="23.591195"><ele>2199.9</ele><time>2026-03-08T08:55:42.000Z</time></trkpt>
<trkpt lat="42.101688" lon="23.591195"><ele>2199.9</ele><time>2026-03-08T08:55:43.000Z</time></trkpt>
<trkpt lat="42.101688" lon="23.591195"><ele>2199.9</ele><time>2026-03-08T08:55:44.000Z</time></trkpt>
<trkpt lat="42.101688" lon="23.591195"><ele>2199.9</ele><time>2026-03-08T08:55:45.000Z</time></trkpt>
<trkpt lat="42.101688" lon="23.591195"><ele>2199.9</ele><time>2026-03-08T08:55:46.000Z</time></trkpt>
<trkpt lat="42.101688" lon="23.591195"><ele>2199.8</ele><time>2026-03-08T08:55:47.000Z</time></trkpt>
<trkpt lat="42.101688" lon="23.591195"><ele>2199.8</ele><time>2026-03-08T08:55:48.000Z</time></trkpt>
<trkpt lat="42.101688" lon="23.591195"><ele>2199.8</ele><time>2026-03-08T08:55:49.000Z</time></trkpt>
<trkpt lat="42.101688" lon="23.591195"><ele>2199.8</ele><time>2026-03-08T08:55:50.000Z</time></trkpt>
<trkpt lat="42.101688" lon="23.591195"><ele>2199.8</ele><time>2026-03-08T08:55:51.000Z</time></trkpt>
<trkpt lat="42.101688" lon="23.591195"><ele>2199.9</ele><time>2026-03-08T08:55:52.000Z</time></trkpt>
<trkpt lat="42.101688" lon="23.591195"><ele>2199.9</ele><time>2026-03-08T08:55:53.000Z</time></trkpt>
<trkpt lat="42.101688" lon="23.591195"><ele>2199.9</ele><time>2026-03-08T08:55:54.000Z</time></trkpt>
<trkpt lat="42.101688" lon="23.591195"><ele>2199.9</ele><time>2026-03-08T08:55:55.000Z</time></trkpt>
<trkpt lat="42.101688" lon="23.591196"><ele>2199.9</ele><time>2026-03-08T08:55:56.000Z</time></trkpt>
<trkpt lat="42.101688" lon="23.591196"><ele>2199.9</ele><time>2026-03-08T08:55:57.000Z</time></trkpt>
<trkpt lat="42.101687" lon="23.591196"><ele>2199.9</ele><time>2026-03-08T08:55:58.000Z</time></trkpt>
<trkpt lat="42.101687" lon="23.591196"><ele>2199.9</ele><time>2026-03-08T08:55:59.000Z</time></trkpt>
<trkpt lat="42.101687" lon="23.591196"><ele>2199.9</ele><time>2026-03-08T08:56:00.000Z</time></trkpt>
<trkpt lat="42.101687" lon="23.591196"><ele>2199.9</ele><time>2026-03-08T08:56:01.000Z</time></trkpt>
<trkpt lat="42.101687" lon="23.591196"><ele>2199.8</ele><time>2026-03-08T08:56:02.000Z</time></trkpt>
<trkpt lat="42.101687" lon="23.591196"><ele>2199.8</ele><time>2026-03-08T08:56:03.000Z</time></trkpt>
<trkpt lat="42.101687" lon="23.591196"><ele>2199.8</ele><time>2026-03-08T08:56:04.000Z</time></trkpt>
<trkpt lat="42.101687" lon="23.591196"><ele>2199.8</ele><time>2026-03-08T08:56:05.000Z</time></trkpt>
<trkpt lat="42.101687" lon="23.591196"><ele>2199.8</ele><time>2026-03-08T08:56:06.000Z</time></trkpt>
<trkpt lat="42.101687" lon="23.591196"><ele>2199.7</ele><time>2026-03-08T08:56:07.000Z</time></trkpt>
<trkpt lat="42.101687" lon="23.591196"><ele>2199.7</ele><time>2026-03-08T08:56:08.000Z</time></trkpt>
<trkpt lat="42.101687" lon="23.591196"><ele>2199.7</ele><time>2026-03-08T08:56:09.000Z</time></trkpt>
<trkpt lat="42.101687" lon="23.591196"><ele>2199.7</ele><time>2026-03-08T08:56:10.000Z</time></trkpt>
<trkpt lat="42.101687" lon="23.591196"><ele>2199.7</ele><time>2026-03-08T08:56:11.000Z</time></trkpt>
<trkpt lat="42.101687" lon="23.591196"><ele>2199.7</ele><time>2026-03-08T08:56:12.000Z</time></trkpt>
<trkpt lat="42.101687" lon="23.591196"><ele>2199.7</ele><time>2026-03-08T08:56:13.000Z</time></trkpt>
<trkpt lat="42.101687" lon="23.591196"><ele>2199.7</ele><time>2026-03-08T08:56:14.000Z</time></trkpt>
<trkpt lat="42.101687" lon="23.591196"><ele>2199.7</ele><time>2026-03-08T08:56:15.000Z</time></trkpt>
<trkpt lat="42.101687" lon="23.591196"><ele>2199.7</ele><time>2026-03-08T08:56:16.000Z</time></trkpt>
<trkpt lat="42.101687" lon="23.591196"><ele>2199.7</ele><time>2026-03-08T08:56:17.000Z</time></trkpt>
<trkpt lat="42.101687" lon="23.591196"><ele>2199.7</ele><time>2026-03-08T08:56:18.000Z</time></trkpt>
<trkpt lat="42.101687" lon="23.591196"><ele>2199.7</ele><time>2026-03-08T08:56:19.000Z</time></trkpt>
<trkpt lat="42.101687" lon="23.591196"><ele>2199.7</ele><time>2026-03-08T08:56:20.000Z</time></trkpt>
<trkpt lat="42.101687" lon="23.591196"><ele>2199.7</ele><time>2026-03-08T08:56:21.000Z</time></trkpt>
<trkpt lat="42.101687" lon="23.591196"><ele>2199.7</ele><time>2026-03-08T08:56:22.000Z</time></trkpt>
<trkpt lat="42.101687" lon="23.591196"><ele>2199.7</ele><time>2026-03-08T08:56:23.000Z</time></trkpt>
<trkpt lat="42.101687" lon="23.591196"><ele>2199.7</ele><time>2026-03-08T08:56:24.000Z</time></trkpt>
<trkpt lat="42.101687" lon="23.591196"><ele>2199.7</ele><time>2026-03-08T08:56:25.000Z</time></trkpt>
<trkpt lat="42.101687" lon="23.591196"><ele>2199.7</ele><time>2026-03-08T08:56:26.000Z</time></trkpt>
<trkpt lat="42.101687" lon="23.591196"><ele>2199.8</ele><time>2026-03-08T08:56:27.000Z</time></trkpt>
<trkpt lat="42.101687" lon="23.591196"><ele>2199.8</ele><time>2026-03-08T08:56:28.000Z</time></trkpt>
<trkpt lat="42.101687" lon="23.591196"><ele>2199.8</ele><time>2026-03-08T08:56:29.000Z</time></trkpt>
<trkpt lat="42.101687" lon="23.591196"><ele>2199.8</ele><time>2026-03-08T08:56:30.000Z</time></trkpt>
<trkpt lat="42.101687" lon="23.591196"><ele>2199.8</ele><time>2026-03-08T08:56:31.000Z</time></trkpt>
<trkpt lat="42.101687" lon="23.591196"><ele>2199.8</ele><time>2026-03-08T08:56:32.000Z</time></trkpt>
<trkpt lat="42.101687" lon="23.591196"><ele>2199.8</ele><time>2026-03-08T08:56:33.000Z</time></trkpt>
<trkpt lat="42.101687" lon="23.591196"><ele>2199.8</ele><time>2026-03-08T08:56:34.000Z</time></trkpt>
<trkpt lat="42.101688" lon="23.591197"><ele>2199.8</ele><time>2026-03-08T08:56:35.000Z</time></trkpt>
<trkpt lat="42.101689" lon="23.591197"><ele>2199.8</ele><time>2026-03-08T08:56:36.000Z</time></trkpt>
<trkpt lat="42.10169" lon="23.591198"><ele>2199.9</ele><time>2026-03-08T08:56:37.000Z</time></trkpt>
<trkpt lat="42.10169" lon="23.591199"><ele>2199.9</ele><time>2026-03-08T08:56:38.000Z</time></trkpt>
<trkpt lat="42.101691" lon="23.591199"><ele>2199.9</ele><time>2026-03-08T08:56:39.000Z</time></trkpt>
<trkpt lat="42.101691" lon="23.591198"><ele>2199.9</ele><time>2026-03-08T08:56:40.000Z</time></trkpt>
<trkpt lat="42.101691" lon="23.591197"><ele>2199.9</ele><time>2026-03-08T08:56:41.000Z</time></trkpt>
<trkpt lat="42.101691" lon="23.591196"><ele>2199.9</ele><time>2026-03-08T08:56:42.000Z</time></trkpt>
<trkpt lat="42.101692" lon="23.591195"><ele>2199.9</ele><time>2026-03-08T08:56:43.000Z</time></trkpt>
<trkpt lat="42.101692" lon="23.591195"><ele>2199.9</ele><time>2026-03-08T08:56:44.000Z</time></trkpt>
<trkpt lat="42.101692" lon="23.591195"><ele>2199.9</ele><time>2026-03-08T08:56:45.000Z</time></trkpt>
<trkpt lat="42.101692" lon="23.591196"><ele>2199.9</ele><time>2026-03-08T08:56:46.000Z</time></trkpt>
<trkpt lat="42.101692" lon="23.591197"><ele>2200.1</ele><time>2026-03-08T08:56:47.000Z</time></trkpt>
<trkpt lat="42.101692" lon="23.591198"><ele>2200.1</ele><time>2026-03-08T08:56:48.000Z</time></trkpt>
<trkpt lat="42.101693" lon="23.5912"><ele>2200.1</ele><time>2026-03-08T08:56:49.000Z</time></trkpt>
<trkpt lat="42.101693" lon="23.591201"><ele>2200.1</ele><time>2026-03-08T08:56:50.000Z</time></trkpt>
<trkpt lat="42.101693" lon="23.591202"><ele>2200.1</ele><time>2026-03-08T08:56:51.000Z</time></trkpt>
<trkpt lat="42.101692" lon="23.591203"><ele>2200.5</ele><time>2026-03-08T08:56:52.000Z</time></trkpt>
<trkpt lat="42.101691" lon="23.591203"><ele>2200.5</ele><time>2026-03-08T08:56:53.000Z</time></trkpt>
<trkpt lat="42.10169" lon="23.591204"><ele>2200.5</ele><time>2026-03-08T08:56:54.000Z</time></trkpt>
<trkpt lat="42.101689" lon="23.591204"><ele>2200.5</ele><time>2026-03-08T08:56:55.000Z</time></trkpt>
<trkpt lat="42.101688" lon="23.591204"><ele>2200.5</ele><time>2026-03-08T08:56:56.000Z</time></trkpt>
<trkpt lat="42.101687" lon="23.591204"><ele>2200.5</ele><time>2026-03-08T08:56:57.000Z</time></trkpt>
<trkpt lat="42.101687" lon="23.591204"><ele>2200.5</ele><time>2026-03-08T08:56:58.000Z</time></trkpt>
<trkpt lat="42.101686" lon="23.591204"><ele>2200.5</ele><time>2026-03-08T08:56:59.000Z</time></trkpt>
<trkpt lat="42.101686" lon="23.591204"><ele>2200.5</ele><time>2026-03-08T08:57:00.000Z</time></trkpt>
<trkpt lat="42.101686" lon="23.591204"><ele>2200.5</ele><time>2026-03-08T08:57:01.000Z</time></trkpt>
<trkpt lat="42.101685" lon="23.591204"><ele>2200.2</ele><time>2026-03-08T08:57:02.000Z</time></trkpt>
<trkpt lat="42.101685" lon="23.591204"><ele>2200.2</ele><time>2026-03-08T08:57:03.000Z</time></trkpt>
<trkpt lat="42.101685" lon="23.591204"><ele>2200.2</ele><time>2026-03-08T08:57:04.000Z</time></trkpt>
<trkpt lat="42.101685" lon="23.591204"><ele>2200.2</ele><time>2026-03-08T08:57:05.000Z</time></trkpt>
<trkpt lat="42.101685" lon="23.591203"><ele>2200.2</ele><time>2026-03-08T08:57:06.000Z</time></trkpt>
<trkpt lat="42.101685" lon="23.591203"><ele>2199.6</ele><time>2026-03-08T08:57:07.000Z</time></trkpt>
<trkpt lat="42.101684" lon="23.591203"><ele>2199.6</ele><time>2026-03-08T08:57:08.000Z</time></trkpt>
<trkpt lat="42.101684" lon="23.591203"><ele>2199.6</ele><time>2026-03-08T08:57:09.000Z</time></trkpt>
<trkpt lat="42.101684" lon="23.591203"><ele>2199.6</ele><time>2026-03-08T08:57:10.000Z</time></trkpt>
<trkpt lat="42.101683" lon="23.591203"><ele>2199.6</ele><time>2026-03-08T08:57:11.000Z</time></trkpt>
<trkpt lat="42.101683" lon="23.591203"><ele>2199.4</ele><time>2026-03-08T08:57:12.000Z</time></trkpt>
<trkpt lat="42.101683" lon="23.591203"><ele>2199.4</ele><time>2026-03-08T08:57:13.000Z</time></trkpt>
<trkpt lat="42.101684" lon="23.591203"><ele>2199.4</ele><time>2026-03-08T08:57:14.000Z</time></trkpt>
<trkpt lat="42.101684" lon="23.591203"><ele>2199.4</ele><time>2026-03-08T08:57:15.000Z</time></trkpt>
<trkpt lat="42.101684" lon="23.591203"><ele>2199.4</ele><time>2026-03-08T08:57:16.000Z</time></trkpt>
<trkpt lat="42.101684" lon="23.591203"><ele>2199.4</ele><time>2026-03-08T08:57:17.000Z</time></trkpt>
<trkpt lat="42.101684" lon="23.591203"><ele>2199.4</ele><time>2026-03-08T08:57:18.000Z</time></trkpt>
<trkpt lat="42.101684" lon="23.591203"><ele>2199.4</ele><time>2026-03-08T08:57:19.000Z</time></trkpt>
<trkpt lat="42.101684" lon="23.591203"><ele>2199.4</ele><time>2026-03-08T08:57:20.000Z</time></trkpt>
<trkpt lat="42.101685" lon="23.591202"><ele>2199.4</ele><time>2026-03-08T08:57:21.000Z</time></trkpt>
<trkpt lat="42.101685" lon="23.5912"><ele>2199.4</ele><time>2026-03-08T08:57:22.000Z</time></trkpt>
<trkpt lat="42.101685" lon="23.591199"><ele>2199.4</ele><time>2026-03-08T08:57:23.000Z</time></trkpt>
<trkpt lat="42.101686" lon="23.591198"><ele>2199.4</ele><time>2026-03-08T08:57:24.000Z</time></trkpt>
<trkpt lat="42.101686" lon="23.591197"><ele>2199.4</ele><time>2026-03-08T08:57:25.000Z</time></trkpt>
<trkpt lat="42.101686" lon="23.591197"><ele>2199.4</ele><time>2026-03-08T08:57:26.000Z</time></trkpt>
<trkpt lat="42.101686" lon="23.591197"><ele>2199.3</ele><time>2026-03-08T08:57:27.000Z</time></trkpt>
<trkpt lat="42.101686" lon="23.591197"><ele>2199.3</ele><time>2026-03-08T08:57:28.000Z</time></trkpt>
<trkpt lat="42.101686" lon="23.591197"><ele>2199.3</ele><time>2026-03-08T08:57:29.000Z</time></trkpt>
<trkpt lat="42.101686" lon="23.591197"><ele>2199.3</ele><time>2026-03-08T08:57:30.000Z</time></trkpt>
<trkpt lat="42.101688" lon="23.591198"><ele>2199.3</ele><time>2026-03-08T08:57:31.000Z</time></trkpt>
<trkpt lat="42.10169" lon="23.591199"><ele>2199.2</ele><time>2026-03-08T08:57:32.000Z</time></trkpt>
<trkpt lat="42.101692" lon="23.591202"><ele>2199.2</ele><time>2026-03-08T08:57:33.000Z</time></trkpt>
<trkpt lat="42.101694" lon="23.591204"><ele>2199.2</ele><time>2026-03-08T08:57:34.000Z</time></trkpt>
<trkpt lat="42.101695" lon="23.591207"><ele>2199.2</ele><time>2026-03-08T08:57:35.000Z</time></trkpt>
<trkpt lat="42.101696" lon="23.591208"><ele>2199.2</ele><time>2026-03-08T08:57:36.000Z</time></trkpt>
<trkpt lat="42.101696" lon="23.59121"><ele>2199.2</ele><time>2026-03-08T08:57:37.000Z</time></trkpt>
<trkpt lat="42.101695" lon="23.591211"><ele>2199.2</ele><time>2026-03-08T08:57:38.000Z</time></trkpt>
<trkpt lat="42.101696" lon="23.591212"><ele>2199.2</ele><time>2026-03-08T08:57:39.000Z</time></trkpt>
<trkpt lat="42.101696" lon="23.591212"><ele>2199.2</ele><time>2026-03-08T08:57:40.000Z</time></trkpt>
<trkpt lat="42.101697" lon="23.591213"><ele>2199.2</ele><time>2026-03-08T08:57:41.000Z</time></trkpt>
<trkpt lat="42.101697" lon="23.591214"><ele>2199.4</ele><time>2026-03-08T08:57:42.000Z</time></trkpt>
<trkpt lat="42.101697" lon="23.591214"><ele>2199.4</ele><time>2026-03-08T08:57:43.000Z</time></trkpt>
<trkpt lat="42.101698" lon="23.591215"><ele>2199.4</ele><time>2026-03-08T08:57:44.000Z</time></trkpt>
<trkpt lat="42.101698" lon="23.591215"><ele>2199.4</ele><time>2026-03-08T08:57:45.000Z</time></trkpt>
<trkpt lat="42.101698" lon="23.591215"><ele>2199.4</ele><time>2026-03-08T08:57:46.000Z</time></trkpt>
<trkpt lat="42.101698" lon="23.591214"><ele>2199.7</ele><time>2026-03-08T08:57:47.000Z</time></trkpt>
<trkpt lat="42.101699" lon="23.591215"><ele>2199.7</ele><time>2026-03-08T08:57:48.000Z</time></trkpt>
<trkpt lat="42.101701" lon="23.591214"><ele>2199.7</ele><time>2026-03-08T08:57:49.000Z</time></trkpt>
<trkpt lat="42.101702" lon="23.591214"><ele>2199.7</ele><time>2026-03-08T08:57:50.000Z</time></trkpt>
<trkpt lat="42.101703" lon="23.591213"><ele>2199.7</ele><time>2026-03-08T08:57:51.000Z</time></trkpt>
<trkpt lat="42.101704" lon="23.591213"><ele>2200.1</ele><time>2026-03-08T08:57:52.000Z</time></trkpt>
<trkpt lat="42.101704" lon="23.591212"><ele>2200.1</ele><time>2026-03-08T08:57:53.000Z</time></trkpt>
<trkpt lat="42.101704" lon="23.591212"><ele>2200.1</ele><time>2026-03-08T08:57:54.000Z</time></trkpt>
<trkpt lat="42.101704" lon="23.591212"><ele>2200.1</ele><time>2026-03-08T08:57:55.000Z</time></trkpt>
<trkpt lat="42.101704" lon="23.591212"><ele>2200.1</ele><time>2026-03-08T08:57:56.000Z</time></trkpt>
<trkpt lat="42.101704" lon="23.591212"><ele>2200.2</ele><time>2026-03-08T08:57:57.000Z</time></trkpt>
<trkpt lat="42.101704" lon="23.591212"><ele>2200.2</ele><time>2026-03-08T08:57:58.000Z</time></trkpt>
<trkpt lat="42.101704" lon="23.591212"><ele>2200.2</ele><time>2026-03-08T08:57:59.000Z</time></trkpt>
<trkpt lat="42.101704" lon="23.591212"><ele>2200.2</ele><time>2026-03-08T08:58:00.000Z</time></trkpt>
<trkpt lat="42.101704" lon="23.591212"><ele>2200.2</ele><time>2026-03-08T08:58:01.000Z</time></trkpt>
<trkpt lat="42.101704" lon="23.591212"><ele>2200.6</ele><time>2026-03-08T08:58:02.000Z</time></trkpt>
<trkpt lat="42.101704" lon="23.591212"><ele>2200.6</ele><time>2026-03-08T08:58:03.000Z</time></trkpt>
<trkpt lat="42.101704" lon="23.591212"><ele>2200.6</ele><time>2026-03-08T08:58:04.000Z</time></trkpt>
<trkpt lat="42.101704" lon="23.591212"><ele>2200.6</ele><time>2026-03-08T08:58:05.000Z</time></trkpt>
<trkpt lat="42.101704" lon="23.591212"><ele>2200.6</ele><time>2026-03-08T08:58:06.000Z</time></trkpt>
<trkpt lat="42.101703" lon="23.591212"><ele>2200.7</ele><time>2026-03-08T08:58:07.000Z</time></trkpt>
<trkpt lat="42.101703" lon="23.591212"><ele>2200.7</ele><time>2026-03-08T08:58:08.000Z</time></trkpt>
<trkpt lat="42.101703" lon="23.591212"><ele>2200.7</ele><time>2026-03-08T08:58:09.000Z</time></trkpt>
<trkpt lat="42.101703" lon="23.591212"><ele>2200.7</ele><time>2026-03-08T08:58:10.000Z</time></trkpt>
<trkpt lat="42.101703" lon="23.591212"><ele>2200.7</ele><time>2026-03-08T08:58:11.000Z</time></trkpt>
<trkpt lat="42.101703" lon="23.591212"><ele>2200.6</ele><time>2026-03-08T08:58:12.000Z</time></trkpt>
<trkpt lat="42.101704" lon="23.591212"><ele>2200.6</ele><time>2026-03-08T08:58:13.000Z</time></trkpt>
<trkpt lat="42.101704" lon="23.591213"><ele>2200.6</ele><time>2026-03-08T08:58:14.000Z</time></trkpt>
<trkpt lat="42.101702" lon="23.591214"><ele>2200.6</ele><time>2026-03-08T08:58:15.000Z</time></trkpt>
<trkpt lat="42.101699" lon="23.591213"><ele>2200.6</ele><time>2026-03-08T08:58:16.000Z</time></trkpt>
<trkpt lat="42.101696" lon="23.59121"><ele>2200.1</ele><time>2026-03-08T08:58:17.000Z</time></trkpt>
<trkpt lat="42.101693" lon="23.59121"><ele>2200.1</ele><time>2026-03-08T08:58:18.000Z</time></trkpt>
<trkpt lat="42.101689" lon="23.591208"><ele>2200.1</ele><time>2026-03-08T08:58:19.000Z</time></trkpt>
<trkpt lat="42.101688" lon="23.591207"><ele>2200.1</ele><time>2026-03-08T08:58:20.000Z</time></trkpt>
<trkpt lat="42.101686" lon="23.591208"><ele>2200.1</ele><time>2026-03-08T08:58:21.000Z</time></trkpt>
<trkpt lat="42.101686" lon="23.591211"><ele>2199.9</ele><time>2026-03-08T08:58:22.000Z</time></trkpt>
<trkpt lat="42.101687" lon="23.591212"><ele>2199.9</ele><time>2026-03-08T08:58:23.000Z</time></trkpt>
<trkpt lat="42.101687" lon="23.591213"><ele>2199.9</ele><time>2026-03-08T08:58:24.000Z</time></trkpt>
<trkpt lat="42.101687" lon="23.591214"><ele>2199.9</ele><time>2026-03-08T08:58:25.000Z</time></trkpt>
<trkpt lat="42.101689" lon="23.591215"><ele>2199.9</ele><time>2026-03-08T08:58:26.000Z</time></trkpt>
<trkpt lat="42.101691" lon="23.591215"><ele>2200</ele><time>2026-03-08T08:58:27.000Z</time></trkpt>
<trkpt lat="42.101693" lon="23.591215"><ele>2200</ele><time>2026-03-08T08:58:28.000Z</time></trkpt>
<trkpt lat="42.101696" lon="23.591215"><ele>2200</ele><time>2026-03-08T08:58:29.000Z</time></trkpt>
<trkpt lat="42.101698" lon="23.591214"><ele>2200</ele><time>2026-03-08T08:58:30.000Z</time></trkpt>
<trkpt lat="42.1017" lon="23.591213"><ele>2200</ele><time>2026-03-08T08:58:31.000Z</time></trkpt>
<trkpt lat="42.101701" lon="23.591212"><ele>2200.3</ele><time>2026-03-08T08:58:32.000Z</time></trkpt>
<trkpt lat="42.101701" lon="23.591212"><ele>2200.3</ele><time>2026-03-08T08:58:33.000Z</time></trkpt>
<trkpt lat="42.101701" lon="23.591211"><ele>2200.3</ele><time>2026-03-08T08:58:34.000Z</time></trkpt>
<trkpt lat="42.1017" lon="23.591211"><ele>2200.3</ele><time>2026-03-08T08:58:35.000Z</time></trkpt>
<trkpt lat="42.101699" lon="23.591211"><ele>2200.3</ele><time>2026-03-08T08:58:36.000Z</time></trkpt>
<trkpt lat="42.101698" lon="23.591211"><ele>2200.5</ele><time>2026-03-08T08:58:37.000Z</time></trkpt>
<trkpt lat="42.101698" lon="23.59121"><ele>2200.5</ele><time>2026-03-08T08:58:38.000Z</time></trkpt>
<trkpt lat="42.101698" lon="23.59121"><ele>2200.5</ele><time>2026-03-08T08:58:39.000Z</time></trkpt>
<trkpt lat="42.101697" lon="23.591209"><ele>2200.5</ele><time>2026-03-08T08:58:40.000Z</time></trkpt>
<trkpt lat="42.101697" lon="23.591209"><ele>2200.5</ele><time>2026-03-08T08:58:41.000Z</time></trkpt>
<trkpt lat="42.101697" lon="23.591208"><ele>2200.5</ele><time>2026-03-08T08:58:42.000Z</time></trkpt>
<trkpt lat="42.101698" lon="23.591207"><ele>2200.5</ele><time>2026-03-08T08:58:43.000Z</time></trkpt>
<trkpt lat="42.101698" lon="23.591207"><ele>2200.5</ele><time>2026-03-08T08:58:44.000Z</time></trkpt>
<trkpt lat="42.101698" lon="23.591207"><ele>2200.5</ele><time>2026-03-08T08:58:45.000Z</time></trkpt>
<trkpt lat="42.101698" lon="23.591206"><ele>2200.5</ele><time>2026-03-08T08:58:46.000Z</time></trkpt>
<trkpt lat="42.101698" lon="23.591205"><ele>2200.4</ele><time>2026-03-08T08:58:47.000Z</time></trkpt>
<trkpt lat="42.101697" lon="23.591204"><ele>2200.4</ele><time>2026-03-08T08:58:48.000Z</time></trkpt>
<trkpt lat="42.101697" lon="23.591202"><ele>2200.4</ele><time>2026-03-08T08:58:49.000Z</time></trkpt>
<trkpt lat="42.101696" lon="23.5912"><ele>2200.4</ele><time>2026-03-08T08:58:50.000Z</time></trkpt>
<trkpt lat="42.101696" lon="23.591197"><ele>2200.4</ele><time>2026-03-08T08:58:51.000Z</time></trkpt>
<trkpt lat="42.101696" lon="23.591196"><ele>2200.2</ele><time>2026-03-08T08:58:52.000Z</time></trkpt>
<trkpt lat="42.101696" lon="23.591195"><ele>2200.2</ele><time>2026-03-08T08:58:53.000Z</time></trkpt>
<trkpt lat="42.101695" lon="23.591195"><ele>2200.2</ele><time>2026-03-08T08:58:54.000Z</time></trkpt>
<trkpt lat="42.101693" lon="23.591196"><ele>2200.2</ele><time>2026-03-08T08:58:55.000Z</time></trkpt>
<trkpt lat="42.101692" lon="23.591197"><ele>2200.2</ele><time>2026-03-08T08:58:56.000Z</time></trkpt>
<trkpt lat="42.10169" lon="23.591197"><ele>2200.3</ele><time>2026-03-08T08:58:57.000Z</time></trkpt>
<trkpt lat="42.101689" lon="23.591196"><ele>2200.3</ele><time>2026-03-08T08:58:58.000Z</time></trkpt>
<trkpt lat="42.101688" lon="23.591196"><ele>2200.3</ele><time>2026-03-08T08:58:59.000Z</time></trkpt>
<trkpt lat="42.101689" lon="23.591196"><ele>2200.3</ele><time>2026-03-08T08:59:00.000Z</time></trkpt>
<trkpt lat="42.101689" lon="23.591195"><ele>2200.3</ele><time>2026-03-08T08:59:01.000Z</time></trkpt>
<trkpt lat="42.10169" lon="23.591196"><ele>2200.5</ele><time>2026-03-08T08:59:02.000Z</time></trkpt>
<trkpt lat="42.101691" lon="23.591197"><ele>2200.5</ele><time>2026-03-08T08:59:03.000Z</time></trkpt>
<trkpt lat="42.101692" lon="23.591198"><ele>2200.5</ele><time>2026-03-08T08:59:04.000Z</time></trkpt>
<trkpt lat="42.101692" lon="23.591199"><ele>2200.5</ele><time>2026-03-08T08:59:05.000Z</time></trkpt>
<trkpt lat="42.101692" lon="23.5912"><ele>2200.5</ele><time>2026-03-08T08:59:06.000Z</time></trkpt>
<trkpt lat="42.101693" lon="23.5912"><ele>2200.5</ele><time>2026-03-08T08:59:07.000Z</time></trkpt>
<trkpt lat="42.101693" lon="23.5912"><ele>2200.5</ele><time>2026-03-08T08:59:08.000Z</time></trkpt>
<trkpt lat="42.101693" lon="23.5912"><ele>2200.5</ele><time>2026-03-08T08:59:09.000Z</time></trkpt>
<trkpt lat="42.101694" lon="23.5912"><ele>2200.5</ele><time>2026-03-08T08:59:10.000Z</time></trkpt>
<trkpt lat="42.101694" lon="23.5912"><ele>2200.5</ele><time>2026-03-08T08:59:11.000Z</time></trkpt>
<trkpt lat="42.101694" lon="23.5912"><ele>2200.3</ele><time>2026-03-08T08:59:12.000Z</time></trkpt>
<trkpt lat="42.101694" lon="23.5912"><ele>2200.3</ele><time>2026-03-08T08:59:13.000Z</time></trkpt>
<trkpt lat="42.101694" lon="23.591199"><ele>2200.3</ele><time>2026-03-08T08:59:14.000Z</time></trkpt>
<trkpt lat="42.101695" lon="23.591199"><ele>2200.3</ele><time>2026-03-08T08:59:15.000Z</time></trkpt>
<trkpt lat="42.101695" lon="23.591199"><ele>2200.3</ele><time>2026-03-08T08:59:16.000Z</time></trkpt>
<trkpt lat="42.101696" lon="23.591199"><ele>2200.1</ele><time>2026-03-08T08:59:17.000Z</time></trkpt>
<trkpt lat="42.101697" lon="23.591199"><ele>2200.1</ele><time>2026-03-08T08:59:18.000Z</time></trkpt>
<trkpt lat="42.101698" lon="23.5912"><ele>2200.1</ele><time>2026-03-08T08:59:19.000Z</time></trkpt>
<trkpt lat="42.101698" lon="23.591201"><ele>2200.1</ele><time>2026-03-08T08:59:20.000Z</time></trkpt>
<trkpt lat="42.101697" lon="23.591202"><ele>2200.1</ele><time>2026-03-08T08:59:21.000Z</time></trkpt>
<trkpt lat="42.101697" lon="23.591203"><ele>2200</ele><time>2026-03-08T08:59:22.000Z</time></trkpt>
<trkpt lat="42.101696" lon="23.591204"><ele>2200</ele><time>2026-03-08T08:59:23.000Z</time></trkpt>
<trkpt lat="42.101697" lon="23.591205"><ele>2200</ele><time>2026-03-08T08:59:24.000Z</time></trkpt>
<trkpt lat="42.101697" lon="23.591205"><ele>2200</ele><time>2026-03-08T08:59:25.000Z</time></trkpt>
<trkpt lat="42.101697" lon="23.591206"><ele>2200</ele><time>2026-03-08T08:59:26.000Z</time></trkpt>
<trkpt lat="42.101698" lon="23.591207"><ele>2200</ele><time>2026-03-08T08:59:27.000Z</time></trkpt>
<trkpt lat="42.101699" lon="23.591207"><ele>2200</ele><time>2026-03-08T08:59:28.000Z</time></trkpt>
<trkpt lat="42.101699" lon="23.591207"><ele>2200</ele><time>2026-03-08T08:59:29.000Z</time></trkpt>
<trkpt lat="42.1017" lon="23.591206"><ele>2200</ele><time>2026-03-08T08:59:30.000Z</time></trkpt>
<trkpt lat="42.101701" lon="23.591206"><ele>2200</ele><time>2026-03-08T08:59:31.000Z</time></trkpt>
<trkpt lat="42.101701" lon="23.591206"><ele>2200</ele><time>2026-03-08T08:59:32.000Z</time></trkpt>
<trkpt lat="42.101701" lon="23.591205"><ele>2200</ele><time>2026-03-08T08:59:33.000Z</time></trkpt>
<trkpt lat="42.101701" lon="23.591206"><ele>2200</ele><time>2026-03-08T08:59:34.000Z</time></trkpt>
<trkpt lat="42.101701" lon="23.591206"><ele>2200</ele><time>2026-03-08T08:59:35.000Z</time></trkpt>
<trkpt lat="42.101702" lon="23.591206"><ele>2200</ele><time>2026-03-08T08:59:36.000Z</time></trkpt>
<trkpt lat="42.101702" lon="23.591207"><ele>2200</ele><time>2026-03-08T08:59:37.000Z</time></trkpt>
<trkpt lat="42.101701" lon="23.591207"><ele>2200</ele><time>2026-03-08T08:59:38.000Z</time></trkpt>
<trkpt lat="42.101701" lon="23.591206"><ele>2200</ele><time>2026-03-08T08:59:39.000Z</time></trkpt>
<trkpt lat="42.101701" lon="23.591206"><ele>2200</ele><time>2026-03-08T08:59:40.000Z</time></trkpt>
<trkpt lat="42.1017" lon="23.591205"><ele>2200</ele><time>2026-03-08T08:59:41.000Z</time></trkpt>
<trkpt lat="42.101699" lon="23.591205"><ele>2200</ele><time>2026-03-08T08:59:42.000Z</time></trkpt>
<trkpt lat="42.101698" lon="23.591205"><ele>2200</ele><time>2026-03-08T08:59:43.000Z</time></trkpt>
<trkpt lat="42.101697" lon="23.591204"><ele>2200</ele><time>2026-03-08T08:59:44.000Z</time></trkpt>
<trkpt lat="42.101696" lon="23.591204"><ele>2200</ele><time>2026-03-08T08:59:45.000Z</time></trkpt>
<trkpt lat="42.101694" lon="23.591202"><ele>2200</ele><time>2026-03-08T08:59:46.000Z</time></trkpt>
<trkpt lat="42.101693" lon="23.591201"><ele>2200.2</ele><time>2026-03-08T08:59:47.000Z</time></trkpt>
<trkpt lat="42.101693" lon="23.5912"><ele>2200.2</ele><time>2026-03-08T08:59:48.000Z</time></trkpt>
<trkpt lat="42.101692" lon="23.591199"><ele>2200.2</ele><time>2026-03-08T08:59:49.000Z</time></trkpt>
<trkpt lat="42.101692" lon="23.591198"><ele>2200.2</ele><time>2026-03-08T08:59:50.000Z</time></trkpt>
<trkpt lat="42.101691" lon="23.5912"><ele>2200.2</ele><time>2026-03-08T08:59:51.000Z</time></trkpt>
<trkpt lat="42.101691" lon="23.591201"><ele>2200.2</ele><time>2026-03-08T08:59:52.000Z</time></trkpt>
<trkpt lat="42.101691" lon="23.591201"><ele>2200.2</ele><time>2026-03-08T08:59:53.000Z</time></trkpt>
<trkpt lat="42.10169" lon="23.591202"><ele>2200.2</ele><time>2026-03-08T08:59:54.000Z</time></trkpt>
<trkpt lat="42.101691" lon="23.591203"><ele>2200.2</ele><time>2026-03-08T08:59:55.000Z</time></trkpt>
<trkpt lat="42.101692" lon="23.591203"><ele>2200.2</ele><time>2026-03-08T08:59:56.000Z</time></trkpt>
<trkpt lat="42.101693" lon="23.591204"><ele>2200.2</ele><time>2026-03-08T08:59:57.000Z</time></trkpt>
<trkpt lat="42.101694" lon="23.591205"><ele>2200.2</ele><time>2026-03-08T08:59:58.000Z</time></trkpt>
<trkpt lat="42.101697" lon="23.591206"><ele>2200.2</ele><time>2026-03-08T08:59:59.000Z</time></trkpt>
<trkpt lat="42.101698" lon="23.591207"><ele>2200.2</ele><time>2026-03-08T09:00:00.000Z</time></trkpt>
<trkpt lat="42.101699" lon="23.591208"><ele>2200.2</ele><time>2026-03-08T09:00:01.000Z</time></trkpt>
<trkpt lat="42.1017" lon="23.591208"><ele>2200.3</ele><time>2026-03-08T09:00:02.000Z</time></trkpt>
<trkpt lat="42.101701" lon="23.591208"><ele>2200.3</ele><time>2026-03-08T09:00:03.000Z</time></trkpt>
<trkpt lat="42.101702" lon="23.591209"><ele>2200.3</ele><time>2026-03-08T09:00:04.000Z</time></trkpt>
<trkpt lat="42.101702" lon="23.591209"><ele>2200.3</ele><time>2026-03-08T09:00:05.000Z</time></trkpt>
<trkpt lat="42.101702" lon="23.591209"><ele>2200.3</ele><time>2026-03-08T09:00:06.000Z</time></trkpt>
<trkpt lat="42.101702" lon="23.591208"><ele>2200.4</ele><time>2026-03-08T09:00:07.000Z</time></trkpt>
<trkpt lat="42.101701" lon="23.591208"><ele>2200.4</ele><time>2026-03-08T09:00:08.000Z</time></trkpt>
<trkpt lat="42.101701" lon="23.591208"><ele>2200.4</ele><time>2026-03-08T09:00:09.000Z</time></trkpt>
<trkpt lat="42.1017" lon="23.591209"><ele>2200.4</ele><time>2026-03-08T09:00:10.000Z</time></trkpt>
<trkpt lat="42.1017" lon="23.591209"><ele>2200.4</ele><time>2026-03-08T09:00:11.000Z</time></trkpt>
<trkpt lat="42.1017" lon="23.59121"><ele>2200.5</ele><time>2026-03-08T09:00:12.000Z</time></trkpt>
<trkpt lat="42.1017" lon="23.591211"><ele>2200.5</ele><time>2026-03-08T09:00:13.000Z</time></trkpt>
<trkpt lat="42.1017" lon="23.591211"><ele>2200.5</ele><time>2026-03-08T09:00:14.000Z</time></trkpt>
<trkpt lat="42.1017" lon="23.591211"><ele>2200.5</ele><time>2026-03-08T09:00:15.000Z</time></trkpt>
<trkpt lat="42.1017" lon="23.591211"><ele>2200.5</ele><time>2026-03-08T09:00:16.000Z</time></trkpt>
<trkpt lat="42.1017" lon="23.591211"><ele>2200.5</ele><time>2026-03-08T09:00:17.000Z</time></trkpt>
<trkpt lat="42.1017" lon="23.591211"><ele>2200.5</ele><time>2026-03-08T09:00:18.000Z</time></trkpt>
<trkpt lat="42.1017" lon="23.591211"><ele>2200.5</ele><time>2026-03-08T09:00:19.000Z</time></trkpt>
<trkpt lat="42.1017" lon="23.591211"><ele>2200.5</ele><time>2026-03-08T09:00:20.000Z</time></trkpt>
<trkpt lat="42.1017" lon="23.591211"><ele>2200.5</ele><time>2026-03-08T09:00:21.000Z</time></trkpt>
<trkpt lat="42.101698" lon="23.591211"><ele>2200.5</ele><time>2026-03-08T09:00:22.000Z</time></trkpt>
<trkpt lat="42.101695" lon="23.59121"><ele>2200.5</ele><time>2026-03-08T09:00:23.000Z</time></trkpt>
<trkpt lat="42.101693" lon="23.59121"><ele>2200.5</ele><time>2026-03-08T09:00:24.000Z</time></trkpt>
<trkpt lat="42.10169" lon="23.591209"><ele>2200.5</ele><time>2026-03-08T09:00:25.000Z</time></trkpt>
<trkpt lat="42.101688" lon="23.591209"><ele>2200.5</ele><time>2026-03-08T09:00:26.000Z</time></trkpt>
<trkpt lat="42.101687" lon="23.59121"><ele>2200.5</ele><time>2026-03-08T09:00:27.000Z</time></trkpt>
<trkpt lat="42.101686" lon="23.591212"><ele>2200.5</ele><time>2026-03-08T09:00:28.000Z</time></trkpt>
<trkpt lat="42.101685" lon="23.591212"><ele>2200.5</ele><time>2026-03-08T09:00:29.000Z</time></trkpt>
<trkpt lat="42.101685" lon="23.591212"><ele>2200.5</ele><time>2026-03-08T09:00:30.000Z</time></trkpt>
<trkpt lat="42.101686" lon="23.591211"><ele>2200.5</ele><time>2026-03-08T09:00:31.000Z</time></trkpt>
<trkpt lat="42.101686" lon="23.591209"><ele>2200.6</ele><time>2026-03-08T09:00:32.000Z</time></trkpt>
<trkpt lat="42.101687" lon="23.591208"><ele>2200.6</ele><time>2026-03-08T09:00:33.000Z</time></trkpt>
<trkpt lat="42.101688" lon="23.591207"><ele>2200.6</ele><time>2026-03-08T09:00:34.000Z</time></trkpt>
<trkpt lat="42.101688" lon="23.591206"><ele>2200.6</ele><time>2026-03-08T09:00:35.000Z</time></trkpt>
<trkpt lat="42.101689" lon="23.591205"><ele>2200.6</ele><time>2026-03-08T09:00:36.000Z</time></trkpt>
<trkpt lat="42.101689" lon="23.591205"><ele>2200.7</ele><time>2026-03-08T09:00:37.000Z</time></trkpt>
<trkpt lat="42.101688" lon="23.591204"><ele>2200.7</ele><time>2026-03-08T09:00:38.000Z</time></trkpt>
<trkpt lat="42.101689" lon="23.591204"><ele>2200.7</ele><time>2026-03-08T09:00:39.000Z</time></trkpt>
<trkpt lat="42.101689" lon="23.591205"><ele>2200.7</ele><time>2026-03-08T09:00:40.000Z</time></trkpt>
<trkpt lat="42.101688" lon="23.591206"><ele>2200.7</ele><time>2026-03-08T09:00:41.000Z</time></trkpt>
<trkpt lat="42.101688" lon="23.591206"><ele>2200.8</ele><time>2026-03-08T09:00:42.000Z</time></trkpt>
<trkpt lat="42.101688" lon="23.591206"><ele>2200.8</ele><time>2026-03-08T09:00:43.000Z</time></trkpt>
<trkpt lat="42.101688" lon="23.591206"><ele>2200.8</ele><time>2026-03-08T09:00:44.000Z</time></trkpt>
<trkpt lat="42.101688" lon="23.591206"><ele>2200.8</ele><time>2026-03-08T09:00:45.000Z</time></trkpt>
<trkpt lat="42.101688" lon="23.591206"><ele>2200.8</ele><time>2026-03-08T09:00:46.000Z</time></trkpt>
<trkpt lat="42.101689" lon="23.591206"><ele>2200.8</ele><time>2026-03-08T09:00:47.000Z</time></trkpt>
<trkpt lat="42.101689" lon="23.591207"><ele>2200.8</ele><time>2026-03-08T09:00:48.000Z</time></trkpt>
<trkpt lat="42.101689" lon="23.591208"><ele>2200.8</ele><time>2026-03-08T09:00:49.000Z</time></trkpt>
<trkpt lat="42.101686" lon="23.591208"><ele>2200.8</ele><time>2026-03-08T09:00:50.000Z</time></trkpt>
<trkpt lat="42.101683" lon="23.591206"><ele>2200.8</ele><time>2026-03-08T09:00:51.000Z</time></trkpt>
<trkpt lat="42.101679" lon="23.591203"><ele>2200.8</ele><time>2026-03-08T09:00:52.000Z</time></trkpt>
<trkpt lat="42.101675" lon="23.591198"><ele>2200.8</ele><time>2026-03-08T09:00:53.000Z</time></trkpt>
<trkpt lat="42.101672" lon="23.591193"><ele>2200.8</ele><time>2026-03-08T09:00:54.000Z</time></trkpt>
<trkpt lat="42.10167" lon="23.591188"><ele>2200.8</ele><time>2026-03-08T09:00:55.000Z</time></trkpt>
<trkpt lat="42.101669" lon="23.591185"><ele>2200.8</ele><time>2026-03-08T09:00:56.000Z</time></trkpt>
<trkpt lat="42.101669" lon="23.591184"><ele>2200.8</ele><time>2026-03-08T09:00:57.000Z</time></trkpt>
<trkpt lat="42.101668" lon="23.591184"><ele>2200.8</ele><time>2026-03-08T09:00:58.000Z</time></trkpt>
<trkpt lat="42.101668" lon="23.591185"><ele>2200.8</ele><time>2026-03-08T09:00:59.000Z</time></trkpt>
<trkpt lat="42.101668" lon="23.591186"><ele>2200.8</ele><time>2026-03-08T09:01:00.000Z</time></trkpt>
<trkpt lat="42.101668" lon="23.591187"><ele>2200.8</ele><time>2026-03-08T09:01:01.000Z</time></trkpt>
<trkpt lat="42.101668" lon="23.591188"><ele>2200.6</ele><time>2026-03-08T09:01:02.000Z</time></trkpt>
<trkpt lat="42.101668" lon="23.591188"><ele>2200.6</ele><time>2026-03-08T09:01:03.000Z</time></trkpt>
<trkpt lat="42.101668" lon="23.591188"><ele>2200.6</ele><time>2026-03-08T09:01:04.000Z</time></trkpt>
<trkpt lat="42.101669" lon="23.591189"><ele>2200.6</ele><time>2026-03-08T09:01:05.000Z</time></trkpt>
<trkpt lat="42.10167" lon="23.591189"><ele>2200.6</ele><time>2026-03-08T09:01:06.000Z</time></trkpt>
<trkpt lat="42.101672" lon="23.591189"><ele>2200.3</ele><time>2026-03-08T09:01:07.000Z</time></trkpt>
<trkpt lat="42.101674" lon="23.591189"><ele>2200.3</ele><time>2026-03-08T09:01:08.000Z</time></trkpt>
<trkpt lat="42.101676" lon="23.591189"><ele>2200.3</ele><time>2026-03-08T09:01:09.000Z</time></trkpt>
<trkpt lat="42.101677" lon="23.591188"><ele>2200.3</ele><time>2026-03-08T09:01:10.000Z</time></trkpt>
<trkpt lat="42.101677" lon="23.591188"><ele>2200.3</ele><time>2026-03-08T09:01:11.000Z</time></trkpt>
<trkpt lat="42.101678" lon="23.591188"><ele>2200.1</ele><time>2026-03-08T09:01:12.000Z</time></trkpt>
<trkpt lat="42.101678" lon="23.591188"><ele>2200.1</ele><time>2026-03-08T09:01:13.000Z</time></trkpt>
<trkpt lat="42.101678" lon="23.591188"><ele>2200.1</ele><time>2026-03-08T09:01:14.000Z</time></trkpt>
<trkpt lat="42.101678" lon="23.591188"><ele>2200.1</ele><time>2026-03-08T09:01:15.000Z</time></trkpt>
<trkpt lat="42.101678" lon="23.591188"><ele>2200.1</ele><time>2026-03-08T09:01:16.000Z</time></trkpt>
<trkpt lat="42.101678" lon="23.591188"><ele>2199.9</ele><time>2026-03-08T09:01:17.000Z</time></trkpt>
<trkpt lat="42.101678" lon="23.591188"><ele>2199.9</ele><time>2026-03-08T09:01:18.000Z</time></trkpt>
<trkpt lat="42.101678" lon="23.591188"><ele>2199.9</ele><time>2026-03-08T09:01:19.000Z</time></trkpt>
<trkpt lat="42.101678" lon="23.591188"><ele>2199.9</ele><time>2026-03-08T09:01:20.000Z</time></trkpt>
<trkpt lat="42.101678" lon="23.591188"><ele>2199.9</ele><time>2026-03-08T09:01:21.000Z</time></trkpt>
<trkpt lat="42.101678" lon="23.591188"><ele>2200</ele><time>2026-03-08T09:01:22.000Z</time></trkpt>
<trkpt lat="42.101678" lon="23.591188"><ele>2200</ele><time>2026-03-08T09:01:23.000Z</time></trkpt>
<trkpt lat="42.101678" lon="23.591188"><ele>2200</ele><time>2026-03-08T09:01:24.000Z</time></trkpt>
<trkpt lat="42.101677" lon="23.591187"><ele>2200</ele><time>2026-03-08T09:01:25.000Z</time></trkpt>
<trkpt lat="42.101677" lon="23.591187"><ele>2200</ele><time>2026-03-08T09:01:26.000Z</time></trkpt>
<trkpt lat="42.101676" lon="23.591184"><ele>2200.1</ele><time>2026-03-08T09:01:27.000Z</time></trkpt>
<trkpt lat="42.101673" lon="23.591179"><ele>2200.1</ele><time>2026-03-08T09:01:28.000Z</time></trkpt>
<trkpt lat="42.101668" lon="23.591171"><ele>2200.1</ele><time>2026-03-08T09:01:29.000Z</time></trkpt>
<trkpt lat="42.101663" lon="23.591162"><ele>2200.1</ele><time>2026-03-08T09:01:30.000Z</time></trkpt>
<trkpt lat="42.101656" lon="23.59115"><ele>2200.1</ele><time>2026-03-08T09:01:31.000Z</time></trkpt>
<trkpt lat="42.10165" lon="23.591139"><ele>2200.3</ele><time>2026-03-08T09:01:32.000Z</time></trkpt>
<trkpt lat="42.101644" lon="23.591127"><ele>2200.3</ele><time>2026-03-08T09:01:33.000Z</time></trkpt>
<trkpt lat="42.101637" lon="23.591116"><ele>2200.3</ele><time>2026-03-08T09:01:34.000Z</time></trkpt>
<trkpt lat="42.101631" lon="23.591106"><ele>2200.3</ele><time>2026-03-08T09:01:35.000Z</time></trkpt>
<trkpt lat="42.101623" lon="23.591095"><ele>2200.3</ele><time>2026-03-08T09:01:36.000Z</time></trkpt>
<trkpt lat="42.101615" lon="23.591084"><ele>2200.3</ele><time>2026-03-08T09:01:37.000Z</time></trkpt>
<trkpt lat="42.101607" lon="23.591074"><ele>2200.3</ele><time>2026-03-08T09:01:38.000Z</time></trkpt>
<trkpt lat="42.1016" lon="23.591064"><ele>2200.3</ele><time>2026-03-08T09:01:39.000Z</time></trkpt>
<trkpt lat="42.101594" lon="23.591053"><ele>2200.3</ele><time>2026-03-08T09:01:40.000Z</time></trkpt>
<trkpt lat="42.101588" lon="23.591044"><ele>2200.3</ele><time>2026-03-08T09:01:41.000Z</time></trkpt>
<trkpt lat="42.101582" lon="23.591036"><ele>2200.2</ele><time>2026-03-08T09:01:42.000Z</time></trkpt>
<trkpt lat="42.101576" lon="23.591027"><ele>2200.2</ele><time>2026-03-08T09:01:43.000Z</time></trkpt>
<trkpt lat="42.10157" lon="23.591018"><ele>2200.2</ele><time>2026-03-08T09:01:44.000Z</time></trkpt>
<trkpt lat="42.101565" lon="23.59101"><ele>2200.2</ele><time>2026-03-08T09:01:45.000Z</time></trkpt>
<trkpt lat="42.101559" lon="23.591002"><ele>2200.2</ele><time>2026-03-08T09:01:46.000Z</time></trkpt>
<trkpt lat="42.101554" lon="23.590994"><ele>2199.7</ele><time>2026-03-08T09:01:47.000Z</time></trkpt>
<trkpt lat="42.101549" lon="23.590988"><ele>2199.7</ele><time>2026-03-08T09:01:48.000Z</time></trkpt>
<trkpt lat="42.101544" lon="23.590983"><ele>2199.7</ele><time>2026-03-08T09:01:49.000Z</time></trkpt>
<trkpt lat="42.101539" lon="23.59098"><ele>2199.7</ele><time>2026-03-08T09:01:50.000Z</time></trkpt>
<trkpt lat="42.101534" lon="23.590977"><ele>2199.7</ele><time>2026-03-08T09:01:51.000Z</time></trkpt>
<trkpt lat="42.10153" lon="23.590974"><ele>2199.5</ele><time>2026-03-08T09:01:52.000Z</time></trkpt>
<trkpt lat="42.101527" lon="23.590971"><ele>2199.5</ele><time>2026-03-08T09:01:53.000Z</time></trkpt>
<trkpt lat="42.101525" lon="23.590968"><ele>2199.5</ele><time>2026-03-08T09:01:54.000Z</time></trkpt>
<trkpt lat="42.101522" lon="23.590964"><ele>2199.5</ele><time>2026-03-08T09:01:55.000Z</time></trkpt>
<trkpt lat="42.101519" lon="23.590961"><ele>2199.5</ele><time>2026-03-08T09:01:56.000Z</time></trkpt>
<trkpt lat="42.101517" lon="23.590956"><ele>2199.7</ele><time>2026-03-08T09:01:57.000Z</time></trkpt>
<trkpt lat="42.101513" lon="23.590951"><ele>2199.7</ele><time>2026-03-08T09:01:58.000Z</time></trkpt>
<trkpt lat="42.10151" lon="23.590945"><ele>2199.7</ele><time>2026-03-08T09:01:59.000Z</time></trkpt>
<trkpt lat="42.101507" lon="23.590938"><ele>2199.7</ele><time>2026-03-08T09:02:00.000Z</time></trkpt>
<trkpt lat="42.101503" lon="23.590932"><ele>2199.7</ele><time>2026-03-08T09:02:01.000Z</time></trkpt>
<trkpt lat="42.1015" lon="23.590925"><ele>2200.4</ele><time>2026-03-08T09:02:02.000Z</time></trkpt>
<trkpt lat="42.101496" lon="23.590919"><ele>2200.4</ele><time>2026-03-08T09:02:03.000Z</time></trkpt>
<trkpt lat="42.101492" lon="23.590914"><ele>2200.4</ele><time>2026-03-08T09:02:04.000Z</time></trkpt>
<trkpt lat="42.101487" lon="23.590909"><ele>2200.4</ele><time>2026-03-08T09:02:05.000Z</time></trkpt>
<trkpt lat="42.101482" lon="23.590903"><ele>2200.4</ele><time>2026-03-08T09:02:06.000Z</time></trkpt>
<trkpt lat="42.101478" lon="23.590897"><ele>2201.5</ele><time>2026-03-08T09:02:07.000Z</time></trkpt>
<trkpt lat="42.101473" lon="23.590892"><ele>2201.5</ele><time>2026-03-08T09:02:08.000Z</time></trkpt>
<trkpt lat="42.101468" lon="23.590886"><ele>2201.5</ele><time>2026-03-08T09:02:09.000Z</time></trkpt>
<trkpt lat="42.101463" lon="23.590879"><ele>2201.5</ele><time>2026-03-08T09:02:10.000Z</time></trkpt>
<trkpt lat="42.101458" lon="23.590873"><ele>2201.5</ele><time>2026-03-08T09:02:11.000Z</time></trkpt>
<trkpt lat="42.101454" lon="23.590867"><ele>2202</ele><time>2026-03-08T09:02:12.000Z</time></trkpt>
<trkpt lat="42.101449" lon="23.590861"><ele>2202</ele><time>2026-03-08T09:02:13.000Z</time></trkpt>
<trkpt lat="42.101445" lon="23.590854"><ele>2202</ele><time>2026-03-08T09:02:14.000Z</time></trkpt>
<trkpt lat="42.101441" lon="23.590849"><ele>2202</ele><time>2026-03-08T09:02:15.000Z</time></trkpt>
<trkpt lat="42.101437" lon="23.590843"><ele>2202</ele><time>2026-03-08T09:02:16.000Z</time></trkpt>
<trkpt lat="42.101432" lon="23.590836"><ele>2203.1</ele><time>2026-03-08T09:02:17.000Z</time></trkpt>
<trkpt lat="42.101428" lon="23.59083"><ele>2203.1</ele><time>2026-03-08T09:02:18.000Z</time></trkpt>
<trkpt lat="42.101423" lon="23.590823"><ele>2203.1</ele><time>2026-03-08T09:02:19.000Z</time></trkpt>
<trkpt lat="42.101418" lon="23.590816"><ele>2203.1</ele><time>2026-03-08T09:02:20.000Z</time></trkpt>
<trkpt lat="42.101414" lon="23.59081"><ele>2203.1</ele><time>2026-03-08T09:02:21.000Z</time></trkpt>
<trkpt lat="42.10141" lon="23.590805"><ele>2204</ele><time>2026-03-08T09:02:22.000Z</time></trkpt>
<trkpt lat="42.101407" lon="23.5908"><ele>2204</ele><time>2026-03-08T09:02:23.000Z</time></trkpt>
<trkpt lat="42.101405" lon="23.590796"><ele>2204</ele><time>2026-03-08T09:02:24.000Z</time></trkpt>
<trkpt lat="42.101404" lon="23.590794"><ele>2204</ele><time>2026-03-08T09:02:25.000Z</time></trkpt>
<trkpt lat="42.101404" lon="23.590792"><ele>2204</ele><time>2026-03-08T09:02:26.000Z</time></trkpt>
<trkpt lat="42.101404" lon="23.590791"><ele>2204.3</ele><time>2026-03-08T09:02:27.000Z</time></trkpt>
<trkpt lat="42.101405" lon="23.590791"><ele>2204.3</ele><time>2026-03-08T09:02:28.000Z</time></trkpt>
<trkpt lat="42.101405" lon="23.590791"><ele>2204.3</ele><time>2026-03-08T09:02:29.000Z</time></trkpt>
<trkpt lat="42.101406" lon="23.590792"><ele>2204.3</ele><time>2026-03-08T09:02:30.000Z</time></trkpt>
<trkpt lat="42.101406" lon="23.590792"><ele>2204.3</ele><time>2026-03-08T09:02:31.000Z</time></trkpt>
<trkpt lat="42.101406" lon="23.590792"><ele>2204.9</ele><time>2026-03-08T09:02:32.000Z</time></trkpt>
<trkpt lat="42.101406" lon="23.590792"><ele>2204.9</ele><time>2026-03-08T09:02:33.000Z</time></trkpt>
<trkpt lat="42.101406" lon="23.590792"><ele>2204.9</ele><time>2026-03-08T09:02:34.000Z</time></trkpt>
<trkpt lat="42.101406" lon="23.590792"><ele>2204.9</ele><time>2026-03-08T09:02:35.000Z</time></trkpt>
<trkpt lat="42.101406" lon="23.590792"><ele>2204.9</ele><time>2026-03-08T09:02:36.000Z</time></trkpt>
<trkpt lat="42.101406" lon="23.590792"><ele>2205.3</ele><time>2026-03-08T09:02:37.000Z</time></trkpt>
<trkpt lat="42.101406" lon="23.590792"><ele>2205.3</ele><time>2026-03-08T09:02:38.000Z</time></trkpt>
<trkpt lat="42.101406" lon="23.590792"><ele>2205.3</ele><time>2026-03-08T09:02:39.000Z</time></trkpt>
<trkpt lat="42.101406" lon="23.590792"><ele>2205.3</ele><time>2026-03-08T09:02:40.000Z</time></trkpt>
<trkpt lat="42.101406" lon="23.590792"><ele>2205.3</ele><time>2026-03-08T09:02:41.000Z</time></trkpt>
<trkpt lat="42.101406" lon="23.590792"><ele>2205.5</ele><time>2026-03-08T09:02:42.000Z</time></trkpt>
<trkpt lat="42.101406" lon="23.590792"><ele>2205.5</ele><time>2026-03-08T09:02:43.000Z</time></trkpt>
<trkpt lat="42.101406" lon="23.590792"><ele>2205.5</ele><time>2026-03-08T09:02:44.000Z</time></trkpt>
<trkpt lat="42.101406" lon="23.590792"><ele>2205.5</ele><time>2026-03-08T09:02:45.000Z</time></trkpt>
<trkpt lat="42.101406" lon="23.590792"><ele>2205.5</ele><time>2026-03-08T09:02:46.000Z</time></trkpt>
<trkpt lat="42.101406" lon="23.590792"><ele>2205.5</ele><time>2026-03-08T09:02:47.000Z</time></trkpt>
<trkpt lat="42.101406" lon="23.590792"><ele>2205.5</ele><time>2026-03-08T09:02:48.000Z</time></trkpt>
<trkpt lat="42.101406" lon="23.590792"><ele>2205.5</ele><time>2026-03-08T09:02:49.000Z</time></trkpt>
<trkpt lat="42.101405" lon="23.590791"><ele>2205.5</ele><time>2026-03-08T09:02:50.000Z</time></trkpt>
<trkpt lat="42.101404" lon="23.59079"><ele>2205.5</ele><time>2026-03-08T09:02:51.000Z</time></trkpt>
<trkpt lat="42.101401" lon="23.590788"><ele>2205.4</ele><time>2026-03-08T09:02:52.000Z</time></trkpt>
<trkpt lat="42.101397" lon="23.590785"><ele>2205.4</ele><time>2026-03-08T09:02:53.000Z</time></trkpt>
<trkpt lat="42.101393" lon="23.590781"><ele>2205.4</ele><time>2026-03-08T09:02:54.000Z</time></trkpt>
<trkpt lat="42.10139" lon="23.590777"><ele>2205.4</ele><time>2026-03-08T09:02:55.000Z</time></trkpt>
<trkpt lat="42.101388" lon="23.590773"><ele>2205.4</ele><time>2026-03-08T09:02:56.000Z</time></trkpt>
<trkpt lat="42.101387" lon="23.59077"><ele>2205.4</ele><time>2026-03-08T09:02:57.000Z</time></trkpt>
<trkpt lat="42.101386" lon="23.590768"><ele>2205.4</ele><time>2026-03-08T09:02:58.000Z</time></trkpt>
<trkpt lat="42.101385" lon="23.590767"><ele>2205.4</ele><time>2026-03-08T09:02:59.000Z</time></trkpt>
<trkpt lat="42.101384" lon="23.590767"><ele>2205.4</ele><time>2026-03-08T09:03:00.000Z</time></trkpt>
<trkpt lat="42.101383" lon="23.590767"><ele>2205.4</ele><time>2026-03-08T09:03:01.000Z</time></trkpt>
<trkpt lat="42.101382" lon="23.590767"><ele>2205.5</ele><time>2026-03-08T09:03:02.000Z</time></trkpt>
<trkpt lat="42.101381" lon="23.590766"><ele>2205.5</ele><time>2026-03-08T09:03:03.000Z</time></trkpt>
<trkpt lat="42.101381" lon="23.590766"><ele>2205.5</ele><time>2026-03-08T09:03:04.000Z</time></trkpt>
<trkpt lat="42.101381" lon="23.590766"><ele>2205.5</ele><time>2026-03-08T09:03:05.000Z</time></trkpt>
<trkpt lat="42.10138" lon="23.590765"><ele>2205.5</ele><time>2026-03-08T09:03:06.000Z</time></trkpt>
<trkpt lat="42.101378" lon="23.590763"><ele>2205.9</ele><time>2026-03-08T09:03:07.000Z</time></trkpt>
<trkpt lat="42.101376" lon="23.59076"><ele>2205.9</ele><time>2026-03-08T09:03:08.000Z</time></trkpt>
<trkpt lat="42.101373" lon="23.590756"><ele>2205.9</ele><time>2026-03-08T09:03:09.000Z</time></trkpt>
<trkpt lat="42.101368" lon="23.59075"><ele>2205.9</ele><time>2026-03-08T09:03:10.000Z</time></trkpt>
<trkpt lat="42.101364" lon="23.590744"><ele>2205.9</ele><time>2026-03-08T09:03:11.000Z</time></trkpt>
<trkpt lat="42.10136" lon="23.590737"><ele>2206</ele><time>2026-03-08T09:03:12.000Z</time></trkpt>
<trkpt lat="42.101355" lon="23.59073"><ele>2206</ele><time>2026-03-08T09:03:13.000Z</time></trkpt>
<trkpt lat="42.101351" lon="23.590722"><ele>2206</ele><time>2026-03-08T09:03:14.000Z</time></trkpt>
<trkpt lat="42.101347" lon="23.590714"><ele>2206</ele><time>2026-03-08T09:03:15.000Z</time></trkpt>
<trkpt lat="42.101344" lon="23.590707"><ele>2206</ele><time>2026-03-08T09:03:16.000Z</time></trkpt>
<trkpt lat="42.10134" lon="23.590701"><ele>2206.1</ele><time>2026-03-08T09:03:17.000Z</time></trkpt>
<trkpt lat="42.101337" lon="23.590695"><ele>2206.1</ele><time>2026-03-08T09:03:18.000Z</time></trkpt>
<trkpt lat="42.101334" lon="23.59069"><ele>2206.1</ele><time>2026-03-08T09:03:19.000Z</time></trkpt>
<trkpt lat="42.10133" lon="23.590684"><ele>2206.1</ele><time>2026-03-08T09:03:20.000Z</time></trkpt>
<trkpt lat="42.101327" lon="23.590678"><ele>2206.1</ele><time>2026-03-08T09:03:21.000Z</time></trkpt>
<trkpt lat="42.101324" lon="23.590672"><ele>2206.3</ele><time>2026-03-08T09:03:22.000Z</time></trkpt>
<trkpt lat="42.101321" lon="23.590665"><ele>2206.3</ele><time>2026-03-08T09:03:23.000Z</time></trkpt>
<trkpt lat="42.101317" lon="23.590658"><ele>2206.3</ele><time>2026-03-08T09:03:24.000Z</time></trkpt>
<trkpt lat="42.101314" lon="23.590651"><ele>2206.3</ele><time>2026-03-08T09:03:25.000Z</time></trkpt>
<trkpt lat="42.10131" lon="23.590643"><ele>2206.3</ele><time>2026-03-08T09:03:26.000Z</time></trkpt>
<trkpt lat="42.101306" lon="23.590637"><ele>2206.5</ele><time>2026-03-08T09:03:27.000Z</time></trkpt>
<trkpt lat="42.101302" lon="23.590629"><ele>2206.5</ele><time>2026-03-08T09:03:28.000Z</time></trkpt>
<trkpt lat="42.101298" lon="23.590621"><ele>2206.5</ele><time>2026-03-08T09:03:29.000Z</time></trkpt>
<trkpt lat="42.101295" lon="23.590615"><ele>2206.5</ele><time>2026-03-08T09:03:30.000Z</time></trkpt>
<trkpt lat="42.101292" lon="23.590609"><ele>2206.5</ele><time>2026-03-08T09:03:31.000Z</time></trkpt>
<trkpt lat="42.101289" lon="23.590602"><ele>2207.2</ele><time>2026-03-08T09:03:32.000Z</time></trkpt>
<trkpt lat="42.101286" lon="23.590597"><ele>2207.2</ele><time>2026-03-08T09:03:33.000Z</time></trkpt>
<trkpt lat="42.101283" lon="23.590592"><ele>2207.2</ele><time>2026-03-08T09:03:34.000Z</time></trkpt>
<trkpt lat="42.101279" lon="23.590586"><ele>2207.2</ele><time>2026-03-08T09:03:35.000Z</time></trkpt>
<trkpt lat="42.101275" lon="23.590579"><ele>2207.2</ele><time>2026-03-08T09:03:36.000Z</time></trkpt>
<trkpt lat="42.101271" lon="23.590573"><ele>2208</ele><time>2026-03-08T09:03:37.000Z</time></trkpt>
<trkpt lat="42.101267" lon="23.590566"><ele>2208</ele><time>2026-03-08T09:03:38.000Z</time></trkpt>
<trkpt lat="42.101264" lon="23.590559"><ele>2208</ele><time>2026-03-08T09:03:39.000Z</time></trkpt>
<trkpt lat="42.101261" lon="23.590552"><ele>2208</ele><time>2026-03-08T09:03:40.000Z</time></trkpt>
<trkpt lat="42.101258" lon="23.590545"><ele>2208</ele><time>2026-03-08T09:03:41.000Z</time></trkpt>
<trkpt lat="42.101256" lon="23.590538"><ele>2208.4</ele><time>2026-03-08T09:03:42.000Z</time></trkpt>
<trkpt lat="42.101253" lon="23.590531"><ele>2208.4</ele><time>2026-03-08T09:03:43.000Z</time></trkpt>
<trkpt lat="42.101252" lon="23.590524"><ele>2208.4</ele><time>2026-03-08T09:03:44.000Z</time></trkpt>
<trkpt lat="42.101249" lon="23.590518"><ele>2208.4</ele><time>2026-03-08T09:03:45.000Z</time></trkpt>
<trkpt lat="42.101246" lon="23.590512"><ele>2208.4</ele><time>2026-03-08T09:03:46.000Z</time></trkpt>
<trkpt lat="42.101244" lon="23.590506"><ele>2209.1</ele><time>2026-03-08T09:03:47.000Z</time></trkpt>
<trkpt lat="42.101241" lon="23.5905"><ele>2209.1</ele><time>2026-03-08T09:03:48.000Z</time></trkpt>
<trkpt lat="42.101237" lon="23.590495"><ele>2209.1</ele><time>2026-03-08T09:03:49.000Z</time></trkpt>
<trkpt lat="42.101235" lon="23.59049"><ele>2209.1</ele><time>2026-03-08T09:03:50.000Z</time></trkpt>
<trkpt lat="42.101232" lon="23.590484"><ele>2209.1</ele><time>2026-03-08T09:03:51.000Z</time></trkpt>
<trkpt lat="42.101229" lon="23.590478"><ele>2209.4</ele><time>2026-03-08T09:03:52.000Z</time></trkpt>
<trkpt lat="42.101226" lon="23.590472"><ele>2209.4</ele><time>2026-03-08T09:03:53.000Z</time></trkpt>
<trkpt lat="42.101223" lon="23.590464"><ele>2209.4</ele><time>2026-03-08T09:03:54.000Z</time></trkpt>
<trkpt lat="42.101219" lon="23.590457"><ele>2209.4</ele><time>2026-03-08T09:03:55.000Z</time></trkpt>
<trkpt lat="42.101215" lon="23.59045"><ele>2209.4</ele><time>2026-03-08T09:03:56.000Z</time></trkpt>
<trkpt lat="42.101212" lon="23.590443"><ele>2209.6</ele><time>2026-03-08T09:03:57.000Z</time></trkpt>
<trkpt lat="42.101209" lon="23.590437"><ele>2209.6</ele><time>2026-03-08T09:03:58.000Z</time></trkpt>
<trkpt lat="42.101207" lon="23.590432"><ele>2209.6</ele><time>2026-03-08T09:03:59.000Z</time></trkpt>
<trkpt lat="42.101203" lon="23.590428"><ele>2209.6</ele><time>2026-03-08T09:04:00.000Z</time></trkpt>
<trkpt lat="42.1012" lon="23.590423"><ele>2209.6</ele><time>2026-03-08T09:04:01.000Z</time></trkpt>
<trkpt lat="42.101197" lon="23.590418"><ele>2209.9</ele><time>2026-03-08T09:04:02.000Z</time></trkpt>
<trkpt lat="42.101192" lon="23.590413"><ele>2209.9</ele><time>2026-03-08T09:04:03.000Z</time></trkpt>
<trkpt lat="42.101188" lon="23.590407"><ele>2209.9</ele><time>2026-03-08T09:04:04.000Z</time></trkpt>
<trkpt lat="42.101184" lon="23.590401"><ele>2209.9</ele><time>2026-03-08T09:04:05.000Z</time></trkpt>
<trkpt lat="42.10118" lon="23.590395"><ele>2209.9</ele><time>2026-03-08T09:04:06.000Z</time></trkpt>
<trkpt lat="42.101177" lon="23.590389"><ele>2210.5</ele><time>2026-03-08T09:04:07.000Z</time></trkpt>
<trkpt lat="42.101173" lon="23.590383"><ele>2210.5</ele><time>2026-03-08T09:04:08.000Z</time></trkpt>
<trkpt lat="42.101171" lon="23.590377"><ele>2210.5</ele><time>2026-03-08T09:04:09.000Z</time></trkpt>
<trkpt lat="42.101168" lon="23.59037"><ele>2210.5</ele><time>2026-03-08T09:04:10.000Z</time></trkpt>
<trkpt lat="42.101165" lon="23.590363"><ele>2210.5</ele><time>2026-03-08T09:04:11.000Z</time></trkpt>
<trkpt lat="42.101163" lon="23.590357"><ele>2210.8</ele><time>2026-03-08T09:04:12.000Z</time></trkpt>
<trkpt lat="42.101161" lon="23.59035"><ele>2210.8</ele><time>2026-03-08T09:04:13.000Z</time></trkpt>
<trkpt lat="42.101158" lon="23.590344"><ele>2210.8</ele><time>2026-03-08T09:04:14.000Z</time></trkpt>
<trkpt lat="42.101155" lon="23.590337"><ele>2210.8</ele><time>2026-03-08T09:04:15.000Z</time></trkpt>
<trkpt lat="42.101153" lon="23.590331"><ele>2210.8</ele><time>2026-03-08T09:04:16.000Z</time></trkpt>
<trkpt lat="42.10115" lon="23.590325"><ele>2211.6</ele><time>2026-03-08T09:04:17.000Z</time></trkpt>
<trkpt lat="42.101146" lon="23.590317"><ele>2211.6</ele><time>2026-03-08T09:04:18.000Z</time></trkpt>
<trkpt lat="42.101143" lon="23.59031"><ele>2211.6</ele><time>2026-03-08T09:04:19.000Z</time></trkpt>
<trkpt lat="42.10114" lon="23.590304"><ele>2211.6</ele><time>2026-03-08T09:04:20.000Z</time></trkpt>
<trkpt lat="42.101137" lon="23.590298"><ele>2211.6</ele><time>2026-03-08T09:04:21.000Z</time></trkpt>
<trkpt lat="42.101134" lon="23.590292"><ele>2212.4</ele><time>2026-03-08T09:04:22.000Z</time></trkpt>
<trkpt lat="42.101131" lon="23.590286"><ele>2212.4</ele><time>2026-03-08T09:04:23.000Z</time></trkpt>
<trkpt lat="42.101128" lon="23.59028"><ele>2212.4</ele><time>2026-03-08T09:04:24.000Z</time></trkpt>
<trkpt lat="42.101125" lon="23.590273"><ele>2212.4</ele><time>2026-03-08T09:04:25.000Z</time></trkpt>
<trkpt lat="42.101122" lon="23.590265"><ele>2212.4</ele><time>2026-03-08T09:04:26.000Z</time></trkpt>
<trkpt lat="42.101119" lon="23.590257"><ele>2212.8</ele><time>2026-03-08T09:04:27.000Z</time></trkpt>
<trkpt lat="42.101116" lon="23.59025"><ele>2212.8</ele><time>2026-03-08T09:04:28.000Z</time></trkpt>
<trkpt lat="42.101113" lon="23.590243"><ele>2212.8</ele><time>2026-03-08T09:04:29.000Z</time></trkpt>
<trkpt lat="42.10111" lon="23.590235"><ele>2212.8</ele><time>2026-03-08T09:04:30.000Z</time></trkpt>
<trkpt lat="42.101109" lon="23.590228"><ele>2212.8</ele><time>2026-03-08T09:04:31.000Z</time></trkpt>
<trkpt lat="42.101107" lon="23.59022"><ele>2213.6</ele><time>2026-03-08T09:04:32.000Z</time></trkpt>
<trkpt lat="42.101105" lon="23.590213"><ele>2213.6</ele><time>2026-03-08T09:04:33.000Z</time></trkpt>
<trkpt lat="42.101104" lon="23.590204"><ele>2213.6</ele><time>2026-03-08T09:04:34.000Z</time></trkpt>
<trkpt lat="42.101103" lon="23.590195"><ele>2213.6</ele><time>2026-03-08T09:04:35.000Z</time></trkpt>
<trkpt lat="42.101101" lon="23.590187"><ele>2213.6</ele><time>2026-03-08T09:04:36.000Z</time></trkpt>
<trkpt lat="42.1011" lon="23.590179"><ele>2214.2</ele><time>2026-03-08T09:04:37.000Z</time></trkpt>
<trkpt lat="42.101098" lon="23.59017"><ele>2214.2</ele><time>2026-03-08T09:04:38.000Z</time></trkpt>
<trkpt lat="42.101095" lon="23.590162"><ele>2214.2</ele><time>2026-03-08T09:04:39.000Z</time></trkpt>
<trkpt lat="42.101091" lon="23.590154"><ele>2214.2</ele><time>2026-03-08T09:04:40.000Z</time></trkpt>
<trkpt lat="42.101088" lon="23.590144"><ele>2214.2</ele><time>2026-03-08T09:04:41.000Z</time></trkpt>
<trkpt lat="42.101084" lon="23.590135"><ele>2214.4</ele><time>2026-03-08T09:04:42.000Z</time></trkpt>
<trkpt lat="42.101081" lon="23.590126"><ele>2214.4</ele><time>2026-03-08T09:04:43.000Z</time></trkpt>
<trkpt lat="42.101078" lon="23.590116"><ele>2214.4</ele><time>2026-03-08T09:04:44.000Z</time></trkpt>
<trkpt lat="42.101074" lon="23.590107"><ele>2214.4</ele><time>2026-03-08T09:04:45.000Z</time></trkpt>
<trkpt lat="42.101071" lon="23.590098"><ele>2214.4</ele><time>2026-03-08T09:04:46.000Z</time></trkpt>
<trkpt lat="42.101068" lon="23.590088"><ele>2214.9</ele><time>2026-03-08T09:04:47.000Z</time></trkpt>
<trkpt lat="42.101065" lon="23.590079"><ele>2214.9</ele><time>2026-03-08T09:04:48.000Z</time></trkpt>
<trkpt lat="42.101062" lon="23.590071"><ele>2214.9</ele><time>2026-03-08T09:04:49.000Z</time></trkpt>
<trkpt lat="42.10106" lon="23.590063"><ele>2214.9</ele><time>2026-03-08T09:04:50.000Z</time></trkpt>
<trkpt lat="42.101056" lon="23.590055"><ele>2214.9</ele><time>2026-03-08T09:04:51.000Z</time></trkpt>
<trkpt lat="42.101053" lon="23.590048"><ele>2215.5</ele><time>2026-03-08T09:04:52.000Z</time></trkpt>
<trkpt lat="42.101049" lon="23.590039"><ele>2215.5</ele><time>2026-03-08T09:04:53.000Z</time></trkpt>
<trkpt lat="42.101046" lon="23.590031"><ele>2215.5</ele><time>2026-03-08T09:04:54.000Z</time></trkpt>
<trkpt lat="42.101043" lon="23.590022"><ele>2215.5</ele><time>2026-03-08T09:04:55.000Z</time></trkpt>
<trkpt lat="42.10104" lon="23.590013"><ele>2215.5</ele><time>2026-03-08T09:04:56.000Z</time></trkpt>
<trkpt lat="42.101036" lon="23.590004"><ele>2215.8</ele><time>2026-03-08T09:04:57.000Z</time></trkpt>
<trkpt lat="42.101032" lon="23.589994"><ele>2215.8</ele><time>2026-03-08T09:04:58.000Z</time></trkpt>
<trkpt lat="42.101028" lon="23.589984"><ele>2215.8</ele><time>2026-03-08T09:04:59.000Z</time></trkpt>
<trkpt lat="42.101024" lon="23.589974"><ele>2215.8</ele><time>2026-03-08T09:05:00.000Z</time></trkpt>
<trkpt lat="42.101021" lon="23.589963"><ele>2215.8</ele><time>2026-03-08T09:05:01.000Z</time></trkpt>
<trkpt lat="42.101017" lon="23.589952"><ele>2216.2</ele><time>2026-03-08T09:05:02.000Z</time></trkpt>
<trkpt lat="42.101015" lon="23.589943"><ele>2216.2</ele><time>2026-03-08T09:05:03.000Z</time></trkpt>
<trkpt lat="42.101012" lon="23.589932"><ele>2216.2</ele><time>2026-03-08T09:05:04.000Z</time></trkpt>
<trkpt lat="42.101009" lon="23.589921"><ele>2216.2</ele><time>2026-03-08T09:05:05.000Z</time></trkpt>
<trkpt lat="42.101006" lon="23.589911"><ele>2216.2</ele><time>2026-03-08T09:05:06.000Z</time></trkpt>
<trkpt lat="42.101003" lon="23.589901"><ele>2216.6</ele><time>2026-03-08T09:05:07.000Z</time></trkpt>
<trkpt lat="42.101001" lon="23.589889"><ele>2216.6</ele><time>2026-03-08T09:05:08.000Z</time></trkpt>
<trkpt lat="42.101" lon="23.589878"><ele>2216.6</ele><time>2026-03-08T09:05:09.000Z</time></trkpt>
<trkpt lat="42.100998" lon="23.589867"><ele>2216.6</ele><time>2026-03-08T09:05:10.000Z</time></trkpt>
<trkpt lat="42.100996" lon="23.589856"><ele>2216.6</ele><time>2026-03-08T09:05:11.000Z</time></trkpt>
<trkpt lat="42.100994" lon="23.589844"><ele>2216.7</ele><time>2026-03-08T09:05:12.000Z</time></trkpt>
<trkpt lat="42.100991" lon="23.589833"><ele>2216.7</ele><time>2026-03-08T09:05:13.000Z</time></trkpt>
<trkpt lat="42.100987" lon="23.589823"><ele>2216.7</ele><time>2026-03-08T09:05:14.000Z</time></trkpt>
<trkpt lat="42.100983" lon="23.589813"><ele>2216.7</ele><time>2026-03-08T09:05:15.000Z</time></trkpt>
<trkpt lat="42.10098" lon="23.589804"><ele>2216.7</ele><time>2026-03-08T09:05:16.000Z</time></trkpt>
<trkpt lat="42.100976" lon="23.589796"><ele>2217</ele><time>2026-03-08T09:05:17.000Z</time></trkpt>
<trkpt lat="42.100972" lon="23.589787"><ele>2217</ele><time>2026-03-08T09:05:18.000Z</time></trkpt>
<trkpt lat="42.100967" lon="23.589778"><ele>2217</ele><time>2026-03-08T09:05:19.000Z</time></trkpt>
<trkpt lat="42.100963" lon="23.589771"><ele>2217</ele><time>2026-03-08T09:05:20.000Z</time></trkpt>
<trkpt lat="42.100958" lon="23.589763"><ele>2217</ele><time>2026-03-08T09:05:21.000Z</time></trkpt>
<trkpt lat="42.100953" lon="23.589757"><ele>2217.4</ele><time>2026-03-08T09:05:22.000Z</time></trkpt>
<trkpt lat="42.100948" lon="23.589751"><ele>2217.4</ele><time>2026-03-08T09:05:23.000Z</time></trkpt>
<trkpt lat="42.100944" lon="23.589745"><ele>2217.4</ele><time>2026-03-08T09:05:24.000Z</time></trkpt>
<trkpt lat="42.10094" lon="23.589738"><ele>2217.4</ele><time>2026-03-08T09:05:25.000Z</time></trkpt>
<trkpt lat="42.100935" lon="23.589731"><ele>2217.4</ele><time>2026-03-08T09:05:26.000Z</time></trkpt>
<trkpt lat="42.100931" lon="23.589724"><ele>2217.6</ele><time>2026-03-08T09:05:27.000Z</time></trkpt>
<trkpt lat="42.100925" lon="23.589716"><ele>2217.6</ele><time>2026-03-08T09:05:28.000Z</time></trkpt>
<trkpt lat="42.10092" lon="23.589709"><ele>2217.6</ele><time>2026-03-08T09:05:29.000Z</time></trkpt>
<trkpt lat="42.100915" lon="23.589703"><ele>2217.6</ele><time>2026-03-08T09:05:30.000Z</time></trkpt>
<trkpt lat="42.100909" lon="23.589698"><ele>2217.6</ele><time>2026-03-08T09:05:31.000Z</time></trkpt>
<trkpt lat="42.100904" lon="23.589693"><ele>2218</ele><time>2026-03-08T09:05:32.000Z</time></trkpt>
<trkpt lat="42.100899" lon="23.589687"><ele>2218</ele><time>2026-03-08T09:05:33.000Z</time></trkpt>
<trkpt lat="42.100895" lon="23.589681"><ele>2218</ele><time>2026-03-08T09:05:34.000Z</time></trkpt>
<trkpt lat="42.100891" lon="23.589673"><ele>2218</ele><time>2026-03-08T09:05:35.000Z</time></trkpt>
<trkpt lat="42.100887" lon="23.589665"><ele>2218</ele><time>2026-03-08T09:05:36.000Z</time></trkpt>
<trkpt lat="42.100883" lon="23.589657"><ele>2218.4</ele><time>2026-03-08T09:05:37.000Z</time></trkpt>
<trkpt lat="42.100879" lon="23.589649"><ele>2218.4</ele><time>2026-03-08T09:05:38.000Z</time></trkpt>
<trkpt lat="42.100875" lon="23.589641"><ele>2218.4</ele><time>2026-03-08T09:05:39.000Z</time></trkpt>
<trkpt lat="42.10087" lon="23.589633"><ele>2218.4</ele><time>2026-03-08T09:05:40.000Z</time></trkpt>
<trkpt lat="42.100865" lon="23.589624"><ele>2218.4</ele><time>2026-03-08T09:05:41.000Z</time></trkpt>
<trkpt lat="42.10086" lon="23.589615"><ele>2218.6</ele><time>2026-03-08T09:05:42.000Z</time></trkpt>
<trkpt lat="42.100854" lon="23.589607"><ele>2218.6</ele><time>2026-03-08T09:05:43.000Z</time></trkpt>
<trkpt lat="42.100849" lon="23.589598"><ele>2218.6</ele><time>2026-03-08T09:05:44.000Z</time></trkpt>
<trkpt lat="42.100843" lon="23.589589"><ele>2218.6</ele><time>2026-03-08T09:05:45.000Z</time></trkpt>
<trkpt lat="42.100837" lon="23.589581"><ele>2218.6</ele><time>2026-03-08T09:05:46.000Z</time></trkpt>
<trkpt lat="42.100832" lon="23.589572"><ele>2219</ele><time>2026-03-08T09:05:47.000Z</time></trkpt>
<trkpt lat="42.100826" lon="23.589562"><ele>2219</ele><time>2026-03-08T09:05:48.000Z</time></trkpt>
<trkpt lat="42.100821" lon="23.589552"><ele>2219</ele><time>2026-03-08T09:05:49.000Z</time></trkpt>
<trkpt lat="42.100815" lon="23.589542"><ele>2219</ele><time>2026-03-08T09:05:50.000Z</time></trkpt>
<trkpt lat="42.10081" lon="23.589532"><ele>2219</ele><time>2026-03-08T09:05:51.000Z</time></trkpt>
<trkpt lat="42.100804" lon="23.589522"><ele>2219.4</ele><time>2026-03-08T09:05:52.000Z</time></trkpt>
<trkpt lat="42.100799" lon="23.589513"><ele>2219.4</ele><time>2026-03-08T09:05:53.000Z</time></trkpt>
<trkpt lat="42.100794" lon="23.589504"><ele>2219.4</ele><time>2026-03-08T09:05:54.000Z</time></trkpt>
<trkpt lat="42.100789" lon="23.589494"><ele>2219.4</ele><time>2026-03-08T09:05:55.000Z</time></trkpt>
<trkpt lat="42.100784" lon="23.589484"><ele>2219.4</ele><time>2026-03-08T09:05:56.000Z</time></trkpt>
<trkpt lat="42.100779" lon="23.589474"><ele>2219.6</ele><time>2026-03-08T09:05:57.000Z</time></trkpt>
<trkpt lat="42.100773" lon="23.589462"><ele>2219.6</ele><time>2026-03-08T09:05:58.000Z</time></trkpt>
<trkpt lat="42.100767" lon="23.58945"><ele>2219.6</ele><time>2026-03-08T09:05:59.000Z</time></trkpt>
<trkpt lat="42.10076" lon="23.58944"><ele>2219.6</ele><time>2026-03-08T09:06:00.000Z</time></trkpt>
<trkpt lat="42.100752" lon="23.58943"><ele>2219.6</ele><time>2026-03-08T09:06:01.000Z</time></trkpt>
<trkpt lat="42.100743" lon="23.589422"><ele>2219.8</ele><time>2026-03-08T09:06:02.000Z</time></trkpt>
<trkpt lat="42.100735" lon="23.589414"><ele>2219.8</ele><time>2026-03-08T09:06:03.000Z</time></trkpt>
<trkpt lat="42.100727" lon="23.589407"><ele>2219.8</ele><time>2026-03-08T09:06:04.000Z</time></trkpt>
<trkpt lat="42.100718" lon="23.5894"><ele>2219.8</ele><time>2026-03-08T09:06:05.000Z</time></trkpt>
<trkpt lat="42.100711" lon="23.589394"><ele>2219.8</ele><time>2026-03-08T09:06:06.000Z</time></trkpt>
<trkpt lat="42.100703" lon="23.589387"><ele>2220</ele><time>2026-03-08T09:06:07.000Z</time></trkpt>
<trkpt lat="42.100695" lon="23.589382"><ele>2220</ele><time>2026-03-08T09:06:08.000Z</time></trkpt>
<trkpt lat="42.100688" lon="23.589375"><ele>2220</ele><time>2026-03-08T09:06:09.000Z</time></trkpt>
<trkpt lat="42.100681" lon="23.589369"><ele>2220</ele><time>2026-03-08T09:06:10.000Z</time></trkpt>
<trkpt lat="42.100674" lon="23.589362"><ele>2220</ele><time>2026-03-08T09:06:11.000Z</time></trkpt>
<trkpt lat="42.100668" lon="23.589354"><ele>2220.1</ele><time>2026-03-08T09:06:12.000Z</time></trkpt>
<trkpt lat="42.100661" lon="23.589345"><ele>2220.1</ele><time>2026-03-08T09:06:13.000Z</time></trkpt>
<trkpt lat="42.100654" lon="23.589337"><ele>2220.1</ele><time>2026-03-08T09:06:14.000Z</time></trkpt>
<trkpt lat="42.100647" lon="23.589329"><ele>2220.1</ele><time>2026-03-08T09:06:15.000Z</time></trkpt>
<trkpt lat="42.100639" lon="23.589321"><ele>2220.1</ele><time>2026-03-08T09:06:16.000Z</time></trkpt>
<trkpt lat="42.100631" lon="23.589313"><ele>2220.3</ele><time>2026-03-08T09:06:17.000Z</time></trkpt>
<trkpt lat="42.100622" lon="23.589305"><ele>2220.3</ele><time>2026-03-08T09:06:18.000Z</time></trkpt>
<trkpt lat="42.100613" lon="23.589297"><ele>2220.3</ele><time>2026-03-08T09:06:19.000Z</time></trkpt>
<trkpt lat="42.100604" lon="23.58929"><ele>2220.3</ele><time>2026-03-08T09:06:20.000Z</time></trkpt>
<trkpt lat="42.100594" lon="23.589283"><ele>2220.3</ele><time>2026-03-08T09:06:21.000Z</time></trkpt>
<trkpt lat="42.100585" lon="23.589277"><ele>2220.4</ele><time>2026-03-08T09:06:22.000Z</time></trkpt>
<trkpt lat="42.100578" lon="23.58927"><ele>2220.4</ele><time>2026-03-08T09:06:23.000Z</time></trkpt>
<trkpt lat="42.100572" lon="23.589263"><ele>2220.4</ele><time>2026-03-08T09:06:24.000Z</time></trkpt>
<trkpt lat="42.100565" lon="23.589258"><ele>2220.4</ele><time>2026-03-08T09:06:25.000Z</time></trkpt>
<trkpt lat="42.10056" lon="23.589252"><ele>2220.4</ele><time>2026-03-08T09:06:26.000Z</time></trkpt>
<trkpt lat="42.100555" lon="23.589246"><ele>2220.4</ele><time>2026-03-08T09:06:27.000Z</time></trkpt>
<trkpt lat="42.100549" lon="23.58924"><ele>2220.4</ele><time>2026-03-08T09:06:28.000Z</time></trkpt>
<trkpt lat="42.100543" lon="23.589233"><ele>2220.4</ele><time>2026-03-08T09:06:29.000Z</time></trkpt>
<trkpt lat="42.100537" lon="23.589225"><ele>2220.4</ele><time>2026-03-08T09:06:30.000Z</time></trkpt>
<trkpt lat="42.100532" lon="23.589217"><ele>2220.4</ele><time>2026-03-08T09:06:31.000Z</time></trkpt>
<trkpt lat="42.100526" lon="23.589209"><ele>2220.3</ele><time>2026-03-08T09:06:32.000Z</time></trkpt>
<trkpt lat="42.100521" lon="23.589202"><ele>2220.3</ele><time>2026-03-08T09:06:33.000Z</time></trkpt>
<trkpt lat="42.100516" lon="23.589196"><ele>2220.3</ele><time>2026-03-08T09:06:34.000Z</time></trkpt>
<trkpt lat="42.10051" lon="23.589191"><ele>2220.3</ele><time>2026-03-08T09:06:35.000Z</time></trkpt>
<trkpt lat="42.100505" lon="23.589185"><ele>2220.3</ele><time>2026-03-08T09:06:36.000Z</time></trkpt>
<trkpt lat="42.1005" lon="23.589179"><ele>2220.3</ele><time>2026-03-08T09:06:37.000Z</time></trkpt>
<trkpt lat="42.100495" lon="23.589174"><ele>2220.3</ele><time>2026-03-08T09:06:38.000Z</time></trkpt>
<trkpt lat="42.100492" lon="23.589169"><ele>2220.3</ele><time>2026-03-08T09:06:39.000Z</time></trkpt>
<trkpt lat="42.10049" lon="23.589166"><ele>2220.3</ele><time>2026-03-08T09:06:40.000Z</time></trkpt>
<trkpt lat="42.100488" lon="23.589165"><ele>2220.3</ele><time>2026-03-08T09:06:41.000Z</time></trkpt>
<trkpt lat="42.100488" lon="23.589165"><ele>2220.3</ele><time>2026-03-08T09:06:42.000Z</time></trkpt>
<trkpt lat="42.100487" lon="23.589166"><ele>2220.3</ele><time>2026-03-08T09:06:43.000Z</time></trkpt>
<trkpt lat="42.100487" lon="23.589167"><ele>2220.3</ele><time>2026-03-08T09:06:44.000Z</time></trkpt>
<trkpt lat="42.100487" lon="23.589167"><ele>2220.3</ele><time>2026-03-08T09:06:45.000Z</time></trkpt>
<trkpt lat="42.100487" lon="23.589168"><ele>2220.3</ele><time>2026-03-08T09:06:46.000Z</time></trkpt>
<trkpt lat="42.100486" lon="23.589167"><ele>2220.6</ele><time>2026-03-08T09:06:47.000Z</time></trkpt>
<trkpt lat="42.100483" lon="23.589166"><ele>2220.6</ele><time>2026-03-08T09:06:48.000Z</time></trkpt>
<trkpt lat="42.100479" lon="23.589164"><ele>2220.6</ele><time>2026-03-08T09:06:49.000Z</time></trkpt>
<trkpt lat="42.100474" lon="23.589162"><ele>2220.6</ele><time>2026-03-08T09:06:50.000Z</time></trkpt>
<trkpt lat="42.100468" lon="23.589158"><ele>2220.6</ele><time>2026-03-08T09:06:51.000Z</time></trkpt>
<trkpt lat="42.100463" lon="23.589153"><ele>2220.9</ele><time>2026-03-08T09:06:52.000Z</time></trkpt>
<trkpt lat="42.100459" lon="23.589148"><ele>2220.9</ele><time>2026-03-08T09:06:53.000Z</time></trkpt>
<trkpt lat="42.100457" lon="23.589143"><ele>2220.9</ele><time>2026-03-08T09:06:54.000Z</time></trkpt>
<trkpt lat="42.100454" lon="23.589137"><ele>2220.9</ele><time>2026-03-08T09:06:55.000Z</time></trkpt>
<trkpt lat="42.100451" lon="23.589132"><ele>2220.9</ele><time>2026-03-08T09:06:56.000Z</time></trkpt>
<trkpt lat="42.100447" lon="23.589127"><ele>2221</ele><time>2026-03-08T09:06:57.000Z</time></trkpt>
<trkpt lat="42.100442" lon="23.589122"><ele>2221</ele><time>2026-03-08T09:06:58.000Z</time></trkpt>
<trkpt lat="42.100437" lon="23.589116"><ele>2221</ele><time>2026-03-08T09:06:59.000Z</time></trkpt>
<trkpt lat="42.100432" lon="23.589109"><ele>2221</ele><time>2026-03-08T09:07:00.000Z</time></trkpt>
<trkpt lat="42.100427" lon="23.589103"><ele>2221</ele><time>2026-03-08T09:07:01.000Z</time></trkpt>
<trkpt lat="42.100424" lon="23.589098"><ele>2221.1</ele><time>2026-03-08T09:07:02.000Z</time></trkpt>
<trkpt lat="42.100421" lon="23.589092"><ele>2221.1</ele><time>2026-03-08T09:07:03.000Z</time></trkpt>
<trkpt lat="42.100417" lon="23.589087"><ele>2221.1</ele><time>2026-03-08T09:07:04.000Z</time></trkpt>
<trkpt lat="42.100413" lon="23.589083"><ele>2221.1</ele><time>2026-03-08T09:07:05.000Z</time></trkpt>
<trkpt lat="42.100408" lon="23.589078"><ele>2221.1</ele><time>2026-03-08T09:07:06.000Z</time></trkpt>
<trkpt lat="42.100403" lon="23.589072"><ele>2221.5</ele><time>2026-03-08T09:07:07.000Z</time></trkpt>
<trkpt lat="42.100398" lon="23.589067"><ele>2221.5</ele><time>2026-03-08T09:07:08.000Z</time></trkpt>
<trkpt lat="42.100393" lon="23.589062"><ele>2221.5</ele><time>2026-03-08T09:07:09.000Z</time></trkpt>
<trkpt lat="42.100388" lon="23.589057"><ele>2221.5</ele><time>2026-03-08T09:07:10.000Z</time></trkpt>
<trkpt lat="42.100383" lon="23.589051"><ele>2221.5</ele><time>2026-03-08T09:07:11.000Z</time></trkpt>
<trkpt lat="42.100379" lon="23.589045"><ele>2221.8</ele><time>2026-03-08T09:07:12.000Z</time></trkpt>
<trkpt lat="42.100374" lon="23.589039"><ele>2221.8</ele><time>2026-03-08T09:07:13.000Z</time></trkpt>
<trkpt lat="42.100369" lon="23.589033"><ele>2221.8</ele><time>2026-03-08T09:07:14.000Z</time></trkpt>
<trkpt lat="42.100365" lon="23.589028"><ele>2221.8</ele><time>2026-03-08T09:07:15.000Z</time></trkpt>
<trkpt lat="42.10036" lon="23.589022"><ele>2221.8</ele><time>2026-03-08T09:07:16.000Z</time></trkpt>
<trkpt lat="42.100356" lon="23.589016"><ele>2222.3</ele><time>2026-03-08T09:07:17.000Z</time></trkpt>
<trkpt lat="42.100352" lon="23.58901"><ele>2222.3</ele><time>2026-03-08T09:07:18.000Z</time></trkpt>
<trkpt lat="42.100349" lon="23.589005"><ele>2222.3</ele><time>2026-03-08T09:07:19.000Z</time></trkpt>
<trkpt lat="42.100345" lon="23.588998"><ele>2222.3</ele><time>2026-03-08T09:07:20.000Z</time></trkpt>
<trkpt lat="42.100342" lon="23.588992"><ele>2222.3</ele><time>2026-03-08T09:07:21.000Z</time></trkpt>
<trkpt lat="42.10034" lon="23.588987"><ele>2222.8</ele><time>2026-03-08T09:07:22.000Z</time></trkpt>
<trkpt lat="42.100337" lon="23.588981"><ele>2222.8</ele><time>2026-03-08T09:07:23.000Z</time></trkpt>
<trkpt lat="42.100334" lon="23.588976"><ele>2222.8</ele><time>2026-03-08T09:07:24.000Z</time></trkpt>
<trkpt lat="42.100331" lon="23.588971"><ele>2222.8</ele><time>2026-03-08T09:07:25.000Z</time></trkpt>
<trkpt lat="42.100328" lon="23.588965"><ele>2222.8</ele><time>2026-03-08T09:07:26.000Z</time></trkpt>
<trkpt lat="42.100325" lon="23.58896"><ele>2223</ele><time>2026-03-08T09:07:27.000Z</time></trkpt>
<trkpt lat="42.100322" lon="23.588955"><ele>2223</ele><time>2026-03-08T09:07:28.000Z</time></trkpt>
<trkpt lat="42.100319" lon="23.58895"><ele>2223</ele><time>2026-03-08T09:07:29.000Z</time></trkpt>
<trkpt lat="42.100315" lon="23.588946"><ele>2223</ele><time>2026-03-08T09:07:30.000Z</time></trkpt>
<trkpt lat="42.100312" lon="23.588942"><ele>2223</ele><time>2026-03-08T09:07:31.000Z</time></trkpt>
<trkpt lat="42.100308" lon="23.588938"><ele>2223.6</ele><time>2026-03-08T09:07:32.000Z</time></trkpt>
<trkpt lat="42.100305" lon="23.588934"><ele>2223.6</ele><time>2026-03-08T09:07:33.000Z</time></trkpt>
<trkpt lat="42.100302" lon="23.58893"><ele>2223.6</ele><time>2026-03-08T09:07:34.000Z</time></trkpt>
<trkpt lat="42.100299" lon="23.588925"><ele>2223.6</ele><time>2026-03-08T09:07:35.000Z</time></trkpt>
<trkpt lat="42.100296" lon="23.588921"><ele>2223.6</ele><time>2026-03-08T09:07:36.000Z</time></trkpt>
<trkpt lat="42.100294" lon="23.588915"><ele>2224.4</ele><time>2026-03-08T09:07:37.000Z</time></trkpt>
<trkpt lat="42.100291" lon="23.58891"><ele>2224.4</ele><time>2026-03-08T09:07:38.000Z</time></trkpt>
<trkpt lat="42.100288" lon="23.588904"><ele>2224.4</ele><time>2026-03-08T09:07:39.000Z</time></trkpt>
<trkpt lat="42.100285" lon="23.588898"><ele>2224.4</ele><time>2026-03-08T09:07:40.000Z</time></trkpt>
<trkpt lat="42.100281" lon="23.588892"><ele>2224.4</ele><time>2026-03-08T09:07:41.000Z</time></trkpt>
<trkpt lat="42.100277" lon="23.588886"><ele>2224.8</ele><time>2026-03-08T09:07:42.000Z</time></trkpt>
<trkpt lat="42.100273" lon="23.588881"><ele>2224.8</ele><time>2026-03-08T09:07:43.000Z</time></trkpt>
<trkpt lat="42.100269" lon="23.588875"><ele>2224.8</ele><time>2026-03-08T09:07:44.000Z</time></trkpt>
<trkpt lat="42.100265" lon="23.58887"><ele>2224.8</ele><time>2026-03-08T09:07:45.000Z</time></trkpt>
<trkpt lat="42.100262" lon="23.588865"><ele>2224.8</ele><time>2026-03-08T09:07:46.000Z</time></trkpt>
<trkpt lat="42.100258" lon="23.58886"><ele>2225.6</ele><time>2026-03-08T09:07:47.000Z</time></trkpt>
<trkpt lat="42.100255" lon="23.588857"><ele>2225.6</ele><time>2026-03-08T09:07:48.000Z</time></trkpt>
<trkpt lat="42.100252" lon="23.588853"><ele>2225.6</ele><time>2026-03-08T09:07:49.000Z</time></trkpt>
<trkpt lat="42.100248" lon="23.588849"><ele>2225.6</ele><time>2026-03-08T09:07:50.000Z</time></trkpt>
<trkpt lat="42.100244" lon="23.588845"><ele>2225.6</ele><time>2026-03-08T09:07:51.000Z</time></trkpt>
<trkpt lat="42.100241" lon="23.588841"><ele>2226.2</ele><time>2026-03-08T09:07:52.000Z</time></trkpt>
<trkpt lat="42.100236" lon="23.588837"><ele>2226.2</ele><time>2026-03-08T09:07:53.000Z</time></trkpt>
<trkpt lat="42.100231" lon="23.588833"><ele>2226.2</ele><time>2026-03-08T09:07:54.000Z</time></trkpt>
<trkpt lat="42.100226" lon="23.588829"><ele>2226.2</ele><time>2026-03-08T09:07:55.000Z</time></trkpt>
<trkpt lat="42.100222" lon="23.588825"><ele>2226.2</ele><time>2026-03-08T09:07:56.000Z</time></trkpt>
<trkpt lat="42.100217" lon="23.588821"><ele>2226.5</ele><time>2026-03-08T09:07:57.000Z</time></trkpt>
<trkpt lat="42.100213" lon="23.588816"><ele>2226.5</ele><time>2026-03-08T09:07:58.000Z</time></trkpt>
<trkpt lat="42.10021" lon="23.58881"><ele>2226.5</ele><time>2026-03-08T09:07:59.000Z</time></trkpt>
<trkpt lat="42.100207" lon="23.588804"><ele>2226.5</ele><time>2026-03-08T09:08:00.000Z</time></trkpt>
<trkpt lat="42.100204" lon="23.588799"><ele>2226.5</ele><time>2026-03-08T09:08:01.000Z</time></trkpt>
<trkpt lat="42.100201" lon="23.588794"><ele>2227.2</ele><time>2026-03-08T09:08:02.000Z</time></trkpt>
<trkpt lat="42.100197" lon="23.58879"><ele>2227.2</ele><time>2026-03-08T09:08:03.000Z</time></trkpt>
<trkpt lat="42.100194" lon="23.588786"><ele>2227.2</ele><time>2026-03-08T09:08:04.000Z</time></trkpt>
<trkpt lat="42.100191" lon="23.588781"><ele>2227.2</ele><time>2026-03-08T09:08:05.000Z</time></trkpt>
<trkpt lat="42.100188" lon="23.588775"><ele>2227.2</ele><time>2026-03-08T09:08:06.000Z</time></trkpt>
<trkpt lat="42.100184" lon="23.588769"><ele>2227.9</ele><time>2026-03-08T09:08:07.000Z</time></trkpt>
<trkpt lat="42.100181" lon="23.588763"><ele>2227.9</ele><time>2026-03-08T09:08:08.000Z</time></trkpt>
<trkpt lat="42.100177" lon="23.588757"><ele>2227.9</ele><time>2026-03-08T09:08:09.000Z</time></trkpt>
<trkpt lat="42.100173" lon="23.588751"><ele>2227.9</ele><time>2026-03-08T09:08:10.000Z</time></trkpt>
<trkpt lat="42.100169" lon="23.588746"><ele>2227.9</ele><time>2026-03-08T09:08:11.000Z</time></trkpt>
<trkpt lat="42.100165" lon="23.588741"><ele>2228.3</ele><time>2026-03-08T09:08:12.000Z</time></trkpt>
<trkpt lat="42.100161" lon="23.588735"><ele>2228.3</ele><time>2026-03-08T09:08:13.000Z</time></trkpt>
<trkpt lat="42.100157" lon="23.58873"><ele>2228.3</ele><time>2026-03-08T09:08:14.000Z</time></trkpt>
<trkpt lat="42.100153" lon="23.588724"><ele>2228.3</ele><time>2026-03-08T09:08:15.000Z</time></trkpt>
<trkpt lat="42.100149" lon="23.588718"><ele>2228.3</ele><time>2026-03-08T09:08:16.000Z</time></trkpt>
<trkpt lat="42.100145" lon="23.588713"><ele>2228.9</ele><time>2026-03-08T09:08:17.000Z</time></trkpt>
<trkpt lat="42.100142" lon="23.588708"><ele>2228.9</ele><time>2026-03-08T09:08:18.000Z</time></trkpt>
<trkpt lat="42.100139" lon="23.588703"><ele>2228.9</ele><time>2026-03-08T09:08:19.000Z</time></trkpt>
<trkpt lat="42.100137" lon="23.588697"><ele>2228.9</ele><time>2026-03-08T09:08:20.000Z</time></trkpt>
<trkpt lat="42.100135" lon="23.588693"><ele>2228.9</ele><time>2026-03-08T09:08:21.000Z</time></trkpt>
<trkpt lat="42.100132" lon="23.588688"><ele>2229.6</ele><time>2026-03-08T09:08:22.000Z</time></trkpt>
<trkpt lat="42.10013" lon="23.588683"><ele>2229.6</ele><time>2026-03-08T09:08:23.000Z</time></trkpt>
<trkpt lat="42.100128" lon="23.588678"><ele>2229.6</ele><time>2026-03-08T09:08:24.000Z</time></trkpt>
<trkpt lat="42.100125" lon="23.588674"><ele>2229.6</ele><time>2026-03-08T09:08:25.000Z</time></trkpt>
<trkpt lat="42.100123" lon="23.588668"><ele>2229.6</ele><time>2026-03-08T09:08:26.000Z</time></trkpt>
<trkpt lat="42.100121" lon="23.588663"><ele>2229.9</ele><time>2026-03-08T09:08:27.000Z</time></trkpt>
<trkpt lat="42.100119" lon="23.588658"><ele>2229.9</ele><time>2026-03-08T09:08:28.000Z</time></trkpt>
<trkpt lat="42.100117" lon="23.588653"><ele>2229.9</ele><time>2026-03-08T09:08:29.000Z</time></trkpt>
<trkpt lat="42.100115" lon="23.588648"><ele>2229.9</ele><time>2026-03-08T09:08:30.000Z</time></trkpt>
<trkpt lat="42.100111" lon="23.588643"><ele>2229.9</ele><time>2026-03-08T09:08:31.000Z</time></trkpt>
<trkpt lat="42.100107" lon="23.588638"><ele>2230.5</ele><time>2026-03-08T09:08:32.000Z</time></trkpt>
<trkpt lat="42.100103" lon="23.588634"><ele>2230.5</ele><time>2026-03-08T09:08:33.000Z</time></trkpt>
<trkpt lat="42.100099" lon="23.588629"><ele>2230.5</ele><time>2026-03-08T09:08:34.000Z</time></trkpt>
<trkpt lat="42.100095" lon="23.588624"><ele>2230.5</ele><time>2026-03-08T09:08:35.000Z</time></trkpt>
<trkpt lat="42.100092" lon="23.58862"><ele>2230.5</ele><time>2026-03-08T09:08:36.000Z</time></trkpt>
<trkpt lat="42.100089" lon="23.588616"><ele>2231.2</ele><time>2026-03-08T09:08:37.000Z</time></trkpt>
<trkpt lat="42.100086" lon="23.58861"><ele>2231.2</ele><time>2026-03-08T09:08:38.000Z</time></trkpt>
<trkpt lat="42.100084" lon="23.588606"><ele>2231.2</ele><time>2026-03-08T09:08:39.000Z</time></trkpt>
<trkpt lat="42.100081" lon="23.5886"><ele>2231.2</ele><time>2026-03-08T09:08:40.000Z</time></trkpt>
<trkpt lat="42.100077" lon="23.588594"><ele>2231.2</ele><time>2026-03-08T09:08:41.000Z</time></trkpt>
<trkpt lat="42.100075" lon="23.588588"><ele>2231.4</ele><time>2026-03-08T09:08:42.000Z</time></trkpt>
<trkpt lat="42.100071" lon="23.58858"><ele>2231.4</ele><time>2026-03-08T09:08:43.000Z</time></trkpt>
<trkpt lat="42.100068" lon="23.588573"><ele>2231.4</ele><time>2026-03-08T09:08:44.000Z</time></trkpt>
<trkpt lat="42.100066" lon="23.588567"><ele>2231.4</ele><time>2026-03-08T09:08:45.000Z</time></trkpt>
<trkpt lat="42.100064" lon="23.58856"><ele>2231.4</ele><time>2026-03-08T09:08:46.000Z</time></trkpt>
<trkpt lat="42.100062" lon="23.588553"><ele>2232</ele><time>2026-03-08T09:08:47.000Z</time></trkpt>
<trkpt lat="42.10006" lon="23.588548"><ele>2232</ele><time>2026-03-08T09:08:48.000Z</time></trkpt>
<trkpt lat="42.100057" lon="23.588541"><ele>2232</ele><time>2026-03-08T09:08:49.000Z</time></trkpt>
<trkpt lat="42.100054" lon="23.588535"><ele>2232</ele><time>2026-03-08T09:08:50.000Z</time></trkpt>
<trkpt lat="42.10005" lon="23.588528"><ele>2232</ele><time>2026-03-08T09:08:51.000Z</time></trkpt>
<trkpt lat="42.100045" lon="23.588521"><ele>2232.7</ele><time>2026-03-08T09:08:52.000Z</time></trkpt>
<trkpt lat="42.100041" lon="23.588516"><ele>2232.7</ele><time>2026-03-08T09:08:53.000Z</time></trkpt>
<trkpt lat="42.100037" lon="23.58851"><ele>2232.7</ele><time>2026-03-08T09:08:54.000Z</time></trkpt>
<trkpt lat="42.100033" lon="23.588504"><ele>2232.7</ele><time>2026-03-08T09:08:55.000Z</time></trkpt>
<trkpt lat="42.10003" lon="23.5885"><ele>2232.7</ele><time>2026-03-08T09:08:56.000Z</time></trkpt>
<trkpt lat="42.100025" lon="23.588494"><ele>2233</ele><time>2026-03-08T09:08:57.000Z</time></trkpt>
<trkpt lat="42.100022" lon="23.588487"><ele>2233</ele><time>2026-03-08T09:08:58.000Z</time></trkpt>
<trkpt lat="42.100018" lon="23.588482"><ele>2233</ele><time>2026-03-08T09:08:59.000Z</time></trkpt>
<trkpt lat="42.100015" lon="23.588476"><ele>2233</ele><time>2026-03-08T09:09:00.000Z</time></trkpt>
<trkpt lat="42.100011" lon="23.58847"><ele>2233</ele><time>2026-03-08T09:09:01.000Z</time></trkpt>
<trkpt lat="42.100008" lon="23.588464"><ele>2233.8</ele><time>2026-03-08T09:09:02.000Z</time></trkpt>
<trkpt lat="42.100005" lon="23.588458"><ele>2233.8</ele><time>2026-03-08T09:09:03.000Z</time></trkpt>
<trkpt lat="42.100002" lon="23.588451"><ele>2233.8</ele><time>2026-03-08T09:09:04.000Z</time></trkpt>
<trkpt lat="42.1" lon="23.588445"><ele>2233.8</ele><time>2026-03-08T09:09:05.000Z</time></trkpt>
<trkpt lat="42.099997" lon="23.588438"><ele>2233.8</ele><time>2026-03-08T09:09:06.000Z</time></trkpt>
<trkpt lat="42.099994" lon="23.588432"><ele>2234.5</ele><time>2026-03-08T09:09:07.000Z</time></trkpt>
<trkpt lat="42.099991" lon="23.588427"><ele>2234.5</ele><time>2026-03-08T09:09:08.000Z</time></trkpt>
<trkpt lat="42.099988" lon="23.588421"><ele>2234.5</ele><time>2026-03-08T09:09:09.000Z</time></trkpt>
<trkpt lat="42.099985" lon="23.588415"><ele>2234.5</ele><time>2026-03-08T09:09:10.000Z</time></trkpt>
<trkpt lat="42.099983" lon="23.588408"><ele>2234.5</ele><time>2026-03-08T09:09:11.000Z</time></trkpt>
<trkpt lat="42.09998" lon="23.588402"><ele>2234.9</ele><time>2026-03-08T09:09:12.000Z</time></trkpt>
<trkpt lat="42.099978" lon="23.588395"><ele>2234.9</ele><time>2026-03-08T09:09:13.000Z</time></trkpt>
<trkpt lat="42.099976" lon="23.588389"><ele>2234.9</ele><time>2026-03-08T09:09:14.000Z</time></trkpt>
<trkpt lat="42.099974" lon="23.588384"><ele>2234.9</ele><time>2026-03-08T09:09:15.000Z</time></trkpt>
<trkpt lat="42.099972" lon="23.588379"><ele>2234.9</ele><time>2026-03-08T09:09:16.000Z</time></trkpt>
<trkpt lat="42.099969" lon="23.588374"><ele>2235.7</ele><time>2026-03-08T09:09:17.000Z</time></trkpt>
<trkpt lat="42.099967" lon="23.58837"><ele>2235.7</ele><time>2026-03-08T09:09:18.000Z</time></trkpt>
<trkpt lat="42.099964" lon="23.588364"><ele>2235.7</ele><time>2026-03-08T09:09:19.000Z</time></trkpt>
<trkpt lat="42.099961" lon="23.588359"><ele>2235.7</ele><time>2026-03-08T09:09:20.000Z</time></trkpt>
<trkpt lat="42.099959" lon="23.588353"><ele>2235.7</ele><time>2026-03-08T09:09:21.000Z</time></trkpt>
<trkpt lat="42.099957" lon="23.588347"><ele>2236.5</ele><time>2026-03-08T09:09:22.000Z</time></trkpt>
<trkpt lat="42.099955" lon="23.588342"><ele>2236.5</ele><time>2026-03-08T09:09:23.000Z</time></trkpt>
<trkpt lat="42.099953" lon="23.588336"><ele>2236.5</ele><time>2026-03-08T09:09:24.000Z</time></trkpt>
<trkpt lat="42.099951" lon="23.58833"><ele>2236.5</ele><time>2026-03-08T09:09:25.000Z</time></trkpt>
<trkpt lat="42.099949" lon="23.588323"><ele>2236.5</ele><time>2026-03-08T09:09:26.000Z</time></trkpt>
<trkpt lat="42.099947" lon="23.588318"><ele>2236.9</ele><time>2026-03-08T09:09:27.000Z</time></trkpt>
<trkpt lat="42.099944" lon="23.588312"><ele>2236.9</ele><time>2026-03-08T09:09:28.000Z</time></trkpt>
<trkpt lat="42.099942" lon="23.588307"><ele>2236.9</ele><time>2026-03-08T09:09:29.000Z</time></trkpt>
<trkpt lat="42.09994" lon="23.588301"><ele>2236.9</ele><time>2026-03-08T09:09:30.000Z</time></trkpt>
<trkpt lat="42.099939" lon="23.588295"><ele>2236.9</ele><time>2026-03-08T09:09:31.000Z</time></trkpt>
<trkpt lat="42.099938" lon="23.58829"><ele>2237.5</ele><time>2026-03-08T09:09:32.000Z</time></trkpt>
<trkpt lat="42.099937" lon="23.588284"><ele>2237.5</ele><time>2026-03-08T09:09:33.000Z</time></trkpt>
<trkpt lat="42.099935" lon="23.588278"><ele>2237.5</ele><time>2026-03-08T09:09:34.000Z</time></trkpt>
<trkpt lat="42.099934" lon="23.588272"><ele>2237.5</ele><time>2026-03-08T09:09:35.000Z</time></trkpt>
<trkpt lat="42.099933" lon="23.588266"><ele>2237.5</ele><time>2026-03-08T09:09:36.000Z</time></trkpt>
<trkpt lat="42.09993" lon="23.58826"><ele>2238.3</ele><time>2026-03-08T09:09:37.000Z</time></trkpt>
<trkpt lat="42.099928" lon="23.588254"><ele>2238.3</ele><time>2026-03-08T09:09:38.000Z</time></trkpt>
<trkpt lat="42.099925" lon="23.588248"><ele>2238.3</ele><time>2026-03-08T09:09:39.000Z</time></trkpt>
<trkpt lat="42.099922" lon="23.588242"><ele>2238.3</ele><time>2026-03-08T09:09:40.000Z</time></trkpt>
<trkpt lat="42.099919" lon="23.588235"><ele>2238.3</ele><time>2026-03-08T09:09:41.000Z</time></trkpt>
<trkpt lat="42.099917" lon="23.58823"><ele>2238.7</ele><time>2026-03-08T09:09:42.000Z</time></trkpt>
<trkpt lat="42.099914" lon="23.588225"><ele>2238.7</ele><time>2026-03-08T09:09:43.000Z</time></trkpt>
<trkpt lat="42.099913" lon="23.588221"><ele>2238.7</ele><time>2026-03-08T09:09:44.000Z</time></trkpt>
<trkpt lat="42.099911" lon="23.588216"><ele>2238.7</ele><time>2026-03-08T09:09:45.000Z</time></trkpt>
<trkpt lat="42.09991" lon="23.588212"><ele>2238.7</ele><time>2026-03-08T09:09:46.000Z</time></trkpt>
<trkpt lat="42.099908" lon="23.588207"><ele>2239.6</ele><time>2026-03-08T09:09:47.000Z</time></trkpt>
<trkpt lat="42.099906" lon="23.588201"><ele>2239.6</ele><time>2026-03-08T09:09:48.000Z</time></trkpt>
<trkpt lat="42.099904" lon="23.588196"><ele>2239.6</ele><time>2026-03-08T09:09:49.000Z</time></trkpt>
<trkpt lat="42.099901" lon="23.58819"><ele>2239.6</ele><time>2026-03-08T09:09:50.000Z</time></trkpt>
<trkpt lat="42.099898" lon="23.588184"><ele>2239.6</ele><time>2026-03-08T09:09:51.000Z</time></trkpt>
<trkpt lat="42.099896" lon="23.588178"><ele>2240.3</ele><time>2026-03-08T09:09:52.000Z</time></trkpt>
<trkpt lat="42.099894" lon="23.588173"><ele>2240.3</ele><time>2026-03-08T09:09:53.000Z</time></trkpt>
<trkpt lat="42.099892" lon="23.588167"><ele>2240.3</ele><time>2026-03-08T09:09:54.000Z</time></trkpt>
<trkpt lat="42.099889" lon="23.588161"><ele>2240.3</ele><time>2026-03-08T09:09:55.000Z</time></trkpt>
<trkpt lat="42.099887" lon="23.588155"><ele>2240.3</ele><time>2026-03-08T09:09:56.000Z</time></trkpt>
<trkpt lat="42.099883" lon="23.588149"><ele>2240.6</ele><time>2026-03-08T09:09:57.000Z</time></trkpt>
<trkpt lat="42.09988" lon="23.588143"><ele>2240.6</ele><time>2026-03-08T09:09:58.000Z</time></trkpt>
<trkpt lat="42.099877" lon="23.588137"><ele>2240.6</ele><time>2026-03-08T09:09:59.000Z</time></trkpt>
<trkpt lat="42.099874" lon="23.588132"><ele>2240.6</ele><time>2026-03-08T09:10:00.000Z</time></trkpt>
<trkpt lat="42.099871" lon="23.588126"><ele>2240.6</ele><time>2026-03-08T09:10:01.000Z</time></trkpt>
<trkpt lat="42.099869" lon="23.588122"><ele>2241.4</ele><time>2026-03-08T09:10:02.000Z</time></trkpt>
<trkpt lat="42.099867" lon="23.588117"><ele>2241.4</ele><time>2026-03-08T09:10:03.000Z</time></trkpt>
<trkpt lat="42.099865" lon="23.588113"><ele>2241.4</ele><time>2026-03-08T09:10:04.000Z</time></trkpt>
<trkpt lat="42.099863" lon="23.588108"><ele>2241.4</ele><time>2026-03-08T09:10:05.000Z</time></trkpt>
<trkpt lat="42.099861" lon="23.588103"><ele>2241.4</ele><time>2026-03-08T09:10:06.000Z</time></trkpt>
<trkpt lat="42.099858" lon="23.588098"><ele>2242.2</ele><time>2026-03-08T09:10:07.000Z</time></trkpt>
<trkpt lat="42.099856" lon="23.588093"><ele>2242.2</ele><time>2026-03-08T09:10:08.000Z</time></trkpt>
<trkpt lat="42.099854" lon="23.588089"><ele>2242.2</ele><time>2026-03-08T09:10:09.000Z</time></trkpt>
<trkpt lat="42.099853" lon="23.588084"><ele>2242.2</ele><time>2026-03-08T09:10:10.000Z</time></trkpt>
<trkpt lat="42.099851" lon="23.588078"><ele>2242.2</ele><time>2026-03-08T09:10:11.000Z</time></trkpt>
<trkpt lat="42.09985" lon="23.588072"><ele>2242.6</ele><time>2026-03-08T09:10:12.000Z</time></trkpt>
<trkpt lat="42.099849" lon="23.588066"><ele>2242.6</ele><time>2026-03-08T09:10:13.000Z</time></trkpt>
<trkpt lat="42.099847" lon="23.58806"><ele>2242.6</ele><time>2026-03-08T09:10:14.000Z</time></trkpt>
<trkpt lat="42.099846" lon="23.588054"><ele>2242.6</ele><time>2026-03-08T09:10:15.000Z</time></trkpt>
<trkpt lat="42.099844" lon="23.588048"><ele>2242.6</ele><time>2026-03-08T09:10:16.000Z</time></trkpt>
<trkpt lat="42.099844" lon="23.588041"><ele>2243.3</ele><time>2026-03-08T09:10:17.000Z</time></trkpt>
<trkpt lat="42.099843" lon="23.588035"><ele>2243.3</ele><time>2026-03-08T09:10:18.000Z</time></trkpt>
<trkpt lat="42.099843" lon="23.588027"><ele>2243.3</ele><time>2026-03-08T09:10:19.000Z</time></trkpt>
<trkpt lat="42.099843" lon="23.58802"><ele>2243.3</ele><time>2026-03-08T09:10:20.000Z</time></trkpt>
<trkpt lat="42.099843" lon="23.588012"><ele>2243.3</ele><time>2026-03-08T09:10:21.000Z</time></trkpt>
<trkpt lat="42.099842" lon="23.588005"><ele>2243.8</ele><time>2026-03-08T09:10:22.000Z</time></trkpt>
<trkpt lat="42.099841" lon="23.587998"><ele>2243.8</ele><time>2026-03-08T09:10:23.000Z</time></trkpt>
<trkpt lat="42.09984" lon="23.587991"><ele>2243.8</ele><time>2026-03-08T09:10:24.000Z</time></trkpt>
<trkpt lat="42.099838" lon="23.587985"><ele>2243.8</ele><time>2026-03-08T09:10:25.000Z</time></trkpt>
<trkpt lat="42.099837" lon="23.587978"><ele>2243.8</ele><time>2026-03-08T09:10:26.000Z</time></trkpt>
<trkpt lat="42.099836" lon="23.587972"><ele>2244.1</ele><time>2026-03-08T09:10:27.000Z</time></trkpt>
<trkpt lat="42.099835" lon="23.587966"><ele>2244.1</ele><time>2026-03-08T09:10:28.000Z</time></trkpt>
<trkpt lat="42.099833" lon="23.58796"><ele>2244.1</ele><time>2026-03-08T09:10:29.000Z</time></trkpt>
<trkpt lat="42.099832" lon="23.587955"><ele>2244.1</ele><time>2026-03-08T09:10:30.000Z</time></trkpt>
<trkpt lat="42.099831" lon="23.58795"><ele>2244.1</ele><time>2026-03-08T09:10:31.000Z</time></trkpt>
<trkpt lat="42.09983" lon="23.587944"><ele>2244.8</ele><time>2026-03-08T09:10:32.000Z</time></trkpt>
<trkpt lat="42.099829" lon="23.587939"><ele>2244.8</ele><time>2026-03-08T09:10:33.000Z</time></trkpt>
<trkpt lat="42.099828" lon="23.587936"><ele>2244.8</ele><time>2026-03-08T09:10:34.000Z</time></trkpt>
<trkpt lat="42.099827" lon="23.58793"><ele>2244.8</ele><time>2026-03-08T09:10:35.000Z</time></trkpt>
<trkpt lat="42.099824" lon="23.587926"><ele>2244.8</ele><time>2026-03-08T09:10:36.000Z</time></trkpt>
<trkpt lat="42.099822" lon="23.587922"><ele>2245.7</ele><time>2026-03-08T09:10:37.000Z</time></trkpt>
<trkpt lat="42.099819" lon="23.587918"><ele>2245.7</ele><time>2026-03-08T09:10:38.000Z</time></trkpt>
<trkpt lat="42.099816" lon="23.587913"><ele>2245.7</ele><time>2026-03-08T09:10:39.000Z</time></trkpt>
<trkpt lat="42.099813" lon="23.587908"><ele>2245.7</ele><time>2026-03-08T09:10:40.000Z</time></trkpt>
<trkpt lat="42.09981" lon="23.587902"><ele>2245.7</ele><time>2026-03-08T09:10:41.000Z</time></trkpt>
<trkpt lat="42.099807" lon="23.587897"><ele>2246.1</ele><time>2026-03-08T09:10:42.000Z</time></trkpt>
<trkpt lat="42.099806" lon="23.58789"><ele>2246.1</ele><time>2026-03-08T09:10:43.000Z</time></trkpt>
<trkpt lat="42.099804" lon="23.587883"><ele>2246.1</ele><time>2026-03-08T09:10:44.000Z</time></trkpt>
<trkpt lat="42.099803" lon="23.587877"><ele>2246.1</ele><time>2026-03-08T09:10:45.000Z</time></trkpt>
<trkpt lat="42.099802" lon="23.587871"><ele>2246.1</ele><time>2026-03-08T09:10:46.000Z</time></trkpt>
<trkpt lat="42.0998" lon="23.587865"><ele>2246.7</ele><time>2026-03-08T09:10:47.000Z</time></trkpt>
<trkpt lat="42.099799" lon="23.58786"><ele>2246.7</ele><time>2026-03-08T09:10:48.000Z</time></trkpt>
<trkpt lat="42.099797" lon="23.587856"><ele>2246.7</ele><time>2026-03-08T09:10:49.000Z</time></trkpt>
<trkpt lat="42.099796" lon="23.587851"><ele>2246.7</ele><time>2026-03-08T09:10:50.000Z</time></trkpt>
<trkpt lat="42.099794" lon="23.587847"><ele>2246.7</ele><time>2026-03-08T09:10:51.000Z</time></trkpt>
<trkpt lat="42.099792" lon="23.587842"><ele>2247.4</ele><time>2026-03-08T09:10:52.000Z</time></trkpt>
<trkpt lat="42.09979" lon="23.587837"><ele>2247.4</ele><time>2026-03-08T09:10:53.000Z</time></trkpt>
<trkpt lat="42.099788" lon="23.587831"><ele>2247.4</ele><time>2026-03-08T09:10:54.000Z</time></trkpt>
<trkpt lat="42.099787" lon="23.587825"><ele>2247.4</ele><time>2026-03-08T09:10:55.000Z</time></trkpt>
<trkpt lat="42.099786" lon="23.587819"><ele>2247.4</ele><time>2026-03-08T09:10:56.000Z</time></trkpt>
<trkpt lat="42.099784" lon="23.587813"><ele>2247.8</ele><time>2026-03-08T09:10:57.000Z</time></trkpt>
<trkpt lat="42.099783" lon="23.587807"><ele>2247.8</ele><time>2026-03-08T09:10:58.000Z</time></trkpt>
<trkpt lat="42.099782" lon="23.587802"><ele>2247.8</ele><time>2026-03-08T09:10:59.000Z</time></trkpt>
<trkpt lat="42.09978" lon="23.587796"><ele>2247.8</ele><time>2026-03-08T09:11:00.000Z</time></trkpt>
<trkpt lat="42.099778" lon="23.587791"><ele>2247.8</ele><time>2026-03-08T09:11:01.000Z</time></trkpt>
<trkpt lat="42.099777" lon="23.587785"><ele>2248.7</ele><time>2026-03-08T09:11:02.000Z</time></trkpt>
<trkpt lat="42.099776" lon="23.587778"><ele>2248.7</ele><time>2026-03-08T09:11:03.000Z</time></trkpt>
<trkpt lat="42.099775" lon="23.587771"><ele>2248.7</ele><time>2026-03-08T09:11:04.000Z</time></trkpt>
<trkpt lat="42.099774" lon="23.587766"><ele>2248.7</ele><time>2026-03-08T09:11:05.000Z</time></trkpt>
<trkpt lat="42.099773" lon="23.58776"><ele>2248.7</ele><time>2026-03-08T09:11:06.000Z</time></trkpt>
<trkpt lat="42.099772" lon="23.587755"><ele>2249.7</ele><time>2026-03-08T09:11:07.000Z</time></trkpt>
<trkpt lat="42.099771" lon="23.58775"><ele>2249.7</ele><time>2026-03-08T09:11:08.000Z</time></trkpt>
<trkpt lat="42.09977" lon="23.587746"><ele>2249.7</ele><time>2026-03-08T09:11:09.000Z</time></trkpt>
<trkpt lat="42.099769" lon="23.587741"><ele>2249.7</ele><time>2026-03-08T09:11:10.000Z</time></trkpt>
<trkpt lat="42.099768" lon="23.587736"><ele>2249.7</ele><time>2026-03-08T09:11:11.000Z</time></trkpt>
<trkpt lat="42.099767" lon="23.587732"><ele>2250.1</ele><time>2026-03-08T09:11:12.000Z</time></trkpt>
<trkpt lat="42.099766" lon="23.587727"><ele>2250.1</ele><time>2026-03-08T09:11:13.000Z</time></trkpt>
<trkpt lat="42.099765" lon="23.587722"><ele>2250.1</ele><time>2026-03-08T09:11:14.000Z</time></trkpt>
<trkpt lat="42.099764" lon="23.587718"><ele>2250.1</ele><time>2026-03-08T09:11:15.000Z</time></trkpt>
<trkpt lat="42.099763" lon="23.587713"><ele>2250.1</ele><time>2026-03-08T09:11:16.000Z</time></trkpt>
<trkpt lat="42.099762" lon="23.587707"><ele>2250.9</ele><time>2026-03-08T09:11:17.000Z</time></trkpt>
<trkpt lat="42.09976" lon="23.587702"><ele>2250.9</ele><time>2026-03-08T09:11:18.000Z</time></trkpt>
<trkpt lat="42.099759" lon="23.587697"><ele>2250.9</ele><time>2026-03-08T09:11:19.000Z</time></trkpt>
<trkpt lat="42.099758" lon="23.587692"><ele>2250.9</ele><time>2026-03-08T09:11:20.000Z</time></trkpt>
<trkpt lat="42.099758" lon="23.587687"><ele>2250.9</ele><time>2026-03-08T09:11:21.000Z</time></trkpt>
<trkpt lat="42.099757" lon="23.587683"><ele>2251.7</ele><time>2026-03-08T09:11:22.000Z</time></trkpt>
<trkpt lat="42.099756" lon="23.587679"><ele>2251.7</ele><time>2026-03-08T09:11:23.000Z</time></trkpt>
<trkpt lat="42.099756" lon="23.587675"><ele>2251.7</ele><time>2026-03-08T09:11:24.000Z</time></trkpt>
<trkpt lat="42.099755" lon="23.587672"><ele>2251.7</ele><time>2026-03-08T09:11:25.000Z</time></trkpt>
<trkpt lat="42.099755" lon="23.587669"><ele>2251.7</ele><time>2026-03-08T09:11:26.000Z</time></trkpt>
<trkpt lat="42.099754" lon="23.587666"><ele>2252.2</ele><time>2026-03-08T09:11:27.000Z</time></trkpt>
<trkpt lat="42.099754" lon="23.587662"><ele>2252.2</ele><time>2026-03-08T09:11:28.000Z</time></trkpt>
<trkpt lat="42.099753" lon="23.587658"><ele>2252.2</ele><time>2026-03-08T09:11:29.000Z</time></trkpt>
<trkpt lat="42.09975" lon="23.587654"><ele>2252.2</ele><time>2026-03-08T09:11:30.000Z</time></trkpt>
<trkpt lat="42.099747" lon="23.587648"><ele>2252.2</ele><time>2026-03-08T09:11:31.000Z</time></trkpt>
<trkpt lat="42.099744" lon="23.587642"><ele>2253.1</ele><time>2026-03-08T09:11:32.000Z</time></trkpt>
<trkpt lat="42.099741" lon="23.587636"><ele>2253.1</ele><time>2026-03-08T09:11:33.000Z</time></trkpt>
<trkpt lat="42.099738" lon="23.58763"><ele>2253.1</ele><time>2026-03-08T09:11:34.000Z</time></trkpt>
<trkpt lat="42.099736" lon="23.587625"><ele>2253.1</ele><time>2026-03-08T09:11:35.000Z</time></trkpt>
<trkpt lat="42.099734" lon="23.587619"><ele>2253.1</ele><time>2026-03-08T09:11:36.000Z</time></trkpt>
<trkpt lat="42.099732" lon="23.587612"><ele>2254</ele><time>2026-03-08T09:11:37.000Z</time></trkpt>
<trkpt lat="42.099731" lon="23.587606"><ele>2254</ele><time>2026-03-08T09:11:38.000Z</time></trkpt>
<trkpt lat="42.099729" lon="23.5876"><ele>2254</ele><time>2026-03-08T09:11:39.000Z</time></trkpt>
<trkpt lat="42.099727" lon="23.587594"><ele>2254</ele><time>2026-03-08T09:11:40.000Z</time></trkpt>
<trkpt lat="42.099725" lon="23.587589"><ele>2254</ele><time>2026-03-08T09:11:41.000Z</time></trkpt>
<trkpt lat="42.099724" lon="23.587584"><ele>2254.3</ele><time>2026-03-08T09:11:42.000Z</time></trkpt>
<trkpt lat="42.099721" lon="23.587578"><ele>2254.3</ele><time>2026-03-08T09:11:43.000Z</time></trkpt>
<trkpt lat="42.099719" lon="23.587572"><ele>2254.3</ele><time>2026-03-08T09:11:44.000Z</time></trkpt>
<trkpt lat="42.099717" lon="23.587566"><ele>2254.3</ele><time>2026-03-08T09:11:45.000Z</time></trkpt>
<trkpt lat="42.099714" lon="23.587559"><ele>2254.3</ele><time>2026-03-08T09:11:46.000Z</time></trkpt>
<trkpt lat="42.099712" lon="23.587553"><ele>2255</ele><time>2026-03-08T09:11:47.000Z</time></trkpt>
<trkpt lat="42.09971" lon="23.587547"><ele>2255</ele><time>2026-03-08T09:11:48.000Z</time></trkpt>
<trkpt lat="42.099708" lon="23.58754"><ele>2255</ele><time>2026-03-08T09:11:49.000Z</time></trkpt>
<trkpt lat="42.099706" lon="23.587533"><ele>2255</ele><time>2026-03-08T09:11:50.000Z</time></trkpt>
<trkpt lat="42.099704" lon="23.587527"><ele>2255</ele><time>2026-03-08T09:11:51.000Z</time></trkpt>
<trkpt lat="42.099702" lon="23.58752"><ele>2255.8</ele><time>2026-03-08T09:11:52.000Z</time></trkpt>
<trkpt lat="42.099701" lon="23.587513"><ele>2255.8</ele><time>2026-03-08T09:11:53.000Z</time></trkpt>
<trkpt lat="42.0997" lon="23.587507"><ele>2255.8</ele><time>2026-03-08T09:11:54.000Z</time></trkpt>
<trkpt lat="42.099699" lon="23.5875"><ele>2255.8</ele><time>2026-03-08T09:11:55.000Z</time></trkpt>
<trkpt lat="42.099699" lon="23.587493"><ele>2255.8</ele><time>2026-03-08T09:11:56.000Z</time></trkpt>
<trkpt lat="42.099699" lon="23.587485"><ele>2256.2</ele><time>2026-03-08T09:11:57.000Z</time></trkpt>
<trkpt lat="42.0997" lon="23.587477"><ele>2256.2</ele><time>2026-03-08T09:11:58.000Z</time></trkpt>
<trkpt lat="42.0997" lon="23.587469"><ele>2256.2</ele><time>2026-03-08T09:11:59.000Z</time></trkpt>
<trkpt lat="42.099701" lon="23.587462"><ele>2256.2</ele><time>2026-03-08T09:12:00.000Z</time></trkpt>
<trkpt lat="42.0997" lon="23.587456"><ele>2256.2</ele><time>2026-03-08T09:12:01.000Z</time></trkpt>
<trkpt lat="42.0997" lon="23.58745"><ele>2257</ele><time>2026-03-08T09:12:02.000Z</time></trkpt>
<trkpt lat="42.0997" lon="23.587445"><ele>2257</ele><time>2026-03-08T09:12:03.000Z</time></trkpt>
<trkpt lat="42.0997" lon="23.587439"><ele>2257</ele><time>2026-03-08T09:12:04.000Z</time></trkpt>
<trkpt lat="42.099699" lon="23.587432"><ele>2257</ele><time>2026-03-08T09:12:05.000Z</time></trkpt>
<trkpt lat="42.099699" lon="23.587426"><ele>2257</ele><time>2026-03-08T09:12:06.000Z</time></trkpt>
<trkpt lat="42.099699" lon="23.58742"><ele>2257.7</ele><time>2026-03-08T09:12:07.000Z</time></trkpt>
<trkpt lat="42.099699" lon="23.587417"><ele>2257.7</ele><time>2026-03-08T09:12:08.000Z</time></trkpt>
<trkpt lat="42.099699" lon="23.587416"><ele>2257.7</ele><time>2026-03-08T09:12:09.000Z</time></trkpt>
<trkpt lat="42.0997" lon="23.587416"><ele>2257.7</ele><time>2026-03-08T09:12:10.000Z</time></trkpt>
<trkpt lat="42.0997" lon="23.587417"><ele>2257.7</ele><time>2026-03-08T09:12:11.000Z</time></trkpt>
<trkpt lat="42.0997" lon="23.587418"><ele>2258.1</ele><time>2026-03-08T09:12:12.000Z</time></trkpt>
<trkpt lat="42.099699" lon="23.587418"><ele>2258.1</ele><time>2026-03-08T09:12:13.000Z</time></trkpt>
<trkpt lat="42.099699" lon="23.587419"><ele>2258.1</ele><time>2026-03-08T09:12:14.000Z</time></trkpt>
<trkpt lat="42.099699" lon="23.587418"><ele>2258.1</ele><time>2026-03-08T09:12:15.000Z</time></trkpt>
<trkpt lat="42.099698" lon="23.587417"><ele>2258.1</ele><time>2026-03-08T09:12:16.000Z</time></trkpt>
<trkpt lat="42.099698" lon="23.587416"><ele>2258.7</ele><time>2026-03-08T09:12:17.000Z</time></trkpt>
<trkpt lat="42.099698" lon="23.587415"><ele>2258.7</ele><time>2026-03-08T09:12:18.000Z</time></trkpt>
<trkpt lat="42.099698" lon="23.587414"><ele>2258.7</ele><time>2026-03-08T09:12:19.000Z</time></trkpt>
<trkpt lat="42.099698" lon="23.587414"><ele>2258.7</ele><time>2026-03-08T09:12:20.000Z</time></trkpt>
<trkpt lat="42.099697" lon="23.587415"><ele>2258.7</ele><time>2026-03-08T09:12:21.000Z</time></trkpt>
<trkpt lat="42.099697" lon="23.587415"><ele>2259.3</ele><time>2026-03-08T09:12:22.000Z</time></trkpt>
<trkpt lat="42.099697" lon="23.587416"><ele>2259.3</ele><time>2026-03-08T09:12:23.000Z</time></trkpt>
<trkpt lat="42.099696" lon="23.587416"><ele>2259.3</ele><time>2026-03-08T09:12:24.000Z</time></trkpt>
<trkpt lat="42.099696" lon="23.587416"><ele>2259.3</ele><time>2026-03-08T09:12:25.000Z</time></trkpt>
<trkpt lat="42.099695" lon="23.587415"><ele>2259.3</ele><time>2026-03-08T09:12:26.000Z</time></trkpt>
<trkpt lat="42.099694" lon="23.587415"><ele>2259.5</ele><time>2026-03-08T09:12:27.000Z</time></trkpt>
<trkpt lat="42.099694" lon="23.587414"><ele>2259.5</ele><time>2026-03-08T09:12:28.000Z</time></trkpt>
<trkpt lat="42.099694" lon="23.587413"><ele>2259.5</ele><time>2026-03-08T09:12:29.000Z</time></trkpt>
<trkpt lat="42.099695" lon="23.587412"><ele>2259.5</ele><time>2026-03-08T09:12:30.000Z</time></trkpt>
<trkpt lat="42.099695" lon="23.587412"><ele>2259.5</ele><time>2026-03-08T09:12:31.000Z</time></trkpt>
<trkpt lat="42.099696" lon="23.587412"><ele>2259.4</ele><time>2026-03-08T09:12:32.000Z</time></trkpt>
<trkpt lat="42.099696" lon="23.587412"><ele>2259.4</ele><time>2026-03-08T09:12:33.000Z</time></trkpt>
<trkpt lat="42.099697" lon="23.587412"><ele>2259.4</ele><time>2026-03-08T09:12:34.000Z</time></trkpt>
<trkpt lat="42.099697" lon="23.587413"><ele>2259.4</ele><time>2026-03-08T09:12:35.000Z</time></trkpt>
<trkpt lat="42.099697" lon="23.587412"><ele>2259.4</ele><time>2026-03-08T09:12:36.000Z</time></trkpt>
<trkpt lat="42.099697" lon="23.587411"><ele>2259.3</ele><time>2026-03-08T09:12:37.000Z</time></trkpt>
<trkpt lat="42.099697" lon="23.58741"><ele>2259.3</ele><time>2026-03-08T09:12:38.000Z</time></trkpt>
<trkpt lat="42.099696" lon="23.58741"><ele>2259.3</ele><time>2026-03-08T09:12:39.000Z</time></trkpt>
<trkpt lat="42.099696" lon="23.587409"><ele>2259.3</ele><time>2026-03-08T09:12:40.000Z</time></trkpt>
<trkpt lat="42.099696" lon="23.587409"><ele>2259.3</ele><time>2026-03-08T09:12:41.000Z</time></trkpt>
<trkpt lat="42.099696" lon="23.587409"><ele>2259.3</ele><time>2026-03-08T09:12:42.000Z</time></trkpt>
<trkpt lat="42.099696" lon="23.58741"><ele>2259.3</ele><time>2026-03-08T09:12:43.000Z</time></trkpt>
<trkpt lat="42.099696" lon="23.587412"><ele>2259.3</ele><time>2026-03-08T09:12:44.000Z</time></trkpt>
<trkpt lat="42.099696" lon="23.587413"><ele>2259.3</ele><time>2026-03-08T09:12:45.000Z</time></trkpt>
<trkpt lat="42.099696" lon="23.587414"><ele>2259.3</ele><time>2026-03-08T09:12:46.000Z</time></trkpt>
<trkpt lat="42.099696" lon="23.587415"><ele>2259.4</ele><time>2026-03-08T09:12:47.000Z</time></trkpt>
<trkpt lat="42.099696" lon="23.587416"><ele>2259.4</ele><time>2026-03-08T09:12:48.000Z</time></trkpt>
<trkpt lat="42.099696" lon="23.587416"><ele>2259.4</ele><time>2026-03-08T09:12:49.000Z</time></trkpt>
<trkpt lat="42.099696" lon="23.587416"><ele>2259.4</ele><time>2026-03-08T09:12:50.000Z</time></trkpt>
<trkpt lat="42.099696" lon="23.587416"><ele>2259.4</ele><time>2026-03-08T09:12:51.000Z</time></trkpt>
<trkpt lat="42.099696" lon="23.587416"><ele>2259.7</ele><time>2026-03-08T09:12:52.000Z</time></trkpt>
<trkpt lat="42.099696" lon="23.587416"><ele>2259.7</ele><time>2026-03-08T09:12:53.000Z</time></trkpt>
<trkpt lat="42.099696" lon="23.587416"><ele>2259.7</ele><time>2026-03-08T09:12:54.000Z</time></trkpt>
<trkpt lat="42.099696" lon="23.587416"><ele>2259.7</ele><time>2026-03-08T09:12:55.000Z</time></trkpt>
<trkpt lat="42.099695" lon="23.587416"><ele>2259.7</ele><time>2026-03-08T09:12:56.000Z</time></trkpt>
<trkpt lat="42.099695" lon="23.587416"><ele>2259.8</ele><time>2026-03-08T09:12:57.000Z</time></trkpt>
<trkpt lat="42.099694" lon="23.587416"><ele>2259.8</ele><time>2026-03-08T09:12:58.000Z</time></trkpt>
<trkpt lat="42.099694" lon="23.587415"><ele>2259.8</ele><time>2026-03-08T09:12:59.000Z</time></trkpt>
<trkpt lat="42.099693" lon="23.587415"><ele>2259.8</ele><time>2026-03-08T09:13:00.000Z</time></trkpt>
<trkpt lat="42.099693" lon="23.587415"><ele>2259.8</ele><time>2026-03-08T09:13:01.000Z</time></trkpt>
<trkpt lat="42.099693" lon="23.587415"><ele>2259.8</ele><time>2026-03-08T09:13:02.000Z</time></trkpt>
<trkpt lat="42.099693" lon="23.587415"><ele>2259.8</ele><time>2026-03-08T09:13:03.000Z</time></trkpt>
<trkpt lat="42.099692" lon="23.587415"><ele>2259.8</ele><time>2026-03-08T09:13:04.000Z</time></trkpt>
<trkpt lat="42.099692" lon="23.587415"><ele>2259.8</ele><time>2026-03-08T09:13:05.000Z</time></trkpt>
<trkpt lat="42.099692" lon="23.587415"><ele>2259.8</ele><time>2026-03-08T09:13:06.000Z</time></trkpt>
<trkpt lat="42.099692" lon="23.587415"><ele>2259.7</ele><time>2026-03-08T09:13:07.000Z</time></trkpt>
<trkpt lat="42.099692" lon="23.587415"><ele>2259.7</ele><time>2026-03-08T09:13:08.000Z</time></trkpt>
<trkpt lat="42.099692" lon="23.587415"><ele>2259.7</ele><time>2026-03-08T09:13:09.000Z</time></trkpt>
<trkpt lat="42.099692" lon="23.587415"><ele>2259.7</ele><time>2026-03-08T09:13:10.000Z</time></trkpt>
<trkpt lat="42.099692" lon="23.587415"><ele>2259.7</ele><time>2026-03-08T09:13:11.000Z</time></trkpt>
<trkpt lat="42.099692" lon="23.587415"><ele>2259.7</ele><time>2026-03-08T09:13:12.000Z</time></trkpt>
<trkpt lat="42.099692" lon="23.587415"><ele>2259.7</ele><time>2026-03-08T09:13:13.000Z</time></trkpt>
<trkpt lat="42.099692" lon="23.587416"><ele>2259.7</ele><time>2026-03-08T09:13:14.000Z</time></trkpt>
<trkpt lat="42.099691" lon="23.587416"><ele>2259.7</ele><time>2026-03-08T09:13:15.000Z</time></trkpt>
<trkpt lat="42.099691" lon="23.587416"><ele>2259.7</ele><time>2026-03-08T09:13:16.000Z</time></trkpt>
<trkpt lat="42.099691" lon="23.587416"><ele>2259.5</ele><time>2026-03-08T09:13:17.000Z</time></trkpt>
<trkpt lat="42.099691" lon="23.587416"><ele>2259.5</ele><time>2026-03-08T09:13:18.000Z</time></trkpt>
<trkpt lat="42.099691" lon="23.587416"><ele>2259.5</ele><time>2026-03-08T09:13:19.000Z</time></trkpt>
<trkpt lat="42.099691" lon="23.587416"><ele>2259.5</ele><time>2026-03-08T09:13:20.000Z</time></trkpt>
<trkpt lat="42.099691" lon="23.587416"><ele>2259.5</ele><time>2026-03-08T09:13:21.000Z</time></trkpt>
<trkpt lat="42.099691" lon="23.587416"><ele>2259.6</ele><time>2026-03-08T09:13:22.000Z</time></trkpt>
<trkpt lat="42.099691" lon="23.587416"><ele>2259.6</ele><time>2026-03-08T09:13:23.000Z</time></trkpt>
<trkpt lat="42.099692" lon="23.587416"><ele>2259.6</ele><time>2026-03-08T09:13:24.000Z</time></trkpt>
<trkpt lat="42.099692" lon="23.587416"><ele>2259.6</ele><time>2026-03-08T09:13:25.000Z</time></trkpt>
<trkpt lat="42.099692" lon="23.587416"><ele>2259.6</ele><time>2026-03-08T09:13:26.000Z</time></trkpt>
<trkpt lat="42.099692" lon="23.587416"><ele>2259.8</ele><time>2026-03-08T09:13:27.000Z</time></trkpt>
<trkpt lat="42.099692" lon="23.587416"><ele>2259.8</ele><time>2026-03-08T09:13:28.000Z</time></trkpt>
<trkpt lat="42.099692" lon="23.587415"><ele>2259.8</ele><time>2026-03-08T09:13:29.000Z</time></trkpt>
<trkpt lat="42.099692" lon="23.587414"><ele>2259.8</ele><time>2026-03-08T09:13:30.000Z</time></trkpt>
<trkpt lat="42.099692" lon="23.587414"><ele>2259.8</ele><time>2026-03-08T09:13:31.000Z</time></trkpt>
<trkpt lat="42.099692" lon="23.587413"><ele>2260.1</ele><time>2026-03-08T09:13:32.000Z</time></trkpt>
<trkpt lat="42.099692" lon="23.587413"><ele>2260.1</ele><time>2026-03-08T09:13:33.000Z</time></trkpt>
<trkpt lat="42.099692" lon="23.587413"><ele>2260.1</ele><time>2026-03-08T09:13:34.000Z</time></trkpt>
<trkpt lat="42.099692" lon="23.587413"><ele>2260.1</ele><time>2026-03-08T09:13:35.000Z</time></trkpt>
<trkpt lat="42.099692" lon="23.587413"><ele>2260.1</ele><time>2026-03-08T09:13:36.000Z</time></trkpt>
<trkpt lat="42.099692" lon="23.587413"><ele>2260.3</ele><time>2026-03-08T09:13:37.000Z</time></trkpt>
<trkpt lat="42.099692" lon="23.587413"><ele>2260.3</ele><time>2026-03-08T09:13:38.000Z</time></trkpt>
<trkpt lat="42.099692" lon="23.587413"><ele>2260.3</ele><time>2026-03-08T09:13:39.000Z</time></trkpt>
<trkpt lat="42.099692" lon="23.587413"><ele>2260.3</ele><time>2026-03-08T09:13:40.000Z</time></trkpt>
<trkpt lat="42.099692" lon="23.587413"><ele>2260.3</ele><time>2026-03-08T09:13:41.000Z</time></trkpt>
<trkpt lat="42.099692" lon="23.587413"><ele>2260.3</ele><time>2026-03-08T09:13:42.000Z</time></trkpt>
<trkpt lat="42.099692" lon="23.587413"><ele>2260.3</ele><time>2026-03-08T09:13:43.000Z</time></trkpt>
<trkpt lat="42.099692" lon="23.587413"><ele>2260.3</ele><time>2026-03-08T09:13:44.000Z</time></trkpt>
<trkpt lat="42.099692" lon="23.587413"><ele>2260.3</ele><time>2026-03-08T09:13:45.000Z</time></trkpt>
<trkpt lat="42.099692" lon="23.587413"><ele>2260.3</ele><time>2026-03-08T09:13:46.000Z</time></trkpt>
<trkpt lat="42.099692" lon="23.587413"><ele>2260.2</ele><time>2026-03-08T09:13:47.000Z</time></trkpt>
<trkpt lat="42.099692" lon="23.587413"><ele>2260.2</ele><time>2026-03-08T09:13:48.000Z</time></trkpt>
<trkpt lat="42.099692" lon="23.587413"><ele>2260.2</ele><time>2026-03-08T09:13:49.000Z</time></trkpt>
<trkpt lat="42.099692" lon="23.587413"><ele>2260.2</ele><time>2026-03-08T09:13:50.000Z</time></trkpt>
<trkpt lat="42.099692" lon="23.587413"><ele>2260.2</ele><time>2026-03-08T09:13:51.000Z</time></trkpt>
<trkpt lat="42.099692" lon="23.587413"><ele>2260.2</ele><time>2026-03-08T09:13:52.000Z</time></trkpt>
<trkpt lat="42.099692" lon="23.587413"><ele>2260.2</ele><time>2026-03-08T09:13:53.000Z</time></trkpt>
<trkpt lat="42.099692" lon="23.587413"><ele>2260.2</ele><time>2026-03-08T09:13:54.000Z</time></trkpt>
<trkpt lat="42.099692" lon="23.587413"><ele>2260.2</ele><time>2026-03-08T09:13:55.000Z</time></trkpt>
<trkpt lat="42.099692" lon="23.587413"><ele>2260.2</ele><time>2026-03-08T09:13:56.000Z</time></trkpt>
<trkpt lat="42.099692" lon="23.587413"><ele>2260.1</ele><time>2026-03-08T09:13:57.000Z</time></trkpt>
<trkpt lat="42.099692" lon="23.587413"><ele>2260.1</ele><time>2026-03-08T09:13:58.000Z</time></trkpt>
<trkpt lat="42.099692" lon="23.587413"><ele>2260.1</ele><time>2026-03-08T09:13:59.000Z</time></trkpt>
<trkpt lat="42.099692" lon="23.587413"><ele>2260.1</ele><time>2026-03-08T09:14:00.000Z</time></trkpt>
<trkpt lat="42.099692" lon="23.587413"><ele>2260.1</ele><time>2026-03-08T09:14:01.000Z</time></trkpt>
<trkpt lat="42.099692" lon="23.587413"><ele>2260.2</ele><time>2026-03-08T09:14:02.000Z</time></trkpt>
<trkpt lat="42.099692" lon="23.587413"><ele>2260.2</ele><time>2026-03-08T09:14:03.000Z</time></trkpt>
<trkpt lat="42.099692" lon="23.587413"><ele>2260.2</ele><time>2026-03-08T09:14:04.000Z</time></trkpt>
<trkpt lat="42.099692" lon="23.587413"><ele>2260.2</ele><time>2026-03-08T09:14:05.000Z</time></trkpt>
<trkpt lat="42.099692" lon="23.587413"><ele>2260.2</ele><time>2026-03-08T09:14:06.000Z</time></trkpt>
<trkpt lat="42.099692" lon="23.587413"><ele>2260.2</ele><time>2026-03-08T09:14:07.000Z</time></trkpt>
<trkpt lat="42.099692" lon="23.587413"><ele>2260.2</ele><time>2026-03-08T09:14:08.000Z</time></trkpt>
<trkpt lat="42.099692" lon="23.587413"><ele>2260.2</ele><time>2026-03-08T09:14:09.000Z</time></trkpt>
<trkpt lat="42.099692" lon="23.587413"><ele>2260.2</ele><time>2026-03-08T09:14:10.000Z</time></trkpt>
<trkpt lat="42.099692" lon="23.587413"><ele>2260.2</ele><time>2026-03-08T09:14:11.000Z</time></trkpt>
<trkpt lat="42.099692" lon="23.587413"><ele>2260.2</ele><time>2026-03-08T09:14:12.000Z</time></trkpt>
<trkpt lat="42.099692" lon="23.587413"><ele>2260.2</ele><time>2026-03-08T09:14:13.000Z</time></trkpt>
<trkpt lat="42.099691" lon="23.587413"><ele>2260.2</ele><time>2026-03-08T09:14:14.000Z</time></trkpt>
<trkpt lat="42.099691" lon="23.587413"><ele>2260.2</ele><time>2026-03-08T09:14:15.000Z</time></trkpt>
<trkpt lat="42.09969" lon="23.587413"><ele>2260.2</ele><time>2026-03-08T09:14:16.000Z</time></trkpt>
<trkpt lat="42.09969" lon="23.587413"><ele>2260.1</ele><time>2026-03-08T09:14:17.000Z</time></trkpt>
<trkpt lat="42.099689" lon="23.587413"><ele>2260.1</ele><time>2026-03-08T09:14:18.000Z</time></trkpt>
<trkpt lat="42.099689" lon="23.587413"><ele>2260.1</ele><time>2026-03-08T09:14:19.000Z</time></trkpt>
<trkpt lat="42.099689" lon="23.587413"><ele>2260.1</ele><time>2026-03-08T09:14:20.000Z</time></trkpt>
<trkpt lat="42.099688" lon="23.587413"><ele>2260.1</ele><time>2026-03-08T09:14:21.000Z</time></trkpt>
<trkpt lat="42.099688" lon="23.587413"><ele>2260</ele><time>2026-03-08T09:14:22.000Z</time></trkpt>
<trkpt lat="42.099688" lon="23.587413"><ele>2260</ele><time>2026-03-08T09:14:23.000Z</time></trkpt>
<trkpt lat="42.099689" lon="23.587412"><ele>2260</ele><time>2026-03-08T09:14:24.000Z</time></trkpt>
<trkpt lat="42.099689" lon="23.587412"><ele>2260</ele><time>2026-03-08T09:14:25.000Z</time></trkpt>
<trkpt lat="42.09969" lon="23.587411"><ele>2260</ele><time>2026-03-08T09:14:26.000Z</time></trkpt>
<trkpt lat="42.09969" lon="23.58741"><ele>2259.9</ele><time>2026-03-08T09:14:27.000Z</time></trkpt>
<trkpt lat="42.099691" lon="23.58741"><ele>2259.9</ele><time>2026-03-08T09:14:28.000Z</time></trkpt>
<trkpt lat="42.099691" lon="23.587409"><ele>2259.9</ele><time>2026-03-08T09:14:29.000Z</time></trkpt>
<trkpt lat="42.099691" lon="23.587409"><ele>2259.9</ele><time>2026-03-08T09:14:30.000Z</time></trkpt>
<trkpt lat="42.099691" lon="23.587409"><ele>2259.9</ele><time>2026-03-08T09:14:31.000Z</time></trkpt>
<trkpt lat="42.099691" lon="23.587409"><ele>2259.9</ele><time>2026-03-08T09:14:32.000Z</time></trkpt>
<trkpt lat="42.099691" lon="23.587409"><ele>2259.9</ele><time>2026-03-08T09:14:33.000Z</time></trkpt>
<trkpt lat="42.099691" lon="23.587409"><ele>2259.9</ele><time>2026-03-08T09:14:34.000Z</time></trkpt>
<trkpt lat="42.099691" lon="23.587409"><ele>2259.9</ele><time>2026-03-08T09:14:35.000Z</time></trkpt>
<trkpt lat="42.099691" lon="23.587409"><ele>2259.9</ele><time>2026-03-08T09:14:36.000Z</time></trkpt>
<trkpt lat="42.099691" lon="23.587409"><ele>2259.9</ele><time>2026-03-08T09:14:37.000Z</time></trkpt>
<trkpt lat="42.09969" lon="23.587409"><ele>2259.9</ele><time>2026-03-08T09:14:38.000Z</time></trkpt>
<trkpt lat="42.09969" lon="23.587409"><ele>2259.9</ele><time>2026-03-08T09:14:39.000Z</time></trkpt>
<trkpt lat="42.09969" lon="23.587409"><ele>2259.9</ele><time>2026-03-08T09:14:40.000Z</time></trkpt>
<trkpt lat="42.09969" lon="23.587409"><ele>2259.9</ele><time>2026-03-08T09:14:41.000Z</time></trkpt>
<trkpt lat="42.099689" lon="23.587409"><ele>2259.9</ele><time>2026-03-08T09:14:42.000Z</time></trkpt>
<trkpt lat="42.099688" lon="23.587408"><ele>2259.9</ele><time>2026-03-08T09:14:43.000Z</time></trkpt>
<trkpt lat="42.099687" lon="23.587408"><ele>2259.9</ele><time>2026-03-08T09:14:44.000Z</time></trkpt>
<trkpt lat="42.099686" lon="23.587407"><ele>2259.9</ele><time>2026-03-08T09:14:45.000Z</time></trkpt>
<trkpt lat="42.099685" lon="23.587406"><ele>2259.9</ele><time>2026-03-08T09:14:46.000Z</time></trkpt>
<trkpt lat="42.099685" lon="23.587404"><ele>2259.8</ele><time>2026-03-08T09:14:47.000Z</time></trkpt>
<trkpt lat="42.099685" lon="23.587403"><ele>2259.8</ele><time>2026-03-08T09:14:48.000Z</time></trkpt>
<trkpt lat="42.099685" lon="23.587401"><ele>2259.8</ele><time>2026-03-08T09:14:49.000Z</time></trkpt>
<trkpt lat="42.099685" lon="23.587401"><ele>2259.8</ele><time>2026-03-08T09:14:50.000Z</time></trkpt>
<trkpt lat="42.099684" lon="23.587401"><ele>2259.8</ele><time>2026-03-08T09:14:51.000Z</time></trkpt>
<trkpt lat="42.099684" lon="23.587402"><ele>2259.9</ele><time>2026-03-08T09:14:52.000Z</time></trkpt>
<trkpt lat="42.099685" lon="23.587402"><ele>2259.9</ele><time>2026-03-08T09:14:53.000Z</time></trkpt>
<trkpt lat="42.099685" lon="23.587403"><ele>2259.9</ele><time>2026-03-08T09:14:54.000Z</time></trkpt>
<trkpt lat="42.099685" lon="23.587403"><ele>2259.9</ele><time>2026-03-08T09:14:55.000Z</time></trkpt>
<trkpt lat="42.099685" lon="23.587403"><ele>2259.9</ele><time>2026-03-08T09:14:56.000Z</time></trkpt>
<trkpt lat="42.099685" lon="23.587403"><ele>2260</ele><time>2026-03-08T09:14:57.000Z</time></trkpt>
<trkpt lat="42.099685" lon="23.587403"><ele>2260</ele><time>2026-03-08T09:14:58.000Z</time></trkpt>
<trkpt lat="42.099685" lon="23.587403"><ele>2260</ele><time>2026-03-08T09:14:59.000Z</time></trkpt>
<trkpt lat="42.099685" lon="23.587404"><ele>2260</ele><time>2026-03-08T09:15:00.000Z</time></trkpt>
<trkpt lat="42.099686" lon="23.587405"><ele>2260</ele><time>2026-03-08T09:15:01.000Z</time></trkpt>
<trkpt lat="42.099687" lon="23.587406"><ele>2260.4</ele><time>2026-03-08T09:15:02.000Z</time></trkpt>
<trkpt lat="42.099687" lon="23.587408"><ele>2260.4</ele><time>2026-03-08T09:15:03.000Z</time></trkpt>
<trkpt lat="42.099688" lon="23.587409"><ele>2260.4</ele><time>2026-03-08T09:15:04.000Z</time></trkpt>
<trkpt lat="42.099689" lon="23.58741"><ele>2260.4</ele><time>2026-03-08T09:15:05.000Z</time></trkpt>
<trkpt lat="42.09969" lon="23.587411"><ele>2260.4</ele><time>2026-03-08T09:15:06.000Z</time></trkpt>
<trkpt lat="42.099691" lon="23.587412"><ele>2260.8</ele><time>2026-03-08T09:15:07.000Z</time></trkpt>
<trkpt lat="42.099692" lon="23.587413"><ele>2260.8</ele><time>2026-03-08T09:15:08.000Z</time></trkpt>
<trkpt lat="42.099694" lon="23.587414"><ele>2260.8</ele><time>2026-03-08T09:15:09.000Z</time></trkpt>
<trkpt lat="42.099695" lon="23.587415"><ele>2260.8</ele><time>2026-03-08T09:15:10.000Z</time></trkpt>
<trkpt lat="42.099697" lon="23.587416"><ele>2260.8</ele><time>2026-03-08T09:15:11.000Z</time></trkpt>
<trkpt lat="42.099698" lon="23.587416"><ele>2260.9</ele><time>2026-03-08T09:15:12.000Z</time></trkpt>
<trkpt lat="42.099699" lon="23.587417"><ele>2260.9</ele><time>2026-03-08T09:15:13.000Z</time></trkpt>
<trkpt lat="42.0997" lon="23.587416"><ele>2260.9</ele><time>2026-03-08T09:15:14.000Z</time></trkpt>
<trkpt lat="42.0997" lon="23.587415"><ele>2260.9</ele><time>2026-03-08T09:15:15.000Z</time></trkpt>
<trkpt lat="42.0997" lon="23.587413"><ele>2260.9</ele><time>2026-03-08T09:15:16.000Z</time></trkpt>
<trkpt lat="42.099698" lon="23.587412"><ele>2260.8</ele><time>2026-03-08T09:15:17.000Z</time></trkpt>
<trkpt lat="42.099697" lon="23.587411"><ele>2260.8</ele><time>2026-03-08T09:15:18.000Z</time></trkpt>
<trkpt lat="42.099695" lon="23.58741"><ele>2260.8</ele><time>2026-03-08T09:15:19.000Z</time></trkpt>
<trkpt lat="42.099694" lon="23.58741"><ele>2260.8</ele><time>2026-03-08T09:15:20.000Z</time></trkpt>
<trkpt lat="42.099693" lon="23.58741"><ele>2260.8</ele><time>2026-03-08T09:15:21.000Z</time></trkpt>
<trkpt lat="42.099693" lon="23.58741"><ele>2260.7</ele><time>2026-03-08T09:15:22.000Z</time></trkpt>
<trkpt lat="42.099694" lon="23.58741"><ele>2260.7</ele><time>2026-03-08T09:15:23.000Z</time></trkpt>
<trkpt lat="42.099694" lon="23.587409"><ele>2260.7</ele><time>2026-03-08T09:15:24.000Z</time></trkpt>
<trkpt lat="42.099694" lon="23.587409"><ele>2260.7</ele><time>2026-03-08T09:15:25.000Z</time></trkpt>
<trkpt lat="42.099694" lon="23.587408"><ele>2260.7</ele><time>2026-03-08T09:15:26.000Z</time></trkpt>
<trkpt lat="42.099693" lon="23.587408"><ele>2260.7</ele><time>2026-03-08T09:15:27.000Z</time></trkpt>
<trkpt lat="42.099693" lon="23.587408"><ele>2260.7</ele><time>2026-03-08T09:15:28.000Z</time></trkpt>
<trkpt lat="42.099692" lon="23.587408"><ele>2260.7</ele><time>2026-03-08T09:15:29.000Z</time></trkpt>
<trkpt lat="42.099692" lon="23.587408"><ele>2260.7</ele><time>2026-03-08T09:15:30.000Z</time></trkpt>
<trkpt lat="42.099692" lon="23.587408"><ele>2260.7</ele><time>2026-03-08T09:15:31.000Z</time></trkpt>
<trkpt lat="42.099691" lon="23.587408"><ele>2260.6</ele><time>2026-03-08T09:15:32.000Z</time></trkpt>
<trkpt lat="42.09969" lon="23.587408"><ele>2260.6</ele><time>2026-03-08T09:15:33.000Z</time></trkpt>
<trkpt lat="42.099689" lon="23.587409"><ele>2260.6</ele><time>2026-03-08T09:15:34.000Z</time></trkpt>
<trkpt lat="42.099688" lon="23.58741"><ele>2260.6</ele><time>2026-03-08T09:15:35.000Z</time></trkpt>
<trkpt lat="42.099687" lon="23.587412"><ele>2260.6</ele><time>2026-03-08T09:15:36.000Z</time></trkpt>
<trkpt lat="42.099686" lon="23.587414"><ele>2260.8</ele><time>2026-03-08T09:15:37.000Z</time></trkpt>
<trkpt lat="42.099686" lon="23.587415"><ele>2260.8</ele><time>2026-03-08T09:15:38.000Z</time></trkpt>
<trkpt lat="42.099686" lon="23.587416"><ele>2260.8</ele><time>2026-03-08T09:15:39.000Z</time></trkpt>
<trkpt lat="42.099687" lon="23.587418"><ele>2260.8</ele><time>2026-03-08T09:15:40.000Z</time></trkpt>
<trkpt lat="42.099687" lon="23.587418"><ele>2260.8</ele><time>2026-03-08T09:15:41.000Z</time></trkpt>
<trkpt lat="42.099687" lon="23.587418"><ele>2260.8</ele><time>2026-03-08T09:15:42.000Z</time></trkpt>
<trkpt lat="42.099687" lon="23.587418"><ele>2260.8</ele><time>2026-03-08T09:15:43.000Z</time></trkpt>
<trkpt lat="42.099687" lon="23.587418"><ele>2260.8</ele><time>2026-03-08T09:15:44.000Z</time></trkpt>
<trkpt lat="42.099687" lon="23.587418"><ele>2260.8</ele><time>2026-03-08T09:15:45.000Z</time></trkpt>
<trkpt lat="42.099687" lon="23.587418"><ele>2260.8</ele><time>2026-03-08T09:15:46.000Z</time></trkpt>
<trkpt lat="42.099687" lon="23.587418"><ele>2260.8</ele><time>2026-03-08T09:15:47.000Z</time></trkpt>
<trkpt lat="42.099687" lon="23.587418"><ele>2260.8</ele><time>2026-03-08T09:15:48.000Z</time></trkpt>
<trkpt lat="42.099687" lon="23.587418"><ele>2260.8</ele><time>2026-03-08T09:15:49.000Z</time></trkpt>
<trkpt lat="42.099687" lon="23.587418"><ele>2260.8</ele><time>2026-03-08T09:15:50.000Z</time></trkpt>
<trkpt lat="42.099687" lon="23.587418"><ele>2260.8</ele><time>2026-03-08T09:15:51.000Z</time></trkpt>
<trkpt lat="42.099687" lon="23.587418"><ele>2260.7</ele><time>2026-03-08T09:15:52.000Z</time></trkpt>
<trkpt lat="42.099687" lon="23.587418"><ele>2260.7</ele><time>2026-03-08T09:15:53.000Z</time></trkpt>
<trkpt lat="42.099687" lon="23.587418"><ele>2260.7</ele><time>2026-03-08T09:15:54.000Z</time></trkpt>
<trkpt lat="42.099687" lon="23.587418"><ele>2260.7</ele><time>2026-03-08T09:15:55.000Z</time></trkpt>
<trkpt lat="42.099687" lon="23.587418"><ele>2260.7</ele><time>2026-03-08T09:15:56.000Z</time></trkpt>
<trkpt lat="42.099687" lon="23.587418"><ele>2260.7</ele><time>2026-03-08T09:15:57.000Z</time></trkpt>
<trkpt lat="42.099687" lon="23.587418"><ele>2260.7</ele><time>2026-03-08T09:15:58.000Z</time></trkpt>
<trkpt lat="42.099687" lon="23.587418"><ele>2260.7</ele><time>2026-03-08T09:15:59.000Z</time></trkpt>
<trkpt lat="42.099687" lon="23.587419"><ele>2260.7</ele><time>2026-03-08T09:16:00.000Z</time></trkpt>
<trkpt lat="42.099687" lon="23.587419"><ele>2260.7</ele><time>2026-03-08T09:16:01.000Z</time></trkpt>
<trkpt lat="42.099687" lon="23.58742"><ele>2260.8</ele><time>2026-03-08T09:16:02.000Z</time></trkpt>
<trkpt lat="42.099687" lon="23.58742"><ele>2260.8</ele><time>2026-03-08T09:16:03.000Z</time></trkpt>
<trkpt lat="42.099687" lon="23.587421"><ele>2260.8</ele><time>2026-03-08T09:16:04.000Z</time></trkpt>
<trkpt lat="42.099687" lon="23.587421"><ele>2260.8</ele><time>2026-03-08T09:16:05.000Z</time></trkpt>
<trkpt lat="42.099687" lon="23.587421"><ele>2260.8</ele><time>2026-03-08T09:16:06.000Z</time></trkpt>
<trkpt lat="42.099687" lon="23.587421"><ele>2260.9</ele><time>2026-03-08T09:16:07.000Z</time></trkpt>
<trkpt lat="42.099687" lon="23.587421"><ele>2260.9</ele><time>2026-03-08T09:16:08.000Z</time></trkpt>
<trkpt lat="42.099687" lon="23.587421"><ele>2260.9</ele><time>2026-03-08T09:16:09.000Z</time></trkpt>
<trkpt lat="42.099687" lon="23.587421"><ele>2260.9</ele><time>2026-03-08T09:16:10.000Z</time></trkpt>
<trkpt lat="42.099687" lon="23.58742"><ele>2260.9</ele><time>2026-03-08T09:16:11.000Z</time></trkpt>
<trkpt lat="42.099687" lon="23.587419"><ele>2260.9</ele><time>2026-03-08T09:16:12.000Z</time></trkpt>
<trkpt lat="42.099687" lon="23.587417"><ele>2260.9</ele><time>2026-03-08T09:16:13.000Z</time></trkpt>
<trkpt lat="42.099687" lon="23.587416"><ele>2260.9</ele><time>2026-03-08T09:16:14.000Z</time></trkpt>
<trkpt lat="42.099687" lon="23.587415"><ele>2260.9</ele><time>2026-03-08T09:16:15.000Z</time></trkpt>
<trkpt lat="42.099687" lon="23.587415"><ele>2260.9</ele><time>2026-03-08T09:16:16.000Z</time></trkpt>
<trkpt lat="42.099687" lon="23.587415"><ele>2260.9</ele><time>2026-03-08T09:16:17.000Z</time></trkpt>
<trkpt lat="42.099687" lon="23.587414"><ele>2260.9</ele><time>2026-03-08T09:16:18.000Z</time></trkpt>
<trkpt lat="42.099687" lon="23.587414"><ele>2260.9</ele><time>2026-03-08T09:16:19.000Z</time></trkpt>
<trkpt lat="42.099687" lon="23.587414"><ele>2260.9</ele><time>2026-03-08T09:16:20.000Z</time></trkpt>
<trkpt lat="42.099686" lon="23.587414"><ele>2260.9</ele><time>2026-03-08T09:16:21.000Z</time></trkpt>
<trkpt lat="42.099686" lon="23.587414"><ele>2260.9</ele><time>2026-03-08T09:16:22.000Z</time></trkpt>
<trkpt lat="42.099686" lon="23.587414"><ele>2260.9</ele><time>2026-03-08T09:16:23.000Z</time></trkpt>
<trkpt lat="42.099687" lon="23.587414"><ele>2260.9</ele><time>2026-03-08T09:16:24.000Z</time></trkpt>
<trkpt lat="42.099687" lon="23.587415"><ele>2260.9</ele><time>2026-03-08T09:16:25.000Z</time></trkpt>
<trkpt lat="42.099687" lon="23.587415"><ele>2260.9</ele><time>2026-03-08T09:16:26.000Z</time></trkpt>
<trkpt lat="42.099688" lon="23.587416"><ele>2261</ele><time>2026-03-08T09:16:27.000Z</time></trkpt>
<trkpt lat="42.099688" lon="23.587416"><ele>2261</ele><time>2026-03-08T09:16:28.000Z</time></trkpt>
<trkpt lat="42.099688" lon="23.587417"><ele>2261</ele><time>2026-03-08T09:16:29.000Z</time></trkpt>
<trkpt lat="42.099689" lon="23.587417"><ele>2261</ele><time>2026-03-08T09:16:30.000Z</time></trkpt>
<trkpt lat="42.099689" lon="23.587417"><ele>2261</ele><time>2026-03-08T09:16:31.000Z</time></trkpt>
<trkpt lat="42.09969" lon="23.587416"><ele>2261.1</ele><time>2026-03-08T09:16:32.000Z</time></trkpt>
<trkpt lat="42.09969" lon="23.587416"><ele>2261.1</ele><time>2026-03-08T09:16:33.000Z</time></trkpt>
<trkpt lat="42.09969" lon="23.587416"><ele>2261.1</ele><time>2026-03-08T09:16:34.000Z</time></trkpt>
<trkpt lat="42.099691" lon="23.587416"><ele>2261.1</ele><time>2026-03-08T09:16:35.000Z</time></trkpt>
<trkpt lat="42.099691" lon="23.587415"><ele>2261.1</ele><time>2026-03-08T09:16:36.000Z</time></trkpt>
<trkpt lat="42.099692" lon="23.587415"><ele>2261.1</ele><time>2026-03-08T09:16:37.000Z</time></trkpt>
<trkpt lat="42.099692" lon="23.587415"><ele>2261.1</ele><time>2026-03-08T09:16:38.000Z</time></trkpt>
<trkpt lat="42.099693" lon="23.587414"><ele>2261.1</ele><time>2026-03-08T09:16:39.000Z</time></trkpt>
<trkpt lat="42.099693" lon="23.587414"><ele>2261.1</ele><time>2026-03-08T09:16:40.000Z</time></trkpt>
<trkpt lat="42.099693" lon="23.587414"><ele>2261.1</ele><time>2026-03-08T09:16:41.000Z</time></trkpt>
<trkpt lat="42.099693" lon="23.587414"><ele>2261</ele><time>2026-03-08T09:16:42.000Z</time></trkpt>
<trkpt lat="42.099693" lon="23.587414"><ele>2261</ele><time>2026-03-08T09:16:43.000Z</time></trkpt>
<trkpt lat="42.099694" lon="23.587414"><ele>2261</ele><time>2026-03-08T09:16:44.000Z</time></trkpt>
<trkpt lat="42.099694" lon="23.587414"><ele>2261</ele><time>2026-03-08T09:16:45.000Z</time></trkpt>
<trkpt lat="42.099693" lon="23.587415"><ele>2261</ele><time>2026-03-08T09:16:46.000Z</time></trkpt>
<trkpt lat="42.099692" lon="23.587416"><ele>2260.9</ele><time>2026-03-08T09:16:47.000Z</time></trkpt>
<trkpt lat="42.099692" lon="23.587417"><ele>2260.9</ele><time>2026-03-08T09:16:48.000Z</time></trkpt>
<trkpt lat="42.099692" lon="23.587417"><ele>2260.9</ele><time>2026-03-08T09:16:49.000Z</time></trkpt>
<trkpt lat="42.099693" lon="23.587418"><ele>2260.9</ele><time>2026-03-08T09:16:50.000Z</time></trkpt>
<trkpt lat="42.099695" lon="23.587416"><ele>2260.9</ele><time>2026-03-08T09:16:51.000Z</time></trkpt>
<trkpt lat="42.099697" lon="23.587415"><ele>2260.7</ele><time>2026-03-08T09:16:52.000Z</time></trkpt>
<trkpt lat="42.099698" lon="23.587413"><ele>2260.7</ele><time>2026-03-08T09:16:53.000Z</time></trkpt>
<trkpt lat="42.099699" lon="23.587413"><ele>2260.7</ele><time>2026-03-08T09:16:54.000Z</time></trkpt>
<trkpt lat="42.0997" lon="23.587412"><ele>2260.7</ele><time>2026-03-08T09:16:55.000Z</time></trkpt>
<trkpt lat="42.0997" lon="23.587412"><ele>2260.7</ele><time>2026-03-08T09:16:56.000Z</time></trkpt>
<trkpt lat="42.099699" lon="23.587412"><ele>2260.6</ele><time>2026-03-08T09:16:57.000Z</time></trkpt>
<trkpt lat="42.099699" lon="23.587412"><ele>2260.6</ele><time>2026-03-08T09:16:58.000Z</time></trkpt>
<trkpt lat="42.099699" lon="23.587411"><ele>2260.6</ele><time>2026-03-08T09:16:59.000Z</time></trkpt>
<trkpt lat="42.099698" lon="23.58741"><ele>2260.6</ele><time>2026-03-08T09:17:00.000Z</time></trkpt>
<trkpt lat="42.099698" lon="23.58741"><ele>2260.6</ele><time>2026-03-08T09:17:01.000Z</time></trkpt>
<trkpt lat="42.099698" lon="23.587411"><ele>2260.5</ele><time>2026-03-08T09:17:02.000Z</time></trkpt>
<trkpt lat="42.099698" lon="23.587411"><ele>2260.5</ele><time>2026-03-08T09:17:03.000Z</time></trkpt>
<trkpt lat="42.099698" lon="23.587412"><ele>2260.5</ele><time>2026-03-08T09:17:04.000Z</time></trkpt>
<trkpt lat="42.099699" lon="23.587413"><ele>2260.5</ele><time>2026-03-08T09:17:05.000Z</time></trkpt>
<trkpt lat="42.099699" lon="23.587414"><ele>2260.5</ele><time>2026-03-08T09:17:06.000Z</time></trkpt>
<trkpt lat="42.099699" lon="23.587415"><ele>2260.7</ele><time>2026-03-08T09:17:07.000Z</time></trkpt>
<trkpt lat="42.099699" lon="23.587415"><ele>2260.7</ele><time>2026-03-08T09:17:08.000Z</time></trkpt>
<trkpt lat="42.0997" lon="23.587416"><ele>2260.7</ele><time>2026-03-08T09:17:09.000Z</time></trkpt>
<trkpt lat="42.0997" lon="23.587416"><ele>2260.7</ele><time>2026-03-08T09:17:10.000Z</time></trkpt>
<trkpt lat="42.0997" lon="23.587416"><ele>2260.7</ele><time>2026-03-08T09:17:11.000Z</time></trkpt>
<trkpt lat="42.099699" lon="23.587416"><ele>2260.9</ele><time>2026-03-08T09:17:12.000Z</time></trkpt>
<trkpt lat="42.0997" lon="23.587416"><ele>2260.9</ele><time>2026-03-08T09:17:13.000Z</time></trkpt>
<trkpt lat="42.0997" lon="23.587416"><ele>2260.9</ele><time>2026-03-08T09:17:14.000Z</time></trkpt>
<trkpt lat="42.0997" lon="23.587416"><ele>2260.9</ele><time>2026-03-08T09:17:15.000Z</time></trkpt>
<trkpt lat="42.099701" lon="23.587416"><ele>2260.9</ele><time>2026-03-08T09:17:16.000Z</time></trkpt>
<trkpt lat="42.099701" lon="23.587416"><ele>2261</ele><time>2026-03-08T09:17:17.000Z</time></trkpt>
<trkpt lat="42.099701" lon="23.587416"><ele>2261</ele><time>2026-03-08T09:17:18.000Z</time></trkpt>
<trkpt lat="42.099702" lon="23.587416"><ele>2261</ele><time>2026-03-08T09:17:19.000Z</time></trkpt>
<trkpt lat="42.099702" lon="23.587416"><ele>2261</ele><time>2026-03-08T09:17:20.000Z</time></trkpt>
<trkpt lat="42.099701" lon="23.587415"><ele>2261</ele><time>2026-03-08T09:17:21.000Z</time></trkpt>
<trkpt lat="42.0997" lon="23.587414"><ele>2260.9</ele><time>2026-03-08T09:17:22.000Z</time></trkpt>
<trkpt lat="42.0997" lon="23.587413"><ele>2260.9</ele><time>2026-03-08T09:17:23.000Z</time></trkpt>
<trkpt lat="42.099699" lon="23.587412"><ele>2260.9</ele><time>2026-03-08T09:17:24.000Z</time></trkpt>
<trkpt lat="42.099699" lon="23.587412"><ele>2260.9</ele><time>2026-03-08T09:17:25.000Z</time></trkpt>
<trkpt lat="42.099698" lon="23.587412"><ele>2260.9</ele><time>2026-03-08T09:17:26.000Z</time></trkpt>
<trkpt lat="42.099698" lon="23.587413"><ele>2260.9</ele><time>2026-03-08T09:17:27.000Z</time></trkpt>
<trkpt lat="42.099698" lon="23.587415"><ele>2260.9</ele><time>2026-03-08T09:17:28.000Z</time></trkpt>
<trkpt lat="42.099698" lon="23.587417"><ele>2260.9</ele><time>2026-03-08T09:17:29.000Z</time></trkpt>
<trkpt lat="42.099699" lon="23.587419"><ele>2260.9</ele><time>2026-03-08T09:17:30.000Z</time></trkpt>
<trkpt lat="42.099699" lon="23.587421"><ele>2260.9</ele><time>2026-03-08T09:17:31.000Z</time></trkpt>
<trkpt lat="42.099699" lon="23.587422"><ele>2260.8</ele><time>2026-03-08T09:17:32.000Z</time></trkpt>
<trkpt lat="42.099699" lon="23.587421"><ele>2260.8</ele><time>2026-03-08T09:17:33.000Z</time></trkpt>
<trkpt lat="42.099699" lon="23.587421"><ele>2260.8</ele><time>2026-03-08T09:17:34.000Z</time></trkpt>
<trkpt lat="42.099698" lon="23.587419"><ele>2260.8</ele><time>2026-03-08T09:17:35.000Z</time></trkpt>
<trkpt lat="42.099697" lon="23.587415"><ele>2260.8</ele><time>2026-03-08T09:17:36.000Z</time></trkpt>
<trkpt lat="42.099695" lon="23.58741"><ele>2260.8</ele><time>2026-03-08T09:17:37.000Z</time></trkpt>
<trkpt lat="42.099693" lon="23.587403"><ele>2260.8</ele><time>2026-03-08T09:17:38.000Z</time></trkpt>
<trkpt lat="42.09969" lon="23.587395"><ele>2260.8</ele><time>2026-03-08T09:17:39.000Z</time></trkpt>
<trkpt lat="42.099688" lon="23.587387"><ele>2260.8</ele><time>2026-03-08T09:17:40.000Z</time></trkpt>
<trkpt lat="42.099688" lon="23.587381"><ele>2260.8</ele><time>2026-03-08T09:17:41.000Z</time></trkpt>
<trkpt lat="42.099687" lon="23.587377"><ele>2260.8</ele><time>2026-03-08T09:17:42.000Z</time></trkpt>
<trkpt lat="42.099687" lon="23.587375"><ele>2260.8</ele><time>2026-03-08T09:17:43.000Z</time></trkpt>
<trkpt lat="42.099687" lon="23.587374"><ele>2260.8</ele><time>2026-03-08T09:17:44.000Z</time></trkpt>
<trkpt lat="42.099688" lon="23.587374"><ele>2260.8</ele><time>2026-03-08T09:17:45.000Z</time></trkpt>
<trkpt lat="42.099688" lon="23.587374"><ele>2260.8</ele><time>2026-03-08T09:17:46.000Z</time></trkpt>
<trkpt lat="42.099688" lon="23.587373"><ele>2260.8</ele><time>2026-03-08T09:17:47.000Z</time></trkpt>
<trkpt lat="42.099688" lon="23.587373"><ele>2260.8</ele><time>2026-03-08T09:17:48.000Z</time></trkpt>
<trkpt lat="42.099688" lon="23.587373"><ele>2260.8</ele><time>2026-03-08T09:17:49.000Z</time></trkpt>
<trkpt lat="42.099688" lon="23.587373"><ele>2260.8</ele><time>2026-03-08T09:17:50.000Z</time></trkpt>
<trkpt lat="42.099688" lon="23.587373"><ele>2260.8</ele><time>2026-03-08T09:17:51.000Z</time></trkpt>
<trkpt lat="42.099688" lon="23.587373"><ele>2261</ele><time>2026-03-08T09:17:52.000Z</time></trkpt>
<trkpt lat="42.099688" lon="23.587373"><ele>2261</ele><time>2026-03-08T09:17:53.000Z</time></trkpt>
<trkpt lat="42.099688" lon="23.587373"><ele>2261</ele><time>2026-03-08T09:17:54.000Z</time></trkpt>
<trkpt lat="42.099688" lon="23.587373"><ele>2261</ele><time>2026-03-08T09:17:55.000Z</time></trkpt>
<trkpt lat="42.099688" lon="23.587373"><ele>2261</ele><time>2026-03-08T09:17:56.000Z</time></trkpt>
<trkpt lat="42.099688" lon="23.587373"><ele>2261.1</ele><time>2026-03-08T09:17:57.000Z</time></trkpt>
<trkpt lat="42.099688" lon="23.587373"><ele>2261.1</ele><time>2026-03-08T09:17:58.000Z</time></trkpt>
<trkpt lat="42.099689" lon="23.587373"><ele>2261.1</ele><time>2026-03-08T09:17:59.000Z</time></trkpt>
<trkpt lat="42.099689" lon="23.587374"><ele>2261.1</ele><time>2026-03-08T09:18:00.000Z</time></trkpt>
<trkpt lat="42.099689" lon="23.587374"><ele>2261.1</ele><time>2026-03-08T09:18:01.000Z</time></trkpt>
<trkpt lat="42.09969" lon="23.587374"><ele>2261.1</ele><time>2026-03-08T09:18:02.000Z</time></trkpt>
<trkpt lat="42.09969" lon="23.587372"><ele>2261.1</ele><time>2026-03-08T09:18:03.000Z</time></trkpt>
<trkpt lat="42.09969" lon="23.587368"><ele>2261.1</ele><time>2026-03-08T09:18:04.000Z</time></trkpt>
<trkpt lat="42.099689" lon="23.587361"><ele>2261.1</ele><time>2026-03-08T09:18:05.000Z</time></trkpt>
<trkpt lat="42.099688" lon="23.587353"><ele>2261.1</ele><time>2026-03-08T09:18:06.000Z</time></trkpt>
<trkpt lat="42.099687" lon="23.587342"><ele>2261.1</ele><time>2026-03-08T09:18:07.000Z</time></trkpt>
<trkpt lat="42.099686" lon="23.587333"><ele>2261.1</ele><time>2026-03-08T09:18:08.000Z</time></trkpt>
<trkpt lat="42.099683" lon="23.587324"><ele>2261.1</ele><time>2026-03-08T09:18:09.000Z</time></trkpt>
<trkpt lat="42.09968" lon="23.587315"><ele>2261.1</ele><time>2026-03-08T09:18:10.000Z</time></trkpt>
<trkpt lat="42.099677" lon="23.587307"><ele>2261.1</ele><time>2026-03-08T09:18:11.000Z</time></trkpt>
<trkpt lat="42.099674" lon="23.587298"><ele>2261.1</ele><time>2026-03-08T09:18:12.000Z</time></trkpt>
<trkpt lat="42.099671" lon="23.587289"><ele>2261.1</ele><time>2026-03-08T09:18:13.000Z</time></trkpt>
<trkpt lat="42.09967" lon="23.587281"><ele>2261.1</ele><time>2026-03-08T09:18:14.000Z</time></trkpt>
<trkpt lat="42.099668" lon="23.587272"><ele>2261.1</ele><time>2026-03-08T09:18:15.000Z</time></trkpt>
<trkpt lat="42.099667" lon="23.587264"><ele>2261.1</ele><time>2026-03-08T09:18:16.000Z</time></trkpt>
<trkpt lat="42.099666" lon="23.587255"><ele>2261.3</ele><time>2026-03-08T09:18:17.000Z</time></trkpt>
<trkpt lat="42.099665" lon="23.587247"><ele>2261.3</ele><time>2026-03-08T09:18:18.000Z</time></trkpt>
<trkpt lat="42.099665" lon="23.587237"><ele>2261.3</ele><time>2026-03-08T09:18:19.000Z</time></trkpt>
<trkpt lat="42.099663" lon="23.587228"><ele>2261.3</ele><time>2026-03-08T09:18:20.000Z</time></trkpt>
<trkpt lat="42.099662" lon="23.587219"><ele>2261.3</ele><time>2026-03-08T09:18:21.000Z</time></trkpt>
<trkpt lat="42.09966" lon="23.58721"><ele>2261.8</ele><time>2026-03-08T09:18:22.000Z</time></trkpt>
<trkpt lat="42.099657" lon="23.587202"><ele>2261.8</ele><time>2026-03-08T09:18:23.000Z</time></trkpt>
<trkpt lat="42.099654" lon="23.587193"><ele>2261.8</ele><time>2026-03-08T09:18:24.000Z</time></trkpt>
<trkpt lat="42.099651" lon="23.587184"><ele>2261.8</ele><time>2026-03-08T09:18:25.000Z</time></trkpt>
<trkpt lat="42.099649" lon="23.587175"><ele>2261.8</ele><time>2026-03-08T09:18:26.000Z</time></trkpt>
<trkpt lat="42.099648" lon="23.587166"><ele>2262.2</ele><time>2026-03-08T09:18:27.000Z</time></trkpt>
<trkpt lat="42.099648" lon="23.587159"><ele>2262.2</ele><time>2026-03-08T09:18:28.000Z</time></trkpt>
<trkpt lat="42.099648" lon="23.587154"><ele>2262.2</ele><time>2026-03-08T09:18:29.000Z</time></trkpt>
<trkpt lat="42.099649" lon="23.58715"><ele>2262.2</ele><time>2026-03-08T09:18:30.000Z</time></trkpt>
<trkpt lat="42.09965" lon="23.587146"><ele>2262.2</ele><time>2026-03-08T09:18:31.000Z</time></trkpt>
<trkpt lat="42.09965" lon="23.587142"><ele>2262.8</ele><time>2026-03-08T09:18:32.000Z</time></trkpt>
<trkpt lat="42.09965" lon="23.587138"><ele>2262.8</ele><time>2026-03-08T09:18:33.000Z</time></trkpt>
<trkpt lat="42.099649" lon="23.587133"><ele>2262.8</ele><time>2026-03-08T09:18:34.000Z</time></trkpt>
<trkpt lat="42.099648" lon="23.587126"><ele>2262.8</ele><time>2026-03-08T09:18:35.000Z</time></trkpt>
<trkpt lat="42.099646" lon="23.58712"><ele>2262.8</ele><time>2026-03-08T09:18:36.000Z</time></trkpt>
<trkpt lat="42.099644" lon="23.587115"><ele>2263.2</ele><time>2026-03-08T09:18:37.000Z</time></trkpt>
<trkpt lat="42.099641" lon="23.587108"><ele>2263.2</ele><time>2026-03-08T09:18:38.000Z</time></trkpt>
<trkpt lat="42.099639" lon="23.587101"><ele>2263.2</ele><time>2026-03-08T09:18:39.000Z</time></trkpt>
<trkpt lat="42.099637" lon="23.587095"><ele>2263.2</ele><time>2026-03-08T09:18:40.000Z</time></trkpt>
<trkpt lat="42.099635" lon="23.587087"><ele>2263.2</ele><time>2026-03-08T09:18:41.000Z</time></trkpt>
<trkpt lat="42.099634" lon="23.587079"><ele>2263.3</ele><time>2026-03-08T09:18:42.000Z</time></trkpt>
<trkpt lat="42.099633" lon="23.587071"><ele>2263.3</ele><time>2026-03-08T09:18:43.000Z</time></trkpt>
<trkpt lat="42.099631" lon="23.587064"><ele>2263.3</ele><time>2026-03-08T09:18:44.000Z</time></trkpt>
<trkpt lat="42.099628" lon="23.587057"><ele>2263.3</ele><time>2026-03-08T09:18:45.000Z</time></trkpt>
<trkpt lat="42.099625" lon="23.587051"><ele>2263.3</ele><time>2026-03-08T09:18:46.000Z</time></trkpt>
<trkpt lat="42.099622" lon="23.587045"><ele>2263.6</ele><time>2026-03-08T09:18:47.000Z</time></trkpt>
<trkpt lat="42.099619" lon="23.587037"><ele>2263.6</ele><time>2026-03-08T09:18:48.000Z</time></trkpt>
<trkpt lat="42.099617" lon="23.58703"><ele>2263.6</ele><time>2026-03-08T09:18:49.000Z</time></trkpt>
<trkpt lat="42.099615" lon="23.587022"><ele>2263.6</ele><time>2026-03-08T09:18:50.000Z</time></trkpt>
<trkpt lat="42.099612" lon="23.587014"><ele>2263.6</ele><time>2026-03-08T09:18:51.000Z</time></trkpt>
<trkpt lat="42.09961" lon="23.587006"><ele>2264.2</ele><time>2026-03-08T09:18:52.000Z</time></trkpt>
<trkpt lat="42.099607" lon="23.586999"><ele>2264.2</ele><time>2026-03-08T09:18:53.000Z</time></trkpt>
<trkpt lat="42.099603" lon="23.586992"><ele>2264.2</ele><time>2026-03-08T09:18:54.000Z</time></trkpt>
<trkpt lat="42.099601" lon="23.586986"><ele>2264.2</ele><time>2026-03-08T09:18:55.000Z</time></trkpt>
<trkpt lat="42.099599" lon="23.586981"><ele>2264.2</ele><time>2026-03-08T09:18:56.000Z</time></trkpt>
<trkpt lat="42.099597" lon="23.586975"><ele>2264.5</ele><time>2026-03-08T09:18:57.000Z</time></trkpt>
<trkpt lat="42.099596" lon="23.58697"><ele>2264.5</ele><time>2026-03-08T09:18:58.000Z</time></trkpt>
<trkpt lat="42.099594" lon="23.586963"><ele>2264.5</ele><time>2026-03-08T09:18:59.000Z</time></trkpt>
<trkpt lat="42.099592" lon="23.586956"><ele>2264.5</ele><time>2026-03-08T09:19:00.000Z</time></trkpt>
<trkpt lat="42.09959" lon="23.586947"><ele>2264.5</ele><time>2026-03-08T09:19:01.000Z</time></trkpt>
<trkpt lat="42.099588" lon="23.586939"><ele>2265.1</ele><time>2026-03-08T09:19:02.000Z</time></trkpt>
<trkpt lat="42.099587" lon="23.586931"><ele>2265.1</ele><time>2026-03-08T09:19:03.000Z</time></trkpt>
<trkpt lat="42.099585" lon="23.586923"><ele>2265.1</ele><time>2026-03-08T09:19:04.000Z</time></trkpt>
<trkpt lat="42.099582" lon="23.586915"><ele>2265.1</ele><time>2026-03-08T09:19:05.000Z</time></trkpt>
<trkpt lat="42.09958" lon="23.586908"><ele>2265.1</ele><time>2026-03-08T09:19:06.000Z</time></trkpt>
<trkpt lat="42.099578" lon="23.5869"><ele>2265.6</ele><time>2026-03-08T09:19:07.000Z</time></trkpt>
<trkpt lat="42.099575" lon="23.586892"><ele>2265.6</ele><time>2026-03-08T09:19:08.000Z</time></trkpt>
<trkpt lat="42.099571" lon="23.586884"><ele>2265.6</ele><time>2026-03-08T09:19:09.000Z</time></trkpt>
<trkpt lat="42.099568" lon="23.586877"><ele>2265.6</ele><time>2026-03-08T09:19:10.000Z</time></trkpt>
<trkpt lat="42.099565" lon="23.58687"><ele>2265.6</ele><time>2026-03-08T09:19:11.000Z</time></trkpt>
<trkpt lat="42.099561" lon="23.586864"><ele>2265.8</ele><time>2026-03-08T09:19:12.000Z</time></trkpt>
<trkpt lat="42.099558" lon="23.586857"><ele>2265.8</ele><time>2026-03-08T09:19:13.000Z</time></trkpt>
<trkpt lat="42.099554" lon="23.586852"><ele>2265.8</ele><time>2026-03-08T09:19:14.000Z</time></trkpt>
<trkpt lat="42.099551" lon="23.586846"><ele>2265.8</ele><time>2026-03-08T09:19:15.000Z</time></trkpt>
<trkpt lat="42.099547" lon="23.58684"><ele>2265.8</ele><time>2026-03-08T09:19:16.000Z</time></trkpt>
<trkpt lat="42.099543" lon="23.586834"><ele>2266.3</ele><time>2026-03-08T09:19:17.000Z</time></trkpt>
<trkpt lat="42.09954" lon="23.586828"><ele>2266.3</ele><time>2026-03-08T09:19:18.000Z</time></trkpt>
<trkpt lat="42.099537" lon="23.586822"><ele>2266.3</ele><time>2026-03-08T09:19:19.000Z</time></trkpt>
<trkpt lat="42.099534" lon="23.586816"><ele>2266.3</ele><time>2026-03-08T09:19:20.000Z</time></trkpt>
<trkpt lat="42.099533" lon="23.58681"><ele>2266.3</ele><time>2026-03-08T09:19:21.000Z</time></trkpt>
<trkpt lat="42.099531" lon="23.586805"><ele>2266.9</ele><time>2026-03-08T09:19:22.000Z</time></trkpt>
<trkpt lat="42.099529" lon="23.586799"><ele>2266.9</ele><time>2026-03-08T09:19:23.000Z</time></trkpt>
<trkpt lat="42.099527" lon="23.586794"><ele>2266.9</ele><time>2026-03-08T09:19:24.000Z</time></trkpt>
<trkpt lat="42.099524" lon="23.586788"><ele>2266.9</ele><time>2026-03-08T09:19:25.000Z</time></trkpt>
<trkpt lat="42.099521" lon="23.586782"><ele>2266.9</ele><time>2026-03-08T09:19:26.000Z</time></trkpt>
<trkpt lat="42.099517" lon="23.586778"><ele>2267.3</ele><time>2026-03-08T09:19:27.000Z</time></trkpt>
<trkpt lat="42.099514" lon="23.586772"><ele>2267.3</ele><time>2026-03-08T09:19:28.000Z</time></trkpt>
<trkpt lat="42.099511" lon="23.586767"><ele>2267.3</ele><time>2026-03-08T09:19:29.000Z</time></trkpt>
<trkpt lat="42.099509" lon="23.586762"><ele>2267.3</ele><time>2026-03-08T09:19:30.000Z</time></trkpt>
<trkpt lat="42.099507" lon="23.586756"><ele>2267.3</ele><time>2026-03-08T09:19:31.000Z</time></trkpt>
<trkpt lat="42.099505" lon="23.58675"><ele>2268</ele><time>2026-03-08T09:19:32.000Z</time></trkpt>
<trkpt lat="42.099503" lon="23.586744"><ele>2268</ele><time>2026-03-08T09:19:33.000Z</time></trkpt>
<trkpt lat="42.0995" lon="23.586739"><ele>2268</ele><time>2026-03-08T09:19:34.000Z</time></trkpt>
<trkpt lat="42.099497" lon="23.586734"><ele>2268</ele><time>2026-03-08T09:19:35.000Z</time></trkpt>
<trkpt lat="42.099495" lon="23.586729"><ele>2268</ele><time>2026-03-08T09:19:36.000Z</time></trkpt>
<trkpt lat="42.099493" lon="23.586723"><ele>2268.6</ele><time>2026-03-08T09:19:37.000Z</time></trkpt>
<trkpt lat="42.099492" lon="23.586719"><ele>2268.6</ele><time>2026-03-08T09:19:38.000Z</time></trkpt>
<trkpt lat="42.099491" lon="23.586713"><ele>2268.6</ele><time>2026-03-08T09:19:39.000Z</time></trkpt>
<trkpt lat="42.099489" lon="23.586708"><ele>2268.6</ele><time>2026-03-08T09:19:40.000Z</time></trkpt>
<trkpt lat="42.099488" lon="23.586703"><ele>2268.6</ele><time>2026-03-08T09:19:41.000Z</time></trkpt>
<trkpt lat="42.099487" lon="23.586698"><ele>2268.9</ele><time>2026-03-08T09:19:42.000Z</time></trkpt>
<trkpt lat="42.099485" lon="23.586693"><ele>2268.9</ele><time>2026-03-08T09:19:43.000Z</time></trkpt>
<trkpt lat="42.099484" lon="23.586688"><ele>2268.9</ele><time>2026-03-08T09:19:44.000Z</time></trkpt>
<trkpt lat="42.099483" lon="23.586683"><ele>2268.9</ele><time>2026-03-08T09:19:45.000Z</time></trkpt>
<trkpt lat="42.099481" lon="23.586679"><ele>2268.9</ele><time>2026-03-08T09:19:46.000Z</time></trkpt>
<trkpt lat="42.09948" lon="23.586675"><ele>2269.5</ele><time>2026-03-08T09:19:47.000Z</time></trkpt>
<trkpt lat="42.099478" lon="23.586671"><ele>2269.5</ele><time>2026-03-08T09:19:48.000Z</time></trkpt>
<trkpt lat="42.099476" lon="23.586667"><ele>2269.5</ele><time>2026-03-08T09:19:49.000Z</time></trkpt>
<trkpt lat="42.099474" lon="23.586662"><ele>2269.5</ele><time>2026-03-08T09:19:50.000Z</time></trkpt>
<trkpt lat="42.099471" lon="23.586657"><ele>2269.5</ele><time>2026-03-08T09:19:51.000Z</time></trkpt>
<trkpt lat="42.099468" lon="23.586651"><ele>2270.2</ele><time>2026-03-08T09:19:52.000Z</time></trkpt>
<trkpt lat="42.099464" lon="23.586646"><ele>2270.2</ele><time>2026-03-08T09:19:53.000Z</time></trkpt>
<trkpt lat="42.099461" lon="23.58664"><ele>2270.2</ele><time>2026-03-08T09:19:54.000Z</time></trkpt>
<trkpt lat="42.099457" lon="23.586633"><ele>2270.2</ele><time>2026-03-08T09:19:55.000Z</time></trkpt>
<trkpt lat="42.099454" lon="23.586626"><ele>2270.2</ele><time>2026-03-08T09:19:56.000Z</time></trkpt>
<trkpt lat="42.099451" lon="23.586619"><ele>2270.6</ele><time>2026-03-08T09:19:57.000Z</time></trkpt>
<trkpt lat="42.099448" lon="23.586611"><ele>2270.6</ele><time>2026-03-08T09:19:58.000Z</time></trkpt>
<trkpt lat="42.099445" lon="23.586604"><ele>2270.6</ele><time>2026-03-08T09:19:59.000Z</time></trkpt>
<trkpt lat="42.099441" lon="23.586597"><ele>2270.6</ele><time>2026-03-08T09:20:00.000Z</time></trkpt>
<trkpt lat="42.099438" lon="23.58659"><ele>2270.6</ele><time>2026-03-08T09:20:01.000Z</time></trkpt>
<trkpt lat="42.099434" lon="23.586584"><ele>2271.3</ele><time>2026-03-08T09:20:02.000Z</time></trkpt>
<trkpt lat="42.09943" lon="23.586578"><ele>2271.3</ele><time>2026-03-08T09:20:03.000Z</time></trkpt>
<trkpt lat="42.099426" lon="23.586572"><ele>2271.3</ele><time>2026-03-08T09:20:04.000Z</time></trkpt>
<trkpt lat="42.099422" lon="23.586565"><ele>2271.3</ele><time>2026-03-08T09:20:05.000Z</time></trkpt>
<trkpt lat="42.099419" lon="23.58656"><ele>2271.3</ele><time>2026-03-08T09:20:06.000Z</time></trkpt>
<trkpt lat="42.099415" lon="23.586554"><ele>2272</ele><time>2026-03-08T09:20:07.000Z</time></trkpt>
<trkpt lat="42.099412" lon="23.586546"><ele>2272</ele><time>2026-03-08T09:20:08.000Z</time></trkpt>
<trkpt lat="42.099409" lon="23.586539"><ele>2272</ele><time>2026-03-08T09:20:09.000Z</time></trkpt>
<trkpt lat="42.099406" lon="23.586532"><ele>2272</ele><time>2026-03-08T09:20:10.000Z</time></trkpt>
<trkpt lat="42.099403" lon="23.586523"><ele>2272</ele><time>2026-03-08T09:20:11.000Z</time></trkpt>
<trkpt lat="42.099401" lon="23.586515"><ele>2272.3</ele><time>2026-03-08T09:20:12.000Z</time></trkpt>
<trkpt lat="42.0994" lon="23.586508"><ele>2272.3</ele><time>2026-03-08T09:20:13.000Z</time></trkpt>
<trkpt lat="42.099397" lon="23.586499"><ele>2272.3</ele><time>2026-03-08T09:20:14.000Z</time></trkpt>
<trkpt lat="42.099395" lon="23.58649"><ele>2272.3</ele><time>2026-03-08T09:20:15.000Z</time></trkpt>
<trkpt lat="42.099392" lon="23.586481"><ele>2272.3</ele><time>2026-03-08T09:20:16.000Z</time></trkpt>
<trkpt lat="42.099389" lon="23.586473"><ele>2273.1</ele><time>2026-03-08T09:20:17.000Z</time></trkpt>
<trkpt lat="42.099385" lon="23.586464"><ele>2273.1</ele><time>2026-03-08T09:20:18.000Z</time></trkpt>
<trkpt lat="42.099381" lon="23.586456"><ele>2273.1</ele><time>2026-03-08T09:20:19.000Z</time></trkpt>
<trkpt lat="42.099378" lon="23.58645"><ele>2273.1</ele><time>2026-03-08T09:20:20.000Z</time></trkpt>
<trkpt lat="42.099374" lon="23.586444"><ele>2273.1</ele><time>2026-03-08T09:20:21.000Z</time></trkpt>
<trkpt lat="42.09937" lon="23.586436"><ele>2274</ele><time>2026-03-08T09:20:22.000Z</time></trkpt>
<trkpt lat="42.099367" lon="23.586429"><ele>2274</ele><time>2026-03-08T09:20:23.000Z</time></trkpt>
<trkpt lat="42.099363" lon="23.586423"><ele>2274</ele><time>2026-03-08T09:20:24.000Z</time></trkpt>
<trkpt lat="42.09936" lon="23.586415"><ele>2274</ele><time>2026-03-08T09:20:25.000Z</time></trkpt>
<trkpt lat="42.099356" lon="23.586408"><ele>2274</ele><time>2026-03-08T09:20:26.000Z</time></trkpt>
<trkpt lat="42.099352" lon="23.586402"><ele>2274.5</ele><time>2026-03-08T09:20:27.000Z</time></trkpt>
<trkpt lat="42.099348" lon="23.586398"><ele>2274.5</ele><time>2026-03-08T09:20:28.000Z</time></trkpt>
<trkpt lat="42.099343" lon="23.586393"><ele>2274.5</ele><time>2026-03-08T09:20:29.000Z</time></trkpt>
<trkpt lat="42.099338" lon="23.58639"><ele>2274.5</ele><time>2026-03-08T09:20:30.000Z</time></trkpt>
<trkpt lat="42.099334" lon="23.586387"><ele>2274.5</ele><time>2026-03-08T09:20:31.000Z</time></trkpt>
<trkpt lat="42.099329" lon="23.586384"><ele>2275.2</ele><time>2026-03-08T09:20:32.000Z</time></trkpt>
<trkpt lat="42.099325" lon="23.58638"><ele>2275.2</ele><time>2026-03-08T09:20:33.000Z</time></trkpt>
<trkpt lat="42.099321" lon="23.586375"><ele>2275.2</ele><time>2026-03-08T09:20:34.000Z</time></trkpt>
<trkpt lat="42.099318" lon="23.58637"><ele>2275.2</ele><time>2026-03-08T09:20:35.000Z</time></trkpt>
<trkpt lat="42.099316" lon="23.586365"><ele>2275.2</ele><time>2026-03-08T09:20:36.000Z</time></trkpt>
<trkpt lat="42.099316" lon="23.586359"><ele>2275.8</ele><time>2026-03-08T09:20:37.000Z</time></trkpt>
<trkpt lat="42.099315" lon="23.586354"><ele>2275.8</ele><time>2026-03-08T09:20:38.000Z</time></trkpt>
<trkpt lat="42.099315" lon="23.586349"><ele>2275.8</ele><time>2026-03-08T09:20:39.000Z</time></trkpt>
<trkpt lat="42.099314" lon="23.586344"><ele>2275.8</ele><time>2026-03-08T09:20:40.000Z</time></trkpt>
<trkpt lat="42.099312" lon="23.586339"><ele>2275.8</ele><time>2026-03-08T09:20:41.000Z</time></trkpt>
<trkpt lat="42.09931" lon="23.586335"><ele>2276.1</ele><time>2026-03-08T09:20:42.000Z</time></trkpt>
<trkpt lat="42.099307" lon="23.586331"><ele>2276.1</ele><time>2026-03-08T09:20:43.000Z</time></trkpt>
<trkpt lat="42.099304" lon="23.586326"><ele>2276.1</ele><time>2026-03-08T09:20:44.000Z</time></trkpt>
<trkpt lat="42.0993" lon="23.586319"><ele>2276.1</ele><time>2026-03-08T09:20:45.000Z</time></trkpt>
<trkpt lat="42.099296" lon="23.586313"><ele>2276.1</ele><time>2026-03-08T09:20:46.000Z</time></trkpt>
<trkpt lat="42.099291" lon="23.586308"><ele>2276.6</ele><time>2026-03-08T09:20:47.000Z</time></trkpt>
<trkpt lat="42.099286" lon="23.586301"><ele>2276.6</ele><time>2026-03-08T09:20:48.000Z</time></trkpt>
<trkpt lat="42.099282" lon="23.586296"><ele>2276.6</ele><time>2026-03-08T09:20:49.000Z</time></trkpt>
<trkpt lat="42.099278" lon="23.58629"><ele>2276.6</ele><time>2026-03-08T09:20:50.000Z</time></trkpt>
<trkpt lat="42.099274" lon="23.586284"><ele>2276.6</ele><time>2026-03-08T09:20:51.000Z</time></trkpt>
<trkpt lat="42.099271" lon="23.586277"><ele>2277.1</ele><time>2026-03-08T09:20:52.000Z</time></trkpt>
<trkpt lat="42.09927" lon="23.586271"><ele>2277.1</ele><time>2026-03-08T09:20:53.000Z</time></trkpt>
<trkpt lat="42.099269" lon="23.586267"><ele>2277.1</ele><time>2026-03-08T09:20:54.000Z</time></trkpt>
<trkpt lat="42.099268" lon="23.586263"><ele>2277.1</ele><time>2026-03-08T09:20:55.000Z</time></trkpt>
<trkpt lat="42.099267" lon="23.586263"><ele>2277.1</ele><time>2026-03-08T09:20:56.000Z</time></trkpt>
<trkpt lat="42.099267" lon="23.586263"><ele>2277.3</ele><time>2026-03-08T09:20:57.000Z</time></trkpt>
<trkpt lat="42.099266" lon="23.586264"><ele>2277.3</ele><time>2026-03-08T09:20:58.000Z</time></trkpt>
<trkpt lat="42.099266" lon="23.586265"><ele>2277.3</ele><time>2026-03-08T09:20:59.000Z</time></trkpt>
<trkpt lat="42.099265" lon="23.586266"><ele>2277.3</ele><time>2026-03-08T09:21:00.000Z</time></trkpt>
<trkpt lat="42.099264" lon="23.586266"><ele>2277.3</ele><time>2026-03-08T09:21:01.000Z</time></trkpt>
<trkpt lat="42.099264" lon="23.586266"><ele>2278</ele><time>2026-03-08T09:21:02.000Z</time></trkpt>
<trkpt lat="42.099264" lon="23.586266"><ele>2278</ele><time>2026-03-08T09:21:03.000Z</time></trkpt>
<trkpt lat="42.099264" lon="23.586266"><ele>2278</ele><time>2026-03-08T09:21:04.000Z</time></trkpt>
<trkpt lat="42.099264" lon="23.586266"><ele>2278</ele><time>2026-03-08T09:21:05.000Z</time></trkpt>
<trkpt lat="42.099264" lon="23.586266"><ele>2278</ele><time>2026-03-08T09:21:06.000Z</time></trkpt>
<trkpt lat="42.099264" lon="23.586266"><ele>2278.8</ele><time>2026-03-08T09:21:07.000Z</time></trkpt>
<trkpt lat="42.099264" lon="23.586266"><ele>2278.8</ele><time>2026-03-08T09:21:08.000Z</time></trkpt>
<trkpt lat="42.099264" lon="23.586266"><ele>2278.8</ele><time>2026-03-08T09:21:09.000Z</time></trkpt>
<trkpt lat="42.099264" lon="23.586266"><ele>2278.8</ele><time>2026-03-08T09:21:10.000Z</time></trkpt>
<trkpt lat="42.099264" lon="23.586266"><ele>2278.8</ele><time>2026-03-08T09:21:11.000Z</time></trkpt>
<trkpt lat="42.099264" lon="23.586265"><ele>2279.1</ele><time>2026-03-08T09:21:12.000Z</time></trkpt>
<trkpt lat="42.099264" lon="23.586265"><ele>2279.1</ele><time>2026-03-08T09:21:13.000Z</time></trkpt>
<trkpt lat="42.099264" lon="23.586265"><ele>2279.1</ele><time>2026-03-08T09:21:14.000Z</time></trkpt>
<trkpt lat="42.099264" lon="23.586265"><ele>2279.1</ele><time>2026-03-08T09:21:15.000Z</time></trkpt>
<trkpt lat="42.099263" lon="23.586265"><ele>2279.1</ele><time>2026-03-08T09:21:16.000Z</time></trkpt>
<trkpt lat="42.099263" lon="23.586265"><ele>2279.3</ele><time>2026-03-08T09:21:17.000Z</time></trkpt>
<trkpt lat="42.099263" lon="23.586265"><ele>2279.3</ele><time>2026-03-08T09:21:18.000Z</time></trkpt>
<trkpt lat="42.099262" lon="23.586266"><ele>2279.3</ele><time>2026-03-08T09:21:19.000Z</time></trkpt>
<trkpt lat="42.099262" lon="23.586266"><ele>2279.3</ele><time>2026-03-08T09:21:20.000Z</time></trkpt>
<trkpt lat="42.099262" lon="23.586266"><ele>2279.3</ele><time>2026-03-08T09:21:21.000Z</time></trkpt>
<trkpt lat="42.099262" lon="23.586266"><ele>2279.1</ele><time>2026-03-08T09:21:22.000Z</time></trkpt>
<trkpt lat="42.099262" lon="23.586266"><ele>2279.1</ele><time>2026-03-08T09:21:23.000Z</time></trkpt>
<trkpt lat="42.099262" lon="23.586267"><ele>2279.1</ele><time>2026-03-08T09:21:24.000Z</time></trkpt>
<trkpt lat="42.099262" lon="23.586267"><ele>2279.1</ele><time>2026-03-08T09:21:25.000Z</time></trkpt>
<trkpt lat="42.099262" lon="23.586268"><ele>2279.1</ele><time>2026-03-08T09:21:26.000Z</time></trkpt>
<trkpt lat="42.099262" lon="23.586269"><ele>2279.1</ele><time>2026-03-08T09:21:27.000Z</time></trkpt>
<trkpt lat="42.099262" lon="23.58627"><ele>2279.1</ele><time>2026-03-08T09:21:28.000Z</time></trkpt>
<trkpt lat="42.099261" lon="23.58627"><ele>2279.1</ele><time>2026-03-08T09:21:29.000Z</time></trkpt>
<trkpt lat="42.099261" lon="23.586271"><ele>2279.1</ele><time>2026-03-08T09:21:30.000Z</time></trkpt>
<trkpt lat="42.099261" lon="23.586271"><ele>2279.1</ele><time>2026-03-08T09:21:31.000Z</time></trkpt>
<trkpt lat="42.09926" lon="23.586271"><ele>2279</ele><time>2026-03-08T09:21:32.000Z</time></trkpt>
<trkpt lat="42.09926" lon="23.58627"><ele>2279</ele><time>2026-03-08T09:21:33.000Z</time></trkpt>
<trkpt lat="42.09926" lon="23.58627"><ele>2279</ele><time>2026-03-08T09:21:34.000Z</time></trkpt>
<trkpt lat="42.09926" lon="23.58627"><ele>2279</ele><time>2026-03-08T09:21:35.000Z</time></trkpt>
<trkpt lat="42.09926" lon="23.58627"><ele>2279</ele><time>2026-03-08T09:21:36.000Z</time></trkpt>
<trkpt lat="42.09926" lon="23.586271"><ele>2279</ele><time>2026-03-08T09:21:37.000Z</time></trkpt>
<trkpt lat="42.09926" lon="23.586271"><ele>2279</ele><time>2026-03-08T09:21:38.000Z</time></trkpt>
<trkpt lat="42.09926" lon="23.586271"><ele>2279</ele><time>2026-03-08T09:21:39.000Z</time></trkpt>
<trkpt lat="42.09926" lon="23.586271"><ele>2279</ele><time>2026-03-08T09:21:40.000Z</time></trkpt>
<trkpt lat="42.09926" lon="23.586271"><ele>2279</ele><time>2026-03-08T09:21:41.000Z</time></trkpt>
<trkpt lat="42.09926" lon="23.586271"><ele>2279</ele><time>2026-03-08T09:21:42.000Z</time></trkpt>
<trkpt lat="42.09926" lon="23.586271"><ele>2279</ele><time>2026-03-08T09:21:43.000Z</time></trkpt>
<trkpt lat="42.09926" lon="23.586271"><ele>2279</ele><time>2026-03-08T09:21:44.000Z</time></trkpt>
<trkpt lat="42.09926" lon="23.586271"><ele>2279</ele><time>2026-03-08T09:21:45.000Z</time></trkpt>
<trkpt lat="42.09926" lon="23.586271"><ele>2279</ele><time>2026-03-08T09:21:46.000Z</time></trkpt>
<trkpt lat="42.099259" lon="23.586271"><ele>2279</ele><time>2026-03-08T09:21:47.000Z</time></trkpt>
<trkpt lat="42.099259" lon="23.586271"><ele>2279</ele><time>2026-03-08T09:21:48.000Z</time></trkpt>
<trkpt lat="42.099259" lon="23.586271"><ele>2279</ele><time>2026-03-08T09:21:49.000Z</time></trkpt>
<trkpt lat="42.099259" lon="23.586271"><ele>2279</ele><time>2026-03-08T09:21:50.000Z</time></trkpt>
<trkpt lat="42.099259" lon="23.586271"><ele>2279</ele><time>2026-03-08T09:21:51.000Z</time></trkpt>
<trkpt lat="42.09926" lon="23.58627"><ele>2279</ele><time>2026-03-08T09:21:52.000Z</time></trkpt>
<trkpt lat="42.09926" lon="23.586271"><ele>2279</ele><time>2026-03-08T09:21:53.000Z</time></trkpt>
<trkpt lat="42.09926" lon="23.586272"><ele>2279</ele><time>2026-03-08T09:21:54.000Z</time></trkpt>
<trkpt lat="42.099261" lon="23.586272"><ele>2279</ele><time>2026-03-08T09:21:55.000Z</time></trkpt>
<trkpt lat="42.099261" lon="23.586273"><ele>2279</ele><time>2026-03-08T09:21:56.000Z</time></trkpt>
<trkpt lat="42.09926" lon="23.586274"><ele>2279</ele><time>2026-03-08T09:21:57.000Z</time></trkpt>
<trkpt lat="42.09926" lon="23.586274"><ele>2279</ele><time>2026-03-08T09:21:58.000Z</time></trkpt>
<trkpt lat="42.09926" lon="23.586274"><ele>2279</ele><time>2026-03-08T09:21:59.000Z</time></trkpt>
<trkpt lat="42.09926" lon="23.586274"><ele>2279</ele><time>2026-03-08T09:22:00.000Z</time></trkpt>
<trkpt lat="42.09926" lon="23.586274"><ele>2279</ele><time>2026-03-08T09:22:01.000Z</time></trkpt>
<trkpt lat="42.09926" lon="23.586274"><ele>2279</ele><time>2026-03-08T09:22:02.000Z</time></trkpt>
<trkpt lat="42.09926" lon="23.586274"><ele>2279</ele><time>2026-03-08T09:22:03.000Z</time></trkpt>
<trkpt lat="42.09926" lon="23.586274"><ele>2279</ele><time>2026-03-08T09:22:04.000Z</time></trkpt>
<trkpt lat="42.09926" lon="23.586274"><ele>2279</ele><time>2026-03-08T09:22:05.000Z</time></trkpt>
<trkpt lat="42.09926" lon="23.586275"><ele>2279</ele><time>2026-03-08T09:22:06.000Z</time></trkpt>
<trkpt lat="42.099261" lon="23.586275"><ele>2278.9</ele><time>2026-03-08T09:22:07.000Z</time></trkpt>
<trkpt lat="42.099261" lon="23.586275"><ele>2278.9</ele><time>2026-03-08T09:22:08.000Z</time></trkpt>
<trkpt lat="42.099261" lon="23.586276"><ele>2278.9</ele><time>2026-03-08T09:22:09.000Z</time></trkpt>
<trkpt lat="42.099262" lon="23.586276"><ele>2278.9</ele><time>2026-03-08T09:22:10.000Z</time></trkpt>
<trkpt lat="42.099262" lon="23.586276"><ele>2278.9</ele><time>2026-03-08T09:22:11.000Z</time></trkpt>
<trkpt lat="42.099262" lon="23.586276"><ele>2278.9</ele><time>2026-03-08T09:22:12.000Z</time></trkpt>
<trkpt lat="42.099262" lon="23.586276"><ele>2278.9</ele><time>2026-03-08T09:22:13.000Z</time></trkpt>
<trkpt lat="42.099262" lon="23.586276"><ele>2278.9</ele><time>2026-03-08T09:22:14.000Z</time></trkpt>
<trkpt lat="42.099262" lon="23.586276"><ele>2278.9</ele><time>2026-03-08T09:22:15.000Z</time></trkpt>
<trkpt lat="42.099262" lon="23.586275"><ele>2278.9</ele><time>2026-03-08T09:22:16.000Z</time></trkpt>
<trkpt lat="42.099262" lon="23.586275"><ele>2278.8</ele><time>2026-03-08T09:22:17.000Z</time></trkpt>
<trkpt lat="42.099262" lon="23.586275"><ele>2278.8</ele><time>2026-03-08T09:22:18.000Z</time></trkpt>
<trkpt lat="42.099262" lon="23.586275"><ele>2278.8</ele><time>2026-03-08T09:22:19.000Z</time></trkpt>
<trkpt lat="42.099262" lon="23.586275"><ele>2278.8</ele><time>2026-03-08T09:22:20.000Z</time></trkpt>
<trkpt lat="42.099262" lon="23.586275"><ele>2278.8</ele><time>2026-03-08T09:22:21.000Z</time></trkpt>
<trkpt lat="42.099261" lon="23.586274"><ele>2278.8</ele><time>2026-03-08T09:22:22.000Z</time></trkpt>
<trkpt lat="42.09926" lon="23.586272"><ele>2278.8</ele><time>2026-03-08T09:22:23.000Z</time></trkpt>
<trkpt lat="42.099258" lon="23.58627"><ele>2278.8</ele><time>2026-03-08T09:22:24.000Z</time></trkpt>
<trkpt lat="42.099255" lon="23.586267"><ele>2278.8</ele><time>2026-03-08T09:22:25.000Z</time></trkpt>
<trkpt lat="42.099252" lon="23.586263"><ele>2278.8</ele><time>2026-03-08T09:22:26.000Z</time></trkpt>
<trkpt lat="42.099248" lon="23.586259"><ele>2278.9</ele><time>2026-03-08T09:22:27.000Z</time></trkpt>
<trkpt lat="42.099244" lon="23.586254"><ele>2278.9</ele><time>2026-03-08T09:22:28.000Z</time></trkpt>
<trkpt lat="42.099241" lon="23.58625"><ele>2278.9</ele><time>2026-03-08T09:22:29.000Z</time></trkpt>
<trkpt lat="42.099239" lon="23.586246"><ele>2278.9</ele><time>2026-03-08T09:22:30.000Z</time></trkpt>
<trkpt lat="42.099236" lon="23.586242"><ele>2278.9</ele><time>2026-03-08T09:22:31.000Z</time></trkpt>
<trkpt lat="42.099236" lon="23.586241"><ele>2278.9</ele><time>2026-03-08T09:22:32.000Z</time></trkpt>
<trkpt lat="42.099236" lon="23.58624"><ele>2278.9</ele><time>2026-03-08T09:22:33.000Z</time></trkpt>
<trkpt lat="42.099236" lon="23.58624"><ele>2278.9</ele><time>2026-03-08T09:22:34.000Z</time></trkpt>
<trkpt lat="42.099236" lon="23.58624"><ele>2278.9</ele><time>2026-03-08T09:22:35.000Z</time></trkpt>
<trkpt lat="42.099237" lon="23.586241"><ele>2278.9</ele><time>2026-03-08T09:22:36.000Z</time></trkpt>
<trkpt lat="42.099236" lon="23.586241"><ele>2279.2</ele><time>2026-03-08T09:22:37.000Z</time></trkpt>
<trkpt lat="42.099236" lon="23.586242"><ele>2279.2</ele><time>2026-03-08T09:22:38.000Z</time></trkpt>
<trkpt lat="42.099236" lon="23.586242"><ele>2279.2</ele><time>2026-03-08T09:22:39.000Z</time></trkpt>
<trkpt lat="42.099236" lon="23.586242"><ele>2279.2</ele><time>2026-03-08T09:22:40.000Z</time></trkpt>
<trkpt lat="42.099236" lon="23.586241"><ele>2279.2</ele><time>2026-03-08T09:22:41.000Z</time></trkpt>
<trkpt lat="42.099236" lon="23.586239"><ele>2279.3</ele><time>2026-03-08T09:22:42.000Z</time></trkpt>
<trkpt lat="42.099236" lon="23.586238"><ele>2279.3</ele><time>2026-03-08T09:22:43.000Z</time></trkpt>
<trkpt lat="42.099236" lon="23.586236"><ele>2279.3</ele><time>2026-03-08T09:22:44.000Z</time></trkpt>
<trkpt lat="42.099236" lon="23.586235"><ele>2279.3</ele><time>2026-03-08T09:22:45.000Z</time></trkpt>
<trkpt lat="42.099236" lon="23.586234"><ele>2279.3</ele><time>2026-03-08T09:22:46.000Z</time></trkpt>
<trkpt lat="42.099236" lon="23.586234"><ele>2279.7</ele><time>2026-03-08T09:22:47.000Z</time></trkpt>
<trkpt lat="42.099236" lon="23.586234"><ele>2279.7</ele><time>2026-03-08T09:22:48.000Z</time></trkpt>
<trkpt lat="42.099236" lon="23.586234"><ele>2279.7</ele><time>2026-03-08T09:22:49.000Z</time></trkpt>
<trkpt lat="42.099237" lon="23.586234"><ele>2279.7</ele><time>2026-03-08T09:22:50.000Z</time></trkpt>
<trkpt lat="42.099237" lon="23.586235"><ele>2279.7</ele><time>2026-03-08T09:22:51.000Z</time></trkpt>
<trkpt lat="42.099237" lon="23.586234"><ele>2279.9</ele><time>2026-03-08T09:22:52.000Z</time></trkpt>
<trkpt lat="42.099237" lon="23.586235"><ele>2279.9</ele><time>2026-03-08T09:22:53.000Z</time></trkpt>
<trkpt lat="42.099237" lon="23.586235"><ele>2279.9</ele><time>2026-03-08T09:22:54.000Z</time></trkpt>
<trkpt lat="42.099236" lon="23.586235"><ele>2279.9</ele><time>2026-03-08T09:22:55.000Z</time></trkpt>
<trkpt lat="42.099236" lon="23.586235"><ele>2279.9</ele><time>2026-03-08T09:22:56.000Z</time></trkpt>
<trkpt lat="42.099236" lon="23.586235"><ele>2279.9</ele><time>2026-03-08T09:22:57.000Z</time></trkpt>
<trkpt lat="42.099236" lon="23.586235"><ele>2279.9</ele><time>2026-03-08T09:22:58.000Z</time></trkpt>
<trkpt lat="42.099236" lon="23.586234"><ele>2279.9</ele><time>2026-03-08T09:22:59.000Z</time></trkpt>
<trkpt lat="42.099236" lon="23.586233"><ele>2279.9</ele><time>2026-03-08T09:23:00.000Z</time></trkpt>
<trkpt lat="42.099236" lon="23.586233"><ele>2279.9</ele><time>2026-03-08T09:23:01.000Z</time></trkpt>
<trkpt lat="42.099236" lon="23.586232"><ele>2279.9</ele><time>2026-03-08T09:23:02.000Z</time></trkpt>
<trkpt lat="42.099236" lon="23.586231"><ele>2279.9</ele><time>2026-03-08T09:23:03.000Z</time></trkpt>
<trkpt lat="42.099236" lon="23.58623"><ele>2279.9</ele><time>2026-03-08T09:23:04.000Z</time></trkpt>
<trkpt lat="42.099236" lon="23.586229"><ele>2279.9</ele><time>2026-03-08T09:23:05.000Z</time></trkpt>
<trkpt lat="42.099236" lon="23.586229"><ele>2279.9</ele><time>2026-03-08T09:23:06.000Z</time></trkpt>
<trkpt lat="42.099236" lon="23.586229"><ele>2279.7</ele><time>2026-03-08T09:23:07.000Z</time></trkpt>
<trkpt lat="42.099236" lon="23.586229"><ele>2279.7</ele><time>2026-03-08T09:23:08.000Z</time></trkpt>
<trkpt lat="42.099236" lon="23.586229"><ele>2279.7</ele><time>2026-03-08T09:23:09.000Z</time></trkpt>
<trkpt lat="42.099236" lon="23.586229"><ele>2279.7</ele><time>2026-03-08T09:23:10.000Z</time></trkpt>
<trkpt lat="42.099236" lon="23.586229"><ele>2279.7</ele><time>2026-03-08T09:23:11.000Z</time></trkpt>
<trkpt lat="42.099236" lon="23.586229"><ele>2279.7</ele><time>2026-03-08T09:23:12.000Z</time></trkpt>
<trkpt lat="42.099236" lon="23.586229"><ele>2279.7</ele><time>2026-03-08T09:23:13.000Z</time></trkpt>
<trkpt lat="42.099236" lon="23.586229"><ele>2279.7</ele><time>2026-03-08T09:23:14.000Z</time></trkpt>
<trkpt lat="42.099236" lon="23.586229"><ele>2279.7</ele><time>2026-03-08T09:23:15.000Z</time></trkpt>
<trkpt lat="42.099236" lon="23.586229"><ele>2279.7</ele><time>2026-03-08T09:23:16.000Z</time></trkpt>
<trkpt lat="42.099236" lon="23.586229"><ele>2279.6</ele><time>2026-03-08T09:23:17.000Z</time></trkpt>
<trkpt lat="42.099236" lon="23.586229"><ele>2279.6</ele><time>2026-03-08T09:23:18.000Z</time></trkpt>
<trkpt lat="42.099236" lon="23.586229"><ele>2279.6</ele><time>2026-03-08T09:23:19.000Z</time></trkpt>
<trkpt lat="42.099236" lon="23.586229"><ele>2279.6</ele><time>2026-03-08T09:23:20.000Z</time></trkpt>
<trkpt lat="42.099236" lon="23.586229"><ele>2279.6</ele><time>2026-03-08T09:23:21.000Z</time></trkpt>
<trkpt lat="42.099236" lon="23.586229"><ele>2279.7</ele><time>2026-03-08T09:23:22.000Z</time></trkpt>
<trkpt lat="42.099236" lon="23.586229"><ele>2279.7</ele><time>2026-03-08T09:23:23.000Z</time></trkpt>
<trkpt lat="42.099236" lon="23.586229"><ele>2279.7</ele><time>2026-03-08T09:23:24.000Z</time></trkpt>
<trkpt lat="42.099236" lon="23.586229"><ele>2279.7</ele><time>2026-03-08T09:23:25.000Z</time></trkpt>
<trkpt lat="42.099236" lon="23.586229"><ele>2279.7</ele><time>2026-03-08T09:23:26.000Z</time></trkpt>
<trkpt lat="42.099236" lon="23.586229"><ele>2279.8</ele><time>2026-03-08T09:23:27.000Z</time></trkpt>
<trkpt lat="42.099236" lon="23.586229"><ele>2279.8</ele><time>2026-03-08T09:23:28.000Z</time></trkpt>
<trkpt lat="42.099236" lon="23.586229"><ele>2279.8</ele><time>2026-03-08T09:23:29.000Z</time></trkpt>
<trkpt lat="42.099236" lon="23.586229"><ele>2279.8</ele><time>2026-03-08T09:23:30.000Z</time></trkpt>
<trkpt lat="42.099236" lon="23.586229"><ele>2279.8</ele><time>2026-03-08T09:23:31.000Z</time></trkpt>
<trkpt lat="42.099236" lon="23.586229"><ele>2279.9</ele><time>2026-03-08T09:23:32.000Z</time></trkpt>
<trkpt lat="42.099235" lon="23.586229"><ele>2279.9</ele><time>2026-03-08T09:23:33.000Z</time></trkpt>
<trkpt lat="42.099235" lon="23.586229"><ele>2279.9</ele><time>2026-03-08T09:23:34.000Z</time></trkpt>
<trkpt lat="42.099235" lon="23.586229"><ele>2279.9</ele><time>2026-03-08T09:23:35.000Z</time></trkpt>
<trkpt lat="42.099235" lon="23.586229"><ele>2279.9</ele><time>2026-03-08T09:23:36.000Z</time></trkpt>
<trkpt lat="42.099235" lon="23.586229"><ele>2280</ele><time>2026-03-08T09:23:37.000Z</time></trkpt>
<trkpt lat="42.099235" lon="23.586228"><ele>2280</ele><time>2026-03-08T09:23:38.000Z</time></trkpt>
<trkpt lat="42.099235" lon="23.586228"><ele>2280</ele><time>2026-03-08T09:23:39.000Z</time></trkpt>
<trkpt lat="42.099235" lon="23.586228"><ele>2280</ele><time>2026-03-08T09:23:40.000Z</time></trkpt>
<trkpt lat="42.099234" lon="23.586228"><ele>2280</ele><time>2026-03-08T09:23:41.000Z</time></trkpt>
<trkpt lat="42.099234" lon="23.586228"><ele>2279.9</ele><time>2026-03-08T09:23:42.000Z</time></trkpt>
<trkpt lat="42.099234" lon="23.586228"><ele>2279.9</ele><time>2026-03-08T09:23:43.000Z</time></trkpt>
<trkpt lat="42.099234" lon="23.586228"><ele>2279.9</ele><time>2026-03-08T09:23:44.000Z</time></trkpt>
<trkpt lat="42.099234" lon="23.586228"><ele>2279.9</ele><time>2026-03-08T09:23:45.000Z</time></trkpt>
<trkpt lat="42.099234" lon="23.586228"><ele>2279.9</ele><time>2026-03-08T09:23:46.000Z</time></trkpt>
<trkpt lat="42.099234" lon="23.586228"><ele>2279.8</ele><time>2026-03-08T09:23:47.000Z</time></trkpt>
<trkpt lat="42.099234" lon="23.586227"><ele>2279.8</ele><time>2026-03-08T09:23:48.000Z</time></trkpt>
<trkpt lat="42.099234" lon="23.586227"><ele>2279.8</ele><time>2026-03-08T09:23:49.000Z</time></trkpt>
<trkpt lat="42.099233" lon="23.586225"><ele>2279.8</ele><time>2026-03-08T09:23:50.000Z</time></trkpt>
<trkpt lat="42.099233" lon="23.586224"><ele>2279.8</ele><time>2026-03-08T09:23:51.000Z</time></trkpt>
<trkpt lat="42.099233" lon="23.586224"><ele>2279.7</ele><time>2026-03-08T09:23:52.000Z</time></trkpt>
<trkpt lat="42.099232" lon="23.586223"><ele>2279.7</ele><time>2026-03-08T09:23:53.000Z</time></trkpt>
<trkpt lat="42.099231" lon="23.586222"><ele>2279.7</ele><time>2026-03-08T09:23:54.000Z</time></trkpt>
<trkpt lat="42.099231" lon="23.586222"><ele>2279.7</ele><time>2026-03-08T09:23:55.000Z</time></trkpt>
<trkpt lat="42.09923" lon="23.586221"><ele>2279.7</ele><time>2026-03-08T09:23:56.000Z</time></trkpt>
<trkpt lat="42.09923" lon="23.58622"><ele>2279.6</ele><time>2026-03-08T09:23:57.000Z</time></trkpt>
<trkpt lat="42.099229" lon="23.58622"><ele>2279.6</ele><time>2026-03-08T09:23:58.000Z</time></trkpt>
<trkpt lat="42.099229" lon="23.586219"><ele>2279.6</ele><time>2026-03-08T09:23:59.000Z</time></trkpt>
<trkpt lat="42.099229" lon="23.586219"><ele>2279.6</ele><time>2026-03-08T09:24:00.000Z</time></trkpt>
<trkpt lat="42.099229" lon="23.586219"><ele>2279.6</ele><time>2026-03-08T09:24:01.000Z</time></trkpt>
<trkpt lat="42.099229" lon="23.586219"><ele>2279.7</ele><time>2026-03-08T09:24:02.000Z</time></trkpt>
<trkpt lat="42.099229" lon="23.586219"><ele>2279.7</ele><time>2026-03-08T09:24:03.000Z</time></trkpt>
<trkpt lat="42.099229" lon="23.586219"><ele>2279.7</ele><time>2026-03-08T09:24:04.000Z</time></trkpt>
<trkpt lat="42.099229" lon="23.586219"><ele>2279.7</ele><time>2026-03-08T09:24:05.000Z</time></trkpt>
<trkpt lat="42.099229" lon="23.586219"><ele>2279.7</ele><time>2026-03-08T09:24:06.000Z</time></trkpt>
<trkpt lat="42.099229" lon="23.586219"><ele>2279.8</ele><time>2026-03-08T09:24:07.000Z</time></trkpt>
<trkpt lat="42.099229" lon="23.586219"><ele>2279.8</ele><time>2026-03-08T09:24:08.000Z</time></trkpt>
<trkpt lat="42.099229" lon="23.586219"><ele>2279.8</ele><time>2026-03-08T09:24:09.000Z</time></trkpt>
<trkpt lat="42.099229" lon="23.586219"><ele>2279.8</ele><time>2026-03-08T09:24:10.000Z</time></trkpt>
<trkpt lat="42.099229" lon="23.586219"><ele>2279.8</ele><time>2026-03-08T09:24:11.000Z</time></trkpt>
<trkpt lat="42.099229" lon="23.586219"><ele>2279.8</ele><time>2026-03-08T09:24:12.000Z</time></trkpt>
<trkpt lat="42.099229" lon="23.586219"><ele>2279.8</ele><time>2026-03-08T09:24:13.000Z</time></trkpt>
<trkpt lat="42.099229" lon="23.586219"><ele>2279.8</ele><time>2026-03-08T09:24:14.000Z</time></trkpt>
<trkpt lat="42.099229" lon="23.586219"><ele>2279.8</ele><time>2026-03-08T09:24:15.000Z</time></trkpt>
<trkpt lat="42.099229" lon="23.586219"><ele>2279.8</ele><time>2026-03-08T09:24:16.000Z</time></trkpt>
<trkpt lat="42.099229" lon="23.586219"><ele>2279.8</ele><time>2026-03-08T09:24:17.000Z</time></trkpt>
<trkpt lat="42.099228" lon="23.586219"><ele>2279.8</ele><time>2026-03-08T09:24:18.000Z</time></trkpt>
<trkpt lat="42.099228" lon="23.586219"><ele>2279.8</ele><time>2026-03-08T09:24:19.000Z</time></trkpt>
<trkpt lat="42.099228" lon="23.586219"><ele>2279.8</ele><time>2026-03-08T09:24:20.000Z</time></trkpt>
<trkpt lat="42.099227" lon="23.586219"><ele>2279.8</ele><time>2026-03-08T09:24:21.000Z</time></trkpt>
<trkpt lat="42.099227" lon="23.586219"><ele>2279.8</ele><time>2026-03-08T09:24:22.000Z</time></trkpt>
<trkpt lat="42.099227" lon="23.586219"><ele>2279.8</ele><time>2026-03-08T09:24:23.000Z</time></trkpt>
<trkpt lat="42.099227" lon="23.586219"><ele>2279.8</ele><time>2026-03-08T09:24:24.000Z</time></trkpt>
<trkpt lat="42.099227" lon="23.586218"><ele>2279.8</ele><time>2026-03-08T09:24:25.000Z</time></trkpt>
<trkpt lat="42.099228" lon="23.586218"><ele>2279.8</ele><time>2026-03-08T09:24:26.000Z</time></trkpt>
<trkpt lat="42.099228" lon="23.586218"><ele>2279.8</ele><time>2026-03-08T09:24:27.000Z</time></trkpt>
<trkpt lat="42.099227" lon="23.586217"><ele>2279.8</ele><time>2026-03-08T09:24:28.000Z</time></trkpt>
<trkpt lat="42.099227" lon="23.586216"><ele>2279.8</ele><time>2026-03-08T09:24:29.000Z</time></trkpt>
<trkpt lat="42.099227" lon="23.586215"><ele>2279.8</ele><time>2026-03-08T09:24:30.000Z</time></trkpt>
<trkpt lat="42.099227" lon="23.586214"><ele>2279.8</ele><time>2026-03-08T09:24:31.000Z</time></trkpt>
<trkpt lat="42.099227" lon="23.586213"><ele>2279.9</ele><time>2026-03-08T09:24:32.000Z</time></trkpt>
<trkpt lat="42.099227" lon="23.586213"><ele>2279.9</ele><time>2026-03-08T09:24:33.000Z</time></trkpt>
<trkpt lat="42.099227" lon="23.586213"><ele>2279.9</ele><time>2026-03-08T09:24:34.000Z</time></trkpt>
<trkpt lat="42.099227" lon="23.586213"><ele>2279.9</ele><time>2026-03-08T09:24:35.000Z</time></trkpt>
<trkpt lat="42.099227" lon="23.586213"><ele>2279.9</ele><time>2026-03-08T09:24:36.000Z</time></trkpt>
<trkpt lat="42.099227" lon="23.586213"><ele>2279.9</ele><time>2026-03-08T09:24:37.000Z</time></trkpt>
<trkpt lat="42.099227" lon="23.586213"><ele>2279.9</ele><time>2026-03-08T09:24:38.000Z</time></trkpt>
<trkpt lat="42.099227" lon="23.586213"><ele>2279.9</ele><time>2026-03-08T09:24:39.000Z</time></trkpt>
<trkpt lat="42.099227" lon="23.586213"><ele>2279.9</ele><time>2026-03-08T09:24:40.000Z</time></trkpt>
<trkpt lat="42.099227" lon="23.586213"><ele>2279.9</ele><time>2026-03-08T09:24:41.000Z</time></trkpt>
<trkpt lat="42.099227" lon="23.586213"><ele>2279.9</ele><time>2026-03-08T09:24:42.000Z</time></trkpt>
<trkpt lat="42.099227" lon="23.586213"><ele>2279.9</ele><time>2026-03-08T09:24:43.000Z</time></trkpt>
<trkpt lat="42.099227" lon="23.586213"><ele>2279.9</ele><time>2026-03-08T09:24:44.000Z</time></trkpt>
<trkpt lat="42.099227" lon="23.586213"><ele>2279.9</ele><time>2026-03-08T09:24:45.000Z</time></trkpt>
<trkpt lat="42.099227" lon="23.586213"><ele>2279.9</ele><time>2026-03-08T09:24:46.000Z</time></trkpt>
<trkpt lat="42.099227" lon="23.586213"><ele>2279.9</ele><time>2026-03-08T09:24:47.000Z</time></trkpt>
<trkpt lat="42.099227" lon="23.586213"><ele>2279.9</ele><time>2026-03-08T09:24:48.000Z</time></trkpt>
<trkpt lat="42.099227" lon="23.586213"><ele>2279.9</ele><time>2026-03-08T09:24:49.000Z</time></trkpt>
<trkpt lat="42.099227" lon="23.586213"><ele>2279.9</ele><time>2026-03-08T09:24:50.000Z</time></trkpt>
<trkpt lat="42.099227" lon="23.586213"><ele>2279.9</ele><time>2026-03-08T09:24:51.000Z</time></trkpt>
<trkpt lat="42.099227" lon="23.586213"><ele>2279.9</ele><time>2026-03-08T09:24:52.000Z</time></trkpt>
<trkpt lat="42.099227" lon="23.586213"><ele>2279.9</ele><time>2026-03-08T09:24:53.000Z</time></trkpt>
<trkpt lat="42.099227" lon="23.586213"><ele>2279.9</ele><time>2026-03-08T09:24:54.000Z</time></trkpt>
<trkpt lat="42.099227" lon="23.586213"><ele>2279.9</ele><time>2026-03-08T09:24:55.000Z</time></trkpt>
<trkpt lat="42.099227" lon="23.586213"><ele>2279.9</ele><time>2026-03-08T09:24:56.000Z</time></trkpt>
<trkpt lat="42.099227" lon="23.586213"><ele>2279.9</ele><time>2026-03-08T09:24:57.000Z</time></trkpt>
<trkpt lat="42.099227" lon="23.586213"><ele>2279.9</ele><time>2026-03-08T09:24:58.000Z</time></trkpt>
<trkpt lat="42.099227" lon="23.586213"><ele>2279.9</ele><time>2026-03-08T09:24:59.000Z</time></trkpt>
<trkpt lat="42.099227" lon="23.586213"><ele>2279.9</ele><time>2026-03-08T09:25:00.000Z</time></trkpt>
<trkpt lat="42.099227" lon="23.586213"><ele>2279.9</ele><time>2026-03-08T09:25:01.000Z</time></trkpt>
<trkpt lat="42.099227" lon="23.586213"><ele>2279.9</ele><time>2026-03-08T09:25:02.000Z</time></trkpt>
<trkpt lat="42.099227" lon="23.586213"><ele>2279.9</ele><time>2026-03-08T09:25:03.000Z</time></trkpt>
<trkpt lat="42.099227" lon="23.586213"><ele>2279.9</ele><time>2026-03-08T09:25:04.000Z</time></trkpt>
<trkpt lat="42.099227" lon="23.586213"><ele>2279.9</ele><time>2026-03-08T09:25:05.000Z</time></trkpt>
<trkpt lat="42.099227" lon="23.586213"><ele>2279.9</ele><time>2026-03-08T09:25:06.000Z</time></trkpt>
<trkpt lat="42.099227" lon="23.586213"><ele>2280</ele><time>2026-03-08T09:25:07.000Z</time></trkpt>
<trkpt lat="42.099227" lon="23.586213"><ele>2280</ele><time>2026-03-08T09:25:08.000Z</time></trkpt>
<trkpt lat="42.099227" lon="23.586213"><ele>2280</ele><time>2026-03-08T09:25:09.000Z</time></trkpt>
<trkpt lat="42.099227" lon="23.586213"><ele>2280</ele><time>2026-03-08T09:25:10.000Z</time></trkpt>
<trkpt lat="42.099227" lon="23.586213"><ele>2280</ele><time>2026-03-08T09:25:11.000Z</time></trkpt>
<trkpt lat="42.099227" lon="23.586213"><ele>2280</ele><time>2026-03-08T09:25:12.000Z</time></trkpt>
<trkpt lat="42.099227" lon="23.586213"><ele>2280</ele><time>2026-03-08T09:25:13.000Z</time></trkpt>
<trkpt lat="42.099227" lon="23.586213"><ele>2280</ele><time>2026-03-08T09:25:14.000Z</time></trkpt>
<trkpt lat="42.099227" lon="23.586214"><ele>2280</ele><time>2026-03-08T09:25:15.000Z</time></trkpt>
<trkpt lat="42.099228" lon="23.586215"><ele>2280</ele><time>2026-03-08T09:25:16.000Z</time></trkpt>
<trkpt lat="42.099228" lon="23.586216"><ele>2279.9</ele><time>2026-03-08T09:25:17.000Z</time></trkpt>
<trkpt lat="42.099228" lon="23.586217"><ele>2279.9</ele><time>2026-03-08T09:25:18.000Z</time></trkpt>
<trkpt lat="42.099229" lon="23.586218"><ele>2279.9</ele><time>2026-03-08T09:25:19.000Z</time></trkpt>
<trkpt lat="42.099229" lon="23.586218"><ele>2279.9</ele><time>2026-03-08T09:25:20.000Z</time></trkpt>
<trkpt lat="42.099229" lon="23.586218"><ele>2279.9</ele><time>2026-03-08T09:25:21.000Z</time></trkpt>
<trkpt lat="42.099229" lon="23.586218"><ele>2279.8</ele><time>2026-03-08T09:25:22.000Z</time></trkpt>
<trkpt lat="42.099229" lon="23.586218"><ele>2279.8</ele><time>2026-03-08T09:25:23.000Z</time></trkpt>
<trkpt lat="42.099229" lon="23.586218"><ele>2279.8</ele><time>2026-03-08T09:25:24.000Z</time></trkpt>
<trkpt lat="42.099229" lon="23.586218"><ele>2279.8</ele><time>2026-03-08T09:25:25.000Z</time></trkpt>
<trkpt lat="42.099229" lon="23.586219"><ele>2279.8</ele><time>2026-03-08T09:25:26.000Z</time></trkpt>
<trkpt lat="42.09923" lon="23.586219"><ele>2279.7</ele><time>2026-03-08T09:25:27.000Z</time></trkpt>
<trkpt lat="42.09923" lon="23.586219"><ele>2279.7</ele><time>2026-03-08T09:25:28.000Z</time></trkpt>
<trkpt lat="42.09923" lon="23.586219"><ele>2279.7</ele><time>2026-03-08T09:25:29.000Z</time></trkpt>
<trkpt lat="42.09923" lon="23.586219"><ele>2279.7</ele><time>2026-03-08T09:25:30.000Z</time></trkpt>
<trkpt lat="42.099231" lon="23.58622"><ele>2279.7</ele><time>2026-03-08T09:25:31.000Z</time></trkpt>
<trkpt lat="42.099231" lon="23.586221"><ele>2279.5</ele><time>2026-03-08T09:25:32.000Z</time></trkpt>
<trkpt lat="42.099231" lon="23.586221"><ele>2279.5</ele><time>2026-03-08T09:25:33.000Z</time></trkpt>
<trkpt lat="42.099232" lon="23.586222"><ele>2279.5</ele><time>2026-03-08T09:25:34.000Z</time></trkpt>
<trkpt lat="42.099232" lon="23.586222"><ele>2279.5</ele><time>2026-03-08T09:25:35.000Z</time></trkpt>
<trkpt lat="42.099232" lon="23.586222"><ele>2279.5</ele><time>2026-03-08T09:25:36.000Z</time></trkpt>
<trkpt lat="42.099232" lon="23.586222"><ele>2279.5</ele><time>2026-03-08T09:25:37.000Z</time></trkpt>
<trkpt lat="42.099232" lon="23.586222"><ele>2279.5</ele><time>2026-03-08T09:25:38.000Z</time></trkpt>
<trkpt lat="42.099232" lon="23.586222"><ele>2279.5</ele><time>2026-03-08T09:25:39.000Z</time></trkpt>
<trkpt lat="42.099232" lon="23.586222"><ele>2279.5</ele><time>2026-03-08T09:25:40.000Z</time></trkpt>
<trkpt lat="42.099232" lon="23.586223"><ele>2279.5</ele><time>2026-03-08T09:25:41.000Z</time></trkpt>
<trkpt lat="42.099233" lon="23.586224"><ele>2279.5</ele><time>2026-03-08T09:25:42.000Z</time></trkpt>
<trkpt lat="42.099233" lon="23.586225"><ele>2279.5</ele><time>2026-03-08T09:25:43.000Z</time></trkpt>
<trkpt lat="42.099233" lon="23.586226"><ele>2279.5</ele><time>2026-03-08T09:25:44.000Z</time></trkpt>
<trkpt lat="42.099234" lon="23.586227"><ele>2279.5</ele><time>2026-03-08T09:25:45.000Z</time></trkpt>
<trkpt lat="42.099234" lon="23.586227"><ele>2279.5</ele><time>2026-03-08T09:25:46.000Z</time></trkpt>
<trkpt lat="42.099234" lon="23.586227"><ele>2279.5</ele><time>2026-03-08T09:25:47.000Z</time></trkpt>
<trkpt lat="42.099234" lon="23.586227"><ele>2279.5</ele><time>2026-03-08T09:25:48.000Z</time></trkpt>
<trkpt lat="42.099234" lon="23.586227"><ele>2279.5</ele><time>2026-03-08T09:25:49.000Z</time></trkpt>
<trkpt lat="42.099235" lon="23.586226"><ele>2279.5</ele><time>2026-03-08T09:25:50.000Z</time></trkpt>
<trkpt lat="42.099235" lon="23.586226"><ele>2279.5</ele><time>2026-03-08T09:25:51.000Z</time></trkpt>
<trkpt lat="42.099236" lon="23.586226"><ele>2279.6</ele><time>2026-03-08T09:25:52.000Z</time></trkpt>
<trkpt lat="42.099236" lon="23.586225"><ele>2279.6</ele><time>2026-03-08T09:25:53.000Z</time></trkpt>
<trkpt lat="42.099236" lon="23.586225"><ele>2279.6</ele><time>2026-03-08T09:25:54.000Z</time></trkpt>
<trkpt lat="42.099237" lon="23.586225"><ele>2279.6</ele><time>2026-03-08T09:25:55.000Z</time></trkpt>
<trkpt lat="42.099237" lon="23.586225"><ele>2279.6</ele><time>2026-03-08T09:25:56.000Z</time></trkpt>
<trkpt lat="42.099237" lon="23.586225"><ele>2279.6</ele><time>2026-03-08T09:25:57.000Z</time></trkpt>
<trkpt lat="42.099237" lon="23.586225"><ele>2279.6</ele><time>2026-03-08T09:25:58.000Z</time></trkpt>
<trkpt lat="42.099237" lon="23.586225"><ele>2279.6</ele><time>2026-03-08T09:25:59.000Z</time></trkpt>
<trkpt lat="42.099237" lon="23.586224"><ele>2279.6</ele><time>2026-03-08T09:26:00.000Z</time></trkpt>
<trkpt lat="42.099237" lon="23.586224"><ele>2279.6</ele><time>2026-03-08T09:26:01.000Z</time></trkpt>
<trkpt lat="42.099236" lon="23.586225"><ele>2279.8</ele><time>2026-03-08T09:26:02.000Z</time></trkpt>
<trkpt lat="42.099236" lon="23.586226"><ele>2279.8</ele><time>2026-03-08T09:26:03.000Z</time></trkpt>
<trkpt lat="42.099236" lon="23.586227"><ele>2279.8</ele><time>2026-03-08T09:26:04.000Z</time></trkpt>
<trkpt lat="42.099236" lon="23.586227"><ele>2279.8</ele><time>2026-03-08T09:26:05.000Z</time></trkpt>
<trkpt lat="42.099235" lon="23.586228"><ele>2279.8</ele><time>2026-03-08T09:26:06.000Z</time></trkpt>
<trkpt lat="42.099236" lon="23.586229"><ele>2279.9</ele><time>2026-03-08T09:26:07.000Z</time></trkpt>
<trkpt lat="42.099236" lon="23.586229"><ele>2279.9</ele><time>2026-03-08T09:26:08.000Z</time></trkpt>
<trkpt lat="42.099236" lon="23.58623"><ele>2279.9</ele><time>2026-03-08T09:26:09.000Z</time></trkpt>
<trkpt lat="42.099235" lon="23.586228"><ele>2279.9</ele><time>2026-03-08T09:26:10.000Z</time></trkpt>
<trkpt lat="42.099235" lon="23.586225"><ele>2279.9</ele><time>2026-03-08T09:26:11.000Z</time></trkpt>
<trkpt lat="42.099234" lon="23.586221"><ele>2280</ele><time>2026-03-08T09:26:12.000Z</time></trkpt>
<trkpt lat="42.099233" lon="23.586216"><ele>2280</ele><time>2026-03-08T09:26:13.000Z</time></trkpt>
<trkpt lat="42.099231" lon="23.586208"><ele>2280</ele><time>2026-03-08T09:26:14.000Z</time></trkpt>
<trkpt lat="42.09923" lon="23.586202"><ele>2280</ele><time>2026-03-08T09:26:15.000Z</time></trkpt>
<trkpt lat="42.099227" lon="23.586195"><ele>2280</ele><time>2026-03-08T09:26:16.000Z</time></trkpt>
<trkpt lat="42.099224" lon="23.586188"><ele>2280.2</ele><time>2026-03-08T09:26:17.000Z</time></trkpt>
<trkpt lat="42.099221" lon="23.586181"><ele>2280.2</ele><time>2026-03-08T09:26:18.000Z</time></trkpt>
<trkpt lat="42.099218" lon="23.586174"><ele>2280.2</ele><time>2026-03-08T09:26:19.000Z</time></trkpt>
<trkpt lat="42.099215" lon="23.586168"><ele>2280.2</ele><time>2026-03-08T09:26:20.000Z</time></trkpt>
<trkpt lat="42.099212" lon="23.586161"><ele>2280.2</ele><time>2026-03-08T09:26:21.000Z</time></trkpt>
<trkpt lat="42.099209" lon="23.586156"><ele>2280.6</ele><time>2026-03-08T09:26:22.000Z</time></trkpt>
<trkpt lat="42.099205" lon="23.586151"><ele>2280.6</ele><time>2026-03-08T09:26:23.000Z</time></trkpt>
<trkpt lat="42.099202" lon="23.586145"><ele>2280.6</ele><time>2026-03-08T09:26:24.000Z</time></trkpt>
<trkpt lat="42.099199" lon="23.58614"><ele>2280.6</ele><time>2026-03-08T09:26:25.000Z</time></trkpt>
<trkpt lat="42.099196" lon="23.586135"><ele>2280.6</ele><time>2026-03-08T09:26:26.000Z</time></trkpt>
<trkpt lat="42.099193" lon="23.586129"><ele>2280.8</ele><time>2026-03-08T09:26:27.000Z</time></trkpt>
<trkpt lat="42.09919" lon="23.586125"><ele>2280.8</ele><time>2026-03-08T09:26:28.000Z</time></trkpt>
<trkpt lat="42.099187" lon="23.58612"><ele>2280.8</ele><time>2026-03-08T09:26:29.000Z</time></trkpt>
<trkpt lat="42.099184" lon="23.586114"><ele>2280.8</ele><time>2026-03-08T09:26:30.000Z</time></trkpt>
<trkpt lat="42.099182" lon="23.586109"><ele>2280.8</ele><time>2026-03-08T09:26:31.000Z</time></trkpt>
<trkpt lat="42.09918" lon="23.586103"><ele>2281.4</ele><time>2026-03-08T09:26:32.000Z</time></trkpt>
<trkpt lat="42.099178" lon="23.586097"><ele>2281.4</ele><time>2026-03-08T09:26:33.000Z</time></trkpt>
<trkpt lat="42.099176" lon="23.586091"><ele>2281.4</ele><time>2026-03-08T09:26:34.000Z</time></trkpt>
<trkpt lat="42.099174" lon="23.586086"><ele>2281.4</ele><time>2026-03-08T09:26:35.000Z</time></trkpt>
<trkpt lat="42.099171" lon="23.58608"><ele>2281.4</ele><time>2026-03-08T09:26:36.000Z</time></trkpt>
<trkpt lat="42.099168" lon="23.586075"><ele>2282.3</ele><time>2026-03-08T09:26:37.000Z</time></trkpt>
<trkpt lat="42.099165" lon="23.586069"><ele>2282.3</ele><time>2026-03-08T09:26:38.000Z</time></trkpt>
<trkpt lat="42.099161" lon="23.586063"><ele>2282.3</ele><time>2026-03-08T09:26:39.000Z</time></trkpt>
<trkpt lat="42.099158" lon="23.586057"><ele>2282.3</ele><time>2026-03-08T09:26:40.000Z</time></trkpt>
<trkpt lat="42.099155" lon="23.586051"><ele>2282.3</ele><time>2026-03-08T09:26:41.000Z</time></trkpt>
<trkpt lat="42.099151" lon="23.586045"><ele>2282.8</ele><time>2026-03-08T09:26:42.000Z</time></trkpt>
<trkpt lat="42.099148" lon="23.586041"><ele>2282.8</ele><time>2026-03-08T09:26:43.000Z</time></trkpt>
<trkpt lat="42.099145" lon="23.586037"><ele>2282.8</ele><time>2026-03-08T09:26:44.000Z</time></trkpt>
<trkpt lat="42.099142" lon="23.586034"><ele>2282.8</ele><time>2026-03-08T09:26:45.000Z</time></trkpt>
<trkpt lat="42.099139" lon="23.586031"><ele>2282.8</ele><time>2026-03-08T09:26:46.000Z</time></trkpt>
<trkpt lat="42.099136" lon="23.586027"><ele>2283.8</ele><time>2026-03-08T09:26:47.000Z</time></trkpt>
<trkpt lat="42.099133" lon="23.586023"><ele>2283.8</ele><time>2026-03-08T09:26:48.000Z</time></trkpt>
<trkpt lat="42.099131" lon="23.586018"><ele>2283.8</ele><time>2026-03-08T09:26:49.000Z</time></trkpt>
<trkpt lat="42.099128" lon="23.586012"><ele>2283.8</ele><time>2026-03-08T09:26:50.000Z</time></trkpt>
<trkpt lat="42.099127" lon="23.586007"><ele>2283.8</ele><time>2026-03-08T09:26:51.000Z</time></trkpt>
<trkpt lat="42.099126" lon="23.586001"><ele>2284.6</ele><time>2026-03-08T09:26:52.000Z</time></trkpt>
<trkpt lat="42.099125" lon="23.585995"><ele>2284.6</ele><time>2026-03-08T09:26:53.000Z</time></trkpt>
<trkpt lat="42.099124" lon="23.585991"><ele>2284.6</ele><time>2026-03-08T09:26:54.000Z</time></trkpt>
<trkpt lat="42.099123" lon="23.585986"><ele>2284.6</ele><time>2026-03-08T09:26:55.000Z</time></trkpt>
<trkpt lat="42.099122" lon="23.585982"><ele>2284.6</ele><time>2026-03-08T09:26:56.000Z</time></trkpt>
<trkpt lat="42.099121" lon="23.585978"><ele>2285</ele><time>2026-03-08T09:26:57.000Z</time></trkpt>
<trkpt lat="42.099119" lon="23.585974"><ele>2285</ele><time>2026-03-08T09:26:58.000Z</time></trkpt>
<trkpt lat="42.099118" lon="23.585971"><ele>2285</ele><time>2026-03-08T09:26:59.000Z</time></trkpt>
<trkpt lat="42.099117" lon="23.585967"><ele>2285</ele><time>2026-03-08T09:27:00.000Z</time></trkpt>
<trkpt lat="42.099115" lon="23.585963"><ele>2285</ele><time>2026-03-08T09:27:01.000Z</time></trkpt>
<trkpt lat="42.099114" lon="23.58596"><ele>2285.8</ele><time>2026-03-08T09:27:02.000Z</time></trkpt>
<trkpt lat="42.099112" lon="23.585957"><ele>2285.8</ele><time>2026-03-08T09:27:03.000Z</time></trkpt>
<trkpt lat="42.09911" lon="23.585954"><ele>2285.8</ele><time>2026-03-08T09:27:04.000Z</time></trkpt>
<trkpt lat="42.099108" lon="23.58595"><ele>2285.8</ele><time>2026-03-08T09:27:05.000Z</time></trkpt>
<trkpt lat="42.099107" lon="23.585947"><ele>2285.8</ele><time>2026-03-08T09:27:06.000Z</time></trkpt>
<trkpt lat="42.099105" lon="23.585942"><ele>2286.7</ele><time>2026-03-08T09:27:07.000Z</time></trkpt>
<trkpt lat="42.099103" lon="23.585938"><ele>2286.7</ele><time>2026-03-08T09:27:08.000Z</time></trkpt>
<trkpt lat="42.099101" lon="23.585932"><ele>2286.7</ele><time>2026-03-08T09:27:09.000Z</time></trkpt>
<trkpt lat="42.099099" lon="23.585927"><ele>2286.7</ele><time>2026-03-08T09:27:10.000Z</time></trkpt>
<trkpt lat="42.099096" lon="23.585923"><ele>2286.7</ele><time>2026-03-08T09:27:11.000Z</time></trkpt>
<trkpt lat="42.099094" lon="23.585918"><ele>2287.2</ele><time>2026-03-08T09:27:12.000Z</time></trkpt>
<trkpt lat="42.099091" lon="23.585914"><ele>2287.2</ele><time>2026-03-08T09:27:13.000Z</time></trkpt>
<trkpt lat="42.099089" lon="23.58591"><ele>2287.2</ele><time>2026-03-08T09:27:14.000Z</time></trkpt>
<trkpt lat="42.099088" lon="23.585906"><ele>2287.2</ele><time>2026-03-08T09:27:15.000Z</time></trkpt>
<trkpt lat="42.099085" lon="23.585901"><ele>2287.2</ele><time>2026-03-08T09:27:16.000Z</time></trkpt>
<trkpt lat="42.099084" lon="23.585896"><ele>2288.2</ele><time>2026-03-08T09:27:17.000Z</time></trkpt>
<trkpt lat="42.099083" lon="23.585891"><ele>2288.2</ele><time>2026-03-08T09:27:18.000Z</time></trkpt>
<trkpt lat="42.099081" lon="23.585885"><ele>2288.2</ele><time>2026-03-08T09:27:19.000Z</time></trkpt>
<trkpt lat="42.09908" lon="23.58588"><ele>2288.2</ele><time>2026-03-08T09:27:20.000Z</time></trkpt>
<trkpt lat="42.099078" lon="23.585875"><ele>2288.2</ele><time>2026-03-08T09:27:21.000Z</time></trkpt>
<trkpt lat="42.099077" lon="23.58587"><ele>2289.4</ele><time>2026-03-08T09:27:22.000Z</time></trkpt>
<trkpt lat="42.099075" lon="23.585865"><ele>2289.4</ele><time>2026-03-08T09:27:23.000Z</time></trkpt>
<trkpt lat="42.099072" lon="23.585859"><ele>2289.4</ele><time>2026-03-08T09:27:24.000Z</time></trkpt>
<trkpt lat="42.09907" lon="23.585853"><ele>2289.4</ele><time>2026-03-08T09:27:25.000Z</time></trkpt>
<trkpt lat="42.099068" lon="23.585847"><ele>2289.4</ele><time>2026-03-08T09:27:26.000Z</time></trkpt>
<trkpt lat="42.099066" lon="23.585839"><ele>2289.9</ele><time>2026-03-08T09:27:27.000Z</time></trkpt>
<trkpt lat="42.099065" lon="23.585832"><ele>2289.9</ele><time>2026-03-08T09:27:28.000Z</time></trkpt>
<trkpt lat="42.099063" lon="23.585825"><ele>2289.9</ele><time>2026-03-08T09:27:29.000Z</time></trkpt>
<trkpt lat="42.099061" lon="23.585818"><ele>2289.9</ele><time>2026-03-08T09:27:30.000Z</time></trkpt>
<trkpt lat="42.09906" lon="23.585811"><ele>2289.9</ele><time>2026-03-08T09:27:31.000Z</time></trkpt>
<trkpt lat="42.09906" lon="23.585804"><ele>2290.9</ele><time>2026-03-08T09:27:32.000Z</time></trkpt>
<trkpt lat="42.099058" lon="23.585797"><ele>2290.9</ele><time>2026-03-08T09:27:33.000Z</time></trkpt>
<trkpt lat="42.099057" lon="23.58579"><ele>2290.9</ele><time>2026-03-08T09:27:34.000Z</time></trkpt>
<trkpt lat="42.099056" lon="23.585782"><ele>2290.9</ele><time>2026-03-08T09:27:35.000Z</time></trkpt>
<trkpt lat="42.099054" lon="23.585776"><ele>2290.9</ele><time>2026-03-08T09:27:36.000Z</time></trkpt>
<trkpt lat="42.099052" lon="23.585769"><ele>2291.9</ele><time>2026-03-08T09:27:37.000Z</time></trkpt>
<trkpt lat="42.099051" lon="23.585763"><ele>2291.9</ele><time>2026-03-08T09:27:38.000Z</time></trkpt>
<trkpt lat="42.099051" lon="23.585756"><ele>2291.9</ele><time>2026-03-08T09:27:39.000Z</time></trkpt>
<trkpt lat="42.09905" lon="23.585749"><ele>2291.9</ele><time>2026-03-08T09:27:40.000Z</time></trkpt>
<trkpt lat="42.09905" lon="23.585742"><ele>2291.9</ele><time>2026-03-08T09:27:41.000Z</time></trkpt>
<trkpt lat="42.099049" lon="23.585734"><ele>2292.5</ele><time>2026-03-08T09:27:42.000Z</time></trkpt>
<trkpt lat="42.099049" lon="23.585726"><ele>2292.5</ele><time>2026-03-08T09:27:43.000Z</time></trkpt>
<trkpt lat="42.099049" lon="23.585718"><ele>2292.5</ele><time>2026-03-08T09:27:44.000Z</time></trkpt>
<trkpt lat="42.099049" lon="23.585709"><ele>2292.5</ele><time>2026-03-08T09:27:45.000Z</time></trkpt>
<trkpt lat="42.09905" lon="23.585701"><ele>2292.5</ele><time>2026-03-08T09:27:46.000Z</time></trkpt>
<trkpt lat="42.099051" lon="23.585693"><ele>2293.6</ele><time>2026-03-08T09:27:47.000Z</time></trkpt>
<trkpt lat="42.099052" lon="23.585684"><ele>2293.6</ele><time>2026-03-08T09:27:48.000Z</time></trkpt>
<trkpt lat="42.099052" lon="23.585676"><ele>2293.6</ele><time>2026-03-08T09:27:49.000Z</time></trkpt>
<trkpt lat="42.099052" lon="23.585667"><ele>2293.6</ele><time>2026-03-08T09:27:50.000Z</time></trkpt>
<trkpt lat="42.099052" lon="23.585657"><ele>2293.6</ele><time>2026-03-08T09:27:51.000Z</time></trkpt>
<trkpt lat="42.099052" lon="23.585648"><ele>2294.6</ele><time>2026-03-08T09:27:52.000Z</time></trkpt>
<trkpt lat="42.099051" lon="23.585638"><ele>2294.6</ele><time>2026-03-08T09:27:53.000Z</time></trkpt>
<trkpt lat="42.09905" lon="23.585626"><ele>2294.6</ele><time>2026-03-08T09:27:54.000Z</time></trkpt>
<trkpt lat="42.099047" lon="23.585615"><ele>2294.6</ele><time>2026-03-08T09:27:55.000Z</time></trkpt>
<trkpt lat="42.099044" lon="23.585604"><ele>2294.6</ele><time>2026-03-08T09:27:56.000Z</time></trkpt>
<trkpt lat="42.09904" lon="23.585592"><ele>2295</ele><time>2026-03-08T09:27:57.000Z</time></trkpt>
<trkpt lat="42.099036" lon="23.585581"><ele>2295</ele><time>2026-03-08T09:27:58.000Z</time></trkpt>
<trkpt lat="42.099032" lon="23.585573"><ele>2295</ele><time>2026-03-08T09:27:59.000Z</time></trkpt>
<trkpt lat="42.099029" lon="23.585564"><ele>2295</ele><time>2026-03-08T09:28:00.000Z</time></trkpt>
<trkpt lat="42.099026" lon="23.585556"><ele>2295</ele><time>2026-03-08T09:28:01.000Z</time></trkpt>
<trkpt lat="42.099024" lon="23.585548"><ele>2295.7</ele><time>2026-03-08T09:28:02.000Z</time></trkpt>
<trkpt lat="42.099021" lon="23.58554"><ele>2295.7</ele><time>2026-03-08T09:28:03.000Z</time></trkpt>
<trkpt lat="42.099019" lon="23.585532"><ele>2295.7</ele><time>2026-03-08T09:28:04.000Z</time></trkpt>
<trkpt lat="42.099017" lon="23.585524"><ele>2295.7</ele><time>2026-03-08T09:28:05.000Z</time></trkpt>
<trkpt lat="42.099015" lon="23.585516"><ele>2295.7</ele><time>2026-03-08T09:28:06.000Z</time></trkpt>
<trkpt lat="42.099014" lon="23.585508"><ele>2296.2</ele><time>2026-03-08T09:28:07.000Z</time></trkpt>
<trkpt lat="42.099013" lon="23.585501"><ele>2296.2</ele><time>2026-03-08T09:28:08.000Z</time></trkpt>
<trkpt lat="42.099011" lon="23.585493"><ele>2296.2</ele><time>2026-03-08T09:28:09.000Z</time></trkpt>
<trkpt lat="42.09901" lon="23.585486"><ele>2296.2</ele><time>2026-03-08T09:28:10.000Z</time></trkpt>
<trkpt lat="42.09901" lon="23.585479"><ele>2296.2</ele><time>2026-03-08T09:28:11.000Z</time></trkpt>
<trkpt lat="42.099009" lon="23.58547"><ele>2296.4</ele><time>2026-03-08T09:28:12.000Z</time></trkpt>
<trkpt lat="42.099008" lon="23.585462"><ele>2296.4</ele><time>2026-03-08T09:28:13.000Z</time></trkpt>
<trkpt lat="42.099008" lon="23.585454"><ele>2296.4</ele><time>2026-03-08T09:28:14.000Z</time></trkpt>
<trkpt lat="42.099007" lon="23.585446"><ele>2296.4</ele><time>2026-03-08T09:28:15.000Z</time></trkpt>
<trkpt lat="42.099006" lon="23.585438"><ele>2296.4</ele><time>2026-03-08T09:28:16.000Z</time></trkpt>
<trkpt lat="42.099005" lon="23.585429"><ele>2297.1</ele><time>2026-03-08T09:28:17.000Z</time></trkpt>
<trkpt lat="42.099004" lon="23.585421"><ele>2297.1</ele><time>2026-03-08T09:28:18.000Z</time></trkpt>
<trkpt lat="42.099003" lon="23.585413"><ele>2297.1</ele><time>2026-03-08T09:28:19.000Z</time></trkpt>
<trkpt lat="42.099001" lon="23.585405"><ele>2297.1</ele><time>2026-03-08T09:28:20.000Z</time></trkpt>
<trkpt lat="42.099" lon="23.585397"><ele>2297.1</ele><time>2026-03-08T09:28:21.000Z</time></trkpt>
<trkpt lat="42.098999" lon="23.58539"><ele>2297.9</ele><time>2026-03-08T09:28:22.000Z</time></trkpt>
<trkpt lat="42.098998" lon="23.585383"><ele>2297.9</ele><time>2026-03-08T09:28:23.000Z</time></trkpt>
<trkpt lat="42.098997" lon="23.585374"><ele>2297.9</ele><time>2026-03-08T09:28:24.000Z</time></trkpt>
<trkpt lat="42.098996" lon="23.585367"><ele>2297.9</ele><time>2026-03-08T09:28:25.000Z</time></trkpt>
<trkpt lat="42.098995" lon="23.585359"><ele>2297.9</ele><time>2026-03-08T09:28:26.000Z</time></trkpt>
<trkpt lat="42.098994" lon="23.58535"><ele>2298.2</ele><time>2026-03-08T09:28:27.000Z</time></trkpt>
<trkpt lat="42.098994" lon="23.585343"><ele>2298.2</ele><time>2026-03-08T09:28:28.000Z</time></trkpt>
<trkpt lat="42.098993" lon="23.585335"><ele>2298.2</ele><time>2026-03-08T09:28:29.000Z</time></trkpt>
<trkpt lat="42.098992" lon="23.585328"><ele>2298.2</ele><time>2026-03-08T09:28:30.000Z</time></trkpt>
<trkpt lat="42.098992" lon="23.585321"><ele>2298.2</ele><time>2026-03-08T09:28:31.000Z</time></trkpt>
<trkpt lat="42.098993" lon="23.585315"><ele>2299</ele><time>2026-03-08T09:28:32.000Z</time></trkpt>
<trkpt lat="42.098993" lon="23.585311"><ele>2299</ele><time>2026-03-08T09:28:33.000Z</time></trkpt>
<trkpt lat="42.098994" lon="23.585308"><ele>2299</ele><time>2026-03-08T09:28:34.000Z</time></trkpt>
<trkpt lat="42.098995" lon="23.585306"><ele>2299</ele><time>2026-03-08T09:28:35.000Z</time></trkpt>
<trkpt lat="42.098995" lon="23.585305"><ele>2299</ele><time>2026-03-08T09:28:36.000Z</time></trkpt>
<trkpt lat="42.098994" lon="23.585303"><ele>2299.9</ele><time>2026-03-08T09:28:37.000Z</time></trkpt>
<trkpt lat="42.098993" lon="23.5853"><ele>2299.9</ele><time>2026-03-08T09:28:38.000Z</time></trkpt>
<trkpt lat="42.098993" lon="23.585298"><ele>2299.9</ele><time>2026-03-08T09:28:39.000Z</time></trkpt>
<trkpt lat="42.098993" lon="23.585295"><ele>2299.9</ele><time>2026-03-08T09:28:40.000Z</time></trkpt>
<trkpt lat="42.098992" lon="23.585293"><ele>2299.9</ele><time>2026-03-08T09:28:41.000Z</time></trkpt>
<trkpt lat="42.098992" lon="23.585293"><ele>2300.3</ele><time>2026-03-08T09:28:42.000Z</time></trkpt>
<trkpt lat="42.098992" lon="23.585292"><ele>2300.3</ele><time>2026-03-08T09:28:43.000Z</time></trkpt>
<trkpt lat="42.098992" lon="23.585291"><ele>2300.3</ele><time>2026-03-08T09:28:44.000Z</time></trkpt>
<trkpt lat="42.098992" lon="23.585291"><ele>2300.3</ele><time>2026-03-08T09:28:45.000Z</time></trkpt>
<trkpt lat="42.098992" lon="23.585291"><ele>2300.3</ele><time>2026-03-08T09:28:46.000Z</time></trkpt>
<trkpt lat="42.098992" lon="23.585291"><ele>2300.7</ele><time>2026-03-08T09:28:47.000Z</time></trkpt>
<trkpt lat="42.098992" lon="23.585291"><ele>2300.7</ele><time>2026-03-08T09:28:48.000Z</time></trkpt>
<trkpt lat="42.098992" lon="23.585291"><ele>2300.7</ele><time>2026-03-08T09:28:49.000Z</time></trkpt>
<trkpt lat="42.098992" lon="23.585291"><ele>2300.7</ele><time>2026-03-08T09:28:50.000Z</time></trkpt>
<trkpt lat="42.098992" lon="23.585291"><ele>2300.7</ele><time>2026-03-08T09:28:51.000Z</time></trkpt>
<trkpt lat="42.098992" lon="23.585292"><ele>2300.7</ele><time>2026-03-08T09:28:52.000Z</time></trkpt>
<trkpt lat="42.098992" lon="23.585292"><ele>2300.7</ele><time>2026-03-08T09:28:53.000Z</time></trkpt>
<trkpt lat="42.098991" lon="23.585292"><ele>2300.7</ele><time>2026-03-08T09:28:54.000Z</time></trkpt>
<trkpt lat="42.09899" lon="23.585292"><ele>2300.7</ele><time>2026-03-08T09:28:55.000Z</time></trkpt>
<trkpt lat="42.09899" lon="23.585292"><ele>2300.7</ele><time>2026-03-08T09:28:56.000Z</time></trkpt>
<trkpt lat="42.098989" lon="23.585291"><ele>2300.7</ele><time>2026-03-08T09:28:57.000Z</time></trkpt>
<trkpt lat="42.098989" lon="23.585291"><ele>2300.7</ele><time>2026-03-08T09:28:58.000Z</time></trkpt>
<trkpt lat="42.098989" lon="23.585291"><ele>2300.7</ele><time>2026-03-08T09:28:59.000Z</time></trkpt>
<trkpt lat="42.09899" lon="23.585291"><ele>2300.7</ele><time>2026-03-08T09:29:00.000Z</time></trkpt>
<trkpt lat="42.098991" lon="23.585291"><ele>2300.7</ele><time>2026-03-08T09:29:01.000Z</time></trkpt>
<trkpt lat="42.098992" lon="23.585291"><ele>2300.8</ele><time>2026-03-08T09:29:02.000Z</time></trkpt>
<trkpt lat="42.098992" lon="23.585291"><ele>2300.8</ele><time>2026-03-08T09:29:03.000Z</time></trkpt>
<trkpt lat="42.098991" lon="23.585291"><ele>2300.8</ele><time>2026-03-08T09:29:04.000Z</time></trkpt>
<trkpt lat="42.098991" lon="23.58529"><ele>2300.8</ele><time>2026-03-08T09:29:05.000Z</time></trkpt>
<trkpt lat="42.098989" lon="23.585289"><ele>2300.8</ele><time>2026-03-08T09:29:06.000Z</time></trkpt>
<trkpt lat="42.098988" lon="23.585285"><ele>2300.9</ele><time>2026-03-08T09:29:07.000Z</time></trkpt>
<trkpt lat="42.098987" lon="23.585279"><ele>2300.9</ele><time>2026-03-08T09:29:08.000Z</time></trkpt>
<trkpt lat="42.098985" lon="23.585269"><ele>2300.9</ele><time>2026-03-08T09:29:09.000Z</time></trkpt>
<trkpt lat="42.098984" lon="23.585258"><ele>2300.9</ele><time>2026-03-08T09:29:10.000Z</time></trkpt>
<trkpt lat="42.098983" lon="23.585246"><ele>2300.9</ele><time>2026-03-08T09:29:11.000Z</time></trkpt>
<trkpt lat="42.098983" lon="23.585235"><ele>2300.9</ele><time>2026-03-08T09:29:12.000Z</time></trkpt>
<trkpt lat="42.098982" lon="23.585224"><ele>2300.9</ele><time>2026-03-08T09:29:13.000Z</time></trkpt>
<trkpt lat="42.098982" lon="23.585214"><ele>2300.9</ele><time>2026-03-08T09:29:14.000Z</time></trkpt>
<trkpt lat="42.098982" lon="23.585204"><ele>2300.9</ele><time>2026-03-08T09:29:15.000Z</time></trkpt>
<trkpt lat="42.098981" lon="23.585195"><ele>2300.9</ele><time>2026-03-08T09:29:16.000Z</time></trkpt>
<trkpt lat="42.09898" lon="23.585185"><ele>2301.2</ele><time>2026-03-08T09:29:17.000Z</time></trkpt>
<trkpt lat="42.098979" lon="23.585175"><ele>2301.2</ele><time>2026-03-08T09:29:18.000Z</time></trkpt>
<trkpt lat="42.098978" lon="23.585165"><ele>2301.2</ele><time>2026-03-08T09:29:19.000Z</time></trkpt>
<trkpt lat="42.098977" lon="23.585155"><ele>2301.2</ele><time>2026-03-08T09:29:20.000Z</time></trkpt>
<trkpt lat="42.098975" lon="23.585144"><ele>2301.2</ele><time>2026-03-08T09:29:21.000Z</time></trkpt>
<trkpt lat="42.098973" lon="23.585133"><ele>2301.7</ele><time>2026-03-08T09:29:22.000Z</time></trkpt>
<trkpt lat="42.098971" lon="23.585122"><ele>2301.7</ele><time>2026-03-08T09:29:23.000Z</time></trkpt>
<trkpt lat="42.098968" lon="23.585112"><ele>2301.7</ele><time>2026-03-08T09:29:24.000Z</time></trkpt>
<trkpt lat="42.098966" lon="23.585101"><ele>2301.7</ele><time>2026-03-08T09:29:25.000Z</time></trkpt>
<trkpt lat="42.098963" lon="23.58509"><ele>2301.7</ele><time>2026-03-08T09:29:26.000Z</time></trkpt>
<trkpt lat="42.098961" lon="23.585081"><ele>2302</ele><time>2026-03-08T09:29:27.000Z</time></trkpt>
<trkpt lat="42.098958" lon="23.585071"><ele>2302</ele><time>2026-03-08T09:29:28.000Z</time></trkpt>
<trkpt lat="42.098956" lon="23.585061"><ele>2302</ele><time>2026-03-08T09:29:29.000Z</time></trkpt>
<trkpt lat="42.098952" lon="23.585051"><ele>2302</ele><time>2026-03-08T09:29:30.000Z</time></trkpt>
<trkpt lat="42.098949" lon="23.58504"><ele>2302</ele><time>2026-03-08T09:29:31.000Z</time></trkpt>
<trkpt lat="42.098945" lon="23.585028"><ele>2302.5</ele><time>2026-03-08T09:29:32.000Z</time></trkpt>
<trkpt lat="42.098941" lon="23.585017"><ele>2302.5</ele><time>2026-03-08T09:29:33.000Z</time></trkpt>
<trkpt lat="42.098937" lon="23.585006"><ele>2302.5</ele><time>2026-03-08T09:29:34.000Z</time></trkpt>
<trkpt lat="42.098933" lon="23.584996"><ele>2302.5</ele><time>2026-03-08T09:29:35.000Z</time></trkpt>
<trkpt lat="42.09893" lon="23.584986"><ele>2302.5</ele><time>2026-03-08T09:29:36.000Z</time></trkpt>
<trkpt lat="42.098927" lon="23.584977"><ele>2302.9</ele><time>2026-03-08T09:29:37.000Z</time></trkpt>
<trkpt lat="42.098923" lon="23.584969"><ele>2302.9</ele><time>2026-03-08T09:29:38.000Z</time></trkpt>
<trkpt lat="42.098921" lon="23.584962"><ele>2302.9</ele><time>2026-03-08T09:29:39.000Z</time></trkpt>
<trkpt lat="42.098918" lon="23.584953"><ele>2302.9</ele><time>2026-03-08T09:29:40.000Z</time></trkpt>
<trkpt lat="42.098915" lon="23.584944"><ele>2302.9</ele><time>2026-03-08T09:29:41.000Z</time></trkpt>
<trkpt lat="42.098913" lon="23.584936"><ele>2303</ele><time>2026-03-08T09:29:42.000Z</time></trkpt>
<trkpt lat="42.098911" lon="23.584927"><ele>2303</ele><time>2026-03-08T09:29:43.000Z</time></trkpt>
<trkpt lat="42.098908" lon="23.584917"><ele>2303</ele><time>2026-03-08T09:29:44.000Z</time></trkpt>
<trkpt lat="42.098904" lon="23.584908"><ele>2303</ele><time>2026-03-08T09:29:45.000Z</time></trkpt>
<trkpt lat="42.098901" lon="23.5849"><ele>2303</ele><time>2026-03-08T09:29:46.000Z</time></trkpt>
<trkpt lat="42.098897" lon="23.584892"><ele>2303.4</ele><time>2026-03-08T09:29:47.000Z</time></trkpt>
<trkpt lat="42.098893" lon="23.584884"><ele>2303.4</ele><time>2026-03-08T09:29:48.000Z</time></trkpt>
<trkpt lat="42.09889" lon="23.584876"><ele>2303.4</ele><time>2026-03-08T09:29:49.000Z</time></trkpt>
<trkpt lat="42.098887" lon="23.584867"><ele>2303.4</ele><time>2026-03-08T09:29:50.000Z</time></trkpt>
<trkpt lat="42.098885" lon="23.584858"><ele>2303.4</ele><time>2026-03-08T09:29:51.000Z</time></trkpt>
<trkpt lat="42.098883" lon="23.584849"><ele>2303.8</ele><time>2026-03-08T09:29:52.000Z</time></trkpt>
<trkpt lat="42.09888" lon="23.58484"><ele>2303.8</ele><time>2026-03-08T09:29:53.000Z</time></trkpt>
<trkpt lat="42.098877" lon="23.584832"><ele>2303.8</ele><time>2026-03-08T09:29:54.000Z</time></trkpt>
<trkpt lat="42.098875" lon="23.584825"><ele>2303.8</ele><time>2026-03-08T09:29:55.000Z</time></trkpt>
<trkpt lat="42.098871" lon="23.584817"><ele>2303.8</ele><time>2026-03-08T09:29:56.000Z</time></trkpt>
<trkpt lat="42.098868" lon="23.584809"><ele>2303.9</ele><time>2026-03-08T09:29:57.000Z</time></trkpt>
<trkpt lat="42.098866" lon="23.584801"><ele>2303.9</ele><time>2026-03-08T09:29:58.000Z</time></trkpt>
<trkpt lat="42.098863" lon="23.584792"><ele>2303.9</ele><time>2026-03-08T09:29:59.000Z</time></trkpt>
<trkpt lat="42.09886" lon="23.584783"><ele>2303.9</ele><time>2026-03-08T09:30:00.000Z</time></trkpt>
<trkpt lat="42.098858" lon="23.584774"><ele>2303.9</ele><time>2026-03-08T09:30:01.000Z</time></trkpt>
<trkpt lat="42.098854" lon="23.584765"><ele>2304</ele><time>2026-03-08T09:30:02.000Z</time></trkpt>
<trkpt lat="42.098851" lon="23.584758"><ele>2304</ele><time>2026-03-08T09:30:03.000Z</time></trkpt>
<trkpt lat="42.098848" lon="23.58475"><ele>2304</ele><time>2026-03-08T09:30:04.000Z</time></trkpt>
<trkpt lat="42.098845" lon="23.584743"><ele>2304</ele><time>2026-03-08T09:30:05.000Z</time></trkpt>
<trkpt lat="42.098842" lon="23.584736"><ele>2304</ele><time>2026-03-08T09:30:06.000Z</time></trkpt>
<trkpt lat="42.098838" lon="23.584727"><ele>2304.2</ele><time>2026-03-08T09:30:07.000Z</time></trkpt>
<trkpt lat="42.098833" lon="23.584718"><ele>2304.2</ele><time>2026-03-08T09:30:08.000Z</time></trkpt>
<trkpt lat="42.098829" lon="23.584711"><ele>2304.2</ele><time>2026-03-08T09:30:09.000Z</time></trkpt>
<trkpt lat="42.098825" lon="23.584703"><ele>2304.2</ele><time>2026-03-08T09:30:10.000Z</time></trkpt>
<trkpt lat="42.09882" lon="23.584695"><ele>2304.2</ele><time>2026-03-08T09:30:11.000Z</time></trkpt>
<trkpt lat="42.098818" lon="23.584688"><ele>2304.4</ele><time>2026-03-08T09:30:12.000Z</time></trkpt>
<trkpt lat="42.098816" lon="23.584681"><ele>2304.4</ele><time>2026-03-08T09:30:13.000Z</time></trkpt>
<trkpt lat="42.098814" lon="23.584673"><ele>2304.4</ele><time>2026-03-08T09:30:14.000Z</time></trkpt>
<trkpt lat="42.098812" lon="23.584666"><ele>2304.4</ele><time>2026-03-08T09:30:15.000Z</time></trkpt>
<trkpt lat="42.09881" lon="23.584658"><ele>2304.4</ele><time>2026-03-08T09:30:16.000Z</time></trkpt>
<trkpt lat="42.098807" lon="23.584651"><ele>2305</ele><time>2026-03-08T09:30:17.000Z</time></trkpt>
<trkpt lat="42.098803" lon="23.584643"><ele>2305</ele><time>2026-03-08T09:30:18.000Z</time></trkpt>
<trkpt lat="42.098799" lon="23.584635"><ele>2305</ele><time>2026-03-08T09:30:19.000Z</time></trkpt>
<trkpt lat="42.098794" lon="23.584625"><ele>2305</ele><time>2026-03-08T09:30:20.000Z</time></trkpt>
<trkpt lat="42.09879" lon="23.584616"><ele>2305</ele><time>2026-03-08T09:30:21.000Z</time></trkpt>
<trkpt lat="42.098787" lon="23.584607"><ele>2305.6</ele><time>2026-03-08T09:30:22.000Z</time></trkpt>
<trkpt lat="42.098784" lon="23.584598"><ele>2305.6</ele><time>2026-03-08T09:30:23.000Z</time></trkpt>
<trkpt lat="42.098781" lon="23.584589"><ele>2305.6</ele><time>2026-03-08T09:30:24.000Z</time></trkpt>
<trkpt lat="42.098779" lon="23.584582"><ele>2305.6</ele><time>2026-03-08T09:30:25.000Z</time></trkpt>
<trkpt lat="42.098777" lon="23.584575"><ele>2305.6</ele><time>2026-03-08T09:30:26.000Z</time></trkpt>
<trkpt lat="42.098774" lon="23.584566"><ele>2305.8</ele><time>2026-03-08T09:30:27.000Z</time></trkpt>
<trkpt lat="42.098772" lon="23.584559"><ele>2305.8</ele><time>2026-03-08T09:30:28.000Z</time></trkpt>
<trkpt lat="42.09877" lon="23.584551"><ele>2305.8</ele><time>2026-03-08T09:30:29.000Z</time></trkpt>
<trkpt lat="42.098768" lon="23.584542"><ele>2305.8</ele><time>2026-03-08T09:30:30.000Z</time></trkpt>
<trkpt lat="42.098766" lon="23.584534"><ele>2305.8</ele><time>2026-03-08T09:30:31.000Z</time></trkpt>
<trkpt lat="42.098765" lon="23.584525"><ele>2306.2</ele><time>2026-03-08T09:30:32.000Z</time></trkpt>
<trkpt lat="42.098764" lon="23.584516"><ele>2306.2</ele><time>2026-03-08T09:30:33.000Z</time></trkpt>
<trkpt lat="42.098762" lon="23.584506"><ele>2306.2</ele><time>2026-03-08T09:30:34.000Z</time></trkpt>
<trkpt lat="42.098759" lon="23.584497"><ele>2306.2</ele><time>2026-03-08T09:30:35.000Z</time></trkpt>
<trkpt lat="42.098757" lon="23.584486"><ele>2306.2</ele><time>2026-03-08T09:30:36.000Z</time></trkpt>
<trkpt lat="42.098756" lon="23.584476"><ele>2306.6</ele><time>2026-03-08T09:30:37.000Z</time></trkpt>
<trkpt lat="42.098755" lon="23.584469"><ele>2306.6</ele><time>2026-03-08T09:30:38.000Z</time></trkpt>
<trkpt lat="42.098754" lon="23.584464"><ele>2306.6</ele><time>2026-03-08T09:30:39.000Z</time></trkpt>
<trkpt lat="42.098754" lon="23.584461"><ele>2306.6</ele><time>2026-03-08T09:30:40.000Z</time></trkpt>
<trkpt lat="42.098755" lon="23.584461"><ele>2306.6</ele><time>2026-03-08T09:30:41.000Z</time></trkpt>
<trkpt lat="42.098754" lon="23.584461"><ele>2306.8</ele><time>2026-03-08T09:30:42.000Z</time></trkpt>
<trkpt lat="42.098754" lon="23.584461"><ele>2306.8</ele><time>2026-03-08T09:30:43.000Z</time></trkpt>
<trkpt lat="42.098754" lon="23.58446"><ele>2306.8</ele><time>2026-03-08T09:30:44.000Z</time></trkpt>
<trkpt lat="42.098754" lon="23.584459"><ele>2306.8</ele><time>2026-03-08T09:30:45.000Z</time></trkpt>
<trkpt lat="42.098754" lon="23.584458"><ele>2306.8</ele><time>2026-03-08T09:30:46.000Z</time></trkpt>
<trkpt lat="42.098754" lon="23.584457"><ele>2307.3</ele><time>2026-03-08T09:30:47.000Z</time></trkpt>
<trkpt lat="42.098754" lon="23.584457"><ele>2307.3</ele><time>2026-03-08T09:30:48.000Z</time></trkpt>
<trkpt lat="42.098754" lon="23.584457"><ele>2307.3</ele><time>2026-03-08T09:30:49.000Z</time></trkpt>
<trkpt lat="42.098754" lon="23.584457"><ele>2307.3</ele><time>2026-03-08T09:30:50.000Z</time></trkpt>
<trkpt lat="42.098754" lon="23.584457"><ele>2307.3</ele><time>2026-03-08T09:30:51.000Z</time></trkpt>
<trkpt lat="42.098754" lon="23.584457"><ele>2307.6</ele><time>2026-03-08T09:30:52.000Z</time></trkpt>
<trkpt lat="42.098754" lon="23.584457"><ele>2307.6</ele><time>2026-03-08T09:30:53.000Z</time></trkpt>
<trkpt lat="42.098754" lon="23.584457"><ele>2307.6</ele><time>2026-03-08T09:30:54.000Z</time></trkpt>
<trkpt lat="42.098754" lon="23.584457"><ele>2307.6</ele><time>2026-03-08T09:30:55.000Z</time></trkpt>
<trkpt lat="42.098754" lon="23.584457"><ele>2307.6</ele><time>2026-03-08T09:30:56.000Z</time></trkpt>
<trkpt lat="42.098754" lon="23.584457"><ele>2307.8</ele><time>2026-03-08T09:30:57.000Z</time></trkpt>
<trkpt lat="42.098754" lon="23.584457"><ele>2307.8</ele><time>2026-03-08T09:30:58.000Z</time></trkpt>
<trkpt lat="42.098754" lon="23.584457"><ele>2307.8</ele><time>2026-03-08T09:30:59.000Z</time></trkpt>
<trkpt lat="42.098754" lon="23.584457"><ele>2307.8</ele><time>2026-03-08T09:31:00.000Z</time></trkpt>
<trkpt lat="42.098754" lon="23.584457"><ele>2307.8</ele><time>2026-03-08T09:31:01.000Z</time></trkpt>
<trkpt lat="42.098754" lon="23.584457"><ele>2307.9</ele><time>2026-03-08T09:31:02.000Z</time></trkpt>
<trkpt lat="42.098754" lon="23.584457"><ele>2307.9</ele><time>2026-03-08T09:31:03.000Z</time></trkpt>
<trkpt lat="42.098754" lon="23.584457"><ele>2307.9</ele><time>2026-03-08T09:31:04.000Z</time></trkpt>
<trkpt lat="42.098754" lon="23.584457"><ele>2307.9</ele><time>2026-03-08T09:31:05.000Z</time></trkpt>
<trkpt lat="42.098754" lon="23.584457"><ele>2307.9</ele><time>2026-03-08T09:31:06.000Z</time></trkpt>
<trkpt lat="42.098754" lon="23.584457"><ele>2307.9</ele><time>2026-03-08T09:31:07.000Z</time></trkpt>
<trkpt lat="42.098754" lon="23.584457"><ele>2307.9</ele><time>2026-03-08T09:31:08.000Z</time></trkpt>
<trkpt lat="42.098754" lon="23.584457"><ele>2307.9</ele><time>2026-03-08T09:31:09.000Z</time></trkpt>
<trkpt lat="42.098754" lon="23.584457"><ele>2307.9</ele><time>2026-03-08T09:31:10.000Z</time></trkpt>
<trkpt lat="42.098754" lon="23.584457"><ele>2307.9</ele><time>2026-03-08T09:31:11.000Z</time></trkpt>
<trkpt lat="42.098754" lon="23.584457"><ele>2307.9</ele><time>2026-03-08T09:31:12.000Z</time></trkpt>
<trkpt lat="42.098754" lon="23.584457"><ele>2307.9</ele><time>2026-03-08T09:31:13.000Z</time></trkpt>
<trkpt lat="42.098754" lon="23.584457"><ele>2307.9</ele><time>2026-03-08T09:31:14.000Z</time></trkpt>
<trkpt lat="42.098754" lon="23.584457"><ele>2307.9</ele><time>2026-03-08T09:31:15.000Z</time></trkpt>
<trkpt lat="42.098754" lon="23.584457"><ele>2307.9</ele><time>2026-03-08T09:31:16.000Z</time></trkpt>
<trkpt lat="42.098754" lon="23.584457"><ele>2307.8</ele><time>2026-03-08T09:31:17.000Z</time></trkpt>
<trkpt lat="42.098754" lon="23.584457"><ele>2307.8</ele><time>2026-03-08T09:31:18.000Z</time></trkpt>
<trkpt lat="42.098754" lon="23.584457"><ele>2307.8</ele><time>2026-03-08T09:31:19.000Z</time></trkpt>
<trkpt lat="42.098754" lon="23.584457"><ele>2307.8</ele><time>2026-03-08T09:31:20.000Z</time></trkpt>
<trkpt lat="42.098754" lon="23.584457"><ele>2307.8</ele><time>2026-03-08T09:31:21.000Z</time></trkpt>
<trkpt lat="42.098754" lon="23.584457"><ele>2307.8</ele><time>2026-03-08T09:31:22.000Z</time></trkpt>
<trkpt lat="42.098754" lon="23.584457"><ele>2307.8</ele><time>2026-03-08T09:31:23.000Z</time></trkpt>
<trkpt lat="42.098754" lon="23.584457"><ele>2307.8</ele><time>2026-03-08T09:31:24.000Z</time></trkpt>
<trkpt lat="42.098754" lon="23.584457"><ele>2307.8</ele><time>2026-03-08T09:31:25.000Z</time></trkpt>
<trkpt lat="42.098754" lon="23.584457"><ele>2307.8</ele><time>2026-03-08T09:31:26.000Z</time></trkpt>
<trkpt lat="42.098753" lon="23.584457"><ele>2307.9</ele><time>2026-03-08T09:31:27.000Z</time></trkpt>
<trkpt lat="42.098753" lon="23.584457"><ele>2307.9</ele><time>2026-03-08T09:31:28.000Z</time></trkpt>
<trkpt lat="42.098752" lon="23.584457"><ele>2307.9</ele><time>2026-03-08T09:31:29.000Z</time></trkpt>
<trkpt lat="42.098751" lon="23.584457"><ele>2307.9</ele><time>2026-03-08T09:31:30.000Z</time></trkpt>
<trkpt lat="42.09875" lon="23.584457"><ele>2307.9</ele><time>2026-03-08T09:31:31.000Z</time></trkpt>
<trkpt lat="42.09875" lon="23.584456"><ele>2308.1</ele><time>2026-03-08T09:31:32.000Z</time></trkpt>
<trkpt lat="42.09875" lon="23.584456"><ele>2308.1</ele><time>2026-03-08T09:31:33.000Z</time></trkpt>
<trkpt lat="42.09875" lon="23.584455"><ele>2308.1</ele><time>2026-03-08T09:31:34.000Z</time></trkpt>
<trkpt lat="42.09875" lon="23.584455"><ele>2308.1</ele><time>2026-03-08T09:31:35.000Z</time></trkpt>
<trkpt lat="42.09875" lon="23.584455"><ele>2308.1</ele><time>2026-03-08T09:31:36.000Z</time></trkpt>
<trkpt lat="42.098751" lon="23.584455"><ele>2308.4</ele><time>2026-03-08T09:31:37.000Z</time></trkpt>
<trkpt lat="42.098752" lon="23.584455"><ele>2308.4</ele><time>2026-03-08T09:31:38.000Z</time></trkpt>
<trkpt lat="42.098753" lon="23.584456"><ele>2308.4</ele><time>2026-03-08T09:31:39.000Z</time></trkpt>
<trkpt lat="42.098754" lon="23.584456"><ele>2308.4</ele><time>2026-03-08T09:31:40.000Z</time></trkpt>
<trkpt lat="42.098754" lon="23.584456"><ele>2308.4</ele><time>2026-03-08T09:31:41.000Z</time></trkpt>
<trkpt lat="42.098754" lon="23.584456"><ele>2308.5</ele><time>2026-03-08T09:31:42.000Z</time></trkpt>
<trkpt lat="42.098753" lon="23.584456"><ele>2308.5</ele><time>2026-03-08T09:31:43.000Z</time></trkpt>
<trkpt lat="42.098752" lon="23.584457"><ele>2308.5</ele><time>2026-03-08T09:31:44.000Z</time></trkpt>
<trkpt lat="42.098751" lon="23.584457"><ele>2308.5</ele><time>2026-03-08T09:31:45.000Z</time></trkpt>
<trkpt lat="42.09875" lon="23.584457"><ele>2308.5</ele><time>2026-03-08T09:31:46.000Z</time></trkpt>
<trkpt lat="42.098748" lon="23.584457"><ele>2308.5</ele><time>2026-03-08T09:31:47.000Z</time></trkpt>
<trkpt lat="42.098746" lon="23.584458"><ele>2308.5</ele><time>2026-03-08T09:31:48.000Z</time></trkpt>
<trkpt lat="42.098745" lon="23.584456"><ele>2308.5</ele><time>2026-03-08T09:31:49.000Z</time></trkpt>
<trkpt lat="42.098743" lon="23.584454"><ele>2308.5</ele><time>2026-03-08T09:31:50.000Z</time></trkpt>
<trkpt lat="42.098741" lon="23.58445"><ele>2308.5</ele><time>2026-03-08T09:31:51.000Z</time></trkpt>
<trkpt lat="42.098739" lon="23.584444"><ele>2308.5</ele><time>2026-03-08T09:31:52.000Z</time></trkpt>
<trkpt lat="42.098738" lon="23.584437"><ele>2308.5</ele><time>2026-03-08T09:31:53.000Z</time></trkpt>
<trkpt lat="42.098735" lon="23.58443"><ele>2308.5</ele><time>2026-03-08T09:31:54.000Z</time></trkpt>
<trkpt lat="42.098732" lon="23.584422"><ele>2308.5</ele><time>2026-03-08T09:31:55.000Z</time></trkpt>
<trkpt lat="42.09873" lon="23.584414"><ele>2308.5</ele><time>2026-03-08T09:31:56.000Z</time></trkpt>
<trkpt lat="42.098728" lon="23.584406"><ele>2308.6</ele><time>2026-03-08T09:31:57.000Z</time></trkpt>
<trkpt lat="42.098726" lon="23.584399"><ele>2308.6</ele><time>2026-03-08T09:31:58.000Z</time></trkpt>
<trkpt lat="42.098724" lon="23.584392"><ele>2308.6</ele><time>2026-03-08T09:31:59.000Z</time></trkpt>
<trkpt lat="42.098724" lon="23.584385"><ele>2308.6</ele><time>2026-03-08T09:32:00.000Z</time></trkpt>
<trkpt lat="42.098723" lon="23.584379"><ele>2308.6</ele><time>2026-03-08T09:32:01.000Z</time></trkpt>
<trkpt lat="42.098723" lon="23.584373"><ele>2308.8</ele><time>2026-03-08T09:32:02.000Z</time></trkpt>
<trkpt lat="42.098724" lon="23.584368"><ele>2308.8</ele><time>2026-03-08T09:32:03.000Z</time></trkpt>
<trkpt lat="42.098725" lon="23.584365"><ele>2308.8</ele><time>2026-03-08T09:32:04.000Z</time></trkpt>
<trkpt lat="42.098727" lon="23.584361"><ele>2308.8</ele><time>2026-03-08T09:32:05.000Z</time></trkpt>
<trkpt lat="42.09873" lon="23.584357"><ele>2308.8</ele><time>2026-03-08T09:32:06.000Z</time></trkpt>
<trkpt lat="42.098733" lon="23.584351"><ele>2309.2</ele><time>2026-03-08T09:32:07.000Z</time></trkpt>
<trkpt lat="42.098736" lon="23.584344"><ele>2309.2</ele><time>2026-03-08T09:32:08.000Z</time></trkpt>
<trkpt lat="42.098738" lon="23.584335"><ele>2309.2</ele><time>2026-03-08T09:32:09.000Z</time></trkpt>
<trkpt lat="42.09874" lon="23.584327"><ele>2309.2</ele><time>2026-03-08T09:32:10.000Z</time></trkpt>
<trkpt lat="42.098741" lon="23.584319"><ele>2309.2</ele><time>2026-03-08T09:32:11.000Z</time></trkpt>
<trkpt lat="42.098741" lon="23.584311"><ele>2309.4</ele><time>2026-03-08T09:32:12.000Z</time></trkpt>
<trkpt lat="42.098741" lon="23.584303"><ele>2309.4</ele><time>2026-03-08T09:32:13.000Z</time></trkpt>
<trkpt lat="42.098742" lon="23.584296"><ele>2309.4</ele><time>2026-03-08T09:32:14.000Z</time></trkpt>
<trkpt lat="42.098743" lon="23.584288"><ele>2309.4</ele><time>2026-03-08T09:32:15.000Z</time></trkpt>
<trkpt lat="42.098744" lon="23.584281"><ele>2309.4</ele><time>2026-03-08T09:32:16.000Z</time></trkpt>
<trkpt lat="42.098744" lon="23.584272"><ele>2309.9</ele><time>2026-03-08T09:32:17.000Z</time></trkpt>
<trkpt lat="42.098745" lon="23.584264"><ele>2309.9</ele><time>2026-03-08T09:32:18.000Z</time></trkpt>
<trkpt lat="42.098746" lon="23.584255"><ele>2309.9</ele><time>2026-03-08T09:32:19.000Z</time></trkpt>
<trkpt lat="42.098745" lon="23.584248"><ele>2309.9</ele><time>2026-03-08T09:32:20.000Z</time></trkpt>
<trkpt lat="42.098745" lon="23.58424"><ele>2309.9</ele><time>2026-03-08T09:32:21.000Z</time></trkpt>
<trkpt lat="42.098745" lon="23.584232"><ele>2310.4</ele><time>2026-03-08T09:32:22.000Z</time></trkpt>
<trkpt lat="42.098745" lon="23.584224"><ele>2310.4</ele><time>2026-03-08T09:32:23.000Z</time></trkpt>
<trkpt lat="42.098746" lon="23.584215"><ele>2310.4</ele><time>2026-03-08T09:32:24.000Z</time></trkpt>
<trkpt lat="42.098747" lon="23.584206"><ele>2310.4</ele><time>2026-03-08T09:32:25.000Z</time></trkpt>
<trkpt lat="42.098749" lon="23.584196"><ele>2310.4</ele><time>2026-03-08T09:32:26.000Z</time></trkpt>
<trkpt lat="42.09875" lon="23.584187"><ele>2310.7</ele><time>2026-03-08T09:32:27.000Z</time></trkpt>
<trkpt lat="42.098751" lon="23.584178"><ele>2310.7</ele><time>2026-03-08T09:32:28.000Z</time></trkpt>
<trkpt lat="42.098752" lon="23.58417"><ele>2310.7</ele><time>2026-03-08T09:32:29.000Z</time></trkpt>
<trkpt lat="42.098752" lon="23.584162"><ele>2310.7</ele><time>2026-03-08T09:32:30.000Z</time></trkpt>
<trkpt lat="42.098752" lon="23.584155"><ele>2310.7</ele><time>2026-03-08T09:32:31.000Z</time></trkpt>
<trkpt lat="42.098752" lon="23.584148"><ele>2311.4</ele><time>2026-03-08T09:32:32.000Z</time></trkpt>
<trkpt lat="42.09875" lon="23.584143"><ele>2311.4</ele><time>2026-03-08T09:32:33.000Z</time></trkpt>
<trkpt lat="42.098749" lon="23.584138"><ele>2311.4</ele><time>2026-03-08T09:32:34.000Z</time></trkpt>
<trkpt lat="42.098746" lon="23.584134"><ele>2311.4</ele><time>2026-03-08T09:32:35.000Z</time></trkpt>
<trkpt lat="42.098744" lon="23.58413"><ele>2311.4</ele><time>2026-03-08T09:32:36.000Z</time></trkpt>
<trkpt lat="42.098742" lon="23.584128"><ele>2312.2</ele><time>2026-03-08T09:32:37.000Z</time></trkpt>
<trkpt lat="42.098741" lon="23.584126"><ele>2312.2</ele><time>2026-03-08T09:32:38.000Z</time></trkpt>
<trkpt lat="42.098741" lon="23.584124"><ele>2312.2</ele><time>2026-03-08T09:32:39.000Z</time></trkpt>
<trkpt lat="42.098742" lon="23.584123"><ele>2312.2</ele><time>2026-03-08T09:32:40.000Z</time></trkpt>
<trkpt lat="42.098744" lon="23.584122"><ele>2312.2</ele><time>2026-03-08T09:32:41.000Z</time></trkpt>
<trkpt lat="42.098746" lon="23.584122"><ele>2312.6</ele><time>2026-03-08T09:32:42.000Z</time></trkpt>
<trkpt lat="42.098748" lon="23.584121"><ele>2312.6</ele><time>2026-03-08T09:32:43.000Z</time></trkpt>
<trkpt lat="42.09875" lon="23.584119"><ele>2312.6</ele><time>2026-03-08T09:32:44.000Z</time></trkpt>
<trkpt lat="42.09875" lon="23.584118"><ele>2312.6</ele><time>2026-03-08T09:32:45.000Z</time></trkpt>
<trkpt lat="42.098749" lon="23.584116"><ele>2312.6</ele><time>2026-03-08T09:32:46.000Z</time></trkpt>
<trkpt lat="42.09875" lon="23.584113"><ele>2313</ele><time>2026-03-08T09:32:47.000Z</time></trkpt>
<trkpt lat="42.09875" lon="23.584108"><ele>2313</ele><time>2026-03-08T09:32:48.000Z</time></trkpt>
<trkpt lat="42.098751" lon="23.584103"><ele>2313</ele><time>2026-03-08T09:32:49.000Z</time></trkpt>
<trkpt lat="42.098753" lon="23.584098"><ele>2313</ele><time>2026-03-08T09:32:50.000Z</time></trkpt>
<trkpt lat="42.098755" lon="23.584092"><ele>2313</ele><time>2026-03-08T09:32:51.000Z</time></trkpt>
<trkpt lat="42.098757" lon="23.584087"><ele>2313.3</ele><time>2026-03-08T09:32:52.000Z</time></trkpt>
<trkpt lat="42.098758" lon="23.584081"><ele>2313.3</ele><time>2026-03-08T09:32:53.000Z</time></trkpt>
<trkpt lat="42.098761" lon="23.584075"><ele>2313.3</ele><time>2026-03-08T09:32:54.000Z</time></trkpt>
<trkpt lat="42.098762" lon="23.584068"><ele>2313.3</ele><time>2026-03-08T09:32:55.000Z</time></trkpt>
<trkpt lat="42.098765" lon="23.584061"><ele>2313.3</ele><time>2026-03-08T09:32:56.000Z</time></trkpt>
<trkpt lat="42.098767" lon="23.584055"><ele>2313.4</ele><time>2026-03-08T09:32:57.000Z</time></trkpt>
<trkpt lat="42.09877" lon="23.584049"><ele>2313.4</ele><time>2026-03-08T09:32:58.000Z</time></trkpt>
<trkpt lat="42.098772" lon="23.584043"><ele>2313.4</ele><time>2026-03-08T09:32:59.000Z</time></trkpt>
<trkpt lat="42.098774" lon="23.584038"><ele>2313.4</ele><time>2026-03-08T09:33:00.000Z</time></trkpt>
<trkpt lat="42.098775" lon="23.584031"><ele>2313.4</ele><time>2026-03-08T09:33:01.000Z</time></trkpt>
<trkpt lat="42.098777" lon="23.584025"><ele>2313.5</ele><time>2026-03-08T09:33:02.000Z</time></trkpt>
<trkpt lat="42.098778" lon="23.584019"><ele>2313.5</ele><time>2026-03-08T09:33:03.000Z</time></trkpt>
<trkpt lat="42.09878" lon="23.584013"><ele>2313.5</ele><time>2026-03-08T09:33:04.000Z</time></trkpt>
<trkpt lat="42.098782" lon="23.584007"><ele>2313.5</ele><time>2026-03-08T09:33:05.000Z</time></trkpt>
<trkpt lat="42.098785" lon="23.584003"><ele>2313.5</ele><time>2026-03-08T09:33:06.000Z</time></trkpt>
<trkpt lat="42.098788" lon="23.584"><ele>2314</ele><time>2026-03-08T09:33:07.000Z</time></trkpt>
<trkpt lat="42.098791" lon="23.583997"><ele>2314</ele><time>2026-03-08T09:33:08.000Z</time></trkpt>
<trkpt lat="42.098794" lon="23.583994"><ele>2314</ele><time>2026-03-08T09:33:09.000Z</time></trkpt>
<trkpt lat="42.098796" lon="23.583992"><ele>2314</ele><time>2026-03-08T09:33:10.000Z</time></trkpt>
<trkpt lat="42.098799" lon="23.583989"><ele>2314</ele><time>2026-03-08T09:33:11.000Z</time></trkpt>
<trkpt lat="42.0988" lon="23.583986"><ele>2314.5</ele><time>2026-03-08T09:33:12.000Z</time></trkpt>
<trkpt lat="42.098803" lon="23.583983"><ele>2314.5</ele><time>2026-03-08T09:33:13.000Z</time></trkpt>
<trkpt lat="42.098805" lon="23.58398"><ele>2314.5</ele><time>2026-03-08T09:33:14.000Z</time></trkpt>
<trkpt lat="42.098807" lon="23.583976"><ele>2314.5</ele><time>2026-03-08T09:33:15.000Z</time></trkpt>
<trkpt lat="42.098808" lon="23.583973"><ele>2314.5</ele><time>2026-03-08T09:33:16.000Z</time></trkpt>
<trkpt lat="42.09881" lon="23.58397"><ele>2315.6</ele><time>2026-03-08T09:33:17.000Z</time></trkpt>
<trkpt lat="42.098811" lon="23.583966"><ele>2315.6</ele><time>2026-03-08T09:33:18.000Z</time></trkpt>
<trkpt lat="42.098813" lon="23.583963"><ele>2315.6</ele><time>2026-03-08T09:33:19.000Z</time></trkpt>
<trkpt lat="42.098814" lon="23.583959"><ele>2315.6</ele><time>2026-03-08T09:33:20.000Z</time></trkpt>
<trkpt lat="42.098816" lon="23.583955"><ele>2315.6</ele><time>2026-03-08T09:33:21.000Z</time></trkpt>
<trkpt lat="42.098818" lon="23.58395"><ele>2316.8</ele><time>2026-03-08T09:33:22.000Z</time></trkpt>
<trkpt lat="42.09882" lon="23.583945"><ele>2316.8</ele><time>2026-03-08T09:33:23.000Z</time></trkpt>
<trkpt lat="42.098822" lon="23.58394"><ele>2316.8</ele><time>2026-03-08T09:33:24.000Z</time></trkpt>
<trkpt lat="42.098824" lon="23.583935"><ele>2316.8</ele><time>2026-03-08T09:33:25.000Z</time></trkpt>
<trkpt lat="42.098826" lon="23.58393"><ele>2316.8</ele><time>2026-03-08T09:33:26.000Z</time></trkpt>
<trkpt lat="42.098827" lon="23.583925"><ele>2317.3</ele><time>2026-03-08T09:33:27.000Z</time></trkpt>
<trkpt lat="42.098827" lon="23.583919"><ele>2317.3</ele><time>2026-03-08T09:33:28.000Z</time></trkpt>
<trkpt lat="42.098827" lon="23.583915"><ele>2317.3</ele><time>2026-03-08T09:33:29.000Z</time></trkpt>
<trkpt lat="42.098828" lon="23.583911"><ele>2317.3</ele><time>2026-03-08T09:33:30.000Z</time></trkpt>
<trkpt lat="42.098828" lon="23.583908"><ele>2317.3</ele><time>2026-03-08T09:33:31.000Z</time></trkpt>
<trkpt lat="42.098828" lon="23.583905"><ele>2318.4</ele><time>2026-03-08T09:33:32.000Z</time></trkpt>
<trkpt lat="42.098829" lon="23.583902"><ele>2318.4</ele><time>2026-03-08T09:33:33.000Z</time></trkpt>
<trkpt lat="42.09883" lon="23.5839"><ele>2318.4</ele><time>2026-03-08T09:33:34.000Z</time></trkpt>
<trkpt lat="42.098831" lon="23.583897"><ele>2318.4</ele><time>2026-03-08T09:33:35.000Z</time></trkpt>
<trkpt lat="42.098832" lon="23.583893"><ele>2318.4</ele><time>2026-03-08T09:33:36.000Z</time></trkpt>
<trkpt lat="42.098834" lon="23.583889"><ele>2319.4</ele><time>2026-03-08T09:33:37.000Z</time></trkpt>
<trkpt lat="42.098836" lon="23.583886"><ele>2319.4</ele><time>2026-03-08T09:33:38.000Z</time></trkpt>
<trkpt lat="42.098839" lon="23.583885"><ele>2319.4</ele><time>2026-03-08T09:33:39.000Z</time></trkpt>
<trkpt lat="42.098841" lon="23.583885"><ele>2319.4</ele><time>2026-03-08T09:33:40.000Z</time></trkpt>
<trkpt lat="42.098842" lon="23.583884"><ele>2319.4</ele><time>2026-03-08T09:33:41.000Z</time></trkpt>
<trkpt lat="42.098843" lon="23.583885"><ele>2320</ele><time>2026-03-08T09:33:42.000Z</time></trkpt>
<trkpt lat="42.098844" lon="23.583885"><ele>2320</ele><time>2026-03-08T09:33:43.000Z</time></trkpt>
<trkpt lat="42.098844" lon="23.583886"><ele>2320</ele><time>2026-03-08T09:33:44.000Z</time></trkpt>
<trkpt lat="42.098844" lon="23.583884"><ele>2320</ele><time>2026-03-08T09:33:45.000Z</time></trkpt>
<trkpt lat="42.098844" lon="23.583881"><ele>2320</ele><time>2026-03-08T09:33:46.000Z</time></trkpt>
<trkpt lat="42.098844" lon="23.583878"><ele>2320.8</ele><time>2026-03-08T09:33:47.000Z</time></trkpt>
<trkpt lat="42.098845" lon="23.583872"><ele>2320.8</ele><time>2026-03-08T09:33:48.000Z</time></trkpt>
<trkpt lat="42.098846" lon="23.583866"><ele>2320.8</ele><time>2026-03-08T09:33:49.000Z</time></trkpt>
<trkpt lat="42.098847" lon="23.583862"><ele>2320.8</ele><time>2026-03-08T09:33:50.000Z</time></trkpt>
<trkpt lat="42.09885" lon="23.583857"><ele>2320.8</ele><time>2026-03-08T09:33:51.000Z</time></trkpt>
<trkpt lat="42.098853" lon="23.583853"><ele>2321.5</ele><time>2026-03-08T09:33:52.000Z</time></trkpt>
<trkpt lat="42.098855" lon="23.583849"><ele>2321.5</ele><time>2026-03-08T09:33:53.000Z</time></trkpt>
<trkpt lat="42.098857" lon="23.583845"><ele>2321.5</ele><time>2026-03-08T09:33:54.000Z</time></trkpt>
<trkpt lat="42.098859" lon="23.583841"><ele>2321.5</ele><time>2026-03-08T09:33:55.000Z</time></trkpt>
<trkpt lat="42.098861" lon="23.583838"><ele>2321.5</ele><time>2026-03-08T09:33:56.000Z</time></trkpt>
<trkpt lat="42.098863" lon="23.583834"><ele>2321.8</ele><time>2026-03-08T09:33:57.000Z</time></trkpt>
<trkpt lat="42.098864" lon="23.583831"><ele>2321.8</ele><time>2026-03-08T09:33:58.000Z</time></trkpt>
<trkpt lat="42.098866" lon="23.583828"><ele>2321.8</ele><time>2026-03-08T09:33:59.000Z</time></trkpt>
<trkpt lat="42.098867" lon="23.583823"><ele>2321.8</ele><time>2026-03-08T09:34:00.000Z</time></trkpt>
<trkpt lat="42.098868" lon="23.583819"><ele>2321.8</ele><time>2026-03-08T09:34:01.000Z</time></trkpt>
<trkpt lat="42.098869" lon="23.583813"><ele>2322.4</ele><time>2026-03-08T09:34:02.000Z</time></trkpt>
<trkpt lat="42.098871" lon="23.583807"><ele>2322.4</ele><time>2026-03-08T09:34:03.000Z</time></trkpt>
<trkpt lat="42.098873" lon="23.583802"><ele>2322.4</ele><time>2026-03-08T09:34:04.000Z</time></trkpt>
<trkpt lat="42.098875" lon="23.583795"><ele>2322.4</ele><time>2026-03-08T09:34:05.000Z</time></trkpt>
<trkpt lat="42.098877" lon="23.583789"><ele>2322.4</ele><time>2026-03-08T09:34:06.000Z</time></trkpt>
<trkpt lat="42.09888" lon="23.583783"><ele>2323.2</ele><time>2026-03-08T09:34:07.000Z</time></trkpt>
<trkpt lat="42.098882" lon="23.583777"><ele>2323.2</ele><time>2026-03-08T09:34:08.000Z</time></trkpt>
<trkpt lat="42.098885" lon="23.583771"><ele>2323.2</ele><time>2026-03-08T09:34:09.000Z</time></trkpt>
<trkpt lat="42.098888" lon="23.583767"><ele>2323.2</ele><time>2026-03-08T09:34:10.000Z</time></trkpt>
<trkpt lat="42.098891" lon="23.583763"><ele>2323.2</ele><time>2026-03-08T09:34:11.000Z</time></trkpt>
<trkpt lat="42.098895" lon="23.58376"><ele>2323.7</ele><time>2026-03-08T09:34:12.000Z</time></trkpt>
<trkpt lat="42.098898" lon="23.583758"><ele>2323.7</ele><time>2026-03-08T09:34:13.000Z</time></trkpt>
<trkpt lat="42.098902" lon="23.583755"><ele>2323.7</ele><time>2026-03-08T09:34:14.000Z</time></trkpt>
<trkpt lat="42.098906" lon="23.583752"><ele>2323.7</ele><time>2026-03-08T09:34:15.000Z</time></trkpt>
<trkpt lat="42.09891" lon="23.583747"><ele>2323.7</ele><time>2026-03-08T09:34:16.000Z</time></trkpt>
<trkpt lat="42.098914" lon="23.583743"><ele>2324.8</ele><time>2026-03-08T09:34:17.000Z</time></trkpt>
<trkpt lat="42.098918" lon="23.583738"><ele>2324.8</ele><time>2026-03-08T09:34:18.000Z</time></trkpt>
<trkpt lat="42.098922" lon="23.583732"><ele>2324.8</ele><time>2026-03-08T09:34:19.000Z</time></trkpt>
<trkpt lat="42.098926" lon="23.583728"><ele>2324.8</ele><time>2026-03-08T09:34:20.000Z</time></trkpt>
<trkpt lat="42.098929" lon="23.583723"><ele>2324.8</ele><time>2026-03-08T09:34:21.000Z</time></trkpt>
<trkpt lat="42.098933" lon="23.583718"><ele>2325.7</ele><time>2026-03-08T09:34:22.000Z</time></trkpt>
<trkpt lat="42.098936" lon="23.583713"><ele>2325.7</ele><time>2026-03-08T09:34:23.000Z</time></trkpt>
<trkpt lat="42.098939" lon="23.583708"><ele>2325.7</ele><time>2026-03-08T09:34:24.000Z</time></trkpt>
<trkpt lat="42.098942" lon="23.583703"><ele>2325.7</ele><time>2026-03-08T09:34:25.000Z</time></trkpt>
<trkpt lat="42.098946" lon="23.583698"><ele>2325.7</ele><time>2026-03-08T09:34:26.000Z</time></trkpt>
<trkpt lat="42.09895" lon="23.583694"><ele>2326</ele><time>2026-03-08T09:34:27.000Z</time></trkpt>
<trkpt lat="42.098953" lon="23.58369"><ele>2326</ele><time>2026-03-08T09:34:28.000Z</time></trkpt>
<trkpt lat="42.098955" lon="23.583688"><ele>2326</ele><time>2026-03-08T09:34:29.000Z</time></trkpt>
<trkpt lat="42.098956" lon="23.583687"><ele>2326</ele><time>2026-03-08T09:34:30.000Z</time></trkpt>
<trkpt lat="42.098956" lon="23.583686"><ele>2326</ele><time>2026-03-08T09:34:31.000Z</time></trkpt>
<trkpt lat="42.098957" lon="23.583685"><ele>2326.6</ele><time>2026-03-08T09:34:32.000Z</time></trkpt>
<trkpt lat="42.098957" lon="23.583683"><ele>2326.6</ele><time>2026-03-08T09:34:33.000Z</time></trkpt>
<trkpt lat="42.098958" lon="23.58368"><ele>2326.6</ele><time>2026-03-08T09:34:34.000Z</time></trkpt>
<trkpt lat="42.098959" lon="23.583676"><ele>2326.6</ele><time>2026-03-08T09:34:35.000Z</time></trkpt>
<trkpt lat="42.098961" lon="23.583673"><ele>2326.6</ele><time>2026-03-08T09:34:36.000Z</time></trkpt>
<trkpt lat="42.098963" lon="23.58367"><ele>2327.3</ele><time>2026-03-08T09:34:37.000Z</time></trkpt>
<trkpt lat="42.098966" lon="23.583667"><ele>2327.3</ele><time>2026-03-08T09:34:38.000Z</time></trkpt>
<trkpt lat="42.098968" lon="23.583666"><ele>2327.3</ele><time>2026-03-08T09:34:39.000Z</time></trkpt>
<trkpt lat="42.09897" lon="23.583662"><ele>2327.3</ele><time>2026-03-08T09:34:40.000Z</time></trkpt>
<trkpt lat="42.098972" lon="23.583659"><ele>2327.3</ele><time>2026-03-08T09:34:41.000Z</time></trkpt>
<trkpt lat="42.098973" lon="23.583653"><ele>2327.5</ele><time>2026-03-08T09:34:42.000Z</time></trkpt>
<trkpt lat="42.098975" lon="23.583646"><ele>2327.5</ele><time>2026-03-08T09:34:43.000Z</time></trkpt>
<trkpt lat="42.098977" lon="23.583639"><ele>2327.5</ele><time>2026-03-08T09:34:44.000Z</time></trkpt>
<trkpt lat="42.098981" lon="23.583633"><ele>2327.5</ele><time>2026-03-08T09:34:45.000Z</time></trkpt>
<trkpt lat="42.098986" lon="23.583625"><ele>2327.5</ele><time>2026-03-08T09:34:46.000Z</time></trkpt>
<trkpt lat="42.098991" lon="23.583619"><ele>2328.2</ele><time>2026-03-08T09:34:47.000Z</time></trkpt>
<trkpt lat="42.098997" lon="23.583614"><ele>2328.2</ele><time>2026-03-08T09:34:48.000Z</time></trkpt>
<trkpt lat="42.099002" lon="23.583608"><ele>2328.2</ele><time>2026-03-08T09:34:49.000Z</time></trkpt>
<trkpt lat="42.099007" lon="23.583602"><ele>2328.2</ele><time>2026-03-08T09:34:50.000Z</time></trkpt>
<trkpt lat="42.099012" lon="23.583596"><ele>2328.2</ele><time>2026-03-08T09:34:51.000Z</time></trkpt>
<trkpt lat="42.099017" lon="23.583589"><ele>2329.1</ele><time>2026-03-08T09:34:52.000Z</time></trkpt>
<trkpt lat="42.099021" lon="23.583582"><ele>2329.1</ele><time>2026-03-08T09:34:53.000Z</time></trkpt>
<trkpt lat="42.099025" lon="23.583575"><ele>2329.1</ele><time>2026-03-08T09:34:54.000Z</time></trkpt>
<trkpt lat="42.099029" lon="23.583567"><ele>2329.1</ele><time>2026-03-08T09:34:55.000Z</time></trkpt>
<trkpt lat="42.099033" lon="23.58356"><ele>2329.1</ele><time>2026-03-08T09:34:56.000Z</time></trkpt>
<trkpt lat="42.099036" lon="23.583551"><ele>2329.5</ele><time>2026-03-08T09:34:57.000Z</time></trkpt>
<trkpt lat="42.09904" lon="23.583543"><ele>2329.5</ele><time>2026-03-08T09:34:58.000Z</time></trkpt>
<trkpt lat="42.099042" lon="23.583535"><ele>2329.5</ele><time>2026-03-08T09:34:59.000Z</time></trkpt>
<trkpt lat="42.099045" lon="23.583528"><ele>2329.5</ele><time>2026-03-08T09:35:00.000Z</time></trkpt>
<trkpt lat="42.099048" lon="23.58352"><ele>2329.5</ele><time>2026-03-08T09:35:01.000Z</time></trkpt>
<trkpt lat="42.099052" lon="23.583512"><ele>2330.3</ele><time>2026-03-08T09:35:02.000Z</time></trkpt>
<trkpt lat="42.099054" lon="23.583505"><ele>2330.3</ele><time>2026-03-08T09:35:03.000Z</time></trkpt>
<trkpt lat="42.099057" lon="23.583499"><ele>2330.3</ele><time>2026-03-08T09:35:04.000Z</time></trkpt>
<trkpt lat="42.099058" lon="23.583494"><ele>2330.3</ele><time>2026-03-08T09:35:05.000Z</time></trkpt>
<trkpt lat="42.099059" lon="23.583489"><ele>2330.3</ele><time>2026-03-08T09:35:06.000Z</time></trkpt>
<trkpt lat="42.09906" lon="23.583484"><ele>2331</ele><time>2026-03-08T09:35:07.000Z</time></trkpt>
<trkpt lat="42.099061" lon="23.583479"><ele>2331</ele><time>2026-03-08T09:35:08.000Z</time></trkpt>
<trkpt lat="42.099064" lon="23.583471"><ele>2331</ele><time>2026-03-08T09:35:09.000Z</time></trkpt>
<trkpt lat="42.099067" lon="23.583462"><ele>2331</ele><time>2026-03-08T09:35:10.000Z</time></trkpt>
<trkpt lat="42.09907" lon="23.583452"><ele>2331</ele><time>2026-03-08T09:35:11.000Z</time></trkpt>
<trkpt lat="42.099074" lon="23.583443"><ele>2331.3</ele><time>2026-03-08T09:35:12.000Z</time></trkpt>
<trkpt lat="42.099078" lon="23.583434"><ele>2331.3</ele><time>2026-03-08T09:35:13.000Z</time></trkpt>
<trkpt lat="42.099082" lon="23.583426"><ele>2331.3</ele><time>2026-03-08T09:35:14.000Z</time></trkpt>
<trkpt lat="42.099085" lon="23.583418"><ele>2331.3</ele><time>2026-03-08T09:35:15.000Z</time></trkpt>
<trkpt lat="42.099089" lon="23.583411"><ele>2331.3</ele><time>2026-03-08T09:35:16.000Z</time></trkpt>
<trkpt lat="42.099093" lon="23.583404"><ele>2331.7</ele><time>2026-03-08T09:35:17.000Z</time></trkpt>
<trkpt lat="42.099098" lon="23.583398"><ele>2331.7</ele><time>2026-03-08T09:35:18.000Z</time></trkpt>
<trkpt lat="42.099102" lon="23.583391"><ele>2331.7</ele><time>2026-03-08T09:35:19.000Z</time></trkpt>
<trkpt lat="42.099107" lon="23.583384"><ele>2331.7</ele><time>2026-03-08T09:35:20.000Z</time></trkpt>
<trkpt lat="42.099112" lon="23.583378"><ele>2331.7</ele><time>2026-03-08T09:35:21.000Z</time></trkpt>
<trkpt lat="42.099116" lon="23.583371"><ele>2332</ele><time>2026-03-08T09:35:22.000Z</time></trkpt>
<trkpt lat="42.099121" lon="23.583364"><ele>2332</ele><time>2026-03-08T09:35:23.000Z</time></trkpt>
<trkpt lat="42.099126" lon="23.583357"><ele>2332</ele><time>2026-03-08T09:35:24.000Z</time></trkpt>
<trkpt lat="42.09913" lon="23.583349"><ele>2332</ele><time>2026-03-08T09:35:25.000Z</time></trkpt>
<trkpt lat="42.099135" lon="23.58334"><ele>2332</ele><time>2026-03-08T09:35:26.000Z</time></trkpt>
<trkpt lat="42.099139" lon="23.583332"><ele>2332.1</ele><time>2026-03-08T09:35:27.000Z</time></trkpt>
<trkpt lat="42.099143" lon="23.583323"><ele>2332.1</ele><time>2026-03-08T09:35:28.000Z</time></trkpt>
<trkpt lat="42.099148" lon="23.583314"><ele>2332.1</ele><time>2026-03-08T09:35:29.000Z</time></trkpt>
<trkpt lat="42.099153" lon="23.583306"><ele>2332.1</ele><time>2026-03-08T09:35:30.000Z</time></trkpt>
<trkpt lat="42.099158" lon="23.583297"><ele>2332.1</ele><time>2026-03-08T09:35:31.000Z</time></trkpt>
<trkpt lat="42.099163" lon="23.583288"><ele>2332.4</ele><time>2026-03-08T09:35:32.000Z</time></trkpt>
<trkpt lat="42.099167" lon="23.583281"><ele>2332.4</ele><time>2026-03-08T09:35:33.000Z</time></trkpt>
<trkpt lat="42.099172" lon="23.583272"><ele>2332.4</ele><time>2026-03-08T09:35:34.000Z</time></trkpt>
<trkpt lat="42.099176" lon="23.583262"><ele>2332.4</ele><time>2026-03-08T09:35:35.000Z</time></trkpt>
<trkpt lat="42.09918" lon="23.583252"><ele>2332.4</ele><time>2026-03-08T09:35:36.000Z</time></trkpt>
<trkpt lat="42.099184" lon="23.583241"><ele>2332.8</ele><time>2026-03-08T09:35:37.000Z</time></trkpt>
<trkpt lat="42.099188" lon="23.583228"><ele>2332.8</ele><time>2026-03-08T09:35:38.000Z</time></trkpt>
<trkpt lat="42.099191" lon="23.583216"><ele>2332.8</ele><time>2026-03-08T09:35:39.000Z</time></trkpt>
<trkpt lat="42.099194" lon="23.583206"><ele>2332.8</ele><time>2026-03-08T09:35:40.000Z</time></trkpt>
<trkpt lat="42.099197" lon="23.583194"><ele>2332.8</ele><time>2026-03-08T09:35:41.000Z</time></trkpt>
<trkpt lat="42.099199" lon="23.583184"><ele>2333</ele><time>2026-03-08T09:35:42.000Z</time></trkpt>
<trkpt lat="42.099202" lon="23.583176"><ele>2333</ele><time>2026-03-08T09:35:43.000Z</time></trkpt>
<trkpt lat="42.099203" lon="23.583168"><ele>2333</ele><time>2026-03-08T09:35:44.000Z</time></trkpt>
<trkpt lat="42.099205" lon="23.583158"><ele>2333</ele><time>2026-03-08T09:35:45.000Z</time></trkpt>
<trkpt lat="42.099206" lon="23.58315"><ele>2333</ele><time>2026-03-08T09:35:46.000Z</time></trkpt>
<trkpt lat="42.099207" lon="23.583141"><ele>2333.3</ele><time>2026-03-08T09:35:47.000Z</time></trkpt>
<trkpt lat="42.099208" lon="23.583134"><ele>2333.3</ele><time>2026-03-08T09:35:48.000Z</time></trkpt>
<trkpt lat="42.09921" lon="23.583128"><ele>2333.3</ele><time>2026-03-08T09:35:49.000Z</time></trkpt>
<trkpt lat="42.099211" lon="23.583125"><ele>2333.3</ele><time>2026-03-08T09:35:50.000Z</time></trkpt>
<trkpt lat="42.099212" lon="23.583124"><ele>2333.3</ele><time>2026-03-08T09:35:51.000Z</time></trkpt>
<trkpt lat="42.099213" lon="23.583124"><ele>2333.5</ele><time>2026-03-08T09:35:52.000Z</time></trkpt>
<trkpt lat="42.099213" lon="23.583125"><ele>2333.5</ele><time>2026-03-08T09:35:53.000Z</time></trkpt>
<trkpt lat="42.099213" lon="23.583126"><ele>2333.5</ele><time>2026-03-08T09:35:54.000Z</time></trkpt>
<trkpt lat="42.099214" lon="23.583126"><ele>2333.5</ele><time>2026-03-08T09:35:55.000Z</time></trkpt>
<trkpt lat="42.099214" lon="23.583126"><ele>2333.5</ele><time>2026-03-08T09:35:56.000Z</time></trkpt>
<trkpt lat="42.099214" lon="23.583126"><ele>2333.5</ele><time>2026-03-08T09:35:57.000Z</time></trkpt>
<trkpt lat="42.099214" lon="23.583127"><ele>2333.5</ele><time>2026-03-08T09:35:58.000Z</time></trkpt>
<trkpt lat="42.099214" lon="23.583127"><ele>2333.5</ele><time>2026-03-08T09:35:59.000Z</time></trkpt>
<trkpt lat="42.099214" lon="23.583127"><ele>2333.5</ele><time>2026-03-08T09:36:00.000Z</time></trkpt>
<trkpt lat="42.099214" lon="23.583126"><ele>2333.5</ele><time>2026-03-08T09:36:01.000Z</time></trkpt>
<trkpt lat="42.099214" lon="23.583125"><ele>2333.4</ele><time>2026-03-08T09:36:02.000Z</time></trkpt>
<trkpt lat="42.099215" lon="23.583121"><ele>2333.4</ele><time>2026-03-08T09:36:03.000Z</time></trkpt>
<trkpt lat="42.099216" lon="23.583116"><ele>2333.4</ele><time>2026-03-08T09:36:04.000Z</time></trkpt>
<trkpt lat="42.099217" lon="23.58311"><ele>2333.4</ele><time>2026-03-08T09:36:05.000Z</time></trkpt>
<trkpt lat="42.09922" lon="23.583103"><ele>2333.4</ele><time>2026-03-08T09:36:06.000Z</time></trkpt>
<trkpt lat="42.099222" lon="23.583094"><ele>2333.3</ele><time>2026-03-08T09:36:07.000Z</time></trkpt>
<trkpt lat="42.099226" lon="23.583087"><ele>2333.3</ele><time>2026-03-08T09:36:08.000Z</time></trkpt>
<trkpt lat="42.099229" lon="23.583079"><ele>2333.3</ele><time>2026-03-08T09:36:09.000Z</time></trkpt>
<trkpt lat="42.099231" lon="23.583069"><ele>2333.3</ele><time>2026-03-08T09:36:10.000Z</time></trkpt>
<trkpt lat="42.099233" lon="23.583061"><ele>2333.3</ele><time>2026-03-08T09:36:11.000Z</time></trkpt>
<trkpt lat="42.099237" lon="23.583053"><ele>2333.3</ele><time>2026-03-08T09:36:12.000Z</time></trkpt>
<trkpt lat="42.09924" lon="23.583044"><ele>2333.3</ele><time>2026-03-08T09:36:13.000Z</time></trkpt>
<trkpt lat="42.099243" lon="23.583037"><ele>2333.3</ele><time>2026-03-08T09:36:14.000Z</time></trkpt>
<trkpt lat="42.099247" lon="23.58303"><ele>2333.3</ele><time>2026-03-08T09:36:15.000Z</time></trkpt>
<trkpt lat="42.099251" lon="23.583022"><ele>2333.3</ele><time>2026-03-08T09:36:16.000Z</time></trkpt>
<trkpt lat="42.099255" lon="23.583013"><ele>2333.4</ele><time>2026-03-08T09:36:17.000Z</time></trkpt>
<trkpt lat="42.099259" lon="23.583005"><ele>2333.4</ele><time>2026-03-08T09:36:18.000Z</time></trkpt>
<trkpt lat="42.099263" lon="23.582995"><ele>2333.4</ele><time>2026-03-08T09:36:19.000Z</time></trkpt>
<trkpt lat="42.099268" lon="23.582985"><ele>2333.4</ele><time>2026-03-08T09:36:20.000Z</time></trkpt>
<trkpt lat="42.099272" lon="23.582976"><ele>2333.4</ele><time>2026-03-08T09:36:21.000Z</time></trkpt>
<trkpt lat="42.099277" lon="23.582966"><ele>2333.4</ele><time>2026-03-08T09:36:22.000Z</time></trkpt>
<trkpt lat="42.099282" lon="23.582956"><ele>2333.4</ele><time>2026-03-08T09:36:23.000Z</time></trkpt>
<trkpt lat="42.099286" lon="23.582946"><ele>2333.4</ele><time>2026-03-08T09:36:24.000Z</time></trkpt>
<trkpt lat="42.099291" lon="23.582937"><ele>2333.4</ele><time>2026-03-08T09:36:25.000Z</time></trkpt>
<trkpt lat="42.099296" lon="23.582928"><ele>2333.4</ele><time>2026-03-08T09:36:26.000Z</time></trkpt>
<trkpt lat="42.0993" lon="23.582919"><ele>2333.3</ele><time>2026-03-08T09:36:27.000Z</time></trkpt>
<trkpt lat="42.099305" lon="23.582911"><ele>2333.3</ele><time>2026-03-08T09:36:28.000Z</time></trkpt>
<trkpt lat="42.09931" lon="23.582904"><ele>2333.3</ele><time>2026-03-08T09:36:29.000Z</time></trkpt>
<trkpt lat="42.099316" lon="23.582897"><ele>2333.3</ele><time>2026-03-08T09:36:30.000Z</time></trkpt>
<trkpt lat="42.099321" lon="23.58289"><ele>2333.3</ele><time>2026-03-08T09:36:31.000Z</time></trkpt>
<trkpt lat="42.099325" lon="23.582882"><ele>2333.2</ele><time>2026-03-08T09:36:32.000Z</time></trkpt>
<trkpt lat="42.09933" lon="23.582875"><ele>2333.2</ele><time>2026-03-08T09:36:33.000Z</time></trkpt>
<trkpt lat="42.099334" lon="23.582867"><ele>2333.2</ele><time>2026-03-08T09:36:34.000Z</time></trkpt>
<trkpt lat="42.099337" lon="23.58286"><ele>2333.2</ele><time>2026-03-08T09:36:35.000Z</time></trkpt>
<trkpt lat="42.099341" lon="23.582851"><ele>2333.2</ele><time>2026-03-08T09:36:36.000Z</time></trkpt>
<trkpt lat="42.099346" lon="23.582842"><ele>2333.1</ele><time>2026-03-08T09:36:37.000Z</time></trkpt>
<trkpt lat="42.09935" lon="23.582834"><ele>2333.1</ele><time>2026-03-08T09:36:38.000Z</time></trkpt>
<trkpt lat="42.099354" lon="23.582825"><ele>2333.1</ele><time>2026-03-08T09:36:39.000Z</time></trkpt>
<trkpt lat="42.099359" lon="23.582815"><ele>2333.1</ele><time>2026-03-08T09:36:40.000Z</time></trkpt>
<trkpt lat="42.099364" lon="23.582805"><ele>2333.1</ele><time>2026-03-08T09:36:41.000Z</time></trkpt>
<trkpt lat="42.099368" lon="23.582795"><ele>2333.1</ele><time>2026-03-08T09:36:42.000Z</time></trkpt>
<trkpt lat="42.099373" lon="23.582784"><ele>2333.1</ele><time>2026-03-08T09:36:43.000Z</time></trkpt>
<trkpt lat="42.099378" lon="23.582772"><ele>2333.1</ele><time>2026-03-08T09:36:44.000Z</time></trkpt>
<trkpt lat="42.099383" lon="23.582761"><ele>2333.1</ele><time>2026-03-08T09:36:45.000Z</time></trkpt>
<trkpt lat="42.099388" lon="23.582751"><ele>2333.1</ele><time>2026-03-08T09:36:46.000Z</time></trkpt>
<trkpt lat="42.099393" lon="23.582739"><ele>2333.2</ele><time>2026-03-08T09:36:47.000Z</time></trkpt>
<trkpt lat="42.099398" lon="23.582727"><ele>2333.2</ele><time>2026-03-08T09:36:48.000Z</time></trkpt>
<trkpt lat="42.099402" lon="23.582716"><ele>2333.2</ele><time>2026-03-08T09:36:49.000Z</time></trkpt>
<trkpt lat="42.099405" lon="23.582705"><ele>2333.2</ele><time>2026-03-08T09:36:50.000Z</time></trkpt>
<trkpt lat="42.099409" lon="23.582694"><ele>2333.2</ele><time>2026-03-08T09:36:51.000Z</time></trkpt>
<trkpt lat="42.099412" lon="23.582683"><ele>2333.2</ele><time>2026-03-08T09:36:52.000Z</time></trkpt>
<trkpt lat="42.099416" lon="23.582673"><ele>2333.2</ele><time>2026-03-08T09:36:53.000Z</time></trkpt>
<trkpt lat="42.09942" lon="23.582664"><ele>2333.2</ele><time>2026-03-08T09:36:54.000Z</time></trkpt>
<trkpt lat="42.099423" lon="23.582655"><ele>2333.2</ele><time>2026-03-08T09:36:55.000Z</time></trkpt>
<trkpt lat="42.099426" lon="23.582646"><ele>2333.2</ele><time>2026-03-08T09:36:56.000Z</time></trkpt>
<trkpt lat="42.09943" lon="23.582637"><ele>2333.2</ele><time>2026-03-08T09:36:57.000Z</time></trkpt>
<trkpt lat="42.099434" lon="23.582627"><ele>2333.2</ele><time>2026-03-08T09:36:58.000Z</time></trkpt>
<trkpt lat="42.099437" lon="23.582618"><ele>2333.2</ele><time>2026-03-08T09:36:59.000Z</time></trkpt>
<trkpt lat="42.099441" lon="23.582609"><ele>2333.2</ele><time>2026-03-08T09:37:00.000Z</time></trkpt>
<trkpt lat="42.099445" lon="23.5826"><ele>2333.2</ele><time>2026-03-08T09:37:01.000Z</time></trkpt>
<trkpt lat="42.099449" lon="23.582593"><ele>2332.8</ele><time>2026-03-08T09:37:02.000Z</time></trkpt>
<trkpt lat="42.099452" lon="23.582585"><ele>2332.8</ele><time>2026-03-08T09:37:03.000Z</time></trkpt>
<trkpt lat="42.099455" lon="23.582577"><ele>2332.8</ele><time>2026-03-08T09:37:04.000Z</time></trkpt>
<trkpt lat="42.099458" lon="23.582568"><ele>2332.8</ele><time>2026-03-08T09:37:05.000Z</time></trkpt>
<trkpt lat="42.099461" lon="23.58256"><ele>2332.8</ele><time>2026-03-08T09:37:06.000Z</time></trkpt>
<trkpt lat="42.099465" lon="23.582551"><ele>2332.4</ele><time>2026-03-08T09:37:07.000Z</time></trkpt>
<trkpt lat="42.099469" lon="23.582542"><ele>2332.4</ele><time>2026-03-08T09:37:08.000Z</time></trkpt>
<trkpt lat="42.099473" lon="23.582534"><ele>2332.4</ele><time>2026-03-08T09:37:09.000Z</time></trkpt>
<trkpt lat="42.099478" lon="23.582526"><ele>2332.4</ele><time>2026-03-08T09:37:10.000Z</time></trkpt>
<trkpt lat="42.099484" lon="23.582518"><ele>2332.4</ele><time>2026-03-08T09:37:11.000Z</time></trkpt>
<trkpt lat="42.099489" lon="23.58251"><ele>2332.4</ele><time>2026-03-08T09:37:12.000Z</time></trkpt>
<trkpt lat="42.099494" lon="23.582503"><ele>2332.4</ele><time>2026-03-08T09:37:13.000Z</time></trkpt>
<trkpt lat="42.099498" lon="23.582495"><ele>2332.4</ele><time>2026-03-08T09:37:14.000Z</time></trkpt>
<trkpt lat="42.099502" lon="23.582487"><ele>2332.4</ele><time>2026-03-08T09:37:15.000Z</time></trkpt>
<trkpt lat="42.099506" lon="23.582479"><ele>2332.4</ele><time>2026-03-08T09:37:16.000Z</time></trkpt>
<trkpt lat="42.09951" lon="23.582471"><ele>2332.4</ele><time>2026-03-08T09:37:17.000Z</time></trkpt>
<trkpt lat="42.099515" lon="23.582463"><ele>2332.4</ele><time>2026-03-08T09:37:18.000Z</time></trkpt>
<trkpt lat="42.099518" lon="23.582455"><ele>2332.4</ele><time>2026-03-08T09:37:19.000Z</time></trkpt>
<trkpt lat="42.099522" lon="23.582448"><ele>2332.4</ele><time>2026-03-08T09:37:20.000Z</time></trkpt>
<trkpt lat="42.099526" lon="23.58244"><ele>2332.4</ele><time>2026-03-08T09:37:21.000Z</time></trkpt>
<trkpt lat="42.09953" lon="23.582432"><ele>2332.6</ele><time>2026-03-08T09:37:22.000Z</time></trkpt>
<trkpt lat="42.099534" lon="23.582426"><ele>2332.6</ele><time>2026-03-08T09:37:23.000Z</time></trkpt>
<trkpt lat="42.09954" lon="23.582419"><ele>2332.6</ele><time>2026-03-08T09:37:24.000Z</time></trkpt>
<trkpt lat="42.099544" lon="23.582412"><ele>2332.6</ele><time>2026-03-08T09:37:25.000Z</time></trkpt>
<trkpt lat="42.099549" lon="23.582406"><ele>2332.6</ele><time>2026-03-08T09:37:26.000Z</time></trkpt>
<trkpt lat="42.099553" lon="23.582401"><ele>2332.7</ele><time>2026-03-08T09:37:27.000Z</time></trkpt>
<trkpt lat="42.099557" lon="23.582397"><ele>2332.7</ele><time>2026-03-08T09:37:28.000Z</time></trkpt>
<trkpt lat="42.099559" lon="23.582394"><ele>2332.7</ele><time>2026-03-08T09:37:29.000Z</time></trkpt>
<trkpt lat="42.099561" lon="23.582392"><ele>2332.7</ele><time>2026-03-08T09:37:30.000Z</time></trkpt>
<trkpt lat="42.099561" lon="23.58239"><ele>2332.7</ele><time>2026-03-08T09:37:31.000Z</time></trkpt>
<trkpt lat="42.099561" lon="23.58239"><ele>2333</ele><time>2026-03-08T09:37:32.000Z</time></trkpt>
<trkpt lat="42.09956" lon="23.58239"><ele>2333</ele><time>2026-03-08T09:37:33.000Z</time></trkpt>
<trkpt lat="42.09956" lon="23.58239"><ele>2333</ele><time>2026-03-08T09:37:34.000Z</time></trkpt>
<trkpt lat="42.099559" lon="23.58239"><ele>2333</ele><time>2026-03-08T09:37:35.000Z</time></trkpt>
<trkpt lat="42.099559" lon="23.582391"><ele>2333</ele><time>2026-03-08T09:37:36.000Z</time></trkpt>
<trkpt lat="42.099558" lon="23.582391"><ele>2333.3</ele><time>2026-03-08T09:37:37.000Z</time></trkpt>
<trkpt lat="42.099558" lon="23.582391"><ele>2333.3</ele><time>2026-03-08T09:37:38.000Z</time></trkpt>
<trkpt lat="42.099558" lon="23.582391"><ele>2333.3</ele><time>2026-03-08T09:37:39.000Z</time></trkpt>
<trkpt lat="42.099558" lon="23.582391"><ele>2333.3</ele><time>2026-03-08T09:37:40.000Z</time></trkpt>
<trkpt lat="42.099558" lon="23.582391"><ele>2333.3</ele><time>2026-03-08T09:37:41.000Z</time></trkpt>
<trkpt lat="42.099558" lon="23.582391"><ele>2333.2</ele><time>2026-03-08T09:37:42.000Z</time></trkpt>
<trkpt lat="42.099558" lon="23.582391"><ele>2333.2</ele><time>2026-03-08T09:37:43.000Z</time></trkpt>
<trkpt lat="42.099558" lon="23.582391"><ele>2333.2</ele><time>2026-03-08T09:37:44.000Z</time></trkpt>
<trkpt lat="42.099558" lon="23.582391"><ele>2333.2</ele><time>2026-03-08T09:37:45.000Z</time></trkpt>
<trkpt lat="42.099558" lon="23.582391"><ele>2333.2</ele><time>2026-03-08T09:37:46.000Z</time></trkpt>
<trkpt lat="42.099559" lon="23.582388"><ele>2333</ele><time>2026-03-08T09:37:47.000Z</time></trkpt>
<trkpt lat="42.09956" lon="23.582384"><ele>2333</ele><time>2026-03-08T09:37:48.000Z</time></trkpt>
<trkpt lat="42.099561" lon="23.582378"><ele>2333</ele><time>2026-03-08T09:37:49.000Z</time></trkpt>
<trkpt lat="42.099564" lon="23.58237"><ele>2333</ele><time>2026-03-08T09:37:50.000Z</time></trkpt>
<trkpt lat="42.099568" lon="23.58236"><ele>2333</ele><time>2026-03-08T09:37:51.000Z</time></trkpt>
<trkpt lat="42.099571" lon="23.582352"><ele>2332.9</ele><time>2026-03-08T09:37:52.000Z</time></trkpt>
<trkpt lat="42.099575" lon="23.582344"><ele>2332.9</ele><time>2026-03-08T09:37:53.000Z</time></trkpt>
<trkpt lat="42.099579" lon="23.582337"><ele>2332.9</ele><time>2026-03-08T09:37:54.000Z</time></trkpt>
<trkpt lat="42.099582" lon="23.582331"><ele>2332.9</ele><time>2026-03-08T09:37:55.000Z</time></trkpt>
<trkpt lat="42.099585" lon="23.582327"><ele>2332.9</ele><time>2026-03-08T09:37:56.000Z</time></trkpt>
<trkpt lat="42.099587" lon="23.582323"><ele>2332.8</ele><time>2026-03-08T09:37:57.000Z</time></trkpt>
<trkpt lat="42.099588" lon="23.582321"><ele>2332.8</ele><time>2026-03-08T09:37:58.000Z</time></trkpt>
<trkpt lat="42.099588" lon="23.58232"><ele>2332.8</ele><time>2026-03-08T09:37:59.000Z</time></trkpt>
<trkpt lat="42.099589" lon="23.582318"><ele>2332.8</ele><time>2026-03-08T09:38:00.000Z</time></trkpt>
<trkpt lat="42.099588" lon="23.582317"><ele>2332.8</ele><time>2026-03-08T09:38:01.000Z</time></trkpt>
<trkpt lat="42.099588" lon="23.582316"><ele>2332.8</ele><time>2026-03-08T09:38:02.000Z</time></trkpt>
<trkpt lat="42.099588" lon="23.582315"><ele>2332.8</ele><time>2026-03-08T09:38:03.000Z</time></trkpt>
<trkpt lat="42.099587" lon="23.582315"><ele>2332.8</ele><time>2026-03-08T09:38:04.000Z</time></trkpt>
<trkpt lat="42.099587" lon="23.582315"><ele>2332.8</ele><time>2026-03-08T09:38:05.000Z</time></trkpt>
<trkpt lat="42.099587" lon="23.582315"><ele>2332.8</ele><time>2026-03-08T09:38:06.000Z</time></trkpt>
<trkpt lat="42.099587" lon="23.582315"><ele>2332.8</ele><time>2026-03-08T09:38:07.000Z</time></trkpt>
<trkpt lat="42.099587" lon="23.582314"><ele>2332.8</ele><time>2026-03-08T09:38:08.000Z</time></trkpt>
<trkpt lat="42.099587" lon="23.582312"><ele>2332.8</ele><time>2026-03-08T09:38:09.000Z</time></trkpt>
<trkpt lat="42.099587" lon="23.582311"><ele>2332.8</ele><time>2026-03-08T09:38:10.000Z</time></trkpt>
<trkpt lat="42.099587" lon="23.58231"><ele>2332.8</ele><time>2026-03-08T09:38:11.000Z</time></trkpt>
<trkpt lat="42.099587" lon="23.582309"><ele>2332.9</ele><time>2026-03-08T09:38:12.000Z</time></trkpt>
<trkpt lat="42.099586" lon="23.582309"><ele>2332.9</ele><time>2026-03-08T09:38:13.000Z</time></trkpt>
<trkpt lat="42.099586" lon="23.582309"><ele>2332.9</ele><time>2026-03-08T09:38:14.000Z</time></trkpt>
<trkpt lat="42.099586" lon="23.582309"><ele>2332.9</ele><time>2026-03-08T09:38:15.000Z</time></trkpt>
<trkpt lat="42.099585" lon="23.582308"><ele>2332.9</ele><time>2026-03-08T09:38:16.000Z</time></trkpt>
<trkpt lat="42.099585" lon="23.582308"><ele>2333</ele><time>2026-03-08T09:38:17.000Z</time></trkpt>
<trkpt lat="42.099585" lon="23.582307"><ele>2333</ele><time>2026-03-08T09:38:18.000Z</time></trkpt>
<trkpt lat="42.099585" lon="23.582307"><ele>2333</ele><time>2026-03-08T09:38:19.000Z</time></trkpt>
<trkpt lat="42.099585" lon="23.582307"><ele>2333</ele><time>2026-03-08T09:38:20.000Z</time></trkpt>
<trkpt lat="42.099584" lon="23.582307"><ele>2333</ele><time>2026-03-08T09:38:21.000Z</time></trkpt>
<trkpt lat="42.099584" lon="23.582307"><ele>2333</ele><time>2026-03-08T09:38:22.000Z</time></trkpt>
<trkpt lat="42.099584" lon="23.582307"><ele>2333</ele><time>2026-03-08T09:38:23.000Z</time></trkpt>
<trkpt lat="42.099583" lon="23.582307"><ele>2333</ele><time>2026-03-08T09:38:24.000Z</time></trkpt>
<trkpt lat="42.099582" lon="23.582308"><ele>2333</ele><time>2026-03-08T09:38:25.000Z</time></trkpt>
<trkpt lat="42.099581" lon="23.582308"><ele>2333</ele><time>2026-03-08T09:38:26.000Z</time></trkpt>
<trkpt lat="42.099579" lon="23.582308"><ele>2332.9</ele><time>2026-03-08T09:38:27.000Z</time></trkpt>
<trkpt lat="42.099577" lon="23.582308"><ele>2332.9</ele><time>2026-03-08T09:38:28.000Z</time></trkpt>
<trkpt lat="42.099576" lon="23.582308"><ele>2332.9</ele><time>2026-03-08T09:38:29.000Z</time></trkpt>
<trkpt lat="42.099575" lon="23.582308"><ele>2332.9</ele><time>2026-03-08T09:38:30.000Z</time></trkpt>
<trkpt lat="42.099574" lon="23.582308"><ele>2332.9</ele><time>2026-03-08T09:38:31.000Z</time></trkpt>
<trkpt lat="42.099574" lon="23.582308"><ele>2332.8</ele><time>2026-03-08T09:38:32.000Z</time></trkpt>
<trkpt lat="42.099574" lon="23.582308"><ele>2332.8</ele><time>2026-03-08T09:38:33.000Z</time></trkpt>
<trkpt lat="42.099574" lon="23.582308"><ele>2332.8</ele><time>2026-03-08T09:38:34.000Z</time></trkpt>
<trkpt lat="42.099574" lon="23.582308"><ele>2332.8</ele><time>2026-03-08T09:38:35.000Z</time></trkpt>
<trkpt lat="42.099573" lon="23.582308"><ele>2332.8</ele><time>2026-03-08T09:38:36.000Z</time></trkpt>
<trkpt lat="42.099572" lon="23.582308"><ele>2332.7</ele><time>2026-03-08T09:38:37.000Z</time></trkpt>
<trkpt lat="42.09957" lon="23.582307"><ele>2332.7</ele><time>2026-03-08T09:38:38.000Z</time></trkpt>
<trkpt lat="42.099567" lon="23.582307"><ele>2332.7</ele><time>2026-03-08T09:38:39.000Z</time></trkpt>
<trkpt lat="42.099563" lon="23.582306"><ele>2332.7</ele><time>2026-03-08T09:38:40.000Z</time></trkpt>
<trkpt lat="42.099559" lon="23.582305"><ele>2332.7</ele><time>2026-03-08T09:38:41.000Z</time></trkpt>
<trkpt lat="42.099555" lon="23.582302"><ele>2332.7</ele><time>2026-03-08T09:38:42.000Z</time></trkpt>
<trkpt lat="42.099551" lon="23.582298"><ele>2332.7</ele><time>2026-03-08T09:38:43.000Z</time></trkpt>
<trkpt lat="42.099548" lon="23.582294"><ele>2332.7</ele><time>2026-03-08T09:38:44.000Z</time></trkpt>
<trkpt lat="42.099547" lon="23.582288"><ele>2332.7</ele><time>2026-03-08T09:38:45.000Z</time></trkpt>
<trkpt lat="42.099546" lon="23.582283"><ele>2332.7</ele><time>2026-03-08T09:38:46.000Z</time></trkpt>
<trkpt lat="42.099547" lon="23.582279"><ele>2332.6</ele><time>2026-03-08T09:38:47.000Z</time></trkpt>
<trkpt lat="42.099547" lon="23.582275"><ele>2332.6</ele><time>2026-03-08T09:38:48.000Z</time></trkpt>
<trkpt lat="42.099547" lon="23.582273"><ele>2332.6</ele><time>2026-03-08T09:38:49.000Z</time></trkpt>
<trkpt lat="42.099547" lon="23.582271"><ele>2332.6</ele><time>2026-03-08T09:38:50.000Z</time></trkpt>
<trkpt lat="42.099547" lon="23.582271"><ele>2332.6</ele><time>2026-03-08T09:38:51.000Z</time></trkpt>
<trkpt lat="42.099547" lon="23.582271"><ele>2332.6</ele><time>2026-03-08T09:38:52.000Z</time></trkpt>
<trkpt lat="42.099547" lon="23.582271"><ele>2332.6</ele><time>2026-03-08T09:38:53.000Z</time></trkpt>
<trkpt lat="42.099547" lon="23.582271"><ele>2332.6</ele><time>2026-03-08T09:38:54.000Z</time></trkpt>
<trkpt lat="42.099547" lon="23.582271"><ele>2332.6</ele><time>2026-03-08T09:38:55.000Z</time></trkpt>
<trkpt lat="42.099547" lon="23.582271"><ele>2332.6</ele><time>2026-03-08T09:38:56.000Z</time></trkpt>
<trkpt lat="42.099547" lon="23.582271"><ele>2332.6</ele><time>2026-03-08T09:38:57.000Z</time></trkpt>
<trkpt lat="42.099547" lon="23.582271"><ele>2332.6</ele><time>2026-03-08T09:38:58.000Z</time></trkpt>
<trkpt lat="42.099547" lon="23.582271"><ele>2332.6</ele><time>2026-03-08T09:38:59.000Z</time></trkpt>
<trkpt lat="42.099547" lon="23.582271"><ele>2332.6</ele><time>2026-03-08T09:39:00.000Z</time></trkpt>
<trkpt lat="42.099547" lon="23.582271"><ele>2332.6</ele><time>2026-03-08T09:39:01.000Z</time></trkpt>
<trkpt lat="42.099547" lon="23.582271"><ele>2332.6</ele><time>2026-03-08T09:39:02.000Z</time></trkpt>
<trkpt lat="42.099547" lon="23.582271"><ele>2332.6</ele><time>2026-03-08T09:39:03.000Z</time></trkpt>
<trkpt lat="42.099547" lon="23.582271"><ele>2332.6</ele><time>2026-03-08T09:39:04.000Z</time></trkpt>
<trkpt lat="42.099548" lon="23.582272"><ele>2332.6</ele><time>2026-03-08T09:39:05.000Z</time></trkpt>
<trkpt lat="42.099548" lon="23.582272"><ele>2332.6</ele><time>2026-03-08T09:39:06.000Z</time></trkpt>
<trkpt lat="42.099548" lon="23.582271"><ele>2332.7</ele><time>2026-03-08T09:39:07.000Z</time></trkpt>
<trkpt lat="42.099549" lon="23.582272"><ele>2332.7</ele><time>2026-03-08T09:39:08.000Z</time></trkpt>
<trkpt lat="42.099549" lon="23.582272"><ele>2332.7</ele><time>2026-03-08T09:39:09.000Z</time></trkpt>
<trkpt lat="42.099549" lon="23.582272"><ele>2332.7</ele><time>2026-03-08T09:39:10.000Z</time></trkpt>
<trkpt lat="42.099549" lon="23.582273"><ele>2332.7</ele><time>2026-03-08T09:39:11.000Z</time></trkpt>
<trkpt lat="42.099549" lon="23.582273"><ele>2332.7</ele><time>2026-03-08T09:39:12.000Z</time></trkpt>
<trkpt lat="42.099549" lon="23.582273"><ele>2332.7</ele><time>2026-03-08T09:39:13.000Z</time></trkpt>
<trkpt lat="42.099548" lon="23.582273"><ele>2332.7</ele><time>2026-03-08T09:39:14.000Z</time></trkpt>
<trkpt lat="42.099548" lon="23.582273"><ele>2332.7</ele><time>2026-03-08T09:39:15.000Z</time></trkpt>
<trkpt lat="42.099548" lon="23.582273"><ele>2332.7</ele><time>2026-03-08T09:39:16.000Z</time></trkpt>
<trkpt lat="42.099548" lon="23.582273"><ele>2332.6</ele><time>2026-03-08T09:39:17.000Z</time></trkpt>
<trkpt lat="42.099548" lon="23.582273"><ele>2332.6</ele><time>2026-03-08T09:39:18.000Z</time></trkpt>
<trkpt lat="42.099548" lon="23.582273"><ele>2332.6</ele><time>2026-03-08T09:39:19.000Z</time></trkpt>
<trkpt lat="42.099548" lon="23.582273"><ele>2332.6</ele><time>2026-03-08T09:39:20.000Z</time></trkpt>
<trkpt lat="42.099548" lon="23.582273"><ele>2332.6</ele><time>2026-03-08T09:39:21.000Z</time></trkpt>
<trkpt lat="42.099549" lon="23.582273"><ele>2332.4</ele><time>2026-03-08T09:39:22.000Z</time></trkpt>
<trkpt lat="42.099549" lon="23.582273"><ele>2332.4</ele><time>2026-03-08T09:39:23.000Z</time></trkpt>
<trkpt lat="42.099549" lon="23.582273"><ele>2332.4</ele><time>2026-03-08T09:39:24.000Z</time></trkpt>
<trkpt lat="42.099549" lon="23.582273"><ele>2332.4</ele><time>2026-03-08T09:39:25.000Z</time></trkpt>
<trkpt lat="42.099549" lon="23.582272"><ele>2332.4</ele><time>2026-03-08T09:39:26.000Z</time></trkpt>
<trkpt lat="42.099549" lon="23.582272"><ele>2332.4</ele><time>2026-03-08T09:39:27.000Z</time></trkpt>
<trkpt lat="42.099549" lon="23.582272"><ele>2332.4</ele><time>2026-03-08T09:39:28.000Z</time></trkpt>
<trkpt lat="42.099548" lon="23.582272"><ele>2332.4</ele><time>2026-03-08T09:39:29.000Z</time></trkpt>
<trkpt lat="42.099546" lon="23.582271"><ele>2332.4</ele><time>2026-03-08T09:39:30.000Z</time></trkpt>
<trkpt lat="42.099544" lon="23.58227"><ele>2332.4</ele><time>2026-03-08T09:39:31.000Z</time></trkpt>
<trkpt lat="42.099543" lon="23.582269"><ele>2332.4</ele><time>2026-03-08T09:39:32.000Z</time></trkpt>
<trkpt lat="42.099541" lon="23.582269"><ele>2332.4</ele><time>2026-03-08T09:39:33.000Z</time></trkpt>
<trkpt lat="42.09954" lon="23.582268"><ele>2332.4</ele><time>2026-03-08T09:39:34.000Z</time></trkpt>
<trkpt lat="42.09954" lon="23.582268"><ele>2332.4</ele><time>2026-03-08T09:39:35.000Z</time></trkpt>
<trkpt lat="42.09954" lon="23.582268"><ele>2332.4</ele><time>2026-03-08T09:39:36.000Z</time></trkpt>
<trkpt lat="42.09954" lon="23.582268"><ele>2332.4</ele><time>2026-03-08T09:39:37.000Z</time></trkpt>
<trkpt lat="42.09954" lon="23.582268"><ele>2332.4</ele><time>2026-03-08T09:39:38.000Z</time></trkpt>
<trkpt lat="42.09954" lon="23.582268"><ele>2332.4</ele><time>2026-03-08T09:39:39.000Z</time></trkpt>
<trkpt lat="42.09954" lon="23.582268"><ele>2332.4</ele><time>2026-03-08T09:39:40.000Z</time></trkpt>
<trkpt lat="42.09954" lon="23.582268"><ele>2332.4</ele><time>2026-03-08T09:39:41.000Z</time></trkpt>
<trkpt lat="42.09954" lon="23.582268"><ele>2332.3</ele><time>2026-03-08T09:39:42.000Z</time></trkpt>
<trkpt lat="42.09954" lon="23.582268"><ele>2332.3</ele><time>2026-03-08T09:39:43.000Z</time></trkpt>
<trkpt lat="42.09954" lon="23.582268"><ele>2332.3</ele><time>2026-03-08T09:39:44.000Z</time></trkpt>
<trkpt lat="42.09954" lon="23.582269"><ele>2332.3</ele><time>2026-03-08T09:39:45.000Z</time></trkpt>
<trkpt lat="42.09954" lon="23.582268"><ele>2332.3</ele><time>2026-03-08T09:39:46.000Z</time></trkpt>
<trkpt lat="42.09954" lon="23.582268"><ele>2332</ele><time>2026-03-08T09:39:47.000Z</time></trkpt>
<trkpt lat="42.09954" lon="23.582267"><ele>2332</ele><time>2026-03-08T09:39:48.000Z</time></trkpt>
<trkpt lat="42.09954" lon="23.582266"><ele>2332</ele><time>2026-03-08T09:39:49.000Z</time></trkpt>
<trkpt lat="42.09954" lon="23.582267"><ele>2332</ele><time>2026-03-08T09:39:50.000Z</time></trkpt>
<trkpt lat="42.099539" lon="23.582268"><ele>2332</ele><time>2026-03-08T09:39:51.000Z</time></trkpt>
<trkpt lat="42.099538" lon="23.582269"><ele>2332.2</ele><time>2026-03-08T09:39:52.000Z</time></trkpt>
<trkpt lat="42.099538" lon="23.58227"><ele>2332.2</ele><time>2026-03-08T09:39:53.000Z</time></trkpt>
<trkpt lat="42.099538" lon="23.58227"><ele>2332.2</ele><time>2026-03-08T09:39:54.000Z</time></trkpt>
<trkpt lat="42.099539" lon="23.58227"><ele>2332.2</ele><time>2026-03-08T09:39:55.000Z</time></trkpt>
<trkpt lat="42.09954" lon="23.58227"><ele>2332.2</ele><time>2026-03-08T09:39:56.000Z</time></trkpt>
<trkpt lat="42.099542" lon="23.58227"><ele>2332.4</ele><time>2026-03-08T09:39:57.000Z</time></trkpt>
<trkpt lat="42.099543" lon="23.582271"><ele>2332.4</ele><time>2026-03-08T09:39:58.000Z</time></trkpt>
<trkpt lat="42.099545" lon="23.582272"><ele>2332.4</ele><time>2026-03-08T09:39:59.000Z</time></trkpt>
<trkpt lat="42.099546" lon="23.582272"><ele>2332.4</ele><time>2026-03-08T09:40:00.000Z</time></trkpt>
<trkpt lat="42.099546" lon="23.582273"><ele>2332.4</ele><time>2026-03-08T09:40:01.000Z</time></trkpt>
<trkpt lat="42.099546" lon="23.582273"><ele>2333</ele><time>2026-03-08T09:40:02.000Z</time></trkpt>
<trkpt lat="42.099547" lon="23.582273"><ele>2333</ele><time>2026-03-08T09:40:03.000Z</time></trkpt>
<trkpt lat="42.099548" lon="23.582275"><ele>2333</ele><time>2026-03-08T09:40:04.000Z</time></trkpt>
<trkpt lat="42.099548" lon="23.582276"><ele>2333</ele><time>2026-03-08T09:40:05.000Z</time></trkpt>
<trkpt lat="42.099549" lon="23.582277"><ele>2333</ele><time>2026-03-08T09:40:06.000Z</time></trkpt>
<trkpt lat="42.09955" lon="23.582278"><ele>2333.3</ele><time>2026-03-08T09:40:07.000Z</time></trkpt>
<trkpt lat="42.09955" lon="23.582278"><ele>2333.3</ele><time>2026-03-08T09:40:08.000Z</time></trkpt>
<trkpt lat="42.09955" lon="23.582278"><ele>2333.3</ele><time>2026-03-08T09:40:09.000Z</time></trkpt>
<trkpt lat="42.09955" lon="23.582277"><ele>2333.3</ele><time>2026-03-08T09:40:10.000Z</time></trkpt>
<trkpt lat="42.09955" lon="23.582277"><ele>2333.3</ele><time>2026-03-08T09:40:11.000Z</time></trkpt>
<trkpt lat="42.09955" lon="23.582277"><ele>2333.4</ele><time>2026-03-08T09:40:12.000Z</time></trkpt>
<trkpt lat="42.09955" lon="23.582277"><ele>2333.4</ele><time>2026-03-08T09:40:13.000Z</time></trkpt>
<trkpt lat="42.09955" lon="23.582277"><ele>2333.4</ele><time>2026-03-08T09:40:14.000Z</time></trkpt>
<trkpt lat="42.099551" lon="23.582278"><ele>2333.4</ele><time>2026-03-08T09:40:15.000Z</time></trkpt>
<trkpt lat="42.099551" lon="23.582278"><ele>2333.4</ele><time>2026-03-08T09:40:16.000Z</time></trkpt>
<trkpt lat="42.099551" lon="23.582278"><ele>2333.2</ele><time>2026-03-08T09:40:17.000Z</time></trkpt>
<trkpt lat="42.099551" lon="23.582278"><ele>2333.2</ele><time>2026-03-08T09:40:18.000Z</time></trkpt>
<trkpt lat="42.099551" lon="23.582278"><ele>2333.2</ele><time>2026-03-08T09:40:19.000Z</time></trkpt>
<trkpt lat="42.099551" lon="23.582278"><ele>2333.2</ele><time>2026-03-08T09:40:20.000Z</time></trkpt>
<trkpt lat="42.099551" lon="23.582278"><ele>2333.2</ele><time>2026-03-08T09:40:21.000Z</time></trkpt>
<trkpt lat="42.09955" lon="23.582278"><ele>2332.7</ele><time>2026-03-08T09:40:22.000Z</time></trkpt>
<trkpt lat="42.099549" lon="23.582277"><ele>2332.7</ele><time>2026-03-08T09:40:23.000Z</time></trkpt>
<trkpt lat="42.099547" lon="23.582277"><ele>2332.7</ele><time>2026-03-08T09:40:24.000Z</time></trkpt>
<trkpt lat="42.099545" lon="23.582275"><ele>2332.7</ele><time>2026-03-08T09:40:25.000Z</time></trkpt>
<trkpt lat="42.099542" lon="23.582274"><ele>2332.7</ele><time>2026-03-08T09:40:26.000Z</time></trkpt>
<trkpt lat="42.099541" lon="23.582272"><ele>2332.4</ele><time>2026-03-08T09:40:27.000Z</time></trkpt>
<trkpt lat="42.09954" lon="23.582272"><ele>2332.4</ele><time>2026-03-08T09:40:28.000Z</time></trkpt>
<trkpt lat="42.09954" lon="23.582271"><ele>2332.4</ele><time>2026-03-08T09:40:29.000Z</time></trkpt>
<trkpt lat="42.09954" lon="23.582271"><ele>2332.4</ele><time>2026-03-08T09:40:30.000Z</time></trkpt>
<trkpt lat="42.09954" lon="23.582271"><ele>2332.4</ele><time>2026-03-08T09:40:31.000Z</time></trkpt>
<trkpt lat="42.09954" lon="23.582271"><ele>2332.1</ele><time>2026-03-08T09:40:32.000Z</time></trkpt>
<trkpt lat="42.09954" lon="23.582271"><ele>2332.1</ele><time>2026-03-08T09:40:33.000Z</time></trkpt>
<trkpt lat="42.09954" lon="23.582271"><ele>2332.1</ele><time>2026-03-08T09:40:34.000Z</time></trkpt>
<trkpt lat="42.09954" lon="23.582271"><ele>2332.1</ele><time>2026-03-08T09:40:35.000Z</time></trkpt>
<trkpt lat="42.09954" lon="23.582272"><ele>2332.1</ele><time>2026-03-08T09:40:36.000Z</time></trkpt>
<trkpt lat="42.099539" lon="23.582273"><ele>2332</ele><time>2026-03-08T09:40:37.000Z</time></trkpt>
<trkpt lat="42.099539" lon="23.582273"><ele>2332</ele><time>2026-03-08T09:40:38.000Z</time></trkpt>
<trkpt lat="42.099539" lon="23.582274"><ele>2332</ele><time>2026-03-08T09:40:39.000Z</time></trkpt>
<trkpt lat="42.099538" lon="23.582275"><ele>2332</ele><time>2026-03-08T09:40:40.000Z</time></trkpt>
<trkpt lat="42.099538" lon="23.582274"><ele>2332</ele><time>2026-03-08T09:40:41.000Z</time></trkpt>
<trkpt lat="42.099538" lon="23.582273"><ele>2332.1</ele><time>2026-03-08T09:40:42.000Z</time></trkpt>
<trkpt lat="42.099539" lon="23.582273"><ele>2332.1</ele><time>2026-03-08T09:40:43.000Z</time></trkpt>
<trkpt lat="42.099541" lon="23.582273"><ele>2332.1</ele><time>2026-03-08T09:40:44.000Z</time></trkpt>
<trkpt lat="42.099543" lon="23.582274"><ele>2332.1</ele><time>2026-03-08T09:40:45.000Z</time></trkpt>
<trkpt lat="42.099544" lon="23.582275"><ele>2332.1</ele><time>2026-03-08T09:40:46.000Z</time></trkpt>
<trkpt lat="42.099546" lon="23.582276"><ele>2332.2</ele><time>2026-03-08T09:40:47.000Z</time></trkpt>
<trkpt lat="42.099547" lon="23.582278"><ele>2332.2</ele><time>2026-03-08T09:40:48.000Z</time></trkpt>
<trkpt lat="42.099547" lon="23.582278"><ele>2332.2</ele><time>2026-03-08T09:40:49.000Z</time></trkpt>
<trkpt lat="42.099547" lon="23.582279"><ele>2332.2</ele><time>2026-03-08T09:40:50.000Z</time></trkpt>
<trkpt lat="42.099546" lon="23.58228"><ele>2332.2</ele><time>2026-03-08T09:40:51.000Z</time></trkpt>
<trkpt lat="42.099545" lon="23.582281"><ele>2332.4</ele><time>2026-03-08T09:40:52.000Z</time></trkpt>
<trkpt lat="42.099545" lon="23.582281"><ele>2332.4</ele><time>2026-03-08T09:40:53.000Z</time></trkpt>
<trkpt lat="42.099544" lon="23.582281"><ele>2332.4</ele><time>2026-03-08T09:40:54.000Z</time></trkpt>
<trkpt lat="42.099543" lon="23.582281"><ele>2332.4</ele><time>2026-03-08T09:40:55.000Z</time></trkpt>
<trkpt lat="42.099542" lon="23.582281"><ele>2332.4</ele><time>2026-03-08T09:40:56.000Z</time></trkpt>
<trkpt lat="42.099543" lon="23.582282"><ele>2332.4</ele><time>2026-03-08T09:40:57.000Z</time></trkpt>
<trkpt lat="42.099543" lon="23.582282"><ele>2332.4</ele><time>2026-03-08T09:40:58.000Z</time></trkpt>
<trkpt lat="42.099544" lon="23.582283"><ele>2332.4</ele><time>2026-03-08T09:40:59.000Z</time></trkpt>
<trkpt lat="42.099544" lon="23.582284"><ele>2332.4</ele><time>2026-03-08T09:41:00.000Z</time></trkpt>
<trkpt lat="42.099545" lon="23.582286"><ele>2332.4</ele><time>2026-03-08T09:41:01.000Z</time></trkpt>
<trkpt lat="42.099545" lon="23.582287"><ele>2332.6</ele><time>2026-03-08T09:41:02.000Z</time></trkpt>
<trkpt lat="42.099545" lon="23.582288"><ele>2332.6</ele><time>2026-03-08T09:41:03.000Z</time></trkpt>
<trkpt lat="42.099545" lon="23.582289"><ele>2332.6</ele><time>2026-03-08T09:41:04.000Z</time></trkpt>
<trkpt lat="42.099545" lon="23.582289"><ele>2332.6</ele><time>2026-03-08T09:41:05.000Z</time></trkpt>
<trkpt lat="42.099546" lon="23.582287"><ele>2332.6</ele><time>2026-03-08T09:41:06.000Z</time></trkpt>
<trkpt lat="42.099545" lon="23.582282"><ele>2332.8</ele><time>2026-03-08T09:41:07.000Z</time></trkpt>
<trkpt lat="42.099545" lon="23.582276"><ele>2332.8</ele><time>2026-03-08T09:41:08.000Z</time></trkpt>
<trkpt lat="42.099543" lon="23.582268"><ele>2332.8</ele><time>2026-03-08T09:41:09.000Z</time></trkpt>
<trkpt lat="42.099541" lon="23.582258"><ele>2332.8</ele><time>2026-03-08T09:41:10.000Z</time></trkpt>
<trkpt lat="42.099537" lon="23.58225"><ele>2332.8</ele><time>2026-03-08T09:41:11.000Z</time></trkpt>
<trkpt lat="42.099531" lon="23.582244"><ele>2332.8</ele><time>2026-03-08T09:41:12.000Z</time></trkpt>
<trkpt lat="42.099524" lon="23.582241"><ele>2332.8</ele><time>2026-03-08T09:41:13.000Z</time></trkpt>
<trkpt lat="42.099516" lon="23.582239"><ele>2332.8</ele><time>2026-03-08T09:41:14.000Z</time></trkpt>
<trkpt lat="42.099508" lon="23.582239"><ele>2332.8</ele><time>2026-03-08T09:41:15.000Z</time></trkpt>
<trkpt lat="42.099499" lon="23.582239"><ele>2332.8</ele><time>2026-03-08T09:41:16.000Z</time></trkpt>
<trkpt lat="42.099491" lon="23.58224"><ele>2332.8</ele><time>2026-03-08T09:41:17.000Z</time></trkpt>
<trkpt lat="42.099483" lon="23.58224"><ele>2332.8</ele><time>2026-03-08T09:41:18.000Z</time></trkpt>
<trkpt lat="42.099476" lon="23.582241"><ele>2332.8</ele><time>2026-03-08T09:41:19.000Z</time></trkpt>
<trkpt lat="42.09947" lon="23.582242"><ele>2332.8</ele><time>2026-03-08T09:41:20.000Z</time></trkpt>
<trkpt lat="42.099462" lon="23.582243"><ele>2332.8</ele><time>2026-03-08T09:41:21.000Z</time></trkpt>
<trkpt lat="42.099455" lon="23.582244"><ele>2332.8</ele><time>2026-03-08T09:41:22.000Z</time></trkpt>
<trkpt lat="42.099449" lon="23.582244"><ele>2332.8</ele><time>2026-03-08T09:41:23.000Z</time></trkpt>
<trkpt lat="42.099443" lon="23.582243"><ele>2332.8</ele><time>2026-03-08T09:41:24.000Z</time></trkpt>
<trkpt lat="42.099437" lon="23.582241"><ele>2332.8</ele><time>2026-03-08T09:41:25.000Z</time></trkpt>
<trkpt lat="42.099431" lon="23.58224"><ele>2332.8</ele><time>2026-03-08T09:41:26.000Z</time></trkpt>
<trkpt lat="42.099425" lon="23.582238"><ele>2332.9</ele><time>2026-03-08T09:41:27.000Z</time></trkpt>
<trkpt lat="42.09942" lon="23.582235"><ele>2332.9</ele><time>2026-03-08T09:41:28.000Z</time></trkpt>
<trkpt lat="42.099415" lon="23.58223"><ele>2332.9</ele><time>2026-03-08T09:41:29.000Z</time></trkpt>
<trkpt lat="42.099411" lon="23.582225"><ele>2332.9</ele><time>2026-03-08T09:41:30.000Z</time></trkpt>
<trkpt lat="42.099408" lon="23.582218"><ele>2332.9</ele><time>2026-03-08T09:41:31.000Z</time></trkpt>
<trkpt lat="42.099404" lon="23.582211"><ele>2333.2</ele><time>2026-03-08T09:41:32.000Z</time></trkpt>
<trkpt lat="42.0994" lon="23.582204"><ele>2333.2</ele><time>2026-03-08T09:41:33.000Z</time></trkpt>
<trkpt lat="42.099395" lon="23.582198"><ele>2333.2</ele><time>2026-03-08T09:41:34.000Z</time></trkpt>
<trkpt lat="42.099389" lon="23.582194"><ele>2333.2</ele><time>2026-03-08T09:41:35.000Z</time></trkpt>
<trkpt lat="42.099383" lon="23.582191"><ele>2333.2</ele><time>2026-03-08T09:41:36.000Z</time></trkpt>
<trkpt lat="42.099377" lon="23.582189"><ele>2333.9</ele><time>2026-03-08T09:41:37.000Z</time></trkpt>
<trkpt lat="42.09937" lon="23.582188"><ele>2333.9</ele><time>2026-03-08T09:41:38.000Z</time></trkpt>
<trkpt lat="42.099364" lon="23.582186"><ele>2333.9</ele><time>2026-03-08T09:41:39.000Z</time></trkpt>
<trkpt lat="42.099358" lon="23.582183"><ele>2333.9</ele><time>2026-03-08T09:41:40.000Z</time></trkpt>
<trkpt lat="42.099351" lon="23.582179"><ele>2333.9</ele><time>2026-03-08T09:41:41.000Z</time></trkpt>
<trkpt lat="42.099345" lon="23.582174"><ele>2334.2</ele><time>2026-03-08T09:41:42.000Z</time></trkpt>
<trkpt lat="42.099339" lon="23.582171"><ele>2334.2</ele><time>2026-03-08T09:41:43.000Z</time></trkpt>
<trkpt lat="42.099334" lon="23.582166"><ele>2334.2</ele><time>2026-03-08T09:41:44.000Z</time></trkpt>
<trkpt lat="42.099327" lon="23.582163"><ele>2334.2</ele><time>2026-03-08T09:41:45.000Z</time></trkpt>
<trkpt lat="42.099322" lon="23.582159"><ele>2334.2</ele><time>2026-03-08T09:41:46.000Z</time></trkpt>
<trkpt lat="42.099317" lon="23.582155"><ele>2334.9</ele><time>2026-03-08T09:41:47.000Z</time></trkpt>
<trkpt lat="42.099312" lon="23.582151"><ele>2334.9</ele><time>2026-03-08T09:41:48.000Z</time></trkpt>
<trkpt lat="42.099307" lon="23.582148"><ele>2334.9</ele><time>2026-03-08T09:41:49.000Z</time></trkpt>
<trkpt lat="42.099302" lon="23.582145"><ele>2334.9</ele><time>2026-03-08T09:41:50.000Z</time></trkpt>
<trkpt lat="42.099297" lon="23.582143"><ele>2334.9</ele><time>2026-03-08T09:41:51.000Z</time></trkpt>
<trkpt lat="42.099292" lon="23.58214"><ele>2335.3</ele><time>2026-03-08T09:41:52.000Z</time></trkpt>
<trkpt lat="42.099286" lon="23.582137"><ele>2335.3</ele><time>2026-03-08T09:41:53.000Z</time></trkpt>
<trkpt lat="42.099281" lon="23.582135"><ele>2335.3</ele><time>2026-03-08T09:41:54.000Z</time></trkpt>
<trkpt lat="42.099276" lon="23.582131"><ele>2335.3</ele><time>2026-03-08T09:41:55.000Z</time></trkpt>
<trkpt lat="42.09927" lon="23.582127"><ele>2335.3</ele><time>2026-03-08T09:41:56.000Z</time></trkpt>
<trkpt lat="42.099266" lon="23.582123"><ele>2335.5</ele><time>2026-03-08T09:41:57.000Z</time></trkpt>
<trkpt lat="42.099262" lon="23.582118"><ele>2335.5</ele><time>2026-03-08T09:41:58.000Z</time></trkpt>
<trkpt lat="42.099258" lon="23.582112"><ele>2335.5</ele><time>2026-03-08T09:41:59.000Z</time></trkpt>
<trkpt lat="42.099255" lon="23.582107"><ele>2335.5</ele><time>2026-03-08T09:42:00.000Z</time></trkpt>
<trkpt lat="42.099251" lon="23.582103"><ele>2335.5</ele><time>2026-03-08T09:42:01.000Z</time></trkpt>
<trkpt lat="42.099248" lon="23.5821"><ele>2336</ele><time>2026-03-08T09:42:02.000Z</time></trkpt>
<trkpt lat="42.099246" lon="23.582098"><ele>2336</ele><time>2026-03-08T09:42:03.000Z</time></trkpt>
<trkpt lat="42.099245" lon="23.582097"><ele>2336</ele><time>2026-03-08T09:42:04.000Z</time></trkpt>
<trkpt lat="42.099245" lon="23.582097"><ele>2336</ele><time>2026-03-08T09:42:05.000Z</time></trkpt>
<trkpt lat="42.099245" lon="23.582096"><ele>2336</ele><time>2026-03-08T09:42:06.000Z</time></trkpt>
<trkpt lat="42.099246" lon="23.582096"><ele>2336.5</ele><time>2026-03-08T09:42:07.000Z</time></trkpt>
<trkpt lat="42.099247" lon="23.582095"><ele>2336.5</ele><time>2026-03-08T09:42:08.000Z</time></trkpt>
<trkpt lat="42.099246" lon="23.582095"><ele>2336.5</ele><time>2026-03-08T09:42:09.000Z</time></trkpt>
<trkpt lat="42.099246" lon="23.582096"><ele>2336.5</ele><time>2026-03-08T09:42:10.000Z</time></trkpt>
<trkpt lat="42.099245" lon="23.582096"><ele>2336.5</ele><time>2026-03-08T09:42:11.000Z</time></trkpt>
<trkpt lat="42.099244" lon="23.582096"><ele>2336.8</ele><time>2026-03-08T09:42:12.000Z</time></trkpt>
<trkpt lat="42.099243" lon="23.582096"><ele>2336.8</ele><time>2026-03-08T09:42:13.000Z</time></trkpt>
<trkpt lat="42.099242" lon="23.582094"><ele>2336.8</ele><time>2026-03-08T09:42:14.000Z</time></trkpt>
<trkpt lat="42.099242" lon="23.582093"><ele>2336.8</ele><time>2026-03-08T09:42:15.000Z</time></trkpt>
<trkpt lat="42.099242" lon="23.582092"><ele>2336.8</ele><time>2026-03-08T09:42:16.000Z</time></trkpt>
<trkpt lat="42.099241" lon="23.582091"><ele>2337.1</ele><time>2026-03-08T09:42:17.000Z</time></trkpt>
<trkpt lat="42.09924" lon="23.582092"><ele>2337.1</ele><time>2026-03-08T09:42:18.000Z</time></trkpt>
<trkpt lat="42.099239" lon="23.582092"><ele>2337.1</ele><time>2026-03-08T09:42:19.000Z</time></trkpt>
<trkpt lat="42.099238" lon="23.582092"><ele>2337.1</ele><time>2026-03-08T09:42:20.000Z</time></trkpt>
<trkpt lat="42.099236" lon="23.582092"><ele>2337.1</ele><time>2026-03-08T09:42:21.000Z</time></trkpt>
<trkpt lat="42.099235" lon="23.582092"><ele>2337.3</ele><time>2026-03-08T09:42:22.000Z</time></trkpt>
<trkpt lat="42.099234" lon="23.582092"><ele>2337.3</ele><time>2026-03-08T09:42:23.000Z</time></trkpt>
<trkpt lat="42.099233" lon="23.582091"><ele>2337.3</ele><time>2026-03-08T09:42:24.000Z</time></trkpt>
<trkpt lat="42.099232" lon="23.582092"><ele>2337.3</ele><time>2026-03-08T09:42:25.000Z</time></trkpt>
<trkpt lat="42.099231" lon="23.582093"><ele>2337.3</ele><time>2026-03-08T09:42:26.000Z</time></trkpt>
<trkpt lat="42.09923" lon="23.582094"><ele>2337.4</ele><time>2026-03-08T09:42:27.000Z</time></trkpt>
<trkpt lat="42.099229" lon="23.582095"><ele>2337.4</ele><time>2026-03-08T09:42:28.000Z</time></trkpt>
<trkpt lat="42.099229" lon="23.582096"><ele>2337.4</ele><time>2026-03-08T09:42:29.000Z</time></trkpt>
<trkpt lat="42.099229" lon="23.582096"><ele>2337.4</ele><time>2026-03-08T09:42:30.000Z</time></trkpt>
<trkpt lat="42.099228" lon="23.582096"><ele>2337.4</ele><time>2026-03-08T09:42:31.000Z</time></trkpt>
<trkpt lat="42.099228" lon="23.582096"><ele>2337.4</ele><time>2026-03-08T09:42:32.000Z</time></trkpt>
<trkpt lat="42.099228" lon="23.582096"><ele>2337.4</ele><time>2026-03-08T09:42:33.000Z</time></trkpt>
<trkpt lat="42.099228" lon="23.582097"><ele>2337.4</ele><time>2026-03-08T09:42:34.000Z</time></trkpt>
<trkpt lat="42.099228" lon="23.582097"><ele>2337.4</ele><time>2026-03-08T09:42:35.000Z</time></trkpt>
<trkpt lat="42.099228" lon="23.582097"><ele>2337.4</ele><time>2026-03-08T09:42:36.000Z</time></trkpt>
<trkpt lat="42.099227" lon="23.582098"><ele>2337.3</ele><time>2026-03-08T09:42:37.000Z</time></trkpt>
<trkpt lat="42.099227" lon="23.582098"><ele>2337.3</ele><time>2026-03-08T09:42:38.000Z</time></trkpt>
<trkpt lat="42.099227" lon="23.582098"><ele>2337.3</ele><time>2026-03-08T09:42:39.000Z</time></trkpt>
<trkpt lat="42.099227" lon="23.582098"><ele>2337.3</ele><time>2026-03-08T09:42:40.000Z</time></trkpt>
<trkpt lat="42.099227" lon="23.582098"><ele>2337.3</ele><time>2026-03-08T09:42:41.000Z</time></trkpt>
<trkpt lat="42.099227" lon="23.582098"><ele>2337.2</ele><time>2026-03-08T09:42:42.000Z</time></trkpt>
<trkpt lat="42.099227" lon="23.582098"><ele>2337.2</ele><time>2026-03-08T09:42:43.000Z</time></trkpt>
<trkpt lat="42.099227" lon="23.582098"><ele>2337.2</ele><time>2026-03-08T09:42:44.000Z</time></trkpt>
<trkpt lat="42.099227" lon="23.582098"><ele>2337.2</ele><time>2026-03-08T09:42:45.000Z</time></trkpt>
<trkpt lat="42.099227" lon="23.582098"><ele>2337.2</ele><time>2026-03-08T09:42:46.000Z</time></trkpt>
<trkpt lat="42.099227" lon="23.582098"><ele>2337</ele><time>2026-03-08T09:42:47.000Z</time></trkpt>
<trkpt lat="42.099227" lon="23.582098"><ele>2337</ele><time>2026-03-08T09:42:48.000Z</time></trkpt>
<trkpt lat="42.099227" lon="23.582099"><ele>2337</ele><time>2026-03-08T09:42:49.000Z</time></trkpt>
<trkpt lat="42.099226" lon="23.5821"><ele>2337</ele><time>2026-03-08T09:42:50.000Z</time></trkpt>
<trkpt lat="42.099225" lon="23.582102"><ele>2337</ele><time>2026-03-08T09:42:51.000Z</time></trkpt>
<trkpt lat="42.099224" lon="23.582103"><ele>2336.8</ele><time>2026-03-08T09:42:52.000Z</time></trkpt>
<trkpt lat="42.099222" lon="23.582105"><ele>2336.8</ele><time>2026-03-08T09:42:53.000Z</time></trkpt>
<trkpt lat="42.099222" lon="23.582106"><ele>2336.8</ele><time>2026-03-08T09:42:54.000Z</time></trkpt>
<trkpt lat="42.099221" lon="23.582106"><ele>2336.8</ele><time>2026-03-08T09:42:55.000Z</time></trkpt>
<trkpt lat="42.09922" lon="23.582106"><ele>2336.8</ele><time>2026-03-08T09:42:56.000Z</time></trkpt>
<trkpt lat="42.09922" lon="23.582106"><ele>2336.8</ele><time>2026-03-08T09:42:57.000Z</time></trkpt>
<trkpt lat="42.099219" lon="23.582105"><ele>2336.8</ele><time>2026-03-08T09:42:58.000Z</time></trkpt>
<trkpt lat="42.099219" lon="23.582105"><ele>2336.8</ele><time>2026-03-08T09:42:59.000Z</time></trkpt>
<trkpt lat="42.099219" lon="23.582105"><ele>2336.8</ele><time>2026-03-08T09:43:00.000Z</time></trkpt>
<trkpt lat="42.09922" lon="23.582105"><ele>2336.8</ele><time>2026-03-08T09:43:01.000Z</time></trkpt>
<trkpt lat="42.09922" lon="23.582106"><ele>2337</ele><time>2026-03-08T09:43:02.000Z</time></trkpt>
<trkpt lat="42.09922" lon="23.582106"><ele>2337</ele><time>2026-03-08T09:43:03.000Z</time></trkpt>
<trkpt lat="42.09922" lon="23.582105"><ele>2337</ele><time>2026-03-08T09:43:04.000Z</time></trkpt>
<trkpt lat="42.09922" lon="23.582105"><ele>2337</ele><time>2026-03-08T09:43:05.000Z</time></trkpt>
<trkpt lat="42.09922" lon="23.582105"><ele>2337</ele><time>2026-03-08T09:43:06.000Z</time></trkpt>
<trkpt lat="42.09922" lon="23.582105"><ele>2337.2</ele><time>2026-03-08T09:43:07.000Z</time></trkpt>
<trkpt lat="42.09922" lon="23.582105"><ele>2337.2</ele><time>2026-03-08T09:43:08.000Z</time></trkpt>
<trkpt lat="42.09922" lon="23.582104"><ele>2337.2</ele><time>2026-03-08T09:43:09.000Z</time></trkpt>
<trkpt lat="42.09922" lon="23.582104"><ele>2337.2</ele><time>2026-03-08T09:43:10.000Z</time></trkpt>
<trkpt lat="42.09922" lon="23.582104"><ele>2337.2</ele><time>2026-03-08T09:43:11.000Z</time></trkpt>
<trkpt lat="42.09922" lon="23.582104"><ele>2337.2</ele><time>2026-03-08T09:43:12.000Z</time></trkpt>
<trkpt lat="42.09922" lon="23.582104"><ele>2337.2</ele><time>2026-03-08T09:43:13.000Z</time></trkpt>
<trkpt lat="42.099221" lon="23.582105"><ele>2337.2</ele><time>2026-03-08T09:43:14.000Z</time></trkpt>
<trkpt lat="42.099221" lon="23.582105"><ele>2337.2</ele><time>2026-03-08T09:43:15.000Z</time></trkpt>
<trkpt lat="42.099222" lon="23.582105"><ele>2337.2</ele><time>2026-03-08T09:43:16.000Z</time></trkpt>
<trkpt lat="42.099222" lon="23.582106"><ele>2337.1</ele><time>2026-03-08T09:43:17.000Z</time></trkpt>
<trkpt lat="42.099223" lon="23.582106"><ele>2337.1</ele><time>2026-03-08T09:43:18.000Z</time></trkpt>
<trkpt lat="42.099223" lon="23.582106"><ele>2337.1</ele><time>2026-03-08T09:43:19.000Z</time></trkpt>
<trkpt lat="42.099223" lon="23.582106"><ele>2337.1</ele><time>2026-03-08T09:43:20.000Z</time></trkpt>
<trkpt lat="42.099223" lon="23.582106"><ele>2337.1</ele><time>2026-03-08T09:43:21.000Z</time></trkpt>
<trkpt lat="42.099223" lon="23.582106"><ele>2337.1</ele><time>2026-03-08T09:43:22.000Z</time></trkpt>
<trkpt lat="42.099223" lon="23.582106"><ele>2337.1</ele><time>2026-03-08T09:43:23.000Z</time></trkpt>
<trkpt lat="42.099223" lon="23.582106"><ele>2337.1</ele><time>2026-03-08T09:43:24.000Z</time></trkpt>
<trkpt lat="42.099223" lon="23.582106"><ele>2337.1</ele><time>2026-03-08T09:43:25.000Z</time></trkpt>
<trkpt lat="42.099223" lon="23.582107"><ele>2337.1</ele><time>2026-03-08T09:43:26.000Z</time></trkpt>
<trkpt lat="42.099223" lon="23.582107"><ele>2337.1</ele><time>2026-03-08T09:43:27.000Z</time></trkpt>
<trkpt lat="42.099223" lon="23.582107"><ele>2337.1</ele><time>2026-03-08T09:43:28.000Z</time></trkpt>
<trkpt lat="42.099223" lon="23.582108"><ele>2337.1</ele><time>2026-03-08T09:43:29.000Z</time></trkpt>
<trkpt lat="42.099223" lon="23.582108"><ele>2337.1</ele><time>2026-03-08T09:43:30.000Z</time></trkpt>
<trkpt lat="42.099223" lon="23.582108"><ele>2337.1</ele><time>2026-03-08T09:43:31.000Z</time></trkpt>
<trkpt lat="42.099223" lon="23.582108"><ele>2337.2</ele><time>2026-03-08T09:43:32.000Z</time></trkpt>
<trkpt lat="42.099223" lon="23.582109"><ele>2337.2</ele><time>2026-03-08T09:43:33.000Z</time></trkpt>
<trkpt lat="42.099223" lon="23.582109"><ele>2337.2</ele><time>2026-03-08T09:43:34.000Z</time></trkpt>
<trkpt lat="42.099223" lon="23.58211"><ele>2337.2</ele><time>2026-03-08T09:43:35.000Z</time></trkpt>
<trkpt lat="42.099223" lon="23.58211"><ele>2337.2</ele><time>2026-03-08T09:43:36.000Z</time></trkpt>
<trkpt lat="42.099223" lon="23.582111"><ele>2337.4</ele><time>2026-03-08T09:43:37.000Z</time></trkpt>
<trkpt lat="42.099223" lon="23.582111"><ele>2337.4</ele><time>2026-03-08T09:43:38.000Z</time></trkpt>
<trkpt lat="42.099223" lon="23.582111"><ele>2337.4</ele><time>2026-03-08T09:43:39.000Z</time></trkpt>
<trkpt lat="42.099223" lon="23.582112"><ele>2337.4</ele><time>2026-03-08T09:43:40.000Z</time></trkpt>
<trkpt lat="42.099224" lon="23.582112"><ele>2337.4</ele><time>2026-03-08T09:43:41.000Z</time></trkpt>
<trkpt lat="42.099225" lon="23.582111"><ele>2337.4</ele><time>2026-03-08T09:43:42.000Z</time></trkpt>
<trkpt lat="42.099226" lon="23.582111"><ele>2337.4</ele><time>2026-03-08T09:43:43.000Z</time></trkpt>
<trkpt lat="42.099227" lon="23.582111"><ele>2337.4</ele><time>2026-03-08T09:43:44.000Z</time></trkpt>
<trkpt lat="42.099228" lon="23.582111"><ele>2337.4</ele><time>2026-03-08T09:43:45.000Z</time></trkpt>
<trkpt lat="42.099228" lon="23.582111"><ele>2337.4</ele><time>2026-03-08T09:43:46.000Z</time></trkpt>
<trkpt lat="42.099229" lon="23.582111"><ele>2337.5</ele><time>2026-03-08T09:43:47.000Z</time></trkpt>
<trkpt lat="42.099229" lon="23.582111"><ele>2337.5</ele><time>2026-03-08T09:43:48.000Z</time></trkpt>
<trkpt lat="42.09923" lon="23.582111"><ele>2337.5</ele><time>2026-03-08T09:43:49.000Z</time></trkpt>
<trkpt lat="42.099231" lon="23.582111"><ele>2337.5</ele><time>2026-03-08T09:43:50.000Z</time></trkpt>
<trkpt lat="42.099231" lon="23.582111"><ele>2337.5</ele><time>2026-03-08T09:43:51.000Z</time></trkpt>
<trkpt lat="42.099231" lon="23.582111"><ele>2337.8</ele><time>2026-03-08T09:43:52.000Z</time></trkpt>
<trkpt lat="42.099231" lon="23.582111"><ele>2337.8</ele><time>2026-03-08T09:43:53.000Z</time></trkpt>
<trkpt lat="42.099231" lon="23.582111"><ele>2337.8</ele><time>2026-03-08T09:43:54.000Z</time></trkpt>
<trkpt lat="42.099231" lon="23.582111"><ele>2337.8</ele><time>2026-03-08T09:43:55.000Z</time></trkpt>
<trkpt lat="42.099231" lon="23.582111"><ele>2337.8</ele><time>2026-03-08T09:43:56.000Z</time></trkpt>
<trkpt lat="42.099231" lon="23.582111"><ele>2337.9</ele><time>2026-03-08T09:43:57.000Z</time></trkpt>
<trkpt lat="42.099231" lon="23.582111"><ele>2337.9</ele><time>2026-03-08T09:43:58.000Z</time></trkpt>
<trkpt lat="42.099231" lon="23.582111"><ele>2337.9</ele><time>2026-03-08T09:43:59.000Z</time></trkpt>
<trkpt lat="42.099231" lon="23.582111"><ele>2337.9</ele><time>2026-03-08T09:44:00.000Z</time></trkpt>
<trkpt lat="42.099231" lon="23.582111"><ele>2337.9</ele><time>2026-03-08T09:44:01.000Z</time></trkpt>
<trkpt lat="42.099231" lon="23.582112"><ele>2338</ele><time>2026-03-08T09:44:02.000Z</time></trkpt>
<trkpt lat="42.099231" lon="23.582113"><ele>2338</ele><time>2026-03-08T09:44:03.000Z</time></trkpt>
<trkpt lat="42.099231" lon="23.582114"><ele>2338</ele><time>2026-03-08T09:44:04.000Z</time></trkpt>
<trkpt lat="42.099231" lon="23.582115"><ele>2338</ele><time>2026-03-08T09:44:05.000Z</time></trkpt>
<trkpt lat="42.09923" lon="23.582115"><ele>2338</ele><time>2026-03-08T09:44:06.000Z</time></trkpt>
<trkpt lat="42.09923" lon="23.582115"><ele>2337.8</ele><time>2026-03-08T09:44:07.000Z</time></trkpt>
<trkpt lat="42.099229" lon="23.582115"><ele>2337.8</ele><time>2026-03-08T09:44:08.000Z</time></trkpt>
<trkpt lat="42.099229" lon="23.582115"><ele>2337.8</ele><time>2026-03-08T09:44:09.000Z</time></trkpt>
<trkpt lat="42.099229" lon="23.582115"><ele>2337.8</ele><time>2026-03-08T09:44:10.000Z</time></trkpt>
<trkpt lat="42.099228" lon="23.582115"><ele>2337.8</ele><time>2026-03-08T09:44:11.000Z</time></trkpt>
<trkpt lat="42.099229" lon="23.582115"><ele>2337.6</ele><time>2026-03-08T09:44:12.000Z</time></trkpt>
<trkpt lat="42.099229" lon="23.582114"><ele>2337.6</ele><time>2026-03-08T09:44:13.000Z</time></trkpt>
<trkpt lat="42.099229" lon="23.582113"><ele>2337.6</ele><time>2026-03-08T09:44:14.000Z</time></trkpt>
<trkpt lat="42.099229" lon="23.582113"><ele>2337.6</ele><time>2026-03-08T09:44:15.000Z</time></trkpt>
<trkpt lat="42.09923" lon="23.582112"><ele>2337.6</ele><time>2026-03-08T09:44:16.000Z</time></trkpt>
<trkpt lat="42.099229" lon="23.58211"><ele>2337.6</ele><time>2026-03-08T09:44:17.000Z</time></trkpt>
<trkpt lat="42.099229" lon="23.582109"><ele>2337.6</ele><time>2026-03-08T09:44:18.000Z</time></trkpt>
<trkpt lat="42.099229" lon="23.582107"><ele>2337.6</ele><time>2026-03-08T09:44:19.000Z</time></trkpt>
<trkpt lat="42.099228" lon="23.582106"><ele>2337.6</ele><time>2026-03-08T09:44:20.000Z</time></trkpt>
<trkpt lat="42.099228" lon="23.582105"><ele>2337.6</ele><time>2026-03-08T09:44:21.000Z</time></trkpt>
<trkpt lat="42.099228" lon="23.582105"><ele>2337.6</ele><time>2026-03-08T09:44:22.000Z</time></trkpt>
<trkpt lat="42.099228" lon="23.582105"><ele>2337.6</ele><time>2026-03-08T09:44:23.000Z</time></trkpt>
<trkpt lat="42.099228" lon="23.582105"><ele>2337.6</ele><time>2026-03-08T09:44:24.000Z</time></trkpt>
<trkpt lat="42.099228" lon="23.582106"><ele>2337.6</ele><time>2026-03-08T09:44:25.000Z</time></trkpt>
<trkpt lat="42.099228" lon="23.582107"><ele>2337.6</ele><time>2026-03-08T09:44:26.000Z</time></trkpt>
<trkpt lat="42.099228" lon="23.582107"><ele>2337.6</ele><time>2026-03-08T09:44:27.000Z</time></trkpt>
<trkpt lat="42.099229" lon="23.582108"><ele>2337.6</ele><time>2026-03-08T09:44:28.000Z</time></trkpt>
<trkpt lat="42.099229" lon="23.582108"><ele>2337.6</ele><time>2026-03-08T09:44:29.000Z</time></trkpt>
<trkpt lat="42.099229" lon="23.582108"><ele>2337.6</ele><time>2026-03-08T09:44:30.000Z</time></trkpt>
<trkpt lat="42.099229" lon="23.582108"><ele>2337.6</ele><time>2026-03-08T09:44:31.000Z</time></trkpt>
<trkpt lat="42.099229" lon="23.582109"><ele>2337.5</ele><time>2026-03-08T09:44:32.000Z</time></trkpt>
<trkpt lat="42.099229" lon="23.582109"><ele>2337.5</ele><time>2026-03-08T09:44:33.000Z</time></trkpt>
<trkpt lat="42.099228" lon="23.582109"><ele>2337.5</ele><time>2026-03-08T09:44:34.000Z</time></trkpt>
<trkpt lat="42.099227" lon="23.58211"><ele>2337.5</ele><time>2026-03-08T09:44:35.000Z</time></trkpt>
<trkpt lat="42.099226" lon="23.582111"><ele>2337.5</ele><time>2026-03-08T09:44:36.000Z</time></trkpt>
<trkpt lat="42.099225" lon="23.582111"><ele>2337.2</ele><time>2026-03-08T09:44:37.000Z</time></trkpt>
<trkpt lat="42.099224" lon="23.582112"><ele>2337.2</ele><time>2026-03-08T09:44:38.000Z</time></trkpt>
<trkpt lat="42.099223" lon="23.582113"><ele>2337.2</ele><time>2026-03-08T09:44:39.000Z</time></trkpt>
<trkpt lat="42.099223" lon="23.582113"><ele>2337.2</ele><time>2026-03-08T09:44:40.000Z</time></trkpt>
<trkpt lat="42.099223" lon="23.582114"><ele>2337.2</ele><time>2026-03-08T09:44:41.000Z</time></trkpt>
<trkpt lat="42.099222" lon="23.582115"><ele>2337.1</ele><time>2026-03-08T09:44:42.000Z</time></trkpt>
<trkpt lat="42.099222" lon="23.582116"><ele>2337.1</ele><time>2026-03-08T09:44:43.000Z</time></trkpt>
<trkpt lat="42.099221" lon="23.582116"><ele>2337.1</ele><time>2026-03-08T09:44:44.000Z</time></trkpt>
<trkpt lat="42.099221" lon="23.582116"><ele>2337.1</ele><time>2026-03-08T09:44:45.000Z</time></trkpt>
<trkpt lat="42.099221" lon="23.582116"><ele>2337.1</ele><time>2026-03-08T09:44:46.000Z</time></trkpt>
<trkpt lat="42.09922" lon="23.582116"><ele>2337.1</ele><time>2026-03-08T09:44:47.000Z</time></trkpt>
<trkpt lat="42.09922" lon="23.582115"><ele>2337.1</ele><time>2026-03-08T09:44:48.000Z</time></trkpt>
<trkpt lat="42.099219" lon="23.582115"><ele>2337.1</ele><time>2026-03-08T09:44:49.000Z</time></trkpt>
<trkpt lat="42.099219" lon="23.582116"><ele>2337.1</ele><time>2026-03-08T09:44:50.000Z</time></trkpt>
<trkpt lat="42.099219" lon="23.582116"><ele>2337.1</ele><time>2026-03-08T09:44:51.000Z</time></trkpt>
<trkpt lat="42.099219" lon="23.582117"><ele>2337.5</ele><time>2026-03-08T09:44:52.000Z</time></trkpt>
<trkpt lat="42.09922" lon="23.582118"><ele>2337.5</ele><time>2026-03-08T09:44:53.000Z</time></trkpt>
<trkpt lat="42.099221" lon="23.582118"><ele>2337.5</ele><time>2026-03-08T09:44:54.000Z</time></trkpt>
<trkpt lat="42.099221" lon="23.582119"><ele>2337.5</ele><time>2026-03-08T09:44:55.000Z</time></trkpt>
<trkpt lat="42.099223" lon="23.582118"><ele>2337.5</ele><time>2026-03-08T09:44:56.000Z</time></trkpt>
<trkpt lat="42.099224" lon="23.582117"><ele>2337.6</ele><time>2026-03-08T09:44:57.000Z</time></trkpt>
<trkpt lat="42.099224" lon="23.582116"><ele>2337.6</ele><time>2026-03-08T09:44:58.000Z</time></trkpt>
<trkpt lat="42.099225" lon="23.582115"><ele>2337.6</ele><time>2026-03-08T09:44:59.000Z</time></trkpt>
<trkpt lat="42.099225" lon="23.582113"><ele>2337.6</ele><time>2026-03-08T09:45:00.000Z</time></trkpt>
<trkpt lat="42.099226" lon="23.58211"><ele>2337.6</ele><time>2026-03-08T09:45:01.000Z</time></trkpt>
<trkpt lat="42.099227" lon="23.582108"><ele>2337.6</ele><time>2026-03-08T09:45:02.000Z</time></trkpt>
<trkpt lat="42.099227" lon="23.582105"><ele>2337.6</ele><time>2026-03-08T09:45:03.000Z</time></trkpt>
<trkpt lat="42.099226" lon="23.582101"><ele>2337.6</ele><time>2026-03-08T09:45:04.000Z</time></trkpt>
<trkpt lat="42.099225" lon="23.582096"><ele>2337.6</ele><time>2026-03-08T09:45:05.000Z</time></trkpt>
<trkpt lat="42.099222" lon="23.58209"><ele>2337.6</ele><time>2026-03-08T09:45:06.000Z</time></trkpt>
<trkpt lat="42.099219" lon="23.582082"><ele>2337.3</ele><time>2026-03-08T09:45:07.000Z</time></trkpt>
<trkpt lat="42.099216" lon="23.582074"><ele>2337.3</ele><time>2026-03-08T09:45:08.000Z</time></trkpt>
<trkpt lat="42.099212" lon="23.582065"><ele>2337.3</ele><time>2026-03-08T09:45:09.000Z</time></trkpt>
<trkpt lat="42.099208" lon="23.582056"><ele>2337.3</ele><time>2026-03-08T09:45:10.000Z</time></trkpt>
<trkpt lat="42.099204" lon="23.582047"><ele>2337.3</ele><time>2026-03-08T09:45:11.000Z</time></trkpt>
<trkpt lat="42.099201" lon="23.582037"><ele>2337.2</ele><time>2026-03-08T09:45:12.000Z</time></trkpt>
<trkpt lat="42.099199" lon="23.582026"><ele>2337.2</ele><time>2026-03-08T09:45:13.000Z</time></trkpt>
<trkpt lat="42.099197" lon="23.582015"><ele>2337.2</ele><time>2026-03-08T09:45:14.000Z</time></trkpt>
<trkpt lat="42.099195" lon="23.582004"><ele>2337.2</ele><time>2026-03-08T09:45:15.000Z</time></trkpt>
<trkpt lat="42.099192" lon="23.581994"><ele>2337.2</ele><time>2026-03-08T09:45:16.000Z</time></trkpt>
<trkpt lat="42.099189" lon="23.581984"><ele>2337.4</ele><time>2026-03-08T09:45:17.000Z</time></trkpt>
<trkpt lat="42.099186" lon="23.581976"><ele>2337.4</ele><time>2026-03-08T09:45:18.000Z</time></trkpt>
<trkpt lat="42.099182" lon="23.581969"><ele>2337.4</ele><time>2026-03-08T09:45:19.000Z</time></trkpt>
<trkpt lat="42.099178" lon="23.581963"><ele>2337.4</ele><time>2026-03-08T09:45:20.000Z</time></trkpt>
<trkpt lat="42.099174" lon="23.581956"><ele>2337.4</ele><time>2026-03-08T09:45:21.000Z</time></trkpt>
<trkpt lat="42.099169" lon="23.58195"><ele>2337.9</ele><time>2026-03-08T09:45:22.000Z</time></trkpt>
<trkpt lat="42.099165" lon="23.581944"><ele>2337.9</ele><time>2026-03-08T09:45:23.000Z</time></trkpt>
<trkpt lat="42.09916" lon="23.581938"><ele>2337.9</ele><time>2026-03-08T09:45:24.000Z</time></trkpt>
<trkpt lat="42.099156" lon="23.581933"><ele>2337.9</ele><time>2026-03-08T09:45:25.000Z</time></trkpt>
<trkpt lat="42.099152" lon="23.581927"><ele>2337.9</ele><time>2026-03-08T09:45:26.000Z</time></trkpt>
<trkpt lat="42.099147" lon="23.58192"><ele>2338.3</ele><time>2026-03-08T09:45:27.000Z</time></trkpt>
<trkpt lat="42.099142" lon="23.581914"><ele>2338.3</ele><time>2026-03-08T09:45:28.000Z</time></trkpt>
<trkpt lat="42.099138" lon="23.581908"><ele>2338.3</ele><time>2026-03-08T09:45:29.000Z</time></trkpt>
<trkpt lat="42.099132" lon="23.5819"><ele>2338.3</ele><time>2026-03-08T09:45:30.000Z</time></trkpt>
<trkpt lat="42.099126" lon="23.581893"><ele>2338.3</ele><time>2026-03-08T09:45:31.000Z</time></trkpt>
<trkpt lat="42.099121" lon="23.581885"><ele>2338.9</ele><time>2026-03-08T09:45:32.000Z</time></trkpt>
<trkpt lat="42.099115" lon="23.581878"><ele>2338.9</ele><time>2026-03-08T09:45:33.000Z</time></trkpt>
<trkpt lat="42.099111" lon="23.581869"><ele>2338.9</ele><time>2026-03-08T09:45:34.000Z</time></trkpt>
<trkpt lat="42.099107" lon="23.581861"><ele>2338.9</ele><time>2026-03-08T09:45:35.000Z</time></trkpt>
<trkpt lat="42.099103" lon="23.581853"><ele>2338.9</ele><time>2026-03-08T09:45:36.000Z</time></trkpt>
<trkpt lat="42.0991" lon="23.581846"><ele>2339.4</ele><time>2026-03-08T09:45:37.000Z</time></trkpt>
<trkpt lat="42.099097" lon="23.581839"><ele>2339.4</ele><time>2026-03-08T09:45:38.000Z</time></trkpt>
<trkpt lat="42.099095" lon="23.581831"><ele>2339.4</ele><time>2026-03-08T09:45:39.000Z</time></trkpt>
<trkpt lat="42.099093" lon="23.581824"><ele>2339.4</ele><time>2026-03-08T09:45:40.000Z</time></trkpt>
<trkpt lat="42.099091" lon="23.581818"><ele>2339.4</ele><time>2026-03-08T09:45:41.000Z</time></trkpt>
<trkpt lat="42.099089" lon="23.581811"><ele>2339.6</ele><time>2026-03-08T09:45:42.000Z</time></trkpt>
<trkpt lat="42.099087" lon="23.581804"><ele>2339.6</ele><time>2026-03-08T09:45:43.000Z</time></trkpt>
<trkpt lat="42.099084" lon="23.581799"><ele>2339.6</ele><time>2026-03-08T09:45:44.000Z</time></trkpt>
<trkpt lat="42.099082" lon="23.581793"><ele>2339.6</ele><time>2026-03-08T09:45:45.000Z</time></trkpt>
<trkpt lat="42.09908" lon="23.581787"><ele>2339.6</ele><time>2026-03-08T09:45:46.000Z</time></trkpt>
<trkpt lat="42.099078" lon="23.581781"><ele>2339.8</ele><time>2026-03-08T09:45:47.000Z</time></trkpt>
<trkpt lat="42.099075" lon="23.581774"><ele>2339.8</ele><time>2026-03-08T09:45:48.000Z</time></trkpt>
<trkpt lat="42.099073" lon="23.581768"><ele>2339.8</ele><time>2026-03-08T09:45:49.000Z</time></trkpt>
<trkpt lat="42.099069" lon="23.581761"><ele>2339.8</ele><time>2026-03-08T09:45:50.000Z</time></trkpt>
<trkpt lat="42.099066" lon="23.581755"><ele>2339.8</ele><time>2026-03-08T09:45:51.000Z</time></trkpt>
<trkpt lat="42.099061" lon="23.581749"><ele>2339.8</ele><time>2026-03-08T09:45:52.000Z</time></trkpt>
<trkpt lat="42.099057" lon="23.581743"><ele>2339.8</ele><time>2026-03-08T09:45:53.000Z</time></trkpt>
<trkpt lat="42.099053" lon="23.581738"><ele>2339.8</ele><time>2026-03-08T09:45:54.000Z</time></trkpt>
<trkpt lat="42.09905" lon="23.581732"><ele>2339.8</ele><time>2026-03-08T09:45:55.000Z</time></trkpt>
<trkpt lat="42.099046" lon="23.581727"><ele>2339.8</ele><time>2026-03-08T09:45:56.000Z</time></trkpt>
<trkpt lat="42.099043" lon="23.581722"><ele>2339.8</ele><time>2026-03-08T09:45:57.000Z</time></trkpt>
<trkpt lat="42.09904" lon="23.581716"><ele>2339.8</ele><time>2026-03-08T09:45:58.000Z</time></trkpt>
<trkpt lat="42.099038" lon="23.58171"><ele>2339.8</ele><time>2026-03-08T09:45:59.000Z</time></trkpt>
<trkpt lat="42.099035" lon="23.581703"><ele>2339.8</ele><time>2026-03-08T09:46:00.000Z</time></trkpt>
<trkpt lat="42.099033" lon="23.581697"><ele>2339.8</ele><time>2026-03-08T09:46:01.000Z</time></trkpt>
<trkpt lat="42.09903" lon="23.58169"><ele>2339.7</ele><time>2026-03-08T09:46:02.000Z</time></trkpt>
<trkpt lat="42.099028" lon="23.581683"><ele>2339.7</ele><time>2026-03-08T09:46:03.000Z</time></trkpt>
<trkpt lat="42.099025" lon="23.581676"><ele>2339.7</ele><time>2026-03-08T09:46:04.000Z</time></trkpt>
<trkpt lat="42.099023" lon="23.581669"><ele>2339.7</ele><time>2026-03-08T09:46:05.000Z</time></trkpt>
<trkpt lat="42.099021" lon="23.581662"><ele>2339.7</ele><time>2026-03-08T09:46:06.000Z</time></trkpt>
<trkpt lat="42.099019" lon="23.581654"><ele>2339.9</ele><time>2026-03-08T09:46:07.000Z</time></trkpt>
<trkpt lat="42.099017" lon="23.581648"><ele>2339.9</ele><time>2026-03-08T09:46:08.000Z</time></trkpt>
<trkpt lat="42.099014" lon="23.581641"><ele>2339.9</ele><time>2026-03-08T09:46:09.000Z</time></trkpt>
<trkpt lat="42.099011" lon="23.581636"><ele>2339.9</ele><time>2026-03-08T09:46:10.000Z</time></trkpt>
<trkpt lat="42.099007" lon="23.581631"><ele>2339.9</ele><time>2026-03-08T09:46:11.000Z</time></trkpt>
<trkpt lat="42.099004" lon="23.581626"><ele>2340</ele><time>2026-03-08T09:46:12.000Z</time></trkpt>
<trkpt lat="42.099" lon="23.58162"><ele>2340</ele><time>2026-03-08T09:46:13.000Z</time></trkpt>
<trkpt lat="42.098997" lon="23.581614"><ele>2340</ele><time>2026-03-08T09:46:14.000Z</time></trkpt>
<trkpt lat="42.098994" lon="23.581608"><ele>2340</ele><time>2026-03-08T09:46:15.000Z</time></trkpt>
<trkpt lat="42.098991" lon="23.581602"><ele>2340</ele><time>2026-03-08T09:46:16.000Z</time></trkpt>
<trkpt lat="42.098988" lon="23.581595"><ele>2340.4</ele><time>2026-03-08T09:46:17.000Z</time></trkpt>
<trkpt lat="42.098985" lon="23.58159"><ele>2340.4</ele><time>2026-03-08T09:46:18.000Z</time></trkpt>
<trkpt lat="42.098983" lon="23.581585"><ele>2340.4</ele><time>2026-03-08T09:46:19.000Z</time></trkpt>
<trkpt lat="42.09898" lon="23.581579"><ele>2340.4</ele><time>2026-03-08T09:46:20.000Z</time></trkpt>
<trkpt lat="42.098978" lon="23.581574"><ele>2340.4</ele><time>2026-03-08T09:46:21.000Z</time></trkpt>
<trkpt lat="42.098976" lon="23.581567"><ele>2340.8</ele><time>2026-03-08T09:46:22.000Z</time></trkpt>
<trkpt lat="42.098974" lon="23.58156"><ele>2340.8</ele><time>2026-03-08T09:46:23.000Z</time></trkpt>
<trkpt lat="42.098971" lon="23.581553"><ele>2340.8</ele><time>2026-03-08T09:46:24.000Z</time></trkpt>
<trkpt lat="42.098969" lon="23.581545"><ele>2340.8</ele><time>2026-03-08T09:46:25.000Z</time></trkpt>
<trkpt lat="42.098967" lon="23.581538"><ele>2340.8</ele><time>2026-03-08T09:46:26.000Z</time></trkpt>
<trkpt lat="42.098965" lon="23.58153"><ele>2341</ele><time>2026-03-08T09:46:27.000Z</time></trkpt>
<trkpt lat="42.098963" lon="23.581522"><ele>2341</ele><time>2026-03-08T09:46:28.000Z</time></trkpt>
<trkpt lat="42.098962" lon="23.581515"><ele>2341</ele><time>2026-03-08T09:46:29.000Z</time></trkpt>
<trkpt lat="42.09896" lon="23.581507"><ele>2341</ele><time>2026-03-08T09:46:30.000Z</time></trkpt>
<trkpt lat="42.098958" lon="23.581501"><ele>2341</ele><time>2026-03-08T09:46:31.000Z</time></trkpt>
<trkpt lat="42.098956" lon="23.581494"><ele>2341.4</ele><time>2026-03-08T09:46:32.000Z</time></trkpt>
<trkpt lat="42.098954" lon="23.581489"><ele>2341.4</ele><time>2026-03-08T09:46:33.000Z</time></trkpt>
<trkpt lat="42.098951" lon="23.581483"><ele>2341.4</ele><time>2026-03-08T09:46:34.000Z</time></trkpt>
<trkpt lat="42.098948" lon="23.581477"><ele>2341.4</ele><time>2026-03-08T09:46:35.000Z</time></trkpt>
<trkpt lat="42.098945" lon="23.581471"><ele>2341.4</ele><time>2026-03-08T09:46:36.000Z</time></trkpt>
<trkpt lat="42.098942" lon="23.581464"><ele>2341.7</ele><time>2026-03-08T09:46:37.000Z</time></trkpt>
<trkpt lat="42.098938" lon="23.581457"><ele>2341.7</ele><time>2026-03-08T09:46:38.000Z</time></trkpt>
<trkpt lat="42.098933" lon="23.581452"><ele>2341.7</ele><time>2026-03-08T09:46:39.000Z</time></trkpt>
<trkpt lat="42.098929" lon="23.581446"><ele>2341.7</ele><time>2026-03-08T09:46:40.000Z</time></trkpt>
<trkpt lat="42.098925" lon="23.58144"><ele>2341.7</ele><time>2026-03-08T09:46:41.000Z</time></trkpt>
<trkpt lat="42.098922" lon="23.581435"><ele>2341.8</ele><time>2026-03-08T09:46:42.000Z</time></trkpt>
<trkpt lat="42.098917" lon="23.581431"><ele>2341.8</ele><time>2026-03-08T09:46:43.000Z</time></trkpt>
<trkpt lat="42.098913" lon="23.581428"><ele>2341.8</ele><time>2026-03-08T09:46:44.000Z</time></trkpt>
<trkpt lat="42.098909" lon="23.581424"><ele>2341.8</ele><time>2026-03-08T09:46:45.000Z</time></trkpt>
<trkpt lat="42.098904" lon="23.581422"><ele>2341.8</ele><time>2026-03-08T09:46:46.000Z</time></trkpt>
<trkpt lat="42.098899" lon="23.58142"><ele>2342.2</ele><time>2026-03-08T09:46:47.000Z</time></trkpt>
<trkpt lat="42.098894" lon="23.581416"><ele>2342.2</ele><time>2026-03-08T09:46:48.000Z</time></trkpt>
<trkpt lat="42.09889" lon="23.581412"><ele>2342.2</ele><time>2026-03-08T09:46:49.000Z</time></trkpt>
<trkpt lat="42.098886" lon="23.581409"><ele>2342.2</ele><time>2026-03-08T09:46:50.000Z</time></trkpt>
<trkpt lat="42.098882" lon="23.581404"><ele>2342.2</ele><time>2026-03-08T09:46:51.000Z</time></trkpt>
<trkpt lat="42.098878" lon="23.5814"><ele>2342.7</ele><time>2026-03-08T09:46:52.000Z</time></trkpt>
<trkpt lat="42.098874" lon="23.581396"><ele>2342.7</ele><time>2026-03-08T09:46:53.000Z</time></trkpt>
<trkpt lat="42.09887" lon="23.581393"><ele>2342.7</ele><time>2026-03-08T09:46:54.000Z</time></trkpt>
<trkpt lat="42.098865" lon="23.581388"><ele>2342.7</ele><time>2026-03-08T09:46:55.000Z</time></trkpt>
<trkpt lat="42.098861" lon="23.581383"><ele>2342.7</ele><time>2026-03-08T09:46:56.000Z</time></trkpt>
<trkpt lat="42.098857" lon="23.581378"><ele>2342.9</ele><time>2026-03-08T09:46:57.000Z</time></trkpt>
<trkpt lat="42.098852" lon="23.581372"><ele>2342.9</ele><time>2026-03-08T09:46:58.000Z</time></trkpt>
<trkpt lat="42.098847" lon="23.581366"><ele>2342.9</ele><time>2026-03-08T09:46:59.000Z</time></trkpt>
<trkpt lat="42.098842" lon="23.581359"><ele>2342.9</ele><time>2026-03-08T09:47:00.000Z</time></trkpt>
<trkpt lat="42.098837" lon="23.581352"><ele>2342.9</ele><time>2026-03-08T09:47:01.000Z</time></trkpt>
<trkpt lat="42.098832" lon="23.581344"><ele>2343.5</ele><time>2026-03-08T09:47:02.000Z</time></trkpt>
<trkpt lat="42.098827" lon="23.581335"><ele>2343.5</ele><time>2026-03-08T09:47:03.000Z</time></trkpt>
<trkpt lat="42.098822" lon="23.581327"><ele>2343.5</ele><time>2026-03-08T09:47:04.000Z</time></trkpt>
<trkpt lat="42.098817" lon="23.581319"><ele>2343.5</ele><time>2026-03-08T09:47:05.000Z</time></trkpt>
<trkpt lat="42.098812" lon="23.58131"><ele>2343.5</ele><time>2026-03-08T09:47:06.000Z</time></trkpt>
<trkpt lat="42.098806" lon="23.581303"><ele>2344.3</ele><time>2026-03-08T09:47:07.000Z</time></trkpt>
<trkpt lat="42.098801" lon="23.581296"><ele>2344.3</ele><time>2026-03-08T09:47:08.000Z</time></trkpt>
<trkpt lat="42.098795" lon="23.58129"><ele>2344.3</ele><time>2026-03-08T09:47:09.000Z</time></trkpt>
<trkpt lat="42.09879" lon="23.581283"><ele>2344.3</ele><time>2026-03-08T09:47:10.000Z</time></trkpt>
<trkpt lat="42.098785" lon="23.581277"><ele>2344.3</ele><time>2026-03-08T09:47:11.000Z</time></trkpt>
<trkpt lat="42.09878" lon="23.581272"><ele>2344.7</ele><time>2026-03-08T09:47:12.000Z</time></trkpt>
<trkpt lat="42.098776" lon="23.581265"><ele>2344.7</ele><time>2026-03-08T09:47:13.000Z</time></trkpt>
<trkpt lat="42.098772" lon="23.58126"><ele>2344.7</ele><time>2026-03-08T09:47:14.000Z</time></trkpt>
<trkpt lat="42.098768" lon="23.581253"><ele>2344.7</ele><time>2026-03-08T09:47:15.000Z</time></trkpt>
<trkpt lat="42.098764" lon="23.581246"><ele>2344.7</ele><time>2026-03-08T09:47:16.000Z</time></trkpt>
<trkpt lat="42.09876" lon="23.581239"><ele>2345.5</ele><time>2026-03-08T09:47:17.000Z</time></trkpt>
<trkpt lat="42.098756" lon="23.581234"><ele>2345.5</ele><time>2026-03-08T09:47:18.000Z</time></trkpt>
<trkpt lat="42.098754" lon="23.581228"><ele>2345.5</ele><time>2026-03-08T09:47:19.000Z</time></trkpt>
<trkpt lat="42.098751" lon="23.581224"><ele>2345.5</ele><time>2026-03-08T09:47:20.000Z</time></trkpt>
<trkpt lat="42.098748" lon="23.58122"><ele>2345.5</ele><time>2026-03-08T09:47:21.000Z</time></trkpt>
<trkpt lat="42.098745" lon="23.581217"><ele>2346.1</ele><time>2026-03-08T09:47:22.000Z</time></trkpt>
<trkpt lat="42.098742" lon="23.581214"><ele>2346.1</ele><time>2026-03-08T09:47:23.000Z</time></trkpt>
<trkpt lat="42.098738" lon="23.581212"><ele>2346.1</ele><time>2026-03-08T09:47:24.000Z</time></trkpt>
<trkpt lat="42.098733" lon="23.581209"><ele>2346.1</ele><time>2026-03-08T09:47:25.000Z</time></trkpt>
<trkpt lat="42.098729" lon="23.581207"><ele>2346.1</ele><time>2026-03-08T09:47:26.000Z</time></trkpt>
<trkpt lat="42.098725" lon="23.581203"><ele>2346.4</ele><time>2026-03-08T09:47:27.000Z</time></trkpt>
<trkpt lat="42.09872" lon="23.581199"><ele>2346.4</ele><time>2026-03-08T09:47:28.000Z</time></trkpt>
<trkpt lat="42.098716" lon="23.581195"><ele>2346.4</ele><time>2026-03-08T09:47:29.000Z</time></trkpt>
<trkpt lat="42.098711" lon="23.58119"><ele>2346.4</ele><time>2026-03-08T09:47:30.000Z</time></trkpt>
<trkpt lat="42.098706" lon="23.581184"><ele>2346.4</ele><time>2026-03-08T09:47:31.000Z</time></trkpt>
<trkpt lat="42.0987" lon="23.58118"><ele>2347</ele><time>2026-03-08T09:47:32.000Z</time></trkpt>
<trkpt lat="42.098694" lon="23.581176"><ele>2347</ele><time>2026-03-08T09:47:33.000Z</time></trkpt>
<trkpt lat="42.098688" lon="23.581171"><ele>2347</ele><time>2026-03-08T09:47:34.000Z</time></trkpt>
<trkpt lat="42.098683" lon="23.581166"><ele>2347</ele><time>2026-03-08T09:47:35.000Z</time></trkpt>
<trkpt lat="42.098678" lon="23.581162"><ele>2347</ele><time>2026-03-08T09:47:36.000Z</time></trkpt>
<trkpt lat="42.098674" lon="23.581158"><ele>2347.6</ele><time>2026-03-08T09:47:37.000Z</time></trkpt>
<trkpt lat="42.098668" lon="23.581153"><ele>2347.6</ele><time>2026-03-08T09:47:38.000Z</time></trkpt>
<trkpt lat="42.098663" lon="23.581148"><ele>2347.6</ele><time>2026-03-08T09:47:39.000Z</time></trkpt>
<trkpt lat="42.098658" lon="23.581144"><ele>2347.6</ele><time>2026-03-08T09:47:40.000Z</time></trkpt>
<trkpt lat="42.098652" lon="23.581139"><ele>2347.6</ele><time>2026-03-08T09:47:41.000Z</time></trkpt>
<trkpt lat="42.098647" lon="23.581135"><ele>2347.8</ele><time>2026-03-08T09:47:42.000Z</time></trkpt>
<trkpt lat="42.098642" lon="23.581131"><ele>2347.8</ele><time>2026-03-08T09:47:43.000Z</time></trkpt>
<trkpt lat="42.098638" lon="23.581128"><ele>2347.8</ele><time>2026-03-08T09:47:44.000Z</time></trkpt>
<trkpt lat="42.098634" lon="23.581126"><ele>2347.8</ele><time>2026-03-08T09:47:45.000Z</time></trkpt>
<trkpt lat="42.098629" lon="23.581124"><ele>2347.8</ele><time>2026-03-08T09:47:46.000Z</time></trkpt>
<trkpt lat="42.098625" lon="23.581122"><ele>2348.3</ele><time>2026-03-08T09:47:47.000Z</time></trkpt>
<trkpt lat="42.098622" lon="23.58112"><ele>2348.3</ele><time>2026-03-08T09:47:48.000Z</time></trkpt>
<trkpt lat="42.098619" lon="23.581118"><ele>2348.3</ele><time>2026-03-08T09:47:49.000Z</time></trkpt>
<trkpt lat="42.098615" lon="23.581115"><ele>2348.3</ele><time>2026-03-08T09:47:50.000Z</time></trkpt>
<trkpt lat="42.098611" lon="23.581111"><ele>2348.3</ele><time>2026-03-08T09:47:51.000Z</time></trkpt>
<trkpt lat="42.098607" lon="23.581108"><ele>2348.9</ele><time>2026-03-08T09:47:52.000Z</time></trkpt>
<trkpt lat="42.098604" lon="23.581104"><ele>2348.9</ele><time>2026-03-08T09:47:53.000Z</time></trkpt>
<trkpt lat="42.098601" lon="23.5811"><ele>2348.9</ele><time>2026-03-08T09:47:54.000Z</time></trkpt>
<trkpt lat="42.098599" lon="23.581096"><ele>2348.9</ele><time>2026-03-08T09:47:55.000Z</time></trkpt>
<trkpt lat="42.098596" lon="23.581094"><ele>2348.9</ele><time>2026-03-08T09:47:56.000Z</time></trkpt>
<trkpt lat="42.098593" lon="23.581091"><ele>2349.2</ele><time>2026-03-08T09:47:57.000Z</time></trkpt>
<trkpt lat="42.09859" lon="23.581089"><ele>2349.2</ele><time>2026-03-08T09:47:58.000Z</time></trkpt>
<trkpt lat="42.098585" lon="23.581087"><ele>2349.2</ele><time>2026-03-08T09:47:59.000Z</time></trkpt>
<trkpt lat="42.09858" lon="23.581087"><ele>2349.2</ele><time>2026-03-08T09:48:00.000Z</time></trkpt>
<trkpt lat="42.098575" lon="23.581086"><ele>2349.2</ele><time>2026-03-08T09:48:01.000Z</time></trkpt>
<trkpt lat="42.098569" lon="23.581084"><ele>2349.9</ele><time>2026-03-08T09:48:02.000Z</time></trkpt>
<trkpt lat="42.098562" lon="23.581081"><ele>2349.9</ele><time>2026-03-08T09:48:03.000Z</time></trkpt>
<trkpt lat="42.098557" lon="23.581076"><ele>2349.9</ele><time>2026-03-08T09:48:04.000Z</time></trkpt>
<trkpt lat="42.098551" lon="23.58107"><ele>2349.9</ele><time>2026-03-08T09:48:05.000Z</time></trkpt>
<trkpt lat="42.098546" lon="23.581064"><ele>2349.9</ele><time>2026-03-08T09:48:06.000Z</time></trkpt>
<trkpt lat="42.098542" lon="23.58106"><ele>2350.6</ele><time>2026-03-08T09:48:07.000Z</time></trkpt>
<trkpt lat="42.098538" lon="23.581055"><ele>2350.6</ele><time>2026-03-08T09:48:08.000Z</time></trkpt>
<trkpt lat="42.098532" lon="23.581053"><ele>2350.6</ele><time>2026-03-08T09:48:09.000Z</time></trkpt>
<trkpt lat="42.098528" lon="23.581052"><ele>2350.6</ele><time>2026-03-08T09:48:10.000Z</time></trkpt>
<trkpt lat="42.098523" lon="23.58105"><ele>2350.6</ele><time>2026-03-08T09:48:11.000Z</time></trkpt>
<trkpt lat="42.098518" lon="23.581048"><ele>2351</ele><time>2026-03-08T09:48:12.000Z</time></trkpt>
<trkpt lat="42.098513" lon="23.581046"><ele>2351</ele><time>2026-03-08T09:48:13.000Z</time></trkpt>
<trkpt lat="42.098508" lon="23.581042"><ele>2351</ele><time>2026-03-08T09:48:14.000Z</time></trkpt>
<trkpt lat="42.098503" lon="23.581038"><ele>2351</ele><time>2026-03-08T09:48:15.000Z</time></trkpt>
<trkpt lat="42.098498" lon="23.581034"><ele>2351</ele><time>2026-03-08T09:48:16.000Z</time></trkpt>
<trkpt lat="42.098493" lon="23.581029"><ele>2351.9</ele><time>2026-03-08T09:48:17.000Z</time></trkpt>
<trkpt lat="42.098488" lon="23.581025"><ele>2351.9</ele><time>2026-03-08T09:48:18.000Z</time></trkpt>
<trkpt lat="42.098484" lon="23.581021"><ele>2351.9</ele><time>2026-03-08T09:48:19.000Z</time></trkpt>
<trkpt lat="42.09848" lon="23.581018"><ele>2351.9</ele><time>2026-03-08T09:48:20.000Z</time></trkpt>
<trkpt lat="42.098476" lon="23.581014"><ele>2351.9</ele><time>2026-03-08T09:48:21.000Z</time></trkpt>
<trkpt lat="42.098472" lon="23.581011"><ele>2352.9</ele><time>2026-03-08T09:48:22.000Z</time></trkpt>
<trkpt lat="42.098468" lon="23.581007"><ele>2352.9</ele><time>2026-03-08T09:48:23.000Z</time></trkpt>
<trkpt lat="42.098464" lon="23.581003"><ele>2352.9</ele><time>2026-03-08T09:48:24.000Z</time></trkpt>
<trkpt lat="42.09846" lon="23.580999"><ele>2352.9</ele><time>2026-03-08T09:48:25.000Z</time></trkpt>
<trkpt lat="42.098457" lon="23.580994"><ele>2352.9</ele><time>2026-03-08T09:48:26.000Z</time></trkpt>
<trkpt lat="42.098453" lon="23.58099"><ele>2353.4</ele><time>2026-03-08T09:48:27.000Z</time></trkpt>
<trkpt lat="42.098449" lon="23.580986"><ele>2353.4</ele><time>2026-03-08T09:48:28.000Z</time></trkpt>
<trkpt lat="42.098445" lon="23.580981"><ele>2353.4</ele><time>2026-03-08T09:48:29.000Z</time></trkpt>
<trkpt lat="42.09844" lon="23.580977"><ele>2353.4</ele><time>2026-03-08T09:48:30.000Z</time></trkpt>
<trkpt lat="42.098436" lon="23.580973"><ele>2353.4</ele><time>2026-03-08T09:48:31.000Z</time></trkpt>
<trkpt lat="42.098432" lon="23.580968"><ele>2354.2</ele><time>2026-03-08T09:48:32.000Z</time></trkpt>
<trkpt lat="42.098427" lon="23.580963"><ele>2354.2</ele><time>2026-03-08T09:48:33.000Z</time></trkpt>
<trkpt lat="42.098423" lon="23.580959"><ele>2354.2</ele><time>2026-03-08T09:48:34.000Z</time></trkpt>
<trkpt lat="42.098418" lon="23.580954"><ele>2354.2</ele><time>2026-03-08T09:48:35.000Z</time></trkpt>
<trkpt lat="42.098412" lon="23.580949"><ele>2354.2</ele><time>2026-03-08T09:48:36.000Z</time></trkpt>
<trkpt lat="42.098407" lon="23.580944"><ele>2354.8</ele><time>2026-03-08T09:48:37.000Z</time></trkpt>
<trkpt lat="42.098401" lon="23.58094"><ele>2354.8</ele><time>2026-03-08T09:48:38.000Z</time></trkpt>
<trkpt lat="42.098394" lon="23.580935"><ele>2354.8</ele><time>2026-03-08T09:48:39.000Z</time></trkpt>
<trkpt lat="42.098388" lon="23.580929"><ele>2354.8</ele><time>2026-03-08T09:48:40.000Z</time></trkpt>
<trkpt lat="42.098383" lon="23.580924"><ele>2354.8</ele><time>2026-03-08T09:48:41.000Z</time></trkpt>
<trkpt lat="42.098378" lon="23.580918"><ele>2355.1</ele><time>2026-03-08T09:48:42.000Z</time></trkpt>
<trkpt lat="42.098374" lon="23.580912"><ele>2355.1</ele><time>2026-03-08T09:48:43.000Z</time></trkpt>
<trkpt lat="42.09837" lon="23.580908"><ele>2355.1</ele><time>2026-03-08T09:48:44.000Z</time></trkpt>
<trkpt lat="42.098367" lon="23.580906"><ele>2355.1</ele><time>2026-03-08T09:48:45.000Z</time></trkpt>
<trkpt lat="42.098363" lon="23.580907"><ele>2355.1</ele><time>2026-03-08T09:48:46.000Z</time></trkpt>
<trkpt lat="42.098359" lon="23.580909"><ele>2356</ele><time>2026-03-08T09:48:47.000Z</time></trkpt>
<trkpt lat="42.098355" lon="23.580913"><ele>2356</ele><time>2026-03-08T09:48:48.000Z</time></trkpt>
<trkpt lat="42.09835" lon="23.580917"><ele>2356</ele><time>2026-03-08T09:48:49.000Z</time></trkpt>
<trkpt lat="42.098347" lon="23.580921"><ele>2356</ele><time>2026-03-08T09:48:50.000Z</time></trkpt>
<trkpt lat="42.098345" lon="23.580924"><ele>2356</ele><time>2026-03-08T09:48:51.000Z</time></trkpt>
<trkpt lat="42.098343" lon="23.580927"><ele>2356.9</ele><time>2026-03-08T09:48:52.000Z</time></trkpt>
<trkpt lat="42.09834" lon="23.580928"><ele>2356.9</ele><time>2026-03-08T09:48:53.000Z</time></trkpt>
<trkpt lat="42.098336" lon="23.580929"><ele>2356.9</ele><time>2026-03-08T09:48:54.000Z</time></trkpt>
<trkpt lat="42.09833" lon="23.580929"><ele>2356.9</ele><time>2026-03-08T09:48:55.000Z</time></trkpt>
<trkpt lat="42.098322" lon="23.580928"><ele>2356.9</ele><time>2026-03-08T09:48:56.000Z</time></trkpt>
<trkpt lat="42.098313" lon="23.580924"><ele>2357.3</ele><time>2026-03-08T09:48:57.000Z</time></trkpt>
<trkpt lat="42.098305" lon="23.58092"><ele>2357.3</ele><time>2026-03-08T09:48:58.000Z</time></trkpt>
<trkpt lat="42.098298" lon="23.580915"><ele>2357.3</ele><time>2026-03-08T09:48:59.000Z</time></trkpt>
<trkpt lat="42.09829" lon="23.580909"><ele>2357.3</ele><time>2026-03-08T09:49:00.000Z</time></trkpt>
<trkpt lat="42.098283" lon="23.580902"><ele>2357.3</ele><time>2026-03-08T09:49:01.000Z</time></trkpt>
<trkpt lat="42.098277" lon="23.580894"><ele>2357.8</ele><time>2026-03-08T09:49:02.000Z</time></trkpt>
<trkpt lat="42.098271" lon="23.580885"><ele>2357.8</ele><time>2026-03-08T09:49:03.000Z</time></trkpt>
<trkpt lat="42.098266" lon="23.580877"><ele>2357.8</ele><time>2026-03-08T09:49:04.000Z</time></trkpt>
<trkpt lat="42.098261" lon="23.580868"><ele>2357.8</ele><time>2026-03-08T09:49:05.000Z</time></trkpt>
<trkpt lat="42.098255" lon="23.58086"><ele>2357.8</ele><time>2026-03-08T09:49:06.000Z</time></trkpt>
<trkpt lat="42.09825" lon="23.580854"><ele>2358.4</ele><time>2026-03-08T09:49:07.000Z</time></trkpt>
<trkpt lat="42.098243" lon="23.580849"><ele>2358.4</ele><time>2026-03-08T09:49:08.000Z</time></trkpt>
<trkpt lat="42.098237" lon="23.580845"><ele>2358.4</ele><time>2026-03-08T09:49:09.000Z</time></trkpt>
<trkpt lat="42.09823" lon="23.580842"><ele>2358.4</ele><time>2026-03-08T09:49:10.000Z</time></trkpt>
<trkpt lat="42.098223" lon="23.580841"><ele>2358.4</ele><time>2026-03-08T09:49:11.000Z</time></trkpt>
<trkpt lat="42.098215" lon="23.580841"><ele>2358.6</ele><time>2026-03-08T09:49:12.000Z</time></trkpt>
<trkpt lat="42.098208" lon="23.58084"><ele>2358.6</ele><time>2026-03-08T09:49:13.000Z</time></trkpt>
<trkpt lat="42.0982" lon="23.580839"><ele>2358.6</ele><time>2026-03-08T09:49:14.000Z</time></trkpt>
<trkpt lat="42.098191" lon="23.580838"><ele>2358.6</ele><time>2026-03-08T09:49:15.000Z</time></trkpt>
<trkpt lat="42.098182" lon="23.580837"><ele>2358.6</ele><time>2026-03-08T09:49:16.000Z</time></trkpt>
<trkpt lat="42.098173" lon="23.580836"><ele>2358.8</ele><time>2026-03-08T09:49:17.000Z</time></trkpt>
<trkpt lat="42.098164" lon="23.580834"><ele>2358.8</ele><time>2026-03-08T09:49:18.000Z</time></trkpt>
<trkpt lat="42.098156" lon="23.580833"><ele>2358.8</ele><time>2026-03-08T09:49:19.000Z</time></trkpt>
<trkpt lat="42.098149" lon="23.580831"><ele>2358.8</ele><time>2026-03-08T09:49:20.000Z</time></trkpt>
<trkpt lat="42.098144" lon="23.580828"><ele>2358.8</ele><time>2026-03-08T09:49:21.000Z</time></trkpt>
<trkpt lat="42.098139" lon="23.580826"><ele>2358.9</ele><time>2026-03-08T09:49:22.000Z</time></trkpt>
<trkpt lat="42.098134" lon="23.580823"><ele>2358.9</ele><time>2026-03-08T09:49:23.000Z</time></trkpt>
<trkpt lat="42.09813" lon="23.580821"><ele>2358.9</ele><time>2026-03-08T09:49:24.000Z</time></trkpt>
<trkpt lat="42.098124" lon="23.580818"><ele>2358.9</ele><time>2026-03-08T09:49:25.000Z</time></trkpt>
<trkpt lat="42.098118" lon="23.580815"><ele>2358.9</ele><time>2026-03-08T09:49:26.000Z</time></trkpt>
<trkpt lat="42.098112" lon="23.580811"><ele>2359.1</ele><time>2026-03-08T09:49:27.000Z</time></trkpt>
<trkpt lat="42.098106" lon="23.580808"><ele>2359.1</ele><time>2026-03-08T09:49:28.000Z</time></trkpt>
<trkpt lat="42.0981" lon="23.580805"><ele>2359.1</ele><time>2026-03-08T09:49:29.000Z</time></trkpt>
<trkpt lat="42.098094" lon="23.5808"><ele>2359.1</ele><time>2026-03-08T09:49:30.000Z</time></trkpt>
<trkpt lat="42.098089" lon="23.580794"><ele>2359.1</ele><time>2026-03-08T09:49:31.000Z</time></trkpt>
<trkpt lat="42.098085" lon="23.580788"><ele>2359.6</ele><time>2026-03-08T09:49:32.000Z</time></trkpt>
<trkpt lat="42.098081" lon="23.580781"><ele>2359.6</ele><time>2026-03-08T09:49:33.000Z</time></trkpt>
<trkpt lat="42.098079" lon="23.580775"><ele>2359.6</ele><time>2026-03-08T09:49:34.000Z</time></trkpt>
<trkpt lat="42.098078" lon="23.580769"><ele>2359.6</ele><time>2026-03-08T09:49:35.000Z</time></trkpt>
<trkpt lat="42.098078" lon="23.580765"><ele>2359.6</ele><time>2026-03-08T09:49:36.000Z</time></trkpt>
<trkpt lat="42.098079" lon="23.580764"><ele>2360.5</ele><time>2026-03-08T09:49:37.000Z</time></trkpt>
<trkpt lat="42.09808" lon="23.580764"><ele>2360.5</ele><time>2026-03-08T09:49:38.000Z</time></trkpt>
<trkpt lat="42.098081" lon="23.580764"><ele>2360.5</ele><time>2026-03-08T09:49:39.000Z</time></trkpt>
<trkpt lat="42.098082" lon="23.580765"><ele>2360.5</ele><time>2026-03-08T09:49:40.000Z</time></trkpt>
<trkpt lat="42.098083" lon="23.580765"><ele>2360.5</ele><time>2026-03-08T09:49:41.000Z</time></trkpt>
<trkpt lat="42.098084" lon="23.580765"><ele>2360.9</ele><time>2026-03-08T09:49:42.000Z</time></trkpt>
<trkpt lat="42.098085" lon="23.580765"><ele>2360.9</ele><time>2026-03-08T09:49:43.000Z</time></trkpt>
<trkpt lat="42.098085" lon="23.580764"><ele>2360.9</ele><time>2026-03-08T09:49:44.000Z</time></trkpt>
<trkpt lat="42.098085" lon="23.580764"><ele>2360.9</ele><time>2026-03-08T09:49:45.000Z</time></trkpt>
<trkpt lat="42.098084" lon="23.580764"><ele>2360.9</ele><time>2026-03-08T09:49:46.000Z</time></trkpt>
<trkpt lat="42.098084" lon="23.580764"><ele>2361.5</ele><time>2026-03-08T09:49:47.000Z</time></trkpt>
<trkpt lat="42.098083" lon="23.580764"><ele>2361.5</ele><time>2026-03-08T09:49:48.000Z</time></trkpt>
<trkpt lat="42.098082" lon="23.580764"><ele>2361.5</ele><time>2026-03-08T09:49:49.000Z</time></trkpt>
<trkpt lat="42.098082" lon="23.580764"><ele>2361.5</ele><time>2026-03-08T09:49:50.000Z</time></trkpt>
<trkpt lat="42.098082" lon="23.580764"><ele>2361.5</ele><time>2026-03-08T09:49:51.000Z</time></trkpt>
<trkpt lat="42.098081" lon="23.580764"><ele>2361.9</ele><time>2026-03-08T09:49:52.000Z</time></trkpt>
<trkpt lat="42.098081" lon="23.580763"><ele>2361.9</ele><time>2026-03-08T09:49:53.000Z</time></trkpt>
<trkpt lat="42.098081" lon="23.580763"><ele>2361.9</ele><time>2026-03-08T09:49:54.000Z</time></trkpt>
<trkpt lat="42.098081" lon="23.580763"><ele>2361.9</ele><time>2026-03-08T09:49:55.000Z</time></trkpt>
<trkpt lat="42.098081" lon="23.580763"><ele>2361.9</ele><time>2026-03-08T09:49:56.000Z</time></trkpt>
<trkpt lat="42.098081" lon="23.580763"><ele>2362</ele><time>2026-03-08T09:49:57.000Z</time></trkpt>
<trkpt lat="42.09808" lon="23.580763"><ele>2362</ele><time>2026-03-08T09:49:58.000Z</time></trkpt>
<trkpt lat="42.098079" lon="23.580761"><ele>2362</ele><time>2026-03-08T09:49:59.000Z</time></trkpt>
<trkpt lat="42.098077" lon="23.580759"><ele>2362</ele><time>2026-03-08T09:50:00.000Z</time></trkpt>
<trkpt lat="42.098075" lon="23.580755"><ele>2362</ele><time>2026-03-08T09:50:01.000Z</time></trkpt>
<trkpt lat="42.098073" lon="23.580751"><ele>2361.9</ele><time>2026-03-08T09:50:02.000Z</time></trkpt>
<trkpt lat="42.098073" lon="23.580747"><ele>2361.9</ele><time>2026-03-08T09:50:03.000Z</time></trkpt>
<trkpt lat="42.098072" lon="23.580745"><ele>2361.9</ele><time>2026-03-08T09:50:04.000Z</time></trkpt>
<trkpt lat="42.098072" lon="23.580743"><ele>2361.9</ele><time>2026-03-08T09:50:05.000Z</time></trkpt>
<trkpt lat="42.09807" lon="23.580741"><ele>2361.9</ele><time>2026-03-08T09:50:06.000Z</time></trkpt>
<trkpt lat="42.098067" lon="23.580737"><ele>2361.8</ele><time>2026-03-08T09:50:07.000Z</time></trkpt>
<trkpt lat="42.098064" lon="23.580733"><ele>2361.8</ele><time>2026-03-08T09:50:08.000Z</time></trkpt>
<trkpt lat="42.09806" lon="23.580726"><ele>2361.8</ele><time>2026-03-08T09:50:09.000Z</time></trkpt>
<trkpt lat="42.098055" lon="23.580718"><ele>2361.8</ele><time>2026-03-08T09:50:10.000Z</time></trkpt>
<trkpt lat="42.098051" lon="23.580711"><ele>2361.8</ele><time>2026-03-08T09:50:11.000Z</time></trkpt>
<trkpt lat="42.098048" lon="23.580704"><ele>2361.9</ele><time>2026-03-08T09:50:12.000Z</time></trkpt>
<trkpt lat="42.098046" lon="23.580695"><ele>2361.9</ele><time>2026-03-08T09:50:13.000Z</time></trkpt>
<trkpt lat="42.098043" lon="23.580687"><ele>2361.9</ele><time>2026-03-08T09:50:14.000Z</time></trkpt>
<trkpt lat="42.098042" lon="23.58068"><ele>2361.9</ele><time>2026-03-08T09:50:15.000Z</time></trkpt>
<trkpt lat="42.098042" lon="23.580673"><ele>2361.9</ele><time>2026-03-08T09:50:16.000Z</time></trkpt>
<trkpt lat="42.098041" lon="23.580666"><ele>2362.1</ele><time>2026-03-08T09:50:17.000Z</time></trkpt>
<trkpt lat="42.098041" lon="23.580661"><ele>2362.1</ele><time>2026-03-08T09:50:18.000Z</time></trkpt>
<trkpt lat="42.098041" lon="23.580656"><ele>2362.1</ele><time>2026-03-08T09:50:19.000Z</time></trkpt>
<trkpt lat="42.09804" lon="23.580649"><ele>2362.1</ele><time>2026-03-08T09:50:20.000Z</time></trkpt>
<trkpt lat="42.09804" lon="23.580642"><ele>2362.1</ele><time>2026-03-08T09:50:21.000Z</time></trkpt>
<trkpt lat="42.09804" lon="23.580634"><ele>2362.6</ele><time>2026-03-08T09:50:22.000Z</time></trkpt>
<trkpt lat="42.098041" lon="23.580625"><ele>2362.6</ele><time>2026-03-08T09:50:23.000Z</time></trkpt>
<trkpt lat="42.098042" lon="23.580615"><ele>2362.6</ele><time>2026-03-08T09:50:24.000Z</time></trkpt>
<trkpt lat="42.098042" lon="23.580605"><ele>2362.6</ele><time>2026-03-08T09:50:25.000Z</time></trkpt>
<trkpt lat="42.098043" lon="23.580597"><ele>2362.6</ele><time>2026-03-08T09:50:26.000Z</time></trkpt>
<trkpt lat="42.098044" lon="23.580589"><ele>2362.9</ele><time>2026-03-08T09:50:27.000Z</time></trkpt>
<trkpt lat="42.098044" lon="23.580581"><ele>2362.9</ele><time>2026-03-08T09:50:28.000Z</time></trkpt>
<trkpt lat="42.098045" lon="23.580574"><ele>2362.9</ele><time>2026-03-08T09:50:29.000Z</time></trkpt>
<trkpt lat="42.098045" lon="23.580566"><ele>2362.9</ele><time>2026-03-08T09:50:30.000Z</time></trkpt>
<trkpt lat="42.098044" lon="23.580558"><ele>2362.9</ele><time>2026-03-08T09:50:31.000Z</time></trkpt>
<trkpt lat="42.098042" lon="23.58055"><ele>2363.4</ele><time>2026-03-08T09:50:32.000Z</time></trkpt>
<trkpt lat="42.098039" lon="23.580541"><ele>2363.4</ele><time>2026-03-08T09:50:33.000Z</time></trkpt>
<trkpt lat="42.098036" lon="23.580531"><ele>2363.4</ele><time>2026-03-08T09:50:34.000Z</time></trkpt>
<trkpt lat="42.098035" lon="23.580522"><ele>2363.4</ele><time>2026-03-08T09:50:35.000Z</time></trkpt>
<trkpt lat="42.098033" lon="23.580514"><ele>2363.4</ele><time>2026-03-08T09:50:36.000Z</time></trkpt>
<trkpt lat="42.098033" lon="23.580508"><ele>2363.9</ele><time>2026-03-08T09:50:37.000Z</time></trkpt>
<trkpt lat="42.098032" lon="23.580503"><ele>2363.9</ele><time>2026-03-08T09:50:38.000Z</time></trkpt>
<trkpt lat="42.098032" lon="23.580499"><ele>2363.9</ele><time>2026-03-08T09:50:39.000Z</time></trkpt>
<trkpt lat="42.098031" lon="23.580498"><ele>2363.9</ele><time>2026-03-08T09:50:40.000Z</time></trkpt>
<trkpt lat="42.09803" lon="23.580496"><ele>2363.9</ele><time>2026-03-08T09:50:41.000Z</time></trkpt>
<trkpt lat="42.098029" lon="23.580496"><ele>2364.1</ele><time>2026-03-08T09:50:42.000Z</time></trkpt>
<trkpt lat="42.098028" lon="23.580495"><ele>2364.1</ele><time>2026-03-08T09:50:43.000Z</time></trkpt>
<trkpt lat="42.098027" lon="23.580495"><ele>2364.1</ele><time>2026-03-08T09:50:44.000Z</time></trkpt>
<trkpt lat="42.098027" lon="23.580495"><ele>2364.1</ele><time>2026-03-08T09:50:45.000Z</time></trkpt>
<trkpt lat="42.098027" lon="23.580496"><ele>2364.1</ele><time>2026-03-08T09:50:46.000Z</time></trkpt>
<trkpt lat="42.098026" lon="23.580496"><ele>2364.6</ele><time>2026-03-08T09:50:47.000Z</time></trkpt>
<trkpt lat="42.098026" lon="23.580496"><ele>2364.6</ele><time>2026-03-08T09:50:48.000Z</time></trkpt>
<trkpt lat="42.098026" lon="23.580496"><ele>2364.6</ele><time>2026-03-08T09:50:49.000Z</time></trkpt>
<trkpt lat="42.098026" lon="23.580496"><ele>2364.6</ele><time>2026-03-08T09:50:50.000Z</time></trkpt>
<trkpt lat="42.098026" lon="23.580496"><ele>2364.6</ele><time>2026-03-08T09:50:51.000Z</time></trkpt>
<trkpt lat="42.098026" lon="23.580496"><ele>2364.9</ele><time>2026-03-08T09:50:52.000Z</time></trkpt>
<trkpt lat="42.098026" lon="23.580496"><ele>2364.9</ele><time>2026-03-08T09:50:53.000Z</time></trkpt>
<trkpt lat="42.098027" lon="23.580496"><ele>2364.9</ele><time>2026-03-08T09:50:54.000Z</time></trkpt>
<trkpt lat="42.098027" lon="23.580497"><ele>2364.9</ele><time>2026-03-08T09:50:55.000Z</time></trkpt>
<trkpt lat="42.098027" lon="23.580497"><ele>2364.9</ele><time>2026-03-08T09:50:56.000Z</time></trkpt>
<trkpt lat="42.098028" lon="23.580496"><ele>2365</ele><time>2026-03-08T09:50:57.000Z</time></trkpt>
<trkpt lat="42.098029" lon="23.580496"><ele>2365</ele><time>2026-03-08T09:50:58.000Z</time></trkpt>
<trkpt lat="42.098029" lon="23.580496"><ele>2365</ele><time>2026-03-08T09:50:59.000Z</time></trkpt>
<trkpt lat="42.098029" lon="23.580495"><ele>2365</ele><time>2026-03-08T09:51:00.000Z</time></trkpt>
<trkpt lat="42.098029" lon="23.580495"><ele>2365</ele><time>2026-03-08T09:51:01.000Z</time></trkpt>
<trkpt lat="42.098029" lon="23.580495"><ele>2365.1</ele><time>2026-03-08T09:51:02.000Z</time></trkpt>
<trkpt lat="42.098029" lon="23.580495"><ele>2365.1</ele><time>2026-03-08T09:51:03.000Z</time></trkpt>
<trkpt lat="42.098029" lon="23.580495"><ele>2365.1</ele><time>2026-03-08T09:51:04.000Z</time></trkpt>
<trkpt lat="42.098029" lon="23.580495"><ele>2365.1</ele><time>2026-03-08T09:51:05.000Z</time></trkpt>
<trkpt lat="42.098029" lon="23.580495"><ele>2365.1</ele><time>2026-03-08T09:51:06.000Z</time></trkpt>
<trkpt lat="42.098029" lon="23.580496"><ele>2365.1</ele><time>2026-03-08T09:51:07.000Z</time></trkpt>
<trkpt lat="42.098028" lon="23.580496"><ele>2365.1</ele><time>2026-03-08T09:51:08.000Z</time></trkpt>
<trkpt lat="42.098028" lon="23.580497"><ele>2365.1</ele><time>2026-03-08T09:51:09.000Z</time></trkpt>
<trkpt lat="42.098028" lon="23.580497"><ele>2365.1</ele><time>2026-03-08T09:51:10.000Z</time></trkpt>
<trkpt lat="42.098028" lon="23.580498"><ele>2365.1</ele><time>2026-03-08T09:51:11.000Z</time></trkpt>
<trkpt lat="42.098029" lon="23.580498"><ele>2365.1</ele><time>2026-03-08T09:51:12.000Z</time></trkpt>
<trkpt lat="42.098029" lon="23.580499"><ele>2365.1</ele><time>2026-03-08T09:51:13.000Z</time></trkpt>
<trkpt lat="42.09803" lon="23.580499"><ele>2365.1</ele><time>2026-03-08T09:51:14.000Z</time></trkpt>
<trkpt lat="42.09803" lon="23.5805"><ele>2365.1</ele><time>2026-03-08T09:51:15.000Z</time></trkpt>
<trkpt lat="42.098029" lon="23.580501"><ele>2365.1</ele><time>2026-03-08T09:51:16.000Z</time></trkpt>
<trkpt lat="42.098028" lon="23.580503"><ele>2365.2</ele><time>2026-03-08T09:51:17.000Z</time></trkpt>
<trkpt lat="42.098028" lon="23.580504"><ele>2365.2</ele><time>2026-03-08T09:51:18.000Z</time></trkpt>
<trkpt lat="42.098027" lon="23.580505"><ele>2365.2</ele><time>2026-03-08T09:51:19.000Z</time></trkpt>
<trkpt lat="42.098027" lon="23.580506"><ele>2365.2</ele><time>2026-03-08T09:51:20.000Z</time></trkpt>
<trkpt lat="42.098027" lon="23.580506"><ele>2365.2</ele><time>2026-03-08T09:51:21.000Z</time></trkpt>
<trkpt lat="42.098027" lon="23.580506"><ele>2365.2</ele><time>2026-03-08T09:51:22.000Z</time></trkpt>
<trkpt lat="42.098027" lon="23.580506"><ele>2365.2</ele><time>2026-03-08T09:51:23.000Z</time></trkpt>
<trkpt lat="42.098027" lon="23.580506"><ele>2365.2</ele><time>2026-03-08T09:51:24.000Z</time></trkpt>
<trkpt lat="42.098027" lon="23.580506"><ele>2365.2</ele><time>2026-03-08T09:51:25.000Z</time></trkpt>
<trkpt lat="42.098027" lon="23.580507"><ele>2365.2</ele><time>2026-03-08T09:51:26.000Z</time></trkpt>
<trkpt lat="42.098027" lon="23.580507"><ele>2365.2</ele><time>2026-03-08T09:51:27.000Z</time></trkpt>
<trkpt lat="42.098027" lon="23.580506"><ele>2365.2</ele><time>2026-03-08T09:51:28.000Z</time></trkpt>
<trkpt lat="42.098027" lon="23.580505"><ele>2365.2</ele><time>2026-03-08T09:51:29.000Z</time></trkpt>
<trkpt lat="42.098028" lon="23.580504"><ele>2365.2</ele><time>2026-03-08T09:51:30.000Z</time></trkpt>
<trkpt lat="42.098028" lon="23.580502"><ele>2365.2</ele><time>2026-03-08T09:51:31.000Z</time></trkpt>
<trkpt lat="42.098029" lon="23.5805"><ele>2365.1</ele><time>2026-03-08T09:51:32.000Z</time></trkpt>
<trkpt lat="42.09803" lon="23.580498"><ele>2365.1</ele><time>2026-03-08T09:51:33.000Z</time></trkpt>
<trkpt lat="42.098031" lon="23.580496"><ele>2365.1</ele><time>2026-03-08T09:51:34.000Z</time></trkpt>
<trkpt lat="42.098032" lon="23.580494"><ele>2365.1</ele><time>2026-03-08T09:51:35.000Z</time></trkpt>
<trkpt lat="42.098033" lon="23.580493"><ele>2365.1</ele><time>2026-03-08T09:51:36.000Z</time></trkpt>
<trkpt lat="42.098034" lon="23.580492"><ele>2364.9</ele><time>2026-03-08T09:51:37.000Z</time></trkpt>
<trkpt lat="42.098034" lon="23.580492"><ele>2364.9</ele><time>2026-03-08T09:51:38.000Z</time></trkpt>
<trkpt lat="42.098034" lon="23.580492"><ele>2364.9</ele><time>2026-03-08T09:51:39.000Z</time></trkpt>
<trkpt lat="42.098032" lon="23.580494"><ele>2364.9</ele><time>2026-03-08T09:51:40.000Z</time></trkpt>
<trkpt lat="42.09803" lon="23.580495"><ele>2364.9</ele><time>2026-03-08T09:51:41.000Z</time></trkpt>
<trkpt lat="42.098029" lon="23.580496"><ele>2364.8</ele><time>2026-03-08T09:51:42.000Z</time></trkpt>
<trkpt lat="42.098028" lon="23.580497"><ele>2364.8</ele><time>2026-03-08T09:51:43.000Z</time></trkpt>
<trkpt lat="42.098028" lon="23.580498"><ele>2364.8</ele><time>2026-03-08T09:51:44.000Z</time></trkpt>
<trkpt lat="42.098028" lon="23.580499"><ele>2364.8</ele><time>2026-03-08T09:51:45.000Z</time></trkpt>
<trkpt lat="42.098029" lon="23.580501"><ele>2364.8</ele><time>2026-03-08T09:51:46.000Z</time></trkpt>
<trkpt lat="42.098028" lon="23.580501"><ele>2364.7</ele><time>2026-03-08T09:51:47.000Z</time></trkpt>
<trkpt lat="42.098028" lon="23.580502"><ele>2364.7</ele><time>2026-03-08T09:51:48.000Z</time></trkpt>
<trkpt lat="42.098028" lon="23.580502"><ele>2364.7</ele><time>2026-03-08T09:51:49.000Z</time></trkpt>
<trkpt lat="42.098028" lon="23.580502"><ele>2364.7</ele><time>2026-03-08T09:51:50.000Z</time></trkpt>
<trkpt lat="42.098027" lon="23.580502"><ele>2364.7</ele><time>2026-03-08T09:51:51.000Z</time></trkpt>
<trkpt lat="42.098027" lon="23.580501"><ele>2364.8</ele><time>2026-03-08T09:51:52.000Z</time></trkpt>
<trkpt lat="42.098027" lon="23.580501"><ele>2364.8</ele><time>2026-03-08T09:51:53.000Z</time></trkpt>
<trkpt lat="42.098027" lon="23.5805"><ele>2364.8</ele><time>2026-03-08T09:51:54.000Z</time></trkpt>
<trkpt lat="42.098026" lon="23.580499"><ele>2364.8</ele><time>2026-03-08T09:51:55.000Z</time></trkpt>
<trkpt lat="42.098026" lon="23.580499"><ele>2364.8</ele><time>2026-03-08T09:51:56.000Z</time></trkpt>
<trkpt lat="42.098026" lon="23.580499"><ele>2364.9</ele><time>2026-03-08T09:51:57.000Z</time></trkpt>
<trkpt lat="42.098026" lon="23.580499"><ele>2364.9</ele><time>2026-03-08T09:51:58.000Z</time></trkpt>
<trkpt lat="42.098026" lon="23.580499"><ele>2364.9</ele><time>2026-03-08T09:51:59.000Z</time></trkpt>
<trkpt lat="42.098026" lon="23.580499"><ele>2364.9</ele><time>2026-03-08T09:52:00.000Z</time></trkpt>
<trkpt lat="42.098026" lon="23.5805"><ele>2364.9</ele><time>2026-03-08T09:52:01.000Z</time></trkpt>
<trkpt lat="42.098027" lon="23.580501"><ele>2364.9</ele><time>2026-03-08T09:52:02.000Z</time></trkpt>
<trkpt lat="42.098027" lon="23.580502"><ele>2364.9</ele><time>2026-03-08T09:52:03.000Z</time></trkpt>
<trkpt lat="42.098028" lon="23.580504"><ele>2364.9</ele><time>2026-03-08T09:52:04.000Z</time></trkpt>
<trkpt lat="42.098028" lon="23.580505"><ele>2364.9</ele><time>2026-03-08T09:52:05.000Z</time></trkpt>
<trkpt lat="42.098028" lon="23.580504"><ele>2364.9</ele><time>2026-03-08T09:52:06.000Z</time></trkpt>
<trkpt lat="42.098027" lon="23.580504"><ele>2364.8</ele><time>2026-03-08T09:52:07.000Z</time></trkpt>
<trkpt lat="42.098025" lon="23.580505"><ele>2364.8</ele><time>2026-03-08T09:52:08.000Z</time></trkpt>
<trkpt lat="42.098022" lon="23.580505"><ele>2364.8</ele><time>2026-03-08T09:52:09.000Z</time></trkpt>
<trkpt lat="42.09802" lon="23.580506"><ele>2364.8</ele><time>2026-03-08T09:52:10.000Z</time></trkpt>
<trkpt lat="42.098019" lon="23.580507"><ele>2364.8</ele><time>2026-03-08T09:52:11.000Z</time></trkpt>
<trkpt lat="42.098018" lon="23.580506"><ele>2364.8</ele><time>2026-03-08T09:52:12.000Z</time></trkpt>
<trkpt lat="42.098019" lon="23.580506"><ele>2364.8</ele><time>2026-03-08T09:52:13.000Z</time></trkpt>
<trkpt lat="42.09802" lon="23.580506"><ele>2364.8</ele><time>2026-03-08T09:52:14.000Z</time></trkpt>
<trkpt lat="42.09802" lon="23.580506"><ele>2364.8</ele><time>2026-03-08T09:52:15.000Z</time></trkpt>
<trkpt lat="42.098021" lon="23.580505"><ele>2364.8</ele><time>2026-03-08T09:52:16.000Z</time></trkpt>
<trkpt lat="42.098022" lon="23.580507"><ele>2365</ele><time>2026-03-08T09:52:17.000Z</time></trkpt>
<trkpt lat="42.098022" lon="23.580508"><ele>2365</ele><time>2026-03-08T09:52:18.000Z</time></trkpt>
<trkpt lat="42.098023" lon="23.580508"><ele>2365</ele><time>2026-03-08T09:52:19.000Z</time></trkpt>
<trkpt lat="42.098024" lon="23.580508"><ele>2365</ele><time>2026-03-08T09:52:20.000Z</time></trkpt>
<trkpt lat="42.098026" lon="23.580507"><ele>2365</ele><time>2026-03-08T09:52:21.000Z</time></trkpt>
<trkpt lat="42.098026" lon="23.580506"><ele>2365.1</ele><time>2026-03-08T09:52:22.000Z</time></trkpt>
<trkpt lat="42.098027" lon="23.580504"><ele>2365.1</ele><time>2026-03-08T09:52:23.000Z</time></trkpt>
<trkpt lat="42.098028" lon="23.580503"><ele>2365.1</ele><time>2026-03-08T09:52:24.000Z</time></trkpt>
<trkpt lat="42.098028" lon="23.580502"><ele>2365.1</ele><time>2026-03-08T09:52:25.000Z</time></trkpt>
<trkpt lat="42.098029" lon="23.580501"><ele>2365.1</ele><time>2026-03-08T09:52:26.000Z</time></trkpt>
<trkpt lat="42.09803" lon="23.5805"><ele>2365.1</ele><time>2026-03-08T09:52:27.000Z</time></trkpt>
<trkpt lat="42.09803" lon="23.5805"><ele>2365.1</ele><time>2026-03-08T09:52:28.000Z</time></trkpt>
<trkpt lat="42.098031" lon="23.5805"><ele>2365.1</ele><time>2026-03-08T09:52:29.000Z</time></trkpt>
<trkpt lat="42.098031" lon="23.580499"><ele>2365.1</ele><time>2026-03-08T09:52:30.000Z</time></trkpt>
<trkpt lat="42.098031" lon="23.580499"><ele>2365.1</ele><time>2026-03-08T09:52:31.000Z</time></trkpt>
<trkpt lat="42.098032" lon="23.5805"><ele>2365.2</ele><time>2026-03-08T09:52:32.000Z</time></trkpt>
<trkpt lat="42.098032" lon="23.5805"><ele>2365.2</ele><time>2026-03-08T09:52:33.000Z</time></trkpt>
<trkpt lat="42.098032" lon="23.5805"><ele>2365.2</ele><time>2026-03-08T09:52:34.000Z</time></trkpt>
<trkpt lat="42.098032" lon="23.580502"><ele>2365.2</ele><time>2026-03-08T09:52:35.000Z</time></trkpt>
<trkpt lat="42.098031" lon="23.580503"><ele>2365.2</ele><time>2026-03-08T09:52:36.000Z</time></trkpt>
<trkpt lat="42.098031" lon="23.580504"><ele>2365.4</ele><time>2026-03-08T09:52:37.000Z</time></trkpt>
<trkpt lat="42.098031" lon="23.580505"><ele>2365.4</ele><time>2026-03-08T09:52:38.000Z</time></trkpt>
<trkpt lat="42.09803" lon="23.580505"><ele>2365.4</ele><time>2026-03-08T09:52:39.000Z</time></trkpt>
<trkpt lat="42.09803" lon="23.580505"><ele>2365.4</ele><time>2026-03-08T09:52:40.000Z</time></trkpt>
<trkpt lat="42.09803" lon="23.580505"><ele>2365.4</ele><time>2026-03-08T09:52:41.000Z</time></trkpt>
<trkpt lat="42.09803" lon="23.580506"><ele>2365.5</ele><time>2026-03-08T09:52:42.000Z</time></trkpt>
<trkpt lat="42.09803" lon="23.580507"><ele>2365.5</ele><time>2026-03-08T09:52:43.000Z</time></trkpt>
<trkpt lat="42.09803" lon="23.580507"><ele>2365.5</ele><time>2026-03-08T09:52:44.000Z</time></trkpt>
<trkpt lat="42.09803" lon="23.580508"><ele>2365.5</ele><time>2026-03-08T09:52:45.000Z</time></trkpt>
<trkpt lat="42.098029" lon="23.580508"><ele>2365.5</ele><time>2026-03-08T09:52:46.000Z</time></trkpt>
<trkpt lat="42.098029" lon="23.580508"><ele>2365.4</ele><time>2026-03-08T09:52:47.000Z</time></trkpt>
<trkpt lat="42.098029" lon="23.580508"><ele>2365.4</ele><time>2026-03-08T09:52:48.000Z</time></trkpt>
<trkpt lat="42.098029" lon="23.580508"><ele>2365.4</ele><time>2026-03-08T09:52:49.000Z</time></trkpt>
<trkpt lat="42.098029" lon="23.580508"><ele>2365.4</ele><time>2026-03-08T09:52:50.000Z</time></trkpt>
<trkpt lat="42.098029" lon="23.580508"><ele>2365.4</ele><time>2026-03-08T09:52:51.000Z</time></trkpt>
<trkpt lat="42.098029" lon="23.580508"><ele>2365.4</ele><time>2026-03-08T09:52:52.000Z</time></trkpt>
<trkpt lat="42.098029" lon="23.580508"><ele>2365.4</ele><time>2026-03-08T09:52:53.000Z</time></trkpt>
<trkpt lat="42.098029" lon="23.580508"><ele>2365.4</ele><time>2026-03-08T09:52:54.000Z</time></trkpt>
<trkpt lat="42.098029" lon="23.580508"><ele>2365.4</ele><time>2026-03-08T09:52:55.000Z</time></trkpt>
<trkpt lat="42.098029" lon="23.580508"><ele>2365.4</ele><time>2026-03-08T09:52:56.000Z</time></trkpt>
<trkpt lat="42.098029" lon="23.580508"><ele>2365.5</ele><time>2026-03-08T09:52:57.000Z</time></trkpt>
<trkpt lat="42.098029" lon="23.580508"><ele>2365.5</ele><time>2026-03-08T09:52:58.000Z</time></trkpt>
<trkpt lat="42.098029" lon="23.580508"><ele>2365.5</ele><time>2026-03-08T09:52:59.000Z</time></trkpt>
<trkpt lat="42.098029" lon="23.580508"><ele>2365.5</ele><time>2026-03-08T09:53:00.000Z</time></trkpt>
<trkpt lat="42.098029" lon="23.580508"><ele>2365.5</ele><time>2026-03-08T09:53:01.000Z</time></trkpt>
<trkpt lat="42.098029" lon="23.580507"><ele>2365.6</ele><time>2026-03-08T09:53:02.000Z</time></trkpt>
<trkpt lat="42.09803" lon="23.580507"><ele>2365.6</ele><time>2026-03-08T09:53:03.000Z</time></trkpt>
<trkpt lat="42.098031" lon="23.580506"><ele>2365.6</ele><time>2026-03-08T09:53:04.000Z</time></trkpt>
<trkpt lat="42.098032" lon="23.580505"><ele>2365.6</ele><time>2026-03-08T09:53:05.000Z</time></trkpt>
<trkpt lat="42.098033" lon="23.580505"><ele>2365.6</ele><time>2026-03-08T09:53:06.000Z</time></trkpt>
<trkpt lat="42.098034" lon="23.580505"><ele>2365.5</ele><time>2026-03-08T09:53:07.000Z</time></trkpt>
<trkpt lat="42.098034" lon="23.580504"><ele>2365.5</ele><time>2026-03-08T09:53:08.000Z</time></trkpt>
<trkpt lat="42.098034" lon="23.580504"><ele>2365.5</ele><time>2026-03-08T09:53:09.000Z</time></trkpt>
<trkpt lat="42.098034" lon="23.580504"><ele>2365.5</ele><time>2026-03-08T09:53:10.000Z</time></trkpt>
<trkpt lat="42.098034" lon="23.580504"><ele>2365.5</ele><time>2026-03-08T09:53:11.000Z</time></trkpt>
<trkpt lat="42.098033" lon="23.580504"><ele>2365.3</ele><time>2026-03-08T09:53:12.000Z</time></trkpt>
<trkpt lat="42.098031" lon="23.580505"><ele>2365.3</ele><time>2026-03-08T09:53:13.000Z</time></trkpt>
<trkpt lat="42.098029" lon="23.580505"><ele>2365.3</ele><time>2026-03-08T09:53:14.000Z</time></trkpt>
<trkpt lat="42.098027" lon="23.580505"><ele>2365.3</ele><time>2026-03-08T09:53:15.000Z</time></trkpt>
<trkpt lat="42.098024" lon="23.580505"><ele>2365.3</ele><time>2026-03-08T09:53:16.000Z</time></trkpt>
<trkpt lat="42.098023" lon="23.580505"><ele>2364.9</ele><time>2026-03-08T09:53:17.000Z</time></trkpt>
<trkpt lat="42.098022" lon="23.580504"><ele>2364.9</ele><time>2026-03-08T09:53:18.000Z</time></trkpt>
<trkpt lat="42.098022" lon="23.580504"><ele>2364.9</ele><time>2026-03-08T09:53:19.000Z</time></trkpt>
<trkpt lat="42.098022" lon="23.580505"><ele>2364.9</ele><time>2026-03-08T09:53:20.000Z</time></trkpt>
<trkpt lat="42.098023" lon="23.580504"><ele>2364.9</ele><time>2026-03-08T09:53:21.000Z</time></trkpt>
<trkpt lat="42.098023" lon="23.580504"><ele>2364.8</ele><time>2026-03-08T09:53:22.000Z</time></trkpt>
<trkpt lat="42.098024" lon="23.580504"><ele>2364.8</ele><time>2026-03-08T09:53:23.000Z</time></trkpt>
<trkpt lat="42.098025" lon="23.580504"><ele>2364.8</ele><time>2026-03-08T09:53:24.000Z</time></trkpt>
<trkpt lat="42.098026" lon="23.580503"><ele>2364.8</ele><time>2026-03-08T09:53:25.000Z</time></trkpt>
<trkpt lat="42.098027" lon="23.580503"><ele>2364.8</ele><time>2026-03-08T09:53:26.000Z</time></trkpt>
<trkpt lat="42.098027" lon="23.580502"><ele>2364.9</ele><time>2026-03-08T09:53:27.000Z</time></trkpt>
<trkpt lat="42.098028" lon="23.580501"><ele>2364.9</ele><time>2026-03-08T09:53:28.000Z</time></trkpt>
<trkpt lat="42.098028" lon="23.5805"><ele>2364.9</ele><time>2026-03-08T09:53:29.000Z</time></trkpt>
<trkpt lat="42.098028" lon="23.5805"><ele>2364.9</ele><time>2026-03-08T09:53:30.000Z</time></trkpt>
<trkpt lat="42.098027" lon="23.580499"><ele>2364.9</ele><time>2026-03-08T09:53:31.000Z</time></trkpt>
<trkpt lat="42.098027" lon="23.580498"><ele>2364.9</ele><time>2026-03-08T09:53:32.000Z</time></trkpt>
<trkpt lat="42.098026" lon="23.580498"><ele>2364.9</ele><time>2026-03-08T09:53:33.000Z</time></trkpt>
<trkpt lat="42.098026" lon="23.580498"><ele>2364.9</ele><time>2026-03-08T09:53:34.000Z</time></trkpt>
<trkpt lat="42.098026" lon="23.580497"><ele>2364.9</ele><time>2026-03-08T09:53:35.000Z</time></trkpt>
<trkpt lat="42.098026" lon="23.580496"><ele>2364.9</ele><time>2026-03-08T09:53:36.000Z</time></trkpt>
<trkpt lat="42.098026" lon="23.580496"><ele>2364.6</ele><time>2026-03-08T09:53:37.000Z</time></trkpt>
<trkpt lat="42.098026" lon="23.580495"><ele>2364.6</ele><time>2026-03-08T09:53:38.000Z</time></trkpt>
<trkpt lat="42.098026" lon="23.580494"><ele>2364.6</ele><time>2026-03-08T09:53:39.000Z</time></trkpt>
<trkpt lat="42.098026" lon="23.580494"><ele>2364.6</ele><time>2026-03-08T09:53:40.000Z</time></trkpt>
<trkpt lat="42.098026" lon="23.580494"><ele>2364.6</ele><time>2026-03-08T09:53:41.000Z</time></trkpt>
<trkpt lat="42.098025" lon="23.580494"><ele>2364.4</ele><time>2026-03-08T09:53:42.000Z</time></trkpt>
<trkpt lat="42.098025" lon="23.580494"><ele>2364.4</ele><time>2026-03-08T09:53:43.000Z</time></trkpt>
<trkpt lat="42.098025" lon="23.580494"><ele>2364.4</ele><time>2026-03-08T09:53:44.000Z</time></trkpt>
<trkpt lat="42.098025" lon="23.580494"><ele>2364.4</ele><time>2026-03-08T09:53:45.000Z</time></trkpt>
<trkpt lat="42.098025" lon="23.580495"><ele>2364.4</ele><time>2026-03-08T09:53:46.000Z</time></trkpt>
<trkpt lat="42.098025" lon="23.580496"><ele>2364</ele><time>2026-03-08T09:53:47.000Z</time></trkpt>
<trkpt lat="42.098024" lon="23.580497"><ele>2364</ele><time>2026-03-08T09:53:48.000Z</time></trkpt>
<trkpt lat="42.098024" lon="23.580498"><ele>2364</ele><time>2026-03-08T09:53:49.000Z</time></trkpt>
<trkpt lat="42.098023" lon="23.580498"><ele>2364</ele><time>2026-03-08T09:53:50.000Z</time></trkpt>
<trkpt lat="42.098023" lon="23.580499"><ele>2364</ele><time>2026-03-08T09:53:51.000Z</time></trkpt>
<trkpt lat="42.098022" lon="23.580499"><ele>2363.8</ele><time>2026-03-08T09:53:52.000Z</time></trkpt>
<trkpt lat="42.098022" lon="23.580498"><ele>2363.8</ele><time>2026-03-08T09:53:53.000Z</time></trkpt>
<trkpt lat="42.098022" lon="23.580498"><ele>2363.8</ele><time>2026-03-08T09:53:54.000Z</time></trkpt>
<trkpt lat="42.098022" lon="23.580498"><ele>2363.8</ele><time>2026-03-08T09:53:55.000Z</time></trkpt>
<trkpt lat="42.098022" lon="23.580498"><ele>2363.8</ele><time>2026-03-08T09:53:56.000Z</time></trkpt>
<trkpt lat="42.098022" lon="23.580497"><ele>2363.8</ele><time>2026-03-08T09:53:57.000Z</time></trkpt>
<trkpt lat="42.098022" lon="23.580497"><ele>2363.8</ele><time>2026-03-08T09:53:58.000Z</time></trkpt>
<trkpt lat="42.098022" lon="23.580497"><ele>2363.8</ele><time>2026-03-08T09:53:59.000Z</time></trkpt>
<trkpt lat="42.098023" lon="23.580497"><ele>2363.8</ele><time>2026-03-08T09:54:00.000Z</time></trkpt>
<trkpt lat="42.098023" lon="23.580497"><ele>2363.8</ele><time>2026-03-08T09:54:01.000Z</time></trkpt>
<trkpt lat="42.098024" lon="23.580497"><ele>2364.1</ele><time>2026-03-08T09:54:02.000Z</time></trkpt>
<trkpt lat="42.098024" lon="23.580498"><ele>2364.1</ele><time>2026-03-08T09:54:03.000Z</time></trkpt>
<trkpt lat="42.098024" lon="23.580499"><ele>2364.1</ele><time>2026-03-08T09:54:04.000Z</time></trkpt>
<trkpt lat="42.098023" lon="23.5805"><ele>2364.1</ele><time>2026-03-08T09:54:05.000Z</time></trkpt>
<trkpt lat="42.098023" lon="23.580501"><ele>2364.1</ele><time>2026-03-08T09:54:06.000Z</time></trkpt>
<trkpt lat="42.098022" lon="23.580502"><ele>2364.3</ele><time>2026-03-08T09:54:07.000Z</time></trkpt>
<trkpt lat="42.098022" lon="23.580503"><ele>2364.3</ele><time>2026-03-08T09:54:08.000Z</time></trkpt>
<trkpt lat="42.098022" lon="23.580503"><ele>2364.3</ele><time>2026-03-08T09:54:09.000Z</time></trkpt>
<trkpt lat="42.098022" lon="23.580503"><ele>2364.3</ele><time>2026-03-08T09:54:10.000Z</time></trkpt>
<trkpt lat="42.098023" lon="23.580503"><ele>2364.3</ele><time>2026-03-08T09:54:11.000Z</time></trkpt>
<trkpt lat="42.098023" lon="23.580503"><ele>2364.4</ele><time>2026-03-08T09:54:12.000Z</time></trkpt>
<trkpt lat="42.098024" lon="23.580504"><ele>2364.4</ele><time>2026-03-08T09:54:13.000Z</time></trkpt>
<trkpt lat="42.098025" lon="23.580505"><ele>2364.4</ele><time>2026-03-08T09:54:14.000Z</time></trkpt>
<trkpt lat="42.098026" lon="23.580506"><ele>2364.4</ele><time>2026-03-08T09:54:15.000Z</time></trkpt>
<trkpt lat="42.098026" lon="23.580507"><ele>2364.4</ele><time>2026-03-08T09:54:16.000Z</time></trkpt>
<trkpt lat="42.098027" lon="23.580507"><ele>2364.2</ele><time>2026-03-08T09:54:17.000Z</time></trkpt>
<trkpt lat="42.098028" lon="23.580507"><ele>2364.2</ele><time>2026-03-08T09:54:18.000Z</time></trkpt>
<trkpt lat="42.098028" lon="23.580507"><ele>2364.2</ele><time>2026-03-08T09:54:19.000Z</time></trkpt>
<trkpt lat="42.098029" lon="23.580506"><ele>2364.2</ele><time>2026-03-08T09:54:20.000Z</time></trkpt>
<trkpt lat="42.09803" lon="23.580505"><ele>2364.2</ele><time>2026-03-08T09:54:21.000Z</time></trkpt>
<trkpt lat="42.09803" lon="23.580505"><ele>2364</ele><time>2026-03-08T09:54:22.000Z</time></trkpt>
<trkpt lat="42.098031" lon="23.580505"><ele>2364</ele><time>2026-03-08T09:54:23.000Z</time></trkpt>
<trkpt lat="42.098031" lon="23.580505"><ele>2364</ele><time>2026-03-08T09:54:24.000Z</time></trkpt>
<trkpt lat="42.098031" lon="23.580505"><ele>2364</ele><time>2026-03-08T09:54:25.000Z</time></trkpt>
<trkpt lat="42.098032" lon="23.580505"><ele>2364</ele><time>2026-03-08T09:54:26.000Z</time></trkpt>
<trkpt lat="42.098032" lon="23.580504"><ele>2364</ele><time>2026-03-08T09:54:27.000Z</time></trkpt>
<trkpt lat="42.098033" lon="23.580504"><ele>2364</ele><time>2026-03-08T09:54:28.000Z</time></trkpt>
<trkpt lat="42.098034" lon="23.580503"><ele>2364</ele><time>2026-03-08T09:54:29.000Z</time></trkpt>
<trkpt lat="42.098035" lon="23.580502"><ele>2364</ele><time>2026-03-08T09:54:30.000Z</time></trkpt>
<trkpt lat="42.098036" lon="23.580502"><ele>2364</ele><time>2026-03-08T09:54:31.000Z</time></trkpt>
<trkpt lat="42.098036" lon="23.580501"><ele>2364.3</ele><time>2026-03-08T09:54:32.000Z</time></trkpt>
<trkpt lat="42.098035" lon="23.5805"><ele>2364.3</ele><time>2026-03-08T09:54:33.000Z</time></trkpt>
<trkpt lat="42.098035" lon="23.5805"><ele>2364.3</ele><time>2026-03-08T09:54:34.000Z</time></trkpt>
<trkpt lat="42.098034" lon="23.580499"><ele>2364.3</ele><time>2026-03-08T09:54:35.000Z</time></trkpt>
<trkpt lat="42.098034" lon="23.580498"><ele>2364.3</ele><time>2026-03-08T09:54:36.000Z</time></trkpt>
<trkpt lat="42.098034" lon="23.580497"><ele>2364.7</ele><time>2026-03-08T09:54:37.000Z</time></trkpt>
<trkpt lat="42.098035" lon="23.580496"><ele>2364.7</ele><time>2026-03-08T09:54:38.000Z</time></trkpt>
<trkpt lat="42.098035" lon="23.580496"><ele>2364.7</ele><time>2026-03-08T09:54:39.000Z</time></trkpt>
<trkpt lat="42.098036" lon="23.580495"><ele>2364.7</ele><time>2026-03-08T09:54:40.000Z</time></trkpt>
<trkpt lat="42.098036" lon="23.580495"><ele>2364.7</ele><time>2026-03-08T09:54:41.000Z</time></trkpt>
<trkpt lat="42.098035" lon="23.580496"><ele>2364.8</ele><time>2026-03-08T09:54:42.000Z</time></trkpt>
<trkpt lat="42.098035" lon="23.580497"><ele>2364.8</ele><time>2026-03-08T09:54:43.000Z</time></trkpt>
<trkpt lat="42.098035" lon="23.580499"><ele>2364.8</ele><time>2026-03-08T09:54:44.000Z</time></trkpt>
<trkpt lat="42.098035" lon="23.5805"><ele>2364.8</ele><time>2026-03-08T09:54:45.000Z</time></trkpt>
<trkpt lat="42.098034" lon="23.580502"><ele>2364.8</ele><time>2026-03-08T09:54:46.000Z</time></trkpt>
<trkpt lat="42.098034" lon="23.580503"><ele>2364.7</ele><time>2026-03-08T09:54:47.000Z</time></trkpt>
<trkpt lat="42.098034" lon="23.580503"><ele>2364.7</ele><time>2026-03-08T09:54:48.000Z</time></trkpt>
<trkpt lat="42.098034" lon="23.580502"><ele>2364.7</ele><time>2026-03-08T09:54:49.000Z</time></trkpt>
<trkpt lat="42.098033" lon="23.580502"><ele>2364.7</ele><time>2026-03-08T09:54:50.000Z</time></trkpt>
<trkpt lat="42.098032" lon="23.580502"><ele>2364.7</ele><time>2026-03-08T09:54:51.000Z</time></trkpt>
<trkpt lat="42.098032" lon="23.580501"><ele>2364.7</ele><time>2026-03-08T09:54:52.000Z</time></trkpt>
<trkpt lat="42.098031" lon="23.580502"><ele>2364.7</ele><time>2026-03-08T09:54:53.000Z</time></trkpt>
<trkpt lat="42.098031" lon="23.580504"><ele>2364.7</ele><time>2026-03-08T09:54:54.000Z</time></trkpt>
<trkpt lat="42.098031" lon="23.580506"><ele>2364.7</ele><time>2026-03-08T09:54:55.000Z</time></trkpt>
<trkpt lat="42.098032" lon="23.580508"><ele>2364.7</ele><time>2026-03-08T09:54:56.000Z</time></trkpt>
<trkpt lat="42.098031" lon="23.58051"><ele>2364.7</ele><time>2026-03-08T09:54:57.000Z</time></trkpt>
<trkpt lat="42.098031" lon="23.58051"><ele>2364.7</ele><time>2026-03-08T09:54:58.000Z</time></trkpt>
<trkpt lat="42.09803" lon="23.58051"><ele>2364.7</ele><time>2026-03-08T09:54:59.000Z</time></trkpt>
<trkpt lat="42.098029" lon="23.580509"><ele>2364.7</ele><time>2026-03-08T09:55:00.000Z</time></trkpt>
<trkpt lat="42.098027" lon="23.580507"><ele>2364.7</ele><time>2026-03-08T09:55:01.000Z</time></trkpt>
<trkpt lat="42.098026" lon="23.580506"><ele>2364.7</ele><time>2026-03-08T09:55:02.000Z</time></trkpt>
<trkpt lat="42.098025" lon="23.580505"><ele>2364.7</ele><time>2026-03-08T09:55:03.000Z</time></trkpt>
<trkpt lat="42.098022" lon="23.580505"><ele>2364.7</ele><time>2026-03-08T09:55:04.000Z</time></trkpt>
<trkpt lat="42.09802" lon="23.580505"><ele>2364.7</ele><time>2026-03-08T09:55:05.000Z</time></trkpt>
<trkpt lat="42.098018" lon="23.580505"><ele>2364.7</ele><time>2026-03-08T09:55:06.000Z</time></trkpt>
<trkpt lat="42.098016" lon="23.580505"><ele>2364.7</ele><time>2026-03-08T09:55:07.000Z</time></trkpt>
<trkpt lat="42.098015" lon="23.580506"><ele>2364.7</ele><time>2026-03-08T09:55:08.000Z</time></trkpt>
<trkpt lat="42.098015" lon="23.580506"><ele>2364.7</ele><time>2026-03-08T09:55:09.000Z</time></trkpt>
<trkpt lat="42.098015" lon="23.580505"><ele>2364.7</ele><time>2026-03-08T09:55:10.000Z</time></trkpt>
<trkpt lat="42.098015" lon="23.580505"><ele>2364.7</ele><time>2026-03-08T09:55:11.000Z</time></trkpt>
<trkpt lat="42.098015" lon="23.580505"><ele>2364.7</ele><time>2026-03-08T09:55:12.000Z</time></trkpt>
<trkpt lat="42.098015" lon="23.580505"><ele>2364.7</ele><time>2026-03-08T09:55:13.000Z</time></trkpt>
<trkpt lat="42.098014" lon="23.580505"><ele>2364.7</ele><time>2026-03-08T09:55:14.000Z</time></trkpt>
<trkpt lat="42.098013" lon="23.580505"><ele>2364.7</ele><time>2026-03-08T09:55:15.000Z</time></trkpt>
<trkpt lat="42.098012" lon="23.580502"><ele>2364.7</ele><time>2026-03-08T09:55:16.000Z</time></trkpt>
<trkpt lat="42.09801" lon="23.580498"><ele>2364.5</ele><time>2026-03-08T09:55:17.000Z</time></trkpt>
<trkpt lat="42.098007" lon="23.580493"><ele>2364.5</ele><time>2026-03-08T09:55:18.000Z</time></trkpt>
<trkpt lat="42.098004" lon="23.580486"><ele>2364.5</ele><time>2026-03-08T09:55:19.000Z</time></trkpt>
<trkpt lat="42.098002" lon="23.58048"><ele>2364.5</ele><time>2026-03-08T09:55:20.000Z</time></trkpt>
<trkpt lat="42.098" lon="23.580475"><ele>2364.5</ele><time>2026-03-08T09:55:21.000Z</time></trkpt>
<trkpt lat="42.097998" lon="23.580472"><ele>2364.3</ele><time>2026-03-08T09:55:22.000Z</time></trkpt>
<trkpt lat="42.097997" lon="23.58047"><ele>2364.3</ele><time>2026-03-08T09:55:23.000Z</time></trkpt>
<trkpt lat="42.097995" lon="23.580469"><ele>2364.3</ele><time>2026-03-08T09:55:24.000Z</time></trkpt>
<trkpt lat="42.097991" lon="23.580468"><ele>2364.3</ele><time>2026-03-08T09:55:25.000Z</time></trkpt>
<trkpt lat="42.097985" lon="23.580466"><ele>2364.3</ele><time>2026-03-08T09:55:26.000Z</time></trkpt>
<trkpt lat="42.097977" lon="23.580463"><ele>2364.2</ele><time>2026-03-08T09:55:27.000Z</time></trkpt>
<trkpt lat="42.097968" lon="23.58046"><ele>2364.2</ele><time>2026-03-08T09:55:28.000Z</time></trkpt>
<trkpt lat="42.097959" lon="23.580456"><ele>2364.2</ele><time>2026-03-08T09:55:29.000Z</time></trkpt>
<trkpt lat="42.09795" lon="23.580452"><ele>2364.2</ele><time>2026-03-08T09:55:30.000Z</time></trkpt>
<trkpt lat="42.097941" lon="23.580448"><ele>2364.2</ele><time>2026-03-08T09:55:31.000Z</time></trkpt>
<trkpt lat="42.097933" lon="23.580445"><ele>2364.3</ele><time>2026-03-08T09:55:32.000Z</time></trkpt>
<trkpt lat="42.097925" lon="23.580442"><ele>2364.3</ele><time>2026-03-08T09:55:33.000Z</time></trkpt>
<trkpt lat="42.097917" lon="23.580439"><ele>2364.3</ele><time>2026-03-08T09:55:34.000Z</time></trkpt>
<trkpt lat="42.097909" lon="23.580437"><ele>2364.3</ele><time>2026-03-08T09:55:35.000Z</time></trkpt>
<trkpt lat="42.097902" lon="23.580436"><ele>2364.3</ele><time>2026-03-08T09:55:36.000Z</time></trkpt>
<trkpt lat="42.097894" lon="23.580434"><ele>2364.4</ele><time>2026-03-08T09:55:37.000Z</time></trkpt>
<trkpt lat="42.097886" lon="23.580433"><ele>2364.4</ele><time>2026-03-08T09:55:38.000Z</time></trkpt>
<trkpt lat="42.097878" lon="23.580431"><ele>2364.4</ele><time>2026-03-08T09:55:39.000Z</time></trkpt>
<trkpt lat="42.09787" lon="23.580429"><ele>2364.4</ele><time>2026-03-08T09:55:40.000Z</time></trkpt>
<trkpt lat="42.097862" lon="23.580426"><ele>2364.4</ele><time>2026-03-08T09:55:41.000Z</time></trkpt>
<trkpt lat="42.097855" lon="23.580421"><ele>2364.4</ele><time>2026-03-08T09:55:42.000Z</time></trkpt>
<trkpt lat="42.097849" lon="23.580417"><ele>2364.4</ele><time>2026-03-08T09:55:43.000Z</time></trkpt>
<trkpt lat="42.097842" lon="23.580412"><ele>2364.4</ele><time>2026-03-08T09:55:44.000Z</time></trkpt>
<trkpt lat="42.097834" lon="23.580407"><ele>2364.4</ele><time>2026-03-08T09:55:45.000Z</time></trkpt>
<trkpt lat="42.097826" lon="23.580402"><ele>2364.4</ele><time>2026-03-08T09:55:46.000Z</time></trkpt>
<trkpt lat="42.097818" lon="23.580396"><ele>2364.3</ele><time>2026-03-08T09:55:47.000Z</time></trkpt>
<trkpt lat="42.097811" lon="23.580388"><ele>2364.3</ele><time>2026-03-08T09:55:48.000Z</time></trkpt>
<trkpt lat="42.097806" lon="23.580378"><ele>2364.3</ele><time>2026-03-08T09:55:49.000Z</time></trkpt>
<trkpt lat="42.097804" lon="23.580366"><ele>2364.3</ele><time>2026-03-08T09:55:50.000Z</time></trkpt>
<trkpt lat="42.097802" lon="23.580354"><ele>2364.3</ele><time>2026-03-08T09:55:51.000Z</time></trkpt>
<trkpt lat="42.097802" lon="23.580341"><ele>2364.5</ele><time>2026-03-08T09:55:52.000Z</time></trkpt>
<trkpt lat="42.097801" lon="23.580328"><ele>2364.5</ele><time>2026-03-08T09:55:53.000Z</time></trkpt>
<trkpt lat="42.0978" lon="23.580315"><ele>2364.5</ele><time>2026-03-08T09:55:54.000Z</time></trkpt>
<trkpt lat="42.097799" lon="23.580301"><ele>2364.5</ele><time>2026-03-08T09:55:55.000Z</time></trkpt>
<trkpt lat="42.097798" lon="23.580288"><ele>2364.5</ele><time>2026-03-08T09:55:56.000Z</time></trkpt>
<trkpt lat="42.097796" lon="23.580275"><ele>2364.7</ele><time>2026-03-08T09:55:57.000Z</time></trkpt>
<trkpt lat="42.097794" lon="23.580262"><ele>2364.7</ele><time>2026-03-08T09:55:58.000Z</time></trkpt>
<trkpt lat="42.097793" lon="23.58025"><ele>2364.7</ele><time>2026-03-08T09:55:59.000Z</time></trkpt>
<trkpt lat="42.09779" lon="23.580238"><ele>2364.7</ele><time>2026-03-08T09:56:00.000Z</time></trkpt>
<trkpt lat="42.097787" lon="23.580226"><ele>2364.7</ele><time>2026-03-08T09:56:01.000Z</time></trkpt>
<trkpt lat="42.097785" lon="23.580215"><ele>2365.2</ele><time>2026-03-08T09:56:02.000Z</time></trkpt>
<trkpt lat="42.097781" lon="23.580203"><ele>2365.2</ele><time>2026-03-08T09:56:03.000Z</time></trkpt>
<trkpt lat="42.097778" lon="23.580191"><ele>2365.2</ele><time>2026-03-08T09:56:04.000Z</time></trkpt>
<trkpt lat="42.097775" lon="23.580178"><ele>2365.2</ele><time>2026-03-08T09:56:05.000Z</time></trkpt>
<trkpt lat="42.097771" lon="23.580165"><ele>2365.2</ele><time>2026-03-08T09:56:06.000Z</time></trkpt>
<trkpt lat="42.097765" lon="23.580152"><ele>2365.6</ele><time>2026-03-08T09:56:07.000Z</time></trkpt>
<trkpt lat="42.09776" lon="23.580141"><ele>2365.6</ele><time>2026-03-08T09:56:08.000Z</time></trkpt>
<trkpt lat="42.097754" lon="23.58013"><ele>2365.6</ele><time>2026-03-08T09:56:09.000Z</time></trkpt>
<trkpt lat="42.097748" lon="23.58012"><ele>2365.6</ele><time>2026-03-08T09:56:10.000Z</time></trkpt>
<trkpt lat="42.097743" lon="23.580111"><ele>2365.6</ele><time>2026-03-08T09:56:11.000Z</time></trkpt>
<trkpt lat="42.097739" lon="23.580102"><ele>2365.6</ele><time>2026-03-08T09:56:12.000Z</time></trkpt>
<trkpt lat="42.097736" lon="23.580092"><ele>2365.6</ele><time>2026-03-08T09:56:13.000Z</time></trkpt>
<trkpt lat="42.097733" lon="23.580084"><ele>2365.6</ele><time>2026-03-08T09:56:14.000Z</time></trkpt>
<trkpt lat="42.097729" lon="23.580076"><ele>2365.6</ele><time>2026-03-08T09:56:15.000Z</time></trkpt>
<trkpt lat="42.097726" lon="23.580069"><ele>2365.6</ele><time>2026-03-08T09:56:16.000Z</time></trkpt>
<trkpt lat="42.097722" lon="23.580063"><ele>2365.6</ele><time>2026-03-08T09:56:17.000Z</time></trkpt>
<trkpt lat="42.097718" lon="23.580058"><ele>2365.6</ele><time>2026-03-08T09:56:18.000Z</time></trkpt>
<trkpt lat="42.097714" lon="23.580053"><ele>2365.6</ele><time>2026-03-08T09:56:19.000Z</time></trkpt>
<trkpt lat="42.097709" lon="23.580048"><ele>2365.6</ele><time>2026-03-08T09:56:20.000Z</time></trkpt>
<trkpt lat="42.097706" lon="23.580043"><ele>2365.6</ele><time>2026-03-08T09:56:21.000Z</time></trkpt>
<trkpt lat="42.097703" lon="23.580038"><ele>2365.7</ele><time>2026-03-08T09:56:22.000Z</time></trkpt>
<trkpt lat="42.0977" lon="23.580033"><ele>2365.7</ele><time>2026-03-08T09:56:23.000Z</time></trkpt>
<trkpt lat="42.097697" lon="23.580028"><ele>2365.7</ele><time>2026-03-08T09:56:24.000Z</time></trkpt>
<trkpt lat="42.097694" lon="23.580024"><ele>2365.7</ele><time>2026-03-08T09:56:25.000Z</time></trkpt>
<trkpt lat="42.097689" lon="23.580019"><ele>2365.7</ele><time>2026-03-08T09:56:26.000Z</time></trkpt>
<trkpt lat="42.097684" lon="23.580013"><ele>2365.8</ele><time>2026-03-08T09:56:27.000Z</time></trkpt>
<trkpt lat="42.097679" lon="23.580006"><ele>2365.8</ele><time>2026-03-08T09:56:28.000Z</time></trkpt>
<trkpt lat="42.097674" lon="23.579998"><ele>2365.8</ele><time>2026-03-08T09:56:29.000Z</time></trkpt>
<trkpt lat="42.097669" lon="23.57999"><ele>2365.8</ele><time>2026-03-08T09:56:30.000Z</time></trkpt>
<trkpt lat="42.097666" lon="23.579981"><ele>2365.8</ele><time>2026-03-08T09:56:31.000Z</time></trkpt>
<trkpt lat="42.097662" lon="23.579971"><ele>2366.1</ele><time>2026-03-08T09:56:32.000Z</time></trkpt>
<trkpt lat="42.097658" lon="23.579961"><ele>2366.1</ele><time>2026-03-08T09:56:33.000Z</time></trkpt>
<trkpt lat="42.097655" lon="23.57995"><ele>2366.1</ele><time>2026-03-08T09:56:34.000Z</time></trkpt>
<trkpt lat="42.097652" lon="23.579939"><ele>2366.1</ele><time>2026-03-08T09:56:35.000Z</time></trkpt>
<trkpt lat="42.097649" lon="23.579928"><ele>2366.1</ele><time>2026-03-08T09:56:36.000Z</time></trkpt>
<trkpt lat="42.097646" lon="23.579916"><ele>2366.6</ele><time>2026-03-08T09:56:37.000Z</time></trkpt>
<trkpt lat="42.097644" lon="23.579905"><ele>2366.6</ele><time>2026-03-08T09:56:38.000Z</time></trkpt>
<trkpt lat="42.097643" lon="23.579894"><ele>2366.6</ele><time>2026-03-08T09:56:39.000Z</time></trkpt>
<trkpt lat="42.09764" lon="23.579882"><ele>2366.6</ele><time>2026-03-08T09:56:40.000Z</time></trkpt>
<trkpt lat="42.097639" lon="23.579871"><ele>2366.6</ele><time>2026-03-08T09:56:41.000Z</time></trkpt>
<trkpt lat="42.097637" lon="23.57986"><ele>2366.8</ele><time>2026-03-08T09:56:42.000Z</time></trkpt>
<trkpt lat="42.097637" lon="23.579847"><ele>2366.8</ele><time>2026-03-08T09:56:43.000Z</time></trkpt>
<trkpt lat="42.097636" lon="23.579835"><ele>2366.8</ele><time>2026-03-08T09:56:44.000Z</time></trkpt>
<trkpt lat="42.097636" lon="23.579823"><ele>2366.8</ele><time>2026-03-08T09:56:45.000Z</time></trkpt>
<trkpt lat="42.097636" lon="23.579809"><ele>2366.8</ele><time>2026-03-08T09:56:46.000Z</time></trkpt>
<trkpt lat="42.097635" lon="23.579796"><ele>2367.3</ele><time>2026-03-08T09:56:47.000Z</time></trkpt>
<trkpt lat="42.097633" lon="23.579783"><ele>2367.3</ele><time>2026-03-08T09:56:48.000Z</time></trkpt>
<trkpt lat="42.097632" lon="23.57977"><ele>2367.3</ele><time>2026-03-08T09:56:49.000Z</time></trkpt>
<trkpt lat="42.09763" lon="23.579758"><ele>2367.3</ele><time>2026-03-08T09:56:50.000Z</time></trkpt>
<trkpt lat="42.097629" lon="23.579747"><ele>2367.3</ele><time>2026-03-08T09:56:51.000Z</time></trkpt>
<trkpt lat="42.097629" lon="23.579737"><ele>2367.6</ele><time>2026-03-08T09:56:52.000Z</time></trkpt>
<trkpt lat="42.097629" lon="23.579728"><ele>2367.6</ele><time>2026-03-08T09:56:53.000Z</time></trkpt>
<trkpt lat="42.09763" lon="23.57972"><ele>2367.6</ele><time>2026-03-08T09:56:54.000Z</time></trkpt>
<trkpt lat="42.097632" lon="23.579715"><ele>2367.6</ele><time>2026-03-08T09:56:55.000Z</time></trkpt>
<trkpt lat="42.097633" lon="23.579711"><ele>2367.6</ele><time>2026-03-08T09:56:56.000Z</time></trkpt>
<trkpt lat="42.097635" lon="23.579708"><ele>2367.6</ele><time>2026-03-08T09:56:57.000Z</time></trkpt>
<trkpt lat="42.097636" lon="23.579705"><ele>2367.6</ele><time>2026-03-08T09:56:58.000Z</time></trkpt>
<trkpt lat="42.097636" lon="23.579702"><ele>2367.6</ele><time>2026-03-08T09:56:59.000Z</time></trkpt>
<trkpt lat="42.097635" lon="23.579696"><ele>2367.6</ele><time>2026-03-08T09:57:00.000Z</time></trkpt>
<trkpt lat="42.097634" lon="23.579689"><ele>2367.6</ele><time>2026-03-08T09:57:01.000Z</time></trkpt>
<trkpt lat="42.097633" lon="23.579683"><ele>2367.7</ele><time>2026-03-08T09:57:02.000Z</time></trkpt>
<trkpt lat="42.09763" lon="23.579676"><ele>2367.7</ele><time>2026-03-08T09:57:03.000Z</time></trkpt>
<trkpt lat="42.097628" lon="23.579668"><ele>2367.7</ele><time>2026-03-08T09:57:04.000Z</time></trkpt>
<trkpt lat="42.097626" lon="23.57966"><ele>2367.7</ele><time>2026-03-08T09:57:05.000Z</time></trkpt>
<trkpt lat="42.097625" lon="23.579651"><ele>2367.7</ele><time>2026-03-08T09:57:06.000Z</time></trkpt>
<trkpt lat="42.097623" lon="23.57964"><ele>2368</ele><time>2026-03-08T09:57:07.000Z</time></trkpt>
<trkpt lat="42.097621" lon="23.579631"><ele>2368</ele><time>2026-03-08T09:57:08.000Z</time></trkpt>
<trkpt lat="42.09762" lon="23.57962"><ele>2368</ele><time>2026-03-08T09:57:09.000Z</time></trkpt>
<trkpt lat="42.097618" lon="23.579608"><ele>2368</ele><time>2026-03-08T09:57:10.000Z</time></trkpt>
<trkpt lat="42.097617" lon="23.579597"><ele>2368</ele><time>2026-03-08T09:57:11.000Z</time></trkpt>
<trkpt lat="42.097615" lon="23.579585"><ele>2368.3</ele><time>2026-03-08T09:57:12.000Z</time></trkpt>
<trkpt lat="42.097614" lon="23.579571"><ele>2368.3</ele><time>2026-03-08T09:57:13.000Z</time></trkpt>
<trkpt lat="42.097613" lon="23.579557"><ele>2368.3</ele><time>2026-03-08T09:57:14.000Z</time></trkpt>
<trkpt lat="42.097611" lon="23.579543"><ele>2368.3</ele><time>2026-03-08T09:57:15.000Z</time></trkpt>
<trkpt lat="42.097608" lon="23.57953"><ele>2368.3</ele><time>2026-03-08T09:57:16.000Z</time></trkpt>
<trkpt lat="42.097605" lon="23.579518"><ele>2368.9</ele><time>2026-03-08T09:57:17.000Z</time></trkpt>
<trkpt lat="42.097602" lon="23.579506"><ele>2368.9</ele><time>2026-03-08T09:57:18.000Z</time></trkpt>
<trkpt lat="42.097599" lon="23.579496"><ele>2368.9</ele><time>2026-03-08T09:57:19.000Z</time></trkpt>
<trkpt lat="42.097597" lon="23.579486"><ele>2368.9</ele><time>2026-03-08T09:57:20.000Z</time></trkpt>
<trkpt lat="42.097594" lon="23.579476"><ele>2368.9</ele><time>2026-03-08T09:57:21.000Z</time></trkpt>
<trkpt lat="42.097592" lon="23.579465"><ele>2369.3</ele><time>2026-03-08T09:57:22.000Z</time></trkpt>
<trkpt lat="42.097591" lon="23.579455"><ele>2369.3</ele><time>2026-03-08T09:57:23.000Z</time></trkpt>
<trkpt lat="42.097589" lon="23.579445"><ele>2369.3</ele><time>2026-03-08T09:57:24.000Z</time></trkpt>
<trkpt lat="42.097587" lon="23.579436"><ele>2369.3</ele><time>2026-03-08T09:57:25.000Z</time></trkpt>
<trkpt lat="42.097585" lon="23.579427"><ele>2369.3</ele><time>2026-03-08T09:57:26.000Z</time></trkpt>
<trkpt lat="42.097582" lon="23.579418"><ele>2369.5</ele><time>2026-03-08T09:57:27.000Z</time></trkpt>
<trkpt lat="42.09758" lon="23.579411"><ele>2369.5</ele><time>2026-03-08T09:57:28.000Z</time></trkpt>
<trkpt lat="42.09758" lon="23.579401"><ele>2369.5</ele><time>2026-03-08T09:57:29.000Z</time></trkpt>
<trkpt lat="42.097579" lon="23.579392"><ele>2369.5</ele><time>2026-03-08T09:57:30.000Z</time></trkpt>
<trkpt lat="42.097578" lon="23.579383"><ele>2369.5</ele><time>2026-03-08T09:57:31.000Z</time></trkpt>
<trkpt lat="42.097578" lon="23.579372"><ele>2369.7</ele><time>2026-03-08T09:57:32.000Z</time></trkpt>
<trkpt lat="42.097577" lon="23.579361"><ele>2369.7</ele><time>2026-03-08T09:57:33.000Z</time></trkpt>
<trkpt lat="42.097576" lon="23.579349"><ele>2369.7</ele><time>2026-03-08T09:57:34.000Z</time></trkpt>
<trkpt lat="42.097576" lon="23.579338"><ele>2369.7</ele><time>2026-03-08T09:57:35.000Z</time></trkpt>
<trkpt lat="42.097574" lon="23.579327"><ele>2369.7</ele><time>2026-03-08T09:57:36.000Z</time></trkpt>
<trkpt lat="42.097572" lon="23.579315"><ele>2369.8</ele><time>2026-03-08T09:57:37.000Z</time></trkpt>
<trkpt lat="42.09757" lon="23.579303"><ele>2369.8</ele><time>2026-03-08T09:57:38.000Z</time></trkpt>
<trkpt lat="42.097568" lon="23.579294"><ele>2369.8</ele><time>2026-03-08T09:57:39.000Z</time></trkpt>
<trkpt lat="42.097566" lon="23.579287"><ele>2369.8</ele><time>2026-03-08T09:57:40.000Z</time></trkpt>
<trkpt lat="42.097565" lon="23.579283"><ele>2369.8</ele><time>2026-03-08T09:57:41.000Z</time></trkpt>
<trkpt lat="42.097564" lon="23.579282"><ele>2369.9</ele><time>2026-03-08T09:57:42.000Z</time></trkpt>
<trkpt lat="42.097563" lon="23.579283"><ele>2369.9</ele><time>2026-03-08T09:57:43.000Z</time></trkpt>
<trkpt lat="42.097562" lon="23.579285"><ele>2369.9</ele><time>2026-03-08T09:57:44.000Z</time></trkpt>
<trkpt lat="42.097561" lon="23.579287"><ele>2369.9</ele><time>2026-03-08T09:57:45.000Z</time></trkpt>
<trkpt lat="42.09756" lon="23.579288"><ele>2369.9</ele><time>2026-03-08T09:57:46.000Z</time></trkpt>
<trkpt lat="42.097559" lon="23.579288"><ele>2370.1</ele><time>2026-03-08T09:57:47.000Z</time></trkpt>
<trkpt lat="42.097559" lon="23.57929"><ele>2370.1</ele><time>2026-03-08T09:57:48.000Z</time></trkpt>
<trkpt lat="42.097558" lon="23.57929"><ele>2370.1</ele><time>2026-03-08T09:57:49.000Z</time></trkpt>
<trkpt lat="42.097558" lon="23.579291"><ele>2370.1</ele><time>2026-03-08T09:57:50.000Z</time></trkpt>
<trkpt lat="42.097557" lon="23.579291"><ele>2370.1</ele><time>2026-03-08T09:57:51.000Z</time></trkpt>
<trkpt lat="42.097557" lon="23.579291"><ele>2370.3</ele><time>2026-03-08T09:57:52.000Z</time></trkpt>
<trkpt lat="42.097557" lon="23.579292"><ele>2370.3</ele><time>2026-03-08T09:57:53.000Z</time></trkpt>
<trkpt lat="42.097557" lon="23.579293"><ele>2370.3</ele><time>2026-03-08T09:57:54.000Z</time></trkpt>
<trkpt lat="42.097558" lon="23.579294"><ele>2370.3</ele><time>2026-03-08T09:57:55.000Z</time></trkpt>
<trkpt lat="42.097558" lon="23.579296"><ele>2370.3</ele><time>2026-03-08T09:57:56.000Z</time></trkpt>
<trkpt lat="42.097558" lon="23.579297"><ele>2370.4</ele><time>2026-03-08T09:57:57.000Z</time></trkpt>
<trkpt lat="42.097557" lon="23.579299"><ele>2370.4</ele><time>2026-03-08T09:57:58.000Z</time></trkpt>
<trkpt lat="42.097556" lon="23.579297"><ele>2370.4</ele><time>2026-03-08T09:57:59.000Z</time></trkpt>
<trkpt lat="42.097555" lon="23.579293"><ele>2370.4</ele><time>2026-03-08T09:58:00.000Z</time></trkpt>
<trkpt lat="42.097555" lon="23.579286"><ele>2370.4</ele><time>2026-03-08T09:58:01.000Z</time></trkpt>
<trkpt lat="42.097554" lon="23.579278"><ele>2370.7</ele><time>2026-03-08T09:58:02.000Z</time></trkpt>
<trkpt lat="42.097554" lon="23.579269"><ele>2370.7</ele><time>2026-03-08T09:58:03.000Z</time></trkpt>
<trkpt lat="42.097554" lon="23.579261"><ele>2370.7</ele><time>2026-03-08T09:58:04.000Z</time></trkpt>
<trkpt lat="42.097553" lon="23.579256"><ele>2370.7</ele><time>2026-03-08T09:58:05.000Z</time></trkpt>
<trkpt lat="42.097553" lon="23.579254"><ele>2370.7</ele><time>2026-03-08T09:58:06.000Z</time></trkpt>
<trkpt lat="42.097552" lon="23.579253"><ele>2370.9</ele><time>2026-03-08T09:58:07.000Z</time></trkpt>
<trkpt lat="42.097552" lon="23.579253"><ele>2370.9</ele><time>2026-03-08T09:58:08.000Z</time></trkpt>
<trkpt lat="42.097551" lon="23.579253"><ele>2370.9</ele><time>2026-03-08T09:58:09.000Z</time></trkpt>
<trkpt lat="42.097551" lon="23.579253"><ele>2370.9</ele><time>2026-03-08T09:58:10.000Z</time></trkpt>
<trkpt lat="42.09755" lon="23.579253"><ele>2370.9</ele><time>2026-03-08T09:58:11.000Z</time></trkpt>
<trkpt lat="42.09755" lon="23.579252"><ele>2371</ele><time>2026-03-08T09:58:12.000Z</time></trkpt>
<trkpt lat="42.09755" lon="23.57925"><ele>2371</ele><time>2026-03-08T09:58:13.000Z</time></trkpt>
<trkpt lat="42.09755" lon="23.579248"><ele>2371</ele><time>2026-03-08T09:58:14.000Z</time></trkpt>
<trkpt lat="42.09755" lon="23.579246"><ele>2371</ele><time>2026-03-08T09:58:15.000Z</time></trkpt>
<trkpt lat="42.097551" lon="23.579242"><ele>2371</ele><time>2026-03-08T09:58:16.000Z</time></trkpt>
<trkpt lat="42.097551" lon="23.579239"><ele>2371.3</ele><time>2026-03-08T09:58:17.000Z</time></trkpt>
<trkpt lat="42.09755" lon="23.579238"><ele>2371.3</ele><time>2026-03-08T09:58:18.000Z</time></trkpt>
<trkpt lat="42.097549" lon="23.579238"><ele>2371.3</ele><time>2026-03-08T09:58:19.000Z</time></trkpt>
<trkpt lat="42.097548" lon="23.579238"><ele>2371.3</ele><time>2026-03-08T09:58:20.000Z</time></trkpt>
<trkpt lat="42.097547" lon="23.579239"><ele>2371.3</ele><time>2026-03-08T09:58:21.000Z</time></trkpt>
<trkpt lat="42.097546" lon="23.579241"><ele>2371.6</ele><time>2026-03-08T09:58:22.000Z</time></trkpt>
<trkpt lat="42.097546" lon="23.579241"><ele>2371.6</ele><time>2026-03-08T09:58:23.000Z</time></trkpt>
<trkpt lat="42.097546" lon="23.579242"><ele>2371.6</ele><time>2026-03-08T09:58:24.000Z</time></trkpt>
<trkpt lat="42.097546" lon="23.579242"><ele>2371.6</ele><time>2026-03-08T09:58:25.000Z</time></trkpt>
<trkpt lat="42.097545" lon="23.579241"><ele>2371.6</ele><time>2026-03-08T09:58:26.000Z</time></trkpt>
<trkpt lat="42.097544" lon="23.579241"><ele>2371.7</ele><time>2026-03-08T09:58:27.000Z</time></trkpt>
<trkpt lat="42.097544" lon="23.57924"><ele>2371.7</ele><time>2026-03-08T09:58:28.000Z</time></trkpt>
<trkpt lat="42.097543" lon="23.579239"><ele>2371.7</ele><time>2026-03-08T09:58:29.000Z</time></trkpt>
<trkpt lat="42.097541" lon="23.579235"><ele>2371.7</ele><time>2026-03-08T09:58:30.000Z</time></trkpt>
<trkpt lat="42.097539" lon="23.57923"><ele>2371.7</ele><time>2026-03-08T09:58:31.000Z</time></trkpt>
<trkpt lat="42.097537" lon="23.579224"><ele>2371.6</ele><time>2026-03-08T09:58:32.000Z</time></trkpt>
<trkpt lat="42.097536" lon="23.579216"><ele>2371.6</ele><time>2026-03-08T09:58:33.000Z</time></trkpt>
<trkpt lat="42.097534" lon="23.579206"><ele>2371.6</ele><time>2026-03-08T09:58:34.000Z</time></trkpt>
<trkpt lat="42.097532" lon="23.579197"><ele>2371.6</ele><time>2026-03-08T09:58:35.000Z</time></trkpt>
<trkpt lat="42.09753" lon="23.579188"><ele>2371.6</ele><time>2026-03-08T09:58:36.000Z</time></trkpt>
<trkpt lat="42.097529" lon="23.579177"><ele>2371.5</ele><time>2026-03-08T09:58:37.000Z</time></trkpt>
<trkpt lat="42.097529" lon="23.579167"><ele>2371.5</ele><time>2026-03-08T09:58:38.000Z</time></trkpt>
<trkpt lat="42.097528" lon="23.579156"><ele>2371.5</ele><time>2026-03-08T09:58:39.000Z</time></trkpt>
<trkpt lat="42.097527" lon="23.579146"><ele>2371.5</ele><time>2026-03-08T09:58:40.000Z</time></trkpt>
<trkpt lat="42.097526" lon="23.579136"><ele>2371.5</ele><time>2026-03-08T09:58:41.000Z</time></trkpt>
<trkpt lat="42.097525" lon="23.579125"><ele>2371.4</ele><time>2026-03-08T09:58:42.000Z</time></trkpt>
<trkpt lat="42.097523" lon="23.579114"><ele>2371.4</ele><time>2026-03-08T09:58:43.000Z</time></trkpt>
<trkpt lat="42.097522" lon="23.579105"><ele>2371.4</ele><time>2026-03-08T09:58:44.000Z</time></trkpt>
<trkpt lat="42.097521" lon="23.579096"><ele>2371.4</ele><time>2026-03-08T09:58:45.000Z</time></trkpt>
<trkpt lat="42.09752" lon="23.579086"><ele>2371.4</ele><time>2026-03-08T09:58:46.000Z</time></trkpt>
<trkpt lat="42.09752" lon="23.579078"><ele>2371.3</ele><time>2026-03-08T09:58:47.000Z</time></trkpt>
<trkpt lat="42.097518" lon="23.579072"><ele>2371.3</ele><time>2026-03-08T09:58:48.000Z</time></trkpt>
<trkpt lat="42.097517" lon="23.579063"><ele>2371.3</ele><time>2026-03-08T09:58:49.000Z</time></trkpt>
<trkpt lat="42.097514" lon="23.579054"><ele>2371.3</ele><time>2026-03-08T09:58:50.000Z</time></trkpt>
<trkpt lat="42.097512" lon="23.579047"><ele>2371.3</ele><time>2026-03-08T09:58:51.000Z</time></trkpt>
<trkpt lat="42.09751" lon="23.579039"><ele>2371.7</ele><time>2026-03-08T09:58:52.000Z</time></trkpt>
<trkpt lat="42.097508" lon="23.579031"><ele>2371.7</ele><time>2026-03-08T09:58:53.000Z</time></trkpt>
<trkpt lat="42.097506" lon="23.579023"><ele>2371.7</ele><time>2026-03-08T09:58:54.000Z</time></trkpt>
<trkpt lat="42.097504" lon="23.579014"><ele>2371.7</ele><time>2026-03-08T09:58:55.000Z</time></trkpt>
<trkpt lat="42.097501" lon="23.579003"><ele>2371.7</ele><time>2026-03-08T09:58:56.000Z</time></trkpt>
<trkpt lat="42.097496" lon="23.578992"><ele>2372</ele><time>2026-03-08T09:58:57.000Z</time></trkpt>
<trkpt lat="42.097492" lon="23.578982"><ele>2372</ele><time>2026-03-08T09:58:58.000Z</time></trkpt>
<trkpt lat="42.097489" lon="23.578972"><ele>2372</ele><time>2026-03-08T09:58:59.000Z</time></trkpt>
<trkpt lat="42.097487" lon="23.578963"><ele>2372</ele><time>2026-03-08T09:59:00.000Z</time></trkpt>
<trkpt lat="42.097486" lon="23.578957"><ele>2372</ele><time>2026-03-08T09:59:01.000Z</time></trkpt>
<trkpt lat="42.097487" lon="23.578955"><ele>2372.6</ele><time>2026-03-08T09:59:02.000Z</time></trkpt>
<trkpt lat="42.097488" lon="23.578954"><ele>2372.6</ele><time>2026-03-08T09:59:03.000Z</time></trkpt>
<trkpt lat="42.097488" lon="23.578955"><ele>2372.6</ele><time>2026-03-08T09:59:04.000Z</time></trkpt>
<trkpt lat="42.097488" lon="23.578956"><ele>2372.6</ele><time>2026-03-08T09:59:05.000Z</time></trkpt>
<trkpt lat="42.097488" lon="23.578958"><ele>2372.6</ele><time>2026-03-08T09:59:06.000Z</time></trkpt>
<trkpt lat="42.097488" lon="23.57896"><ele>2373.1</ele><time>2026-03-08T09:59:07.000Z</time></trkpt>
<trkpt lat="42.097488" lon="23.578961"><ele>2373.1</ele><time>2026-03-08T09:59:08.000Z</time></trkpt>
<trkpt lat="42.097488" lon="23.578962"><ele>2373.1</ele><time>2026-03-08T09:59:09.000Z</time></trkpt>
<trkpt lat="42.097488" lon="23.578964"><ele>2373.1</ele><time>2026-03-08T09:59:10.000Z</time></trkpt>
<trkpt lat="42.097488" lon="23.578964"><ele>2373.1</ele><time>2026-03-08T09:59:11.000Z</time></trkpt>
<trkpt lat="42.097488" lon="23.578964"><ele>2373.2</ele><time>2026-03-08T09:59:12.000Z</time></trkpt>
<trkpt lat="42.097488" lon="23.578964"><ele>2373.2</ele><time>2026-03-08T09:59:13.000Z</time></trkpt>
<trkpt lat="42.097487" lon="23.578963"><ele>2373.2</ele><time>2026-03-08T09:59:14.000Z</time></trkpt>
<trkpt lat="42.097487" lon="23.578962"><ele>2373.2</ele><time>2026-03-08T09:59:15.000Z</time></trkpt>
<trkpt lat="42.097487" lon="23.57896"><ele>2373.2</ele><time>2026-03-08T09:59:16.000Z</time></trkpt>
<trkpt lat="42.097487" lon="23.578957"><ele>2373.4</ele><time>2026-03-08T09:59:17.000Z</time></trkpt>
<trkpt lat="42.097487" lon="23.578953"><ele>2373.4</ele><time>2026-03-08T09:59:18.000Z</time></trkpt>
<trkpt lat="42.097486" lon="23.578947"><ele>2373.4</ele><time>2026-03-08T09:59:19.000Z</time></trkpt>
<trkpt lat="42.097485" lon="23.578941"><ele>2373.4</ele><time>2026-03-08T09:59:20.000Z</time></trkpt>
<trkpt lat="42.097484" lon="23.578934"><ele>2373.4</ele><time>2026-03-08T09:59:21.000Z</time></trkpt>
<trkpt lat="42.097482" lon="23.578926"><ele>2373.5</ele><time>2026-03-08T09:59:22.000Z</time></trkpt>
<trkpt lat="42.09748" lon="23.578919"><ele>2373.5</ele><time>2026-03-08T09:59:23.000Z</time></trkpt>
<trkpt lat="42.097477" lon="23.578913"><ele>2373.5</ele><time>2026-03-08T09:59:24.000Z</time></trkpt>
<trkpt lat="42.097474" lon="23.578909"><ele>2373.5</ele><time>2026-03-08T09:59:25.000Z</time></trkpt>
<trkpt lat="42.097471" lon="23.578904"><ele>2373.5</ele><time>2026-03-08T09:59:26.000Z</time></trkpt>
<trkpt lat="42.097468" lon="23.578901"><ele>2373.6</ele><time>2026-03-08T09:59:27.000Z</time></trkpt>
<trkpt lat="42.097466" lon="23.578897"><ele>2373.6</ele><time>2026-03-08T09:59:28.000Z</time></trkpt>
<trkpt lat="42.097464" lon="23.578892"><ele>2373.6</ele><time>2026-03-08T09:59:29.000Z</time></trkpt>
<trkpt lat="42.097462" lon="23.578886"><ele>2373.6</ele><time>2026-03-08T09:59:30.000Z</time></trkpt>
<trkpt lat="42.097461" lon="23.57888"><ele>2373.6</ele><time>2026-03-08T09:59:31.000Z</time></trkpt>
<trkpt lat="42.097458" lon="23.578874"><ele>2374.1</ele><time>2026-03-08T09:59:32.000Z</time></trkpt>
<trkpt lat="42.097455" lon="23.578868"><ele>2374.1</ele><time>2026-03-08T09:59:33.000Z</time></trkpt>
<trkpt lat="42.097452" lon="23.578862"><ele>2374.1</ele><time>2026-03-08T09:59:34.000Z</time></trkpt>
<trkpt lat="42.097449" lon="23.578857"><ele>2374.1</ele><time>2026-03-08T09:59:35.000Z</time></trkpt>
<trkpt lat="42.097446" lon="23.578852"><ele>2374.1</ele><time>2026-03-08T09:59:36.000Z</time></trkpt>
<trkpt lat="42.097444" lon="23.578847"><ele>2374.7</ele><time>2026-03-08T09:59:37.000Z</time></trkpt>
<trkpt lat="42.097443" lon="23.578841"><ele>2374.7</ele><time>2026-03-08T09:59:38.000Z</time></trkpt>
<trkpt lat="42.097441" lon="23.578835"><ele>2374.7</ele><time>2026-03-08T09:59:39.000Z</time></trkpt>
<trkpt lat="42.097441" lon="23.578829"><ele>2374.7</ele><time>2026-03-08T09:59:40.000Z</time></trkpt>
<trkpt lat="42.097441" lon="23.578824"><ele>2374.7</ele><time>2026-03-08T09:59:41.000Z</time></trkpt>
<trkpt lat="42.09744" lon="23.578819"><ele>2375.1</ele><time>2026-03-08T09:59:42.000Z</time></trkpt>
<trkpt lat="42.097439" lon="23.578815"><ele>2375.1</ele><time>2026-03-08T09:59:43.000Z</time></trkpt>
<trkpt lat="42.097439" lon="23.578811"><ele>2375.1</ele><time>2026-03-08T09:59:44.000Z</time></trkpt>
<trkpt lat="42.097439" lon="23.578807"><ele>2375.1</ele><time>2026-03-08T09:59:45.000Z</time></trkpt>
<trkpt lat="42.097438" lon="23.578802"><ele>2375.1</ele><time>2026-03-08T09:59:46.000Z</time></trkpt>
<trkpt lat="42.097439" lon="23.578797"><ele>2375.9</ele><time>2026-03-08T09:59:47.000Z</time></trkpt>
<trkpt lat="42.097439" lon="23.578791"><ele>2375.9</ele><time>2026-03-08T09:59:48.000Z</time></trkpt>
<trkpt lat="42.097439" lon="23.578786"><ele>2375.9</ele><time>2026-03-08T09:59:49.000Z</time></trkpt>
<trkpt lat="42.097439" lon="23.57878"><ele>2375.9</ele><time>2026-03-08T09:59:50.000Z</time></trkpt>
<trkpt lat="42.09744" lon="23.578774"><ele>2375.9</ele><time>2026-03-08T09:59:51.000Z</time></trkpt>
<trkpt lat="42.097439" lon="23.578768"><ele>2376.7</ele><time>2026-03-08T09:59:52.000Z</time></trkpt>
<trkpt lat="42.097439" lon="23.57876"><ele>2376.7</ele><time>2026-03-08T09:59:53.000Z</time></trkpt>
<trkpt lat="42.097439" lon="23.578752"><ele>2376.7</ele><time>2026-03-08T09:59:54.000Z</time></trkpt>
<trkpt lat="42.097439" lon="23.578744"><ele>2376.7</ele><time>2026-03-08T09:59:55.000Z</time></trkpt>
<trkpt lat="42.09744" lon="23.578736"><ele>2376.7</ele><time>2026-03-08T09:59:56.000Z</time></trkpt>
<trkpt lat="42.097441" lon="23.578729"><ele>2377.1</ele><time>2026-03-08T09:59:57.000Z</time></trkpt>
<trkpt lat="42.097441" lon="23.578723"><ele>2377.1</ele><time>2026-03-08T09:59:58.000Z</time></trkpt>
<trkpt lat="42.097441" lon="23.578717"><ele>2377.1</ele><time>2026-03-08T09:59:59.000Z</time></trkpt>
<trkpt lat="42.097441" lon="23.57871"><ele>2377.1</ele><time>2026-03-08T10:00:00.000Z</time></trkpt>
<trkpt lat="42.097439" lon="23.578704"><ele>2377.1</ele><time>2026-03-08T10:00:01.000Z</time></trkpt>
<trkpt lat="42.097437" lon="23.578696"><ele>2378.1</ele><time>2026-03-08T10:00:02.000Z</time></trkpt>
<trkpt lat="42.097434" lon="23.578688"><ele>2378.1</ele><time>2026-03-08T10:00:03.000Z</time></trkpt>
<trkpt lat="42.097431" lon="23.578681"><ele>2378.1</ele><time>2026-03-08T10:00:04.000Z</time></trkpt>
<trkpt lat="42.097427" lon="23.578673"><ele>2378.1</ele><time>2026-03-08T10:00:05.000Z</time></trkpt>
<trkpt lat="42.097423" lon="23.578667"><ele>2378.1</ele><time>2026-03-08T10:00:06.000Z</time></trkpt>
<trkpt lat="42.09742" lon="23.578661"><ele>2379.1</ele><time>2026-03-08T10:00:07.000Z</time></trkpt>
<trkpt lat="42.097417" lon="23.578654"><ele>2379.1</ele><time>2026-03-08T10:00:08.000Z</time></trkpt>
<trkpt lat="42.097415" lon="23.578646"><ele>2379.1</ele><time>2026-03-08T10:00:09.000Z</time></trkpt>
<trkpt lat="42.097413" lon="23.578637"><ele>2379.1</ele><time>2026-03-08T10:00:10.000Z</time></trkpt>
<trkpt lat="42.097411" lon="23.578629"><ele>2379.1</ele><time>2026-03-08T10:00:11.000Z</time></trkpt>
<trkpt lat="42.09741" lon="23.57862"><ele>2379.6</ele><time>2026-03-08T10:00:12.000Z</time></trkpt>
<trkpt lat="42.097407" lon="23.578613"><ele>2379.6</ele><time>2026-03-08T10:00:13.000Z</time></trkpt>
<trkpt lat="42.097405" lon="23.578609"><ele>2379.6</ele><time>2026-03-08T10:00:14.000Z</time></trkpt>
<trkpt lat="42.097403" lon="23.578608"><ele>2379.6</ele><time>2026-03-08T10:00:15.000Z</time></trkpt>
<trkpt lat="42.097401" lon="23.578607"><ele>2379.6</ele><time>2026-03-08T10:00:16.000Z</time></trkpt>
<trkpt lat="42.097398" lon="23.578607"><ele>2380.4</ele><time>2026-03-08T10:00:17.000Z</time></trkpt>
<trkpt lat="42.097396" lon="23.578604"><ele>2380.4</ele><time>2026-03-08T10:00:18.000Z</time></trkpt>
<trkpt lat="42.097394" lon="23.578601"><ele>2380.4</ele><time>2026-03-08T10:00:19.000Z</time></trkpt>
<trkpt lat="42.097392" lon="23.578596"><ele>2380.4</ele><time>2026-03-08T10:00:20.000Z</time></trkpt>
<trkpt lat="42.09739" lon="23.57859"><ele>2380.4</ele><time>2026-03-08T10:00:21.000Z</time></trkpt>
<trkpt lat="42.097389" lon="23.578584"><ele>2381</ele><time>2026-03-08T10:00:22.000Z</time></trkpt>
<trkpt lat="42.097388" lon="23.578578"><ele>2381</ele><time>2026-03-08T10:00:23.000Z</time></trkpt>
<trkpt lat="42.097386" lon="23.57857"><ele>2381</ele><time>2026-03-08T10:00:24.000Z</time></trkpt>
<trkpt lat="42.097385" lon="23.57856"><ele>2381</ele><time>2026-03-08T10:00:25.000Z</time></trkpt>
<trkpt lat="42.097383" lon="23.578551"><ele>2381</ele><time>2026-03-08T10:00:26.000Z</time></trkpt>
<trkpt lat="42.097382" lon="23.578541"><ele>2381.1</ele><time>2026-03-08T10:00:27.000Z</time></trkpt>
<trkpt lat="42.097379" lon="23.578533"><ele>2381.1</ele><time>2026-03-08T10:00:28.000Z</time></trkpt>
<trkpt lat="42.097379" lon="23.578524"><ele>2381.1</ele><time>2026-03-08T10:00:29.000Z</time></trkpt>
<trkpt lat="42.097378" lon="23.578517"><ele>2381.1</ele><time>2026-03-08T10:00:30.000Z</time></trkpt>
<trkpt lat="42.097378" lon="23.578509"><ele>2381.1</ele><time>2026-03-08T10:00:31.000Z</time></trkpt>
<trkpt lat="42.097379" lon="23.578501"><ele>2381.4</ele><time>2026-03-08T10:00:32.000Z</time></trkpt>
<trkpt lat="42.09738" lon="23.578493"><ele>2381.4</ele><time>2026-03-08T10:00:33.000Z</time></trkpt>
<trkpt lat="42.09738" lon="23.578485"><ele>2381.4</ele><time>2026-03-08T10:00:34.000Z</time></trkpt>
<trkpt lat="42.097382" lon="23.578477"><ele>2381.4</ele><time>2026-03-08T10:00:35.000Z</time></trkpt>
<trkpt lat="42.097382" lon="23.57847"><ele>2381.4</ele><time>2026-03-08T10:00:36.000Z</time></trkpt>
<trkpt lat="42.097382" lon="23.578465"><ele>2381.8</ele><time>2026-03-08T10:00:37.000Z</time></trkpt>
<trkpt lat="42.097382" lon="23.578462"><ele>2381.8</ele><time>2026-03-08T10:00:38.000Z</time></trkpt>
<trkpt lat="42.097382" lon="23.578459"><ele>2381.8</ele><time>2026-03-08T10:00:39.000Z</time></trkpt>
<trkpt lat="42.097381" lon="23.578457"><ele>2381.8</ele><time>2026-03-08T10:00:40.000Z</time></trkpt>
<trkpt lat="42.097381" lon="23.578454"><ele>2381.8</ele><time>2026-03-08T10:00:41.000Z</time></trkpt>
<trkpt lat="42.097381" lon="23.578451"><ele>2382.1</ele><time>2026-03-08T10:00:42.000Z</time></trkpt>
<trkpt lat="42.097381" lon="23.578447"><ele>2382.1</ele><time>2026-03-08T10:00:43.000Z</time></trkpt>
<trkpt lat="42.097381" lon="23.578443"><ele>2382.1</ele><time>2026-03-08T10:00:44.000Z</time></trkpt>
<trkpt lat="42.097381" lon="23.578438"><ele>2382.1</ele><time>2026-03-08T10:00:45.000Z</time></trkpt>
<trkpt lat="42.097382" lon="23.578432"><ele>2382.1</ele><time>2026-03-08T10:00:46.000Z</time></trkpt>
<trkpt lat="42.097383" lon="23.578426"><ele>2382.5</ele><time>2026-03-08T10:00:47.000Z</time></trkpt>
<trkpt lat="42.097384" lon="23.578419"><ele>2382.5</ele><time>2026-03-08T10:00:48.000Z</time></trkpt>
<trkpt lat="42.097385" lon="23.578412"><ele>2382.5</ele><time>2026-03-08T10:00:49.000Z</time></trkpt>
<trkpt lat="42.097386" lon="23.578405"><ele>2382.5</ele><time>2026-03-08T10:00:50.000Z</time></trkpt>
<trkpt lat="42.097387" lon="23.578398"><ele>2382.5</ele><time>2026-03-08T10:00:51.000Z</time></trkpt>
<trkpt lat="42.097387" lon="23.578391"><ele>2382.8</ele><time>2026-03-08T10:00:52.000Z</time></trkpt>
<trkpt lat="42.097388" lon="23.578384"><ele>2382.8</ele><time>2026-03-08T10:00:53.000Z</time></trkpt>
<trkpt lat="42.097388" lon="23.578377"><ele>2382.8</ele><time>2026-03-08T10:00:54.000Z</time></trkpt>
<trkpt lat="42.097388" lon="23.57837"><ele>2382.8</ele><time>2026-03-08T10:00:55.000Z</time></trkpt>
<trkpt lat="42.097389" lon="23.578364"><ele>2382.8</ele><time>2026-03-08T10:00:56.000Z</time></trkpt>
<trkpt lat="42.09739" lon="23.578357"><ele>2383.1</ele><time>2026-03-08T10:00:57.000Z</time></trkpt>
<trkpt lat="42.097391" lon="23.578352"><ele>2383.1</ele><time>2026-03-08T10:00:58.000Z</time></trkpt>
<trkpt lat="42.097392" lon="23.578347"><ele>2383.1</ele><time>2026-03-08T10:00:59.000Z</time></trkpt>
<trkpt lat="42.097393" lon="23.578343"><ele>2383.1</ele><time>2026-03-08T10:01:00.000Z</time></trkpt>
<trkpt lat="42.097393" lon="23.57834"><ele>2383.1</ele><time>2026-03-08T10:01:01.000Z</time></trkpt>
<trkpt lat="42.097393" lon="23.578337"><ele>2383.6</ele><time>2026-03-08T10:01:02.000Z</time></trkpt>
<trkpt lat="42.097394" lon="23.578334"><ele>2383.6</ele><time>2026-03-08T10:01:03.000Z</time></trkpt>
<trkpt lat="42.097395" lon="23.578331"><ele>2383.6</ele><time>2026-03-08T10:01:04.000Z</time></trkpt>
<trkpt lat="42.097396" lon="23.578329"><ele>2383.6</ele><time>2026-03-08T10:01:05.000Z</time></trkpt>
<trkpt lat="42.097397" lon="23.578326"><ele>2383.6</ele><time>2026-03-08T10:01:06.000Z</time></trkpt>
<trkpt lat="42.097398" lon="23.578323"><ele>2384.1</ele><time>2026-03-08T10:01:07.000Z</time></trkpt>
<trkpt lat="42.097398" lon="23.578319"><ele>2384.1</ele><time>2026-03-08T10:01:08.000Z</time></trkpt>
<trkpt lat="42.097398" lon="23.578314"><ele>2384.1</ele><time>2026-03-08T10:01:09.000Z</time></trkpt>
<trkpt lat="42.097397" lon="23.578309"><ele>2384.1</ele><time>2026-03-08T10:01:10.000Z</time></trkpt>
<trkpt lat="42.097397" lon="23.578303"><ele>2384.1</ele><time>2026-03-08T10:01:11.000Z</time></trkpt>
<trkpt lat="42.097396" lon="23.578296"><ele>2384.3</ele><time>2026-03-08T10:01:12.000Z</time></trkpt>
<trkpt lat="42.097396" lon="23.578289"><ele>2384.3</ele><time>2026-03-08T10:01:13.000Z</time></trkpt>
<trkpt lat="42.097396" lon="23.578284"><ele>2384.3</ele><time>2026-03-08T10:01:14.000Z</time></trkpt>
<trkpt lat="42.097396" lon="23.57828"><ele>2384.3</ele><time>2026-03-08T10:01:15.000Z</time></trkpt>
<trkpt lat="42.097396" lon="23.578277"><ele>2384.3</ele><time>2026-03-08T10:01:16.000Z</time></trkpt>
<trkpt lat="42.097396" lon="23.578275"><ele>2384.6</ele><time>2026-03-08T10:01:17.000Z</time></trkpt>
<trkpt lat="42.097396" lon="23.578273"><ele>2384.6</ele><time>2026-03-08T10:01:18.000Z</time></trkpt>
<trkpt lat="42.097395" lon="23.57827"><ele>2384.6</ele><time>2026-03-08T10:01:19.000Z</time></trkpt>
<trkpt lat="42.097395" lon="23.578268"><ele>2384.6</ele><time>2026-03-08T10:01:20.000Z</time></trkpt>
<trkpt lat="42.097394" lon="23.578267"><ele>2384.6</ele><time>2026-03-08T10:01:21.000Z</time></trkpt>
<trkpt lat="42.097394" lon="23.578266"><ele>2385.1</ele><time>2026-03-08T10:01:22.000Z</time></trkpt>
<trkpt lat="42.097394" lon="23.578266"><ele>2385.1</ele><time>2026-03-08T10:01:23.000Z</time></trkpt>
<trkpt lat="42.097394" lon="23.578267"><ele>2385.1</ele><time>2026-03-08T10:01:24.000Z</time></trkpt>
<trkpt lat="42.097394" lon="23.578268"><ele>2385.1</ele><time>2026-03-08T10:01:25.000Z</time></trkpt>
<trkpt lat="42.097393" lon="23.578269"><ele>2385.1</ele><time>2026-03-08T10:01:26.000Z</time></trkpt>
<trkpt lat="42.097393" lon="23.578269"><ele>2385.4</ele><time>2026-03-08T10:01:27.000Z</time></trkpt>
<trkpt lat="42.097393" lon="23.57827"><ele>2385.4</ele><time>2026-03-08T10:01:28.000Z</time></trkpt>
<trkpt lat="42.097393" lon="23.57827"><ele>2385.4</ele><time>2026-03-08T10:01:29.000Z</time></trkpt>
<trkpt lat="42.097392" lon="23.57827"><ele>2385.4</ele><time>2026-03-08T10:01:30.000Z</time></trkpt>
<trkpt lat="42.097392" lon="23.578271"><ele>2385.4</ele><time>2026-03-08T10:01:31.000Z</time></trkpt>
<trkpt lat="42.097392" lon="23.578272"><ele>2385.9</ele><time>2026-03-08T10:01:32.000Z</time></trkpt>
<trkpt lat="42.097392" lon="23.578272"><ele>2385.9</ele><time>2026-03-08T10:01:33.000Z</time></trkpt>
<trkpt lat="42.097391" lon="23.578273"><ele>2385.9</ele><time>2026-03-08T10:01:34.000Z</time></trkpt>
<trkpt lat="42.097391" lon="23.578273"><ele>2385.9</ele><time>2026-03-08T10:01:35.000Z</time></trkpt>
<trkpt lat="42.097391" lon="23.578274"><ele>2385.9</ele><time>2026-03-08T10:01:36.000Z</time></trkpt>
<trkpt lat="42.09739" lon="23.578274"><ele>2386</ele><time>2026-03-08T10:01:37.000Z</time></trkpt>
<trkpt lat="42.09739" lon="23.578274"><ele>2386</ele><time>2026-03-08T10:01:38.000Z</time></trkpt>
<trkpt lat="42.09739" lon="23.578275"><ele>2386</ele><time>2026-03-08T10:01:39.000Z</time></trkpt>
<trkpt lat="42.097389" lon="23.578275"><ele>2386</ele><time>2026-03-08T10:01:40.000Z</time></trkpt>
<trkpt lat="42.097388" lon="23.578276"><ele>2386</ele><time>2026-03-08T10:01:41.000Z</time></trkpt>
<trkpt lat="42.097387" lon="23.578276"><ele>2385.9</ele><time>2026-03-08T10:01:42.000Z</time></trkpt>
<trkpt lat="42.097387" lon="23.578277"><ele>2385.9</ele><time>2026-03-08T10:01:43.000Z</time></trkpt>
<trkpt lat="42.097386" lon="23.578278"><ele>2385.9</ele><time>2026-03-08T10:01:44.000Z</time></trkpt>
<trkpt lat="42.097385" lon="23.578279"><ele>2385.9</ele><time>2026-03-08T10:01:45.000Z</time></trkpt>
<trkpt lat="42.097385" lon="23.578278"><ele>2385.9</ele><time>2026-03-08T10:01:46.000Z</time></trkpt>
<trkpt lat="42.097385" lon="23.578278"><ele>2385.8</ele><time>2026-03-08T10:01:47.000Z</time></trkpt>
<trkpt lat="42.097385" lon="23.578278"><ele>2385.8</ele><time>2026-03-08T10:01:48.000Z</time></trkpt>
<trkpt lat="42.097385" lon="23.578278"><ele>2385.8</ele><time>2026-03-08T10:01:49.000Z</time></trkpt>
<trkpt lat="42.097385" lon="23.578278"><ele>2385.8</ele><time>2026-03-08T10:01:50.000Z</time></trkpt>
<trkpt lat="42.097385" lon="23.578279"><ele>2385.8</ele><time>2026-03-08T10:01:51.000Z</time></trkpt>
<trkpt lat="42.097385" lon="23.578279"><ele>2385.8</ele><time>2026-03-08T10:01:52.000Z</time></trkpt>
<trkpt lat="42.097385" lon="23.578279"><ele>2385.8</ele><time>2026-03-08T10:01:53.000Z</time></trkpt>
<trkpt lat="42.097386" lon="23.578277"><ele>2385.8</ele><time>2026-03-08T10:01:54.000Z</time></trkpt>
<trkpt lat="42.097387" lon="23.578273"><ele>2385.8</ele><time>2026-03-08T10:01:55.000Z</time></trkpt>
<trkpt lat="42.097387" lon="23.578267"><ele>2385.8</ele><time>2026-03-08T10:01:56.000Z</time></trkpt>
<trkpt lat="42.097387" lon="23.57826"><ele>2385.8</ele><time>2026-03-08T10:01:57.000Z</time></trkpt>
<trkpt lat="42.097387" lon="23.57825"><ele>2385.8</ele><time>2026-03-08T10:01:58.000Z</time></trkpt>
<trkpt lat="42.097386" lon="23.57824"><ele>2385.8</ele><time>2026-03-08T10:01:59.000Z</time></trkpt>
<trkpt lat="42.097385" lon="23.57823"><ele>2385.8</ele><time>2026-03-08T10:02:00.000Z</time></trkpt>
<trkpt lat="42.097385" lon="23.578219"><ele>2385.8</ele><time>2026-03-08T10:02:01.000Z</time></trkpt>
<trkpt lat="42.097383" lon="23.578208"><ele>2385.8</ele><time>2026-03-08T10:02:02.000Z</time></trkpt>
<trkpt lat="42.097383" lon="23.578198"><ele>2385.8</ele><time>2026-03-08T10:02:03.000Z</time></trkpt>
<trkpt lat="42.097382" lon="23.578186"><ele>2385.8</ele><time>2026-03-08T10:02:04.000Z</time></trkpt>
<trkpt lat="42.097381" lon="23.578174"><ele>2385.8</ele><time>2026-03-08T10:02:05.000Z</time></trkpt>
<trkpt lat="42.09738" lon="23.578162"><ele>2385.8</ele><time>2026-03-08T10:02:06.000Z</time></trkpt>
<trkpt lat="42.09738" lon="23.57815"><ele>2386.3</ele><time>2026-03-08T10:02:07.000Z</time></trkpt>
<trkpt lat="42.097379" lon="23.578138"><ele>2386.3</ele><time>2026-03-08T10:02:08.000Z</time></trkpt>
<trkpt lat="42.097379" lon="23.578128"><ele>2386.3</ele><time>2026-03-08T10:02:09.000Z</time></trkpt>
<trkpt lat="42.097377" lon="23.578118"><ele>2386.3</ele><time>2026-03-08T10:02:10.000Z</time></trkpt>
<trkpt lat="42.097376" lon="23.578108"><ele>2386.3</ele><time>2026-03-08T10:02:11.000Z</time></trkpt>
<trkpt lat="42.097374" lon="23.578099"><ele>2386.8</ele><time>2026-03-08T10:02:12.000Z</time></trkpt>
<trkpt lat="42.097372" lon="23.578089"><ele>2386.8</ele><time>2026-03-08T10:02:13.000Z</time></trkpt>
<trkpt lat="42.097371" lon="23.578079"><ele>2386.8</ele><time>2026-03-08T10:02:14.000Z</time></trkpt>
<trkpt lat="42.097371" lon="23.578069"><ele>2386.8</ele><time>2026-03-08T10:02:15.000Z</time></trkpt>
<trkpt lat="42.09737" lon="23.57806"><ele>2386.8</ele><time>2026-03-08T10:02:16.000Z</time></trkpt>
<trkpt lat="42.097368" lon="23.578051"><ele>2388.1</ele><time>2026-03-08T10:02:17.000Z</time></trkpt>
<trkpt lat="42.097368" lon="23.578042"><ele>2388.1</ele><time>2026-03-08T10:02:18.000Z</time></trkpt>
<trkpt lat="42.097368" lon="23.578035"><ele>2388.1</ele><time>2026-03-08T10:02:19.000Z</time></trkpt>
<trkpt lat="42.097368" lon="23.578029"><ele>2388.1</ele><time>2026-03-08T10:02:20.000Z</time></trkpt>
<trkpt lat="42.097369" lon="23.578023"><ele>2388.1</ele><time>2026-03-08T10:02:21.000Z</time></trkpt>
<trkpt lat="42.097371" lon="23.578017"><ele>2389.5</ele><time>2026-03-08T10:02:22.000Z</time></trkpt>
<trkpt lat="42.097372" lon="23.578012"><ele>2389.5</ele><time>2026-03-08T10:02:23.000Z</time></trkpt>
<trkpt lat="42.097373" lon="23.578004"><ele>2389.5</ele><time>2026-03-08T10:02:24.000Z</time></trkpt>
<trkpt lat="42.097375" lon="23.577997"><ele>2389.5</ele><time>2026-03-08T10:02:25.000Z</time></trkpt>
<trkpt lat="42.097376" lon="23.577989"><ele>2389.5</ele><time>2026-03-08T10:02:26.000Z</time></trkpt>
<trkpt lat="42.097376" lon="23.577982"><ele>2390.2</ele><time>2026-03-08T10:02:27.000Z</time></trkpt>
<trkpt lat="42.097377" lon="23.577975"><ele>2390.2</ele><time>2026-03-08T10:02:28.000Z</time></trkpt>
<trkpt lat="42.097376" lon="23.57797"><ele>2390.2</ele><time>2026-03-08T10:02:29.000Z</time></trkpt>
<trkpt lat="42.097375" lon="23.577964"><ele>2390.2</ele><time>2026-03-08T10:02:30.000Z</time></trkpt>
<trkpt lat="42.097373" lon="23.577957"><ele>2390.2</ele><time>2026-03-08T10:02:31.000Z</time></trkpt>
<trkpt lat="42.097371" lon="23.577949"><ele>2391.7</ele><time>2026-03-08T10:02:32.000Z</time></trkpt>
<trkpt lat="42.097369" lon="23.577941"><ele>2391.7</ele><time>2026-03-08T10:02:33.000Z</time></trkpt>
<trkpt lat="42.097367" lon="23.577933"><ele>2391.7</ele><time>2026-03-08T10:02:34.000Z</time></trkpt>
<trkpt lat="42.097365" lon="23.577925"><ele>2391.7</ele><time>2026-03-08T10:02:35.000Z</time></trkpt>
<trkpt lat="42.097362" lon="23.577918"><ele>2391.7</ele><time>2026-03-08T10:02:36.000Z</time></trkpt>
<trkpt lat="42.097361" lon="23.577911"><ele>2393.2</ele><time>2026-03-08T10:02:37.000Z</time></trkpt>
<trkpt lat="42.097359" lon="23.577905"><ele>2393.2</ele><time>2026-03-08T10:02:38.000Z</time></trkpt>
<trkpt lat="42.097357" lon="23.577899"><ele>2393.2</ele><time>2026-03-08T10:02:39.000Z</time></trkpt>
<trkpt lat="42.097356" lon="23.577895"><ele>2393.2</ele><time>2026-03-08T10:02:40.000Z</time></trkpt>
<trkpt lat="42.097354" lon="23.577891"><ele>2393.2</ele><time>2026-03-08T10:02:41.000Z</time></trkpt>
<trkpt lat="42.09735" lon="23.577889"><ele>2393.9</ele><time>2026-03-08T10:02:42.000Z</time></trkpt>
<trkpt lat="42.097348" lon="23.577886"><ele>2393.9</ele><time>2026-03-08T10:02:43.000Z</time></trkpt>
<trkpt lat="42.097345" lon="23.577884"><ele>2393.9</ele><time>2026-03-08T10:02:44.000Z</time></trkpt>
<trkpt lat="42.097343" lon="23.577882"><ele>2393.9</ele><time>2026-03-08T10:02:45.000Z</time></trkpt>
<trkpt lat="42.097342" lon="23.577882"><ele>2393.9</ele><time>2026-03-08T10:02:46.000Z</time></trkpt>
<trkpt lat="42.097341" lon="23.577882"><ele>2395.1</ele><time>2026-03-08T10:02:47.000Z</time></trkpt>
<trkpt lat="42.09734" lon="23.577882"><ele>2395.1</ele><time>2026-03-08T10:02:48.000Z</time></trkpt>
<trkpt lat="42.09734" lon="23.577882"><ele>2395.1</ele><time>2026-03-08T10:02:49.000Z</time></trkpt>
<trkpt lat="42.097339" lon="23.577883"><ele>2395.1</ele><time>2026-03-08T10:02:50.000Z</time></trkpt>
<trkpt lat="42.097339" lon="23.577882"><ele>2395.1</ele><time>2026-03-08T10:02:51.000Z</time></trkpt>
<trkpt lat="42.097339" lon="23.577882"><ele>2396</ele><time>2026-03-08T10:02:52.000Z</time></trkpt>
<trkpt lat="42.09734" lon="23.577881"><ele>2396</ele><time>2026-03-08T10:02:53.000Z</time></trkpt>
<trkpt lat="42.09734" lon="23.57788"><ele>2396</ele><time>2026-03-08T10:02:54.000Z</time></trkpt>
<trkpt lat="42.09734" lon="23.577879"><ele>2396</ele><time>2026-03-08T10:02:55.000Z</time></trkpt>
<trkpt lat="42.09734" lon="23.577879"><ele>2396</ele><time>2026-03-08T10:02:56.000Z</time></trkpt>
<trkpt lat="42.09734" lon="23.577878"><ele>2396.4</ele><time>2026-03-08T10:02:57.000Z</time></trkpt>
<trkpt lat="42.09734" lon="23.577878"><ele>2396.4</ele><time>2026-03-08T10:02:58.000Z</time></trkpt>
<trkpt lat="42.09734" lon="23.577878"><ele>2396.4</ele><time>2026-03-08T10:02:59.000Z</time></trkpt>
<trkpt lat="42.09734" lon="23.577878"><ele>2396.4</ele><time>2026-03-08T10:03:00.000Z</time></trkpt>
<trkpt lat="42.09734" lon="23.577878"><ele>2396.4</ele><time>2026-03-08T10:03:01.000Z</time></trkpt>
<trkpt lat="42.097341" lon="23.577878"><ele>2396.7</ele><time>2026-03-08T10:03:02.000Z</time></trkpt>
<trkpt lat="42.097341" lon="23.577879"><ele>2396.7</ele><time>2026-03-08T10:03:03.000Z</time></trkpt>
<trkpt lat="42.097342" lon="23.57788"><ele>2396.7</ele><time>2026-03-08T10:03:04.000Z</time></trkpt>
<trkpt lat="42.097342" lon="23.57788"><ele>2396.7</ele><time>2026-03-08T10:03:05.000Z</time></trkpt>
<trkpt lat="42.097342" lon="23.577881"><ele>2396.7</ele><time>2026-03-08T10:03:06.000Z</time></trkpt>
<trkpt lat="42.097341" lon="23.577881"><ele>2396.8</ele><time>2026-03-08T10:03:07.000Z</time></trkpt>
<trkpt lat="42.097341" lon="23.577881"><ele>2396.8</ele><time>2026-03-08T10:03:08.000Z</time></trkpt>
<trkpt lat="42.09734" lon="23.577881"><ele>2396.8</ele><time>2026-03-08T10:03:09.000Z</time></trkpt>
<trkpt lat="42.09734" lon="23.577881"><ele>2396.8</ele><time>2026-03-08T10:03:10.000Z</time></trkpt>
<trkpt lat="42.09734" lon="23.57788"><ele>2396.8</ele><time>2026-03-08T10:03:11.000Z</time></trkpt>
<trkpt lat="42.09734" lon="23.57788"><ele>2396.8</ele><time>2026-03-08T10:03:12.000Z</time></trkpt>
<trkpt lat="42.09734" lon="23.577881"><ele>2396.8</ele><time>2026-03-08T10:03:13.000Z</time></trkpt>
<trkpt lat="42.09734" lon="23.577881"><ele>2396.8</ele><time>2026-03-08T10:03:14.000Z</time></trkpt>
<trkpt lat="42.097339" lon="23.577881"><ele>2396.8</ele><time>2026-03-08T10:03:15.000Z</time></trkpt>
<trkpt lat="42.097339" lon="23.577882"><ele>2396.8</ele><time>2026-03-08T10:03:16.000Z</time></trkpt>
<trkpt lat="42.097339" lon="23.577882"><ele>2396.6</ele><time>2026-03-08T10:03:17.000Z</time></trkpt>
<trkpt lat="42.097338" lon="23.577882"><ele>2396.6</ele><time>2026-03-08T10:03:18.000Z</time></trkpt>
<trkpt lat="42.097338" lon="23.577883"><ele>2396.6</ele><time>2026-03-08T10:03:19.000Z</time></trkpt>
<trkpt lat="42.097338" lon="23.577883"><ele>2396.6</ele><time>2026-03-08T10:03:20.000Z</time></trkpt>
<trkpt lat="42.097338" lon="23.577883"><ele>2396.6</ele><time>2026-03-08T10:03:21.000Z</time></trkpt>
<trkpt lat="42.097338" lon="23.577883"><ele>2396.5</ele><time>2026-03-08T10:03:22.000Z</time></trkpt>
<trkpt lat="42.097338" lon="23.577883"><ele>2396.5</ele><time>2026-03-08T10:03:23.000Z</time></trkpt>
<trkpt lat="42.097338" lon="23.577883"><ele>2396.5</ele><time>2026-03-08T10:03:24.000Z</time></trkpt>
<trkpt lat="42.097338" lon="23.577883"><ele>2396.5</ele><time>2026-03-08T10:03:25.000Z</time></trkpt>
<trkpt lat="42.097338" lon="23.577883"><ele>2396.5</ele><time>2026-03-08T10:03:26.000Z</time></trkpt>
<trkpt lat="42.097338" lon="23.577883"><ele>2396.4</ele><time>2026-03-08T10:03:27.000Z</time></trkpt>
<trkpt lat="42.097337" lon="23.577883"><ele>2396.4</ele><time>2026-03-08T10:03:28.000Z</time></trkpt>
<trkpt lat="42.097337" lon="23.577883"><ele>2396.4</ele><time>2026-03-08T10:03:29.000Z</time></trkpt>
<trkpt lat="42.097337" lon="23.577883"><ele>2396.4</ele><time>2026-03-08T10:03:30.000Z</time></trkpt>
<trkpt lat="42.097336" lon="23.577883"><ele>2396.4</ele><time>2026-03-08T10:03:31.000Z</time></trkpt>
<trkpt lat="42.097335" lon="23.577883"><ele>2396.4</ele><time>2026-03-08T10:03:32.000Z</time></trkpt>
<trkpt lat="42.097334" lon="23.577882"><ele>2396.4</ele><time>2026-03-08T10:03:33.000Z</time></trkpt>
<trkpt lat="42.097332" lon="23.577882"><ele>2396.4</ele><time>2026-03-08T10:03:34.000Z</time></trkpt>
<trkpt lat="42.097331" lon="23.577881"><ele>2396.4</ele><time>2026-03-08T10:03:35.000Z</time></trkpt>
<trkpt lat="42.097331" lon="23.577881"><ele>2396.4</ele><time>2026-03-08T10:03:36.000Z</time></trkpt>
<trkpt lat="42.09733" lon="23.577881"><ele>2396.4</ele><time>2026-03-08T10:03:37.000Z</time></trkpt>
<trkpt lat="42.097331" lon="23.57788"><ele>2396.4</ele><time>2026-03-08T10:03:38.000Z</time></trkpt>
<trkpt lat="42.097332" lon="23.577878"><ele>2396.4</ele><time>2026-03-08T10:03:39.000Z</time></trkpt>
<trkpt lat="42.097332" lon="23.577875"><ele>2396.4</ele><time>2026-03-08T10:03:40.000Z</time></trkpt>
<trkpt lat="42.097333" lon="23.577872"><ele>2396.4</ele><time>2026-03-08T10:03:41.000Z</time></trkpt>
<trkpt lat="42.097335" lon="23.577867"><ele>2396.3</ele><time>2026-03-08T10:03:42.000Z</time></trkpt>
<trkpt lat="42.097335" lon="23.577863"><ele>2396.3</ele><time>2026-03-08T10:03:43.000Z</time></trkpt>
<trkpt lat="42.097336" lon="23.577858"><ele>2396.3</ele><time>2026-03-08T10:03:44.000Z</time></trkpt>
<trkpt lat="42.097336" lon="23.577853"><ele>2396.3</ele><time>2026-03-08T10:03:45.000Z</time></trkpt>
<trkpt lat="42.097337" lon="23.577847"><ele>2396.3</ele><time>2026-03-08T10:03:46.000Z</time></trkpt>
<trkpt lat="42.097337" lon="23.577841"><ele>2396.3</ele><time>2026-03-08T10:03:47.000Z</time></trkpt>
<trkpt lat="42.097336" lon="23.577835"><ele>2396.3</ele><time>2026-03-08T10:03:48.000Z</time></trkpt>
<trkpt lat="42.097335" lon="23.57783"><ele>2396.3</ele><time>2026-03-08T10:03:49.000Z</time></trkpt>
<trkpt lat="42.097334" lon="23.577824"><ele>2396.3</ele><time>2026-03-08T10:03:50.000Z</time></trkpt>
<trkpt lat="42.097333" lon="23.57782"><ele>2396.3</ele><time>2026-03-08T10:03:51.000Z</time></trkpt>
<trkpt lat="42.097332" lon="23.577816"><ele>2396.4</ele><time>2026-03-08T10:03:52.000Z</time></trkpt>
<trkpt lat="42.09733" lon="23.577813"><ele>2396.4</ele><time>2026-03-08T10:03:53.000Z</time></trkpt>
<trkpt lat="42.097328" lon="23.577809"><ele>2396.4</ele><time>2026-03-08T10:03:54.000Z</time></trkpt>
<trkpt lat="42.097326" lon="23.577806"><ele>2396.4</ele><time>2026-03-08T10:03:55.000Z</time></trkpt>
<trkpt lat="42.097324" lon="23.577801"><ele>2396.4</ele><time>2026-03-08T10:03:56.000Z</time></trkpt>
<trkpt lat="42.097322" lon="23.577797"><ele>2396.6</ele><time>2026-03-08T10:03:57.000Z</time></trkpt>
<trkpt lat="42.097322" lon="23.577792"><ele>2396.6</ele><time>2026-03-08T10:03:58.000Z</time></trkpt>
<trkpt lat="42.097322" lon="23.577788"><ele>2396.6</ele><time>2026-03-08T10:03:59.000Z</time></trkpt>
<trkpt lat="42.097323" lon="23.577785"><ele>2396.6</ele><time>2026-03-08T10:04:00.000Z</time></trkpt>
<trkpt lat="42.097323" lon="23.577782"><ele>2396.6</ele><time>2026-03-08T10:04:01.000Z</time></trkpt>
<trkpt lat="42.097322" lon="23.57778"><ele>2397.5</ele><time>2026-03-08T10:04:02.000Z</time></trkpt>
<trkpt lat="42.097321" lon="23.577778"><ele>2397.5</ele><time>2026-03-08T10:04:03.000Z</time></trkpt>
<trkpt lat="42.097321" lon="23.577776"><ele>2397.5</ele><time>2026-03-08T10:04:04.000Z</time></trkpt>
<trkpt lat="42.097319" lon="23.577774"><ele>2397.5</ele><time>2026-03-08T10:04:05.000Z</time></trkpt>
<trkpt lat="42.097318" lon="23.577772"><ele>2397.5</ele><time>2026-03-08T10:04:06.000Z</time></trkpt>
<trkpt lat="42.097316" lon="23.57777"><ele>2398.6</ele><time>2026-03-08T10:04:07.000Z</time></trkpt>
<trkpt lat="42.097313" lon="23.577769"><ele>2398.6</ele><time>2026-03-08T10:04:08.000Z</time></trkpt>
<trkpt lat="42.097311" lon="23.577767"><ele>2398.6</ele><time>2026-03-08T10:04:09.000Z</time></trkpt>
<trkpt lat="42.097308" lon="23.577764"><ele>2398.6</ele><time>2026-03-08T10:04:10.000Z</time></trkpt>
<trkpt lat="42.097306" lon="23.577759"><ele>2398.6</ele><time>2026-03-08T10:04:11.000Z</time></trkpt>
<trkpt lat="42.097304" lon="23.577753"><ele>2399.2</ele><time>2026-03-08T10:04:12.000Z</time></trkpt>
<trkpt lat="42.097302" lon="23.577748"><ele>2399.2</ele><time>2026-03-08T10:04:13.000Z</time></trkpt>
<trkpt lat="42.0973" lon="23.577741"><ele>2399.2</ele><time>2026-03-08T10:04:14.000Z</time></trkpt>
<trkpt lat="42.097299" lon="23.577735"><ele>2399.2</ele><time>2026-03-08T10:04:15.000Z</time></trkpt>
<trkpt lat="42.097299" lon="23.577728"><ele>2399.2</ele><time>2026-03-08T10:04:16.000Z</time></trkpt>
<trkpt lat="42.097299" lon="23.577722"><ele>2400.3</ele><time>2026-03-08T10:04:17.000Z</time></trkpt>
<trkpt lat="42.0973" lon="23.577715"><ele>2400.3</ele><time>2026-03-08T10:04:18.000Z</time></trkpt>
<trkpt lat="42.097301" lon="23.577711"><ele>2400.3</ele><time>2026-03-08T10:04:19.000Z</time></trkpt>
<trkpt lat="42.097303" lon="23.577706"><ele>2400.3</ele><time>2026-03-08T10:04:20.000Z</time></trkpt>
<trkpt lat="42.097304" lon="23.577704"><ele>2400.3</ele><time>2026-03-08T10:04:21.000Z</time></trkpt>
<trkpt lat="42.097305" lon="23.577701"><ele>2401.2</ele><time>2026-03-08T10:04:22.000Z</time></trkpt>
<trkpt lat="42.097306" lon="23.577698"><ele>2401.2</ele><time>2026-03-08T10:04:23.000Z</time></trkpt>
<trkpt lat="42.097307" lon="23.577694"><ele>2401.2</ele><time>2026-03-08T10:04:24.000Z</time></trkpt>
<trkpt lat="42.097308" lon="23.577691"><ele>2401.2</ele><time>2026-03-08T10:04:25.000Z</time></trkpt>
<trkpt lat="42.097308" lon="23.577686"><ele>2401.2</ele><time>2026-03-08T10:04:26.000Z</time></trkpt>
<trkpt lat="42.097307" lon="23.57768"><ele>2401.6</ele><time>2026-03-08T10:04:27.000Z</time></trkpt>
<trkpt lat="42.097304" lon="23.577674"><ele>2401.6</ele><time>2026-03-08T10:04:28.000Z</time></trkpt>
<trkpt lat="42.097302" lon="23.577668"><ele>2401.6</ele><time>2026-03-08T10:04:29.000Z</time></trkpt>
<trkpt lat="42.097301" lon="23.577662"><ele>2401.6</ele><time>2026-03-08T10:04:30.000Z</time></trkpt>
<trkpt lat="42.097301" lon="23.577657"><ele>2401.6</ele><time>2026-03-08T10:04:31.000Z</time></trkpt>
<trkpt lat="42.097301" lon="23.577653"><ele>2402.6</ele><time>2026-03-08T10:04:32.000Z</time></trkpt>
<trkpt lat="42.097302" lon="23.57765"><ele>2402.6</ele><time>2026-03-08T10:04:33.000Z</time></trkpt>
<trkpt lat="42.097304" lon="23.577646"><ele>2402.6</ele><time>2026-03-08T10:04:34.000Z</time></trkpt>
<trkpt lat="42.097305" lon="23.577643"><ele>2402.6</ele><time>2026-03-08T10:04:35.000Z</time></trkpt>
<trkpt lat="42.097305" lon="23.57764"><ele>2402.6</ele><time>2026-03-08T10:04:36.000Z</time></trkpt>
<trkpt lat="42.097305" lon="23.577637"><ele>2403.7</ele><time>2026-03-08T10:04:37.000Z</time></trkpt>
<trkpt lat="42.097304" lon="23.577634"><ele>2403.7</ele><time>2026-03-08T10:04:38.000Z</time></trkpt>
<trkpt lat="42.097304" lon="23.577631"><ele>2403.7</ele><time>2026-03-08T10:04:39.000Z</time></trkpt>
<trkpt lat="42.097304" lon="23.577628"><ele>2403.7</ele><time>2026-03-08T10:04:40.000Z</time></trkpt>
<trkpt lat="42.097305" lon="23.577624"><ele>2403.7</ele><time>2026-03-08T10:04:41.000Z</time></trkpt>
<trkpt lat="42.097307" lon="23.577619"><ele>2404.2</ele><time>2026-03-08T10:04:42.000Z</time></trkpt>
<trkpt lat="42.097308" lon="23.577615"><ele>2404.2</ele><time>2026-03-08T10:04:43.000Z</time></trkpt>
<trkpt lat="42.097308" lon="23.57761"><ele>2404.2</ele><time>2026-03-08T10:04:44.000Z</time></trkpt>
<trkpt lat="42.097309" lon="23.577606"><ele>2404.2</ele><time>2026-03-08T10:04:45.000Z</time></trkpt>
<trkpt lat="42.097309" lon="23.577602"><ele>2404.2</ele><time>2026-03-08T10:04:46.000Z</time></trkpt>
<trkpt lat="42.097308" lon="23.5776"><ele>2405.3</ele><time>2026-03-08T10:04:47.000Z</time></trkpt>
<trkpt lat="42.097309" lon="23.577598"><ele>2405.3</ele><time>2026-03-08T10:04:48.000Z</time></trkpt>
<trkpt lat="42.097309" lon="23.577597"><ele>2405.3</ele><time>2026-03-08T10:04:49.000Z</time></trkpt>
<trkpt lat="42.097309" lon="23.577597"><ele>2405.3</ele><time>2026-03-08T10:04:50.000Z</time></trkpt>
<trkpt lat="42.097309" lon="23.577597"><ele>2405.3</ele><time>2026-03-08T10:04:51.000Z</time></trkpt>
<trkpt lat="42.09731" lon="23.577597"><ele>2406.4</ele><time>2026-03-08T10:04:52.000Z</time></trkpt>
<trkpt lat="42.09731" lon="23.577597"><ele>2406.4</ele><time>2026-03-08T10:04:53.000Z</time></trkpt>
<trkpt lat="42.097311" lon="23.577598"><ele>2406.4</ele><time>2026-03-08T10:04:54.000Z</time></trkpt>
<trkpt lat="42.097311" lon="23.577598"><ele>2406.4</ele><time>2026-03-08T10:04:55.000Z</time></trkpt>
<trkpt lat="42.097311" lon="23.577598"><ele>2406.4</ele><time>2026-03-08T10:04:56.000Z</time></trkpt>
<trkpt lat="42.097312" lon="23.577599"><ele>2406.9</ele><time>2026-03-08T10:04:57.000Z</time></trkpt>
<trkpt lat="42.097312" lon="23.577599"><ele>2406.9</ele><time>2026-03-08T10:04:58.000Z</time></trkpt>
<trkpt lat="42.097312" lon="23.577599"><ele>2406.9</ele><time>2026-03-08T10:04:59.000Z</time></trkpt>
<trkpt lat="42.097312" lon="23.577599"><ele>2406.9</ele><time>2026-03-08T10:05:00.000Z</time></trkpt>
<trkpt lat="42.097312" lon="23.577599"><ele>2406.9</ele><time>2026-03-08T10:05:01.000Z</time></trkpt>
<trkpt lat="42.097312" lon="23.577599"><ele>2407.4</ele><time>2026-03-08T10:05:02.000Z</time></trkpt>
<trkpt lat="42.097312" lon="23.577599"><ele>2407.4</ele><time>2026-03-08T10:05:03.000Z</time></trkpt>
<trkpt lat="42.097312" lon="23.577599"><ele>2407.4</ele><time>2026-03-08T10:05:04.000Z</time></trkpt>
<trkpt lat="42.097312" lon="23.577599"><ele>2407.4</ele><time>2026-03-08T10:05:05.000Z</time></trkpt>
<trkpt lat="42.097311" lon="23.577597"><ele>2407.4</ele><time>2026-03-08T10:05:06.000Z</time></trkpt>
<trkpt lat="42.097311" lon="23.577595"><ele>2407.5</ele><time>2026-03-08T10:05:07.000Z</time></trkpt>
<trkpt lat="42.09731" lon="23.577592"><ele>2407.5</ele><time>2026-03-08T10:05:08.000Z</time></trkpt>
<trkpt lat="42.097309" lon="23.577588"><ele>2407.5</ele><time>2026-03-08T10:05:09.000Z</time></trkpt>
<trkpt lat="42.097308" lon="23.577583"><ele>2407.5</ele><time>2026-03-08T10:05:10.000Z</time></trkpt>
<trkpt lat="42.097308" lon="23.577579"><ele>2407.5</ele><time>2026-03-08T10:05:11.000Z</time></trkpt>
<trkpt lat="42.097307" lon="23.577574"><ele>2407.5</ele><time>2026-03-08T10:05:12.000Z</time></trkpt>
<trkpt lat="42.097308" lon="23.57757"><ele>2407.5</ele><time>2026-03-08T10:05:13.000Z</time></trkpt>
<trkpt lat="42.097309" lon="23.577567"><ele>2407.5</ele><time>2026-03-08T10:05:14.000Z</time></trkpt>
<trkpt lat="42.097309" lon="23.577564"><ele>2407.5</ele><time>2026-03-08T10:05:15.000Z</time></trkpt>
<trkpt lat="42.09731" lon="23.577561"><ele>2407.5</ele><time>2026-03-08T10:05:16.000Z</time></trkpt>
<trkpt lat="42.097312" lon="23.577559"><ele>2407.6</ele><time>2026-03-08T10:05:17.000Z</time></trkpt>
<trkpt lat="42.097313" lon="23.577558"><ele>2407.6</ele><time>2026-03-08T10:05:18.000Z</time></trkpt>
<trkpt lat="42.097314" lon="23.577556"><ele>2407.6</ele><time>2026-03-08T10:05:19.000Z</time></trkpt>
<trkpt lat="42.097316" lon="23.577556"><ele>2407.6</ele><time>2026-03-08T10:05:20.000Z</time></trkpt>
<trkpt lat="42.097318" lon="23.577556"><ele>2407.6</ele><time>2026-03-08T10:05:21.000Z</time></trkpt>
<trkpt lat="42.09732" lon="23.577555"><ele>2408.2</ele><time>2026-03-08T10:05:22.000Z</time></trkpt>
<trkpt lat="42.097321" lon="23.577554"><ele>2408.2</ele><time>2026-03-08T10:05:23.000Z</time></trkpt>
<trkpt lat="42.097322" lon="23.577553"><ele>2408.2</ele><time>2026-03-08T10:05:24.000Z</time></trkpt>
<trkpt lat="42.097323" lon="23.577551"><ele>2408.2</ele><time>2026-03-08T10:05:25.000Z</time></trkpt>
<trkpt lat="42.097323" lon="23.57755"><ele>2408.2</ele><time>2026-03-08T10:05:26.000Z</time></trkpt>
<trkpt lat="42.097323" lon="23.577549"><ele>2408.6</ele><time>2026-03-08T10:05:27.000Z</time></trkpt>
<trkpt lat="42.097323" lon="23.577548"><ele>2408.6</ele><time>2026-03-08T10:05:28.000Z</time></trkpt>
<trkpt lat="42.097323" lon="23.577546"><ele>2408.6</ele><time>2026-03-08T10:05:29.000Z</time></trkpt>
<trkpt lat="42.097322" lon="23.577544"><ele>2408.6</ele><time>2026-03-08T10:05:30.000Z</time></trkpt>
<trkpt lat="42.097322" lon="23.577542"><ele>2408.6</ele><time>2026-03-08T10:05:31.000Z</time></trkpt>
<trkpt lat="42.097322" lon="23.57754"><ele>2409.3</ele><time>2026-03-08T10:05:32.000Z</time></trkpt>
<trkpt lat="42.097321" lon="23.577539"><ele>2409.3</ele><time>2026-03-08T10:05:33.000Z</time></trkpt>
<trkpt lat="42.097321" lon="23.577538"><ele>2409.3</ele><time>2026-03-08T10:05:34.000Z</time></trkpt>
<trkpt lat="42.097321" lon="23.577537"><ele>2409.3</ele><time>2026-03-08T10:05:35.000Z</time></trkpt>
<trkpt lat="42.097321" lon="23.577536"><ele>2409.3</ele><time>2026-03-08T10:05:36.000Z</time></trkpt>
<trkpt lat="42.097321" lon="23.577535"><ele>2410</ele><time>2026-03-08T10:05:37.000Z</time></trkpt>
<trkpt lat="42.097321" lon="23.577533"><ele>2410</ele><time>2026-03-08T10:05:38.000Z</time></trkpt>
<trkpt lat="42.097321" lon="23.577532"><ele>2410</ele><time>2026-03-08T10:05:39.000Z</time></trkpt>
<trkpt lat="42.097321" lon="23.577532"><ele>2410</ele><time>2026-03-08T10:05:40.000Z</time></trkpt>
<trkpt lat="42.09732" lon="23.577532"><ele>2410</ele><time>2026-03-08T10:05:41.000Z</time></trkpt>
<trkpt lat="42.09732" lon="23.577532"><ele>2410.3</ele><time>2026-03-08T10:05:42.000Z</time></trkpt>
<trkpt lat="42.097319" lon="23.577533"><ele>2410.3</ele><time>2026-03-08T10:05:43.000Z</time></trkpt>
<trkpt lat="42.097319" lon="23.577534"><ele>2410.3</ele><time>2026-03-08T10:05:44.000Z</time></trkpt>
<trkpt lat="42.097318" lon="23.577535"><ele>2410.3</ele><time>2026-03-08T10:05:45.000Z</time></trkpt>
<trkpt lat="42.097318" lon="23.577536"><ele>2410.3</ele><time>2026-03-08T10:05:46.000Z</time></trkpt>
<trkpt lat="42.097317" lon="23.577537"><ele>2410.7</ele><time>2026-03-08T10:05:47.000Z</time></trkpt>
<trkpt lat="42.097317" lon="23.577537"><ele>2410.7</ele><time>2026-03-08T10:05:48.000Z</time></trkpt>
<trkpt lat="42.097316" lon="23.577537"><ele>2410.7</ele><time>2026-03-08T10:05:49.000Z</time></trkpt>
<trkpt lat="42.097316" lon="23.577537"><ele>2410.7</ele><time>2026-03-08T10:05:50.000Z</time></trkpt>
<trkpt lat="42.097315" lon="23.577536"><ele>2410.7</ele><time>2026-03-08T10:05:51.000Z</time></trkpt>
<trkpt lat="42.097315" lon="23.577535"><ele>2410.8</ele><time>2026-03-08T10:05:52.000Z</time></trkpt>
<trkpt lat="42.097316" lon="23.577533"><ele>2410.8</ele><time>2026-03-08T10:05:53.000Z</time></trkpt>
<trkpt lat="42.097317" lon="23.577531"><ele>2410.8</ele><time>2026-03-08T10:05:54.000Z</time></trkpt>
<trkpt lat="42.097317" lon="23.577529"><ele>2410.8</ele><time>2026-03-08T10:05:55.000Z</time></trkpt>
<trkpt lat="42.097319" lon="23.577525"><ele>2410.8</ele><time>2026-03-08T10:05:56.000Z</time></trkpt>
<trkpt lat="42.097319" lon="23.577522"><ele>2410.8</ele><time>2026-03-08T10:05:57.000Z</time></trkpt>
<trkpt lat="42.09732" lon="23.577518"><ele>2410.8</ele><time>2026-03-08T10:05:58.000Z</time></trkpt>
<trkpt lat="42.097319" lon="23.577514"><ele>2410.8</ele><time>2026-03-08T10:05:59.000Z</time></trkpt>
<trkpt lat="42.097318" lon="23.57751"><ele>2410.8</ele><time>2026-03-08T10:06:00.000Z</time></trkpt>
<trkpt lat="42.097315" lon="23.577506"><ele>2410.8</ele><time>2026-03-08T10:06:01.000Z</time></trkpt>
<trkpt lat="42.097312" lon="23.577503"><ele>2410.7</ele><time>2026-03-08T10:06:02.000Z</time></trkpt>
<trkpt lat="42.097308" lon="23.5775"><ele>2410.7</ele><time>2026-03-08T10:06:03.000Z</time></trkpt>
<trkpt lat="42.097304" lon="23.577495"><ele>2410.7</ele><time>2026-03-08T10:06:04.000Z</time></trkpt>
<trkpt lat="42.0973" lon="23.577491"><ele>2410.7</ele><time>2026-03-08T10:06:05.000Z</time></trkpt>
<trkpt lat="42.097298" lon="23.577487"><ele>2410.7</ele><time>2026-03-08T10:06:06.000Z</time></trkpt>
<trkpt lat="42.097296" lon="23.577483"><ele>2411.2</ele><time>2026-03-08T10:06:07.000Z</time></trkpt>
<trkpt lat="42.097296" lon="23.57748"><ele>2411.2</ele><time>2026-03-08T10:06:08.000Z</time></trkpt>
<trkpt lat="42.097296" lon="23.577478"><ele>2411.2</ele><time>2026-03-08T10:06:09.000Z</time></trkpt>
<trkpt lat="42.097297" lon="23.577475"><ele>2411.2</ele><time>2026-03-08T10:06:10.000Z</time></trkpt>
<trkpt lat="42.097298" lon="23.577472"><ele>2411.2</ele><time>2026-03-08T10:06:11.000Z</time></trkpt>
<trkpt lat="42.0973" lon="23.57747"><ele>2411.6</ele><time>2026-03-08T10:06:12.000Z</time></trkpt>
<trkpt lat="42.097302" lon="23.577467"><ele>2411.6</ele><time>2026-03-08T10:06:13.000Z</time></trkpt>
<trkpt lat="42.097304" lon="23.577463"><ele>2411.6</ele><time>2026-03-08T10:06:14.000Z</time></trkpt>
<trkpt lat="42.097305" lon="23.57746"><ele>2411.6</ele><time>2026-03-08T10:06:15.000Z</time></trkpt>
<trkpt lat="42.097305" lon="23.577458"><ele>2411.6</ele><time>2026-03-08T10:06:16.000Z</time></trkpt>
<trkpt lat="42.097305" lon="23.577455"><ele>2412.7</ele><time>2026-03-08T10:06:17.000Z</time></trkpt>
<trkpt lat="42.097304" lon="23.577452"><ele>2412.7</ele><time>2026-03-08T10:06:18.000Z</time></trkpt>
<trkpt lat="42.097304" lon="23.57745"><ele>2412.7</ele><time>2026-03-08T10:06:19.000Z</time></trkpt>
<trkpt lat="42.097303" lon="23.577447"><ele>2412.7</ele><time>2026-03-08T10:06:20.000Z</time></trkpt>
<trkpt lat="42.097303" lon="23.577444"><ele>2412.7</ele><time>2026-03-08T10:06:21.000Z</time></trkpt>
<trkpt lat="42.097302" lon="23.577442"><ele>2413.8</ele><time>2026-03-08T10:06:22.000Z</time></trkpt>
<trkpt lat="42.097301" lon="23.577441"><ele>2413.8</ele><time>2026-03-08T10:06:23.000Z</time></trkpt>
<trkpt lat="42.097301" lon="23.57744"><ele>2413.8</ele><time>2026-03-08T10:06:24.000Z</time></trkpt>
<trkpt lat="42.0973" lon="23.57744"><ele>2413.8</ele><time>2026-03-08T10:06:25.000Z</time></trkpt>
<trkpt lat="42.0973" lon="23.57744"><ele>2413.8</ele><time>2026-03-08T10:06:26.000Z</time></trkpt>
<trkpt lat="42.097299" lon="23.577438"><ele>2414.3</ele><time>2026-03-08T10:06:27.000Z</time></trkpt>
<trkpt lat="42.097299" lon="23.577436"><ele>2414.3</ele><time>2026-03-08T10:06:28.000Z</time></trkpt>
<trkpt lat="42.097298" lon="23.577433"><ele>2414.3</ele><time>2026-03-08T10:06:29.000Z</time></trkpt>
<trkpt lat="42.097296" lon="23.57743"><ele>2414.3</ele><time>2026-03-08T10:06:30.000Z</time></trkpt>
<trkpt lat="42.097294" lon="23.577425"><ele>2414.3</ele><time>2026-03-08T10:06:31.000Z</time></trkpt>
<trkpt lat="42.097292" lon="23.577422"><ele>2415.1</ele><time>2026-03-08T10:06:32.000Z</time></trkpt>
<trkpt lat="42.09729" lon="23.577417"><ele>2415.1</ele><time>2026-03-08T10:06:33.000Z</time></trkpt>
<trkpt lat="42.097288" lon="23.577414"><ele>2415.1</ele><time>2026-03-08T10:06:34.000Z</time></trkpt>
<trkpt lat="42.097287" lon="23.577409"><ele>2415.1</ele><time>2026-03-08T10:06:35.000Z</time></trkpt>
<trkpt lat="42.097287" lon="23.577405"><ele>2415.1</ele><time>2026-03-08T10:06:36.000Z</time></trkpt>
<trkpt lat="42.097288" lon="23.577402"><ele>2415.8</ele><time>2026-03-08T10:06:37.000Z</time></trkpt>
<trkpt lat="42.097289" lon="23.577398"><ele>2415.8</ele><time>2026-03-08T10:06:38.000Z</time></trkpt>
<trkpt lat="42.09729" lon="23.577395"><ele>2415.8</ele><time>2026-03-08T10:06:39.000Z</time></trkpt>
<trkpt lat="42.097291" lon="23.577393"><ele>2415.8</ele><time>2026-03-08T10:06:40.000Z</time></trkpt>
<trkpt lat="42.097291" lon="23.57739"><ele>2415.8</ele><time>2026-03-08T10:06:41.000Z</time></trkpt>
<trkpt lat="42.097292" lon="23.577388"><ele>2416.2</ele><time>2026-03-08T10:06:42.000Z</time></trkpt>
<trkpt lat="42.097293" lon="23.577385"><ele>2416.2</ele><time>2026-03-08T10:06:43.000Z</time></trkpt>
<trkpt lat="42.097293" lon="23.577382"><ele>2416.2</ele><time>2026-03-08T10:06:44.000Z</time></trkpt>
<trkpt lat="42.097293" lon="23.577378"><ele>2416.2</ele><time>2026-03-08T10:06:45.000Z</time></trkpt>
<trkpt lat="42.097293" lon="23.577375"><ele>2416.2</ele><time>2026-03-08T10:06:46.000Z</time></trkpt>
<trkpt lat="42.097292" lon="23.577371"><ele>2417</ele><time>2026-03-08T10:06:47.000Z</time></trkpt>
<trkpt lat="42.097291" lon="23.577367"><ele>2417</ele><time>2026-03-08T10:06:48.000Z</time></trkpt>
<trkpt lat="42.09729" lon="23.577363"><ele>2417</ele><time>2026-03-08T10:06:49.000Z</time></trkpt>
<trkpt lat="42.097289" lon="23.577358"><ele>2417</ele><time>2026-03-08T10:06:50.000Z</time></trkpt>
<trkpt lat="42.097288" lon="23.577355"><ele>2417</ele><time>2026-03-08T10:06:51.000Z</time></trkpt>
<trkpt lat="42.097288" lon="23.577352"><ele>2417.9</ele><time>2026-03-08T10:06:52.000Z</time></trkpt>
<trkpt lat="42.097289" lon="23.57735"><ele>2417.9</ele><time>2026-03-08T10:06:53.000Z</time></trkpt>
<trkpt lat="42.09729" lon="23.577349"><ele>2417.9</ele><time>2026-03-08T10:06:54.000Z</time></trkpt>
<trkpt lat="42.09729" lon="23.577349"><ele>2417.9</ele><time>2026-03-08T10:06:55.000Z</time></trkpt>
<trkpt lat="42.09729" lon="23.57735"><ele>2417.9</ele><time>2026-03-08T10:06:56.000Z</time></trkpt>
<trkpt lat="42.09729" lon="23.57735"><ele>2418.3</ele><time>2026-03-08T10:06:57.000Z</time></trkpt>
<trkpt lat="42.097289" lon="23.57735"><ele>2418.3</ele><time>2026-03-08T10:06:58.000Z</time></trkpt>
<trkpt lat="42.097288" lon="23.577349"><ele>2418.3</ele><time>2026-03-08T10:06:59.000Z</time></trkpt>
<trkpt lat="42.097288" lon="23.57735"><ele>2418.3</ele><time>2026-03-08T10:07:00.000Z</time></trkpt>
<trkpt lat="42.097287" lon="23.57735"><ele>2418.3</ele><time>2026-03-08T10:07:01.000Z</time></trkpt>
<trkpt lat="42.097287" lon="23.57735"><ele>2419.3</ele><time>2026-03-08T10:07:02.000Z</time></trkpt>
<trkpt lat="42.097286" lon="23.57735"><ele>2419.3</ele><time>2026-03-08T10:07:03.000Z</time></trkpt>
<trkpt lat="42.097286" lon="23.57735"><ele>2419.3</ele><time>2026-03-08T10:07:04.000Z</time></trkpt>
<trkpt lat="42.097285" lon="23.57735"><ele>2419.3</ele><time>2026-03-08T10:07:05.000Z</time></trkpt>
<trkpt lat="42.097285" lon="23.57735"><ele>2419.3</ele><time>2026-03-08T10:07:06.000Z</time></trkpt>
<trkpt lat="42.097285" lon="23.57735"><ele>2420.2</ele><time>2026-03-08T10:07:07.000Z</time></trkpt>
<trkpt lat="42.097285" lon="23.57735"><ele>2420.2</ele><time>2026-03-08T10:07:08.000Z</time></trkpt>
<trkpt lat="42.097285" lon="23.57735"><ele>2420.2</ele><time>2026-03-08T10:07:09.000Z</time></trkpt>
<trkpt lat="42.097285" lon="23.57735"><ele>2420.2</ele><time>2026-03-08T10:07:10.000Z</time></trkpt>
<trkpt lat="42.097285" lon="23.57735"><ele>2420.2</ele><time>2026-03-08T10:07:11.000Z</time></trkpt>
<trkpt lat="42.097285" lon="23.57735"><ele>2420.5</ele><time>2026-03-08T10:07:12.000Z</time></trkpt>
<trkpt lat="42.097285" lon="23.57735"><ele>2420.5</ele><time>2026-03-08T10:07:13.000Z</time></trkpt>
<trkpt lat="42.097285" lon="23.57735"><ele>2420.5</ele><time>2026-03-08T10:07:14.000Z</time></trkpt>
<trkpt lat="42.097285" lon="23.57735"><ele>2420.5</ele><time>2026-03-08T10:07:15.000Z</time></trkpt>
<trkpt lat="42.097285" lon="23.57735"><ele>2420.5</ele><time>2026-03-08T10:07:16.000Z</time></trkpt>
<trkpt lat="42.097285" lon="23.57735"><ele>2420.6</ele><time>2026-03-08T10:07:17.000Z</time></trkpt>
<trkpt lat="42.097285" lon="23.577349"><ele>2420.6</ele><time>2026-03-08T10:07:18.000Z</time></trkpt>
<trkpt lat="42.097285" lon="23.577349"><ele>2420.6</ele><time>2026-03-08T10:07:19.000Z</time></trkpt>
<trkpt lat="42.097285" lon="23.577349"><ele>2420.6</ele><time>2026-03-08T10:07:20.000Z</time></trkpt>
<trkpt lat="42.097285" lon="23.577349"><ele>2420.6</ele><time>2026-03-08T10:07:21.000Z</time></trkpt>
<trkpt lat="42.097285" lon="23.577349"><ele>2420.5</ele><time>2026-03-08T10:07:22.000Z</time></trkpt>
<trkpt lat="42.097285" lon="23.577349"><ele>2420.5</ele><time>2026-03-08T10:07:23.000Z</time></trkpt>
<trkpt lat="42.097285" lon="23.577349"><ele>2420.5</ele><time>2026-03-08T10:07:24.000Z</time></trkpt>
<trkpt lat="42.097285" lon="23.577349"><ele>2420.5</ele><time>2026-03-08T10:07:25.000Z</time></trkpt>
<trkpt lat="42.097285" lon="23.577349"><ele>2420.5</ele><time>2026-03-08T10:07:26.000Z</time></trkpt>
<trkpt lat="42.097285" lon="23.577349"><ele>2420.5</ele><time>2026-03-08T10:07:27.000Z</time></trkpt>
<trkpt lat="42.097285" lon="23.577349"><ele>2420.5</ele><time>2026-03-08T10:07:28.000Z</time></trkpt>
<trkpt lat="42.097285" lon="23.57735"><ele>2420.5</ele><time>2026-03-08T10:07:29.000Z</time></trkpt>
<trkpt lat="42.097284" lon="23.57735"><ele>2420.5</ele><time>2026-03-08T10:07:30.000Z</time></trkpt>
<trkpt lat="42.097284" lon="23.57735"><ele>2420.5</ele><time>2026-03-08T10:07:31.000Z</time></trkpt>
<trkpt lat="42.097284" lon="23.577351"><ele>2420.5</ele><time>2026-03-08T10:07:32.000Z</time></trkpt>
<trkpt lat="42.097283" lon="23.577351"><ele>2420.5</ele><time>2026-03-08T10:07:33.000Z</time></trkpt>
<trkpt lat="42.097283" lon="23.577351"><ele>2420.5</ele><time>2026-03-08T10:07:34.000Z</time></trkpt>
<trkpt lat="42.097283" lon="23.577351"><ele>2420.5</ele><time>2026-03-08T10:07:35.000Z</time></trkpt>
<trkpt lat="42.097283" lon="23.577352"><ele>2420.5</ele><time>2026-03-08T10:07:36.000Z</time></trkpt>
<trkpt lat="42.097282" lon="23.577353"><ele>2420.3</ele><time>2026-03-08T10:07:37.000Z</time></trkpt>
<trkpt lat="42.097281" lon="23.577354"><ele>2420.3</ele><time>2026-03-08T10:07:38.000Z</time></trkpt>
<trkpt lat="42.09728" lon="23.577355"><ele>2420.3</ele><time>2026-03-08T10:07:39.000Z</time></trkpt>
<trkpt lat="42.09728" lon="23.577355"><ele>2420.3</ele><time>2026-03-08T10:07:40.000Z</time></trkpt>
<trkpt lat="42.09728" lon="23.577356"><ele>2420.3</ele><time>2026-03-08T10:07:41.000Z</time></trkpt>
<trkpt lat="42.09728" lon="23.577356"><ele>2420.2</ele><time>2026-03-08T10:07:42.000Z</time></trkpt>
<trkpt lat="42.09728" lon="23.577356"><ele>2420.2</ele><time>2026-03-08T10:07:43.000Z</time></trkpt>
<trkpt lat="42.09728" lon="23.577356"><ele>2420.2</ele><time>2026-03-08T10:07:44.000Z</time></trkpt>
<trkpt lat="42.09728" lon="23.577356"><ele>2420.2</ele><time>2026-03-08T10:07:45.000Z</time></trkpt>
<trkpt lat="42.09728" lon="23.577356"><ele>2420.2</ele><time>2026-03-08T10:07:46.000Z</time></trkpt>
<trkpt lat="42.09728" lon="23.577356"><ele>2419.9</ele><time>2026-03-08T10:07:47.000Z</time></trkpt>
<trkpt lat="42.09728" lon="23.577356"><ele>2419.9</ele><time>2026-03-08T10:07:48.000Z</time></trkpt>
<trkpt lat="42.09728" lon="23.577356"><ele>2419.9</ele><time>2026-03-08T10:07:49.000Z</time></trkpt>
<trkpt lat="42.09728" lon="23.577355"><ele>2419.9</ele><time>2026-03-08T10:07:50.000Z</time></trkpt>
<trkpt lat="42.09728" lon="23.577355"><ele>2419.9</ele><time>2026-03-08T10:07:51.000Z</time></trkpt>
<trkpt lat="42.09728" lon="23.577355"><ele>2419.9</ele><time>2026-03-08T10:07:52.000Z</time></trkpt>
<trkpt lat="42.09728" lon="23.577355"><ele>2419.9</ele><time>2026-03-08T10:07:53.000Z</time></trkpt>
<trkpt lat="42.09728" lon="23.577354"><ele>2419.9</ele><time>2026-03-08T10:07:54.000Z</time></trkpt>
<trkpt lat="42.09728" lon="23.577355"><ele>2419.9</ele><time>2026-03-08T10:07:55.000Z</time></trkpt>
<trkpt lat="42.09728" lon="23.577355"><ele>2419.9</ele><time>2026-03-08T10:07:56.000Z</time></trkpt>
<trkpt lat="42.09728" lon="23.577355"><ele>2419.9</ele><time>2026-03-08T10:07:57.000Z</time></trkpt>
<trkpt lat="42.09728" lon="23.577355"><ele>2419.9</ele><time>2026-03-08T10:07:58.000Z</time></trkpt>
<trkpt lat="42.09728" lon="23.577355"><ele>2419.9</ele><time>2026-03-08T10:07:59.000Z</time></trkpt>
<trkpt lat="42.097279" lon="23.577355"><ele>2419.9</ele><time>2026-03-08T10:08:00.000Z</time></trkpt>
<trkpt lat="42.097279" lon="23.577355"><ele>2419.9</ele><time>2026-03-08T10:08:01.000Z</time></trkpt>
<trkpt lat="42.097279" lon="23.577355"><ele>2419.9</ele><time>2026-03-08T10:08:02.000Z</time></trkpt>
<trkpt lat="42.097279" lon="23.577354"><ele>2419.9</ele><time>2026-03-08T10:08:03.000Z</time></trkpt>
<trkpt lat="42.097279" lon="23.577354"><ele>2419.9</ele><time>2026-03-08T10:08:04.000Z</time></trkpt>
<trkpt lat="42.097279" lon="23.577352"><ele>2419.9</ele><time>2026-03-08T10:08:05.000Z</time></trkpt>
<trkpt lat="42.097278" lon="23.57735"><ele>2419.9</ele><time>2026-03-08T10:08:06.000Z</time></trkpt>
<trkpt lat="42.097278" lon="23.577347"><ele>2419.8</ele><time>2026-03-08T10:08:07.000Z</time></trkpt>
<trkpt lat="42.097277" lon="23.577344"><ele>2419.8</ele><time>2026-03-08T10:08:08.000Z</time></trkpt>
<trkpt lat="42.097275" lon="23.577341"><ele>2419.8</ele><time>2026-03-08T10:08:09.000Z</time></trkpt>
<trkpt lat="42.097273" lon="23.577338"><ele>2419.8</ele><time>2026-03-08T10:08:10.000Z</time></trkpt>
<trkpt lat="42.097271" lon="23.577336"><ele>2419.8</ele><time>2026-03-08T10:08:11.000Z</time></trkpt>
<trkpt lat="42.09727" lon="23.577334"><ele>2419.8</ele><time>2026-03-08T10:08:12.000Z</time></trkpt>
<trkpt lat="42.097268" lon="23.577332"><ele>2419.8</ele><time>2026-03-08T10:08:13.000Z</time></trkpt>
<trkpt lat="42.097266" lon="23.577329"><ele>2419.8</ele><time>2026-03-08T10:08:14.000Z</time></trkpt>
<trkpt lat="42.097265" lon="23.577326"><ele>2419.8</ele><time>2026-03-08T10:08:15.000Z</time></trkpt>
<trkpt lat="42.097264" lon="23.577322"><ele>2419.8</ele><time>2026-03-08T10:08:16.000Z</time></trkpt>
<trkpt lat="42.097263" lon="23.577318"><ele>2420</ele><time>2026-03-08T10:08:17.000Z</time></trkpt>
<trkpt lat="42.097263" lon="23.577315"><ele>2420</ele><time>2026-03-08T10:08:18.000Z</time></trkpt>
<trkpt lat="42.097263" lon="23.577313"><ele>2420</ele><time>2026-03-08T10:08:19.000Z</time></trkpt>
<trkpt lat="42.097263" lon="23.577311"><ele>2420</ele><time>2026-03-08T10:08:20.000Z</time></trkpt>
<trkpt lat="42.097263" lon="23.577309"><ele>2420</ele><time>2026-03-08T10:08:21.000Z</time></trkpt>
<trkpt lat="42.097263" lon="23.577307"><ele>2420.5</ele><time>2026-03-08T10:08:22.000Z</time></trkpt>
<trkpt lat="42.097263" lon="23.577306"><ele>2420.5</ele><time>2026-03-08T10:08:23.000Z</time></trkpt>
<trkpt lat="42.097263" lon="23.577304"><ele>2420.5</ele><time>2026-03-08T10:08:24.000Z</time></trkpt>
<trkpt lat="42.097262" lon="23.577303"><ele>2420.5</ele><time>2026-03-08T10:08:25.000Z</time></trkpt>
<trkpt lat="42.097262" lon="23.577302"><ele>2420.5</ele><time>2026-03-08T10:08:26.000Z</time></trkpt>
<trkpt lat="42.097261" lon="23.577301"><ele>2420.9</ele><time>2026-03-08T10:08:27.000Z</time></trkpt>
<trkpt lat="42.09726" lon="23.577298"><ele>2420.9</ele><time>2026-03-08T10:08:28.000Z</time></trkpt>
<trkpt lat="42.09726" lon="23.577296"><ele>2420.9</ele><time>2026-03-08T10:08:29.000Z</time></trkpt>
<trkpt lat="42.097259" lon="23.577292"><ele>2420.9</ele><time>2026-03-08T10:08:30.000Z</time></trkpt>
<trkpt lat="42.097259" lon="23.577289"><ele>2420.9</ele><time>2026-03-08T10:08:31.000Z</time></trkpt>
<trkpt lat="42.097259" lon="23.577284"><ele>2421.8</ele><time>2026-03-08T10:08:32.000Z</time></trkpt>
<trkpt lat="42.097261" lon="23.577279"><ele>2421.8</ele><time>2026-03-08T10:08:33.000Z</time></trkpt>
<trkpt lat="42.097261" lon="23.577274"><ele>2421.8</ele><time>2026-03-08T10:08:34.000Z</time></trkpt>
<trkpt lat="42.097261" lon="23.577269"><ele>2421.8</ele><time>2026-03-08T10:08:35.000Z</time></trkpt>
<trkpt lat="42.097262" lon="23.577262"><ele>2421.8</ele><time>2026-03-08T10:08:36.000Z</time></trkpt>
<trkpt lat="42.097262" lon="23.577257"><ele>2422.7</ele><time>2026-03-08T10:08:37.000Z</time></trkpt>
<trkpt lat="42.097262" lon="23.577252"><ele>2422.7</ele><time>2026-03-08T10:08:38.000Z</time></trkpt>
<trkpt lat="42.097263" lon="23.577246"><ele>2422.7</ele><time>2026-03-08T10:08:39.000Z</time></trkpt>
<trkpt lat="42.097264" lon="23.577241"><ele>2422.7</ele><time>2026-03-08T10:08:40.000Z</time></trkpt>
<trkpt lat="42.097265" lon="23.577237"><ele>2422.7</ele><time>2026-03-08T10:08:41.000Z</time></trkpt>
<trkpt lat="42.097266" lon="23.577232"><ele>2423.3</ele><time>2026-03-08T10:08:42.000Z</time></trkpt>
<trkpt lat="42.097267" lon="23.577228"><ele>2423.3</ele><time>2026-03-08T10:08:43.000Z</time></trkpt>
<trkpt lat="42.097268" lon="23.577224"><ele>2423.3</ele><time>2026-03-08T10:08:44.000Z</time></trkpt>
<trkpt lat="42.097268" lon="23.57722"><ele>2423.3</ele><time>2026-03-08T10:08:45.000Z</time></trkpt>
<trkpt lat="42.097269" lon="23.577216"><ele>2423.3</ele><time>2026-03-08T10:08:46.000Z</time></trkpt>
<trkpt lat="42.097268" lon="23.577212"><ele>2424.8</ele><time>2026-03-08T10:08:47.000Z</time></trkpt>
<trkpt lat="42.097269" lon="23.577207"><ele>2424.8</ele><time>2026-03-08T10:08:48.000Z</time></trkpt>
<trkpt lat="42.097269" lon="23.577201"><ele>2424.8</ele><time>2026-03-08T10:08:49.000Z</time></trkpt>
<trkpt lat="42.09727" lon="23.577195"><ele>2424.8</ele><time>2026-03-08T10:08:50.000Z</time></trkpt>
<trkpt lat="42.097271" lon="23.57719"><ele>2424.8</ele><time>2026-03-08T10:08:51.000Z</time></trkpt>
<trkpt lat="42.097273" lon="23.577183"><ele>2426.5</ele><time>2026-03-08T10:08:52.000Z</time></trkpt>
<trkpt lat="42.097274" lon="23.577177"><ele>2426.5</ele><time>2026-03-08T10:08:53.000Z</time></trkpt>
<trkpt lat="42.097276" lon="23.577169"><ele>2426.5</ele><time>2026-03-08T10:08:54.000Z</time></trkpt>
<trkpt lat="42.097278" lon="23.577162"><ele>2426.5</ele><time>2026-03-08T10:08:55.000Z</time></trkpt>
<trkpt lat="42.09728" lon="23.577155"><ele>2426.5</ele><time>2026-03-08T10:08:56.000Z</time></trkpt>
<trkpt lat="42.097281" lon="23.577149"><ele>2427.4</ele><time>2026-03-08T10:08:57.000Z</time></trkpt>
<trkpt lat="42.097282" lon="23.577144"><ele>2427.4</ele><time>2026-03-08T10:08:58.000Z</time></trkpt>
<trkpt lat="42.097283" lon="23.57714"><ele>2427.4</ele><time>2026-03-08T10:08:59.000Z</time></trkpt>
<trkpt lat="42.097285" lon="23.577138"><ele>2427.4</ele><time>2026-03-08T10:09:00.000Z</time></trkpt>
<trkpt lat="42.097285" lon="23.577136"><ele>2427.4</ele><time>2026-03-08T10:09:01.000Z</time></trkpt>
<trkpt lat="42.097287" lon="23.577136"><ele>2428.9</ele><time>2026-03-08T10:09:02.000Z</time></trkpt>
<trkpt lat="42.097287" lon="23.577137"><ele>2428.9</ele><time>2026-03-08T10:09:03.000Z</time></trkpt>
<trkpt lat="42.097287" lon="23.577138"><ele>2428.9</ele><time>2026-03-08T10:09:04.000Z</time></trkpt>
<trkpt lat="42.097286" lon="23.577139"><ele>2428.9</ele><time>2026-03-08T10:09:05.000Z</time></trkpt>
<trkpt lat="42.097285" lon="23.577139"><ele>2428.9</ele><time>2026-03-08T10:09:06.000Z</time></trkpt>
<trkpt lat="42.097283" lon="23.577138"><ele>2430.4</ele><time>2026-03-08T10:09:07.000Z</time></trkpt>
<trkpt lat="42.097282" lon="23.577137"><ele>2430.4</ele><time>2026-03-08T10:09:08.000Z</time></trkpt>
<trkpt lat="42.09728" lon="23.577136"><ele>2430.4</ele><time>2026-03-08T10:09:09.000Z</time></trkpt>
<trkpt lat="42.097278" lon="23.577135"><ele>2430.4</ele><time>2026-03-08T10:09:10.000Z</time></trkpt>
<trkpt lat="42.097278" lon="23.577134"><ele>2430.4</ele><time>2026-03-08T10:09:11.000Z</time></trkpt>
<trkpt lat="42.097277" lon="23.577134"><ele>2431</ele><time>2026-03-08T10:09:12.000Z</time></trkpt>
<trkpt lat="42.097277" lon="23.577133"><ele>2431</ele><time>2026-03-08T10:09:13.000Z</time></trkpt>
<trkpt lat="42.097277" lon="23.577133"><ele>2431</ele><time>2026-03-08T10:09:14.000Z</time></trkpt>
<trkpt lat="42.097277" lon="23.577133"><ele>2431</ele><time>2026-03-08T10:09:15.000Z</time></trkpt>
<trkpt lat="42.097277" lon="23.577133"><ele>2431</ele><time>2026-03-08T10:09:16.000Z</time></trkpt>
<trkpt lat="42.097277" lon="23.577133"><ele>2431.9</ele><time>2026-03-08T10:09:17.000Z</time></trkpt>
<trkpt lat="42.097277" lon="23.577133"><ele>2431.9</ele><time>2026-03-08T10:09:18.000Z</time></trkpt>
<trkpt lat="42.097277" lon="23.577133"><ele>2431.9</ele><time>2026-03-08T10:09:19.000Z</time></trkpt>
<trkpt lat="42.097277" lon="23.577133"><ele>2431.9</ele><time>2026-03-08T10:09:20.000Z</time></trkpt>
<trkpt lat="42.097277" lon="23.577133"><ele>2431.9</ele><time>2026-03-08T10:09:21.000Z</time></trkpt>
<trkpt lat="42.097277" lon="23.577133"><ele>2432.3</ele><time>2026-03-08T10:09:22.000Z</time></trkpt>
<trkpt lat="42.097277" lon="23.577133"><ele>2432.3</ele><time>2026-03-08T10:09:23.000Z</time></trkpt>
<trkpt lat="42.097277" lon="23.577133"><ele>2432.3</ele><time>2026-03-08T10:09:24.000Z</time></trkpt>
<trkpt lat="42.097277" lon="23.577133"><ele>2432.3</ele><time>2026-03-08T10:09:25.000Z</time></trkpt>
<trkpt lat="42.097277" lon="23.577133"><ele>2432.3</ele><time>2026-03-08T10:09:26.000Z</time></trkpt>
<trkpt lat="42.097277" lon="23.577133"><ele>2432.4</ele><time>2026-03-08T10:09:27.000Z</time></trkpt>
<trkpt lat="42.097276" lon="23.577133"><ele>2432.4</ele><time>2026-03-08T10:09:28.000Z</time></trkpt>
<trkpt lat="42.097276" lon="23.577134"><ele>2432.4</ele><time>2026-03-08T10:09:29.000Z</time></trkpt>
<trkpt lat="42.097276" lon="23.577134"><ele>2432.4</ele><time>2026-03-08T10:09:30.000Z</time></trkpt>
<trkpt lat="42.097276" lon="23.577134"><ele>2432.4</ele><time>2026-03-08T10:09:31.000Z</time></trkpt>
<trkpt lat="42.097276" lon="23.577134"><ele>2432.5</ele><time>2026-03-08T10:09:32.000Z</time></trkpt>
<trkpt lat="42.097276" lon="23.577134"><ele>2432.5</ele><time>2026-03-08T10:09:33.000Z</time></trkpt>
<trkpt lat="42.097276" lon="23.577134"><ele>2432.5</ele><time>2026-03-08T10:09:34.000Z</time></trkpt>
<trkpt lat="42.097276" lon="23.577134"><ele>2432.5</ele><time>2026-03-08T10:09:35.000Z</time></trkpt>
<trkpt lat="42.097275" lon="23.577134"><ele>2432.5</ele><time>2026-03-08T10:09:36.000Z</time></trkpt>
<trkpt lat="42.097275" lon="23.577134"><ele>2432.4</ele><time>2026-03-08T10:09:37.000Z</time></trkpt>
<trkpt lat="42.097275" lon="23.577134"><ele>2432.4</ele><time>2026-03-08T10:09:38.000Z</time></trkpt>
<trkpt lat="42.097275" lon="23.577134"><ele>2432.4</ele><time>2026-03-08T10:09:39.000Z</time></trkpt>
<trkpt lat="42.097275" lon="23.577134"><ele>2432.4</ele><time>2026-03-08T10:09:40.000Z</time></trkpt>
<trkpt lat="42.097275" lon="23.577134"><ele>2432.4</ele><time>2026-03-08T10:09:41.000Z</time></trkpt>
<trkpt lat="42.097275" lon="23.577134"><ele>2432.4</ele><time>2026-03-08T10:09:42.000Z</time></trkpt>
<trkpt lat="42.097275" lon="23.577135"><ele>2432.4</ele><time>2026-03-08T10:09:43.000Z</time></trkpt>
<trkpt lat="42.097274" lon="23.577135"><ele>2432.4</ele><time>2026-03-08T10:09:44.000Z</time></trkpt>
<trkpt lat="42.097274" lon="23.577136"><ele>2432.4</ele><time>2026-03-08T10:09:45.000Z</time></trkpt>
<trkpt lat="42.097274" lon="23.577136"><ele>2432.4</ele><time>2026-03-08T10:09:46.000Z</time></trkpt>
<trkpt lat="42.097274" lon="23.577136"><ele>2432.3</ele><time>2026-03-08T10:09:47.000Z</time></trkpt>
<trkpt lat="42.097274" lon="23.577136"><ele>2432.3</ele><time>2026-03-08T10:09:48.000Z</time></trkpt>
<trkpt lat="42.097274" lon="23.577136"><ele>2432.3</ele><time>2026-03-08T10:09:49.000Z</time></trkpt>
<trkpt lat="42.097274" lon="23.577136"><ele>2432.3</ele><time>2026-03-08T10:09:50.000Z</time></trkpt>
<trkpt lat="42.097274" lon="23.577136"><ele>2432.3</ele><time>2026-03-08T10:09:51.000Z</time></trkpt>
<trkpt lat="42.097274" lon="23.577136"><ele>2432.3</ele><time>2026-03-08T10:09:52.000Z</time></trkpt>
<trkpt lat="42.097274" lon="23.577136"><ele>2432.3</ele><time>2026-03-08T10:09:53.000Z</time></trkpt>
<trkpt lat="42.097274" lon="23.577136"><ele>2432.3</ele><time>2026-03-08T10:09:54.000Z</time></trkpt>
<trkpt lat="42.097274" lon="23.577136"><ele>2432.3</ele><time>2026-03-08T10:09:55.000Z</time></trkpt>
<trkpt lat="42.097274" lon="23.577136"><ele>2432.3</ele><time>2026-03-08T10:09:56.000Z</time></trkpt>
<trkpt lat="42.097274" lon="23.577136"><ele>2432.3</ele><time>2026-03-08T10:09:57.000Z</time></trkpt>
<trkpt lat="42.097274" lon="23.577136"><ele>2432.3</ele><time>2026-03-08T10:09:58.000Z</time></trkpt>
<trkpt lat="42.097274" lon="23.577136"><ele>2432.3</ele><time>2026-03-08T10:09:59.000Z</time></trkpt>
<trkpt lat="42.097274" lon="23.577136"><ele>2432.3</ele><time>2026-03-08T10:10:00.000Z</time></trkpt>
<trkpt lat="42.097274" lon="23.577137"><ele>2432.3</ele><time>2026-03-08T10:10:01.000Z</time></trkpt>
<trkpt lat="42.097273" lon="23.577137"><ele>2432.2</ele><time>2026-03-08T10:10:02.000Z</time></trkpt>
<trkpt lat="42.097273" lon="23.577137"><ele>2432.2</ele><time>2026-03-08T10:10:03.000Z</time></trkpt>
<trkpt lat="42.097272" lon="23.577138"><ele>2432.2</ele><time>2026-03-08T10:10:04.000Z</time></trkpt>
<trkpt lat="42.097271" lon="23.577139"><ele>2432.2</ele><time>2026-03-08T10:10:05.000Z</time></trkpt>
<trkpt lat="42.09727" lon="23.577139"><ele>2432.2</ele><time>2026-03-08T10:10:06.000Z</time></trkpt>
<trkpt lat="42.097269" lon="23.577139"><ele>2432.2</ele><time>2026-03-08T10:10:07.000Z</time></trkpt>
<trkpt lat="42.097269" lon="23.57714"><ele>2432.2</ele><time>2026-03-08T10:10:08.000Z</time></trkpt>
<trkpt lat="42.097268" lon="23.577139"><ele>2432.2</ele><time>2026-03-08T10:10:09.000Z</time></trkpt>
<trkpt lat="42.097268" lon="23.577138"><ele>2432.2</ele><time>2026-03-08T10:10:10.000Z</time></trkpt>
<trkpt lat="42.097267" lon="23.577137"><ele>2432.2</ele><time>2026-03-08T10:10:11.000Z</time></trkpt>
<trkpt lat="42.097267" lon="23.577136"><ele>2432.1</ele><time>2026-03-08T10:10:12.000Z</time></trkpt>
<trkpt lat="42.097267" lon="23.577133"><ele>2432.1</ele><time>2026-03-08T10:10:13.000Z</time></trkpt>
<trkpt lat="42.097268" lon="23.577131"><ele>2432.1</ele><time>2026-03-08T10:10:14.000Z</time></trkpt>
<trkpt lat="42.097268" lon="23.577127"><ele>2432.1</ele><time>2026-03-08T10:10:15.000Z</time></trkpt>
<trkpt lat="42.097268" lon="23.577123"><ele>2432.1</ele><time>2026-03-08T10:10:16.000Z</time></trkpt>
<trkpt lat="42.097268" lon="23.577117"><ele>2432.2</ele><time>2026-03-08T10:10:17.000Z</time></trkpt>
<trkpt lat="42.097268" lon="23.577111"><ele>2432.2</ele><time>2026-03-08T10:10:18.000Z</time></trkpt>
<trkpt lat="42.097269" lon="23.577105"><ele>2432.2</ele><time>2026-03-08T10:10:19.000Z</time></trkpt>
<trkpt lat="42.097271" lon="23.577099"><ele>2432.2</ele><time>2026-03-08T10:10:20.000Z</time></trkpt>
<trkpt lat="42.097272" lon="23.577093"><ele>2432.2</ele><time>2026-03-08T10:10:21.000Z</time></trkpt>
<trkpt lat="42.097274" lon="23.577088"><ele>2432.7</ele><time>2026-03-08T10:10:22.000Z</time></trkpt>
<trkpt lat="42.097277" lon="23.577081"><ele>2432.7</ele><time>2026-03-08T10:10:23.000Z</time></trkpt>
<trkpt lat="42.097278" lon="23.577074"><ele>2432.7</ele><time>2026-03-08T10:10:24.000Z</time></trkpt>
<trkpt lat="42.09728" lon="23.577067"><ele>2432.7</ele><time>2026-03-08T10:10:25.000Z</time></trkpt>
<trkpt lat="42.09728" lon="23.577062"><ele>2432.7</ele><time>2026-03-08T10:10:26.000Z</time></trkpt>
<trkpt lat="42.097281" lon="23.577057"><ele>2433.1</ele><time>2026-03-08T10:10:27.000Z</time></trkpt>
<trkpt lat="42.09728" lon="23.577055"><ele>2433.1</ele><time>2026-03-08T10:10:28.000Z</time></trkpt>
<trkpt lat="42.097279" lon="23.577054"><ele>2433.1</ele><time>2026-03-08T10:10:29.000Z</time></trkpt>
<trkpt lat="42.097278" lon="23.577053"><ele>2433.1</ele><time>2026-03-08T10:10:30.000Z</time></trkpt>
<trkpt lat="42.097277" lon="23.577052"><ele>2433.1</ele><time>2026-03-08T10:10:31.000Z</time></trkpt>
<trkpt lat="42.097276" lon="23.577053"><ele>2434.2</ele><time>2026-03-08T10:10:32.000Z</time></trkpt>
<trkpt lat="42.097276" lon="23.577052"><ele>2434.2</ele><time>2026-03-08T10:10:33.000Z</time></trkpt>
<trkpt lat="42.097276" lon="23.577052"><ele>2434.2</ele><time>2026-03-08T10:10:34.000Z</time></trkpt>
<trkpt lat="42.097276" lon="23.577052"><ele>2434.2</ele><time>2026-03-08T10:10:35.000Z</time></trkpt>
<trkpt lat="42.097275" lon="23.577053"><ele>2434.2</ele><time>2026-03-08T10:10:36.000Z</time></trkpt>
<trkpt lat="42.097274" lon="23.577054"><ele>2435.3</ele><time>2026-03-08T10:10:37.000Z</time></trkpt>
<trkpt lat="42.097274" lon="23.577055"><ele>2435.3</ele><time>2026-03-08T10:10:38.000Z</time></trkpt>
<trkpt lat="42.097273" lon="23.577056"><ele>2435.3</ele><time>2026-03-08T10:10:39.000Z</time></trkpt>
<trkpt lat="42.097272" lon="23.577054"><ele>2435.3</ele><time>2026-03-08T10:10:40.000Z</time></trkpt>
<trkpt lat="42.097271" lon="23.577052"><ele>2435.3</ele><time>2026-03-08T10:10:41.000Z</time></trkpt>
<trkpt lat="42.097271" lon="23.577048"><ele>2435.7</ele><time>2026-03-08T10:10:42.000Z</time></trkpt>
<trkpt lat="42.09727" lon="23.577045"><ele>2435.7</ele><time>2026-03-08T10:10:43.000Z</time></trkpt>
<trkpt lat="42.09727" lon="23.577043"><ele>2435.7</ele><time>2026-03-08T10:10:44.000Z</time></trkpt>
<trkpt lat="42.097269" lon="23.577042"><ele>2435.7</ele><time>2026-03-08T10:10:45.000Z</time></trkpt>
<trkpt lat="42.09727" lon="23.577042"><ele>2435.7</ele><time>2026-03-08T10:10:46.000Z</time></trkpt>
<trkpt lat="42.097269" lon="23.577042"><ele>2436.1</ele><time>2026-03-08T10:10:47.000Z</time></trkpt>
<trkpt lat="42.097268" lon="23.577041"><ele>2436.1</ele><time>2026-03-08T10:10:48.000Z</time></trkpt>
<trkpt lat="42.097266" lon="23.577039"><ele>2436.1</ele><time>2026-03-08T10:10:49.000Z</time></trkpt>
<trkpt lat="42.097264" lon="23.577037"><ele>2436.1</ele><time>2026-03-08T10:10:50.000Z</time></trkpt>
<trkpt lat="42.097262" lon="23.577034"><ele>2436.1</ele><time>2026-03-08T10:10:51.000Z</time></trkpt>
<trkpt lat="42.09726" lon="23.577031"><ele>2436.3</ele><time>2026-03-08T10:10:52.000Z</time></trkpt>
<trkpt lat="42.09726" lon="23.57703"><ele>2436.3</ele><time>2026-03-08T10:10:53.000Z</time></trkpt>
<trkpt lat="42.09726" lon="23.577029"><ele>2436.3</ele><time>2026-03-08T10:10:54.000Z</time></trkpt>
<trkpt lat="42.09726" lon="23.577028"><ele>2436.3</ele><time>2026-03-08T10:10:55.000Z</time></trkpt>
<trkpt lat="42.097259" lon="23.577026"><ele>2436.3</ele><time>2026-03-08T10:10:56.000Z</time></trkpt>
<trkpt lat="42.097259" lon="23.577025"><ele>2436.5</ele><time>2026-03-08T10:10:57.000Z</time></trkpt>
<trkpt lat="42.097259" lon="23.577023"><ele>2436.5</ele><time>2026-03-08T10:10:58.000Z</time></trkpt>
<trkpt lat="42.097257" lon="23.577022"><ele>2436.5</ele><time>2026-03-08T10:10:59.000Z</time></trkpt>
<trkpt lat="42.097256" lon="23.577021"><ele>2436.5</ele><time>2026-03-08T10:11:00.000Z</time></trkpt>
<trkpt lat="42.097255" lon="23.57702"><ele>2436.5</ele><time>2026-03-08T10:11:01.000Z</time></trkpt>
<trkpt lat="42.097253" lon="23.577021"><ele>2437</ele><time>2026-03-08T10:11:02.000Z</time></trkpt>
<trkpt lat="42.097249" lon="23.577021"><ele>2437</ele><time>2026-03-08T10:11:03.000Z</time></trkpt>
<trkpt lat="42.097246" lon="23.57702"><ele>2437</ele><time>2026-03-08T10:11:04.000Z</time></trkpt>
<trkpt lat="42.097242" lon="23.57702"><ele>2437</ele><time>2026-03-08T10:11:05.000Z</time></trkpt>
<trkpt lat="42.097236" lon="23.577019"><ele>2437</ele><time>2026-03-08T10:11:06.000Z</time></trkpt>
<trkpt lat="42.097231" lon="23.577017"><ele>2437.7</ele><time>2026-03-08T10:11:07.000Z</time></trkpt>
<trkpt lat="42.097226" lon="23.577015"><ele>2437.7</ele><time>2026-03-08T10:11:08.000Z</time></trkpt>
<trkpt lat="42.097222" lon="23.577013"><ele>2437.7</ele><time>2026-03-08T10:11:09.000Z</time></trkpt>
<trkpt lat="42.097217" lon="23.577011"><ele>2437.7</ele><time>2026-03-08T10:11:10.000Z</time></trkpt>
<trkpt lat="42.097213" lon="23.577008"><ele>2437.7</ele><time>2026-03-08T10:11:11.000Z</time></trkpt>
<trkpt lat="42.09721" lon="23.577004"><ele>2437.9</ele><time>2026-03-08T10:11:12.000Z</time></trkpt>
<trkpt lat="42.097207" lon="23.577"><ele>2437.9</ele><time>2026-03-08T10:11:13.000Z</time></trkpt>
<trkpt lat="42.097204" lon="23.576996"><ele>2437.9</ele><time>2026-03-08T10:11:14.000Z</time></trkpt>
<trkpt lat="42.097203" lon="23.576991"><ele>2437.9</ele><time>2026-03-08T10:11:15.000Z</time></trkpt>
<trkpt lat="42.097201" lon="23.576985"><ele>2437.9</ele><time>2026-03-08T10:11:16.000Z</time></trkpt>
<trkpt lat="42.097201" lon="23.576981"><ele>2438.5</ele><time>2026-03-08T10:11:17.000Z</time></trkpt>
<trkpt lat="42.097201" lon="23.576975"><ele>2438.5</ele><time>2026-03-08T10:11:18.000Z</time></trkpt>
<trkpt lat="42.097201" lon="23.576971"><ele>2438.5</ele><time>2026-03-08T10:11:19.000Z</time></trkpt>
<trkpt lat="42.097201" lon="23.576966"><ele>2438.5</ele><time>2026-03-08T10:11:20.000Z</time></trkpt>
<trkpt lat="42.097201" lon="23.576962"><ele>2438.5</ele><time>2026-03-08T10:11:21.000Z</time></trkpt>
<trkpt lat="42.097202" lon="23.576958"><ele>2439.4</ele><time>2026-03-08T10:11:22.000Z</time></trkpt>
<trkpt lat="42.097202" lon="23.576955"><ele>2439.4</ele><time>2026-03-08T10:11:23.000Z</time></trkpt>
<trkpt lat="42.097203" lon="23.576952"><ele>2439.4</ele><time>2026-03-08T10:11:24.000Z</time></trkpt>
<trkpt lat="42.097203" lon="23.57695"><ele>2439.4</ele><time>2026-03-08T10:11:25.000Z</time></trkpt>
<trkpt lat="42.097204" lon="23.576948"><ele>2439.4</ele><time>2026-03-08T10:11:26.000Z</time></trkpt>
<trkpt lat="42.097205" lon="23.576947"><ele>2440</ele><time>2026-03-08T10:11:27.000Z</time></trkpt>
<trkpt lat="42.097205" lon="23.576945"><ele>2440</ele><time>2026-03-08T10:11:28.000Z</time></trkpt>
<trkpt lat="42.097205" lon="23.576944"><ele>2440</ele><time>2026-03-08T10:11:29.000Z</time></trkpt>
<trkpt lat="42.097206" lon="23.576944"><ele>2440</ele><time>2026-03-08T10:11:30.000Z</time></trkpt>
<trkpt lat="42.097205" lon="23.576944"><ele>2440</ele><time>2026-03-08T10:11:31.000Z</time></trkpt>
<trkpt lat="42.097205" lon="23.576944"><ele>2441</ele><time>2026-03-08T10:11:32.000Z</time></trkpt>
<trkpt lat="42.097205" lon="23.576944"><ele>2441</ele><time>2026-03-08T10:11:33.000Z</time></trkpt>
<trkpt lat="42.097205" lon="23.576944"><ele>2441</ele><time>2026-03-08T10:11:34.000Z</time></trkpt>
<trkpt lat="42.097205" lon="23.576943"><ele>2441</ele><time>2026-03-08T10:11:35.000Z</time></trkpt>
<trkpt lat="42.097205" lon="23.576941"><ele>2441</ele><time>2026-03-08T10:11:36.000Z</time></trkpt>
<trkpt lat="42.097205" lon="23.576939"><ele>2441.8</ele><time>2026-03-08T10:11:37.000Z</time></trkpt>
<trkpt lat="42.097204" lon="23.576936"><ele>2441.8</ele><time>2026-03-08T10:11:38.000Z</time></trkpt>
<trkpt lat="42.097204" lon="23.576934"><ele>2441.8</ele><time>2026-03-08T10:11:39.000Z</time></trkpt>
<trkpt lat="42.097205" lon="23.576932"><ele>2441.8</ele><time>2026-03-08T10:11:40.000Z</time></trkpt>
<trkpt lat="42.097206" lon="23.576931"><ele>2441.8</ele><time>2026-03-08T10:11:41.000Z</time></trkpt>
<trkpt lat="42.097206" lon="23.576931"><ele>2442</ele><time>2026-03-08T10:11:42.000Z</time></trkpt>
<trkpt lat="42.097207" lon="23.576931"><ele>2442</ele><time>2026-03-08T10:11:43.000Z</time></trkpt>
<trkpt lat="42.097208" lon="23.576932"><ele>2442</ele><time>2026-03-08T10:11:44.000Z</time></trkpt>
<trkpt lat="42.097208" lon="23.576932"><ele>2442</ele><time>2026-03-08T10:11:45.000Z</time></trkpt>
<trkpt lat="42.097209" lon="23.576932"><ele>2442</ele><time>2026-03-08T10:11:46.000Z</time></trkpt>
<trkpt lat="42.097209" lon="23.576933"><ele>2442.3</ele><time>2026-03-08T10:11:47.000Z</time></trkpt>
<trkpt lat="42.097209" lon="23.576933"><ele>2442.3</ele><time>2026-03-08T10:11:48.000Z</time></trkpt>
<trkpt lat="42.097209" lon="23.576934"><ele>2442.3</ele><time>2026-03-08T10:11:49.000Z</time></trkpt>
<trkpt lat="42.097209" lon="23.576934"><ele>2442.3</ele><time>2026-03-08T10:11:50.000Z</time></trkpt>
<trkpt lat="42.097209" lon="23.576934"><ele>2442.3</ele><time>2026-03-08T10:11:51.000Z</time></trkpt>
<trkpt lat="42.097209" lon="23.576934"><ele>2442.2</ele><time>2026-03-08T10:11:52.000Z</time></trkpt>
<trkpt lat="42.097209" lon="23.576934"><ele>2442.2</ele><time>2026-03-08T10:11:53.000Z</time></trkpt>
<trkpt lat="42.097209" lon="23.576934"><ele>2442.2</ele><time>2026-03-08T10:11:54.000Z</time></trkpt>
<trkpt lat="42.097209" lon="23.576934"><ele>2442.2</ele><time>2026-03-08T10:11:55.000Z</time></trkpt>
<trkpt lat="42.097209" lon="23.576934"><ele>2442.2</ele><time>2026-03-08T10:11:56.000Z</time></trkpt>
<trkpt lat="42.097209" lon="23.576934"><ele>2442.2</ele><time>2026-03-08T10:11:57.000Z</time></trkpt>
<trkpt lat="42.097209" lon="23.576934"><ele>2442.2</ele><time>2026-03-08T10:11:58.000Z</time></trkpt>
<trkpt lat="42.097209" lon="23.576934"><ele>2442.2</ele><time>2026-03-08T10:11:59.000Z</time></trkpt>
<trkpt lat="42.097209" lon="23.576934"><ele>2442.2</ele><time>2026-03-08T10:12:00.000Z</time></trkpt>
<trkpt lat="42.097209" lon="23.576934"><ele>2442.2</ele><time>2026-03-08T10:12:01.000Z</time></trkpt>
<trkpt lat="42.09721" lon="23.576935"><ele>2442.2</ele><time>2026-03-08T10:12:02.000Z</time></trkpt>
<trkpt lat="42.09721" lon="23.576936"><ele>2442.2</ele><time>2026-03-08T10:12:03.000Z</time></trkpt>
<trkpt lat="42.097211" lon="23.576937"><ele>2442.2</ele><time>2026-03-08T10:12:04.000Z</time></trkpt>
<trkpt lat="42.097213" lon="23.576939"><ele>2442.2</ele><time>2026-03-08T10:12:05.000Z</time></trkpt>
<trkpt lat="42.097215" lon="23.576941"><ele>2442.2</ele><time>2026-03-08T10:12:06.000Z</time></trkpt>
<trkpt lat="42.097216" lon="23.576943"><ele>2442.5</ele><time>2026-03-08T10:12:07.000Z</time></trkpt>
<trkpt lat="42.097217" lon="23.576943"><ele>2442.5</ele><time>2026-03-08T10:12:08.000Z</time></trkpt>
<trkpt lat="42.097218" lon="23.576943"><ele>2442.5</ele><time>2026-03-08T10:12:09.000Z</time></trkpt>
<trkpt lat="42.097219" lon="23.576941"><ele>2442.5</ele><time>2026-03-08T10:12:10.000Z</time></trkpt>
<trkpt lat="42.097219" lon="23.576935"><ele>2442.5</ele><time>2026-03-08T10:12:11.000Z</time></trkpt>
<trkpt lat="42.097219" lon="23.576928"><ele>2442.5</ele><time>2026-03-08T10:12:12.000Z</time></trkpt>
<trkpt lat="42.09722" lon="23.576921"><ele>2442.5</ele><time>2026-03-08T10:12:13.000Z</time></trkpt>
<trkpt lat="42.09722" lon="23.576913"><ele>2442.5</ele><time>2026-03-08T10:12:14.000Z</time></trkpt>
<trkpt lat="42.097219" lon="23.576905"><ele>2442.5</ele><time>2026-03-08T10:12:15.000Z</time></trkpt>
<trkpt lat="42.097217" lon="23.576898"><ele>2442.5</ele><time>2026-03-08T10:12:16.000Z</time></trkpt>
<trkpt lat="42.097214" lon="23.576891"><ele>2442.7</ele><time>2026-03-08T10:12:17.000Z</time></trkpt>
<trkpt lat="42.097212" lon="23.576884"><ele>2442.7</ele><time>2026-03-08T10:12:18.000Z</time></trkpt>
<trkpt lat="42.09721" lon="23.576877"><ele>2442.7</ele><time>2026-03-08T10:12:19.000Z</time></trkpt>
<trkpt lat="42.097208" lon="23.576871"><ele>2442.7</ele><time>2026-03-08T10:12:20.000Z</time></trkpt>
<trkpt lat="42.097206" lon="23.576866"><ele>2442.7</ele><time>2026-03-08T10:12:21.000Z</time></trkpt>
<trkpt lat="42.097203" lon="23.576862"><ele>2443.3</ele><time>2026-03-08T10:12:22.000Z</time></trkpt>
<trkpt lat="42.097197" lon="23.576858"><ele>2443.3</ele><time>2026-03-08T10:12:23.000Z</time></trkpt>
<trkpt lat="42.097192" lon="23.576854"><ele>2443.3</ele><time>2026-03-08T10:12:24.000Z</time></trkpt>
<trkpt lat="42.097188" lon="23.57685"><ele>2443.3</ele><time>2026-03-08T10:12:25.000Z</time></trkpt>
<trkpt lat="42.097184" lon="23.576848"><ele>2443.3</ele><time>2026-03-08T10:12:26.000Z</time></trkpt>
<trkpt lat="42.097181" lon="23.576846"><ele>2443.7</ele><time>2026-03-08T10:12:27.000Z</time></trkpt>
<trkpt lat="42.097179" lon="23.576843"><ele>2443.7</ele><time>2026-03-08T10:12:28.000Z</time></trkpt>
<trkpt lat="42.097178" lon="23.576841"><ele>2443.7</ele><time>2026-03-08T10:12:29.000Z</time></trkpt>
<trkpt lat="42.097175" lon="23.576839"><ele>2443.7</ele><time>2026-03-08T10:12:30.000Z</time></trkpt>
<trkpt lat="42.097174" lon="23.576836"><ele>2443.7</ele><time>2026-03-08T10:12:31.000Z</time></trkpt>
<trkpt lat="42.097173" lon="23.576833"><ele>2444.8</ele><time>2026-03-08T10:12:32.000Z</time></trkpt>
<trkpt lat="42.097172" lon="23.576833"><ele>2444.8</ele><time>2026-03-08T10:12:33.000Z</time></trkpt>
<trkpt lat="42.097172" lon="23.576832"><ele>2444.8</ele><time>2026-03-08T10:12:34.000Z</time></trkpt>
<trkpt lat="42.097172" lon="23.576832"><ele>2444.8</ele><time>2026-03-08T10:12:35.000Z</time></trkpt>
<trkpt lat="42.097172" lon="23.576831"><ele>2444.8</ele><time>2026-03-08T10:12:36.000Z</time></trkpt>
<trkpt lat="42.097172" lon="23.576832"><ele>2445.5</ele><time>2026-03-08T10:12:37.000Z</time></trkpt>
<trkpt lat="42.097172" lon="23.576832"><ele>2445.5</ele><time>2026-03-08T10:12:38.000Z</time></trkpt>
<trkpt lat="42.097172" lon="23.576832"><ele>2445.5</ele><time>2026-03-08T10:12:39.000Z</time></trkpt>
<trkpt lat="42.097173" lon="23.576832"><ele>2445.5</ele><time>2026-03-08T10:12:40.000Z</time></trkpt>
<trkpt lat="42.097173" lon="23.576833"><ele>2445.5</ele><time>2026-03-08T10:12:41.000Z</time></trkpt>
<trkpt lat="42.097173" lon="23.576833"><ele>2445.6</ele><time>2026-03-08T10:12:42.000Z</time></trkpt>
<trkpt lat="42.097173" lon="23.576833"><ele>2445.6</ele><time>2026-03-08T10:12:43.000Z</time></trkpt>
<trkpt lat="42.097173" lon="23.576832"><ele>2445.6</ele><time>2026-03-08T10:12:44.000Z</time></trkpt>
<trkpt lat="42.097173" lon="23.576832"><ele>2445.6</ele><time>2026-03-08T10:12:45.000Z</time></trkpt>
<trkpt lat="42.097172" lon="23.576832"><ele>2445.6</ele><time>2026-03-08T10:12:46.000Z</time></trkpt>
<trkpt lat="42.097172" lon="23.576832"><ele>2445.7</ele><time>2026-03-08T10:12:47.000Z</time></trkpt>
<trkpt lat="42.097172" lon="23.576833"><ele>2445.7</ele><time>2026-03-08T10:12:48.000Z</time></trkpt>
<trkpt lat="42.097173" lon="23.576834"><ele>2445.7</ele><time>2026-03-08T10:12:49.000Z</time></trkpt>
<trkpt lat="42.097173" lon="23.576835"><ele>2445.7</ele><time>2026-03-08T10:12:50.000Z</time></trkpt>
<trkpt lat="42.097174" lon="23.576836"><ele>2445.7</ele><time>2026-03-08T10:12:51.000Z</time></trkpt>
<trkpt lat="42.097175" lon="23.576837"><ele>2445.7</ele><time>2026-03-08T10:12:52.000Z</time></trkpt>
<trkpt lat="42.097175" lon="23.576837"><ele>2445.7</ele><time>2026-03-08T10:12:53.000Z</time></trkpt>
<trkpt lat="42.097176" lon="23.576837"><ele>2445.7</ele><time>2026-03-08T10:12:54.000Z</time></trkpt>
<trkpt lat="42.097177" lon="23.576838"><ele>2445.7</ele><time>2026-03-08T10:12:55.000Z</time></trkpt>
<trkpt lat="42.097178" lon="23.576839"><ele>2445.7</ele><time>2026-03-08T10:12:56.000Z</time></trkpt>
<trkpt lat="42.097179" lon="23.57684"><ele>2445.7</ele><time>2026-03-08T10:12:57.000Z</time></trkpt>
<trkpt lat="42.097178" lon="23.576839"><ele>2445.7</ele><time>2026-03-08T10:12:58.000Z</time></trkpt>
<trkpt lat="42.097178" lon="23.576841"><ele>2445.7</ele><time>2026-03-08T10:12:59.000Z</time></trkpt>
<trkpt lat="42.097178" lon="23.576842"><ele>2445.7</ele><time>2026-03-08T10:13:00.000Z</time></trkpt>
<trkpt lat="42.097178" lon="23.576843"><ele>2445.7</ele><time>2026-03-08T10:13:01.000Z</time></trkpt>
<trkpt lat="42.097177" lon="23.576844"><ele>2445.8</ele><time>2026-03-08T10:13:02.000Z</time></trkpt>
<trkpt lat="42.097175" lon="23.576846"><ele>2445.8</ele><time>2026-03-08T10:13:03.000Z</time></trkpt>
<trkpt lat="42.097171" lon="23.576848"><ele>2445.8</ele><time>2026-03-08T10:13:04.000Z</time></trkpt>
<trkpt lat="42.097164" lon="23.57685"><ele>2445.8</ele><time>2026-03-08T10:13:05.000Z</time></trkpt>
<trkpt lat="42.097156" lon="23.576852"><ele>2445.8</ele><time>2026-03-08T10:13:06.000Z</time></trkpt>
<trkpt lat="42.097148" lon="23.576853"><ele>2445.7</ele><time>2026-03-08T10:13:07.000Z</time></trkpt>
<trkpt lat="42.097141" lon="23.576855"><ele>2445.7</ele><time>2026-03-08T10:13:08.000Z</time></trkpt>
<trkpt lat="42.097135" lon="23.576856"><ele>2445.7</ele><time>2026-03-08T10:13:09.000Z</time></trkpt>
<trkpt lat="42.09713" lon="23.576858"><ele>2445.7</ele><time>2026-03-08T10:13:10.000Z</time></trkpt>
<trkpt lat="42.097126" lon="23.576861"><ele>2445.7</ele><time>2026-03-08T10:13:11.000Z</time></trkpt>
<trkpt lat="42.097121" lon="23.576864"><ele>2445.7</ele><time>2026-03-08T10:13:12.000Z</time></trkpt>
<trkpt lat="42.097116" lon="23.576868"><ele>2445.7</ele><time>2026-03-08T10:13:13.000Z</time></trkpt>
<trkpt lat="42.097111" lon="23.576873"><ele>2445.7</ele><time>2026-03-08T10:13:14.000Z</time></trkpt>
<trkpt lat="42.097106" lon="23.576878"><ele>2445.7</ele><time>2026-03-08T10:13:15.000Z</time></trkpt>
<trkpt lat="42.097102" lon="23.576884"><ele>2445.7</ele><time>2026-03-08T10:13:16.000Z</time></trkpt>
<trkpt lat="42.097099" lon="23.57689"><ele>2445.6</ele><time>2026-03-08T10:13:17.000Z</time></trkpt>
<trkpt lat="42.097095" lon="23.576896"><ele>2445.6</ele><time>2026-03-08T10:13:18.000Z</time></trkpt>
<trkpt lat="42.097091" lon="23.576902"><ele>2445.6</ele><time>2026-03-08T10:13:19.000Z</time></trkpt>
<trkpt lat="42.097087" lon="23.576909"><ele>2445.6</ele><time>2026-03-08T10:13:20.000Z</time></trkpt>
<trkpt lat="42.097083" lon="23.576916"><ele>2445.6</ele><time>2026-03-08T10:13:21.000Z</time></trkpt>
<trkpt lat="42.097078" lon="23.576922"><ele>2445.3</ele><time>2026-03-08T10:13:22.000Z</time></trkpt>
<trkpt lat="42.097073" lon="23.576928"><ele>2445.3</ele><time>2026-03-08T10:13:23.000Z</time></trkpt>
<trkpt lat="42.097069" lon="23.576934"><ele>2445.3</ele><time>2026-03-08T10:13:24.000Z</time></trkpt>
<trkpt lat="42.097064" lon="23.576939"><ele>2445.3</ele><time>2026-03-08T10:13:25.000Z</time></trkpt>
<trkpt lat="42.097058" lon="23.576944"><ele>2445.3</ele><time>2026-03-08T10:13:26.000Z</time></trkpt>
<trkpt lat="42.097053" lon="23.57695"><ele>2445.2</ele><time>2026-03-08T10:13:27.000Z</time></trkpt>
<trkpt lat="42.097048" lon="23.576956"><ele>2445.2</ele><time>2026-03-08T10:13:28.000Z</time></trkpt>
<trkpt lat="42.097042" lon="23.576963"><ele>2445.2</ele><time>2026-03-08T10:13:29.000Z</time></trkpt>
<trkpt lat="42.097036" lon="23.57697"><ele>2445.2</ele><time>2026-03-08T10:13:30.000Z</time></trkpt>
<trkpt lat="42.09703" lon="23.576978"><ele>2445.2</ele><time>2026-03-08T10:13:31.000Z</time></trkpt>
<trkpt lat="42.097024" lon="23.576984"><ele>2444.7</ele><time>2026-03-08T10:13:32.000Z</time></trkpt>
<trkpt lat="42.097017" lon="23.576991"><ele>2444.7</ele><time>2026-03-08T10:13:33.000Z</time></trkpt>
<trkpt lat="42.097011" lon="23.576997"><ele>2444.7</ele><time>2026-03-08T10:13:34.000Z</time></trkpt>
<trkpt lat="42.097003" lon="23.577003"><ele>2444.7</ele><time>2026-03-08T10:13:35.000Z</time></trkpt>
<trkpt lat="42.096996" lon="23.577009"><ele>2444.7</ele><time>2026-03-08T10:13:36.000Z</time></trkpt>
<trkpt lat="42.096987" lon="23.577014"><ele>2443.9</ele><time>2026-03-08T10:13:37.000Z</time></trkpt>
<trkpt lat="42.096981" lon="23.577018"><ele>2443.9</ele><time>2026-03-08T10:13:38.000Z</time></trkpt>
<trkpt lat="42.096975" lon="23.57702"><ele>2443.9</ele><time>2026-03-08T10:13:39.000Z</time></trkpt>
<trkpt lat="42.096972" lon="23.577019"><ele>2443.9</ele><time>2026-03-08T10:13:40.000Z</time></trkpt>
<trkpt lat="42.09697" lon="23.577019"><ele>2443.9</ele><time>2026-03-08T10:13:41.000Z</time></trkpt>
<trkpt lat="42.09697" lon="23.577018"><ele>2443.5</ele><time>2026-03-08T10:13:42.000Z</time></trkpt>
<trkpt lat="42.09697" lon="23.577018"><ele>2443.5</ele><time>2026-03-08T10:13:43.000Z</time></trkpt>
<trkpt lat="42.096971" lon="23.577018"><ele>2443.5</ele><time>2026-03-08T10:13:44.000Z</time></trkpt>
<trkpt lat="42.096971" lon="23.577019"><ele>2443.5</ele><time>2026-03-08T10:13:45.000Z</time></trkpt>
<trkpt lat="42.096971" lon="23.577019"><ele>2443.5</ele><time>2026-03-08T10:13:46.000Z</time></trkpt>
<trkpt lat="42.09697" lon="23.577019"><ele>2442.8</ele><time>2026-03-08T10:13:47.000Z</time></trkpt>
<trkpt lat="42.09697" lon="23.57702"><ele>2442.8</ele><time>2026-03-08T10:13:48.000Z</time></trkpt>
<trkpt lat="42.096969" lon="23.57702"><ele>2442.8</ele><time>2026-03-08T10:13:49.000Z</time></trkpt>
<trkpt lat="42.096968" lon="23.577021"><ele>2442.8</ele><time>2026-03-08T10:13:50.000Z</time></trkpt>
<trkpt lat="42.096968" lon="23.577022"><ele>2442.8</ele><time>2026-03-08T10:13:51.000Z</time></trkpt>
<trkpt lat="42.096968" lon="23.577023"><ele>2442.2</ele><time>2026-03-08T10:13:52.000Z</time></trkpt>
<trkpt lat="42.096969" lon="23.577024"><ele>2442.2</ele><time>2026-03-08T10:13:53.000Z</time></trkpt>
<trkpt lat="42.096969" lon="23.577024"><ele>2442.2</ele><time>2026-03-08T10:13:54.000Z</time></trkpt>
<trkpt lat="42.096969" lon="23.577024"><ele>2442.2</ele><time>2026-03-08T10:13:55.000Z</time></trkpt>
<trkpt lat="42.096969" lon="23.577024"><ele>2442.2</ele><time>2026-03-08T10:13:56.000Z</time></trkpt>
<trkpt lat="42.096969" lon="23.577024"><ele>2442</ele><time>2026-03-08T10:13:57.000Z</time></trkpt>
<trkpt lat="42.096969" lon="23.577024"><ele>2442</ele><time>2026-03-08T10:13:58.000Z</time></trkpt>
<trkpt lat="42.096969" lon="23.577024"><ele>2442</ele><time>2026-03-08T10:13:59.000Z</time></trkpt>
<trkpt lat="42.096969" lon="23.577024"><ele>2442</ele><time>2026-03-08T10:14:00.000Z</time></trkpt>
<trkpt lat="42.096969" lon="23.577024"><ele>2442</ele><time>2026-03-08T10:14:01.000Z</time></trkpt>
<trkpt lat="42.096969" lon="23.577024"><ele>2441.8</ele><time>2026-03-08T10:14:02.000Z</time></trkpt>
<trkpt lat="42.096969" lon="23.577024"><ele>2441.8</ele><time>2026-03-08T10:14:03.000Z</time></trkpt>
<trkpt lat="42.096969" lon="23.577024"><ele>2441.8</ele><time>2026-03-08T10:14:04.000Z</time></trkpt>
<trkpt lat="42.096969" lon="23.577025"><ele>2441.8</ele><time>2026-03-08T10:14:05.000Z</time></trkpt>
<trkpt lat="42.096968" lon="23.577027"><ele>2441.8</ele><time>2026-03-08T10:14:06.000Z</time></trkpt>
<trkpt lat="42.096968" lon="23.577029"><ele>2441.7</ele><time>2026-03-08T10:14:07.000Z</time></trkpt>
<trkpt lat="42.096966" lon="23.577032"><ele>2441.7</ele><time>2026-03-08T10:14:08.000Z</time></trkpt>
<trkpt lat="42.096963" lon="23.577036"><ele>2441.7</ele><time>2026-03-08T10:14:09.000Z</time></trkpt>
<trkpt lat="42.096958" lon="23.57704"><ele>2441.7</ele><time>2026-03-08T10:14:10.000Z</time></trkpt>
<trkpt lat="42.096952" lon="23.577045"><ele>2441.7</ele><time>2026-03-08T10:14:11.000Z</time></trkpt>
<trkpt lat="42.096943" lon="23.577052"><ele>2441.7</ele><time>2026-03-08T10:14:12.000Z</time></trkpt>
<trkpt lat="42.096934" lon="23.577058"><ele>2441.7</ele><time>2026-03-08T10:14:13.000Z</time></trkpt>
<trkpt lat="42.096926" lon="23.577063"><ele>2441.7</ele><time>2026-03-08T10:14:14.000Z</time></trkpt>
<trkpt lat="42.096918" lon="23.577068"><ele>2441.7</ele><time>2026-03-08T10:14:15.000Z</time></trkpt>
<trkpt lat="42.09691" lon="23.577072"><ele>2441.7</ele><time>2026-03-08T10:14:16.000Z</time></trkpt>
<trkpt lat="42.096902" lon="23.577074"><ele>2441.8</ele><time>2026-03-08T10:14:17.000Z</time></trkpt>
<trkpt lat="42.096895" lon="23.577076"><ele>2441.8</ele><time>2026-03-08T10:14:18.000Z</time></trkpt>
<trkpt lat="42.096888" lon="23.577078"><ele>2441.8</ele><time>2026-03-08T10:14:19.000Z</time></trkpt>
<trkpt lat="42.096879" lon="23.577081"><ele>2441.8</ele><time>2026-03-08T10:14:20.000Z</time></trkpt>
<trkpt lat="42.096872" lon="23.577084"><ele>2441.8</ele><time>2026-03-08T10:14:21.000Z</time></trkpt>
<trkpt lat="42.096866" lon="23.577086"><ele>2441.9</ele><time>2026-03-08T10:14:22.000Z</time></trkpt>
<trkpt lat="42.09686" lon="23.577089"><ele>2441.9</ele><time>2026-03-08T10:14:23.000Z</time></trkpt>
<trkpt lat="42.096854" lon="23.577092"><ele>2441.9</ele><time>2026-03-08T10:14:24.000Z</time></trkpt>
<trkpt lat="42.096848" lon="23.577095"><ele>2441.9</ele><time>2026-03-08T10:14:25.000Z</time></trkpt>
<trkpt lat="42.096842" lon="23.577098"><ele>2441.9</ele><time>2026-03-08T10:14:26.000Z</time></trkpt>
<trkpt lat="42.096837" lon="23.577101"><ele>2441.9</ele><time>2026-03-08T10:14:27.000Z</time></trkpt>
<trkpt lat="42.096831" lon="23.577105"><ele>2441.9</ele><time>2026-03-08T10:14:28.000Z</time></trkpt>
<trkpt lat="42.096824" lon="23.577109"><ele>2441.9</ele><time>2026-03-08T10:14:29.000Z</time></trkpt>
<trkpt lat="42.096818" lon="23.577113"><ele>2441.9</ele><time>2026-03-08T10:14:30.000Z</time></trkpt>
<trkpt lat="42.09681" lon="23.577117"><ele>2441.9</ele><time>2026-03-08T10:14:31.000Z</time></trkpt>
<trkpt lat="42.096802" lon="23.57712"><ele>2441.6</ele><time>2026-03-08T10:14:32.000Z</time></trkpt>
<trkpt lat="42.096794" lon="23.577124"><ele>2441.6</ele><time>2026-03-08T10:14:33.000Z</time></trkpt>
<trkpt lat="42.096786" lon="23.577127"><ele>2441.6</ele><time>2026-03-08T10:14:34.000Z</time></trkpt>
<trkpt lat="42.096777" lon="23.57713"><ele>2441.6</ele><time>2026-03-08T10:14:35.000Z</time></trkpt>
<trkpt lat="42.096768" lon="23.577132"><ele>2441.6</ele><time>2026-03-08T10:14:36.000Z</time></trkpt>
<trkpt lat="42.096759" lon="23.577134"><ele>2441.3</ele><time>2026-03-08T10:14:37.000Z</time></trkpt>
<trkpt lat="42.096751" lon="23.577135"><ele>2441.3</ele><time>2026-03-08T10:14:38.000Z</time></trkpt>
<trkpt lat="42.096742" lon="23.577135"><ele>2441.3</ele><time>2026-03-08T10:14:39.000Z</time></trkpt>
<trkpt lat="42.096733" lon="23.577136"><ele>2441.3</ele><time>2026-03-08T10:14:40.000Z</time></trkpt>
<trkpt lat="42.096725" lon="23.577136"><ele>2441.3</ele><time>2026-03-08T10:14:41.000Z</time></trkpt>
<trkpt lat="42.096716" lon="23.577136"><ele>2441.3</ele><time>2026-03-08T10:14:42.000Z</time></trkpt>
<trkpt lat="42.096707" lon="23.577137"><ele>2441.3</ele><time>2026-03-08T10:14:43.000Z</time></trkpt>
<trkpt lat="42.096698" lon="23.577137"><ele>2441.3</ele><time>2026-03-08T10:14:44.000Z</time></trkpt>
<trkpt lat="42.09669" lon="23.577137"><ele>2441.3</ele><time>2026-03-08T10:14:45.000Z</time></trkpt>
<trkpt lat="42.096683" lon="23.577138"><ele>2441.3</ele><time>2026-03-08T10:14:46.000Z</time></trkpt>
<trkpt lat="42.096675" lon="23.577139"><ele>2441.3</ele><time>2026-03-08T10:14:47.000Z</time></trkpt>
<trkpt lat="42.096668" lon="23.57714"><ele>2441.3</ele><time>2026-03-08T10:14:48.000Z</time></trkpt>
<trkpt lat="42.096661" lon="23.577141"><ele>2441.3</ele><time>2026-03-08T10:14:49.000Z</time></trkpt>
<trkpt lat="42.096654" lon="23.577141"><ele>2441.3</ele><time>2026-03-08T10:14:50.000Z</time></trkpt>
<trkpt lat="42.096647" lon="23.577142"><ele>2441.3</ele><time>2026-03-08T10:14:51.000Z</time></trkpt>
<trkpt lat="42.09664" lon="23.577143"><ele>2441.5</ele><time>2026-03-08T10:14:52.000Z</time></trkpt>
<trkpt lat="42.096633" lon="23.577144"><ele>2441.5</ele><time>2026-03-08T10:14:53.000Z</time></trkpt>
<trkpt lat="42.096626" lon="23.577144"><ele>2441.5</ele><time>2026-03-08T10:14:54.000Z</time></trkpt>
<trkpt lat="42.096618" lon="23.577145"><ele>2441.5</ele><time>2026-03-08T10:14:55.000Z</time></trkpt>
<trkpt lat="42.09661" lon="23.577145"><ele>2441.5</ele><time>2026-03-08T10:14:56.000Z</time></trkpt>
<trkpt lat="42.096603" lon="23.577145"><ele>2441.6</ele><time>2026-03-08T10:14:57.000Z</time></trkpt>
<trkpt lat="42.096595" lon="23.577145"><ele>2441.6</ele><time>2026-03-08T10:14:58.000Z</time></trkpt>
<trkpt lat="42.096586" lon="23.577146"><ele>2441.6</ele><time>2026-03-08T10:14:59.000Z</time></trkpt>
<trkpt lat="42.096578" lon="23.577146"><ele>2441.6</ele><time>2026-03-08T10:15:00.000Z</time></trkpt>
<trkpt lat="42.09657" lon="23.577149"><ele>2441.6</ele><time>2026-03-08T10:15:01.000Z</time></trkpt>
<trkpt lat="42.096562" lon="23.57715"><ele>2441.9</ele><time>2026-03-08T10:15:02.000Z</time></trkpt>
<trkpt lat="42.096554" lon="23.577151"><ele>2441.9</ele><time>2026-03-08T10:15:03.000Z</time></trkpt>
<trkpt lat="42.096546" lon="23.577151"><ele>2441.9</ele><time>2026-03-08T10:15:04.000Z</time></trkpt>
<trkpt lat="42.096538" lon="23.577151"><ele>2441.9</ele><time>2026-03-08T10:15:05.000Z</time></trkpt>
<trkpt lat="42.09653" lon="23.57715"><ele>2441.9</ele><time>2026-03-08T10:15:06.000Z</time></trkpt>
<trkpt lat="42.096523" lon="23.57715"><ele>2442.1</ele><time>2026-03-08T10:15:07.000Z</time></trkpt>
<trkpt lat="42.096516" lon="23.57715"><ele>2442.1</ele><time>2026-03-08T10:15:08.000Z</time></trkpt>
<trkpt lat="42.096508" lon="23.577149"><ele>2442.1</ele><time>2026-03-08T10:15:09.000Z</time></trkpt>
<trkpt lat="42.0965" lon="23.577149"><ele>2442.1</ele><time>2026-03-08T10:15:10.000Z</time></trkpt>
<trkpt lat="42.096492" lon="23.577148"><ele>2442.1</ele><time>2026-03-08T10:15:11.000Z</time></trkpt>
<trkpt lat="42.096484" lon="23.577147"><ele>2442.2</ele><time>2026-03-08T10:15:12.000Z</time></trkpt>
<trkpt lat="42.096476" lon="23.577146"><ele>2442.2</ele><time>2026-03-08T10:15:13.000Z</time></trkpt>
<trkpt lat="42.09647" lon="23.577144"><ele>2442.2</ele><time>2026-03-08T10:15:14.000Z</time></trkpt>
<trkpt lat="42.096464" lon="23.577144"><ele>2442.2</ele><time>2026-03-08T10:15:15.000Z</time></trkpt>
<trkpt lat="42.096458" lon="23.577144"><ele>2442.2</ele><time>2026-03-08T10:15:16.000Z</time></trkpt>
<trkpt lat="42.096453" lon="23.577145"><ele>2442.6</ele><time>2026-03-08T10:15:17.000Z</time></trkpt>
<trkpt lat="42.096446" lon="23.577145"><ele>2442.6</ele><time>2026-03-08T10:15:18.000Z</time></trkpt>
<trkpt lat="42.096438" lon="23.577146"><ele>2442.6</ele><time>2026-03-08T10:15:19.000Z</time></trkpt>
<trkpt lat="42.096431" lon="23.577147"><ele>2442.6</ele><time>2026-03-08T10:15:20.000Z</time></trkpt>
<trkpt lat="42.096422" lon="23.577147"><ele>2442.6</ele><time>2026-03-08T10:15:21.000Z</time></trkpt>
<trkpt lat="42.096413" lon="23.577147"><ele>2443</ele><time>2026-03-08T10:15:22.000Z</time></trkpt>
<trkpt lat="42.096404" lon="23.577147"><ele>2443</ele><time>2026-03-08T10:15:23.000Z</time></trkpt>
<trkpt lat="42.096396" lon="23.577149"><ele>2443</ele><time>2026-03-08T10:15:24.000Z</time></trkpt>
<trkpt lat="42.096388" lon="23.577151"><ele>2443</ele><time>2026-03-08T10:15:25.000Z</time></trkpt>
<trkpt lat="42.09638" lon="23.577155"><ele>2443</ele><time>2026-03-08T10:15:26.000Z</time></trkpt>
<trkpt lat="42.096373" lon="23.577159"><ele>2443.2</ele><time>2026-03-08T10:15:27.000Z</time></trkpt>
<trkpt lat="42.096367" lon="23.577164"><ele>2443.2</ele><time>2026-03-08T10:15:28.000Z</time></trkpt>
<trkpt lat="42.096361" lon="23.577168"><ele>2443.2</ele><time>2026-03-08T10:15:29.000Z</time></trkpt>
<trkpt lat="42.096355" lon="23.577173"><ele>2443.2</ele><time>2026-03-08T10:15:30.000Z</time></trkpt>
<trkpt lat="42.096349" lon="23.577177"><ele>2443.2</ele><time>2026-03-08T10:15:31.000Z</time></trkpt>
<trkpt lat="42.096343" lon="23.577182"><ele>2443.4</ele><time>2026-03-08T10:15:32.000Z</time></trkpt>
<trkpt lat="42.096336" lon="23.577186"><ele>2443.4</ele><time>2026-03-08T10:15:33.000Z</time></trkpt>
<trkpt lat="42.096328" lon="23.577189"><ele>2443.4</ele><time>2026-03-08T10:15:34.000Z</time></trkpt>
<trkpt lat="42.096321" lon="23.577189"><ele>2443.4</ele><time>2026-03-08T10:15:35.000Z</time></trkpt>
<trkpt lat="42.096315" lon="23.577189"><ele>2443.4</ele><time>2026-03-08T10:15:36.000Z</time></trkpt>
<trkpt lat="42.096309" lon="23.577186"><ele>2443.5</ele><time>2026-03-08T10:15:37.000Z</time></trkpt>
<trkpt lat="42.096303" lon="23.577182"><ele>2443.5</ele><time>2026-03-08T10:15:38.000Z</time></trkpt>
<trkpt lat="42.096297" lon="23.577179"><ele>2443.5</ele><time>2026-03-08T10:15:39.000Z</time></trkpt>
<trkpt lat="42.09629" lon="23.577177"><ele>2443.5</ele><time>2026-03-08T10:15:40.000Z</time></trkpt>
<trkpt lat="42.096284" lon="23.577177"><ele>2443.5</ele><time>2026-03-08T10:15:41.000Z</time></trkpt>
<trkpt lat="42.096277" lon="23.577178"><ele>2443.6</ele><time>2026-03-08T10:15:42.000Z</time></trkpt>
<trkpt lat="42.096269" lon="23.577178"><ele>2443.6</ele><time>2026-03-08T10:15:43.000Z</time></trkpt>
<trkpt lat="42.096261" lon="23.577179"><ele>2443.6</ele><time>2026-03-08T10:15:44.000Z</time></trkpt>
<trkpt lat="42.096254" lon="23.577178"><ele>2443.6</ele><time>2026-03-08T10:15:45.000Z</time></trkpt>
<trkpt lat="42.096247" lon="23.577176"><ele>2443.6</ele><time>2026-03-08T10:15:46.000Z</time></trkpt>
<trkpt lat="42.096241" lon="23.577173"><ele>2444.1</ele><time>2026-03-08T10:15:47.000Z</time></trkpt>
<trkpt lat="42.096234" lon="23.57717"><ele>2444.1</ele><time>2026-03-08T10:15:48.000Z</time></trkpt>
<trkpt lat="42.096228" lon="23.577168"><ele>2444.1</ele><time>2026-03-08T10:15:49.000Z</time></trkpt>
<trkpt lat="42.096221" lon="23.577168"><ele>2444.1</ele><time>2026-03-08T10:15:50.000Z</time></trkpt>
<trkpt lat="42.096214" lon="23.577167"><ele>2444.1</ele><time>2026-03-08T10:15:51.000Z</time></trkpt>
<trkpt lat="42.096206" lon="23.577168"><ele>2445.2</ele><time>2026-03-08T10:15:52.000Z</time></trkpt>
<trkpt lat="42.096199" lon="23.577169"><ele>2445.2</ele><time>2026-03-08T10:15:53.000Z</time></trkpt>
<trkpt lat="42.096192" lon="23.577169"><ele>2445.2</ele><time>2026-03-08T10:15:54.000Z</time></trkpt>
<trkpt lat="42.096185" lon="23.577169"><ele>2445.2</ele><time>2026-03-08T10:15:55.000Z</time></trkpt>
<trkpt lat="42.096178" lon="23.577171"><ele>2445.2</ele><time>2026-03-08T10:15:56.000Z</time></trkpt>
<trkpt lat="42.096171" lon="23.577173"><ele>2445.8</ele><time>2026-03-08T10:15:57.000Z</time></trkpt>
<trkpt lat="42.096164" lon="23.577176"><ele>2445.8</ele><time>2026-03-08T10:15:58.000Z</time></trkpt>
<trkpt lat="42.096157" lon="23.577178"><ele>2445.8</ele><time>2026-03-08T10:15:59.000Z</time></trkpt>
<trkpt lat="42.096148" lon="23.577181"><ele>2445.8</ele><time>2026-03-08T10:16:00.000Z</time></trkpt>
<trkpt lat="42.096141" lon="23.577182"><ele>2445.8</ele><time>2026-03-08T10:16:01.000Z</time></trkpt>
<trkpt lat="42.096134" lon="23.577184"><ele>2446.8</ele><time>2026-03-08T10:16:02.000Z</time></trkpt>
<trkpt lat="42.096127" lon="23.577185"><ele>2446.8</ele><time>2026-03-08T10:16:03.000Z</time></trkpt>
<trkpt lat="42.09612" lon="23.577187"><ele>2446.8</ele><time>2026-03-08T10:16:04.000Z</time></trkpt>
<trkpt lat="42.096114" lon="23.577188"><ele>2446.8</ele><time>2026-03-08T10:16:05.000Z</time></trkpt>
<trkpt lat="42.096107" lon="23.57719"><ele>2446.8</ele><time>2026-03-08T10:16:06.000Z</time></trkpt>
<trkpt lat="42.096099" lon="23.577191"><ele>2447.3</ele><time>2026-03-08T10:16:07.000Z</time></trkpt>
<trkpt lat="42.096092" lon="23.577192"><ele>2447.3</ele><time>2026-03-08T10:16:08.000Z</time></trkpt>
<trkpt lat="42.096084" lon="23.577192"><ele>2447.3</ele><time>2026-03-08T10:16:09.000Z</time></trkpt>
<trkpt lat="42.096075" lon="23.577191"><ele>2447.3</ele><time>2026-03-08T10:16:10.000Z</time></trkpt>
<trkpt lat="42.096067" lon="23.57719"><ele>2447.3</ele><time>2026-03-08T10:16:11.000Z</time></trkpt>
<trkpt lat="42.096059" lon="23.577188"><ele>2447.5</ele><time>2026-03-08T10:16:12.000Z</time></trkpt>
<trkpt lat="42.096051" lon="23.577186"><ele>2447.5</ele><time>2026-03-08T10:16:13.000Z</time></trkpt>
<trkpt lat="42.096044" lon="23.577184"><ele>2447.5</ele><time>2026-03-08T10:16:14.000Z</time></trkpt>
<trkpt lat="42.096037" lon="23.577184"><ele>2447.5</ele><time>2026-03-08T10:16:15.000Z</time></trkpt>
<trkpt lat="42.09603" lon="23.577185"><ele>2447.5</ele><time>2026-03-08T10:16:16.000Z</time></trkpt>
<trkpt lat="42.096022" lon="23.577186"><ele>2447.9</ele><time>2026-03-08T10:16:17.000Z</time></trkpt>
<trkpt lat="42.096014" lon="23.577188"><ele>2447.9</ele><time>2026-03-08T10:16:18.000Z</time></trkpt>
<trkpt lat="42.096006" lon="23.577188"><ele>2447.9</ele><time>2026-03-08T10:16:19.000Z</time></trkpt>
<trkpt lat="42.095997" lon="23.577188"><ele>2447.9</ele><time>2026-03-08T10:16:20.000Z</time></trkpt>
<trkpt lat="42.09599" lon="23.577189"><ele>2447.9</ele><time>2026-03-08T10:16:21.000Z</time></trkpt>
<trkpt lat="42.095981" lon="23.577188"><ele>2448.5</ele><time>2026-03-08T10:16:22.000Z</time></trkpt>
<trkpt lat="42.095973" lon="23.577187"><ele>2448.5</ele><time>2026-03-08T10:16:23.000Z</time></trkpt>
<trkpt lat="42.095965" lon="23.577188"><ele>2448.5</ele><time>2026-03-08T10:16:24.000Z</time></trkpt>
<trkpt lat="42.095958" lon="23.577188"><ele>2448.5</ele><time>2026-03-08T10:16:25.000Z</time></trkpt>
<trkpt lat="42.09595" lon="23.577189"><ele>2448.5</ele><time>2026-03-08T10:16:26.000Z</time></trkpt>
<trkpt lat="42.095943" lon="23.57719"><ele>2448.9</ele><time>2026-03-08T10:16:27.000Z</time></trkpt>
<trkpt lat="42.095936" lon="23.577192"><ele>2448.9</ele><time>2026-03-08T10:16:28.000Z</time></trkpt>
<trkpt lat="42.09593" lon="23.577193"><ele>2448.9</ele><time>2026-03-08T10:16:29.000Z</time></trkpt>
<trkpt lat="42.095922" lon="23.577196"><ele>2448.9</ele><time>2026-03-08T10:16:30.000Z</time></trkpt>
<trkpt lat="42.095915" lon="23.577198"><ele>2448.9</ele><time>2026-03-08T10:16:31.000Z</time></trkpt>
<trkpt lat="42.095908" lon="23.5772"><ele>2449.6</ele><time>2026-03-08T10:16:32.000Z</time></trkpt>
<trkpt lat="42.095901" lon="23.577202"><ele>2449.6</ele><time>2026-03-08T10:16:33.000Z</time></trkpt>
<trkpt lat="42.095894" lon="23.577203"><ele>2449.6</ele><time>2026-03-08T10:16:34.000Z</time></trkpt>
<trkpt lat="42.095888" lon="23.577203"><ele>2449.6</ele><time>2026-03-08T10:16:35.000Z</time></trkpt>
<trkpt lat="42.095882" lon="23.577203"><ele>2449.6</ele><time>2026-03-08T10:16:36.000Z</time></trkpt>
<trkpt lat="42.095876" lon="23.577203"><ele>2450.2</ele><time>2026-03-08T10:16:37.000Z</time></trkpt>
<trkpt lat="42.095872" lon="23.577203"><ele>2450.2</ele><time>2026-03-08T10:16:38.000Z</time></trkpt>
<trkpt lat="42.095868" lon="23.577203"><ele>2450.2</ele><time>2026-03-08T10:16:39.000Z</time></trkpt>
<trkpt lat="42.095865" lon="23.577204"><ele>2450.2</ele><time>2026-03-08T10:16:40.000Z</time></trkpt>
<trkpt lat="42.095863" lon="23.577207"><ele>2450.2</ele><time>2026-03-08T10:16:41.000Z</time></trkpt>
<trkpt lat="42.09586" lon="23.57721"><ele>2450.5</ele><time>2026-03-08T10:16:42.000Z</time></trkpt>
<trkpt lat="42.095856" lon="23.577212"><ele>2450.5</ele><time>2026-03-08T10:16:43.000Z</time></trkpt>
<trkpt lat="42.095851" lon="23.577215"><ele>2450.5</ele><time>2026-03-08T10:16:44.000Z</time></trkpt>
<trkpt lat="42.095844" lon="23.577215"><ele>2450.5</ele><time>2026-03-08T10:16:45.000Z</time></trkpt>
<trkpt lat="42.095836" lon="23.577214"><ele>2450.5</ele><time>2026-03-08T10:16:46.000Z</time></trkpt>
<trkpt lat="42.095829" lon="23.577215"><ele>2451.1</ele><time>2026-03-08T10:16:47.000Z</time></trkpt>
<trkpt lat="42.095822" lon="23.577215"><ele>2451.1</ele><time>2026-03-08T10:16:48.000Z</time></trkpt>
<trkpt lat="42.095814" lon="23.577215"><ele>2451.1</ele><time>2026-03-08T10:16:49.000Z</time></trkpt>
<trkpt lat="42.095808" lon="23.577214"><ele>2451.1</ele><time>2026-03-08T10:16:50.000Z</time></trkpt>
<trkpt lat="42.095802" lon="23.577213"><ele>2451.1</ele><time>2026-03-08T10:16:51.000Z</time></trkpt>
<trkpt lat="42.095796" lon="23.577211"><ele>2451.8</ele><time>2026-03-08T10:16:52.000Z</time></trkpt>
<trkpt lat="42.095791" lon="23.577211"><ele>2451.8</ele><time>2026-03-08T10:16:53.000Z</time></trkpt>
<trkpt lat="42.095785" lon="23.577211"><ele>2451.8</ele><time>2026-03-08T10:16:54.000Z</time></trkpt>
<trkpt lat="42.095779" lon="23.577213"><ele>2451.8</ele><time>2026-03-08T10:16:55.000Z</time></trkpt>
<trkpt lat="42.095772" lon="23.577213"><ele>2451.8</ele><time>2026-03-08T10:16:56.000Z</time></trkpt>
<trkpt lat="42.095766" lon="23.577214"><ele>2452.2</ele><time>2026-03-08T10:16:57.000Z</time></trkpt>
<trkpt lat="42.095759" lon="23.577214"><ele>2452.2</ele><time>2026-03-08T10:16:58.000Z</time></trkpt>
<trkpt lat="42.095753" lon="23.577214"><ele>2452.2</ele><time>2026-03-08T10:16:59.000Z</time></trkpt>
<trkpt lat="42.095747" lon="23.577214"><ele>2452.2</ele><time>2026-03-08T10:17:00.000Z</time></trkpt>
<trkpt lat="42.095741" lon="23.577215"><ele>2452.2</ele><time>2026-03-08T10:17:01.000Z</time></trkpt>
<trkpt lat="42.095735" lon="23.577216"><ele>2453.1</ele><time>2026-03-08T10:17:02.000Z</time></trkpt>
<trkpt lat="42.09573" lon="23.577218"><ele>2453.1</ele><time>2026-03-08T10:17:03.000Z</time></trkpt>
<trkpt lat="42.095725" lon="23.577221"><ele>2453.1</ele><time>2026-03-08T10:17:04.000Z</time></trkpt>
<trkpt lat="42.09572" lon="23.577223"><ele>2453.1</ele><time>2026-03-08T10:17:05.000Z</time></trkpt>
<trkpt lat="42.095716" lon="23.577225"><ele>2453.1</ele><time>2026-03-08T10:17:06.000Z</time></trkpt>
<trkpt lat="42.095713" lon="23.577227"><ele>2454.1</ele><time>2026-03-08T10:17:07.000Z</time></trkpt>
<trkpt lat="42.095709" lon="23.577228"><ele>2454.1</ele><time>2026-03-08T10:17:08.000Z</time></trkpt>
<trkpt lat="42.095705" lon="23.577229"><ele>2454.1</ele><time>2026-03-08T10:17:09.000Z</time></trkpt>
<trkpt lat="42.095701" lon="23.577229"><ele>2454.1</ele><time>2026-03-08T10:17:10.000Z</time></trkpt>
<trkpt lat="42.095697" lon="23.577229"><ele>2454.1</ele><time>2026-03-08T10:17:11.000Z</time></trkpt>
<trkpt lat="42.095693" lon="23.577227"><ele>2454.5</ele><time>2026-03-08T10:17:12.000Z</time></trkpt>
<trkpt lat="42.09569" lon="23.577225"><ele>2454.5</ele><time>2026-03-08T10:17:13.000Z</time></trkpt>
<trkpt lat="42.095687" lon="23.577223"><ele>2454.5</ele><time>2026-03-08T10:17:14.000Z</time></trkpt>
<trkpt lat="42.095684" lon="23.577222"><ele>2454.5</ele><time>2026-03-08T10:17:15.000Z</time></trkpt>
<trkpt lat="42.095683" lon="23.577223"><ele>2454.5</ele><time>2026-03-08T10:17:16.000Z</time></trkpt>
<trkpt lat="42.095681" lon="23.577224"><ele>2455.7</ele><time>2026-03-08T10:17:17.000Z</time></trkpt>
<trkpt lat="42.095679" lon="23.577226"><ele>2455.7</ele><time>2026-03-08T10:17:18.000Z</time></trkpt>
<trkpt lat="42.095678" lon="23.577228"><ele>2455.7</ele><time>2026-03-08T10:17:19.000Z</time></trkpt>
<trkpt lat="42.095678" lon="23.57723"><ele>2455.7</ele><time>2026-03-08T10:17:20.000Z</time></trkpt>
<trkpt lat="42.095678" lon="23.577231"><ele>2455.7</ele><time>2026-03-08T10:17:21.000Z</time></trkpt>
<trkpt lat="42.095679" lon="23.577232"><ele>2456.8</ele><time>2026-03-08T10:17:22.000Z</time></trkpt>
<trkpt lat="42.095679" lon="23.577233"><ele>2456.8</ele><time>2026-03-08T10:17:23.000Z</time></trkpt>
<trkpt lat="42.09568" lon="23.577233"><ele>2456.8</ele><time>2026-03-08T10:17:24.000Z</time></trkpt>
<trkpt lat="42.09568" lon="23.577233"><ele>2456.8</ele><time>2026-03-08T10:17:25.000Z</time></trkpt>
<trkpt lat="42.09568" lon="23.577233"><ele>2456.8</ele><time>2026-03-08T10:17:26.000Z</time></trkpt>
<trkpt lat="42.09568" lon="23.577233"><ele>2457.3</ele><time>2026-03-08T10:17:27.000Z</time></trkpt>
<trkpt lat="42.09568" lon="23.577234"><ele>2457.3</ele><time>2026-03-08T10:17:28.000Z</time></trkpt>
<trkpt lat="42.095681" lon="23.577236"><ele>2457.3</ele><time>2026-03-08T10:17:29.000Z</time></trkpt>
<trkpt lat="42.095681" lon="23.577237"><ele>2457.3</ele><time>2026-03-08T10:17:30.000Z</time></trkpt>
<trkpt lat="42.095681" lon="23.577239"><ele>2457.3</ele><time>2026-03-08T10:17:31.000Z</time></trkpt>
<trkpt lat="42.095681" lon="23.577241"><ele>2458.1</ele><time>2026-03-08T10:17:32.000Z</time></trkpt>
<trkpt lat="42.095681" lon="23.577241"><ele>2458.1</ele><time>2026-03-08T10:17:33.000Z</time></trkpt>
<trkpt lat="42.095681" lon="23.577241"><ele>2458.1</ele><time>2026-03-08T10:17:34.000Z</time></trkpt>
<trkpt lat="42.095681" lon="23.577241"><ele>2458.1</ele><time>2026-03-08T10:17:35.000Z</time></trkpt>
<trkpt lat="42.095681" lon="23.577241"><ele>2458.1</ele><time>2026-03-08T10:17:36.000Z</time></trkpt>
<trkpt lat="42.095681" lon="23.577241"><ele>2458.4</ele><time>2026-03-08T10:17:37.000Z</time></trkpt>
<trkpt lat="42.095681" lon="23.577241"><ele>2458.4</ele><time>2026-03-08T10:17:38.000Z</time></trkpt>
<trkpt lat="42.095681" lon="23.577241"><ele>2458.4</ele><time>2026-03-08T10:17:39.000Z</time></trkpt>
<trkpt lat="42.095679" lon="23.577241"><ele>2458.4</ele><time>2026-03-08T10:17:40.000Z</time></trkpt>
<trkpt lat="42.095677" lon="23.57724"><ele>2458.4</ele><time>2026-03-08T10:17:41.000Z</time></trkpt>
<trkpt lat="42.095674" lon="23.577237"><ele>2458.5</ele><time>2026-03-08T10:17:42.000Z</time></trkpt>
<trkpt lat="42.095669" lon="23.577233"><ele>2458.5</ele><time>2026-03-08T10:17:43.000Z</time></trkpt>
<trkpt lat="42.095663" lon="23.577229"><ele>2458.5</ele><time>2026-03-08T10:17:44.000Z</time></trkpt>
<trkpt lat="42.095659" lon="23.577224"><ele>2458.5</ele><time>2026-03-08T10:17:45.000Z</time></trkpt>
<trkpt lat="42.095653" lon="23.577219"><ele>2458.5</ele><time>2026-03-08T10:17:46.000Z</time></trkpt>
<trkpt lat="42.095648" lon="23.577214"><ele>2458.5</ele><time>2026-03-08T10:17:47.000Z</time></trkpt>
<trkpt lat="42.095644" lon="23.577211"><ele>2458.5</ele><time>2026-03-08T10:17:48.000Z</time></trkpt>
<trkpt lat="42.095639" lon="23.577209"><ele>2458.5</ele><time>2026-03-08T10:17:49.000Z</time></trkpt>
<trkpt lat="42.095633" lon="23.577208"><ele>2458.5</ele><time>2026-03-08T10:17:50.000Z</time></trkpt>
<trkpt lat="42.095628" lon="23.577207"><ele>2458.5</ele><time>2026-03-08T10:17:51.000Z</time></trkpt>
<trkpt lat="42.095621" lon="23.577206"><ele>2458.5</ele><time>2026-03-08T10:17:52.000Z</time></trkpt>
<trkpt lat="42.095614" lon="23.577205"><ele>2458.5</ele><time>2026-03-08T10:17:53.000Z</time></trkpt>
<trkpt lat="42.095606" lon="23.577204"><ele>2458.5</ele><time>2026-03-08T10:17:54.000Z</time></trkpt>
<trkpt lat="42.0956" lon="23.577202"><ele>2458.5</ele><time>2026-03-08T10:17:55.000Z</time></trkpt>
<trkpt lat="42.095595" lon="23.577201"><ele>2458.5</ele><time>2026-03-08T10:17:56.000Z</time></trkpt>
<trkpt lat="42.095591" lon="23.5772"><ele>2458.7</ele><time>2026-03-08T10:17:57.000Z</time></trkpt>
<trkpt lat="42.095587" lon="23.5772"><ele>2458.7</ele><time>2026-03-08T10:17:58.000Z</time></trkpt>
<trkpt lat="42.095585" lon="23.577198"><ele>2458.7</ele><time>2026-03-08T10:17:59.000Z</time></trkpt>
<trkpt lat="42.095582" lon="23.577196"><ele>2458.7</ele><time>2026-03-08T10:18:00.000Z</time></trkpt>
<trkpt lat="42.095578" lon="23.577194"><ele>2458.7</ele><time>2026-03-08T10:18:01.000Z</time></trkpt>
<trkpt lat="42.095574" lon="23.577192"><ele>2459.3</ele><time>2026-03-08T10:18:02.000Z</time></trkpt>
<trkpt lat="42.095569" lon="23.577188"><ele>2459.3</ele><time>2026-03-08T10:18:03.000Z</time></trkpt>
<trkpt lat="42.095565" lon="23.577184"><ele>2459.3</ele><time>2026-03-08T10:18:04.000Z</time></trkpt>
<trkpt lat="42.095561" lon="23.57718"><ele>2459.3</ele><time>2026-03-08T10:18:05.000Z</time></trkpt>
<trkpt lat="42.095556" lon="23.577174"><ele>2459.3</ele><time>2026-03-08T10:18:06.000Z</time></trkpt>
<trkpt lat="42.095553" lon="23.577169"><ele>2459.9</ele><time>2026-03-08T10:18:07.000Z</time></trkpt>
<trkpt lat="42.095551" lon="23.577164"><ele>2459.9</ele><time>2026-03-08T10:18:08.000Z</time></trkpt>
<trkpt lat="42.095548" lon="23.57716"><ele>2459.9</ele><time>2026-03-08T10:18:09.000Z</time></trkpt>
<trkpt lat="42.095546" lon="23.577157"><ele>2459.9</ele><time>2026-03-08T10:18:10.000Z</time></trkpt>
<trkpt lat="42.095544" lon="23.577155"><ele>2459.9</ele><time>2026-03-08T10:18:11.000Z</time></trkpt>
<trkpt lat="42.095542" lon="23.577154"><ele>2460.2</ele><time>2026-03-08T10:18:12.000Z</time></trkpt>
<trkpt lat="42.095541" lon="23.577153"><ele>2460.2</ele><time>2026-03-08T10:18:13.000Z</time></trkpt>
<trkpt lat="42.095541" lon="23.577153"><ele>2460.2</ele><time>2026-03-08T10:18:14.000Z</time></trkpt>
<trkpt lat="42.095541" lon="23.577153"><ele>2460.2</ele><time>2026-03-08T10:18:15.000Z</time></trkpt>
<trkpt lat="42.09554" lon="23.577152"><ele>2460.2</ele><time>2026-03-08T10:18:16.000Z</time></trkpt>
<trkpt lat="42.095538" lon="23.57715"><ele>2460.6</ele><time>2026-03-08T10:18:17.000Z</time></trkpt>
<trkpt lat="42.095536" lon="23.577147"><ele>2460.6</ele><time>2026-03-08T10:18:18.000Z</time></trkpt>
<trkpt lat="42.095533" lon="23.577143"><ele>2460.6</ele><time>2026-03-08T10:18:19.000Z</time></trkpt>
<trkpt lat="42.095529" lon="23.577139"><ele>2460.6</ele><time>2026-03-08T10:18:20.000Z</time></trkpt>
<trkpt lat="42.095527" lon="23.577135"><ele>2460.6</ele><time>2026-03-08T10:18:21.000Z</time></trkpt>
<trkpt lat="42.095524" lon="23.577132"><ele>2461</ele><time>2026-03-08T10:18:22.000Z</time></trkpt>
<trkpt lat="42.095523" lon="23.57713"><ele>2461</ele><time>2026-03-08T10:18:23.000Z</time></trkpt>
<trkpt lat="42.095521" lon="23.577128"><ele>2461</ele><time>2026-03-08T10:18:24.000Z</time></trkpt>
<trkpt lat="42.09552" lon="23.577128"><ele>2461</ele><time>2026-03-08T10:18:25.000Z</time></trkpt>
<trkpt lat="42.09552" lon="23.577127"><ele>2461</ele><time>2026-03-08T10:18:26.000Z</time></trkpt>
<trkpt lat="42.09552" lon="23.577126"><ele>2461.3</ele><time>2026-03-08T10:18:27.000Z</time></trkpt>
<trkpt lat="42.09552" lon="23.577125"><ele>2461.3</ele><time>2026-03-08T10:18:28.000Z</time></trkpt>
<trkpt lat="42.09552" lon="23.577125"><ele>2461.3</ele><time>2026-03-08T10:18:29.000Z</time></trkpt>
<trkpt lat="42.09552" lon="23.577125"><ele>2461.3</ele><time>2026-03-08T10:18:30.000Z</time></trkpt>
<trkpt lat="42.09552" lon="23.577125"><ele>2461.3</ele><time>2026-03-08T10:18:31.000Z</time></trkpt>
<trkpt lat="42.09552" lon="23.577125"><ele>2462.1</ele><time>2026-03-08T10:18:32.000Z</time></trkpt>
<trkpt lat="42.09552" lon="23.577125"><ele>2462.1</ele><time>2026-03-08T10:18:33.000Z</time></trkpt>
<trkpt lat="42.09552" lon="23.577125"><ele>2462.1</ele><time>2026-03-08T10:18:34.000Z</time></trkpt>
<trkpt lat="42.09552" lon="23.577125"><ele>2462.1</ele><time>2026-03-08T10:18:35.000Z</time></trkpt>
<trkpt lat="42.09552" lon="23.577125"><ele>2462.1</ele><time>2026-03-08T10:18:36.000Z</time></trkpt>
<trkpt lat="42.09552" lon="23.577125"><ele>2462.8</ele><time>2026-03-08T10:18:37.000Z</time></trkpt>
<trkpt lat="42.09552" lon="23.577125"><ele>2462.8</ele><time>2026-03-08T10:18:38.000Z</time></trkpt>
<trkpt lat="42.09552" lon="23.577125"><ele>2462.8</ele><time>2026-03-08T10:18:39.000Z</time></trkpt>
<trkpt lat="42.09552" lon="23.577125"><ele>2462.8</ele><time>2026-03-08T10:18:40.000Z</time></trkpt>
<trkpt lat="42.095521" lon="23.577125"><ele>2462.8</ele><time>2026-03-08T10:18:41.000Z</time></trkpt>
<trkpt lat="42.095521" lon="23.577126"><ele>2463</ele><time>2026-03-08T10:18:42.000Z</time></trkpt>
<trkpt lat="42.095521" lon="23.577126"><ele>2463</ele><time>2026-03-08T10:18:43.000Z</time></trkpt>
<trkpt lat="42.095522" lon="23.577126"><ele>2463</ele><time>2026-03-08T10:18:44.000Z</time></trkpt>
<trkpt lat="42.095522" lon="23.577126"><ele>2463</ele><time>2026-03-08T10:18:45.000Z</time></trkpt>
<trkpt lat="42.095522" lon="23.577126"><ele>2463</ele><time>2026-03-08T10:18:46.000Z</time></trkpt>
<trkpt lat="42.095522" lon="23.577126"><ele>2463.1</ele><time>2026-03-08T10:18:47.000Z</time></trkpt>
<trkpt lat="42.095522" lon="23.577126"><ele>2463.1</ele><time>2026-03-08T10:18:48.000Z</time></trkpt>
<trkpt lat="42.095522" lon="23.577126"><ele>2463.1</ele><time>2026-03-08T10:18:49.000Z</time></trkpt>
<trkpt lat="42.095522" lon="23.577126"><ele>2463.1</ele><time>2026-03-08T10:18:50.000Z</time></trkpt>
<trkpt lat="42.095522" lon="23.577126"><ele>2463.1</ele><time>2026-03-08T10:18:51.000Z</time></trkpt>
<trkpt lat="42.095522" lon="23.577126"><ele>2463</ele><time>2026-03-08T10:18:52.000Z</time></trkpt>
<trkpt lat="42.095522" lon="23.577126"><ele>2463</ele><time>2026-03-08T10:18:53.000Z</time></trkpt>
<trkpt lat="42.095522" lon="23.577126"><ele>2463</ele><time>2026-03-08T10:18:54.000Z</time></trkpt>
<trkpt lat="42.095522" lon="23.577125"><ele>2463</ele><time>2026-03-08T10:18:55.000Z</time></trkpt>
<trkpt lat="42.095522" lon="23.577125"><ele>2463</ele><time>2026-03-08T10:18:56.000Z</time></trkpt>
<trkpt lat="42.095522" lon="23.577125"><ele>2462.9</ele><time>2026-03-08T10:18:57.000Z</time></trkpt>
<trkpt lat="42.095522" lon="23.577125"><ele>2462.9</ele><time>2026-03-08T10:18:58.000Z</time></trkpt>
<trkpt lat="42.095522" lon="23.577125"><ele>2462.9</ele><time>2026-03-08T10:18:59.000Z</time></trkpt>
<trkpt lat="42.095522" lon="23.577125"><ele>2462.9</ele><time>2026-03-08T10:19:00.000Z</time></trkpt>
<trkpt lat="42.095522" lon="23.577125"><ele>2462.9</ele><time>2026-03-08T10:19:01.000Z</time></trkpt>
<trkpt lat="42.095522" lon="23.577125"><ele>2462.8</ele><time>2026-03-08T10:19:02.000Z</time></trkpt>
<trkpt lat="42.095522" lon="23.577125"><ele>2462.8</ele><time>2026-03-08T10:19:03.000Z</time></trkpt>
<trkpt lat="42.095522" lon="23.577126"><ele>2462.8</ele><time>2026-03-08T10:19:04.000Z</time></trkpt>
<trkpt lat="42.095522" lon="23.577126"><ele>2462.8</ele><time>2026-03-08T10:19:05.000Z</time></trkpt>
<trkpt lat="42.095522" lon="23.577126"><ele>2462.8</ele><time>2026-03-08T10:19:06.000Z</time></trkpt>
<trkpt lat="42.095522" lon="23.577127"><ele>2462.8</ele><time>2026-03-08T10:19:07.000Z</time></trkpt>
<trkpt lat="42.095521" lon="23.577127"><ele>2462.8</ele><time>2026-03-08T10:19:08.000Z</time></trkpt>
<trkpt lat="42.095521" lon="23.577127"><ele>2462.8</ele><time>2026-03-08T10:19:09.000Z</time></trkpt>
<trkpt lat="42.095521" lon="23.577127"><ele>2462.8</ele><time>2026-03-08T10:19:10.000Z</time></trkpt>
<trkpt lat="42.095521" lon="23.577127"><ele>2462.8</ele><time>2026-03-08T10:19:11.000Z</time></trkpt>
<trkpt lat="42.095521" lon="23.577127"><ele>2462.7</ele><time>2026-03-08T10:19:12.000Z</time></trkpt>
<trkpt lat="42.095521" lon="23.577127"><ele>2462.7</ele><time>2026-03-08T10:19:13.000Z</time></trkpt>
<trkpt lat="42.095521" lon="23.577127"><ele>2462.7</ele><time>2026-03-08T10:19:14.000Z</time></trkpt>
<trkpt lat="42.095521" lon="23.577127"><ele>2462.7</ele><time>2026-03-08T10:19:15.000Z</time></trkpt>
<trkpt lat="42.095521" lon="23.577127"><ele>2462.7</ele><time>2026-03-08T10:19:16.000Z</time></trkpt>
<trkpt lat="42.095521" lon="23.577127"><ele>2462.6</ele><time>2026-03-08T10:19:17.000Z</time></trkpt>
<trkpt lat="42.095522" lon="23.577127"><ele>2462.6</ele><time>2026-03-08T10:19:18.000Z</time></trkpt>
<trkpt lat="42.095522" lon="23.577127"><ele>2462.6</ele><time>2026-03-08T10:19:19.000Z</time></trkpt>
<trkpt lat="42.095522" lon="23.577127"><ele>2462.6</ele><time>2026-03-08T10:19:20.000Z</time></trkpt>
<trkpt lat="42.095522" lon="23.577127"><ele>2462.6</ele><time>2026-03-08T10:19:21.000Z</time></trkpt>
<trkpt lat="42.095522" lon="23.577127"><ele>2462.5</ele><time>2026-03-08T10:19:22.000Z</time></trkpt>
<trkpt lat="42.095522" lon="23.577127"><ele>2462.5</ele><time>2026-03-08T10:19:23.000Z</time></trkpt>
<trkpt lat="42.095522" lon="23.577127"><ele>2462.5</ele><time>2026-03-08T10:19:24.000Z</time></trkpt>
<trkpt lat="42.095522" lon="23.577127"><ele>2462.5</ele><time>2026-03-08T10:19:25.000Z</time></trkpt>
<trkpt lat="42.095522" lon="23.577127"><ele>2462.5</ele><time>2026-03-08T10:19:26.000Z</time></trkpt>
<trkpt lat="42.095522" lon="23.577127"><ele>2462.4</ele><time>2026-03-08T10:19:27.000Z</time></trkpt>
<trkpt lat="42.095522" lon="23.577127"><ele>2462.4</ele><time>2026-03-08T10:19:28.000Z</time></trkpt>
<trkpt lat="42.095522" lon="23.577127"><ele>2462.4</ele><time>2026-03-08T10:19:29.000Z</time></trkpt>
<trkpt lat="42.095522" lon="23.577126"><ele>2462.4</ele><time>2026-03-08T10:19:30.000Z</time></trkpt>
<trkpt lat="42.095522" lon="23.577123"><ele>2462.4</ele><time>2026-03-08T10:19:31.000Z</time></trkpt>
<trkpt lat="42.095522" lon="23.577121"><ele>2462.5</ele><time>2026-03-08T10:19:32.000Z</time></trkpt>
<trkpt lat="42.095522" lon="23.577118"><ele>2462.5</ele><time>2026-03-08T10:19:33.000Z</time></trkpt>
<trkpt lat="42.095522" lon="23.577115"><ele>2462.5</ele><time>2026-03-08T10:19:34.000Z</time></trkpt>
<trkpt lat="42.095522" lon="23.577113"><ele>2462.5</ele><time>2026-03-08T10:19:35.000Z</time></trkpt>
<trkpt lat="42.095521" lon="23.577112"><ele>2462.5</ele><time>2026-03-08T10:19:36.000Z</time></trkpt>
<trkpt lat="42.095521" lon="23.577112"><ele>2462.5</ele><time>2026-03-08T10:19:37.000Z</time></trkpt>
<trkpt lat="42.09552" lon="23.577112"><ele>2462.5</ele><time>2026-03-08T10:19:38.000Z</time></trkpt>
<trkpt lat="42.095521" lon="23.577109"><ele>2462.5</ele><time>2026-03-08T10:19:39.000Z</time></trkpt>
<trkpt lat="42.095522" lon="23.577105"><ele>2462.5</ele><time>2026-03-08T10:19:40.000Z</time></trkpt>
<trkpt lat="42.095523" lon="23.577099"><ele>2462.5</ele><time>2026-03-08T10:19:41.000Z</time></trkpt>
<trkpt lat="42.095525" lon="23.577092"><ele>2462.4</ele><time>2026-03-08T10:19:42.000Z</time></trkpt>
<trkpt lat="42.095525" lon="23.577084"><ele>2462.4</ele><time>2026-03-08T10:19:43.000Z</time></trkpt>
<trkpt lat="42.095524" lon="23.577076"><ele>2462.4</ele><time>2026-03-08T10:19:44.000Z</time></trkpt>
<trkpt lat="42.095523" lon="23.577068"><ele>2462.4</ele><time>2026-03-08T10:19:45.000Z</time></trkpt>
<trkpt lat="42.095521" lon="23.577061"><ele>2462.4</ele><time>2026-03-08T10:19:46.000Z</time></trkpt>
<trkpt lat="42.09552" lon="23.577053"><ele>2462.4</ele><time>2026-03-08T10:19:47.000Z</time></trkpt>
<trkpt lat="42.09552" lon="23.577045"><ele>2462.4</ele><time>2026-03-08T10:19:48.000Z</time></trkpt>
<trkpt lat="42.095521" lon="23.577038"><ele>2462.4</ele><time>2026-03-08T10:19:49.000Z</time></trkpt>
<trkpt lat="42.095522" lon="23.577034"><ele>2462.4</ele><time>2026-03-08T10:19:50.000Z</time></trkpt>
<trkpt lat="42.095522" lon="23.577032"><ele>2462.4</ele><time>2026-03-08T10:19:51.000Z</time></trkpt>
<trkpt lat="42.095523" lon="23.577031"><ele>2462.9</ele><time>2026-03-08T10:19:52.000Z</time></trkpt>
<trkpt lat="42.095523" lon="23.577032"><ele>2462.9</ele><time>2026-03-08T10:19:53.000Z</time></trkpt>
<trkpt lat="42.095522" lon="23.577034"><ele>2462.9</ele><time>2026-03-08T10:19:54.000Z</time></trkpt>
<trkpt lat="42.095522" lon="23.577035"><ele>2462.9</ele><time>2026-03-08T10:19:55.000Z</time></trkpt>
<trkpt lat="42.095521" lon="23.577036"><ele>2462.9</ele><time>2026-03-08T10:19:56.000Z</time></trkpt>
<trkpt lat="42.095521" lon="23.577036"><ele>2463.3</ele><time>2026-03-08T10:19:57.000Z</time></trkpt>
<trkpt lat="42.09552" lon="23.577036"><ele>2463.3</ele><time>2026-03-08T10:19:58.000Z</time></trkpt>
<trkpt lat="42.09552" lon="23.577036"><ele>2463.3</ele><time>2026-03-08T10:19:59.000Z</time></trkpt>
<trkpt lat="42.095519" lon="23.577035"><ele>2463.3</ele><time>2026-03-08T10:20:00.000Z</time></trkpt>
<trkpt lat="42.095518" lon="23.577033"><ele>2463.3</ele><time>2026-03-08T10:20:01.000Z</time></trkpt>
<trkpt lat="42.095517" lon="23.577031"><ele>2464.2</ele><time>2026-03-08T10:20:02.000Z</time></trkpt>
<trkpt lat="42.095517" lon="23.577028"><ele>2464.2</ele><time>2026-03-08T10:20:03.000Z</time></trkpt>
<trkpt lat="42.095516" lon="23.577025"><ele>2464.2</ele><time>2026-03-08T10:20:04.000Z</time></trkpt>
<trkpt lat="42.095516" lon="23.577019"><ele>2464.2</ele><time>2026-03-08T10:20:05.000Z</time></trkpt>
<trkpt lat="42.095516" lon="23.577013"><ele>2464.2</ele><time>2026-03-08T10:20:06.000Z</time></trkpt>
<trkpt lat="42.095517" lon="23.577005"><ele>2464.9</ele><time>2026-03-08T10:20:07.000Z</time></trkpt>
<trkpt lat="42.095517" lon="23.576997"><ele>2464.9</ele><time>2026-03-08T10:20:08.000Z</time></trkpt>
<trkpt lat="42.095518" lon="23.576988"><ele>2464.9</ele><time>2026-03-08T10:20:09.000Z</time></trkpt>
<trkpt lat="42.095518" lon="23.576979"><ele>2464.9</ele><time>2026-03-08T10:20:10.000Z</time></trkpt>
<trkpt lat="42.095518" lon="23.576972"><ele>2464.9</ele><time>2026-03-08T10:20:11.000Z</time></trkpt>
<trkpt lat="42.095517" lon="23.576964"><ele>2465.1</ele><time>2026-03-08T10:20:12.000Z</time></trkpt>
<trkpt lat="42.095515" lon="23.576958"><ele>2465.1</ele><time>2026-03-08T10:20:13.000Z</time></trkpt>
<trkpt lat="42.095514" lon="23.576951"><ele>2465.1</ele><time>2026-03-08T10:20:14.000Z</time></trkpt>
<trkpt lat="42.095513" lon="23.576945"><ele>2465.1</ele><time>2026-03-08T10:20:15.000Z</time></trkpt>
<trkpt lat="42.095513" lon="23.576938"><ele>2465.1</ele><time>2026-03-08T10:20:16.000Z</time></trkpt>
<trkpt lat="42.095512" lon="23.576931"><ele>2465.3</ele><time>2026-03-08T10:20:17.000Z</time></trkpt>
<trkpt lat="42.095513" lon="23.576924"><ele>2465.3</ele><time>2026-03-08T10:20:18.000Z</time></trkpt>
<trkpt lat="42.095514" lon="23.576916"><ele>2465.3</ele><time>2026-03-08T10:20:19.000Z</time></trkpt>
<trkpt lat="42.095515" lon="23.576909"><ele>2465.3</ele><time>2026-03-08T10:20:20.000Z</time></trkpt>
<trkpt lat="42.095515" lon="23.576902"><ele>2465.3</ele><time>2026-03-08T10:20:21.000Z</time></trkpt>
<trkpt lat="42.095515" lon="23.576896"><ele>2465.7</ele><time>2026-03-08T10:20:22.000Z</time></trkpt>
<trkpt lat="42.095515" lon="23.57689"><ele>2465.7</ele><time>2026-03-08T10:20:23.000Z</time></trkpt>
<trkpt lat="42.095514" lon="23.576886"><ele>2465.7</ele><time>2026-03-08T10:20:24.000Z</time></trkpt>
<trkpt lat="42.095514" lon="23.576882"><ele>2465.7</ele><time>2026-03-08T10:20:25.000Z</time></trkpt>
<trkpt lat="42.095514" lon="23.576879"><ele>2465.7</ele><time>2026-03-08T10:20:26.000Z</time></trkpt>
<trkpt lat="42.095513" lon="23.576878"><ele>2466.1</ele><time>2026-03-08T10:20:27.000Z</time></trkpt>
<trkpt lat="42.095513" lon="23.576877"><ele>2466.1</ele><time>2026-03-08T10:20:28.000Z</time></trkpt>
<trkpt lat="42.095512" lon="23.576875"><ele>2466.1</ele><time>2026-03-08T10:20:29.000Z</time></trkpt>
<trkpt lat="42.095512" lon="23.576875"><ele>2466.1</ele><time>2026-03-08T10:20:30.000Z</time></trkpt>
<trkpt lat="42.095511" lon="23.576872"><ele>2466.1</ele><time>2026-03-08T10:20:31.000Z</time></trkpt>
<trkpt lat="42.09551" lon="23.576867"><ele>2467.3</ele><time>2026-03-08T10:20:32.000Z</time></trkpt>
<trkpt lat="42.09551" lon="23.576862"><ele>2467.3</ele><time>2026-03-08T10:20:33.000Z</time></trkpt>
<trkpt lat="42.095509" lon="23.576856"><ele>2467.3</ele><time>2026-03-08T10:20:34.000Z</time></trkpt>
<trkpt lat="42.095509" lon="23.576849"><ele>2467.3</ele><time>2026-03-08T10:20:35.000Z</time></trkpt>
<trkpt lat="42.095509" lon="23.576843"><ele>2467.3</ele><time>2026-03-08T10:20:36.000Z</time></trkpt>
<trkpt lat="42.09551" lon="23.576836"><ele>2468.5</ele><time>2026-03-08T10:20:37.000Z</time></trkpt>
<trkpt lat="42.09551" lon="23.57683"><ele>2468.5</ele><time>2026-03-08T10:20:38.000Z</time></trkpt>
<trkpt lat="42.09551" lon="23.576823"><ele>2468.5</ele><time>2026-03-08T10:20:39.000Z</time></trkpt>
<trkpt lat="42.09551" lon="23.576816"><ele>2468.5</ele><time>2026-03-08T10:20:40.000Z</time></trkpt>
<trkpt lat="42.09551" lon="23.576808"><ele>2468.5</ele><time>2026-03-08T10:20:41.000Z</time></trkpt>
<trkpt lat="42.095509" lon="23.576799"><ele>2469</ele><time>2026-03-08T10:20:42.000Z</time></trkpt>
<trkpt lat="42.095508" lon="23.576789"><ele>2469</ele><time>2026-03-08T10:20:43.000Z</time></trkpt>
<trkpt lat="42.095507" lon="23.576778"><ele>2469</ele><time>2026-03-08T10:20:44.000Z</time></trkpt>
<trkpt lat="42.095508" lon="23.576767"><ele>2469</ele><time>2026-03-08T10:20:45.000Z</time></trkpt>
<trkpt lat="42.095508" lon="23.576758"><ele>2469</ele><time>2026-03-08T10:20:46.000Z</time></trkpt>
<trkpt lat="42.095509" lon="23.576748"><ele>2469.5</ele><time>2026-03-08T10:20:47.000Z</time></trkpt>
<trkpt lat="42.095509" lon="23.576739"><ele>2469.5</ele><time>2026-03-08T10:20:48.000Z</time></trkpt>
<trkpt lat="42.095509" lon="23.576733"><ele>2469.5</ele><time>2026-03-08T10:20:49.000Z</time></trkpt>
<trkpt lat="42.095508" lon="23.576726"><ele>2469.5</ele><time>2026-03-08T10:20:50.000Z</time></trkpt>
<trkpt lat="42.095506" lon="23.57672"><ele>2469.5</ele><time>2026-03-08T10:20:51.000Z</time></trkpt>
<trkpt lat="42.095505" lon="23.576714"><ele>2469.9</ele><time>2026-03-08T10:20:52.000Z</time></trkpt>
<trkpt lat="42.095504" lon="23.57671"><ele>2469.9</ele><time>2026-03-08T10:20:53.000Z</time></trkpt>
<trkpt lat="42.095504" lon="23.576706"><ele>2469.9</ele><time>2026-03-08T10:20:54.000Z</time></trkpt>
<trkpt lat="42.095506" lon="23.576703"><ele>2469.9</ele><time>2026-03-08T10:20:55.000Z</time></trkpt>
<trkpt lat="42.095507" lon="23.5767"><ele>2469.9</ele><time>2026-03-08T10:20:56.000Z</time></trkpt>
<trkpt lat="42.095509" lon="23.5767"><ele>2470.2</ele><time>2026-03-08T10:20:57.000Z</time></trkpt>
<trkpt lat="42.095511" lon="23.576701"><ele>2470.2</ele><time>2026-03-08T10:20:58.000Z</time></trkpt>
<trkpt lat="42.095512" lon="23.576702"><ele>2470.2</ele><time>2026-03-08T10:20:59.000Z</time></trkpt>
<trkpt lat="42.095513" lon="23.576704"><ele>2470.2</ele><time>2026-03-08T10:21:00.000Z</time></trkpt>
<trkpt lat="42.095513" lon="23.576705"><ele>2470.2</ele><time>2026-03-08T10:21:01.000Z</time></trkpt>
<trkpt lat="42.095514" lon="23.576706"><ele>2471</ele><time>2026-03-08T10:21:02.000Z</time></trkpt>
<trkpt lat="42.095514" lon="23.576707"><ele>2471</ele><time>2026-03-08T10:21:03.000Z</time></trkpt>
<trkpt lat="42.095514" lon="23.576706"><ele>2471</ele><time>2026-03-08T10:21:04.000Z</time></trkpt>
<trkpt lat="42.095514" lon="23.576706"><ele>2471</ele><time>2026-03-08T10:21:05.000Z</time></trkpt>
<trkpt lat="42.095514" lon="23.576706"><ele>2471</ele><time>2026-03-08T10:21:06.000Z</time></trkpt>
<trkpt lat="42.095514" lon="23.576706"><ele>2471.8</ele><time>2026-03-08T10:21:07.000Z</time></trkpt>
<trkpt lat="42.095514" lon="23.576706"><ele>2471.8</ele><time>2026-03-08T10:21:08.000Z</time></trkpt>
<trkpt lat="42.095514" lon="23.576706"><ele>2471.8</ele><time>2026-03-08T10:21:09.000Z</time></trkpt>
<trkpt lat="42.095514" lon="23.576705"><ele>2471.8</ele><time>2026-03-08T10:21:10.000Z</time></trkpt>
<trkpt lat="42.095514" lon="23.576705"><ele>2471.8</ele><time>2026-03-08T10:21:11.000Z</time></trkpt>
<trkpt lat="42.095514" lon="23.576704"><ele>2472.1</ele><time>2026-03-08T10:21:12.000Z</time></trkpt>
<trkpt lat="42.095514" lon="23.576703"><ele>2472.1</ele><time>2026-03-08T10:21:13.000Z</time></trkpt>
<trkpt lat="42.095514" lon="23.576703"><ele>2472.1</ele><time>2026-03-08T10:21:14.000Z</time></trkpt>
<trkpt lat="42.095514" lon="23.576702"><ele>2472.1</ele><time>2026-03-08T10:21:15.000Z</time></trkpt>
<trkpt lat="42.095515" lon="23.576701"><ele>2472.1</ele><time>2026-03-08T10:21:16.000Z</time></trkpt>
<trkpt lat="42.095515" lon="23.576699"><ele>2472.3</ele><time>2026-03-08T10:21:17.000Z</time></trkpt>
<trkpt lat="42.095516" lon="23.576697"><ele>2472.3</ele><time>2026-03-08T10:21:18.000Z</time></trkpt>
<trkpt lat="42.095516" lon="23.576695"><ele>2472.3</ele><time>2026-03-08T10:21:19.000Z</time></trkpt>
<trkpt lat="42.095516" lon="23.576694"><ele>2472.3</ele><time>2026-03-08T10:21:20.000Z</time></trkpt>
<trkpt lat="42.095516" lon="23.576693"><ele>2472.3</ele><time>2026-03-08T10:21:21.000Z</time></trkpt>
<trkpt lat="42.095515" lon="23.576693"><ele>2472.2</ele><time>2026-03-08T10:21:22.000Z</time></trkpt>
<trkpt lat="42.095515" lon="23.576693"><ele>2472.2</ele><time>2026-03-08T10:21:23.000Z</time></trkpt>
<trkpt lat="42.095515" lon="23.576693"><ele>2472.2</ele><time>2026-03-08T10:21:24.000Z</time></trkpt>
<trkpt lat="42.095515" lon="23.576693"><ele>2472.2</ele><time>2026-03-08T10:21:25.000Z</time></trkpt>
<trkpt lat="42.095515" lon="23.576693"><ele>2472.2</ele><time>2026-03-08T10:21:26.000Z</time></trkpt>
<trkpt lat="42.095515" lon="23.576693"><ele>2472.2</ele><time>2026-03-08T10:21:27.000Z</time></trkpt>
<trkpt lat="42.095515" lon="23.576693"><ele>2472.2</ele><time>2026-03-08T10:21:28.000Z</time></trkpt>
<trkpt lat="42.095515" lon="23.576693"><ele>2472.2</ele><time>2026-03-08T10:21:29.000Z</time></trkpt>
<trkpt lat="42.095514" lon="23.576693"><ele>2472.2</ele><time>2026-03-08T10:21:30.000Z</time></trkpt>
<trkpt lat="42.095514" lon="23.576693"><ele>2472.2</ele><time>2026-03-08T10:21:31.000Z</time></trkpt>
<trkpt lat="42.095513" lon="23.576693"><ele>2472.3</ele><time>2026-03-08T10:21:32.000Z</time></trkpt>
<trkpt lat="42.095513" lon="23.576693"><ele>2472.3</ele><time>2026-03-08T10:21:33.000Z</time></trkpt>
<trkpt lat="42.095512" lon="23.576693"><ele>2472.3</ele><time>2026-03-08T10:21:34.000Z</time></trkpt>
<trkpt lat="42.095512" lon="23.576693"><ele>2472.3</ele><time>2026-03-08T10:21:35.000Z</time></trkpt>
<trkpt lat="42.095512" lon="23.576693"><ele>2472.3</ele><time>2026-03-08T10:21:36.000Z</time></trkpt>
<trkpt lat="42.095512" lon="23.576693"><ele>2472.3</ele><time>2026-03-08T10:21:37.000Z</time></trkpt>
<trkpt lat="42.095512" lon="23.576693"><ele>2472.3</ele><time>2026-03-08T10:21:38.000Z</time></trkpt>
<trkpt lat="42.095512" lon="23.576693"><ele>2472.3</ele><time>2026-03-08T10:21:39.000Z</time></trkpt>
<trkpt lat="42.095512" lon="23.576693"><ele>2472.3</ele><time>2026-03-08T10:21:40.000Z</time></trkpt>
<trkpt lat="42.095512" lon="23.576693"><ele>2472.3</ele><time>2026-03-08T10:21:41.000Z</time></trkpt>
<trkpt lat="42.095512" lon="23.576693"><ele>2472.3</ele><time>2026-03-08T10:21:42.000Z</time></trkpt>
<trkpt lat="42.095512" lon="23.576693"><ele>2472.3</ele><time>2026-03-08T10:21:43.000Z</time></trkpt>
<trkpt lat="42.095512" lon="23.576693"><ele>2472.3</ele><time>2026-03-08T10:21:44.000Z</time></trkpt>
<trkpt lat="42.095512" lon="23.576693"><ele>2472.3</ele><time>2026-03-08T10:21:45.000Z</time></trkpt>
<trkpt lat="42.095512" lon="23.576693"><ele>2472.3</ele><time>2026-03-08T10:21:46.000Z</time></trkpt>
<trkpt lat="42.095512" lon="23.576693"><ele>2472</ele><time>2026-03-08T10:21:47.000Z</time></trkpt>
<trkpt lat="42.095512" lon="23.576693"><ele>2472</ele><time>2026-03-08T10:21:48.000Z</time></trkpt>
<trkpt lat="42.095512" lon="23.576693"><ele>2472</ele><time>2026-03-08T10:21:49.000Z</time></trkpt>
<trkpt lat="42.095512" lon="23.576693"><ele>2472</ele><time>2026-03-08T10:21:50.000Z</time></trkpt>
<trkpt lat="42.095512" lon="23.576693"><ele>2472</ele><time>2026-03-08T10:21:51.000Z</time></trkpt>
<trkpt lat="42.095512" lon="23.576693"><ele>2471.8</ele><time>2026-03-08T10:21:52.000Z</time></trkpt>
<trkpt lat="42.095512" lon="23.576693"><ele>2471.8</ele><time>2026-03-08T10:21:53.000Z</time></trkpt>
<trkpt lat="42.095512" lon="23.576693"><ele>2471.8</ele><time>2026-03-08T10:21:54.000Z</time></trkpt>
<trkpt lat="42.095512" lon="23.576693"><ele>2471.8</ele><time>2026-03-08T10:21:55.000Z</time></trkpt>
<trkpt lat="42.095512" lon="23.576693"><ele>2471.8</ele><time>2026-03-08T10:21:56.000Z</time></trkpt>
<trkpt lat="42.095512" lon="23.576693"><ele>2471.7</ele><time>2026-03-08T10:21:57.000Z</time></trkpt>
<trkpt lat="42.095512" lon="23.576693"><ele>2471.7</ele><time>2026-03-08T10:21:58.000Z</time></trkpt>
<trkpt lat="42.095512" lon="23.576693"><ele>2471.7</ele><time>2026-03-08T10:21:59.000Z</time></trkpt>
<trkpt lat="42.095512" lon="23.576693"><ele>2471.7</ele><time>2026-03-08T10:22:00.000Z</time></trkpt>
<trkpt lat="42.095512" lon="23.576693"><ele>2471.7</ele><time>2026-03-08T10:22:01.000Z</time></trkpt>
<trkpt lat="42.095512" lon="23.576693"><ele>2471.7</ele><time>2026-03-08T10:22:02.000Z</time></trkpt>
<trkpt lat="42.095512" lon="23.576693"><ele>2471.7</ele><time>2026-03-08T10:22:03.000Z</time></trkpt>
<trkpt lat="42.095512" lon="23.576693"><ele>2471.7</ele><time>2026-03-08T10:22:04.000Z</time></trkpt>
<trkpt lat="42.095512" lon="23.576693"><ele>2471.7</ele><time>2026-03-08T10:22:05.000Z</time></trkpt>
<trkpt lat="42.095512" lon="23.576693"><ele>2471.7</ele><time>2026-03-08T10:22:06.000Z</time></trkpt>
<trkpt lat="42.095512" lon="23.576693"><ele>2471.9</ele><time>2026-03-08T10:22:07.000Z</time></trkpt>
<trkpt lat="42.095512" lon="23.576693"><ele>2471.9</ele><time>2026-03-08T10:22:08.000Z</time></trkpt>
<trkpt lat="42.095512" lon="23.576693"><ele>2471.9</ele><time>2026-03-08T10:22:09.000Z</time></trkpt>
<trkpt lat="42.095512" lon="23.576693"><ele>2471.9</ele><time>2026-03-08T10:22:10.000Z</time></trkpt>
<trkpt lat="42.095512" lon="23.576693"><ele>2471.9</ele><time>2026-03-08T10:22:11.000Z</time></trkpt>
<trkpt lat="42.095512" lon="23.576693"><ele>2471.9</ele><time>2026-03-08T10:22:12.000Z</time></trkpt>
<trkpt lat="42.095512" lon="23.576693"><ele>2471.9</ele><time>2026-03-08T10:22:13.000Z</time></trkpt>
<trkpt lat="42.095512" lon="23.576693"><ele>2471.9</ele><time>2026-03-08T10:22:14.000Z</time></trkpt>
<trkpt lat="42.095512" lon="23.576693"><ele>2471.9</ele><time>2026-03-08T10:22:15.000Z</time></trkpt>
<trkpt lat="42.095512" lon="23.576693"><ele>2471.9</ele><time>2026-03-08T10:22:16.000Z</time></trkpt>
<trkpt lat="42.095512" lon="23.576693"><ele>2471.9</ele><time>2026-03-08T10:22:17.000Z</time></trkpt>
<trkpt lat="42.095512" lon="23.576693"><ele>2471.9</ele><time>2026-03-08T10:22:18.000Z</time></trkpt>
<trkpt lat="42.095512" lon="23.576693"><ele>2471.9</ele><time>2026-03-08T10:22:19.000Z</time></trkpt>
<trkpt lat="42.095512" lon="23.576694"><ele>2471.9</ele><time>2026-03-08T10:22:20.000Z</time></trkpt>
<trkpt lat="42.095512" lon="23.576694"><ele>2471.9</ele><time>2026-03-08T10:22:21.000Z</time></trkpt>
<trkpt lat="42.095512" lon="23.576695"><ele>2471.9</ele><time>2026-03-08T10:22:22.000Z</time></trkpt>
<trkpt lat="42.095512" lon="23.576695"><ele>2471.9</ele><time>2026-03-08T10:22:23.000Z</time></trkpt>
<trkpt lat="42.095512" lon="23.576696"><ele>2471.9</ele><time>2026-03-08T10:22:24.000Z</time></trkpt>
<trkpt lat="42.095512" lon="23.576696"><ele>2471.9</ele><time>2026-03-08T10:22:25.000Z</time></trkpt>
<trkpt lat="42.095512" lon="23.576696"><ele>2471.9</ele><time>2026-03-08T10:22:26.000Z</time></trkpt>
<trkpt lat="42.095511" lon="23.576696"><ele>2471.9</ele><time>2026-03-08T10:22:27.000Z</time></trkpt>
<trkpt lat="42.095511" lon="23.576696"><ele>2471.9</ele><time>2026-03-08T10:22:28.000Z</time></trkpt>
<trkpt lat="42.09551" lon="23.576696"><ele>2471.9</ele><time>2026-03-08T10:22:29.000Z</time></trkpt>
<trkpt lat="42.095509" lon="23.576696"><ele>2471.9</ele><time>2026-03-08T10:22:30.000Z</time></trkpt>
<trkpt lat="42.095509" lon="23.576696"><ele>2471.9</ele><time>2026-03-08T10:22:31.000Z</time></trkpt>
<trkpt lat="42.095509" lon="23.576696"><ele>2472.1</ele><time>2026-03-08T10:22:32.000Z</time></trkpt>
<trkpt lat="42.095507" lon="23.576696"><ele>2472.1</ele><time>2026-03-08T10:22:33.000Z</time></trkpt>
<trkpt lat="42.095503" lon="23.576694"><ele>2472.1</ele><time>2026-03-08T10:22:34.000Z</time></trkpt>
<trkpt lat="42.095498" lon="23.576691"><ele>2472.1</ele><time>2026-03-08T10:22:35.000Z</time></trkpt>
<trkpt lat="42.095493" lon="23.576688"><ele>2472.1</ele><time>2026-03-08T10:22:36.000Z</time></trkpt>
<trkpt lat="42.095488" lon="23.576685"><ele>2472.4</ele><time>2026-03-08T10:22:37.000Z</time></trkpt>
<trkpt lat="42.095485" lon="23.576682"><ele>2472.4</ele><time>2026-03-08T10:22:38.000Z</time></trkpt>
<trkpt lat="42.095483" lon="23.57668"><ele>2472.4</ele><time>2026-03-08T10:22:39.000Z</time></trkpt>
<trkpt lat="42.095482" lon="23.57668"><ele>2472.4</ele><time>2026-03-08T10:22:40.000Z</time></trkpt>
<trkpt lat="42.095481" lon="23.57668"><ele>2472.4</ele><time>2026-03-08T10:22:41.000Z</time></trkpt>
<trkpt lat="42.09548" lon="23.576679"><ele>2472.4</ele><time>2026-03-08T10:22:42.000Z</time></trkpt>
<trkpt lat="42.09548" lon="23.576679"><ele>2472.4</ele><time>2026-03-08T10:22:43.000Z</time></trkpt>
<trkpt lat="42.09548" lon="23.576678"><ele>2472.4</ele><time>2026-03-08T10:22:44.000Z</time></trkpt>
<trkpt lat="42.09548" lon="23.576677"><ele>2472.4</ele><time>2026-03-08T10:22:45.000Z</time></trkpt>
<trkpt lat="42.09548" lon="23.576677"><ele>2472.4</ele><time>2026-03-08T10:22:46.000Z</time></trkpt>
<trkpt lat="42.095479" lon="23.576677"><ele>2472.4</ele><time>2026-03-08T10:22:47.000Z</time></trkpt>
<trkpt lat="42.095479" lon="23.576677"><ele>2472.4</ele><time>2026-03-08T10:22:48.000Z</time></trkpt>
<trkpt lat="42.095478" lon="23.576678"><ele>2472.4</ele><time>2026-03-08T10:22:49.000Z</time></trkpt>
<trkpt lat="42.095477" lon="23.576679"><ele>2472.4</ele><time>2026-03-08T10:22:50.000Z</time></trkpt>
<trkpt lat="42.095477" lon="23.576679"><ele>2472.4</ele><time>2026-03-08T10:22:51.000Z</time></trkpt>
<trkpt lat="42.095477" lon="23.57668"><ele>2472.3</ele><time>2026-03-08T10:22:52.000Z</time></trkpt>
<trkpt lat="42.095478" lon="23.57668"><ele>2472.3</ele><time>2026-03-08T10:22:53.000Z</time></trkpt>
<trkpt lat="42.095478" lon="23.576679"><ele>2472.3</ele><time>2026-03-08T10:22:54.000Z</time></trkpt>
<trkpt lat="42.095478" lon="23.576679"><ele>2472.3</ele><time>2026-03-08T10:22:55.000Z</time></trkpt>
<trkpt lat="42.095479" lon="23.576678"><ele>2472.3</ele><time>2026-03-08T10:22:56.000Z</time></trkpt>
<trkpt lat="42.095479" lon="23.576678"><ele>2472.2</ele><time>2026-03-08T10:22:57.000Z</time></trkpt>
<trkpt lat="42.095479" lon="23.576677"><ele>2472.2</ele><time>2026-03-08T10:22:58.000Z</time></trkpt>
<trkpt lat="42.095479" lon="23.576677"><ele>2472.2</ele><time>2026-03-08T10:22:59.000Z</time></trkpt>
<trkpt lat="42.095479" lon="23.576678"><ele>2472.2</ele><time>2026-03-08T10:23:00.000Z</time></trkpt>
<trkpt lat="42.095479" lon="23.576678"><ele>2472.2</ele><time>2026-03-08T10:23:01.000Z</time></trkpt>
<trkpt lat="42.095479" lon="23.576678"><ele>2472.2</ele><time>2026-03-08T10:23:02.000Z</time></trkpt>
<trkpt lat="42.095479" lon="23.576678"><ele>2472.2</ele><time>2026-03-08T10:23:03.000Z</time></trkpt>
<trkpt lat="42.095479" lon="23.576678"><ele>2472.2</ele><time>2026-03-08T10:23:04.000Z</time></trkpt>
<trkpt lat="42.095479" lon="23.576678"><ele>2472.2</ele><time>2026-03-08T10:23:05.000Z</time></trkpt>
<trkpt lat="42.095479" lon="23.576679"><ele>2472.2</ele><time>2026-03-08T10:23:06.000Z</time></trkpt>
<trkpt lat="42.095479" lon="23.57668"><ele>2472.1</ele><time>2026-03-08T10:23:07.000Z</time></trkpt>
<trkpt lat="42.095479" lon="23.576681"><ele>2472.1</ele><time>2026-03-08T10:23:08.000Z</time></trkpt>
<trkpt lat="42.095479" lon="23.576683"><ele>2472.1</ele><time>2026-03-08T10:23:09.000Z</time></trkpt>
<trkpt lat="42.095478" lon="23.576684"><ele>2472.1</ele><time>2026-03-08T10:23:10.000Z</time></trkpt>
<trkpt lat="42.095478" lon="23.576685"><ele>2472.1</ele><time>2026-03-08T10:23:11.000Z</time></trkpt>
<trkpt lat="42.095476" lon="23.576686"><ele>2472</ele><time>2026-03-08T10:23:12.000Z</time></trkpt>
<trkpt lat="42.095474" lon="23.576687"><ele>2472</ele><time>2026-03-08T10:23:13.000Z</time></trkpt>
<trkpt lat="42.095471" lon="23.576686"><ele>2472</ele><time>2026-03-08T10:23:14.000Z</time></trkpt>
<trkpt lat="42.09547" lon="23.576685"><ele>2472</ele><time>2026-03-08T10:23:15.000Z</time></trkpt>
<trkpt lat="42.095468" lon="23.576687"><ele>2472</ele><time>2026-03-08T10:23:16.000Z</time></trkpt>
<trkpt lat="42.095467" lon="23.576688"><ele>2472</ele><time>2026-03-08T10:23:17.000Z</time></trkpt>
<trkpt lat="42.095466" lon="23.576689"><ele>2472</ele><time>2026-03-08T10:23:18.000Z</time></trkpt>
<trkpt lat="42.095466" lon="23.576691"><ele>2472</ele><time>2026-03-08T10:23:19.000Z</time></trkpt>
<trkpt lat="42.095466" lon="23.576693"><ele>2472</ele><time>2026-03-08T10:23:20.000Z</time></trkpt>
<trkpt lat="42.095466" lon="23.576693"><ele>2472</ele><time>2026-03-08T10:23:21.000Z</time></trkpt>
<trkpt lat="42.095466" lon="23.576693"><ele>2471.9</ele><time>2026-03-08T10:23:22.000Z</time></trkpt>
<trkpt lat="42.095467" lon="23.576692"><ele>2471.9</ele><time>2026-03-08T10:23:23.000Z</time></trkpt>
<trkpt lat="42.095467" lon="23.576691"><ele>2471.9</ele><time>2026-03-08T10:23:24.000Z</time></trkpt>
<trkpt lat="42.095468" lon="23.576691"><ele>2471.9</ele><time>2026-03-08T10:23:25.000Z</time></trkpt>
<trkpt lat="42.095469" lon="23.57669"><ele>2471.9</ele><time>2026-03-08T10:23:26.000Z</time></trkpt>
<trkpt lat="42.09547" lon="23.576688"><ele>2471.9</ele><time>2026-03-08T10:23:27.000Z</time></trkpt>
<trkpt lat="42.09547" lon="23.576687"><ele>2471.9</ele><time>2026-03-08T10:23:28.000Z</time></trkpt>
<trkpt lat="42.095471" lon="23.576685"><ele>2471.9</ele><time>2026-03-08T10:23:29.000Z</time></trkpt>
<trkpt lat="42.095471" lon="23.576683"><ele>2471.9</ele><time>2026-03-08T10:23:30.000Z</time></trkpt>
<trkpt lat="42.095471" lon="23.576682"><ele>2471.9</ele><time>2026-03-08T10:23:31.000Z</time></trkpt>
<trkpt lat="42.095472" lon="23.576682"><ele>2471.9</ele><time>2026-03-08T10:23:32.000Z</time></trkpt>
<trkpt lat="42.095473" lon="23.576683"><ele>2471.9</ele><time>2026-03-08T10:23:33.000Z</time></trkpt>
<trkpt lat="42.095473" lon="23.576683"><ele>2471.9</ele><time>2026-03-08T10:23:34.000Z</time></trkpt>
<trkpt lat="42.095473" lon="23.576683"><ele>2471.9</ele><time>2026-03-08T10:23:35.000Z</time></trkpt>
<trkpt lat="42.095474" lon="23.576683"><ele>2471.9</ele><time>2026-03-08T10:23:36.000Z</time></trkpt>
<trkpt lat="42.095475" lon="23.576683"><ele>2472</ele><time>2026-03-08T10:23:37.000Z</time></trkpt>
<trkpt lat="42.095475" lon="23.576682"><ele>2472</ele><time>2026-03-08T10:23:38.000Z</time></trkpt>
<trkpt lat="42.095476" lon="23.576682"><ele>2472</ele><time>2026-03-08T10:23:39.000Z</time></trkpt>
<trkpt lat="42.095476" lon="23.576681"><ele>2472</ele><time>2026-03-08T10:23:40.000Z</time></trkpt>
<trkpt lat="42.095476" lon="23.576681"><ele>2472</ele><time>2026-03-08T10:23:41.000Z</time></trkpt>
<trkpt lat="42.095476" lon="23.57668"><ele>2472.1</ele><time>2026-03-08T10:23:42.000Z</time></trkpt>
<trkpt lat="42.095476" lon="23.57668"><ele>2472.1</ele><time>2026-03-08T10:23:43.000Z</time></trkpt>
<trkpt lat="42.095475" lon="23.576678"><ele>2472.1</ele><time>2026-03-08T10:23:44.000Z</time></trkpt>
<trkpt lat="42.095473" lon="23.576676"><ele>2472.1</ele><time>2026-03-08T10:23:45.000Z</time></trkpt>
<trkpt lat="42.095472" lon="23.576674"><ele>2472.1</ele><time>2026-03-08T10:23:46.000Z</time></trkpt>
<trkpt lat="42.09547" lon="23.576672"><ele>2472.2</ele><time>2026-03-08T10:23:47.000Z</time></trkpt>
<trkpt lat="42.095468" lon="23.57667"><ele>2472.2</ele><time>2026-03-08T10:23:48.000Z</time></trkpt>
<trkpt lat="42.095467" lon="23.576669"><ele>2472.2</ele><time>2026-03-08T10:23:49.000Z</time></trkpt>
<trkpt lat="42.095465" lon="23.576668"><ele>2472.2</ele><time>2026-03-08T10:23:50.000Z</time></trkpt>
<trkpt lat="42.095464" lon="23.576667"><ele>2472.2</ele><time>2026-03-08T10:23:51.000Z</time></trkpt>
<trkpt lat="42.095462" lon="23.576667"><ele>2472.1</ele><time>2026-03-08T10:23:52.000Z</time></trkpt>
<trkpt lat="42.09546" lon="23.576667"><ele>2472.1</ele><time>2026-03-08T10:23:53.000Z</time></trkpt>
<trkpt lat="42.095457" lon="23.576666"><ele>2472.1</ele><time>2026-03-08T10:23:54.000Z</time></trkpt>
<trkpt lat="42.095456" lon="23.576666"><ele>2472.1</ele><time>2026-03-08T10:23:55.000Z</time></trkpt>
<trkpt lat="42.095455" lon="23.576666"><ele>2472.1</ele><time>2026-03-08T10:23:56.000Z</time></trkpt>
<trkpt lat="42.095454" lon="23.576666"><ele>2472</ele><time>2026-03-08T10:23:57.000Z</time></trkpt>
<trkpt lat="42.095454" lon="23.576666"><ele>2472</ele><time>2026-03-08T10:23:58.000Z</time></trkpt>
<trkpt lat="42.095454" lon="23.576666"><ele>2472</ele><time>2026-03-08T10:23:59.000Z</time></trkpt>
<trkpt lat="42.095453" lon="23.576666"><ele>2472</ele><time>2026-03-08T10:24:00.000Z</time></trkpt>
<trkpt lat="42.095453" lon="23.576665"><ele>2472</ele><time>2026-03-08T10:24:01.000Z</time></trkpt>
<trkpt lat="42.095453" lon="23.576665"><ele>2471.9</ele><time>2026-03-08T10:24:02.000Z</time></trkpt>
<trkpt lat="42.095452" lon="23.576666"><ele>2471.9</ele><time>2026-03-08T10:24:03.000Z</time></trkpt>
<trkpt lat="42.095452" lon="23.576666"><ele>2471.9</ele><time>2026-03-08T10:24:04.000Z</time></trkpt>
<trkpt lat="42.095452" lon="23.576666"><ele>2471.9</ele><time>2026-03-08T10:24:05.000Z</time></trkpt>
<trkpt lat="42.095452" lon="23.576666"><ele>2471.9</ele><time>2026-03-08T10:24:06.000Z</time></trkpt>
<trkpt lat="42.095451" lon="23.576666"><ele>2471.9</ele><time>2026-03-08T10:24:07.000Z</time></trkpt>
<trkpt lat="42.095451" lon="23.576665"><ele>2471.9</ele><time>2026-03-08T10:24:08.000Z</time></trkpt>
<trkpt lat="42.09545" lon="23.576664"><ele>2471.9</ele><time>2026-03-08T10:24:09.000Z</time></trkpt>
<trkpt lat="42.095448" lon="23.576662"><ele>2471.9</ele><time>2026-03-08T10:24:10.000Z</time></trkpt>
<trkpt lat="42.095447" lon="23.57666"><ele>2471.9</ele><time>2026-03-08T10:24:11.000Z</time></trkpt>
<trkpt lat="42.095444" lon="23.576657"><ele>2471.9</ele><time>2026-03-08T10:24:12.000Z</time></trkpt>
<trkpt lat="42.095441" lon="23.576654"><ele>2471.9</ele><time>2026-03-08T10:24:13.000Z</time></trkpt>
<trkpt lat="42.095437" lon="23.57665"><ele>2471.9</ele><time>2026-03-08T10:24:14.000Z</time></trkpt>
<trkpt lat="42.095433" lon="23.576647"><ele>2471.9</ele><time>2026-03-08T10:24:15.000Z</time></trkpt>
<trkpt lat="42.095427" lon="23.576643"><ele>2471.9</ele><time>2026-03-08T10:24:16.000Z</time></trkpt>
<trkpt lat="42.095422" lon="23.576639"><ele>2471.9</ele><time>2026-03-08T10:24:17.000Z</time></trkpt>
<trkpt lat="42.095417" lon="23.576635"><ele>2471.9</ele><time>2026-03-08T10:24:18.000Z</time></trkpt>
<trkpt lat="42.095412" lon="23.576632"><ele>2471.9</ele><time>2026-03-08T10:24:19.000Z</time></trkpt>
<trkpt lat="42.095407" lon="23.576631"><ele>2471.9</ele><time>2026-03-08T10:24:20.000Z</time></trkpt>
<trkpt lat="42.095401" lon="23.576631"><ele>2471.9</ele><time>2026-03-08T10:24:21.000Z</time></trkpt>
<trkpt lat="42.095394" lon="23.576632"><ele>2471.6</ele><time>2026-03-08T10:24:22.000Z</time></trkpt>
<trkpt lat="42.095385" lon="23.576632"><ele>2471.6</ele><time>2026-03-08T10:24:23.000Z</time></trkpt>
<trkpt lat="42.095376" lon="23.576632"><ele>2471.6</ele><time>2026-03-08T10:24:24.000Z</time></trkpt>
<trkpt lat="42.095368" lon="23.576631"><ele>2471.6</ele><time>2026-03-08T10:24:25.000Z</time></trkpt>
<trkpt lat="42.095362" lon="23.576629"><ele>2471.6</ele><time>2026-03-08T10:24:26.000Z</time></trkpt>
<trkpt lat="42.095358" lon="23.576627"><ele>2471.3</ele><time>2026-03-08T10:24:27.000Z</time></trkpt>
<trkpt lat="42.095355" lon="23.576624"><ele>2471.3</ele><time>2026-03-08T10:24:28.000Z</time></trkpt>
<trkpt lat="42.095354" lon="23.57662"><ele>2471.3</ele><time>2026-03-08T10:24:29.000Z</time></trkpt>
<trkpt lat="42.095353" lon="23.576616"><ele>2471.3</ele><time>2026-03-08T10:24:30.000Z</time></trkpt>
<trkpt lat="42.095352" lon="23.576612"><ele>2471.3</ele><time>2026-03-08T10:24:31.000Z</time></trkpt>
<trkpt lat="42.095351" lon="23.576609"><ele>2470.7</ele><time>2026-03-08T10:24:32.000Z</time></trkpt>
<trkpt lat="42.09535" lon="23.576606"><ele>2470.7</ele><time>2026-03-08T10:24:33.000Z</time></trkpt>
<trkpt lat="42.09535" lon="23.576606"><ele>2470.7</ele><time>2026-03-08T10:24:34.000Z</time></trkpt>
<trkpt lat="42.095349" lon="23.576604"><ele>2470.7</ele><time>2026-03-08T10:24:35.000Z</time></trkpt>
<trkpt lat="42.095348" lon="23.576603"><ele>2470.7</ele><time>2026-03-08T10:24:36.000Z</time></trkpt>
<trkpt lat="42.095348" lon="23.576601"><ele>2470.1</ele><time>2026-03-08T10:24:37.000Z</time></trkpt>
<trkpt lat="42.095347" lon="23.5766"><ele>2470.1</ele><time>2026-03-08T10:24:38.000Z</time></trkpt>
<trkpt lat="42.095345" lon="23.576598"><ele>2470.1</ele><time>2026-03-08T10:24:39.000Z</time></trkpt>
<trkpt lat="42.095344" lon="23.576595"><ele>2470.1</ele><time>2026-03-08T10:24:40.000Z</time></trkpt>
<trkpt lat="42.095344" lon="23.576592"><ele>2470.1</ele><time>2026-03-08T10:24:41.000Z</time></trkpt>
<trkpt lat="42.095343" lon="23.57659"><ele>2469.8</ele><time>2026-03-08T10:24:42.000Z</time></trkpt>
<trkpt lat="42.095342" lon="23.576587"><ele>2469.8</ele><time>2026-03-08T10:24:43.000Z</time></trkpt>
<trkpt lat="42.095341" lon="23.576583"><ele>2469.8</ele><time>2026-03-08T10:24:44.000Z</time></trkpt>
<trkpt lat="42.09534" lon="23.576579"><ele>2469.8</ele><time>2026-03-08T10:24:45.000Z</time></trkpt>
<trkpt lat="42.095338" lon="23.576574"><ele>2469.8</ele><time>2026-03-08T10:24:46.000Z</time></trkpt>
<trkpt lat="42.095336" lon="23.576569"><ele>2469.2</ele><time>2026-03-08T10:24:47.000Z</time></trkpt>
<trkpt lat="42.095335" lon="23.576564"><ele>2469.2</ele><time>2026-03-08T10:24:48.000Z</time></trkpt>
<trkpt lat="42.095334" lon="23.576557"><ele>2469.2</ele><time>2026-03-08T10:24:49.000Z</time></trkpt>
<trkpt lat="42.095333" lon="23.57655"><ele>2469.2</ele><time>2026-03-08T10:24:50.000Z</time></trkpt>
<trkpt lat="42.095334" lon="23.576543"><ele>2469.2</ele><time>2026-03-08T10:24:51.000Z</time></trkpt>
<trkpt lat="42.095335" lon="23.576535"><ele>2468.5</ele><time>2026-03-08T10:24:52.000Z</time></trkpt>
<trkpt lat="42.095336" lon="23.576527"><ele>2468.5</ele><time>2026-03-08T10:24:53.000Z</time></trkpt>
<trkpt lat="42.095337" lon="23.576519"><ele>2468.5</ele><time>2026-03-08T10:24:54.000Z</time></trkpt>
<trkpt lat="42.095339" lon="23.576512"><ele>2468.5</ele><time>2026-03-08T10:24:55.000Z</time></trkpt>
<trkpt lat="42.095341" lon="23.576505"><ele>2468.5</ele><time>2026-03-08T10:24:56.000Z</time></trkpt>
<trkpt lat="42.095343" lon="23.576497"><ele>2468</ele><time>2026-03-08T10:24:57.000Z</time></trkpt>
<trkpt lat="42.095346" lon="23.57649"><ele>2468</ele><time>2026-03-08T10:24:58.000Z</time></trkpt>
<trkpt lat="42.095349" lon="23.576484"><ele>2468</ele><time>2026-03-08T10:24:59.000Z</time></trkpt>
<trkpt lat="42.095352" lon="23.576479"><ele>2468</ele><time>2026-03-08T10:25:00.000Z</time></trkpt>
<trkpt lat="42.095354" lon="23.576477"><ele>2468</ele><time>2026-03-08T10:25:01.000Z</time></trkpt>
<trkpt lat="42.095354" lon="23.576476"><ele>2467.1</ele><time>2026-03-08T10:25:02.000Z</time></trkpt>
<trkpt lat="42.095354" lon="23.576476"><ele>2467.1</ele><time>2026-03-08T10:25:03.000Z</time></trkpt>
<trkpt lat="42.095354" lon="23.576476"><ele>2467.1</ele><time>2026-03-08T10:25:04.000Z</time></trkpt>
<trkpt lat="42.095354" lon="23.576476"><ele>2467.1</ele><time>2026-03-08T10:25:05.000Z</time></trkpt>
<trkpt lat="42.095355" lon="23.576476"><ele>2467.1</ele><time>2026-03-08T10:25:06.000Z</time></trkpt>
<trkpt lat="42.095356" lon="23.576475"><ele>2466.3</ele><time>2026-03-08T10:25:07.000Z</time></trkpt>
<trkpt lat="42.095356" lon="23.576475"><ele>2466.3</ele><time>2026-03-08T10:25:08.000Z</time></trkpt>
<trkpt lat="42.095356" lon="23.576475"><ele>2466.3</ele><time>2026-03-08T10:25:09.000Z</time></trkpt>
<trkpt lat="42.095356" lon="23.576475"><ele>2466.3</ele><time>2026-03-08T10:25:10.000Z</time></trkpt>
<trkpt lat="42.095356" lon="23.576475"><ele>2466.3</ele><time>2026-03-08T10:25:11.000Z</time></trkpt>
<trkpt lat="42.095356" lon="23.576475"><ele>2465.9</ele><time>2026-03-08T10:25:12.000Z</time></trkpt>
<trkpt lat="42.095357" lon="23.576475"><ele>2465.9</ele><time>2026-03-08T10:25:13.000Z</time></trkpt>
<trkpt lat="42.095359" lon="23.576473"><ele>2465.9</ele><time>2026-03-08T10:25:14.000Z</time></trkpt>
<trkpt lat="42.095361" lon="23.576469"><ele>2465.9</ele><time>2026-03-08T10:25:15.000Z</time></trkpt>
<trkpt lat="42.095364" lon="23.576465"><ele>2465.9</ele><time>2026-03-08T10:25:16.000Z</time></trkpt>
<trkpt lat="42.095368" lon="23.57646"><ele>2465.6</ele><time>2026-03-08T10:25:17.000Z</time></trkpt>
<trkpt lat="42.095372" lon="23.576455"><ele>2465.6</ele><time>2026-03-08T10:25:18.000Z</time></trkpt>
<trkpt lat="42.095375" lon="23.57645"><ele>2465.6</ele><time>2026-03-08T10:25:19.000Z</time></trkpt>
<trkpt lat="42.095379" lon="23.576447"><ele>2465.6</ele><time>2026-03-08T10:25:20.000Z</time></trkpt>
<trkpt lat="42.095382" lon="23.576444"><ele>2465.6</ele><time>2026-03-08T10:25:21.000Z</time></trkpt>
<trkpt lat="42.095385" lon="23.57644"><ele>2465.7</ele><time>2026-03-08T10:25:22.000Z</time></trkpt>
<trkpt lat="42.095387" lon="23.576436"><ele>2465.7</ele><time>2026-03-08T10:25:23.000Z</time></trkpt>
<trkpt lat="42.095389" lon="23.576432"><ele>2465.7</ele><time>2026-03-08T10:25:24.000Z</time></trkpt>
<trkpt lat="42.095391" lon="23.576427"><ele>2465.7</ele><time>2026-03-08T10:25:25.000Z</time></trkpt>
<trkpt lat="42.095393" lon="23.576421"><ele>2465.7</ele><time>2026-03-08T10:25:26.000Z</time></trkpt>
<trkpt lat="42.095395" lon="23.576415"><ele>2465.7</ele><time>2026-03-08T10:25:27.000Z</time></trkpt>
<trkpt lat="42.095397" lon="23.576409"><ele>2465.7</ele><time>2026-03-08T10:25:28.000Z</time></trkpt>
<trkpt lat="42.095399" lon="23.576404"><ele>2465.7</ele><time>2026-03-08T10:25:29.000Z</time></trkpt>
<trkpt lat="42.095401" lon="23.5764"><ele>2465.7</ele><time>2026-03-08T10:25:30.000Z</time></trkpt>
<trkpt lat="42.095403" lon="23.576396"><ele>2465.7</ele><time>2026-03-08T10:25:31.000Z</time></trkpt>
<trkpt lat="42.095405" lon="23.576393"><ele>2465.8</ele><time>2026-03-08T10:25:32.000Z</time></trkpt>
<trkpt lat="42.095407" lon="23.576389"><ele>2465.8</ele><time>2026-03-08T10:25:33.000Z</time></trkpt>
<trkpt lat="42.09541" lon="23.576385"><ele>2465.8</ele><time>2026-03-08T10:25:34.000Z</time></trkpt>
<trkpt lat="42.095412" lon="23.576381"><ele>2465.8</ele><time>2026-03-08T10:25:35.000Z</time></trkpt>
<trkpt lat="42.095413" lon="23.576375"><ele>2465.8</ele><time>2026-03-08T10:25:36.000Z</time></trkpt>
<trkpt lat="42.095415" lon="23.576369"><ele>2465.7</ele><time>2026-03-08T10:25:37.000Z</time></trkpt>
<trkpt lat="42.095417" lon="23.576361"><ele>2465.7</ele><time>2026-03-08T10:25:38.000Z</time></trkpt>
<trkpt lat="42.095418" lon="23.576355"><ele>2465.7</ele><time>2026-03-08T10:25:39.000Z</time></trkpt>
<trkpt lat="42.095419" lon="23.576347"><ele>2465.7</ele><time>2026-03-08T10:25:40.000Z</time></trkpt>
<trkpt lat="42.095421" lon="23.576338"><ele>2465.7</ele><time>2026-03-08T10:25:41.000Z</time></trkpt>
<trkpt lat="42.095422" lon="23.576329"><ele>2465.7</ele><time>2026-03-08T10:25:42.000Z</time></trkpt>
<trkpt lat="42.095422" lon="23.57632"><ele>2465.7</ele><time>2026-03-08T10:25:43.000Z</time></trkpt>
<trkpt lat="42.095424" lon="23.57631"><ele>2465.7</ele><time>2026-03-08T10:25:44.000Z</time></trkpt>
<trkpt lat="42.095426" lon="23.576301"><ele>2465.7</ele><time>2026-03-08T10:25:45.000Z</time></trkpt>
<trkpt lat="42.095427" lon="23.576292"><ele>2465.7</ele><time>2026-03-08T10:25:46.000Z</time></trkpt>
<trkpt lat="42.095429" lon="23.576283"><ele>2465.6</ele><time>2026-03-08T10:25:47.000Z</time></trkpt>
<trkpt lat="42.095431" lon="23.576275"><ele>2465.6</ele><time>2026-03-08T10:25:48.000Z</time></trkpt>
<trkpt lat="42.095432" lon="23.576266"><ele>2465.6</ele><time>2026-03-08T10:25:49.000Z</time></trkpt>
<trkpt lat="42.095433" lon="23.576257"><ele>2465.6</ele><time>2026-03-08T10:25:50.000Z</time></trkpt>
<trkpt lat="42.095432" lon="23.576248"><ele>2465.6</ele><time>2026-03-08T10:25:51.000Z</time></trkpt>
<trkpt lat="42.095432" lon="23.57624"><ele>2465.5</ele><time>2026-03-08T10:25:52.000Z</time></trkpt>
<trkpt lat="42.095433" lon="23.576231"><ele>2465.5</ele><time>2026-03-08T10:25:53.000Z</time></trkpt>
<trkpt lat="42.095433" lon="23.576224"><ele>2465.5</ele><time>2026-03-08T10:25:54.000Z</time></trkpt>
<trkpt lat="42.095432" lon="23.576216"><ele>2465.5</ele><time>2026-03-08T10:25:55.000Z</time></trkpt>
<trkpt lat="42.09543" lon="23.576208"><ele>2465.5</ele><time>2026-03-08T10:25:56.000Z</time></trkpt>
<trkpt lat="42.095428" lon="23.5762"><ele>2465.5</ele><time>2026-03-08T10:25:57.000Z</time></trkpt>
<trkpt lat="42.095427" lon="23.576191"><ele>2465.5</ele><time>2026-03-08T10:25:58.000Z</time></trkpt>
<trkpt lat="42.095427" lon="23.576181"><ele>2465.5</ele><time>2026-03-08T10:25:59.000Z</time></trkpt>
<trkpt lat="42.095427" lon="23.576174"><ele>2465.5</ele><time>2026-03-08T10:26:00.000Z</time></trkpt>
<trkpt lat="42.095429" lon="23.576166"><ele>2465.5</ele><time>2026-03-08T10:26:01.000Z</time></trkpt>
<trkpt lat="42.095432" lon="23.576159"><ele>2465.5</ele><time>2026-03-08T10:26:02.000Z</time></trkpt>
<trkpt lat="42.095434" lon="23.576152"><ele>2465.5</ele><time>2026-03-08T10:26:03.000Z</time></trkpt>
<trkpt lat="42.095436" lon="23.576146"><ele>2465.5</ele><time>2026-03-08T10:26:04.000Z</time></trkpt>
<trkpt lat="42.095439" lon="23.576138"><ele>2465.5</ele><time>2026-03-08T10:26:05.000Z</time></trkpt>
<trkpt lat="42.095441" lon="23.576131"><ele>2465.5</ele><time>2026-03-08T10:26:06.000Z</time></trkpt>
<trkpt lat="42.095442" lon="23.576124"><ele>2465.7</ele><time>2026-03-08T10:26:07.000Z</time></trkpt>
<trkpt lat="42.095444" lon="23.576118"><ele>2465.7</ele><time>2026-03-08T10:26:08.000Z</time></trkpt>
<trkpt lat="42.095446" lon="23.576111"><ele>2465.7</ele><time>2026-03-08T10:26:09.000Z</time></trkpt>
<trkpt lat="42.095447" lon="23.576103"><ele>2465.7</ele><time>2026-03-08T10:26:10.000Z</time></trkpt>
<trkpt lat="42.095448" lon="23.576095"><ele>2465.7</ele><time>2026-03-08T10:26:11.000Z</time></trkpt>
<trkpt lat="42.095449" lon="23.576088"><ele>2465.9</ele><time>2026-03-08T10:26:12.000Z</time></trkpt>
<trkpt lat="42.095451" lon="23.576082"><ele>2465.9</ele><time>2026-03-08T10:26:13.000Z</time></trkpt>
<trkpt lat="42.095452" lon="23.576076"><ele>2465.9</ele><time>2026-03-08T10:26:14.000Z</time></trkpt>
<trkpt lat="42.095455" lon="23.576072"><ele>2465.9</ele><time>2026-03-08T10:26:15.000Z</time></trkpt>
<trkpt lat="42.095457" lon="23.576069"><ele>2465.9</ele><time>2026-03-08T10:26:16.000Z</time></trkpt>
<trkpt lat="42.095458" lon="23.576067"><ele>2466.6</ele><time>2026-03-08T10:26:17.000Z</time></trkpt>
<trkpt lat="42.095461" lon="23.576064"><ele>2466.6</ele><time>2026-03-08T10:26:18.000Z</time></trkpt>
<trkpt lat="42.095463" lon="23.576062"><ele>2466.6</ele><time>2026-03-08T10:26:19.000Z</time></trkpt>
<trkpt lat="42.095465" lon="23.576059"><ele>2466.6</ele><time>2026-03-08T10:26:20.000Z</time></trkpt>
<trkpt lat="42.095467" lon="23.576056"><ele>2466.6</ele><time>2026-03-08T10:26:21.000Z</time></trkpt>
<trkpt lat="42.09547" lon="23.576051"><ele>2467.5</ele><time>2026-03-08T10:26:22.000Z</time></trkpt>
<trkpt lat="42.095471" lon="23.576046"><ele>2467.5</ele><time>2026-03-08T10:26:23.000Z</time></trkpt>
<trkpt lat="42.095473" lon="23.57604"><ele>2467.5</ele><time>2026-03-08T10:26:24.000Z</time></trkpt>
<trkpt lat="42.095473" lon="23.576035"><ele>2467.5</ele><time>2026-03-08T10:26:25.000Z</time></trkpt>
<trkpt lat="42.095474" lon="23.576029"><ele>2467.5</ele><time>2026-03-08T10:26:26.000Z</time></trkpt>
<trkpt lat="42.095475" lon="23.576023"><ele>2468</ele><time>2026-03-08T10:26:27.000Z</time></trkpt>
<trkpt lat="42.095477" lon="23.576017"><ele>2468</ele><time>2026-03-08T10:26:28.000Z</time></trkpt>
<trkpt lat="42.095479" lon="23.576012"><ele>2468</ele><time>2026-03-08T10:26:29.000Z</time></trkpt>
<trkpt lat="42.095482" lon="23.576008"><ele>2468</ele><time>2026-03-08T10:26:30.000Z</time></trkpt>
<trkpt lat="42.095484" lon="23.576004"><ele>2468</ele><time>2026-03-08T10:26:31.000Z</time></trkpt>
<trkpt lat="42.095485" lon="23.576001"><ele>2468.9</ele><time>2026-03-08T10:26:32.000Z</time></trkpt>
<trkpt lat="42.095485" lon="23.575999"><ele>2468.9</ele><time>2026-03-08T10:26:33.000Z</time></trkpt>
<trkpt lat="42.095484" lon="23.575997"><ele>2468.9</ele><time>2026-03-08T10:26:34.000Z</time></trkpt>
<trkpt lat="42.095483" lon="23.575994"><ele>2468.9</ele><time>2026-03-08T10:26:35.000Z</time></trkpt>
<trkpt lat="42.095484" lon="23.57599"><ele>2468.9</ele><time>2026-03-08T10:26:36.000Z</time></trkpt>
<trkpt lat="42.095484" lon="23.575986"><ele>2469.6</ele><time>2026-03-08T10:26:37.000Z</time></trkpt>
<trkpt lat="42.095485" lon="23.575982"><ele>2469.6</ele><time>2026-03-08T10:26:38.000Z</time></trkpt>
<trkpt lat="42.095485" lon="23.57598"><ele>2469.6</ele><time>2026-03-08T10:26:39.000Z</time></trkpt>
<trkpt lat="42.095485" lon="23.575978"><ele>2469.6</ele><time>2026-03-08T10:26:40.000Z</time></trkpt>
<trkpt lat="42.095486" lon="23.575976"><ele>2469.6</ele><time>2026-03-08T10:26:41.000Z</time></trkpt>
<trkpt lat="42.095486" lon="23.575973"><ele>2470</ele><time>2026-03-08T10:26:42.000Z</time></trkpt>
<trkpt lat="42.095486" lon="23.575969"><ele>2470</ele><time>2026-03-08T10:26:43.000Z</time></trkpt>
<trkpt lat="42.095486" lon="23.575965"><ele>2470</ele><time>2026-03-08T10:26:44.000Z</time></trkpt>
<trkpt lat="42.095485" lon="23.575959"><ele>2470</ele><time>2026-03-08T10:26:45.000Z</time></trkpt>
<trkpt lat="42.095485" lon="23.575953"><ele>2470</ele><time>2026-03-08T10:26:46.000Z</time></trkpt>
<trkpt lat="42.095485" lon="23.575948"><ele>2470.6</ele><time>2026-03-08T10:26:47.000Z</time></trkpt>
<trkpt lat="42.095485" lon="23.575944"><ele>2470.6</ele><time>2026-03-08T10:26:48.000Z</time></trkpt>
<trkpt lat="42.095485" lon="23.575941"><ele>2470.6</ele><time>2026-03-08T10:26:49.000Z</time></trkpt>
<trkpt lat="42.095485" lon="23.575939"><ele>2470.6</ele><time>2026-03-08T10:26:50.000Z</time></trkpt>
<trkpt lat="42.095485" lon="23.575938"><ele>2470.6</ele><time>2026-03-08T10:26:51.000Z</time></trkpt>
<trkpt lat="42.095485" lon="23.575936"><ele>2471.3</ele><time>2026-03-08T10:26:52.000Z</time></trkpt>
<trkpt lat="42.095484" lon="23.575934"><ele>2471.3</ele><time>2026-03-08T10:26:53.000Z</time></trkpt>
<trkpt lat="42.095484" lon="23.575932"><ele>2471.3</ele><time>2026-03-08T10:26:54.000Z</time></trkpt>
<trkpt lat="42.095484" lon="23.575931"><ele>2471.3</ele><time>2026-03-08T10:26:55.000Z</time></trkpt>
<trkpt lat="42.095484" lon="23.575929"><ele>2471.3</ele><time>2026-03-08T10:26:56.000Z</time></trkpt>
<trkpt lat="42.095484" lon="23.575927"><ele>2471.7</ele><time>2026-03-08T10:26:57.000Z</time></trkpt>
<trkpt lat="42.095485" lon="23.575925"><ele>2471.7</ele><time>2026-03-08T10:26:58.000Z</time></trkpt>
<trkpt lat="42.095486" lon="23.57592"><ele>2471.7</ele><time>2026-03-08T10:26:59.000Z</time></trkpt>
<trkpt lat="42.095486" lon="23.575915"><ele>2471.7</ele><time>2026-03-08T10:27:00.000Z</time></trkpt>
<trkpt lat="42.095485" lon="23.57591"><ele>2471.7</ele><time>2026-03-08T10:27:01.000Z</time></trkpt>
<trkpt lat="42.095485" lon="23.575904"><ele>2472.4</ele><time>2026-03-08T10:27:02.000Z</time></trkpt>
<trkpt lat="42.095485" lon="23.5759"><ele>2472.4</ele><time>2026-03-08T10:27:03.000Z</time></trkpt>
<trkpt lat="42.095485" lon="23.575896"><ele>2472.4</ele><time>2026-03-08T10:27:04.000Z</time></trkpt>
<trkpt lat="42.095486" lon="23.575892"><ele>2472.4</ele><time>2026-03-08T10:27:05.000Z</time></trkpt>
<trkpt lat="42.095487" lon="23.575889"><ele>2472.4</ele><time>2026-03-08T10:27:06.000Z</time></trkpt>
<trkpt lat="42.095488" lon="23.575886"><ele>2473.2</ele><time>2026-03-08T10:27:07.000Z</time></trkpt>
<trkpt lat="42.095488" lon="23.575884"><ele>2473.2</ele><time>2026-03-08T10:27:08.000Z</time></trkpt>
<trkpt lat="42.095489" lon="23.57588"><ele>2473.2</ele><time>2026-03-08T10:27:09.000Z</time></trkpt>
<trkpt lat="42.09549" lon="23.575877"><ele>2473.2</ele><time>2026-03-08T10:27:10.000Z</time></trkpt>
<trkpt lat="42.095491" lon="23.575874"><ele>2473.2</ele><time>2026-03-08T10:27:11.000Z</time></trkpt>
<trkpt lat="42.095492" lon="23.575872"><ele>2473.7</ele><time>2026-03-08T10:27:12.000Z</time></trkpt>
<trkpt lat="42.095492" lon="23.575868"><ele>2473.7</ele><time>2026-03-08T10:27:13.000Z</time></trkpt>
<trkpt lat="42.095492" lon="23.575866"><ele>2473.7</ele><time>2026-03-08T10:27:14.000Z</time></trkpt>
<trkpt lat="42.095492" lon="23.575863"><ele>2473.7</ele><time>2026-03-08T10:27:15.000Z</time></trkpt>
<trkpt lat="42.095491" lon="23.575861"><ele>2473.7</ele><time>2026-03-08T10:27:16.000Z</time></trkpt>
<trkpt lat="42.095491" lon="23.575857"><ele>2474.9</ele><time>2026-03-08T10:27:17.000Z</time></trkpt>
<trkpt lat="42.09549" lon="23.575854"><ele>2474.9</ele><time>2026-03-08T10:27:18.000Z</time></trkpt>
<trkpt lat="42.09549" lon="23.57585"><ele>2474.9</ele><time>2026-03-08T10:27:19.000Z</time></trkpt>
<trkpt lat="42.095491" lon="23.575847"><ele>2474.9</ele><time>2026-03-08T10:27:20.000Z</time></trkpt>
<trkpt lat="42.095492" lon="23.575844"><ele>2474.9</ele><time>2026-03-08T10:27:21.000Z</time></trkpt>
<trkpt lat="42.095493" lon="23.575842"><ele>2476.1</ele><time>2026-03-08T10:27:22.000Z</time></trkpt>
<trkpt lat="42.095493" lon="23.575839"><ele>2476.1</ele><time>2026-03-08T10:27:23.000Z</time></trkpt>
<trkpt lat="42.095493" lon="23.575836"><ele>2476.1</ele><time>2026-03-08T10:27:24.000Z</time></trkpt>
<trkpt lat="42.095493" lon="23.575833"><ele>2476.1</ele><time>2026-03-08T10:27:25.000Z</time></trkpt>
<trkpt lat="42.095493" lon="23.575828"><ele>2476.1</ele><time>2026-03-08T10:27:26.000Z</time></trkpt>
<trkpt lat="42.095493" lon="23.575824"><ele>2476.5</ele><time>2026-03-08T10:27:27.000Z</time></trkpt>
<trkpt lat="42.095494" lon="23.57582"><ele>2476.5</ele><time>2026-03-08T10:27:28.000Z</time></trkpt>
<trkpt lat="42.095495" lon="23.575817"><ele>2476.5</ele><time>2026-03-08T10:27:29.000Z</time></trkpt>
<trkpt lat="42.095495" lon="23.575813"><ele>2476.5</ele><time>2026-03-08T10:27:30.000Z</time></trkpt>
<trkpt lat="42.095496" lon="23.575809"><ele>2476.5</ele><time>2026-03-08T10:27:31.000Z</time></trkpt>
<trkpt lat="42.095496" lon="23.575807"><ele>2477.2</ele><time>2026-03-08T10:27:32.000Z</time></trkpt>
<trkpt lat="42.095496" lon="23.575805"><ele>2477.2</ele><time>2026-03-08T10:27:33.000Z</time></trkpt>
<trkpt lat="42.095496" lon="23.575805"><ele>2477.2</ele><time>2026-03-08T10:27:34.000Z</time></trkpt>
<trkpt lat="42.095496" lon="23.575804"><ele>2477.2</ele><time>2026-03-08T10:27:35.000Z</time></trkpt>
<trkpt lat="42.095496" lon="23.575805"><ele>2477.2</ele><time>2026-03-08T10:27:36.000Z</time></trkpt>
<trkpt lat="42.095495" lon="23.575804"><ele>2478</ele><time>2026-03-08T10:27:37.000Z</time></trkpt>
<trkpt lat="42.095495" lon="23.575802"><ele>2478</ele><time>2026-03-08T10:27:38.000Z</time></trkpt>
<trkpt lat="42.095494" lon="23.5758"><ele>2478</ele><time>2026-03-08T10:27:39.000Z</time></trkpt>
<trkpt lat="42.095494" lon="23.575798"><ele>2478</ele><time>2026-03-08T10:27:40.000Z</time></trkpt>
<trkpt lat="42.095494" lon="23.575795"><ele>2478</ele><time>2026-03-08T10:27:41.000Z</time></trkpt>
<trkpt lat="42.095495" lon="23.575794"><ele>2478.4</ele><time>2026-03-08T10:27:42.000Z</time></trkpt>
<trkpt lat="42.095496" lon="23.57579"><ele>2478.4</ele><time>2026-03-08T10:27:43.000Z</time></trkpt>
<trkpt lat="42.095496" lon="23.575788"><ele>2478.4</ele><time>2026-03-08T10:27:44.000Z</time></trkpt>
<trkpt lat="42.095496" lon="23.575784"><ele>2478.4</ele><time>2026-03-08T10:27:45.000Z</time></trkpt>
<trkpt lat="42.095495" lon="23.57578"><ele>2478.4</ele><time>2026-03-08T10:27:46.000Z</time></trkpt>
<trkpt lat="42.095493" lon="23.575775"><ele>2479.1</ele><time>2026-03-08T10:27:47.000Z</time></trkpt>
<trkpt lat="42.095493" lon="23.57577"><ele>2479.1</ele><time>2026-03-08T10:27:48.000Z</time></trkpt>
<trkpt lat="42.095493" lon="23.575764"><ele>2479.1</ele><time>2026-03-08T10:27:49.000Z</time></trkpt>
<trkpt lat="42.095494" lon="23.575759"><ele>2479.1</ele><time>2026-03-08T10:27:50.000Z</time></trkpt>
<trkpt lat="42.095496" lon="23.575754"><ele>2479.1</ele><time>2026-03-08T10:27:51.000Z</time></trkpt>
<trkpt lat="42.095497" lon="23.575748"><ele>2479.6</ele><time>2026-03-08T10:27:52.000Z</time></trkpt>
<trkpt lat="42.095499" lon="23.575744"><ele>2479.6</ele><time>2026-03-08T10:27:53.000Z</time></trkpt>
<trkpt lat="42.0955" lon="23.575739"><ele>2479.6</ele><time>2026-03-08T10:27:54.000Z</time></trkpt>
<trkpt lat="42.0955" lon="23.575734"><ele>2479.6</ele><time>2026-03-08T10:27:55.000Z</time></trkpt>
<trkpt lat="42.095502" lon="23.575728"><ele>2479.6</ele><time>2026-03-08T10:27:56.000Z</time></trkpt>
<trkpt lat="42.095503" lon="23.575724"><ele>2479.8</ele><time>2026-03-08T10:27:57.000Z</time></trkpt>
<trkpt lat="42.095504" lon="23.57572"><ele>2479.8</ele><time>2026-03-08T10:27:58.000Z</time></trkpt>
<trkpt lat="42.095505" lon="23.575717"><ele>2479.8</ele><time>2026-03-08T10:27:59.000Z</time></trkpt>
<trkpt lat="42.095506" lon="23.575716"><ele>2479.8</ele><time>2026-03-08T10:28:00.000Z</time></trkpt>
<trkpt lat="42.095506" lon="23.575715"><ele>2479.8</ele><time>2026-03-08T10:28:01.000Z</time></trkpt>
<trkpt lat="42.095507" lon="23.575714"><ele>2480.3</ele><time>2026-03-08T10:28:02.000Z</time></trkpt>
<trkpt lat="42.095507" lon="23.575713"><ele>2480.3</ele><time>2026-03-08T10:28:03.000Z</time></trkpt>
<trkpt lat="42.095508" lon="23.57571"><ele>2480.3</ele><time>2026-03-08T10:28:04.000Z</time></trkpt>
<trkpt lat="42.095508" lon="23.575706"><ele>2480.3</ele><time>2026-03-08T10:28:05.000Z</time></trkpt>
<trkpt lat="42.095508" lon="23.575701"><ele>2480.3</ele><time>2026-03-08T10:28:06.000Z</time></trkpt>
<trkpt lat="42.095509" lon="23.575696"><ele>2481</ele><time>2026-03-08T10:28:07.000Z</time></trkpt>
<trkpt lat="42.09551" lon="23.57569"><ele>2481</ele><time>2026-03-08T10:28:08.000Z</time></trkpt>
<trkpt lat="42.095511" lon="23.575687"><ele>2481</ele><time>2026-03-08T10:28:09.000Z</time></trkpt>
<trkpt lat="42.095511" lon="23.575683"><ele>2481</ele><time>2026-03-08T10:28:10.000Z</time></trkpt>
<trkpt lat="42.095512" lon="23.575679"><ele>2481</ele><time>2026-03-08T10:28:11.000Z</time></trkpt>
<trkpt lat="42.095512" lon="23.575676"><ele>2481.4</ele><time>2026-03-08T10:28:12.000Z</time></trkpt>
<trkpt lat="42.095511" lon="23.575672"><ele>2481.4</ele><time>2026-03-08T10:28:13.000Z</time></trkpt>
<trkpt lat="42.09551" lon="23.575669"><ele>2481.4</ele><time>2026-03-08T10:28:14.000Z</time></trkpt>
<trkpt lat="42.09551" lon="23.575668"><ele>2481.4</ele><time>2026-03-08T10:28:15.000Z</time></trkpt>
<trkpt lat="42.095509" lon="23.575666"><ele>2481.4</ele><time>2026-03-08T10:28:16.000Z</time></trkpt>
<trkpt lat="42.095508" lon="23.575666"><ele>2482</ele><time>2026-03-08T10:28:17.000Z</time></trkpt>
<trkpt lat="42.095507" lon="23.575666"><ele>2482</ele><time>2026-03-08T10:28:18.000Z</time></trkpt>
<trkpt lat="42.095507" lon="23.575665"><ele>2482</ele><time>2026-03-08T10:28:19.000Z</time></trkpt>
<trkpt lat="42.095507" lon="23.575664"><ele>2482</ele><time>2026-03-08T10:28:20.000Z</time></trkpt>
<trkpt lat="42.095507" lon="23.575661"><ele>2482</ele><time>2026-03-08T10:28:21.000Z</time></trkpt>
<trkpt lat="42.095508" lon="23.575658"><ele>2482.4</ele><time>2026-03-08T10:28:22.000Z</time></trkpt>
<trkpt lat="42.095508" lon="23.575654"><ele>2482.4</ele><time>2026-03-08T10:28:23.000Z</time></trkpt>
<trkpt lat="42.095509" lon="23.575649"><ele>2482.4</ele><time>2026-03-08T10:28:24.000Z</time></trkpt>
<trkpt lat="42.095508" lon="23.575644"><ele>2482.4</ele><time>2026-03-08T10:28:25.000Z</time></trkpt>
<trkpt lat="42.095508" lon="23.575639"><ele>2482.4</ele><time>2026-03-08T10:28:26.000Z</time></trkpt>
<trkpt lat="42.095508" lon="23.575635"><ele>2482.6</ele><time>2026-03-08T10:28:27.000Z</time></trkpt>
<trkpt lat="42.095509" lon="23.575633"><ele>2482.6</ele><time>2026-03-08T10:28:28.000Z</time></trkpt>
<trkpt lat="42.095509" lon="23.575631"><ele>2482.6</ele><time>2026-03-08T10:28:29.000Z</time></trkpt>
<trkpt lat="42.095509" lon="23.575631"><ele>2482.6</ele><time>2026-03-08T10:28:30.000Z</time></trkpt>
<trkpt lat="42.09551" lon="23.575631"><ele>2482.6</ele><time>2026-03-08T10:28:31.000Z</time></trkpt>
<trkpt lat="42.09551" lon="23.575631"><ele>2483.1</ele><time>2026-03-08T10:28:32.000Z</time></trkpt>
<trkpt lat="42.095509" lon="23.575631"><ele>2483.1</ele><time>2026-03-08T10:28:33.000Z</time></trkpt>
<trkpt lat="42.095508" lon="23.575631"><ele>2483.1</ele><time>2026-03-08T10:28:34.000Z</time></trkpt>
<trkpt lat="42.095508" lon="23.575631"><ele>2483.1</ele><time>2026-03-08T10:28:35.000Z</time></trkpt>
<trkpt lat="42.095507" lon="23.575631"><ele>2483.1</ele><time>2026-03-08T10:28:36.000Z</time></trkpt>
<trkpt lat="42.095507" lon="23.575631"><ele>2483.6</ele><time>2026-03-08T10:28:37.000Z</time></trkpt>
<trkpt lat="42.095507" lon="23.57563"><ele>2483.6</ele><time>2026-03-08T10:28:38.000Z</time></trkpt>
<trkpt lat="42.095507" lon="23.575628"><ele>2483.6</ele><time>2026-03-08T10:28:39.000Z</time></trkpt>
<trkpt lat="42.095507" lon="23.575624"><ele>2483.6</ele><time>2026-03-08T10:28:40.000Z</time></trkpt>
<trkpt lat="42.095507" lon="23.575619"><ele>2483.6</ele><time>2026-03-08T10:28:41.000Z</time></trkpt>
<trkpt lat="42.095507" lon="23.575613"><ele>2483.9</ele><time>2026-03-08T10:28:42.000Z</time></trkpt>
<trkpt lat="42.095508" lon="23.575608"><ele>2483.9</ele><time>2026-03-08T10:28:43.000Z</time></trkpt>
<trkpt lat="42.095508" lon="23.575601"><ele>2483.9</ele><time>2026-03-08T10:28:44.000Z</time></trkpt>
<trkpt lat="42.095509" lon="23.575596"><ele>2483.9</ele><time>2026-03-08T10:28:45.000Z</time></trkpt>
<trkpt lat="42.09551" lon="23.57559"><ele>2483.9</ele><time>2026-03-08T10:28:46.000Z</time></trkpt>
<trkpt lat="42.09551" lon="23.575585"><ele>2484.1</ele><time>2026-03-08T10:28:47.000Z</time></trkpt>
<trkpt lat="42.095511" lon="23.57558"><ele>2484.1</ele><time>2026-03-08T10:28:48.000Z</time></trkpt>
<trkpt lat="42.095512" lon="23.575574"><ele>2484.1</ele><time>2026-03-08T10:28:49.000Z</time></trkpt>
<trkpt lat="42.095512" lon="23.57557"><ele>2484.1</ele><time>2026-03-08T10:28:50.000Z</time></trkpt>
<trkpt lat="42.095514" lon="23.575565"><ele>2484.1</ele><time>2026-03-08T10:28:51.000Z</time></trkpt>
<trkpt lat="42.095515" lon="23.57556"><ele>2484.4</ele><time>2026-03-08T10:28:52.000Z</time></trkpt>
<trkpt lat="42.095516" lon="23.575556"><ele>2484.4</ele><time>2026-03-08T10:28:53.000Z</time></trkpt>
<trkpt lat="42.095517" lon="23.575553"><ele>2484.4</ele><time>2026-03-08T10:28:54.000Z</time></trkpt>
<trkpt lat="42.095518" lon="23.57555"><ele>2484.4</ele><time>2026-03-08T10:28:55.000Z</time></trkpt>
<trkpt lat="42.095518" lon="23.575548"><ele>2484.4</ele><time>2026-03-08T10:28:56.000Z</time></trkpt>
<trkpt lat="42.095519" lon="23.575547"><ele>2484.6</ele><time>2026-03-08T10:28:57.000Z</time></trkpt>
<trkpt lat="42.09552" lon="23.575544"><ele>2484.6</ele><time>2026-03-08T10:28:58.000Z</time></trkpt>
<trkpt lat="42.09552" lon="23.575541"><ele>2484.6</ele><time>2026-03-08T10:28:59.000Z</time></trkpt>
<trkpt lat="42.095521" lon="23.575537"><ele>2484.6</ele><time>2026-03-08T10:29:00.000Z</time></trkpt>
<trkpt lat="42.095523" lon="23.575534"><ele>2484.6</ele><time>2026-03-08T10:29:01.000Z</time></trkpt>
<trkpt lat="42.095524" lon="23.575531"><ele>2485.2</ele><time>2026-03-08T10:29:02.000Z</time></trkpt>
<trkpt lat="42.095527" lon="23.575528"><ele>2485.2</ele><time>2026-03-08T10:29:03.000Z</time></trkpt>
<trkpt lat="42.095528" lon="23.575526"><ele>2485.2</ele><time>2026-03-08T10:29:04.000Z</time></trkpt>
<trkpt lat="42.095529" lon="23.575525"><ele>2485.2</ele><time>2026-03-08T10:29:05.000Z</time></trkpt>
<trkpt lat="42.095531" lon="23.575524"><ele>2485.2</ele><time>2026-03-08T10:29:06.000Z</time></trkpt>
<trkpt lat="42.095531" lon="23.575523"><ele>2485.9</ele><time>2026-03-08T10:29:07.000Z</time></trkpt>
<trkpt lat="42.09553" lon="23.575523"><ele>2485.9</ele><time>2026-03-08T10:29:08.000Z</time></trkpt>
<trkpt lat="42.095529" lon="23.575523"><ele>2485.9</ele><time>2026-03-08T10:29:09.000Z</time></trkpt>
<trkpt lat="42.095528" lon="23.575521"><ele>2485.9</ele><time>2026-03-08T10:29:10.000Z</time></trkpt>
<trkpt lat="42.095528" lon="23.57552"><ele>2485.9</ele><time>2026-03-08T10:29:11.000Z</time></trkpt>
<trkpt lat="42.095527" lon="23.575518"><ele>2486.2</ele><time>2026-03-08T10:29:12.000Z</time></trkpt>
<trkpt lat="42.095527" lon="23.575518"><ele>2486.2</ele><time>2026-03-08T10:29:13.000Z</time></trkpt>
<trkpt lat="42.095527" lon="23.575517"><ele>2486.2</ele><time>2026-03-08T10:29:14.000Z</time></trkpt>
<trkpt lat="42.095528" lon="23.575516"><ele>2486.2</ele><time>2026-03-08T10:29:15.000Z</time></trkpt>
<trkpt lat="42.095527" lon="23.575516"><ele>2486.2</ele><time>2026-03-08T10:29:16.000Z</time></trkpt>
<trkpt lat="42.095527" lon="23.575515"><ele>2486.9</ele><time>2026-03-08T10:29:17.000Z</time></trkpt>
<trkpt lat="42.095527" lon="23.575514"><ele>2486.9</ele><time>2026-03-08T10:29:18.000Z</time></trkpt>
<trkpt lat="42.095527" lon="23.575513"><ele>2486.9</ele><time>2026-03-08T10:29:19.000Z</time></trkpt>
<trkpt lat="42.095526" lon="23.575513"><ele>2486.9</ele><time>2026-03-08T10:29:20.000Z</time></trkpt>
<trkpt lat="42.095526" lon="23.575512"><ele>2486.9</ele><time>2026-03-08T10:29:21.000Z</time></trkpt>
<trkpt lat="42.095526" lon="23.575512"><ele>2487.5</ele><time>2026-03-08T10:29:22.000Z</time></trkpt>
<trkpt lat="42.095526" lon="23.575511"><ele>2487.5</ele><time>2026-03-08T10:29:23.000Z</time></trkpt>
<trkpt lat="42.095526" lon="23.575511"><ele>2487.5</ele><time>2026-03-08T10:29:24.000Z</time></trkpt>
<trkpt lat="42.095526" lon="23.575511"><ele>2487.5</ele><time>2026-03-08T10:29:25.000Z</time></trkpt>
<trkpt lat="42.095525" lon="23.57551"><ele>2487.5</ele><time>2026-03-08T10:29:26.000Z</time></trkpt>
<trkpt lat="42.095525" lon="23.575508"><ele>2487.6</ele><time>2026-03-08T10:29:27.000Z</time></trkpt>
<trkpt lat="42.095526" lon="23.575504"><ele>2487.6</ele><time>2026-03-08T10:29:28.000Z</time></trkpt>
<trkpt lat="42.095527" lon="23.575501"><ele>2487.6</ele><time>2026-03-08T10:29:29.000Z</time></trkpt>
<trkpt lat="42.095527" lon="23.575498"><ele>2487.6</ele><time>2026-03-08T10:29:30.000Z</time></trkpt>
<trkpt lat="42.095528" lon="23.575496"><ele>2487.6</ele><time>2026-03-08T10:29:31.000Z</time></trkpt>
<trkpt lat="42.095529" lon="23.575495"><ele>2487.7</ele><time>2026-03-08T10:29:32.000Z</time></trkpt>
<trkpt lat="42.095529" lon="23.575495"><ele>2487.7</ele><time>2026-03-08T10:29:33.000Z</time></trkpt>
<trkpt lat="42.09553" lon="23.575496"><ele>2487.7</ele><time>2026-03-08T10:29:34.000Z</time></trkpt>
<trkpt lat="42.09553" lon="23.575496"><ele>2487.7</ele><time>2026-03-08T10:29:35.000Z</time></trkpt>
<trkpt lat="42.09553" lon="23.575493"><ele>2487.7</ele><time>2026-03-08T10:29:36.000Z</time></trkpt>
<trkpt lat="42.095531" lon="23.57549"><ele>2487.8</ele><time>2026-03-08T10:29:37.000Z</time></trkpt>
<trkpt lat="42.095531" lon="23.575488"><ele>2487.8</ele><time>2026-03-08T10:29:38.000Z</time></trkpt>
<trkpt lat="42.095532" lon="23.575485"><ele>2487.8</ele><time>2026-03-08T10:29:39.000Z</time></trkpt>
<trkpt lat="42.095533" lon="23.575482"><ele>2487.8</ele><time>2026-03-08T10:29:40.000Z</time></trkpt>
<trkpt lat="42.095534" lon="23.57548"><ele>2487.8</ele><time>2026-03-08T10:29:41.000Z</time></trkpt>
<trkpt lat="42.095534" lon="23.575479"><ele>2487.8</ele><time>2026-03-08T10:29:42.000Z</time></trkpt>
<trkpt lat="42.095535" lon="23.575478"><ele>2487.8</ele><time>2026-03-08T10:29:43.000Z</time></trkpt>
<trkpt lat="42.095535" lon="23.575477"><ele>2487.8</ele><time>2026-03-08T10:29:44.000Z</time></trkpt>
<trkpt lat="42.095535" lon="23.575476"><ele>2487.8</ele><time>2026-03-08T10:29:45.000Z</time></trkpt>
<trkpt lat="42.095535" lon="23.575476"><ele>2487.8</ele><time>2026-03-08T10:29:46.000Z</time></trkpt>
<trkpt lat="42.095535" lon="23.575475"><ele>2487.7</ele><time>2026-03-08T10:29:47.000Z</time></trkpt>
<trkpt lat="42.095535" lon="23.575475"><ele>2487.7</ele><time>2026-03-08T10:29:48.000Z</time></trkpt>
<trkpt lat="42.095536" lon="23.575474"><ele>2487.7</ele><time>2026-03-08T10:29:49.000Z</time></trkpt>
<trkpt lat="42.095537" lon="23.575472"><ele>2487.7</ele><time>2026-03-08T10:29:50.000Z</time></trkpt>
<trkpt lat="42.095538" lon="23.575471"><ele>2487.7</ele><time>2026-03-08T10:29:51.000Z</time></trkpt>
<trkpt lat="42.095539" lon="23.57547"><ele>2487.8</ele><time>2026-03-08T10:29:52.000Z</time></trkpt>
<trkpt lat="42.09554" lon="23.575469"><ele>2487.8</ele><time>2026-03-08T10:29:53.000Z</time></trkpt>
<trkpt lat="42.09554" lon="23.575467"><ele>2487.8</ele><time>2026-03-08T10:29:54.000Z</time></trkpt>
<trkpt lat="42.095539" lon="23.575466"><ele>2487.8</ele><time>2026-03-08T10:29:55.000Z</time></trkpt>
<trkpt lat="42.095538" lon="23.575464"><ele>2487.8</ele><time>2026-03-08T10:29:56.000Z</time></trkpt>
<trkpt lat="42.095537" lon="23.575463"><ele>2487.9</ele><time>2026-03-08T10:29:57.000Z</time></trkpt>
<trkpt lat="42.095536" lon="23.575461"><ele>2487.9</ele><time>2026-03-08T10:29:58.000Z</time></trkpt>
<trkpt lat="42.095536" lon="23.575461"><ele>2487.9</ele><time>2026-03-08T10:29:59.000Z</time></trkpt>
<trkpt lat="42.095536" lon="23.575461"><ele>2487.9</ele><time>2026-03-08T10:30:00.000Z</time></trkpt>
<trkpt lat="42.095536" lon="23.575461"><ele>2487.9</ele><time>2026-03-08T10:30:01.000Z</time></trkpt>
<trkpt lat="42.095536" lon="23.575461"><ele>2488.3</ele><time>2026-03-08T10:30:02.000Z</time></trkpt>
<trkpt lat="42.095536" lon="23.575461"><ele>2488.3</ele><time>2026-03-08T10:30:03.000Z</time></trkpt>
<trkpt lat="42.095536" lon="23.575461"><ele>2488.3</ele><time>2026-03-08T10:30:04.000Z</time></trkpt>
<trkpt lat="42.095537" lon="23.575459"><ele>2488.3</ele><time>2026-03-08T10:30:05.000Z</time></trkpt>
<trkpt lat="42.095539" lon="23.575457"><ele>2488.3</ele><time>2026-03-08T10:30:06.000Z</time></trkpt>
<trkpt lat="42.09554" lon="23.575455"><ele>2488.7</ele><time>2026-03-08T10:30:07.000Z</time></trkpt>
<trkpt lat="42.095543" lon="23.575452"><ele>2488.7</ele><time>2026-03-08T10:30:08.000Z</time></trkpt>
<trkpt lat="42.095546" lon="23.575449"><ele>2488.7</ele><time>2026-03-08T10:30:09.000Z</time></trkpt>
<trkpt lat="42.095548" lon="23.575447"><ele>2488.7</ele><time>2026-03-08T10:30:10.000Z</time></trkpt>
<trkpt lat="42.095549" lon="23.575446"><ele>2488.7</ele><time>2026-03-08T10:30:11.000Z</time></trkpt>
<trkpt lat="42.09555" lon="23.575444"><ele>2488.9</ele><time>2026-03-08T10:30:12.000Z</time></trkpt>
<trkpt lat="42.095551" lon="23.575444"><ele>2488.9</ele><time>2026-03-08T10:30:13.000Z</time></trkpt>
<trkpt lat="42.095552" lon="23.575442"><ele>2488.9</ele><time>2026-03-08T10:30:14.000Z</time></trkpt>
<trkpt lat="42.095553" lon="23.575441"><ele>2488.9</ele><time>2026-03-08T10:30:15.000Z</time></trkpt>
<trkpt lat="42.095553" lon="23.57544"><ele>2488.9</ele><time>2026-03-08T10:30:16.000Z</time></trkpt>
<trkpt lat="42.095553" lon="23.575439"><ele>2489.3</ele><time>2026-03-08T10:30:17.000Z</time></trkpt>
<trkpt lat="42.095554" lon="23.575438"><ele>2489.3</ele><time>2026-03-08T10:30:18.000Z</time></trkpt>
<trkpt lat="42.095553" lon="23.575437"><ele>2489.3</ele><time>2026-03-08T10:30:19.000Z</time></trkpt>
<trkpt lat="42.095553" lon="23.575436"><ele>2489.3</ele><time>2026-03-08T10:30:20.000Z</time></trkpt>
<trkpt lat="42.095552" lon="23.575435"><ele>2489.3</ele><time>2026-03-08T10:30:21.000Z</time></trkpt>
<trkpt lat="42.095552" lon="23.575434"><ele>2489.6</ele><time>2026-03-08T10:30:22.000Z</time></trkpt>
<trkpt lat="42.095552" lon="23.575434"><ele>2489.6</ele><time>2026-03-08T10:30:23.000Z</time></trkpt>
<trkpt lat="42.095552" lon="23.575434"><ele>2489.6</ele><time>2026-03-08T10:30:24.000Z</time></trkpt>
<trkpt lat="42.095552" lon="23.575434"><ele>2489.6</ele><time>2026-03-08T10:30:25.000Z</time></trkpt>
<trkpt lat="42.095552" lon="23.575434"><ele>2489.6</ele><time>2026-03-08T10:30:26.000Z</time></trkpt>
<trkpt lat="42.095552" lon="23.575434"><ele>2489.9</ele><time>2026-03-08T10:30:27.000Z</time></trkpt>
<trkpt lat="42.095552" lon="23.575434"><ele>2489.9</ele><time>2026-03-08T10:30:28.000Z</time></trkpt>
<trkpt lat="42.095553" lon="23.575434"><ele>2489.9</ele><time>2026-03-08T10:30:29.000Z</time></trkpt>
<trkpt lat="42.095554" lon="23.575434"><ele>2489.9</ele><time>2026-03-08T10:30:30.000Z</time></trkpt>
<trkpt lat="42.095555" lon="23.575433"><ele>2489.9</ele><time>2026-03-08T10:30:31.000Z</time></trkpt>
<trkpt lat="42.095556" lon="23.575432"><ele>2490.3</ele><time>2026-03-08T10:30:32.000Z</time></trkpt>
<trkpt lat="42.095557" lon="23.57543"><ele>2490.3</ele><time>2026-03-08T10:30:33.000Z</time></trkpt>
<trkpt lat="42.095558" lon="23.575428"><ele>2490.3</ele><time>2026-03-08T10:30:34.000Z</time></trkpt>
<trkpt lat="42.095559" lon="23.575426"><ele>2490.3</ele><time>2026-03-08T10:30:35.000Z</time></trkpt>
<trkpt lat="42.09556" lon="23.575424"><ele>2490.3</ele><time>2026-03-08T10:30:36.000Z</time></trkpt>
<trkpt lat="42.09556" lon="23.575423"><ele>2490.6</ele><time>2026-03-08T10:30:37.000Z</time></trkpt>
<trkpt lat="42.095559" lon="23.575422"><ele>2490.6</ele><time>2026-03-08T10:30:38.000Z</time></trkpt>
<trkpt lat="42.095558" lon="23.575421"><ele>2490.6</ele><time>2026-03-08T10:30:39.000Z</time></trkpt>
<trkpt lat="42.095558" lon="23.575421"><ele>2490.6</ele><time>2026-03-08T10:30:40.000Z</time></trkpt>
<trkpt lat="42.095558" lon="23.57542"><ele>2490.6</ele><time>2026-03-08T10:30:41.000Z</time></trkpt>
<trkpt lat="42.095557" lon="23.57542"><ele>2490.7</ele><time>2026-03-08T10:30:42.000Z</time></trkpt>
<trkpt lat="42.095557" lon="23.57542"><ele>2490.7</ele><time>2026-03-08T10:30:43.000Z</time></trkpt>
<trkpt lat="42.095557" lon="23.57542"><ele>2490.7</ele><time>2026-03-08T10:30:44.000Z</time></trkpt>
<trkpt lat="42.095557" lon="23.57542"><ele>2490.7</ele><time>2026-03-08T10:30:45.000Z</time></trkpt>
<trkpt lat="42.095557" lon="23.57542"><ele>2490.7</ele><time>2026-03-08T10:30:46.000Z</time></trkpt>
<trkpt lat="42.095557" lon="23.57542"><ele>2491.1</ele><time>2026-03-08T10:30:47.000Z</time></trkpt>
<trkpt lat="42.095557" lon="23.57542"><ele>2491.1</ele><time>2026-03-08T10:30:48.000Z</time></trkpt>
<trkpt lat="42.095557" lon="23.57542"><ele>2491.1</ele><time>2026-03-08T10:30:49.000Z</time></trkpt>
<trkpt lat="42.095557" lon="23.57542"><ele>2491.1</ele><time>2026-03-08T10:30:50.000Z</time></trkpt>
<trkpt lat="42.095557" lon="23.57542"><ele>2491.1</ele><time>2026-03-08T10:30:51.000Z</time></trkpt>
<trkpt lat="42.095557" lon="23.57542"><ele>2491.5</ele><time>2026-03-08T10:30:52.000Z</time></trkpt>
<trkpt lat="42.095557" lon="23.575419"><ele>2491.5</ele><time>2026-03-08T10:30:53.000Z</time></trkpt>
<trkpt lat="42.095557" lon="23.575419"><ele>2491.5</ele><time>2026-03-08T10:30:54.000Z</time></trkpt>
<trkpt lat="42.095557" lon="23.575419"><ele>2491.5</ele><time>2026-03-08T10:30:55.000Z</time></trkpt>
<trkpt lat="42.095556" lon="23.575418"><ele>2491.5</ele><time>2026-03-08T10:30:56.000Z</time></trkpt>
<trkpt lat="42.095556" lon="23.575417"><ele>2491.6</ele><time>2026-03-08T10:30:57.000Z</time></trkpt>
<trkpt lat="42.095555" lon="23.575417"><ele>2491.6</ele><time>2026-03-08T10:30:58.000Z</time></trkpt>
<trkpt lat="42.095554" lon="23.575416"><ele>2491.6</ele><time>2026-03-08T10:30:59.000Z</time></trkpt>
<trkpt lat="42.095554" lon="23.575416"><ele>2491.6</ele><time>2026-03-08T10:31:00.000Z</time></trkpt>
<trkpt lat="42.095554" lon="23.575416"><ele>2491.6</ele><time>2026-03-08T10:31:01.000Z</time></trkpt>
<trkpt lat="42.095554" lon="23.575416"><ele>2491.9</ele><time>2026-03-08T10:31:02.000Z</time></trkpt>
<trkpt lat="42.095554" lon="23.575416"><ele>2491.9</ele><time>2026-03-08T10:31:03.000Z</time></trkpt>
<trkpt lat="42.095554" lon="23.575417"><ele>2491.9</ele><time>2026-03-08T10:31:04.000Z</time></trkpt>
<trkpt lat="42.095554" lon="23.575417"><ele>2491.9</ele><time>2026-03-08T10:31:05.000Z</time></trkpt>
<trkpt lat="42.095554" lon="23.575417"><ele>2491.9</ele><time>2026-03-08T10:31:06.000Z</time></trkpt>
<trkpt lat="42.095554" lon="23.575417"><ele>2492</ele><time>2026-03-08T10:31:07.000Z</time></trkpt>
<trkpt lat="42.095554" lon="23.575417"><ele>2492</ele><time>2026-03-08T10:31:08.000Z</time></trkpt>
<trkpt lat="42.095554" lon="23.575417"><ele>2492</ele><time>2026-03-08T10:31:09.000Z</time></trkpt>
<trkpt lat="42.095553" lon="23.575417"><ele>2492</ele><time>2026-03-08T10:31:10.000Z</time></trkpt>
<trkpt lat="42.095552" lon="23.575416"><ele>2492</ele><time>2026-03-08T10:31:11.000Z</time></trkpt>
<trkpt lat="42.095552" lon="23.575416"><ele>2492</ele><time>2026-03-08T10:31:12.000Z</time></trkpt>
<trkpt lat="42.095551" lon="23.575416"><ele>2492</ele><time>2026-03-08T10:31:13.000Z</time></trkpt>
<trkpt lat="42.09555" lon="23.575416"><ele>2492</ele><time>2026-03-08T10:31:14.000Z</time></trkpt>
<trkpt lat="42.095549" lon="23.575416"><ele>2492</ele><time>2026-03-08T10:31:15.000Z</time></trkpt>
<trkpt lat="42.095549" lon="23.575417"><ele>2492</ele><time>2026-03-08T10:31:16.000Z</time></trkpt>
<trkpt lat="42.095549" lon="23.575418"><ele>2492.1</ele><time>2026-03-08T10:31:17.000Z</time></trkpt>
<trkpt lat="42.095549" lon="23.575418"><ele>2492.1</ele><time>2026-03-08T10:31:18.000Z</time></trkpt>
<trkpt lat="42.095549" lon="23.575419"><ele>2492.1</ele><time>2026-03-08T10:31:19.000Z</time></trkpt>
<trkpt lat="42.095549" lon="23.575419"><ele>2492.1</ele><time>2026-03-08T10:31:20.000Z</time></trkpt>
<trkpt lat="42.095549" lon="23.575419"><ele>2492.1</ele><time>2026-03-08T10:31:21.000Z</time></trkpt>
<trkpt lat="42.095549" lon="23.575419"><ele>2492</ele><time>2026-03-08T10:31:22.000Z</time></trkpt>
<trkpt lat="42.095549" lon="23.575419"><ele>2492</ele><time>2026-03-08T10:31:23.000Z</time></trkpt>
<trkpt lat="42.095549" lon="23.575418"><ele>2492</ele><time>2026-03-08T10:31:24.000Z</time></trkpt>
<trkpt lat="42.095549" lon="23.575417"><ele>2492</ele><time>2026-03-08T10:31:25.000Z</time></trkpt>
<trkpt lat="42.095549" lon="23.575416"><ele>2492</ele><time>2026-03-08T10:31:26.000Z</time></trkpt>
<trkpt lat="42.09555" lon="23.575415"><ele>2492</ele><time>2026-03-08T10:31:27.000Z</time></trkpt>
<trkpt lat="42.095552" lon="23.575413"><ele>2492</ele><time>2026-03-08T10:31:28.000Z</time></trkpt>
<trkpt lat="42.095553" lon="23.575412"><ele>2492</ele><time>2026-03-08T10:31:29.000Z</time></trkpt>
<trkpt lat="42.095554" lon="23.57541"><ele>2492</ele><time>2026-03-08T10:31:30.000Z</time></trkpt>
<trkpt lat="42.095555" lon="23.575407"><ele>2492</ele><time>2026-03-08T10:31:31.000Z</time></trkpt>
<trkpt lat="42.095555" lon="23.575405"><ele>2492.1</ele><time>2026-03-08T10:31:32.000Z</time></trkpt>
<trkpt lat="42.095555" lon="23.575404"><ele>2492.1</ele><time>2026-03-08T10:31:33.000Z</time></trkpt>
<trkpt lat="42.095555" lon="23.575403"><ele>2492.1</ele><time>2026-03-08T10:31:34.000Z</time></trkpt>
<trkpt lat="42.095555" lon="23.575402"><ele>2492.1</ele><time>2026-03-08T10:31:35.000Z</time></trkpt>
<trkpt lat="42.095555" lon="23.575402"><ele>2492.1</ele><time>2026-03-08T10:31:36.000Z</time></trkpt>
<trkpt lat="42.095555" lon="23.575402"><ele>2492.3</ele><time>2026-03-08T10:31:37.000Z</time></trkpt>
<trkpt lat="42.095555" lon="23.575402"><ele>2492.3</ele><time>2026-03-08T10:31:38.000Z</time></trkpt>
<trkpt lat="42.095555" lon="23.575401"><ele>2492.3</ele><time>2026-03-08T10:31:39.000Z</time></trkpt>
<trkpt lat="42.095555" lon="23.5754"><ele>2492.3</ele><time>2026-03-08T10:31:40.000Z</time></trkpt>
<trkpt lat="42.095555" lon="23.5754"><ele>2492.3</ele><time>2026-03-08T10:31:41.000Z</time></trkpt>
<trkpt lat="42.095556" lon="23.575399"><ele>2492.5</ele><time>2026-03-08T10:31:42.000Z</time></trkpt>
<trkpt lat="42.095556" lon="23.575398"><ele>2492.5</ele><time>2026-03-08T10:31:43.000Z</time></trkpt>
<trkpt lat="42.095557" lon="23.575398"><ele>2492.5</ele><time>2026-03-08T10:31:44.000Z</time></trkpt>
<trkpt lat="42.095557" lon="23.575397"><ele>2492.5</ele><time>2026-03-08T10:31:45.000Z</time></trkpt>
<trkpt lat="42.095557" lon="23.575397"><ele>2492.5</ele><time>2026-03-08T10:31:46.000Z</time></trkpt>
<trkpt lat="42.095557" lon="23.575397"><ele>2492.7</ele><time>2026-03-08T10:31:47.000Z</time></trkpt>
<trkpt lat="42.095556" lon="23.575397"><ele>2492.7</ele><time>2026-03-08T10:31:48.000Z</time></trkpt>
<trkpt lat="42.095556" lon="23.575397"><ele>2492.7</ele><time>2026-03-08T10:31:49.000Z</time></trkpt>
<trkpt lat="42.095555" lon="23.575397"><ele>2492.7</ele><time>2026-03-08T10:31:50.000Z</time></trkpt>
<trkpt lat="42.095555" lon="23.575397"><ele>2492.7</ele><time>2026-03-08T10:31:51.000Z</time></trkpt>
<trkpt lat="42.095555" lon="23.575397"><ele>2492.8</ele><time>2026-03-08T10:31:52.000Z</time></trkpt>
<trkpt lat="42.095555" lon="23.575397"><ele>2492.8</ele><time>2026-03-08T10:31:53.000Z</time></trkpt>
<trkpt lat="42.095554" lon="23.575396"><ele>2492.8</ele><time>2026-03-08T10:31:54.000Z</time></trkpt>
<trkpt lat="42.095554" lon="23.575396"><ele>2492.8</ele><time>2026-03-08T10:31:55.000Z</time></trkpt>
<trkpt lat="42.095554" lon="23.575396"><ele>2492.8</ele><time>2026-03-08T10:31:56.000Z</time></trkpt>
<trkpt lat="42.095554" lon="23.575396"><ele>2492.7</ele><time>2026-03-08T10:31:57.000Z</time></trkpt>
<trkpt lat="42.095554" lon="23.575396"><ele>2492.7</ele><time>2026-03-08T10:31:58.000Z</time></trkpt>
<trkpt lat="42.095553" lon="23.575396"><ele>2492.7</ele><time>2026-03-08T10:31:59.000Z</time></trkpt>
<trkpt lat="42.095553" lon="23.575396"><ele>2492.7</ele><time>2026-03-08T10:32:00.000Z</time></trkpt>
<trkpt lat="42.095553" lon="23.575396"><ele>2492.7</ele><time>2026-03-08T10:32:01.000Z</time></trkpt>
<trkpt lat="42.095553" lon="23.575396"><ele>2492.7</ele><time>2026-03-08T10:32:02.000Z</time></trkpt>
<trkpt lat="42.095553" lon="23.575396"><ele>2492.7</ele><time>2026-03-08T10:32:03.000Z</time></trkpt>
<trkpt lat="42.095553" lon="23.575396"><ele>2492.7</ele><time>2026-03-08T10:32:04.000Z</time></trkpt>
<trkpt lat="42.095553" lon="23.575396"><ele>2492.7</ele><time>2026-03-08T10:32:05.000Z</time></trkpt>
<trkpt lat="42.095553" lon="23.575396"><ele>2492.7</ele><time>2026-03-08T10:32:06.000Z</time></trkpt>
<trkpt lat="42.095553" lon="23.575396"><ele>2492.6</ele><time>2026-03-08T10:32:07.000Z</time></trkpt>
<trkpt lat="42.095553" lon="23.575396"><ele>2492.6</ele><time>2026-03-08T10:32:08.000Z</time></trkpt>
<trkpt lat="42.095553" lon="23.575395"><ele>2492.6</ele><time>2026-03-08T10:32:09.000Z</time></trkpt>
<trkpt lat="42.095554" lon="23.575394"><ele>2492.6</ele><time>2026-03-08T10:32:10.000Z</time></trkpt>
<trkpt lat="42.095554" lon="23.575392"><ele>2492.6</ele><time>2026-03-08T10:32:11.000Z</time></trkpt>
<trkpt lat="42.095555" lon="23.575391"><ele>2492.6</ele><time>2026-03-08T10:32:12.000Z</time></trkpt>
<trkpt lat="42.095556" lon="23.575389"><ele>2492.6</ele><time>2026-03-08T10:32:13.000Z</time></trkpt>
<trkpt lat="42.095557" lon="23.575387"><ele>2492.6</ele><time>2026-03-08T10:32:14.000Z</time></trkpt>
<trkpt lat="42.095558" lon="23.575387"><ele>2492.6</ele><time>2026-03-08T10:32:15.000Z</time></trkpt>
<trkpt lat="42.095559" lon="23.575386"><ele>2492.6</ele><time>2026-03-08T10:32:16.000Z</time></trkpt>
<trkpt lat="42.09556" lon="23.575386"><ele>2492.5</ele><time>2026-03-08T10:32:17.000Z</time></trkpt>
<trkpt lat="42.09556" lon="23.575386"><ele>2492.5</ele><time>2026-03-08T10:32:18.000Z</time></trkpt>
<trkpt lat="42.09556" lon="23.575386"><ele>2492.5</ele><time>2026-03-08T10:32:19.000Z</time></trkpt>
<trkpt lat="42.09556" lon="23.575386"><ele>2492.5</ele><time>2026-03-08T10:32:20.000Z</time></trkpt>
<trkpt lat="42.095561" lon="23.575387"><ele>2492.5</ele><time>2026-03-08T10:32:21.000Z</time></trkpt>
<trkpt lat="42.095561" lon="23.575387"><ele>2492.6</ele><time>2026-03-08T10:32:22.000Z</time></trkpt>
<trkpt lat="42.095562" lon="23.575387"><ele>2492.6</ele><time>2026-03-08T10:32:23.000Z</time></trkpt>
<trkpt lat="42.095563" lon="23.575387"><ele>2492.6</ele><time>2026-03-08T10:32:24.000Z</time></trkpt>
<trkpt lat="42.095563" lon="23.575387"><ele>2492.6</ele><time>2026-03-08T10:32:25.000Z</time></trkpt>
<trkpt lat="42.095562" lon="23.575387"><ele>2492.6</ele><time>2026-03-08T10:32:26.000Z</time></trkpt>
<trkpt lat="42.095562" lon="23.575387"><ele>2492.7</ele><time>2026-03-08T10:32:27.000Z</time></trkpt>
<trkpt lat="42.095562" lon="23.575386"><ele>2492.7</ele><time>2026-03-08T10:32:28.000Z</time></trkpt>
<trkpt lat="42.095562" lon="23.575385"><ele>2492.7</ele><time>2026-03-08T10:32:29.000Z</time></trkpt>
<trkpt lat="42.095563" lon="23.575384"><ele>2492.7</ele><time>2026-03-08T10:32:30.000Z</time></trkpt>
<trkpt lat="42.095564" lon="23.575383"><ele>2492.7</ele><time>2026-03-08T10:32:31.000Z</time></trkpt>
<trkpt lat="42.095564" lon="23.575382"><ele>2492.9</ele><time>2026-03-08T10:32:32.000Z</time></trkpt>
<trkpt lat="42.095565" lon="23.575381"><ele>2492.9</ele><time>2026-03-08T10:32:33.000Z</time></trkpt>
<trkpt lat="42.095566" lon="23.57538"><ele>2492.9</ele><time>2026-03-08T10:32:34.000Z</time></trkpt>
<trkpt lat="42.095567" lon="23.575379"><ele>2492.9</ele><time>2026-03-08T10:32:35.000Z</time></trkpt>
<trkpt lat="42.095567" lon="23.575379"><ele>2492.9</ele><time>2026-03-08T10:32:36.000Z</time></trkpt>
<trkpt lat="42.095567" lon="23.575379"><ele>2493</ele><time>2026-03-08T10:32:37.000Z</time></trkpt>
<trkpt lat="42.095567" lon="23.575379"><ele>2493</ele><time>2026-03-08T10:32:38.000Z</time></trkpt>
<trkpt lat="42.095567" lon="23.575379"><ele>2493</ele><time>2026-03-08T10:32:39.000Z</time></trkpt>
<trkpt lat="42.095567" lon="23.57538"><ele>2493</ele><time>2026-03-08T10:32:40.000Z</time></trkpt>
<trkpt lat="42.095567" lon="23.57538"><ele>2493</ele><time>2026-03-08T10:32:41.000Z</time></trkpt>
<trkpt lat="42.095567" lon="23.57538"><ele>2493.1</ele><time>2026-03-08T10:32:42.000Z</time></trkpt>
<trkpt lat="42.095567" lon="23.57538"><ele>2493.1</ele><time>2026-03-08T10:32:43.000Z</time></trkpt>
<trkpt lat="42.095567" lon="23.575379"><ele>2493.1</ele><time>2026-03-08T10:32:44.000Z</time></trkpt>
<trkpt lat="42.095566" lon="23.575378"><ele>2493.1</ele><time>2026-03-08T10:32:45.000Z</time></trkpt>
<trkpt lat="42.095566" lon="23.575378"><ele>2493.1</ele><time>2026-03-08T10:32:46.000Z</time></trkpt>
<trkpt lat="42.095568" lon="23.575376"><ele>2493.4</ele><time>2026-03-08T10:32:47.000Z</time></trkpt>
<trkpt lat="42.095569" lon="23.575374"><ele>2493.4</ele><time>2026-03-08T10:32:48.000Z</time></trkpt>
<trkpt lat="42.09557" lon="23.575373"><ele>2493.4</ele><time>2026-03-08T10:32:49.000Z</time></trkpt>
<trkpt lat="42.095572" lon="23.575371"><ele>2493.4</ele><time>2026-03-08T10:32:50.000Z</time></trkpt>
<trkpt lat="42.095574" lon="23.57537"><ele>2493.4</ele><time>2026-03-08T10:32:51.000Z</time></trkpt>
<trkpt lat="42.095575" lon="23.57537"><ele>2493.9</ele><time>2026-03-08T10:32:52.000Z</time></trkpt>
<trkpt lat="42.095576" lon="23.575369"><ele>2493.9</ele><time>2026-03-08T10:32:53.000Z</time></trkpt>
<trkpt lat="42.095576" lon="23.575368"><ele>2493.9</ele><time>2026-03-08T10:32:54.000Z</time></trkpt>
<trkpt lat="42.095577" lon="23.575367"><ele>2493.9</ele><time>2026-03-08T10:32:55.000Z</time></trkpt>
<trkpt lat="42.095576" lon="23.575367"><ele>2493.9</ele><time>2026-03-08T10:32:56.000Z</time></trkpt>
<trkpt lat="42.095576" lon="23.575366"><ele>2494.1</ele><time>2026-03-08T10:32:57.000Z</time></trkpt>
<trkpt lat="42.095576" lon="23.575366"><ele>2494.1</ele><time>2026-03-08T10:32:58.000Z</time></trkpt>
<trkpt lat="42.095577" lon="23.575365"><ele>2494.1</ele><time>2026-03-08T10:32:59.000Z</time></trkpt>
<trkpt lat="42.095578" lon="23.575364"><ele>2494.1</ele><time>2026-03-08T10:33:00.000Z</time></trkpt>
<trkpt lat="42.095579" lon="23.575362"><ele>2494.1</ele><time>2026-03-08T10:33:01.000Z</time></trkpt>
<trkpt lat="42.09558" lon="23.57536"><ele>2494.6</ele><time>2026-03-08T10:33:02.000Z</time></trkpt>
<trkpt lat="42.095581" lon="23.575358"><ele>2494.6</ele><time>2026-03-08T10:33:03.000Z</time></trkpt>
<trkpt lat="42.095581" lon="23.575357"><ele>2494.6</ele><time>2026-03-08T10:33:04.000Z</time></trkpt>
<trkpt lat="42.095581" lon="23.575356"><ele>2494.6</ele><time>2026-03-08T10:33:05.000Z</time></trkpt>
<trkpt lat="42.095581" lon="23.575355"><ele>2494.6</ele><time>2026-03-08T10:33:06.000Z</time></trkpt>
<trkpt lat="42.095581" lon="23.575354"><ele>2494.9</ele><time>2026-03-08T10:33:07.000Z</time></trkpt>
<trkpt lat="42.095581" lon="23.575354"><ele>2494.9</ele><time>2026-03-08T10:33:08.000Z</time></trkpt>
<trkpt lat="42.095581" lon="23.575354"><ele>2494.9</ele><time>2026-03-08T10:33:09.000Z</time></trkpt>
<trkpt lat="42.095581" lon="23.575354"><ele>2494.9</ele><time>2026-03-08T10:33:10.000Z</time></trkpt>
<trkpt lat="42.095581" lon="23.575353"><ele>2494.9</ele><time>2026-03-08T10:33:11.000Z</time></trkpt>
<trkpt lat="42.095581" lon="23.575354"><ele>2495.1</ele><time>2026-03-08T10:33:12.000Z</time></trkpt>
<trkpt lat="42.095582" lon="23.575354"><ele>2495.1</ele><time>2026-03-08T10:33:13.000Z</time></trkpt>
<trkpt lat="42.095583" lon="23.575354"><ele>2495.1</ele><time>2026-03-08T10:33:14.000Z</time></trkpt>
<trkpt lat="42.095583" lon="23.575354"><ele>2495.1</ele><time>2026-03-08T10:33:15.000Z</time></trkpt>
<trkpt lat="42.095584" lon="23.575354"><ele>2495.1</ele><time>2026-03-08T10:33:16.000Z</time></trkpt>
<trkpt lat="42.095584" lon="23.575353"><ele>2495.4</ele><time>2026-03-08T10:33:17.000Z</time></trkpt>
<trkpt lat="42.095585" lon="23.575352"><ele>2495.4</ele><time>2026-03-08T10:33:18.000Z</time></trkpt>
<trkpt lat="42.095585" lon="23.57535"><ele>2495.4</ele><time>2026-03-08T10:33:19.000Z</time></trkpt>
<trkpt lat="42.095586" lon="23.575348"><ele>2495.4</ele><time>2026-03-08T10:33:20.000Z</time></trkpt>
<trkpt lat="42.095587" lon="23.575347"><ele>2495.4</ele><time>2026-03-08T10:33:21.000Z</time></trkpt>
<trkpt lat="42.095588" lon="23.575346"><ele>2495.4</ele><time>2026-03-08T10:33:22.000Z</time></trkpt>
<trkpt lat="42.095589" lon="23.575344"><ele>2495.4</ele><time>2026-03-08T10:33:23.000Z</time></trkpt>
<trkpt lat="42.095591" lon="23.575343"><ele>2495.4</ele><time>2026-03-08T10:33:24.000Z</time></trkpt>
<trkpt lat="42.095593" lon="23.575341"><ele>2495.4</ele><time>2026-03-08T10:33:25.000Z</time></trkpt>
<trkpt lat="42.095595" lon="23.575339"><ele>2495.4</ele><time>2026-03-08T10:33:26.000Z</time></trkpt>
<trkpt lat="42.095596" lon="23.575337"><ele>2495.4</ele><time>2026-03-08T10:33:27.000Z</time></trkpt>
<trkpt lat="42.095597" lon="23.575335"><ele>2495.4</ele><time>2026-03-08T10:33:28.000Z</time></trkpt>
<trkpt lat="42.095598" lon="23.575334"><ele>2495.4</ele><time>2026-03-08T10:33:29.000Z</time></trkpt>
<trkpt lat="42.095598" lon="23.575333"><ele>2495.4</ele><time>2026-03-08T10:33:30.000Z</time></trkpt>
<trkpt lat="42.095597" lon="23.575333"><ele>2495.4</ele><time>2026-03-08T10:33:31.000Z</time></trkpt>
<trkpt lat="42.095597" lon="23.575332"><ele>2495.4</ele><time>2026-03-08T10:33:32.000Z</time></trkpt>
<trkpt lat="42.095596" lon="23.575331"><ele>2495.4</ele><time>2026-03-08T10:33:33.000Z</time></trkpt>
<trkpt lat="42.095596" lon="23.57533"><ele>2495.4</ele><time>2026-03-08T10:33:34.000Z</time></trkpt>
<trkpt lat="42.095596" lon="23.575327"><ele>2495.4</ele><time>2026-03-08T10:33:35.000Z</time></trkpt>
<trkpt lat="42.095595" lon="23.575325"><ele>2495.4</ele><time>2026-03-08T10:33:36.000Z</time></trkpt>
<trkpt lat="42.095594" lon="23.575323"><ele>2495.7</ele><time>2026-03-08T10:33:37.000Z</time></trkpt>
<trkpt lat="42.095593" lon="23.575321"><ele>2495.7</ele><time>2026-03-08T10:33:38.000Z</time></trkpt>
<trkpt lat="42.095593" lon="23.575319"><ele>2495.7</ele><time>2026-03-08T10:33:39.000Z</time></trkpt>
<trkpt lat="42.095593" lon="23.575319"><ele>2495.7</ele><time>2026-03-08T10:33:40.000Z</time></trkpt>
<trkpt lat="42.095594" lon="23.575317"><ele>2495.7</ele><time>2026-03-08T10:33:41.000Z</time></trkpt>
<trkpt lat="42.095595" lon="23.575315"><ele>2495.9</ele><time>2026-03-08T10:33:42.000Z</time></trkpt>
<trkpt lat="42.095595" lon="23.575314"><ele>2495.9</ele><time>2026-03-08T10:33:43.000Z</time></trkpt>
<trkpt lat="42.095596" lon="23.575312"><ele>2495.9</ele><time>2026-03-08T10:33:44.000Z</time></trkpt>
<trkpt lat="42.095597" lon="23.575309"><ele>2495.9</ele><time>2026-03-08T10:33:45.000Z</time></trkpt>
<trkpt lat="42.095597" lon="23.575308"><ele>2495.9</ele><time>2026-03-08T10:33:46.000Z</time></trkpt>
<trkpt lat="42.095597" lon="23.575306"><ele>2496.1</ele><time>2026-03-08T10:33:47.000Z</time></trkpt>
<trkpt lat="42.095599" lon="23.575303"><ele>2496.1</ele><time>2026-03-08T10:33:48.000Z</time></trkpt>
<trkpt lat="42.0956" lon="23.575301"><ele>2496.1</ele><time>2026-03-08T10:33:49.000Z</time></trkpt>
<trkpt lat="42.095601" lon="23.575297"><ele>2496.1</ele><time>2026-03-08T10:33:50.000Z</time></trkpt>
<trkpt lat="42.095602" lon="23.575293"><ele>2496.1</ele><time>2026-03-08T10:33:51.000Z</time></trkpt>
<trkpt lat="42.095603" lon="23.575289"><ele>2496.3</ele><time>2026-03-08T10:33:52.000Z</time></trkpt>
<trkpt lat="42.095604" lon="23.575284"><ele>2496.3</ele><time>2026-03-08T10:33:53.000Z</time></trkpt>
<trkpt lat="42.095604" lon="23.57528"><ele>2496.3</ele><time>2026-03-08T10:33:54.000Z</time></trkpt>
<trkpt lat="42.095605" lon="23.575275"><ele>2496.3</ele><time>2026-03-08T10:33:55.000Z</time></trkpt>
<trkpt lat="42.095606" lon="23.575271"><ele>2496.3</ele><time>2026-03-08T10:33:56.000Z</time></trkpt>
<trkpt lat="42.095608" lon="23.575266"><ele>2496.4</ele><time>2026-03-08T10:33:57.000Z</time></trkpt>
<trkpt lat="42.095608" lon="23.575263"><ele>2496.4</ele><time>2026-03-08T10:33:58.000Z</time></trkpt>
<trkpt lat="42.095609" lon="23.57526"><ele>2496.4</ele><time>2026-03-08T10:33:59.000Z</time></trkpt>
<trkpt lat="42.09561" lon="23.575257"><ele>2496.4</ele><time>2026-03-08T10:34:00.000Z</time></trkpt>
<trkpt lat="42.095611" lon="23.575254"><ele>2496.4</ele><time>2026-03-08T10:34:01.000Z</time></trkpt>
<trkpt lat="42.095611" lon="23.575252"><ele>2496.9</ele><time>2026-03-08T10:34:02.000Z</time></trkpt>
<trkpt lat="42.095612" lon="23.575251"><ele>2496.9</ele><time>2026-03-08T10:34:03.000Z</time></trkpt>
<trkpt lat="42.095612" lon="23.575249"><ele>2496.9</ele><time>2026-03-08T10:34:04.000Z</time></trkpt>
<trkpt lat="42.095612" lon="23.575248"><ele>2496.9</ele><time>2026-03-08T10:34:05.000Z</time></trkpt>
<trkpt lat="42.095611" lon="23.575247"><ele>2496.9</ele><time>2026-03-08T10:34:06.000Z</time></trkpt>
<trkpt lat="42.095611" lon="23.575247"><ele>2497.5</ele><time>2026-03-08T10:34:07.000Z</time></trkpt>
<trkpt lat="42.095612" lon="23.575245"><ele>2497.5</ele><time>2026-03-08T10:34:08.000Z</time></trkpt>
<trkpt lat="42.095611" lon="23.575242"><ele>2497.5</ele><time>2026-03-08T10:34:09.000Z</time></trkpt>
<trkpt lat="42.095611" lon="23.575239"><ele>2497.5</ele><time>2026-03-08T10:34:10.000Z</time></trkpt>
<trkpt lat="42.095612" lon="23.575235"><ele>2497.5</ele><time>2026-03-08T10:34:11.000Z</time></trkpt>
<trkpt lat="42.095613" lon="23.575229"><ele>2497.9</ele><time>2026-03-08T10:34:12.000Z</time></trkpt>
<trkpt lat="42.095614" lon="23.575225"><ele>2497.9</ele><time>2026-03-08T10:34:13.000Z</time></trkpt>
<trkpt lat="42.095616" lon="23.575222"><ele>2497.9</ele><time>2026-03-08T10:34:14.000Z</time></trkpt>
<trkpt lat="42.095618" lon="23.575218"><ele>2497.9</ele><time>2026-03-08T10:34:15.000Z</time></trkpt>
<trkpt lat="42.09562" lon="23.575216"><ele>2497.9</ele><time>2026-03-08T10:34:16.000Z</time></trkpt>
<trkpt lat="42.095622" lon="23.575215"><ele>2498.5</ele><time>2026-03-08T10:34:17.000Z</time></trkpt>
<trkpt lat="42.095624" lon="23.575214"><ele>2498.5</ele><time>2026-03-08T10:34:18.000Z</time></trkpt>
<trkpt lat="42.095626" lon="23.575213"><ele>2498.5</ele><time>2026-03-08T10:34:19.000Z</time></trkpt>
<trkpt lat="42.095627" lon="23.575212"><ele>2498.5</ele><time>2026-03-08T10:34:20.000Z</time></trkpt>
<trkpt lat="42.095628" lon="23.575211"><ele>2498.5</ele><time>2026-03-08T10:34:21.000Z</time></trkpt>
<trkpt lat="42.095628" lon="23.575209"><ele>2499</ele><time>2026-03-08T10:34:22.000Z</time></trkpt>
<trkpt lat="42.095629" lon="23.575207"><ele>2499</ele><time>2026-03-08T10:34:23.000Z</time></trkpt>
<trkpt lat="42.09563" lon="23.575205"><ele>2499</ele><time>2026-03-08T10:34:24.000Z</time></trkpt>
<trkpt lat="42.09563" lon="23.575203"><ele>2499</ele><time>2026-03-08T10:34:25.000Z</time></trkpt>
<trkpt lat="42.09563" lon="23.575201"><ele>2499</ele><time>2026-03-08T10:34:26.000Z</time></trkpt>
<trkpt lat="42.09563" lon="23.575199"><ele>2499.3</ele><time>2026-03-08T10:34:27.000Z</time></trkpt>
<trkpt lat="42.09563" lon="23.575199"><ele>2499.3</ele><time>2026-03-08T10:34:28.000Z</time></trkpt>
<trkpt lat="42.095629" lon="23.575199"><ele>2499.3</ele><time>2026-03-08T10:34:29.000Z</time></trkpt>
<trkpt lat="42.095628" lon="23.575199"><ele>2499.3</ele><time>2026-03-08T10:34:30.000Z</time></trkpt>
<trkpt lat="42.095628" lon="23.5752"><ele>2499.3</ele><time>2026-03-08T10:34:31.000Z</time></trkpt>
<trkpt lat="42.095628" lon="23.5752"><ele>2499.9</ele><time>2026-03-08T10:34:32.000Z</time></trkpt>
<trkpt lat="42.095627" lon="23.5752"><ele>2499.9</ele><time>2026-03-08T10:34:33.000Z</time></trkpt>
<trkpt lat="42.095627" lon="23.5752"><ele>2499.9</ele><time>2026-03-08T10:34:34.000Z</time></trkpt>
<trkpt lat="42.095627" lon="23.5752"><ele>2499.9</ele><time>2026-03-08T10:34:35.000Z</time></trkpt>
<trkpt lat="42.095627" lon="23.5752"><ele>2499.9</ele><time>2026-03-08T10:34:36.000Z</time></trkpt>
<trkpt lat="42.095628" lon="23.5752"><ele>2500.5</ele><time>2026-03-08T10:34:37.000Z</time></trkpt>
<trkpt lat="42.095629" lon="23.575199"><ele>2500.5</ele><time>2026-03-08T10:34:38.000Z</time></trkpt>
<trkpt lat="42.09563" lon="23.575197"><ele>2500.5</ele><time>2026-03-08T10:34:39.000Z</time></trkpt>
<trkpt lat="42.095632" lon="23.575194"><ele>2500.5</ele><time>2026-03-08T10:34:40.000Z</time></trkpt>
<trkpt lat="42.095634" lon="23.575191"><ele>2500.5</ele><time>2026-03-08T10:34:41.000Z</time></trkpt>
<trkpt lat="42.095635" lon="23.575189"><ele>2500.8</ele><time>2026-03-08T10:34:42.000Z</time></trkpt>
<trkpt lat="42.095636" lon="23.575187"><ele>2500.8</ele><time>2026-03-08T10:34:43.000Z</time></trkpt>
<trkpt lat="42.095637" lon="23.575186"><ele>2500.8</ele><time>2026-03-08T10:34:44.000Z</time></trkpt>
<trkpt lat="42.095637" lon="23.575186"><ele>2500.8</ele><time>2026-03-08T10:34:45.000Z</time></trkpt>
<trkpt lat="42.095637" lon="23.575186"><ele>2500.8</ele><time>2026-03-08T10:34:46.000Z</time></trkpt>
<trkpt lat="42.095637" lon="23.575187"><ele>2501.1</ele><time>2026-03-08T10:34:47.000Z</time></trkpt>
<trkpt lat="42.095637" lon="23.575187"><ele>2501.1</ele><time>2026-03-08T10:34:48.000Z</time></trkpt>
<trkpt lat="42.095637" lon="23.575187"><ele>2501.1</ele><time>2026-03-08T10:34:49.000Z</time></trkpt>
<trkpt lat="42.095637" lon="23.575187"><ele>2501.1</ele><time>2026-03-08T10:34:50.000Z</time></trkpt>
<trkpt lat="42.095637" lon="23.575186"><ele>2501.1</ele><time>2026-03-08T10:34:51.000Z</time></trkpt>
<trkpt lat="42.095637" lon="23.575186"><ele>2501.3</ele><time>2026-03-08T10:34:52.000Z</time></trkpt>
<trkpt lat="42.095637" lon="23.575186"><ele>2501.3</ele><time>2026-03-08T10:34:53.000Z</time></trkpt>
<trkpt lat="42.095637" lon="23.575186"><ele>2501.3</ele><time>2026-03-08T10:34:54.000Z</time></trkpt>
<trkpt lat="42.095636" lon="23.575185"><ele>2501.3</ele><time>2026-03-08T10:34:55.000Z</time></trkpt>
<trkpt lat="42.095637" lon="23.575184"><ele>2501.3</ele><time>2026-03-08T10:34:56.000Z</time></trkpt>
<trkpt lat="42.095638" lon="23.575182"><ele>2501.4</ele><time>2026-03-08T10:34:57.000Z</time></trkpt>
<trkpt lat="42.095639" lon="23.57518"><ele>2501.4</ele><time>2026-03-08T10:34:58.000Z</time></trkpt>
<trkpt lat="42.09564" lon="23.575178"><ele>2501.4</ele><time>2026-03-08T10:34:59.000Z</time></trkpt>
<trkpt lat="42.095641" lon="23.575176"><ele>2501.4</ele><time>2026-03-08T10:35:00.000Z</time></trkpt>
<trkpt lat="42.095641" lon="23.575175"><ele>2501.4</ele><time>2026-03-08T10:35:01.000Z</time></trkpt>
<trkpt lat="42.095641" lon="23.575173"><ele>2501.5</ele><time>2026-03-08T10:35:02.000Z</time></trkpt>
<trkpt lat="42.09564" lon="23.575172"><ele>2501.5</ele><time>2026-03-08T10:35:03.000Z</time></trkpt>
<trkpt lat="42.09564" lon="23.575172"><ele>2501.5</ele><time>2026-03-08T10:35:04.000Z</time></trkpt>
<trkpt lat="42.09564" lon="23.575172"><ele>2501.5</ele><time>2026-03-08T10:35:05.000Z</time></trkpt>
<trkpt lat="42.095641" lon="23.575173"><ele>2501.5</ele><time>2026-03-08T10:35:06.000Z</time></trkpt>
<trkpt lat="42.095641" lon="23.575173"><ele>2501.5</ele><time>2026-03-08T10:35:07.000Z</time></trkpt>
<trkpt lat="42.095641" lon="23.575173"><ele>2501.5</ele><time>2026-03-08T10:35:08.000Z</time></trkpt>
<trkpt lat="42.095641" lon="23.575172"><ele>2501.5</ele><time>2026-03-08T10:35:09.000Z</time></trkpt>
<trkpt lat="42.095642" lon="23.575171"><ele>2501.5</ele><time>2026-03-08T10:35:10.000Z</time></trkpt>
<trkpt lat="42.095642" lon="23.575169"><ele>2501.5</ele><time>2026-03-08T10:35:11.000Z</time></trkpt>
<trkpt lat="42.095642" lon="23.575166"><ele>2501.6</ele><time>2026-03-08T10:35:12.000Z</time></trkpt>
<trkpt lat="42.095644" lon="23.575164"><ele>2501.6</ele><time>2026-03-08T10:35:13.000Z</time></trkpt>
<trkpt lat="42.095645" lon="23.575161"><ele>2501.6</ele><time>2026-03-08T10:35:14.000Z</time></trkpt>
<trkpt lat="42.095646" lon="23.575159"><ele>2501.6</ele><time>2026-03-08T10:35:15.000Z</time></trkpt>
<trkpt lat="42.095648" lon="23.575157"><ele>2501.6</ele><time>2026-03-08T10:35:16.000Z</time></trkpt>
<trkpt lat="42.095649" lon="23.575156"><ele>2501.5</ele><time>2026-03-08T10:35:17.000Z</time></trkpt>
<trkpt lat="42.095651" lon="23.575155"><ele>2501.5</ele><time>2026-03-08T10:35:18.000Z</time></trkpt>
<trkpt lat="42.095651" lon="23.575154"><ele>2501.5</ele><time>2026-03-08T10:35:19.000Z</time></trkpt>
<trkpt lat="42.095652" lon="23.575154"><ele>2501.5</ele><time>2026-03-08T10:35:20.000Z</time></trkpt>
<trkpt lat="42.095652" lon="23.575154"><ele>2501.5</ele><time>2026-03-08T10:35:21.000Z</time></trkpt>
<trkpt lat="42.095653" lon="23.575154"><ele>2501.5</ele><time>2026-03-08T10:35:22.000Z</time></trkpt>
<trkpt lat="42.095653" lon="23.575154"><ele>2501.5</ele><time>2026-03-08T10:35:23.000Z</time></trkpt>
<trkpt lat="42.095653" lon="23.575154"><ele>2501.5</ele><time>2026-03-08T10:35:24.000Z</time></trkpt>
<trkpt lat="42.095653" lon="23.575153"><ele>2501.5</ele><time>2026-03-08T10:35:25.000Z</time></trkpt>
<trkpt lat="42.095653" lon="23.575153"><ele>2501.5</ele><time>2026-03-08T10:35:26.000Z</time></trkpt>
<trkpt lat="42.095653" lon="23.575152"><ele>2501.5</ele><time>2026-03-08T10:35:27.000Z</time></trkpt>
<trkpt lat="42.095653" lon="23.575151"><ele>2501.5</ele><time>2026-03-08T10:35:28.000Z</time></trkpt>
<trkpt lat="42.095653" lon="23.575151"><ele>2501.5</ele><time>2026-03-08T10:35:29.000Z</time></trkpt>
<trkpt lat="42.095653" lon="23.57515"><ele>2501.5</ele><time>2026-03-08T10:35:30.000Z</time></trkpt>
<trkpt lat="42.095652" lon="23.57515"><ele>2501.5</ele><time>2026-03-08T10:35:31.000Z</time></trkpt>
<trkpt lat="42.095652" lon="23.57515"><ele>2501.9</ele><time>2026-03-08T10:35:32.000Z</time></trkpt>
<trkpt lat="42.095652" lon="23.57515"><ele>2501.9</ele><time>2026-03-08T10:35:33.000Z</time></trkpt>
<trkpt lat="42.095652" lon="23.57515"><ele>2501.9</ele><time>2026-03-08T10:35:34.000Z</time></trkpt>
<trkpt lat="42.095652" lon="23.57515"><ele>2501.9</ele><time>2026-03-08T10:35:35.000Z</time></trkpt>
<trkpt lat="42.095652" lon="23.57515"><ele>2501.9</ele><time>2026-03-08T10:35:36.000Z</time></trkpt>
<trkpt lat="42.095652" lon="23.57515"><ele>2502.1</ele><time>2026-03-08T10:35:37.000Z</time></trkpt>
<trkpt lat="42.095653" lon="23.57515"><ele>2502.1</ele><time>2026-03-08T10:35:38.000Z</time></trkpt>
<trkpt lat="42.095653" lon="23.57515"><ele>2502.1</ele><time>2026-03-08T10:35:39.000Z</time></trkpt>
<trkpt lat="42.095653" lon="23.575151"><ele>2502.1</ele><time>2026-03-08T10:35:40.000Z</time></trkpt>
<trkpt lat="42.095653" lon="23.575151"><ele>2502.1</ele><time>2026-03-08T10:35:41.000Z</time></trkpt>
<trkpt lat="42.095654" lon="23.575151"><ele>2502.1</ele><time>2026-03-08T10:35:42.000Z</time></trkpt>
<trkpt lat="42.095654" lon="23.575151"><ele>2502.1</ele><time>2026-03-08T10:35:43.000Z</time></trkpt>
<trkpt lat="42.095654" lon="23.575151"><ele>2502.1</ele><time>2026-03-08T10:35:44.000Z</time></trkpt>
<trkpt lat="42.095654" lon="23.575151"><ele>2502.1</ele><time>2026-03-08T10:35:45.000Z</time></trkpt>
<trkpt lat="42.095654" lon="23.575151"><ele>2502.1</ele><time>2026-03-08T10:35:46.000Z</time></trkpt>
<trkpt lat="42.095654" lon="23.575151"><ele>2502</ele><time>2026-03-08T10:35:47.000Z</time></trkpt>
<trkpt lat="42.095654" lon="23.575151"><ele>2502</ele><time>2026-03-08T10:35:48.000Z</time></trkpt>
<trkpt lat="42.095654" lon="23.575151"><ele>2502</ele><time>2026-03-08T10:35:49.000Z</time></trkpt>
<trkpt lat="42.095654" lon="23.575151"><ele>2502</ele><time>2026-03-08T10:35:50.000Z</time></trkpt>
<trkpt lat="42.095654" lon="23.575151"><ele>2502</ele><time>2026-03-08T10:35:51.000Z</time></trkpt>
<trkpt lat="42.095654" lon="23.575151"><ele>2502.1</ele><time>2026-03-08T10:35:52.000Z</time></trkpt>
<trkpt lat="42.095654" lon="23.575151"><ele>2502.1</ele><time>2026-03-08T10:35:53.000Z</time></trkpt>
<trkpt lat="42.095654" lon="23.575151"><ele>2502.1</ele><time>2026-03-08T10:35:54.000Z</time></trkpt>
<trkpt lat="42.095654" lon="23.575151"><ele>2502.1</ele><time>2026-03-08T10:35:55.000Z</time></trkpt>
<trkpt lat="42.095654" lon="23.575151"><ele>2502.1</ele><time>2026-03-08T10:35:56.000Z</time></trkpt>
<trkpt lat="42.095654" lon="23.575151"><ele>2502.2</ele><time>2026-03-08T10:35:57.000Z</time></trkpt>
<trkpt lat="42.095654" lon="23.575151"><ele>2502.2</ele><time>2026-03-08T10:35:58.000Z</time></trkpt>
<trkpt lat="42.095654" lon="23.575151"><ele>2502.2</ele><time>2026-03-08T10:35:59.000Z</time></trkpt>
<trkpt lat="42.095654" lon="23.575151"><ele>2502.2</ele><time>2026-03-08T10:36:00.000Z</time></trkpt>
<trkpt lat="42.095655" lon="23.575151"><ele>2502.2</ele><time>2026-03-08T10:36:01.000Z</time></trkpt>
<trkpt lat="42.095655" lon="23.575151"><ele>2502.3</ele><time>2026-03-08T10:36:02.000Z</time></trkpt>
<trkpt lat="42.095655" lon="23.575151"><ele>2502.3</ele><time>2026-03-08T10:36:03.000Z</time></trkpt>
<trkpt lat="42.095655" lon="23.57515"><ele>2502.3</ele><time>2026-03-08T10:36:04.000Z</time></trkpt>
<trkpt lat="42.095655" lon="23.57515"><ele>2502.3</ele><time>2026-03-08T10:36:05.000Z</time></trkpt>
<trkpt lat="42.095654" lon="23.57515"><ele>2502.3</ele><time>2026-03-08T10:36:06.000Z</time></trkpt>
<trkpt lat="42.095654" lon="23.57515"><ele>2502.3</ele><time>2026-03-08T10:36:07.000Z</time></trkpt>
<trkpt lat="42.095654" lon="23.57515"><ele>2502.3</ele><time>2026-03-08T10:36:08.000Z</time></trkpt>
<trkpt lat="42.095654" lon="23.57515"><ele>2502.3</ele><time>2026-03-08T10:36:09.000Z</time></trkpt>
<trkpt lat="42.095654" lon="23.57515"><ele>2502.3</ele><time>2026-03-08T10:36:10.000Z</time></trkpt>
<trkpt lat="42.095654" lon="23.57515"><ele>2502.3</ele><time>2026-03-08T10:36:11.000Z</time></trkpt>
<trkpt lat="42.095655" lon="23.575149"><ele>2502.3</ele><time>2026-03-08T10:36:12.000Z</time></trkpt>
<trkpt lat="42.095657" lon="23.575148"><ele>2502.3</ele><time>2026-03-08T10:36:13.000Z</time></trkpt>
<trkpt lat="42.095658" lon="23.575146"><ele>2502.3</ele><time>2026-03-08T10:36:14.000Z</time></trkpt>
<trkpt lat="42.095659" lon="23.575145"><ele>2502.3</ele><time>2026-03-08T10:36:15.000Z</time></trkpt>
<trkpt lat="42.09566" lon="23.575144"><ele>2502.3</ele><time>2026-03-08T10:36:16.000Z</time></trkpt>
<trkpt lat="42.09566" lon="23.575144"><ele>2502.3</ele><time>2026-03-08T10:36:17.000Z</time></trkpt>
<trkpt lat="42.095659" lon="23.575144"><ele>2502.3</ele><time>2026-03-08T10:36:18.000Z</time></trkpt>
<trkpt lat="42.095659" lon="23.575144"><ele>2502.3</ele><time>2026-03-08T10:36:19.000Z</time></trkpt>
<trkpt lat="42.095658" lon="23.575145"><ele>2502.3</ele><time>2026-03-08T10:36:20.000Z</time></trkpt>
<trkpt lat="42.095659" lon="23.575145"><ele>2502.3</ele><time>2026-03-08T10:36:21.000Z</time></trkpt>
<trkpt lat="42.09566" lon="23.575144"><ele>2502.5</ele><time>2026-03-08T10:36:22.000Z</time></trkpt>
<trkpt lat="42.095662" lon="23.575144"><ele>2502.5</ele><time>2026-03-08T10:36:23.000Z</time></trkpt>
<trkpt lat="42.095664" lon="23.575143"><ele>2502.5</ele><time>2026-03-08T10:36:24.000Z</time></trkpt>
<trkpt lat="42.095666" lon="23.575142"><ele>2502.5</ele><time>2026-03-08T10:36:25.000Z</time></trkpt>
<trkpt lat="42.095668" lon="23.575142"><ele>2502.5</ele><time>2026-03-08T10:36:26.000Z</time></trkpt>
<trkpt lat="42.09567" lon="23.575141"><ele>2502.6</ele><time>2026-03-08T10:36:27.000Z</time></trkpt>
<trkpt lat="42.095671" lon="23.57514"><ele>2502.6</ele><time>2026-03-08T10:36:28.000Z</time></trkpt>
<trkpt lat="42.095672" lon="23.575139"><ele>2502.6</ele><time>2026-03-08T10:36:29.000Z</time></trkpt>
<trkpt lat="42.095672" lon="23.575138"><ele>2502.6</ele><time>2026-03-08T10:36:30.000Z</time></trkpt>
<trkpt lat="42.095673" lon="23.575138"><ele>2502.6</ele><time>2026-03-08T10:36:31.000Z</time></trkpt>
<trkpt lat="42.095673" lon="23.575139"><ele>2502.9</ele><time>2026-03-08T10:36:32.000Z</time></trkpt>
<trkpt lat="42.095673" lon="23.575139"><ele>2502.9</ele><time>2026-03-08T10:36:33.000Z</time></trkpt>
<trkpt lat="42.095674" lon="23.575139"><ele>2502.9</ele><time>2026-03-08T10:36:34.000Z</time></trkpt>
<trkpt lat="42.095675" lon="23.57514"><ele>2502.9</ele><time>2026-03-08T10:36:35.000Z</time></trkpt>
<trkpt lat="42.095675" lon="23.57514"><ele>2502.9</ele><time>2026-03-08T10:36:36.000Z</time></trkpt>
<trkpt lat="42.095676" lon="23.57514"><ele>2503.4</ele><time>2026-03-08T10:36:37.000Z</time></trkpt>
<trkpt lat="42.095677" lon="23.575141"><ele>2503.4</ele><time>2026-03-08T10:36:38.000Z</time></trkpt>
<trkpt lat="42.095677" lon="23.575141"><ele>2503.4</ele><time>2026-03-08T10:36:39.000Z</time></trkpt>
<trkpt lat="42.095678" lon="23.575142"><ele>2503.4</ele><time>2026-03-08T10:36:40.000Z</time></trkpt>
<trkpt lat="42.095679" lon="23.575143"><ele>2503.4</ele><time>2026-03-08T10:36:41.000Z</time></trkpt>
<trkpt lat="42.095679" lon="23.575145"><ele>2503.8</ele><time>2026-03-08T10:36:42.000Z</time></trkpt>
<trkpt lat="42.09568" lon="23.575147"><ele>2503.8</ele><time>2026-03-08T10:36:43.000Z</time></trkpt>
<trkpt lat="42.095681" lon="23.57515"><ele>2503.8</ele><time>2026-03-08T10:36:44.000Z</time></trkpt>
<trkpt lat="42.095681" lon="23.575152"><ele>2503.8</ele><time>2026-03-08T10:36:45.000Z</time></trkpt>
<trkpt lat="42.095683" lon="23.575153"><ele>2503.8</ele><time>2026-03-08T10:36:46.000Z</time></trkpt>
<trkpt lat="42.095685" lon="23.575155"><ele>2504.3</ele><time>2026-03-08T10:36:47.000Z</time></trkpt>
<trkpt lat="42.095687" lon="23.575156"><ele>2504.3</ele><time>2026-03-08T10:36:48.000Z</time></trkpt>
<trkpt lat="42.095688" lon="23.575157"><ele>2504.3</ele><time>2026-03-08T10:36:49.000Z</time></trkpt>
<trkpt lat="42.09569" lon="23.575157"><ele>2504.3</ele><time>2026-03-08T10:36:50.000Z</time></trkpt>
<trkpt lat="42.09569" lon="23.575158"><ele>2504.3</ele><time>2026-03-08T10:36:51.000Z</time></trkpt>
<trkpt lat="42.09569" lon="23.575158"><ele>2504.9</ele><time>2026-03-08T10:36:52.000Z</time></trkpt>
<trkpt lat="42.09569" lon="23.575157"><ele>2504.9</ele><time>2026-03-08T10:36:53.000Z</time></trkpt>
<trkpt lat="42.09569" lon="23.575157"><ele>2504.9</ele><time>2026-03-08T10:36:54.000Z</time></trkpt>
<trkpt lat="42.09569" lon="23.575157"><ele>2504.9</ele><time>2026-03-08T10:36:55.000Z</time></trkpt>
<trkpt lat="42.095691" lon="23.575157"><ele>2504.9</ele><time>2026-03-08T10:36:56.000Z</time></trkpt>
<trkpt lat="42.095692" lon="23.575156"><ele>2505.1</ele><time>2026-03-08T10:36:57.000Z</time></trkpt>
<trkpt lat="42.095695" lon="23.575155"><ele>2505.1</ele><time>2026-03-08T10:36:58.000Z</time></trkpt>
<trkpt lat="42.095698" lon="23.575154"><ele>2505.1</ele><time>2026-03-08T10:36:59.000Z</time></trkpt>
<trkpt lat="42.095701" lon="23.575153"><ele>2505.1</ele><time>2026-03-08T10:37:00.000Z</time></trkpt>
<trkpt lat="42.095704" lon="23.575153"><ele>2505.1</ele><time>2026-03-08T10:37:01.000Z</time></trkpt>
<trkpt lat="42.095705" lon="23.575153"><ele>2505.6</ele><time>2026-03-08T10:37:02.000Z</time></trkpt>
<trkpt lat="42.095706" lon="23.575153"><ele>2505.6</ele><time>2026-03-08T10:37:03.000Z</time></trkpt>
<trkpt lat="42.095707" lon="23.575154"><ele>2505.6</ele><time>2026-03-08T10:37:04.000Z</time></trkpt>
<trkpt lat="42.095706" lon="23.575153"><ele>2505.6</ele><time>2026-03-08T10:37:05.000Z</time></trkpt>
<trkpt lat="42.095707" lon="23.575153"><ele>2505.6</ele><time>2026-03-08T10:37:06.000Z</time></trkpt>
<trkpt lat="42.095708" lon="23.575153"><ele>2506.1</ele><time>2026-03-08T10:37:07.000Z</time></trkpt>
<trkpt lat="42.095709" lon="23.575153"><ele>2506.1</ele><time>2026-03-08T10:37:08.000Z</time></trkpt>
<trkpt lat="42.09571" lon="23.575153"><ele>2506.1</ele><time>2026-03-08T10:37:09.000Z</time></trkpt>
<trkpt lat="42.095712" lon="23.575154"><ele>2506.1</ele><time>2026-03-08T10:37:10.000Z</time></trkpt>
<trkpt lat="42.095713" lon="23.575154"><ele>2506.1</ele><time>2026-03-08T10:37:11.000Z</time></trkpt>
<trkpt lat="42.095715" lon="23.575156"><ele>2506.3</ele><time>2026-03-08T10:37:12.000Z</time></trkpt>
<trkpt lat="42.095717" lon="23.575156"><ele>2506.3</ele><time>2026-03-08T10:37:13.000Z</time></trkpt>
<trkpt lat="42.09572" lon="23.575156"><ele>2506.3</ele><time>2026-03-08T10:37:14.000Z</time></trkpt>
<trkpt lat="42.095723" lon="23.575157"><ele>2506.3</ele><time>2026-03-08T10:37:15.000Z</time></trkpt>
<trkpt lat="42.095725" lon="23.575157"><ele>2506.3</ele><time>2026-03-08T10:37:16.000Z</time></trkpt>
<trkpt lat="42.095726" lon="23.575157"><ele>2506.9</ele><time>2026-03-08T10:37:17.000Z</time></trkpt>
<trkpt lat="42.095727" lon="23.575158"><ele>2506.9</ele><time>2026-03-08T10:37:18.000Z</time></trkpt>
<trkpt lat="42.095727" lon="23.575159"><ele>2506.9</ele><time>2026-03-08T10:37:19.000Z</time></trkpt>
<trkpt lat="42.095727" lon="23.57516"><ele>2506.9</ele><time>2026-03-08T10:37:20.000Z</time></trkpt>
<trkpt lat="42.095726" lon="23.575161"><ele>2506.9</ele><time>2026-03-08T10:37:21.000Z</time></trkpt>
<trkpt lat="42.095727" lon="23.575162"><ele>2507.7</ele><time>2026-03-08T10:37:22.000Z</time></trkpt>
<trkpt lat="42.095726" lon="23.575163"><ele>2507.7</ele><time>2026-03-08T10:37:23.000Z</time></trkpt>
<trkpt lat="42.095727" lon="23.575164"><ele>2507.7</ele><time>2026-03-08T10:37:24.000Z</time></trkpt>
<trkpt lat="42.095728" lon="23.575164"><ele>2507.7</ele><time>2026-03-08T10:37:25.000Z</time></trkpt>
<trkpt lat="42.095729" lon="23.575164"><ele>2507.7</ele><time>2026-03-08T10:37:26.000Z</time></trkpt>
<trkpt lat="42.095728" lon="23.575164"><ele>2508.1</ele><time>2026-03-08T10:37:27.000Z</time></trkpt>
<trkpt lat="42.095728" lon="23.575163"><ele>2508.1</ele><time>2026-03-08T10:37:28.000Z</time></trkpt>
<trkpt lat="42.095726" lon="23.575162"><ele>2508.1</ele><time>2026-03-08T10:37:29.000Z</time></trkpt>
<trkpt lat="42.095725" lon="23.575161"><ele>2508.1</ele><time>2026-03-08T10:37:30.000Z</time></trkpt>
<trkpt lat="42.095725" lon="23.575161"><ele>2508.1</ele><time>2026-03-08T10:37:31.000Z</time></trkpt>
<trkpt lat="42.095724" lon="23.57516"><ele>2508.8</ele><time>2026-03-08T10:37:32.000Z</time></trkpt>
<trkpt lat="42.095724" lon="23.57516"><ele>2508.8</ele><time>2026-03-08T10:37:33.000Z</time></trkpt>
<trkpt lat="42.095724" lon="23.57516"><ele>2508.8</ele><time>2026-03-08T10:37:34.000Z</time></trkpt>
<trkpt lat="42.095724" lon="23.57516"><ele>2508.8</ele><time>2026-03-08T10:37:35.000Z</time></trkpt>
<trkpt lat="42.095725" lon="23.575161"><ele>2508.8</ele><time>2026-03-08T10:37:36.000Z</time></trkpt>
<trkpt lat="42.095725" lon="23.575161"><ele>2509.1</ele><time>2026-03-08T10:37:37.000Z</time></trkpt>
<trkpt lat="42.095725" lon="23.575161"><ele>2509.1</ele><time>2026-03-08T10:37:38.000Z</time></trkpt>
<trkpt lat="42.095725" lon="23.575161"><ele>2509.1</ele><time>2026-03-08T10:37:39.000Z</time></trkpt>
<trkpt lat="42.095726" lon="23.575162"><ele>2509.1</ele><time>2026-03-08T10:37:40.000Z</time></trkpt>
<trkpt lat="42.095726" lon="23.575163"><ele>2509.1</ele><time>2026-03-08T10:37:41.000Z</time></trkpt>
<trkpt lat="42.095726" lon="23.575162"><ele>2509.2</ele><time>2026-03-08T10:37:42.000Z</time></trkpt>
<trkpt lat="42.095726" lon="23.575162"><ele>2509.2</ele><time>2026-03-08T10:37:43.000Z</time></trkpt>
<trkpt lat="42.095726" lon="23.575163"><ele>2509.2</ele><time>2026-03-08T10:37:44.000Z</time></trkpt>
<trkpt lat="42.095726" lon="23.575163"><ele>2509.2</ele><time>2026-03-08T10:37:45.000Z</time></trkpt>
<trkpt lat="42.095726" lon="23.575165"><ele>2509.2</ele><time>2026-03-08T10:37:46.000Z</time></trkpt>
<trkpt lat="42.095727" lon="23.575167"><ele>2509.3</ele><time>2026-03-08T10:37:47.000Z</time></trkpt>
<trkpt lat="42.095727" lon="23.575169"><ele>2509.3</ele><time>2026-03-08T10:37:48.000Z</time></trkpt>
<trkpt lat="42.095727" lon="23.57517"><ele>2509.3</ele><time>2026-03-08T10:37:49.000Z</time></trkpt>
<trkpt lat="42.095728" lon="23.57517"><ele>2509.3</ele><time>2026-03-08T10:37:50.000Z</time></trkpt>
<trkpt lat="42.095728" lon="23.575168"><ele>2509.3</ele><time>2026-03-08T10:37:51.000Z</time></trkpt>
<trkpt lat="42.095727" lon="23.575166"><ele>2509.3</ele><time>2026-03-08T10:37:52.000Z</time></trkpt>
<trkpt lat="42.095727" lon="23.575165"><ele>2509.3</ele><time>2026-03-08T10:37:53.000Z</time></trkpt>
<trkpt lat="42.095728" lon="23.575164"><ele>2509.3</ele><time>2026-03-08T10:37:54.000Z</time></trkpt>
<trkpt lat="42.095728" lon="23.575163"><ele>2509.3</ele><time>2026-03-08T10:37:55.000Z</time></trkpt>
<trkpt lat="42.095729" lon="23.575163"><ele>2509.3</ele><time>2026-03-08T10:37:56.000Z</time></trkpt>
<trkpt lat="42.095729" lon="23.575163"><ele>2509.4</ele><time>2026-03-08T10:37:57.000Z</time></trkpt>
<trkpt lat="42.095729" lon="23.575162"><ele>2509.4</ele><time>2026-03-08T10:37:58.000Z</time></trkpt>
<trkpt lat="42.095728" lon="23.575163"><ele>2509.4</ele><time>2026-03-08T10:37:59.000Z</time></trkpt>
<trkpt lat="42.095728" lon="23.575163"><ele>2509.4</ele><time>2026-03-08T10:38:00.000Z</time></trkpt>
<trkpt lat="42.095727" lon="23.575164"><ele>2509.4</ele><time>2026-03-08T10:38:01.000Z</time></trkpt>
<trkpt lat="42.095728" lon="23.575165"><ele>2509.3</ele><time>2026-03-08T10:38:02.000Z</time></trkpt>
<trkpt lat="42.095728" lon="23.575167"><ele>2509.3</ele><time>2026-03-08T10:38:03.000Z</time></trkpt>
<trkpt lat="42.095729" lon="23.575168"><ele>2509.3</ele><time>2026-03-08T10:38:04.000Z</time></trkpt>
<trkpt lat="42.095729" lon="23.57517"><ele>2509.3</ele><time>2026-03-08T10:38:05.000Z</time></trkpt>
<trkpt lat="42.09573" lon="23.575173"><ele>2509.3</ele><time>2026-03-08T10:38:06.000Z</time></trkpt>
<trkpt lat="42.09573" lon="23.575174"><ele>2509.3</ele><time>2026-03-08T10:38:07.000Z</time></trkpt>
<trkpt lat="42.09573" lon="23.575175"><ele>2509.3</ele><time>2026-03-08T10:38:08.000Z</time></trkpt>
<trkpt lat="42.09573" lon="23.575176"><ele>2509.3</ele><time>2026-03-08T10:38:09.000Z</time></trkpt>
<trkpt lat="42.09573" lon="23.575177"><ele>2509.3</ele><time>2026-03-08T10:38:10.000Z</time></trkpt>
<trkpt lat="42.09573" lon="23.575177"><ele>2509.3</ele><time>2026-03-08T10:38:11.000Z</time></trkpt>
<trkpt lat="42.09573" lon="23.575176"><ele>2509.5</ele><time>2026-03-08T10:38:12.000Z</time></trkpt>
<trkpt lat="42.09573" lon="23.575175"><ele>2509.5</ele><time>2026-03-08T10:38:13.000Z</time></trkpt>
<trkpt lat="42.09573" lon="23.575175"><ele>2509.5</ele><time>2026-03-08T10:38:14.000Z</time></trkpt>
<trkpt lat="42.09573" lon="23.575174"><ele>2509.5</ele><time>2026-03-08T10:38:15.000Z</time></trkpt>
<trkpt lat="42.095731" lon="23.575173"><ele>2509.5</ele><time>2026-03-08T10:38:16.000Z</time></trkpt>
<trkpt lat="42.095731" lon="23.575173"><ele>2509.8</ele><time>2026-03-08T10:38:17.000Z</time></trkpt>
<trkpt lat="42.095731" lon="23.575173"><ele>2509.8</ele><time>2026-03-08T10:38:18.000Z</time></trkpt>
<trkpt lat="42.095732" lon="23.575173"><ele>2509.8</ele><time>2026-03-08T10:38:19.000Z</time></trkpt>
<trkpt lat="42.095732" lon="23.575173"><ele>2509.8</ele><time>2026-03-08T10:38:20.000Z</time></trkpt>
<trkpt lat="42.095732" lon="23.575173"><ele>2509.8</ele><time>2026-03-08T10:38:21.000Z</time></trkpt>
<trkpt lat="42.095732" lon="23.575172"><ele>2510</ele><time>2026-03-08T10:38:22.000Z</time></trkpt>
<trkpt lat="42.095732" lon="23.575171"><ele>2510</ele><time>2026-03-08T10:38:23.000Z</time></trkpt>
<trkpt lat="42.095732" lon="23.57517"><ele>2510</ele><time>2026-03-08T10:38:24.000Z</time></trkpt>
<trkpt lat="42.095732" lon="23.57517"><ele>2510</ele><time>2026-03-08T10:38:25.000Z</time></trkpt>
<trkpt lat="42.095732" lon="23.575169"><ele>2510</ele><time>2026-03-08T10:38:26.000Z</time></trkpt>
<trkpt lat="42.095732" lon="23.575169"><ele>2510</ele><time>2026-03-08T10:38:27.000Z</time></trkpt>
<trkpt lat="42.095732" lon="23.575169"><ele>2510</ele><time>2026-03-08T10:38:28.000Z</time></trkpt>
<trkpt lat="42.095732" lon="23.575168"><ele>2510</ele><time>2026-03-08T10:38:29.000Z</time></trkpt>
<trkpt lat="42.095733" lon="23.575167"><ele>2510</ele><time>2026-03-08T10:38:30.000Z</time></trkpt>
<trkpt lat="42.095734" lon="23.575167"><ele>2510</ele><time>2026-03-08T10:38:31.000Z</time></trkpt>
<trkpt lat="42.095735" lon="23.575167"><ele>2509.8</ele><time>2026-03-08T10:38:32.000Z</time></trkpt>
<trkpt lat="42.095737" lon="23.575167"><ele>2509.8</ele><time>2026-03-08T10:38:33.000Z</time></trkpt>
<trkpt lat="42.095739" lon="23.575169"><ele>2509.8</ele><time>2026-03-08T10:38:34.000Z</time></trkpt>
<trkpt lat="42.095741" lon="23.575169"><ele>2509.8</ele><time>2026-03-08T10:38:35.000Z</time></trkpt>
<trkpt lat="42.095743" lon="23.575169"><ele>2509.8</ele><time>2026-03-08T10:38:36.000Z</time></trkpt>
<trkpt lat="42.095744" lon="23.575169"><ele>2509.9</ele><time>2026-03-08T10:38:37.000Z</time></trkpt>
<trkpt lat="42.095744" lon="23.575169"><ele>2509.9</ele><time>2026-03-08T10:38:38.000Z</time></trkpt>
<trkpt lat="42.095744" lon="23.575169"><ele>2509.9</ele><time>2026-03-08T10:38:39.000Z</time></trkpt>
<trkpt lat="42.095744" lon="23.575169"><ele>2509.9</ele><time>2026-03-08T10:38:40.000Z</time></trkpt>
<trkpt lat="42.095743" lon="23.575168"><ele>2509.9</ele><time>2026-03-08T10:38:41.000Z</time></trkpt>
<trkpt lat="42.095742" lon="23.575168"><ele>2510.1</ele><time>2026-03-08T10:38:42.000Z</time></trkpt>
<trkpt lat="42.095742" lon="23.575169"><ele>2510.1</ele><time>2026-03-08T10:38:43.000Z</time></trkpt>
<trkpt lat="42.095743" lon="23.57517"><ele>2510.1</ele><time>2026-03-08T10:38:44.000Z</time></trkpt>
<trkpt lat="42.095744" lon="23.575171"><ele>2510.1</ele><time>2026-03-08T10:38:45.000Z</time></trkpt>
<trkpt lat="42.095747" lon="23.575172"><ele>2510.1</ele><time>2026-03-08T10:38:46.000Z</time></trkpt>
<trkpt lat="42.095749" lon="23.575171"><ele>2510.7</ele><time>2026-03-08T10:38:47.000Z</time></trkpt>
<trkpt lat="42.095751" lon="23.57517"><ele>2510.7</ele><time>2026-03-08T10:38:48.000Z</time></trkpt>
<trkpt lat="42.095753" lon="23.575168"><ele>2510.7</ele><time>2026-03-08T10:38:49.000Z</time></trkpt>
<trkpt lat="42.095754" lon="23.575166"><ele>2510.7</ele><time>2026-03-08T10:38:50.000Z</time></trkpt>
<trkpt lat="42.095755" lon="23.575164"><ele>2510.7</ele><time>2026-03-08T10:38:51.000Z</time></trkpt>
<trkpt lat="42.095758" lon="23.575163"><ele>2511.1</ele><time>2026-03-08T10:38:52.000Z</time></trkpt>
<trkpt lat="42.095759" lon="23.575161"><ele>2511.1</ele><time>2026-03-08T10:38:53.000Z</time></trkpt>
<trkpt lat="42.09576" lon="23.57516"><ele>2511.1</ele><time>2026-03-08T10:38:54.000Z</time></trkpt>
<trkpt lat="42.095761" lon="23.575158"><ele>2511.1</ele><time>2026-03-08T10:38:55.000Z</time></trkpt>
<trkpt lat="42.095762" lon="23.575156"><ele>2511.1</ele><time>2026-03-08T10:38:56.000Z</time></trkpt>
<trkpt lat="42.095763" lon="23.575155"><ele>2511.2</ele><time>2026-03-08T10:38:57.000Z</time></trkpt>
<trkpt lat="42.095764" lon="23.575154"><ele>2511.2</ele><time>2026-03-08T10:38:58.000Z</time></trkpt>
<trkpt lat="42.095765" lon="23.575154"><ele>2511.2</ele><time>2026-03-08T10:38:59.000Z</time></trkpt>
<trkpt lat="42.095766" lon="23.575154"><ele>2511.2</ele><time>2026-03-08T10:39:00.000Z</time></trkpt>
<trkpt lat="42.095766" lon="23.575155"><ele>2511.2</ele><time>2026-03-08T10:39:01.000Z</time></trkpt>
<trkpt lat="42.095767" lon="23.575156"><ele>2511.4</ele><time>2026-03-08T10:39:02.000Z</time></trkpt>
<trkpt lat="42.095767" lon="23.575156"><ele>2511.4</ele><time>2026-03-08T10:39:03.000Z</time></trkpt>
<trkpt lat="42.095767" lon="23.575156"><ele>2511.4</ele><time>2026-03-08T10:39:04.000Z</time></trkpt>
<trkpt lat="42.095767" lon="23.575156"><ele>2511.4</ele><time>2026-03-08T10:39:05.000Z</time></trkpt>
<trkpt lat="42.095767" lon="23.575155"><ele>2511.4</ele><time>2026-03-08T10:39:06.000Z</time></trkpt>
<trkpt lat="42.095767" lon="23.575154"><ele>2511.7</ele><time>2026-03-08T10:39:07.000Z</time></trkpt>
<trkpt lat="42.095767" lon="23.575153"><ele>2511.7</ele><time>2026-03-08T10:39:08.000Z</time></trkpt>
<trkpt lat="42.095767" lon="23.575153"><ele>2511.7</ele><time>2026-03-08T10:39:09.000Z</time></trkpt>
<trkpt lat="42.095768" lon="23.575152"><ele>2511.7</ele><time>2026-03-08T10:39:10.000Z</time></trkpt>
<trkpt lat="42.095768" lon="23.575152"><ele>2511.7</ele><time>2026-03-08T10:39:11.000Z</time></trkpt>
<trkpt lat="42.095769" lon="23.575152"><ele>2511.9</ele><time>2026-03-08T10:39:12.000Z</time></trkpt>
<trkpt lat="42.09577" lon="23.575153"><ele>2511.9</ele><time>2026-03-08T10:39:13.000Z</time></trkpt>
<trkpt lat="42.095771" lon="23.575154"><ele>2511.9</ele><time>2026-03-08T10:39:14.000Z</time></trkpt>
<trkpt lat="42.095772" lon="23.575156"><ele>2511.9</ele><time>2026-03-08T10:39:15.000Z</time></trkpt>
<trkpt lat="42.095773" lon="23.575157"><ele>2511.9</ele><time>2026-03-08T10:39:16.000Z</time></trkpt>
<trkpt lat="42.095773" lon="23.575157"><ele>2512.2</ele><time>2026-03-08T10:39:17.000Z</time></trkpt>
<trkpt lat="42.095773" lon="23.575157"><ele>2512.2</ele><time>2026-03-08T10:39:18.000Z</time></trkpt>
<trkpt lat="42.095772" lon="23.575156"><ele>2512.2</ele><time>2026-03-08T10:39:19.000Z</time></trkpt>
<trkpt lat="42.095772" lon="23.575155"><ele>2512.2</ele><time>2026-03-08T10:39:20.000Z</time></trkpt>
<trkpt lat="42.095772" lon="23.575154"><ele>2512.2</ele><time>2026-03-08T10:39:21.000Z</time></trkpt>
<trkpt lat="42.095772" lon="23.575153"><ele>2512.3</ele><time>2026-03-08T10:39:22.000Z</time></trkpt>
<trkpt lat="42.095772" lon="23.575152"><ele>2512.3</ele><time>2026-03-08T10:39:23.000Z</time></trkpt>
<trkpt lat="42.095772" lon="23.575151"><ele>2512.3</ele><time>2026-03-08T10:39:24.000Z</time></trkpt>
<trkpt lat="42.095773" lon="23.57515"><ele>2512.3</ele><time>2026-03-08T10:39:25.000Z</time></trkpt>
<trkpt lat="42.095774" lon="23.57515"><ele>2512.3</ele><time>2026-03-08T10:39:26.000Z</time></trkpt>
<trkpt lat="42.095775" lon="23.57515"><ele>2512.5</ele><time>2026-03-08T10:39:27.000Z</time></trkpt>
<trkpt lat="42.095777" lon="23.575152"><ele>2512.5</ele><time>2026-03-08T10:39:28.000Z</time></trkpt>
<trkpt lat="42.095778" lon="23.575153"><ele>2512.5</ele><time>2026-03-08T10:39:29.000Z</time></trkpt>
<trkpt lat="42.095778" lon="23.575154"><ele>2512.5</ele><time>2026-03-08T10:39:30.000Z</time></trkpt>
<trkpt lat="42.095779" lon="23.575156"><ele>2512.5</ele><time>2026-03-08T10:39:31.000Z</time></trkpt>
<trkpt lat="42.095779" lon="23.575156"><ele>2512.8</ele><time>2026-03-08T10:39:32.000Z</time></trkpt>
<trkpt lat="42.095779" lon="23.575156"><ele>2512.8</ele><time>2026-03-08T10:39:33.000Z</time></trkpt>
<trkpt lat="42.09578" lon="23.575157"><ele>2512.8</ele><time>2026-03-08T10:39:34.000Z</time></trkpt>
<trkpt lat="42.095782" lon="23.575157"><ele>2512.8</ele><time>2026-03-08T10:39:35.000Z</time></trkpt>
<trkpt lat="42.095783" lon="23.575157"><ele>2512.8</ele><time>2026-03-08T10:39:36.000Z</time></trkpt>
<trkpt lat="42.095785" lon="23.575158"><ele>2513.2</ele><time>2026-03-08T10:39:37.000Z</time></trkpt>
<trkpt lat="42.095786" lon="23.575159"><ele>2513.2</ele><time>2026-03-08T10:39:38.000Z</time></trkpt>
<trkpt lat="42.095786" lon="23.575158"><ele>2513.2</ele><time>2026-03-08T10:39:39.000Z</time></trkpt>
<trkpt lat="42.095786" lon="23.575158"><ele>2513.2</ele><time>2026-03-08T10:39:40.000Z</time></trkpt>
<trkpt lat="42.095787" lon="23.575157"><ele>2513.2</ele><time>2026-03-08T10:39:41.000Z</time></trkpt>
<trkpt lat="42.095788" lon="23.575157"><ele>2513.4</ele><time>2026-03-08T10:39:42.000Z</time></trkpt>
<trkpt lat="42.095788" lon="23.575156"><ele>2513.4</ele><time>2026-03-08T10:39:43.000Z</time></trkpt>
<trkpt lat="42.095789" lon="23.575156"><ele>2513.4</ele><time>2026-03-08T10:39:44.000Z</time></trkpt>
<trkpt lat="42.09579" lon="23.575156"><ele>2513.4</ele><time>2026-03-08T10:39:45.000Z</time></trkpt>
<trkpt lat="42.09579" lon="23.575156"><ele>2513.4</ele><time>2026-03-08T10:39:46.000Z</time></trkpt>
<trkpt lat="42.095791" lon="23.575156"><ele>2513.8</ele><time>2026-03-08T10:39:47.000Z</time></trkpt>
<trkpt lat="42.095792" lon="23.575155"><ele>2513.8</ele><time>2026-03-08T10:39:48.000Z</time></trkpt>
<trkpt lat="42.095792" lon="23.575155"><ele>2513.8</ele><time>2026-03-08T10:39:49.000Z</time></trkpt>
<trkpt lat="42.095792" lon="23.575154"><ele>2513.8</ele><time>2026-03-08T10:39:50.000Z</time></trkpt>
<trkpt lat="42.095793" lon="23.575153"><ele>2513.8</ele><time>2026-03-08T10:39:51.000Z</time></trkpt>
<trkpt lat="42.095793" lon="23.575151"><ele>2514</ele><time>2026-03-08T10:39:52.000Z</time></trkpt>
<trkpt lat="42.095793" lon="23.575149"><ele>2514</ele><time>2026-03-08T10:39:53.000Z</time></trkpt>
<trkpt lat="42.095794" lon="23.575147"><ele>2514</ele><time>2026-03-08T10:39:54.000Z</time></trkpt>
<trkpt lat="42.095795" lon="23.575145"><ele>2514</ele><time>2026-03-08T10:39:55.000Z</time></trkpt>
<trkpt lat="42.095796" lon="23.575145"><ele>2514</ele><time>2026-03-08T10:39:56.000Z</time></trkpt>
<trkpt lat="42.095797" lon="23.575145"><ele>2514.1</ele><time>2026-03-08T10:39:57.000Z</time></trkpt>
<trkpt lat="42.095799" lon="23.575146"><ele>2514.1</ele><time>2026-03-08T10:39:58.000Z</time></trkpt>
<trkpt lat="42.0958" lon="23.575147"><ele>2514.1</ele><time>2026-03-08T10:39:59.000Z</time></trkpt>
<trkpt lat="42.095802" lon="23.575149"><ele>2514.1</ele><time>2026-03-08T10:40:00.000Z</time></trkpt>
<trkpt lat="42.095803" lon="23.575151"><ele>2514.1</ele><time>2026-03-08T10:40:01.000Z</time></trkpt>
<trkpt lat="42.095805" lon="23.575153"><ele>2514.3</ele><time>2026-03-08T10:40:02.000Z</time></trkpt>
<trkpt lat="42.095806" lon="23.575154"><ele>2514.3</ele><time>2026-03-08T10:40:03.000Z</time></trkpt>
<trkpt lat="42.095807" lon="23.575155"><ele>2514.3</ele><time>2026-03-08T10:40:04.000Z</time></trkpt>
<trkpt lat="42.095808" lon="23.575155"><ele>2514.3</ele><time>2026-03-08T10:40:05.000Z</time></trkpt>
<trkpt lat="42.095808" lon="23.575155"><ele>2514.3</ele><time>2026-03-08T10:40:06.000Z</time></trkpt>
<trkpt lat="42.095808" lon="23.575155"><ele>2514.7</ele><time>2026-03-08T10:40:07.000Z</time></trkpt>
<trkpt lat="42.095808" lon="23.575155"><ele>2514.7</ele><time>2026-03-08T10:40:08.000Z</time></trkpt>
<trkpt lat="42.095809" lon="23.575156"><ele>2514.7</ele><time>2026-03-08T10:40:09.000Z</time></trkpt>
<trkpt lat="42.095809" lon="23.575156"><ele>2514.7</ele><time>2026-03-08T10:40:10.000Z</time></trkpt>
<trkpt lat="42.095809" lon="23.575157"><ele>2514.7</ele><time>2026-03-08T10:40:11.000Z</time></trkpt>
<trkpt lat="42.09581" lon="23.575157"><ele>2514.9</ele><time>2026-03-08T10:40:12.000Z</time></trkpt>
<trkpt lat="42.09581" lon="23.575158"><ele>2514.9</ele><time>2026-03-08T10:40:13.000Z</time></trkpt>
<trkpt lat="42.09581" lon="23.575157"><ele>2514.9</ele><time>2026-03-08T10:40:14.000Z</time></trkpt>
<trkpt lat="42.095811" lon="23.575157"><ele>2514.9</ele><time>2026-03-08T10:40:15.000Z</time></trkpt>
<trkpt lat="42.095811" lon="23.575157"><ele>2514.9</ele><time>2026-03-08T10:40:16.000Z</time></trkpt>
<trkpt lat="42.095812" lon="23.575157"><ele>2515.2</ele><time>2026-03-08T10:40:17.000Z</time></trkpt>
<trkpt lat="42.095812" lon="23.575157"><ele>2515.2</ele><time>2026-03-08T10:40:18.000Z</time></trkpt>
<trkpt lat="42.095813" lon="23.575157"><ele>2515.2</ele><time>2026-03-08T10:40:19.000Z</time></trkpt>
<trkpt lat="42.095814" lon="23.575158"><ele>2515.2</ele><time>2026-03-08T10:40:20.000Z</time></trkpt>
<trkpt lat="42.095816" lon="23.575159"><ele>2515.2</ele><time>2026-03-08T10:40:21.000Z</time></trkpt>
<trkpt lat="42.095817" lon="23.575159"><ele>2515.5</ele><time>2026-03-08T10:40:22.000Z</time></trkpt>
<trkpt lat="42.095818" lon="23.57516"><ele>2515.5</ele><time>2026-03-08T10:40:23.000Z</time></trkpt>
<trkpt lat="42.095819" lon="23.575159"><ele>2515.5</ele><time>2026-03-08T10:40:24.000Z</time></trkpt>
<trkpt lat="42.09582" lon="23.575158"><ele>2515.5</ele><time>2026-03-08T10:40:25.000Z</time></trkpt>
<trkpt lat="42.095821" lon="23.575156"><ele>2515.5</ele><time>2026-03-08T10:40:26.000Z</time></trkpt>
<trkpt lat="42.095821" lon="23.575154"><ele>2515.6</ele><time>2026-03-08T10:40:27.000Z</time></trkpt>
<trkpt lat="42.095821" lon="23.575152"><ele>2515.6</ele><time>2026-03-08T10:40:28.000Z</time></trkpt>
<trkpt lat="42.095821" lon="23.575151"><ele>2515.6</ele><time>2026-03-08T10:40:29.000Z</time></trkpt>
<trkpt lat="42.095822" lon="23.575151"><ele>2515.6</ele><time>2026-03-08T10:40:30.000Z</time></trkpt>
<trkpt lat="42.095822" lon="23.575151"><ele>2515.6</ele><time>2026-03-08T10:40:31.000Z</time></trkpt>
<trkpt lat="42.095823" lon="23.575151"><ele>2515.9</ele><time>2026-03-08T10:40:32.000Z</time></trkpt>
<trkpt lat="42.095824" lon="23.575151"><ele>2515.9</ele><time>2026-03-08T10:40:33.000Z</time></trkpt>
<trkpt lat="42.095824" lon="23.575151"><ele>2515.9</ele><time>2026-03-08T10:40:34.000Z</time></trkpt>
<trkpt lat="42.095824" lon="23.57515"><ele>2515.9</ele><time>2026-03-08T10:40:35.000Z</time></trkpt>
<trkpt lat="42.095824" lon="23.575149"><ele>2515.9</ele><time>2026-03-08T10:40:36.000Z</time></trkpt>
<trkpt lat="42.095824" lon="23.575148"><ele>2516.1</ele><time>2026-03-08T10:40:37.000Z</time></trkpt>
<trkpt lat="42.095824" lon="23.575147"><ele>2516.1</ele><time>2026-03-08T10:40:38.000Z</time></trkpt>
<trkpt lat="42.095825" lon="23.575147"><ele>2516.1</ele><time>2026-03-08T10:40:39.000Z</time></trkpt>
<trkpt lat="42.095825" lon="23.575147"><ele>2516.1</ele><time>2026-03-08T10:40:40.000Z</time></trkpt>
<trkpt lat="42.095826" lon="23.575147"><ele>2516.1</ele><time>2026-03-08T10:40:41.000Z</time></trkpt>
<trkpt lat="42.095827" lon="23.575147"><ele>2516.1</ele><time>2026-03-08T10:40:42.000Z</time></trkpt>
<trkpt lat="42.095829" lon="23.575148"><ele>2516.1</ele><time>2026-03-08T10:40:43.000Z</time></trkpt>
<trkpt lat="42.09583" lon="23.575149"><ele>2516.1</ele><time>2026-03-08T10:40:44.000Z</time></trkpt>
<trkpt lat="42.095831" lon="23.57515"><ele>2516.1</ele><time>2026-03-08T10:40:45.000Z</time></trkpt>
<trkpt lat="42.095833" lon="23.575151"><ele>2516.1</ele><time>2026-03-08T10:40:46.000Z</time></trkpt>
<trkpt lat="42.095834" lon="23.575153"><ele>2516.4</ele><time>2026-03-08T10:40:47.000Z</time></trkpt>
<trkpt lat="42.095836" lon="23.575153"><ele>2516.4</ele><time>2026-03-08T10:40:48.000Z</time></trkpt>
<trkpt lat="42.095838" lon="23.575153"><ele>2516.4</ele><time>2026-03-08T10:40:49.000Z</time></trkpt>
<trkpt lat="42.095839" lon="23.575152"><ele>2516.4</ele><time>2026-03-08T10:40:50.000Z</time></trkpt>
<trkpt lat="42.095841" lon="23.575151"><ele>2516.4</ele><time>2026-03-08T10:40:51.000Z</time></trkpt>
<trkpt lat="42.095842" lon="23.575151"><ele>2516.8</ele><time>2026-03-08T10:40:52.000Z</time></trkpt>
<trkpt lat="42.095842" lon="23.575152"><ele>2516.8</ele><time>2026-03-08T10:40:53.000Z</time></trkpt>
<trkpt lat="42.095842" lon="23.575153"><ele>2516.8</ele><time>2026-03-08T10:40:54.000Z</time></trkpt>
<trkpt lat="42.095843" lon="23.575154"><ele>2516.8</ele><time>2026-03-08T10:40:55.000Z</time></trkpt>
<trkpt lat="42.095843" lon="23.575155"><ele>2516.8</ele><time>2026-03-08T10:40:56.000Z</time></trkpt>
<trkpt lat="42.095843" lon="23.575155"><ele>2517</ele><time>2026-03-08T10:40:57.000Z</time></trkpt>
<trkpt lat="42.095843" lon="23.575156"><ele>2517</ele><time>2026-03-08T10:40:58.000Z</time></trkpt>
<trkpt lat="42.095843" lon="23.575156"><ele>2517</ele><time>2026-03-08T10:40:59.000Z</time></trkpt>
<trkpt lat="42.095842" lon="23.575155"><ele>2517</ele><time>2026-03-08T10:41:00.000Z</time></trkpt>
<trkpt lat="42.095841" lon="23.575155"><ele>2517</ele><time>2026-03-08T10:41:01.000Z</time></trkpt>
<trkpt lat="42.09584" lon="23.575154"><ele>2517.4</ele><time>2026-03-08T10:41:02.000Z</time></trkpt>
<trkpt lat="42.095839" lon="23.575154"><ele>2517.4</ele><time>2026-03-08T10:41:03.000Z</time></trkpt>
<trkpt lat="42.095838" lon="23.575152"><ele>2517.4</ele><time>2026-03-08T10:41:04.000Z</time></trkpt>
<trkpt lat="42.095837" lon="23.575151"><ele>2517.4</ele><time>2026-03-08T10:41:05.000Z</time></trkpt>
<trkpt lat="42.095837" lon="23.57515"><ele>2517.4</ele><time>2026-03-08T10:41:06.000Z</time></trkpt>
<trkpt lat="42.095837" lon="23.575148"><ele>2517.7</ele><time>2026-03-08T10:41:07.000Z</time></trkpt>
<trkpt lat="42.095837" lon="23.575148"><ele>2517.7</ele><time>2026-03-08T10:41:08.000Z</time></trkpt>
<trkpt lat="42.095836" lon="23.575147"><ele>2517.7</ele><time>2026-03-08T10:41:09.000Z</time></trkpt>
<trkpt lat="42.095835" lon="23.575146"><ele>2517.7</ele><time>2026-03-08T10:41:10.000Z</time></trkpt>
<trkpt lat="42.095834" lon="23.575145"><ele>2517.7</ele><time>2026-03-08T10:41:11.000Z</time></trkpt>
<trkpt lat="42.095833" lon="23.575144"><ele>2517.8</ele><time>2026-03-08T10:41:12.000Z</time></trkpt>
<trkpt lat="42.095834" lon="23.575143"><ele>2517.8</ele><time>2026-03-08T10:41:13.000Z</time></trkpt>
<trkpt lat="42.095835" lon="23.575143"><ele>2517.8</ele><time>2026-03-08T10:41:14.000Z</time></trkpt>
<trkpt lat="42.095837" lon="23.575143"><ele>2517.8</ele><time>2026-03-08T10:41:15.000Z</time></trkpt>
<trkpt lat="42.095838" lon="23.575143"><ele>2517.8</ele><time>2026-03-08T10:41:16.000Z</time></trkpt>
<trkpt lat="42.09584" lon="23.575144"><ele>2517.9</ele><time>2026-03-08T10:41:17.000Z</time></trkpt>
<trkpt lat="42.09584" lon="23.575144"><ele>2517.9</ele><time>2026-03-08T10:41:18.000Z</time></trkpt>
<trkpt lat="42.09584" lon="23.575146"><ele>2517.9</ele><time>2026-03-08T10:41:19.000Z</time></trkpt>
<trkpt lat="42.095841" lon="23.575147"><ele>2517.9</ele><time>2026-03-08T10:41:20.000Z</time></trkpt>
<trkpt lat="42.095841" lon="23.575148"><ele>2517.9</ele><time>2026-03-08T10:41:21.000Z</time></trkpt>
<trkpt lat="42.095841" lon="23.575149"><ele>2518.1</ele><time>2026-03-08T10:41:22.000Z</time></trkpt>
<trkpt lat="42.095841" lon="23.57515"><ele>2518.1</ele><time>2026-03-08T10:41:23.000Z</time></trkpt>
<trkpt lat="42.095842" lon="23.575151"><ele>2518.1</ele><time>2026-03-08T10:41:24.000Z</time></trkpt>
<trkpt lat="42.095842" lon="23.575152"><ele>2518.1</ele><time>2026-03-08T10:41:25.000Z</time></trkpt>
<trkpt lat="42.095842" lon="23.575153"><ele>2518.1</ele><time>2026-03-08T10:41:26.000Z</time></trkpt>
<trkpt lat="42.095843" lon="23.575154"><ele>2518.2</ele><time>2026-03-08T10:41:27.000Z</time></trkpt>
<trkpt lat="42.095843" lon="23.575154"><ele>2518.2</ele><time>2026-03-08T10:41:28.000Z</time></trkpt>
<trkpt lat="42.095844" lon="23.575154"><ele>2518.2</ele><time>2026-03-08T10:41:29.000Z</time></trkpt>
<trkpt lat="42.095845" lon="23.575153"><ele>2518.2</ele><time>2026-03-08T10:41:30.000Z</time></trkpt>
<trkpt lat="42.095846" lon="23.575152"><ele>2518.2</ele><time>2026-03-08T10:41:31.000Z</time></trkpt>
<trkpt lat="42.095846" lon="23.575151"><ele>2518.3</ele><time>2026-03-08T10:41:32.000Z</time></trkpt>
<trkpt lat="42.095847" lon="23.57515"><ele>2518.3</ele><time>2026-03-08T10:41:33.000Z</time></trkpt>
<trkpt lat="42.095847" lon="23.57515"><ele>2518.3</ele><time>2026-03-08T10:41:34.000Z</time></trkpt>
<trkpt lat="42.095847" lon="23.57515"><ele>2518.3</ele><time>2026-03-08T10:41:35.000Z</time></trkpt>
<trkpt lat="42.095847" lon="23.57515"><ele>2518.3</ele><time>2026-03-08T10:41:36.000Z</time></trkpt>
<trkpt lat="42.095847" lon="23.575149"><ele>2518.5</ele><time>2026-03-08T10:41:37.000Z</time></trkpt>
<trkpt lat="42.095848" lon="23.575149"><ele>2518.5</ele><time>2026-03-08T10:41:38.000Z</time></trkpt>
<trkpt lat="42.095848" lon="23.575148"><ele>2518.5</ele><time>2026-03-08T10:41:39.000Z</time></trkpt>
<trkpt lat="42.095848" lon="23.575148"><ele>2518.5</ele><time>2026-03-08T10:41:40.000Z</time></trkpt>
<trkpt lat="42.095849" lon="23.575148"><ele>2518.5</ele><time>2026-03-08T10:41:41.000Z</time></trkpt>
<trkpt lat="42.095849" lon="23.575148"><ele>2518.6</ele><time>2026-03-08T10:41:42.000Z</time></trkpt>
<trkpt lat="42.095848" lon="23.575148"><ele>2518.6</ele><time>2026-03-08T10:41:43.000Z</time></trkpt>
<trkpt lat="42.095848" lon="23.575149"><ele>2518.6</ele><time>2026-03-08T10:41:44.000Z</time></trkpt>
<trkpt lat="42.095847" lon="23.57515"><ele>2518.6</ele><time>2026-03-08T10:41:45.000Z</time></trkpt>
<trkpt lat="42.095847" lon="23.57515"><ele>2518.6</ele><time>2026-03-08T10:41:46.000Z</time></trkpt>
<trkpt lat="42.095846" lon="23.575151"><ele>2518.8</ele><time>2026-03-08T10:41:47.000Z</time></trkpt>
<trkpt lat="42.095845" lon="23.575152"><ele>2518.8</ele><time>2026-03-08T10:41:48.000Z</time></trkpt>
<trkpt lat="42.095845" lon="23.575153"><ele>2518.8</ele><time>2026-03-08T10:41:49.000Z</time></trkpt>
<trkpt lat="42.095845" lon="23.575152"><ele>2518.8</ele><time>2026-03-08T10:41:50.000Z</time></trkpt>
<trkpt lat="42.095845" lon="23.575151"><ele>2518.8</ele><time>2026-03-08T10:41:51.000Z</time></trkpt>
<trkpt lat="42.095844" lon="23.575151"><ele>2519</ele><time>2026-03-08T10:41:52.000Z</time></trkpt>
<trkpt lat="42.095844" lon="23.57515"><ele>2519</ele><time>2026-03-08T10:41:53.000Z</time></trkpt>
<trkpt lat="42.095844" lon="23.575149"><ele>2519</ele><time>2026-03-08T10:41:54.000Z</time></trkpt>
<trkpt lat="42.095845" lon="23.575149"><ele>2519</ele><time>2026-03-08T10:41:55.000Z</time></trkpt>
<trkpt lat="42.095845" lon="23.575148"><ele>2519</ele><time>2026-03-08T10:41:56.000Z</time></trkpt>
<trkpt lat="42.095846" lon="23.575147"><ele>2519.1</ele><time>2026-03-08T10:41:57.000Z</time></trkpt>
<trkpt lat="42.095846" lon="23.575146"><ele>2519.1</ele><time>2026-03-08T10:41:58.000Z</time></trkpt>
<trkpt lat="42.095845" lon="23.575145"><ele>2519.1</ele><time>2026-03-08T10:41:59.000Z</time></trkpt>
<trkpt lat="42.095845" lon="23.575144"><ele>2519.1</ele><time>2026-03-08T10:42:00.000Z</time></trkpt>
<trkpt lat="42.095844" lon="23.575144"><ele>2519.1</ele><time>2026-03-08T10:42:01.000Z</time></trkpt>
<trkpt lat="42.095844" lon="23.575143"><ele>2519.2</ele><time>2026-03-08T10:42:02.000Z</time></trkpt>
<trkpt lat="42.095844" lon="23.575142"><ele>2519.2</ele><time>2026-03-08T10:42:03.000Z</time></trkpt>
<trkpt lat="42.095845" lon="23.575142"><ele>2519.2</ele><time>2026-03-08T10:42:04.000Z</time></trkpt>
<trkpt lat="42.095846" lon="23.575142"><ele>2519.2</ele><time>2026-03-08T10:42:05.000Z</time></trkpt>
<trkpt lat="42.095847" lon="23.575143"><ele>2519.2</ele><time>2026-03-08T10:42:06.000Z</time></trkpt>
<trkpt lat="42.095847" lon="23.575145"><ele>2519.3</ele><time>2026-03-08T10:42:07.000Z</time></trkpt>
<trkpt lat="42.095848" lon="23.575146"><ele>2519.3</ele><time>2026-03-08T10:42:08.000Z</time></trkpt>
<trkpt lat="42.095848" lon="23.575148"><ele>2519.3</ele><time>2026-03-08T10:42:09.000Z</time></trkpt>
<trkpt lat="42.095848" lon="23.575149"><ele>2519.3</ele><time>2026-03-08T10:42:10.000Z</time></trkpt>
<trkpt lat="42.095849" lon="23.575149"><ele>2519.3</ele><time>2026-03-08T10:42:11.000Z</time></trkpt>
<trkpt lat="42.09585" lon="23.575151"><ele>2519.3</ele><time>2026-03-08T10:42:12.000Z</time></trkpt>
<trkpt lat="42.095851" lon="23.575151"><ele>2519.3</ele><time>2026-03-08T10:42:13.000Z</time></trkpt>
<trkpt lat="42.095852" lon="23.575153"><ele>2519.3</ele><time>2026-03-08T10:42:14.000Z</time></trkpt>
<trkpt lat="42.095853" lon="23.575153"><ele>2519.3</ele><time>2026-03-08T10:42:15.000Z</time></trkpt>
<trkpt lat="42.095854" lon="23.575154"><ele>2519.3</ele><time>2026-03-08T10:42:16.000Z</time></trkpt>
<trkpt lat="42.095854" lon="23.575154"><ele>2519.4</ele><time>2026-03-08T10:42:17.000Z</time></trkpt>
<trkpt lat="42.095854" lon="23.575154"><ele>2519.4</ele><time>2026-03-08T10:42:18.000Z</time></trkpt>
<trkpt lat="42.095854" lon="23.575154"><ele>2519.4</ele><time>2026-03-08T10:42:19.000Z</time></trkpt>
<trkpt lat="42.095854" lon="23.575155"><ele>2519.4</ele><time>2026-03-08T10:42:20.000Z</time></trkpt>
<trkpt lat="42.095855" lon="23.575156"><ele>2519.4</ele><time>2026-03-08T10:42:21.000Z</time></trkpt>
<trkpt lat="42.095856" lon="23.575156"><ele>2519.4</ele><time>2026-03-08T10:42:22.000Z</time></trkpt>
<trkpt lat="42.095857" lon="23.575157"><ele>2519.4</ele><time>2026-03-08T10:42:23.000Z</time></trkpt>
<trkpt lat="42.095859" lon="23.575157"><ele>2519.4</ele><time>2026-03-08T10:42:24.000Z</time></trkpt>
<trkpt lat="42.095859" lon="23.575157"><ele>2519.4</ele><time>2026-03-08T10:42:25.000Z</time></trkpt>
<trkpt lat="42.09586" lon="23.575157"><ele>2519.4</ele><time>2026-03-08T10:42:26.000Z</time></trkpt>
<trkpt lat="42.09586" lon="23.575157"><ele>2519.5</ele><time>2026-03-08T10:42:27.000Z</time></trkpt>
<trkpt lat="42.09586" lon="23.575156"><ele>2519.5</ele><time>2026-03-08T10:42:28.000Z</time></trkpt>
<trkpt lat="42.09586" lon="23.575156"><ele>2519.5</ele><time>2026-03-08T10:42:29.000Z</time></trkpt>
<trkpt lat="42.09586" lon="23.575156"><ele>2519.5</ele><time>2026-03-08T10:42:30.000Z</time></trkpt>
<trkpt lat="42.095861" lon="23.575155"><ele>2519.5</ele><time>2026-03-08T10:42:31.000Z</time></trkpt>
<trkpt lat="42.095861" lon="23.575155"><ele>2519.7</ele><time>2026-03-08T10:42:32.000Z</time></trkpt>
<trkpt lat="42.095861" lon="23.575154"><ele>2519.7</ele><time>2026-03-08T10:42:33.000Z</time></trkpt>
<trkpt lat="42.095862" lon="23.575153"><ele>2519.7</ele><time>2026-03-08T10:42:34.000Z</time></trkpt>
<trkpt lat="42.095862" lon="23.575154"><ele>2519.7</ele><time>2026-03-08T10:42:35.000Z</time></trkpt>
<trkpt lat="42.095863" lon="23.575155"><ele>2519.7</ele><time>2026-03-08T10:42:36.000Z</time></trkpt>
<trkpt lat="42.095862" lon="23.575156"><ele>2520.1</ele><time>2026-03-08T10:42:37.000Z</time></trkpt>
<trkpt lat="42.095862" lon="23.575157"><ele>2520.1</ele><time>2026-03-08T10:42:38.000Z</time></trkpt>
<trkpt lat="42.095861" lon="23.575158"><ele>2520.1</ele><time>2026-03-08T10:42:39.000Z</time></trkpt>
<trkpt lat="42.09586" lon="23.575158"><ele>2520.1</ele><time>2026-03-08T10:42:40.000Z</time></trkpt>
<trkpt lat="42.095859" lon="23.575158"><ele>2520.1</ele><time>2026-03-08T10:42:41.000Z</time></trkpt>
<trkpt lat="42.095859" lon="23.575157"><ele>2520.3</ele><time>2026-03-08T10:42:42.000Z</time></trkpt>
<trkpt lat="42.095859" lon="23.575157"><ele>2520.3</ele><time>2026-03-08T10:42:43.000Z</time></trkpt>
<trkpt lat="42.09586" lon="23.575157"><ele>2520.3</ele><time>2026-03-08T10:42:44.000Z</time></trkpt>
<trkpt lat="42.095862" lon="23.575157"><ele>2520.3</ele><time>2026-03-08T10:42:45.000Z</time></trkpt>
<trkpt lat="42.095864" lon="23.575158"><ele>2520.3</ele><time>2026-03-08T10:42:46.000Z</time></trkpt>
<trkpt lat="42.095865" lon="23.575158"><ele>2520.6</ele><time>2026-03-08T10:42:47.000Z</time></trkpt>
<trkpt lat="42.095867" lon="23.57516"><ele>2520.6</ele><time>2026-03-08T10:42:48.000Z</time></trkpt>
<trkpt lat="42.095867" lon="23.575161"><ele>2520.6</ele><time>2026-03-08T10:42:49.000Z</time></trkpt>
<trkpt lat="42.095867" lon="23.575162"><ele>2520.6</ele><time>2026-03-08T10:42:50.000Z</time></trkpt>
<trkpt lat="42.095867" lon="23.575164"><ele>2520.6</ele><time>2026-03-08T10:42:51.000Z</time></trkpt>
<trkpt lat="42.095867" lon="23.575166"><ele>2520.6</ele><time>2026-03-08T10:42:52.000Z</time></trkpt>
<trkpt lat="42.095868" lon="23.575167"><ele>2520.6</ele><time>2026-03-08T10:42:53.000Z</time></trkpt>
<trkpt lat="42.095868" lon="23.575168"><ele>2520.6</ele><time>2026-03-08T10:42:54.000Z</time></trkpt>
<trkpt lat="42.095868" lon="23.575169"><ele>2520.6</ele><time>2026-03-08T10:42:55.000Z</time></trkpt>
<trkpt lat="42.095868" lon="23.57517"><ele>2520.6</ele><time>2026-03-08T10:42:56.000Z</time></trkpt>
<trkpt lat="42.095868" lon="23.57517"><ele>2520.6</ele><time>2026-03-08T10:42:57.000Z</time></trkpt>
<trkpt lat="42.095868" lon="23.57517"><ele>2520.6</ele><time>2026-03-08T10:42:58.000Z</time></trkpt>
<trkpt lat="42.095868" lon="23.575169"><ele>2520.6</ele><time>2026-03-08T10:42:59.000Z</time></trkpt>
<trkpt lat="42.095869" lon="23.575169"><ele>2520.6</ele><time>2026-03-08T10:43:00.000Z</time></trkpt>
<trkpt lat="42.095869" lon="23.575168"><ele>2520.6</ele><time>2026-03-08T10:43:01.000Z</time></trkpt>
<trkpt lat="42.095869" lon="23.575168"><ele>2520.7</ele><time>2026-03-08T10:43:02.000Z</time></trkpt>
<trkpt lat="42.095869" lon="23.575168"><ele>2520.7</ele><time>2026-03-08T10:43:03.000Z</time></trkpt>
<trkpt lat="42.095869" lon="23.575168"><ele>2520.7</ele><time>2026-03-08T10:43:04.000Z</time></trkpt>
<trkpt lat="42.095869" lon="23.575169"><ele>2520.7</ele><time>2026-03-08T10:43:05.000Z</time></trkpt>
<trkpt lat="42.095869" lon="23.575169"><ele>2520.7</ele><time>2026-03-08T10:43:06.000Z</time></trkpt>
<trkpt lat="42.095869" lon="23.575169"><ele>2520.9</ele><time>2026-03-08T10:43:07.000Z</time></trkpt>
<trkpt lat="42.095869" lon="23.575169"><ele>2520.9</ele><time>2026-03-08T10:43:08.000Z</time></trkpt>
<trkpt lat="42.095868" lon="23.575169"><ele>2520.9</ele><time>2026-03-08T10:43:09.000Z</time></trkpt>
<trkpt lat="42.095868" lon="23.575168"><ele>2520.9</ele><time>2026-03-08T10:43:10.000Z</time></trkpt>
<trkpt lat="42.095868" lon="23.575167"><ele>2520.9</ele><time>2026-03-08T10:43:11.000Z</time></trkpt>
<trkpt lat="42.095868" lon="23.575166"><ele>2521.1</ele><time>2026-03-08T10:43:12.000Z</time></trkpt>
<trkpt lat="42.095867" lon="23.575165"><ele>2521.1</ele><time>2026-03-08T10:43:13.000Z</time></trkpt>
<trkpt lat="42.095867" lon="23.575164"><ele>2521.1</ele><time>2026-03-08T10:43:14.000Z</time></trkpt>
<trkpt lat="42.095866" lon="23.575164"><ele>2521.1</ele><time>2026-03-08T10:43:15.000Z</time></trkpt>
<trkpt lat="42.095866" lon="23.575164"><ele>2521.1</ele><time>2026-03-08T10:43:16.000Z</time></trkpt>
<trkpt lat="42.095865" lon="23.575163"><ele>2521.6</ele><time>2026-03-08T10:43:17.000Z</time></trkpt>
<trkpt lat="42.095865" lon="23.575163"><ele>2521.6</ele><time>2026-03-08T10:43:18.000Z</time></trkpt>
<trkpt lat="42.095866" lon="23.575164"><ele>2521.6</ele><time>2026-03-08T10:43:19.000Z</time></trkpt>
<trkpt lat="42.095868" lon="23.575164"><ele>2521.6</ele><time>2026-03-08T10:43:20.000Z</time></trkpt>
<trkpt lat="42.09587" lon="23.575164"><ele>2521.6</ele><time>2026-03-08T10:43:21.000Z</time></trkpt>
<trkpt lat="42.095872" lon="23.575164"><ele>2522.1</ele><time>2026-03-08T10:43:22.000Z</time></trkpt>
<trkpt lat="42.095874" lon="23.575164"><ele>2522.1</ele><time>2026-03-08T10:43:23.000Z</time></trkpt>
<trkpt lat="42.095875" lon="23.575163"><ele>2522.1</ele><time>2026-03-08T10:43:24.000Z</time></trkpt>
<trkpt lat="42.095875" lon="23.575163"><ele>2522.1</ele><time>2026-03-08T10:43:25.000Z</time></trkpt>
<trkpt lat="42.095875" lon="23.575163"><ele>2522.1</ele><time>2026-03-08T10:43:26.000Z</time></trkpt>
<trkpt lat="42.095875" lon="23.575163"><ele>2522.2</ele><time>2026-03-08T10:43:27.000Z</time></trkpt>
<trkpt lat="42.095875" lon="23.575163"><ele>2522.2</ele><time>2026-03-08T10:43:28.000Z</time></trkpt>
<trkpt lat="42.095876" lon="23.575163"><ele>2522.2</ele><time>2026-03-08T10:43:29.000Z</time></trkpt>
<trkpt lat="42.095877" lon="23.575164"><ele>2522.2</ele><time>2026-03-08T10:43:30.000Z</time></trkpt>
<trkpt lat="42.095877" lon="23.575166"><ele>2522.2</ele><time>2026-03-08T10:43:31.000Z</time></trkpt>
<trkpt lat="42.095877" lon="23.575168"><ele>2522.4</ele><time>2026-03-08T10:43:32.000Z</time></trkpt>
<trkpt lat="42.095876" lon="23.57517"><ele>2522.4</ele><time>2026-03-08T10:43:33.000Z</time></trkpt>
<trkpt lat="42.095876" lon="23.57517"><ele>2522.4</ele><time>2026-03-08T10:43:34.000Z</time></trkpt>
<trkpt lat="42.095875" lon="23.575171"><ele>2522.4</ele><time>2026-03-08T10:43:35.000Z</time></trkpt>
<trkpt lat="42.095875" lon="23.575169"><ele>2522.4</ele><time>2026-03-08T10:43:36.000Z</time></trkpt>
<trkpt lat="42.095875" lon="23.575168"><ele>2522.5</ele><time>2026-03-08T10:43:37.000Z</time></trkpt>
<trkpt lat="42.095875" lon="23.575167"><ele>2522.5</ele><time>2026-03-08T10:43:38.000Z</time></trkpt>
<trkpt lat="42.095875" lon="23.575165"><ele>2522.5</ele><time>2026-03-08T10:43:39.000Z</time></trkpt>
<trkpt lat="42.095876" lon="23.575164"><ele>2522.5</ele><time>2026-03-08T10:43:40.000Z</time></trkpt>
<trkpt lat="42.095877" lon="23.575162"><ele>2522.5</ele><time>2026-03-08T10:43:41.000Z</time></trkpt>
<trkpt lat="42.095878" lon="23.57516"><ele>2522.6</ele><time>2026-03-08T10:43:42.000Z</time></trkpt>
<trkpt lat="42.095879" lon="23.575158"><ele>2522.6</ele><time>2026-03-08T10:43:43.000Z</time></trkpt>
<trkpt lat="42.095879" lon="23.575156"><ele>2522.6</ele><time>2026-03-08T10:43:44.000Z</time></trkpt>
<trkpt lat="42.095878" lon="23.575155"><ele>2522.6</ele><time>2026-03-08T10:43:45.000Z</time></trkpt>
<trkpt lat="42.095878" lon="23.575155"><ele>2522.6</ele><time>2026-03-08T10:43:46.000Z</time></trkpt>
<trkpt lat="42.095878" lon="23.575155"><ele>2522.6</ele><time>2026-03-08T10:43:47.000Z</time></trkpt>
<trkpt lat="42.095878" lon="23.575156"><ele>2522.6</ele><time>2026-03-08T10:43:48.000Z</time></trkpt>
<trkpt lat="42.095879" lon="23.575156"><ele>2522.6</ele><time>2026-03-08T10:43:49.000Z</time></trkpt>
<trkpt lat="42.095879" lon="23.575155"><ele>2522.6</ele><time>2026-03-08T10:43:50.000Z</time></trkpt>
<trkpt lat="42.09588" lon="23.575156"><ele>2522.6</ele><time>2026-03-08T10:43:51.000Z</time></trkpt>
<trkpt lat="42.09588" lon="23.575156"><ele>2522.7</ele><time>2026-03-08T10:43:52.000Z</time></trkpt>
<trkpt lat="42.095882" lon="23.575156"><ele>2522.7</ele><time>2026-03-08T10:43:53.000Z</time></trkpt>
<trkpt lat="42.095882" lon="23.575156"><ele>2522.7</ele><time>2026-03-08T10:43:54.000Z</time></trkpt>
<trkpt lat="42.095883" lon="23.575156"><ele>2522.7</ele><time>2026-03-08T10:43:55.000Z</time></trkpt>
<trkpt lat="42.095884" lon="23.575155"><ele>2522.7</ele><time>2026-03-08T10:43:56.000Z</time></trkpt>
<trkpt lat="42.095885" lon="23.575154"><ele>2522.9</ele><time>2026-03-08T10:43:57.000Z</time></trkpt>
<trkpt lat="42.095886" lon="23.575153"><ele>2522.9</ele><time>2026-03-08T10:43:58.000Z</time></trkpt>
<trkpt lat="42.095886" lon="23.575151"><ele>2522.9</ele><time>2026-03-08T10:43:59.000Z</time></trkpt>
<trkpt lat="42.095886" lon="23.575151"><ele>2522.9</ele><time>2026-03-08T10:44:00.000Z</time></trkpt>
<trkpt lat="42.095886" lon="23.57515"><ele>2522.9</ele><time>2026-03-08T10:44:01.000Z</time></trkpt>
<trkpt lat="42.095886" lon="23.575149"><ele>2523.4</ele><time>2026-03-08T10:44:02.000Z</time></trkpt>
<trkpt lat="42.095887" lon="23.575149"><ele>2523.4</ele><time>2026-03-08T10:44:03.000Z</time></trkpt>
<trkpt lat="42.095887" lon="23.575149"><ele>2523.4</ele><time>2026-03-08T10:44:04.000Z</time></trkpt>
<trkpt lat="42.095887" lon="23.575148"><ele>2523.4</ele><time>2026-03-08T10:44:05.000Z</time></trkpt>
<trkpt lat="42.095888" lon="23.575147"><ele>2523.4</ele><time>2026-03-08T10:44:06.000Z</time></trkpt>
<trkpt lat="42.095889" lon="23.575147"><ele>2523.6</ele><time>2026-03-08T10:44:07.000Z</time></trkpt>
<trkpt lat="42.095889" lon="23.575146"><ele>2523.6</ele><time>2026-03-08T10:44:08.000Z</time></trkpt>
<trkpt lat="42.095889" lon="23.575146"><ele>2523.6</ele><time>2026-03-08T10:44:09.000Z</time></trkpt>
<trkpt lat="42.09589" lon="23.575147"><ele>2523.6</ele><time>2026-03-08T10:44:10.000Z</time></trkpt>
<trkpt lat="42.09589" lon="23.575148"><ele>2523.6</ele><time>2026-03-08T10:44:11.000Z</time></trkpt>
<trkpt lat="42.095891" lon="23.575148"><ele>2523.7</ele><time>2026-03-08T10:44:12.000Z</time></trkpt>
<trkpt lat="42.095892" lon="23.575148"><ele>2523.7</ele><time>2026-03-08T10:44:13.000Z</time></trkpt>
<trkpt lat="42.095893" lon="23.575148"><ele>2523.7</ele><time>2026-03-08T10:44:14.000Z</time></trkpt>
<trkpt lat="42.095894" lon="23.575148"><ele>2523.7</ele><time>2026-03-08T10:44:15.000Z</time></trkpt>
<trkpt lat="42.095895" lon="23.575148"><ele>2523.7</ele><time>2026-03-08T10:44:16.000Z</time></trkpt>
<trkpt lat="42.095896" lon="23.575148"><ele>2523.8</ele><time>2026-03-08T10:44:17.000Z</time></trkpt>
<trkpt lat="42.095897" lon="23.575148"><ele>2523.8</ele><time>2026-03-08T10:44:18.000Z</time></trkpt>
<trkpt lat="42.095898" lon="23.575148"><ele>2523.8</ele><time>2026-03-08T10:44:19.000Z</time></trkpt>
<trkpt lat="42.095898" lon="23.575148"><ele>2523.8</ele><time>2026-03-08T10:44:20.000Z</time></trkpt>
<trkpt lat="42.095898" lon="23.575148"><ele>2523.8</ele><time>2026-03-08T10:44:21.000Z</time></trkpt>
<trkpt lat="42.095899" lon="23.575147"><ele>2524.3</ele><time>2026-03-08T10:44:22.000Z</time></trkpt>
<trkpt lat="42.0959" lon="23.575146"><ele>2524.3</ele><time>2026-03-08T10:44:23.000Z</time></trkpt>
<trkpt lat="42.095903" lon="23.575144"><ele>2524.3</ele><time>2026-03-08T10:44:24.000Z</time></trkpt>
<trkpt lat="42.095906" lon="23.575143"><ele>2524.3</ele><time>2026-03-08T10:44:25.000Z</time></trkpt>
<trkpt lat="42.095908" lon="23.575142"><ele>2524.3</ele><time>2026-03-08T10:44:26.000Z</time></trkpt>
<trkpt lat="42.09591" lon="23.575142"><ele>2524.7</ele><time>2026-03-08T10:44:27.000Z</time></trkpt>
<trkpt lat="42.095911" lon="23.575143"><ele>2524.7</ele><time>2026-03-08T10:44:28.000Z</time></trkpt>
<trkpt lat="42.095912" lon="23.575144"><ele>2524.7</ele><time>2026-03-08T10:44:29.000Z</time></trkpt>
<trkpt lat="42.095913" lon="23.575145"><ele>2524.7</ele><time>2026-03-08T10:44:30.000Z</time></trkpt>
<trkpt lat="42.095914" lon="23.575145"><ele>2524.7</ele><time>2026-03-08T10:44:31.000Z</time></trkpt>
<trkpt lat="42.095915" lon="23.575145"><ele>2525.3</ele><time>2026-03-08T10:44:32.000Z</time></trkpt>
<trkpt lat="42.095915" lon="23.575145"><ele>2525.3</ele><time>2026-03-08T10:44:33.000Z</time></trkpt>
<trkpt lat="42.095915" lon="23.575145"><ele>2525.3</ele><time>2026-03-08T10:44:34.000Z</time></trkpt>
<trkpt lat="42.095916" lon="23.575147"><ele>2525.3</ele><time>2026-03-08T10:44:35.000Z</time></trkpt>
<trkpt lat="42.095917" lon="23.575148"><ele>2525.3</ele><time>2026-03-08T10:44:36.000Z</time></trkpt>
<trkpt lat="42.095917" lon="23.575149"><ele>2525.7</ele><time>2026-03-08T10:44:37.000Z</time></trkpt>
<trkpt lat="42.095918" lon="23.57515"><ele>2525.7</ele><time>2026-03-08T10:44:38.000Z</time></trkpt>
<trkpt lat="42.095918" lon="23.575151"><ele>2525.7</ele><time>2026-03-08T10:44:39.000Z</time></trkpt>
<trkpt lat="42.095919" lon="23.575151"><ele>2525.7</ele><time>2026-03-08T10:44:40.000Z</time></trkpt>
<trkpt lat="42.095919" lon="23.57515"><ele>2525.7</ele><time>2026-03-08T10:44:41.000Z</time></trkpt>
<trkpt lat="42.09592" lon="23.575149"><ele>2525.9</ele><time>2026-03-08T10:44:42.000Z</time></trkpt>
<trkpt lat="42.09592" lon="23.575147"><ele>2525.9</ele><time>2026-03-08T10:44:43.000Z</time></trkpt>
<trkpt lat="42.095922" lon="23.575146"><ele>2525.9</ele><time>2026-03-08T10:44:44.000Z</time></trkpt>
<trkpt lat="42.095923" lon="23.575146"><ele>2525.9</ele><time>2026-03-08T10:44:45.000Z</time></trkpt>
<trkpt lat="42.095924" lon="23.575146"><ele>2525.9</ele><time>2026-03-08T10:44:46.000Z</time></trkpt>
<trkpt lat="42.095925" lon="23.575147"><ele>2526.3</ele><time>2026-03-08T10:44:47.000Z</time></trkpt>
<trkpt lat="42.095926" lon="23.575147"><ele>2526.3</ele><time>2026-03-08T10:44:48.000Z</time></trkpt>
<trkpt lat="42.095927" lon="23.575146"><ele>2526.3</ele><time>2026-03-08T10:44:49.000Z</time></trkpt>
<trkpt lat="42.095928" lon="23.575144"><ele>2526.3</ele><time>2026-03-08T10:44:50.000Z</time></trkpt>
<trkpt lat="42.095931" lon="23.575143"><ele>2526.3</ele><time>2026-03-08T10:44:51.000Z</time></trkpt>
<trkpt lat="42.095934" lon="23.575141"><ele>2527</ele><time>2026-03-08T10:44:52.000Z</time></trkpt>
<trkpt lat="42.095938" lon="23.57514"><ele>2527</ele><time>2026-03-08T10:44:53.000Z</time></trkpt>
<trkpt lat="42.09594" lon="23.57514"><ele>2527</ele><time>2026-03-08T10:44:54.000Z</time></trkpt>
<trkpt lat="42.095943" lon="23.57514"><ele>2527</ele><time>2026-03-08T10:44:55.000Z</time></trkpt>
<trkpt lat="42.095945" lon="23.575139"><ele>2527</ele><time>2026-03-08T10:44:56.000Z</time></trkpt>
<trkpt lat="42.095947" lon="23.575139"><ele>2527.4</ele><time>2026-03-08T10:44:57.000Z</time></trkpt>
<trkpt lat="42.095948" lon="23.575139"><ele>2527.4</ele><time>2026-03-08T10:44:58.000Z</time></trkpt>
<trkpt lat="42.095951" lon="23.575138"><ele>2527.4</ele><time>2026-03-08T10:44:59.000Z</time></trkpt>
<trkpt lat="42.095953" lon="23.575139"><ele>2527.4</ele><time>2026-03-08T10:45:00.000Z</time></trkpt>
<trkpt lat="42.095955" lon="23.575139"><ele>2527.4</ele><time>2026-03-08T10:45:01.000Z</time></trkpt>
<trkpt lat="42.095956" lon="23.575138"><ele>2528.2</ele><time>2026-03-08T10:45:02.000Z</time></trkpt>
<trkpt lat="42.095958" lon="23.575137"><ele>2528.2</ele><time>2026-03-08T10:45:03.000Z</time></trkpt>
<trkpt lat="42.095959" lon="23.575136"><ele>2528.2</ele><time>2026-03-08T10:45:04.000Z</time></trkpt>
<trkpt lat="42.09596" lon="23.575134"><ele>2528.2</ele><time>2026-03-08T10:45:05.000Z</time></trkpt>
<trkpt lat="42.095962" lon="23.575132"><ele>2528.2</ele><time>2026-03-08T10:45:06.000Z</time></trkpt>
<trkpt lat="42.095963" lon="23.575129"><ele>2529.1</ele><time>2026-03-08T10:45:07.000Z</time></trkpt>
<trkpt lat="42.095964" lon="23.575127"><ele>2529.1</ele><time>2026-03-08T10:45:08.000Z</time></trkpt>
<trkpt lat="42.095966" lon="23.575124"><ele>2529.1</ele><time>2026-03-08T10:45:09.000Z</time></trkpt>
<trkpt lat="42.095968" lon="23.575122"><ele>2529.1</ele><time>2026-03-08T10:45:10.000Z</time></trkpt>
<trkpt lat="42.09597" lon="23.575121"><ele>2529.1</ele><time>2026-03-08T10:45:11.000Z</time></trkpt>
<trkpt lat="42.095972" lon="23.57512"><ele>2529.6</ele><time>2026-03-08T10:45:12.000Z</time></trkpt>
<trkpt lat="42.095974" lon="23.57512"><ele>2529.6</ele><time>2026-03-08T10:45:13.000Z</time></trkpt>
<trkpt lat="42.095977" lon="23.57512"><ele>2529.6</ele><time>2026-03-08T10:45:14.000Z</time></trkpt>
<trkpt lat="42.09598" lon="23.57512"><ele>2529.6</ele><time>2026-03-08T10:45:15.000Z</time></trkpt>
<trkpt lat="42.095981" lon="23.57512"><ele>2529.6</ele><time>2026-03-08T10:45:16.000Z</time></trkpt>
<trkpt lat="42.095981" lon="23.575121"><ele>2530.2</ele><time>2026-03-08T10:45:17.000Z</time></trkpt>
<trkpt lat="42.095981" lon="23.575122"><ele>2530.2</ele><time>2026-03-08T10:45:18.000Z</time></trkpt>
<trkpt lat="42.095981" lon="23.575122"><ele>2530.2</ele><time>2026-03-08T10:45:19.000Z</time></trkpt>
<trkpt lat="42.095981" lon="23.575122"><ele>2530.2</ele><time>2026-03-08T10:45:20.000Z</time></trkpt>
<trkpt lat="42.095982" lon="23.575122"><ele>2530.2</ele><time>2026-03-08T10:45:21.000Z</time></trkpt>
<trkpt lat="42.095984" lon="23.575121"><ele>2530.8</ele><time>2026-03-08T10:45:22.000Z</time></trkpt>
<trkpt lat="42.095986" lon="23.57512"><ele>2530.8</ele><time>2026-03-08T10:45:23.000Z</time></trkpt>
<trkpt lat="42.095989" lon="23.575118"><ele>2530.8</ele><time>2026-03-08T10:45:24.000Z</time></trkpt>
<trkpt lat="42.095992" lon="23.575116"><ele>2530.8</ele><time>2026-03-08T10:45:25.000Z</time></trkpt>
<trkpt lat="42.095996" lon="23.575112"><ele>2530.8</ele><time>2026-03-08T10:45:26.000Z</time></trkpt>
<trkpt lat="42.096" lon="23.575109"><ele>2531</ele><time>2026-03-08T10:45:27.000Z</time></trkpt>
<trkpt lat="42.096005" lon="23.575106"><ele>2531</ele><time>2026-03-08T10:45:28.000Z</time></trkpt>
<trkpt lat="42.09601" lon="23.575103"><ele>2531</ele><time>2026-03-08T10:45:29.000Z</time></trkpt>
<trkpt lat="42.096015" lon="23.575102"><ele>2531</ele><time>2026-03-08T10:45:30.000Z</time></trkpt>
<trkpt lat="42.096016" lon="23.5751"><ele>2531</ele><time>2026-03-08T10:45:31.000Z</time></trkpt>
<trkpt lat="42.096017" lon="23.5751"><ele>2531.7</ele><time>2026-03-08T10:45:32.000Z</time></trkpt>
<trkpt lat="42.096017" lon="23.575098"><ele>2531.7</ele><time>2026-03-08T10:45:33.000Z</time></trkpt>
<trkpt lat="42.096015" lon="23.575097"><ele>2531.7</ele><time>2026-03-08T10:45:34.000Z</time></trkpt>
<trkpt lat="42.096013" lon="23.575095"><ele>2531.7</ele><time>2026-03-08T10:45:35.000Z</time></trkpt>
<trkpt lat="42.096013" lon="23.575093"><ele>2531.7</ele><time>2026-03-08T10:45:36.000Z</time></trkpt>
<trkpt lat="42.096012" lon="23.57509"><ele>2532.6</ele><time>2026-03-08T10:45:37.000Z</time></trkpt>
<trkpt lat="42.096013" lon="23.575088"><ele>2532.6</ele><time>2026-03-08T10:45:38.000Z</time></trkpt>
<trkpt lat="42.096016" lon="23.575087"><ele>2532.6</ele><time>2026-03-08T10:45:39.000Z</time></trkpt>
<trkpt lat="42.096016" lon="23.575086"><ele>2532.6</ele><time>2026-03-08T10:45:40.000Z</time></trkpt>
<trkpt lat="42.096016" lon="23.575085"><ele>2532.6</ele><time>2026-03-08T10:45:41.000Z</time></trkpt>
<trkpt lat="42.096018" lon="23.575081"><ele>2533.1</ele><time>2026-03-08T10:45:42.000Z</time></trkpt>
<trkpt lat="42.09602" lon="23.575078"><ele>2533.1</ele><time>2026-03-08T10:45:43.000Z</time></trkpt>
<trkpt lat="42.096023" lon="23.575074"><ele>2533.1</ele><time>2026-03-08T10:45:44.000Z</time></trkpt>
<trkpt lat="42.096027" lon="23.57507"><ele>2533.1</ele><time>2026-03-08T10:45:45.000Z</time></trkpt>
<trkpt lat="42.09603" lon="23.575067"><ele>2533.1</ele><time>2026-03-08T10:45:46.000Z</time></trkpt>
<trkpt lat="42.096032" lon="23.575067"><ele>2534.3</ele><time>2026-03-08T10:45:47.000Z</time></trkpt>
<trkpt lat="42.096033" lon="23.575067"><ele>2534.3</ele><time>2026-03-08T10:45:48.000Z</time></trkpt>
<trkpt lat="42.096033" lon="23.575066"><ele>2534.3</ele><time>2026-03-08T10:45:49.000Z</time></trkpt>
<trkpt lat="42.096032" lon="23.575065"><ele>2534.3</ele><time>2026-03-08T10:45:50.000Z</time></trkpt>
<trkpt lat="42.096029" lon="23.575063"><ele>2534.3</ele><time>2026-03-08T10:45:51.000Z</time></trkpt>
<trkpt lat="42.096024" lon="23.57506"><ele>2535.1</ele><time>2026-03-08T10:45:52.000Z</time></trkpt>
<trkpt lat="42.096019" lon="23.575057"><ele>2535.1</ele><time>2026-03-08T10:45:53.000Z</time></trkpt>
<trkpt lat="42.096012" lon="23.575055"><ele>2535.1</ele><time>2026-03-08T10:45:54.000Z</time></trkpt>
<trkpt lat="42.096006" lon="23.575052"><ele>2535.1</ele><time>2026-03-08T10:45:55.000Z</time></trkpt>
<trkpt lat="42.096003" lon="23.575051"><ele>2535.1</ele><time>2026-03-08T10:45:56.000Z</time></trkpt>
<trkpt lat="42.096003" lon="23.575053"><ele>2535.3</ele><time>2026-03-08T10:45:57.000Z</time></trkpt>
<trkpt lat="42.096002" lon="23.575054"><ele>2535.3</ele><time>2026-03-08T10:45:58.000Z</time></trkpt>
<trkpt lat="42.096004" lon="23.575056"><ele>2535.3</ele><time>2026-03-08T10:45:59.000Z</time></trkpt>
<trkpt lat="42.096006" lon="23.575058"><ele>2535.3</ele><time>2026-03-08T10:46:00.000Z</time></trkpt>
<trkpt lat="42.096007" lon="23.575058"><ele>2535.3</ele><time>2026-03-08T10:46:01.000Z</time></trkpt>
<trkpt lat="42.096007" lon="23.575057"><ele>2535.2</ele><time>2026-03-08T10:46:02.000Z</time></trkpt>
<trkpt lat="42.096007" lon="23.575056"><ele>2535.2</ele><time>2026-03-08T10:46:03.000Z</time></trkpt>
<trkpt lat="42.096006" lon="23.575054"><ele>2535.2</ele><time>2026-03-08T10:46:04.000Z</time></trkpt>
<trkpt lat="42.096004" lon="23.575051"><ele>2535.2</ele><time>2026-03-08T10:46:05.000Z</time></trkpt>
<trkpt lat="42.096003" lon="23.575049"><ele>2535.2</ele><time>2026-03-08T10:46:06.000Z</time></trkpt>
<trkpt lat="42.096002" lon="23.575046"><ele>2535.3</ele><time>2026-03-08T10:46:07.000Z</time></trkpt>
<trkpt lat="42.096001" lon="23.575044"><ele>2535.3</ele><time>2026-03-08T10:46:08.000Z</time></trkpt>
<trkpt lat="42.096001" lon="23.575042"><ele>2535.3</ele><time>2026-03-08T10:46:09.000Z</time></trkpt>
<trkpt lat="42.096002" lon="23.57504"><ele>2535.3</ele><time>2026-03-08T10:46:10.000Z</time></trkpt>
<trkpt lat="42.096002" lon="23.575038"><ele>2535.3</ele><time>2026-03-08T10:46:11.000Z</time></trkpt>
<trkpt lat="42.096003" lon="23.575036"><ele>2535.5</ele><time>2026-03-08T10:46:12.000Z</time></trkpt>
<trkpt lat="42.096003" lon="23.575033"><ele>2535.5</ele><time>2026-03-08T10:46:13.000Z</time></trkpt>
<trkpt lat="42.096004" lon="23.57503"><ele>2535.5</ele><time>2026-03-08T10:46:14.000Z</time></trkpt>
<trkpt lat="42.096003" lon="23.575028"><ele>2535.5</ele><time>2026-03-08T10:46:15.000Z</time></trkpt>
<trkpt lat="42.096004" lon="23.575028"><ele>2535.5</ele><time>2026-03-08T10:46:16.000Z</time></trkpt>
<trkpt lat="42.096005" lon="23.575029"><ele>2536</ele><time>2026-03-08T10:46:17.000Z</time></trkpt>
<trkpt lat="42.096005" lon="23.575029"><ele>2536</ele><time>2026-03-08T10:46:18.000Z</time></trkpt>
<trkpt lat="42.096005" lon="23.575029"><ele>2536</ele><time>2026-03-08T10:46:19.000Z</time></trkpt>
<trkpt lat="42.096003" lon="23.575028"><ele>2536</ele><time>2026-03-08T10:46:20.000Z</time></trkpt>
<trkpt lat="42.096" lon="23.575025"><ele>2536</ele><time>2026-03-08T10:46:21.000Z</time></trkpt>
<trkpt lat="42.095997" lon="23.57502"><ele>2536.4</ele><time>2026-03-08T10:46:22.000Z</time></trkpt>
<trkpt lat="42.095994" lon="23.575017"><ele>2536.4</ele><time>2026-03-08T10:46:23.000Z</time></trkpt>
<trkpt lat="42.095992" lon="23.575013"><ele>2536.4</ele><time>2026-03-08T10:46:24.000Z</time></trkpt>
<trkpt lat="42.09599" lon="23.57501"><ele>2536.4</ele><time>2026-03-08T10:46:25.000Z</time></trkpt>
<trkpt lat="42.095987" lon="23.575008"><ele>2536.4</ele><time>2026-03-08T10:46:26.000Z</time></trkpt>
<trkpt lat="42.095986" lon="23.575006"><ele>2536.5</ele><time>2026-03-08T10:46:27.000Z</time></trkpt>
<trkpt lat="42.095985" lon="23.575004"><ele>2536.5</ele><time>2026-03-08T10:46:28.000Z</time></trkpt>
<trkpt lat="42.095986" lon="23.575004"><ele>2536.5</ele><time>2026-03-08T10:46:29.000Z</time></trkpt>
<trkpt lat="42.095988" lon="23.575006"><ele>2536.5</ele><time>2026-03-08T10:46:30.000Z</time></trkpt>
<trkpt lat="42.095991" lon="23.575009"><ele>2536.5</ele><time>2026-03-08T10:46:31.000Z</time></trkpt>
<trkpt lat="42.095993" lon="23.575012"><ele>2536.5</ele><time>2026-03-08T10:46:32.000Z</time></trkpt>
<trkpt lat="42.095995" lon="23.575015"><ele>2536.5</ele><time>2026-03-08T10:46:33.000Z</time></trkpt>
<trkpt lat="42.095995" lon="23.575017"><ele>2536.5</ele><time>2026-03-08T10:46:34.000Z</time></trkpt>
<trkpt lat="42.095995" lon="23.575019"><ele>2536.5</ele><time>2026-03-08T10:46:35.000Z</time></trkpt>
<trkpt lat="42.095996" lon="23.575023"><ele>2536.5</ele><time>2026-03-08T10:46:36.000Z</time></trkpt>
<trkpt lat="42.095998" lon="23.575027"><ele>2536.6</ele><time>2026-03-08T10:46:37.000Z</time></trkpt>
<trkpt lat="42.096" lon="23.57503"><ele>2536.6</ele><time>2026-03-08T10:46:38.000Z</time></trkpt>
<trkpt lat="42.096002" lon="23.575034"><ele>2536.6</ele><time>2026-03-08T10:46:39.000Z</time></trkpt>
<trkpt lat="42.096003" lon="23.575036"><ele>2536.6</ele><time>2026-03-08T10:46:40.000Z</time></trkpt>
<trkpt lat="42.096004" lon="23.575036"><ele>2536.6</ele><time>2026-03-08T10:46:41.000Z</time></trkpt>
<trkpt lat="42.096004" lon="23.575036"><ele>2536.8</ele><time>2026-03-08T10:46:42.000Z</time></trkpt>
<trkpt lat="42.096004" lon="23.575036"><ele>2536.8</ele><time>2026-03-08T10:46:43.000Z</time></trkpt>
<trkpt lat="42.096004" lon="23.575036"><ele>2536.8</ele><time>2026-03-08T10:46:44.000Z</time></trkpt>
<trkpt lat="42.096004" lon="23.575036"><ele>2536.8</ele><time>2026-03-08T10:46:45.000Z</time></trkpt>
<trkpt lat="42.096004" lon="23.575036"><ele>2536.8</ele><time>2026-03-08T10:46:46.000Z</time></trkpt>
<trkpt lat="42.096004" lon="23.575036"><ele>2537.3</ele><time>2026-03-08T10:46:47.000Z</time></trkpt>
<trkpt lat="42.096004" lon="23.575036"><ele>2537.3</ele><time>2026-03-08T10:46:48.000Z</time></trkpt>
<trkpt lat="42.096004" lon="23.575036"><ele>2537.3</ele><time>2026-03-08T10:46:49.000Z</time></trkpt>
<trkpt lat="42.096004" lon="23.575036"><ele>2537.3</ele><time>2026-03-08T10:46:50.000Z</time></trkpt>
<trkpt lat="42.096005" lon="23.575036"><ele>2537.3</ele><time>2026-03-08T10:46:51.000Z</time></trkpt>
<trkpt lat="42.096005" lon="23.575036"><ele>2537.8</ele><time>2026-03-08T10:46:52.000Z</time></trkpt>
<trkpt lat="42.096006" lon="23.575036"><ele>2537.8</ele><time>2026-03-08T10:46:53.000Z</time></trkpt>
<trkpt lat="42.096007" lon="23.575037"><ele>2537.8</ele><time>2026-03-08T10:46:54.000Z</time></trkpt>
<trkpt lat="42.096008" lon="23.575038"><ele>2537.8</ele><time>2026-03-08T10:46:55.000Z</time></trkpt>
<trkpt lat="42.096009" lon="23.575039"><ele>2537.8</ele><time>2026-03-08T10:46:56.000Z</time></trkpt>
<trkpt lat="42.096009" lon="23.57504"><ele>2538</ele><time>2026-03-08T10:46:57.000Z</time></trkpt>
<trkpt lat="42.096009" lon="23.575041"><ele>2538</ele><time>2026-03-08T10:46:58.000Z</time></trkpt>
<trkpt lat="42.096009" lon="23.575041"><ele>2538</ele><time>2026-03-08T10:46:59.000Z</time></trkpt>
<trkpt lat="42.096008" lon="23.575041"><ele>2538</ele><time>2026-03-08T10:47:00.000Z</time></trkpt>
<trkpt lat="42.096008" lon="23.575042"><ele>2538</ele><time>2026-03-08T10:47:01.000Z</time></trkpt>
<trkpt lat="42.096009" lon="23.575043"><ele>2538.4</ele><time>2026-03-08T10:47:02.000Z</time></trkpt>
<trkpt lat="42.09601" lon="23.575043"><ele>2538.4</ele><time>2026-03-08T10:47:03.000Z</time></trkpt>
<trkpt lat="42.096011" lon="23.575045"><ele>2538.4</ele><time>2026-03-08T10:47:04.000Z</time></trkpt>
<trkpt lat="42.096012" lon="23.575046"><ele>2538.4</ele><time>2026-03-08T10:47:05.000Z</time></trkpt>
<trkpt lat="42.096013" lon="23.575047"><ele>2538.4</ele><time>2026-03-08T10:47:06.000Z</time></trkpt>
<trkpt lat="42.096014" lon="23.575047"><ele>2538.8</ele><time>2026-03-08T10:47:07.000Z</time></trkpt>
<trkpt lat="42.096015" lon="23.575048"><ele>2538.8</ele><time>2026-03-08T10:47:08.000Z</time></trkpt>
<trkpt lat="42.096016" lon="23.575048"><ele>2538.8</ele><time>2026-03-08T10:47:09.000Z</time></trkpt>
<trkpt lat="42.096017" lon="23.575048"><ele>2538.8</ele><time>2026-03-08T10:47:10.000Z</time></trkpt>
<trkpt lat="42.096018" lon="23.575047"><ele>2538.8</ele><time>2026-03-08T10:47:11.000Z</time></trkpt>
<trkpt lat="42.096018" lon="23.575047"><ele>2538.9</ele><time>2026-03-08T10:47:12.000Z</time></trkpt>
<trkpt lat="42.096018" lon="23.575046"><ele>2538.9</ele><time>2026-03-08T10:47:13.000Z</time></trkpt>
<trkpt lat="42.096016" lon="23.575046"><ele>2538.9</ele><time>2026-03-08T10:47:14.000Z</time></trkpt>
<trkpt lat="42.096014" lon="23.575047"><ele>2538.9</ele><time>2026-03-08T10:47:15.000Z</time></trkpt>
<trkpt lat="42.096013" lon="23.575048"><ele>2538.9</ele><time>2026-03-08T10:47:16.000Z</time></trkpt>
<trkpt lat="42.096012" lon="23.575048"><ele>2539</ele><time>2026-03-08T10:47:17.000Z</time></trkpt>
<trkpt lat="42.096012" lon="23.575049"><ele>2539</ele><time>2026-03-08T10:47:18.000Z</time></trkpt>
<trkpt lat="42.096013" lon="23.57505"><ele>2539</ele><time>2026-03-08T10:47:19.000Z</time></trkpt>
<trkpt lat="42.096014" lon="23.57505"><ele>2539</ele><time>2026-03-08T10:47:20.000Z</time></trkpt>
<trkpt lat="42.096015" lon="23.575051"><ele>2539</ele><time>2026-03-08T10:47:21.000Z</time></trkpt>
<trkpt lat="42.096015" lon="23.575052"><ele>2539</ele><time>2026-03-08T10:47:22.000Z</time></trkpt>
<trkpt lat="42.096016" lon="23.575052"><ele>2539</ele><time>2026-03-08T10:47:23.000Z</time></trkpt>
<trkpt lat="42.096016" lon="23.575052"><ele>2539</ele><time>2026-03-08T10:47:24.000Z</time></trkpt>
<trkpt lat="42.096016" lon="23.575052"><ele>2539</ele><time>2026-03-08T10:47:25.000Z</time></trkpt>
<trkpt lat="42.096016" lon="23.575052"><ele>2539</ele><time>2026-03-08T10:47:26.000Z</time></trkpt>
<trkpt lat="42.096015" lon="23.575052"><ele>2539</ele><time>2026-03-08T10:47:27.000Z</time></trkpt>
<trkpt lat="42.096015" lon="23.575053"><ele>2539</ele><time>2026-03-08T10:47:28.000Z</time></trkpt>
<trkpt lat="42.096015" lon="23.575053"><ele>2539</ele><time>2026-03-08T10:47:29.000Z</time></trkpt>
<trkpt lat="42.096015" lon="23.575053"><ele>2539</ele><time>2026-03-08T10:47:30.000Z</time></trkpt>
<trkpt lat="42.096015" lon="23.575054"><ele>2539</ele><time>2026-03-08T10:47:31.000Z</time></trkpt>
<trkpt lat="42.096015" lon="23.575054"><ele>2538.9</ele><time>2026-03-08T10:47:32.000Z</time></trkpt>
<trkpt lat="42.096016" lon="23.575053"><ele>2538.9</ele><time>2026-03-08T10:47:33.000Z</time></trkpt>
<trkpt lat="42.096017" lon="23.575051"><ele>2538.9</ele><time>2026-03-08T10:47:34.000Z</time></trkpt>
<trkpt lat="42.096018" lon="23.57505"><ele>2538.9</ele><time>2026-03-08T10:47:35.000Z</time></trkpt>
<trkpt lat="42.09602" lon="23.575049"><ele>2538.9</ele><time>2026-03-08T10:47:36.000Z</time></trkpt>
<trkpt lat="42.09602" lon="23.575047"><ele>2538.8</ele><time>2026-03-08T10:47:37.000Z</time></trkpt>
<trkpt lat="42.09602" lon="23.575046"><ele>2538.8</ele><time>2026-03-08T10:47:38.000Z</time></trkpt>
<trkpt lat="42.09602" lon="23.575046"><ele>2538.8</ele><time>2026-03-08T10:47:39.000Z</time></trkpt>
<trkpt lat="42.09602" lon="23.575045"><ele>2538.8</ele><time>2026-03-08T10:47:40.000Z</time></trkpt>
<trkpt lat="42.09602" lon="23.575044"><ele>2538.8</ele><time>2026-03-08T10:47:41.000Z</time></trkpt>
<trkpt lat="42.096021" lon="23.575044"><ele>2538.7</ele><time>2026-03-08T10:47:42.000Z</time></trkpt>
<trkpt lat="42.096022" lon="23.575044"><ele>2538.7</ele><time>2026-03-08T10:47:43.000Z</time></trkpt>
<trkpt lat="42.096023" lon="23.575045"><ele>2538.7</ele><time>2026-03-08T10:47:44.000Z</time></trkpt>
<trkpt lat="42.096023" lon="23.575045"><ele>2538.7</ele><time>2026-03-08T10:47:45.000Z</time></trkpt>
<trkpt lat="42.096023" lon="23.575046"><ele>2538.7</ele><time>2026-03-08T10:47:46.000Z</time></trkpt>
<trkpt lat="42.096023" lon="23.575046"><ele>2538.5</ele><time>2026-03-08T10:47:47.000Z</time></trkpt>
<trkpt lat="42.096023" lon="23.575046"><ele>2538.5</ele><time>2026-03-08T10:47:48.000Z</time></trkpt>
<trkpt lat="42.096023" lon="23.575046"><ele>2538.5</ele><time>2026-03-08T10:47:49.000Z</time></trkpt>
<trkpt lat="42.096023" lon="23.575046"><ele>2538.5</ele><time>2026-03-08T10:47:50.000Z</time></trkpt>
<trkpt lat="42.096023" lon="23.575046"><ele>2538.5</ele><time>2026-03-08T10:47:51.000Z</time></trkpt>
<trkpt lat="42.096025" lon="23.575046"><ele>2538.2</ele><time>2026-03-08T10:47:52.000Z</time></trkpt>
<trkpt lat="42.096028" lon="23.575046"><ele>2538.2</ele><time>2026-03-08T10:47:53.000Z</time></trkpt>
<trkpt lat="42.096031" lon="23.575046"><ele>2538.2</ele><time>2026-03-08T10:47:54.000Z</time></trkpt>
<trkpt lat="42.096035" lon="23.575047"><ele>2538.2</ele><time>2026-03-08T10:47:55.000Z</time></trkpt>
<trkpt lat="42.096039" lon="23.575048"><ele>2538.2</ele><time>2026-03-08T10:47:56.000Z</time></trkpt>
<trkpt lat="42.096041" lon="23.575048"><ele>2538.2</ele><time>2026-03-08T10:47:57.000Z</time></trkpt>
<trkpt lat="42.096043" lon="23.575049"><ele>2538.2</ele><time>2026-03-08T10:47:58.000Z</time></trkpt>
<trkpt lat="42.096044" lon="23.575048"><ele>2538.2</ele><time>2026-03-08T10:47:59.000Z</time></trkpt>
<trkpt lat="42.096044" lon="23.575047"><ele>2538.2</ele><time>2026-03-08T10:48:00.000Z</time></trkpt>
<trkpt lat="42.096045" lon="23.575047"><ele>2538.2</ele><time>2026-03-08T10:48:01.000Z</time></trkpt>
<trkpt lat="42.096045" lon="23.575047"><ele>2538.1</ele><time>2026-03-08T10:48:02.000Z</time></trkpt>
<trkpt lat="42.096045" lon="23.575047"><ele>2538.1</ele><time>2026-03-08T10:48:03.000Z</time></trkpt>
<trkpt lat="42.096045" lon="23.575049"><ele>2538.1</ele><time>2026-03-08T10:48:04.000Z</time></trkpt>
<trkpt lat="42.096045" lon="23.575049"><ele>2538.1</ele><time>2026-03-08T10:48:05.000Z</time></trkpt>
<trkpt lat="42.096045" lon="23.575049"><ele>2538.1</ele><time>2026-03-08T10:48:06.000Z</time></trkpt>
<trkpt lat="42.096045" lon="23.57505"><ele>2538.4</ele><time>2026-03-08T10:48:07.000Z</time></trkpt>
<trkpt lat="42.096046" lon="23.57505"><ele>2538.4</ele><time>2026-03-08T10:48:08.000Z</time></trkpt>
<trkpt lat="42.096047" lon="23.575049"><ele>2538.4</ele><time>2026-03-08T10:48:09.000Z</time></trkpt>
<trkpt lat="42.096049" lon="23.575048"><ele>2538.4</ele><time>2026-03-08T10:48:10.000Z</time></trkpt>
<trkpt lat="42.096051" lon="23.575047"><ele>2538.4</ele><time>2026-03-08T10:48:11.000Z</time></trkpt>
<trkpt lat="42.096055" lon="23.575044"><ele>2538.6</ele><time>2026-03-08T10:48:12.000Z</time></trkpt>
<trkpt lat="42.096058" lon="23.57504"><ele>2538.6</ele><time>2026-03-08T10:48:13.000Z</time></trkpt>
<trkpt lat="42.096061" lon="23.575035"><ele>2538.6</ele><time>2026-03-08T10:48:14.000Z</time></trkpt>
<trkpt lat="42.096066" lon="23.57503"><ele>2538.6</ele><time>2026-03-08T10:48:15.000Z</time></trkpt>
<trkpt lat="42.096069" lon="23.575025"><ele>2538.6</ele><time>2026-03-08T10:48:16.000Z</time></trkpt>
<trkpt lat="42.096073" lon="23.575019"><ele>2539.2</ele><time>2026-03-08T10:48:17.000Z</time></trkpt>
<trkpt lat="42.096076" lon="23.575015"><ele>2539.2</ele><time>2026-03-08T10:48:18.000Z</time></trkpt>
<trkpt lat="42.096081" lon="23.57501"><ele>2539.2</ele><time>2026-03-08T10:48:19.000Z</time></trkpt>
<trkpt lat="42.096085" lon="23.575006"><ele>2539.2</ele><time>2026-03-08T10:48:20.000Z</time></trkpt>
<trkpt lat="42.09609" lon="23.575002"><ele>2539.2</ele><time>2026-03-08T10:48:21.000Z</time></trkpt>
<trkpt lat="42.096095" lon="23.574998"><ele>2540.1</ele><time>2026-03-08T10:48:22.000Z</time></trkpt>
<trkpt lat="42.096101" lon="23.574995"><ele>2540.1</ele><time>2026-03-08T10:48:23.000Z</time></trkpt>
<trkpt lat="42.096106" lon="23.574992"><ele>2540.1</ele><time>2026-03-08T10:48:24.000Z</time></trkpt>
<trkpt lat="42.096112" lon="23.574989"><ele>2540.1</ele><time>2026-03-08T10:48:25.000Z</time></trkpt>
<trkpt lat="42.096117" lon="23.574988"><ele>2540.1</ele><time>2026-03-08T10:48:26.000Z</time></trkpt>
<trkpt lat="42.096121" lon="23.574988"><ele>2540.6</ele><time>2026-03-08T10:48:27.000Z</time></trkpt>
<trkpt lat="42.096126" lon="23.574989"><ele>2540.6</ele><time>2026-03-08T10:48:28.000Z</time></trkpt>
<trkpt lat="42.096129" lon="23.574992"><ele>2540.6</ele><time>2026-03-08T10:48:29.000Z</time></trkpt>
<trkpt lat="42.096133" lon="23.574994"><ele>2540.6</ele><time>2026-03-08T10:48:30.000Z</time></trkpt>
<trkpt lat="42.096137" lon="23.574996"><ele>2540.6</ele><time>2026-03-08T10:48:31.000Z</time></trkpt>
<trkpt lat="42.096141" lon="23.574997"><ele>2541.7</ele><time>2026-03-08T10:48:32.000Z</time></trkpt>
<trkpt lat="42.096144" lon="23.574997"><ele>2541.7</ele><time>2026-03-08T10:48:33.000Z</time></trkpt>
<trkpt lat="42.096147" lon="23.574998"><ele>2541.7</ele><time>2026-03-08T10:48:34.000Z</time></trkpt>
<trkpt lat="42.096151" lon="23.575"><ele>2541.7</ele><time>2026-03-08T10:48:35.000Z</time></trkpt>
<trkpt lat="42.096154" lon="23.575002"><ele>2541.7</ele><time>2026-03-08T10:48:36.000Z</time></trkpt>
<trkpt lat="42.096158" lon="23.575005"><ele>2542.7</ele><time>2026-03-08T10:48:37.000Z</time></trkpt>
<trkpt lat="42.096162" lon="23.575007"><ele>2542.7</ele><time>2026-03-08T10:48:38.000Z</time></trkpt>
<trkpt lat="42.096166" lon="23.575009"><ele>2542.7</ele><time>2026-03-08T10:48:39.000Z</time></trkpt>
<trkpt lat="42.096171" lon="23.575009"><ele>2542.7</ele><time>2026-03-08T10:48:40.000Z</time></trkpt>
<trkpt lat="42.096175" lon="23.575009"><ele>2542.7</ele><time>2026-03-08T10:48:41.000Z</time></trkpt>
<trkpt lat="42.09618" lon="23.575009"><ele>2543.3</ele><time>2026-03-08T10:48:42.000Z</time></trkpt>
<trkpt lat="42.096183" lon="23.575008"><ele>2543.3</ele><time>2026-03-08T10:48:43.000Z</time></trkpt>
<trkpt lat="42.096187" lon="23.575009"><ele>2543.3</ele><time>2026-03-08T10:48:44.000Z</time></trkpt>
<trkpt lat="42.09619" lon="23.575008"><ele>2543.3</ele><time>2026-03-08T10:48:45.000Z</time></trkpt>
<trkpt lat="42.096193" lon="23.575008"><ele>2543.3</ele><time>2026-03-08T10:48:46.000Z</time></trkpt>
<trkpt lat="42.096195" lon="23.575008"><ele>2544.5</ele><time>2026-03-08T10:48:47.000Z</time></trkpt>
<trkpt lat="42.096197" lon="23.575008"><ele>2544.5</ele><time>2026-03-08T10:48:48.000Z</time></trkpt>
<trkpt lat="42.0962" lon="23.575008"><ele>2544.5</ele><time>2026-03-08T10:48:49.000Z</time></trkpt>
<trkpt lat="42.096203" lon="23.575007"><ele>2544.5</ele><time>2026-03-08T10:48:50.000Z</time></trkpt>
<trkpt lat="42.096206" lon="23.575005"><ele>2544.5</ele><time>2026-03-08T10:48:51.000Z</time></trkpt>
<trkpt lat="42.09621" lon="23.575004"><ele>2545.7</ele><time>2026-03-08T10:48:52.000Z</time></trkpt>
<trkpt lat="42.096215" lon="23.575003"><ele>2545.7</ele><time>2026-03-08T10:48:53.000Z</time></trkpt>
<trkpt lat="42.09622" lon="23.575003"><ele>2545.7</ele><time>2026-03-08T10:48:54.000Z</time></trkpt>
<trkpt lat="42.096225" lon="23.575003"><ele>2545.7</ele><time>2026-03-08T10:48:55.000Z</time></trkpt>
<trkpt lat="42.096231" lon="23.575004"><ele>2545.7</ele><time>2026-03-08T10:48:56.000Z</time></trkpt>
<trkpt lat="42.096237" lon="23.575006"><ele>2546.2</ele><time>2026-03-08T10:48:57.000Z</time></trkpt>
<trkpt lat="42.096243" lon="23.575008"><ele>2546.2</ele><time>2026-03-08T10:48:58.000Z</time></trkpt>
<trkpt lat="42.096249" lon="23.57501"><ele>2546.2</ele><time>2026-03-08T10:48:59.000Z</time></trkpt>
<trkpt lat="42.096255" lon="23.575012"><ele>2546.2</ele><time>2026-03-08T10:49:00.000Z</time></trkpt>
<trkpt lat="42.096262" lon="23.575013"><ele>2546.2</ele><time>2026-03-08T10:49:01.000Z</time></trkpt>
<trkpt lat="42.096267" lon="23.575014"><ele>2547.3</ele><time>2026-03-08T10:49:02.000Z</time></trkpt>
<trkpt lat="42.096272" lon="23.575016"><ele>2547.3</ele><time>2026-03-08T10:49:03.000Z</time></trkpt>
<trkpt lat="42.096276" lon="23.575017"><ele>2547.3</ele><time>2026-03-08T10:49:04.000Z</time></trkpt>
<trkpt lat="42.096281" lon="23.57502"><ele>2547.3</ele><time>2026-03-08T10:49:05.000Z</time></trkpt>
<trkpt lat="42.096286" lon="23.575023"><ele>2547.3</ele><time>2026-03-08T10:49:06.000Z</time></trkpt>
<trkpt lat="42.096291" lon="23.575025"><ele>2548.3</ele><time>2026-03-08T10:49:07.000Z</time></trkpt>
<trkpt lat="42.096297" lon="23.575027"><ele>2548.3</ele><time>2026-03-08T10:49:08.000Z</time></trkpt>
<trkpt lat="42.096304" lon="23.575029"><ele>2548.3</ele><time>2026-03-08T10:49:09.000Z</time></trkpt>
<trkpt lat="42.096309" lon="23.575028"><ele>2548.3</ele><time>2026-03-08T10:49:10.000Z</time></trkpt>
<trkpt lat="42.096314" lon="23.575028"><ele>2548.3</ele><time>2026-03-08T10:49:11.000Z</time></trkpt>
<trkpt lat="42.096319" lon="23.575027"><ele>2548.9</ele><time>2026-03-08T10:49:12.000Z</time></trkpt>
<trkpt lat="42.096324" lon="23.575027"><ele>2548.9</ele><time>2026-03-08T10:49:13.000Z</time></trkpt>
<trkpt lat="42.096329" lon="23.575028"><ele>2548.9</ele><time>2026-03-08T10:49:14.000Z</time></trkpt>
<trkpt lat="42.096335" lon="23.57503"><ele>2548.9</ele><time>2026-03-08T10:49:15.000Z</time></trkpt>
<trkpt lat="42.096341" lon="23.575031"><ele>2548.9</ele><time>2026-03-08T10:49:16.000Z</time></trkpt>
<trkpt lat="42.096347" lon="23.575033"><ele>2549.9</ele><time>2026-03-08T10:49:17.000Z</time></trkpt>
<trkpt lat="42.096354" lon="23.575033"><ele>2549.9</ele><time>2026-03-08T10:49:18.000Z</time></trkpt>
<trkpt lat="42.096359" lon="23.575033"><ele>2549.9</ele><time>2026-03-08T10:49:19.000Z</time></trkpt>
<trkpt lat="42.096365" lon="23.575033"><ele>2549.9</ele><time>2026-03-08T10:49:20.000Z</time></trkpt>
<trkpt lat="42.096372" lon="23.575031"><ele>2549.9</ele><time>2026-03-08T10:49:21.000Z</time></trkpt>
<trkpt lat="42.096378" lon="23.57503"><ele>2550.9</ele><time>2026-03-08T10:49:22.000Z</time></trkpt>
<trkpt lat="42.096384" lon="23.575029"><ele>2550.9</ele><time>2026-03-08T10:49:23.000Z</time></trkpt>
<trkpt lat="42.09639" lon="23.575027"><ele>2550.9</ele><time>2026-03-08T10:49:24.000Z</time></trkpt>
<trkpt lat="42.096395" lon="23.575027"><ele>2550.9</ele><time>2026-03-08T10:49:25.000Z</time></trkpt>
<trkpt lat="42.096402" lon="23.575027"><ele>2550.9</ele><time>2026-03-08T10:49:26.000Z</time></trkpt>
<trkpt lat="42.096409" lon="23.575027"><ele>2551.4</ele><time>2026-03-08T10:49:27.000Z</time></trkpt>
<trkpt lat="42.096415" lon="23.575027"><ele>2551.4</ele><time>2026-03-08T10:49:28.000Z</time></trkpt>
<trkpt lat="42.096421" lon="23.575028"><ele>2551.4</ele><time>2026-03-08T10:49:29.000Z</time></trkpt>
<trkpt lat="42.096426" lon="23.575028"><ele>2551.4</ele><time>2026-03-08T10:49:30.000Z</time></trkpt>
<trkpt lat="42.096431" lon="23.575028"><ele>2551.4</ele><time>2026-03-08T10:49:31.000Z</time></trkpt>
<trkpt lat="42.096436" lon="23.575028"><ele>2552.3</ele><time>2026-03-08T10:49:32.000Z</time></trkpt>
<trkpt lat="42.096442" lon="23.575028"><ele>2552.3</ele><time>2026-03-08T10:49:33.000Z</time></trkpt>
<trkpt lat="42.096448" lon="23.575029"><ele>2552.3</ele><time>2026-03-08T10:49:34.000Z</time></trkpt>
<trkpt lat="42.096454" lon="23.575031"><ele>2552.3</ele><time>2026-03-08T10:49:35.000Z</time></trkpt>
<trkpt lat="42.09646" lon="23.575033"><ele>2552.3</ele><time>2026-03-08T10:49:36.000Z</time></trkpt>
<trkpt lat="42.096466" lon="23.575034"><ele>2553</ele><time>2026-03-08T10:49:37.000Z</time></trkpt>
<trkpt lat="42.096472" lon="23.575035"><ele>2553</ele><time>2026-03-08T10:49:38.000Z</time></trkpt>
<trkpt lat="42.096478" lon="23.575036"><ele>2553</ele><time>2026-03-08T10:49:39.000Z</time></trkpt>
<trkpt lat="42.096483" lon="23.575036"><ele>2553</ele><time>2026-03-08T10:49:40.000Z</time></trkpt>
<trkpt lat="42.096489" lon="23.575038"><ele>2553</ele><time>2026-03-08T10:49:41.000Z</time></trkpt>
<trkpt lat="42.096494" lon="23.57504"><ele>2553.3</ele><time>2026-03-08T10:49:42.000Z</time></trkpt>
<trkpt lat="42.096499" lon="23.575043"><ele>2553.3</ele><time>2026-03-08T10:49:43.000Z</time></trkpt>
<trkpt lat="42.096503" lon="23.575045"><ele>2553.3</ele><time>2026-03-08T10:49:44.000Z</time></trkpt>
<trkpt lat="42.096507" lon="23.575047"><ele>2553.3</ele><time>2026-03-08T10:49:45.000Z</time></trkpt>
<trkpt lat="42.096508" lon="23.575049"><ele>2553.3</ele><time>2026-03-08T10:49:46.000Z</time></trkpt>
<trkpt lat="42.09651" lon="23.575049"><ele>2553.8</ele><time>2026-03-08T10:49:47.000Z</time></trkpt>
<trkpt lat="42.09651" lon="23.575048"><ele>2553.8</ele><time>2026-03-08T10:49:48.000Z</time></trkpt>
<trkpt lat="42.096511" lon="23.575047"><ele>2553.8</ele><time>2026-03-08T10:49:49.000Z</time></trkpt>
<trkpt lat="42.096511" lon="23.575046"><ele>2553.8</ele><time>2026-03-08T10:49:50.000Z</time></trkpt>
<trkpt lat="42.096512" lon="23.575045"><ele>2553.8</ele><time>2026-03-08T10:49:51.000Z</time></trkpt>
<trkpt lat="42.096512" lon="23.575045"><ele>2554.3</ele><time>2026-03-08T10:49:52.000Z</time></trkpt>
<trkpt lat="42.096512" lon="23.575045"><ele>2554.3</ele><time>2026-03-08T10:49:53.000Z</time></trkpt>
<trkpt lat="42.096513" lon="23.575044"><ele>2554.3</ele><time>2026-03-08T10:49:54.000Z</time></trkpt>
<trkpt lat="42.096513" lon="23.575044"><ele>2554.3</ele><time>2026-03-08T10:49:55.000Z</time></trkpt>
<trkpt lat="42.096513" lon="23.575044"><ele>2554.3</ele><time>2026-03-08T10:49:56.000Z</time></trkpt>
<trkpt lat="42.096513" lon="23.575044"><ele>2554.6</ele><time>2026-03-08T10:49:57.000Z</time></trkpt>
<trkpt lat="42.096513" lon="23.575044"><ele>2554.6</ele><time>2026-03-08T10:49:58.000Z</time></trkpt>
<trkpt lat="42.096513" lon="23.575044"><ele>2554.6</ele><time>2026-03-08T10:49:59.000Z</time></trkpt>
<trkpt lat="42.096512" lon="23.575043"><ele>2554.6</ele><time>2026-03-08T10:50:00.000Z</time></trkpt>
<trkpt lat="42.096511" lon="23.575039"><ele>2554.6</ele><time>2026-03-08T10:50:01.000Z</time></trkpt>
<trkpt lat="42.096512" lon="23.575034"><ele>2555.1</ele><time>2026-03-08T10:50:02.000Z</time></trkpt>
<trkpt lat="42.096513" lon="23.57503"><ele>2555.1</ele><time>2026-03-08T10:50:03.000Z</time></trkpt>
<trkpt lat="42.096513" lon="23.575026"><ele>2555.1</ele><time>2026-03-08T10:50:04.000Z</time></trkpt>
<trkpt lat="42.096513" lon="23.575023"><ele>2555.1</ele><time>2026-03-08T10:50:05.000Z</time></trkpt>
<trkpt lat="42.096514" lon="23.575021"><ele>2555.1</ele><time>2026-03-08T10:50:06.000Z</time></trkpt>
<trkpt lat="42.096514" lon="23.575021"><ele>2555.4</ele><time>2026-03-08T10:50:07.000Z</time></trkpt>
<trkpt lat="42.096513" lon="23.575019"><ele>2555.4</ele><time>2026-03-08T10:50:08.000Z</time></trkpt>
<trkpt lat="42.096513" lon="23.575017"><ele>2555.4</ele><time>2026-03-08T10:50:09.000Z</time></trkpt>
<trkpt lat="42.096513" lon="23.575016"><ele>2555.4</ele><time>2026-03-08T10:50:10.000Z</time></trkpt>
<trkpt lat="42.096513" lon="23.575015"><ele>2555.4</ele><time>2026-03-08T10:50:11.000Z</time></trkpt>
<trkpt lat="42.096513" lon="23.575015"><ele>2555.4</ele><time>2026-03-08T10:50:12.000Z</time></trkpt>
<trkpt lat="42.096513" lon="23.575014"><ele>2555.4</ele><time>2026-03-08T10:50:13.000Z</time></trkpt>
<trkpt lat="42.096512" lon="23.575014"><ele>2555.4</ele><time>2026-03-08T10:50:14.000Z</time></trkpt>
<trkpt lat="42.096512" lon="23.575013"><ele>2555.4</ele><time>2026-03-08T10:50:15.000Z</time></trkpt>
<trkpt lat="42.096513" lon="23.575012"><ele>2555.4</ele><time>2026-03-08T10:50:16.000Z</time></trkpt>
<trkpt lat="42.096513" lon="23.575011"><ele>2555.1</ele><time>2026-03-08T10:50:17.000Z</time></trkpt>
<trkpt lat="42.096513" lon="23.575011"><ele>2555.1</ele><time>2026-03-08T10:50:18.000Z</time></trkpt>
<trkpt lat="42.096514" lon="23.575011"><ele>2555.1</ele><time>2026-03-08T10:50:19.000Z</time></trkpt>
<trkpt lat="42.096513" lon="23.575012"><ele>2555.1</ele><time>2026-03-08T10:50:20.000Z</time></trkpt>
<trkpt lat="42.096513" lon="23.575013"><ele>2555.1</ele><time>2026-03-08T10:50:21.000Z</time></trkpt>
<trkpt lat="42.096513" lon="23.575013"><ele>2554.9</ele><time>2026-03-08T10:50:22.000Z</time></trkpt>
<trkpt lat="42.096512" lon="23.575013"><ele>2554.9</ele><time>2026-03-08T10:50:23.000Z</time></trkpt>
<trkpt lat="42.096512" lon="23.575013"><ele>2554.9</ele><time>2026-03-08T10:50:24.000Z</time></trkpt>
<trkpt lat="42.096512" lon="23.575013"><ele>2554.9</ele><time>2026-03-08T10:50:25.000Z</time></trkpt>
<trkpt lat="42.096512" lon="23.575012"><ele>2554.9</ele><time>2026-03-08T10:50:26.000Z</time></trkpt>
<trkpt lat="42.096512" lon="23.57501"><ele>2554.9</ele><time>2026-03-08T10:50:27.000Z</time></trkpt>
<trkpt lat="42.096512" lon="23.57501"><ele>2554.9</ele><time>2026-03-08T10:50:28.000Z</time></trkpt>
<trkpt lat="42.096512" lon="23.575009"><ele>2554.9</ele><time>2026-03-08T10:50:29.000Z</time></trkpt>
<trkpt lat="42.096511" lon="23.575009"><ele>2554.9</ele><time>2026-03-08T10:50:30.000Z</time></trkpt>
<trkpt lat="42.096509" lon="23.575008"><ele>2554.9</ele><time>2026-03-08T10:50:31.000Z</time></trkpt>
<trkpt lat="42.096508" lon="23.575009"><ele>2554.9</ele><time>2026-03-08T10:50:32.000Z</time></trkpt>
<trkpt lat="42.096507" lon="23.575009"><ele>2554.9</ele><time>2026-03-08T10:50:33.000Z</time></trkpt>
<trkpt lat="42.096507" lon="23.57501"><ele>2554.9</ele><time>2026-03-08T10:50:34.000Z</time></trkpt>
<trkpt lat="42.096507" lon="23.575012"><ele>2554.9</ele><time>2026-03-08T10:50:35.000Z</time></trkpt>
<trkpt lat="42.096507" lon="23.575013"><ele>2554.9</ele><time>2026-03-08T10:50:36.000Z</time></trkpt>
<trkpt lat="42.096507" lon="23.575015"><ele>2555</ele><time>2026-03-08T10:50:37.000Z</time></trkpt>
<trkpt lat="42.096508" lon="23.575015"><ele>2555</ele><time>2026-03-08T10:50:38.000Z</time></trkpt>
<trkpt lat="42.096508" lon="23.575016"><ele>2555</ele><time>2026-03-08T10:50:39.000Z</time></trkpt>
<trkpt lat="42.096508" lon="23.575016"><ele>2555</ele><time>2026-03-08T10:50:40.000Z</time></trkpt>
<trkpt lat="42.096508" lon="23.575016"><ele>2555</ele><time>2026-03-08T10:50:41.000Z</time></trkpt>
<trkpt lat="42.096508" lon="23.575016"><ele>2555.1</ele><time>2026-03-08T10:50:42.000Z</time></trkpt>
<trkpt lat="42.096508" lon="23.575016"><ele>2555.1</ele><time>2026-03-08T10:50:43.000Z</time></trkpt>
<trkpt lat="42.096508" lon="23.575016"><ele>2555.1</ele><time>2026-03-08T10:50:44.000Z</time></trkpt>
<trkpt lat="42.096508" lon="23.575016"><ele>2555.1</ele><time>2026-03-08T10:50:45.000Z</time></trkpt>
<trkpt lat="42.096508" lon="23.575016"><ele>2555.1</ele><time>2026-03-08T10:50:46.000Z</time></trkpt>
<trkpt lat="42.096509" lon="23.575016"><ele>2555.1</ele><time>2026-03-08T10:50:47.000Z</time></trkpt>
<trkpt lat="42.096509" lon="23.575016"><ele>2555.1</ele><time>2026-03-08T10:50:48.000Z</time></trkpt>
<trkpt lat="42.096509" lon="23.575016"><ele>2555.1</ele><time>2026-03-08T10:50:49.000Z</time></trkpt>
<trkpt lat="42.096508" lon="23.575016"><ele>2555.1</ele><time>2026-03-08T10:50:50.000Z</time></trkpt>
<trkpt lat="42.096508" lon="23.575016"><ele>2555.1</ele><time>2026-03-08T10:50:51.000Z</time></trkpt>
<trkpt lat="42.096508" lon="23.575017"><ele>2555</ele><time>2026-03-08T10:50:52.000Z</time></trkpt>
<trkpt lat="42.096508" lon="23.575017"><ele>2555</ele><time>2026-03-08T10:50:53.000Z</time></trkpt>
<trkpt lat="42.096508" lon="23.575017"><ele>2555</ele><time>2026-03-08T10:50:54.000Z</time></trkpt>
<trkpt lat="42.096508" lon="23.575016"><ele>2555</ele><time>2026-03-08T10:50:55.000Z</time></trkpt>
<trkpt lat="42.096508" lon="23.575016"><ele>2555</ele><time>2026-03-08T10:50:56.000Z</time></trkpt>
<trkpt lat="42.096508" lon="23.575016"><ele>2554.9</ele><time>2026-03-08T10:50:57.000Z</time></trkpt>
<trkpt lat="42.096508" lon="23.575015"><ele>2554.9</ele><time>2026-03-08T10:50:58.000Z</time></trkpt>
<trkpt lat="42.096508" lon="23.575015"><ele>2554.9</ele><time>2026-03-08T10:50:59.000Z</time></trkpt>
<trkpt lat="42.096508" lon="23.575015"><ele>2554.9</ele><time>2026-03-08T10:51:00.000Z</time></trkpt>
<trkpt lat="42.096507" lon="23.575015"><ele>2554.9</ele><time>2026-03-08T10:51:01.000Z</time></trkpt>
<trkpt lat="42.096506" lon="23.575014"><ele>2554.6</ele><time>2026-03-08T10:51:02.000Z</time></trkpt>
<trkpt lat="42.096506" lon="23.575014"><ele>2554.6</ele><time>2026-03-08T10:51:03.000Z</time></trkpt>
<trkpt lat="42.096506" lon="23.575013"><ele>2554.6</ele><time>2026-03-08T10:51:04.000Z</time></trkpt>
<trkpt lat="42.096505" lon="23.575011"><ele>2554.6</ele><time>2026-03-08T10:51:05.000Z</time></trkpt>
<trkpt lat="42.096505" lon="23.575009"><ele>2554.6</ele><time>2026-03-08T10:51:06.000Z</time></trkpt>
<trkpt lat="42.096505" lon="23.575008"><ele>2554.3</ele><time>2026-03-08T10:51:07.000Z</time></trkpt>
<trkpt lat="42.096505" lon="23.575006"><ele>2554.3</ele><time>2026-03-08T10:51:08.000Z</time></trkpt>
<trkpt lat="42.096504" lon="23.575004"><ele>2554.3</ele><time>2026-03-08T10:51:09.000Z</time></trkpt>
<trkpt lat="42.096503" lon="23.575003"><ele>2554.3</ele><time>2026-03-08T10:51:10.000Z</time></trkpt>
<trkpt lat="42.096503" lon="23.575002"><ele>2554.3</ele><time>2026-03-08T10:51:11.000Z</time></trkpt>
<trkpt lat="42.096502" lon="23.575001"><ele>2554.3</ele><time>2026-03-08T10:51:12.000Z</time></trkpt>
<trkpt lat="42.096502" lon="23.575002"><ele>2554.3</ele><time>2026-03-08T10:51:13.000Z</time></trkpt>
<trkpt lat="42.096502" lon="23.575002"><ele>2554.3</ele><time>2026-03-08T10:51:14.000Z</time></trkpt>
<trkpt lat="42.096501" lon="23.575003"><ele>2554.3</ele><time>2026-03-08T10:51:15.000Z</time></trkpt>
<trkpt lat="42.096501" lon="23.575003"><ele>2554.3</ele><time>2026-03-08T10:51:16.000Z</time></trkpt>
<trkpt lat="42.096503" lon="23.575004"><ele>2554.5</ele><time>2026-03-08T10:51:17.000Z</time></trkpt>
<trkpt lat="42.096505" lon="23.575006"><ele>2554.5</ele><time>2026-03-08T10:51:18.000Z</time></trkpt>
<trkpt lat="42.096507" lon="23.575008"><ele>2554.5</ele><time>2026-03-08T10:51:19.000Z</time></trkpt>
<trkpt lat="42.09651" lon="23.575011"><ele>2554.5</ele><time>2026-03-08T10:51:20.000Z</time></trkpt>
<trkpt lat="42.096514" lon="23.575014"><ele>2554.5</ele><time>2026-03-08T10:51:21.000Z</time></trkpt>
<trkpt lat="42.096516" lon="23.575016"><ele>2554.7</ele><time>2026-03-08T10:51:22.000Z</time></trkpt>
<trkpt lat="42.096518" lon="23.575017"><ele>2554.7</ele><time>2026-03-08T10:51:23.000Z</time></trkpt>
<trkpt lat="42.096519" lon="23.575017"><ele>2554.7</ele><time>2026-03-08T10:51:24.000Z</time></trkpt>
<trkpt lat="42.09652" lon="23.575017"><ele>2554.7</ele><time>2026-03-08T10:51:25.000Z</time></trkpt>
<trkpt lat="42.096521" lon="23.575017"><ele>2554.7</ele><time>2026-03-08T10:51:26.000Z</time></trkpt>
<trkpt lat="42.096521" lon="23.575017"><ele>2554.7</ele><time>2026-03-08T10:51:27.000Z</time></trkpt>
<trkpt lat="42.096521" lon="23.575017"><ele>2554.7</ele><time>2026-03-08T10:51:28.000Z</time></trkpt>
<trkpt lat="42.096522" lon="23.575016"><ele>2554.7</ele><time>2026-03-08T10:51:29.000Z</time></trkpt>
<trkpt lat="42.096523" lon="23.575014"><ele>2554.7</ele><time>2026-03-08T10:51:30.000Z</time></trkpt>
<trkpt lat="42.096524" lon="23.575012"><ele>2554.7</ele><time>2026-03-08T10:51:31.000Z</time></trkpt>
<trkpt lat="42.096526" lon="23.57501"><ele>2554.7</ele><time>2026-03-08T10:51:32.000Z</time></trkpt>
<trkpt lat="42.096527" lon="23.575008"><ele>2554.7</ele><time>2026-03-08T10:51:33.000Z</time></trkpt>
<trkpt lat="42.096527" lon="23.575006"><ele>2554.7</ele><time>2026-03-08T10:51:34.000Z</time></trkpt>
<trkpt lat="42.096528" lon="23.575005"><ele>2554.7</ele><time>2026-03-08T10:51:35.000Z</time></trkpt>
<trkpt lat="42.096528" lon="23.575005"><ele>2554.7</ele><time>2026-03-08T10:51:36.000Z</time></trkpt>
<trkpt lat="42.096528" lon="23.575005"><ele>2554.7</ele><time>2026-03-08T10:51:37.000Z</time></trkpt>
<trkpt lat="42.096528" lon="23.575005"><ele>2554.7</ele><time>2026-03-08T10:51:38.000Z</time></trkpt>
<trkpt lat="42.096529" lon="23.575005"><ele>2554.7</ele><time>2026-03-08T10:51:39.000Z</time></trkpt>
<trkpt lat="42.09653" lon="23.575004"><ele>2554.7</ele><time>2026-03-08T10:51:40.000Z</time></trkpt>
<trkpt lat="42.09653" lon="23.575004"><ele>2554.7</ele><time>2026-03-08T10:51:41.000Z</time></trkpt>
<trkpt lat="42.096531" lon="23.575004"><ele>2554.8</ele><time>2026-03-08T10:51:42.000Z</time></trkpt>
<trkpt lat="42.096531" lon="23.575004"><ele>2554.8</ele><time>2026-03-08T10:51:43.000Z</time></trkpt>
<trkpt lat="42.096531" lon="23.575005"><ele>2554.8</ele><time>2026-03-08T10:51:44.000Z</time></trkpt>
<trkpt lat="42.096532" lon="23.575006"><ele>2554.8</ele><time>2026-03-08T10:51:45.000Z</time></trkpt>
<trkpt lat="42.096532" lon="23.575006"><ele>2554.8</ele><time>2026-03-08T10:51:46.000Z</time></trkpt>
<trkpt lat="42.096532" lon="23.575007"><ele>2554.9</ele><time>2026-03-08T10:51:47.000Z</time></trkpt>
<trkpt lat="42.096532" lon="23.575007"><ele>2554.9</ele><time>2026-03-08T10:51:48.000Z</time></trkpt>
<trkpt lat="42.096532" lon="23.575007"><ele>2554.9</ele><time>2026-03-08T10:51:49.000Z</time></trkpt>
<trkpt lat="42.096532" lon="23.575007"><ele>2554.9</ele><time>2026-03-08T10:51:50.000Z</time></trkpt>
<trkpt lat="42.096532" lon="23.575007"><ele>2554.9</ele><time>2026-03-08T10:51:51.000Z</time></trkpt>
<trkpt lat="42.096532" lon="23.575008"><ele>2555.2</ele><time>2026-03-08T10:51:52.000Z</time></trkpt>
<trkpt lat="42.096532" lon="23.575008"><ele>2555.2</ele><time>2026-03-08T10:51:53.000Z</time></trkpt>
<trkpt lat="42.096532" lon="23.575008"><ele>2555.2</ele><time>2026-03-08T10:51:54.000Z</time></trkpt>
<trkpt lat="42.096532" lon="23.575008"><ele>2555.2</ele><time>2026-03-08T10:51:55.000Z</time></trkpt>
<trkpt lat="42.096532" lon="23.575008"><ele>2555.2</ele><time>2026-03-08T10:51:56.000Z</time></trkpt>
<trkpt lat="42.096532" lon="23.575007"><ele>2555.3</ele><time>2026-03-08T10:51:57.000Z</time></trkpt>
<trkpt lat="42.096532" lon="23.575007"><ele>2555.3</ele><time>2026-03-08T10:51:58.000Z</time></trkpt>
<trkpt lat="42.096532" lon="23.575005"><ele>2555.3</ele><time>2026-03-08T10:51:59.000Z</time></trkpt>
<trkpt lat="42.096531" lon="23.575003"><ele>2555.3</ele><time>2026-03-08T10:52:00.000Z</time></trkpt>
<trkpt lat="42.09653" lon="23.575001"><ele>2555.3</ele><time>2026-03-08T10:52:01.000Z</time></trkpt>
<trkpt lat="42.096529" lon="23.575"><ele>2555.3</ele><time>2026-03-08T10:52:02.000Z</time></trkpt>
<trkpt lat="42.096528" lon="23.574998"><ele>2555.3</ele><time>2026-03-08T10:52:03.000Z</time></trkpt>
<trkpt lat="42.096528" lon="23.574999"><ele>2555.3</ele><time>2026-03-08T10:52:04.000Z</time></trkpt>
<trkpt lat="42.096527" lon="23.574999"><ele>2555.3</ele><time>2026-03-08T10:52:05.000Z</time></trkpt>
<trkpt lat="42.096527" lon="23.575"><ele>2555.3</ele><time>2026-03-08T10:52:06.000Z</time></trkpt>
<trkpt lat="42.096526" lon="23.575001"><ele>2555.2</ele><time>2026-03-08T10:52:07.000Z</time></trkpt>
<trkpt lat="42.096526" lon="23.575001"><ele>2555.2</ele><time>2026-03-08T10:52:08.000Z</time></trkpt>
<trkpt lat="42.096526" lon="23.575001"><ele>2555.2</ele><time>2026-03-08T10:52:09.000Z</time></trkpt>
<trkpt lat="42.096526" lon="23.575001"><ele>2555.2</ele><time>2026-03-08T10:52:10.000Z</time></trkpt>
<trkpt lat="42.096526" lon="23.575002"><ele>2555.2</ele><time>2026-03-08T10:52:11.000Z</time></trkpt>
<trkpt lat="42.096525" lon="23.575003"><ele>2555.1</ele><time>2026-03-08T10:52:12.000Z</time></trkpt>
<trkpt lat="42.096525" lon="23.575003"><ele>2555.1</ele><time>2026-03-08T10:52:13.000Z</time></trkpt>
<trkpt lat="42.096524" lon="23.575004"><ele>2555.1</ele><time>2026-03-08T10:52:14.000Z</time></trkpt>
<trkpt lat="42.096523" lon="23.575005"><ele>2555.1</ele><time>2026-03-08T10:52:15.000Z</time></trkpt>
<trkpt lat="42.096523" lon="23.575005"><ele>2555.1</ele><time>2026-03-08T10:52:16.000Z</time></trkpt>
<trkpt lat="42.096522" lon="23.575005"><ele>2555</ele><time>2026-03-08T10:52:17.000Z</time></trkpt>
<trkpt lat="42.096522" lon="23.575006"><ele>2555</ele><time>2026-03-08T10:52:18.000Z</time></trkpt>
<trkpt lat="42.096522" lon="23.575006"><ele>2555</ele><time>2026-03-08T10:52:19.000Z</time></trkpt>
<trkpt lat="42.096521" lon="23.575007"><ele>2555</ele><time>2026-03-08T10:52:20.000Z</time></trkpt>
<trkpt lat="42.096521" lon="23.575008"><ele>2555</ele><time>2026-03-08T10:52:21.000Z</time></trkpt>
<trkpt lat="42.096521" lon="23.575008"><ele>2555</ele><time>2026-03-08T10:52:22.000Z</time></trkpt>
<trkpt lat="42.096522" lon="23.575008"><ele>2555</ele><time>2026-03-08T10:52:23.000Z</time></trkpt>
<trkpt lat="42.096522" lon="23.575008"><ele>2555</ele><time>2026-03-08T10:52:24.000Z</time></trkpt>
<trkpt lat="42.096522" lon="23.575008"><ele>2555</ele><time>2026-03-08T10:52:25.000Z</time></trkpt>
<trkpt lat="42.096521" lon="23.575008"><ele>2555</ele><time>2026-03-08T10:52:26.000Z</time></trkpt>
<trkpt lat="42.096521" lon="23.575008"><ele>2555.1</ele><time>2026-03-08T10:52:27.000Z</time></trkpt>
<trkpt lat="42.096522" lon="23.575008"><ele>2555.1</ele><time>2026-03-08T10:52:28.000Z</time></trkpt>
<trkpt lat="42.096522" lon="23.575008"><ele>2555.1</ele><time>2026-03-08T10:52:29.000Z</time></trkpt>
<trkpt lat="42.096523" lon="23.575008"><ele>2555.1</ele><time>2026-03-08T10:52:30.000Z</time></trkpt>
<trkpt lat="42.096525" lon="23.575007"><ele>2555.1</ele><time>2026-03-08T10:52:31.000Z</time></trkpt>
<trkpt lat="42.096526" lon="23.575007"><ele>2555.2</ele><time>2026-03-08T10:52:32.000Z</time></trkpt>
<trkpt lat="42.096527" lon="23.575007"><ele>2555.2</ele><time>2026-03-08T10:52:33.000Z</time></trkpt>
<trkpt lat="42.096527" lon="23.575007"><ele>2555.2</ele><time>2026-03-08T10:52:34.000Z</time></trkpt>
<trkpt lat="42.096527" lon="23.575006"><ele>2555.2</ele><time>2026-03-08T10:52:35.000Z</time></trkpt>
<trkpt lat="42.096527" lon="23.575006"><ele>2555.2</ele><time>2026-03-08T10:52:36.000Z</time></trkpt>
<trkpt lat="42.096527" lon="23.575006"><ele>2555.1</ele><time>2026-03-08T10:52:37.000Z</time></trkpt>
<trkpt lat="42.096527" lon="23.575006"><ele>2555.1</ele><time>2026-03-08T10:52:38.000Z</time></trkpt>
<trkpt lat="42.096527" lon="23.575005"><ele>2555.1</ele><time>2026-03-08T10:52:39.000Z</time></trkpt>
<trkpt lat="42.096528" lon="23.575005"><ele>2555.1</ele><time>2026-03-08T10:52:40.000Z</time></trkpt>
<trkpt lat="42.096528" lon="23.575005"><ele>2555.1</ele><time>2026-03-08T10:52:41.000Z</time></trkpt>
<trkpt lat="42.096529" lon="23.575005"><ele>2555.1</ele><time>2026-03-08T10:52:42.000Z</time></trkpt>
<trkpt lat="42.09653" lon="23.575004"><ele>2555.1</ele><time>2026-03-08T10:52:43.000Z</time></trkpt>
<trkpt lat="42.09653" lon="23.575005"><ele>2555.1</ele><time>2026-03-08T10:52:44.000Z</time></trkpt>
<trkpt lat="42.096531" lon="23.575005"><ele>2555.1</ele><time>2026-03-08T10:52:45.000Z</time></trkpt>
<trkpt lat="42.096531" lon="23.575006"><ele>2555.1</ele><time>2026-03-08T10:52:46.000Z</time></trkpt>
<trkpt lat="42.096531" lon="23.575006"><ele>2555.2</ele><time>2026-03-08T10:52:47.000Z</time></trkpt>
<trkpt lat="42.096531" lon="23.575006"><ele>2555.2</ele><time>2026-03-08T10:52:48.000Z</time></trkpt>
<trkpt lat="42.096531" lon="23.575006"><ele>2555.2</ele><time>2026-03-08T10:52:49.000Z</time></trkpt>
<trkpt lat="42.096531" lon="23.575006"><ele>2555.2</ele><time>2026-03-08T10:52:50.000Z</time></trkpt>
<trkpt lat="42.096531" lon="23.575006"><ele>2555.2</ele><time>2026-03-08T10:52:51.000Z</time></trkpt>
<trkpt lat="42.09653" lon="23.575006"><ele>2555.3</ele><time>2026-03-08T10:52:52.000Z</time></trkpt>
<trkpt lat="42.09653" lon="23.575006"><ele>2555.3</ele><time>2026-03-08T10:52:53.000Z</time></trkpt>
<trkpt lat="42.096529" lon="23.575007"><ele>2555.3</ele><time>2026-03-08T10:52:54.000Z</time></trkpt>
<trkpt lat="42.096528" lon="23.575007"><ele>2555.3</ele><time>2026-03-08T10:52:55.000Z</time></trkpt>
<trkpt lat="42.096527" lon="23.575008"><ele>2555.3</ele><time>2026-03-08T10:52:56.000Z</time></trkpt>
<trkpt lat="42.096526" lon="23.575008"><ele>2555.3</ele><time>2026-03-08T10:52:57.000Z</time></trkpt>
<trkpt lat="42.096526" lon="23.575008"><ele>2555.3</ele><time>2026-03-08T10:52:58.000Z</time></trkpt>
<trkpt lat="42.096526" lon="23.575008"><ele>2555.3</ele><time>2026-03-08T10:52:59.000Z</time></trkpt>
<trkpt lat="42.096526" lon="23.575008"><ele>2555.3</ele><time>2026-03-08T10:53:00.000Z</time></trkpt>
<trkpt lat="42.096526" lon="23.575008"><ele>2555.3</ele><time>2026-03-08T10:53:01.000Z</time></trkpt>
<trkpt lat="42.096526" lon="23.575008"><ele>2555.2</ele><time>2026-03-08T10:53:02.000Z</time></trkpt>
<trkpt lat="42.096526" lon="23.575008"><ele>2555.2</ele><time>2026-03-08T10:53:03.000Z</time></trkpt>
<trkpt lat="42.096526" lon="23.575008"><ele>2555.2</ele><time>2026-03-08T10:53:04.000Z</time></trkpt>
<trkpt lat="42.096527" lon="23.575009"><ele>2555.2</ele><time>2026-03-08T10:53:05.000Z</time></trkpt>
<trkpt lat="42.096528" lon="23.575009"><ele>2555.2</ele><time>2026-03-08T10:53:06.000Z</time></trkpt>
<trkpt lat="42.09653" lon="23.57501"><ele>2555.1</ele><time>2026-03-08T10:53:07.000Z</time></trkpt>
<trkpt lat="42.096531" lon="23.57501"><ele>2555.1</ele><time>2026-03-08T10:53:08.000Z</time></trkpt>
<trkpt lat="42.096531" lon="23.57501"><ele>2555.1</ele><time>2026-03-08T10:53:09.000Z</time></trkpt>
<trkpt lat="42.096531" lon="23.57501"><ele>2555.1</ele><time>2026-03-08T10:53:10.000Z</time></trkpt>
<trkpt lat="42.096531" lon="23.57501"><ele>2555.1</ele><time>2026-03-08T10:53:11.000Z</time></trkpt>
<trkpt lat="42.096531" lon="23.57501"><ele>2555.1</ele><time>2026-03-08T10:53:12.000Z</time></trkpt>
<trkpt lat="42.096531" lon="23.57501"><ele>2555.1</ele><time>2026-03-08T10:53:13.000Z</time></trkpt>
<trkpt lat="42.096531" lon="23.57501"><ele>2555.1</ele><time>2026-03-08T10:53:14.000Z</time></trkpt>
<trkpt lat="42.096531" lon="23.57501"><ele>2555.1</ele><time>2026-03-08T10:53:15.000Z</time></trkpt>
<trkpt lat="42.09653" lon="23.575011"><ele>2555.1</ele><time>2026-03-08T10:53:16.000Z</time></trkpt>
<trkpt lat="42.09653" lon="23.575011"><ele>2555.2</ele><time>2026-03-08T10:53:17.000Z</time></trkpt>
<trkpt lat="42.09653" lon="23.575011"><ele>2555.2</ele><time>2026-03-08T10:53:18.000Z</time></trkpt>
<trkpt lat="42.096529" lon="23.575011"><ele>2555.2</ele><time>2026-03-08T10:53:19.000Z</time></trkpt>
<trkpt lat="42.096529" lon="23.57501"><ele>2555.2</ele><time>2026-03-08T10:53:20.000Z</time></trkpt>
<trkpt lat="42.096529" lon="23.57501"><ele>2555.2</ele><time>2026-03-08T10:53:21.000Z</time></trkpt>
<trkpt lat="42.096528" lon="23.575011"><ele>2555.4</ele><time>2026-03-08T10:53:22.000Z</time></trkpt>
<trkpt lat="42.096527" lon="23.575011"><ele>2555.4</ele><time>2026-03-08T10:53:23.000Z</time></trkpt>
<trkpt lat="42.096526" lon="23.575011"><ele>2555.4</ele><time>2026-03-08T10:53:24.000Z</time></trkpt>
<trkpt lat="42.096524" lon="23.575011"><ele>2555.4</ele><time>2026-03-08T10:53:25.000Z</time></trkpt>
<trkpt lat="42.096524" lon="23.575011"><ele>2555.4</ele><time>2026-03-08T10:53:26.000Z</time></trkpt>
<trkpt lat="42.096524" lon="23.57501"><ele>2555.5</ele><time>2026-03-08T10:53:27.000Z</time></trkpt>
<trkpt lat="42.096524" lon="23.57501"><ele>2555.5</ele><time>2026-03-08T10:53:28.000Z</time></trkpt>
<trkpt lat="42.096523" lon="23.57501"><ele>2555.5</ele><time>2026-03-08T10:53:29.000Z</time></trkpt>
<trkpt lat="42.096523" lon="23.575009"><ele>2555.5</ele><time>2026-03-08T10:53:30.000Z</time></trkpt>
<trkpt lat="42.096523" lon="23.575009"><ele>2555.5</ele><time>2026-03-08T10:53:31.000Z</time></trkpt>
<trkpt lat="42.096523" lon="23.57501"><ele>2555.5</ele><time>2026-03-08T10:53:32.000Z</time></trkpt>
<trkpt lat="42.096523" lon="23.57501"><ele>2555.5</ele><time>2026-03-08T10:53:33.000Z</time></trkpt>
<trkpt lat="42.096523" lon="23.57501"><ele>2555.5</ele><time>2026-03-08T10:53:34.000Z</time></trkpt>
<trkpt lat="42.096524" lon="23.57501"><ele>2555.5</ele><time>2026-03-08T10:53:35.000Z</time></trkpt>
<trkpt lat="42.096524" lon="23.57501"><ele>2555.5</ele><time>2026-03-08T10:53:36.000Z</time></trkpt>
<trkpt lat="42.096523" lon="23.57501"><ele>2555.2</ele><time>2026-03-08T10:53:37.000Z</time></trkpt>
<trkpt lat="42.096523" lon="23.57501"><ele>2555.2</ele><time>2026-03-08T10:53:38.000Z</time></trkpt>
<trkpt lat="42.096523" lon="23.57501"><ele>2555.2</ele><time>2026-03-08T10:53:39.000Z</time></trkpt>
<trkpt lat="42.096523" lon="23.57501"><ele>2555.2</ele><time>2026-03-08T10:53:40.000Z</time></trkpt>
<trkpt lat="42.096524" lon="23.57501"><ele>2555.2</ele><time>2026-03-08T10:53:41.000Z</time></trkpt>
<trkpt lat="42.096524" lon="23.57501"><ele>2555.1</ele><time>2026-03-08T10:53:42.000Z</time></trkpt>
<trkpt lat="42.096524" lon="23.57501"><ele>2555.1</ele><time>2026-03-08T10:53:43.000Z</time></trkpt>
<trkpt lat="42.096524" lon="23.57501"><ele>2555.1</ele><time>2026-03-08T10:53:44.000Z</time></trkpt>
<trkpt lat="42.096524" lon="23.57501"><ele>2555.1</ele><time>2026-03-08T10:53:45.000Z</time></trkpt>
<trkpt lat="42.096524" lon="23.57501"><ele>2555.1</ele><time>2026-03-08T10:53:46.000Z</time></trkpt>
<trkpt lat="42.096524" lon="23.57501"><ele>2555.1</ele><time>2026-03-08T10:53:47.000Z</time></trkpt>
<trkpt lat="42.096524" lon="23.57501"><ele>2555.1</ele><time>2026-03-08T10:53:48.000Z</time></trkpt>
<trkpt lat="42.096524" lon="23.57501"><ele>2555.1</ele><time>2026-03-08T10:53:49.000Z</time></trkpt>
<trkpt lat="42.096524" lon="23.57501"><ele>2555.1</ele><time>2026-03-08T10:53:50.000Z</time></trkpt>
<trkpt lat="42.096524" lon="23.57501"><ele>2555.1</ele><time>2026-03-08T10:53:51.000Z</time></trkpt>
<trkpt lat="42.096524" lon="23.57501"><ele>2555.4</ele><time>2026-03-08T10:53:52.000Z</time></trkpt>
<trkpt lat="42.096522" lon="23.575009"><ele>2555.4</ele><time>2026-03-08T10:53:53.000Z</time></trkpt>
<trkpt lat="42.09652" lon="23.57501"><ele>2555.4</ele><time>2026-03-08T10:53:54.000Z</time></trkpt>
<trkpt lat="42.096518" lon="23.57501"><ele>2555.4</ele><time>2026-03-08T10:53:55.000Z</time></trkpt>
<trkpt lat="42.096518" lon="23.575009"><ele>2555.4</ele><time>2026-03-08T10:53:56.000Z</time></trkpt>
<trkpt lat="42.096519" lon="23.575009"><ele>2555.5</ele><time>2026-03-08T10:53:57.000Z</time></trkpt>
<trkpt lat="42.096522" lon="23.575009"><ele>2555.5</ele><time>2026-03-08T10:53:58.000Z</time></trkpt>
<trkpt lat="42.096525" lon="23.575009"><ele>2555.5</ele><time>2026-03-08T10:53:59.000Z</time></trkpt>
<trkpt lat="42.096528" lon="23.575009"><ele>2555.5</ele><time>2026-03-08T10:54:00.000Z</time></trkpt>
<trkpt lat="42.09653" lon="23.57501"><ele>2555.5</ele><time>2026-03-08T10:54:01.000Z</time></trkpt>
<trkpt lat="42.096529" lon="23.57501"><ele>2555.4</ele><time>2026-03-08T10:54:02.000Z</time></trkpt>
<trkpt lat="42.096529" lon="23.57501"><ele>2555.4</ele><time>2026-03-08T10:54:03.000Z</time></trkpt>
<trkpt lat="42.096529" lon="23.57501"><ele>2555.4</ele><time>2026-03-08T10:54:04.000Z</time></trkpt>
<trkpt lat="42.096529" lon="23.575011"><ele>2555.4</ele><time>2026-03-08T10:54:05.000Z</time></trkpt>
<trkpt lat="42.096529" lon="23.57501"><ele>2555.4</ele><time>2026-03-08T10:54:06.000Z</time></trkpt>
<trkpt lat="42.096529" lon="23.57501"><ele>2555.3</ele><time>2026-03-08T10:54:07.000Z</time></trkpt>
<trkpt lat="42.096529" lon="23.575011"><ele>2555.3</ele><time>2026-03-08T10:54:08.000Z</time></trkpt>
<trkpt lat="42.09653" lon="23.57501"><ele>2555.3</ele><time>2026-03-08T10:54:09.000Z</time></trkpt>
<trkpt lat="42.096531" lon="23.57501"><ele>2555.3</ele><time>2026-03-08T10:54:10.000Z</time></trkpt>
<trkpt lat="42.096531" lon="23.57501"><ele>2555.3</ele><time>2026-03-08T10:54:11.000Z</time></trkpt>
<trkpt lat="42.096531" lon="23.57501"><ele>2555.4</ele><time>2026-03-08T10:54:12.000Z</time></trkpt>
<trkpt lat="42.096531" lon="23.57501"><ele>2555.4</ele><time>2026-03-08T10:54:13.000Z</time></trkpt>
<trkpt lat="42.096531" lon="23.57501"><ele>2555.4</ele><time>2026-03-08T10:54:14.000Z</time></trkpt>
<trkpt lat="42.096531" lon="23.57501"><ele>2555.4</ele><time>2026-03-08T10:54:15.000Z</time></trkpt>
<trkpt lat="42.096531" lon="23.57501"><ele>2555.4</ele><time>2026-03-08T10:54:16.000Z</time></trkpt>
<trkpt lat="42.096531" lon="23.575011"><ele>2555.5</ele><time>2026-03-08T10:54:17.000Z</time></trkpt>
<trkpt lat="42.096531" lon="23.575011"><ele>2555.5</ele><time>2026-03-08T10:54:18.000Z</time></trkpt>
<trkpt lat="42.096531" lon="23.575011"><ele>2555.5</ele><time>2026-03-08T10:54:19.000Z</time></trkpt>
<trkpt lat="42.096532" lon="23.575012"><ele>2555.5</ele><time>2026-03-08T10:54:20.000Z</time></trkpt>
<trkpt lat="42.096532" lon="23.575012"><ele>2555.5</ele><time>2026-03-08T10:54:21.000Z</time></trkpt>
<trkpt lat="42.096532" lon="23.575012"><ele>2555.5</ele><time>2026-03-08T10:54:22.000Z</time></trkpt>
<trkpt lat="42.096532" lon="23.575012"><ele>2555.5</ele><time>2026-03-08T10:54:23.000Z</time></trkpt>
<trkpt lat="42.096531" lon="23.575011"><ele>2555.5</ele><time>2026-03-08T10:54:24.000Z</time></trkpt>
<trkpt lat="42.096531" lon="23.575011"><ele>2555.5</ele><time>2026-03-08T10:54:25.000Z</time></trkpt>
<trkpt lat="42.096531" lon="23.57501"><ele>2555.5</ele><time>2026-03-08T10:54:26.000Z</time></trkpt>
<trkpt lat="42.09653" lon="23.575009"><ele>2555.5</ele><time>2026-03-08T10:54:27.000Z</time></trkpt>
<trkpt lat="42.096531" lon="23.575005"><ele>2555.5</ele><time>2026-03-08T10:54:28.000Z</time></trkpt>
<trkpt lat="42.096532" lon="23.575001"><ele>2555.5</ele><time>2026-03-08T10:54:29.000Z</time></trkpt>
<trkpt lat="42.096533" lon="23.574998"><ele>2555.5</ele><time>2026-03-08T10:54:30.000Z</time></trkpt>
<trkpt lat="42.096534" lon="23.574993"><ele>2555.5</ele><time>2026-03-08T10:54:31.000Z</time></trkpt>
<trkpt lat="42.096536" lon="23.574988"><ele>2555.4</ele><time>2026-03-08T10:54:32.000Z</time></trkpt>
<trkpt lat="42.096538" lon="23.574984"><ele>2555.4</ele><time>2026-03-08T10:54:33.000Z</time></trkpt>
<trkpt lat="42.096541" lon="23.57498"><ele>2555.4</ele><time>2026-03-08T10:54:34.000Z</time></trkpt>
<trkpt lat="42.096546" lon="23.574974"><ele>2555.4</ele><time>2026-03-08T10:54:35.000Z</time></trkpt>
<trkpt lat="42.096552" lon="23.574968"><ele>2555.4</ele><time>2026-03-08T10:54:36.000Z</time></trkpt>
<trkpt lat="42.09656" lon="23.574961"><ele>2555.3</ele><time>2026-03-08T10:54:37.000Z</time></trkpt>
<trkpt lat="42.096568" lon="23.574955"><ele>2555.3</ele><time>2026-03-08T10:54:38.000Z</time></trkpt>
<trkpt lat="42.096577" lon="23.574949"><ele>2555.3</ele><time>2026-03-08T10:54:39.000Z</time></trkpt>
<trkpt lat="42.096585" lon="23.574945"><ele>2555.3</ele><time>2026-03-08T10:54:40.000Z</time></trkpt>
<trkpt lat="42.096592" lon="23.574943"><ele>2555.3</ele><time>2026-03-08T10:54:41.000Z</time></trkpt>
<trkpt lat="42.096599" lon="23.574943"><ele>2555.2</ele><time>2026-03-08T10:54:42.000Z</time></trkpt>
<trkpt lat="42.096606" lon="23.574944"><ele>2555.2</ele><time>2026-03-08T10:54:43.000Z</time></trkpt>
<trkpt lat="42.096613" lon="23.574947"><ele>2555.2</ele><time>2026-03-08T10:54:44.000Z</time></trkpt>
<trkpt lat="42.096619" lon="23.574951"><ele>2555.2</ele><time>2026-03-08T10:54:45.000Z</time></trkpt>
<trkpt lat="42.096624" lon="23.574956"><ele>2555.2</ele><time>2026-03-08T10:54:46.000Z</time></trkpt>
<trkpt lat="42.096628" lon="23.574959"><ele>2555.1</ele><time>2026-03-08T10:54:47.000Z</time></trkpt>
<trkpt lat="42.096629" lon="23.57496"><ele>2555.1</ele><time>2026-03-08T10:54:48.000Z</time></trkpt>
<trkpt lat="42.096629" lon="23.574961"><ele>2555.1</ele><time>2026-03-08T10:54:49.000Z</time></trkpt>
<trkpt lat="42.096628" lon="23.574959"><ele>2555.1</ele><time>2026-03-08T10:54:50.000Z</time></trkpt>
<trkpt lat="42.096627" lon="23.574957"><ele>2555.1</ele><time>2026-03-08T10:54:51.000Z</time></trkpt>
<trkpt lat="42.096626" lon="23.574956"><ele>2555.1</ele><time>2026-03-08T10:54:52.000Z</time></trkpt>
<trkpt lat="42.096625" lon="23.574955"><ele>2555.1</ele><time>2026-03-08T10:54:53.000Z</time></trkpt>
<trkpt lat="42.096625" lon="23.574955"><ele>2555.1</ele><time>2026-03-08T10:54:54.000Z</time></trkpt>
<trkpt lat="42.096625" lon="23.574955"><ele>2555.1</ele><time>2026-03-08T10:54:55.000Z</time></trkpt>
<trkpt lat="42.096625" lon="23.574955"><ele>2555.1</ele><time>2026-03-08T10:54:56.000Z</time></trkpt>
<trkpt lat="42.096625" lon="23.574955"><ele>2555.2</ele><time>2026-03-08T10:54:57.000Z</time></trkpt>
<trkpt lat="42.096625" lon="23.574955"><ele>2555.2</ele><time>2026-03-08T10:54:58.000Z</time></trkpt>
<trkpt lat="42.096625" lon="23.574955"><ele>2555.2</ele><time>2026-03-08T10:54:59.000Z</time></trkpt>
<trkpt lat="42.096625" lon="23.574955"><ele>2555.2</ele><time>2026-03-08T10:55:00.000Z</time></trkpt>
<trkpt lat="42.096625" lon="23.574955"><ele>2555.2</ele><time>2026-03-08T10:55:01.000Z</time></trkpt>
<trkpt lat="42.096624" lon="23.574956"><ele>2555.5</ele><time>2026-03-08T10:55:02.000Z</time></trkpt>
<trkpt lat="42.096624" lon="23.574956"><ele>2555.5</ele><time>2026-03-08T10:55:03.000Z</time></trkpt>
<trkpt lat="42.096623" lon="23.574958"><ele>2555.5</ele><time>2026-03-08T10:55:04.000Z</time></trkpt>
<trkpt lat="42.096623" lon="23.574959"><ele>2555.5</ele><time>2026-03-08T10:55:05.000Z</time></trkpt>
<trkpt lat="42.096622" lon="23.574959"><ele>2555.5</ele><time>2026-03-08T10:55:06.000Z</time></trkpt>
<trkpt lat="42.096622" lon="23.574959"><ele>2555.6</ele><time>2026-03-08T10:55:07.000Z</time></trkpt>
<trkpt lat="42.096622" lon="23.574959"><ele>2555.6</ele><time>2026-03-08T10:55:08.000Z</time></trkpt>
<trkpt lat="42.096621" lon="23.574958"><ele>2555.6</ele><time>2026-03-08T10:55:09.000Z</time></trkpt>
<trkpt lat="42.096621" lon="23.574957"><ele>2555.6</ele><time>2026-03-08T10:55:10.000Z</time></trkpt>
<trkpt lat="42.09662" lon="23.574957"><ele>2555.6</ele><time>2026-03-08T10:55:11.000Z</time></trkpt>
<trkpt lat="42.096619" lon="23.574957"><ele>2555.6</ele><time>2026-03-08T10:55:12.000Z</time></trkpt>
<trkpt lat="42.096618" lon="23.574956"><ele>2555.6</ele><time>2026-03-08T10:55:13.000Z</time></trkpt>
<trkpt lat="42.096617" lon="23.574956"><ele>2555.6</ele><time>2026-03-08T10:55:14.000Z</time></trkpt>
<trkpt lat="42.096617" lon="23.574956"><ele>2555.6</ele><time>2026-03-08T10:55:15.000Z</time></trkpt>
<trkpt lat="42.096616" lon="23.574956"><ele>2555.6</ele><time>2026-03-08T10:55:16.000Z</time></trkpt>
<trkpt lat="42.096616" lon="23.574956"><ele>2555.7</ele><time>2026-03-08T10:55:17.000Z</time></trkpt>
<trkpt lat="42.096616" lon="23.574956"><ele>2555.7</ele><time>2026-03-08T10:55:18.000Z</time></trkpt>
<trkpt lat="42.096616" lon="23.574956"><ele>2555.7</ele><time>2026-03-08T10:55:19.000Z</time></trkpt>
<trkpt lat="42.096616" lon="23.574956"><ele>2555.7</ele><time>2026-03-08T10:55:20.000Z</time></trkpt>
<trkpt lat="42.096616" lon="23.574956"><ele>2555.7</ele><time>2026-03-08T10:55:21.000Z</time></trkpt>
<trkpt lat="42.096615" lon="23.574956"><ele>2555.6</ele><time>2026-03-08T10:55:22.000Z</time></trkpt>
<trkpt lat="42.096614" lon="23.574956"><ele>2555.6</ele><time>2026-03-08T10:55:23.000Z</time></trkpt>
<trkpt lat="42.096614" lon="23.574955"><ele>2555.6</ele><time>2026-03-08T10:55:24.000Z</time></trkpt>
<trkpt lat="42.096613" lon="23.574955"><ele>2555.6</ele><time>2026-03-08T10:55:25.000Z</time></trkpt>
<trkpt lat="42.096614" lon="23.574954"><ele>2555.6</ele><time>2026-03-08T10:55:26.000Z</time></trkpt>
<trkpt lat="42.096616" lon="23.574955"><ele>2555.5</ele><time>2026-03-08T10:55:27.000Z</time></trkpt>
<trkpt lat="42.096618" lon="23.574955"><ele>2555.5</ele><time>2026-03-08T10:55:28.000Z</time></trkpt>
<trkpt lat="42.096621" lon="23.574956"><ele>2555.5</ele><time>2026-03-08T10:55:29.000Z</time></trkpt>
<trkpt lat="42.096624" lon="23.574957"><ele>2555.5</ele><time>2026-03-08T10:55:30.000Z</time></trkpt>
<trkpt lat="42.096626" lon="23.574959"><ele>2555.5</ele><time>2026-03-08T10:55:31.000Z</time></trkpt>
<trkpt lat="42.096629" lon="23.574959"><ele>2555.2</ele><time>2026-03-08T10:55:32.000Z</time></trkpt>
<trkpt lat="42.096631" lon="23.574959"><ele>2555.2</ele><time>2026-03-08T10:55:33.000Z</time></trkpt>
<trkpt lat="42.096633" lon="23.574959"><ele>2555.2</ele><time>2026-03-08T10:55:34.000Z</time></trkpt>
<trkpt lat="42.096635" lon="23.574959"><ele>2555.2</ele><time>2026-03-08T10:55:35.000Z</time></trkpt>
<trkpt lat="42.096635" lon="23.574957"><ele>2555.2</ele><time>2026-03-08T10:55:36.000Z</time></trkpt>
<trkpt lat="42.096632" lon="23.574955"><ele>2555.1</ele><time>2026-03-08T10:55:37.000Z</time></trkpt>
<trkpt lat="42.096627" lon="23.574952"><ele>2555.1</ele><time>2026-03-08T10:55:38.000Z</time></trkpt>
<trkpt lat="42.09662" lon="23.574947"><ele>2555.1</ele><time>2026-03-08T10:55:39.000Z</time></trkpt>
<trkpt lat="42.096612" lon="23.574943"><ele>2555.1</ele><time>2026-03-08T10:55:40.000Z</time></trkpt>
<trkpt lat="42.096605" lon="23.574939"><ele>2555.1</ele><time>2026-03-08T10:55:41.000Z</time></trkpt>
<trkpt lat="42.096598" lon="23.574937"><ele>2555.2</ele><time>2026-03-08T10:55:42.000Z</time></trkpt>
<trkpt lat="42.096591" lon="23.574937"><ele>2555.2</ele><time>2026-03-08T10:55:43.000Z</time></trkpt>
<trkpt lat="42.096586" lon="23.574937"><ele>2555.2</ele><time>2026-03-08T10:55:44.000Z</time></trkpt>
<trkpt lat="42.09658" lon="23.574939"><ele>2555.2</ele><time>2026-03-08T10:55:45.000Z</time></trkpt>
<trkpt lat="42.096572" lon="23.574943"><ele>2555.2</ele><time>2026-03-08T10:55:46.000Z</time></trkpt>
<trkpt lat="42.096566" lon="23.574947"><ele>2555.3</ele><time>2026-03-08T10:55:47.000Z</time></trkpt>
<trkpt lat="42.096559" lon="23.574952"><ele>2555.3</ele><time>2026-03-08T10:55:48.000Z</time></trkpt>
<trkpt lat="42.096552" lon="23.574957"><ele>2555.3</ele><time>2026-03-08T10:55:49.000Z</time></trkpt>
<trkpt lat="42.096546" lon="23.574962"><ele>2555.3</ele><time>2026-03-08T10:55:50.000Z</time></trkpt>
<trkpt lat="42.096541" lon="23.574968"><ele>2555.3</ele><time>2026-03-08T10:55:51.000Z</time></trkpt>
<trkpt lat="42.096536" lon="23.574974"><ele>2555.3</ele><time>2026-03-08T10:55:52.000Z</time></trkpt>
<trkpt lat="42.096531" lon="23.57498"><ele>2555.3</ele><time>2026-03-08T10:55:53.000Z</time></trkpt>
<trkpt lat="42.096528" lon="23.574985"><ele>2555.3</ele><time>2026-03-08T10:55:54.000Z</time></trkpt>
<trkpt lat="42.096526" lon="23.574991"><ele>2555.3</ele><time>2026-03-08T10:55:55.000Z</time></trkpt>
<trkpt lat="42.096526" lon="23.574998"><ele>2555.3</ele><time>2026-03-08T10:55:56.000Z</time></trkpt>
<trkpt lat="42.096526" lon="23.575003"><ele>2555.2</ele><time>2026-03-08T10:55:57.000Z</time></trkpt>
<trkpt lat="42.096527" lon="23.575006"><ele>2555.2</ele><time>2026-03-08T10:55:58.000Z</time></trkpt>
<trkpt lat="42.096528" lon="23.57501"><ele>2555.2</ele><time>2026-03-08T10:55:59.000Z</time></trkpt>
<trkpt lat="42.096527" lon="23.57501"><ele>2555.2</ele><time>2026-03-08T10:56:00.000Z</time></trkpt>
<trkpt lat="42.096525" lon="23.575011"><ele>2555.2</ele><time>2026-03-08T10:56:01.000Z</time></trkpt>
<trkpt lat="42.096523" lon="23.575011"><ele>2555.1</ele><time>2026-03-08T10:56:02.000Z</time></trkpt>
<trkpt lat="42.096522" lon="23.575012"><ele>2555.1</ele><time>2026-03-08T10:56:03.000Z</time></trkpt>
<trkpt lat="42.096521" lon="23.575014"><ele>2555.1</ele><time>2026-03-08T10:56:04.000Z</time></trkpt>
<trkpt lat="42.09652" lon="23.575017"><ele>2555.1</ele><time>2026-03-08T10:56:05.000Z</time></trkpt>
<trkpt lat="42.09652" lon="23.57502"><ele>2555.1</ele><time>2026-03-08T10:56:06.000Z</time></trkpt>
<trkpt lat="42.096521" lon="23.575021"><ele>2555.2</ele><time>2026-03-08T10:56:07.000Z</time></trkpt>
<trkpt lat="42.096522" lon="23.575022"><ele>2555.2</ele><time>2026-03-08T10:56:08.000Z</time></trkpt>
<trkpt lat="42.096522" lon="23.575022"><ele>2555.2</ele><time>2026-03-08T10:56:09.000Z</time></trkpt>
<trkpt lat="42.096522" lon="23.575021"><ele>2555.2</ele><time>2026-03-08T10:56:10.000Z</time></trkpt>
<trkpt lat="42.096522" lon="23.575019"><ele>2555.2</ele><time>2026-03-08T10:56:11.000Z</time></trkpt>
<trkpt lat="42.096523" lon="23.575018"><ele>2555.3</ele><time>2026-03-08T10:56:12.000Z</time></trkpt>
<trkpt lat="42.096523" lon="23.575017"><ele>2555.3</ele><time>2026-03-08T10:56:13.000Z</time></trkpt>
<trkpt lat="42.096524" lon="23.575015"><ele>2555.3</ele><time>2026-03-08T10:56:14.000Z</time></trkpt>
<trkpt lat="42.096525" lon="23.575012"><ele>2555.3</ele><time>2026-03-08T10:56:15.000Z</time></trkpt>
<trkpt lat="42.096524" lon="23.575009"><ele>2555.3</ele><time>2026-03-08T10:56:16.000Z</time></trkpt>
<trkpt lat="42.096523" lon="23.575006"><ele>2555.4</ele><time>2026-03-08T10:56:17.000Z</time></trkpt>
<trkpt lat="42.096522" lon="23.575005"><ele>2555.4</ele><time>2026-03-08T10:56:18.000Z</time></trkpt>
<trkpt lat="42.09652" lon="23.575002"><ele>2555.4</ele><time>2026-03-08T10:56:19.000Z</time></trkpt>
<trkpt lat="42.096517" lon="23.575002"><ele>2555.4</ele><time>2026-03-08T10:56:20.000Z</time></trkpt>
<trkpt lat="42.096516" lon="23.575002"><ele>2555.4</ele><time>2026-03-08T10:56:21.000Z</time></trkpt>
<trkpt lat="42.096516" lon="23.575002"><ele>2555.3</ele><time>2026-03-08T10:56:22.000Z</time></trkpt>
<trkpt lat="42.096515" lon="23.575002"><ele>2555.3</ele><time>2026-03-08T10:56:23.000Z</time></trkpt>
<trkpt lat="42.096515" lon="23.575003"><ele>2555.3</ele><time>2026-03-08T10:56:24.000Z</time></trkpt>
<trkpt lat="42.096516" lon="23.575003"><ele>2555.3</ele><time>2026-03-08T10:56:25.000Z</time></trkpt>
<trkpt lat="42.096517" lon="23.575003"><ele>2555.3</ele><time>2026-03-08T10:56:26.000Z</time></trkpt>
<trkpt lat="42.096518" lon="23.575004"><ele>2555.2</ele><time>2026-03-08T10:56:27.000Z</time></trkpt>
<trkpt lat="42.096518" lon="23.575003"><ele>2555.2</ele><time>2026-03-08T10:56:28.000Z</time></trkpt>
<trkpt lat="42.096519" lon="23.575003"><ele>2555.2</ele><time>2026-03-08T10:56:29.000Z</time></trkpt>
<trkpt lat="42.09652" lon="23.575003"><ele>2555.2</ele><time>2026-03-08T10:56:30.000Z</time></trkpt>
<trkpt lat="42.09652" lon="23.575003"><ele>2555.2</ele><time>2026-03-08T10:56:31.000Z</time></trkpt>
<trkpt lat="42.09652" lon="23.575004"><ele>2555.1</ele><time>2026-03-08T10:56:32.000Z</time></trkpt>
<trkpt lat="42.096519" lon="23.575005"><ele>2555.1</ele><time>2026-03-08T10:56:33.000Z</time></trkpt>
<trkpt lat="42.096519" lon="23.575006"><ele>2555.1</ele><time>2026-03-08T10:56:34.000Z</time></trkpt>
<trkpt lat="42.096519" lon="23.575007"><ele>2555.1</ele><time>2026-03-08T10:56:35.000Z</time></trkpt>
<trkpt lat="42.096518" lon="23.575007"><ele>2555.1</ele><time>2026-03-08T10:56:36.000Z</time></trkpt>
<trkpt lat="42.096517" lon="23.575007"><ele>2555.2</ele><time>2026-03-08T10:56:37.000Z</time></trkpt>
<trkpt lat="42.096516" lon="23.575007"><ele>2555.2</ele><time>2026-03-08T10:56:38.000Z</time></trkpt>
<trkpt lat="42.096515" lon="23.575007"><ele>2555.2</ele><time>2026-03-08T10:56:39.000Z</time></trkpt>
<trkpt lat="42.096514" lon="23.575007"><ele>2555.2</ele><time>2026-03-08T10:56:40.000Z</time></trkpt>
<trkpt lat="42.096514" lon="23.575007"><ele>2555.2</ele><time>2026-03-08T10:56:41.000Z</time></trkpt>
<trkpt lat="42.096514" lon="23.575007"><ele>2555.3</ele><time>2026-03-08T10:56:42.000Z</time></trkpt>
<trkpt lat="42.096514" lon="23.575006"><ele>2555.3</ele><time>2026-03-08T10:56:43.000Z</time></trkpt>
<trkpt lat="42.096514" lon="23.575006"><ele>2555.3</ele><time>2026-03-08T10:56:44.000Z</time></trkpt>
<trkpt lat="42.096514" lon="23.575005"><ele>2555.3</ele><time>2026-03-08T10:56:45.000Z</time></trkpt>
<trkpt lat="42.096514" lon="23.575004"><ele>2555.3</ele><time>2026-03-08T10:56:46.000Z</time></trkpt>
<trkpt lat="42.096515" lon="23.575004"><ele>2555.5</ele><time>2026-03-08T10:56:47.000Z</time></trkpt>
<trkpt lat="42.096515" lon="23.575004"><ele>2555.5</ele><time>2026-03-08T10:56:48.000Z</time></trkpt>
<trkpt lat="42.096515" lon="23.575004"><ele>2555.5</ele><time>2026-03-08T10:56:49.000Z</time></trkpt>
<trkpt lat="42.096515" lon="23.575004"><ele>2555.5</ele><time>2026-03-08T10:56:50.000Z</time></trkpt>
<trkpt lat="42.096515" lon="23.575004"><ele>2555.5</ele><time>2026-03-08T10:56:51.000Z</time></trkpt>
<trkpt lat="42.096515" lon="23.575004"><ele>2555.8</ele><time>2026-03-08T10:56:52.000Z</time></trkpt>
<trkpt lat="42.096516" lon="23.575003"><ele>2555.8</ele><time>2026-03-08T10:56:53.000Z</time></trkpt>
<trkpt lat="42.096517" lon="23.575001"><ele>2555.8</ele><time>2026-03-08T10:56:54.000Z</time></trkpt>
<trkpt lat="42.096518" lon="23.575"><ele>2555.8</ele><time>2026-03-08T10:56:55.000Z</time></trkpt>
<trkpt lat="42.096519" lon="23.574999"><ele>2555.8</ele><time>2026-03-08T10:56:56.000Z</time></trkpt>
<trkpt lat="42.09652" lon="23.574998"><ele>2555.9</ele><time>2026-03-08T10:56:57.000Z</time></trkpt>
<trkpt lat="42.09652" lon="23.574998"><ele>2555.9</ele><time>2026-03-08T10:56:58.000Z</time></trkpt>
<trkpt lat="42.09652" lon="23.574998"><ele>2555.9</ele><time>2026-03-08T10:56:59.000Z</time></trkpt>
<trkpt lat="42.09652" lon="23.574999"><ele>2555.9</ele><time>2026-03-08T10:57:00.000Z</time></trkpt>
<trkpt lat="42.096521" lon="23.574999"><ele>2555.9</ele><time>2026-03-08T10:57:01.000Z</time></trkpt>
<trkpt lat="42.096521" lon="23.574999"><ele>2555.8</ele><time>2026-03-08T10:57:02.000Z</time></trkpt>
<trkpt lat="42.096521" lon="23.574999"><ele>2555.8</ele><time>2026-03-08T10:57:03.000Z</time></trkpt>
<trkpt lat="42.096521" lon="23.574999"><ele>2555.8</ele><time>2026-03-08T10:57:04.000Z</time></trkpt>
<trkpt lat="42.096521" lon="23.574999"><ele>2555.8</ele><time>2026-03-08T10:57:05.000Z</time></trkpt>
<trkpt lat="42.096521" lon="23.574999"><ele>2555.8</ele><time>2026-03-08T10:57:06.000Z</time></trkpt>
<trkpt lat="42.096521" lon="23.574999"><ele>2555.3</ele><time>2026-03-08T10:57:07.000Z</time></trkpt>
<trkpt lat="42.096521" lon="23.574999"><ele>2555.3</ele><time>2026-03-08T10:57:08.000Z</time></trkpt>
<trkpt lat="42.096521" lon="23.574999"><ele>2555.3</ele><time>2026-03-08T10:57:09.000Z</time></trkpt>
<trkpt lat="42.096521" lon="23.574999"><ele>2555.3</ele><time>2026-03-08T10:57:10.000Z</time></trkpt>
<trkpt lat="42.096521" lon="23.574998"><ele>2555.3</ele><time>2026-03-08T10:57:11.000Z</time></trkpt>
<trkpt lat="42.096522" lon="23.574998"><ele>2555</ele><time>2026-03-08T10:57:12.000Z</time></trkpt>
<trkpt lat="42.096522" lon="23.574997"><ele>2555</ele><time>2026-03-08T10:57:13.000Z</time></trkpt>
<trkpt lat="42.096523" lon="23.574995"><ele>2555</ele><time>2026-03-08T10:57:14.000Z</time></trkpt>
<trkpt lat="42.096525" lon="23.574994"><ele>2555</ele><time>2026-03-08T10:57:15.000Z</time></trkpt>
<trkpt lat="42.096526" lon="23.574993"><ele>2555</ele><time>2026-03-08T10:57:16.000Z</time></trkpt>
<trkpt lat="42.096526" lon="23.574992"><ele>2554.7</ele><time>2026-03-08T10:57:17.000Z</time></trkpt>
<trkpt lat="42.096526" lon="23.574992"><ele>2554.7</ele><time>2026-03-08T10:57:18.000Z</time></trkpt>
<trkpt lat="42.096526" lon="23.574991"><ele>2554.7</ele><time>2026-03-08T10:57:19.000Z</time></trkpt>
<trkpt lat="42.096526" lon="23.574991"><ele>2554.7</ele><time>2026-03-08T10:57:20.000Z</time></trkpt>
<trkpt lat="42.096525" lon="23.574991"><ele>2554.7</ele><time>2026-03-08T10:57:21.000Z</time></trkpt>
<trkpt lat="42.096525" lon="23.574991"><ele>2555</ele><time>2026-03-08T10:57:22.000Z</time></trkpt>
<trkpt lat="42.096525" lon="23.574991"><ele>2555</ele><time>2026-03-08T10:57:23.000Z</time></trkpt>
<trkpt lat="42.096525" lon="23.574991"><ele>2555</ele><time>2026-03-08T10:57:24.000Z</time></trkpt>
<trkpt lat="42.096525" lon="23.574991"><ele>2555</ele><time>2026-03-08T10:57:25.000Z</time></trkpt>
<trkpt lat="42.096525" lon="23.574991"><ele>2555</ele><time>2026-03-08T10:57:26.000Z</time></trkpt>
<trkpt lat="42.096525" lon="23.574991"><ele>2555.1</ele><time>2026-03-08T10:57:27.000Z</time></trkpt>
<trkpt lat="42.096525" lon="23.574991"><ele>2555.1</ele><time>2026-03-08T10:57:28.000Z</time></trkpt>
<trkpt lat="42.096525" lon="23.574991"><ele>2555.1</ele><time>2026-03-08T10:57:29.000Z</time></trkpt>
<trkpt lat="42.096525" lon="23.574991"><ele>2555.1</ele><time>2026-03-08T10:57:30.000Z</time></trkpt>
<trkpt lat="42.096525" lon="23.574991"><ele>2555.1</ele><time>2026-03-08T10:57:31.000Z</time></trkpt>
<trkpt lat="42.096525" lon="23.574991"><ele>2555.1</ele><time>2026-03-08T10:57:32.000Z</time></trkpt>
<trkpt lat="42.096525" lon="23.574991"><ele>2555.1</ele><time>2026-03-08T10:57:33.000Z</time></trkpt>
<trkpt lat="42.096525" lon="23.574991"><ele>2555.1</ele><time>2026-03-08T10:57:34.000Z</time></trkpt>
<trkpt lat="42.096525" lon="23.574991"><ele>2555.1</ele><time>2026-03-08T10:57:35.000Z</time></trkpt>
<trkpt lat="42.096525" lon="23.574991"><ele>2555.1</ele><time>2026-03-08T10:57:36.000Z</time></trkpt>
<trkpt lat="42.096525" lon="23.574991"><ele>2554.9</ele><time>2026-03-08T10:57:37.000Z</time></trkpt>
<trkpt lat="42.096525" lon="23.57499"><ele>2554.9</ele><time>2026-03-08T10:57:38.000Z</time></trkpt>
<trkpt lat="42.096526" lon="23.574991"><ele>2554.9</ele><time>2026-03-08T10:57:39.000Z</time></trkpt>
<trkpt lat="42.096526" lon="23.574991"><ele>2554.9</ele><time>2026-03-08T10:57:40.000Z</time></trkpt>
<trkpt lat="42.096527" lon="23.574991"><ele>2554.9</ele><time>2026-03-08T10:57:41.000Z</time></trkpt>
<trkpt lat="42.096528" lon="23.574992"><ele>2554.9</ele><time>2026-03-08T10:57:42.000Z</time></trkpt>
<trkpt lat="42.096528" lon="23.574992"><ele>2554.9</ele><time>2026-03-08T10:57:43.000Z</time></trkpt>
<trkpt lat="42.096528" lon="23.574992"><ele>2554.9</ele><time>2026-03-08T10:57:44.000Z</time></trkpt>
<trkpt lat="42.096528" lon="23.574992"><ele>2554.9</ele><time>2026-03-08T10:57:45.000Z</time></trkpt>
<trkpt lat="42.096528" lon="23.574992"><ele>2554.9</ele><time>2026-03-08T10:57:46.000Z</time></trkpt>
<trkpt lat="42.096527" lon="23.574993"><ele>2555.2</ele><time>2026-03-08T10:57:47.000Z</time></trkpt>
<trkpt lat="42.096526" lon="23.574994"><ele>2555.2</ele><time>2026-03-08T10:57:48.000Z</time></trkpt>
<trkpt lat="42.096524" lon="23.574997"><ele>2555.2</ele><time>2026-03-08T10:57:49.000Z</time></trkpt>
<trkpt lat="42.096522" lon="23.574999"><ele>2555.2</ele><time>2026-03-08T10:57:50.000Z</time></trkpt>
<trkpt lat="42.09652" lon="23.575001"><ele>2555.2</ele><time>2026-03-08T10:57:51.000Z</time></trkpt>
<trkpt lat="42.096519" lon="23.575003"><ele>2555.4</ele><time>2026-03-08T10:57:52.000Z</time></trkpt>
<trkpt lat="42.096519" lon="23.575005"><ele>2555.4</ele><time>2026-03-08T10:57:53.000Z</time></trkpt>
<trkpt lat="42.096519" lon="23.575006"><ele>2555.4</ele><time>2026-03-08T10:57:54.000Z</time></trkpt>
<trkpt lat="42.096519" lon="23.575006"><ele>2555.4</ele><time>2026-03-08T10:57:55.000Z</time></trkpt>
<trkpt lat="42.096519" lon="23.575007"><ele>2555.4</ele><time>2026-03-08T10:57:56.000Z</time></trkpt>
<trkpt lat="42.09652" lon="23.575007"><ele>2555.4</ele><time>2026-03-08T10:57:57.000Z</time></trkpt>
<trkpt lat="42.09652" lon="23.575007"><ele>2555.4</ele><time>2026-03-08T10:57:58.000Z</time></trkpt>
<trkpt lat="42.09652" lon="23.575007"><ele>2555.4</ele><time>2026-03-08T10:57:59.000Z</time></trkpt>
<trkpt lat="42.09652" lon="23.575008"><ele>2555.4</ele><time>2026-03-08T10:58:00.000Z</time></trkpt>
<trkpt lat="42.096521" lon="23.575008"><ele>2555.4</ele><time>2026-03-08T10:58:01.000Z</time></trkpt>
<trkpt lat="42.096521" lon="23.575008"><ele>2555.2</ele><time>2026-03-08T10:58:02.000Z</time></trkpt>
<trkpt lat="42.096521" lon="23.575008"><ele>2555.2</ele><time>2026-03-08T10:58:03.000Z</time></trkpt>
<trkpt lat="42.096521" lon="23.575008"><ele>2555.2</ele><time>2026-03-08T10:58:04.000Z</time></trkpt>
<trkpt lat="42.096521" lon="23.575008"><ele>2555.2</ele><time>2026-03-08T10:58:05.000Z</time></trkpt>
<trkpt lat="42.096521" lon="23.575008"><ele>2555.2</ele><time>2026-03-08T10:58:06.000Z</time></trkpt>
<trkpt lat="42.096521" lon="23.575008"><ele>2554.9</ele><time>2026-03-08T10:58:07.000Z</time></trkpt>
<trkpt lat="42.096521" lon="23.575008"><ele>2554.9</ele><time>2026-03-08T10:58:08.000Z</time></trkpt>
<trkpt lat="42.096521" lon="23.575008"><ele>2554.9</ele><time>2026-03-08T10:58:09.000Z</time></trkpt>
<trkpt lat="42.096521" lon="23.575007"><ele>2554.9</ele><time>2026-03-08T10:58:10.000Z</time></trkpt>
<trkpt lat="42.096521" lon="23.575007"><ele>2554.9</ele><time>2026-03-08T10:58:11.000Z</time></trkpt>
<trkpt lat="42.096521" lon="23.575007"><ele>2554.8</ele><time>2026-03-08T10:58:12.000Z</time></trkpt>
<trkpt lat="42.096522" lon="23.575006"><ele>2554.8</ele><time>2026-03-08T10:58:13.000Z</time></trkpt>
<trkpt lat="42.096521" lon="23.575005"><ele>2554.8</ele><time>2026-03-08T10:58:14.000Z</time></trkpt>
<trkpt lat="42.096519" lon="23.575004"><ele>2554.8</ele><time>2026-03-08T10:58:15.000Z</time></trkpt>
<trkpt lat="42.096516" lon="23.575002"><ele>2554.8</ele><time>2026-03-08T10:58:16.000Z</time></trkpt>
<trkpt lat="42.096512" lon="23.575"><ele>2554.9</ele><time>2026-03-08T10:58:17.000Z</time></trkpt>
<trkpt lat="42.096508" lon="23.574999"><ele>2554.9</ele><time>2026-03-08T10:58:18.000Z</time></trkpt>
<trkpt lat="42.096505" lon="23.574999"><ele>2554.9</ele><time>2026-03-08T10:58:19.000Z</time></trkpt>
<trkpt lat="42.096503" lon="23.574998"><ele>2554.9</ele><time>2026-03-08T10:58:20.000Z</time></trkpt>
<trkpt lat="42.096502" lon="23.574999"><ele>2554.9</ele><time>2026-03-08T10:58:21.000Z</time></trkpt>
<trkpt lat="42.096502" lon="23.574999"><ele>2555.2</ele><time>2026-03-08T10:58:22.000Z</time></trkpt>
<trkpt lat="42.096502" lon="23.574999"><ele>2555.2</ele><time>2026-03-08T10:58:23.000Z</time></trkpt>
<trkpt lat="42.096502" lon="23.574999"><ele>2555.2</ele><time>2026-03-08T10:58:24.000Z</time></trkpt>
<trkpt lat="42.096502" lon="23.574999"><ele>2555.2</ele><time>2026-03-08T10:58:25.000Z</time></trkpt>
<trkpt lat="42.096502" lon="23.574999"><ele>2555.2</ele><time>2026-03-08T10:58:26.000Z</time></trkpt>
<trkpt lat="42.096502" lon="23.574999"><ele>2555.3</ele><time>2026-03-08T10:58:27.000Z</time></trkpt>
<trkpt lat="42.096502" lon="23.574999"><ele>2555.3</ele><time>2026-03-08T10:58:28.000Z</time></trkpt>
<trkpt lat="42.096502" lon="23.574999"><ele>2555.3</ele><time>2026-03-08T10:58:29.000Z</time></trkpt>
<trkpt lat="42.096503" lon="23.575"><ele>2555.3</ele><time>2026-03-08T10:58:30.000Z</time></trkpt>
<trkpt lat="42.096503" lon="23.574999"><ele>2555.3</ele><time>2026-03-08T10:58:31.000Z</time></trkpt>
<trkpt lat="42.096505" lon="23.575"><ele>2555.6</ele><time>2026-03-08T10:58:32.000Z</time></trkpt>
<trkpt lat="42.096506" lon="23.575"><ele>2555.6</ele><time>2026-03-08T10:58:33.000Z</time></trkpt>
<trkpt lat="42.096507" lon="23.575"><ele>2555.6</ele><time>2026-03-08T10:58:34.000Z</time></trkpt>
<trkpt lat="42.096507" lon="23.575"><ele>2555.6</ele><time>2026-03-08T10:58:35.000Z</time></trkpt>
<trkpt lat="42.096508" lon="23.575"><ele>2555.6</ele><time>2026-03-08T10:58:36.000Z</time></trkpt>
<trkpt lat="42.096508" lon="23.574999"><ele>2555.7</ele><time>2026-03-08T10:58:37.000Z</time></trkpt>
<trkpt lat="42.09651" lon="23.574999"><ele>2555.7</ele><time>2026-03-08T10:58:38.000Z</time></trkpt>
<trkpt lat="42.096511" lon="23.574998"><ele>2555.7</ele><time>2026-03-08T10:58:39.000Z</time></trkpt>
<trkpt lat="42.096512" lon="23.574997"><ele>2555.7</ele><time>2026-03-08T10:58:40.000Z</time></trkpt>
<trkpt lat="42.096514" lon="23.574997"><ele>2555.7</ele><time>2026-03-08T10:58:41.000Z</time></trkpt>
<trkpt lat="42.096514" lon="23.574996"><ele>2555.7</ele><time>2026-03-08T10:58:42.000Z</time></trkpt>
<trkpt lat="42.096514" lon="23.574996"><ele>2555.7</ele><time>2026-03-08T10:58:43.000Z</time></trkpt>
<trkpt lat="42.096514" lon="23.574996"><ele>2555.7</ele><time>2026-03-08T10:58:44.000Z</time></trkpt>
<trkpt lat="42.096514" lon="23.574996"><ele>2555.7</ele><time>2026-03-08T10:58:45.000Z</time></trkpt>
<trkpt lat="42.096514" lon="23.574996"><ele>2555.7</ele><time>2026-03-08T10:58:46.000Z</time></trkpt>
<trkpt lat="42.096514" lon="23.574994"><ele>2555.6</ele><time>2026-03-08T10:58:47.000Z</time></trkpt>
<trkpt lat="42.096514" lon="23.574993"><ele>2555.6</ele><time>2026-03-08T10:58:48.000Z</time></trkpt>
<trkpt lat="42.096515" lon="23.574992"><ele>2555.6</ele><time>2026-03-08T10:58:49.000Z</time></trkpt>
<trkpt lat="42.096516" lon="23.574991"><ele>2555.6</ele><time>2026-03-08T10:58:50.000Z</time></trkpt>
<trkpt lat="42.096518" lon="23.57499"><ele>2555.6</ele><time>2026-03-08T10:58:51.000Z</time></trkpt>
<trkpt lat="42.096519" lon="23.574991"><ele>2555.7</ele><time>2026-03-08T10:58:52.000Z</time></trkpt>
<trkpt lat="42.096521" lon="23.574991"><ele>2555.7</ele><time>2026-03-08T10:58:53.000Z</time></trkpt>
<trkpt lat="42.096522" lon="23.574992"><ele>2555.7</ele><time>2026-03-08T10:58:54.000Z</time></trkpt>
<trkpt lat="42.096522" lon="23.574993"><ele>2555.7</ele><time>2026-03-08T10:58:55.000Z</time></trkpt>
<trkpt lat="42.096522" lon="23.574993"><ele>2555.7</ele><time>2026-03-08T10:58:56.000Z</time></trkpt>
<trkpt lat="42.096522" lon="23.574993"><ele>2555.6</ele><time>2026-03-08T10:58:57.000Z</time></trkpt>
<trkpt lat="42.096521" lon="23.574993"><ele>2555.6</ele><time>2026-03-08T10:58:58.000Z</time></trkpt>
<trkpt lat="42.096521" lon="23.574993"><ele>2555.6</ele><time>2026-03-08T10:58:59.000Z</time></trkpt>
<trkpt lat="42.096521" lon="23.574993"><ele>2555.6</ele><time>2026-03-08T10:59:00.000Z</time></trkpt>
<trkpt lat="42.096521" lon="23.574993"><ele>2555.6</ele><time>2026-03-08T10:59:01.000Z</time></trkpt>
<trkpt lat="42.096521" lon="23.574994"><ele>2555.5</ele><time>2026-03-08T10:59:02.000Z</time></trkpt>
<trkpt lat="42.096521" lon="23.574995"><ele>2555.5</ele><time>2026-03-08T10:59:03.000Z</time></trkpt>
<trkpt lat="42.096521" lon="23.574996"><ele>2555.5</ele><time>2026-03-08T10:59:04.000Z</time></trkpt>
<trkpt lat="42.096522" lon="23.574997"><ele>2555.5</ele><time>2026-03-08T10:59:05.000Z</time></trkpt>
<trkpt lat="42.096522" lon="23.574997"><ele>2555.5</ele><time>2026-03-08T10:59:06.000Z</time></trkpt>
<trkpt lat="42.096522" lon="23.574997"><ele>2555.4</ele><time>2026-03-08T10:59:07.000Z</time></trkpt>
<trkpt lat="42.096522" lon="23.574997"><ele>2555.4</ele><time>2026-03-08T10:59:08.000Z</time></trkpt>
<trkpt lat="42.096522" lon="23.574997"><ele>2555.4</ele><time>2026-03-08T10:59:09.000Z</time></trkpt>
<trkpt lat="42.096522" lon="23.574997"><ele>2555.4</ele><time>2026-03-08T10:59:10.000Z</time></trkpt>
<trkpt lat="42.096522" lon="23.574997"><ele>2555.4</ele><time>2026-03-08T10:59:11.000Z</time></trkpt>
<trkpt lat="42.096522" lon="23.574996"><ele>2555.5</ele><time>2026-03-08T10:59:12.000Z</time></trkpt>
<trkpt lat="42.096522" lon="23.574996"><ele>2555.5</ele><time>2026-03-08T10:59:13.000Z</time></trkpt>
<trkpt lat="42.096522" lon="23.574995"><ele>2555.5</ele><time>2026-03-08T10:59:14.000Z</time></trkpt>
<trkpt lat="42.096522" lon="23.574995"><ele>2555.5</ele><time>2026-03-08T10:59:15.000Z</time></trkpt>
<trkpt lat="42.096522" lon="23.574995"><ele>2555.5</ele><time>2026-03-08T10:59:16.000Z</time></trkpt>
<trkpt lat="42.096522" lon="23.574995"><ele>2555.6</ele><time>2026-03-08T10:59:17.000Z</time></trkpt>
<trkpt lat="42.096522" lon="23.574995"><ele>2555.6</ele><time>2026-03-08T10:59:18.000Z</time></trkpt>
<trkpt lat="42.096522" lon="23.574995"><ele>2555.6</ele><time>2026-03-08T10:59:19.000Z</time></trkpt>
<trkpt lat="42.096522" lon="23.574995"><ele>2555.6</ele><time>2026-03-08T10:59:20.000Z</time></trkpt>
<trkpt lat="42.096522" lon="23.574995"><ele>2555.6</ele><time>2026-03-08T10:59:21.000Z</time></trkpt>
<trkpt lat="42.096523" lon="23.574995"><ele>2555.7</ele><time>2026-03-08T10:59:22.000Z</time></trkpt>
<trkpt lat="42.096523" lon="23.574994"><ele>2555.7</ele><time>2026-03-08T10:59:23.000Z</time></trkpt>
<trkpt lat="42.096523" lon="23.574993"><ele>2555.7</ele><time>2026-03-08T10:59:24.000Z</time></trkpt>
<trkpt lat="42.096523" lon="23.574993"><ele>2555.7</ele><time>2026-03-08T10:59:25.000Z</time></trkpt>
<trkpt lat="42.096523" lon="23.574992"><ele>2555.7</ele><time>2026-03-08T10:59:26.000Z</time></trkpt>
<trkpt lat="42.096523" lon="23.574992"><ele>2555.8</ele><time>2026-03-08T10:59:27.000Z</time></trkpt>
<trkpt lat="42.096524" lon="23.574992"><ele>2555.8</ele><time>2026-03-08T10:59:28.000Z</time></trkpt>
<trkpt lat="42.096524" lon="23.574992"><ele>2555.8</ele><time>2026-03-08T10:59:29.000Z</time></trkpt>
<trkpt lat="42.096525" lon="23.574993"><ele>2555.8</ele><time>2026-03-08T10:59:30.000Z</time></trkpt>
<trkpt lat="42.096525" lon="23.574994"><ele>2555.8</ele><time>2026-03-08T10:59:31.000Z</time></trkpt>
<trkpt lat="42.096526" lon="23.574995"><ele>2555.7</ele><time>2026-03-08T10:59:32.000Z</time></trkpt>
<trkpt lat="42.096526" lon="23.574996"><ele>2555.7</ele><time>2026-03-08T10:59:33.000Z</time></trkpt>
<trkpt lat="42.096528" lon="23.574996"><ele>2555.7</ele><time>2026-03-08T10:59:34.000Z</time></trkpt>
<trkpt lat="42.096529" lon="23.574996"><ele>2555.7</ele><time>2026-03-08T10:59:35.000Z</time></trkpt>
<trkpt lat="42.09653" lon="23.574995"><ele>2555.7</ele><time>2026-03-08T10:59:36.000Z</time></trkpt>
<trkpt lat="42.096531" lon="23.574995"><ele>2555.5</ele><time>2026-03-08T10:59:37.000Z</time></trkpt>
<trkpt lat="42.096531" lon="23.574994"><ele>2555.5</ele><time>2026-03-08T10:59:38.000Z</time></trkpt>
<trkpt lat="42.096531" lon="23.574994"><ele>2555.5</ele><time>2026-03-08T10:59:39.000Z</time></trkpt>
<trkpt lat="42.096531" lon="23.574994"><ele>2555.5</ele><time>2026-03-08T10:59:40.000Z</time></trkpt>
<trkpt lat="42.096531" lon="23.574993"><ele>2555.5</ele><time>2026-03-08T10:59:41.000Z</time></trkpt>
<trkpt lat="42.096531" lon="23.574993"><ele>2555.5</ele><time>2026-03-08T10:59:42.000Z</time></trkpt>
<trkpt lat="42.09653" lon="23.574993"><ele>2555.5</ele><time>2026-03-08T10:59:43.000Z</time></trkpt>
<trkpt lat="42.09653" lon="23.574993"><ele>2555.5</ele><time>2026-03-08T10:59:44.000Z</time></trkpt>
<trkpt lat="42.096529" lon="23.574993"><ele>2555.5</ele><time>2026-03-08T10:59:45.000Z</time></trkpt>
<trkpt lat="42.096529" lon="23.574993"><ele>2555.5</ele><time>2026-03-08T10:59:46.000Z</time></trkpt>
<trkpt lat="42.096529" lon="23.574993"><ele>2555.5</ele><time>2026-03-08T10:59:47.000Z</time></trkpt>
<trkpt lat="42.096529" lon="23.574993"><ele>2555.5</ele><time>2026-03-08T10:59:48.000Z</time></trkpt>
<trkpt lat="42.096528" lon="23.574993"><ele>2555.5</ele><time>2026-03-08T10:59:49.000Z</time></trkpt>
<trkpt lat="42.096528" lon="23.574993"><ele>2555.5</ele><time>2026-03-08T10:59:50.000Z</time></trkpt>
<trkpt lat="42.096528" lon="23.574993"><ele>2555.5</ele><time>2026-03-08T10:59:51.000Z</time></trkpt>
<trkpt lat="42.096528" lon="23.574993"><ele>2555.5</ele><time>2026-03-08T10:59:52.000Z</time></trkpt>
<trkpt lat="42.096528" lon="23.574993"><ele>2555.5</ele><time>2026-03-08T10:59:53.000Z</time></trkpt>
<trkpt lat="42.096528" lon="23.574993"><ele>2555.5</ele><time>2026-03-08T10:59:54.000Z</time></trkpt>
<trkpt lat="42.096528" lon="23.574993"><ele>2555.5</ele><time>2026-03-08T10:59:55.000Z</time></trkpt>
<trkpt lat="42.096528" lon="23.574993"><ele>2555.5</ele><time>2026-03-08T10:59:56.000Z</time></trkpt>
<trkpt lat="42.096528" lon="23.574993"><ele>2555.4</ele><time>2026-03-08T10:59:57.000Z</time></trkpt>
<trkpt lat="42.096528" lon="23.574993"><ele>2555.4</ele><time>2026-03-08T10:59:58.000Z</time></trkpt>
<trkpt lat="42.096528" lon="23.574993"><ele>2555.4</ele><time>2026-03-08T10:59:59.000Z</time></trkpt>
<trkpt lat="42.096528" lon="23.574993"><ele>2555.4</ele><time>2026-03-08T11:00:00.000Z</time></trkpt>
<trkpt lat="42.096528" lon="23.574993"><ele>2555.4</ele><time>2026-03-08T11:00:01.000Z</time></trkpt>
<trkpt lat="42.096527" lon="23.574993"><ele>2555.4</ele><time>2026-03-08T11:00:02.000Z</time></trkpt>
<trkpt lat="42.096527" lon="23.574993"><ele>2555.4</ele><time>2026-03-08T11:00:03.000Z</time></trkpt>
<trkpt lat="42.096527" lon="23.574993"><ele>2555.4</ele><time>2026-03-08T11:00:04.000Z</time></trkpt>
<trkpt lat="42.096526" lon="23.574993"><ele>2555.4</ele><time>2026-03-08T11:00:05.000Z</time></trkpt>
<trkpt lat="42.096525" lon="23.574993"><ele>2555.4</ele><time>2026-03-08T11:00:06.000Z</time></trkpt>
<trkpt lat="42.096525" lon="23.574992"><ele>2555.4</ele><time>2026-03-08T11:00:07.000Z</time></trkpt>
<trkpt lat="42.096524" lon="23.574992"><ele>2555.4</ele><time>2026-03-08T11:00:08.000Z</time></trkpt>
<trkpt lat="42.096523" lon="23.574992"><ele>2555.4</ele><time>2026-03-08T11:00:09.000Z</time></trkpt>
<trkpt lat="42.096523" lon="23.574993"><ele>2555.4</ele><time>2026-03-08T11:00:10.000Z</time></trkpt>
<trkpt lat="42.096522" lon="23.574994"><ele>2555.4</ele><time>2026-03-08T11:00:11.000Z</time></trkpt>
<trkpt lat="42.096521" lon="23.574996"><ele>2555.5</ele><time>2026-03-08T11:00:12.000Z</time></trkpt>
<trkpt lat="42.096521" lon="23.574997"><ele>2555.5</ele><time>2026-03-08T11:00:13.000Z</time></trkpt>
<trkpt lat="42.09652" lon="23.574998"><ele>2555.5</ele><time>2026-03-08T11:00:14.000Z</time></trkpt>
<trkpt lat="42.09652" lon="23.574999"><ele>2555.5</ele><time>2026-03-08T11:00:15.000Z</time></trkpt>
<trkpt lat="42.09652" lon="23.574999"><ele>2555.5</ele><time>2026-03-08T11:00:16.000Z</time></trkpt>
<trkpt lat="42.096519" lon="23.575"><ele>2555.5</ele><time>2026-03-08T11:00:17.000Z</time></trkpt>
<trkpt lat="42.096519" lon="23.575002"><ele>2555.5</ele><time>2026-03-08T11:00:18.000Z</time></trkpt>
<trkpt lat="42.096519" lon="23.575004"><ele>2555.5</ele><time>2026-03-08T11:00:19.000Z</time></trkpt>
<trkpt lat="42.096518" lon="23.575008"><ele>2555.5</ele><time>2026-03-08T11:00:20.000Z</time></trkpt>
<trkpt lat="42.096518" lon="23.575011"><ele>2555.5</ele><time>2026-03-08T11:00:21.000Z</time></trkpt>
<trkpt lat="42.096517" lon="23.575013"><ele>2555.5</ele><time>2026-03-08T11:00:22.000Z</time></trkpt>
<trkpt lat="42.096517" lon="23.575014"><ele>2555.5</ele><time>2026-03-08T11:00:23.000Z</time></trkpt>
<trkpt lat="42.096518" lon="23.575014"><ele>2555.5</ele><time>2026-03-08T11:00:24.000Z</time></trkpt>
<trkpt lat="42.09652" lon="23.575012"><ele>2555.5</ele><time>2026-03-08T11:00:25.000Z</time></trkpt>
<trkpt lat="42.096522" lon="23.575011"><ele>2555.5</ele><time>2026-03-08T11:00:26.000Z</time></trkpt>
<trkpt lat="42.096523" lon="23.575009"><ele>2555.4</ele><time>2026-03-08T11:00:27.000Z</time></trkpt>
<trkpt lat="42.096525" lon="23.575008"><ele>2555.4</ele><time>2026-03-08T11:00:28.000Z</time></trkpt>
<trkpt lat="42.096525" lon="23.575008"><ele>2555.4</ele><time>2026-03-08T11:00:29.000Z</time></trkpt>
<trkpt lat="42.096526" lon="23.575008"><ele>2555.4</ele><time>2026-03-08T11:00:30.000Z</time></trkpt>
<trkpt lat="42.096527" lon="23.575009"><ele>2555.4</ele><time>2026-03-08T11:00:31.000Z</time></trkpt>
<trkpt lat="42.096527" lon="23.57501"><ele>2555.2</ele><time>2026-03-08T11:00:32.000Z</time></trkpt>
<trkpt lat="42.096528" lon="23.57501"><ele>2555.2</ele><time>2026-03-08T11:00:33.000Z</time></trkpt>
<trkpt lat="42.096528" lon="23.575011"><ele>2555.2</ele><time>2026-03-08T11:00:34.000Z</time></trkpt>
<trkpt lat="42.096527" lon="23.575014"><ele>2555.2</ele><time>2026-03-08T11:00:35.000Z</time></trkpt>
<trkpt lat="42.096527" lon="23.575017"><ele>2555.2</ele><time>2026-03-08T11:00:36.000Z</time></trkpt>
<trkpt lat="42.096526" lon="23.575019"><ele>2555.2</ele><time>2026-03-08T11:00:37.000Z</time></trkpt>
<trkpt lat="42.096526" lon="23.575021"><ele>2555.2</ele><time>2026-03-08T11:00:38.000Z</time></trkpt>
<trkpt lat="42.096527" lon="23.575022"><ele>2555.2</ele><time>2026-03-08T11:00:39.000Z</time></trkpt>
<trkpt lat="42.096527" lon="23.575022"><ele>2555.2</ele><time>2026-03-08T11:00:40.000Z</time></trkpt>
<trkpt lat="42.096528" lon="23.575022"><ele>2555.2</ele><time>2026-03-08T11:00:41.000Z</time></trkpt>
<trkpt lat="42.096528" lon="23.575022"><ele>2555.2</ele><time>2026-03-08T11:00:42.000Z</time></trkpt>
<trkpt lat="42.096528" lon="23.575022"><ele>2555.2</ele><time>2026-03-08T11:00:43.000Z</time></trkpt>
<trkpt lat="42.096528" lon="23.575022"><ele>2555.2</ele><time>2026-03-08T11:00:44.000Z</time></trkpt>
<trkpt lat="42.096528" lon="23.575022"><ele>2555.2</ele><time>2026-03-08T11:00:45.000Z</time></trkpt>
<trkpt lat="42.096528" lon="23.575021"><ele>2555.2</ele><time>2026-03-08T11:00:46.000Z</time></trkpt>
<trkpt lat="42.096528" lon="23.57502"><ele>2555.2</ele><time>2026-03-08T11:00:47.000Z</time></trkpt>
<trkpt lat="42.096528" lon="23.575019"><ele>2555.2</ele><time>2026-03-08T11:00:48.000Z</time></trkpt>
<trkpt lat="42.096527" lon="23.575018"><ele>2555.2</ele><time>2026-03-08T11:00:49.000Z</time></trkpt>
<trkpt lat="42.096526" lon="23.575018"><ele>2555.2</ele><time>2026-03-08T11:00:50.000Z</time></trkpt>
<trkpt lat="42.096525" lon="23.575017"><ele>2555.2</ele><time>2026-03-08T11:00:51.000Z</time></trkpt>
<trkpt lat="42.096524" lon="23.575016"><ele>2555</ele><time>2026-03-08T11:00:52.000Z</time></trkpt>
<trkpt lat="42.096523" lon="23.575015"><ele>2555</ele><time>2026-03-08T11:00:53.000Z</time></trkpt>
<trkpt lat="42.096522" lon="23.575014"><ele>2555</ele><time>2026-03-08T11:00:54.000Z</time></trkpt>
<trkpt lat="42.096521" lon="23.575013"><ele>2555</ele><time>2026-03-08T11:00:55.000Z</time></trkpt>
<trkpt lat="42.09652" lon="23.575012"><ele>2555</ele><time>2026-03-08T11:00:56.000Z</time></trkpt>
<trkpt lat="42.09652" lon="23.575012"><ele>2555</ele><time>2026-03-08T11:00:57.000Z</time></trkpt>
<trkpt lat="42.096519" lon="23.575013"><ele>2555</ele><time>2026-03-08T11:00:58.000Z</time></trkpt>
<trkpt lat="42.096518" lon="23.575012"><ele>2555</ele><time>2026-03-08T11:00:59.000Z</time></trkpt>
<trkpt lat="42.096518" lon="23.575012"><ele>2555</ele><time>2026-03-08T11:01:00.000Z</time></trkpt>
<trkpt lat="42.096519" lon="23.575012"><ele>2555</ele><time>2026-03-08T11:01:01.000Z</time></trkpt>
<trkpt lat="42.096519" lon="23.575011"><ele>2555.2</ele><time>2026-03-08T11:01:02.000Z</time></trkpt>
<trkpt lat="42.09652" lon="23.57501"><ele>2555.2</ele><time>2026-03-08T11:01:03.000Z</time></trkpt>
<trkpt lat="42.09652" lon="23.575009"><ele>2555.2</ele><time>2026-03-08T11:01:04.000Z</time></trkpt>
<trkpt lat="42.096521" lon="23.575008"><ele>2555.2</ele><time>2026-03-08T11:01:05.000Z</time></trkpt>
<trkpt lat="42.09652" lon="23.575008"><ele>2555.2</ele><time>2026-03-08T11:01:06.000Z</time></trkpt>
<trkpt lat="42.096521" lon="23.575007"><ele>2555.6</ele><time>2026-03-08T11:01:07.000Z</time></trkpt>
<trkpt lat="42.096521" lon="23.575006"><ele>2555.6</ele><time>2026-03-08T11:01:08.000Z</time></trkpt>
<trkpt lat="42.096521" lon="23.575005"><ele>2555.6</ele><time>2026-03-08T11:01:09.000Z</time></trkpt>
<trkpt lat="42.096521" lon="23.575005"><ele>2555.6</ele><time>2026-03-08T11:01:10.000Z</time></trkpt>
<trkpt lat="42.09652" lon="23.575005"><ele>2555.6</ele><time>2026-03-08T11:01:11.000Z</time></trkpt>
<trkpt lat="42.09652" lon="23.575004"><ele>2555.6</ele><time>2026-03-08T11:01:12.000Z</time></trkpt>
<trkpt lat="42.096519" lon="23.575003"><ele>2555.6</ele><time>2026-03-08T11:01:13.000Z</time></trkpt>
<trkpt lat="42.096519" lon="23.575001"><ele>2555.6</ele><time>2026-03-08T11:01:14.000Z</time></trkpt>
<trkpt lat="42.096519" lon="23.575"><ele>2555.6</ele><time>2026-03-08T11:01:15.000Z</time></trkpt>
<trkpt lat="42.09652" lon="23.574997"><ele>2555.6</ele><time>2026-03-08T11:01:16.000Z</time></trkpt>
<trkpt lat="42.096521" lon="23.574996"><ele>2555.4</ele><time>2026-03-08T11:01:17.000Z</time></trkpt>
<trkpt lat="42.096523" lon="23.574995"><ele>2555.4</ele><time>2026-03-08T11:01:18.000Z</time></trkpt>
<trkpt lat="42.096525" lon="23.574993"><ele>2555.4</ele><time>2026-03-08T11:01:19.000Z</time></trkpt>
<trkpt lat="42.096528" lon="23.574989"><ele>2555.4</ele><time>2026-03-08T11:01:20.000Z</time></trkpt>
<trkpt lat="42.096532" lon="23.574985"><ele>2555.4</ele><time>2026-03-08T11:01:21.000Z</time></trkpt>
<trkpt lat="42.096537" lon="23.57498"><ele>2555.2</ele><time>2026-03-08T11:01:22.000Z</time></trkpt>
<trkpt lat="42.096543" lon="23.574974"><ele>2555.2</ele><time>2026-03-08T11:01:23.000Z</time></trkpt>
<trkpt lat="42.09655" lon="23.574969"><ele>2555.2</ele><time>2026-03-08T11:01:24.000Z</time></trkpt>
<trkpt lat="42.096556" lon="23.574965"><ele>2555.2</ele><time>2026-03-08T11:01:25.000Z</time></trkpt>
<trkpt lat="42.096563" lon="23.574961"><ele>2555.2</ele><time>2026-03-08T11:01:26.000Z</time></trkpt>
<trkpt lat="42.09657" lon="23.574957"><ele>2555.2</ele><time>2026-03-08T11:01:27.000Z</time></trkpt>
<trkpt lat="42.096578" lon="23.574953"><ele>2555.2</ele><time>2026-03-08T11:01:28.000Z</time></trkpt>
<trkpt lat="42.096585" lon="23.574949"><ele>2555.2</ele><time>2026-03-08T11:01:29.000Z</time></trkpt>
<trkpt lat="42.096593" lon="23.574946"><ele>2555.2</ele><time>2026-03-08T11:01:30.000Z</time></trkpt>
<trkpt lat="42.096601" lon="23.574946"><ele>2555.2</ele><time>2026-03-08T11:01:31.000Z</time></trkpt>
<trkpt lat="42.096608" lon="23.574948"><ele>2555.3</ele><time>2026-03-08T11:01:32.000Z</time></trkpt>
<trkpt lat="42.096614" lon="23.574951"><ele>2555.3</ele><time>2026-03-08T11:01:33.000Z</time></trkpt>
<trkpt lat="42.096618" lon="23.574956"><ele>2555.3</ele><time>2026-03-08T11:01:34.000Z</time></trkpt>
<trkpt lat="42.09662" lon="23.574959"><ele>2555.3</ele><time>2026-03-08T11:01:35.000Z</time></trkpt>
<trkpt lat="42.09662" lon="23.574961"><ele>2555.3</ele><time>2026-03-08T11:01:36.000Z</time></trkpt>
<trkpt lat="42.09662" lon="23.574961"><ele>2555.5</ele><time>2026-03-08T11:01:37.000Z</time></trkpt>
<trkpt lat="42.096618" lon="23.574961"><ele>2555.5</ele><time>2026-03-08T11:01:38.000Z</time></trkpt>
<trkpt lat="42.096616" lon="23.57496"><ele>2555.5</ele><time>2026-03-08T11:01:39.000Z</time></trkpt>
<trkpt lat="42.096615" lon="23.574957"><ele>2555.5</ele><time>2026-03-08T11:01:40.000Z</time></trkpt>
<trkpt lat="42.096614" lon="23.574955"><ele>2555.5</ele><time>2026-03-08T11:01:41.000Z</time></trkpt>
<trkpt lat="42.096612" lon="23.574951"><ele>2555.6</ele><time>2026-03-08T11:01:42.000Z</time></trkpt>
<trkpt lat="42.096612" lon="23.574948"><ele>2555.6</ele><time>2026-03-08T11:01:43.000Z</time></trkpt>
<trkpt lat="42.096612" lon="23.574945"><ele>2555.6</ele><time>2026-03-08T11:01:44.000Z</time></trkpt>
<trkpt lat="42.096612" lon="23.574942"><ele>2555.6</ele><time>2026-03-08T11:01:45.000Z</time></trkpt>
<trkpt lat="42.096612" lon="23.574941"><ele>2555.6</ele><time>2026-03-08T11:01:46.000Z</time></trkpt>
<trkpt lat="42.096612" lon="23.574939"><ele>2556</ele><time>2026-03-08T11:01:47.000Z</time></trkpt>
<trkpt lat="42.096612" lon="23.574935"><ele>2556</ele><time>2026-03-08T11:01:48.000Z</time></trkpt>
<trkpt lat="42.096613" lon="23.574932"><ele>2556</ele><time>2026-03-08T11:01:49.000Z</time></trkpt>
<trkpt lat="42.096614" lon="23.574927"><ele>2556</ele><time>2026-03-08T11:01:50.000Z</time></trkpt>
<trkpt lat="42.096615" lon="23.574921"><ele>2556</ele><time>2026-03-08T11:01:51.000Z</time></trkpt>
<trkpt lat="42.096617" lon="23.574913"><ele>2556.3</ele><time>2026-03-08T11:01:52.000Z</time></trkpt>
<trkpt lat="42.096619" lon="23.574906"><ele>2556.3</ele><time>2026-03-08T11:01:53.000Z</time></trkpt>
<trkpt lat="42.09662" lon="23.574899"><ele>2556.3</ele><time>2026-03-08T11:01:54.000Z</time></trkpt>
<trkpt lat="42.096624" lon="23.574893"><ele>2556.3</ele><time>2026-03-08T11:01:55.000Z</time></trkpt>
<trkpt lat="42.096628" lon="23.574886"><ele>2556.3</ele><time>2026-03-08T11:01:56.000Z</time></trkpt>
<trkpt lat="42.096633" lon="23.57488"><ele>2556.3</ele><time>2026-03-08T11:01:57.000Z</time></trkpt>
<trkpt lat="42.096639" lon="23.574873"><ele>2556.3</ele><time>2026-03-08T11:01:58.000Z</time></trkpt>
<trkpt lat="42.096646" lon="23.574865"><ele>2556.3</ele><time>2026-03-08T11:01:59.000Z</time></trkpt>
<trkpt lat="42.096652" lon="23.574858"><ele>2556.3</ele><time>2026-03-08T11:02:00.000Z</time></trkpt>
<trkpt lat="42.096658" lon="23.574849"><ele>2556.3</ele><time>2026-03-08T11:02:01.000Z</time></trkpt>
<trkpt lat="42.096663" lon="23.574841"><ele>2556</ele><time>2026-03-08T11:02:02.000Z</time></trkpt>
<trkpt lat="42.096667" lon="23.574833"><ele>2556</ele><time>2026-03-08T11:02:03.000Z</time></trkpt>
<trkpt lat="42.096671" lon="23.574825"><ele>2556</ele><time>2026-03-08T11:02:04.000Z</time></trkpt>
<trkpt lat="42.096674" lon="23.574819"><ele>2556</ele><time>2026-03-08T11:02:05.000Z</time></trkpt>
<trkpt lat="42.096676" lon="23.574816"><ele>2556</ele><time>2026-03-08T11:02:06.000Z</time></trkpt>
<trkpt lat="42.096677" lon="23.574815"><ele>2555.4</ele><time>2026-03-08T11:02:07.000Z</time></trkpt>
<trkpt lat="42.096677" lon="23.574817"><ele>2555.4</ele><time>2026-03-08T11:02:08.000Z</time></trkpt>
<trkpt lat="42.096677" lon="23.574819"><ele>2555.4</ele><time>2026-03-08T11:02:09.000Z</time></trkpt>
<trkpt lat="42.096677" lon="23.57482"><ele>2555.4</ele><time>2026-03-08T11:02:10.000Z</time></trkpt>
<trkpt lat="42.096677" lon="23.574821"><ele>2555.4</ele><time>2026-03-08T11:02:11.000Z</time></trkpt>
<trkpt lat="42.096677" lon="23.574822"><ele>2555</ele><time>2026-03-08T11:02:12.000Z</time></trkpt>
<trkpt lat="42.096677" lon="23.574822"><ele>2555</ele><time>2026-03-08T11:02:13.000Z</time></trkpt>
<trkpt lat="42.096676" lon="23.574821"><ele>2555</ele><time>2026-03-08T11:02:14.000Z</time></trkpt>
<trkpt lat="42.096676" lon="23.574821"><ele>2555</ele><time>2026-03-08T11:02:15.000Z</time></trkpt>
<trkpt lat="42.096676" lon="23.574821"><ele>2555</ele><time>2026-03-08T11:02:16.000Z</time></trkpt>
<trkpt lat="42.096676" lon="23.574821"><ele>2554.4</ele><time>2026-03-08T11:02:17.000Z</time></trkpt>
<trkpt lat="42.096676" lon="23.574821"><ele>2554.4</ele><time>2026-03-08T11:02:18.000Z</time></trkpt>
<trkpt lat="42.096677" lon="23.574822"><ele>2554.4</ele><time>2026-03-08T11:02:19.000Z</time></trkpt>
<trkpt lat="42.096677" lon="23.574822"><ele>2554.4</ele><time>2026-03-08T11:02:20.000Z</time></trkpt>
<trkpt lat="42.096677" lon="23.574823"><ele>2554.4</ele><time>2026-03-08T11:02:21.000Z</time></trkpt>
<trkpt lat="42.096677" lon="23.574823"><ele>2553.9</ele><time>2026-03-08T11:02:22.000Z</time></trkpt>
<trkpt lat="42.096677" lon="23.574823"><ele>2553.9</ele><time>2026-03-08T11:02:23.000Z</time></trkpt>
<trkpt lat="42.096678" lon="23.574823"><ele>2553.9</ele><time>2026-03-08T11:02:24.000Z</time></trkpt>
<trkpt lat="42.096678" lon="23.574822"><ele>2553.9</ele><time>2026-03-08T11:02:25.000Z</time></trkpt>
<trkpt lat="42.096678" lon="23.574822"><ele>2553.9</ele><time>2026-03-08T11:02:26.000Z</time></trkpt>
<trkpt lat="42.096678" lon="23.574822"><ele>2553.9</ele><time>2026-03-08T11:02:27.000Z</time></trkpt>
<trkpt lat="42.096678" lon="23.574821"><ele>2553.9</ele><time>2026-03-08T11:02:28.000Z</time></trkpt>
<trkpt lat="42.096678" lon="23.574821"><ele>2553.9</ele><time>2026-03-08T11:02:29.000Z</time></trkpt>
<trkpt lat="42.096677" lon="23.574821"><ele>2553.9</ele><time>2026-03-08T11:02:30.000Z</time></trkpt>
<trkpt lat="42.096677" lon="23.574821"><ele>2553.9</ele><time>2026-03-08T11:02:31.000Z</time></trkpt>
<trkpt lat="42.096677" lon="23.574821"><ele>2553.9</ele><time>2026-03-08T11:02:32.000Z</time></trkpt>
<trkpt lat="42.096677" lon="23.574821"><ele>2553.9</ele><time>2026-03-08T11:02:33.000Z</time></trkpt>
<trkpt lat="42.096677" lon="23.574821"><ele>2553.9</ele><time>2026-03-08T11:02:34.000Z</time></trkpt>
<trkpt lat="42.096678" lon="23.574821"><ele>2553.9</ele><time>2026-03-08T11:02:35.000Z</time></trkpt>
<trkpt lat="42.096678" lon="23.57482"><ele>2553.9</ele><time>2026-03-08T11:02:36.000Z</time></trkpt>
<trkpt lat="42.09668" lon="23.574818"><ele>2554.1</ele><time>2026-03-08T11:02:37.000Z</time></trkpt>
<trkpt lat="42.096681" lon="23.574816"><ele>2554.1</ele><time>2026-03-08T11:02:38.000Z</time></trkpt>
<trkpt lat="42.096684" lon="23.574811"><ele>2554.1</ele><time>2026-03-08T11:02:39.000Z</time></trkpt>
<trkpt lat="42.096688" lon="23.574807"><ele>2554.1</ele><time>2026-03-08T11:02:40.000Z</time></trkpt>
<trkpt lat="42.096692" lon="23.574801"><ele>2554.1</ele><time>2026-03-08T11:02:41.000Z</time></trkpt>
<trkpt lat="42.096695" lon="23.574798"><ele>2554.1</ele><time>2026-03-08T11:02:42.000Z</time></trkpt>
<trkpt lat="42.096698" lon="23.574795"><ele>2554.1</ele><time>2026-03-08T11:02:43.000Z</time></trkpt>
<trkpt lat="42.0967" lon="23.574794"><ele>2554.1</ele><time>2026-03-08T11:02:44.000Z</time></trkpt>
<trkpt lat="42.0967" lon="23.574794"><ele>2554.1</ele><time>2026-03-08T11:02:45.000Z</time></trkpt>
<trkpt lat="42.096699" lon="23.574794"><ele>2554.1</ele><time>2026-03-08T11:02:46.000Z</time></trkpt>
<trkpt lat="42.096698" lon="23.574793"><ele>2554.2</ele><time>2026-03-08T11:02:47.000Z</time></trkpt>
<trkpt lat="42.096697" lon="23.574792"><ele>2554.2</ele><time>2026-03-08T11:02:48.000Z</time></trkpt>
<trkpt lat="42.096696" lon="23.57479"><ele>2554.2</ele><time>2026-03-08T11:02:49.000Z</time></trkpt>
<trkpt lat="42.096695" lon="23.574787"><ele>2554.2</ele><time>2026-03-08T11:02:50.000Z</time></trkpt>
<trkpt lat="42.096695" lon="23.574781"><ele>2554.2</ele><time>2026-03-08T11:02:51.000Z</time></trkpt>
<trkpt lat="42.096697" lon="23.574774"><ele>2554.4</ele><time>2026-03-08T11:02:52.000Z</time></trkpt>
<trkpt lat="42.0967" lon="23.574766"><ele>2554.4</ele><time>2026-03-08T11:02:53.000Z</time></trkpt>
<trkpt lat="42.096705" lon="23.574758"><ele>2554.4</ele><time>2026-03-08T11:02:54.000Z</time></trkpt>
<trkpt lat="42.096711" lon="23.574749"><ele>2554.4</ele><time>2026-03-08T11:02:55.000Z</time></trkpt>
<trkpt lat="42.096716" lon="23.57474"><ele>2554.4</ele><time>2026-03-08T11:02:56.000Z</time></trkpt>
<trkpt lat="42.096721" lon="23.574731"><ele>2554.4</ele><time>2026-03-08T11:02:57.000Z</time></trkpt>
<trkpt lat="42.096726" lon="23.574722"><ele>2554.4</ele><time>2026-03-08T11:02:58.000Z</time></trkpt>
<trkpt lat="42.096731" lon="23.574714"><ele>2554.4</ele><time>2026-03-08T11:02:59.000Z</time></trkpt>
<trkpt lat="42.096736" lon="23.574705"><ele>2554.4</ele><time>2026-03-08T11:03:00.000Z</time></trkpt>
<trkpt lat="42.096741" lon="23.574698"><ele>2554.4</ele><time>2026-03-08T11:03:01.000Z</time></trkpt>
<trkpt lat="42.096747" lon="23.574692"><ele>2554.4</ele><time>2026-03-08T11:03:02.000Z</time></trkpt>
<trkpt lat="42.096754" lon="23.574687"><ele>2554.4</ele><time>2026-03-08T11:03:03.000Z</time></trkpt>
<trkpt lat="42.09676" lon="23.57468"><ele>2554.4</ele><time>2026-03-08T11:03:04.000Z</time></trkpt>
<trkpt lat="42.096766" lon="23.574674"><ele>2554.4</ele><time>2026-03-08T11:03:05.000Z</time></trkpt>
<trkpt lat="42.096773" lon="23.574667"><ele>2554.4</ele><time>2026-03-08T11:03:06.000Z</time></trkpt>
<trkpt lat="42.096779" lon="23.57466"><ele>2554.2</ele><time>2026-03-08T11:03:07.000Z</time></trkpt>
<trkpt lat="42.096784" lon="23.574655"><ele>2554.2</ele><time>2026-03-08T11:03:08.000Z</time></trkpt>
<trkpt lat="42.096788" lon="23.574653"><ele>2554.2</ele><time>2026-03-08T11:03:09.000Z</time></trkpt>
<trkpt lat="42.096792" lon="23.57465"><ele>2554.2</ele><time>2026-03-08T11:03:10.000Z</time></trkpt>
<trkpt lat="42.096794" lon="23.574647"><ele>2554.2</ele><time>2026-03-08T11:03:11.000Z</time></trkpt>
<trkpt lat="42.096797" lon="23.574644"><ele>2554.2</ele><time>2026-03-08T11:03:12.000Z</time></trkpt>
<trkpt lat="42.0968" lon="23.574639"><ele>2554.2</ele><time>2026-03-08T11:03:13.000Z</time></trkpt>
<trkpt lat="42.096803" lon="23.574633"><ele>2554.2</ele><time>2026-03-08T11:03:14.000Z</time></trkpt>
<trkpt lat="42.096807" lon="23.574628"><ele>2554.2</ele><time>2026-03-08T11:03:15.000Z</time></trkpt>
<trkpt lat="42.096811" lon="23.574624"><ele>2554.2</ele><time>2026-03-08T11:03:16.000Z</time></trkpt>
<trkpt lat="42.096816" lon="23.574619"><ele>2554.4</ele><time>2026-03-08T11:03:17.000Z</time></trkpt>
<trkpt lat="42.096821" lon="23.574614"><ele>2554.4</ele><time>2026-03-08T11:03:18.000Z</time></trkpt>
<trkpt lat="42.096826" lon="23.574609"><ele>2554.4</ele><time>2026-03-08T11:03:19.000Z</time></trkpt>
<trkpt lat="42.096831" lon="23.574602"><ele>2554.4</ele><time>2026-03-08T11:03:20.000Z</time></trkpt>
<trkpt lat="42.096837" lon="23.574594"><ele>2554.4</ele><time>2026-03-08T11:03:21.000Z</time></trkpt>
<trkpt lat="42.096843" lon="23.574586"><ele>2554.6</ele><time>2026-03-08T11:03:22.000Z</time></trkpt>
<trkpt lat="42.096849" lon="23.574578"><ele>2554.6</ele><time>2026-03-08T11:03:23.000Z</time></trkpt>
<trkpt lat="42.096856" lon="23.574571"><ele>2554.6</ele><time>2026-03-08T11:03:24.000Z</time></trkpt>
<trkpt lat="42.096863" lon="23.574566"><ele>2554.6</ele><time>2026-03-08T11:03:25.000Z</time></trkpt>
<trkpt lat="42.09687" lon="23.574561"><ele>2554.6</ele><time>2026-03-08T11:03:26.000Z</time></trkpt>
<trkpt lat="42.096876" lon="23.574557"><ele>2554.8</ele><time>2026-03-08T11:03:27.000Z</time></trkpt>
<trkpt lat="42.096883" lon="23.574554"><ele>2554.8</ele><time>2026-03-08T11:03:28.000Z</time></trkpt>
<trkpt lat="42.09689" lon="23.574551"><ele>2554.8</ele><time>2026-03-08T11:03:29.000Z</time></trkpt>
<trkpt lat="42.096896" lon="23.574547"><ele>2554.8</ele><time>2026-03-08T11:03:30.000Z</time></trkpt>
<trkpt lat="42.0969" lon="23.574542"><ele>2554.8</ele><time>2026-03-08T11:03:31.000Z</time></trkpt>
<trkpt lat="42.096905" lon="23.574536"><ele>2555.2</ele><time>2026-03-08T11:03:32.000Z</time></trkpt>
<trkpt lat="42.09691" lon="23.57453"><ele>2555.2</ele><time>2026-03-08T11:03:33.000Z</time></trkpt>
<trkpt lat="42.096914" lon="23.574524"><ele>2555.2</ele><time>2026-03-08T11:03:34.000Z</time></trkpt>
<trkpt lat="42.09692" lon="23.574519"><ele>2555.2</ele><time>2026-03-08T11:03:35.000Z</time></trkpt>
<trkpt lat="42.096926" lon="23.574514"><ele>2555.2</ele><time>2026-03-08T11:03:36.000Z</time></trkpt>
<trkpt lat="42.096931" lon="23.574508"><ele>2555.7</ele><time>2026-03-08T11:03:37.000Z</time></trkpt>
<trkpt lat="42.096937" lon="23.574503"><ele>2555.7</ele><time>2026-03-08T11:03:38.000Z</time></trkpt>
<trkpt lat="42.096943" lon="23.574497"><ele>2555.7</ele><time>2026-03-08T11:03:39.000Z</time></trkpt>
<trkpt lat="42.096948" lon="23.57449"><ele>2555.7</ele><time>2026-03-08T11:03:40.000Z</time></trkpt>
<trkpt lat="42.096953" lon="23.574485"><ele>2555.7</ele><time>2026-03-08T11:03:41.000Z</time></trkpt>
<trkpt lat="42.09696" lon="23.57448"><ele>2555.9</ele><time>2026-03-08T11:03:42.000Z</time></trkpt>
<trkpt lat="42.096965" lon="23.574475"><ele>2555.9</ele><time>2026-03-08T11:03:43.000Z</time></trkpt>
<trkpt lat="42.096969" lon="23.574471"><ele>2555.9</ele><time>2026-03-08T11:03:44.000Z</time></trkpt>
<trkpt lat="42.096975" lon="23.574467"><ele>2555.9</ele><time>2026-03-08T11:03:45.000Z</time></trkpt>
<trkpt lat="42.09698" lon="23.574461"><ele>2555.9</ele><time>2026-03-08T11:03:46.000Z</time></trkpt>
<trkpt lat="42.096985" lon="23.574456"><ele>2556.2</ele><time>2026-03-08T11:03:47.000Z</time></trkpt>
<trkpt lat="42.09699" lon="23.574452"><ele>2556.2</ele><time>2026-03-08T11:03:48.000Z</time></trkpt>
<trkpt lat="42.096997" lon="23.574447"><ele>2556.2</ele><time>2026-03-08T11:03:49.000Z</time></trkpt>
<trkpt lat="42.097003" lon="23.574444"><ele>2556.2</ele><time>2026-03-08T11:03:50.000Z</time></trkpt>
<trkpt lat="42.097009" lon="23.574442"><ele>2556.2</ele><time>2026-03-08T11:03:51.000Z</time></trkpt>
<trkpt lat="42.097016" lon="23.57444"><ele>2556.5</ele><time>2026-03-08T11:03:52.000Z</time></trkpt>
<trkpt lat="42.097022" lon="23.574438"><ele>2556.5</ele><time>2026-03-08T11:03:53.000Z</time></trkpt>
<trkpt lat="42.097028" lon="23.574439"><ele>2556.5</ele><time>2026-03-08T11:03:54.000Z</time></trkpt>
<trkpt lat="42.097035" lon="23.574439"><ele>2556.5</ele><time>2026-03-08T11:03:55.000Z</time></trkpt>
<trkpt lat="42.097042" lon="23.57444"><ele>2556.5</ele><time>2026-03-08T11:03:56.000Z</time></trkpt>
<trkpt lat="42.097048" lon="23.574441"><ele>2556.6</ele><time>2026-03-08T11:03:57.000Z</time></trkpt>
<trkpt lat="42.097055" lon="23.57444"><ele>2556.6</ele><time>2026-03-08T11:03:58.000Z</time></trkpt>
<trkpt lat="42.097063" lon="23.574439"><ele>2556.6</ele><time>2026-03-08T11:03:59.000Z</time></trkpt>
<trkpt lat="42.09707" lon="23.574437"><ele>2556.6</ele><time>2026-03-08T11:04:00.000Z</time></trkpt>
<trkpt lat="42.097076" lon="23.574433"><ele>2556.6</ele><time>2026-03-08T11:04:01.000Z</time></trkpt>
<trkpt lat="42.097083" lon="23.574428"><ele>2557</ele><time>2026-03-08T11:04:02.000Z</time></trkpt>
<trkpt lat="42.09709" lon="23.574423"><ele>2557</ele><time>2026-03-08T11:04:03.000Z</time></trkpt>
<trkpt lat="42.097095" lon="23.574418"><ele>2557</ele><time>2026-03-08T11:04:04.000Z</time></trkpt>
<trkpt lat="42.097101" lon="23.574413"><ele>2557</ele><time>2026-03-08T11:04:05.000Z</time></trkpt>
<trkpt lat="42.097108" lon="23.574409"><ele>2557</ele><time>2026-03-08T11:04:06.000Z</time></trkpt>
<trkpt lat="42.097113" lon="23.574406"><ele>2557.6</ele><time>2026-03-08T11:04:07.000Z</time></trkpt>
<trkpt lat="42.097118" lon="23.574403"><ele>2557.6</ele><time>2026-03-08T11:04:08.000Z</time></trkpt>
<trkpt lat="42.097124" lon="23.574399"><ele>2557.6</ele><time>2026-03-08T11:04:09.000Z</time></trkpt>
<trkpt lat="42.09713" lon="23.574397"><ele>2557.6</ele><time>2026-03-08T11:04:10.000Z</time></trkpt>
<trkpt lat="42.097135" lon="23.574394"><ele>2557.6</ele><time>2026-03-08T11:04:11.000Z</time></trkpt>
<trkpt lat="42.09714" lon="23.574391"><ele>2557.9</ele><time>2026-03-08T11:04:12.000Z</time></trkpt>
<trkpt lat="42.097147" lon="23.574388"><ele>2557.9</ele><time>2026-03-08T11:04:13.000Z</time></trkpt>
<trkpt lat="42.097152" lon="23.574386"><ele>2557.9</ele><time>2026-03-08T11:04:14.000Z</time></trkpt>
<trkpt lat="42.097157" lon="23.574385"><ele>2557.9</ele><time>2026-03-08T11:04:15.000Z</time></trkpt>
<trkpt lat="42.097162" lon="23.574383"><ele>2557.9</ele><time>2026-03-08T11:04:16.000Z</time></trkpt>
<trkpt lat="42.097167" lon="23.574382"><ele>2558.6</ele><time>2026-03-08T11:04:17.000Z</time></trkpt>
<trkpt lat="42.097173" lon="23.57438"><ele>2558.6</ele><time>2026-03-08T11:04:18.000Z</time></trkpt>
<trkpt lat="42.097178" lon="23.574379"><ele>2558.6</ele><time>2026-03-08T11:04:19.000Z</time></trkpt>
<trkpt lat="42.097183" lon="23.574377"><ele>2558.6</ele><time>2026-03-08T11:04:20.000Z</time></trkpt>
<trkpt lat="42.097188" lon="23.574375"><ele>2558.6</ele><time>2026-03-08T11:04:21.000Z</time></trkpt>
<trkpt lat="42.097192" lon="23.574373"><ele>2559.3</ele><time>2026-03-08T11:04:22.000Z</time></trkpt>
<trkpt lat="42.097197" lon="23.57437"><ele>2559.3</ele><time>2026-03-08T11:04:23.000Z</time></trkpt>
<trkpt lat="42.097201" lon="23.574368"><ele>2559.3</ele><time>2026-03-08T11:04:24.000Z</time></trkpt>
<trkpt lat="42.097206" lon="23.574365"><ele>2559.3</ele><time>2026-03-08T11:04:25.000Z</time></trkpt>
<trkpt lat="42.097212" lon="23.574361"><ele>2559.3</ele><time>2026-03-08T11:04:26.000Z</time></trkpt>
<trkpt lat="42.097218" lon="23.574357"><ele>2559.7</ele><time>2026-03-08T11:04:27.000Z</time></trkpt>
<trkpt lat="42.097223" lon="23.574353"><ele>2559.7</ele><time>2026-03-08T11:04:28.000Z</time></trkpt>
<trkpt lat="42.097229" lon="23.574348"><ele>2559.7</ele><time>2026-03-08T11:04:29.000Z</time></trkpt>
<trkpt lat="42.097235" lon="23.574344"><ele>2559.7</ele><time>2026-03-08T11:04:30.000Z</time></trkpt>
<trkpt lat="42.09724" lon="23.574341"><ele>2559.7</ele><time>2026-03-08T11:04:31.000Z</time></trkpt>
<trkpt lat="42.097245" lon="23.574337"><ele>2560.6</ele><time>2026-03-08T11:04:32.000Z</time></trkpt>
<trkpt lat="42.09725" lon="23.574333"><ele>2560.6</ele><time>2026-03-08T11:04:33.000Z</time></trkpt>
<trkpt lat="42.097254" lon="23.574329"><ele>2560.6</ele><time>2026-03-08T11:04:34.000Z</time></trkpt>
<trkpt lat="42.097258" lon="23.574324"><ele>2560.6</ele><time>2026-03-08T11:04:35.000Z</time></trkpt>
<trkpt lat="42.097264" lon="23.574319"><ele>2560.6</ele><time>2026-03-08T11:04:36.000Z</time></trkpt>
<trkpt lat="42.09727" lon="23.574313"><ele>2561.4</ele><time>2026-03-08T11:04:37.000Z</time></trkpt>
<trkpt lat="42.097277" lon="23.574308"><ele>2561.4</ele><time>2026-03-08T11:04:38.000Z</time></trkpt>
<trkpt lat="42.097283" lon="23.574302"><ele>2561.4</ele><time>2026-03-08T11:04:39.000Z</time></trkpt>
<trkpt lat="42.09729" lon="23.574296"><ele>2561.4</ele><time>2026-03-08T11:04:40.000Z</time></trkpt>
<trkpt lat="42.097297" lon="23.57429"><ele>2561.4</ele><time>2026-03-08T11:04:41.000Z</time></trkpt>
<trkpt lat="42.097302" lon="23.574285"><ele>2561.7</ele><time>2026-03-08T11:04:42.000Z</time></trkpt>
<trkpt lat="42.097308" lon="23.57428"><ele>2561.7</ele><time>2026-03-08T11:04:43.000Z</time></trkpt>
<trkpt lat="42.097315" lon="23.574276"><ele>2561.7</ele><time>2026-03-08T11:04:44.000Z</time></trkpt>
<trkpt lat="42.097321" lon="23.574273"><ele>2561.7</ele><time>2026-03-08T11:04:45.000Z</time></trkpt>
<trkpt lat="42.097328" lon="23.574271"><ele>2561.7</ele><time>2026-03-08T11:04:46.000Z</time></trkpt>
<trkpt lat="42.097335" lon="23.574269"><ele>2562.3</ele><time>2026-03-08T11:04:47.000Z</time></trkpt>
<trkpt lat="42.097342" lon="23.57427"><ele>2562.3</ele><time>2026-03-08T11:04:48.000Z</time></trkpt>
<trkpt lat="42.097349" lon="23.574269"><ele>2562.3</ele><time>2026-03-08T11:04:49.000Z</time></trkpt>
<trkpt lat="42.097356" lon="23.574268"><ele>2562.3</ele><time>2026-03-08T11:04:50.000Z</time></trkpt>
<trkpt lat="42.097361" lon="23.574266"><ele>2562.3</ele><time>2026-03-08T11:04:51.000Z</time></trkpt>
<trkpt lat="42.097367" lon="23.574264"><ele>2563</ele><time>2026-03-08T11:04:52.000Z</time></trkpt>
<trkpt lat="42.097373" lon="23.57426"><ele>2563</ele><time>2026-03-08T11:04:53.000Z</time></trkpt>
<trkpt lat="42.097379" lon="23.574255"><ele>2563</ele><time>2026-03-08T11:04:54.000Z</time></trkpt>
<trkpt lat="42.097385" lon="23.574251"><ele>2563</ele><time>2026-03-08T11:04:55.000Z</time></trkpt>
<trkpt lat="42.097391" lon="23.574247"><ele>2563</ele><time>2026-03-08T11:04:56.000Z</time></trkpt>
<trkpt lat="42.097398" lon="23.574243"><ele>2563.6</ele><time>2026-03-08T11:04:57.000Z</time></trkpt>
<trkpt lat="42.097407" lon="23.57424"><ele>2563.6</ele><time>2026-03-08T11:04:58.000Z</time></trkpt>
<trkpt lat="42.097415" lon="23.574238"><ele>2563.6</ele><time>2026-03-08T11:04:59.000Z</time></trkpt>
<trkpt lat="42.097423" lon="23.574237"><ele>2563.6</ele><time>2026-03-08T11:05:00.000Z</time></trkpt>
<trkpt lat="42.097431" lon="23.574235"><ele>2563.6</ele><time>2026-03-08T11:05:01.000Z</time></trkpt>
<trkpt lat="42.097439" lon="23.574233"><ele>2564.9</ele><time>2026-03-08T11:05:02.000Z</time></trkpt>
<trkpt lat="42.097445" lon="23.574232"><ele>2564.9</ele><time>2026-03-08T11:05:03.000Z</time></trkpt>
<trkpt lat="42.097451" lon="23.57423"><ele>2564.9</ele><time>2026-03-08T11:05:04.000Z</time></trkpt>
<trkpt lat="42.097457" lon="23.574227"><ele>2564.9</ele><time>2026-03-08T11:05:05.000Z</time></trkpt>
<trkpt lat="42.097463" lon="23.574225"><ele>2564.9</ele><time>2026-03-08T11:05:06.000Z</time></trkpt>
<trkpt lat="42.097468" lon="23.574222"><ele>2566.2</ele><time>2026-03-08T11:05:07.000Z</time></trkpt>
<trkpt lat="42.097475" lon="23.574218"><ele>2566.2</ele><time>2026-03-08T11:05:08.000Z</time></trkpt>
<trkpt lat="42.09748" lon="23.574215"><ele>2566.2</ele><time>2026-03-08T11:05:09.000Z</time></trkpt>
<trkpt lat="42.097486" lon="23.574212"><ele>2566.2</ele><time>2026-03-08T11:05:10.000Z</time></trkpt>
<trkpt lat="42.097492" lon="23.57421"><ele>2566.2</ele><time>2026-03-08T11:05:11.000Z</time></trkpt>
<trkpt lat="42.097497" lon="23.574209"><ele>2566.8</ele><time>2026-03-08T11:05:12.000Z</time></trkpt>
<trkpt lat="42.097503" lon="23.574207"><ele>2566.8</ele><time>2026-03-08T11:05:13.000Z</time></trkpt>
<trkpt lat="42.097509" lon="23.574206"><ele>2566.8</ele><time>2026-03-08T11:05:14.000Z</time></trkpt>
<trkpt lat="42.097515" lon="23.574203"><ele>2566.8</ele><time>2026-03-08T11:05:15.000Z</time></trkpt>
<trkpt lat="42.097521" lon="23.574201"><ele>2566.8</ele><time>2026-03-08T11:05:16.000Z</time></trkpt>
<trkpt lat="42.097527" lon="23.574198"><ele>2567.7</ele><time>2026-03-08T11:05:17.000Z</time></trkpt>
<trkpt lat="42.097533" lon="23.574196"><ele>2567.7</ele><time>2026-03-08T11:05:18.000Z</time></trkpt>
<trkpt lat="42.097539" lon="23.574194"><ele>2567.7</ele><time>2026-03-08T11:05:19.000Z</time></trkpt>
<trkpt lat="42.097545" lon="23.574192"><ele>2567.7</ele><time>2026-03-08T11:05:20.000Z</time></trkpt>
<trkpt lat="42.097551" lon="23.574189"><ele>2567.7</ele><time>2026-03-08T11:05:21.000Z</time></trkpt>
<trkpt lat="42.097557" lon="23.574185"><ele>2568.5</ele><time>2026-03-08T11:05:22.000Z</time></trkpt>
<trkpt lat="42.097563" lon="23.57418"><ele>2568.5</ele><time>2026-03-08T11:05:23.000Z</time></trkpt>
<trkpt lat="42.097567" lon="23.574176"><ele>2568.5</ele><time>2026-03-08T11:05:24.000Z</time></trkpt>
<trkpt lat="42.097573" lon="23.574171"><ele>2568.5</ele><time>2026-03-08T11:05:25.000Z</time></trkpt>
<trkpt lat="42.097579" lon="23.574166"><ele>2568.5</ele><time>2026-03-08T11:05:26.000Z</time></trkpt>
<trkpt lat="42.097583" lon="23.574163"><ele>2568.9</ele><time>2026-03-08T11:05:27.000Z</time></trkpt>
<trkpt lat="42.097589" lon="23.574159"><ele>2568.9</ele><time>2026-03-08T11:05:28.000Z</time></trkpt>
<trkpt lat="42.097595" lon="23.574156"><ele>2568.9</ele><time>2026-03-08T11:05:29.000Z</time></trkpt>
<trkpt lat="42.0976" lon="23.574153"><ele>2568.9</ele><time>2026-03-08T11:05:30.000Z</time></trkpt>
<trkpt lat="42.097605" lon="23.57415"><ele>2568.9</ele><time>2026-03-08T11:05:31.000Z</time></trkpt>
<trkpt lat="42.097612" lon="23.574147"><ele>2569.7</ele><time>2026-03-08T11:05:32.000Z</time></trkpt>
<trkpt lat="42.097618" lon="23.574143"><ele>2569.7</ele><time>2026-03-08T11:05:33.000Z</time></trkpt>
<trkpt lat="42.097623" lon="23.574138"><ele>2569.7</ele><time>2026-03-08T11:05:34.000Z</time></trkpt>
<trkpt lat="42.097629" lon="23.574134"><ele>2569.7</ele><time>2026-03-08T11:05:35.000Z</time></trkpt>
<trkpt lat="42.097636" lon="23.57413"><ele>2569.7</ele><time>2026-03-08T11:05:36.000Z</time></trkpt>
<trkpt lat="42.097642" lon="23.574125"><ele>2570.5</ele><time>2026-03-08T11:05:37.000Z</time></trkpt>
<trkpt lat="42.097648" lon="23.57412"><ele>2570.5</ele><time>2026-03-08T11:05:38.000Z</time></trkpt>
<trkpt lat="42.097653" lon="23.574115"><ele>2570.5</ele><time>2026-03-08T11:05:39.000Z</time></trkpt>
<trkpt lat="42.097659" lon="23.57411"><ele>2570.5</ele><time>2026-03-08T11:05:40.000Z</time></trkpt>
<trkpt lat="42.097665" lon="23.574105"><ele>2570.5</ele><time>2026-03-08T11:05:41.000Z</time></trkpt>
<trkpt lat="42.09767" lon="23.574102"><ele>2570.9</ele><time>2026-03-08T11:05:42.000Z</time></trkpt>
<trkpt lat="42.097675" lon="23.574097"><ele>2570.9</ele><time>2026-03-08T11:05:43.000Z</time></trkpt>
<trkpt lat="42.09768" lon="23.574094"><ele>2570.9</ele><time>2026-03-08T11:05:44.000Z</time></trkpt>
<trkpt lat="42.097686" lon="23.574092"><ele>2570.9</ele><time>2026-03-08T11:05:45.000Z</time></trkpt>
<trkpt lat="42.097691" lon="23.574089"><ele>2570.9</ele><time>2026-03-08T11:05:46.000Z</time></trkpt>
<trkpt lat="42.097696" lon="23.574086"><ele>2571.7</ele><time>2026-03-08T11:05:47.000Z</time></trkpt>
<trkpt lat="42.097702" lon="23.574084"><ele>2571.7</ele><time>2026-03-08T11:05:48.000Z</time></trkpt>
<trkpt lat="42.097709" lon="23.574082"><ele>2571.7</ele><time>2026-03-08T11:05:49.000Z</time></trkpt>
<trkpt lat="42.097714" lon="23.574079"><ele>2571.7</ele><time>2026-03-08T11:05:50.000Z</time></trkpt>
<trkpt lat="42.09772" lon="23.574076"><ele>2571.7</ele><time>2026-03-08T11:05:51.000Z</time></trkpt>
<trkpt lat="42.097726" lon="23.574072"><ele>2572.5</ele><time>2026-03-08T11:05:52.000Z</time></trkpt>
<trkpt lat="42.097732" lon="23.574068"><ele>2572.5</ele><time>2026-03-08T11:05:53.000Z</time></trkpt>
<trkpt lat="42.097737" lon="23.574064"><ele>2572.5</ele><time>2026-03-08T11:05:54.000Z</time></trkpt>
<trkpt lat="42.097743" lon="23.574061"><ele>2572.5</ele><time>2026-03-08T11:05:55.000Z</time></trkpt>
<trkpt lat="42.09775" lon="23.574057"><ele>2572.5</ele><time>2026-03-08T11:05:56.000Z</time></trkpt>
<trkpt lat="42.097756" lon="23.574053"><ele>2572.8</ele><time>2026-03-08T11:05:57.000Z</time></trkpt>
<trkpt lat="42.097762" lon="23.57405"><ele>2572.8</ele><time>2026-03-08T11:05:58.000Z</time></trkpt>
<trkpt lat="42.097769" lon="23.574047"><ele>2572.8</ele><time>2026-03-08T11:05:59.000Z</time></trkpt>
<trkpt lat="42.097776" lon="23.574044"><ele>2572.8</ele><time>2026-03-08T11:06:00.000Z</time></trkpt>
<trkpt lat="42.097782" lon="23.574042"><ele>2572.8</ele><time>2026-03-08T11:06:01.000Z</time></trkpt>
<trkpt lat="42.097789" lon="23.57404"><ele>2573.6</ele><time>2026-03-08T11:06:02.000Z</time></trkpt>
<trkpt lat="42.097796" lon="23.574037"><ele>2573.6</ele><time>2026-03-08T11:06:03.000Z</time></trkpt>
<trkpt lat="42.097803" lon="23.574035"><ele>2573.6</ele><time>2026-03-08T11:06:04.000Z</time></trkpt>
<trkpt lat="42.09781" lon="23.574032"><ele>2573.6</ele><time>2026-03-08T11:06:05.000Z</time></trkpt>
<trkpt lat="42.097817" lon="23.57403"><ele>2573.6</ele><time>2026-03-08T11:06:06.000Z</time></trkpt>
<trkpt lat="42.097824" lon="23.574028"><ele>2574.4</ele><time>2026-03-08T11:06:07.000Z</time></trkpt>
<trkpt lat="42.097832" lon="23.574026"><ele>2574.4</ele><time>2026-03-08T11:06:08.000Z</time></trkpt>
<trkpt lat="42.097839" lon="23.574025"><ele>2574.4</ele><time>2026-03-08T11:06:09.000Z</time></trkpt>
<trkpt lat="42.097846" lon="23.574021"><ele>2574.4</ele><time>2026-03-08T11:06:10.000Z</time></trkpt>
<trkpt lat="42.097852" lon="23.574017"><ele>2574.4</ele><time>2026-03-08T11:06:11.000Z</time></trkpt>
<trkpt lat="42.097858" lon="23.574011"><ele>2574.8</ele><time>2026-03-08T11:06:12.000Z</time></trkpt>
<trkpt lat="42.097864" lon="23.574003"><ele>2574.8</ele><time>2026-03-08T11:06:13.000Z</time></trkpt>
<trkpt lat="42.09787" lon="23.573994"><ele>2574.8</ele><time>2026-03-08T11:06:14.000Z</time></trkpt>
<trkpt lat="42.097876" lon="23.573987"><ele>2574.8</ele><time>2026-03-08T11:06:15.000Z</time></trkpt>
<trkpt lat="42.097883" lon="23.573981"><ele>2574.8</ele><time>2026-03-08T11:06:16.000Z</time></trkpt>
<trkpt lat="42.09789" lon="23.573976"><ele>2575.6</ele><time>2026-03-08T11:06:17.000Z</time></trkpt>
<trkpt lat="42.097897" lon="23.573972"><ele>2575.6</ele><time>2026-03-08T11:06:18.000Z</time></trkpt>
<trkpt lat="42.097903" lon="23.573967"><ele>2575.6</ele><time>2026-03-08T11:06:19.000Z</time></trkpt>
<trkpt lat="42.09791" lon="23.573963"><ele>2575.6</ele><time>2026-03-08T11:06:20.000Z</time></trkpt>
<trkpt lat="42.097916" lon="23.573958"><ele>2575.6</ele><time>2026-03-08T11:06:21.000Z</time></trkpt>
<trkpt lat="42.097922" lon="23.573953"><ele>2576.4</ele><time>2026-03-08T11:06:22.000Z</time></trkpt>
<trkpt lat="42.097928" lon="23.573949"><ele>2576.4</ele><time>2026-03-08T11:06:23.000Z</time></trkpt>
<trkpt lat="42.097935" lon="23.573946"><ele>2576.4</ele><time>2026-03-08T11:06:24.000Z</time></trkpt>
<trkpt lat="42.097941" lon="23.573943"><ele>2576.4</ele><time>2026-03-08T11:06:25.000Z</time></trkpt>
<trkpt lat="42.097949" lon="23.573941"><ele>2576.4</ele><time>2026-03-08T11:06:26.000Z</time></trkpt>
<trkpt lat="42.097955" lon="23.573937"><ele>2576.8</ele><time>2026-03-08T11:06:27.000Z</time></trkpt>
<trkpt lat="42.09796" lon="23.573934"><ele>2576.8</ele><time>2026-03-08T11:06:28.000Z</time></trkpt>
<trkpt lat="42.097966" lon="23.573929"><ele>2576.8</ele><time>2026-03-08T11:06:29.000Z</time></trkpt>
<trkpt lat="42.097972" lon="23.573924"><ele>2576.8</ele><time>2026-03-08T11:06:30.000Z</time></trkpt>
<trkpt lat="42.097976" lon="23.573918"><ele>2576.8</ele><time>2026-03-08T11:06:31.000Z</time></trkpt>
<trkpt lat="42.09798" lon="23.573912"><ele>2577.4</ele><time>2026-03-08T11:06:32.000Z</time></trkpt>
<trkpt lat="42.097986" lon="23.573906"><ele>2577.4</ele><time>2026-03-08T11:06:33.000Z</time></trkpt>
<trkpt lat="42.097991" lon="23.5739"><ele>2577.4</ele><time>2026-03-08T11:06:34.000Z</time></trkpt>
<trkpt lat="42.097996" lon="23.573896"><ele>2577.4</ele><time>2026-03-08T11:06:35.000Z</time></trkpt>
<trkpt lat="42.098002" lon="23.573891"><ele>2577.4</ele><time>2026-03-08T11:06:36.000Z</time></trkpt>
<trkpt lat="42.098006" lon="23.573887"><ele>2577.9</ele><time>2026-03-08T11:06:37.000Z</time></trkpt>
<trkpt lat="42.098011" lon="23.573882"><ele>2577.9</ele><time>2026-03-08T11:06:38.000Z</time></trkpt>
<trkpt lat="42.098016" lon="23.573877"><ele>2577.9</ele><time>2026-03-08T11:06:39.000Z</time></trkpt>
<trkpt lat="42.09802" lon="23.573871"><ele>2577.9</ele><time>2026-03-08T11:06:40.000Z</time></trkpt>
<trkpt lat="42.098025" lon="23.573865"><ele>2577.9</ele><time>2026-03-08T11:06:41.000Z</time></trkpt>
<trkpt lat="42.098031" lon="23.573858"><ele>2578.1</ele><time>2026-03-08T11:06:42.000Z</time></trkpt>
<trkpt lat="42.098037" lon="23.573851"><ele>2578.1</ele><time>2026-03-08T11:06:43.000Z</time></trkpt>
<trkpt lat="42.098042" lon="23.573845"><ele>2578.1</ele><time>2026-03-08T11:06:44.000Z</time></trkpt>
<trkpt lat="42.098049" lon="23.573839"><ele>2578.1</ele><time>2026-03-08T11:06:45.000Z</time></trkpt>
<trkpt lat="42.098055" lon="23.573833"><ele>2578.1</ele><time>2026-03-08T11:06:46.000Z</time></trkpt>
<trkpt lat="42.098062" lon="23.573829"><ele>2578.7</ele><time>2026-03-08T11:06:47.000Z</time></trkpt>
<trkpt lat="42.098068" lon="23.573825"><ele>2578.7</ele><time>2026-03-08T11:06:48.000Z</time></trkpt>
<trkpt lat="42.098075" lon="23.573822"><ele>2578.7</ele><time>2026-03-08T11:06:49.000Z</time></trkpt>
<trkpt lat="42.098082" lon="23.573819"><ele>2578.7</ele><time>2026-03-08T11:06:50.000Z</time></trkpt>
<trkpt lat="42.098088" lon="23.573818"><ele>2578.7</ele><time>2026-03-08T11:06:51.000Z</time></trkpt>
<trkpt lat="42.098095" lon="23.573818"><ele>2579.2</ele><time>2026-03-08T11:06:52.000Z</time></trkpt>
<trkpt lat="42.098102" lon="23.573819"><ele>2579.2</ele><time>2026-03-08T11:06:53.000Z</time></trkpt>
<trkpt lat="42.09811" lon="23.573819"><ele>2579.2</ele><time>2026-03-08T11:06:54.000Z</time></trkpt>
<trkpt lat="42.098116" lon="23.573818"><ele>2579.2</ele><time>2026-03-08T11:06:55.000Z</time></trkpt>
<trkpt lat="42.098123" lon="23.573817"><ele>2579.2</ele><time>2026-03-08T11:06:56.000Z</time></trkpt>
<trkpt lat="42.09813" lon="23.573816"><ele>2579.5</ele><time>2026-03-08T11:06:57.000Z</time></trkpt>
<trkpt lat="42.098137" lon="23.573814"><ele>2579.5</ele><time>2026-03-08T11:06:58.000Z</time></trkpt>
<trkpt lat="42.098144" lon="23.573812"><ele>2579.5</ele><time>2026-03-08T11:06:59.000Z</time></trkpt>
<trkpt lat="42.098151" lon="23.573811"><ele>2579.5</ele><time>2026-03-08T11:07:00.000Z</time></trkpt>
<trkpt lat="42.098157" lon="23.573809"><ele>2579.5</ele><time>2026-03-08T11:07:01.000Z</time></trkpt>
<trkpt lat="42.098164" lon="23.573806"><ele>2580.2</ele><time>2026-03-08T11:07:02.000Z</time></trkpt>
<trkpt lat="42.098169" lon="23.573803"><ele>2580.2</ele><time>2026-03-08T11:07:03.000Z</time></trkpt>
<trkpt lat="42.098175" lon="23.5738"><ele>2580.2</ele><time>2026-03-08T11:07:04.000Z</time></trkpt>
<trkpt lat="42.09818" lon="23.573798"><ele>2580.2</ele><time>2026-03-08T11:07:05.000Z</time></trkpt>
<trkpt lat="42.098186" lon="23.573796"><ele>2580.2</ele><time>2026-03-08T11:07:06.000Z</time></trkpt>
<trkpt lat="42.098192" lon="23.573794"><ele>2580.9</ele><time>2026-03-08T11:07:07.000Z</time></trkpt>
<trkpt lat="42.098198" lon="23.573792"><ele>2580.9</ele><time>2026-03-08T11:07:08.000Z</time></trkpt>
<trkpt lat="42.098204" lon="23.57379"><ele>2580.9</ele><time>2026-03-08T11:07:09.000Z</time></trkpt>
<trkpt lat="42.098211" lon="23.573788"><ele>2580.9</ele><time>2026-03-08T11:07:10.000Z</time></trkpt>
<trkpt lat="42.098217" lon="23.573786"><ele>2580.9</ele><time>2026-03-08T11:07:11.000Z</time></trkpt>
<trkpt lat="42.098223" lon="23.573783"><ele>2581.4</ele><time>2026-03-08T11:07:12.000Z</time></trkpt>
<trkpt lat="42.098229" lon="23.57378"><ele>2581.4</ele><time>2026-03-08T11:07:13.000Z</time></trkpt>
<trkpt lat="42.098235" lon="23.573776"><ele>2581.4</ele><time>2026-03-08T11:07:14.000Z</time></trkpt>
<trkpt lat="42.09824" lon="23.573772"><ele>2581.4</ele><time>2026-03-08T11:07:15.000Z</time></trkpt>
<trkpt lat="42.098246" lon="23.573768"><ele>2581.4</ele><time>2026-03-08T11:07:16.000Z</time></trkpt>
<trkpt lat="42.098252" lon="23.573765"><ele>2582.4</ele><time>2026-03-08T11:07:17.000Z</time></trkpt>
<trkpt lat="42.098259" lon="23.573763"><ele>2582.4</ele><time>2026-03-08T11:07:18.000Z</time></trkpt>
<trkpt lat="42.098265" lon="23.573761"><ele>2582.4</ele><time>2026-03-08T11:07:19.000Z</time></trkpt>
<trkpt lat="42.098271" lon="23.573759"><ele>2582.4</ele><time>2026-03-08T11:07:20.000Z</time></trkpt>
<trkpt lat="42.098278" lon="23.573756"><ele>2582.4</ele><time>2026-03-08T11:07:21.000Z</time></trkpt>
<trkpt lat="42.098285" lon="23.573753"><ele>2583.3</ele><time>2026-03-08T11:07:22.000Z</time></trkpt>
<trkpt lat="42.09829" lon="23.573748"><ele>2583.3</ele><time>2026-03-08T11:07:23.000Z</time></trkpt>
<trkpt lat="42.098296" lon="23.573744"><ele>2583.3</ele><time>2026-03-08T11:07:24.000Z</time></trkpt>
<trkpt lat="42.098302" lon="23.57374"><ele>2583.3</ele><time>2026-03-08T11:07:25.000Z</time></trkpt>
<trkpt lat="42.098307" lon="23.573736"><ele>2583.3</ele><time>2026-03-08T11:07:26.000Z</time></trkpt>
<trkpt lat="42.098312" lon="23.573733"><ele>2583.7</ele><time>2026-03-08T11:07:27.000Z</time></trkpt>
<trkpt lat="42.098318" lon="23.573729"><ele>2583.7</ele><time>2026-03-08T11:07:28.000Z</time></trkpt>
<trkpt lat="42.098324" lon="23.573727"><ele>2583.7</ele><time>2026-03-08T11:07:29.000Z</time></trkpt>
<trkpt lat="42.098328" lon="23.573724"><ele>2583.7</ele><time>2026-03-08T11:07:30.000Z</time></trkpt>
<trkpt lat="42.098333" lon="23.573722"><ele>2583.7</ele><time>2026-03-08T11:07:31.000Z</time></trkpt>
<trkpt lat="42.098338" lon="23.57372"><ele>2584.5</ele><time>2026-03-08T11:07:32.000Z</time></trkpt>
<trkpt lat="42.098344" lon="23.573718"><ele>2584.5</ele><time>2026-03-08T11:07:33.000Z</time></trkpt>
<trkpt lat="42.098348" lon="23.573716"><ele>2584.5</ele><time>2026-03-08T11:07:34.000Z</time></trkpt>
<trkpt lat="42.098353" lon="23.573714"><ele>2584.5</ele><time>2026-03-08T11:07:35.000Z</time></trkpt>
<trkpt lat="42.098358" lon="23.573712"><ele>2584.5</ele><time>2026-03-08T11:07:36.000Z</time></trkpt>
<trkpt lat="42.098362" lon="23.573711"><ele>2585.4</ele><time>2026-03-08T11:07:37.000Z</time></trkpt>
<trkpt lat="42.098365" lon="23.573711"><ele>2585.4</ele><time>2026-03-08T11:07:38.000Z</time></trkpt>
<trkpt lat="42.098368" lon="23.573712"><ele>2585.4</ele><time>2026-03-08T11:07:39.000Z</time></trkpt>
<trkpt lat="42.098369" lon="23.573714"><ele>2585.4</ele><time>2026-03-08T11:07:40.000Z</time></trkpt>
<trkpt lat="42.098368" lon="23.573716"><ele>2585.4</ele><time>2026-03-08T11:07:41.000Z</time></trkpt>
<trkpt lat="42.098367" lon="23.573718"><ele>2585.7</ele><time>2026-03-08T11:07:42.000Z</time></trkpt>
<trkpt lat="42.098366" lon="23.573718"><ele>2585.7</ele><time>2026-03-08T11:07:43.000Z</time></trkpt>
<trkpt lat="42.098365" lon="23.573718"><ele>2585.7</ele><time>2026-03-08T11:07:44.000Z</time></trkpt>
<trkpt lat="42.098366" lon="23.573717"><ele>2585.7</ele><time>2026-03-08T11:07:45.000Z</time></trkpt>
<trkpt lat="42.098368" lon="23.573715"><ele>2585.7</ele><time>2026-03-08T11:07:46.000Z</time></trkpt>
<trkpt lat="42.098371" lon="23.573713"><ele>2586.5</ele><time>2026-03-08T11:07:47.000Z</time></trkpt>
<trkpt lat="42.098376" lon="23.573711"><ele>2586.5</ele><time>2026-03-08T11:07:48.000Z</time></trkpt>
<trkpt lat="42.098382" lon="23.573708"><ele>2586.5</ele><time>2026-03-08T11:07:49.000Z</time></trkpt>
<trkpt lat="42.098387" lon="23.573704"><ele>2586.5</ele><time>2026-03-08T11:07:50.000Z</time></trkpt>
<trkpt lat="42.098393" lon="23.573699"><ele>2586.5</ele><time>2026-03-08T11:07:51.000Z</time></trkpt>
<trkpt lat="42.098398" lon="23.573695"><ele>2587.2</ele><time>2026-03-08T11:07:52.000Z</time></trkpt>
<trkpt lat="42.098402" lon="23.573691"><ele>2587.2</ele><time>2026-03-08T11:07:53.000Z</time></trkpt>
<trkpt lat="42.098408" lon="23.573687"><ele>2587.2</ele><time>2026-03-08T11:07:54.000Z</time></trkpt>
<trkpt lat="42.098412" lon="23.573685"><ele>2587.2</ele><time>2026-03-08T11:07:55.000Z</time></trkpt>
<trkpt lat="42.098417" lon="23.573685"><ele>2587.2</ele><time>2026-03-08T11:07:56.000Z</time></trkpt>
<trkpt lat="42.098422" lon="23.573684"><ele>2587.5</ele><time>2026-03-08T11:07:57.000Z</time></trkpt>
<trkpt lat="42.098429" lon="23.573683"><ele>2587.5</ele><time>2026-03-08T11:07:58.000Z</time></trkpt>
<trkpt lat="42.098435" lon="23.573682"><ele>2587.5</ele><time>2026-03-08T11:07:59.000Z</time></trkpt>
<trkpt lat="42.09844" lon="23.573681"><ele>2587.5</ele><time>2026-03-08T11:08:00.000Z</time></trkpt>
<trkpt lat="42.098446" lon="23.57368"><ele>2587.5</ele><time>2026-03-08T11:08:01.000Z</time></trkpt>
<trkpt lat="42.098452" lon="23.573679"><ele>2588.1</ele><time>2026-03-08T11:08:02.000Z</time></trkpt>
<trkpt lat="42.098457" lon="23.573679"><ele>2588.1</ele><time>2026-03-08T11:08:03.000Z</time></trkpt>
<trkpt lat="42.098463" lon="23.573678"><ele>2588.1</ele><time>2026-03-08T11:08:04.000Z</time></trkpt>
<trkpt lat="42.098469" lon="23.573677"><ele>2588.1</ele><time>2026-03-08T11:08:05.000Z</time></trkpt>
<trkpt lat="42.098475" lon="23.573675"><ele>2588.1</ele><time>2026-03-08T11:08:06.000Z</time></trkpt>
<trkpt lat="42.098481" lon="23.573673"><ele>2588.7</ele><time>2026-03-08T11:08:07.000Z</time></trkpt>
<trkpt lat="42.098488" lon="23.57367"><ele>2588.7</ele><time>2026-03-08T11:08:08.000Z</time></trkpt>
<trkpt lat="42.098495" lon="23.573666"><ele>2588.7</ele><time>2026-03-08T11:08:09.000Z</time></trkpt>
<trkpt lat="42.098501" lon="23.573662"><ele>2588.7</ele><time>2026-03-08T11:08:10.000Z</time></trkpt>
<trkpt lat="42.098508" lon="23.573659"><ele>2588.7</ele><time>2026-03-08T11:08:11.000Z</time></trkpt>
<trkpt lat="42.098515" lon="23.573655"><ele>2589.1</ele><time>2026-03-08T11:08:12.000Z</time></trkpt>
<trkpt lat="42.098521" lon="23.573652"><ele>2589.1</ele><time>2026-03-08T11:08:13.000Z</time></trkpt>
<trkpt lat="42.098527" lon="23.57365"><ele>2589.1</ele><time>2026-03-08T11:08:14.000Z</time></trkpt>
<trkpt lat="42.098533" lon="23.573647"><ele>2589.1</ele><time>2026-03-08T11:08:15.000Z</time></trkpt>
<trkpt lat="42.098538" lon="23.573644"><ele>2589.1</ele><time>2026-03-08T11:08:16.000Z</time></trkpt>
<trkpt lat="42.098543" lon="23.57364"><ele>2589.9</ele><time>2026-03-08T11:08:17.000Z</time></trkpt>
<trkpt lat="42.098548" lon="23.573635"><ele>2589.9</ele><time>2026-03-08T11:08:18.000Z</time></trkpt>
<trkpt lat="42.098552" lon="23.573628"><ele>2589.9</ele><time>2026-03-08T11:08:19.000Z</time></trkpt>
<trkpt lat="42.098556" lon="23.57362"><ele>2589.9</ele><time>2026-03-08T11:08:20.000Z</time></trkpt>
<trkpt lat="42.098561" lon="23.573611"><ele>2589.9</ele><time>2026-03-08T11:08:21.000Z</time></trkpt>
<trkpt lat="42.098566" lon="23.573603"><ele>2590.8</ele><time>2026-03-08T11:08:22.000Z</time></trkpt>
<trkpt lat="42.09857" lon="23.573596"><ele>2590.8</ele><time>2026-03-08T11:08:23.000Z</time></trkpt>
<trkpt lat="42.098573" lon="23.573591"><ele>2590.8</ele><time>2026-03-08T11:08:24.000Z</time></trkpt>
<trkpt lat="42.098576" lon="23.573588"><ele>2590.8</ele><time>2026-03-08T11:08:25.000Z</time></trkpt>
<trkpt lat="42.098577" lon="23.573587"><ele>2590.8</ele><time>2026-03-08T11:08:26.000Z</time></trkpt>
<trkpt lat="42.098577" lon="23.573587"><ele>2591.1</ele><time>2026-03-08T11:08:27.000Z</time></trkpt>
<trkpt lat="42.098576" lon="23.573587"><ele>2591.1</ele><time>2026-03-08T11:08:28.000Z</time></trkpt>
<trkpt lat="42.098576" lon="23.573588"><ele>2591.1</ele><time>2026-03-08T11:08:29.000Z</time></trkpt>
<trkpt lat="42.098576" lon="23.573588"><ele>2591.1</ele><time>2026-03-08T11:08:30.000Z</time></trkpt>
<trkpt lat="42.098576" lon="23.573588"><ele>2591.1</ele><time>2026-03-08T11:08:31.000Z</time></trkpt>
<trkpt lat="42.098576" lon="23.573587"><ele>2591.8</ele><time>2026-03-08T11:08:32.000Z</time></trkpt>
<trkpt lat="42.098576" lon="23.573585"><ele>2591.8</ele><time>2026-03-08T11:08:33.000Z</time></trkpt>
<trkpt lat="42.098577" lon="23.573582"><ele>2591.8</ele><time>2026-03-08T11:08:34.000Z</time></trkpt>
<trkpt lat="42.098578" lon="23.573578"><ele>2591.8</ele><time>2026-03-08T11:08:35.000Z</time></trkpt>
<trkpt lat="42.098581" lon="23.573574"><ele>2591.8</ele><time>2026-03-08T11:08:36.000Z</time></trkpt>
<trkpt lat="42.098583" lon="23.573569"><ele>2592.5</ele><time>2026-03-08T11:08:37.000Z</time></trkpt>
<trkpt lat="42.098587" lon="23.573564"><ele>2592.5</ele><time>2026-03-08T11:08:38.000Z</time></trkpt>
<trkpt lat="42.098591" lon="23.573559"><ele>2592.5</ele><time>2026-03-08T11:08:39.000Z</time></trkpt>
<trkpt lat="42.098596" lon="23.573553"><ele>2592.5</ele><time>2026-03-08T11:08:40.000Z</time></trkpt>
<trkpt lat="42.098599" lon="23.573546"><ele>2592.5</ele><time>2026-03-08T11:08:41.000Z</time></trkpt>
<trkpt lat="42.098604" lon="23.573541"><ele>2592.7</ele><time>2026-03-08T11:08:42.000Z</time></trkpt>
<trkpt lat="42.098609" lon="23.573535"><ele>2592.7</ele><time>2026-03-08T11:08:43.000Z</time></trkpt>
<trkpt lat="42.098613" lon="23.57353"><ele>2592.7</ele><time>2026-03-08T11:08:44.000Z</time></trkpt>
<trkpt lat="42.098617" lon="23.573527"><ele>2592.7</ele><time>2026-03-08T11:08:45.000Z</time></trkpt>
<trkpt lat="42.098622" lon="23.573524"><ele>2592.7</ele><time>2026-03-08T11:08:46.000Z</time></trkpt>
<trkpt lat="42.098626" lon="23.57352"><ele>2592.8</ele><time>2026-03-08T11:08:47.000Z</time></trkpt>
<trkpt lat="42.09863" lon="23.573517"><ele>2592.8</ele><time>2026-03-08T11:08:48.000Z</time></trkpt>
<trkpt lat="42.098634" lon="23.573513"><ele>2592.8</ele><time>2026-03-08T11:08:49.000Z</time></trkpt>
<trkpt lat="42.098639" lon="23.573508"><ele>2592.8</ele><time>2026-03-08T11:08:50.000Z</time></trkpt>
<trkpt lat="42.098644" lon="23.573504"><ele>2592.8</ele><time>2026-03-08T11:08:51.000Z</time></trkpt>
<trkpt lat="42.098648" lon="23.5735"><ele>2593</ele><time>2026-03-08T11:08:52.000Z</time></trkpt>
<trkpt lat="42.098653" lon="23.573497"><ele>2593</ele><time>2026-03-08T11:08:53.000Z</time></trkpt>
<trkpt lat="42.098659" lon="23.573495"><ele>2593</ele><time>2026-03-08T11:08:54.000Z</time></trkpt>
<trkpt lat="42.098665" lon="23.573492"><ele>2593</ele><time>2026-03-08T11:08:55.000Z</time></trkpt>
<trkpt lat="42.09867" lon="23.57349"><ele>2593</ele><time>2026-03-08T11:08:56.000Z</time></trkpt>
<trkpt lat="42.098675" lon="23.573489"><ele>2593.2</ele><time>2026-03-08T11:08:57.000Z</time></trkpt>
<trkpt lat="42.09868" lon="23.573486"><ele>2593.2</ele><time>2026-03-08T11:08:58.000Z</time></trkpt>
<trkpt lat="42.098685" lon="23.573484"><ele>2593.2</ele><time>2026-03-08T11:08:59.000Z</time></trkpt>
<trkpt lat="42.098689" lon="23.573481"><ele>2593.2</ele><time>2026-03-08T11:09:00.000Z</time></trkpt>
<trkpt lat="42.098693" lon="23.573479"><ele>2593.2</ele><time>2026-03-08T11:09:01.000Z</time></trkpt>
<trkpt lat="42.098698" lon="23.573477"><ele>2594</ele><time>2026-03-08T11:09:02.000Z</time></trkpt>
<trkpt lat="42.098703" lon="23.573474"><ele>2594</ele><time>2026-03-08T11:09:03.000Z</time></trkpt>
<trkpt lat="42.098708" lon="23.573472"><ele>2594</ele><time>2026-03-08T11:09:04.000Z</time></trkpt>
<trkpt lat="42.098713" lon="23.573469"><ele>2594</ele><time>2026-03-08T11:09:05.000Z</time></trkpt>
<trkpt lat="42.098718" lon="23.573466"><ele>2594</ele><time>2026-03-08T11:09:06.000Z</time></trkpt>
<trkpt lat="42.098723" lon="23.573463"><ele>2595.1</ele><time>2026-03-08T11:09:07.000Z</time></trkpt>
<trkpt lat="42.098729" lon="23.57346"><ele>2595.1</ele><time>2026-03-08T11:09:08.000Z</time></trkpt>
<trkpt lat="42.098734" lon="23.573456"><ele>2595.1</ele><time>2026-03-08T11:09:09.000Z</time></trkpt>
<trkpt lat="42.09874" lon="23.573454"><ele>2595.1</ele><time>2026-03-08T11:09:10.000Z</time></trkpt>
<trkpt lat="42.098745" lon="23.573451"><ele>2595.1</ele><time>2026-03-08T11:09:11.000Z</time></trkpt>
<trkpt lat="42.09875" lon="23.57345"><ele>2595.6</ele><time>2026-03-08T11:09:12.000Z</time></trkpt>
<trkpt lat="42.098755" lon="23.573448"><ele>2595.6</ele><time>2026-03-08T11:09:13.000Z</time></trkpt>
<trkpt lat="42.098761" lon="23.573446"><ele>2595.6</ele><time>2026-03-08T11:09:14.000Z</time></trkpt>
<trkpt lat="42.098766" lon="23.573444"><ele>2595.6</ele><time>2026-03-08T11:09:15.000Z</time></trkpt>
<trkpt lat="42.098772" lon="23.573441"><ele>2595.6</ele><time>2026-03-08T11:09:16.000Z</time></trkpt>
<trkpt lat="42.098778" lon="23.573438"><ele>2596.5</ele><time>2026-03-08T11:09:17.000Z</time></trkpt>
<trkpt lat="42.098784" lon="23.573436"><ele>2596.5</ele><time>2026-03-08T11:09:18.000Z</time></trkpt>
<trkpt lat="42.098789" lon="23.573433"><ele>2596.5</ele><time>2026-03-08T11:09:19.000Z</time></trkpt>
<trkpt lat="42.098795" lon="23.573429"><ele>2596.5</ele><time>2026-03-08T11:09:20.000Z</time></trkpt>
<trkpt lat="42.098799" lon="23.573426"><ele>2596.5</ele><time>2026-03-08T11:09:21.000Z</time></trkpt>
<trkpt lat="42.098804" lon="23.573422"><ele>2597.4</ele><time>2026-03-08T11:09:22.000Z</time></trkpt>
<trkpt lat="42.098809" lon="23.573417"><ele>2597.4</ele><time>2026-03-08T11:09:23.000Z</time></trkpt>
<trkpt lat="42.098814" lon="23.573411"><ele>2597.4</ele><time>2026-03-08T11:09:24.000Z</time></trkpt>
<trkpt lat="42.098818" lon="23.573406"><ele>2597.4</ele><time>2026-03-08T11:09:25.000Z</time></trkpt>
<trkpt lat="42.098823" lon="23.573399"><ele>2597.4</ele><time>2026-03-08T11:09:26.000Z</time></trkpt>
<trkpt lat="42.098827" lon="23.573391"><ele>2597.8</ele><time>2026-03-08T11:09:27.000Z</time></trkpt>
<trkpt lat="42.098828" lon="23.573385"><ele>2597.8</ele><time>2026-03-08T11:09:28.000Z</time></trkpt>
<trkpt lat="42.098828" lon="23.573379"><ele>2597.8</ele><time>2026-03-08T11:09:29.000Z</time></trkpt>
<trkpt lat="42.098828" lon="23.573375"><ele>2597.8</ele><time>2026-03-08T11:09:30.000Z</time></trkpt>
<trkpt lat="42.098828" lon="23.573371"><ele>2597.8</ele><time>2026-03-08T11:09:31.000Z</time></trkpt>
<trkpt lat="42.098827" lon="23.573371"><ele>2598.5</ele><time>2026-03-08T11:09:32.000Z</time></trkpt>
<trkpt lat="42.098827" lon="23.57337"><ele>2598.5</ele><time>2026-03-08T11:09:33.000Z</time></trkpt>
<trkpt lat="42.098827" lon="23.573369"><ele>2598.5</ele><time>2026-03-08T11:09:34.000Z</time></trkpt>
<trkpt lat="42.098829" lon="23.573366"><ele>2598.5</ele><time>2026-03-08T11:09:35.000Z</time></trkpt>
<trkpt lat="42.098832" lon="23.573364"><ele>2598.5</ele><time>2026-03-08T11:09:36.000Z</time></trkpt>
<trkpt lat="42.098835" lon="23.57336"><ele>2599</ele><time>2026-03-08T11:09:37.000Z</time></trkpt>
<trkpt lat="42.09884" lon="23.573356"><ele>2599</ele><time>2026-03-08T11:09:38.000Z</time></trkpt>
<trkpt lat="42.098844" lon="23.573353"><ele>2599</ele><time>2026-03-08T11:09:39.000Z</time></trkpt>
<trkpt lat="42.098848" lon="23.573352"><ele>2599</ele><time>2026-03-08T11:09:40.000Z</time></trkpt>
<trkpt lat="42.098852" lon="23.57335"><ele>2599</ele><time>2026-03-08T11:09:41.000Z</time></trkpt>
<trkpt lat="42.098857" lon="23.573349"><ele>2599.2</ele><time>2026-03-08T11:09:42.000Z</time></trkpt>
<trkpt lat="42.09886" lon="23.573349"><ele>2599.2</ele><time>2026-03-08T11:09:43.000Z</time></trkpt>
<trkpt lat="42.098864" lon="23.573349"><ele>2599.2</ele><time>2026-03-08T11:09:44.000Z</time></trkpt>
<trkpt lat="42.098868" lon="23.573351"><ele>2599.2</ele><time>2026-03-08T11:09:45.000Z</time></trkpt>
<trkpt lat="42.09887" lon="23.573352"><ele>2599.2</ele><time>2026-03-08T11:09:46.000Z</time></trkpt>
<trkpt lat="42.098872" lon="23.573353"><ele>2599.3</ele><time>2026-03-08T11:09:47.000Z</time></trkpt>
<trkpt lat="42.098873" lon="23.573352"><ele>2599.3</ele><time>2026-03-08T11:09:48.000Z</time></trkpt>
<trkpt lat="42.098876" lon="23.573351"><ele>2599.3</ele><time>2026-03-08T11:09:49.000Z</time></trkpt>
<trkpt lat="42.09888" lon="23.573347"><ele>2599.3</ele><time>2026-03-08T11:09:50.000Z</time></trkpt>
<trkpt lat="42.098884" lon="23.573344"><ele>2599.3</ele><time>2026-03-08T11:09:51.000Z</time></trkpt>
<trkpt lat="42.09889" lon="23.573341"><ele>2599.7</ele><time>2026-03-08T11:09:52.000Z</time></trkpt>
<trkpt lat="42.098895" lon="23.573339"><ele>2599.7</ele><time>2026-03-08T11:09:53.000Z</time></trkpt>
<trkpt lat="42.098899" lon="23.573338"><ele>2599.7</ele><time>2026-03-08T11:09:54.000Z</time></trkpt>
<trkpt lat="42.098903" lon="23.573338"><ele>2599.7</ele><time>2026-03-08T11:09:55.000Z</time></trkpt>
<trkpt lat="42.098905" lon="23.573337"><ele>2599.7</ele><time>2026-03-08T11:09:56.000Z</time></trkpt>
<trkpt lat="42.098908" lon="23.573337"><ele>2599.9</ele><time>2026-03-08T11:09:57.000Z</time></trkpt>
<trkpt lat="42.098912" lon="23.573336"><ele>2599.9</ele><time>2026-03-08T11:09:58.000Z</time></trkpt>
<trkpt lat="42.098916" lon="23.573335"><ele>2599.9</ele><time>2026-03-08T11:09:59.000Z</time></trkpt>
<trkpt lat="42.098921" lon="23.573334"><ele>2599.9</ele><time>2026-03-08T11:10:00.000Z</time></trkpt>
<trkpt lat="42.098926" lon="23.573331"><ele>2599.9</ele><time>2026-03-08T11:10:01.000Z</time></trkpt>
<trkpt lat="42.098933" lon="23.57333"><ele>2600.6</ele><time>2026-03-08T11:10:02.000Z</time></trkpt>
<trkpt lat="42.098938" lon="23.573327"><ele>2600.6</ele><time>2026-03-08T11:10:03.000Z</time></trkpt>
<trkpt lat="42.098944" lon="23.573325"><ele>2600.6</ele><time>2026-03-08T11:10:04.000Z</time></trkpt>
<trkpt lat="42.09895" lon="23.573325"><ele>2600.6</ele><time>2026-03-08T11:10:05.000Z</time></trkpt>
<trkpt lat="42.098957" lon="23.573326"><ele>2600.6</ele><time>2026-03-08T11:10:06.000Z</time></trkpt>
<trkpt lat="42.098963" lon="23.573328"><ele>2601.2</ele><time>2026-03-08T11:10:07.000Z</time></trkpt>
<trkpt lat="42.098968" lon="23.573332"><ele>2601.2</ele><time>2026-03-08T11:10:08.000Z</time></trkpt>
<trkpt lat="42.098974" lon="23.573336"><ele>2601.2</ele><time>2026-03-08T11:10:09.000Z</time></trkpt>
<trkpt lat="42.098979" lon="23.573338"><ele>2601.2</ele><time>2026-03-08T11:10:10.000Z</time></trkpt>
<trkpt lat="42.098986" lon="23.573338"><ele>2601.2</ele><time>2026-03-08T11:10:11.000Z</time></trkpt>
<trkpt lat="42.098992" lon="23.573337"><ele>2601.6</ele><time>2026-03-08T11:10:12.000Z</time></trkpt>
<trkpt lat="42.098999" lon="23.573334"><ele>2601.6</ele><time>2026-03-08T11:10:13.000Z</time></trkpt>
<trkpt lat="42.099006" lon="23.57333"><ele>2601.6</ele><time>2026-03-08T11:10:14.000Z</time></trkpt>
<trkpt lat="42.099014" lon="23.573326"><ele>2601.6</ele><time>2026-03-08T11:10:15.000Z</time></trkpt>
<trkpt lat="42.099022" lon="23.573321"><ele>2601.6</ele><time>2026-03-08T11:10:16.000Z</time></trkpt>
<trkpt lat="42.09903" lon="23.573316"><ele>2602.5</ele><time>2026-03-08T11:10:17.000Z</time></trkpt>
<trkpt lat="42.099037" lon="23.573311"><ele>2602.5</ele><time>2026-03-08T11:10:18.000Z</time></trkpt>
<trkpt lat="42.099045" lon="23.573307"><ele>2602.5</ele><time>2026-03-08T11:10:19.000Z</time></trkpt>
<trkpt lat="42.099051" lon="23.573303"><ele>2602.5</ele><time>2026-03-08T11:10:20.000Z</time></trkpt>
<trkpt lat="42.099059" lon="23.573299"><ele>2602.5</ele><time>2026-03-08T11:10:21.000Z</time></trkpt>
<trkpt lat="42.099067" lon="23.573295"><ele>2603.5</ele><time>2026-03-08T11:10:22.000Z</time></trkpt>
<trkpt lat="42.099075" lon="23.573292"><ele>2603.5</ele><time>2026-03-08T11:10:23.000Z</time></trkpt>
<trkpt lat="42.099083" lon="23.573288"><ele>2603.5</ele><time>2026-03-08T11:10:24.000Z</time></trkpt>
<trkpt lat="42.099092" lon="23.573286"><ele>2603.5</ele><time>2026-03-08T11:10:25.000Z</time></trkpt>
<trkpt lat="42.099101" lon="23.573283"><ele>2603.5</ele><time>2026-03-08T11:10:26.000Z</time></trkpt>
<trkpt lat="42.099109" lon="23.573281"><ele>2604</ele><time>2026-03-08T11:10:27.000Z</time></trkpt>
<trkpt lat="42.099116" lon="23.57328"><ele>2604</ele><time>2026-03-08T11:10:28.000Z</time></trkpt>
<trkpt lat="42.099124" lon="23.573279"><ele>2604</ele><time>2026-03-08T11:10:29.000Z</time></trkpt>
<trkpt lat="42.099131" lon="23.573278"><ele>2604</ele><time>2026-03-08T11:10:30.000Z</time></trkpt>
<trkpt lat="42.099139" lon="23.573277"><ele>2604</ele><time>2026-03-08T11:10:31.000Z</time></trkpt>
<trkpt lat="42.099147" lon="23.573275"><ele>2604.7</ele><time>2026-03-08T11:10:32.000Z</time></trkpt>
<trkpt lat="42.099155" lon="23.573272"><ele>2604.7</ele><time>2026-03-08T11:10:33.000Z</time></trkpt>
<trkpt lat="42.099162" lon="23.573269"><ele>2604.7</ele><time>2026-03-08T11:10:34.000Z</time></trkpt>
<trkpt lat="42.09917" lon="23.573266"><ele>2604.7</ele><time>2026-03-08T11:10:35.000Z</time></trkpt>
<trkpt lat="42.099177" lon="23.573262"><ele>2604.7</ele><time>2026-03-08T11:10:36.000Z</time></trkpt>
<trkpt lat="42.099182" lon="23.573258"><ele>2605.1</ele><time>2026-03-08T11:10:37.000Z</time></trkpt>
<trkpt lat="42.099188" lon="23.573254"><ele>2605.1</ele><time>2026-03-08T11:10:38.000Z</time></trkpt>
<trkpt lat="42.099194" lon="23.57325"><ele>2605.1</ele><time>2026-03-08T11:10:39.000Z</time></trkpt>
<trkpt lat="42.0992" lon="23.573245"><ele>2605.1</ele><time>2026-03-08T11:10:40.000Z</time></trkpt>
<trkpt lat="42.099205" lon="23.57324"><ele>2605.1</ele><time>2026-03-08T11:10:41.000Z</time></trkpt>
<trkpt lat="42.099212" lon="23.573236"><ele>2605.3</ele><time>2026-03-08T11:10:42.000Z</time></trkpt>
<trkpt lat="42.099218" lon="23.573232"><ele>2605.3</ele><time>2026-03-08T11:10:43.000Z</time></trkpt>
<trkpt lat="42.099224" lon="23.573229"><ele>2605.3</ele><time>2026-03-08T11:10:44.000Z</time></trkpt>
<trkpt lat="42.099228" lon="23.573227"><ele>2605.3</ele><time>2026-03-08T11:10:45.000Z</time></trkpt>
<trkpt lat="42.099231" lon="23.573225"><ele>2605.3</ele><time>2026-03-08T11:10:46.000Z</time></trkpt>
<trkpt lat="42.099234" lon="23.573223"><ele>2605.7</ele><time>2026-03-08T11:10:47.000Z</time></trkpt>
<trkpt lat="42.099235" lon="23.573222"><ele>2605.7</ele><time>2026-03-08T11:10:48.000Z</time></trkpt>
<trkpt lat="42.099236" lon="23.573221"><ele>2605.7</ele><time>2026-03-08T11:10:49.000Z</time></trkpt>
<trkpt lat="42.099236" lon="23.573221"><ele>2605.7</ele><time>2026-03-08T11:10:50.000Z</time></trkpt>
<trkpt lat="42.099237" lon="23.57322"><ele>2605.7</ele><time>2026-03-08T11:10:51.000Z</time></trkpt>
<trkpt lat="42.099237" lon="23.57322"><ele>2606.2</ele><time>2026-03-08T11:10:52.000Z</time></trkpt>
<trkpt lat="42.099237" lon="23.57322"><ele>2606.2</ele><time>2026-03-08T11:10:53.000Z</time></trkpt>
<trkpt lat="42.099236" lon="23.573219"><ele>2606.2</ele><time>2026-03-08T11:10:54.000Z</time></trkpt>
<trkpt lat="42.099236" lon="23.573217"><ele>2606.2</ele><time>2026-03-08T11:10:55.000Z</time></trkpt>
<trkpt lat="42.099236" lon="23.573215"><ele>2606.2</ele><time>2026-03-08T11:10:56.000Z</time></trkpt>
<trkpt lat="42.099237" lon="23.573212"><ele>2606.5</ele><time>2026-03-08T11:10:57.000Z</time></trkpt>
<trkpt lat="42.099238" lon="23.573209"><ele>2606.5</ele><time>2026-03-08T11:10:58.000Z</time></trkpt>
<trkpt lat="42.099241" lon="23.573206"><ele>2606.5</ele><time>2026-03-08T11:10:59.000Z</time></trkpt>
<trkpt lat="42.099244" lon="23.573203"><ele>2606.5</ele><time>2026-03-08T11:11:00.000Z</time></trkpt>
<trkpt lat="42.099247" lon="23.5732"><ele>2606.5</ele><time>2026-03-08T11:11:01.000Z</time></trkpt>
<trkpt lat="42.099248" lon="23.573198"><ele>2607.2</ele><time>2026-03-08T11:11:02.000Z</time></trkpt>
<trkpt lat="42.099248" lon="23.573196"><ele>2607.2</ele><time>2026-03-08T11:11:03.000Z</time></trkpt>
<trkpt lat="42.099247" lon="23.573195"><ele>2607.2</ele><time>2026-03-08T11:11:04.000Z</time></trkpt>
<trkpt lat="42.099246" lon="23.573194"><ele>2607.2</ele><time>2026-03-08T11:11:05.000Z</time></trkpt>
<trkpt lat="42.099245" lon="23.573194"><ele>2607.2</ele><time>2026-03-08T11:11:06.000Z</time></trkpt>
<trkpt lat="42.099244" lon="23.573194"><ele>2607.8</ele><time>2026-03-08T11:11:07.000Z</time></trkpt>
<trkpt lat="42.099244" lon="23.573194"><ele>2607.8</ele><time>2026-03-08T11:11:08.000Z</time></trkpt>
<trkpt lat="42.099244" lon="23.573194"><ele>2607.8</ele><time>2026-03-08T11:11:09.000Z</time></trkpt>
<trkpt lat="42.099244" lon="23.573194"><ele>2607.8</ele><time>2026-03-08T11:11:10.000Z</time></trkpt>
<trkpt lat="42.099244" lon="23.573194"><ele>2607.8</ele><time>2026-03-08T11:11:11.000Z</time></trkpt>
<trkpt lat="42.099244" lon="23.573194"><ele>2608</ele><time>2026-03-08T11:11:12.000Z</time></trkpt>
<trkpt lat="42.099245" lon="23.573194"><ele>2608</ele><time>2026-03-08T11:11:13.000Z</time></trkpt>
<trkpt lat="42.099247" lon="23.573194"><ele>2608</ele><time>2026-03-08T11:11:14.000Z</time></trkpt>
<trkpt lat="42.09925" lon="23.573193"><ele>2608</ele><time>2026-03-08T11:11:15.000Z</time></trkpt>
<trkpt lat="42.099256" lon="23.573192"><ele>2608</ele><time>2026-03-08T11:11:16.000Z</time></trkpt>
<trkpt lat="42.099262" lon="23.57319"><ele>2608</ele><time>2026-03-08T11:11:17.000Z</time></trkpt>
<trkpt lat="42.099269" lon="23.573187"><ele>2608</ele><time>2026-03-08T11:11:18.000Z</time></trkpt>
<trkpt lat="42.099277" lon="23.573184"><ele>2608</ele><time>2026-03-08T11:11:19.000Z</time></trkpt>
<trkpt lat="42.099285" lon="23.57318"><ele>2608</ele><time>2026-03-08T11:11:20.000Z</time></trkpt>
<trkpt lat="42.099292" lon="23.573177"><ele>2608</ele><time>2026-03-08T11:11:21.000Z</time></trkpt>
<trkpt lat="42.0993" lon="23.573173"><ele>2608</ele><time>2026-03-08T11:11:22.000Z</time></trkpt>
<trkpt lat="42.099308" lon="23.573169"><ele>2608</ele><time>2026-03-08T11:11:23.000Z</time></trkpt>
<trkpt lat="42.099316" lon="23.573165"><ele>2608</ele><time>2026-03-08T11:11:24.000Z</time></trkpt>
<trkpt lat="42.099324" lon="23.573162"><ele>2608</ele><time>2026-03-08T11:11:25.000Z</time></trkpt>
<trkpt lat="42.099332" lon="23.573157"><ele>2608</ele><time>2026-03-08T11:11:26.000Z</time></trkpt>
<trkpt lat="42.099339" lon="23.573153"><ele>2608</ele><time>2026-03-08T11:11:27.000Z</time></trkpt>
<trkpt lat="42.099347" lon="23.57315"><ele>2608</ele><time>2026-03-08T11:11:28.000Z</time></trkpt>
<trkpt lat="42.099354" lon="23.573148"><ele>2608</ele><time>2026-03-08T11:11:29.000Z</time></trkpt>
<trkpt lat="42.099362" lon="23.573146"><ele>2608</ele><time>2026-03-08T11:11:30.000Z</time></trkpt>
<trkpt lat="42.099369" lon="23.573146"><ele>2608</ele><time>2026-03-08T11:11:31.000Z</time></trkpt>
<trkpt lat="42.099377" lon="23.573146"><ele>2608.4</ele><time>2026-03-08T11:11:32.000Z</time></trkpt>
<trkpt lat="42.099385" lon="23.573144"><ele>2608.4</ele><time>2026-03-08T11:11:33.000Z</time></trkpt>
<trkpt lat="42.099392" lon="23.573143"><ele>2608.4</ele><time>2026-03-08T11:11:34.000Z</time></trkpt>
<trkpt lat="42.0994" lon="23.573141"><ele>2608.4</ele><time>2026-03-08T11:11:35.000Z</time></trkpt>
<trkpt lat="42.099408" lon="23.573138"><ele>2608.4</ele><time>2026-03-08T11:11:36.000Z</time></trkpt>
<trkpt lat="42.099415" lon="23.573135"><ele>2609.1</ele><time>2026-03-08T11:11:37.000Z</time></trkpt>
<trkpt lat="42.099423" lon="23.573132"><ele>2609.1</ele><time>2026-03-08T11:11:38.000Z</time></trkpt>
<trkpt lat="42.099431" lon="23.573129"><ele>2609.1</ele><time>2026-03-08T11:11:39.000Z</time></trkpt>
<trkpt lat="42.099438" lon="23.573126"><ele>2609.1</ele><time>2026-03-08T11:11:40.000Z</time></trkpt>
<trkpt lat="42.099446" lon="23.573123"><ele>2609.1</ele><time>2026-03-08T11:11:41.000Z</time></trkpt>
<trkpt lat="42.099453" lon="23.573121"><ele>2609.5</ele><time>2026-03-08T11:11:42.000Z</time></trkpt>
<trkpt lat="42.099461" lon="23.573119"><ele>2609.5</ele><time>2026-03-08T11:11:43.000Z</time></trkpt>
<trkpt lat="42.099469" lon="23.573116"><ele>2609.5</ele><time>2026-03-08T11:11:44.000Z</time></trkpt>
<trkpt lat="42.099477" lon="23.573114"><ele>2609.5</ele><time>2026-03-08T11:11:45.000Z</time></trkpt>
<trkpt lat="42.099484" lon="23.573111"><ele>2609.5</ele><time>2026-03-08T11:11:46.000Z</time></trkpt>
<trkpt lat="42.099491" lon="23.573108"><ele>2610.3</ele><time>2026-03-08T11:11:47.000Z</time></trkpt>
<trkpt lat="42.099497" lon="23.573105"><ele>2610.3</ele><time>2026-03-08T11:11:48.000Z</time></trkpt>
<trkpt lat="42.099503" lon="23.573103"><ele>2610.3</ele><time>2026-03-08T11:11:49.000Z</time></trkpt>
<trkpt lat="42.09951" lon="23.573102"><ele>2610.3</ele><time>2026-03-08T11:11:50.000Z</time></trkpt>
<trkpt lat="42.099517" lon="23.5731"><ele>2610.3</ele><time>2026-03-08T11:11:51.000Z</time></trkpt>
<trkpt lat="42.099524" lon="23.573098"><ele>2611.2</ele><time>2026-03-08T11:11:52.000Z</time></trkpt>
<trkpt lat="42.099532" lon="23.573097"><ele>2611.2</ele><time>2026-03-08T11:11:53.000Z</time></trkpt>
<trkpt lat="42.09954" lon="23.573094"><ele>2611.2</ele><time>2026-03-08T11:11:54.000Z</time></trkpt>
<trkpt lat="42.099547" lon="23.573091"><ele>2611.2</ele><time>2026-03-08T11:11:55.000Z</time></trkpt>
<trkpt lat="42.099555" lon="23.573088"><ele>2611.2</ele><time>2026-03-08T11:11:56.000Z</time></trkpt>
<trkpt lat="42.099563" lon="23.573087"><ele>2611.6</ele><time>2026-03-08T11:11:57.000Z</time></trkpt>
<trkpt lat="42.099571" lon="23.573085"><ele>2611.6</ele><time>2026-03-08T11:11:58.000Z</time></trkpt>
<trkpt lat="42.099579" lon="23.573082"><ele>2611.6</ele><time>2026-03-08T11:11:59.000Z</time></trkpt>
<trkpt lat="42.099587" lon="23.573079"><ele>2611.6</ele><time>2026-03-08T11:12:00.000Z</time></trkpt>
<trkpt lat="42.099595" lon="23.573076"><ele>2611.6</ele><time>2026-03-08T11:12:01.000Z</time></trkpt>
<trkpt lat="42.099603" lon="23.573074"><ele>2612.5</ele><time>2026-03-08T11:12:02.000Z</time></trkpt>
<trkpt lat="42.09961" lon="23.573071"><ele>2612.5</ele><time>2026-03-08T11:12:03.000Z</time></trkpt>
<trkpt lat="42.099617" lon="23.573069"><ele>2612.5</ele><time>2026-03-08T11:12:04.000Z</time></trkpt>
<trkpt lat="42.099624" lon="23.573068"><ele>2612.5</ele><time>2026-03-08T11:12:05.000Z</time></trkpt>
<trkpt lat="42.099632" lon="23.573067"><ele>2612.5</ele><time>2026-03-08T11:12:06.000Z</time></trkpt>
<trkpt lat="42.099639" lon="23.573064"><ele>2613.5</ele><time>2026-03-08T11:12:07.000Z</time></trkpt>
<trkpt lat="42.099646" lon="23.573062"><ele>2613.5</ele><time>2026-03-08T11:12:08.000Z</time></trkpt>
<trkpt lat="42.099653" lon="23.57306"><ele>2613.5</ele><time>2026-03-08T11:12:09.000Z</time></trkpt>
<trkpt lat="42.09966" lon="23.573058"><ele>2613.5</ele><time>2026-03-08T11:12:10.000Z</time></trkpt>
<trkpt lat="42.099667" lon="23.573056"><ele>2613.5</ele><time>2026-03-08T11:12:11.000Z</time></trkpt>
<trkpt lat="42.099674" lon="23.573055"><ele>2614</ele><time>2026-03-08T11:12:12.000Z</time></trkpt>
<trkpt lat="42.099681" lon="23.573055"><ele>2614</ele><time>2026-03-08T11:12:13.000Z</time></trkpt>
<trkpt lat="42.099687" lon="23.573054"><ele>2614</ele><time>2026-03-08T11:12:14.000Z</time></trkpt>
<trkpt lat="42.099693" lon="23.573053"><ele>2614</ele><time>2026-03-08T11:12:15.000Z</time></trkpt>
<trkpt lat="42.099698" lon="23.573053"><ele>2614</ele><time>2026-03-08T11:12:16.000Z</time></trkpt>
<trkpt lat="42.099701" lon="23.573053"><ele>2614.9</ele><time>2026-03-08T11:12:17.000Z</time></trkpt>
<trkpt lat="42.099704" lon="23.573053"><ele>2614.9</ele><time>2026-03-08T11:12:18.000Z</time></trkpt>
<trkpt lat="42.099708" lon="23.573053"><ele>2614.9</ele><time>2026-03-08T11:12:19.000Z</time></trkpt>
<trkpt lat="42.099712" lon="23.573053"><ele>2614.9</ele><time>2026-03-08T11:12:20.000Z</time></trkpt>
<trkpt lat="42.099717" lon="23.573053"><ele>2614.9</ele><time>2026-03-08T11:12:21.000Z</time></trkpt>
<trkpt lat="42.099722" lon="23.573053"><ele>2615.7</ele><time>2026-03-08T11:12:22.000Z</time></trkpt>
<trkpt lat="42.099729" lon="23.573054"><ele>2615.7</ele><time>2026-03-08T11:12:23.000Z</time></trkpt>
<trkpt lat="42.099734" lon="23.573056"><ele>2615.7</ele><time>2026-03-08T11:12:24.000Z</time></trkpt>
<trkpt lat="42.099738" lon="23.573058"><ele>2615.7</ele><time>2026-03-08T11:12:25.000Z</time></trkpt>
<trkpt lat="42.099743" lon="23.57306"><ele>2615.7</ele><time>2026-03-08T11:12:26.000Z</time></trkpt>
<trkpt lat="42.099747" lon="23.573062"><ele>2616.1</ele><time>2026-03-08T11:12:27.000Z</time></trkpt>
<trkpt lat="42.099751" lon="23.573063"><ele>2616.1</ele><time>2026-03-08T11:12:28.000Z</time></trkpt>
<trkpt lat="42.099756" lon="23.573063"><ele>2616.1</ele><time>2026-03-08T11:12:29.000Z</time></trkpt>
<trkpt lat="42.099761" lon="23.573063"><ele>2616.1</ele><time>2026-03-08T11:12:30.000Z</time></trkpt>
<trkpt lat="42.099768" lon="23.573063"><ele>2616.1</ele><time>2026-03-08T11:12:31.000Z</time></trkpt>
<trkpt lat="42.099775" lon="23.573063"><ele>2616.8</ele><time>2026-03-08T11:12:32.000Z</time></trkpt>
<trkpt lat="42.099783" lon="23.573063"><ele>2616.8</ele><time>2026-03-08T11:12:33.000Z</time></trkpt>
<trkpt lat="42.09979" lon="23.573062"><ele>2616.8</ele><time>2026-03-08T11:12:34.000Z</time></trkpt>
<trkpt lat="42.099797" lon="23.573061"><ele>2616.8</ele><time>2026-03-08T11:12:35.000Z</time></trkpt>
<trkpt lat="42.099804" lon="23.573059"><ele>2616.8</ele><time>2026-03-08T11:12:36.000Z</time></trkpt>
<trkpt lat="42.099811" lon="23.573057"><ele>2617.5</ele><time>2026-03-08T11:12:37.000Z</time></trkpt>
<trkpt lat="42.099818" lon="23.573054"><ele>2617.5</ele><time>2026-03-08T11:12:38.000Z</time></trkpt>
<trkpt lat="42.099825" lon="23.573051"><ele>2617.5</ele><time>2026-03-08T11:12:39.000Z</time></trkpt>
<trkpt lat="42.099832" lon="23.573049"><ele>2617.5</ele><time>2026-03-08T11:12:40.000Z</time></trkpt>
<trkpt lat="42.099838" lon="23.573046"><ele>2617.5</ele><time>2026-03-08T11:12:41.000Z</time></trkpt>
<trkpt lat="42.099842" lon="23.573044"><ele>2617.9</ele><time>2026-03-08T11:12:42.000Z</time></trkpt>
<trkpt lat="42.099844" lon="23.573043"><ele>2617.9</ele><time>2026-03-08T11:12:43.000Z</time></trkpt>
<trkpt lat="42.099845" lon="23.573041"><ele>2617.9</ele><time>2026-03-08T11:12:44.000Z</time></trkpt>
<trkpt lat="42.099845" lon="23.57304"><ele>2617.9</ele><time>2026-03-08T11:12:45.000Z</time></trkpt>
<trkpt lat="42.099845" lon="23.573039"><ele>2617.9</ele><time>2026-03-08T11:12:46.000Z</time></trkpt>
<trkpt lat="42.099845" lon="23.573039"><ele>2618.7</ele><time>2026-03-08T11:12:47.000Z</time></trkpt>
<trkpt lat="42.099845" lon="23.573037"><ele>2618.7</ele><time>2026-03-08T11:12:48.000Z</time></trkpt>
<trkpt lat="42.099847" lon="23.573036"><ele>2618.7</ele><time>2026-03-08T11:12:49.000Z</time></trkpt>
<trkpt lat="42.09985" lon="23.573035"><ele>2618.7</ele><time>2026-03-08T11:12:50.000Z</time></trkpt>
<trkpt lat="42.099854" lon="23.573033"><ele>2618.7</ele><time>2026-03-08T11:12:51.000Z</time></trkpt>
<trkpt lat="42.09986" lon="23.573033"><ele>2619.3</ele><time>2026-03-08T11:12:52.000Z</time></trkpt>
<trkpt lat="42.099867" lon="23.573032"><ele>2619.3</ele><time>2026-03-08T11:12:53.000Z</time></trkpt>
<trkpt lat="42.099874" lon="23.573031"><ele>2619.3</ele><time>2026-03-08T11:12:54.000Z</time></trkpt>
<trkpt lat="42.099882" lon="23.573029"><ele>2619.3</ele><time>2026-03-08T11:12:55.000Z</time></trkpt>
<trkpt lat="42.099889" lon="23.573027"><ele>2619.3</ele><time>2026-03-08T11:12:56.000Z</time></trkpt>
<trkpt lat="42.099897" lon="23.573025"><ele>2619.5</ele><time>2026-03-08T11:12:57.000Z</time></trkpt>
<trkpt lat="42.099905" lon="23.573024"><ele>2619.5</ele><time>2026-03-08T11:12:58.000Z</time></trkpt>
<trkpt lat="42.099913" lon="23.573023"><ele>2619.5</ele><time>2026-03-08T11:12:59.000Z</time></trkpt>
<trkpt lat="42.099922" lon="23.573022"><ele>2619.5</ele><time>2026-03-08T11:13:00.000Z</time></trkpt>
<trkpt lat="42.099932" lon="23.573021"><ele>2619.5</ele><time>2026-03-08T11:13:01.000Z</time></trkpt>
<trkpt lat="42.099941" lon="23.57302"><ele>2619.6</ele><time>2026-03-08T11:13:02.000Z</time></trkpt>
<trkpt lat="42.099951" lon="23.573018"><ele>2619.6</ele><time>2026-03-08T11:13:03.000Z</time></trkpt>
<trkpt lat="42.09996" lon="23.573017"><ele>2619.6</ele><time>2026-03-08T11:13:04.000Z</time></trkpt>
<trkpt lat="42.09997" lon="23.573015"><ele>2619.6</ele><time>2026-03-08T11:13:05.000Z</time></trkpt>
<trkpt lat="42.09998" lon="23.573012"><ele>2619.6</ele><time>2026-03-08T11:13:06.000Z</time></trkpt>
<trkpt lat="42.099989" lon="23.57301"><ele>2619.7</ele><time>2026-03-08T11:13:07.000Z</time></trkpt>
<trkpt lat="42.099999" lon="23.573008"><ele>2619.7</ele><time>2026-03-08T11:13:08.000Z</time></trkpt>
<trkpt lat="42.100009" lon="23.573006"><ele>2619.7</ele><time>2026-03-08T11:13:09.000Z</time></trkpt>
<trkpt lat="42.100019" lon="23.573004"><ele>2619.7</ele><time>2026-03-08T11:13:10.000Z</time></trkpt>
<trkpt lat="42.100029" lon="23.573003"><ele>2619.7</ele><time>2026-03-08T11:13:11.000Z</time></trkpt>
<trkpt lat="42.100039" lon="23.573002"><ele>2619.9</ele><time>2026-03-08T11:13:12.000Z</time></trkpt>
<trkpt lat="42.100049" lon="23.573"><ele>2619.9</ele><time>2026-03-08T11:13:13.000Z</time></trkpt>
<trkpt lat="42.100058" lon="23.572998"><ele>2619.9</ele><time>2026-03-08T11:13:14.000Z</time></trkpt>
<trkpt lat="42.100068" lon="23.572994"><ele>2619.9</ele><time>2026-03-08T11:13:15.000Z</time></trkpt>
<trkpt lat="42.100077" lon="23.57299"><ele>2619.9</ele><time>2026-03-08T11:13:16.000Z</time></trkpt>
<trkpt lat="42.100086" lon="23.572986"><ele>2620.4</ele><time>2026-03-08T11:13:17.000Z</time></trkpt>
<trkpt lat="42.100094" lon="23.572982"><ele>2620.4</ele><time>2026-03-08T11:13:18.000Z</time></trkpt>
<trkpt lat="42.100102" lon="23.572977"><ele>2620.4</ele><time>2026-03-08T11:13:19.000Z</time></trkpt>
<trkpt lat="42.10011" lon="23.572972"><ele>2620.4</ele><time>2026-03-08T11:13:20.000Z</time></trkpt>
<trkpt lat="42.100117" lon="23.572967"><ele>2620.4</ele><time>2026-03-08T11:13:21.000Z</time></trkpt>
<trkpt lat="42.100124" lon="23.572961"><ele>2621</ele><time>2026-03-08T11:13:22.000Z</time></trkpt>
<trkpt lat="42.100132" lon="23.572957"><ele>2621</ele><time>2026-03-08T11:13:23.000Z</time></trkpt>
<trkpt lat="42.100139" lon="23.572954"><ele>2621</ele><time>2026-03-08T11:13:24.000Z</time></trkpt>
<trkpt lat="42.100147" lon="23.572952"><ele>2621</ele><time>2026-03-08T11:13:25.000Z</time></trkpt>
<trkpt lat="42.100155" lon="23.57295"><ele>2621</ele><time>2026-03-08T11:13:26.000Z</time></trkpt>
<trkpt lat="42.100163" lon="23.572949"><ele>2621.2</ele><time>2026-03-08T11:13:27.000Z</time></trkpt>
<trkpt lat="42.100172" lon="23.572948"><ele>2621.2</ele><time>2026-03-08T11:13:28.000Z</time></trkpt>
<trkpt lat="42.100181" lon="23.572947"><ele>2621.2</ele><time>2026-03-08T11:13:29.000Z</time></trkpt>
<trkpt lat="42.100189" lon="23.572946"><ele>2621.2</ele><time>2026-03-08T11:13:30.000Z</time></trkpt>
<trkpt lat="42.100198" lon="23.572945"><ele>2621.2</ele><time>2026-03-08T11:13:31.000Z</time></trkpt>
<trkpt lat="42.100207" lon="23.572945"><ele>2621.6</ele><time>2026-03-08T11:13:32.000Z</time></trkpt>
<trkpt lat="42.100216" lon="23.572945"><ele>2621.6</ele><time>2026-03-08T11:13:33.000Z</time></trkpt>
<trkpt lat="42.100225" lon="23.572946"><ele>2621.6</ele><time>2026-03-08T11:13:34.000Z</time></trkpt>
<trkpt lat="42.100234" lon="23.572946"><ele>2621.6</ele><time>2026-03-08T11:13:35.000Z</time></trkpt>
<trkpt lat="42.100242" lon="23.572946"><ele>2621.6</ele><time>2026-03-08T11:13:36.000Z</time></trkpt>
<trkpt lat="42.10025" lon="23.572946"><ele>2622</ele><time>2026-03-08T11:13:37.000Z</time></trkpt>
<trkpt lat="42.100258" lon="23.572944"><ele>2622</ele><time>2026-03-08T11:13:38.000Z</time></trkpt>
<trkpt lat="42.100266" lon="23.572942"><ele>2622</ele><time>2026-03-08T11:13:39.000Z</time></trkpt>
<trkpt lat="42.100275" lon="23.57294"><ele>2622</ele><time>2026-03-08T11:13:40.000Z</time></trkpt>
<trkpt lat="42.100284" lon="23.572937"><ele>2622</ele><time>2026-03-08T11:13:41.000Z</time></trkpt>
<trkpt lat="42.100292" lon="23.572935"><ele>2622.3</ele><time>2026-03-08T11:13:42.000Z</time></trkpt>
<trkpt lat="42.1003" lon="23.572932"><ele>2622.3</ele><time>2026-03-08T11:13:43.000Z</time></trkpt>
<trkpt lat="42.100309" lon="23.57293"><ele>2622.3</ele><time>2026-03-08T11:13:44.000Z</time></trkpt>
<trkpt lat="42.100318" lon="23.572928"><ele>2622.3</ele><time>2026-03-08T11:13:45.000Z</time></trkpt>
<trkpt lat="42.100326" lon="23.572926"><ele>2622.3</ele><time>2026-03-08T11:13:46.000Z</time></trkpt>
<trkpt lat="42.100335" lon="23.572924"><ele>2622.9</ele><time>2026-03-08T11:13:47.000Z</time></trkpt>
<trkpt lat="42.100342" lon="23.572921"><ele>2622.9</ele><time>2026-03-08T11:13:48.000Z</time></trkpt>
<trkpt lat="42.10035" lon="23.572918"><ele>2622.9</ele><time>2026-03-08T11:13:49.000Z</time></trkpt>
<trkpt lat="42.100358" lon="23.572915"><ele>2622.9</ele><time>2026-03-08T11:13:50.000Z</time></trkpt>
<trkpt lat="42.100365" lon="23.572911"><ele>2622.9</ele><time>2026-03-08T11:13:51.000Z</time></trkpt>
<trkpt lat="42.100372" lon="23.572907"><ele>2623.6</ele><time>2026-03-08T11:13:52.000Z</time></trkpt>
<trkpt lat="42.100379" lon="23.572902"><ele>2623.6</ele><time>2026-03-08T11:13:53.000Z</time></trkpt>
<trkpt lat="42.100386" lon="23.572896"><ele>2623.6</ele><time>2026-03-08T11:13:54.000Z</time></trkpt>
<trkpt lat="42.100392" lon="23.57289"><ele>2623.6</ele><time>2026-03-08T11:13:55.000Z</time></trkpt>
<trkpt lat="42.100398" lon="23.572883"><ele>2623.6</ele><time>2026-03-08T11:13:56.000Z</time></trkpt>
<trkpt lat="42.100404" lon="23.572876"><ele>2623.9</ele><time>2026-03-08T11:13:57.000Z</time></trkpt>
<trkpt lat="42.10041" lon="23.572869"><ele>2623.9</ele><time>2026-03-08T11:13:58.000Z</time></trkpt>
<trkpt lat="42.100417" lon="23.572861"><ele>2623.9</ele><time>2026-03-08T11:13:59.000Z</time></trkpt>
<trkpt lat="42.100423" lon="23.572854"><ele>2623.9</ele><time>2026-03-08T11:14:00.000Z</time></trkpt>
<trkpt lat="42.100429" lon="23.572847"><ele>2623.9</ele><time>2026-03-08T11:14:01.000Z</time></trkpt>
<trkpt lat="42.100437" lon="23.57284"><ele>2624.5</ele><time>2026-03-08T11:14:02.000Z</time></trkpt>
<trkpt lat="42.100445" lon="23.572833"><ele>2624.5</ele><time>2026-03-08T11:14:03.000Z</time></trkpt>
<trkpt lat="42.100453" lon="23.572826"><ele>2624.5</ele><time>2026-03-08T11:14:04.000Z</time></trkpt>
<trkpt lat="42.100461" lon="23.572817"><ele>2624.5</ele><time>2026-03-08T11:14:05.000Z</time></trkpt>
<trkpt lat="42.100469" lon="23.572808"><ele>2624.5</ele><time>2026-03-08T11:14:06.000Z</time></trkpt>
<trkpt lat="42.100477" lon="23.5728"><ele>2624.8</ele><time>2026-03-08T11:14:07.000Z</time></trkpt>
<trkpt lat="42.100484" lon="23.572791"><ele>2624.8</ele><time>2026-03-08T11:14:08.000Z</time></trkpt>
<trkpt lat="42.100491" lon="23.572783"><ele>2624.8</ele><time>2026-03-08T11:14:09.000Z</time></trkpt>
<trkpt lat="42.100498" lon="23.572774"><ele>2624.8</ele><time>2026-03-08T11:14:10.000Z</time></trkpt>
<trkpt lat="42.100503" lon="23.572766"><ele>2624.8</ele><time>2026-03-08T11:14:11.000Z</time></trkpt>
<trkpt lat="42.100509" lon="23.572757"><ele>2624.7</ele><time>2026-03-08T11:14:12.000Z</time></trkpt>
<trkpt lat="42.100515" lon="23.572747"><ele>2624.7</ele><time>2026-03-08T11:14:13.000Z</time></trkpt>
<trkpt lat="42.100521" lon="23.572735"><ele>2624.7</ele><time>2026-03-08T11:14:14.000Z</time></trkpt>
<trkpt lat="42.100527" lon="23.572724"><ele>2624.7</ele><time>2026-03-08T11:14:15.000Z</time></trkpt>
<trkpt lat="42.100534" lon="23.572712"><ele>2624.7</ele><time>2026-03-08T11:14:16.000Z</time></trkpt>
<trkpt lat="42.100541" lon="23.572702"><ele>2624.5</ele><time>2026-03-08T11:14:17.000Z</time></trkpt>
<trkpt lat="42.100547" lon="23.572692"><ele>2624.5</ele><time>2026-03-08T11:14:18.000Z</time></trkpt>
<trkpt lat="42.100552" lon="23.572685"><ele>2624.5</ele><time>2026-03-08T11:14:19.000Z</time></trkpt>
<trkpt lat="42.100554" lon="23.572679"><ele>2624.5</ele><time>2026-03-08T11:14:20.000Z</time></trkpt>
<trkpt lat="42.100556" lon="23.572674"><ele>2624.5</ele><time>2026-03-08T11:14:21.000Z</time></trkpt>
<trkpt lat="42.100556" lon="23.572671"><ele>2624.3</ele><time>2026-03-08T11:14:22.000Z</time></trkpt>
<trkpt lat="42.100555" lon="23.57267"><ele>2624.3</ele><time>2026-03-08T11:14:23.000Z</time></trkpt>
<trkpt lat="42.100555" lon="23.572669"><ele>2624.3</ele><time>2026-03-08T11:14:24.000Z</time></trkpt>
<trkpt lat="42.100555" lon="23.572669"><ele>2624.3</ele><time>2026-03-08T11:14:25.000Z</time></trkpt>
<trkpt lat="42.100556" lon="23.572669"><ele>2624.3</ele><time>2026-03-08T11:14:26.000Z</time></trkpt>
<trkpt lat="42.100556" lon="23.572669"><ele>2624.3</ele><time>2026-03-08T11:14:27.000Z</time></trkpt>
<trkpt lat="42.100557" lon="23.572668"><ele>2624.3</ele><time>2026-03-08T11:14:28.000Z</time></trkpt>
<trkpt lat="42.10056" lon="23.572666"><ele>2624.3</ele><time>2026-03-08T11:14:29.000Z</time></trkpt>
<trkpt lat="42.100563" lon="23.572666"><ele>2624.3</ele><time>2026-03-08T11:14:30.000Z</time></trkpt>
<trkpt lat="42.100566" lon="23.572665"><ele>2624.3</ele><time>2026-03-08T11:14:31.000Z</time></trkpt>
<trkpt lat="42.100569" lon="23.572666"><ele>2624.1</ele><time>2026-03-08T11:14:32.000Z</time></trkpt>
<trkpt lat="42.10057" lon="23.572667"><ele>2624.1</ele><time>2026-03-08T11:14:33.000Z</time></trkpt>
<trkpt lat="42.10057" lon="23.572668"><ele>2624.1</ele><time>2026-03-08T11:14:34.000Z</time></trkpt>
<trkpt lat="42.100571" lon="23.572668"><ele>2624.1</ele><time>2026-03-08T11:14:35.000Z</time></trkpt>
<trkpt lat="42.100572" lon="23.572667"><ele>2624.1</ele><time>2026-03-08T11:14:36.000Z</time></trkpt>
<trkpt lat="42.100573" lon="23.572664"><ele>2624.1</ele><time>2026-03-08T11:14:37.000Z</time></trkpt>
<trkpt lat="42.100575" lon="23.572659"><ele>2624.1</ele><time>2026-03-08T11:14:38.000Z</time></trkpt>
<trkpt lat="42.100578" lon="23.572652"><ele>2624.1</ele><time>2026-03-08T11:14:39.000Z</time></trkpt>
<trkpt lat="42.100582" lon="23.572646"><ele>2624.1</ele><time>2026-03-08T11:14:40.000Z</time></trkpt>
<trkpt lat="42.100585" lon="23.572641"><ele>2624.1</ele><time>2026-03-08T11:14:41.000Z</time></trkpt>
<trkpt lat="42.100587" lon="23.572636"><ele>2624.1</ele><time>2026-03-08T11:14:42.000Z</time></trkpt>
<trkpt lat="42.100588" lon="23.572633"><ele>2624.1</ele><time>2026-03-08T11:14:43.000Z</time></trkpt>
<trkpt lat="42.100588" lon="23.572632"><ele>2624.1</ele><time>2026-03-08T11:14:44.000Z</time></trkpt>
<trkpt lat="42.100586" lon="23.57263"><ele>2624.1</ele><time>2026-03-08T11:14:45.000Z</time></trkpt>
<trkpt lat="42.100586" lon="23.572628"><ele>2624.1</ele><time>2026-03-08T11:14:46.000Z</time></trkpt>
<trkpt lat="42.100585" lon="23.572628"><ele>2624.1</ele><time>2026-03-08T11:14:47.000Z</time></trkpt>
<trkpt lat="42.100585" lon="23.572628"><ele>2624.1</ele><time>2026-03-08T11:14:48.000Z</time></trkpt>
<trkpt lat="42.100586" lon="23.572628"><ele>2624.1</ele><time>2026-03-08T11:14:49.000Z</time></trkpt>
<trkpt lat="42.100587" lon="23.572629"><ele>2624.1</ele><time>2026-03-08T11:14:50.000Z</time></trkpt>
<trkpt lat="42.100587" lon="23.572629"><ele>2624.1</ele><time>2026-03-08T11:14:51.000Z</time></trkpt>
<trkpt lat="42.100588" lon="23.572629"><ele>2624.1</ele><time>2026-03-08T11:14:52.000Z</time></trkpt>
<trkpt lat="42.100587" lon="23.572628"><ele>2624.1</ele><time>2026-03-08T11:14:53.000Z</time></trkpt>
<trkpt lat="42.100586" lon="23.572626"><ele>2624.1</ele><time>2026-03-08T11:14:54.000Z</time></trkpt>
<trkpt lat="42.100586" lon="23.572623"><ele>2624.1</ele><time>2026-03-08T11:14:55.000Z</time></trkpt>
<trkpt lat="42.100586" lon="23.572619"><ele>2624.1</ele><time>2026-03-08T11:14:56.000Z</time></trkpt>
<trkpt lat="42.100588" lon="23.572613"><ele>2624</ele><time>2026-03-08T11:14:57.000Z</time></trkpt>
<trkpt lat="42.100591" lon="23.572607"><ele>2624</ele><time>2026-03-08T11:14:58.000Z</time></trkpt>
<trkpt lat="42.100595" lon="23.572598"><ele>2624</ele><time>2026-03-08T11:14:59.000Z</time></trkpt>
<trkpt lat="42.1006" lon="23.57259"><ele>2624</ele><time>2026-03-08T11:15:00.000Z</time></trkpt>
<trkpt lat="42.100605" lon="23.57258"><ele>2624</ele><time>2026-03-08T11:15:01.000Z</time></trkpt>
<trkpt lat="42.10061" lon="23.57257"><ele>2624</ele><time>2026-03-08T11:15:02.000Z</time></trkpt>
<trkpt lat="42.100616" lon="23.57256"><ele>2624</ele><time>2026-03-08T11:15:03.000Z</time></trkpt>
<trkpt lat="42.100622" lon="23.572552"><ele>2624</ele><time>2026-03-08T11:15:04.000Z</time></trkpt>
<trkpt lat="42.100627" lon="23.572544"><ele>2624</ele><time>2026-03-08T11:15:05.000Z</time></trkpt>
<trkpt lat="42.100633" lon="23.572534"><ele>2624</ele><time>2026-03-08T11:15:06.000Z</time></trkpt>
<trkpt lat="42.100638" lon="23.572524"><ele>2623.9</ele><time>2026-03-08T11:15:07.000Z</time></trkpt>
<trkpt lat="42.100644" lon="23.572513"><ele>2623.9</ele><time>2026-03-08T11:15:08.000Z</time></trkpt>
<trkpt lat="42.100649" lon="23.572502"><ele>2623.9</ele><time>2026-03-08T11:15:09.000Z</time></trkpt>
<trkpt lat="42.100655" lon="23.572491"><ele>2623.9</ele><time>2026-03-08T11:15:10.000Z</time></trkpt>
<trkpt lat="42.100661" lon="23.572483"><ele>2623.9</ele><time>2026-03-08T11:15:11.000Z</time></trkpt>
<trkpt lat="42.100666" lon="23.572477"><ele>2623.8</ele><time>2026-03-08T11:15:12.000Z</time></trkpt>
<trkpt lat="42.100668" lon="23.572475"><ele>2623.8</ele><time>2026-03-08T11:15:13.000Z</time></trkpt>
<trkpt lat="42.10067" lon="23.572473"><ele>2623.8</ele><time>2026-03-08T11:15:14.000Z</time></trkpt>
<trkpt lat="42.10067" lon="23.572473"><ele>2623.8</ele><time>2026-03-08T11:15:15.000Z</time></trkpt>
<trkpt lat="42.10067" lon="23.572473"><ele>2623.8</ele><time>2026-03-08T11:15:16.000Z</time></trkpt>
<trkpt lat="42.10067" lon="23.572473"><ele>2623.5</ele><time>2026-03-08T11:15:17.000Z</time></trkpt>
<trkpt lat="42.10067" lon="23.572473"><ele>2623.5</ele><time>2026-03-08T11:15:18.000Z</time></trkpt>
<trkpt lat="42.10067" lon="23.572473"><ele>2623.5</ele><time>2026-03-08T11:15:19.000Z</time></trkpt>
<trkpt lat="42.10067" lon="23.572473"><ele>2623.5</ele><time>2026-03-08T11:15:20.000Z</time></trkpt>
<trkpt lat="42.10067" lon="23.572473"><ele>2623.5</ele><time>2026-03-08T11:15:21.000Z</time></trkpt>
<trkpt lat="42.10067" lon="23.572473"><ele>2623.1</ele><time>2026-03-08T11:15:22.000Z</time></trkpt>
<trkpt lat="42.10067" lon="23.572473"><ele>2623.1</ele><time>2026-03-08T11:15:23.000Z</time></trkpt>
<trkpt lat="42.10067" lon="23.572473"><ele>2623.1</ele><time>2026-03-08T11:15:24.000Z</time></trkpt>
<trkpt lat="42.10067" lon="23.572474"><ele>2623.1</ele><time>2026-03-08T11:15:25.000Z</time></trkpt>
<trkpt lat="42.10067" lon="23.572474"><ele>2623.1</ele><time>2026-03-08T11:15:26.000Z</time></trkpt>
<trkpt lat="42.10067" lon="23.572474"><ele>2622.9</ele><time>2026-03-08T11:15:27.000Z</time></trkpt>
<trkpt lat="42.10067" lon="23.572475"><ele>2622.9</ele><time>2026-03-08T11:15:28.000Z</time></trkpt>
<trkpt lat="42.10067" lon="23.572475"><ele>2622.9</ele><time>2026-03-08T11:15:29.000Z</time></trkpt>
<trkpt lat="42.10067" lon="23.572475"><ele>2622.9</ele><time>2026-03-08T11:15:30.000Z</time></trkpt>
<trkpt lat="42.10067" lon="23.572475"><ele>2622.9</ele><time>2026-03-08T11:15:31.000Z</time></trkpt>
<trkpt lat="42.100671" lon="23.572473"><ele>2622.6</ele><time>2026-03-08T11:15:32.000Z</time></trkpt>
<trkpt lat="42.100674" lon="23.572469"><ele>2622.6</ele><time>2026-03-08T11:15:33.000Z</time></trkpt>
<trkpt lat="42.100679" lon="23.572463"><ele>2622.6</ele><time>2026-03-08T11:15:34.000Z</time></trkpt>
<trkpt lat="42.100684" lon="23.572456"><ele>2622.6</ele><time>2026-03-08T11:15:35.000Z</time></trkpt>
<trkpt lat="42.100689" lon="23.572446"><ele>2622.6</ele><time>2026-03-08T11:15:36.000Z</time></trkpt>
<trkpt lat="42.100694" lon="23.572436"><ele>2622.5</ele><time>2026-03-08T11:15:37.000Z</time></trkpt>
<trkpt lat="42.100697" lon="23.572426"><ele>2622.5</ele><time>2026-03-08T11:15:38.000Z</time></trkpt>
<trkpt lat="42.100699" lon="23.572416"><ele>2622.5</ele><time>2026-03-08T11:15:39.000Z</time></trkpt>
<trkpt lat="42.1007" lon="23.572405"><ele>2622.5</ele><time>2026-03-08T11:15:40.000Z</time></trkpt>
<trkpt lat="42.100702" lon="23.572395"><ele>2622.5</ele><time>2026-03-08T11:15:41.000Z</time></trkpt>
<trkpt lat="42.100703" lon="23.572386"><ele>2622.5</ele><time>2026-03-08T11:15:42.000Z</time></trkpt>
<trkpt lat="42.100704" lon="23.572377"><ele>2622.5</ele><time>2026-03-08T11:15:43.000Z</time></trkpt>
<trkpt lat="42.100706" lon="23.572368"><ele>2622.5</ele><time>2026-03-08T11:15:44.000Z</time></trkpt>
<trkpt lat="42.100709" lon="23.57236"><ele>2622.5</ele><time>2026-03-08T11:15:45.000Z</time></trkpt>
<trkpt lat="42.100712" lon="23.572352"><ele>2622.5</ele><time>2026-03-08T11:15:46.000Z</time></trkpt>
<trkpt lat="42.100716" lon="23.572344"><ele>2622.5</ele><time>2026-03-08T11:15:47.000Z</time></trkpt>
<trkpt lat="42.100721" lon="23.572335"><ele>2622.5</ele><time>2026-03-08T11:15:48.000Z</time></trkpt>
<trkpt lat="42.100727" lon="23.572327"><ele>2622.5</ele><time>2026-03-08T11:15:49.000Z</time></trkpt>
<trkpt lat="42.100732" lon="23.572319"><ele>2622.5</ele><time>2026-03-08T11:15:50.000Z</time></trkpt>
<trkpt lat="42.100737" lon="23.572311"><ele>2622.5</ele><time>2026-03-08T11:15:51.000Z</time></trkpt>
<trkpt lat="42.100743" lon="23.572305"><ele>2622.2</ele><time>2026-03-08T11:15:52.000Z</time></trkpt>
<trkpt lat="42.100749" lon="23.5723"><ele>2622.2</ele><time>2026-03-08T11:15:53.000Z</time></trkpt>
<trkpt lat="42.100755" lon="23.572296"><ele>2622.2</ele><time>2026-03-08T11:15:54.000Z</time></trkpt>
<trkpt lat="42.100762" lon="23.572293"><ele>2622.2</ele><time>2026-03-08T11:15:55.000Z</time></trkpt>
<trkpt lat="42.100769" lon="23.572292"><ele>2622.2</ele><time>2026-03-08T11:15:56.000Z</time></trkpt>
<trkpt lat="42.100775" lon="23.57229"><ele>2621.9</ele><time>2026-03-08T11:15:57.000Z</time></trkpt>
<trkpt lat="42.100781" lon="23.572287"><ele>2621.9</ele><time>2026-03-08T11:15:58.000Z</time></trkpt>
<trkpt lat="42.100785" lon="23.572286"><ele>2621.9</ele><time>2026-03-08T11:15:59.000Z</time></trkpt>
<trkpt lat="42.100788" lon="23.572284"><ele>2621.9</ele><time>2026-03-08T11:16:00.000Z</time></trkpt>
<trkpt lat="42.10079" lon="23.572283"><ele>2621.9</ele><time>2026-03-08T11:16:01.000Z</time></trkpt>
<trkpt lat="42.100791" lon="23.572283"><ele>2621.5</ele><time>2026-03-08T11:16:02.000Z</time></trkpt>
<trkpt lat="42.100791" lon="23.572283"><ele>2621.5</ele><time>2026-03-08T11:16:03.000Z</time></trkpt>
<trkpt lat="42.100792" lon="23.572283"><ele>2621.5</ele><time>2026-03-08T11:16:04.000Z</time></trkpt>
<trkpt lat="42.100792" lon="23.572282"><ele>2621.5</ele><time>2026-03-08T11:16:05.000Z</time></trkpt>
<trkpt lat="42.100792" lon="23.572282"><ele>2621.5</ele><time>2026-03-08T11:16:06.000Z</time></trkpt>
<trkpt lat="42.100792" lon="23.572281"><ele>2621.5</ele><time>2026-03-08T11:16:07.000Z</time></trkpt>
<trkpt lat="42.100792" lon="23.572281"><ele>2621.5</ele><time>2026-03-08T11:16:08.000Z</time></trkpt>
<trkpt lat="42.100792" lon="23.572281"><ele>2621.5</ele><time>2026-03-08T11:16:09.000Z</time></trkpt>
<trkpt lat="42.100792" lon="23.572281"><ele>2621.5</ele><time>2026-03-08T11:16:10.000Z</time></trkpt>
<trkpt lat="42.100792" lon="23.572281"><ele>2621.5</ele><time>2026-03-08T11:16:11.000Z</time></trkpt>
<trkpt lat="42.100792" lon="23.572281"><ele>2621.5</ele><time>2026-03-08T11:16:12.000Z</time></trkpt>
<trkpt lat="42.100792" lon="23.572282"><ele>2621.5</ele><time>2026-03-08T11:16:13.000Z</time></trkpt>
<trkpt lat="42.100791" lon="23.572282"><ele>2621.5</ele><time>2026-03-08T11:16:14.000Z</time></trkpt>
<trkpt lat="42.100791" lon="23.572282"><ele>2621.5</ele><time>2026-03-08T11:16:15.000Z</time></trkpt>
<trkpt lat="42.100791" lon="23.572282"><ele>2621.5</ele><time>2026-03-08T11:16:16.000Z</time></trkpt>
<trkpt lat="42.100792" lon="23.57228"><ele>2621.5</ele><time>2026-03-08T11:16:17.000Z</time></trkpt>
<trkpt lat="42.100794" lon="23.572276"><ele>2621.5</ele><time>2026-03-08T11:16:18.000Z</time></trkpt>
<trkpt lat="42.100798" lon="23.57227"><ele>2621.5</ele><time>2026-03-08T11:16:19.000Z</time></trkpt>
<trkpt lat="42.100803" lon="23.572263"><ele>2621.5</ele><time>2026-03-08T11:16:20.000Z</time></trkpt>
<trkpt lat="42.10081" lon="23.572256"><ele>2621.5</ele><time>2026-03-08T11:16:21.000Z</time></trkpt>
<trkpt lat="42.100817" lon="23.572249"><ele>2621.4</ele><time>2026-03-08T11:16:22.000Z</time></trkpt>
<trkpt lat="42.100824" lon="23.572243"><ele>2621.4</ele><time>2026-03-08T11:16:23.000Z</time></trkpt>
<trkpt lat="42.100831" lon="23.572237"><ele>2621.4</ele><time>2026-03-08T11:16:24.000Z</time></trkpt>
<trkpt lat="42.100837" lon="23.572231"><ele>2621.4</ele><time>2026-03-08T11:16:25.000Z</time></trkpt>
<trkpt lat="42.100844" lon="23.572225"><ele>2621.4</ele><time>2026-03-08T11:16:26.000Z</time></trkpt>
<trkpt lat="42.100851" lon="23.572219"><ele>2621.4</ele><time>2026-03-08T11:16:27.000Z</time></trkpt>
<trkpt lat="42.100858" lon="23.572211"><ele>2621.4</ele><time>2026-03-08T11:16:28.000Z</time></trkpt>
<trkpt lat="42.100865" lon="23.572203"><ele>2621.4</ele><time>2026-03-08T11:16:29.000Z</time></trkpt>
<trkpt lat="42.100873" lon="23.572194"><ele>2621.4</ele><time>2026-03-08T11:16:30.000Z</time></trkpt>
<trkpt lat="42.100882" lon="23.572187"><ele>2621.4</ele><time>2026-03-08T11:16:31.000Z</time></trkpt>
<trkpt lat="42.100891" lon="23.57218"><ele>2621.3</ele><time>2026-03-08T11:16:32.000Z</time></trkpt>
<trkpt lat="42.100901" lon="23.572176"><ele>2621.3</ele><time>2026-03-08T11:16:33.000Z</time></trkpt>
<trkpt lat="42.100912" lon="23.572171"><ele>2621.3</ele><time>2026-03-08T11:16:34.000Z</time></trkpt>
<trkpt lat="42.100921" lon="23.572167"><ele>2621.3</ele><time>2026-03-08T11:16:35.000Z</time></trkpt>
<trkpt lat="42.100931" lon="23.572161"><ele>2621.3</ele><time>2026-03-08T11:16:36.000Z</time></trkpt>
<trkpt lat="42.10094" lon="23.572155"><ele>2621.3</ele><time>2026-03-08T11:16:37.000Z</time></trkpt>
<trkpt lat="42.100948" lon="23.572149"><ele>2621.3</ele><time>2026-03-08T11:16:38.000Z</time></trkpt>
<trkpt lat="42.100956" lon="23.572143"><ele>2621.3</ele><time>2026-03-08T11:16:39.000Z</time></trkpt>
<trkpt lat="42.100964" lon="23.572137"><ele>2621.3</ele><time>2026-03-08T11:16:40.000Z</time></trkpt>
<trkpt lat="42.100972" lon="23.572131"><ele>2621.3</ele><time>2026-03-08T11:16:41.000Z</time></trkpt>
<trkpt lat="42.100981" lon="23.572125"><ele>2621.4</ele><time>2026-03-08T11:16:42.000Z</time></trkpt>
<trkpt lat="42.10099" lon="23.57212"><ele>2621.4</ele><time>2026-03-08T11:16:43.000Z</time></trkpt>
<trkpt lat="42.100998" lon="23.572115"><ele>2621.4</ele><time>2026-03-08T11:16:44.000Z</time></trkpt>
<trkpt lat="42.101005" lon="23.57211"><ele>2621.4</ele><time>2026-03-08T11:16:45.000Z</time></trkpt>
<trkpt lat="42.101013" lon="23.572104"><ele>2621.4</ele><time>2026-03-08T11:16:46.000Z</time></trkpt>
<trkpt lat="42.10102" lon="23.572099"><ele>2621.8</ele><time>2026-03-08T11:16:47.000Z</time></trkpt>
<trkpt lat="42.101028" lon="23.572092"><ele>2621.8</ele><time>2026-03-08T11:16:48.000Z</time></trkpt>
<trkpt lat="42.101037" lon="23.572087"><ele>2621.8</ele><time>2026-03-08T11:16:49.000Z</time></trkpt>
<trkpt lat="42.101045" lon="23.572081"><ele>2621.8</ele><time>2026-03-08T11:16:50.000Z</time></trkpt>
<trkpt lat="42.101053" lon="23.572075"><ele>2621.8</ele><time>2026-03-08T11:16:51.000Z</time></trkpt>
<trkpt lat="42.10106" lon="23.57207"><ele>2622.1</ele><time>2026-03-08T11:16:52.000Z</time></trkpt>
<trkpt lat="42.101068" lon="23.572063"><ele>2622.1</ele><time>2026-03-08T11:16:53.000Z</time></trkpt>
<trkpt lat="42.101076" lon="23.572057"><ele>2622.1</ele><time>2026-03-08T11:16:54.000Z</time></trkpt>
<trkpt lat="42.101083" lon="23.57205"><ele>2622.1</ele><time>2026-03-08T11:16:55.000Z</time></trkpt>
<trkpt lat="42.101091" lon="23.572043"><ele>2622.1</ele><time>2026-03-08T11:16:56.000Z</time></trkpt>
<trkpt lat="42.101098" lon="23.572036"><ele>2622.3</ele><time>2026-03-08T11:16:57.000Z</time></trkpt>
<trkpt lat="42.101105" lon="23.57203"><ele>2622.3</ele><time>2026-03-08T11:16:58.000Z</time></trkpt>
<trkpt lat="42.101112" lon="23.572025"><ele>2622.3</ele><time>2026-03-08T11:16:59.000Z</time></trkpt>
<trkpt lat="42.101119" lon="23.572021"><ele>2622.3</ele><time>2026-03-08T11:17:00.000Z</time></trkpt>
<trkpt lat="42.101126" lon="23.572017"><ele>2622.3</ele><time>2026-03-08T11:17:01.000Z</time></trkpt>
<trkpt lat="42.101133" lon="23.572013"><ele>2622.7</ele><time>2026-03-08T11:17:02.000Z</time></trkpt>
<trkpt lat="42.10114" lon="23.572009"><ele>2622.7</ele><time>2026-03-08T11:17:03.000Z</time></trkpt>
<trkpt lat="42.101146" lon="23.572003"><ele>2622.7</ele><time>2026-03-08T11:17:04.000Z</time></trkpt>
<trkpt lat="42.101153" lon="23.571998"><ele>2622.7</ele><time>2026-03-08T11:17:05.000Z</time></trkpt>
<trkpt lat="42.10116" lon="23.571992"><ele>2622.7</ele><time>2026-03-08T11:17:06.000Z</time></trkpt>
<trkpt lat="42.101166" lon="23.571986"><ele>2623.1</ele><time>2026-03-08T11:17:07.000Z</time></trkpt>
<trkpt lat="42.101173" lon="23.571979"><ele>2623.1</ele><time>2026-03-08T11:17:08.000Z</time></trkpt>
<trkpt lat="42.101179" lon="23.571974"><ele>2623.1</ele><time>2026-03-08T11:17:09.000Z</time></trkpt>
<trkpt lat="42.101185" lon="23.571968"><ele>2623.1</ele><time>2026-03-08T11:17:10.000Z</time></trkpt>
<trkpt lat="42.101193" lon="23.571961"><ele>2623.1</ele><time>2026-03-08T11:17:11.000Z</time></trkpt>
<trkpt lat="42.101201" lon="23.571955"><ele>2623.2</ele><time>2026-03-08T11:17:12.000Z</time></trkpt>
<trkpt lat="42.101208" lon="23.571949"><ele>2623.2</ele><time>2026-03-08T11:17:13.000Z</time></trkpt>
<trkpt lat="42.101215" lon="23.571944"><ele>2623.2</ele><time>2026-03-08T11:17:14.000Z</time></trkpt>
<trkpt lat="42.10122" lon="23.571938"><ele>2623.2</ele><time>2026-03-08T11:17:15.000Z</time></trkpt>
<trkpt lat="42.101225" lon="23.571933"><ele>2623.2</ele><time>2026-03-08T11:17:16.000Z</time></trkpt>
<trkpt lat="42.10123" lon="23.571928"><ele>2623.5</ele><time>2026-03-08T11:17:17.000Z</time></trkpt>
<trkpt lat="42.101236" lon="23.571922"><ele>2623.5</ele><time>2026-03-08T11:17:18.000Z</time></trkpt>
<trkpt lat="42.101242" lon="23.571915"><ele>2623.5</ele><time>2026-03-08T11:17:19.000Z</time></trkpt>
<trkpt lat="42.10125" lon="23.571911"><ele>2623.5</ele><time>2026-03-08T11:17:20.000Z</time></trkpt>
<trkpt lat="42.101258" lon="23.571906"><ele>2623.5</ele><time>2026-03-08T11:17:21.000Z</time></trkpt>
<trkpt lat="42.101265" lon="23.571901"><ele>2623.8</ele><time>2026-03-08T11:17:22.000Z</time></trkpt>
<trkpt lat="42.101271" lon="23.571895"><ele>2623.8</ele><time>2026-03-08T11:17:23.000Z</time></trkpt>
<trkpt lat="42.101278" lon="23.571889"><ele>2623.8</ele><time>2026-03-08T11:17:24.000Z</time></trkpt>
<trkpt lat="42.101283" lon="23.571883"><ele>2623.8</ele><time>2026-03-08T11:17:25.000Z</time></trkpt>
<trkpt lat="42.101288" lon="23.571877"><ele>2623.8</ele><time>2026-03-08T11:17:26.000Z</time></trkpt>
<trkpt lat="42.101294" lon="23.571871"><ele>2623.9</ele><time>2026-03-08T11:17:27.000Z</time></trkpt>
<trkpt lat="42.101299" lon="23.571866"><ele>2623.9</ele><time>2026-03-08T11:17:28.000Z</time></trkpt>
<trkpt lat="42.101303" lon="23.571861"><ele>2623.9</ele><time>2026-03-08T11:17:29.000Z</time></trkpt>
<trkpt lat="42.101309" lon="23.571855"><ele>2623.9</ele><time>2026-03-08T11:17:30.000Z</time></trkpt>
<trkpt lat="42.101314" lon="23.571849"><ele>2623.9</ele><time>2026-03-08T11:17:31.000Z</time></trkpt>
<trkpt lat="42.10132" lon="23.571842"><ele>2624</ele><time>2026-03-08T11:17:32.000Z</time></trkpt>
<trkpt lat="42.101325" lon="23.571836"><ele>2624</ele><time>2026-03-08T11:17:33.000Z</time></trkpt>
<trkpt lat="42.101331" lon="23.571831"><ele>2624</ele><time>2026-03-08T11:17:34.000Z</time></trkpt>
<trkpt lat="42.101337" lon="23.571825"><ele>2624</ele><time>2026-03-08T11:17:35.000Z</time></trkpt>
<trkpt lat="42.101343" lon="23.57182"><ele>2624</ele><time>2026-03-08T11:17:36.000Z</time></trkpt>
<trkpt lat="42.101349" lon="23.571814"><ele>2624.1</ele><time>2026-03-08T11:17:37.000Z</time></trkpt>
<trkpt lat="42.101356" lon="23.571808"><ele>2624.1</ele><time>2026-03-08T11:17:38.000Z</time></trkpt>
<trkpt lat="42.101363" lon="23.571802"><ele>2624.1</ele><time>2026-03-08T11:17:39.000Z</time></trkpt>
<trkpt lat="42.10137" lon="23.571795"><ele>2624.1</ele><time>2026-03-08T11:17:40.000Z</time></trkpt>
<trkpt lat="42.101376" lon="23.571788"><ele>2624.1</ele><time>2026-03-08T11:17:41.000Z</time></trkpt>
<trkpt lat="42.101383" lon="23.571781"><ele>2624.2</ele><time>2026-03-08T11:17:42.000Z</time></trkpt>
<trkpt lat="42.101391" lon="23.571774"><ele>2624.2</ele><time>2026-03-08T11:17:43.000Z</time></trkpt>
<trkpt lat="42.101397" lon="23.571766"><ele>2624.2</ele><time>2026-03-08T11:17:44.000Z</time></trkpt>
<trkpt lat="42.101404" lon="23.571759"><ele>2624.2</ele><time>2026-03-08T11:17:45.000Z</time></trkpt>
<trkpt lat="42.101412" lon="23.571751"><ele>2624.2</ele><time>2026-03-08T11:17:46.000Z</time></trkpt>
<trkpt lat="42.101419" lon="23.571745"><ele>2624.5</ele><time>2026-03-08T11:17:47.000Z</time></trkpt>
<trkpt lat="42.101427" lon="23.571739"><ele>2624.5</ele><time>2026-03-08T11:17:48.000Z</time></trkpt>
<trkpt lat="42.101433" lon="23.571736"><ele>2624.5</ele><time>2026-03-08T11:17:49.000Z</time></trkpt>
<trkpt lat="42.101438" lon="23.571734"><ele>2624.5</ele><time>2026-03-08T11:17:50.000Z</time></trkpt>
<trkpt lat="42.101441" lon="23.571734"><ele>2624.5</ele><time>2026-03-08T11:17:51.000Z</time></trkpt>
<trkpt lat="42.101442" lon="23.571734"><ele>2624.9</ele><time>2026-03-08T11:17:52.000Z</time></trkpt>
<trkpt lat="42.101442" lon="23.571736"><ele>2624.9</ele><time>2026-03-08T11:17:53.000Z</time></trkpt>
<trkpt lat="42.101442" lon="23.571737"><ele>2624.9</ele><time>2026-03-08T11:17:54.000Z</time></trkpt>
<trkpt lat="42.101442" lon="23.571738"><ele>2624.9</ele><time>2026-03-08T11:17:55.000Z</time></trkpt>
<trkpt lat="42.101443" lon="23.571737"><ele>2624.9</ele><time>2026-03-08T11:17:56.000Z</time></trkpt>
<trkpt lat="42.101446" lon="23.571734"><ele>2625.1</ele><time>2026-03-08T11:17:57.000Z</time></trkpt>
<trkpt lat="42.101449" lon="23.57173"><ele>2625.1</ele><time>2026-03-08T11:17:58.000Z</time></trkpt>
<trkpt lat="42.101454" lon="23.571725"><ele>2625.1</ele><time>2026-03-08T11:17:59.000Z</time></trkpt>
<trkpt lat="42.101461" lon="23.571719"><ele>2625.1</ele><time>2026-03-08T11:18:00.000Z</time></trkpt>
<trkpt lat="42.101469" lon="23.571713"><ele>2625.1</ele><time>2026-03-08T11:18:01.000Z</time></trkpt>
<trkpt lat="42.101477" lon="23.571706"><ele>2625.4</ele><time>2026-03-08T11:18:02.000Z</time></trkpt>
<trkpt lat="42.101485" lon="23.5717"><ele>2625.4</ele><time>2026-03-08T11:18:03.000Z</time></trkpt>
<trkpt lat="42.101494" lon="23.571692"><ele>2625.4</ele><time>2026-03-08T11:18:04.000Z</time></trkpt>
<trkpt lat="42.101502" lon="23.571684"><ele>2625.4</ele><time>2026-03-08T11:18:05.000Z</time></trkpt>
<trkpt lat="42.10151" lon="23.571676"><ele>2625.4</ele><time>2026-03-08T11:18:06.000Z</time></trkpt>
<trkpt lat="42.101517" lon="23.571668"><ele>2625.5</ele><time>2026-03-08T11:18:07.000Z</time></trkpt>
<trkpt lat="42.101524" lon="23.57166"><ele>2625.5</ele><time>2026-03-08T11:18:08.000Z</time></trkpt>
<trkpt lat="42.101531" lon="23.571652"><ele>2625.5</ele><time>2026-03-08T11:18:09.000Z</time></trkpt>
<trkpt lat="42.101538" lon="23.571644"><ele>2625.5</ele><time>2026-03-08T11:18:10.000Z</time></trkpt>
<trkpt lat="42.101545" lon="23.571637"><ele>2625.5</ele><time>2026-03-08T11:18:11.000Z</time></trkpt>
<trkpt lat="42.101551" lon="23.571629"><ele>2625.6</ele><time>2026-03-08T11:18:12.000Z</time></trkpt>
<trkpt lat="42.101557" lon="23.571622"><ele>2625.6</ele><time>2026-03-08T11:18:13.000Z</time></trkpt>
<trkpt lat="42.101564" lon="23.571614"><ele>2625.6</ele><time>2026-03-08T11:18:14.000Z</time></trkpt>
<trkpt lat="42.101571" lon="23.571607"><ele>2625.6</ele><time>2026-03-08T11:18:15.000Z</time></trkpt>
<trkpt lat="42.101577" lon="23.571599"><ele>2625.6</ele><time>2026-03-08T11:18:16.000Z</time></trkpt>
<trkpt lat="42.101584" lon="23.571593"><ele>2625.6</ele><time>2026-03-08T11:18:17.000Z</time></trkpt>
<trkpt lat="42.101592" lon="23.571588"><ele>2625.6</ele><time>2026-03-08T11:18:18.000Z</time></trkpt>
<trkpt lat="42.101599" lon="23.571586"><ele>2625.6</ele><time>2026-03-08T11:18:19.000Z</time></trkpt>
<trkpt lat="42.101605" lon="23.571585"><ele>2625.6</ele><time>2026-03-08T11:18:20.000Z</time></trkpt>
<trkpt lat="42.101613" lon="23.571585"><ele>2625.6</ele><time>2026-03-08T11:18:21.000Z</time></trkpt>
<trkpt lat="42.101621" lon="23.571586"><ele>2625.9</ele><time>2026-03-08T11:18:22.000Z</time></trkpt>
<trkpt lat="42.101628" lon="23.571588"><ele>2625.9</ele><time>2026-03-08T11:18:23.000Z</time></trkpt>
<trkpt lat="42.101635" lon="23.571591"><ele>2625.9</ele><time>2026-03-08T11:18:24.000Z</time></trkpt>
<trkpt lat="42.101642" lon="23.571594"><ele>2625.9</ele><time>2026-03-08T11:18:25.000Z</time></trkpt>
<trkpt lat="42.101648" lon="23.571598"><ele>2625.9</ele><time>2026-03-08T11:18:26.000Z</time></trkpt>
<trkpt lat="42.101652" lon="23.571602"><ele>2626.1</ele><time>2026-03-08T11:18:27.000Z</time></trkpt>
<trkpt lat="42.101656" lon="23.571605"><ele>2626.1</ele><time>2026-03-08T11:18:28.000Z</time></trkpt>
<trkpt lat="42.10166" lon="23.571607"><ele>2626.1</ele><time>2026-03-08T11:18:29.000Z</time></trkpt>
<trkpt lat="42.101664" lon="23.57161"><ele>2626.1</ele><time>2026-03-08T11:18:30.000Z</time></trkpt>
<trkpt lat="42.101668" lon="23.571612"><ele>2626.1</ele><time>2026-03-08T11:18:31.000Z</time></trkpt>
<trkpt lat="42.101673" lon="23.571613"><ele>2626.5</ele><time>2026-03-08T11:18:32.000Z</time></trkpt>
<trkpt lat="42.101678" lon="23.571615"><ele>2626.5</ele><time>2026-03-08T11:18:33.000Z</time></trkpt>
<trkpt lat="42.101684" lon="23.571616"><ele>2626.5</ele><time>2026-03-08T11:18:34.000Z</time></trkpt>
<trkpt lat="42.10169" lon="23.571618"><ele>2626.5</ele><time>2026-03-08T11:18:35.000Z</time></trkpt>
<trkpt lat="42.101696" lon="23.57162"><ele>2626.5</ele><time>2026-03-08T11:18:36.000Z</time></trkpt>
<trkpt lat="42.101702" lon="23.571622"><ele>2627</ele><time>2026-03-08T11:18:37.000Z</time></trkpt>
<trkpt lat="42.10171" lon="23.571623"><ele>2627</ele><time>2026-03-08T11:18:38.000Z</time></trkpt>
<trkpt lat="42.101717" lon="23.571625"><ele>2627</ele><time>2026-03-08T11:18:39.000Z</time></trkpt>
<trkpt lat="42.101725" lon="23.571626"><ele>2627</ele><time>2026-03-08T11:18:40.000Z</time></trkpt>
<trkpt lat="42.101733" lon="23.571627"><ele>2627</ele><time>2026-03-08T11:18:41.000Z</time></trkpt>
<trkpt lat="42.10174" lon="23.571629"><ele>2627.4</ele><time>2026-03-08T11:18:42.000Z</time></trkpt>
<trkpt lat="42.101746" lon="23.57163"><ele>2627.4</ele><time>2026-03-08T11:18:43.000Z</time></trkpt>
<trkpt lat="42.101753" lon="23.571632"><ele>2627.4</ele><time>2026-03-08T11:18:44.000Z</time></trkpt>
<trkpt lat="42.101759" lon="23.571633"><ele>2627.4</ele><time>2026-03-08T11:18:45.000Z</time></trkpt>
<trkpt lat="42.101765" lon="23.571634"><ele>2627.4</ele><time>2026-03-08T11:18:46.000Z</time></trkpt>
<trkpt lat="42.101772" lon="23.571634"><ele>2628.2</ele><time>2026-03-08T11:18:47.000Z</time></trkpt>
<trkpt lat="42.10178" lon="23.571634"><ele>2628.2</ele><time>2026-03-08T11:18:48.000Z</time></trkpt>
<trkpt lat="42.101788" lon="23.571636"><ele>2628.2</ele><time>2026-03-08T11:18:49.000Z</time></trkpt>
<trkpt lat="42.101796" lon="23.571638"><ele>2628.2</ele><time>2026-03-08T11:18:50.000Z</time></trkpt>
<trkpt lat="42.101802" lon="23.571643"><ele>2628.2</ele><time>2026-03-08T11:18:51.000Z</time></trkpt>
<trkpt lat="42.101807" lon="23.571649"><ele>2629</ele><time>2026-03-08T11:18:52.000Z</time></trkpt>
<trkpt lat="42.10181" lon="23.571656"><ele>2629</ele><time>2026-03-08T11:18:53.000Z</time></trkpt>
<trkpt lat="42.101811" lon="23.571663"><ele>2629</ele><time>2026-03-08T11:18:54.000Z</time></trkpt>
<trkpt lat="42.101812" lon="23.57167"><ele>2629</ele><time>2026-03-08T11:18:55.000Z</time></trkpt>
<trkpt lat="42.101812" lon="23.571675"><ele>2629</ele><time>2026-03-08T11:18:56.000Z</time></trkpt>
<trkpt lat="42.101811" lon="23.57168"><ele>2629.4</ele><time>2026-03-08T11:18:57.000Z</time></trkpt>
<trkpt lat="42.10181" lon="23.571686"><ele>2629.4</ele><time>2026-03-08T11:18:58.000Z</time></trkpt>
<trkpt lat="42.10181" lon="23.57169"><ele>2629.4</ele><time>2026-03-08T11:18:59.000Z</time></trkpt>
<trkpt lat="42.101809" lon="23.571694"><ele>2629.4</ele><time>2026-03-08T11:19:00.000Z</time></trkpt>
<trkpt lat="42.101809" lon="23.571697"><ele>2629.4</ele><time>2026-03-08T11:19:01.000Z</time></trkpt>
<trkpt lat="42.101809" lon="23.571699"><ele>2630</ele><time>2026-03-08T11:19:02.000Z</time></trkpt>
<trkpt lat="42.10181" lon="23.5717"><ele>2630</ele><time>2026-03-08T11:19:03.000Z</time></trkpt>
<trkpt lat="42.10181" lon="23.571701"><ele>2630</ele><time>2026-03-08T11:19:04.000Z</time></trkpt>
<trkpt lat="42.101811" lon="23.571701"><ele>2630</ele><time>2026-03-08T11:19:05.000Z</time></trkpt>
<trkpt lat="42.101812" lon="23.571702"><ele>2630</ele><time>2026-03-08T11:19:06.000Z</time></trkpt>
<trkpt lat="42.101815" lon="23.571703"><ele>2630.5</ele><time>2026-03-08T11:19:07.000Z</time></trkpt>
<trkpt lat="42.101819" lon="23.571705"><ele>2630.5</ele><time>2026-03-08T11:19:08.000Z</time></trkpt>
<trkpt lat="42.101824" lon="23.571708"><ele>2630.5</ele><time>2026-03-08T11:19:09.000Z</time></trkpt>
<trkpt lat="42.10183" lon="23.571711"><ele>2630.5</ele><time>2026-03-08T11:19:10.000Z</time></trkpt>
<trkpt lat="42.101836" lon="23.571714"><ele>2630.5</ele><time>2026-03-08T11:19:11.000Z</time></trkpt>
<trkpt lat="42.101842" lon="23.571717"><ele>2630.7</ele><time>2026-03-08T11:19:12.000Z</time></trkpt>
<trkpt lat="42.101848" lon="23.571721"><ele>2630.7</ele><time>2026-03-08T11:19:13.000Z</time></trkpt>
<trkpt lat="42.101852" lon="23.571723"><ele>2630.7</ele><time>2026-03-08T11:19:14.000Z</time></trkpt>
<trkpt lat="42.101855" lon="23.571726"><ele>2630.7</ele><time>2026-03-08T11:19:15.000Z</time></trkpt>
<trkpt lat="42.101857" lon="23.571728"><ele>2630.7</ele><time>2026-03-08T11:19:16.000Z</time></trkpt>
<trkpt lat="42.101857" lon="23.57173"><ele>2631.1</ele><time>2026-03-08T11:19:17.000Z</time></trkpt>
<trkpt lat="42.101857" lon="23.571731"><ele>2631.1</ele><time>2026-03-08T11:19:18.000Z</time></trkpt>
<trkpt lat="42.101858" lon="23.571731"><ele>2631.1</ele><time>2026-03-08T11:19:19.000Z</time></trkpt>
<trkpt lat="42.101859" lon="23.571731"><ele>2631.1</ele><time>2026-03-08T11:19:20.000Z</time></trkpt>
<trkpt lat="42.101862" lon="23.571732"><ele>2631.1</ele><time>2026-03-08T11:19:21.000Z</time></trkpt>
<trkpt lat="42.101867" lon="23.571733"><ele>2631.7</ele><time>2026-03-08T11:19:22.000Z</time></trkpt>
<trkpt lat="42.101872" lon="23.571734"><ele>2631.7</ele><time>2026-03-08T11:19:23.000Z</time></trkpt>
<trkpt lat="42.101878" lon="23.571737"><ele>2631.7</ele><time>2026-03-08T11:19:24.000Z</time></trkpt>
<trkpt lat="42.101884" lon="23.571741"><ele>2631.7</ele><time>2026-03-08T11:19:25.000Z</time></trkpt>
<trkpt lat="42.10189" lon="23.571744"><ele>2631.7</ele><time>2026-03-08T11:19:26.000Z</time></trkpt>
<trkpt lat="42.101896" lon="23.571747"><ele>2632</ele><time>2026-03-08T11:19:27.000Z</time></trkpt>
<trkpt lat="42.101901" lon="23.571751"><ele>2632</ele><time>2026-03-08T11:19:28.000Z</time></trkpt>
<trkpt lat="42.101906" lon="23.571753"><ele>2632</ele><time>2026-03-08T11:19:29.000Z</time></trkpt>
<trkpt lat="42.10191" lon="23.571755"><ele>2632</ele><time>2026-03-08T11:19:30.000Z</time></trkpt>
<trkpt lat="42.101915" lon="23.571756"><ele>2632</ele><time>2026-03-08T11:19:31.000Z</time></trkpt>
<trkpt lat="42.101919" lon="23.571756"><ele>2632.7</ele><time>2026-03-08T11:19:32.000Z</time></trkpt>
<trkpt lat="42.101924" lon="23.571757"><ele>2632.7</ele><time>2026-03-08T11:19:33.000Z</time></trkpt>
<trkpt lat="42.10193" lon="23.571757"><ele>2632.7</ele><time>2026-03-08T11:19:34.000Z</time></trkpt>
<trkpt lat="42.101936" lon="23.571757"><ele>2632.7</ele><time>2026-03-08T11:19:35.000Z</time></trkpt>
<trkpt lat="42.101941" lon="23.571758"><ele>2632.7</ele><time>2026-03-08T11:19:36.000Z</time></trkpt>
<trkpt lat="42.101946" lon="23.571761"><ele>2633.2</ele><time>2026-03-08T11:19:37.000Z</time></trkpt>
<trkpt lat="42.101949" lon="23.571764"><ele>2633.2</ele><time>2026-03-08T11:19:38.000Z</time></trkpt>
<trkpt lat="42.101952" lon="23.571767"><ele>2633.2</ele><time>2026-03-08T11:19:39.000Z</time></trkpt>
<trkpt lat="42.101955" lon="23.571772"><ele>2633.2</ele><time>2026-03-08T11:19:40.000Z</time></trkpt>
<trkpt lat="42.101957" lon="23.571777"><ele>2633.2</ele><time>2026-03-08T11:19:41.000Z</time></trkpt>
<trkpt lat="42.101959" lon="23.571782"><ele>2633.5</ele><time>2026-03-08T11:19:42.000Z</time></trkpt>
<trkpt lat="42.101961" lon="23.571789"><ele>2633.5</ele><time>2026-03-08T11:19:43.000Z</time></trkpt>
<trkpt lat="42.101962" lon="23.571795"><ele>2633.5</ele><time>2026-03-08T11:19:44.000Z</time></trkpt>
<trkpt lat="42.101962" lon="23.571801"><ele>2633.5</ele><time>2026-03-08T11:19:45.000Z</time></trkpt>
<trkpt lat="42.101962" lon="23.571808"><ele>2633.5</ele><time>2026-03-08T11:19:46.000Z</time></trkpt>
<trkpt lat="42.101962" lon="23.571814"><ele>2634.2</ele><time>2026-03-08T11:19:47.000Z</time></trkpt>
<trkpt lat="42.101962" lon="23.571819"><ele>2634.2</ele><time>2026-03-08T11:19:48.000Z</time></trkpt>
<trkpt lat="42.101963" lon="23.571823"><ele>2634.2</ele><time>2026-03-08T11:19:49.000Z</time></trkpt>
<trkpt lat="42.101965" lon="23.571826"><ele>2634.2</ele><time>2026-03-08T11:19:50.000Z</time></trkpt>
<trkpt lat="42.101968" lon="23.571829"><ele>2634.2</ele><time>2026-03-08T11:19:51.000Z</time></trkpt>
<trkpt lat="42.101972" lon="23.571832"><ele>2635.1</ele><time>2026-03-08T11:19:52.000Z</time></trkpt>
<trkpt lat="42.101977" lon="23.571837"><ele>2635.1</ele><time>2026-03-08T11:19:53.000Z</time></trkpt>
<trkpt lat="42.101982" lon="23.571842"><ele>2635.1</ele><time>2026-03-08T11:19:54.000Z</time></trkpt>
<trkpt lat="42.101986" lon="23.571847"><ele>2635.1</ele><time>2026-03-08T11:19:55.000Z</time></trkpt>
<trkpt lat="42.10199" lon="23.571852"><ele>2635.1</ele><time>2026-03-08T11:19:56.000Z</time></trkpt>
<trkpt lat="42.101995" lon="23.571857"><ele>2635.6</ele><time>2026-03-08T11:19:57.000Z</time></trkpt>
<trkpt lat="42.101999" lon="23.571863"><ele>2635.6</ele><time>2026-03-08T11:19:58.000Z</time></trkpt>
<trkpt lat="42.102003" lon="23.57187"><ele>2635.6</ele><time>2026-03-08T11:19:59.000Z</time></trkpt>
<trkpt lat="42.102006" lon="23.571878"><ele>2635.6</ele><time>2026-03-08T11:20:00.000Z</time></trkpt>
<trkpt lat="42.102008" lon="23.571886"><ele>2635.6</ele><time>2026-03-08T11:20:01.000Z</time></trkpt>
<trkpt lat="42.102009" lon="23.571895"><ele>2636.4</ele><time>2026-03-08T11:20:02.000Z</time></trkpt>
<trkpt lat="42.10201" lon="23.571904"><ele>2636.4</ele><time>2026-03-08T11:20:03.000Z</time></trkpt>
<trkpt lat="42.10201" lon="23.571913"><ele>2636.4</ele><time>2026-03-08T11:20:04.000Z</time></trkpt>
<trkpt lat="42.10201" lon="23.571921"><ele>2636.4</ele><time>2026-03-08T11:20:05.000Z</time></trkpt>
<trkpt lat="42.102012" lon="23.571929"><ele>2636.4</ele><time>2026-03-08T11:20:06.000Z</time></trkpt>
<trkpt lat="42.102015" lon="23.571938"><ele>2637.2</ele><time>2026-03-08T11:20:07.000Z</time></trkpt>
<trkpt lat="42.102018" lon="23.571944"><ele>2637.2</ele><time>2026-03-08T11:20:08.000Z</time></trkpt>
<trkpt lat="42.102022" lon="23.571951"><ele>2637.2</ele><time>2026-03-08T11:20:09.000Z</time></trkpt>
<trkpt lat="42.102027" lon="23.571959"><ele>2637.2</ele><time>2026-03-08T11:20:10.000Z</time></trkpt>
<trkpt lat="42.102031" lon="23.571966"><ele>2637.2</ele><time>2026-03-08T11:20:11.000Z</time></trkpt>
<trkpt lat="42.102035" lon="23.571973"><ele>2637.5</ele><time>2026-03-08T11:20:12.000Z</time></trkpt>
<trkpt lat="42.102038" lon="23.571981"><ele>2637.5</ele><time>2026-03-08T11:20:13.000Z</time></trkpt>
<trkpt lat="42.102042" lon="23.571989"><ele>2637.5</ele><time>2026-03-08T11:20:14.000Z</time></trkpt>
<trkpt lat="42.102046" lon="23.571994"><ele>2637.5</ele><time>2026-03-08T11:20:15.000Z</time></trkpt>
<trkpt lat="42.10205" lon="23.572"><ele>2637.5</ele><time>2026-03-08T11:20:16.000Z</time></trkpt>
<trkpt lat="42.102055" lon="23.572007"><ele>2638</ele><time>2026-03-08T11:20:17.000Z</time></trkpt>
<trkpt lat="42.10206" lon="23.572013"><ele>2638</ele><time>2026-03-08T11:20:18.000Z</time></trkpt>
<trkpt lat="42.102065" lon="23.57202"><ele>2638</ele><time>2026-03-08T11:20:19.000Z</time></trkpt>
<trkpt lat="42.102069" lon="23.572029"><ele>2638</ele><time>2026-03-08T11:20:20.000Z</time></trkpt>
<trkpt lat="42.102074" lon="23.572038"><ele>2638</ele><time>2026-03-08T11:20:21.000Z</time></trkpt>
<trkpt lat="42.102078" lon="23.572046"><ele>2638.5</ele><time>2026-03-08T11:20:22.000Z</time></trkpt>
<trkpt lat="42.102082" lon="23.572055"><ele>2638.5</ele><time>2026-03-08T11:20:23.000Z</time></trkpt>
<trkpt lat="42.102086" lon="23.572063"><ele>2638.5</ele><time>2026-03-08T11:20:24.000Z</time></trkpt>
<trkpt lat="42.10209" lon="23.57207"><ele>2638.5</ele><time>2026-03-08T11:20:25.000Z</time></trkpt>
<trkpt lat="42.102093" lon="23.572077"><ele>2638.5</ele><time>2026-03-08T11:20:26.000Z</time></trkpt>
<trkpt lat="42.102097" lon="23.572085"><ele>2638.8</ele><time>2026-03-08T11:20:27.000Z</time></trkpt>
<trkpt lat="42.1021" lon="23.572093"><ele>2638.8</ele><time>2026-03-08T11:20:28.000Z</time></trkpt>
<trkpt lat="42.102103" lon="23.572102"><ele>2638.8</ele><time>2026-03-08T11:20:29.000Z</time></trkpt>
<trkpt lat="42.102106" lon="23.572111"><ele>2638.8</ele><time>2026-03-08T11:20:30.000Z</time></trkpt>
<trkpt lat="42.102109" lon="23.572122"><ele>2638.8</ele><time>2026-03-08T11:20:31.000Z</time></trkpt>
<trkpt lat="42.102111" lon="23.572132"><ele>2639.4</ele><time>2026-03-08T11:20:32.000Z</time></trkpt>
<trkpt lat="42.102112" lon="23.572142"><ele>2639.4</ele><time>2026-03-08T11:20:33.000Z</time></trkpt>
<trkpt lat="42.102113" lon="23.572152"><ele>2639.4</ele><time>2026-03-08T11:20:34.000Z</time></trkpt>
<trkpt lat="42.102114" lon="23.572162"><ele>2639.4</ele><time>2026-03-08T11:20:35.000Z</time></trkpt>
<trkpt lat="42.102114" lon="23.572171"><ele>2639.4</ele><time>2026-03-08T11:20:36.000Z</time></trkpt>
<trkpt lat="42.102115" lon="23.57218"><ele>2640.1</ele><time>2026-03-08T11:20:37.000Z</time></trkpt>
<trkpt lat="42.102116" lon="23.57219"><ele>2640.1</ele><time>2026-03-08T11:20:38.000Z</time></trkpt>
<trkpt lat="42.102117" lon="23.572201"><ele>2640.1</ele><time>2026-03-08T11:20:39.000Z</time></trkpt>
<trkpt lat="42.102118" lon="23.572211"><ele>2640.1</ele><time>2026-03-08T11:20:40.000Z</time></trkpt>
<trkpt lat="42.102119" lon="23.572221"><ele>2640.1</ele><time>2026-03-08T11:20:41.000Z</time></trkpt>
<trkpt lat="42.102121" lon="23.572232"><ele>2640.3</ele><time>2026-03-08T11:20:42.000Z</time></trkpt>
<trkpt lat="42.102122" lon="23.572243"><ele>2640.3</ele><time>2026-03-08T11:20:43.000Z</time></trkpt>
<trkpt lat="42.102123" lon="23.572253"><ele>2640.3</ele><time>2026-03-08T11:20:44.000Z</time></trkpt>
<trkpt lat="42.102123" lon="23.572263"><ele>2640.3</ele><time>2026-03-08T11:20:45.000Z</time></trkpt>
<trkpt lat="42.102123" lon="23.572273"><ele>2640.3</ele><time>2026-03-08T11:20:46.000Z</time></trkpt>
<trkpt lat="42.102123" lon="23.572282"><ele>2640.7</ele><time>2026-03-08T11:20:47.000Z</time></trkpt>
<trkpt lat="42.102121" lon="23.57229"><ele>2640.7</ele><time>2026-03-08T11:20:48.000Z</time></trkpt>
<trkpt lat="42.10212" lon="23.572297"><ele>2640.7</ele><time>2026-03-08T11:20:49.000Z</time></trkpt>
<trkpt lat="42.102119" lon="23.572302"><ele>2640.7</ele><time>2026-03-08T11:20:50.000Z</time></trkpt>
<trkpt lat="42.102118" lon="23.572305"><ele>2640.7</ele><time>2026-03-08T11:20:51.000Z</time></trkpt>
<trkpt lat="42.102117" lon="23.572308"><ele>2640.9</ele><time>2026-03-08T11:20:52.000Z</time></trkpt>
<trkpt lat="42.102117" lon="23.57231"><ele>2640.9</ele><time>2026-03-08T11:20:53.000Z</time></trkpt>
<trkpt lat="42.102117" lon="23.572311"><ele>2640.9</ele><time>2026-03-08T11:20:54.000Z</time></trkpt>
<trkpt lat="42.102117" lon="23.572312"><ele>2640.9</ele><time>2026-03-08T11:20:55.000Z</time></trkpt>
<trkpt lat="42.102117" lon="23.572313"><ele>2640.9</ele><time>2026-03-08T11:20:56.000Z</time></trkpt>
<trkpt lat="42.102117" lon="23.572314"><ele>2641</ele><time>2026-03-08T11:20:57.000Z</time></trkpt>
<trkpt lat="42.102118" lon="23.572314"><ele>2641</ele><time>2026-03-08T11:20:58.000Z</time></trkpt>
<trkpt lat="42.102118" lon="23.572314"><ele>2641</ele><time>2026-03-08T11:20:59.000Z</time></trkpt>
<trkpt lat="42.102119" lon="23.572315"><ele>2641</ele><time>2026-03-08T11:21:00.000Z</time></trkpt>
<trkpt lat="42.102119" lon="23.572315"><ele>2641</ele><time>2026-03-08T11:21:01.000Z</time></trkpt>
<trkpt lat="42.102119" lon="23.572315"><ele>2641.2</ele><time>2026-03-08T11:21:02.000Z</time></trkpt>
<trkpt lat="42.102119" lon="23.572315"><ele>2641.2</ele><time>2026-03-08T11:21:03.000Z</time></trkpt>
<trkpt lat="42.102119" lon="23.572315"><ele>2641.2</ele><time>2026-03-08T11:21:04.000Z</time></trkpt>
<trkpt lat="42.102119" lon="23.572315"><ele>2641.2</ele><time>2026-03-08T11:21:05.000Z</time></trkpt>
<trkpt lat="42.102119" lon="23.572315"><ele>2641.2</ele><time>2026-03-08T11:21:06.000Z</time></trkpt>
<trkpt lat="42.102119" lon="23.572314"><ele>2641.4</ele><time>2026-03-08T11:21:07.000Z</time></trkpt>
<trkpt lat="42.10212" lon="23.572314"><ele>2641.4</ele><time>2026-03-08T11:21:08.000Z</time></trkpt>
<trkpt lat="42.10212" lon="23.572313"><ele>2641.4</ele><time>2026-03-08T11:21:09.000Z</time></trkpt>
<trkpt lat="42.102121" lon="23.572312"><ele>2641.4</ele><time>2026-03-08T11:21:10.000Z</time></trkpt>
<trkpt lat="42.102121" lon="23.572311"><ele>2641.4</ele><time>2026-03-08T11:21:11.000Z</time></trkpt>
<trkpt lat="42.102121" lon="23.572311"><ele>2641.5</ele><time>2026-03-08T11:21:12.000Z</time></trkpt>
<trkpt lat="42.102121" lon="23.57231"><ele>2641.5</ele><time>2026-03-08T11:21:13.000Z</time></trkpt>
<trkpt lat="42.102121" lon="23.572309"><ele>2641.5</ele><time>2026-03-08T11:21:14.000Z</time></trkpt>
<trkpt lat="42.102121" lon="23.572308"><ele>2641.5</ele><time>2026-03-08T11:21:15.000Z</time></trkpt>
<trkpt lat="42.102121" lon="23.572307"><ele>2641.5</ele><time>2026-03-08T11:21:16.000Z</time></trkpt>
<trkpt lat="42.102121" lon="23.572306"><ele>2641.4</ele><time>2026-03-08T11:21:17.000Z</time></trkpt>
<trkpt lat="42.102121" lon="23.572306"><ele>2641.4</ele><time>2026-03-08T11:21:18.000Z</time></trkpt>
<trkpt lat="42.102121" lon="23.572306"><ele>2641.4</ele><time>2026-03-08T11:21:19.000Z</time></trkpt>
<trkpt lat="42.10212" lon="23.572306"><ele>2641.4</ele><time>2026-03-08T11:21:20.000Z</time></trkpt>
<trkpt lat="42.10212" lon="23.572306"><ele>2641.4</ele><time>2026-03-08T11:21:21.000Z</time></trkpt>
<trkpt lat="42.10212" lon="23.572306"><ele>2641.5</ele><time>2026-03-08T11:21:22.000Z</time></trkpt>
<trkpt lat="42.10212" lon="23.572306"><ele>2641.5</ele><time>2026-03-08T11:21:23.000Z</time></trkpt>
<trkpt lat="42.10212" lon="23.572307"><ele>2641.5</ele><time>2026-03-08T11:21:24.000Z</time></trkpt>
<trkpt lat="42.10212" lon="23.572307"><ele>2641.5</ele><time>2026-03-08T11:21:25.000Z</time></trkpt>
<trkpt lat="42.10212" lon="23.572307"><ele>2641.5</ele><time>2026-03-08T11:21:26.000Z</time></trkpt>
<trkpt lat="42.10212" lon="23.572307"><ele>2641.5</ele><time>2026-03-08T11:21:27.000Z</time></trkpt>
<trkpt lat="42.10212" lon="23.572307"><ele>2641.5</ele><time>2026-03-08T11:21:28.000Z</time></trkpt>
<trkpt lat="42.10212" lon="23.572306"><ele>2641.5</ele><time>2026-03-08T11:21:29.000Z</time></trkpt>
<trkpt lat="42.10212" lon="23.572305"><ele>2641.5</ele><time>2026-03-08T11:21:30.000Z</time></trkpt>
<trkpt lat="42.102119" lon="23.572306"><ele>2641.5</ele><time>2026-03-08T11:21:31.000Z</time></trkpt>
<trkpt lat="42.102119" lon="23.572306"><ele>2641.6</ele><time>2026-03-08T11:21:32.000Z</time></trkpt>
<trkpt lat="42.102118" lon="23.572305"><ele>2641.6</ele><time>2026-03-08T11:21:33.000Z</time></trkpt>
<trkpt lat="42.102118" lon="23.572304"><ele>2641.6</ele><time>2026-03-08T11:21:34.000Z</time></trkpt>
<trkpt lat="42.102118" lon="23.572303"><ele>2641.6</ele><time>2026-03-08T11:21:35.000Z</time></trkpt>
<trkpt lat="42.102118" lon="23.572301"><ele>2641.6</ele><time>2026-03-08T11:21:36.000Z</time></trkpt>
<trkpt lat="42.102118" lon="23.5723"><ele>2641.6</ele><time>2026-03-08T11:21:37.000Z</time></trkpt>
<trkpt lat="42.102118" lon="23.5723"><ele>2641.6</ele><time>2026-03-08T11:21:38.000Z</time></trkpt>
<trkpt lat="42.102118" lon="23.5723"><ele>2641.6</ele><time>2026-03-08T11:21:39.000Z</time></trkpt>
<trkpt lat="42.102118" lon="23.572301"><ele>2641.6</ele><time>2026-03-08T11:21:40.000Z</time></trkpt>
<trkpt lat="42.102117" lon="23.572302"><ele>2641.6</ele><time>2026-03-08T11:21:41.000Z</time></trkpt>
<trkpt lat="42.102117" lon="23.572302"><ele>2641.5</ele><time>2026-03-08T11:21:42.000Z</time></trkpt>
<trkpt lat="42.102117" lon="23.572303"><ele>2641.5</ele><time>2026-03-08T11:21:43.000Z</time></trkpt>
<trkpt lat="42.102117" lon="23.572304"><ele>2641.5</ele><time>2026-03-08T11:21:44.000Z</time></trkpt>
<trkpt lat="42.102117" lon="23.572305"><ele>2641.5</ele><time>2026-03-08T11:21:45.000Z</time></trkpt>
<trkpt lat="42.102118" lon="23.572306"><ele>2641.5</ele><time>2026-03-08T11:21:46.000Z</time></trkpt>
<trkpt lat="42.102119" lon="23.572306"><ele>2641.4</ele><time>2026-03-08T11:21:47.000Z</time></trkpt>
<trkpt lat="42.102119" lon="23.572307"><ele>2641.4</ele><time>2026-03-08T11:21:48.000Z</time></trkpt>
<trkpt lat="42.102119" lon="23.572307"><ele>2641.4</ele><time>2026-03-08T11:21:49.000Z</time></trkpt>
<trkpt lat="42.102119" lon="23.572307"><ele>2641.4</ele><time>2026-03-08T11:21:50.000Z</time></trkpt>
<trkpt lat="42.102119" lon="23.572307"><ele>2641.4</ele><time>2026-03-08T11:21:51.000Z</time></trkpt>
<trkpt lat="42.102119" lon="23.572307"><ele>2641.4</ele><time>2026-03-08T11:21:52.000Z</time></trkpt>
<trkpt lat="42.102119" lon="23.572307"><ele>2641.4</ele><time>2026-03-08T11:21:53.000Z</time></trkpt>
<trkpt lat="42.102119" lon="23.572307"><ele>2641.4</ele><time>2026-03-08T11:21:54.000Z</time></trkpt>
<trkpt lat="42.102119" lon="23.572307"><ele>2641.4</ele><time>2026-03-08T11:21:55.000Z</time></trkpt>
<trkpt lat="42.102119" lon="23.572307"><ele>2641.4</ele><time>2026-03-08T11:21:56.000Z</time></trkpt>
<trkpt lat="42.102119" lon="23.572307"><ele>2641.4</ele><time>2026-03-08T11:21:57.000Z</time></trkpt>
<trkpt lat="42.102119" lon="23.572307"><ele>2641.4</ele><time>2026-03-08T11:21:58.000Z</time></trkpt>
<trkpt lat="42.102119" lon="23.572307"><ele>2641.4</ele><time>2026-03-08T11:21:59.000Z</time></trkpt>
<trkpt lat="42.102119" lon="23.572307"><ele>2641.4</ele><time>2026-03-08T11:22:00.000Z</time></trkpt>
<trkpt lat="42.102119" lon="23.572307"><ele>2641.4</ele><time>2026-03-08T11:22:01.000Z</time></trkpt>
<trkpt lat="42.102119" lon="23.572307"><ele>2641.4</ele><time>2026-03-08T11:22:02.000Z</time></trkpt>
<trkpt lat="42.102119" lon="23.572307"><ele>2641.4</ele><time>2026-03-08T11:22:03.000Z</time></trkpt>
<trkpt lat="42.102119" lon="23.572307"><ele>2641.4</ele><time>2026-03-08T11:22:04.000Z</time></trkpt>
<trkpt lat="42.102119" lon="23.572307"><ele>2641.4</ele><time>2026-03-08T11:22:05.000Z</time></trkpt>
<trkpt lat="42.102119" lon="23.572307"><ele>2641.4</ele><time>2026-03-08T11:22:06.000Z</time></trkpt>
<trkpt lat="42.102119" lon="23.572307"><ele>2641.3</ele><time>2026-03-08T11:22:07.000Z</time></trkpt>
<trkpt lat="42.102119" lon="23.572307"><ele>2641.3</ele><time>2026-03-08T11:22:08.000Z</time></trkpt>
<trkpt lat="42.102119" lon="23.572307"><ele>2641.3</ele><time>2026-03-08T11:22:09.000Z</time></trkpt>
<trkpt lat="42.102119" lon="23.572307"><ele>2641.3</ele><time>2026-03-08T11:22:10.000Z</time></trkpt>
<trkpt lat="42.102119" lon="23.572306"><ele>2641.3</ele><time>2026-03-08T11:22:11.000Z</time></trkpt>
<trkpt lat="42.102119" lon="23.572306"><ele>2641.3</ele><time>2026-03-08T11:22:12.000Z</time></trkpt>
<trkpt lat="42.102119" lon="23.572306"><ele>2641.3</ele><time>2026-03-08T11:22:13.000Z</time></trkpt>
<trkpt lat="42.102119" lon="23.572306"><ele>2641.3</ele><time>2026-03-08T11:22:14.000Z</time></trkpt>
<trkpt lat="42.102118" lon="23.572306"><ele>2641.3</ele><time>2026-03-08T11:22:15.000Z</time></trkpt>
<trkpt lat="42.102119" lon="23.572307"><ele>2641.3</ele><time>2026-03-08T11:22:16.000Z</time></trkpt>
<trkpt lat="42.102119" lon="23.572307"><ele>2641.6</ele><time>2026-03-08T11:22:17.000Z</time></trkpt>
<trkpt lat="42.102119" lon="23.572308"><ele>2641.6</ele><time>2026-03-08T11:22:18.000Z</time></trkpt>
<trkpt lat="42.10212" lon="23.572308"><ele>2641.6</ele><time>2026-03-08T11:22:19.000Z</time></trkpt>
<trkpt lat="42.10212" lon="23.572307"><ele>2641.6</ele><time>2026-03-08T11:22:20.000Z</time></trkpt>
<trkpt lat="42.10212" lon="23.572307"><ele>2641.6</ele><time>2026-03-08T11:22:21.000Z</time></trkpt>
<trkpt lat="42.10212" lon="23.572307"><ele>2641.8</ele><time>2026-03-08T11:22:22.000Z</time></trkpt>
<trkpt lat="42.10212" lon="23.572307"><ele>2641.8</ele><time>2026-03-08T11:22:23.000Z</time></trkpt>
<trkpt lat="42.10212" lon="23.572307"><ele>2641.8</ele><time>2026-03-08T11:22:24.000Z</time></trkpt>
<trkpt lat="42.10212" lon="23.572307"><ele>2641.8</ele><time>2026-03-08T11:22:25.000Z</time></trkpt>
<trkpt lat="42.102119" lon="23.572307"><ele>2641.8</ele><time>2026-03-08T11:22:26.000Z</time></trkpt>
<trkpt lat="42.102119" lon="23.572307"><ele>2641.9</ele><time>2026-03-08T11:22:27.000Z</time></trkpt>
<trkpt lat="42.102118" lon="23.572307"><ele>2641.9</ele><time>2026-03-08T11:22:28.000Z</time></trkpt>
<trkpt lat="42.102116" lon="23.572307"><ele>2641.9</ele><time>2026-03-08T11:22:29.000Z</time></trkpt>
<trkpt lat="42.102114" lon="23.572307"><ele>2641.9</ele><time>2026-03-08T11:22:30.000Z</time></trkpt>
<trkpt lat="42.102112" lon="23.572308"><ele>2641.9</ele><time>2026-03-08T11:22:31.000Z</time></trkpt>
<trkpt lat="42.102109" lon="23.572309"><ele>2641.8</ele><time>2026-03-08T11:22:32.000Z</time></trkpt>
<trkpt lat="42.102107" lon="23.57231"><ele>2641.8</ele><time>2026-03-08T11:22:33.000Z</time></trkpt>
<trkpt lat="42.102107" lon="23.572312"><ele>2641.8</ele><time>2026-03-08T11:22:34.000Z</time></trkpt>
<trkpt lat="42.102106" lon="23.572316"><ele>2641.8</ele><time>2026-03-08T11:22:35.000Z</time></trkpt>
<trkpt lat="42.102104" lon="23.572319"><ele>2641.8</ele><time>2026-03-08T11:22:36.000Z</time></trkpt>
<trkpt lat="42.102104" lon="23.572321"><ele>2641.5</ele><time>2026-03-08T11:22:37.000Z</time></trkpt>
<trkpt lat="42.102103" lon="23.572323"><ele>2641.5</ele><time>2026-03-08T11:22:38.000Z</time></trkpt>
<trkpt lat="42.102101" lon="23.572324"><ele>2641.5</ele><time>2026-03-08T11:22:39.000Z</time></trkpt>
<trkpt lat="42.102101" lon="23.572323"><ele>2641.5</ele><time>2026-03-08T11:22:40.000Z</time></trkpt>
<trkpt lat="42.102101" lon="23.572324"><ele>2641.5</ele><time>2026-03-08T11:22:41.000Z</time></trkpt>
<trkpt lat="42.102101" lon="23.572325"><ele>2641.5</ele><time>2026-03-08T11:22:42.000Z</time></trkpt>
<trkpt lat="42.1021" lon="23.572327"><ele>2641.5</ele><time>2026-03-08T11:22:43.000Z</time></trkpt>
<trkpt lat="42.1021" lon="23.572328"><ele>2641.5</ele><time>2026-03-08T11:22:44.000Z</time></trkpt>
<trkpt lat="42.1021" lon="23.57233"><ele>2641.5</ele><time>2026-03-08T11:22:45.000Z</time></trkpt>
<trkpt lat="42.1021" lon="23.572331"><ele>2641.5</ele><time>2026-03-08T11:22:46.000Z</time></trkpt>
<trkpt lat="42.102101" lon="23.572331"><ele>2641.6</ele><time>2026-03-08T11:22:47.000Z</time></trkpt>
<trkpt lat="42.102102" lon="23.572331"><ele>2641.6</ele><time>2026-03-08T11:22:48.000Z</time></trkpt>
<trkpt lat="42.102102" lon="23.57233"><ele>2641.6</ele><time>2026-03-08T11:22:49.000Z</time></trkpt>
<trkpt lat="42.102102" lon="23.57233"><ele>2641.6</ele><time>2026-03-08T11:22:50.000Z</time></trkpt>
<trkpt lat="42.102102" lon="23.57233"><ele>2641.6</ele><time>2026-03-08T11:22:51.000Z</time></trkpt>
<trkpt lat="42.102102" lon="23.57233"><ele>2641.5</ele><time>2026-03-08T11:22:52.000Z</time></trkpt>
<trkpt lat="42.102102" lon="23.572329"><ele>2641.5</ele><time>2026-03-08T11:22:53.000Z</time></trkpt>
<trkpt lat="42.102102" lon="23.57233"><ele>2641.5</ele><time>2026-03-08T11:22:54.000Z</time></trkpt>
<trkpt lat="42.102102" lon="23.572329"><ele>2641.5</ele><time>2026-03-08T11:22:55.000Z</time></trkpt>
<trkpt lat="42.102102" lon="23.572329"><ele>2641.5</ele><time>2026-03-08T11:22:56.000Z</time></trkpt>
<trkpt lat="42.102102" lon="23.572329"><ele>2641.3</ele><time>2026-03-08T11:22:57.000Z</time></trkpt>
<trkpt lat="42.102102" lon="23.572329"><ele>2641.3</ele><time>2026-03-08T11:22:58.000Z</time></trkpt>
<trkpt lat="42.102102" lon="23.572329"><ele>2641.3</ele><time>2026-03-08T11:22:59.000Z</time></trkpt>
<trkpt lat="42.102102" lon="23.572329"><ele>2641.3</ele><time>2026-03-08T11:23:00.000Z</time></trkpt>
<trkpt lat="42.102102" lon="23.572329"><ele>2641.3</ele><time>2026-03-08T11:23:01.000Z</time></trkpt>
<trkpt lat="42.102102" lon="23.572329"><ele>2641</ele><time>2026-03-08T11:23:02.000Z</time></trkpt>
<trkpt lat="42.102102" lon="23.572329"><ele>2641</ele><time>2026-03-08T11:23:03.000Z</time></trkpt>
<trkpt lat="42.102102" lon="23.572329"><ele>2641</ele><time>2026-03-08T11:23:04.000Z</time></trkpt>
<trkpt lat="42.102102" lon="23.572329"><ele>2641</ele><time>2026-03-08T11:23:05.000Z</time></trkpt>
<trkpt lat="42.102102" lon="23.572329"><ele>2641</ele><time>2026-03-08T11:23:06.000Z</time></trkpt>
<trkpt lat="42.102102" lon="23.572329"><ele>2640.8</ele><time>2026-03-08T11:23:07.000Z</time></trkpt>
<trkpt lat="42.102102" lon="23.572329"><ele>2640.8</ele><time>2026-03-08T11:23:08.000Z</time></trkpt>
<trkpt lat="42.102102" lon="23.572329"><ele>2640.8</ele><time>2026-03-08T11:23:09.000Z</time></trkpt>
<trkpt lat="42.102102" lon="23.572329"><ele>2640.8</ele><time>2026-03-08T11:23:10.000Z</time></trkpt>
<trkpt lat="42.102102" lon="23.572329"><ele>2640.8</ele><time>2026-03-08T11:23:11.000Z</time></trkpt>
<trkpt lat="42.102102" lon="23.572329"><ele>2640.9</ele><time>2026-03-08T11:23:12.000Z</time></trkpt>
<trkpt lat="42.102102" lon="23.572329"><ele>2640.9</ele><time>2026-03-08T11:23:13.000Z</time></trkpt>
<trkpt lat="42.102102" lon="23.572329"><ele>2640.9</ele><time>2026-03-08T11:23:14.000Z</time></trkpt>
<trkpt lat="42.102102" lon="23.572329"><ele>2640.9</ele><time>2026-03-08T11:23:15.000Z</time></trkpt>
<trkpt lat="42.102102" lon="23.572329"><ele>2640.9</ele><time>2026-03-08T11:23:16.000Z</time></trkpt>
<trkpt lat="42.102102" lon="23.572329"><ele>2640.9</ele><time>2026-03-08T11:23:17.000Z</time></trkpt>
<trkpt lat="42.102102" lon="23.572329"><ele>2640.9</ele><time>2026-03-08T11:23:18.000Z</time></trkpt>
<trkpt lat="42.102102" lon="23.572329"><ele>2640.9</ele><time>2026-03-08T11:23:19.000Z</time></trkpt>
<trkpt lat="42.102102" lon="23.57233"><ele>2640.9</ele><time>2026-03-08T11:23:20.000Z</time></trkpt>
<trkpt lat="42.102102" lon="23.57233"><ele>2640.9</ele><time>2026-03-08T11:23:21.000Z</time></trkpt>
<trkpt lat="42.102102" lon="23.572331"><ele>2640.9</ele><time>2026-03-08T11:23:22.000Z</time></trkpt>
<trkpt lat="42.102103" lon="23.572331"><ele>2640.9</ele><time>2026-03-08T11:23:23.000Z</time></trkpt>
<trkpt lat="42.102103" lon="23.572332"><ele>2640.9</ele><time>2026-03-08T11:23:24.000Z</time></trkpt>
<trkpt lat="42.102104" lon="23.572333"><ele>2640.9</ele><time>2026-03-08T11:23:25.000Z</time></trkpt>
<trkpt lat="42.102104" lon="23.572333"><ele>2640.9</ele><time>2026-03-08T11:23:26.000Z</time></trkpt>
<trkpt lat="42.102104" lon="23.572333"><ele>2640.9</ele><time>2026-03-08T11:23:27.000Z</time></trkpt>
<trkpt lat="42.102104" lon="23.572333"><ele>2640.9</ele><time>2026-03-08T11:23:28.000Z</time></trkpt>
<trkpt lat="42.102104" lon="23.572333"><ele>2640.9</ele><time>2026-03-08T11:23:29.000Z</time></trkpt>
<trkpt lat="42.102104" lon="23.572333"><ele>2640.9</ele><time>2026-03-08T11:23:30.000Z</time></trkpt>
<trkpt lat="42.102104" lon="23.572333"><ele>2640.9</ele><time>2026-03-08T11:23:31.000Z</time></trkpt>
<trkpt lat="42.102104" lon="23.572333"><ele>2640.8</ele><time>2026-03-08T11:23:32.000Z</time></trkpt>
<trkpt lat="42.102104" lon="23.572333"><ele>2640.8</ele><time>2026-03-08T11:23:33.000Z</time></trkpt>
<trkpt lat="42.102104" lon="23.572332"><ele>2640.8</ele><time>2026-03-08T11:23:34.000Z</time></trkpt>
<trkpt lat="42.102103" lon="23.572329"><ele>2640.8</ele><time>2026-03-08T11:23:35.000Z</time></trkpt>
<trkpt lat="42.102103" lon="23.572325"><ele>2640.8</ele><time>2026-03-08T11:23:36.000Z</time></trkpt>
<trkpt lat="42.102104" lon="23.572321"><ele>2640.8</ele><time>2026-03-08T11:23:37.000Z</time></trkpt>
<trkpt lat="42.102104" lon="23.572317"><ele>2640.8</ele><time>2026-03-08T11:23:38.000Z</time></trkpt>
<trkpt lat="42.102106" lon="23.572313"><ele>2640.8</ele><time>2026-03-08T11:23:39.000Z</time></trkpt>
<trkpt lat="42.102107" lon="23.572312"><ele>2640.8</ele><time>2026-03-08T11:23:40.000Z</time></trkpt>
<trkpt lat="42.102108" lon="23.572312"><ele>2640.8</ele><time>2026-03-08T11:23:41.000Z</time></trkpt>
<trkpt lat="42.102108" lon="23.572312"><ele>2640.9</ele><time>2026-03-08T11:23:42.000Z</time></trkpt>
<trkpt lat="42.102109" lon="23.572312"><ele>2640.9</ele><time>2026-03-08T11:23:43.000Z</time></trkpt>
<trkpt lat="42.102109" lon="23.572312"><ele>2640.9</ele><time>2026-03-08T11:23:44.000Z</time></trkpt>
<trkpt lat="42.102109" lon="23.572312"><ele>2640.9</ele><time>2026-03-08T11:23:45.000Z</time></trkpt>
<trkpt lat="42.102109" lon="23.572312"><ele>2640.9</ele><time>2026-03-08T11:23:46.000Z</time></trkpt>
<trkpt lat="42.10211" lon="23.572312"><ele>2641.1</ele><time>2026-03-08T11:23:47.000Z</time></trkpt>
<trkpt lat="42.10211" lon="23.572311"><ele>2641.1</ele><time>2026-03-08T11:23:48.000Z</time></trkpt>
<trkpt lat="42.10211" lon="23.572311"><ele>2641.1</ele><time>2026-03-08T11:23:49.000Z</time></trkpt>
<trkpt lat="42.102111" lon="23.572311"><ele>2641.1</ele><time>2026-03-08T11:23:50.000Z</time></trkpt>
<trkpt lat="42.102112" lon="23.57231"><ele>2641.1</ele><time>2026-03-08T11:23:51.000Z</time></trkpt>
<trkpt lat="42.102114" lon="23.57231"><ele>2641.4</ele><time>2026-03-08T11:23:52.000Z</time></trkpt>
<trkpt lat="42.102116" lon="23.57231"><ele>2641.4</ele><time>2026-03-08T11:23:53.000Z</time></trkpt>
<trkpt lat="42.102119" lon="23.572309"><ele>2641.4</ele><time>2026-03-08T11:23:54.000Z</time></trkpt>
<trkpt lat="42.10212" lon="23.57231"><ele>2641.4</ele><time>2026-03-08T11:23:55.000Z</time></trkpt>
<trkpt lat="42.102121" lon="23.572311"><ele>2641.4</ele><time>2026-03-08T11:23:56.000Z</time></trkpt>
<trkpt lat="42.102121" lon="23.572312"><ele>2641.4</ele><time>2026-03-08T11:23:57.000Z</time></trkpt>
<trkpt lat="42.102121" lon="23.572315"><ele>2641.4</ele><time>2026-03-08T11:23:58.000Z</time></trkpt>
<trkpt lat="42.102121" lon="23.572319"><ele>2641.4</ele><time>2026-03-08T11:23:59.000Z</time></trkpt>
<trkpt lat="42.10212" lon="23.572322"><ele>2641.4</ele><time>2026-03-08T11:24:00.000Z</time></trkpt>
<trkpt lat="42.10212" lon="23.572325"><ele>2641.4</ele><time>2026-03-08T11:24:01.000Z</time></trkpt>
<trkpt lat="42.102119" lon="23.572327"><ele>2641.1</ele><time>2026-03-08T11:24:02.000Z</time></trkpt>
<trkpt lat="42.102118" lon="23.572328"><ele>2641.1</ele><time>2026-03-08T11:24:03.000Z</time></trkpt>
<trkpt lat="42.102117" lon="23.572328"><ele>2641.1</ele><time>2026-03-08T11:24:04.000Z</time></trkpt>
<trkpt lat="42.102116" lon="23.572328"><ele>2641.1</ele><time>2026-03-08T11:24:05.000Z</time></trkpt>
<trkpt lat="42.102115" lon="23.572328"><ele>2641.1</ele><time>2026-03-08T11:24:06.000Z</time></trkpt>
<trkpt lat="42.102114" lon="23.572328"><ele>2641</ele><time>2026-03-08T11:24:07.000Z</time></trkpt>
<trkpt lat="42.102113" lon="23.572329"><ele>2641</ele><time>2026-03-08T11:24:08.000Z</time></trkpt>
<trkpt lat="42.102113" lon="23.57233"><ele>2641</ele><time>2026-03-08T11:24:09.000Z</time></trkpt>
<trkpt lat="42.102113" lon="23.57233"><ele>2641</ele><time>2026-03-08T11:24:10.000Z</time></trkpt>
<trkpt lat="42.102113" lon="23.57233"><ele>2641</ele><time>2026-03-08T11:24:11.000Z</time></trkpt>
<trkpt lat="42.102113" lon="23.57233"><ele>2641</ele><time>2026-03-08T11:24:12.000Z</time></trkpt>
<trkpt lat="42.102114" lon="23.572329"><ele>2641</ele><time>2026-03-08T11:24:13.000Z</time></trkpt>
<trkpt lat="42.102114" lon="23.572327"><ele>2641</ele><time>2026-03-08T11:24:14.000Z</time></trkpt>
<trkpt lat="42.102115" lon="23.572323"><ele>2641</ele><time>2026-03-08T11:24:15.000Z</time></trkpt>
<trkpt lat="42.102117" lon="23.572319"><ele>2641</ele><time>2026-03-08T11:24:16.000Z</time></trkpt>
<trkpt lat="42.102119" lon="23.572315"><ele>2641.2</ele><time>2026-03-08T11:24:17.000Z</time></trkpt>
<trkpt lat="42.102122" lon="23.572311"><ele>2641.2</ele><time>2026-03-08T11:24:18.000Z</time></trkpt>
<trkpt lat="42.102124" lon="23.572308"><ele>2641.2</ele><time>2026-03-08T11:24:19.000Z</time></trkpt>
<trkpt lat="42.102126" lon="23.572307"><ele>2641.2</ele><time>2026-03-08T11:24:20.000Z</time></trkpt>
<trkpt lat="42.102126" lon="23.572307"><ele>2641.2</ele><time>2026-03-08T11:24:21.000Z</time></trkpt>
<trkpt lat="42.102125" lon="23.572307"><ele>2641.4</ele><time>2026-03-08T11:24:22.000Z</time></trkpt>
<trkpt lat="42.102124" lon="23.572306"><ele>2641.4</ele><time>2026-03-08T11:24:23.000Z</time></trkpt>
<trkpt lat="42.102123" lon="23.572306"><ele>2641.4</ele><time>2026-03-08T11:24:24.000Z</time></trkpt>
<trkpt lat="42.102122" lon="23.572306"><ele>2641.4</ele><time>2026-03-08T11:24:25.000Z</time></trkpt>
<trkpt lat="42.102121" lon="23.572304"><ele>2641.4</ele><time>2026-03-08T11:24:26.000Z</time></trkpt>
<trkpt lat="42.102121" lon="23.572303"><ele>2641.4</ele><time>2026-03-08T11:24:27.000Z</time></trkpt>
<trkpt lat="42.102122" lon="23.572302"><ele>2641.4</ele><time>2026-03-08T11:24:28.000Z</time></trkpt>
<trkpt lat="42.102122" lon="23.572301"><ele>2641.4</ele><time>2026-03-08T11:24:29.000Z</time></trkpt>
<trkpt lat="42.102122" lon="23.5723"><ele>2641.4</ele><time>2026-03-08T11:24:30.000Z</time></trkpt>
<trkpt lat="42.102123" lon="23.5723"><ele>2641.4</ele><time>2026-03-08T11:24:31.000Z</time></trkpt>
<trkpt lat="42.102123" lon="23.5723"><ele>2641.2</ele><time>2026-03-08T11:24:32.000Z</time></trkpt>
<trkpt lat="42.102123" lon="23.5723"><ele>2641.2</ele><time>2026-03-08T11:24:33.000Z</time></trkpt>
<trkpt lat="42.102124" lon="23.572301"><ele>2641.2</ele><time>2026-03-08T11:24:34.000Z</time></trkpt>
<trkpt lat="42.102124" lon="23.572301"><ele>2641.2</ele><time>2026-03-08T11:24:35.000Z</time></trkpt>
<trkpt lat="42.102124" lon="23.572302"><ele>2641.2</ele><time>2026-03-08T11:24:36.000Z</time></trkpt>
<trkpt lat="42.102124" lon="23.572302"><ele>2641</ele><time>2026-03-08T11:24:37.000Z</time></trkpt>
<trkpt lat="42.102124" lon="23.572302"><ele>2641</ele><time>2026-03-08T11:24:38.000Z</time></trkpt>
<trkpt lat="42.102124" lon="23.572302"><ele>2641</ele><time>2026-03-08T11:24:39.000Z</time></trkpt>
<trkpt lat="42.102124" lon="23.572302"><ele>2641</ele><time>2026-03-08T11:24:40.000Z</time></trkpt>
<trkpt lat="42.102124" lon="23.572302"><ele>2641</ele><time>2026-03-08T11:24:41.000Z</time></trkpt>
<trkpt lat="42.102124" lon="23.572302"><ele>2640.9</ele><time>2026-03-08T11:24:42.000Z</time></trkpt>
<trkpt lat="42.102124" lon="23.572302"><ele>2640.9</ele><time>2026-03-08T11:24:43.000Z</time></trkpt>
<trkpt lat="42.102124" lon="23.572302"><ele>2640.9</ele><time>2026-03-08T11:24:44.000Z</time></trkpt>
<trkpt lat="42.102124" lon="23.572302"><ele>2640.9</ele><time>2026-03-08T11:24:45.000Z</time></trkpt>
<trkpt lat="42.102124" lon="23.572302"><ele>2640.9</ele><time>2026-03-08T11:24:46.000Z</time></trkpt>
<trkpt lat="42.102124" lon="23.572302"><ele>2641.1</ele><time>2026-03-08T11:24:47.000Z</time></trkpt>
<trkpt lat="42.102124" lon="23.572302"><ele>2641.1</ele><time>2026-03-08T11:24:48.000Z</time></trkpt>
<trkpt lat="42.102124" lon="23.572302"><ele>2641.1</ele><time>2026-03-08T11:24:49.000Z</time></trkpt>
<trkpt lat="42.102124" lon="23.572301"><ele>2641.1</ele><time>2026-03-08T11:24:50.000Z</time></trkpt>
<trkpt lat="42.102124" lon="23.572301"><ele>2641.1</ele><time>2026-03-08T11:24:51.000Z</time></trkpt>
<trkpt lat="42.102124" lon="23.572301"><ele>2641.3</ele><time>2026-03-08T11:24:52.000Z</time></trkpt>
<trkpt lat="42.102124" lon="23.572301"><ele>2641.3</ele><time>2026-03-08T11:24:53.000Z</time></trkpt>
<trkpt lat="42.102124" lon="23.5723"><ele>2641.3</ele><time>2026-03-08T11:24:54.000Z</time></trkpt>
<trkpt lat="42.102124" lon="23.5723"><ele>2641.3</ele><time>2026-03-08T11:24:55.000Z</time></trkpt>
<trkpt lat="42.102124" lon="23.5723"><ele>2641.3</ele><time>2026-03-08T11:24:56.000Z</time></trkpt>
<trkpt lat="42.102124" lon="23.5723"><ele>2641.2</ele><time>2026-03-08T11:24:57.000Z</time></trkpt>
<trkpt lat="42.102124" lon="23.5723"><ele>2641.2</ele><time>2026-03-08T11:24:58.000Z</time></trkpt>
<trkpt lat="42.102124" lon="23.572299"><ele>2641.2</ele><time>2026-03-08T11:24:59.000Z</time></trkpt>
<trkpt lat="42.102124" lon="23.572299"><ele>2641.2</ele><time>2026-03-08T11:25:00.000Z</time></trkpt>
<trkpt lat="42.102124" lon="23.572299"><ele>2641.2</ele><time>2026-03-08T11:25:01.000Z</time></trkpt>
<trkpt lat="42.102124" lon="23.572299"><ele>2640.8</ele><time>2026-03-08T11:25:02.000Z</time></trkpt>
<trkpt lat="42.102124" lon="23.572299"><ele>2640.8</ele><time>2026-03-08T11:25:03.000Z</time></trkpt>
<trkpt lat="42.102124" lon="23.572299"><ele>2640.8</ele><time>2026-03-08T11:25:04.000Z</time></trkpt>
<trkpt lat="42.102124" lon="23.572299"><ele>2640.8</ele><time>2026-03-08T11:25:05.000Z</time></trkpt>
<trkpt lat="42.102124" lon="23.572299"><ele>2640.8</ele><time>2026-03-08T11:25:06.000Z</time></trkpt>
<trkpt lat="42.102124" lon="23.572299"><ele>2640.5</ele><time>2026-03-08T11:25:07.000Z</time></trkpt>
<trkpt lat="42.102124" lon="23.572299"><ele>2640.5</ele><time>2026-03-08T11:25:08.000Z</time></trkpt>
<trkpt lat="42.102124" lon="23.572299"><ele>2640.5</ele><time>2026-03-08T11:25:09.000Z</time></trkpt>
<trkpt lat="42.102124" lon="23.572299"><ele>2640.5</ele><time>2026-03-08T11:25:10.000Z</time></trkpt>
<trkpt lat="42.102123" lon="23.572299"><ele>2640.5</ele><time>2026-03-08T11:25:11.000Z</time></trkpt>
<trkpt lat="42.102122" lon="23.572298"><ele>2640.4</ele><time>2026-03-08T11:25:12.000Z</time></trkpt>
<trkpt lat="42.102121" lon="23.572296"><ele>2640.4</ele><time>2026-03-08T11:25:13.000Z</time></trkpt>
<trkpt lat="42.10212" lon="23.572295"><ele>2640.4</ele><time>2026-03-08T11:25:14.000Z</time></trkpt>
<trkpt lat="42.10212" lon="23.572294"><ele>2640.4</ele><time>2026-03-08T11:25:15.000Z</time></trkpt>
<trkpt lat="42.102119" lon="23.572293"><ele>2640.4</ele><time>2026-03-08T11:25:16.000Z</time></trkpt>
<trkpt lat="42.102119" lon="23.572293"><ele>2640.4</ele><time>2026-03-08T11:25:17.000Z</time></trkpt>
<trkpt lat="42.102119" lon="23.572293"><ele>2640.4</ele><time>2026-03-08T11:25:18.000Z</time></trkpt>
<trkpt lat="42.10212" lon="23.572293"><ele>2640.4</ele><time>2026-03-08T11:25:19.000Z</time></trkpt>
<trkpt lat="42.102121" lon="23.572293"><ele>2640.4</ele><time>2026-03-08T11:25:20.000Z</time></trkpt>
<trkpt lat="42.102122" lon="23.572292"><ele>2640.4</ele><time>2026-03-08T11:25:21.000Z</time></trkpt>
<trkpt lat="42.102123" lon="23.572291"><ele>2640.3</ele><time>2026-03-08T11:25:22.000Z</time></trkpt>
<trkpt lat="42.102123" lon="23.57229"><ele>2640.3</ele><time>2026-03-08T11:25:23.000Z</time></trkpt>
<trkpt lat="42.102124" lon="23.572289"><ele>2640.3</ele><time>2026-03-08T11:25:24.000Z</time></trkpt>
<trkpt lat="42.102123" lon="23.572288"><ele>2640.3</ele><time>2026-03-08T11:25:25.000Z</time></trkpt>
<trkpt lat="42.102123" lon="23.572289"><ele>2640.3</ele><time>2026-03-08T11:25:26.000Z</time></trkpt>
<trkpt lat="42.102122" lon="23.57229"><ele>2640.3</ele><time>2026-03-08T11:25:27.000Z</time></trkpt>
<trkpt lat="42.102122" lon="23.57229"><ele>2640.3</ele><time>2026-03-08T11:25:28.000Z</time></trkpt>
<trkpt lat="42.102121" lon="23.572291"><ele>2640.3</ele><time>2026-03-08T11:25:29.000Z</time></trkpt>
<trkpt lat="42.102121" lon="23.572291"><ele>2640.3</ele><time>2026-03-08T11:25:30.000Z</time></trkpt>
<trkpt lat="42.102121" lon="23.572291"><ele>2640.3</ele><time>2026-03-08T11:25:31.000Z</time></trkpt>
<trkpt lat="42.102121" lon="23.572291"><ele>2640.5</ele><time>2026-03-08T11:25:32.000Z</time></trkpt>
<trkpt lat="42.102121" lon="23.572291"><ele>2640.5</ele><time>2026-03-08T11:25:33.000Z</time></trkpt>
<trkpt lat="42.10212" lon="23.572294"><ele>2640.5</ele><time>2026-03-08T11:25:34.000Z</time></trkpt>
<trkpt lat="42.10212" lon="23.572299"><ele>2640.5</ele><time>2026-03-08T11:25:35.000Z</time></trkpt>
<trkpt lat="42.102119" lon="23.572306"><ele>2640.5</ele><time>2026-03-08T11:25:36.000Z</time></trkpt>
<trkpt lat="42.102118" lon="23.572314"><ele>2640.8</ele><time>2026-03-08T11:25:37.000Z</time></trkpt>
<trkpt lat="42.102116" lon="23.572322"><ele>2640.8</ele><time>2026-03-08T11:25:38.000Z</time></trkpt>
<trkpt lat="42.102116" lon="23.572327"><ele>2640.8</ele><time>2026-03-08T11:25:39.000Z</time></trkpt>
<trkpt lat="42.102115" lon="23.57233"><ele>2640.8</ele><time>2026-03-08T11:25:40.000Z</time></trkpt>
<trkpt lat="42.102114" lon="23.572331"><ele>2640.8</ele><time>2026-03-08T11:25:41.000Z</time></trkpt>
<trkpt lat="42.102114" lon="23.572331"><ele>2640.9</ele><time>2026-03-08T11:25:42.000Z</time></trkpt>
<trkpt lat="42.102114" lon="23.572331"><ele>2640.9</ele><time>2026-03-08T11:25:43.000Z</time></trkpt>
<trkpt lat="42.102114" lon="23.572331"><ele>2640.9</ele><time>2026-03-08T11:25:44.000Z</time></trkpt>
<trkpt lat="42.102115" lon="23.572331"><ele>2640.9</ele><time>2026-03-08T11:25:45.000Z</time></trkpt>
<trkpt lat="42.102115" lon="23.572331"><ele>2640.9</ele><time>2026-03-08T11:25:46.000Z</time></trkpt>
<trkpt lat="42.102115" lon="23.572331"><ele>2640.8</ele><time>2026-03-08T11:25:47.000Z</time></trkpt>
<trkpt lat="42.102115" lon="23.572331"><ele>2640.8</ele><time>2026-03-08T11:25:48.000Z</time></trkpt>
<trkpt lat="42.102115" lon="23.572331"><ele>2640.8</ele><time>2026-03-08T11:25:49.000Z</time></trkpt>
<trkpt lat="42.102115" lon="23.572331"><ele>2640.8</ele><time>2026-03-08T11:25:50.000Z</time></trkpt>
<trkpt lat="42.102115" lon="23.572332"><ele>2640.8</ele><time>2026-03-08T11:25:51.000Z</time></trkpt>
<trkpt lat="42.102115" lon="23.572332"><ele>2640.7</ele><time>2026-03-08T11:25:52.000Z</time></trkpt>
<trkpt lat="42.102115" lon="23.572333"><ele>2640.7</ele><time>2026-03-08T11:25:53.000Z</time></trkpt>
<trkpt lat="42.102115" lon="23.572333"><ele>2640.7</ele><time>2026-03-08T11:25:54.000Z</time></trkpt>
<trkpt lat="42.102115" lon="23.572334"><ele>2640.7</ele><time>2026-03-08T11:25:55.000Z</time></trkpt>
<trkpt lat="42.102115" lon="23.572334"><ele>2640.7</ele><time>2026-03-08T11:25:56.000Z</time></trkpt>
<trkpt lat="42.102115" lon="23.572334"><ele>2640.7</ele><time>2026-03-08T11:25:57.000Z</time></trkpt>
<trkpt lat="42.102115" lon="23.572334"><ele>2640.7</ele><time>2026-03-08T11:25:58.000Z</time></trkpt>
<trkpt lat="42.102115" lon="23.572334"><ele>2640.7</ele><time>2026-03-08T11:25:59.000Z</time></trkpt>
<trkpt lat="42.102115" lon="23.572334"><ele>2640.7</ele><time>2026-03-08T11:26:00.000Z</time></trkpt>
<trkpt lat="42.102115" lon="23.572334"><ele>2640.7</ele><time>2026-03-08T11:26:01.000Z</time></trkpt>
<trkpt lat="42.102115" lon="23.572334"><ele>2640.6</ele><time>2026-03-08T11:26:02.000Z</time></trkpt>
<trkpt lat="42.102115" lon="23.572334"><ele>2640.6</ele><time>2026-03-08T11:26:03.000Z</time></trkpt>
<trkpt lat="42.102115" lon="23.572334"><ele>2640.6</ele><time>2026-03-08T11:26:04.000Z</time></trkpt>
<trkpt lat="42.102115" lon="23.572334"><ele>2640.6</ele><time>2026-03-08T11:26:05.000Z</time></trkpt>
<trkpt lat="42.102116" lon="23.572334"><ele>2640.6</ele><time>2026-03-08T11:26:06.000Z</time></trkpt>
<trkpt lat="42.102116" lon="23.572334"><ele>2640.4</ele><time>2026-03-08T11:26:07.000Z</time></trkpt>
<trkpt lat="42.102116" lon="23.572333"><ele>2640.4</ele><time>2026-03-08T11:26:08.000Z</time></trkpt>
<trkpt lat="42.102116" lon="23.572333"><ele>2640.4</ele><time>2026-03-08T11:26:09.000Z</time></trkpt>
<trkpt lat="42.102116" lon="23.572333"><ele>2640.4</ele><time>2026-03-08T11:26:10.000Z</time></trkpt>
<trkpt lat="42.102116" lon="23.572333"><ele>2640.4</ele><time>2026-03-08T11:26:11.000Z</time></trkpt>
<trkpt lat="42.102116" lon="23.572333"><ele>2640.4</ele><time>2026-03-08T11:26:12.000Z</time></trkpt>
<trkpt lat="42.102116" lon="23.572333"><ele>2640.4</ele><time>2026-03-08T11:26:13.000Z</time></trkpt>
<trkpt lat="42.102116" lon="23.572333"><ele>2640.4</ele><time>2026-03-08T11:26:14.000Z</time></trkpt>
<trkpt lat="42.102116" lon="23.572333"><ele>2640.4</ele><time>2026-03-08T11:26:15.000Z</time></trkpt>
<trkpt lat="42.102116" lon="23.572333"><ele>2640.4</ele><time>2026-03-08T11:26:16.000Z</time></trkpt>
<trkpt lat="42.102116" lon="23.572333"><ele>2640.4</ele><time>2026-03-08T11:26:17.000Z</time></trkpt>
<trkpt lat="42.102116" lon="23.572333"><ele>2640.4</ele><time>2026-03-08T11:26:18.000Z</time></trkpt>
<trkpt lat="42.102115" lon="23.572332"><ele>2640.4</ele><time>2026-03-08T11:26:19.000Z</time></trkpt>
<trkpt lat="42.102115" lon="23.572328"><ele>2640.4</ele><time>2026-03-08T11:26:20.000Z</time></trkpt>
<trkpt lat="42.102115" lon="23.572322"><ele>2640.4</ele><time>2026-03-08T11:26:21.000Z</time></trkpt>
<trkpt lat="42.102116" lon="23.572317"><ele>2640.5</ele><time>2026-03-08T11:26:22.000Z</time></trkpt>
<trkpt lat="42.102117" lon="23.572313"><ele>2640.5</ele><time>2026-03-08T11:26:23.000Z</time></trkpt>
<trkpt lat="42.102118" lon="23.572309"><ele>2640.5</ele><time>2026-03-08T11:26:24.000Z</time></trkpt>
<trkpt lat="42.10212" lon="23.572308"><ele>2640.5</ele><time>2026-03-08T11:26:25.000Z</time></trkpt>
<trkpt lat="42.102119" lon="23.572311"><ele>2640.5</ele><time>2026-03-08T11:26:26.000Z</time></trkpt>
<trkpt lat="42.102117" lon="23.572316"><ele>2640.6</ele><time>2026-03-08T11:26:27.000Z</time></trkpt>
<trkpt lat="42.102115" lon="23.572322"><ele>2640.6</ele><time>2026-03-08T11:26:28.000Z</time></trkpt>
<trkpt lat="42.102112" lon="23.57233"><ele>2640.6</ele><time>2026-03-08T11:26:29.000Z</time></trkpt>
<trkpt lat="42.102109" lon="23.572338"><ele>2640.6</ele><time>2026-03-08T11:26:30.000Z</time></trkpt>
<trkpt lat="42.102107" lon="23.572344"><ele>2640.6</ele><time>2026-03-08T11:26:31.000Z</time></trkpt>
<trkpt lat="42.102107" lon="23.572348"><ele>2640.8</ele><time>2026-03-08T11:26:32.000Z</time></trkpt>
<trkpt lat="42.102107" lon="23.57235"><ele>2640.8</ele><time>2026-03-08T11:26:33.000Z</time></trkpt>
<trkpt lat="42.102107" lon="23.57235"><ele>2640.8</ele><time>2026-03-08T11:26:34.000Z</time></trkpt>
<trkpt lat="42.102108" lon="23.57235"><ele>2640.8</ele><time>2026-03-08T11:26:35.000Z</time></trkpt>
<trkpt lat="42.102108" lon="23.572349"><ele>2640.8</ele><time>2026-03-08T11:26:36.000Z</time></trkpt>
<trkpt lat="42.102107" lon="23.572349"><ele>2640.9</ele><time>2026-03-08T11:26:37.000Z</time></trkpt>
<trkpt lat="42.102107" lon="23.57235"><ele>2640.9</ele><time>2026-03-08T11:26:38.000Z</time></trkpt>
<trkpt lat="42.102107" lon="23.57235"><ele>2640.9</ele><time>2026-03-08T11:26:39.000Z</time></trkpt>
<trkpt lat="42.102107" lon="23.57235"><ele>2640.9</ele><time>2026-03-08T11:26:40.000Z</time></trkpt>
<trkpt lat="42.102107" lon="23.572351"><ele>2640.9</ele><time>2026-03-08T11:26:41.000Z</time></trkpt>
<trkpt lat="42.102108" lon="23.57235"><ele>2640.9</ele><time>2026-03-08T11:26:42.000Z</time></trkpt>
<trkpt lat="42.102108" lon="23.57235"><ele>2640.9</ele><time>2026-03-08T11:26:43.000Z</time></trkpt>
<trkpt lat="42.102108" lon="23.572349"><ele>2640.9</ele><time>2026-03-08T11:26:44.000Z</time></trkpt>
<trkpt lat="42.102108" lon="23.572349"><ele>2640.9</ele><time>2026-03-08T11:26:45.000Z</time></trkpt>
<trkpt lat="42.102108" lon="23.572349"><ele>2640.9</ele><time>2026-03-08T11:26:46.000Z</time></trkpt>
<trkpt lat="42.102108" lon="23.572349"><ele>2641.1</ele><time>2026-03-08T11:26:47.000Z</time></trkpt>
<trkpt lat="42.102108" lon="23.572349"><ele>2641.1</ele><time>2026-03-08T11:26:48.000Z</time></trkpt>
<trkpt lat="42.102108" lon="23.572349"><ele>2641.1</ele><time>2026-03-08T11:26:49.000Z</time></trkpt>
<trkpt lat="42.102108" lon="23.572348"><ele>2641.1</ele><time>2026-03-08T11:26:50.000Z</time></trkpt>
<trkpt lat="42.102108" lon="23.572348"><ele>2641.1</ele><time>2026-03-08T11:26:51.000Z</time></trkpt>
<trkpt lat="42.102108" lon="23.572347"><ele>2641.3</ele><time>2026-03-08T11:26:52.000Z</time></trkpt>
<trkpt lat="42.102109" lon="23.572347"><ele>2641.3</ele><time>2026-03-08T11:26:53.000Z</time></trkpt>
<trkpt lat="42.102108" lon="23.572346"><ele>2641.3</ele><time>2026-03-08T11:26:54.000Z</time></trkpt>
<trkpt lat="42.102109" lon="23.572347"><ele>2641.3</ele><time>2026-03-08T11:26:55.000Z</time></trkpt>
<trkpt lat="42.102108" lon="23.572348"><ele>2641.3</ele><time>2026-03-08T11:26:56.000Z</time></trkpt>
<trkpt lat="42.102107" lon="23.572349"><ele>2641.3</ele><time>2026-03-08T11:26:57.000Z</time></trkpt>
<trkpt lat="42.102107" lon="23.57235"><ele>2641.3</ele><time>2026-03-08T11:26:58.000Z</time></trkpt>
<trkpt lat="42.102107" lon="23.572351"><ele>2641.3</ele><time>2026-03-08T11:26:59.000Z</time></trkpt>
<trkpt lat="42.102106" lon="23.572352"><ele>2641.3</ele><time>2026-03-08T11:27:00.000Z</time></trkpt>
<trkpt lat="42.102106" lon="23.572352"><ele>2641.3</ele><time>2026-03-08T11:27:01.000Z</time></trkpt>
<trkpt lat="42.102106" lon="23.572351"><ele>2641.2</ele><time>2026-03-08T11:27:02.000Z</time></trkpt>
<trkpt lat="42.102107" lon="23.57235"><ele>2641.2</ele><time>2026-03-08T11:27:03.000Z</time></trkpt>
<trkpt lat="42.102107" lon="23.572349"><ele>2641.2</ele><time>2026-03-08T11:27:04.000Z</time></trkpt>
<trkpt lat="42.102108" lon="23.572349"><ele>2641.2</ele><time>2026-03-08T11:27:05.000Z</time></trkpt>
<trkpt lat="42.102109" lon="23.572348"><ele>2641.2</ele><time>2026-03-08T11:27:06.000Z</time></trkpt>
<trkpt lat="42.102109" lon="23.572348"><ele>2641.1</ele><time>2026-03-08T11:27:07.000Z</time></trkpt>
<trkpt lat="42.10211" lon="23.572348"><ele>2641.1</ele><time>2026-03-08T11:27:08.000Z</time></trkpt>
<trkpt lat="42.10211" lon="23.572349"><ele>2641.1</ele><time>2026-03-08T11:27:09.000Z</time></trkpt>
<trkpt lat="42.102111" lon="23.572349"><ele>2641.1</ele><time>2026-03-08T11:27:10.000Z</time></trkpt>
<trkpt lat="42.102111" lon="23.572349"><ele>2641.1</ele><time>2026-03-08T11:27:11.000Z</time></trkpt>
<trkpt lat="42.102112" lon="23.572349"><ele>2641.1</ele><time>2026-03-08T11:27:12.000Z</time></trkpt>
<trkpt lat="42.102113" lon="23.57235"><ele>2641.1</ele><time>2026-03-08T11:27:13.000Z</time></trkpt>
<trkpt lat="42.102113" lon="23.572351"><ele>2641.1</ele><time>2026-03-08T11:27:14.000Z</time></trkpt>
<trkpt lat="42.102113" lon="23.572352"><ele>2641.1</ele><time>2026-03-08T11:27:15.000Z</time></trkpt>
<trkpt lat="42.102113" lon="23.572354"><ele>2641.1</ele><time>2026-03-08T11:27:16.000Z</time></trkpt>
<trkpt lat="42.102112" lon="23.572356"><ele>2641.2</ele><time>2026-03-08T11:27:17.000Z</time></trkpt>
<trkpt lat="42.102111" lon="23.572357"><ele>2641.2</ele><time>2026-03-08T11:27:18.000Z</time></trkpt>
<trkpt lat="42.10211" lon="23.572359"><ele>2641.2</ele><time>2026-03-08T11:27:19.000Z</time></trkpt>
<trkpt lat="42.102109" lon="23.57236"><ele>2641.2</ele><time>2026-03-08T11:27:20.000Z</time></trkpt>
<trkpt lat="42.102109" lon="23.57236"><ele>2641.2</ele><time>2026-03-08T11:27:21.000Z</time></trkpt>
<trkpt lat="42.102109" lon="23.57236"><ele>2641.3</ele><time>2026-03-08T11:27:22.000Z</time></trkpt>
<trkpt lat="42.102109" lon="23.57236"><ele>2641.3</ele><time>2026-03-08T11:27:23.000Z</time></trkpt>
<trkpt lat="42.102109" lon="23.572359"><ele>2641.3</ele><time>2026-03-08T11:27:24.000Z</time></trkpt>
<trkpt lat="42.102108" lon="23.572359"><ele>2641.3</ele><time>2026-03-08T11:27:25.000Z</time></trkpt>
<trkpt lat="42.102108" lon="23.572357"><ele>2641.3</ele><time>2026-03-08T11:27:26.000Z</time></trkpt>
<trkpt lat="42.102107" lon="23.572356"><ele>2641.2</ele><time>2026-03-08T11:27:27.000Z</time></trkpt>
<trkpt lat="42.102107" lon="23.572355"><ele>2641.2</ele><time>2026-03-08T11:27:28.000Z</time></trkpt>
<trkpt lat="42.102106" lon="23.572354"><ele>2641.2</ele><time>2026-03-08T11:27:29.000Z</time></trkpt>
<trkpt lat="42.102106" lon="23.572353"><ele>2641.2</ele><time>2026-03-08T11:27:30.000Z</time></trkpt>
<trkpt lat="42.102106" lon="23.572353"><ele>2641.2</ele><time>2026-03-08T11:27:31.000Z</time></trkpt>
<trkpt lat="42.102106" lon="23.572352"><ele>2640.9</ele><time>2026-03-08T11:27:32.000Z</time></trkpt>
<trkpt lat="42.102106" lon="23.572351"><ele>2640.9</ele><time>2026-03-08T11:27:33.000Z</time></trkpt>
<trkpt lat="42.102106" lon="23.572351"><ele>2640.9</ele><time>2026-03-08T11:27:34.000Z</time></trkpt>
<trkpt lat="42.102106" lon="23.57235"><ele>2640.9</ele><time>2026-03-08T11:27:35.000Z</time></trkpt>
<trkpt lat="42.102106" lon="23.57235"><ele>2640.9</ele><time>2026-03-08T11:27:36.000Z</time></trkpt>
<trkpt lat="42.102106" lon="23.57235"><ele>2640.8</ele><time>2026-03-08T11:27:37.000Z</time></trkpt>
<trkpt lat="42.102106" lon="23.57235"><ele>2640.8</ele><time>2026-03-08T11:27:38.000Z</time></trkpt>
<trkpt lat="42.102106" lon="23.57235"><ele>2640.8</ele><time>2026-03-08T11:27:39.000Z</time></trkpt>
<trkpt lat="42.102106" lon="23.57235"><ele>2640.8</ele><time>2026-03-08T11:27:40.000Z</time></trkpt>
<trkpt lat="42.102106" lon="23.57235"><ele>2640.8</ele><time>2026-03-08T11:27:41.000Z</time></trkpt>
<trkpt lat="42.102107" lon="23.57235"><ele>2640.9</ele><time>2026-03-08T11:27:42.000Z</time></trkpt>
<trkpt lat="42.102107" lon="23.572351"><ele>2640.9</ele><time>2026-03-08T11:27:43.000Z</time></trkpt>
<trkpt lat="42.102107" lon="23.572351"><ele>2640.9</ele><time>2026-03-08T11:27:44.000Z</time></trkpt>
<trkpt lat="42.102107" lon="23.572351"><ele>2640.9</ele><time>2026-03-08T11:27:45.000Z</time></trkpt>
<trkpt lat="42.102108" lon="23.57235"><ele>2640.9</ele><time>2026-03-08T11:27:46.000Z</time></trkpt>
<trkpt lat="42.102108" lon="23.572349"><ele>2641.2</ele><time>2026-03-08T11:27:47.000Z</time></trkpt>
<trkpt lat="42.102108" lon="23.572348"><ele>2641.2</ele><time>2026-03-08T11:27:48.000Z</time></trkpt>
<trkpt lat="42.102109" lon="23.572345"><ele>2641.2</ele><time>2026-03-08T11:27:49.000Z</time></trkpt>
<trkpt lat="42.102109" lon="23.57234"><ele>2641.2</ele><time>2026-03-08T11:27:50.000Z</time></trkpt>
<trkpt lat="42.102109" lon="23.572335"><ele>2641.2</ele><time>2026-03-08T11:27:51.000Z</time></trkpt>
<trkpt lat="42.102109" lon="23.572329"><ele>2641.2</ele><time>2026-03-08T11:27:52.000Z</time></trkpt>
<trkpt lat="42.10211" lon="23.572322"><ele>2641.2</ele><time>2026-03-08T11:27:53.000Z</time></trkpt>
<trkpt lat="42.102112" lon="23.572317"><ele>2641.2</ele><time>2026-03-08T11:27:54.000Z</time></trkpt>
<trkpt lat="42.102115" lon="23.572313"><ele>2641.2</ele><time>2026-03-08T11:27:55.000Z</time></trkpt>
<trkpt lat="42.102117" lon="23.57231"><ele>2641.2</ele><time>2026-03-08T11:27:56.000Z</time></trkpt>
<trkpt lat="42.102119" lon="23.572309"><ele>2641.3</ele><time>2026-03-08T11:27:57.000Z</time></trkpt>
<trkpt lat="42.10212" lon="23.572308"><ele>2641.3</ele><time>2026-03-08T11:27:58.000Z</time></trkpt>
<trkpt lat="42.10212" lon="23.572308"><ele>2641.3</ele><time>2026-03-08T11:27:59.000Z</time></trkpt>
<trkpt lat="42.102119" lon="23.572308"><ele>2641.3</ele><time>2026-03-08T11:28:00.000Z</time></trkpt>
<trkpt lat="42.102118" lon="23.572309"><ele>2641.3</ele><time>2026-03-08T11:28:01.000Z</time></trkpt>
<trkpt lat="42.102118" lon="23.572308"><ele>2641.4</ele><time>2026-03-08T11:28:02.000Z</time></trkpt>
<trkpt lat="42.102118" lon="23.572308"><ele>2641.4</ele><time>2026-03-08T11:28:03.000Z</time></trkpt>
<trkpt lat="42.102118" lon="23.572308"><ele>2641.4</ele><time>2026-03-08T11:28:04.000Z</time></trkpt>
<trkpt lat="42.102119" lon="23.572307"><ele>2641.4</ele><time>2026-03-08T11:28:05.000Z</time></trkpt>
<trkpt lat="42.10212" lon="23.572306"><ele>2641.4</ele><time>2026-03-08T11:28:06.000Z</time></trkpt>
<trkpt lat="42.102121" lon="23.572305"><ele>2641.5</ele><time>2026-03-08T11:28:07.000Z</time></trkpt>
<trkpt lat="42.102122" lon="23.572303"><ele>2641.5</ele><time>2026-03-08T11:28:08.000Z</time></trkpt>
<trkpt lat="42.102123" lon="23.5723"><ele>2641.5</ele><time>2026-03-08T11:28:09.000Z</time></trkpt>
<trkpt lat="42.102124" lon="23.572299"><ele>2641.5</ele><time>2026-03-08T11:28:10.000Z</time></trkpt>
<trkpt lat="42.102124" lon="23.572297"><ele>2641.5</ele><time>2026-03-08T11:28:11.000Z</time></trkpt>
<trkpt lat="42.102124" lon="23.572296"><ele>2641.4</ele><time>2026-03-08T11:28:12.000Z</time></trkpt>
<trkpt lat="42.102125" lon="23.572295"><ele>2641.4</ele><time>2026-03-08T11:28:13.000Z</time></trkpt>
<trkpt lat="42.102125" lon="23.572295"><ele>2641.4</ele><time>2026-03-08T11:28:14.000Z</time></trkpt>
<trkpt lat="42.102125" lon="23.572295"><ele>2641.4</ele><time>2026-03-08T11:28:15.000Z</time></trkpt>
<trkpt lat="42.102125" lon="23.572294"><ele>2641.4</ele><time>2026-03-08T11:28:16.000Z</time></trkpt>
<trkpt lat="42.102123" lon="23.572294"><ele>2641.2</ele><time>2026-03-08T11:28:17.000Z</time></trkpt>
<trkpt lat="42.102122" lon="23.572295"><ele>2641.2</ele><time>2026-03-08T11:28:18.000Z</time></trkpt>
<trkpt lat="42.10212" lon="23.572296"><ele>2641.2</ele><time>2026-03-08T11:28:19.000Z</time></trkpt>
<trkpt lat="42.102119" lon="23.572296"><ele>2641.2</ele><time>2026-03-08T11:28:20.000Z</time></trkpt>
<trkpt lat="42.102117" lon="23.572298"><ele>2641.2</ele><time>2026-03-08T11:28:21.000Z</time></trkpt>
<trkpt lat="42.102117" lon="23.572301"><ele>2641.2</ele><time>2026-03-08T11:28:22.000Z</time></trkpt>
<trkpt lat="42.102116" lon="23.572304"><ele>2641.2</ele><time>2026-03-08T11:28:23.000Z</time></trkpt>
<trkpt lat="42.102116" lon="23.572307"><ele>2641.2</ele><time>2026-03-08T11:28:24.000Z</time></trkpt>
<trkpt lat="42.102116" lon="23.572312"><ele>2641.2</ele><time>2026-03-08T11:28:25.000Z</time></trkpt>
<trkpt lat="42.102115" lon="23.572316"><ele>2641.2</ele><time>2026-03-08T11:28:26.000Z</time></trkpt>
<trkpt lat="42.102115" lon="23.57232"><ele>2641.3</ele><time>2026-03-08T11:28:27.000Z</time></trkpt>
<trkpt lat="42.102115" lon="23.572324"><ele>2641.3</ele><time>2026-03-08T11:28:28.000Z</time></trkpt>
<trkpt lat="42.102115" lon="23.572327"><ele>2641.3</ele><time>2026-03-08T11:28:29.000Z</time></trkpt>
<trkpt lat="42.102116" lon="23.572328"><ele>2641.3</ele><time>2026-03-08T11:28:30.000Z</time></trkpt>
<trkpt lat="42.102116" lon="23.572328"><ele>2641.3</ele><time>2026-03-08T11:28:31.000Z</time></trkpt>
<trkpt lat="42.102117" lon="23.572328"><ele>2641.5</ele><time>2026-03-08T11:28:32.000Z</time></trkpt>
<trkpt lat="42.102117" lon="23.572328"><ele>2641.5</ele><time>2026-03-08T11:28:33.000Z</time></trkpt>
<trkpt lat="42.102117" lon="23.572327"><ele>2641.5</ele><time>2026-03-08T11:28:34.000Z</time></trkpt>
<trkpt lat="42.102116" lon="23.572326"><ele>2641.5</ele><time>2026-03-08T11:28:35.000Z</time></trkpt>
<trkpt lat="42.102116" lon="23.572324"><ele>2641.5</ele><time>2026-03-08T11:28:36.000Z</time></trkpt>
<trkpt lat="42.102115" lon="23.572323"><ele>2641.7</ele><time>2026-03-08T11:28:37.000Z</time></trkpt>
<trkpt lat="42.102115" lon="23.572322"><ele>2641.7</ele><time>2026-03-08T11:28:38.000Z</time></trkpt>
<trkpt lat="42.102114" lon="23.572321"><ele>2641.7</ele><time>2026-03-08T11:28:39.000Z</time></trkpt>
<trkpt lat="42.102113" lon="23.57232"><ele>2641.7</ele><time>2026-03-08T11:28:40.000Z</time></trkpt>
<trkpt lat="42.102113" lon="23.572319"><ele>2641.7</ele><time>2026-03-08T11:28:41.000Z</time></trkpt>
<trkpt lat="42.102112" lon="23.572319"><ele>2641.8</ele><time>2026-03-08T11:28:42.000Z</time></trkpt>
<trkpt lat="42.102112" lon="23.572319"><ele>2641.8</ele><time>2026-03-08T11:28:43.000Z</time></trkpt>
<trkpt lat="42.102112" lon="23.57232"><ele>2641.8</ele><time>2026-03-08T11:28:44.000Z</time></trkpt>
<trkpt lat="42.102113" lon="23.572322"><ele>2641.8</ele><time>2026-03-08T11:28:45.000Z</time></trkpt>
<trkpt lat="42.102113" lon="23.572323"><ele>2641.8</ele><time>2026-03-08T11:28:46.000Z</time></trkpt>
<trkpt lat="42.102114" lon="23.572324"><ele>2641.9</ele><time>2026-03-08T11:28:47.000Z</time></trkpt>
<trkpt lat="42.102114" lon="23.572325"><ele>2641.9</ele><time>2026-03-08T11:28:48.000Z</time></trkpt>
<trkpt lat="42.102114" lon="23.572325"><ele>2641.9</ele><time>2026-03-08T11:28:49.000Z</time></trkpt>
<trkpt lat="42.102114" lon="23.572325"><ele>2641.9</ele><time>2026-03-08T11:28:50.000Z</time></trkpt>
<trkpt lat="42.102113" lon="23.572325"><ele>2641.9</ele><time>2026-03-08T11:28:51.000Z</time></trkpt>
<trkpt lat="42.102113" lon="23.572326"><ele>2641.9</ele><time>2026-03-08T11:28:52.000Z</time></trkpt>
<trkpt lat="42.102113" lon="23.572326"><ele>2641.9</ele><time>2026-03-08T11:28:53.000Z</time></trkpt>
<trkpt lat="42.102112" lon="23.572326"><ele>2641.9</ele><time>2026-03-08T11:28:54.000Z</time></trkpt>
<trkpt lat="42.102112" lon="23.572326"><ele>2641.9</ele><time>2026-03-08T11:28:55.000Z</time></trkpt>
<trkpt lat="42.102112" lon="23.572326"><ele>2641.9</ele><time>2026-03-08T11:28:56.000Z</time></trkpt>
<trkpt lat="42.102112" lon="23.572326"><ele>2641.8</ele><time>2026-03-08T11:28:57.000Z</time></trkpt>
<trkpt lat="42.102112" lon="23.572326"><ele>2641.8</ele><time>2026-03-08T11:28:58.000Z</time></trkpt>
<trkpt lat="42.102112" lon="23.572326"><ele>2641.8</ele><time>2026-03-08T11:28:59.000Z</time></trkpt>
<trkpt lat="42.102112" lon="23.572326"><ele>2641.8</ele><time>2026-03-08T11:29:00.000Z</time></trkpt>
<trkpt lat="42.102112" lon="23.572326"><ele>2641.8</ele><time>2026-03-08T11:29:01.000Z</time></trkpt>
<trkpt lat="42.102112" lon="23.572326"><ele>2641.6</ele><time>2026-03-08T11:29:02.000Z</time></trkpt>
<trkpt lat="42.102111" lon="23.572327"><ele>2641.6</ele><time>2026-03-08T11:29:03.000Z</time></trkpt>
<trkpt lat="42.102111" lon="23.572327"><ele>2641.6</ele><time>2026-03-08T11:29:04.000Z</time></trkpt>
<trkpt lat="42.10211" lon="23.572327"><ele>2641.6</ele><time>2026-03-08T11:29:05.000Z</time></trkpt>
<trkpt lat="42.10211" lon="23.572327"><ele>2641.6</ele><time>2026-03-08T11:29:06.000Z</time></trkpt>
<trkpt lat="42.102109" lon="23.572327"><ele>2641.4</ele><time>2026-03-08T11:29:07.000Z</time></trkpt>
<trkpt lat="42.102109" lon="23.572327"><ele>2641.4</ele><time>2026-03-08T11:29:08.000Z</time></trkpt>
<trkpt lat="42.102109" lon="23.572327"><ele>2641.4</ele><time>2026-03-08T11:29:09.000Z</time></trkpt>
<trkpt lat="42.102109" lon="23.572327"><ele>2641.4</ele><time>2026-03-08T11:29:10.000Z</time></trkpt>
<trkpt lat="42.102109" lon="23.572327"><ele>2641.4</ele><time>2026-03-08T11:29:11.000Z</time></trkpt>
<trkpt lat="42.102109" lon="23.572328"><ele>2641.4</ele><time>2026-03-08T11:29:12.000Z</time></trkpt>
<trkpt lat="42.102109" lon="23.572328"><ele>2641.4</ele><time>2026-03-08T11:29:13.000Z</time></trkpt>
<trkpt lat="42.102109" lon="23.572328"><ele>2641.4</ele><time>2026-03-08T11:29:14.000Z</time></trkpt>
<trkpt lat="42.102109" lon="23.572328"><ele>2641.4</ele><time>2026-03-08T11:29:15.000Z</time></trkpt>
<trkpt lat="42.102109" lon="23.572328"><ele>2641.4</ele><time>2026-03-08T11:29:16.000Z</time></trkpt>
<trkpt lat="42.102109" lon="23.572328"><ele>2641.5</ele><time>2026-03-08T11:29:17.000Z</time></trkpt>
<trkpt lat="42.102109" lon="23.572328"><ele>2641.5</ele><time>2026-03-08T11:29:18.000Z</time></trkpt>
<trkpt lat="42.102109" lon="23.572328"><ele>2641.5</ele><time>2026-03-08T11:29:19.000Z</time></trkpt>
<trkpt lat="42.102109" lon="23.572328"><ele>2641.5</ele><time>2026-03-08T11:29:20.000Z</time></trkpt>
<trkpt lat="42.102109" lon="23.572328"><ele>2641.5</ele><time>2026-03-08T11:29:21.000Z</time></trkpt>
<trkpt lat="42.10211" lon="23.572329"><ele>2641.6</ele><time>2026-03-08T11:29:22.000Z</time></trkpt>
<trkpt lat="42.102109" lon="23.572331"><ele>2641.6</ele><time>2026-03-08T11:29:23.000Z</time></trkpt>
<trkpt lat="42.10211" lon="23.572334"><ele>2641.6</ele><time>2026-03-08T11:29:24.000Z</time></trkpt>
<trkpt lat="42.10211" lon="23.572336"><ele>2641.6</ele><time>2026-03-08T11:29:25.000Z</time></trkpt>
<trkpt lat="42.10211" lon="23.572338"><ele>2641.6</ele><time>2026-03-08T11:29:26.000Z</time></trkpt>
<trkpt lat="42.10211" lon="23.572338"><ele>2641.6</ele><time>2026-03-08T11:29:27.000Z</time></trkpt>
<trkpt lat="42.10211" lon="23.572338"><ele>2641.6</ele><time>2026-03-08T11:29:28.000Z</time></trkpt>
<trkpt lat="42.10211" lon="23.572337"><ele>2641.6</ele><time>2026-03-08T11:29:29.000Z</time></trkpt>
<trkpt lat="42.102111" lon="23.572337"><ele>2641.6</ele><time>2026-03-08T11:29:30.000Z</time></trkpt>
<trkpt lat="42.102111" lon="23.572337"><ele>2641.6</ele><time>2026-03-08T11:29:31.000Z</time></trkpt>
<trkpt lat="42.102111" lon="23.572337"><ele>2641.7</ele><time>2026-03-08T11:29:32.000Z</time></trkpt>
<trkpt lat="42.102111" lon="23.572337"><ele>2641.7</ele><time>2026-03-08T11:29:33.000Z</time></trkpt>
<trkpt lat="42.102111" lon="23.572337"><ele>2641.7</ele><time>2026-03-08T11:29:34.000Z</time></trkpt>
<trkpt lat="42.102111" lon="23.572337"><ele>2641.7</ele><time>2026-03-08T11:29:35.000Z</time></trkpt>
<trkpt lat="42.102111" lon="23.572337"><ele>2641.7</ele><time>2026-03-08T11:29:36.000Z</time></trkpt>
<trkpt lat="42.102111" lon="23.572337"><ele>2641.6</ele><time>2026-03-08T11:29:37.000Z</time></trkpt>
<trkpt lat="42.102111" lon="23.572337"><ele>2641.6</ele><time>2026-03-08T11:29:38.000Z</time></trkpt>
<trkpt lat="42.102111" lon="23.572337"><ele>2641.6</ele><time>2026-03-08T11:29:39.000Z</time></trkpt>
<trkpt lat="42.102111" lon="23.572337"><ele>2641.6</ele><time>2026-03-08T11:29:40.000Z</time></trkpt>
<trkpt lat="42.10211" lon="23.572338"><ele>2641.6</ele><time>2026-03-08T11:29:41.000Z</time></trkpt>
<trkpt lat="42.102109" lon="23.572338"><ele>2641.6</ele><time>2026-03-08T11:29:42.000Z</time></trkpt>
<trkpt lat="42.102109" lon="23.572339"><ele>2641.6</ele><time>2026-03-08T11:29:43.000Z</time></trkpt>
<trkpt lat="42.102108" lon="23.572339"><ele>2641.6</ele><time>2026-03-08T11:29:44.000Z</time></trkpt>
<trkpt lat="42.102107" lon="23.572339"><ele>2641.6</ele><time>2026-03-08T11:29:45.000Z</time></trkpt>
<trkpt lat="42.102107" lon="23.57234"><ele>2641.6</ele><time>2026-03-08T11:29:46.000Z</time></trkpt>
<trkpt lat="42.102107" lon="23.57234"><ele>2641.7</ele><time>2026-03-08T11:29:47.000Z</time></trkpt>
<trkpt lat="42.102107" lon="23.57234"><ele>2641.7</ele><time>2026-03-08T11:29:48.000Z</time></trkpt>
<trkpt lat="42.102107" lon="23.57234"><ele>2641.7</ele><time>2026-03-08T11:29:49.000Z</time></trkpt>
<trkpt lat="42.102107" lon="23.57234"><ele>2641.7</ele><time>2026-03-08T11:29:50.000Z</time></trkpt>
<trkpt lat="42.102107" lon="23.57234"><ele>2641.7</ele><time>2026-03-08T11:29:51.000Z</time></trkpt>
<trkpt lat="42.102107" lon="23.57234"><ele>2641.9</ele><time>2026-03-08T11:29:52.000Z</time></trkpt>
<trkpt lat="42.102107" lon="23.57234"><ele>2641.9</ele><time>2026-03-08T11:29:53.000Z</time></trkpt>
<trkpt lat="42.102107" lon="23.57234"><ele>2641.9</ele><time>2026-03-08T11:29:54.000Z</time></trkpt>
<trkpt lat="42.102106" lon="23.572338"><ele>2641.9</ele><time>2026-03-08T11:29:55.000Z</time></trkpt>
<trkpt lat="42.102105" lon="23.572335"><ele>2641.9</ele><time>2026-03-08T11:29:56.000Z</time></trkpt>
<trkpt lat="42.102106" lon="23.572332"><ele>2642</ele><time>2026-03-08T11:29:57.000Z</time></trkpt>
<trkpt lat="42.102105" lon="23.572328"><ele>2642</ele><time>2026-03-08T11:29:58.000Z</time></trkpt>
<trkpt lat="42.102105" lon="23.572325"><ele>2642</ele><time>2026-03-08T11:29:59.000Z</time></trkpt>
<trkpt lat="42.102105" lon="23.572323"><ele>2642</ele><time>2026-03-08T11:30:00.000Z</time></trkpt>
<trkpt lat="42.102106" lon="23.572323"><ele>2642</ele><time>2026-03-08T11:30:01.000Z</time></trkpt>
<trkpt lat="42.102106" lon="23.572322"><ele>2642.2</ele><time>2026-03-08T11:30:02.000Z</time></trkpt>
<trkpt lat="42.102106" lon="23.572322"><ele>2642.2</ele><time>2026-03-08T11:30:03.000Z</time></trkpt>
<trkpt lat="42.102107" lon="23.572322"><ele>2642.2</ele><time>2026-03-08T11:30:04.000Z</time></trkpt>
<trkpt lat="42.102107" lon="23.572322"><ele>2642.2</ele><time>2026-03-08T11:30:05.000Z</time></trkpt>
<trkpt lat="42.102107" lon="23.572322"><ele>2642.2</ele><time>2026-03-08T11:30:06.000Z</time></trkpt>
<trkpt lat="42.102107" lon="23.572322"><ele>2642.3</ele><time>2026-03-08T11:30:07.000Z</time></trkpt>
<trkpt lat="42.102108" lon="23.572322"><ele>2642.3</ele><time>2026-03-08T11:30:08.000Z</time></trkpt>
<trkpt lat="42.102108" lon="23.572322"><ele>2642.3</ele><time>2026-03-08T11:30:09.000Z</time></trkpt>
<trkpt lat="42.102108" lon="23.572322"><ele>2642.3</ele><time>2026-03-08T11:30:10.000Z</time></trkpt>
<trkpt lat="42.102108" lon="23.572322"><ele>2642.3</ele><time>2026-03-08T11:30:11.000Z</time></trkpt>
<trkpt lat="42.102108" lon="23.572322"><ele>2642.2</ele><time>2026-03-08T11:30:12.000Z</time></trkpt>
<trkpt lat="42.102108" lon="23.572322"><ele>2642.2</ele><time>2026-03-08T11:30:13.000Z</time></trkpt>
<trkpt lat="42.102108" lon="23.572322"><ele>2642.2</ele><time>2026-03-08T11:30:14.000Z</time></trkpt>
<trkpt lat="42.102108" lon="23.572322"><ele>2642.2</ele><time>2026-03-08T11:30:15.000Z</time></trkpt>
<trkpt lat="42.102108" lon="23.572322"><ele>2642.2</ele><time>2026-03-08T11:30:16.000Z</time></trkpt>
<trkpt lat="42.102108" lon="23.572322"><ele>2642.1</ele><time>2026-03-08T11:30:17.000Z</time></trkpt>
<trkpt lat="42.102108" lon="23.572322"><ele>2642.1</ele><time>2026-03-08T11:30:18.000Z</time></trkpt>
<trkpt lat="42.102108" lon="23.572322"><ele>2642.1</ele><time>2026-03-08T11:30:19.000Z</time></trkpt>
<trkpt lat="42.102108" lon="23.572322"><ele>2642.1</ele><time>2026-03-08T11:30:20.000Z</time></trkpt>
<trkpt lat="42.102108" lon="23.572323"><ele>2642.1</ele><time>2026-03-08T11:30:21.000Z</time></trkpt>
<trkpt lat="42.102108" lon="23.572323"><ele>2642</ele><time>2026-03-08T11:30:22.000Z</time></trkpt>
<trkpt lat="42.102108" lon="23.572324"><ele>2642</ele><time>2026-03-08T11:30:23.000Z</time></trkpt>
<trkpt lat="42.102108" lon="23.572325"><ele>2642</ele><time>2026-03-08T11:30:24.000Z</time></trkpt>
<trkpt lat="42.102107" lon="23.572326"><ele>2642</ele><time>2026-03-08T11:30:25.000Z</time></trkpt>
<trkpt lat="42.102107" lon="23.572326"><ele>2642</ele><time>2026-03-08T11:30:26.000Z</time></trkpt>
<trkpt lat="42.102107" lon="23.572326"><ele>2641.9</ele><time>2026-03-08T11:30:27.000Z</time></trkpt>
<trkpt lat="42.102107" lon="23.572326"><ele>2641.9</ele><time>2026-03-08T11:30:28.000Z</time></trkpt>
<trkpt lat="42.102107" lon="23.572326"><ele>2641.9</ele><time>2026-03-08T11:30:29.000Z</time></trkpt>
<trkpt lat="42.102107" lon="23.572326"><ele>2641.9</ele><time>2026-03-08T11:30:30.000Z</time></trkpt>
<trkpt lat="42.102107" lon="23.572326"><ele>2641.9</ele><time>2026-03-08T11:30:31.000Z</time></trkpt>
<trkpt lat="42.102107" lon="23.572326"><ele>2641.9</ele><time>2026-03-08T11:30:32.000Z</time></trkpt>
<trkpt lat="42.102107" lon="23.572326"><ele>2641.9</ele><time>2026-03-08T11:30:33.000Z</time></trkpt>
<trkpt lat="42.102107" lon="23.572326"><ele>2641.9</ele><time>2026-03-08T11:30:34.000Z</time></trkpt>
<trkpt lat="42.102107" lon="23.572326"><ele>2641.9</ele><time>2026-03-08T11:30:35.000Z</time></trkpt>
<trkpt lat="42.102107" lon="23.572326"><ele>2641.9</ele><time>2026-03-08T11:30:36.000Z</time></trkpt>
<trkpt lat="42.102107" lon="23.572326"><ele>2642</ele><time>2026-03-08T11:30:37.000Z</time></trkpt>
<trkpt lat="42.102107" lon="23.572326"><ele>2642</ele><time>2026-03-08T11:30:38.000Z</time></trkpt>
<trkpt lat="42.102107" lon="23.572326"><ele>2642</ele><time>2026-03-08T11:30:39.000Z</time></trkpt>
<trkpt lat="42.102107" lon="23.572326"><ele>2642</ele><time>2026-03-08T11:30:40.000Z</time></trkpt>
<trkpt lat="42.102107" lon="23.572326"><ele>2642</ele><time>2026-03-08T11:30:41.000Z</time></trkpt>
<trkpt lat="42.102107" lon="23.572326"><ele>2642</ele><time>2026-03-08T11:30:42.000Z</time></trkpt>
<trkpt lat="42.102107" lon="23.572326"><ele>2642</ele><time>2026-03-08T11:30:43.000Z</time></trkpt>
<trkpt lat="42.102107" lon="23.572326"><ele>2642</ele><time>2026-03-08T11:30:44.000Z</time></trkpt>
<trkpt lat="42.102107" lon="23.572326"><ele>2642</ele><time>2026-03-08T11:30:45.000Z</time></trkpt>
<trkpt lat="42.102107" lon="23.572326"><ele>2642</ele><time>2026-03-08T11:30:46.000Z</time></trkpt>
<trkpt lat="42.102107" lon="23.572326"><ele>2642</ele><time>2026-03-08T11:30:47.000Z</time></trkpt>
<trkpt lat="42.102107" lon="23.572326"><ele>2642</ele><time>2026-03-08T11:30:48.000Z</time></trkpt>
<trkpt lat="42.102107" lon="23.572326"><ele>2642</ele><time>2026-03-08T11:30:49.000Z</time></trkpt>
<trkpt lat="42.102107" lon="23.572326"><ele>2642</ele><time>2026-03-08T11:30:50.000Z</time></trkpt>
<trkpt lat="42.102107" lon="23.572326"><ele>2642</ele><time>2026-03-08T11:30:51.000Z</time></trkpt>
<trkpt lat="42.102107" lon="23.572326"><ele>2641.9</ele><time>2026-03-08T11:30:52.000Z</time></trkpt>
<trkpt lat="42.102107" lon="23.572326"><ele>2641.9</ele><time>2026-03-08T11:30:53.000Z</time></trkpt>
<trkpt lat="42.102107" lon="23.572326"><ele>2641.9</ele><time>2026-03-08T11:30:54.000Z</time></trkpt>
<trkpt lat="42.102107" lon="23.572326"><ele>2641.9</ele><time>2026-03-08T11:30:55.000Z</time></trkpt>
<trkpt lat="42.102107" lon="23.572326"><ele>2641.9</ele><time>2026-03-08T11:30:56.000Z</time></trkpt>
<trkpt lat="42.102107" lon="23.572326"><ele>2641.8</ele><time>2026-03-08T11:30:57.000Z</time></trkpt>
<trkpt lat="42.102107" lon="23.572326"><ele>2641.8</ele><time>2026-03-08T11:30:58.000Z</time></trkpt>
<trkpt lat="42.102107" lon="23.572326"><ele>2641.8</ele><time>2026-03-08T11:30:59.000Z</time></trkpt>
<trkpt lat="42.102107" lon="23.572326"><ele>2641.8</ele><time>2026-03-08T11:31:00.000Z</time></trkpt>
<trkpt lat="42.102107" lon="23.572326"><ele>2641.8</ele><time>2026-03-08T11:31:01.000Z</time></trkpt>
<trkpt lat="42.102107" lon="23.572326"><ele>2641.9</ele><time>2026-03-08T11:31:02.000Z</time></trkpt>
<trkpt lat="42.102107" lon="23.572326"><ele>2641.9</ele><time>2026-03-08T11:31:03.000Z</time></trkpt>
<trkpt lat="42.102107" lon="23.572326"><ele>2641.9</ele><time>2026-03-08T11:31:04.000Z</time></trkpt>
<trkpt lat="42.102107" lon="23.572326"><ele>2641.9</ele><time>2026-03-08T11:31:05.000Z</time></trkpt>
<trkpt lat="42.102107" lon="23.572326"><ele>2641.9</ele><time>2026-03-08T11:31:06.000Z</time></trkpt>
<trkpt lat="42.102107" lon="23.572326"><ele>2641.9</ele><time>2026-03-08T11:31:07.000Z</time></trkpt>
<trkpt lat="42.102107" lon="23.572326"><ele>2641.9</ele><time>2026-03-08T11:31:08.000Z</time></trkpt>
<trkpt lat="42.102107" lon="23.572326"><ele>2641.9</ele><time>2026-03-08T11:31:09.000Z</time></trkpt>
<trkpt lat="42.102107" lon="23.572326"><ele>2641.9</ele><time>2026-03-08T11:31:10.000Z</time></trkpt>
<trkpt lat="42.102107" lon="23.572326"><ele>2641.9</ele><time>2026-03-08T11:31:11.000Z</time></trkpt>
<trkpt lat="42.102107" lon="23.572326"><ele>2642</ele><time>2026-03-08T11:31:12.000Z</time></trkpt>
<trkpt lat="42.102107" lon="23.572326"><ele>2642</ele><time>2026-03-08T11:31:13.000Z</time></trkpt>
<trkpt lat="42.102107" lon="23.572326"><ele>2642</ele><time>2026-03-08T11:31:14.000Z</time></trkpt>
<trkpt lat="42.102107" lon="23.572326"><ele>2642</ele><time>2026-03-08T11:31:15.000Z</time></trkpt>
<trkpt lat="42.102107" lon="23.572326"><ele>2642</ele><time>2026-03-08T11:31:16.000Z</time></trkpt>
<trkpt lat="42.102107" lon="23.572326"><ele>2642.1</ele><time>2026-03-08T11:31:17.000Z</time></trkpt>
<trkpt lat="42.102107" lon="23.572326"><ele>2642.1</ele><time>2026-03-08T11:31:18.000Z</time></trkpt>
<trkpt lat="42.102107" lon="23.572326"><ele>2642.1</ele><time>2026-03-08T11:31:19.000Z</time></trkpt>
<trkpt lat="42.102107" lon="23.572326"><ele>2642.1</ele><time>2026-03-08T11:31:20.000Z</time></trkpt>
<trkpt lat="42.102107" lon="23.572326"><ele>2642.1</ele><time>2026-03-08T11:31:21.000Z</time></trkpt>
<trkpt lat="42.102107" lon="23.572326"><ele>2642.3</ele><time>2026-03-08T11:31:22.000Z</time></trkpt>
<trkpt lat="42.102107" lon="23.572326"><ele>2642.3</ele><time>2026-03-08T11:31:23.000Z</time></trkpt>
<trkpt lat="42.102107" lon="23.572326"><ele>2642.3</ele><time>2026-03-08T11:31:24.000Z</time></trkpt>
<trkpt lat="42.102107" lon="23.572326"><ele>2642.3</ele><time>2026-03-08T11:31:25.000Z</time></trkpt>
<trkpt lat="42.102107" lon="23.572326"><ele>2642.3</ele><time>2026-03-08T11:31:26.000Z</time></trkpt>
<trkpt lat="42.102107" lon="23.572326"><ele>2642.3</ele><time>2026-03-08T11:31:27.000Z</time></trkpt>
<trkpt lat="42.102107" lon="23.572326"><ele>2642.3</ele><time>2026-03-08T11:31:28.000Z</time></trkpt>
<trkpt lat="42.102107" lon="23.572326"><ele>2642.3</ele><time>2026-03-08T11:31:29.000Z</time></trkpt>
<trkpt lat="42.102108" lon="23.572326"><ele>2642.3</ele><time>2026-03-08T11:31:30.000Z</time></trkpt>
<trkpt lat="42.102108" lon="23.572327"><ele>2642.3</ele><time>2026-03-08T11:31:31.000Z</time></trkpt>
<trkpt lat="42.102108" lon="23.572327"><ele>2642.2</ele><time>2026-03-08T11:31:32.000Z</time></trkpt>
<trkpt lat="42.102108" lon="23.572328"><ele>2642.2</ele><time>2026-03-08T11:31:33.000Z</time></trkpt>
<trkpt lat="42.102108" lon="23.572327"><ele>2642.2</ele><time>2026-03-08T11:31:34.000Z</time></trkpt>
<trkpt lat="42.102108" lon="23.572323"><ele>2642.2</ele><time>2026-03-08T11:31:35.000Z</time></trkpt>
<trkpt lat="42.102107" lon="23.572318"><ele>2642.2</ele><time>2026-03-08T11:31:36.000Z</time></trkpt>
<trkpt lat="42.102107" lon="23.572311"><ele>2642</ele><time>2026-03-08T11:31:37.000Z</time></trkpt>
<trkpt lat="42.102108" lon="23.572303"><ele>2642</ele><time>2026-03-08T11:31:38.000Z</time></trkpt>
<trkpt lat="42.102109" lon="23.572294"><ele>2642</ele><time>2026-03-08T11:31:39.000Z</time></trkpt>
<trkpt lat="42.102111" lon="23.572284"><ele>2642</ele><time>2026-03-08T11:31:40.000Z</time></trkpt>
<trkpt lat="42.102112" lon="23.572277"><ele>2642</ele><time>2026-03-08T11:31:41.000Z</time></trkpt>
<trkpt lat="42.102113" lon="23.572269"><ele>2641.9</ele><time>2026-03-08T11:31:42.000Z</time></trkpt>
<trkpt lat="42.102113" lon="23.572259"><ele>2641.9</ele><time>2026-03-08T11:31:43.000Z</time></trkpt>
<trkpt lat="42.102111" lon="23.57225"><ele>2641.9</ele><time>2026-03-08T11:31:44.000Z</time></trkpt>
<trkpt lat="42.10211" lon="23.572242"><ele>2641.9</ele><time>2026-03-08T11:31:45.000Z</time></trkpt>
<trkpt lat="42.102108" lon="23.572234"><ele>2641.9</ele><time>2026-03-08T11:31:46.000Z</time></trkpt>
<trkpt lat="42.102107" lon="23.572228"><ele>2641.6</ele><time>2026-03-08T11:31:47.000Z</time></trkpt>
<trkpt lat="42.102106" lon="23.572226"><ele>2641.6</ele><time>2026-03-08T11:31:48.000Z</time></trkpt>
<trkpt lat="42.102106" lon="23.572226"><ele>2641.6</ele><time>2026-03-08T11:31:49.000Z</time></trkpt>
<trkpt lat="42.102106" lon="23.572226"><ele>2641.6</ele><time>2026-03-08T11:31:50.000Z</time></trkpt>
<trkpt lat="42.102105" lon="23.572226"><ele>2641.6</ele><time>2026-03-08T11:31:51.000Z</time></trkpt>
<trkpt lat="42.102105" lon="23.572226"><ele>2641</ele><time>2026-03-08T11:31:52.000Z</time></trkpt>
<trkpt lat="42.102105" lon="23.572226"><ele>2641</ele><time>2026-03-08T11:31:53.000Z</time></trkpt>
<trkpt lat="42.102105" lon="23.572226"><ele>2641</ele><time>2026-03-08T11:31:54.000Z</time></trkpt>
<trkpt lat="42.102105" lon="23.572226"><ele>2641</ele><time>2026-03-08T11:31:55.000Z</time></trkpt>
<trkpt lat="42.102105" lon="23.572226"><ele>2641</ele><time>2026-03-08T11:31:56.000Z</time></trkpt>
<trkpt lat="42.102105" lon="23.572226"><ele>2640.7</ele><time>2026-03-08T11:31:57.000Z</time></trkpt>
<trkpt lat="42.102105" lon="23.572226"><ele>2640.7</ele><time>2026-03-08T11:31:58.000Z</time></trkpt>
<trkpt lat="42.102105" lon="23.572226"><ele>2640.7</ele><time>2026-03-08T11:31:59.000Z</time></trkpt>
<trkpt lat="42.102107" lon="23.572226"><ele>2640.7</ele><time>2026-03-08T11:32:00.000Z</time></trkpt>
<trkpt lat="42.102109" lon="23.572227"><ele>2640.7</ele><time>2026-03-08T11:32:01.000Z</time></trkpt>
<trkpt lat="42.102109" lon="23.572228"><ele>2640.3</ele><time>2026-03-08T11:32:02.000Z</time></trkpt>
<trkpt lat="42.10211" lon="23.572228"><ele>2640.3</ele><time>2026-03-08T11:32:03.000Z</time></trkpt>
<trkpt lat="42.10211" lon="23.572228"><ele>2640.3</ele><time>2026-03-08T11:32:04.000Z</time></trkpt>
<trkpt lat="42.102109" lon="23.572227"><ele>2640.3</ele><time>2026-03-08T11:32:05.000Z</time></trkpt>
<trkpt lat="42.102108" lon="23.572228"><ele>2640.3</ele><time>2026-03-08T11:32:06.000Z</time></trkpt>
<trkpt lat="42.10211" lon="23.572231"><ele>2640.2</ele><time>2026-03-08T11:32:07.000Z</time></trkpt>
<trkpt lat="42.102113" lon="23.572236"><ele>2640.2</ele><time>2026-03-08T11:32:08.000Z</time></trkpt>
<trkpt lat="42.102117" lon="23.572244"><ele>2640.2</ele><time>2026-03-08T11:32:09.000Z</time></trkpt>
<trkpt lat="42.10212" lon="23.572255"><ele>2640.2</ele><time>2026-03-08T11:32:10.000Z</time></trkpt>
<trkpt lat="42.102122" lon="23.572265"><ele>2640.2</ele><time>2026-03-08T11:32:11.000Z</time></trkpt>
<trkpt lat="42.102124" lon="23.572274"><ele>2640.2</ele><time>2026-03-08T11:32:12.000Z</time></trkpt>
<trkpt lat="42.102125" lon="23.572283"><ele>2640.2</ele><time>2026-03-08T11:32:13.000Z</time></trkpt>
<trkpt lat="42.102125" lon="23.572289"><ele>2640.2</ele><time>2026-03-08T11:32:14.000Z</time></trkpt>
<trkpt lat="42.102125" lon="23.572294"><ele>2640.2</ele><time>2026-03-08T11:32:15.000Z</time></trkpt>
<trkpt lat="42.102125" lon="23.572299"><ele>2640.2</ele><time>2026-03-08T11:32:16.000Z</time></trkpt>
<trkpt lat="42.102124" lon="23.572304"><ele>2640.4</ele><time>2026-03-08T11:32:17.000Z</time></trkpt>
<trkpt lat="42.102124" lon="23.57231"><ele>2640.4</ele><time>2026-03-08T11:32:18.000Z</time></trkpt>
<trkpt lat="42.102122" lon="23.572315"><ele>2640.4</ele><time>2026-03-08T11:32:19.000Z</time></trkpt>
<trkpt lat="42.10212" lon="23.572322"><ele>2640.4</ele><time>2026-03-08T11:32:20.000Z</time></trkpt>
<trkpt lat="42.102116" lon="23.572329"><ele>2640.4</ele><time>2026-03-08T11:32:21.000Z</time></trkpt>
<trkpt lat="42.102113" lon="23.572334"><ele>2640.7</ele><time>2026-03-08T11:32:22.000Z</time></trkpt>
<trkpt lat="42.102108" lon="23.572338"><ele>2640.7</ele><time>2026-03-08T11:32:23.000Z</time></trkpt>
<trkpt lat="42.102104" lon="23.572342"><ele>2640.7</ele><time>2026-03-08T11:32:24.000Z</time></trkpt>
<trkpt lat="42.102102" lon="23.572343"><ele>2640.7</ele><time>2026-03-08T11:32:25.000Z</time></trkpt>
<trkpt lat="42.1021" lon="23.572343"><ele>2640.7</ele><time>2026-03-08T11:32:26.000Z</time></trkpt>
<trkpt lat="42.1021" lon="23.572343"><ele>2640.9</ele><time>2026-03-08T11:32:27.000Z</time></trkpt>
<trkpt lat="42.1021" lon="23.572343"><ele>2640.9</ele><time>2026-03-08T11:32:28.000Z</time></trkpt>
<trkpt lat="42.1021" lon="23.572343"><ele>2640.9</ele><time>2026-03-08T11:32:29.000Z</time></trkpt>
<trkpt lat="42.1021" lon="23.572343"><ele>2640.9</ele><time>2026-03-08T11:32:30.000Z</time></trkpt>
<trkpt lat="42.1021" lon="23.572343"><ele>2640.9</ele><time>2026-03-08T11:32:31.000Z</time></trkpt>
<trkpt lat="42.1021" lon="23.572343"><ele>2641.5</ele><time>2026-03-08T11:32:32.000Z</time></trkpt>
<trkpt lat="42.1021" lon="23.572343"><ele>2641.5</ele><time>2026-03-08T11:32:33.000Z</time></trkpt>
<trkpt lat="42.1021" lon="23.572343"><ele>2641.5</ele><time>2026-03-08T11:32:34.000Z</time></trkpt>
<trkpt lat="42.1021" lon="23.572343"><ele>2641.5</ele><time>2026-03-08T11:32:35.000Z</time></trkpt>
<trkpt lat="42.1021" lon="23.572344"><ele>2641.5</ele><time>2026-03-08T11:32:36.000Z</time></trkpt>
<trkpt lat="42.102098" lon="23.572345"><ele>2641.7</ele><time>2026-03-08T11:32:37.000Z</time></trkpt>
<trkpt lat="42.102096" lon="23.572346"><ele>2641.7</ele><time>2026-03-08T11:32:38.000Z</time></trkpt>
<trkpt lat="42.102094" lon="23.572348"><ele>2641.7</ele><time>2026-03-08T11:32:39.000Z</time></trkpt>
<trkpt lat="42.102093" lon="23.572349"><ele>2641.7</ele><time>2026-03-08T11:32:40.000Z</time></trkpt>
<trkpt lat="42.102092" lon="23.57235"><ele>2641.7</ele><time>2026-03-08T11:32:41.000Z</time></trkpt>
<trkpt lat="42.102092" lon="23.572351"><ele>2641.7</ele><time>2026-03-08T11:32:42.000Z</time></trkpt>
<trkpt lat="42.102092" lon="23.572351"><ele>2641.7</ele><time>2026-03-08T11:32:43.000Z</time></trkpt>
<trkpt lat="42.102093" lon="23.572352"><ele>2641.7</ele><time>2026-03-08T11:32:44.000Z</time></trkpt>
<trkpt lat="42.102094" lon="23.572351"><ele>2641.7</ele><time>2026-03-08T11:32:45.000Z</time></trkpt>
<trkpt lat="42.102095" lon="23.57235"><ele>2641.7</ele><time>2026-03-08T11:32:46.000Z</time></trkpt>
<trkpt lat="42.102096" lon="23.572347"><ele>2641.5</ele><time>2026-03-08T11:32:47.000Z</time></trkpt>
<trkpt lat="42.102097" lon="23.572344"><ele>2641.5</ele><time>2026-03-08T11:32:48.000Z</time></trkpt>
<trkpt lat="42.102098" lon="23.572342"><ele>2641.5</ele><time>2026-03-08T11:32:49.000Z</time></trkpt>
<trkpt lat="42.102098" lon="23.572341"><ele>2641.5</ele><time>2026-03-08T11:32:50.000Z</time></trkpt>
<trkpt lat="42.102098" lon="23.572341"><ele>2641.5</ele><time>2026-03-08T11:32:51.000Z</time></trkpt>
<trkpt lat="42.102097" lon="23.572344"><ele>2641.5</ele><time>2026-03-08T11:32:52.000Z</time></trkpt>
<trkpt lat="42.102097" lon="23.572346"><ele>2641.5</ele><time>2026-03-08T11:32:53.000Z</time></trkpt>
<trkpt lat="42.102096" lon="23.572348"><ele>2641.5</ele><time>2026-03-08T11:32:54.000Z</time></trkpt>
<trkpt lat="42.102095" lon="23.572349"><ele>2641.5</ele><time>2026-03-08T11:32:55.000Z</time></trkpt>
<trkpt lat="42.102095" lon="23.572349"><ele>2641.5</ele><time>2026-03-08T11:32:56.000Z</time></trkpt>
<trkpt lat="42.102096" lon="23.572349"><ele>2641.5</ele><time>2026-03-08T11:32:57.000Z</time></trkpt>
<trkpt lat="42.102097" lon="23.572349"><ele>2641.5</ele><time>2026-03-08T11:32:58.000Z</time></trkpt>
<trkpt lat="42.102098" lon="23.572349"><ele>2641.5</ele><time>2026-03-08T11:32:59.000Z</time></trkpt>
<trkpt lat="42.102098" lon="23.572349"><ele>2641.5</ele><time>2026-03-08T11:33:00.000Z</time></trkpt>
<trkpt lat="42.102099" lon="23.572349"><ele>2641.5</ele><time>2026-03-08T11:33:01.000Z</time></trkpt>
<trkpt lat="42.102099" lon="23.572349"><ele>2641.6</ele><time>2026-03-08T11:33:02.000Z</time></trkpt>
<trkpt lat="42.1021" lon="23.572349"><ele>2641.6</ele><time>2026-03-08T11:33:03.000Z</time></trkpt>
<trkpt lat="42.1021" lon="23.572349"><ele>2641.6</ele><time>2026-03-08T11:33:04.000Z</time></trkpt>
<trkpt lat="42.1021" lon="23.572349"><ele>2641.6</ele><time>2026-03-08T11:33:05.000Z</time></trkpt>
<trkpt lat="42.1021" lon="23.572349"><ele>2641.6</ele><time>2026-03-08T11:33:06.000Z</time></trkpt>
<trkpt lat="42.1021" lon="23.572349"><ele>2641.8</ele><time>2026-03-08T11:33:07.000Z</time></trkpt>
<trkpt lat="42.1021" lon="23.572348"><ele>2641.8</ele><time>2026-03-08T11:33:08.000Z</time></trkpt>
<trkpt lat="42.1021" lon="23.572348"><ele>2641.8</ele><time>2026-03-08T11:33:09.000Z</time></trkpt>
<trkpt lat="42.1021" lon="23.572348"><ele>2641.8</ele><time>2026-03-08T11:33:10.000Z</time></trkpt>
<trkpt lat="42.1021" lon="23.572347"><ele>2641.8</ele><time>2026-03-08T11:33:11.000Z</time></trkpt>
<trkpt lat="42.1021" lon="23.572344"><ele>2641.8</ele><time>2026-03-08T11:33:12.000Z</time></trkpt>
<trkpt lat="42.102099" lon="23.572339"><ele>2641.8</ele><time>2026-03-08T11:33:13.000Z</time></trkpt>
<trkpt lat="42.1021" lon="23.572332"><ele>2641.8</ele><time>2026-03-08T11:33:14.000Z</time></trkpt>
<trkpt lat="42.1021" lon="23.572323"><ele>2641.8</ele><time>2026-03-08T11:33:15.000Z</time></trkpt>
<trkpt lat="42.102101" lon="23.572315"><ele>2641.8</ele><time>2026-03-08T11:33:16.000Z</time></trkpt>
<trkpt lat="42.102102" lon="23.57231"><ele>2641.6</ele><time>2026-03-08T11:33:17.000Z</time></trkpt>
<trkpt lat="42.102104" lon="23.572306"><ele>2641.6</ele><time>2026-03-08T11:33:18.000Z</time></trkpt>
<trkpt lat="42.102104" lon="23.572305"><ele>2641.6</ele><time>2026-03-08T11:33:19.000Z</time></trkpt>
<trkpt lat="42.102105" lon="23.572305"><ele>2641.6</ele><time>2026-03-08T11:33:20.000Z</time></trkpt>
<trkpt lat="42.102105" lon="23.572306"><ele>2641.6</ele><time>2026-03-08T11:33:21.000Z</time></trkpt>
<trkpt lat="42.102105" lon="23.572306"><ele>2641.3</ele><time>2026-03-08T11:33:22.000Z</time></trkpt>
<trkpt lat="42.102105" lon="23.572307"><ele>2641.3</ele><time>2026-03-08T11:33:23.000Z</time></trkpt>
<trkpt lat="42.102105" lon="23.572306"><ele>2641.3</ele><time>2026-03-08T11:33:24.000Z</time></trkpt>
<trkpt lat="42.102105" lon="23.572305"><ele>2641.3</ele><time>2026-03-08T11:33:25.000Z</time></trkpt>
<trkpt lat="42.102104" lon="23.572303"><ele>2641.3</ele><time>2026-03-08T11:33:26.000Z</time></trkpt>
<trkpt lat="42.102104" lon="23.572301"><ele>2641.2</ele><time>2026-03-08T11:33:27.000Z</time></trkpt>
<trkpt lat="42.102104" lon="23.5723"><ele>2641.2</ele><time>2026-03-08T11:33:28.000Z</time></trkpt>
<trkpt lat="42.102103" lon="23.572299"><ele>2641.2</ele><time>2026-03-08T11:33:29.000Z</time></trkpt>
<trkpt lat="42.102104" lon="23.572298"><ele>2641.2</ele><time>2026-03-08T11:33:30.000Z</time></trkpt>
<trkpt lat="42.102104" lon="23.572298"><ele>2641.2</ele><time>2026-03-08T11:33:31.000Z</time></trkpt>
<trkpt lat="42.102104" lon="23.572297"><ele>2641.2</ele><time>2026-03-08T11:33:32.000Z</time></trkpt>
<trkpt lat="42.102104" lon="23.572297"><ele>2641.2</ele><time>2026-03-08T11:33:33.000Z</time></trkpt>
<trkpt lat="42.102104" lon="23.572297"><ele>2641.2</ele><time>2026-03-08T11:33:34.000Z</time></trkpt>
<trkpt lat="42.102106" lon="23.572296"><ele>2641.2</ele><time>2026-03-08T11:33:35.000Z</time></trkpt>
<trkpt lat="42.102107" lon="23.572296"><ele>2641.2</ele><time>2026-03-08T11:33:36.000Z</time></trkpt>
<trkpt lat="42.102108" lon="23.572295"><ele>2641.2</ele><time>2026-03-08T11:33:37.000Z</time></trkpt>
<trkpt lat="42.102109" lon="23.572295"><ele>2641.2</ele><time>2026-03-08T11:33:38.000Z</time></trkpt>
<trkpt lat="42.10211" lon="23.572294"><ele>2641.2</ele><time>2026-03-08T11:33:39.000Z</time></trkpt>
<trkpt lat="42.10211" lon="23.572294"><ele>2641.2</ele><time>2026-03-08T11:33:40.000Z</time></trkpt>
<trkpt lat="42.10211" lon="23.572294"><ele>2641.2</ele><time>2026-03-08T11:33:41.000Z</time></trkpt>
<trkpt lat="42.10211" lon="23.572294"><ele>2641.2</ele><time>2026-03-08T11:33:42.000Z</time></trkpt>
<trkpt lat="42.10211" lon="23.572294"><ele>2641.2</ele><time>2026-03-08T11:33:43.000Z</time></trkpt>
<trkpt lat="42.10211" lon="23.572293"><ele>2641.2</ele><time>2026-03-08T11:33:44.000Z</time></trkpt>
<trkpt lat="42.10211" lon="23.572293"><ele>2641.2</ele><time>2026-03-08T11:33:45.000Z</time></trkpt>
<trkpt lat="42.10211" lon="23.572292"><ele>2641.2</ele><time>2026-03-08T11:33:46.000Z</time></trkpt>
<trkpt lat="42.10211" lon="23.572291"><ele>2641.3</ele><time>2026-03-08T11:33:47.000Z</time></trkpt>
<trkpt lat="42.10211" lon="23.572291"><ele>2641.3</ele><time>2026-03-08T11:33:48.000Z</time></trkpt>
<trkpt lat="42.102111" lon="23.57229"><ele>2641.3</ele><time>2026-03-08T11:33:49.000Z</time></trkpt>
<trkpt lat="42.102111" lon="23.57229"><ele>2641.3</ele><time>2026-03-08T11:33:50.000Z</time></trkpt>
<trkpt lat="42.102111" lon="23.572291"><ele>2641.3</ele><time>2026-03-08T11:33:51.000Z</time></trkpt>
<trkpt lat="42.102111" lon="23.572291"><ele>2641.7</ele><time>2026-03-08T11:33:52.000Z</time></trkpt>
<trkpt lat="42.102111" lon="23.572292"><ele>2641.7</ele><time>2026-03-08T11:33:53.000Z</time></trkpt>
<trkpt lat="42.10211" lon="23.572294"><ele>2641.7</ele><time>2026-03-08T11:33:54.000Z</time></trkpt>
<trkpt lat="42.102111" lon="23.572295"><ele>2641.7</ele><time>2026-03-08T11:33:55.000Z</time></trkpt>
<trkpt lat="42.102111" lon="23.572296"><ele>2641.7</ele><time>2026-03-08T11:33:56.000Z</time></trkpt>
<trkpt lat="42.102112" lon="23.572296"><ele>2642</ele><time>2026-03-08T11:33:57.000Z</time></trkpt>
<trkpt lat="42.102112" lon="23.572297"><ele>2642</ele><time>2026-03-08T11:33:58.000Z</time></trkpt>
<trkpt lat="42.102113" lon="23.572297"><ele>2642</ele><time>2026-03-08T11:33:59.000Z</time></trkpt>
<trkpt lat="42.102113" lon="23.572297"><ele>2642</ele><time>2026-03-08T11:34:00.000Z</time></trkpt>
<trkpt lat="42.102113" lon="23.572297"><ele>2642</ele><time>2026-03-08T11:34:01.000Z</time></trkpt>
<trkpt lat="42.102113" lon="23.572297"><ele>2642.3</ele><time>2026-03-08T11:34:02.000Z</time></trkpt>
<trkpt lat="42.102113" lon="23.572297"><ele>2642.3</ele><time>2026-03-08T11:34:03.000Z</time></trkpt>
<trkpt lat="42.102114" lon="23.572297"><ele>2642.3</ele><time>2026-03-08T11:34:04.000Z</time></trkpt>
<trkpt lat="42.102114" lon="23.572297"><ele>2642.3</ele><time>2026-03-08T11:34:05.000Z</time></trkpt>
<trkpt lat="42.102114" lon="23.572297"><ele>2642.3</ele><time>2026-03-08T11:34:06.000Z</time></trkpt>
<trkpt lat="42.102114" lon="23.572297"><ele>2642.2</ele><time>2026-03-08T11:34:07.000Z</time></trkpt>
<trkpt lat="42.102114" lon="23.572298"><ele>2642.2</ele><time>2026-03-08T11:34:08.000Z</time></trkpt>
<trkpt lat="42.102113" lon="23.572299"><ele>2642.2</ele><time>2026-03-08T11:34:09.000Z</time></trkpt>
<trkpt lat="42.102113" lon="23.572299"><ele>2642.2</ele><time>2026-03-08T11:34:10.000Z</time></trkpt>
<trkpt lat="42.102113" lon="23.5723"><ele>2642.2</ele><time>2026-03-08T11:34:11.000Z</time></trkpt>
<trkpt lat="42.102112" lon="23.5723"><ele>2642</ele><time>2026-03-08T11:34:12.000Z</time></trkpt>
<trkpt lat="42.102113" lon="23.5723"><ele>2642</ele><time>2026-03-08T11:34:13.000Z</time></trkpt>
<trkpt lat="42.102113" lon="23.5723"><ele>2642</ele><time>2026-03-08T11:34:14.000Z</time></trkpt>
<trkpt lat="42.102113" lon="23.5723"><ele>2642</ele><time>2026-03-08T11:34:15.000Z</time></trkpt>
<trkpt lat="42.102113" lon="23.5723"><ele>2642</ele><time>2026-03-08T11:34:16.000Z</time></trkpt>
<trkpt lat="42.102114" lon="23.572299"><ele>2641.6</ele><time>2026-03-08T11:34:17.000Z</time></trkpt>
<trkpt lat="42.102114" lon="23.572299"><ele>2641.6</ele><time>2026-03-08T11:34:18.000Z</time></trkpt>
<trkpt lat="42.102113" lon="23.572299"><ele>2641.6</ele><time>2026-03-08T11:34:19.000Z</time></trkpt>
<trkpt lat="42.102113" lon="23.572298"><ele>2641.6</ele><time>2026-03-08T11:34:20.000Z</time></trkpt>
<trkpt lat="42.102112" lon="23.572298"><ele>2641.6</ele><time>2026-03-08T11:34:21.000Z</time></trkpt>
<trkpt lat="42.102112" lon="23.572297"><ele>2641.6</ele><time>2026-03-08T11:34:22.000Z</time></trkpt>
<trkpt lat="42.102111" lon="23.572298"><ele>2641.6</ele><time>2026-03-08T11:34:23.000Z</time></trkpt>
<trkpt lat="42.10211" lon="23.572301"><ele>2641.6</ele><time>2026-03-08T11:34:24.000Z</time></trkpt>
<trkpt lat="42.102109" lon="23.572305"><ele>2641.6</ele><time>2026-03-08T11:34:25.000Z</time></trkpt>
<trkpt lat="42.102107" lon="23.572311"><ele>2641.6</ele><time>2026-03-08T11:34:26.000Z</time></trkpt>
<trkpt lat="42.102105" lon="23.572317"><ele>2641.7</ele><time>2026-03-08T11:34:27.000Z</time></trkpt>
<trkpt lat="42.102104" lon="23.572323"><ele>2641.7</ele><time>2026-03-08T11:34:28.000Z</time></trkpt>
<trkpt lat="42.102103" lon="23.572327"><ele>2641.7</ele><time>2026-03-08T11:34:29.000Z</time></trkpt>
<trkpt lat="42.102103" lon="23.57233"><ele>2641.7</ele><time>2026-03-08T11:34:30.000Z</time></trkpt>
<trkpt lat="42.102103" lon="23.572331"><ele>2641.7</ele><time>2026-03-08T11:34:31.000Z</time></trkpt>
<trkpt lat="42.102103" lon="23.572332"><ele>2641.9</ele><time>2026-03-08T11:34:32.000Z</time></trkpt>
<trkpt lat="42.102103" lon="23.572332"><ele>2641.9</ele><time>2026-03-08T11:34:33.000Z</time></trkpt>
<trkpt lat="42.102102" lon="23.572332"><ele>2641.9</ele><time>2026-03-08T11:34:34.000Z</time></trkpt>
<trkpt lat="42.1021" lon="23.572332"><ele>2641.9</ele><time>2026-03-08T11:34:35.000Z</time></trkpt>
<trkpt lat="42.102099" lon="23.572331"><ele>2641.9</ele><time>2026-03-08T11:34:36.000Z</time></trkpt>
<trkpt lat="42.102097" lon="23.572331"><ele>2642</ele><time>2026-03-08T11:34:37.000Z</time></trkpt>
<trkpt lat="42.102097" lon="23.572332"><ele>2642</ele><time>2026-03-08T11:34:38.000Z</time></trkpt>
<trkpt lat="42.102098" lon="23.572333"><ele>2642</ele><time>2026-03-08T11:34:39.000Z</time></trkpt>
<trkpt lat="42.102098" lon="23.572334"><ele>2642</ele><time>2026-03-08T11:34:40.000Z</time></trkpt>
<trkpt lat="42.102099" lon="23.572336"><ele>2642</ele><time>2026-03-08T11:34:41.000Z</time></trkpt>
<trkpt lat="42.1021" lon="23.572336"><ele>2642.1</ele><time>2026-03-08T11:34:42.000Z</time></trkpt>
<trkpt lat="42.1021" lon="23.572335"><ele>2642.1</ele><time>2026-03-08T11:34:43.000Z</time></trkpt>
<trkpt lat="42.1021" lon="23.572333"><ele>2642.1</ele><time>2026-03-08T11:34:44.000Z</time></trkpt>
<trkpt lat="42.102101" lon="23.572332"><ele>2642.1</ele><time>2026-03-08T11:34:45.000Z</time></trkpt>
<trkpt lat="42.102101" lon="23.57233"><ele>2642.1</ele><time>2026-03-08T11:34:46.000Z</time></trkpt>
<trkpt lat="42.102102" lon="23.57233"><ele>2642.3</ele><time>2026-03-08T11:34:47.000Z</time></trkpt>
<trkpt lat="42.102102" lon="23.572329"><ele>2642.3</ele><time>2026-03-08T11:34:48.000Z</time></trkpt>
<trkpt lat="42.102102" lon="23.572329"><ele>2642.3</ele><time>2026-03-08T11:34:49.000Z</time></trkpt>
<trkpt lat="42.102102" lon="23.572329"><ele>2642.3</ele><time>2026-03-08T11:34:50.000Z</time></trkpt>
<trkpt lat="42.102103" lon="23.572329"><ele>2642.3</ele><time>2026-03-08T11:34:51.000Z</time></trkpt>
<trkpt lat="42.102103" lon="23.572329"><ele>2642.3</ele><time>2026-03-08T11:34:52.000Z</time></trkpt>
<trkpt lat="42.102103" lon="23.572329"><ele>2642.3</ele><time>2026-03-08T11:34:53.000Z</time></trkpt>
<trkpt lat="42.102104" lon="23.57233"><ele>2642.3</ele><time>2026-03-08T11:34:54.000Z</time></trkpt>
<trkpt lat="42.102105" lon="23.572331"><ele>2642.3</ele><time>2026-03-08T11:34:55.000Z</time></trkpt>
<trkpt lat="42.102107" lon="23.572331"><ele>2642.3</ele><time>2026-03-08T11:34:56.000Z</time></trkpt>
<trkpt lat="42.102108" lon="23.572332"><ele>2642.2</ele><time>2026-03-08T11:34:57.000Z</time></trkpt>
<trkpt lat="42.102108" lon="23.572332"><ele>2642.2</ele><time>2026-03-08T11:34:58.000Z</time></trkpt>
<trkpt lat="42.102108" lon="23.572332"><ele>2642.2</ele><time>2026-03-08T11:34:59.000Z</time></trkpt>
<trkpt lat="42.102108" lon="23.572332"><ele>2642.2</ele><time>2026-03-08T11:35:00.000Z</time></trkpt>
<trkpt lat="42.102108" lon="23.572332"><ele>2642.2</ele><time>2026-03-08T11:35:01.000Z</time></trkpt>
<trkpt lat="42.102108" lon="23.572332"><ele>2642.1</ele><time>2026-03-08T11:35:02.000Z</time></trkpt>
<trkpt lat="42.102108" lon="23.572332"><ele>2642.1</ele><time>2026-03-08T11:35:03.000Z</time></trkpt>
<trkpt lat="42.102109" lon="23.572332"><ele>2642.1</ele><time>2026-03-08T11:35:04.000Z</time></trkpt>
<trkpt lat="42.102109" lon="23.572331"><ele>2642.1</ele><time>2026-03-08T11:35:05.000Z</time></trkpt>
<trkpt lat="42.10211" lon="23.57233"><ele>2642.1</ele><time>2026-03-08T11:35:06.000Z</time></trkpt>
<trkpt lat="42.102111" lon="23.572329"><ele>2641.9</ele><time>2026-03-08T11:35:07.000Z</time></trkpt>
<trkpt lat="42.102112" lon="23.572327"><ele>2641.9</ele><time>2026-03-08T11:35:08.000Z</time></trkpt>
<trkpt lat="42.102112" lon="23.572326"><ele>2641.9</ele><time>2026-03-08T11:35:09.000Z</time></trkpt>
<trkpt lat="42.102112" lon="23.572326"><ele>2641.9</ele><time>2026-03-08T11:35:10.000Z</time></trkpt>
<trkpt lat="42.102112" lon="23.572326"><ele>2641.9</ele><time>2026-03-08T11:35:11.000Z</time></trkpt>
<trkpt lat="42.102112" lon="23.572326"><ele>2641.8</ele><time>2026-03-08T11:35:12.000Z</time></trkpt>
<trkpt lat="42.102112" lon="23.572326"><ele>2641.8</ele><time>2026-03-08T11:35:13.000Z</time></trkpt>
<trkpt lat="42.102112" lon="23.572326"><ele>2641.8</ele><time>2026-03-08T11:35:14.000Z</time></trkpt>
<trkpt lat="42.102112" lon="23.572326"><ele>2641.8</ele><time>2026-03-08T11:35:15.000Z</time></trkpt>
<trkpt lat="42.102112" lon="23.572326"><ele>2641.8</ele><time>2026-03-08T11:35:16.000Z</time></trkpt>
<trkpt lat="42.102112" lon="23.572326"><ele>2641.7</ele><time>2026-03-08T11:35:17.000Z</time></trkpt>
<trkpt lat="42.102112" lon="23.572326"><ele>2641.7</ele><time>2026-03-08T11:35:18.000Z</time></trkpt>
<trkpt lat="42.102111" lon="23.572327"><ele>2641.7</ele><time>2026-03-08T11:35:19.000Z</time></trkpt>
<trkpt lat="42.10211" lon="23.572328"><ele>2641.7</ele><time>2026-03-08T11:35:20.000Z</time></trkpt>
<trkpt lat="42.102108" lon="23.572328"><ele>2641.7</ele><time>2026-03-08T11:35:21.000Z</time></trkpt>
<trkpt lat="42.102107" lon="23.572329"><ele>2641.8</ele><time>2026-03-08T11:35:22.000Z</time></trkpt>
<trkpt lat="42.102107" lon="23.57233"><ele>2641.8</ele><time>2026-03-08T11:35:23.000Z</time></trkpt>
<trkpt lat="42.102107" lon="23.572331"><ele>2641.8</ele><time>2026-03-08T11:35:24.000Z</time></trkpt>
<trkpt lat="42.102106" lon="23.572333"><ele>2641.8</ele><time>2026-03-08T11:35:25.000Z</time></trkpt>
<trkpt lat="42.102107" lon="23.572334"><ele>2641.8</ele><time>2026-03-08T11:35:26.000Z</time></trkpt>
<trkpt lat="42.102107" lon="23.572335"><ele>2641.9</ele><time>2026-03-08T11:35:27.000Z</time></trkpt>
<trkpt lat="42.102107" lon="23.572336"><ele>2641.9</ele><time>2026-03-08T11:35:28.000Z</time></trkpt>
<trkpt lat="42.102108" lon="23.572337"><ele>2641.9</ele><time>2026-03-08T11:35:29.000Z</time></trkpt>
<trkpt lat="42.10211" lon="23.572337"><ele>2641.9</ele><time>2026-03-08T11:35:30.000Z</time></trkpt>
<trkpt lat="42.10211" lon="23.572337"><ele>2641.9</ele><time>2026-03-08T11:35:31.000Z</time></trkpt>
<trkpt lat="42.102111" lon="23.572336"><ele>2641.9</ele><time>2026-03-08T11:35:32.000Z</time></trkpt>
<trkpt lat="42.102112" lon="23.572336"><ele>2641.9</ele><time>2026-03-08T11:35:33.000Z</time></trkpt>
<trkpt lat="42.102112" lon="23.572335"><ele>2641.9</ele><time>2026-03-08T11:35:34.000Z</time></trkpt>
<trkpt lat="42.102112" lon="23.572334"><ele>2641.9</ele><time>2026-03-08T11:35:35.000Z</time></trkpt>
<trkpt lat="42.102113" lon="23.572333"><ele>2641.9</ele><time>2026-03-08T11:35:36.000Z</time></trkpt>
<trkpt lat="42.102113" lon="23.572333"><ele>2641.8</ele><time>2026-03-08T11:35:37.000Z</time></trkpt>
<trkpt lat="42.102113" lon="23.572332"><ele>2641.8</ele><time>2026-03-08T11:35:38.000Z</time></trkpt>
<trkpt lat="42.102113" lon="23.572332"><ele>2641.8</ele><time>2026-03-08T11:35:39.000Z</time></trkpt>
<trkpt lat="42.102113" lon="23.572333"><ele>2641.8</ele><time>2026-03-08T11:35:40.000Z</time></trkpt>
<trkpt lat="42.102113" lon="23.572333"><ele>2641.8</ele><time>2026-03-08T11:35:41.000Z</time></trkpt>
<trkpt lat="42.102113" lon="23.572333"><ele>2641.8</ele><time>2026-03-08T11:35:42.000Z</time></trkpt>
<trkpt lat="42.102113" lon="23.572333"><ele>2641.8</ele><time>2026-03-08T11:35:43.000Z</time></trkpt>
<trkpt lat="42.102113" lon="23.572333"><ele>2641.8</ele><time>2026-03-08T11:35:44.000Z</time></trkpt>
<trkpt lat="42.102113" lon="23.572332"><ele>2641.8</ele><time>2026-03-08T11:35:45.000Z</time></trkpt>
<trkpt lat="42.102113" lon="23.572332"><ele>2641.8</ele><time>2026-03-08T11:35:46.000Z</time></trkpt>
<trkpt lat="42.102112" lon="23.572332"><ele>2641.9</ele><time>2026-03-08T11:35:47.000Z</time></trkpt>
<trkpt lat="42.102112" lon="23.572331"><ele>2641.9</ele><time>2026-03-08T11:35:48.000Z</time></trkpt>
<trkpt lat="42.102112" lon="23.572331"><ele>2641.9</ele><time>2026-03-08T11:35:49.000Z</time></trkpt>
<trkpt lat="42.102112" lon="23.572331"><ele>2641.9</ele><time>2026-03-08T11:35:50.000Z</time></trkpt>
<trkpt lat="42.102112" lon="23.572331"><ele>2641.9</ele><time>2026-03-08T11:35:51.000Z</time></trkpt>
<trkpt lat="42.102112" lon="23.572331"><ele>2642</ele><time>2026-03-08T11:35:52.000Z</time></trkpt>
<trkpt lat="42.102112" lon="23.572331"><ele>2642</ele><time>2026-03-08T11:35:53.000Z</time></trkpt>
<trkpt lat="42.102112" lon="23.572331"><ele>2642</ele><time>2026-03-08T11:35:54.000Z</time></trkpt>
<trkpt lat="42.102112" lon="23.572331"><ele>2642</ele><time>2026-03-08T11:35:55.000Z</time></trkpt>
<trkpt lat="42.102112" lon="23.572331"><ele>2642</ele><time>2026-03-08T11:35:56.000Z</time></trkpt>
<trkpt lat="42.102112" lon="23.572331"><ele>2641.9</ele><time>2026-03-08T11:35:57.000Z</time></trkpt>
<trkpt lat="42.102112" lon="23.572331"><ele>2641.9</ele><time>2026-03-08T11:35:58.000Z</time></trkpt>
<trkpt lat="42.102112" lon="23.572331"><ele>2641.9</ele><time>2026-03-08T11:35:59.000Z</time></trkpt>
<trkpt lat="42.102112" lon="23.572331"><ele>2641.9</ele><time>2026-03-08T11:36:00.000Z</time></trkpt>
<trkpt lat="42.102112" lon="23.572331"><ele>2641.9</ele><time>2026-03-08T11:36:01.000Z</time></trkpt>
<trkpt lat="42.102112" lon="23.572331"><ele>2641.7</ele><time>2026-03-08T11:36:02.000Z</time></trkpt>
<trkpt lat="42.102112" lon="23.572331"><ele>2641.7</ele><time>2026-03-08T11:36:03.000Z</time></trkpt>
<trkpt lat="42.102112" lon="23.572331"><ele>2641.7</ele><time>2026-03-08T11:36:04.000Z</time></trkpt>
<trkpt lat="42.102112" lon="23.572331"><ele>2641.7</ele><time>2026-03-08T11:36:05.000Z</time></trkpt>
<trkpt lat="42.102112" lon="23.572331"><ele>2641.7</ele><time>2026-03-08T11:36:06.000Z</time></trkpt>
<trkpt lat="42.102112" lon="23.572331"><ele>2641.5</ele><time>2026-03-08T11:36:07.000Z</time></trkpt>
<trkpt lat="42.102112" lon="23.572331"><ele>2641.5</ele><time>2026-03-08T11:36:08.000Z</time></trkpt>
<trkpt lat="42.102112" lon="23.572331"><ele>2641.5</ele><time>2026-03-08T11:36:09.000Z</time></trkpt>
<trkpt lat="42.102112" lon="23.572331"><ele>2641.5</ele><time>2026-03-08T11:36:10.000Z</time></trkpt>
<trkpt lat="42.102112" lon="23.572331"><ele>2641.5</ele><time>2026-03-08T11:36:11.000Z</time></trkpt>
<trkpt lat="42.102112" lon="23.572331"><ele>2641.5</ele><time>2026-03-08T11:36:12.000Z</time></trkpt>
<trkpt lat="42.102112" lon="23.572331"><ele>2641.5</ele><time>2026-03-08T11:36:13.000Z</time></trkpt>
<trkpt lat="42.102113" lon="23.572331"><ele>2641.5</ele><time>2026-03-08T11:36:14.000Z</time></trkpt>
<trkpt lat="42.102113" lon="23.572331"><ele>2641.5</ele><time>2026-03-08T11:36:15.000Z</time></trkpt>
<trkpt lat="42.102113" lon="23.572331"><ele>2641.5</ele><time>2026-03-08T11:36:16.000Z</time></trkpt>
<trkpt lat="42.102113" lon="23.572331"><ele>2641.5</ele><time>2026-03-08T11:36:17.000Z</time></trkpt>
<trkpt lat="42.102113" lon="23.572332"><ele>2641.5</ele><time>2026-03-08T11:36:18.000Z</time></trkpt>
<trkpt lat="42.102113" lon="23.572332"><ele>2641.5</ele><time>2026-03-08T11:36:19.000Z</time></trkpt>
<trkpt lat="42.102112" lon="23.572332"><ele>2641.5</ele><time>2026-03-08T11:36:20.000Z</time></trkpt>
<trkpt lat="42.102112" lon="23.572333"><ele>2641.5</ele><time>2026-03-08T11:36:21.000Z</time></trkpt>
<trkpt lat="42.102111" lon="23.572333"><ele>2641.7</ele><time>2026-03-08T11:36:22.000Z</time></trkpt>
<trkpt lat="42.102111" lon="23.572333"><ele>2641.7</ele><time>2026-03-08T11:36:23.000Z</time></trkpt>
<trkpt lat="42.102111" lon="23.572333"><ele>2641.7</ele><time>2026-03-08T11:36:24.000Z</time></trkpt>
<trkpt lat="42.102111" lon="23.572333"><ele>2641.7</ele><time>2026-03-08T11:36:25.000Z</time></trkpt>
<trkpt lat="42.102111" lon="23.572333"><ele>2641.7</ele><time>2026-03-08T11:36:26.000Z</time></trkpt>
<trkpt lat="42.102111" lon="23.572333"><ele>2641.8</ele><time>2026-03-08T11:36:27.000Z</time></trkpt>
<trkpt lat="42.102111" lon="23.572333"><ele>2641.8</ele><time>2026-03-08T11:36:28.000Z</time></trkpt>
<trkpt lat="42.102111" lon="23.572333"><ele>2641.8</ele><time>2026-03-08T11:36:29.000Z</time></trkpt>
<trkpt lat="42.102111" lon="23.572333"><ele>2641.8</ele><time>2026-03-08T11:36:30.000Z</time></trkpt>
<trkpt lat="42.102111" lon="23.572333"><ele>2641.8</ele><time>2026-03-08T11:36:31.000Z</time></trkpt>
<trkpt lat="42.102111" lon="23.572333"><ele>2641.9</ele><time>2026-03-08T11:36:32.000Z</time></trkpt>
<trkpt lat="42.102111" lon="23.572333"><ele>2641.9</ele><time>2026-03-08T11:36:33.000Z</time></trkpt>
<trkpt lat="42.102111" lon="23.572333"><ele>2641.9</ele><time>2026-03-08T11:36:34.000Z</time></trkpt>
<trkpt lat="42.102111" lon="23.572334"><ele>2641.9</ele><time>2026-03-08T11:36:35.000Z</time></trkpt>
<trkpt lat="42.10211" lon="23.572335"><ele>2641.9</ele><time>2026-03-08T11:36:36.000Z</time></trkpt>
<trkpt lat="42.10211" lon="23.572335"><ele>2641.7</ele><time>2026-03-08T11:36:37.000Z</time></trkpt>
<trkpt lat="42.102109" lon="23.572336"><ele>2641.7</ele><time>2026-03-08T11:36:38.000Z</time></trkpt>
<trkpt lat="42.102109" lon="23.572337"><ele>2641.7</ele><time>2026-03-08T11:36:39.000Z</time></trkpt>
<trkpt lat="42.102109" lon="23.572337"><ele>2641.7</ele><time>2026-03-08T11:36:40.000Z</time></trkpt>
<trkpt lat="42.102109" lon="23.572337"><ele>2641.7</ele><time>2026-03-08T11:36:41.000Z</time></trkpt>
<trkpt lat="42.102109" lon="23.572337"><ele>2641.6</ele><time>2026-03-08T11:36:42.000Z</time></trkpt>
<trkpt lat="42.102109" lon="23.572337"><ele>2641.6</ele><time>2026-03-08T11:36:43.000Z</time></trkpt>
<trkpt lat="42.102109" lon="23.572337"><ele>2641.6</ele><time>2026-03-08T11:36:44.000Z</time></trkpt>
<trkpt lat="42.102109" lon="23.572337"><ele>2641.6</ele><time>2026-03-08T11:36:45.000Z</time></trkpt>
<trkpt lat="42.102109" lon="23.572337"><ele>2641.6</ele><time>2026-03-08T11:36:46.000Z</time></trkpt>
<trkpt lat="42.102109" lon="23.572337"><ele>2641.6</ele><time>2026-03-08T11:36:47.000Z</time></trkpt>
<trkpt lat="42.102109" lon="23.572337"><ele>2641.6</ele><time>2026-03-08T11:36:48.000Z</time></trkpt>
<trkpt lat="42.102109" lon="23.572337"><ele>2641.6</ele><time>2026-03-08T11:36:49.000Z</time></trkpt>
<trkpt lat="42.102109" lon="23.572337"><ele>2641.6</ele><time>2026-03-08T11:36:50.000Z</time></trkpt>
<trkpt lat="42.102109" lon="23.572337"><ele>2641.6</ele><time>2026-03-08T11:36:51.000Z</time></trkpt>
<trkpt lat="42.102109" lon="23.572337"><ele>2641.7</ele><time>2026-03-08T11:36:52.000Z</time></trkpt>
<trkpt lat="42.102109" lon="23.572337"><ele>2641.7</ele><time>2026-03-08T11:36:53.000Z</time></trkpt>
<trkpt lat="42.102109" lon="23.572337"><ele>2641.7</ele><time>2026-03-08T11:36:54.000Z</time></trkpt>
<trkpt lat="42.102109" lon="23.572337"><ele>2641.7</ele><time>2026-03-08T11:36:55.000Z</time></trkpt>
<trkpt lat="42.102109" lon="23.572337"><ele>2641.7</ele><time>2026-03-08T11:36:56.000Z</time></trkpt>
<trkpt lat="42.102109" lon="23.572337"><ele>2641.7</ele><time>2026-03-08T11:36:57.000Z</time></trkpt>
<trkpt lat="42.102109" lon="23.572337"><ele>2641.7</ele><time>2026-03-08T11:36:58.000Z</time></trkpt>
<trkpt lat="42.102109" lon="23.572337"><ele>2641.7</ele><time>2026-03-08T11:36:59.000Z</time></trkpt>
<trkpt lat="42.102109" lon="23.572337"><ele>2641.7</ele><time>2026-03-08T11:37:00.000Z</time></trkpt>
<trkpt lat="42.102109" lon="23.572337"><ele>2641.7</ele><time>2026-03-08T11:37:01.000Z</time></trkpt>
<trkpt lat="42.102109" lon="23.572337"><ele>2641.8</ele><time>2026-03-08T11:37:02.000Z</time></trkpt>
<trkpt lat="42.102109" lon="23.572337"><ele>2641.8</ele><time>2026-03-08T11:37:03.000Z</time></trkpt>
<trkpt lat="42.102109" lon="23.572337"><ele>2641.8</ele><time>2026-03-08T11:37:04.000Z</time></trkpt>
<trkpt lat="42.102109" lon="23.572337"><ele>2641.8</ele><time>2026-03-08T11:37:05.000Z</time></trkpt>
<trkpt lat="42.102109" lon="23.572337"><ele>2641.8</ele><time>2026-03-08T11:37:06.000Z</time></trkpt>
<trkpt lat="42.102109" lon="23.572337"><ele>2641.8</ele><time>2026-03-08T11:37:07.000Z</time></trkpt>
<trkpt lat="42.102109" lon="23.572338"><ele>2641.8</ele><time>2026-03-08T11:37:08.000Z</time></trkpt>
<trkpt lat="42.102109" lon="23.572338"><ele>2641.8</ele><time>2026-03-08T11:37:09.000Z</time></trkpt>
<trkpt lat="42.102109" lon="23.572339"><ele>2641.8</ele><time>2026-03-08T11:37:10.000Z</time></trkpt>
<trkpt lat="42.102108" lon="23.572339"><ele>2641.8</ele><time>2026-03-08T11:37:11.000Z</time></trkpt>
<trkpt lat="42.102107" lon="23.57234"><ele>2641.7</ele><time>2026-03-08T11:37:12.000Z</time></trkpt>
<trkpt lat="42.102106" lon="23.572342"><ele>2641.7</ele><time>2026-03-08T11:37:13.000Z</time></trkpt>
<trkpt lat="42.102104" lon="23.572344"><ele>2641.7</ele><time>2026-03-08T11:37:14.000Z</time></trkpt>
<trkpt lat="42.102103" lon="23.572346"><ele>2641.7</ele><time>2026-03-08T11:37:15.000Z</time></trkpt>
<trkpt lat="42.102102" lon="23.572349"><ele>2641.7</ele><time>2026-03-08T11:37:16.000Z</time></trkpt>
<trkpt lat="42.102103" lon="23.57235"><ele>2641.5</ele><time>2026-03-08T11:37:17.000Z</time></trkpt>
<trkpt lat="42.102103" lon="23.572351"><ele>2641.5</ele><time>2026-03-08T11:37:18.000Z</time></trkpt>
<trkpt lat="42.102104" lon="23.572351"><ele>2641.5</ele><time>2026-03-08T11:37:19.000Z</time></trkpt>
<trkpt lat="42.102104" lon="23.572351"><ele>2641.5</ele><time>2026-03-08T11:37:20.000Z</time></trkpt>
<trkpt lat="42.102105" lon="23.572351"><ele>2641.5</ele><time>2026-03-08T11:37:21.000Z</time></trkpt>
<trkpt lat="42.102105" lon="23.572351"><ele>2641.2</ele><time>2026-03-08T11:37:22.000Z</time></trkpt>
<trkpt lat="42.102106" lon="23.57235"><ele>2641.2</ele><time>2026-03-08T11:37:23.000Z</time></trkpt>
<trkpt lat="42.102106" lon="23.572351"><ele>2641.2</ele><time>2026-03-08T11:37:24.000Z</time></trkpt>
<trkpt lat="42.102107" lon="23.572351"><ele>2641.2</ele><time>2026-03-08T11:37:25.000Z</time></trkpt>
<trkpt lat="42.102107" lon="23.572352"><ele>2641.2</ele><time>2026-03-08T11:37:26.000Z</time></trkpt>
<trkpt lat="42.102107" lon="23.572352"><ele>2641</ele><time>2026-03-08T11:37:27.000Z</time></trkpt>
<trkpt lat="42.102107" lon="23.572353"><ele>2641</ele><time>2026-03-08T11:37:28.000Z</time></trkpt>
<trkpt lat="42.102106" lon="23.572353"><ele>2641</ele><time>2026-03-08T11:37:29.000Z</time></trkpt>
<trkpt lat="42.102106" lon="23.572353"><ele>2641</ele><time>2026-03-08T11:37:30.000Z</time></trkpt>
<trkpt lat="42.102106" lon="23.572353"><ele>2641</ele><time>2026-03-08T11:37:31.000Z</time></trkpt>
<trkpt lat="42.102106" lon="23.572354"><ele>2640.9</ele><time>2026-03-08T11:37:32.000Z</time></trkpt>
<trkpt lat="42.102106" lon="23.572354"><ele>2640.9</ele><time>2026-03-08T11:37:33.000Z</time></trkpt>
<trkpt lat="42.102106" lon="23.572354"><ele>2640.9</ele><time>2026-03-08T11:37:34.000Z</time></trkpt>
<trkpt lat="42.102107" lon="23.572354"><ele>2640.9</ele><time>2026-03-08T11:37:35.000Z</time></trkpt>
<trkpt lat="42.102107" lon="23.572354"><ele>2640.9</ele><time>2026-03-08T11:37:36.000Z</time></trkpt>
<trkpt lat="42.102107" lon="23.572354"><ele>2641</ele><time>2026-03-08T11:37:37.000Z</time></trkpt>
<trkpt lat="42.102106" lon="23.572355"><ele>2641</ele><time>2026-03-08T11:37:38.000Z</time></trkpt>
<trkpt lat="42.102105" lon="23.572355"><ele>2641</ele><time>2026-03-08T11:37:39.000Z</time></trkpt>
<trkpt lat="42.102104" lon="23.572356"><ele>2641</ele><time>2026-03-08T11:37:40.000Z</time></trkpt>
<trkpt lat="42.102104" lon="23.572357"><ele>2641</ele><time>2026-03-08T11:37:41.000Z</time></trkpt>
<trkpt lat="42.102103" lon="23.572357"><ele>2641</ele><time>2026-03-08T11:37:42.000Z</time></trkpt>
<trkpt lat="42.102103" lon="23.572357"><ele>2641</ele><time>2026-03-08T11:37:43.000Z</time></trkpt>
<trkpt lat="42.102103" lon="23.572357"><ele>2641</ele><time>2026-03-08T11:37:44.000Z</time></trkpt>
<trkpt lat="42.102103" lon="23.572357"><ele>2641</ele><time>2026-03-08T11:37:45.000Z</time></trkpt>
<trkpt lat="42.102103" lon="23.572357"><ele>2641</ele><time>2026-03-08T11:37:46.000Z</time></trkpt>
<trkpt lat="42.102103" lon="23.572357"><ele>2641.3</ele><time>2026-03-08T11:37:47.000Z</time></trkpt>
<trkpt lat="42.102103" lon="23.572357"><ele>2641.3</ele><time>2026-03-08T11:37:48.000Z</time></trkpt>
<trkpt lat="42.102103" lon="23.572357"><ele>2641.3</ele><time>2026-03-08T11:37:49.000Z</time></trkpt>
<trkpt lat="42.102103" lon="23.572357"><ele>2641.3</ele><time>2026-03-08T11:37:50.000Z</time></trkpt>
<trkpt lat="42.102103" lon="23.572357"><ele>2641.3</ele><time>2026-03-08T11:37:51.000Z</time></trkpt>
<trkpt lat="42.102103" lon="23.572357"><ele>2641.6</ele><time>2026-03-08T11:37:52.000Z</time></trkpt>
<trkpt lat="42.102103" lon="23.572357"><ele>2641.6</ele><time>2026-03-08T11:37:53.000Z</time></trkpt>
<trkpt lat="42.102102" lon="23.572356"><ele>2641.6</ele><time>2026-03-08T11:37:54.000Z</time></trkpt>
<trkpt lat="42.102102" lon="23.572356"><ele>2641.6</ele><time>2026-03-08T11:37:55.000Z</time></trkpt>
<trkpt lat="42.102102" lon="23.572355"><ele>2641.6</ele><time>2026-03-08T11:37:56.000Z</time></trkpt>
<trkpt lat="42.102102" lon="23.572355"><ele>2641.7</ele><time>2026-03-08T11:37:57.000Z</time></trkpt>
<trkpt lat="42.102102" lon="23.572355"><ele>2641.7</ele><time>2026-03-08T11:37:58.000Z</time></trkpt>
<trkpt lat="42.102102" lon="23.572355"><ele>2641.7</ele><time>2026-03-08T11:37:59.000Z</time></trkpt>
<trkpt lat="42.102102" lon="23.572355"><ele>2641.7</ele><time>2026-03-08T11:38:00.000Z</time></trkpt>
<trkpt lat="42.102103" lon="23.572355"><ele>2641.7</ele><time>2026-03-08T11:38:01.000Z</time></trkpt>
<trkpt lat="42.102103" lon="23.572355"><ele>2641.7</ele><time>2026-03-08T11:38:02.000Z</time></trkpt>
<trkpt lat="42.102104" lon="23.572354"><ele>2641.7</ele><time>2026-03-08T11:38:03.000Z</time></trkpt>
<trkpt lat="42.102105" lon="23.572354"><ele>2641.7</ele><time>2026-03-08T11:38:04.000Z</time></trkpt>
<trkpt lat="42.102106" lon="23.572353"><ele>2641.7</ele><time>2026-03-08T11:38:05.000Z</time></trkpt>
<trkpt lat="42.102107" lon="23.572353"><ele>2641.7</ele><time>2026-03-08T11:38:06.000Z</time></trkpt>
<trkpt lat="42.102107" lon="23.572352"><ele>2641.6</ele><time>2026-03-08T11:38:07.000Z</time></trkpt>
<trkpt lat="42.102107" lon="23.572352"><ele>2641.6</ele><time>2026-03-08T11:38:08.000Z</time></trkpt>
<trkpt lat="42.102106" lon="23.572352"><ele>2641.6</ele><time>2026-03-08T11:38:09.000Z</time></trkpt>
<trkpt lat="42.102106" lon="23.572352"><ele>2641.6</ele><time>2026-03-08T11:38:10.000Z</time></trkpt>
<trkpt lat="42.102106" lon="23.572352"><ele>2641.6</ele><time>2026-03-08T11:38:11.000Z</time></trkpt>
<trkpt lat="42.102106" lon="23.572352"><ele>2641.5</ele><time>2026-03-08T11:38:12.000Z</time></trkpt>
<trkpt lat="42.102106" lon="23.572352"><ele>2641.5</ele><time>2026-03-08T11:38:13.000Z</time></trkpt>
<trkpt lat="42.102106" lon="23.572353"><ele>2641.5</ele><time>2026-03-08T11:38:14.000Z</time></trkpt>
<trkpt lat="42.102106" lon="23.572353"><ele>2641.5</ele><time>2026-03-08T11:38:15.000Z</time></trkpt>
<trkpt lat="42.102106" lon="23.572353"><ele>2641.5</ele><time>2026-03-08T11:38:16.000Z</time></trkpt>
<trkpt lat="42.102106" lon="23.572354"><ele>2641.4</ele><time>2026-03-08T11:38:17.000Z</time></trkpt>
<trkpt lat="42.102106" lon="23.572354"><ele>2641.4</ele><time>2026-03-08T11:38:18.000Z</time></trkpt>
<trkpt lat="42.102106" lon="23.572354"><ele>2641.4</ele><time>2026-03-08T11:38:19.000Z</time></trkpt>
<trkpt lat="42.102106" lon="23.572354"><ele>2641.4</ele><time>2026-03-08T11:38:20.000Z</time></trkpt>
<trkpt lat="42.102106" lon="23.572354"><ele>2641.4</ele><time>2026-03-08T11:38:21.000Z</time></trkpt>
<trkpt lat="42.102106" lon="23.572354"><ele>2641.4</ele><time>2026-03-08T11:38:22.000Z</time></trkpt>
<trkpt lat="42.102106" lon="23.572354"><ele>2641.4</ele><time>2026-03-08T11:38:23.000Z</time></trkpt>
<trkpt lat="42.102106" lon="23.572353"><ele>2641.4</ele><time>2026-03-08T11:38:24.000Z</time></trkpt>
<trkpt lat="42.102105" lon="23.572353"><ele>2641.4</ele><time>2026-03-08T11:38:25.000Z</time></trkpt>
<trkpt lat="42.102105" lon="23.572352"><ele>2641.4</ele><time>2026-03-08T11:38:26.000Z</time></trkpt>
<trkpt lat="42.102104" lon="23.572352"><ele>2641.5</ele><time>2026-03-08T11:38:27.000Z</time></trkpt>
<trkpt lat="42.102104" lon="23.572351"><ele>2641.5</ele><time>2026-03-08T11:38:28.000Z</time></trkpt>
<trkpt lat="42.102103" lon="23.572351"><ele>2641.5</ele><time>2026-03-08T11:38:29.000Z</time></trkpt>
<trkpt lat="42.102103" lon="23.572351"><ele>2641.5</ele><time>2026-03-08T11:38:30.000Z</time></trkpt>
<trkpt lat="42.102103" lon="23.572351"><ele>2641.5</ele><time>2026-03-08T11:38:31.000Z</time></trkpt>
<trkpt lat="42.102103" lon="23.572351"><ele>2641.5</ele><time>2026-03-08T11:38:32.000Z</time></trkpt>
<trkpt lat="42.102104" lon="23.572352"><ele>2641.5</ele><time>2026-03-08T11:38:33.000Z</time></trkpt>
<trkpt lat="42.102104" lon="23.572352"><ele>2641.5</ele><time>2026-03-08T11:38:34.000Z</time></trkpt>
<trkpt lat="42.102104" lon="23.57235"><ele>2641.5</ele><time>2026-03-08T11:38:35.000Z</time></trkpt>
<trkpt lat="42.102105" lon="23.572347"><ele>2641.5</ele><time>2026-03-08T11:38:36.000Z</time></trkpt>
<trkpt lat="42.102106" lon="23.572343"><ele>2641.6</ele><time>2026-03-08T11:38:37.000Z</time></trkpt>
<trkpt lat="42.102107" lon="23.572338"><ele>2641.6</ele><time>2026-03-08T11:38:38.000Z</time></trkpt>
<trkpt lat="42.102109" lon="23.572332"><ele>2641.6</ele><time>2026-03-08T11:38:39.000Z</time></trkpt>
<trkpt lat="42.102111" lon="23.572325"><ele>2641.6</ele><time>2026-03-08T11:38:40.000Z</time></trkpt>
<trkpt lat="42.102113" lon="23.572321"><ele>2641.6</ele><time>2026-03-08T11:38:41.000Z</time></trkpt>
<trkpt lat="42.102114" lon="23.572316"><ele>2641.7</ele><time>2026-03-08T11:38:42.000Z</time></trkpt>
<trkpt lat="42.102115" lon="23.572313"><ele>2641.7</ele><time>2026-03-08T11:38:43.000Z</time></trkpt>
<trkpt lat="42.102116" lon="23.572311"><ele>2641.7</ele><time>2026-03-08T11:38:44.000Z</time></trkpt>
<trkpt lat="42.102116" lon="23.572312"><ele>2641.7</ele><time>2026-03-08T11:38:45.000Z</time></trkpt>
<trkpt lat="42.102116" lon="23.572313"><ele>2641.7</ele><time>2026-03-08T11:38:46.000Z</time></trkpt>
<trkpt lat="42.102116" lon="23.572314"><ele>2641.7</ele><time>2026-03-08T11:38:47.000Z</time></trkpt>
<trkpt lat="42.102116" lon="23.572313"><ele>2641.7</ele><time>2026-03-08T11:38:48.000Z</time></trkpt>
<trkpt lat="42.102115" lon="23.572312"><ele>2641.7</ele><time>2026-03-08T11:38:49.000Z</time></trkpt>
<trkpt lat="42.102114" lon="23.572311"><ele>2641.7</ele><time>2026-03-08T11:38:50.000Z</time></trkpt>
<trkpt lat="42.102113" lon="23.572311"><ele>2641.7</ele><time>2026-03-08T11:38:51.000Z</time></trkpt>
<trkpt lat="42.102112" lon="23.57231"><ele>2641.6</ele><time>2026-03-08T11:38:52.000Z</time></trkpt>
<trkpt lat="42.102111" lon="23.57231"><ele>2641.6</ele><time>2026-03-08T11:38:53.000Z</time></trkpt>
<trkpt lat="42.102111" lon="23.57231"><ele>2641.6</ele><time>2026-03-08T11:38:54.000Z</time></trkpt>
<trkpt lat="42.102111" lon="23.57231"><ele>2641.6</ele><time>2026-03-08T11:38:55.000Z</time></trkpt>
<trkpt lat="42.102111" lon="23.57231"><ele>2641.6</ele><time>2026-03-08T11:38:56.000Z</time></trkpt>
<trkpt lat="42.102111" lon="23.57231"><ele>2641.5</ele><time>2026-03-08T11:38:57.000Z</time></trkpt>
<trkpt lat="42.102111" lon="23.57231"><ele>2641.5</ele><time>2026-03-08T11:38:58.000Z</time></trkpt>
<trkpt lat="42.102111" lon="23.57231"><ele>2641.5</ele><time>2026-03-08T11:38:59.000Z</time></trkpt>
<trkpt lat="42.102111" lon="23.57231"><ele>2641.5</ele><time>2026-03-08T11:39:00.000Z</time></trkpt>
<trkpt lat="42.102111" lon="23.57231"><ele>2641.5</ele><time>2026-03-08T11:39:01.000Z</time></trkpt>
<trkpt lat="42.102111" lon="23.57231"><ele>2641.5</ele><time>2026-03-08T11:39:02.000Z</time></trkpt>
<trkpt lat="42.102111" lon="23.57231"><ele>2641.5</ele><time>2026-03-08T11:39:03.000Z</time></trkpt>
<trkpt lat="42.102111" lon="23.57231"><ele>2641.5</ele><time>2026-03-08T11:39:04.000Z</time></trkpt>
<trkpt lat="42.102111" lon="23.57231"><ele>2641.5</ele><time>2026-03-08T11:39:05.000Z</time></trkpt>
<trkpt lat="42.102111" lon="23.57231"><ele>2641.5</ele><time>2026-03-08T11:39:06.000Z</time></trkpt>
<trkpt lat="42.102111" lon="23.57231"><ele>2641.4</ele><time>2026-03-08T11:39:07.000Z</time></trkpt>
<trkpt lat="42.102111" lon="23.57231"><ele>2641.4</ele><time>2026-03-08T11:39:08.000Z</time></trkpt>
<trkpt lat="42.102111" lon="23.57231"><ele>2641.4</ele><time>2026-03-08T11:39:09.000Z</time></trkpt>
<trkpt lat="42.102112" lon="23.57231"><ele>2641.4</ele><time>2026-03-08T11:39:10.000Z</time></trkpt>
<trkpt lat="42.102112" lon="23.572311"><ele>2641.4</ele><time>2026-03-08T11:39:11.000Z</time></trkpt>
<trkpt lat="42.102112" lon="23.572311"><ele>2641.3</ele><time>2026-03-08T11:39:12.000Z</time></trkpt>
<trkpt lat="42.102112" lon="23.572312"><ele>2641.3</ele><time>2026-03-08T11:39:13.000Z</time></trkpt>
<trkpt lat="42.102112" lon="23.572312"><ele>2641.3</ele><time>2026-03-08T11:39:14.000Z</time></trkpt>
<trkpt lat="42.102112" lon="23.572313"><ele>2641.3</ele><time>2026-03-08T11:39:15.000Z</time></trkpt>
<trkpt lat="42.102112" lon="23.572313"><ele>2641.3</ele><time>2026-03-08T11:39:16.000Z</time></trkpt>
<trkpt lat="42.102111" lon="23.572312"><ele>2641.2</ele><time>2026-03-08T11:39:17.000Z</time></trkpt>
<trkpt lat="42.10211" lon="23.57231"><ele>2641.2</ele><time>2026-03-08T11:39:18.000Z</time></trkpt>
<trkpt lat="42.102109" lon="23.572305"><ele>2641.2</ele><time>2026-03-08T11:39:19.000Z</time></trkpt>
<trkpt lat="42.102107" lon="23.5723"><ele>2641.2</ele><time>2026-03-08T11:39:20.000Z</time></trkpt>
<trkpt lat="42.102108" lon="23.572293"><ele>2641.2</ele><time>2026-03-08T11:39:21.000Z</time></trkpt>
<trkpt lat="42.10211" lon="23.572285"><ele>2641.2</ele><time>2026-03-08T11:39:22.000Z</time></trkpt>
<trkpt lat="42.102112" lon="23.572278"><ele>2641.2</ele><time>2026-03-08T11:39:23.000Z</time></trkpt>
<trkpt lat="42.102115" lon="23.572271"><ele>2641.2</ele><time>2026-03-08T11:39:24.000Z</time></trkpt>
<trkpt lat="42.102118" lon="23.572264"><ele>2641.2</ele><time>2026-03-08T11:39:25.000Z</time></trkpt>
<trkpt lat="42.102119" lon="23.572257"><ele>2641.2</ele><time>2026-03-08T11:39:26.000Z</time></trkpt>
<trkpt lat="42.10212" lon="23.57225"><ele>2641.2</ele><time>2026-03-08T11:39:27.000Z</time></trkpt>
<trkpt lat="42.102121" lon="23.572243"><ele>2641.2</ele><time>2026-03-08T11:39:28.000Z</time></trkpt>
<trkpt lat="42.102122" lon="23.572239"><ele>2641.2</ele><time>2026-03-08T11:39:29.000Z</time></trkpt>
<trkpt lat="42.102122" lon="23.572236"><ele>2641.2</ele><time>2026-03-08T11:39:30.000Z</time></trkpt>
<trkpt lat="42.102122" lon="23.572234"><ele>2641.2</ele><time>2026-03-08T11:39:31.000Z</time></trkpt>
<trkpt lat="42.102122" lon="23.572233"><ele>2641</ele><time>2026-03-08T11:39:32.000Z</time></trkpt>
<trkpt lat="42.102121" lon="23.572232"><ele>2641</ele><time>2026-03-08T11:39:33.000Z</time></trkpt>
<trkpt lat="42.102121" lon="23.572231"><ele>2641</ele><time>2026-03-08T11:39:34.000Z</time></trkpt>
<trkpt lat="42.10212" lon="23.57223"><ele>2641</ele><time>2026-03-08T11:39:35.000Z</time></trkpt>
<trkpt lat="42.10212" lon="23.57223"><ele>2641</ele><time>2026-03-08T11:39:36.000Z</time></trkpt>
<trkpt lat="42.10212" lon="23.572229"><ele>2640.6</ele><time>2026-03-08T11:39:37.000Z</time></trkpt>
<trkpt lat="42.102119" lon="23.572229"><ele>2640.6</ele><time>2026-03-08T11:39:38.000Z</time></trkpt>
<trkpt lat="42.102119" lon="23.572229"><ele>2640.6</ele><time>2026-03-08T11:39:39.000Z</time></trkpt>
<trkpt lat="42.102119" lon="23.572229"><ele>2640.6</ele><time>2026-03-08T11:39:40.000Z</time></trkpt>
<trkpt lat="42.102119" lon="23.57223"><ele>2640.6</ele><time>2026-03-08T11:39:41.000Z</time></trkpt>
<trkpt lat="42.102118" lon="23.57223"><ele>2640.4</ele><time>2026-03-08T11:39:42.000Z</time></trkpt>
<trkpt lat="42.102118" lon="23.57223"><ele>2640.4</ele><time>2026-03-08T11:39:43.000Z</time></trkpt>
<trkpt lat="42.102119" lon="23.572229"><ele>2640.4</ele><time>2026-03-08T11:39:44.000Z</time></trkpt>
<trkpt lat="42.102119" lon="23.572229"><ele>2640.4</ele><time>2026-03-08T11:39:45.000Z</time></trkpt>
<trkpt lat="42.102119" lon="23.572229"><ele>2640.4</ele><time>2026-03-08T11:39:46.000Z</time></trkpt>
<trkpt lat="42.102119" lon="23.572228"><ele>2640.4</ele><time>2026-03-08T11:39:47.000Z</time></trkpt>
<trkpt lat="42.102119" lon="23.572227"><ele>2640.4</ele><time>2026-03-08T11:39:48.000Z</time></trkpt>
<trkpt lat="42.102119" lon="23.572226"><ele>2640.4</ele><time>2026-03-08T11:39:49.000Z</time></trkpt>
<trkpt lat="42.102119" lon="23.572225"><ele>2640.4</ele><time>2026-03-08T11:39:50.000Z</time></trkpt>
<trkpt lat="42.102119" lon="23.572225"><ele>2640.4</ele><time>2026-03-08T11:39:51.000Z</time></trkpt>
<trkpt lat="42.102119" lon="23.572224"><ele>2640.7</ele><time>2026-03-08T11:39:52.000Z</time></trkpt>
<trkpt lat="42.102119" lon="23.572224"><ele>2640.7</ele><time>2026-03-08T11:39:53.000Z</time></trkpt>
<trkpt lat="42.102118" lon="23.572224"><ele>2640.7</ele><time>2026-03-08T11:39:54.000Z</time></trkpt>
<trkpt lat="42.102118" lon="23.572224"><ele>2640.7</ele><time>2026-03-08T11:39:55.000Z</time></trkpt>
<trkpt lat="42.102118" lon="23.572224"><ele>2640.7</ele><time>2026-03-08T11:39:56.000Z</time></trkpt>
<trkpt lat="42.102118" lon="23.572224"><ele>2640.7</ele><time>2026-03-08T11:39:57.000Z</time></trkpt>
<trkpt lat="42.102118" lon="23.572224"><ele>2640.7</ele><time>2026-03-08T11:39:58.000Z</time></trkpt>
<trkpt lat="42.102118" lon="23.572224"><ele>2640.7</ele><time>2026-03-08T11:39:59.000Z</time></trkpt>
<trkpt lat="42.102118" lon="23.572224"><ele>2640.7</ele><time>2026-03-08T11:40:00.000Z</time></trkpt>
<trkpt lat="42.102117" lon="23.572225"><ele>2640.7</ele><time>2026-03-08T11:40:01.000Z</time></trkpt>
<trkpt lat="42.102117" lon="23.572225"><ele>2640.6</ele><time>2026-03-08T11:40:02.000Z</time></trkpt>
<trkpt lat="42.102117" lon="23.572226"><ele>2640.6</ele><time>2026-03-08T11:40:03.000Z</time></trkpt>
<trkpt lat="42.102117" lon="23.572226"><ele>2640.6</ele><time>2026-03-08T11:40:04.000Z</time></trkpt>
<trkpt lat="42.102117" lon="23.572227"><ele>2640.6</ele><time>2026-03-08T11:40:05.000Z</time></trkpt>
<trkpt lat="42.102116" lon="23.572228"><ele>2640.6</ele><time>2026-03-08T11:40:06.000Z</time></trkpt>
<trkpt lat="42.102116" lon="23.57223"><ele>2640.6</ele><time>2026-03-08T11:40:07.000Z</time></trkpt>
<trkpt lat="42.102116" lon="23.572231"><ele>2640.6</ele><time>2026-03-08T11:40:08.000Z</time></trkpt>
<trkpt lat="42.102116" lon="23.572232"><ele>2640.6</ele><time>2026-03-08T11:40:09.000Z</time></trkpt>
<trkpt lat="42.102115" lon="23.572232"><ele>2640.6</ele><time>2026-03-08T11:40:10.000Z</time></trkpt>
<trkpt lat="42.102115" lon="23.572232"><ele>2640.6</ele><time>2026-03-08T11:40:11.000Z</time></trkpt>
<trkpt lat="42.102115" lon="23.572232"><ele>2640.6</ele><time>2026-03-08T11:40:12.000Z</time></trkpt>
<trkpt lat="42.102115" lon="23.572232"><ele>2640.6</ele><time>2026-03-08T11:40:13.000Z</time></trkpt>
<trkpt lat="42.102115" lon="23.572232"><ele>2640.6</ele><time>2026-03-08T11:40:14.000Z</time></trkpt>
<trkpt lat="42.102115" lon="23.572232"><ele>2640.6</ele><time>2026-03-08T11:40:15.000Z</time></trkpt>
<trkpt lat="42.102115" lon="23.572232"><ele>2640.6</ele><time>2026-03-08T11:40:16.000Z</time></trkpt>
<trkpt lat="42.102115" lon="23.572232"><ele>2640.7</ele><time>2026-03-08T11:40:17.000Z</time></trkpt>
<trkpt lat="42.102115" lon="23.572232"><ele>2640.7</ele><time>2026-03-08T11:40:18.000Z</time></trkpt>
<trkpt lat="42.102115" lon="23.572232"><ele>2640.7</ele><time>2026-03-08T11:40:19.000Z</time></trkpt>
<trkpt lat="42.102115" lon="23.572232"><ele>2640.7</ele><time>2026-03-08T11:40:20.000Z</time></trkpt>
<trkpt lat="42.102115" lon="23.572232"><ele>2640.7</ele><time>2026-03-08T11:40:21.000Z</time></trkpt>
<trkpt lat="42.102115" lon="23.572232"><ele>2640.9</ele><time>2026-03-08T11:40:22.000Z</time></trkpt>
<trkpt lat="42.102115" lon="23.572232"><ele>2640.9</ele><time>2026-03-08T11:40:23.000Z</time></trkpt>
<trkpt lat="42.102115" lon="23.572232"><ele>2640.9</ele><time>2026-03-08T11:40:24.000Z</time></trkpt>
<trkpt lat="42.102115" lon="23.572232"><ele>2640.9</ele><time>2026-03-08T11:40:25.000Z</time></trkpt>
<trkpt lat="42.102115" lon="23.572232"><ele>2640.9</ele><time>2026-03-08T11:40:26.000Z</time></trkpt>
<trkpt lat="42.102115" lon="23.572232"><ele>2640.9</ele><time>2026-03-08T11:40:27.000Z</time></trkpt>
<trkpt lat="42.102115" lon="23.572232"><ele>2640.9</ele><time>2026-03-08T11:40:28.000Z</time></trkpt>
<trkpt lat="42.102115" lon="23.572232"><ele>2640.9</ele><time>2026-03-08T11:40:29.000Z</time></trkpt>
<trkpt lat="42.102115" lon="23.572231"><ele>2640.9</ele><time>2026-03-08T11:40:30.000Z</time></trkpt>
<trkpt lat="42.102115" lon="23.572231"><ele>2640.9</ele><time>2026-03-08T11:40:31.000Z</time></trkpt>
<trkpt lat="42.102115" lon="23.572231"><ele>2640.8</ele><time>2026-03-08T11:40:32.000Z</time></trkpt>
<trkpt lat="42.102115" lon="23.572231"><ele>2640.8</ele><time>2026-03-08T11:40:33.000Z</time></trkpt>
<trkpt lat="42.102115" lon="23.572231"><ele>2640.8</ele><time>2026-03-08T11:40:34.000Z</time></trkpt>
<trkpt lat="42.102115" lon="23.572231"><ele>2640.8</ele><time>2026-03-08T11:40:35.000Z</time></trkpt>
<trkpt lat="42.102115" lon="23.572231"><ele>2640.8</ele><time>2026-03-08T11:40:36.000Z</time></trkpt>
<trkpt lat="42.102115" lon="23.572231"><ele>2640.7</ele><time>2026-03-08T11:40:37.000Z</time></trkpt>
<trkpt lat="42.102115" lon="23.572231"><ele>2640.7</ele><time>2026-03-08T11:40:38.000Z</time></trkpt>
<trkpt lat="42.102115" lon="23.572231"><ele>2640.7</ele><time>2026-03-08T11:40:39.000Z</time></trkpt>
<trkpt lat="42.102115" lon="23.572231"><ele>2640.7</ele><time>2026-03-08T11:40:40.000Z</time></trkpt>
<trkpt lat="42.102115" lon="23.572231"><ele>2640.7</ele><time>2026-03-08T11:40:41.000Z</time></trkpt>
<trkpt lat="42.102115" lon="23.572231"><ele>2640.6</ele><time>2026-03-08T11:40:42.000Z</time></trkpt>
<trkpt lat="42.102114" lon="23.572231"><ele>2640.6</ele><time>2026-03-08T11:40:43.000Z</time></trkpt>
<trkpt lat="42.102113" lon="23.572231"><ele>2640.6</ele><time>2026-03-08T11:40:44.000Z</time></trkpt>
<trkpt lat="42.102112" lon="23.572231"><ele>2640.6</ele><time>2026-03-08T11:40:45.000Z</time></trkpt>
<trkpt lat="42.102111" lon="23.572231"><ele>2640.6</ele><time>2026-03-08T11:40:46.000Z</time></trkpt>
<trkpt lat="42.102111" lon="23.572231"><ele>2640.6</ele><time>2026-03-08T11:40:47.000Z</time></trkpt>
<trkpt lat="42.102111" lon="23.572231"><ele>2640.6</ele><time>2026-03-08T11:40:48.000Z</time></trkpt>
<trkpt lat="42.102111" lon="23.572231"><ele>2640.6</ele><time>2026-03-08T11:40:49.000Z</time></trkpt>
<trkpt lat="42.102111" lon="23.572231"><ele>2640.6</ele><time>2026-03-08T11:40:50.000Z</time></trkpt>
<trkpt lat="42.102111" lon="23.572231"><ele>2640.6</ele><time>2026-03-08T11:40:51.000Z</time></trkpt>
<trkpt lat="42.102111" lon="23.572231"><ele>2640.7</ele><time>2026-03-08T11:40:52.000Z</time></trkpt>
<trkpt lat="42.102111" lon="23.572231"><ele>2640.7</ele><time>2026-03-08T11:40:53.000Z</time></trkpt>
<trkpt lat="42.102111" lon="23.572231"><ele>2640.7</ele><time>2026-03-08T11:40:54.000Z</time></trkpt>
<trkpt lat="42.102111" lon="23.572231"><ele>2640.7</ele><time>2026-03-08T11:40:55.000Z</time></trkpt>
<trkpt lat="42.102111" lon="23.572231"><ele>2640.7</ele><time>2026-03-08T11:40:56.000Z</time></trkpt>
<trkpt lat="42.102111" lon="23.572231"><ele>2640.8</ele><time>2026-03-08T11:40:57.000Z</time></trkpt>
<trkpt lat="42.102111" lon="23.572231"><ele>2640.8</ele><time>2026-03-08T11:40:58.000Z</time></trkpt>
<trkpt lat="42.102111" lon="23.572231"><ele>2640.8</ele><time>2026-03-08T11:40:59.000Z</time></trkpt>
<trkpt lat="42.102112" lon="23.57223"><ele>2640.8</ele><time>2026-03-08T11:41:00.000Z</time></trkpt>
<trkpt lat="42.102112" lon="23.57223"><ele>2640.8</ele><time>2026-03-08T11:41:01.000Z</time></trkpt>
<trkpt lat="42.102113" lon="23.572229"><ele>2641</ele><time>2026-03-08T11:41:02.000Z</time></trkpt>
<trkpt lat="42.102113" lon="23.572228"><ele>2641</ele><time>2026-03-08T11:41:03.000Z</time></trkpt>
<trkpt lat="42.102113" lon="23.572228"><ele>2641</ele><time>2026-03-08T11:41:04.000Z</time></trkpt>
<trkpt lat="42.102113" lon="23.572228"><ele>2641</ele><time>2026-03-08T11:41:05.000Z</time></trkpt>
<trkpt lat="42.102113" lon="23.572228"><ele>2641</ele><time>2026-03-08T11:41:06.000Z</time></trkpt>
<trkpt lat="42.102113" lon="23.572228"><ele>2641.4</ele><time>2026-03-08T11:41:07.000Z</time></trkpt>
<trkpt lat="42.102113" lon="23.572228"><ele>2641.4</ele><time>2026-03-08T11:41:08.000Z</time></trkpt>
<trkpt lat="42.102113" lon="23.572228"><ele>2641.4</ele><time>2026-03-08T11:41:09.000Z</time></trkpt>
<trkpt lat="42.102113" lon="23.572227"><ele>2641.4</ele><time>2026-03-08T11:41:10.000Z</time></trkpt>
<trkpt lat="42.102113" lon="23.572227"><ele>2641.4</ele><time>2026-03-08T11:41:11.000Z</time></trkpt>
<trkpt lat="42.102114" lon="23.572227"><ele>2641.5</ele><time>2026-03-08T11:41:12.000Z</time></trkpt>
<trkpt lat="42.102114" lon="23.572227"><ele>2641.5</ele><time>2026-03-08T11:41:13.000Z</time></trkpt>
<trkpt lat="42.102115" lon="23.572228"><ele>2641.5</ele><time>2026-03-08T11:41:14.000Z</time></trkpt>
<trkpt lat="42.102115" lon="23.572228"><ele>2641.5</ele><time>2026-03-08T11:41:15.000Z</time></trkpt>
<trkpt lat="42.102115" lon="23.572229"><ele>2641.5</ele><time>2026-03-08T11:41:16.000Z</time></trkpt>
<trkpt lat="42.102115" lon="23.572229"><ele>2641.4</ele><time>2026-03-08T11:41:17.000Z</time></trkpt>
<trkpt lat="42.102115" lon="23.572229"><ele>2641.4</ele><time>2026-03-08T11:41:18.000Z</time></trkpt>
<trkpt lat="42.102115" lon="23.572229"><ele>2641.4</ele><time>2026-03-08T11:41:19.000Z</time></trkpt>
<trkpt lat="42.102115" lon="23.572229"><ele>2641.4</ele><time>2026-03-08T11:41:20.000Z</time></trkpt>
<trkpt lat="42.102115" lon="23.572229"><ele>2641.4</ele><time>2026-03-08T11:41:21.000Z</time></trkpt>
<trkpt lat="42.102115" lon="23.572229"><ele>2641</ele><time>2026-03-08T11:41:22.000Z</time></trkpt>
<trkpt lat="42.102115" lon="23.572229"><ele>2641</ele><time>2026-03-08T11:41:23.000Z</time></trkpt>
<trkpt lat="42.102115" lon="23.572229"><ele>2641</ele><time>2026-03-08T11:41:24.000Z</time></trkpt>
<trkpt lat="42.102115" lon="23.572229"><ele>2641</ele><time>2026-03-08T11:41:25.000Z</time></trkpt>
<trkpt lat="42.102115" lon="23.572229"><ele>2641</ele><time>2026-03-08T11:41:26.000Z</time></trkpt>
<trkpt lat="42.102115" lon="23.572228"><ele>2640.9</ele><time>2026-03-08T11:41:27.000Z</time></trkpt>
<trkpt lat="42.102116" lon="23.572228"><ele>2640.9</ele><time>2026-03-08T11:41:28.000Z</time></trkpt>
<trkpt lat="42.102116" lon="23.572228"><ele>2640.9</ele><time>2026-03-08T11:41:29.000Z</time></trkpt>
<trkpt lat="42.102116" lon="23.572228"><ele>2640.9</ele><time>2026-03-08T11:41:30.000Z</time></trkpt>
<trkpt lat="42.102116" lon="23.572228"><ele>2640.9</ele><time>2026-03-08T11:41:31.000Z</time></trkpt>
<trkpt lat="42.102116" lon="23.572228"><ele>2641.1</ele><time>2026-03-08T11:41:32.000Z</time></trkpt>
<trkpt lat="42.102116" lon="23.572228"><ele>2641.1</ele><time>2026-03-08T11:41:33.000Z</time></trkpt>
<trkpt lat="42.102116" lon="23.572228"><ele>2641.1</ele><time>2026-03-08T11:41:34.000Z</time></trkpt>
<trkpt lat="42.102116" lon="23.572228"><ele>2641.1</ele><time>2026-03-08T11:41:35.000Z</time></trkpt>
<trkpt lat="42.102116" lon="23.572228"><ele>2641.1</ele><time>2026-03-08T11:41:36.000Z</time></trkpt>
<trkpt lat="42.102116" lon="23.572228"><ele>2641.2</ele><time>2026-03-08T11:41:37.000Z</time></trkpt>
<trkpt lat="42.102116" lon="23.572228"><ele>2641.2</ele><time>2026-03-08T11:41:38.000Z</time></trkpt>
<trkpt lat="42.102116" lon="23.572228"><ele>2641.2</ele><time>2026-03-08T11:41:39.000Z</time></trkpt>
<trkpt lat="42.102116" lon="23.572228"><ele>2641.2</ele><time>2026-03-08T11:41:40.000Z</time></trkpt>
<trkpt lat="42.102116" lon="23.572228"><ele>2641.2</ele><time>2026-03-08T11:41:41.000Z</time></trkpt>
<trkpt lat="42.102116" lon="23.572228"><ele>2641.3</ele><time>2026-03-08T11:41:42.000Z</time></trkpt>
<trkpt lat="42.102116" lon="23.572228"><ele>2641.3</ele><time>2026-03-08T11:41:43.000Z</time></trkpt>
<trkpt lat="42.102116" lon="23.572228"><ele>2641.3</ele><time>2026-03-08T11:41:44.000Z</time></trkpt>
<trkpt lat="42.102116" lon="23.572228"><ele>2641.3</ele><time>2026-03-08T11:41:45.000Z</time></trkpt>
<trkpt lat="42.102116" lon="23.572228"><ele>2641.3</ele><time>2026-03-08T11:41:46.000Z</time></trkpt>
<trkpt lat="42.102116" lon="23.572228"><ele>2641.4</ele><time>2026-03-08T11:41:47.000Z</time></trkpt>
<trkpt lat="42.102116" lon="23.572228"><ele>2641.4</ele><time>2026-03-08T11:41:48.000Z</time></trkpt>
<trkpt lat="42.102116" lon="23.572228"><ele>2641.4</ele><time>2026-03-08T11:41:49.000Z</time></trkpt>
<trkpt lat="42.102116" lon="23.572228"><ele>2641.4</ele><time>2026-03-08T11:41:50.000Z</time></trkpt>
<trkpt lat="42.102116" lon="23.572228"><ele>2641.4</ele><time>2026-03-08T11:41:51.000Z</time></trkpt>
<trkpt lat="42.102116" lon="23.572228"><ele>2641.6</ele><time>2026-03-08T11:41:52.000Z</time></trkpt>
<trkpt lat="42.102116" lon="23.572228"><ele>2641.6</ele><time>2026-03-08T11:41:53.000Z</time></trkpt>
<trkpt lat="42.102116" lon="23.572228"><ele>2641.6</ele><time>2026-03-08T11:41:54.000Z</time></trkpt>
<trkpt lat="42.102116" lon="23.572228"><ele>2641.6</ele><time>2026-03-08T11:41:55.000Z</time></trkpt>
<trkpt lat="42.102116" lon="23.572228"><ele>2641.6</ele><time>2026-03-08T11:41:56.000Z</time></trkpt>
<trkpt lat="42.102116" lon="23.572228"><ele>2641.6</ele><time>2026-03-08T11:41:57.000Z</time></trkpt>
<trkpt lat="42.102116" lon="23.572228"><ele>2641.6</ele><time>2026-03-08T11:41:58.000Z</time></trkpt>
<trkpt lat="42.102116" lon="23.572228"><ele>2641.6</ele><time>2026-03-08T11:41:59.000Z</time></trkpt>
<trkpt lat="42.102115" lon="23.572228"><ele>2641.6</ele><time>2026-03-08T11:42:00.000Z</time></trkpt>
<trkpt lat="42.102115" lon="23.572228"><ele>2641.6</ele><time>2026-03-08T11:42:01.000Z</time></trkpt>
<trkpt lat="42.102115" lon="23.572227"><ele>2641.8</ele><time>2026-03-08T11:42:02.000Z</time></trkpt>
<trkpt lat="42.102114" lon="23.572228"><ele>2641.8</ele><time>2026-03-08T11:42:03.000Z</time></trkpt>
<trkpt lat="42.102113" lon="23.572228"><ele>2641.8</ele><time>2026-03-08T11:42:04.000Z</time></trkpt>
<trkpt lat="42.102113" lon="23.572229"><ele>2641.8</ele><time>2026-03-08T11:42:05.000Z</time></trkpt>
<trkpt lat="42.102113" lon="23.57223"><ele>2641.8</ele><time>2026-03-08T11:42:06.000Z</time></trkpt>
<trkpt lat="42.102113" lon="23.572231"><ele>2641.8</ele><time>2026-03-08T11:42:07.000Z</time></trkpt>
<trkpt lat="42.102114" lon="23.572231"><ele>2641.8</ele><time>2026-03-08T11:42:08.000Z</time></trkpt>
<trkpt lat="42.102114" lon="23.572231"><ele>2641.8</ele><time>2026-03-08T11:42:09.000Z</time></trkpt>
<trkpt lat="42.102114" lon="23.572231"><ele>2641.8</ele><time>2026-03-08T11:42:10.000Z</time></trkpt>
<trkpt lat="42.102114" lon="23.572232"><ele>2641.8</ele><time>2026-03-08T11:42:11.000Z</time></trkpt>
<trkpt lat="42.102114" lon="23.572232"><ele>2641.7</ele><time>2026-03-08T11:42:12.000Z</time></trkpt>
<trkpt lat="42.102114" lon="23.572231"><ele>2641.7</ele><time>2026-03-08T11:42:13.000Z</time></trkpt>
<trkpt lat="42.102113" lon="23.572231"><ele>2641.7</ele><time>2026-03-08T11:42:14.000Z</time></trkpt>
<trkpt lat="42.102113" lon="23.572231"><ele>2641.7</ele><time>2026-03-08T11:42:15.000Z</time></trkpt>
<trkpt lat="42.102112" lon="23.572231"><ele>2641.7</ele><time>2026-03-08T11:42:16.000Z</time></trkpt>
<trkpt lat="42.102111" lon="23.57223"><ele>2641.2</ele><time>2026-03-08T11:42:17.000Z</time></trkpt>
<trkpt lat="42.102111" lon="23.57223"><ele>2641.2</ele><time>2026-03-08T11:42:18.000Z</time></trkpt>
<trkpt lat="42.102111" lon="23.57223"><ele>2641.2</ele><time>2026-03-08T11:42:19.000Z</time></trkpt>
<trkpt lat="42.10211" lon="23.57223"><ele>2641.2</ele><time>2026-03-08T11:42:20.000Z</time></trkpt>
<trkpt lat="42.10211" lon="23.57223"><ele>2641.2</ele><time>2026-03-08T11:42:21.000Z</time></trkpt>
<trkpt lat="42.10211" lon="23.57223"><ele>2640.9</ele><time>2026-03-08T11:42:22.000Z</time></trkpt>
<trkpt lat="42.10211" lon="23.57223"><ele>2640.9</ele><time>2026-03-08T11:42:23.000Z</time></trkpt>
<trkpt lat="42.102111" lon="23.572231"><ele>2640.9</ele><time>2026-03-08T11:42:24.000Z</time></trkpt>
<trkpt lat="42.102112" lon="23.572232"><ele>2640.9</ele><time>2026-03-08T11:42:25.000Z</time></trkpt>
<trkpt lat="42.102113" lon="23.572234"><ele>2640.9</ele><time>2026-03-08T11:42:26.000Z</time></trkpt>
<trkpt lat="42.102114" lon="23.572235"><ele>2640.8</ele><time>2026-03-08T11:42:27.000Z</time></trkpt>
<trkpt lat="42.102116" lon="23.572236"><ele>2640.8</ele><time>2026-03-08T11:42:28.000Z</time></trkpt>
<trkpt lat="42.102118" lon="23.572236"><ele>2640.8</ele><time>2026-03-08T11:42:29.000Z</time></trkpt>
<trkpt lat="42.102119" lon="23.572237"><ele>2640.8</ele><time>2026-03-08T11:42:30.000Z</time></trkpt>
<trkpt lat="42.102119" lon="23.572237"><ele>2640.8</ele><time>2026-03-08T11:42:31.000Z</time></trkpt>
<trkpt lat="42.10212" lon="23.572237"><ele>2640.9</ele><time>2026-03-08T11:42:32.000Z</time></trkpt>
<trkpt lat="42.102119" lon="23.572237"><ele>2640.9</ele><time>2026-03-08T11:42:33.000Z</time></trkpt>
<trkpt lat="42.102118" lon="23.572237"><ele>2640.9</ele><time>2026-03-08T11:42:34.000Z</time></trkpt>
<trkpt lat="42.102116" lon="23.572236"><ele>2640.9</ele><time>2026-03-08T11:42:35.000Z</time></trkpt>
<trkpt lat="42.102115" lon="23.572235"><ele>2640.9</ele><time>2026-03-08T11:42:36.000Z</time></trkpt>
<trkpt lat="42.102115" lon="23.572235"><ele>2641</ele><time>2026-03-08T11:42:37.000Z</time></trkpt>
<trkpt lat="42.102115" lon="23.572235"><ele>2641</ele><time>2026-03-08T11:42:38.000Z</time></trkpt>
<trkpt lat="42.102115" lon="23.572235"><ele>2641</ele><time>2026-03-08T11:42:39.000Z</time></trkpt>
<trkpt lat="42.102115" lon="23.572235"><ele>2641</ele><time>2026-03-08T11:42:40.000Z</time></trkpt>
<trkpt lat="42.102115" lon="23.572235"><ele>2641</ele><time>2026-03-08T11:42:41.000Z</time></trkpt>
<trkpt lat="42.102114" lon="23.572235"><ele>2641</ele><time>2026-03-08T11:42:42.000Z</time></trkpt>
<trkpt lat="42.102114" lon="23.572236"><ele>2641</ele><time>2026-03-08T11:42:43.000Z</time></trkpt>
<trkpt lat="42.102113" lon="23.572236"><ele>2641</ele><time>2026-03-08T11:42:44.000Z</time></trkpt>
<trkpt lat="42.102113" lon="23.572237"><ele>2641</ele><time>2026-03-08T11:42:45.000Z</time></trkpt>
<trkpt lat="42.102112" lon="23.572238"><ele>2641</ele><time>2026-03-08T11:42:46.000Z</time></trkpt>
<trkpt lat="42.102112" lon="23.572238"><ele>2640.8</ele><time>2026-03-08T11:42:47.000Z</time></trkpt>
<trkpt lat="42.102112" lon="23.572238"><ele>2640.8</ele><time>2026-03-08T11:42:48.000Z</time></trkpt>
<trkpt lat="42.102112" lon="23.572238"><ele>2640.8</ele><time>2026-03-08T11:42:49.000Z</time></trkpt>
<trkpt lat="42.102113" lon="23.572238"><ele>2640.8</ele><time>2026-03-08T11:42:50.000Z</time></trkpt>
<trkpt lat="42.102113" lon="23.572238"><ele>2640.8</ele><time>2026-03-08T11:42:51.000Z</time></trkpt>
<trkpt lat="42.102113" lon="23.572238"><ele>2640.7</ele><time>2026-03-08T11:42:52.000Z</time></trkpt>
<trkpt lat="42.102114" lon="23.572237"><ele>2640.7</ele><time>2026-03-08T11:42:53.000Z</time></trkpt>
<trkpt lat="42.102114" lon="23.572237"><ele>2640.7</ele><time>2026-03-08T11:42:54.000Z</time></trkpt>
<trkpt lat="42.102114" lon="23.572237"><ele>2640.7</ele><time>2026-03-08T11:42:55.000Z</time></trkpt>
<trkpt lat="42.102114" lon="23.572237"><ele>2640.7</ele><time>2026-03-08T11:42:56.000Z</time></trkpt>
<trkpt lat="42.102114" lon="23.572237"><ele>2640.8</ele><time>2026-03-08T11:42:57.000Z</time></trkpt>
<trkpt lat="42.102114" lon="23.572237"><ele>2640.8</ele><time>2026-03-08T11:42:58.000Z</time></trkpt>
<trkpt lat="42.102114" lon="23.572237"><ele>2640.8</ele><time>2026-03-08T11:42:59.000Z</time></trkpt>
<trkpt lat="42.102114" lon="23.572237"><ele>2640.8</ele><time>2026-03-08T11:43:00.000Z</time></trkpt>
<trkpt lat="42.102114" lon="23.572237"><ele>2640.8</ele><time>2026-03-08T11:43:01.000Z</time></trkpt>
<trkpt lat="42.102114" lon="23.572237"><ele>2640.8</ele><time>2026-03-08T11:43:02.000Z</time></trkpt>
<trkpt lat="42.102114" lon="23.572237"><ele>2640.8</ele><time>2026-03-08T11:43:03.000Z</time></trkpt>
<trkpt lat="42.102114" lon="23.572237"><ele>2640.8</ele><time>2026-03-08T11:43:04.000Z</time></trkpt>
<trkpt lat="42.102114" lon="23.572237"><ele>2640.8</ele><time>2026-03-08T11:43:05.000Z</time></trkpt>
<trkpt lat="42.102114" lon="23.572237"><ele>2640.8</ele><time>2026-03-08T11:43:06.000Z</time></trkpt>
<trkpt lat="42.102113" lon="23.572237"><ele>2640.7</ele><time>2026-03-08T11:43:07.000Z</time></trkpt>
<trkpt lat="42.102113" lon="23.572237"><ele>2640.7</ele><time>2026-03-08T11:43:08.000Z</time></trkpt>
<trkpt lat="42.102113" lon="23.572237"><ele>2640.7</ele><time>2026-03-08T11:43:09.000Z</time></trkpt>
<trkpt lat="42.102113" lon="23.572237"><ele>2640.7</ele><time>2026-03-08T11:43:10.000Z</time></trkpt>
<trkpt lat="42.102113" lon="23.572237"><ele>2640.7</ele><time>2026-03-08T11:43:11.000Z</time></trkpt>
<trkpt lat="42.102113" lon="23.572238"><ele>2640.7</ele><time>2026-03-08T11:43:12.000Z</time></trkpt>
<trkpt lat="42.102113" lon="23.572238"><ele>2640.7</ele><time>2026-03-08T11:43:13.000Z</time></trkpt>
<trkpt lat="42.102113" lon="23.572238"><ele>2640.7</ele><time>2026-03-08T11:43:14.000Z</time></trkpt>
<trkpt lat="42.102113" lon="23.572238"><ele>2640.7</ele><time>2026-03-08T11:43:15.000Z</time></trkpt>
<trkpt lat="42.102113" lon="23.572238"><ele>2640.7</ele><time>2026-03-08T11:43:16.000Z</time></trkpt>
<trkpt lat="42.102113" lon="23.572238"><ele>2640.6</ele><time>2026-03-08T11:43:17.000Z</time></trkpt>
<trkpt lat="42.102113" lon="23.572238"><ele>2640.6</ele><time>2026-03-08T11:43:18.000Z</time></trkpt>
<trkpt lat="42.102113" lon="23.572238"><ele>2640.6</ele><time>2026-03-08T11:43:19.000Z</time></trkpt>
<trkpt lat="42.102113" lon="23.572238"><ele>2640.6</ele><time>2026-03-08T11:43:20.000Z</time></trkpt>
<trkpt lat="42.102113" lon="23.572238"><ele>2640.6</ele><time>2026-03-08T11:43:21.000Z</time></trkpt>
<trkpt lat="42.102113" lon="23.572238"><ele>2640.6</ele><time>2026-03-08T11:43:22.000Z</time></trkpt>
<trkpt lat="42.102113" lon="23.572238"><ele>2640.6</ele><time>2026-03-08T11:43:23.000Z</time></trkpt>
<trkpt lat="42.102112" lon="23.572238"><ele>2640.6</ele><time>2026-03-08T11:43:24.000Z</time></trkpt>
<trkpt lat="42.102112" lon="23.572238"><ele>2640.6</ele><time>2026-03-08T11:43:25.000Z</time></trkpt>
<trkpt lat="42.102111" lon="23.572238"><ele>2640.6</ele><time>2026-03-08T11:43:26.000Z</time></trkpt>
<trkpt lat="42.10211" lon="23.572239"><ele>2640.6</ele><time>2026-03-08T11:43:27.000Z</time></trkpt>
<trkpt lat="42.102109" lon="23.572239"><ele>2640.6</ele><time>2026-03-08T11:43:28.000Z</time></trkpt>
<trkpt lat="42.102108" lon="23.572239"><ele>2640.6</ele><time>2026-03-08T11:43:29.000Z</time></trkpt>
<trkpt lat="42.102108" lon="23.572239"><ele>2640.6</ele><time>2026-03-08T11:43:30.000Z</time></trkpt>
<trkpt lat="42.102108" lon="23.572239"><ele>2640.6</ele><time>2026-03-08T11:43:31.000Z</time></trkpt>
<trkpt lat="42.102108" lon="23.572239"><ele>2640.6</ele><time>2026-03-08T11:43:32.000Z</time></trkpt>
<trkpt lat="42.102108" lon="23.572239"><ele>2640.6</ele><time>2026-03-08T11:43:33.000Z</time></trkpt>
<trkpt lat="42.102108" lon="23.572239"><ele>2640.6</ele><time>2026-03-08T11:43:34.000Z</time></trkpt>
<trkpt lat="42.102108" lon="23.572239"><ele>2640.6</ele><time>2026-03-08T11:43:35.000Z</time></trkpt>
<trkpt lat="42.102108" lon="23.572239"><ele>2640.6</ele><time>2026-03-08T11:43:36.000Z</time></trkpt>
<trkpt lat="42.102108" lon="23.572239"><ele>2640.5</ele><time>2026-03-08T11:43:37.000Z</time></trkpt>
<trkpt lat="42.102108" lon="23.572239"><ele>2640.5</ele><time>2026-03-08T11:43:38.000Z</time></trkpt>
<trkpt lat="42.102108" lon="23.572239"><ele>2640.5</ele><time>2026-03-08T11:43:39.000Z</time></trkpt>
<trkpt lat="42.102108" lon="23.572239"><ele>2640.5</ele><time>2026-03-08T11:43:40.000Z</time></trkpt>
<trkpt lat="42.102108" lon="23.572239"><ele>2640.5</ele><time>2026-03-08T11:43:41.000Z</time></trkpt>
<trkpt lat="42.102108" lon="23.572239"><ele>2640.5</ele><time>2026-03-08T11:43:42.000Z</time></trkpt>
<trkpt lat="42.102108" lon="23.57224"><ele>2640.5</ele><time>2026-03-08T11:43:43.000Z</time></trkpt>
<trkpt lat="42.102108" lon="23.57224"><ele>2640.5</ele><time>2026-03-08T11:43:44.000Z</time></trkpt>
<trkpt lat="42.102108" lon="23.57224"><ele>2640.5</ele><time>2026-03-08T11:43:45.000Z</time></trkpt>
<trkpt lat="42.102108" lon="23.57224"><ele>2640.5</ele><time>2026-03-08T11:43:46.000Z</time></trkpt>
<trkpt lat="42.102108" lon="23.572241"><ele>2640.5</ele><time>2026-03-08T11:43:47.000Z</time></trkpt>
<trkpt lat="42.102108" lon="23.572241"><ele>2640.5</ele><time>2026-03-08T11:43:48.000Z</time></trkpt>
<trkpt lat="42.102108" lon="23.572241"><ele>2640.5</ele><time>2026-03-08T11:43:49.000Z</time></trkpt>
<trkpt lat="42.102108" lon="23.572241"><ele>2640.5</ele><time>2026-03-08T11:43:50.000Z</time></trkpt>
<trkpt lat="42.102108" lon="23.57224"><ele>2640.5</ele><time>2026-03-08T11:43:51.000Z</time></trkpt>
<trkpt lat="42.102108" lon="23.57224"><ele>2640.7</ele><time>2026-03-08T11:43:52.000Z</time></trkpt>
<trkpt lat="42.102108" lon="23.572239"><ele>2640.7</ele><time>2026-03-08T11:43:53.000Z</time></trkpt>
<trkpt lat="42.102108" lon="23.572239"><ele>2640.7</ele><time>2026-03-08T11:43:54.000Z</time></trkpt>
<trkpt lat="42.102108" lon="23.572239"><ele>2640.7</ele><time>2026-03-08T11:43:55.000Z</time></trkpt>
<trkpt lat="42.102108" lon="23.57224"><ele>2640.7</ele><time>2026-03-08T11:43:56.000Z</time></trkpt>
<trkpt lat="42.102109" lon="23.57224"><ele>2640.8</ele><time>2026-03-08T11:43:57.000Z</time></trkpt>
<trkpt lat="42.10211" lon="23.572239"><ele>2640.8</ele><time>2026-03-08T11:43:58.000Z</time></trkpt>
<trkpt lat="42.10211" lon="23.572239"><ele>2640.8</ele><time>2026-03-08T11:43:59.000Z</time></trkpt>
<trkpt lat="42.102112" lon="23.572237"><ele>2640.8</ele><time>2026-03-08T11:44:00.000Z</time></trkpt>
<trkpt lat="42.102115" lon="23.572235"><ele>2640.8</ele><time>2026-03-08T11:44:01.000Z</time></trkpt>
<trkpt lat="42.102118" lon="23.572233"><ele>2641</ele><time>2026-03-08T11:44:02.000Z</time></trkpt>
<trkpt lat="42.102121" lon="23.572232"><ele>2641</ele><time>2026-03-08T11:44:03.000Z</time></trkpt>
<trkpt lat="42.102123" lon="23.572231"><ele>2641</ele><time>2026-03-08T11:44:04.000Z</time></trkpt>
<trkpt lat="42.102125" lon="23.572231"><ele>2641</ele><time>2026-03-08T11:44:05.000Z</time></trkpt>
<trkpt lat="42.102124" lon="23.57223"><ele>2641</ele><time>2026-03-08T11:44:06.000Z</time></trkpt>
<trkpt lat="42.102124" lon="23.572229"><ele>2640.9</ele><time>2026-03-08T11:44:07.000Z</time></trkpt>
<trkpt lat="42.102123" lon="23.572228"><ele>2640.9</ele><time>2026-03-08T11:44:08.000Z</time></trkpt>
<trkpt lat="42.102122" lon="23.572227"><ele>2640.9</ele><time>2026-03-08T11:44:09.000Z</time></trkpt>
<trkpt lat="42.102121" lon="23.572227"><ele>2640.9</ele><time>2026-03-08T11:44:10.000Z</time></trkpt>
<trkpt lat="42.102121" lon="23.572228"><ele>2640.9</ele><time>2026-03-08T11:44:11.000Z</time></trkpt>
<trkpt lat="42.102121" lon="23.572228"><ele>2640.9</ele><time>2026-03-08T11:44:12.000Z</time></trkpt>
<trkpt lat="42.102121" lon="23.572229"><ele>2640.9</ele><time>2026-03-08T11:44:13.000Z</time></trkpt>
<trkpt lat="42.102122" lon="23.572229"><ele>2640.9</ele><time>2026-03-08T11:44:14.000Z</time></trkpt>
<trkpt lat="42.102122" lon="23.572229"><ele>2640.9</ele><time>2026-03-08T11:44:15.000Z</time></trkpt>
<trkpt lat="42.102122" lon="23.572229"><ele>2640.9</ele><time>2026-03-08T11:44:16.000Z</time></trkpt>
<trkpt lat="42.102122" lon="23.572229"><ele>2641</ele><time>2026-03-08T11:44:17.000Z</time></trkpt>
<trkpt lat="42.102122" lon="23.572229"><ele>2641</ele><time>2026-03-08T11:44:18.000Z</time></trkpt>
<trkpt lat="42.102122" lon="23.572229"><ele>2641</ele><time>2026-03-08T11:44:19.000Z</time></trkpt>
<trkpt lat="42.102122" lon="23.572229"><ele>2641</ele><time>2026-03-08T11:44:20.000Z</time></trkpt>
<trkpt lat="42.102122" lon="23.572229"><ele>2641</ele><time>2026-03-08T11:44:21.000Z</time></trkpt>
<trkpt lat="42.102122" lon="23.572229"><ele>2641.2</ele><time>2026-03-08T11:44:22.000Z</time></trkpt>
<trkpt lat="42.102122" lon="23.572229"><ele>2641.2</ele><time>2026-03-08T11:44:23.000Z</time></trkpt>
<trkpt lat="42.102122" lon="23.572229"><ele>2641.2</ele><time>2026-03-08T11:44:24.000Z</time></trkpt>
<trkpt lat="42.102122" lon="23.572229"><ele>2641.2</ele><time>2026-03-08T11:44:25.000Z</time></trkpt>
<trkpt lat="42.102122" lon="23.572229"><ele>2641.2</ele><time>2026-03-08T11:44:26.000Z</time></trkpt>
<trkpt lat="42.102122" lon="23.572229"><ele>2641.3</ele><time>2026-03-08T11:44:27.000Z</time></trkpt>
<trkpt lat="42.102122" lon="23.572229"><ele>2641.3</ele><time>2026-03-08T11:44:28.000Z</time></trkpt>
<trkpt lat="42.102122" lon="23.572229"><ele>2641.3</ele><time>2026-03-08T11:44:29.000Z</time></trkpt>
<trkpt lat="42.102122" lon="23.572229"><ele>2641.3</ele><time>2026-03-08T11:44:30.000Z</time></trkpt>
<trkpt lat="42.102122" lon="23.572229"><ele>2641.3</ele><time>2026-03-08T11:44:31.000Z</time></trkpt>
<trkpt lat="42.102122" lon="23.572229"><ele>2641.4</ele><time>2026-03-08T11:44:32.000Z</time></trkpt>
<trkpt lat="42.102122" lon="23.572229"><ele>2641.4</ele><time>2026-03-08T11:44:33.000Z</time></trkpt>
<trkpt lat="42.102122" lon="23.572228"><ele>2641.4</ele><time>2026-03-08T11:44:34.000Z</time></trkpt>
<trkpt lat="42.102123" lon="23.572228"><ele>2641.4</ele><time>2026-03-08T11:44:35.000Z</time></trkpt>
<trkpt lat="42.102123" lon="23.572228"><ele>2641.4</ele><time>2026-03-08T11:44:36.000Z</time></trkpt>
<trkpt lat="42.102123" lon="23.572228"><ele>2641.4</ele><time>2026-03-08T11:44:37.000Z</time></trkpt>
<trkpt lat="42.102123" lon="23.572228"><ele>2641.4</ele><time>2026-03-08T11:44:38.000Z</time></trkpt>
<trkpt lat="42.102123" lon="23.572228"><ele>2641.4</ele><time>2026-03-08T11:44:39.000Z</time></trkpt>
<trkpt lat="42.102123" lon="23.572228"><ele>2641.4</ele><time>2026-03-08T11:44:40.000Z</time></trkpt>
<trkpt lat="42.102123" lon="23.572228"><ele>2641.4</ele><time>2026-03-08T11:44:41.000Z</time></trkpt>
<trkpt lat="42.102123" lon="23.572228"><ele>2641.3</ele><time>2026-03-08T11:44:42.000Z</time></trkpt>
<trkpt lat="42.102123" lon="23.572228"><ele>2641.3</ele><time>2026-03-08T11:44:43.000Z</time></trkpt>
<trkpt lat="42.102123" lon="23.572228"><ele>2641.3</ele><time>2026-03-08T11:44:44.000Z</time></trkpt>
<trkpt lat="42.102123" lon="23.572228"><ele>2641.3</ele><time>2026-03-08T11:44:45.000Z</time></trkpt>
<trkpt lat="42.102123" lon="23.572228"><ele>2641.3</ele><time>2026-03-08T11:44:46.000Z</time></trkpt>
<trkpt lat="42.102123" lon="23.572228"><ele>2641.5</ele><time>2026-03-08T11:44:47.000Z</time></trkpt>
<trkpt lat="42.102123" lon="23.572228"><ele>2641.5</ele><time>2026-03-08T11:44:48.000Z</time></trkpt>
<trkpt lat="42.102123" lon="23.572228"><ele>2641.5</ele><time>2026-03-08T11:44:49.000Z</time></trkpt>
<trkpt lat="42.102123" lon="23.572228"><ele>2641.5</ele><time>2026-03-08T11:44:50.000Z</time></trkpt>
<trkpt lat="42.102123" lon="23.572228"><ele>2641.5</ele><time>2026-03-08T11:44:51.000Z</time></trkpt>
<trkpt lat="42.102123" lon="23.572228"><ele>2641.7</ele><time>2026-03-08T11:44:52.000Z</time></trkpt>
<trkpt lat="42.102123" lon="23.572229"><ele>2641.7</ele><time>2026-03-08T11:44:53.000Z</time></trkpt>
<trkpt lat="42.102122" lon="23.572231"><ele>2641.7</ele><time>2026-03-08T11:44:54.000Z</time></trkpt>
<trkpt lat="42.102122" lon="23.572236"><ele>2641.7</ele><time>2026-03-08T11:44:55.000Z</time></trkpt>
<trkpt lat="42.102122" lon="23.572241"><ele>2641.7</ele><time>2026-03-08T11:44:56.000Z</time></trkpt>
<trkpt lat="42.102121" lon="23.572249"><ele>2641.7</ele><time>2026-03-08T11:44:57.000Z</time></trkpt>
<trkpt lat="42.10212" lon="23.572258"><ele>2641.7</ele><time>2026-03-08T11:44:58.000Z</time></trkpt>
<trkpt lat="42.102119" lon="23.572265"><ele>2641.7</ele><time>2026-03-08T11:44:59.000Z</time></trkpt>
<trkpt lat="42.102118" lon="23.572269"><ele>2641.7</ele><time>2026-03-08T11:45:00.000Z</time></trkpt>
<trkpt lat="42.102117" lon="23.572273"><ele>2641.7</ele><time>2026-03-08T11:45:01.000Z</time></trkpt>
<trkpt lat="42.102117" lon="23.572276"><ele>2641.6</ele><time>2026-03-08T11:45:02.000Z</time></trkpt>
<trkpt lat="42.102117" lon="23.572278"><ele>2641.6</ele><time>2026-03-08T11:45:03.000Z</time></trkpt>
<trkpt lat="42.102118" lon="23.572282"><ele>2641.6</ele><time>2026-03-08T11:45:04.000Z</time></trkpt>
<trkpt lat="42.102119" lon="23.57229"><ele>2641.6</ele><time>2026-03-08T11:45:05.000Z</time></trkpt>
<trkpt lat="42.10212" lon="23.572297"><ele>2641.6</ele><time>2026-03-08T11:45:06.000Z</time></trkpt>
<trkpt lat="42.10212" lon="23.572303"><ele>2641.5</ele><time>2026-03-08T11:45:07.000Z</time></trkpt>
<trkpt lat="42.102119" lon="23.572307"><ele>2641.5</ele><time>2026-03-08T11:45:08.000Z</time></trkpt>
<trkpt lat="42.102119" lon="23.57231"><ele>2641.5</ele><time>2026-03-08T11:45:09.000Z</time></trkpt>
<trkpt lat="42.102118" lon="23.572311"><ele>2641.5</ele><time>2026-03-08T11:45:10.000Z</time></trkpt>
<trkpt lat="42.102118" lon="23.572311"><ele>2641.5</ele><time>2026-03-08T11:45:11.000Z</time></trkpt>
<trkpt lat="42.102118" lon="23.572311"><ele>2641.4</ele><time>2026-03-08T11:45:12.000Z</time></trkpt>
<trkpt lat="42.102118" lon="23.572312"><ele>2641.4</ele><time>2026-03-08T11:45:13.000Z</time></trkpt>
<trkpt lat="42.102117" lon="23.572312"><ele>2641.4</ele><time>2026-03-08T11:45:14.000Z</time></trkpt>
<trkpt lat="42.102117" lon="23.572313"><ele>2641.4</ele><time>2026-03-08T11:45:15.000Z</time></trkpt>
<trkpt lat="42.102117" lon="23.572316"><ele>2641.4</ele><time>2026-03-08T11:45:16.000Z</time></trkpt>
<trkpt lat="42.102117" lon="23.572318"><ele>2641.6</ele><time>2026-03-08T11:45:17.000Z</time></trkpt>
<trkpt lat="42.102116" lon="23.572321"><ele>2641.6</ele><time>2026-03-08T11:45:18.000Z</time></trkpt>
<trkpt lat="42.102114" lon="23.572325"><ele>2641.6</ele><time>2026-03-08T11:45:19.000Z</time></trkpt>
<trkpt lat="42.102112" lon="23.572328"><ele>2641.6</ele><time>2026-03-08T11:45:20.000Z</time></trkpt>
<trkpt lat="42.102111" lon="23.572329"><ele>2641.6</ele><time>2026-03-08T11:45:21.000Z</time></trkpt>
<trkpt lat="42.10211" lon="23.57233"><ele>2641.8</ele><time>2026-03-08T11:45:22.000Z</time></trkpt>
<trkpt lat="42.10211" lon="23.572329"><ele>2641.8</ele><time>2026-03-08T11:45:23.000Z</time></trkpt>
<trkpt lat="42.10211" lon="23.572328"><ele>2641.8</ele><time>2026-03-08T11:45:24.000Z</time></trkpt>
<trkpt lat="42.102111" lon="23.572327"><ele>2641.8</ele><time>2026-03-08T11:45:25.000Z</time></trkpt>
<trkpt lat="42.102112" lon="23.572326"><ele>2641.8</ele><time>2026-03-08T11:45:26.000Z</time></trkpt>
<trkpt lat="42.102111" lon="23.572327"><ele>2641.8</ele><time>2026-03-08T11:45:27.000Z</time></trkpt>
<trkpt lat="42.102109" lon="23.572328"><ele>2641.8</ele><time>2026-03-08T11:45:28.000Z</time></trkpt>
<trkpt lat="42.102109" lon="23.572328"><ele>2641.8</ele><time>2026-03-08T11:45:29.000Z</time></trkpt>
<trkpt lat="42.102108" lon="23.572328"><ele>2641.8</ele><time>2026-03-08T11:45:30.000Z</time></trkpt>
<trkpt lat="42.102108" lon="23.572329"><ele>2641.8</ele><time>2026-03-08T11:45:31.000Z</time></trkpt>
<trkpt lat="42.102109" lon="23.57233"><ele>2641.8</ele><time>2026-03-08T11:45:32.000Z</time></trkpt>
<trkpt lat="42.10211" lon="23.572332"><ele>2641.8</ele><time>2026-03-08T11:45:33.000Z</time></trkpt>
<trkpt lat="42.102109" lon="23.572334"><ele>2641.8</ele><time>2026-03-08T11:45:34.000Z</time></trkpt>
<trkpt lat="42.102109" lon="23.572337"><ele>2641.8</ele><time>2026-03-08T11:45:35.000Z</time></trkpt>
<trkpt lat="42.102109" lon="23.572338"><ele>2641.8</ele><time>2026-03-08T11:45:36.000Z</time></trkpt>
<trkpt lat="42.10211" lon="23.572339"><ele>2641.7</ele><time>2026-03-08T11:45:37.000Z</time></trkpt>
<trkpt lat="42.102111" lon="23.572339"><ele>2641.7</ele><time>2026-03-08T11:45:38.000Z</time></trkpt>
<trkpt lat="42.102112" lon="23.572339"><ele>2641.7</ele><time>2026-03-08T11:45:39.000Z</time></trkpt>
<trkpt lat="42.102113" lon="23.572339"><ele>2641.7</ele><time>2026-03-08T11:45:40.000Z</time></trkpt>
<trkpt lat="42.102113" lon="23.572339"><ele>2641.7</ele><time>2026-03-08T11:45:41.000Z</time></trkpt>
<trkpt lat="42.102113" lon="23.57234"><ele>2641.7</ele><time>2026-03-08T11:45:42.000Z</time></trkpt>
<trkpt lat="42.102113" lon="23.57234"><ele>2641.7</ele><time>2026-03-08T11:45:43.000Z</time></trkpt>
<trkpt lat="42.102113" lon="23.57234"><ele>2641.7</ele><time>2026-03-08T11:45:44.000Z</time></trkpt>
<trkpt lat="42.102113" lon="23.57234"><ele>2641.7</ele><time>2026-03-08T11:45:45.000Z</time></trkpt>
<trkpt lat="42.102113" lon="23.572339"><ele>2641.7</ele><time>2026-03-08T11:45:46.000Z</time></trkpt>
<trkpt lat="42.102113" lon="23.572339"><ele>2641.7</ele><time>2026-03-08T11:45:47.000Z</time></trkpt>
<trkpt lat="42.102112" lon="23.572338"><ele>2641.7</ele><time>2026-03-08T11:45:48.000Z</time></trkpt>
<trkpt lat="42.102112" lon="23.572338"><ele>2641.7</ele><time>2026-03-08T11:45:49.000Z</time></trkpt>
<trkpt lat="42.102112" lon="23.572337"><ele>2641.7</ele><time>2026-03-08T11:45:50.000Z</time></trkpt>
<trkpt lat="42.102112" lon="23.572337"><ele>2641.7</ele><time>2026-03-08T11:45:51.000Z</time></trkpt>
<trkpt lat="42.102113" lon="23.572337"><ele>2641.8</ele><time>2026-03-08T11:45:52.000Z</time></trkpt>
<trkpt lat="42.102113" lon="23.572336"><ele>2641.8</ele><time>2026-03-08T11:45:53.000Z</time></trkpt>
<trkpt lat="42.102114" lon="23.572335"><ele>2641.8</ele><time>2026-03-08T11:45:54.000Z</time></trkpt>
<trkpt lat="42.102113" lon="23.572334"><ele>2641.8</ele><time>2026-03-08T11:45:55.000Z</time></trkpt>
<trkpt lat="42.102113" lon="23.572333"><ele>2641.8</ele><time>2026-03-08T11:45:56.000Z</time></trkpt>
<trkpt lat="42.102113" lon="23.572332"><ele>2641.8</ele><time>2026-03-08T11:45:57.000Z</time></trkpt>
<trkpt lat="42.102113" lon="23.572332"><ele>2641.8</ele><time>2026-03-08T11:45:58.000Z</time></trkpt>
<trkpt lat="42.102113" lon="23.572332"><ele>2641.8</ele><time>2026-03-08T11:45:59.000Z</time></trkpt>
<trkpt lat="42.102113" lon="23.572332"><ele>2641.8</ele><time>2026-03-08T11:46:00.000Z</time></trkpt>
<trkpt lat="42.102113" lon="23.572332"><ele>2641.8</ele><time>2026-03-08T11:46:01.000Z</time></trkpt>
<trkpt lat="42.102113" lon="23.572332"><ele>2641.9</ele><time>2026-03-08T11:46:02.000Z</time></trkpt>
<trkpt lat="42.102113" lon="23.572332"><ele>2641.9</ele><time>2026-03-08T11:46:03.000Z</time></trkpt>
<trkpt lat="42.102113" lon="23.572332"><ele>2641.9</ele><time>2026-03-08T11:46:04.000Z</time></trkpt>
<trkpt lat="42.102113" lon="23.572332"><ele>2641.9</ele><time>2026-03-08T11:46:05.000Z</time></trkpt>
<trkpt lat="42.102113" lon="23.572333"><ele>2641.9</ele><time>2026-03-08T11:46:06.000Z</time></trkpt>
<trkpt lat="42.102113" lon="23.572333"><ele>2642</ele><time>2026-03-08T11:46:07.000Z</time></trkpt>
<trkpt lat="42.102114" lon="23.572333"><ele>2642</ele><time>2026-03-08T11:46:08.000Z</time></trkpt>
<trkpt lat="42.102114" lon="23.572333"><ele>2642</ele><time>2026-03-08T11:46:09.000Z</time></trkpt>
<trkpt lat="42.102114" lon="23.572333"><ele>2642</ele><time>2026-03-08T11:46:10.000Z</time></trkpt>
<trkpt lat="42.102114" lon="23.572333"><ele>2642</ele><time>2026-03-08T11:46:11.000Z</time></trkpt>
<trkpt lat="42.102114" lon="23.572333"><ele>2642.1</ele><time>2026-03-08T11:46:12.000Z</time></trkpt>
<trkpt lat="42.102114" lon="23.572333"><ele>2642.1</ele><time>2026-03-08T11:46:13.000Z</time></trkpt>
<trkpt lat="42.102113" lon="23.572333"><ele>2642.1</ele><time>2026-03-08T11:46:14.000Z</time></trkpt>
<trkpt lat="42.102113" lon="23.572333"><ele>2642.1</ele><time>2026-03-08T11:46:15.000Z</time></trkpt>
<trkpt lat="42.102113" lon="23.572333"><ele>2642.1</ele><time>2026-03-08T11:46:16.000Z</time></trkpt>
<trkpt lat="42.102112" lon="23.572334"><ele>2642.2</ele><time>2026-03-08T11:46:17.000Z</time></trkpt>
<trkpt lat="42.102111" lon="23.572334"><ele>2642.2</ele><time>2026-03-08T11:46:18.000Z</time></trkpt>
<trkpt lat="42.102111" lon="23.572334"><ele>2642.2</ele><time>2026-03-08T11:46:19.000Z</time></trkpt>
<trkpt lat="42.10211" lon="23.572334"><ele>2642.2</ele><time>2026-03-08T11:46:20.000Z</time></trkpt>
<trkpt lat="42.10211" lon="23.572334"><ele>2642.2</ele><time>2026-03-08T11:46:21.000Z</time></trkpt>
<trkpt lat="42.10211" lon="23.572334"><ele>2642.3</ele><time>2026-03-08T11:46:22.000Z</time></trkpt>
<trkpt lat="42.10211" lon="23.572334"><ele>2642.3</ele><time>2026-03-08T11:46:23.000Z</time></trkpt>
<trkpt lat="42.10211" lon="23.572334"><ele>2642.3</ele><time>2026-03-08T11:46:24.000Z</time></trkpt>
<trkpt lat="42.10211" lon="23.572334"><ele>2642.3</ele><time>2026-03-08T11:46:25.000Z</time></trkpt>
<trkpt lat="42.10211" lon="23.572334"><ele>2642.3</ele><time>2026-03-08T11:46:26.000Z</time></trkpt>
<trkpt lat="42.10211" lon="23.572334"><ele>2642.2</ele><time>2026-03-08T11:46:27.000Z</time></trkpt>
<trkpt lat="42.10211" lon="23.572334"><ele>2642.2</ele><time>2026-03-08T11:46:28.000Z</time></trkpt>
<trkpt lat="42.10211" lon="23.572334"><ele>2642.2</ele><time>2026-03-08T11:46:29.000Z</time></trkpt>
<trkpt lat="42.10211" lon="23.572334"><ele>2642.2</ele><time>2026-03-08T11:46:30.000Z</time></trkpt>
<trkpt lat="42.10211" lon="23.572334"><ele>2642.2</ele><time>2026-03-08T11:46:31.000Z</time></trkpt>
<trkpt lat="42.10211" lon="23.572334"><ele>2642.2</ele><time>2026-03-08T11:46:32.000Z</time></trkpt>
<trkpt lat="42.10211" lon="23.572334"><ele>2642.2</ele><time>2026-03-08T11:46:33.000Z</time></trkpt>
<trkpt lat="42.10211" lon="23.572334"><ele>2642.2</ele><time>2026-03-08T11:46:34.000Z</time></trkpt>
<trkpt lat="42.10211" lon="23.572334"><ele>2642.2</ele><time>2026-03-08T11:46:35.000Z</time></trkpt>
<trkpt lat="42.10211" lon="23.572334"><ele>2642.2</ele><time>2026-03-08T11:46:36.000Z</time></trkpt>
<trkpt lat="42.10211" lon="23.572334"><ele>2642.2</ele><time>2026-03-08T11:46:37.000Z</time></trkpt>
<trkpt lat="42.10211" lon="23.572334"><ele>2642.2</ele><time>2026-03-08T11:46:38.000Z</time></trkpt>
<trkpt lat="42.10211" lon="23.572333"><ele>2642.2</ele><time>2026-03-08T11:46:39.000Z</time></trkpt>
<trkpt lat="42.10211" lon="23.572332"><ele>2642.2</ele><time>2026-03-08T11:46:40.000Z</time></trkpt>
<trkpt lat="42.10211" lon="23.572331"><ele>2642.2</ele><time>2026-03-08T11:46:41.000Z</time></trkpt>
<trkpt lat="42.10211" lon="23.572331"><ele>2642.1</ele><time>2026-03-08T11:46:42.000Z</time></trkpt>
<trkpt lat="42.10211" lon="23.57233"><ele>2642.1</ele><time>2026-03-08T11:46:43.000Z</time></trkpt>
<trkpt lat="42.10211" lon="23.57233"><ele>2642.1</ele><time>2026-03-08T11:46:44.000Z</time></trkpt>
<trkpt lat="42.10211" lon="23.57233"><ele>2642.1</ele><time>2026-03-08T11:46:45.000Z</time></trkpt>
<trkpt lat="42.10211" lon="23.57233"><ele>2642.1</ele><time>2026-03-08T11:46:46.000Z</time></trkpt>
<trkpt lat="42.10211" lon="23.57233"><ele>2642.2</ele><time>2026-03-08T11:46:47.000Z</time></trkpt>
<trkpt lat="42.10211" lon="23.57233"><ele>2642.2</ele><time>2026-03-08T11:46:48.000Z</time></trkpt>
<trkpt lat="42.10211" lon="23.57233"><ele>2642.2</ele><time>2026-03-08T11:46:49.000Z</time></trkpt>
<trkpt lat="42.10211" lon="23.57233"><ele>2642.2</ele><time>2026-03-08T11:46:50.000Z</time></trkpt>
<trkpt lat="42.10211" lon="23.57233"><ele>2642.2</ele><time>2026-03-08T11:46:51.000Z</time></trkpt>
<trkpt lat="42.10211" lon="23.57233"><ele>2642.3</ele><time>2026-03-08T11:46:52.000Z</time></trkpt>
<trkpt lat="42.10211" lon="23.57233"><ele>2642.3</ele><time>2026-03-08T11:46:53.000Z</time></trkpt>
<trkpt lat="42.10211" lon="23.57233"><ele>2642.3</ele><time>2026-03-08T11:46:54.000Z</time></trkpt>
<trkpt lat="42.10211" lon="23.57233"><ele>2642.3</ele><time>2026-03-08T11:46:55.000Z</time></trkpt>
<trkpt lat="42.10211" lon="23.57233"><ele>2642.3</ele><time>2026-03-08T11:46:56.000Z</time></trkpt>
<trkpt lat="42.10211" lon="23.57233"><ele>2642.3</ele><time>2026-03-08T11:46:57.000Z</time></trkpt>
<trkpt lat="42.10211" lon="23.57233"><ele>2642.3</ele><time>2026-03-08T11:46:58.000Z</time></trkpt>
<trkpt lat="42.10211" lon="23.572331"><ele>2642.3</ele><time>2026-03-08T11:46:59.000Z</time></trkpt>
<trkpt lat="42.10211" lon="23.572331"><ele>2642.3</ele><time>2026-03-08T11:47:00.000Z</time></trkpt>
<trkpt lat="42.10211" lon="23.572331"><ele>2642.3</ele><time>2026-03-08T11:47:01.000Z</time></trkpt>
<trkpt lat="42.10211" lon="23.572331"><ele>2642.3</ele><time>2026-03-08T11:47:02.000Z</time></trkpt>
<trkpt lat="42.10211" lon="23.572332"><ele>2642.3</ele><time>2026-03-08T11:47:03.000Z</time></trkpt>
<trkpt lat="42.10211" lon="23.572332"><ele>2642.3</ele><time>2026-03-08T11:47:04.000Z</time></trkpt>
<trkpt lat="42.10211" lon="23.572332"><ele>2642.3</ele><time>2026-03-08T11:47:05.000Z</time></trkpt>
<trkpt lat="42.10211" lon="23.572332"><ele>2642.3</ele><time>2026-03-08T11:47:06.000Z</time></trkpt>
<trkpt lat="42.10211" lon="23.572332"><ele>2642.2</ele><time>2026-03-08T11:47:07.000Z</time></trkpt>
<trkpt lat="42.10211" lon="23.572333"><ele>2642.2</ele><time>2026-03-08T11:47:08.000Z</time></trkpt>
<trkpt lat="42.10211" lon="23.572333"><ele>2642.2</ele><time>2026-03-08T11:47:09.000Z</time></trkpt>
<trkpt lat="42.102109" lon="23.572334"><ele>2642.2</ele><time>2026-03-08T11:47:10.000Z</time></trkpt>
<trkpt lat="42.102108" lon="23.572335"><ele>2642.2</ele><time>2026-03-08T11:47:11.000Z</time></trkpt>
<trkpt lat="42.102107" lon="23.572335"><ele>2642.3</ele><time>2026-03-08T11:47:12.000Z</time></trkpt>
<trkpt lat="42.102107" lon="23.572336"><ele>2642.3</ele><time>2026-03-08T11:47:13.000Z</time></trkpt>
<trkpt lat="42.102106" lon="23.572336"><ele>2642.3</ele><time>2026-03-08T11:47:14.000Z</time></trkpt>
<trkpt lat="42.102106" lon="23.572336"><ele>2642.3</ele><time>2026-03-08T11:47:15.000Z</time></trkpt>
<trkpt lat="42.102106" lon="23.572336"><ele>2642.3</ele><time>2026-03-08T11:47:16.000Z</time></trkpt>
<trkpt lat="42.102106" lon="23.572336"><ele>2642.4</ele><time>2026-03-08T11:47:17.000Z</time></trkpt>
<trkpt lat="42.102107" lon="23.572337"><ele>2642.4</ele><time>2026-03-08T11:47:18.000Z</time></trkpt>
<trkpt lat="42.102107" lon="23.572337"><ele>2642.4</ele><time>2026-03-08T11:47:19.000Z</time></trkpt>
<trkpt lat="42.102108" lon="23.572337"><ele>2642.4</ele><time>2026-03-08T11:47:20.000Z</time></trkpt>
<trkpt lat="42.102109" lon="23.572338"><ele>2642.4</ele><time>2026-03-08T11:47:21.000Z</time></trkpt>
<trkpt lat="42.10211" lon="23.572338"><ele>2642.4</ele><time>2026-03-08T11:47:22.000Z</time></trkpt>
<trkpt lat="42.102111" lon="23.572338"><ele>2642.4</ele><time>2026-03-08T11:47:23.000Z</time></trkpt>
<trkpt lat="42.102111" lon="23.572338"><ele>2642.4</ele><time>2026-03-08T11:47:24.000Z</time></trkpt>
<trkpt lat="42.102111" lon="23.572337"><ele>2642.4</ele><time>2026-03-08T11:47:25.000Z</time></trkpt>
<trkpt lat="42.102111" lon="23.572337"><ele>2642.4</ele><time>2026-03-08T11:47:26.000Z</time></trkpt>
<trkpt lat="42.102111" lon="23.572337"><ele>2642.4</ele><time>2026-03-08T11:47:27.000Z</time></trkpt>
<trkpt lat="42.10211" lon="23.572336"><ele>2642.4</ele><time>2026-03-08T11:47:28.000Z</time></trkpt>
<trkpt lat="42.10211" lon="23.572334"><ele>2642.4</ele><time>2026-03-08T11:47:29.000Z</time></trkpt>
<trkpt lat="42.102109" lon="23.572333"><ele>2642.4</ele><time>2026-03-08T11:47:30.000Z</time></trkpt>
<trkpt lat="42.102109" lon="23.572332"><ele>2642.4</ele><time>2026-03-08T11:47:31.000Z</time></trkpt>
<trkpt lat="42.102108" lon="23.572331"><ele>2642.3</ele><time>2026-03-08T11:47:32.000Z</time></trkpt>
<trkpt lat="42.102108" lon="23.57233"><ele>2642.3</ele><time>2026-03-08T11:47:33.000Z</time></trkpt>
<trkpt lat="42.102108" lon="23.57233"><ele>2642.3</ele><time>2026-03-08T11:47:34.000Z</time></trkpt>
<trkpt lat="42.102107" lon="23.57233"><ele>2642.3</ele><time>2026-03-08T11:47:35.000Z</time></trkpt>
<trkpt lat="42.102108" lon="23.57233"><ele>2642.3</ele><time>2026-03-08T11:47:36.000Z</time></trkpt>
<trkpt lat="42.102108" lon="23.57233"><ele>2642.1</ele><time>2026-03-08T11:47:37.000Z</time></trkpt>
<trkpt lat="42.102109" lon="23.572331"><ele>2642.1</ele><time>2026-03-08T11:47:38.000Z</time></trkpt>
<trkpt lat="42.102109" lon="23.572331"><ele>2642.1</ele><time>2026-03-08T11:47:39.000Z</time></trkpt>
<trkpt lat="42.10211" lon="23.572331"><ele>2642.1</ele><time>2026-03-08T11:47:40.000Z</time></trkpt>
<trkpt lat="42.102109" lon="23.57233"><ele>2642.1</ele><time>2026-03-08T11:47:41.000Z</time></trkpt>
<trkpt lat="42.102109" lon="23.572329"><ele>2642.1</ele><time>2026-03-08T11:47:42.000Z</time></trkpt>
<trkpt lat="42.102109" lon="23.572327"><ele>2642.1</ele><time>2026-03-08T11:47:43.000Z</time></trkpt>
<trkpt lat="42.102108" lon="23.572326"><ele>2642.1</ele><time>2026-03-08T11:47:44.000Z</time></trkpt>
<trkpt lat="42.102108" lon="23.572325"><ele>2642.1</ele><time>2026-03-08T11:47:45.000Z</time></trkpt>
<trkpt lat="42.102108" lon="23.572324"><ele>2642.1</ele><time>2026-03-08T11:47:46.000Z</time></trkpt>
<trkpt lat="42.102108" lon="23.572324"><ele>2642.2</ele><time>2026-03-08T11:47:47.000Z</time></trkpt>
<trkpt lat="42.102108" lon="23.572325"><ele>2642.2</ele><time>2026-03-08T11:47:48.000Z</time></trkpt>
<trkpt lat="42.102109" lon="23.572325"><ele>2642.2</ele><time>2026-03-08T11:47:49.000Z</time></trkpt>
<trkpt lat="42.102109" lon="23.572326"><ele>2642.2</ele><time>2026-03-08T11:47:50.000Z</time></trkpt>
<trkpt lat="42.102109" lon="23.572326"><ele>2642.2</ele><time>2026-03-08T11:47:51.000Z</time></trkpt>
<trkpt lat="42.102109" lon="23.572327"><ele>2642.4</ele><time>2026-03-08T11:47:52.000Z</time></trkpt>
<trkpt lat="42.102109" lon="23.572327"><ele>2642.4</ele><time>2026-03-08T11:47:53.000Z</time></trkpt>
<trkpt lat="42.102109" lon="23.572327"><ele>2642.4</ele><time>2026-03-08T11:47:54.000Z</time></trkpt>
<trkpt lat="42.10211" lon="23.572327"><ele>2642.4</ele><time>2026-03-08T11:47:55.000Z</time></trkpt>
<trkpt lat="42.10211" lon="23.572327"><ele>2642.4</ele><time>2026-03-08T11:47:56.000Z</time></trkpt>
<trkpt lat="42.10211" lon="23.572327"><ele>2642.4</ele><time>2026-03-08T11:47:57.000Z</time></trkpt>
<trkpt lat="42.10211" lon="23.572327"><ele>2642.4</ele><time>2026-03-08T11:47:58.000Z</time></trkpt>
<trkpt lat="42.10211" lon="23.572327"><ele>2642.4</ele><time>2026-03-08T11:47:59.000Z</time></trkpt>
<trkpt lat="42.10211" lon="23.572327"><ele>2642.4</ele><time>2026-03-08T11:48:00.000Z</time></trkpt>
<trkpt lat="42.10211" lon="23.572327"><ele>2642.4</ele><time>2026-03-08T11:48:01.000Z</time></trkpt>
<trkpt lat="42.10211" lon="23.572327"><ele>2642.4</ele><time>2026-03-08T11:48:02.000Z</time></trkpt>
<trkpt lat="42.10211" lon="23.572326"><ele>2642.4</ele><time>2026-03-08T11:48:03.000Z</time></trkpt>
<trkpt lat="42.10211" lon="23.572326"><ele>2642.4</ele><time>2026-03-08T11:48:04.000Z</time></trkpt>
<trkpt lat="42.10211" lon="23.572326"><ele>2642.4</ele><time>2026-03-08T11:48:05.000Z</time></trkpt>
<trkpt lat="42.10211" lon="23.572325"><ele>2642.4</ele><time>2026-03-08T11:48:06.000Z</time></trkpt>
<trkpt lat="42.10211" lon="23.572325"><ele>2642.5</ele><time>2026-03-08T11:48:07.000Z</time></trkpt>
<trkpt lat="42.10211" lon="23.572325"><ele>2642.5</ele><time>2026-03-08T11:48:08.000Z</time></trkpt>
<trkpt lat="42.10211" lon="23.572325"><ele>2642.5</ele><time>2026-03-08T11:48:09.000Z</time></trkpt>
<trkpt lat="42.10211" lon="23.572325"><ele>2642.5</ele><time>2026-03-08T11:48:10.000Z</time></trkpt>
<trkpt lat="42.10211" lon="23.572325"><ele>2642.5</ele><time>2026-03-08T11:48:11.000Z</time></trkpt>
<trkpt lat="42.10211" lon="23.572325"><ele>2642.5</ele><time>2026-03-08T11:48:12.000Z</time></trkpt>
<trkpt lat="42.10211" lon="23.572325"><ele>2642.5</ele><time>2026-03-08T11:48:13.000Z</time></trkpt>
<trkpt lat="42.10211" lon="23.572325"><ele>2642.5</ele><time>2026-03-08T11:48:14.000Z</time></trkpt>
<trkpt lat="42.10211" lon="23.572325"><ele>2642.5</ele><time>2026-03-08T11:48:15.000Z</time></trkpt>
<trkpt lat="42.10211" lon="23.572325"><ele>2642.5</ele><time>2026-03-08T11:48:16.000Z</time></trkpt>
<trkpt lat="42.10211" lon="23.572326"><ele>2642.3</ele><time>2026-03-08T11:48:17.000Z</time></trkpt>
<trkpt lat="42.10211" lon="23.572326"><ele>2642.3</ele><time>2026-03-08T11:48:18.000Z</time></trkpt>
<trkpt lat="42.10211" lon="23.572327"><ele>2642.3</ele><time>2026-03-08T11:48:19.000Z</time></trkpt>
<trkpt lat="42.102111" lon="23.572327"><ele>2642.3</ele><time>2026-03-08T11:48:20.000Z</time></trkpt>
<trkpt lat="42.102111" lon="23.572328"><ele>2642.3</ele><time>2026-03-08T11:48:21.000Z</time></trkpt>
<trkpt lat="42.102112" lon="23.572329"><ele>2642.2</ele><time>2026-03-08T11:48:22.000Z</time></trkpt>
<trkpt lat="42.102113" lon="23.572328"><ele>2642.2</ele><time>2026-03-08T11:48:23.000Z</time></trkpt>
<trkpt lat="42.102114" lon="23.572325"><ele>2642.2</ele><time>2026-03-08T11:48:24.000Z</time></trkpt>
<trkpt lat="42.102114" lon="23.572321"><ele>2642.2</ele><time>2026-03-08T11:48:25.000Z</time></trkpt>
<trkpt lat="42.102115" lon="23.572315"><ele>2642.2</ele><time>2026-03-08T11:48:26.000Z</time></trkpt>
<trkpt lat="42.102117" lon="23.572305"><ele>2642.3</ele><time>2026-03-08T11:48:27.000Z</time></trkpt>
<trkpt lat="42.102119" lon="23.572294"><ele>2642.3</ele><time>2026-03-08T11:48:28.000Z</time></trkpt>
<trkpt lat="42.102121" lon="23.572281"><ele>2642.3</ele><time>2026-03-08T11:48:29.000Z</time></trkpt>
<trkpt lat="42.102124" lon="23.572266"><ele>2642.3</ele><time>2026-03-08T11:48:30.000Z</time></trkpt>
<trkpt lat="42.102126" lon="23.572251"><ele>2642.3</ele><time>2026-03-08T11:48:31.000Z</time></trkpt>
<trkpt lat="42.102126" lon="23.572238"><ele>2642.5</ele><time>2026-03-08T11:48:32.000Z</time></trkpt>
<trkpt lat="42.102123" lon="23.572227"><ele>2642.5</ele><time>2026-03-08T11:48:33.000Z</time></trkpt>
<trkpt lat="42.10212" lon="23.572221"><ele>2642.5</ele><time>2026-03-08T11:48:34.000Z</time></trkpt>
<trkpt lat="42.102118" lon="23.572219"><ele>2642.5</ele><time>2026-03-08T11:48:35.000Z</time></trkpt>
<trkpt lat="42.102116" lon="23.572218"><ele>2642.5</ele><time>2026-03-08T11:48:36.000Z</time></trkpt>
<trkpt lat="42.102117" lon="23.572219"><ele>2642.4</ele><time>2026-03-08T11:48:37.000Z</time></trkpt>
<trkpt lat="42.102118" lon="23.572221"><ele>2642.4</ele><time>2026-03-08T11:48:38.000Z</time></trkpt>
<trkpt lat="42.102119" lon="23.572222"><ele>2642.4</ele><time>2026-03-08T11:48:39.000Z</time></trkpt>
<trkpt lat="42.102119" lon="23.572223"><ele>2642.4</ele><time>2026-03-08T11:48:40.000Z</time></trkpt>
<trkpt lat="42.102119" lon="23.572225"><ele>2642.4</ele><time>2026-03-08T11:48:41.000Z</time></trkpt>
<trkpt lat="42.102119" lon="23.57223"><ele>2642.1</ele><time>2026-03-08T11:48:42.000Z</time></trkpt>
<trkpt lat="42.10212" lon="23.572236"><ele>2642.1</ele><time>2026-03-08T11:48:43.000Z</time></trkpt>
<trkpt lat="42.102122" lon="23.572245"><ele>2642.1</ele><time>2026-03-08T11:48:44.000Z</time></trkpt>
<trkpt lat="42.102122" lon="23.572255"><ele>2642.1</ele><time>2026-03-08T11:48:45.000Z</time></trkpt>
<trkpt lat="42.102122" lon="23.572263"><ele>2642.1</ele><time>2026-03-08T11:48:46.000Z</time></trkpt>
<trkpt lat="42.102121" lon="23.572269"><ele>2641.6</ele><time>2026-03-08T11:48:47.000Z</time></trkpt>
<trkpt lat="42.10212" lon="23.572273"><ele>2641.6</ele><time>2026-03-08T11:48:48.000Z</time></trkpt>
<trkpt lat="42.102118" lon="23.572274"><ele>2641.6</ele><time>2026-03-08T11:48:49.000Z</time></trkpt>
<trkpt lat="42.102118" lon="23.572274"><ele>2641.6</ele><time>2026-03-08T11:48:50.000Z</time></trkpt>
<trkpt lat="42.102119" lon="23.572274"><ele>2641.6</ele><time>2026-03-08T11:48:51.000Z</time></trkpt>
<trkpt lat="42.102119" lon="23.572274"><ele>2641.5</ele><time>2026-03-08T11:48:52.000Z</time></trkpt>
<trkpt lat="42.102119" lon="23.572275"><ele>2641.5</ele><time>2026-03-08T11:48:53.000Z</time></trkpt>
<trkpt lat="42.102119" lon="23.572275"><ele>2641.5</ele><time>2026-03-08T11:48:54.000Z</time></trkpt>
<trkpt lat="42.102119" lon="23.572275"><ele>2641.5</ele><time>2026-03-08T11:48:55.000Z</time></trkpt>
<trkpt lat="42.102119" lon="23.572275"><ele>2641.5</ele><time>2026-03-08T11:48:56.000Z</time></trkpt>
<trkpt lat="42.102119" lon="23.572275"><ele>2641.6</ele><time>2026-03-08T11:48:57.000Z</time></trkpt>
<trkpt lat="42.102119" lon="23.572275"><ele>2641.6</ele><time>2026-03-08T11:48:58.000Z</time></trkpt>
<trkpt lat="42.102119" lon="23.572275"><ele>2641.6</ele><time>2026-03-08T11:48:59.000Z</time></trkpt>
<trkpt lat="42.102119" lon="23.572275"><ele>2641.6</ele><time>2026-03-08T11:49:00.000Z</time></trkpt>
<trkpt lat="42.102119" lon="23.572275"><ele>2641.6</ele><time>2026-03-08T11:49:01.000Z</time></trkpt>
<trkpt lat="42.102119" lon="23.572275"><ele>2641.9</ele><time>2026-03-08T11:49:02.000Z</time></trkpt>
<trkpt lat="42.102119" lon="23.572275"><ele>2641.9</ele><time>2026-03-08T11:49:03.000Z</time></trkpt>
<trkpt lat="42.102119" lon="23.572275"><ele>2641.9</ele><time>2026-03-08T11:49:04.000Z</time></trkpt>
<trkpt lat="42.102119" lon="23.572275"><ele>2641.9</ele><time>2026-03-08T11:49:05.000Z</time></trkpt>
<trkpt lat="42.102119" lon="23.572275"><ele>2641.9</ele><time>2026-03-08T11:49:06.000Z</time></trkpt>
<trkpt lat="42.102119" lon="23.572275"><ele>2642</ele><time>2026-03-08T11:49:07.000Z</time></trkpt>
<trkpt lat="42.102119" lon="23.572275"><ele>2642</ele><time>2026-03-08T11:49:08.000Z</time></trkpt>
<trkpt lat="42.102119" lon="23.572275"><ele>2642</ele><time>2026-03-08T11:49:09.000Z</time></trkpt>
<trkpt lat="42.102119" lon="23.572275"><ele>2642</ele><time>2026-03-08T11:49:10.000Z</time></trkpt>
<trkpt lat="42.102119" lon="23.572275"><ele>2642</ele><time>2026-03-08T11:49:11.000Z</time></trkpt>
<trkpt lat="42.102119" lon="23.572275"><ele>2642</ele><time>2026-03-08T11:49:12.000Z</time></trkpt>
<trkpt lat="42.102119" lon="23.572275"><ele>2642</ele><time>2026-03-08T11:49:13.000Z</time></trkpt>
<trkpt lat="42.102119" lon="23.572275"><ele>2642</ele><time>2026-03-08T11:49:14.000Z</time></trkpt>
<trkpt lat="42.102119" lon="23.572275"><ele>2642</ele><time>2026-03-08T11:49:15.000Z</time></trkpt>
<trkpt lat="42.102119" lon="23.572275"><ele>2642</ele><time>2026-03-08T11:49:16.000Z</time></trkpt>
<trkpt lat="42.102119" lon="23.572275"><ele>2641.8</ele><time>2026-03-08T11:49:17.000Z</time></trkpt>
<trkpt lat="42.102119" lon="23.572275"><ele>2641.8</ele><time>2026-03-08T11:49:18.000Z</time></trkpt>
<trkpt lat="42.102119" lon="23.572275"><ele>2641.8</ele><time>2026-03-08T11:49:19.000Z</time></trkpt>
<trkpt lat="42.102119" lon="23.572274"><ele>2641.8</ele><time>2026-03-08T11:49:20.000Z</time></trkpt>
<trkpt lat="42.102119" lon="23.572274"><ele>2641.8</ele><time>2026-03-08T11:49:21.000Z</time></trkpt>
<trkpt lat="42.102118" lon="23.572274"><ele>2641.7</ele><time>2026-03-08T11:49:22.000Z</time></trkpt>
<trkpt lat="42.102118" lon="23.572273"><ele>2641.7</ele><time>2026-03-08T11:49:23.000Z</time></trkpt>
<trkpt lat="42.102118" lon="23.572273"><ele>2641.7</ele><time>2026-03-08T11:49:24.000Z</time></trkpt>
<trkpt lat="42.102118" lon="23.572273"><ele>2641.7</ele><time>2026-03-08T11:49:25.000Z</time></trkpt>
<trkpt lat="42.102118" lon="23.572273"><ele>2641.7</ele><time>2026-03-08T11:49:26.000Z</time></trkpt>
<trkpt lat="42.102118" lon="23.572273"><ele>2641.6</ele><time>2026-03-08T11:49:27.000Z</time></trkpt>
<trkpt lat="42.102118" lon="23.572273"><ele>2641.6</ele><time>2026-03-08T11:49:28.000Z</time></trkpt>
<trkpt lat="42.102118" lon="23.572273"><ele>2641.6</ele><time>2026-03-08T11:49:29.000Z</time></trkpt>
<trkpt lat="42.102118" lon="23.572273"><ele>2641.6</ele><time>2026-03-08T11:49:30.000Z</time></trkpt>
<trkpt lat="42.102118" lon="23.572273"><ele>2641.6</ele><time>2026-03-08T11:49:31.000Z</time></trkpt>
<trkpt lat="42.102118" lon="23.572273"><ele>2641.6</ele><time>2026-03-08T11:49:32.000Z</time></trkpt>
<trkpt lat="42.102118" lon="23.572273"><ele>2641.6</ele><time>2026-03-08T11:49:33.000Z</time></trkpt>
<trkpt lat="42.102118" lon="23.572274"><ele>2641.6</ele><time>2026-03-08T11:49:34.000Z</time></trkpt>
<trkpt lat="42.102117" lon="23.572274"><ele>2641.6</ele><time>2026-03-08T11:49:35.000Z</time></trkpt>
<trkpt lat="42.102116" lon="23.572276"><ele>2641.6</ele><time>2026-03-08T11:49:36.000Z</time></trkpt>
<trkpt lat="42.102115" lon="23.572279"><ele>2641.7</ele><time>2026-03-08T11:49:37.000Z</time></trkpt>
<trkpt lat="42.102114" lon="23.572284"><ele>2641.7</ele><time>2026-03-08T11:49:38.000Z</time></trkpt>
<trkpt lat="42.102112" lon="23.572291"><ele>2641.7</ele><time>2026-03-08T11:49:39.000Z</time></trkpt>
<trkpt lat="42.10211" lon="23.572298"><ele>2641.7</ele><time>2026-03-08T11:49:40.000Z</time></trkpt>
<trkpt lat="42.102108" lon="23.572306"><ele>2641.7</ele><time>2026-03-08T11:49:41.000Z</time></trkpt>
<trkpt lat="42.102108" lon="23.572314"><ele>2641.8</ele><time>2026-03-08T11:49:42.000Z</time></trkpt>
<trkpt lat="42.102108" lon="23.572323"><ele>2641.8</ele><time>2026-03-08T11:49:43.000Z</time></trkpt>
<trkpt lat="42.102109" lon="23.572331"><ele>2641.8</ele><time>2026-03-08T11:49:44.000Z</time></trkpt>
<trkpt lat="42.102112" lon="23.572338"><ele>2641.8</ele><time>2026-03-08T11:49:45.000Z</time></trkpt>
<trkpt lat="42.102114" lon="23.572344"><ele>2641.8</ele><time>2026-03-08T11:49:46.000Z</time></trkpt>
<trkpt lat="42.102116" lon="23.572349"><ele>2642.2</ele><time>2026-03-08T11:49:47.000Z</time></trkpt>
<trkpt lat="42.102117" lon="23.572352"><ele>2642.2</ele><time>2026-03-08T11:49:48.000Z</time></trkpt>
<trkpt lat="42.102117" lon="23.572352"><ele>2642.2</ele><time>2026-03-08T11:49:49.000Z</time></trkpt>
<trkpt lat="42.102116" lon="23.572352"><ele>2642.2</ele><time>2026-03-08T11:49:50.000Z</time></trkpt>
<trkpt lat="42.102115" lon="23.572351"><ele>2642.2</ele><time>2026-03-08T11:49:51.000Z</time></trkpt>
<trkpt lat="42.102114" lon="23.572351"><ele>2642.5</ele><time>2026-03-08T11:49:52.000Z</time></trkpt>
<trkpt lat="42.102113" lon="23.572351"><ele>2642.5</ele><time>2026-03-08T11:49:53.000Z</time></trkpt>
<trkpt lat="42.102111" lon="23.572352"><ele>2642.5</ele><time>2026-03-08T11:49:54.000Z</time></trkpt>
<trkpt lat="42.102108" lon="23.572351"><ele>2642.5</ele><time>2026-03-08T11:49:55.000Z</time></trkpt>
<trkpt lat="42.102106" lon="23.572351"><ele>2642.5</ele><time>2026-03-08T11:49:56.000Z</time></trkpt>
<trkpt lat="42.102103" lon="23.572349"><ele>2642.7</ele><time>2026-03-08T11:49:57.000Z</time></trkpt>
<trkpt lat="42.102102" lon="23.572347"><ele>2642.7</ele><time>2026-03-08T11:49:58.000Z</time></trkpt>
<trkpt lat="42.102102" lon="23.572346"><ele>2642.7</ele><time>2026-03-08T11:49:59.000Z</time></trkpt>
<trkpt lat="42.102103" lon="23.572345"><ele>2642.7</ele><time>2026-03-08T11:50:00.000Z</time></trkpt>
<trkpt lat="42.102104" lon="23.572344"><ele>2642.7</ele><time>2026-03-08T11:50:01.000Z</time></trkpt>
<trkpt lat="42.102105" lon="23.572344"><ele>2642.9</ele><time>2026-03-08T11:50:02.000Z</time></trkpt>
<trkpt lat="42.102105" lon="23.572345"><ele>2642.9</ele><time>2026-03-08T11:50:03.000Z</time></trkpt>
<trkpt lat="42.102105" lon="23.572346"><ele>2642.9</ele><time>2026-03-08T11:50:04.000Z</time></trkpt>
<trkpt lat="42.102105" lon="23.572347"><ele>2642.9</ele><time>2026-03-08T11:50:05.000Z</time></trkpt>
<trkpt lat="42.102104" lon="23.572349"><ele>2642.9</ele><time>2026-03-08T11:50:06.000Z</time></trkpt>
<trkpt lat="42.102104" lon="23.57235"><ele>2643.2</ele><time>2026-03-08T11:50:07.000Z</time></trkpt>
<trkpt lat="42.102104" lon="23.57235"><ele>2643.2</ele><time>2026-03-08T11:50:08.000Z</time></trkpt>
<trkpt lat="42.102103" lon="23.572349"><ele>2643.2</ele><time>2026-03-08T11:50:09.000Z</time></trkpt>
<trkpt lat="42.102103" lon="23.572348"><ele>2643.2</ele><time>2026-03-08T11:50:10.000Z</time></trkpt>
<trkpt lat="42.102103" lon="23.572346"><ele>2643.2</ele><time>2026-03-08T11:50:11.000Z</time></trkpt>
<trkpt lat="42.102104" lon="23.572344"><ele>2643.3</ele><time>2026-03-08T11:50:12.000Z</time></trkpt>
<trkpt lat="42.102104" lon="23.572343"><ele>2643.3</ele><time>2026-03-08T11:50:13.000Z</time></trkpt>
<trkpt lat="42.102104" lon="23.572342"><ele>2643.3</ele><time>2026-03-08T11:50:14.000Z</time></trkpt>
<trkpt lat="42.102104" lon="23.572342"><ele>2643.3</ele><time>2026-03-08T11:50:15.000Z</time></trkpt>
<trkpt lat="42.102105" lon="23.572343"><ele>2643.3</ele><time>2026-03-08T11:50:16.000Z</time></trkpt>
<trkpt lat="42.102105" lon="23.572344"><ele>2643.5</ele><time>2026-03-08T11:50:17.000Z</time></trkpt>
<trkpt lat="42.102105" lon="23.572345"><ele>2643.5</ele><time>2026-03-08T11:50:18.000Z</time></trkpt>
<trkpt lat="42.102106" lon="23.572345"><ele>2643.5</ele><time>2026-03-08T11:50:19.000Z</time></trkpt>
<trkpt lat="42.102106" lon="23.572346"><ele>2643.5</ele><time>2026-03-08T11:50:20.000Z</time></trkpt>
<trkpt lat="42.102106" lon="23.572346"><ele>2643.5</ele><time>2026-03-08T11:50:21.000Z</time></trkpt>
<trkpt lat="42.102106" lon="23.572346"><ele>2643.5</ele><time>2026-03-08T11:50:22.000Z</time></trkpt>
<trkpt lat="42.102106" lon="23.572346"><ele>2643.5</ele><time>2026-03-08T11:50:23.000Z</time></trkpt>
<trkpt lat="42.102106" lon="23.572346"><ele>2643.5</ele><time>2026-03-08T11:50:24.000Z</time></trkpt>
<trkpt lat="42.102106" lon="23.572346"><ele>2643.5</ele><time>2026-03-08T11:50:25.000Z</time></trkpt>
<trkpt lat="42.102106" lon="23.572346"><ele>2643.5</ele><time>2026-03-08T11:50:26.000Z</time></trkpt>
<trkpt lat="42.102106" lon="23.572346"><ele>2643.4</ele><time>2026-03-08T11:50:27.000Z</time></trkpt>
<trkpt lat="42.102106" lon="23.572346"><ele>2643.4</ele><time>2026-03-08T11:50:28.000Z</time></trkpt>
<trkpt lat="42.102107" lon="23.572345"><ele>2643.4</ele><time>2026-03-08T11:50:29.000Z</time></trkpt>
<trkpt lat="42.102109" lon="23.572345"><ele>2643.4</ele><time>2026-03-08T11:50:30.000Z</time></trkpt>
<trkpt lat="42.102111" lon="23.572343"><ele>2643.4</ele><time>2026-03-08T11:50:31.000Z</time></trkpt>
<trkpt lat="42.102112" lon="23.572341"><ele>2643.1</ele><time>2026-03-08T11:50:32.000Z</time></trkpt>
<trkpt lat="42.102113" lon="23.57234"><ele>2643.1</ele><time>2026-03-08T11:50:33.000Z</time></trkpt>
<trkpt lat="42.102113" lon="23.57234"><ele>2643.1</ele><time>2026-03-08T11:50:34.000Z</time></trkpt>
<trkpt lat="42.102112" lon="23.57234"><ele>2643.1</ele><time>2026-03-08T11:50:35.000Z</time></trkpt>
<trkpt lat="42.102112" lon="23.57234"><ele>2643.1</ele><time>2026-03-08T11:50:36.000Z</time></trkpt>
<trkpt lat="42.102112" lon="23.572341"><ele>2643</ele><time>2026-03-08T11:50:37.000Z</time></trkpt>
<trkpt lat="42.102112" lon="23.57234"><ele>2643</ele><time>2026-03-08T11:50:38.000Z</time></trkpt>
<trkpt lat="42.102112" lon="23.572339"><ele>2643</ele><time>2026-03-08T11:50:39.000Z</time></trkpt>
<trkpt lat="42.102112" lon="23.572338"><ele>2643</ele><time>2026-03-08T11:50:40.000Z</time></trkpt>
<trkpt lat="42.102111" lon="23.572337"><ele>2643</ele><time>2026-03-08T11:50:41.000Z</time></trkpt>
<trkpt lat="42.102112" lon="23.572337"><ele>2643</ele><time>2026-03-08T11:50:42.000Z</time></trkpt>
<trkpt lat="42.102111" lon="23.572336"><ele>2643</ele><time>2026-03-08T11:50:43.000Z</time></trkpt>
<trkpt lat="42.102111" lon="23.572336"><ele>2643</ele><time>2026-03-08T11:50:44.000Z</time></trkpt>
<trkpt lat="42.102111" lon="23.572336"><ele>2643</ele><time>2026-03-08T11:50:45.000Z</time></trkpt>
<trkpt lat="42.102111" lon="23.572337"><ele>2643</ele><time>2026-03-08T11:50:46.000Z</time></trkpt>
<trkpt lat="42.102111" lon="23.572336"><ele>2642.9</ele><time>2026-03-08T11:50:47.000Z</time></trkpt>
<trkpt lat="42.102111" lon="23.572336"><ele>2642.9</ele><time>2026-03-08T11:50:48.000Z</time></trkpt>
<trkpt lat="42.102111" lon="23.572335"><ele>2642.9</ele><time>2026-03-08T11:50:49.000Z</time></trkpt>
<trkpt lat="42.102111" lon="23.572334"><ele>2642.9</ele><time>2026-03-08T11:50:50.000Z</time></trkpt>
<trkpt lat="42.102112" lon="23.572334"><ele>2642.9</ele><time>2026-03-08T11:50:51.000Z</time></trkpt>
<trkpt lat="42.102112" lon="23.572333"><ele>2642.8</ele><time>2026-03-08T11:50:52.000Z</time></trkpt>
<trkpt lat="42.102112" lon="23.572333"><ele>2642.8</ele><time>2026-03-08T11:50:53.000Z</time></trkpt>
<trkpt lat="42.102112" lon="23.572333"><ele>2642.8</ele><time>2026-03-08T11:50:54.000Z</time></trkpt>
<trkpt lat="42.102112" lon="23.572333"><ele>2642.8</ele><time>2026-03-08T11:50:55.000Z</time></trkpt>
<trkpt lat="42.102112" lon="23.572333"><ele>2642.8</ele><time>2026-03-08T11:50:56.000Z</time></trkpt>
<trkpt lat="42.102112" lon="23.572333"><ele>2642.7</ele><time>2026-03-08T11:50:57.000Z</time></trkpt>
<trkpt lat="42.102112" lon="23.572333"><ele>2642.7</ele><time>2026-03-08T11:50:58.000Z</time></trkpt>
<trkpt lat="42.102112" lon="23.572333"><ele>2642.7</ele><time>2026-03-08T11:50:59.000Z</time></trkpt>
<trkpt lat="42.102113" lon="23.572332"><ele>2642.7</ele><time>2026-03-08T11:51:00.000Z</time></trkpt>
<trkpt lat="42.102114" lon="23.572331"><ele>2642.7</ele><time>2026-03-08T11:51:01.000Z</time></trkpt>
<trkpt lat="42.102115" lon="23.57233"><ele>2642.6</ele><time>2026-03-08T11:51:02.000Z</time></trkpt>
<trkpt lat="42.102116" lon="23.572329"><ele>2642.6</ele><time>2026-03-08T11:51:03.000Z</time></trkpt>
<trkpt lat="42.102116" lon="23.572327"><ele>2642.6</ele><time>2026-03-08T11:51:04.000Z</time></trkpt>
<trkpt lat="42.102116" lon="23.572327"><ele>2642.6</ele><time>2026-03-08T11:51:05.000Z</time></trkpt>
<trkpt lat="42.102116" lon="23.572327"><ele>2642.6</ele><time>2026-03-08T11:51:06.000Z</time></trkpt>
<trkpt lat="42.102116" lon="23.572326"><ele>2642.5</ele><time>2026-03-08T11:51:07.000Z</time></trkpt>
<trkpt lat="42.102117" lon="23.572326"><ele>2642.5</ele><time>2026-03-08T11:51:08.000Z</time></trkpt>
<trkpt lat="42.102118" lon="23.572327"><ele>2642.5</ele><time>2026-03-08T11:51:09.000Z</time></trkpt>
<trkpt lat="42.102118" lon="23.572328"><ele>2642.5</ele><time>2026-03-08T11:51:10.000Z</time></trkpt>
<trkpt lat="42.102118" lon="23.572328"><ele>2642.5</ele><time>2026-03-08T11:51:11.000Z</time></trkpt>
<trkpt lat="42.102118" lon="23.572329"><ele>2642.5</ele><time>2026-03-08T11:51:12.000Z</time></trkpt>
<trkpt lat="42.102118" lon="23.572328"><ele>2642.5</ele><time>2026-03-08T11:51:13.000Z</time></trkpt>
<trkpt lat="42.102118" lon="23.572328"><ele>2642.5</ele><time>2026-03-08T11:51:14.000Z</time></trkpt>
<trkpt lat="42.102118" lon="23.572328"><ele>2642.5</ele><time>2026-03-08T11:51:15.000Z</time></trkpt>
<trkpt lat="42.102118" lon="23.572328"><ele>2642.5</ele><time>2026-03-08T11:51:16.000Z</time></trkpt>
<trkpt lat="42.102118" lon="23.572327"><ele>2642.6</ele><time>2026-03-08T11:51:17.000Z</time></trkpt>
<trkpt lat="42.102118" lon="23.572327"><ele>2642.6</ele><time>2026-03-08T11:51:18.000Z</time></trkpt>
<trkpt lat="42.102118" lon="23.572327"><ele>2642.6</ele><time>2026-03-08T11:51:19.000Z</time></trkpt>
<trkpt lat="42.102118" lon="23.572327"><ele>2642.6</ele><time>2026-03-08T11:51:20.000Z</time></trkpt>
<trkpt lat="42.102118" lon="23.572327"><ele>2642.6</ele><time>2026-03-08T11:51:21.000Z</time></trkpt>
<trkpt lat="42.102117" lon="23.572327"><ele>2642.6</ele><time>2026-03-08T11:51:22.000Z</time></trkpt>
<trkpt lat="42.102117" lon="23.572327"><ele>2642.6</ele><time>2026-03-08T11:51:23.000Z</time></trkpt>
<trkpt lat="42.102117" lon="23.572327"><ele>2642.6</ele><time>2026-03-08T11:51:24.000Z</time></trkpt>
<trkpt lat="42.102117" lon="23.572327"><ele>2642.6</ele><time>2026-03-08T11:51:25.000Z</time></trkpt>
<trkpt lat="42.102117" lon="23.572327"><ele>2642.6</ele><time>2026-03-08T11:51:26.000Z</time></trkpt>
<trkpt lat="42.102117" lon="23.572327"><ele>2642.6</ele><time>2026-03-08T11:51:27.000Z</time></trkpt>
<trkpt lat="42.102117" lon="23.572327"><ele>2642.6</ele><time>2026-03-08T11:51:28.000Z</time></trkpt>
<trkpt lat="42.102117" lon="23.572328"><ele>2642.6</ele><time>2026-03-08T11:51:29.000Z</time></trkpt>
<trkpt lat="42.102117" lon="23.572328"><ele>2642.6</ele><time>2026-03-08T11:51:30.000Z</time></trkpt>
<trkpt lat="42.102116" lon="23.572328"><ele>2642.6</ele><time>2026-03-08T11:51:31.000Z</time></trkpt>
<trkpt lat="42.102115" lon="23.572327"><ele>2642.5</ele><time>2026-03-08T11:51:32.000Z</time></trkpt>
<trkpt lat="42.102114" lon="23.572327"><ele>2642.5</ele><time>2026-03-08T11:51:33.000Z</time></trkpt>
<trkpt lat="42.102114" lon="23.572327"><ele>2642.5</ele><time>2026-03-08T11:51:34.000Z</time></trkpt>
<trkpt lat="42.102114" lon="23.572326"><ele>2642.5</ele><time>2026-03-08T11:51:35.000Z</time></trkpt>
<trkpt lat="42.102114" lon="23.572326"><ele>2642.5</ele><time>2026-03-08T11:51:36.000Z</time></trkpt>
<trkpt lat="42.102114" lon="23.572326"><ele>2642.3</ele><time>2026-03-08T11:51:37.000Z</time></trkpt>
<trkpt lat="42.102114" lon="23.572326"><ele>2642.3</ele><time>2026-03-08T11:51:38.000Z</time></trkpt>
<trkpt lat="42.102114" lon="23.572326"><ele>2642.3</ele><time>2026-03-08T11:51:39.000Z</time></trkpt>
<trkpt lat="42.102114" lon="23.572326"><ele>2642.3</ele><time>2026-03-08T11:51:40.000Z</time></trkpt>
<trkpt lat="42.102114" lon="23.572326"><ele>2642.3</ele><time>2026-03-08T11:51:41.000Z</time></trkpt>
<trkpt lat="42.102114" lon="23.572326"><ele>2642.3</ele><time>2026-03-08T11:51:42.000Z</time></trkpt>
<trkpt lat="42.102114" lon="23.572325"><ele>2642.3</ele><time>2026-03-08T11:51:43.000Z</time></trkpt>
<trkpt lat="42.102115" lon="23.572325"><ele>2642.3</ele><time>2026-03-08T11:51:44.000Z</time></trkpt>
<trkpt lat="42.102115" lon="23.572325"><ele>2642.3</ele><time>2026-03-08T11:51:45.000Z</time></trkpt>
<trkpt lat="42.102115" lon="23.572324"><ele>2642.3</ele><time>2026-03-08T11:51:46.000Z</time></trkpt>
<trkpt lat="42.102115" lon="23.572324"><ele>2642.4</ele><time>2026-03-08T11:51:47.000Z</time></trkpt>
<trkpt lat="42.102115" lon="23.572324"><ele>2642.4</ele><time>2026-03-08T11:51:48.000Z</time></trkpt>
<trkpt lat="42.102116" lon="23.572324"><ele>2642.4</ele><time>2026-03-08T11:51:49.000Z</time></trkpt>
<trkpt lat="42.102116" lon="23.572323"><ele>2642.4</ele><time>2026-03-08T11:51:50.000Z</time></trkpt>
<trkpt lat="42.102116" lon="23.572323"><ele>2642.4</ele><time>2026-03-08T11:51:51.000Z</time></trkpt>
<trkpt lat="42.102117" lon="23.572322"><ele>2642.6</ele><time>2026-03-08T11:51:52.000Z</time></trkpt>
<trkpt lat="42.102117" lon="23.572322"><ele>2642.6</ele><time>2026-03-08T11:51:53.000Z</time></trkpt>
<trkpt lat="42.102117" lon="23.572322"><ele>2642.6</ele><time>2026-03-08T11:51:54.000Z</time></trkpt>
<trkpt lat="42.102117" lon="23.572322"><ele>2642.6</ele><time>2026-03-08T11:51:55.000Z</time></trkpt>
<trkpt lat="42.102117" lon="23.572322"><ele>2642.6</ele><time>2026-03-08T11:51:56.000Z</time></trkpt>
<trkpt lat="42.102117" lon="23.572322"><ele>2642.7</ele><time>2026-03-08T11:51:57.000Z</time></trkpt>
<trkpt lat="42.102117" lon="23.572322"><ele>2642.7</ele><time>2026-03-08T11:51:58.000Z</time></trkpt>
<trkpt lat="42.102117" lon="23.572322"><ele>2642.7</ele><time>2026-03-08T11:51:59.000Z</time></trkpt>
<trkpt lat="42.102117" lon="23.572322"><ele>2642.7</ele><time>2026-03-08T11:52:00.000Z</time></trkpt>
<trkpt lat="42.102117" lon="23.572322"><ele>2642.7</ele><time>2026-03-08T11:52:01.000Z</time></trkpt>
<trkpt lat="42.102117" lon="23.572322"><ele>2642.9</ele><time>2026-03-08T11:52:02.000Z</time></trkpt>
<trkpt lat="42.102117" lon="23.572322"><ele>2642.9</ele><time>2026-03-08T11:52:03.000Z</time></trkpt>
<trkpt lat="42.102117" lon="23.572323"><ele>2642.9</ele><time>2026-03-08T11:52:04.000Z</time></trkpt>
<trkpt lat="42.102117" lon="23.572323"><ele>2642.9</ele><time>2026-03-08T11:52:05.000Z</time></trkpt>
<trkpt lat="42.102117" lon="23.572324"><ele>2642.9</ele><time>2026-03-08T11:52:06.000Z</time></trkpt>
<trkpt lat="42.102117" lon="23.572325"><ele>2643.1</ele><time>2026-03-08T11:52:07.000Z</time></trkpt>
<trkpt lat="42.102117" lon="23.572326"><ele>2643.1</ele><time>2026-03-08T11:52:08.000Z</time></trkpt>
<trkpt lat="42.102117" lon="23.572326"><ele>2643.1</ele><time>2026-03-08T11:52:09.000Z</time></trkpt>
<trkpt lat="42.102117" lon="23.572326"><ele>2643.1</ele><time>2026-03-08T11:52:10.000Z</time></trkpt>
<trkpt lat="42.102117" lon="23.572327"><ele>2643.1</ele><time>2026-03-08T11:52:11.000Z</time></trkpt>
<trkpt lat="42.102117" lon="23.572327"><ele>2643.2</ele><time>2026-03-08T11:52:12.000Z</time></trkpt>
<trkpt lat="42.102116" lon="23.572325"><ele>2643.2</ele><time>2026-03-08T11:52:13.000Z</time></trkpt>
<trkpt lat="42.102115" lon="23.572324"><ele>2643.2</ele><time>2026-03-08T11:52:14.000Z</time></trkpt>
<trkpt lat="42.102115" lon="23.572323"><ele>2643.2</ele><time>2026-03-08T11:52:15.000Z</time></trkpt>
<trkpt lat="42.102114" lon="23.572321"><ele>2643.2</ele><time>2026-03-08T11:52:16.000Z</time></trkpt>
<trkpt lat="42.102112" lon="23.57232"><ele>2643.2</ele><time>2026-03-08T11:52:17.000Z</time></trkpt>
<trkpt lat="42.102112" lon="23.57232"><ele>2643.2</ele><time>2026-03-08T11:52:18.000Z</time></trkpt>
<trkpt lat="42.10211" lon="23.572321"><ele>2643.2</ele><time>2026-03-08T11:52:19.000Z</time></trkpt>
<trkpt lat="42.102108" lon="23.572321"><ele>2643.2</ele><time>2026-03-08T11:52:20.000Z</time></trkpt>
<trkpt lat="42.102107" lon="23.572321"><ele>2643.2</ele><time>2026-03-08T11:52:21.000Z</time></trkpt>
<trkpt lat="42.102106" lon="23.572323"><ele>2642.9</ele><time>2026-03-08T11:52:22.000Z</time></trkpt>
<trkpt lat="42.102105" lon="23.572323"><ele>2642.9</ele><time>2026-03-08T11:52:23.000Z</time></trkpt>
<trkpt lat="42.102106" lon="23.572324"><ele>2642.9</ele><time>2026-03-08T11:52:24.000Z</time></trkpt>
<trkpt lat="42.102107" lon="23.572324"><ele>2642.9</ele><time>2026-03-08T11:52:25.000Z</time></trkpt>
<trkpt lat="42.102107" lon="23.572325"><ele>2642.9</ele><time>2026-03-08T11:52:26.000Z</time></trkpt>
<trkpt lat="42.102109" lon="23.572326"><ele>2642.8</ele><time>2026-03-08T11:52:27.000Z</time></trkpt>
<trkpt lat="42.102109" lon="23.572327"><ele>2642.8</ele><time>2026-03-08T11:52:28.000Z</time></trkpt>
<trkpt lat="42.10211" lon="23.572329"><ele>2642.8</ele><time>2026-03-08T11:52:29.000Z</time></trkpt>
<trkpt lat="42.10211" lon="23.572331"><ele>2642.8</ele><time>2026-03-08T11:52:30.000Z</time></trkpt>
<trkpt lat="42.102111" lon="23.572332"><ele>2642.8</ele><time>2026-03-08T11:52:31.000Z</time></trkpt>
<trkpt lat="42.102112" lon="23.572333"><ele>2642.5</ele><time>2026-03-08T11:52:32.000Z</time></trkpt>
<trkpt lat="42.102113" lon="23.572333"><ele>2642.5</ele><time>2026-03-08T11:52:33.000Z</time></trkpt>
<trkpt lat="42.102113" lon="23.572334"><ele>2642.5</ele><time>2026-03-08T11:52:34.000Z</time></trkpt>
<trkpt lat="42.102114" lon="23.572334"><ele>2642.5</ele><time>2026-03-08T11:52:35.000Z</time></trkpt>
<trkpt lat="42.102114" lon="23.572334"><ele>2642.5</ele><time>2026-03-08T11:52:36.000Z</time></trkpt>
<trkpt lat="42.102114" lon="23.572334"><ele>2642.4</ele><time>2026-03-08T11:52:37.000Z</time></trkpt>
<trkpt lat="42.102114" lon="23.572334"><ele>2642.4</ele><time>2026-03-08T11:52:38.000Z</time></trkpt>
<trkpt lat="42.102114" lon="23.572334"><ele>2642.4</ele><time>2026-03-08T11:52:39.000Z</time></trkpt>
<trkpt lat="42.102114" lon="23.572334"><ele>2642.4</ele><time>2026-03-08T11:52:40.000Z</time></trkpt>
<trkpt lat="42.102113" lon="23.572334"><ele>2642.4</ele><time>2026-03-08T11:52:41.000Z</time></trkpt>
<trkpt lat="42.102112" lon="23.572333"><ele>2642.3</ele><time>2026-03-08T11:52:42.000Z</time></trkpt>
<trkpt lat="42.10211" lon="23.572333"><ele>2642.3</ele><time>2026-03-08T11:52:43.000Z</time></trkpt>
<trkpt lat="42.102109" lon="23.572332"><ele>2642.3</ele><time>2026-03-08T11:52:44.000Z</time></trkpt>
<trkpt lat="42.102108" lon="23.572331"><ele>2642.3</ele><time>2026-03-08T11:52:45.000Z</time></trkpt>
<trkpt lat="42.10211" lon="23.572332"><ele>2642.3</ele><time>2026-03-08T11:52:46.000Z</time></trkpt>
<trkpt lat="42.102112" lon="23.572332"><ele>2642.3</ele><time>2026-03-08T11:52:47.000Z</time></trkpt>
<trkpt lat="42.102115" lon="23.572332"><ele>2642.3</ele><time>2026-03-08T11:52:48.000Z</time></trkpt>
<trkpt lat="42.102117" lon="23.572332"><ele>2642.3</ele><time>2026-03-08T11:52:49.000Z</time></trkpt>
<trkpt lat="42.102118" lon="23.572333"><ele>2642.3</ele><time>2026-03-08T11:52:50.000Z</time></trkpt>
<trkpt lat="42.102118" lon="23.572334"><ele>2642.3</ele><time>2026-03-08T11:52:51.000Z</time></trkpt>
<trkpt lat="42.102118" lon="23.572335"><ele>2642.2</ele><time>2026-03-08T11:52:52.000Z</time></trkpt>
<trkpt lat="42.102119" lon="23.572336"><ele>2642.2</ele><time>2026-03-08T11:52:53.000Z</time></trkpt>
<trkpt lat="42.102119" lon="23.572338"><ele>2642.2</ele><time>2026-03-08T11:52:54.000Z</time></trkpt>
<trkpt lat="42.102119" lon="23.572339"><ele>2642.2</ele><time>2026-03-08T11:52:55.000Z</time></trkpt>
<trkpt lat="42.10212" lon="23.572339"><ele>2642.2</ele><time>2026-03-08T11:52:56.000Z</time></trkpt>
<trkpt lat="42.10212" lon="23.572339"><ele>2642.2</ele><time>2026-03-08T11:52:57.000Z</time></trkpt>
<trkpt lat="42.10212" lon="23.57234"><ele>2642.2</ele><time>2026-03-08T11:52:58.000Z</time></trkpt>
<trkpt lat="42.10212" lon="23.57234"><ele>2642.2</ele><time>2026-03-08T11:52:59.000Z</time></trkpt>
<trkpt lat="42.10212" lon="23.57234"><ele>2642.2</ele><time>2026-03-08T11:53:00.000Z</time></trkpt>
<trkpt lat="42.10212" lon="23.57234"><ele>2642.2</ele><time>2026-03-08T11:53:01.000Z</time></trkpt>
<trkpt lat="42.10212" lon="23.57234"><ele>2642.2</ele><time>2026-03-08T11:53:02.000Z</time></trkpt>
<trkpt lat="42.102119" lon="23.57234"><ele>2642.2</ele><time>2026-03-08T11:53:03.000Z</time></trkpt>
<trkpt lat="42.102118" lon="23.57234"><ele>2642.2</ele><time>2026-03-08T11:53:04.000Z</time></trkpt>
<trkpt lat="42.102117" lon="23.57234"><ele>2642.2</ele><time>2026-03-08T11:53:05.000Z</time></trkpt>
<trkpt lat="42.102117" lon="23.57234"><ele>2642.2</ele><time>2026-03-08T11:53:06.000Z</time></trkpt>
<trkpt lat="42.102116" lon="23.57234"><ele>2642.2</ele><time>2026-03-08T11:53:07.000Z</time></trkpt>
<trkpt lat="42.102115" lon="23.57234"><ele>2642.2</ele><time>2026-03-08T11:53:08.000Z</time></trkpt>
<trkpt lat="42.102115" lon="23.572339"><ele>2642.2</ele><time>2026-03-08T11:53:09.000Z</time></trkpt>
<trkpt lat="42.102115" lon="23.572339"><ele>2642.2</ele><time>2026-03-08T11:53:10.000Z</time></trkpt>
<trkpt lat="42.102114" lon="23.572339"><ele>2642.2</ele><time>2026-03-08T11:53:11.000Z</time></trkpt>
<trkpt lat="42.102114" lon="23.572339"><ele>2642.2</ele><time>2026-03-08T11:53:12.000Z</time></trkpt>
<trkpt lat="42.102114" lon="23.57234"><ele>2642.2</ele><time>2026-03-08T11:53:13.000Z</time></trkpt>
<trkpt lat="42.102113" lon="23.572341"><ele>2642.2</ele><time>2026-03-08T11:53:14.000Z</time></trkpt>
<trkpt lat="42.102113" lon="23.572341"><ele>2642.2</ele><time>2026-03-08T11:53:15.000Z</time></trkpt>
<trkpt lat="42.102113" lon="23.572341"><ele>2642.2</ele><time>2026-03-08T11:53:16.000Z</time></trkpt>
<trkpt lat="42.102113" lon="23.572341"><ele>2642.2</ele><time>2026-03-08T11:53:17.000Z</time></trkpt>
<trkpt lat="42.102113" lon="23.572341"><ele>2642.2</ele><time>2026-03-08T11:53:18.000Z</time></trkpt>
<trkpt lat="42.102113" lon="23.572341"><ele>2642.2</ele><time>2026-03-08T11:53:19.000Z</time></trkpt>
<trkpt lat="42.102113" lon="23.572341"><ele>2642.2</ele><time>2026-03-08T11:53:20.000Z</time></trkpt>
<trkpt lat="42.102113" lon="23.572341"><ele>2642.2</ele><time>2026-03-08T11:53:21.000Z</time></trkpt>
<trkpt lat="42.102113" lon="23.572341"><ele>2642.2</ele><time>2026-03-08T11:53:22.000Z</time></trkpt>
<trkpt lat="42.102113" lon="23.572341"><ele>2642.2</ele><time>2026-03-08T11:53:23.000Z</time></trkpt>
<trkpt lat="42.102113" lon="23.572341"><ele>2642.2</ele><time>2026-03-08T11:53:24.000Z</time></trkpt>
<trkpt lat="42.102113" lon="23.572341"><ele>2642.2</ele><time>2026-03-08T11:53:25.000Z</time></trkpt>
<trkpt lat="42.102113" lon="23.572341"><ele>2642.2</ele><time>2026-03-08T11:53:26.000Z</time></trkpt>
<trkpt lat="42.102113" lon="23.572341"><ele>2642.1</ele><time>2026-03-08T11:53:27.000Z</time></trkpt>
<trkpt lat="42.102113" lon="23.572341"><ele>2642.1</ele><time>2026-03-08T11:53:28.000Z</time></trkpt>
<trkpt lat="42.102113" lon="23.572341"><ele>2642.1</ele><time>2026-03-08T11:53:29.000Z</time></trkpt>
<trkpt lat="42.102112" lon="23.572341"><ele>2642.1</ele><time>2026-03-08T11:53:30.000Z</time></trkpt>
<trkpt lat="42.102112" lon="23.572341"><ele>2642.1</ele><time>2026-03-08T11:53:31.000Z</time></trkpt>
<trkpt lat="42.102112" lon="23.572341"><ele>2642</ele><time>2026-03-08T11:53:32.000Z</time></trkpt>
<trkpt lat="42.102112" lon="23.572341"><ele>2642</ele><time>2026-03-08T11:53:33.000Z</time></trkpt>
<trkpt lat="42.102112" lon="23.572341"><ele>2642</ele><time>2026-03-08T11:53:34.000Z</time></trkpt>
<trkpt lat="42.102112" lon="23.572341"><ele>2642</ele><time>2026-03-08T11:53:35.000Z</time></trkpt>
<trkpt lat="42.102112" lon="23.572341"><ele>2642</ele><time>2026-03-08T11:53:36.000Z</time></trkpt>
<trkpt lat="42.102112" lon="23.572341"><ele>2641.9</ele><time>2026-03-08T11:53:37.000Z</time></trkpt>
<trkpt lat="42.102112" lon="23.572341"><ele>2641.9</ele><time>2026-03-08T11:53:38.000Z</time></trkpt>
<trkpt lat="42.102112" lon="23.572341"><ele>2641.9</ele><time>2026-03-08T11:53:39.000Z</time></trkpt>
<trkpt lat="42.102112" lon="23.572341"><ele>2641.9</ele><time>2026-03-08T11:53:40.000Z</time></trkpt>
<trkpt lat="42.102112" lon="23.572341"><ele>2641.9</ele><time>2026-03-08T11:53:41.000Z</time></trkpt>
<trkpt lat="42.102112" lon="23.572341"><ele>2642</ele><time>2026-03-08T11:53:42.000Z</time></trkpt>
<trkpt lat="42.102112" lon="23.572341"><ele>2642</ele><time>2026-03-08T11:53:43.000Z</time></trkpt>
<trkpt lat="42.102112" lon="23.572341"><ele>2642</ele><time>2026-03-08T11:53:44.000Z</time></trkpt>
<trkpt lat="42.102112" lon="23.572341"><ele>2642</ele><time>2026-03-08T11:53:45.000Z</time></trkpt>
<trkpt lat="42.102112" lon="23.572341"><ele>2642</ele><time>2026-03-08T11:53:46.000Z</time></trkpt>
<trkpt lat="42.102112" lon="23.572341"><ele>2642.1</ele><time>2026-03-08T11:53:47.000Z</time></trkpt>
<trkpt lat="42.102112" lon="23.572341"><ele>2642.1</ele><time>2026-03-08T11:53:48.000Z</time></trkpt>
<trkpt lat="42.102112" lon="23.572341"><ele>2642.1</ele><time>2026-03-08T11:53:49.000Z</time></trkpt>
<trkpt lat="42.102112" lon="23.572341"><ele>2642.1</ele><time>2026-03-08T11:53:50.000Z</time></trkpt>
<trkpt lat="42.102112" lon="23.572341"><ele>2642.1</ele><time>2026-03-08T11:53:51.000Z</time></trkpt>
<trkpt lat="42.102112" lon="23.572341"><ele>2642.2</ele><time>2026-03-08T11:53:52.000Z</time></trkpt>
<trkpt lat="42.102112" lon="23.572341"><ele>2642.2</ele><time>2026-03-08T11:53:53.000Z</time></trkpt>
<trkpt lat="42.102112" lon="23.572341"><ele>2642.2</ele><time>2026-03-08T11:53:54.000Z</time></trkpt>
<trkpt lat="42.102112" lon="23.572341"><ele>2642.2</ele><time>2026-03-08T11:53:55.000Z</time></trkpt>
<trkpt lat="42.102112" lon="23.572341"><ele>2642.2</ele><time>2026-03-08T11:53:56.000Z</time></trkpt>
<trkpt lat="42.102112" lon="23.572341"><ele>2642.3</ele><time>2026-03-08T11:53:57.000Z</time></trkpt>
<trkpt lat="42.102112" lon="23.572341"><ele>2642.3</ele><time>2026-03-08T11:53:58.000Z</time></trkpt>
<trkpt lat="42.102112" lon="23.572341"><ele>2642.3</ele><time>2026-03-08T11:53:59.000Z</time></trkpt>
<trkpt lat="42.102112" lon="23.572341"><ele>2642.3</ele><time>2026-03-08T11:54:00.000Z</time></trkpt>
<trkpt lat="42.102112" lon="23.572341"><ele>2642.3</ele><time>2026-03-08T11:54:01.000Z</time></trkpt>
<trkpt lat="42.102112" lon="23.572341"><ele>2642.3</ele><time>2026-03-08T11:54:02.000Z</time></trkpt>
<trkpt lat="42.102112" lon="23.57234"><ele>2642.3</ele><time>2026-03-08T11:54:03.000Z</time></trkpt>
<trkpt lat="42.102112" lon="23.57234"><ele>2642.3</ele><time>2026-03-08T11:54:04.000Z</time></trkpt>
<trkpt lat="42.102112" lon="23.57234"><ele>2642.3</ele><time>2026-03-08T11:54:05.000Z</time></trkpt>
<trkpt lat="42.102112" lon="23.572339"><ele>2642.3</ele><time>2026-03-08T11:54:06.000Z</time></trkpt>
<trkpt lat="42.102112" lon="23.572338"><ele>2642.2</ele><time>2026-03-08T11:54:07.000Z</time></trkpt>
<trkpt lat="42.102111" lon="23.572337"><ele>2642.2</ele><time>2026-03-08T11:54:08.000Z</time></trkpt>
<trkpt lat="42.102111" lon="23.572337"><ele>2642.2</ele><time>2026-03-08T11:54:09.000Z</time></trkpt>
<trkpt lat="42.102111" lon="23.572337"><ele>2642.2</ele><time>2026-03-08T11:54:10.000Z</time></trkpt>
<trkpt lat="42.102111" lon="23.572337"><ele>2642.2</ele><time>2026-03-08T11:54:11.000Z</time></trkpt>
<trkpt lat="42.102112" lon="23.572338"><ele>2642.2</ele><time>2026-03-08T11:54:12.000Z</time></trkpt>
<trkpt lat="42.102112" lon="23.572338"><ele>2642.2</ele><time>2026-03-08T11:54:13.000Z</time></trkpt>
<trkpt lat="42.102112" lon="23.572338"><ele>2642.2</ele><time>2026-03-08T11:54:14.000Z</time></trkpt>
<trkpt lat="42.102112" lon="23.572338"><ele>2642.2</ele><time>2026-03-08T11:54:15.000Z</time></trkpt>
<trkpt lat="42.102112" lon="23.572338"><ele>2642.2</ele><time>2026-03-08T11:54:16.000Z</time></trkpt>
<trkpt lat="42.102112" lon="23.572338"><ele>2642.1</ele><time>2026-03-08T11:54:17.000Z</time></trkpt>
<trkpt lat="42.102112" lon="23.572338"><ele>2642.1</ele><time>2026-03-08T11:54:18.000Z</time></trkpt>
<trkpt lat="42.102112" lon="23.572338"><ele>2642.1</ele><time>2026-03-08T11:54:19.000Z</time></trkpt>
<trkpt lat="42.102112" lon="23.572338"><ele>2642.1</ele><time>2026-03-08T11:54:20.000Z</time></trkpt>
<trkpt lat="42.102111" lon="23.572337"><ele>2642.1</ele><time>2026-03-08T11:54:21.000Z</time></trkpt>
<trkpt lat="42.102111" lon="23.572337"><ele>2642.1</ele><time>2026-03-08T11:54:22.000Z</time></trkpt>
<trkpt lat="42.102111" lon="23.572336"><ele>2642.1</ele><time>2026-03-08T11:54:23.000Z</time></trkpt>
<trkpt lat="42.102111" lon="23.572335"><ele>2642.1</ele><time>2026-03-08T11:54:24.000Z</time></trkpt>
<trkpt lat="42.102111" lon="23.572334"><ele>2642.1</ele><time>2026-03-08T11:54:25.000Z</time></trkpt>
<trkpt lat="42.102111" lon="23.572333"><ele>2642.1</ele><time>2026-03-08T11:54:26.000Z</time></trkpt>
<trkpt lat="42.102112" lon="23.572333"><ele>2642.2</ele><time>2026-03-08T11:54:27.000Z</time></trkpt>
<trkpt lat="42.102113" lon="23.572332"><ele>2642.2</ele><time>2026-03-08T11:54:28.000Z</time></trkpt>
<trkpt lat="42.102113" lon="23.572332"><ele>2642.2</ele><time>2026-03-08T11:54:29.000Z</time></trkpt>
<trkpt lat="42.102114" lon="23.572332"><ele>2642.2</ele><time>2026-03-08T11:54:30.000Z</time></trkpt>
<trkpt lat="42.102114" lon="23.572332"><ele>2642.2</ele><time>2026-03-08T11:54:31.000Z</time></trkpt>
<trkpt lat="42.102114" lon="23.572333"><ele>2642.5</ele><time>2026-03-08T11:54:32.000Z</time></trkpt>
<trkpt lat="42.102115" lon="23.572333"><ele>2642.5</ele><time>2026-03-08T11:54:33.000Z</time></trkpt>
<trkpt lat="42.102116" lon="23.572334"><ele>2642.5</ele><time>2026-03-08T11:54:34.000Z</time></trkpt>
<trkpt lat="42.102117" lon="23.572334"><ele>2642.5</ele><time>2026-03-08T11:54:35.000Z</time></trkpt>
<trkpt lat="42.102118" lon="23.572334"><ele>2642.5</ele><time>2026-03-08T11:54:36.000Z</time></trkpt>
<trkpt lat="42.102119" lon="23.572335"><ele>2642.6</ele><time>2026-03-08T11:54:37.000Z</time></trkpt>
<trkpt lat="42.102119" lon="23.572335"><ele>2642.6</ele><time>2026-03-08T11:54:38.000Z</time></trkpt>
<trkpt lat="42.102119" lon="23.572337"><ele>2642.6</ele><time>2026-03-08T11:54:39.000Z</time></trkpt>
<trkpt lat="42.102119" lon="23.572337"><ele>2642.6</ele><time>2026-03-08T11:54:40.000Z</time></trkpt>
<trkpt lat="42.10212" lon="23.572337"><ele>2642.6</ele><time>2026-03-08T11:54:41.000Z</time></trkpt>
<trkpt lat="42.10212" lon="23.572337"><ele>2642.5</ele><time>2026-03-08T11:54:42.000Z</time></trkpt>
<trkpt lat="42.10212" lon="23.572337"><ele>2642.5</ele><time>2026-03-08T11:54:43.000Z</time></trkpt>
<trkpt lat="42.10212" lon="23.572337"><ele>2642.5</ele><time>2026-03-08T11:54:44.000Z</time></trkpt>
<trkpt lat="42.10212" lon="23.572339"><ele>2642.5</ele><time>2026-03-08T11:54:45.000Z</time></trkpt>
<trkpt lat="42.102119" lon="23.572339"><ele>2642.5</ele><time>2026-03-08T11:54:46.000Z</time></trkpt>
<trkpt lat="42.102118" lon="23.57234"><ele>2642.3</ele><time>2026-03-08T11:54:47.000Z</time></trkpt>
<trkpt lat="42.102118" lon="23.572341"><ele>2642.3</ele><time>2026-03-08T11:54:48.000Z</time></trkpt>
<trkpt lat="42.102118" lon="23.572341"><ele>2642.3</ele><time>2026-03-08T11:54:49.000Z</time></trkpt>
<trkpt lat="42.102118" lon="23.572341"><ele>2642.3</ele><time>2026-03-08T11:54:50.000Z</time></trkpt>
<trkpt lat="42.102118" lon="23.572341"><ele>2642.3</ele><time>2026-03-08T11:54:51.000Z</time></trkpt>
<trkpt lat="42.102118" lon="23.572341"><ele>2642.1</ele><time>2026-03-08T11:54:52.000Z</time></trkpt>
<trkpt lat="42.102118" lon="23.572341"><ele>2642.1</ele><time>2026-03-08T11:54:53.000Z</time></trkpt>
<trkpt lat="42.102118" lon="23.572341"><ele>2642.1</ele><time>2026-03-08T11:54:54.000Z</time></trkpt>
<trkpt lat="42.102118" lon="23.572341"><ele>2642.1</ele><time>2026-03-08T11:54:55.000Z</time></trkpt>
<trkpt lat="42.102118" lon="23.572341"><ele>2642.1</ele><time>2026-03-08T11:54:56.000Z</time></trkpt>
<trkpt lat="42.102119" lon="23.572341"><ele>2642</ele><time>2026-03-08T11:54:57.000Z</time></trkpt>
<trkpt lat="42.102119" lon="23.572341"><ele>2642</ele><time>2026-03-08T11:54:58.000Z</time></trkpt>
<trkpt lat="42.102119" lon="23.572342"><ele>2642</ele><time>2026-03-08T11:54:59.000Z</time></trkpt>
<trkpt lat="42.102119" lon="23.572342"><ele>2642</ele><time>2026-03-08T11:55:00.000Z</time></trkpt>
<trkpt lat="42.102119" lon="23.572342"><ele>2642</ele><time>2026-03-08T11:55:01.000Z</time></trkpt>
<trkpt lat="42.102119" lon="23.572342"><ele>2641.9</ele><time>2026-03-08T11:55:02.000Z</time></trkpt>
<trkpt lat="42.102119" lon="23.572342"><ele>2641.9</ele><time>2026-03-08T11:55:03.000Z</time></trkpt>
<trkpt lat="42.102119" lon="23.572342"><ele>2641.9</ele><time>2026-03-08T11:55:04.000Z</time></trkpt>
<trkpt lat="42.102119" lon="23.572342"><ele>2641.9</ele><time>2026-03-08T11:55:05.000Z</time></trkpt>
<trkpt lat="42.102119" lon="23.572342"><ele>2641.9</ele><time>2026-03-08T11:55:06.000Z</time></trkpt>
<trkpt lat="42.10212" lon="23.572342"><ele>2641.9</ele><time>2026-03-08T11:55:07.000Z</time></trkpt>
<trkpt lat="42.102121" lon="23.572342"><ele>2641.9</ele><time>2026-03-08T11:55:08.000Z</time></trkpt>
<trkpt lat="42.102123" lon="23.572342"><ele>2641.9</ele><time>2026-03-08T11:55:09.000Z</time></trkpt>
<trkpt lat="42.102124" lon="23.572341"><ele>2641.9</ele><time>2026-03-08T11:55:10.000Z</time></trkpt>
<trkpt lat="42.102126" lon="23.572341"><ele>2641.9</ele><time>2026-03-08T11:55:11.000Z</time></trkpt>
<trkpt lat="42.102126" lon="23.572341"><ele>2641.9</ele><time>2026-03-08T11:55:12.000Z</time></trkpt>
<trkpt lat="42.102126" lon="23.572341"><ele>2641.9</ele><time>2026-03-08T11:55:13.000Z</time></trkpt>
<trkpt lat="42.102127" lon="23.572341"><ele>2641.9</ele><time>2026-03-08T11:55:14.000Z</time></trkpt>
<trkpt lat="42.102127" lon="23.572341"><ele>2641.9</ele><time>2026-03-08T11:55:15.000Z</time></trkpt>
<trkpt lat="42.102127" lon="23.572341"><ele>2641.9</ele><time>2026-03-08T11:55:16.000Z</time></trkpt>
<trkpt lat="42.102127" lon="23.572341"><ele>2641.9</ele><time>2026-03-08T11:55:17.000Z</time></trkpt>
<trkpt lat="42.102127" lon="23.572341"><ele>2641.9</ele><time>2026-03-08T11:55:18.000Z</time></trkpt>
<trkpt lat="42.102127" lon="23.572341"><ele>2641.9</ele><time>2026-03-08T11:55:19.000Z</time></trkpt>
<trkpt lat="42.102127" lon="23.572341"><ele>2641.9</ele><time>2026-03-08T11:55:20.000Z</time></trkpt>
<trkpt lat="42.102127" lon="23.572341"><ele>2641.9</ele><time>2026-03-08T11:55:21.000Z</time></trkpt>
<trkpt lat="42.102127" lon="23.572341"><ele>2642</ele><time>2026-03-08T11:55:22.000Z</time></trkpt>
<trkpt lat="42.102127" lon="23.572341"><ele>2642</ele><time>2026-03-08T11:55:23.000Z</time></trkpt>
<trkpt lat="42.102127" lon="23.572341"><ele>2642</ele><time>2026-03-08T11:55:24.000Z</time></trkpt>
<trkpt lat="42.102127" lon="23.572341"><ele>2642</ele><time>2026-03-08T11:55:25.000Z</time></trkpt>
<trkpt lat="42.102127" lon="23.572343"><ele>2642</ele><time>2026-03-08T11:55:26.000Z</time></trkpt>
<trkpt lat="42.102126" lon="23.572344"><ele>2641.9</ele><time>2026-03-08T11:55:27.000Z</time></trkpt>
<trkpt lat="42.102126" lon="23.572345"><ele>2641.9</ele><time>2026-03-08T11:55:28.000Z</time></trkpt>
<trkpt lat="42.102125" lon="23.572347"><ele>2641.9</ele><time>2026-03-08T11:55:29.000Z</time></trkpt>
<trkpt lat="42.102126" lon="23.572349"><ele>2641.9</ele><time>2026-03-08T11:55:30.000Z</time></trkpt>
<trkpt lat="42.102126" lon="23.57235"><ele>2641.9</ele><time>2026-03-08T11:55:31.000Z</time></trkpt>
<trkpt lat="42.102126" lon="23.572351"><ele>2641.8</ele><time>2026-03-08T11:55:32.000Z</time></trkpt>
<trkpt lat="42.102126" lon="23.572352"><ele>2641.8</ele><time>2026-03-08T11:55:33.000Z</time></trkpt>
<trkpt lat="42.102126" lon="23.572352"><ele>2641.8</ele><time>2026-03-08T11:55:34.000Z</time></trkpt>
<trkpt lat="42.102125" lon="23.572353"><ele>2641.8</ele><time>2026-03-08T11:55:35.000Z</time></trkpt>
<trkpt lat="42.102124" lon="23.572353"><ele>2641.8</ele><time>2026-03-08T11:55:36.000Z</time></trkpt>
<trkpt lat="42.102124" lon="23.572354"><ele>2641.8</ele><time>2026-03-08T11:55:37.000Z</time></trkpt>
<trkpt lat="42.102124" lon="23.572354"><ele>2641.8</ele><time>2026-03-08T11:55:38.000Z</time></trkpt>
<trkpt lat="42.102123" lon="23.572354"><ele>2641.8</ele><time>2026-03-08T11:55:39.000Z</time></trkpt>
<trkpt lat="42.102123" lon="23.572354"><ele>2641.8</ele><time>2026-03-08T11:55:40.000Z</time></trkpt>
<trkpt lat="42.102123" lon="23.572354"><ele>2641.8</ele><time>2026-03-08T11:55:41.000Z</time></trkpt>
<trkpt lat="42.102123" lon="23.572354"><ele>2641.9</ele><time>2026-03-08T11:55:42.000Z</time></trkpt>
<trkpt lat="42.102123" lon="23.572354"><ele>2641.9</ele><time>2026-03-08T11:55:43.000Z</time></trkpt>
<trkpt lat="42.102123" lon="23.572354"><ele>2641.9</ele><time>2026-03-08T11:55:44.000Z</time></trkpt>
<trkpt lat="42.102123" lon="23.572354"><ele>2641.9</ele><time>2026-03-08T11:55:45.000Z</time></trkpt>
<trkpt lat="42.102123" lon="23.572354"><ele>2641.9</ele><time>2026-03-08T11:55:46.000Z</time></trkpt>
<trkpt lat="42.102123" lon="23.572354"><ele>2642.1</ele><time>2026-03-08T11:55:47.000Z</time></trkpt>
<trkpt lat="42.102123" lon="23.572354"><ele>2642.1</ele><time>2026-03-08T11:55:48.000Z</time></trkpt>
<trkpt lat="42.102124" lon="23.572354"><ele>2642.1</ele><time>2026-03-08T11:55:49.000Z</time></trkpt>
<trkpt lat="42.102124" lon="23.572354"><ele>2642.1</ele><time>2026-03-08T11:55:50.000Z</time></trkpt>
<trkpt lat="42.102124" lon="23.572354"><ele>2642.1</ele><time>2026-03-08T11:55:51.000Z</time></trkpt>
<trkpt lat="42.102125" lon="23.572354"><ele>2642.2</ele><time>2026-03-08T11:55:52.000Z</time></trkpt>
<trkpt lat="42.102125" lon="23.572355"><ele>2642.2</ele><time>2026-03-08T11:55:53.000Z</time></trkpt>
<trkpt lat="42.102125" lon="23.572355"><ele>2642.2</ele><time>2026-03-08T11:55:54.000Z</time></trkpt>
<trkpt lat="42.102125" lon="23.572355"><ele>2642.2</ele><time>2026-03-08T11:55:55.000Z</time></trkpt>
<trkpt lat="42.102125" lon="23.572355"><ele>2642.2</ele><time>2026-03-08T11:55:56.000Z</time></trkpt>
<trkpt lat="42.102125" lon="23.572355"><ele>2642.1</ele><time>2026-03-08T11:55:57.000Z</time></trkpt>
<trkpt lat="42.102126" lon="23.572355"><ele>2642.1</ele><time>2026-03-08T11:55:58.000Z</time></trkpt>
<trkpt lat="42.102126" lon="23.572355"><ele>2642.1</ele><time>2026-03-08T11:55:59.000Z</time></trkpt>
<trkpt lat="42.102126" lon="23.572355"><ele>2642.1</ele><time>2026-03-08T11:56:00.000Z</time></trkpt>
<trkpt lat="42.102126" lon="23.572355"><ele>2642.1</ele><time>2026-03-08T11:56:01.000Z</time></trkpt>
<trkpt lat="42.102126" lon="23.572355"><ele>2642</ele><time>2026-03-08T11:56:02.000Z</time></trkpt>
<trkpt lat="42.102125" lon="23.572355"><ele>2642</ele><time>2026-03-08T11:56:03.000Z</time></trkpt>
<trkpt lat="42.102125" lon="23.572354"><ele>2642</ele><time>2026-03-08T11:56:04.000Z</time></trkpt>
<trkpt lat="42.102125" lon="23.572354"><ele>2642</ele><time>2026-03-08T11:56:05.000Z</time></trkpt>
<trkpt lat="42.102125" lon="23.572354"><ele>2642</ele><time>2026-03-08T11:56:06.000Z</time></trkpt>
<trkpt lat="42.102125" lon="23.572353"><ele>2641.8</ele><time>2026-03-08T11:56:07.000Z</time></trkpt>
<trkpt lat="42.102125" lon="23.572354"><ele>2641.8</ele><time>2026-03-08T11:56:08.000Z</time></trkpt>
<trkpt lat="42.102125" lon="23.572354"><ele>2641.8</ele><time>2026-03-08T11:56:09.000Z</time></trkpt>
<trkpt lat="42.102124" lon="23.572354"><ele>2641.8</ele><time>2026-03-08T11:56:10.000Z</time></trkpt>
<trkpt lat="42.102124" lon="23.572355"><ele>2641.8</ele><time>2026-03-08T11:56:11.000Z</time></trkpt>
<trkpt lat="42.102124" lon="23.572356"><ele>2641.7</ele><time>2026-03-08T11:56:12.000Z</time></trkpt>
<trkpt lat="42.102124" lon="23.572356"><ele>2641.7</ele><time>2026-03-08T11:56:13.000Z</time></trkpt>
<trkpt lat="42.102124" lon="23.572356"><ele>2641.7</ele><time>2026-03-08T11:56:14.000Z</time></trkpt>
<trkpt lat="42.102125" lon="23.572356"><ele>2641.7</ele><time>2026-03-08T11:56:15.000Z</time></trkpt>
<trkpt lat="42.102125" lon="23.572356"><ele>2641.7</ele><time>2026-03-08T11:56:16.000Z</time></trkpt>
<trkpt lat="42.102125" lon="23.572357"><ele>2641.5</ele><time>2026-03-08T11:56:17.000Z</time></trkpt>
<trkpt lat="42.102125" lon="23.572357"><ele>2641.5</ele><time>2026-03-08T11:56:18.000Z</time></trkpt>
<trkpt lat="42.102126" lon="23.572357"><ele>2641.5</ele><time>2026-03-08T11:56:19.000Z</time></trkpt>
<trkpt lat="42.102126" lon="23.572357"><ele>2641.5</ele><time>2026-03-08T11:56:20.000Z</time></trkpt>
<trkpt lat="42.102127" lon="23.572357"><ele>2641.5</ele><time>2026-03-08T11:56:21.000Z</time></trkpt>
<trkpt lat="42.102127" lon="23.572357"><ele>2641.5</ele><time>2026-03-08T11:56:22.000Z</time></trkpt>
<trkpt lat="42.102127" lon="23.572356"><ele>2641.5</ele><time>2026-03-08T11:56:23.000Z</time></trkpt>
<trkpt lat="42.102127" lon="23.572356"><ele>2641.5</ele><time>2026-03-08T11:56:24.000Z</time></trkpt>
<trkpt lat="42.102127" lon="23.572356"><ele>2641.5</ele><time>2026-03-08T11:56:25.000Z</time></trkpt>
<trkpt lat="42.102127" lon="23.572355"><ele>2641.5</ele><time>2026-03-08T11:56:26.000Z</time></trkpt>
<trkpt lat="42.102127" lon="23.572355"><ele>2641.5</ele><time>2026-03-08T11:56:27.000Z</time></trkpt>
<trkpt lat="42.102128" lon="23.572355"><ele>2641.5</ele><time>2026-03-08T11:56:28.000Z</time></trkpt>
<trkpt lat="42.102128" lon="23.572354"><ele>2641.5</ele><time>2026-03-08T11:56:29.000Z</time></trkpt>
<trkpt lat="42.102129" lon="23.572354"><ele>2641.5</ele><time>2026-03-08T11:56:30.000Z</time></trkpt>
<trkpt lat="42.102129" lon="23.572354"><ele>2641.5</ele><time>2026-03-08T11:56:31.000Z</time></trkpt>
<trkpt lat="42.102129" lon="23.572353"><ele>2641.6</ele><time>2026-03-08T11:56:32.000Z</time></trkpt>
<trkpt lat="42.102129" lon="23.572353"><ele>2641.6</ele><time>2026-03-08T11:56:33.000Z</time></trkpt>
<trkpt lat="42.102129" lon="23.572353"><ele>2641.6</ele><time>2026-03-08T11:56:34.000Z</time></trkpt>
<trkpt lat="42.102129" lon="23.572353"><ele>2641.6</ele><time>2026-03-08T11:56:35.000Z</time></trkpt>
<trkpt lat="42.102129" lon="23.572353"><ele>2641.6</ele><time>2026-03-08T11:56:36.000Z</time></trkpt>
<trkpt lat="42.102129" lon="23.572353"><ele>2641.6</ele><time>2026-03-08T11:56:37.000Z</time></trkpt>
<trkpt lat="42.102129" lon="23.572353"><ele>2641.6</ele><time>2026-03-08T11:56:38.000Z</time></trkpt>
<trkpt lat="42.102129" lon="23.572353"><ele>2641.6</ele><time>2026-03-08T11:56:39.000Z</time></trkpt>
<trkpt lat="42.102129" lon="23.572353"><ele>2641.6</ele><time>2026-03-08T11:56:40.000Z</time></trkpt>
<trkpt lat="42.102129" lon="23.572353"><ele>2641.6</ele><time>2026-03-08T11:56:41.000Z</time></trkpt>
<trkpt lat="42.102129" lon="23.572353"><ele>2641.6</ele><time>2026-03-08T11:56:42.000Z</time></trkpt>
<trkpt lat="42.102129" lon="23.572353"><ele>2641.6</ele><time>2026-03-08T11:56:43.000Z</time></trkpt>
<trkpt lat="42.102129" lon="23.572353"><ele>2641.6</ele><time>2026-03-08T11:56:44.000Z</time></trkpt>
<trkpt lat="42.102129" lon="23.572353"><ele>2641.6</ele><time>2026-03-08T11:56:45.000Z</time></trkpt>
<trkpt lat="42.102129" lon="23.572353"><ele>2641.6</ele><time>2026-03-08T11:56:46.000Z</time></trkpt>
<trkpt lat="42.102129" lon="23.572353"><ele>2641.4</ele><time>2026-03-08T11:56:47.000Z</time></trkpt>
<trkpt lat="42.102129" lon="23.572353"><ele>2641.4</ele><time>2026-03-08T11:56:48.000Z</time></trkpt>
<trkpt lat="42.102129" lon="23.572353"><ele>2641.4</ele><time>2026-03-08T11:56:49.000Z</time></trkpt>
<trkpt lat="42.102129" lon="23.572353"><ele>2641.4</ele><time>2026-03-08T11:56:50.000Z</time></trkpt>
<trkpt lat="42.102129" lon="23.572353"><ele>2641.4</ele><time>2026-03-08T11:56:51.000Z</time></trkpt>
<trkpt lat="42.102129" lon="23.572353"><ele>2641.3</ele><time>2026-03-08T11:56:52.000Z</time></trkpt>
<trkpt lat="42.102129" lon="23.572353"><ele>2641.3</ele><time>2026-03-08T11:56:53.000Z</time></trkpt>
<trkpt lat="42.102129" lon="23.572353"><ele>2641.3</ele><time>2026-03-08T11:56:54.000Z</time></trkpt>
<trkpt lat="42.102129" lon="23.572353"><ele>2641.3</ele><time>2026-03-08T11:56:55.000Z</time></trkpt>
<trkpt lat="42.102129" lon="23.572353"><ele>2641.3</ele><time>2026-03-08T11:56:56.000Z</time></trkpt>
<trkpt lat="42.102129" lon="23.572353"><ele>2641.3</ele><time>2026-03-08T11:56:57.000Z</time></trkpt>
<trkpt lat="42.102129" lon="23.572353"><ele>2641.3</ele><time>2026-03-08T11:56:58.000Z</time></trkpt>
<trkpt lat="42.102129" lon="23.572353"><ele>2641.3</ele><time>2026-03-08T11:56:59.000Z</time></trkpt>
<trkpt lat="42.102129" lon="23.572353"><ele>2641.3</ele><time>2026-03-08T11:57:00.000Z</time></trkpt>
<trkpt lat="42.102129" lon="23.572353"><ele>2641.3</ele><time>2026-03-08T11:57:01.000Z</time></trkpt>
<trkpt lat="42.102129" lon="23.572353"><ele>2641.5</ele><time>2026-03-08T11:57:02.000Z</time></trkpt>
<trkpt lat="42.102129" lon="23.572353"><ele>2641.5</ele><time>2026-03-08T11:57:03.000Z</time></trkpt>
<trkpt lat="42.102128" lon="23.572353"><ele>2641.5</ele><time>2026-03-08T11:57:04.000Z</time></trkpt>
<trkpt lat="42.102128" lon="23.572353"><ele>2641.5</ele><time>2026-03-08T11:57:05.000Z</time></trkpt>
<trkpt lat="42.102128" lon="23.572353"><ele>2641.5</ele><time>2026-03-08T11:57:06.000Z</time></trkpt>
<trkpt lat="42.102127" lon="23.572353"><ele>2641.6</ele><time>2026-03-08T11:57:07.000Z</time></trkpt>
<trkpt lat="42.102127" lon="23.572353"><ele>2641.6</ele><time>2026-03-08T11:57:08.000Z</time></trkpt>
<trkpt lat="42.102127" lon="23.572353"><ele>2641.6</ele><time>2026-03-08T11:57:09.000Z</time></trkpt>
<trkpt lat="42.102127" lon="23.572353"><ele>2641.6</ele><time>2026-03-08T11:57:10.000Z</time></trkpt>
<trkpt lat="42.102127" lon="23.572353"><ele>2641.6</ele><time>2026-03-08T11:57:11.000Z</time></trkpt>
<trkpt lat="42.102127" lon="23.572353"><ele>2641.6</ele><time>2026-03-08T11:57:12.000Z</time></trkpt>
<trkpt lat="42.102127" lon="23.572353"><ele>2641.6</ele><time>2026-03-08T11:57:13.000Z</time></trkpt>
<trkpt lat="42.102127" lon="23.572353"><ele>2641.6</ele><time>2026-03-08T11:57:14.000Z</time></trkpt>
<trkpt lat="42.102127" lon="23.572353"><ele>2641.6</ele><time>2026-03-08T11:57:15.000Z</time></trkpt>
<trkpt lat="42.102127" lon="23.572353"><ele>2641.6</ele><time>2026-03-08T11:57:16.000Z</time></trkpt>
<trkpt lat="42.102127" lon="23.572353"><ele>2641.6</ele><time>2026-03-08T11:57:17.000Z</time></trkpt>
<trkpt lat="42.102127" lon="23.572353"><ele>2641.6</ele><time>2026-03-08T11:57:18.000Z</time></trkpt>
<trkpt lat="42.102127" lon="23.572353"><ele>2641.6</ele><time>2026-03-08T11:57:19.000Z</time></trkpt>
<trkpt lat="42.102127" lon="23.572353"><ele>2641.6</ele><time>2026-03-08T11:57:20.000Z</time></trkpt>
<trkpt lat="42.102127" lon="23.572353"><ele>2641.6</ele><time>2026-03-08T11:57:21.000Z</time></trkpt>
<trkpt lat="42.102127" lon="23.572353"><ele>2641.6</ele><time>2026-03-08T11:57:22.000Z</time></trkpt>
<trkpt lat="42.102127" lon="23.572353"><ele>2641.6</ele><time>2026-03-08T11:57:23.000Z</time></trkpt>
<trkpt lat="42.102127" lon="23.572353"><ele>2641.6</ele><time>2026-03-08T11:57:24.000Z</time></trkpt>
<trkpt lat="42.102127" lon="23.572353"><ele>2641.6</ele><time>2026-03-08T11:57:25.000Z</time></trkpt>
<trkpt lat="42.102127" lon="23.572353"><ele>2641.6</ele><time>2026-03-08T11:57:26.000Z</time></trkpt>
<trkpt lat="42.102127" lon="23.572353"><ele>2641.6</ele><time>2026-03-08T11:57:27.000Z</time></trkpt>
<trkpt lat="42.102127" lon="23.572353"><ele>2641.6</ele><time>2026-03-08T11:57:28.000Z</time></trkpt>
<trkpt lat="42.102128" lon="23.572353"><ele>2641.6</ele><time>2026-03-08T11:57:29.000Z</time></trkpt>
<trkpt lat="42.102128" lon="23.572353"><ele>2641.6</ele><time>2026-03-08T11:57:30.000Z</time></trkpt>
<trkpt lat="42.102128" lon="23.572353"><ele>2641.6</ele><time>2026-03-08T11:57:31.000Z</time></trkpt>
<trkpt lat="42.102128" lon="23.572353"><ele>2641.6</ele><time>2026-03-08T11:57:32.000Z</time></trkpt>
<trkpt lat="42.102128" lon="23.572352"><ele>2641.6</ele><time>2026-03-08T11:57:33.000Z</time></trkpt>
<trkpt lat="42.102128" lon="23.572352"><ele>2641.6</ele><time>2026-03-08T11:57:34.000Z</time></trkpt>
<trkpt lat="42.102128" lon="23.572352"><ele>2641.6</ele><time>2026-03-08T11:57:35.000Z</time></trkpt>
<trkpt lat="42.102128" lon="23.572352"><ele>2641.6</ele><time>2026-03-08T11:57:36.000Z</time></trkpt>
<trkpt lat="42.102128" lon="23.572352"><ele>2641.7</ele><time>2026-03-08T11:57:37.000Z</time></trkpt>
<trkpt lat="42.102128" lon="23.572352"><ele>2641.7</ele><time>2026-03-08T11:57:38.000Z</time></trkpt>
<trkpt lat="42.102129" lon="23.572352"><ele>2641.7</ele><time>2026-03-08T11:57:39.000Z</time></trkpt>
<trkpt lat="42.102129" lon="23.572352"><ele>2641.7</ele><time>2026-03-08T11:57:40.000Z</time></trkpt>
<trkpt lat="42.102131" lon="23.572351"><ele>2641.7</ele><time>2026-03-08T11:57:41.000Z</time></trkpt>
<trkpt lat="42.102133" lon="23.572349"><ele>2641.8</ele><time>2026-03-08T11:57:42.000Z</time></trkpt>
<trkpt lat="42.102134" lon="23.572348"><ele>2641.8</ele><time>2026-03-08T11:57:43.000Z</time></trkpt>
<trkpt lat="42.102135" lon="23.572347"><ele>2641.8</ele><time>2026-03-08T11:57:44.000Z</time></trkpt>
<trkpt lat="42.102136" lon="23.572345"><ele>2641.8</ele><time>2026-03-08T11:57:45.000Z</time></trkpt>
<trkpt lat="42.102136" lon="23.572343"><ele>2641.8</ele><time>2026-03-08T11:57:46.000Z</time></trkpt>
<trkpt lat="42.102135" lon="23.572342"><ele>2641.8</ele><time>2026-03-08T11:57:47.000Z</time></trkpt>
<trkpt lat="42.102134" lon="23.572342"><ele>2641.8</ele><time>2026-03-08T11:57:48.000Z</time></trkpt>
<trkpt lat="42.102133" lon="23.572341"><ele>2641.8</ele><time>2026-03-08T11:57:49.000Z</time></trkpt>
<trkpt lat="42.102132" lon="23.572341"><ele>2641.8</ele><time>2026-03-08T11:57:50.000Z</time></trkpt>
<trkpt lat="42.102131" lon="23.572342"><ele>2641.8</ele><time>2026-03-08T11:57:51.000Z</time></trkpt>
<trkpt lat="42.10213" lon="23.572343"><ele>2641.6</ele><time>2026-03-08T11:57:52.000Z</time></trkpt>
<trkpt lat="42.102129" lon="23.572345"><ele>2641.6</ele><time>2026-03-08T11:57:53.000Z</time></trkpt>
<trkpt lat="42.102128" lon="23.572346"><ele>2641.6</ele><time>2026-03-08T11:57:54.000Z</time></trkpt>
<trkpt lat="42.102128" lon="23.572347"><ele>2641.6</ele><time>2026-03-08T11:57:55.000Z</time></trkpt>
<trkpt lat="42.102127" lon="23.572348"><ele>2641.6</ele><time>2026-03-08T11:57:56.000Z</time></trkpt>
<trkpt lat="42.102127" lon="23.572348"><ele>2641.5</ele><time>2026-03-08T11:57:57.000Z</time></trkpt>
<trkpt lat="42.102127" lon="23.572348"><ele>2641.5</ele><time>2026-03-08T11:57:58.000Z</time></trkpt>
<trkpt lat="42.102127" lon="23.572348"><ele>2641.5</ele><time>2026-03-08T11:57:59.000Z</time></trkpt>
<trkpt lat="42.102127" lon="23.572348"><ele>2641.5</ele><time>2026-03-08T11:58:00.000Z</time></trkpt>
<trkpt lat="42.102127" lon="23.572348"><ele>2641.5</ele><time>2026-03-08T11:58:01.000Z</time></trkpt>
<trkpt lat="42.102127" lon="23.572348"><ele>2641.5</ele><time>2026-03-08T11:58:02.000Z</time></trkpt>
<trkpt lat="42.102128" lon="23.572348"><ele>2641.5</ele><time>2026-03-08T11:58:03.000Z</time></trkpt>
<trkpt lat="42.102128" lon="23.572348"><ele>2641.5</ele><time>2026-03-08T11:58:04.000Z</time></trkpt>
<trkpt lat="42.102128" lon="23.572349"><ele>2641.5</ele><time>2026-03-08T11:58:05.000Z</time></trkpt>
<trkpt lat="42.102129" lon="23.572349"><ele>2641.5</ele><time>2026-03-08T11:58:06.000Z</time></trkpt>
<trkpt lat="42.102129" lon="23.57235"><ele>2641.4</ele><time>2026-03-08T11:58:07.000Z</time></trkpt>
<trkpt lat="42.102129" lon="23.57235"><ele>2641.4</ele><time>2026-03-08T11:58:08.000Z</time></trkpt>
<trkpt lat="42.10213" lon="23.572351"><ele>2641.4</ele><time>2026-03-08T11:58:09.000Z</time></trkpt>
<trkpt lat="42.10213" lon="23.572351"><ele>2641.4</ele><time>2026-03-08T11:58:10.000Z</time></trkpt>
<trkpt lat="42.10213" lon="23.572351"><ele>2641.4</ele><time>2026-03-08T11:58:11.000Z</time></trkpt>
<trkpt lat="42.10213" lon="23.572351"><ele>2641.4</ele><time>2026-03-08T11:58:12.000Z</time></trkpt>
<trkpt lat="42.10213" lon="23.572351"><ele>2641.4</ele><time>2026-03-08T11:58:13.000Z</time></trkpt>
<trkpt lat="42.10213" lon="23.572351"><ele>2641.4</ele><time>2026-03-08T11:58:14.000Z</time></trkpt>
<trkpt lat="42.10213" lon="23.572351"><ele>2641.4</ele><time>2026-03-08T11:58:15.000Z</time></trkpt>
<trkpt lat="42.10213" lon="23.572351"><ele>2641.4</ele><time>2026-03-08T11:58:16.000Z</time></trkpt>
<trkpt lat="42.10213" lon="23.572352"><ele>2641.3</ele><time>2026-03-08T11:58:17.000Z</time></trkpt>
<trkpt lat="42.10213" lon="23.572352"><ele>2641.3</ele><time>2026-03-08T11:58:18.000Z</time></trkpt>
<trkpt lat="42.10213" lon="23.572352"><ele>2641.3</ele><time>2026-03-08T11:58:19.000Z</time></trkpt>
<trkpt lat="42.10213" lon="23.572352"><ele>2641.3</ele><time>2026-03-08T11:58:20.000Z</time></trkpt>
<trkpt lat="42.10213" lon="23.572352"><ele>2641.3</ele><time>2026-03-08T11:58:21.000Z</time></trkpt>
<trkpt lat="42.10213" lon="23.572352"><ele>2641.4</ele><time>2026-03-08T11:58:22.000Z</time></trkpt>
<trkpt lat="42.10213" lon="23.572352"><ele>2641.4</ele><time>2026-03-08T11:58:23.000Z</time></trkpt>
<trkpt lat="42.10213" lon="23.572352"><ele>2641.4</ele><time>2026-03-08T11:58:24.000Z</time></trkpt>
<trkpt lat="42.10213" lon="23.572351"><ele>2641.4</ele><time>2026-03-08T11:58:25.000Z</time></trkpt>
<trkpt lat="42.10213" lon="23.572351"><ele>2641.4</ele><time>2026-03-08T11:58:26.000Z</time></trkpt>
<trkpt lat="42.10213" lon="23.572351"><ele>2641.4</ele><time>2026-03-08T11:58:27.000Z</time></trkpt>
<trkpt lat="42.10213" lon="23.57235"><ele>2641.4</ele><time>2026-03-08T11:58:28.000Z</time></trkpt>
<trkpt lat="42.102129" lon="23.57235"><ele>2641.4</ele><time>2026-03-08T11:58:29.000Z</time></trkpt>
<trkpt lat="42.102129" lon="23.57235"><ele>2641.4</ele><time>2026-03-08T11:58:30.000Z</time></trkpt>
<trkpt lat="42.102128" lon="23.572349"><ele>2641.4</ele><time>2026-03-08T11:58:31.000Z</time></trkpt>
<trkpt lat="42.102127" lon="23.572349"><ele>2641.4</ele><time>2026-03-08T11:58:32.000Z</time></trkpt>
<trkpt lat="42.102127" lon="23.572349"><ele>2641.4</ele><time>2026-03-08T11:58:33.000Z</time></trkpt>
<trkpt lat="42.102127" lon="23.572351"><ele>2641.4</ele><time>2026-03-08T11:58:34.000Z</time></trkpt>
<trkpt lat="42.102127" lon="23.572355"><ele>2641.4</ele><time>2026-03-08T11:58:35.000Z</time></trkpt>
<trkpt lat="42.102127" lon="23.572361"><ele>2641.4</ele><time>2026-03-08T11:58:36.000Z</time></trkpt>
<trkpt lat="42.102128" lon="23.572368"><ele>2641.2</ele><time>2026-03-08T11:58:37.000Z</time></trkpt>
<trkpt lat="42.102128" lon="23.572374"><ele>2641.2</ele><time>2026-03-08T11:58:38.000Z</time></trkpt>
<trkpt lat="42.102128" lon="23.572378"><ele>2641.2</ele><time>2026-03-08T11:58:39.000Z</time></trkpt>
<trkpt lat="42.102129" lon="23.572381"><ele>2641.2</ele><time>2026-03-08T11:58:40.000Z</time></trkpt>
<trkpt lat="42.102128" lon="23.572381"><ele>2641.2</ele><time>2026-03-08T11:58:41.000Z</time></trkpt>
<trkpt lat="42.102129" lon="23.572381"><ele>2641.2</ele><time>2026-03-08T11:58:42.000Z</time></trkpt>
<trkpt lat="42.102129" lon="23.572381"><ele>2641.2</ele><time>2026-03-08T11:58:43.000Z</time></trkpt>
<trkpt lat="42.102129" lon="23.572382"><ele>2641.2</ele><time>2026-03-08T11:58:44.000Z</time></trkpt>
<trkpt lat="42.10213" lon="23.572382"><ele>2641.2</ele><time>2026-03-08T11:58:45.000Z</time></trkpt>
<trkpt lat="42.10213" lon="23.572382"><ele>2641.2</ele><time>2026-03-08T11:58:46.000Z</time></trkpt>
<trkpt lat="42.10213" lon="23.572382"><ele>2641</ele><time>2026-03-08T11:58:47.000Z</time></trkpt>
<trkpt lat="42.10213" lon="23.572382"><ele>2641</ele><time>2026-03-08T11:58:48.000Z</time></trkpt>
<trkpt lat="42.10213" lon="23.572382"><ele>2641</ele><time>2026-03-08T11:58:49.000Z</time></trkpt>
<trkpt lat="42.10213" lon="23.572382"><ele>2641</ele><time>2026-03-08T11:58:50.000Z</time></trkpt>
<trkpt lat="42.102129" lon="23.572382"><ele>2641</ele><time>2026-03-08T11:58:51.000Z</time></trkpt>
<trkpt lat="42.102129" lon="23.572383"><ele>2641</ele><time>2026-03-08T11:58:52.000Z</time></trkpt>
<trkpt lat="42.102128" lon="23.572383"><ele>2641</ele><time>2026-03-08T11:58:53.000Z</time></trkpt>
<trkpt lat="42.102128" lon="23.572384"><ele>2641</ele><time>2026-03-08T11:58:54.000Z</time></trkpt>
<trkpt lat="42.102128" lon="23.572385"><ele>2641</ele><time>2026-03-08T11:58:55.000Z</time></trkpt>
<trkpt lat="42.102128" lon="23.572385"><ele>2641</ele><time>2026-03-08T11:58:56.000Z</time></trkpt>
<trkpt lat="42.102128" lon="23.572384"><ele>2641</ele><time>2026-03-08T11:58:57.000Z</time></trkpt>
<trkpt lat="42.102128" lon="23.572384"><ele>2641</ele><time>2026-03-08T11:58:58.000Z</time></trkpt>
<trkpt lat="42.102129" lon="23.572383"><ele>2641</ele><time>2026-03-08T11:58:59.000Z</time></trkpt>
<trkpt lat="42.102129" lon="23.572383"><ele>2641</ele><time>2026-03-08T11:59:00.000Z</time></trkpt>
<trkpt lat="42.10213" lon="23.572383"><ele>2641</ele><time>2026-03-08T11:59:01.000Z</time></trkpt>
<trkpt lat="42.10213" lon="23.572384"><ele>2641</ele><time>2026-03-08T11:59:02.000Z</time></trkpt>
<trkpt lat="42.10213" lon="23.572384"><ele>2641</ele><time>2026-03-08T11:59:03.000Z</time></trkpt>
<trkpt lat="42.10213" lon="23.572385"><ele>2641</ele><time>2026-03-08T11:59:04.000Z</time></trkpt>
<trkpt lat="42.102129" lon="23.572386"><ele>2641</ele><time>2026-03-08T11:59:05.000Z</time></trkpt>
<trkpt lat="42.102129" lon="23.572388"><ele>2641</ele><time>2026-03-08T11:59:06.000Z</time></trkpt>
<trkpt lat="42.102129" lon="23.572389"><ele>2640.9</ele><time>2026-03-08T11:59:07.000Z</time></trkpt>
<trkpt lat="42.102129" lon="23.57239"><ele>2640.9</ele><time>2026-03-08T11:59:08.000Z</time></trkpt>
<trkpt lat="42.102129" lon="23.57239"><ele>2640.9</ele><time>2026-03-08T11:59:09.000Z</time></trkpt>
<trkpt lat="42.102131" lon="23.572389"><ele>2640.9</ele><time>2026-03-08T11:59:10.000Z</time></trkpt>
<trkpt lat="42.102132" lon="23.572389"><ele>2640.9</ele><time>2026-03-08T11:59:11.000Z</time></trkpt>
<trkpt lat="42.102133" lon="23.572389"><ele>2640.7</ele><time>2026-03-08T11:59:12.000Z</time></trkpt>
<trkpt lat="42.102135" lon="23.572388"><ele>2640.7</ele><time>2026-03-08T11:59:13.000Z</time></trkpt>
<trkpt lat="42.102135" lon="23.572389"><ele>2640.7</ele><time>2026-03-08T11:59:14.000Z</time></trkpt>
<trkpt lat="42.102136" lon="23.57239"><ele>2640.7</ele><time>2026-03-08T11:59:15.000Z</time></trkpt>
<trkpt lat="42.102136" lon="23.57239"><ele>2640.7</ele><time>2026-03-08T11:59:16.000Z</time></trkpt>
<trkpt lat="42.102136" lon="23.572391"><ele>2640.6</ele><time>2026-03-08T11:59:17.000Z</time></trkpt>
<trkpt lat="42.102136" lon="23.572391"><ele>2640.6</ele><time>2026-03-08T11:59:18.000Z</time></trkpt>
<trkpt lat="42.102135" lon="23.572391"><ele>2640.6</ele><time>2026-03-08T11:59:19.000Z</time></trkpt>
<trkpt lat="42.102135" lon="23.57239"><ele>2640.6</ele><time>2026-03-08T11:59:20.000Z</time></trkpt>
<trkpt lat="42.102135" lon="23.572389"><ele>2640.6</ele><time>2026-03-08T11:59:21.000Z</time></trkpt>
<trkpt lat="42.102134" lon="23.572388"><ele>2640.6</ele><time>2026-03-08T11:59:22.000Z</time></trkpt>
<trkpt lat="42.102133" lon="23.572387"><ele>2640.6</ele><time>2026-03-08T11:59:23.000Z</time></trkpt>
<trkpt lat="42.102133" lon="23.572387"><ele>2640.6</ele><time>2026-03-08T11:59:24.000Z</time></trkpt>
<trkpt lat="42.102133" lon="23.572386"><ele>2640.6</ele><time>2026-03-08T11:59:25.000Z</time></trkpt>
<trkpt lat="42.102133" lon="23.572386"><ele>2640.6</ele><time>2026-03-08T11:59:26.000Z</time></trkpt>
<trkpt lat="42.102133" lon="23.572386"><ele>2640.6</ele><time>2026-03-08T11:59:27.000Z</time></trkpt>
<trkpt lat="42.102133" lon="23.572386"><ele>2640.6</ele><time>2026-03-08T11:59:28.000Z</time></trkpt>
<trkpt lat="42.102133" lon="23.572386"><ele>2640.6</ele><time>2026-03-08T11:59:29.000Z</time></trkpt>
<trkpt lat="42.102133" lon="23.572387"><ele>2640.6</ele><time>2026-03-08T11:59:30.000Z</time></trkpt>
<trkpt lat="42.102134" lon="23.572388"><ele>2640.6</ele><time>2026-03-08T11:59:31.000Z</time></trkpt>
<trkpt lat="42.102134" lon="23.572388"><ele>2640.5</ele><time>2026-03-08T11:59:32.000Z</time></trkpt>
<trkpt lat="42.102133" lon="23.572388"><ele>2640.5</ele><time>2026-03-08T11:59:33.000Z</time></trkpt>
<trkpt lat="42.102133" lon="23.572389"><ele>2640.5</ele><time>2026-03-08T11:59:34.000Z</time></trkpt>
<trkpt lat="42.102133" lon="23.572389"><ele>2640.5</ele><time>2026-03-08T11:59:35.000Z</time></trkpt>
<trkpt lat="42.102132" lon="23.572389"><ele>2640.5</ele><time>2026-03-08T11:59:36.000Z</time></trkpt>
<trkpt lat="42.102131" lon="23.57239"><ele>2640.7</ele><time>2026-03-08T11:59:37.000Z</time></trkpt>
<trkpt lat="42.10213" lon="23.57239"><ele>2640.7</ele><time>2026-03-08T11:59:38.000Z</time></trkpt>
<trkpt lat="42.102129" lon="23.572391"><ele>2640.7</ele><time>2026-03-08T11:59:39.000Z</time></trkpt>
<trkpt lat="42.102127" lon="23.572391"><ele>2640.7</ele><time>2026-03-08T11:59:40.000Z</time></trkpt>
<trkpt lat="42.102127" lon="23.572391"><ele>2640.7</ele><time>2026-03-08T11:59:41.000Z</time></trkpt>
<trkpt lat="42.102127" lon="23.572391"><ele>2640.8</ele><time>2026-03-08T11:59:42.000Z</time></trkpt>
<trkpt lat="42.102127" lon="23.57239"><ele>2640.8</ele><time>2026-03-08T11:59:43.000Z</time></trkpt>
<trkpt lat="42.102127" lon="23.572389"><ele>2640.8</ele><time>2026-03-08T11:59:44.000Z</time></trkpt>
<trkpt lat="42.102128" lon="23.572388"><ele>2640.8</ele><time>2026-03-08T11:59:45.000Z</time></trkpt>
<trkpt lat="42.102129" lon="23.572386"><ele>2640.8</ele><time>2026-03-08T11:59:46.000Z</time></trkpt>
<trkpt lat="42.102129" lon="23.572385"><ele>2641</ele><time>2026-03-08T11:59:47.000Z</time></trkpt>
<trkpt lat="42.102129" lon="23.572385"><ele>2641</ele><time>2026-03-08T11:59:48.000Z</time></trkpt>
<trkpt lat="42.102129" lon="23.572383"><ele>2641</ele><time>2026-03-08T11:59:49.000Z</time></trkpt>
<trkpt lat="42.102127" lon="23.572382"><ele>2641</ele><time>2026-03-08T11:59:50.000Z</time></trkpt>
<trkpt lat="42.102127" lon="23.572381"><ele>2641</ele><time>2026-03-08T11:59:51.000Z</time></trkpt>
<trkpt lat="42.102127" lon="23.572378"><ele>2641</ele><time>2026-03-08T11:59:52.000Z</time></trkpt>
<trkpt lat="42.102127" lon="23.572376"><ele>2641</ele><time>2026-03-08T11:59:53.000Z</time></trkpt>
<trkpt lat="42.102127" lon="23.572374"><ele>2641</ele><time>2026-03-08T11:59:54.000Z</time></trkpt>
<trkpt lat="42.102128" lon="23.572372"><ele>2641</ele><time>2026-03-08T11:59:55.000Z</time></trkpt>
<trkpt lat="42.102128" lon="23.572371"><ele>2641</ele><time>2026-03-08T11:59:56.000Z</time></trkpt>
<trkpt lat="42.102128" lon="23.572371"><ele>2641</ele><time>2026-03-08T11:59:57.000Z</time></trkpt>
<trkpt lat="42.102128" lon="23.572372"><ele>2641</ele><time>2026-03-08T11:59:58.000Z</time></trkpt>
<trkpt lat="42.102128" lon="23.572374"><ele>2641</ele><time>2026-03-08T11:59:59.000Z</time></trkpt>
<trkpt lat="42.102128" lon="23.572376"><ele>2641</ele><time>2026-03-08T12:00:00.000Z</time></trkpt>
<trkpt lat="42.102128" lon="23.572378"><ele>2641</ele><time>2026-03-08T12:00:01.000Z</time></trkpt>
<trkpt lat="42.102128" lon="23.572378"><ele>2640.9</ele><time>2026-03-08T12:00:02.000Z</time></trkpt>
<trkpt lat="42.102127" lon="23.572378"><ele>2640.9</ele><time>2026-03-08T12:00:03.000Z</time></trkpt>
<trkpt lat="42.102127" lon="23.572377"><ele>2640.9</ele><time>2026-03-08T12:00:04.000Z</time></trkpt>
<trkpt lat="42.102126" lon="23.572374"><ele>2640.9</ele><time>2026-03-08T12:00:05.000Z</time></trkpt>
<trkpt lat="42.102124" lon="23.572372"><ele>2640.9</ele><time>2026-03-08T12:00:06.000Z</time></trkpt>
<trkpt lat="42.102123" lon="23.57237"><ele>2641</ele><time>2026-03-08T12:00:07.000Z</time></trkpt>
<trkpt lat="42.102122" lon="23.572367"><ele>2641</ele><time>2026-03-08T12:00:08.000Z</time></trkpt>
<trkpt lat="42.102121" lon="23.572366"><ele>2641</ele><time>2026-03-08T12:00:09.000Z</time></trkpt>
<trkpt lat="42.102121" lon="23.572365"><ele>2641</ele><time>2026-03-08T12:00:10.000Z</time></trkpt>
<trkpt lat="42.102121" lon="23.572364"><ele>2641</ele><time>2026-03-08T12:00:11.000Z</time></trkpt>
<trkpt lat="42.102121" lon="23.572363"><ele>2640.9</ele><time>2026-03-08T12:00:12.000Z</time></trkpt>
<trkpt lat="42.102121" lon="23.572363"><ele>2640.9</ele><time>2026-03-08T12:00:13.000Z</time></trkpt>
<trkpt lat="42.102121" lon="23.572362"><ele>2640.9</ele><time>2026-03-08T12:00:14.000Z</time></trkpt>
<trkpt lat="42.102121" lon="23.572362"><ele>2640.9</ele><time>2026-03-08T12:00:15.000Z</time></trkpt>
<trkpt lat="42.102121" lon="23.572362"><ele>2640.9</ele><time>2026-03-08T12:00:16.000Z</time></trkpt>
<trkpt lat="42.102121" lon="23.572361"><ele>2640.9</ele><time>2026-03-08T12:00:17.000Z</time></trkpt>
<trkpt lat="42.102121" lon="23.572361"><ele>2640.9</ele><time>2026-03-08T12:00:18.000Z</time></trkpt>
<trkpt lat="42.102121" lon="23.572361"><ele>2640.9</ele><time>2026-03-08T12:00:19.000Z</time></trkpt>
<trkpt lat="42.102121" lon="23.572361"><ele>2640.9</ele><time>2026-03-08T12:00:20.000Z</time></trkpt>
<trkpt lat="42.102121" lon="23.572361"><ele>2640.9</ele><time>2026-03-08T12:00:21.000Z</time></trkpt>
<trkpt lat="42.102121" lon="23.572361"><ele>2641</ele><time>2026-03-08T12:00:22.000Z</time></trkpt>
<trkpt lat="42.102122" lon="23.572361"><ele>2641</ele><time>2026-03-08T12:00:23.000Z</time></trkpt>
<trkpt lat="42.102122" lon="23.572361"><ele>2641</ele><time>2026-03-08T12:00:24.000Z</time></trkpt>
<trkpt lat="42.102122" lon="23.572361"><ele>2641</ele><time>2026-03-08T12:00:25.000Z</time></trkpt>
<trkpt lat="42.102122" lon="23.572361"><ele>2641</ele><time>2026-03-08T12:00:26.000Z</time></trkpt>
<trkpt lat="42.102122" lon="23.572361"><ele>2641.2</ele><time>2026-03-08T12:00:27.000Z</time></trkpt>
<trkpt lat="42.102122" lon="23.572361"><ele>2641.2</ele><time>2026-03-08T12:00:28.000Z</time></trkpt>
<trkpt lat="42.102122" lon="23.572361"><ele>2641.2</ele><time>2026-03-08T12:00:29.000Z</time></trkpt>
<trkpt lat="42.102122" lon="23.57236"><ele>2641.2</ele><time>2026-03-08T12:00:30.000Z</time></trkpt>
<trkpt lat="42.102122" lon="23.57236"><ele>2641.2</ele><time>2026-03-08T12:00:31.000Z</time></trkpt>
<trkpt lat="42.102122" lon="23.57236"><ele>2641.5</ele><time>2026-03-08T12:00:32.000Z</time></trkpt>
<trkpt lat="42.102122" lon="23.572359"><ele>2641.5</ele><time>2026-03-08T12:00:33.000Z</time></trkpt>
<trkpt lat="42.102122" lon="23.572359"><ele>2641.5</ele><time>2026-03-08T12:00:34.000Z</time></trkpt>
<trkpt lat="42.102121" lon="23.572358"><ele>2641.5</ele><time>2026-03-08T12:00:35.000Z</time></trkpt>
<trkpt lat="42.10212" lon="23.572357"><ele>2641.5</ele><time>2026-03-08T12:00:36.000Z</time></trkpt>
<trkpt lat="42.10212" lon="23.572356"><ele>2641.8</ele><time>2026-03-08T12:00:37.000Z</time></trkpt>
<trkpt lat="42.102119" lon="23.572355"><ele>2641.8</ele><time>2026-03-08T12:00:38.000Z</time></trkpt>
<trkpt lat="42.102119" lon="23.572355"><ele>2641.8</ele><time>2026-03-08T12:00:39.000Z</time></trkpt>
<trkpt lat="42.102118" lon="23.572355"><ele>2641.8</ele><time>2026-03-08T12:00:40.000Z</time></trkpt>
<trkpt lat="42.102118" lon="23.572354"><ele>2641.8</ele><time>2026-03-08T12:00:41.000Z</time></trkpt>
<trkpt lat="42.102118" lon="23.572354"><ele>2641.8</ele><time>2026-03-08T12:00:42.000Z</time></trkpt>
<trkpt lat="42.102118" lon="23.572354"><ele>2641.8</ele><time>2026-03-08T12:00:43.000Z</time></trkpt>
<trkpt lat="42.102118" lon="23.572354"><ele>2641.8</ele><time>2026-03-08T12:00:44.000Z</time></trkpt>
<trkpt lat="42.102118" lon="23.572354"><ele>2641.8</ele><time>2026-03-08T12:00:45.000Z</time></trkpt>
<trkpt lat="42.102118" lon="23.572354"><ele>2641.8</ele><time>2026-03-08T12:00:46.000Z</time></trkpt>
<trkpt lat="42.102118" lon="23.572354"><ele>2641.9</ele><time>2026-03-08T12:00:47.000Z</time></trkpt>
<trkpt lat="42.102118" lon="23.572354"><ele>2641.9</ele><time>2026-03-08T12:00:48.000Z</time></trkpt>
<trkpt lat="42.102118" lon="23.572354"><ele>2641.9</ele><time>2026-03-08T12:00:49.000Z</time></trkpt>
<trkpt lat="42.102118" lon="23.572354"><ele>2641.9</ele><time>2026-03-08T12:00:50.000Z</time></trkpt>
<trkpt lat="42.102118" lon="23.572354"><ele>2641.9</ele><time>2026-03-08T12:00:51.000Z</time></trkpt>
<trkpt lat="42.102118" lon="23.572354"><ele>2641.6</ele><time>2026-03-08T12:00:52.000Z</time></trkpt>
<trkpt lat="42.102118" lon="23.572354"><ele>2641.6</ele><time>2026-03-08T12:00:53.000Z</time></trkpt>
<trkpt lat="42.102118" lon="23.572354"><ele>2641.6</ele><time>2026-03-08T12:00:54.000Z</time></trkpt>
<trkpt lat="42.102118" lon="23.572354"><ele>2641.6</ele><time>2026-03-08T12:00:55.000Z</time></trkpt>
<trkpt lat="42.102119" lon="23.572353"><ele>2641.6</ele><time>2026-03-08T12:00:56.000Z</time></trkpt>
<trkpt lat="42.10212" lon="23.572352"><ele>2641.5</ele><time>2026-03-08T12:00:57.000Z</time></trkpt>
<trkpt lat="42.102121" lon="23.572351"><ele>2641.5</ele><time>2026-03-08T12:00:58.000Z</time></trkpt>
<trkpt lat="42.102122" lon="23.57235"><ele>2641.5</ele><time>2026-03-08T12:00:59.000Z</time></trkpt>
<trkpt lat="42.102123" lon="23.57235"><ele>2641.5</ele><time>2026-03-08T12:01:00.000Z</time></trkpt>
<trkpt lat="42.102123" lon="23.57235"><ele>2641.5</ele><time>2026-03-08T12:01:01.000Z</time></trkpt>
<trkpt lat="42.102124" lon="23.57235"><ele>2641.5</ele><time>2026-03-08T12:01:02.000Z</time></trkpt>
<trkpt lat="42.102124" lon="23.572351"><ele>2641.5</ele><time>2026-03-08T12:01:03.000Z</time></trkpt>
<trkpt lat="42.102124" lon="23.572351"><ele>2641.5</ele><time>2026-03-08T12:01:04.000Z</time></trkpt>
<trkpt lat="42.102124" lon="23.572351"><ele>2641.5</ele><time>2026-03-08T12:01:05.000Z</time></trkpt>
<trkpt lat="42.102124" lon="23.572351"><ele>2641.5</ele><time>2026-03-08T12:01:06.000Z</time></trkpt>
<trkpt lat="42.102124" lon="23.572351"><ele>2641.6</ele><time>2026-03-08T12:01:07.000Z</time></trkpt>
<trkpt lat="42.102124" lon="23.572351"><ele>2641.6</ele><time>2026-03-08T12:01:08.000Z</time></trkpt>
<trkpt lat="42.102124" lon="23.572351"><ele>2641.6</ele><time>2026-03-08T12:01:09.000Z</time></trkpt>
<trkpt lat="42.102124" lon="23.572351"><ele>2641.6</ele><time>2026-03-08T12:01:10.000Z</time></trkpt>
<trkpt lat="42.102124" lon="23.572351"><ele>2641.6</ele><time>2026-03-08T12:01:11.000Z</time></trkpt>
<trkpt lat="42.102124" lon="23.572351"><ele>2641.6</ele><time>2026-03-08T12:01:12.000Z</time></trkpt>
<trkpt lat="42.102124" lon="23.572351"><ele>2641.6</ele><time>2026-03-08T12:01:13.000Z</time></trkpt>
<trkpt lat="42.102124" lon="23.572351"><ele>2641.6</ele><time>2026-03-08T12:01:14.000Z</time></trkpt>
<trkpt lat="42.102124" lon="23.572351"><ele>2641.6</ele><time>2026-03-08T12:01:15.000Z</time></trkpt>
<trkpt lat="42.102124" lon="23.572351"><ele>2641.6</ele><time>2026-03-08T12:01:16.000Z</time></trkpt>
<trkpt lat="42.102123" lon="23.57235"><ele>2641.4</ele><time>2026-03-08T12:01:17.000Z</time></trkpt>
<trkpt lat="42.102123" lon="23.57235"><ele>2641.4</ele><time>2026-03-08T12:01:18.000Z</time></trkpt>
<trkpt lat="42.102122" lon="23.57235"><ele>2641.4</ele><time>2026-03-08T12:01:19.000Z</time></trkpt>
<trkpt lat="42.102122" lon="23.57235"><ele>2641.4</ele><time>2026-03-08T12:01:20.000Z</time></trkpt>
<trkpt lat="42.102121" lon="23.57235"><ele>2641.4</ele><time>2026-03-08T12:01:21.000Z</time></trkpt>
<trkpt lat="42.102122" lon="23.572349"><ele>2641.1</ele><time>2026-03-08T12:01:22.000Z</time></trkpt>
<trkpt lat="42.102122" lon="23.572349"><ele>2641.1</ele><time>2026-03-08T12:01:23.000Z</time></trkpt>
<trkpt lat="42.102122" lon="23.572349"><ele>2641.1</ele><time>2026-03-08T12:01:24.000Z</time></trkpt>
<trkpt lat="42.102122" lon="23.572349"><ele>2641.1</ele><time>2026-03-08T12:01:25.000Z</time></trkpt>
<trkpt lat="42.102122" lon="23.572349"><ele>2641.1</ele><time>2026-03-08T12:01:26.000Z</time></trkpt>
<trkpt lat="42.102122" lon="23.572349"><ele>2641.1</ele><time>2026-03-08T12:01:27.000Z</time></trkpt>
<trkpt lat="42.102122" lon="23.572349"><ele>2641.1</ele><time>2026-03-08T12:01:28.000Z</time></trkpt>
<trkpt lat="42.102122" lon="23.572349"><ele>2641.1</ele><time>2026-03-08T12:01:29.000Z</time></trkpt>
<trkpt lat="42.102122" lon="23.572349"><ele>2641.1</ele><time>2026-03-08T12:01:30.000Z</time></trkpt>
<trkpt lat="42.102122" lon="23.572349"><ele>2641.1</ele><time>2026-03-08T12:01:31.000Z</time></trkpt>
<trkpt lat="42.102122" lon="23.572349"><ele>2641.2</ele><time>2026-03-08T12:01:32.000Z</time></trkpt>
<trkpt lat="42.102122" lon="23.572349"><ele>2641.2</ele><time>2026-03-08T12:01:33.000Z</time></trkpt>
<trkpt lat="42.102122" lon="23.572349"><ele>2641.2</ele><time>2026-03-08T12:01:34.000Z</time></trkpt>
<trkpt lat="42.102122" lon="23.572349"><ele>2641.2</ele><time>2026-03-08T12:01:35.000Z</time></trkpt>
<trkpt lat="42.102123" lon="23.572349"><ele>2641.2</ele><time>2026-03-08T12:01:36.000Z</time></trkpt>
<trkpt lat="42.102123" lon="23.572351"><ele>2641.4</ele><time>2026-03-08T12:01:37.000Z</time></trkpt>
<trkpt lat="42.102124" lon="23.572352"><ele>2641.4</ele><time>2026-03-08T12:01:38.000Z</time></trkpt>
<trkpt lat="42.102124" lon="23.572353"><ele>2641.4</ele><time>2026-03-08T12:01:39.000Z</time></trkpt>
<trkpt lat="42.102124" lon="23.572354"><ele>2641.4</ele><time>2026-03-08T12:01:40.000Z</time></trkpt>
<trkpt lat="42.102124" lon="23.572354"><ele>2641.4</ele><time>2026-03-08T12:01:41.000Z</time></trkpt>
<trkpt lat="42.102124" lon="23.572354"><ele>2641.4</ele><time>2026-03-08T12:01:42.000Z</time></trkpt>
<trkpt lat="42.102124" lon="23.572354"><ele>2641.4</ele><time>2026-03-08T12:01:43.000Z</time></trkpt>
<trkpt lat="42.102124" lon="23.572354"><ele>2641.4</ele><time>2026-03-08T12:01:44.000Z</time></trkpt>
<trkpt lat="42.102124" lon="23.572354"><ele>2641.4</ele><time>2026-03-08T12:01:45.000Z</time></trkpt>
<trkpt lat="42.102124" lon="23.572354"><ele>2641.4</ele><time>2026-03-08T12:01:46.000Z</time></trkpt>
<trkpt lat="42.102124" lon="23.572354"><ele>2641.3</ele><time>2026-03-08T12:01:47.000Z</time></trkpt>
<trkpt lat="42.102124" lon="23.572354"><ele>2641.3</ele><time>2026-03-08T12:01:48.000Z</time></trkpt>
<trkpt lat="42.102124" lon="23.572354"><ele>2641.3</ele><time>2026-03-08T12:01:49.000Z</time></trkpt>
<trkpt lat="42.102124" lon="23.572353"><ele>2641.3</ele><time>2026-03-08T12:01:50.000Z</time></trkpt>
<trkpt lat="42.102122" lon="23.572351"><ele>2641.3</ele><time>2026-03-08T12:01:51.000Z</time></trkpt>
<trkpt lat="42.102121" lon="23.572348"><ele>2641</ele><time>2026-03-08T12:01:52.000Z</time></trkpt>
<trkpt lat="42.102119" lon="23.572344"><ele>2641</ele><time>2026-03-08T12:01:53.000Z</time></trkpt>
<trkpt lat="42.102116" lon="23.57234"><ele>2641</ele><time>2026-03-08T12:01:54.000Z</time></trkpt>
<trkpt lat="42.102114" lon="23.572334"><ele>2641</ele><time>2026-03-08T12:01:55.000Z</time></trkpt>
<trkpt lat="42.102113" lon="23.572329"><ele>2641</ele><time>2026-03-08T12:01:56.000Z</time></trkpt>
<trkpt lat="42.102112" lon="23.572323"><ele>2641</ele><time>2026-03-08T12:01:57.000Z</time></trkpt>
<trkpt lat="42.102111" lon="23.572316"><ele>2641</ele><time>2026-03-08T12:01:58.000Z</time></trkpt>
<trkpt lat="42.102112" lon="23.57231"><ele>2641</ele><time>2026-03-08T12:01:59.000Z</time></trkpt>
<trkpt lat="42.102112" lon="23.572305"><ele>2641</ele><time>2026-03-08T12:02:00.000Z</time></trkpt>
<trkpt lat="42.102112" lon="23.572303"><ele>2641</ele><time>2026-03-08T12:02:01.000Z</time></trkpt>
<trkpt lat="42.102111" lon="23.5723"><ele>2641</ele><time>2026-03-08T12:02:02.000Z</time></trkpt>
<trkpt lat="42.10211" lon="23.572301"><ele>2641</ele><time>2026-03-08T12:02:03.000Z</time></trkpt>
<trkpt lat="42.102109" lon="23.572301"><ele>2641</ele><time>2026-03-08T12:02:04.000Z</time></trkpt>
<trkpt lat="42.102108" lon="23.572301"><ele>2641</ele><time>2026-03-08T12:02:05.000Z</time></trkpt>
<trkpt lat="42.102107" lon="23.572301"><ele>2641</ele><time>2026-03-08T12:02:06.000Z</time></trkpt>
<trkpt lat="42.102106" lon="23.572301"><ele>2641</ele><time>2026-03-08T12:02:07.000Z</time></trkpt>
<trkpt lat="42.102106" lon="23.572301"><ele>2641</ele><time>2026-03-08T12:02:08.000Z</time></trkpt>
<trkpt lat="42.102106" lon="23.572301"><ele>2641</ele><time>2026-03-08T12:02:09.000Z</time></trkpt>
<trkpt lat="42.102106" lon="23.572301"><ele>2641</ele><time>2026-03-08T12:02:10.000Z</time></trkpt>
<trkpt lat="42.102106" lon="23.572301"><ele>2641</ele><time>2026-03-08T12:02:11.000Z</time></trkpt>
<trkpt lat="42.102105" lon="23.5723"><ele>2640.8</ele><time>2026-03-08T12:02:12.000Z</time></trkpt>
<trkpt lat="42.102105" lon="23.572301"><ele>2640.8</ele><time>2026-03-08T12:02:13.000Z</time></trkpt>
<trkpt lat="42.102105" lon="23.5723"><ele>2640.8</ele><time>2026-03-08T12:02:14.000Z</time></trkpt>
<trkpt lat="42.102106" lon="23.5723"><ele>2640.8</ele><time>2026-03-08T12:02:15.000Z</time></trkpt>
<trkpt lat="42.102107" lon="23.572298"><ele>2640.8</ele><time>2026-03-08T12:02:16.000Z</time></trkpt>
<trkpt lat="42.102107" lon="23.572297"><ele>2640.6</ele><time>2026-03-08T12:02:17.000Z</time></trkpt>
<trkpt lat="42.102108" lon="23.572296"><ele>2640.6</ele><time>2026-03-08T12:02:18.000Z</time></trkpt>
<trkpt lat="42.102109" lon="23.572295"><ele>2640.6</ele><time>2026-03-08T12:02:19.000Z</time></trkpt>
<trkpt lat="42.10211" lon="23.572295"><ele>2640.6</ele><time>2026-03-08T12:02:20.000Z</time></trkpt>
<trkpt lat="42.10211" lon="23.572295"><ele>2640.6</ele><time>2026-03-08T12:02:21.000Z</time></trkpt>
<trkpt lat="42.10211" lon="23.572296"><ele>2640.3</ele><time>2026-03-08T12:02:22.000Z</time></trkpt>
<trkpt lat="42.102111" lon="23.572296"><ele>2640.3</ele><time>2026-03-08T12:02:23.000Z</time></trkpt>
<trkpt lat="42.102111" lon="23.572296"><ele>2640.3</ele><time>2026-03-08T12:02:24.000Z</time></trkpt>
<trkpt lat="42.102111" lon="23.572296"><ele>2640.3</ele><time>2026-03-08T12:02:25.000Z</time></trkpt>
<trkpt lat="42.102111" lon="23.572296"><ele>2640.3</ele><time>2026-03-08T12:02:26.000Z</time></trkpt>
<trkpt lat="42.102111" lon="23.572296"><ele>2640.4</ele><time>2026-03-08T12:02:27.000Z</time></trkpt>
<trkpt lat="42.102111" lon="23.572296"><ele>2640.4</ele><time>2026-03-08T12:02:28.000Z</time></trkpt>
<trkpt lat="42.102111" lon="23.572296"><ele>2640.4</ele><time>2026-03-08T12:02:29.000Z</time></trkpt>
<trkpt lat="42.102111" lon="23.572296"><ele>2640.4</ele><time>2026-03-08T12:02:30.000Z</time></trkpt>
<trkpt lat="42.102111" lon="23.572296"><ele>2640.4</ele><time>2026-03-08T12:02:31.000Z</time></trkpt>
<trkpt lat="42.102111" lon="23.572296"><ele>2640.6</ele><time>2026-03-08T12:02:32.000Z</time></trkpt>
<trkpt lat="42.102111" lon="23.572296"><ele>2640.6</ele><time>2026-03-08T12:02:33.000Z</time></trkpt>
<trkpt lat="42.102111" lon="23.572296"><ele>2640.6</ele><time>2026-03-08T12:02:34.000Z</time></trkpt>
<trkpt lat="42.102111" lon="23.572297"><ele>2640.6</ele><time>2026-03-08T12:02:35.000Z</time></trkpt>
<trkpt lat="42.102112" lon="23.572302"><ele>2640.6</ele><time>2026-03-08T12:02:36.000Z</time></trkpt>
<trkpt lat="42.102113" lon="23.572308"><ele>2640.8</ele><time>2026-03-08T12:02:37.000Z</time></trkpt>
<trkpt lat="42.102114" lon="23.572316"><ele>2640.8</ele><time>2026-03-08T12:02:38.000Z</time></trkpt>
<trkpt lat="42.102114" lon="23.572324"><ele>2640.8</ele><time>2026-03-08T12:02:39.000Z</time></trkpt>
<trkpt lat="42.102114" lon="23.57233"><ele>2640.8</ele><time>2026-03-08T12:02:40.000Z</time></trkpt>
<trkpt lat="42.102114" lon="23.572334"><ele>2640.8</ele><time>2026-03-08T12:02:41.000Z</time></trkpt>
<trkpt lat="42.102113" lon="23.572334"><ele>2640.8</ele><time>2026-03-08T12:02:42.000Z</time></trkpt>
<trkpt lat="42.102113" lon="23.572334"><ele>2640.8</ele><time>2026-03-08T12:02:43.000Z</time></trkpt>
<trkpt lat="42.102113" lon="23.572334"><ele>2640.8</ele><time>2026-03-08T12:02:44.000Z</time></trkpt>
<trkpt lat="42.102113" lon="23.572334"><ele>2640.8</ele><time>2026-03-08T12:02:45.000Z</time></trkpt>
<trkpt lat="42.102113" lon="23.572334"><ele>2640.8</ele><time>2026-03-08T12:02:46.000Z</time></trkpt>
<trkpt lat="42.102114" lon="23.572335"><ele>2640.9</ele><time>2026-03-08T12:02:47.000Z</time></trkpt>
<trkpt lat="42.102115" lon="23.572336"><ele>2640.9</ele><time>2026-03-08T12:02:48.000Z</time></trkpt>
<trkpt lat="42.102115" lon="23.57234"><ele>2640.9</ele><time>2026-03-08T12:02:49.000Z</time></trkpt>
<trkpt lat="42.102114" lon="23.572343"><ele>2640.9</ele><time>2026-03-08T12:02:50.000Z</time></trkpt>
<trkpt lat="42.102114" lon="23.572347"><ele>2640.9</ele><time>2026-03-08T12:02:51.000Z</time></trkpt>
<trkpt lat="42.102114" lon="23.57235"><ele>2641</ele><time>2026-03-08T12:02:52.000Z</time></trkpt>
<trkpt lat="42.102114" lon="23.572353"><ele>2641</ele><time>2026-03-08T12:02:53.000Z</time></trkpt>
<trkpt lat="42.102114" lon="23.572354"><ele>2641</ele><time>2026-03-08T12:02:54.000Z</time></trkpt>
<trkpt lat="42.102116" lon="23.572355"><ele>2641</ele><time>2026-03-08T12:02:55.000Z</time></trkpt>
<trkpt lat="42.102117" lon="23.572356"><ele>2641</ele><time>2026-03-08T12:02:56.000Z</time></trkpt>
<trkpt lat="42.102118" lon="23.572357"><ele>2641</ele><time>2026-03-08T12:02:57.000Z</time></trkpt>
<trkpt lat="42.10212" lon="23.572357"><ele>2641</ele><time>2026-03-08T12:02:58.000Z</time></trkpt>
<trkpt lat="42.102122" lon="23.572359"><ele>2641</ele><time>2026-03-08T12:02:59.000Z</time></trkpt>
<trkpt lat="42.102123" lon="23.57236"><ele>2641</ele><time>2026-03-08T12:03:00.000Z</time></trkpt>
<trkpt lat="42.102126" lon="23.572362"><ele>2641</ele><time>2026-03-08T12:03:01.000Z</time></trkpt>
<trkpt lat="42.102128" lon="23.572363"><ele>2641</ele><time>2026-03-08T12:03:02.000Z</time></trkpt>
<trkpt lat="42.102129" lon="23.572365"><ele>2641</ele><time>2026-03-08T12:03:03.000Z</time></trkpt>
<trkpt lat="42.102131" lon="23.572365"><ele>2641</ele><time>2026-03-08T12:03:04.000Z</time></trkpt>
<trkpt lat="42.102131" lon="23.572367"><ele>2641</ele><time>2026-03-08T12:03:05.000Z</time></trkpt>
<trkpt lat="42.102131" lon="23.572367"><ele>2641</ele><time>2026-03-08T12:03:06.000Z</time></trkpt>
<trkpt lat="42.102131" lon="23.572367"><ele>2640.8</ele><time>2026-03-08T12:03:07.000Z</time></trkpt>
<trkpt lat="42.102131" lon="23.572367"><ele>2640.8</ele><time>2026-03-08T12:03:08.000Z</time></trkpt>
<trkpt lat="42.10213" lon="23.572367"><ele>2640.8</ele><time>2026-03-08T12:03:09.000Z</time></trkpt>
<trkpt lat="42.10213" lon="23.572367"><ele>2640.8</ele><time>2026-03-08T12:03:10.000Z</time></trkpt>
<trkpt lat="42.10213" lon="23.572368"><ele>2640.8</ele><time>2026-03-08T12:03:11.000Z</time></trkpt>
<trkpt lat="42.10213" lon="23.572369"><ele>2640.7</ele><time>2026-03-08T12:03:12.000Z</time></trkpt>
<trkpt lat="42.10213" lon="23.572369"><ele>2640.7</ele><time>2026-03-08T12:03:13.000Z</time></trkpt>
<trkpt lat="42.102131" lon="23.572369"><ele>2640.7</ele><time>2026-03-08T12:03:14.000Z</time></trkpt>
<trkpt lat="42.102131" lon="23.572369"><ele>2640.7</ele><time>2026-03-08T12:03:15.000Z</time></trkpt>
<trkpt lat="42.102131" lon="23.572369"><ele>2640.7</ele><time>2026-03-08T12:03:16.000Z</time></trkpt>
<trkpt lat="42.102131" lon="23.57237"><ele>2640.4</ele><time>2026-03-08T12:03:17.000Z</time></trkpt>
<trkpt lat="42.10213" lon="23.57237"><ele>2640.4</ele><time>2026-03-08T12:03:18.000Z</time></trkpt>
<trkpt lat="42.10213" lon="23.572371"><ele>2640.4</ele><time>2026-03-08T12:03:19.000Z</time></trkpt>
<trkpt lat="42.10213" lon="23.572372"><ele>2640.4</ele><time>2026-03-08T12:03:20.000Z</time></trkpt>
<trkpt lat="42.10213" lon="23.572374"><ele>2640.4</ele><time>2026-03-08T12:03:21.000Z</time></trkpt>
<trkpt lat="42.102129" lon="23.572376"><ele>2640.2</ele><time>2026-03-08T12:03:22.000Z</time></trkpt>
<trkpt lat="42.102128" lon="23.572377"><ele>2640.2</ele><time>2026-03-08T12:03:23.000Z</time></trkpt>
<trkpt lat="42.102128" lon="23.572379"><ele>2640.2</ele><time>2026-03-08T12:03:24.000Z</time></trkpt>
<trkpt lat="42.102129" lon="23.572381"><ele>2640.2</ele><time>2026-03-08T12:03:25.000Z</time></trkpt>
<trkpt lat="42.102128" lon="23.572381"><ele>2640.2</ele><time>2026-03-08T12:03:26.000Z</time></trkpt>
<trkpt lat="42.102129" lon="23.572383"><ele>2640.2</ele><time>2026-03-08T12:03:27.000Z</time></trkpt>
<trkpt lat="42.102131" lon="23.572384"><ele>2640.2</ele><time>2026-03-08T12:03:28.000Z</time></trkpt>
<trkpt lat="42.102131" lon="23.572385"><ele>2640.2</ele><time>2026-03-08T12:03:29.000Z</time></trkpt>
<trkpt lat="42.102131" lon="23.572385"><ele>2640.2</ele><time>2026-03-08T12:03:30.000Z</time></trkpt>
<trkpt lat="42.102131" lon="23.572385"><ele>2640.2</ele><time>2026-03-08T12:03:31.000Z</time></trkpt>
<trkpt lat="42.102131" lon="23.572385"><ele>2640.2</ele><time>2026-03-08T12:03:32.000Z</time></trkpt>
<trkpt lat="42.102131" lon="23.572384"><ele>2640.2</ele><time>2026-03-08T12:03:33.000Z</time></trkpt>
<trkpt lat="42.102131" lon="23.572384"><ele>2640.2</ele><time>2026-03-08T12:03:34.000Z</time></trkpt>
<trkpt lat="42.10213" lon="23.572383"><ele>2640.2</ele><time>2026-03-08T12:03:35.000Z</time></trkpt>
<trkpt lat="42.10213" lon="23.572383"><ele>2640.2</ele><time>2026-03-08T12:03:36.000Z</time></trkpt>
<trkpt lat="42.10213" lon="23.572383"><ele>2640.4</ele><time>2026-03-08T12:03:37.000Z</time></trkpt>
<trkpt lat="42.10213" lon="23.572383"><ele>2640.4</ele><time>2026-03-08T12:03:38.000Z</time></trkpt>
<trkpt lat="42.10213" lon="23.572383"><ele>2640.4</ele><time>2026-03-08T12:03:39.000Z</time></trkpt>
<trkpt lat="42.10213" lon="23.572382"><ele>2640.4</ele><time>2026-03-08T12:03:40.000Z</time></trkpt>
<trkpt lat="42.10213" lon="23.572382"><ele>2640.4</ele><time>2026-03-08T12:03:41.000Z</time></trkpt>
<trkpt lat="42.10213" lon="23.572382"><ele>2640.4</ele><time>2026-03-08T12:03:42.000Z</time></trkpt>
<trkpt lat="42.10213" lon="23.572382"><ele>2640.4</ele><time>2026-03-08T12:03:43.000Z</time></trkpt>
<trkpt lat="42.10213" lon="23.572382"><ele>2640.4</ele><time>2026-03-08T12:03:44.000Z</time></trkpt>
<trkpt lat="42.10213" lon="23.572381"><ele>2640.4</ele><time>2026-03-08T12:03:45.000Z</time></trkpt>
<trkpt lat="42.10213" lon="23.57238"><ele>2640.4</ele><time>2026-03-08T12:03:46.000Z</time></trkpt>
<trkpt lat="42.102131" lon="23.572379"><ele>2640.3</ele><time>2026-03-08T12:03:47.000Z</time></trkpt>
<trkpt lat="42.102132" lon="23.572377"><ele>2640.3</ele><time>2026-03-08T12:03:48.000Z</time></trkpt>
<trkpt lat="42.102132" lon="23.572375"><ele>2640.3</ele><time>2026-03-08T12:03:49.000Z</time></trkpt>
<trkpt lat="42.102133" lon="23.572374"><ele>2640.3</ele><time>2026-03-08T12:03:50.000Z</time></trkpt>
<trkpt lat="42.102134" lon="23.572373"><ele>2640.3</ele><time>2026-03-08T12:03:51.000Z</time></trkpt>
<trkpt lat="42.102134" lon="23.572373"><ele>2640.3</ele><time>2026-03-08T12:03:52.000Z</time></trkpt>
<trkpt lat="42.102135" lon="23.572372"><ele>2640.3</ele><time>2026-03-08T12:03:53.000Z</time></trkpt>
<trkpt lat="42.102136" lon="23.572372"><ele>2640.3</ele><time>2026-03-08T12:03:54.000Z</time></trkpt>
<trkpt lat="42.102136" lon="23.572372"><ele>2640.3</ele><time>2026-03-08T12:03:55.000Z</time></trkpt>
<trkpt lat="42.102136" lon="23.572372"><ele>2640.3</ele><time>2026-03-08T12:03:56.000Z</time></trkpt>
<trkpt lat="42.102136" lon="23.572371"><ele>2640.5</ele><time>2026-03-08T12:03:57.000Z</time></trkpt>
<trkpt lat="42.102136" lon="23.572371"><ele>2640.5</ele><time>2026-03-08T12:03:58.000Z</time></trkpt>
<trkpt lat="42.102136" lon="23.572371"><ele>2640.5</ele><time>2026-03-08T12:03:59.000Z</time></trkpt>
<trkpt lat="42.102136" lon="23.572371"><ele>2640.5</ele><time>2026-03-08T12:04:00.000Z</time></trkpt>
<trkpt lat="42.102136" lon="23.572371"><ele>2640.5</ele><time>2026-03-08T12:04:01.000Z</time></trkpt>
<trkpt lat="42.102136" lon="23.572371"><ele>2640.6</ele><time>2026-03-08T12:04:02.000Z</time></trkpt>
<trkpt lat="42.102136" lon="23.572371"><ele>2640.6</ele><time>2026-03-08T12:04:03.000Z</time></trkpt>
<trkpt lat="42.102136" lon="23.572371"><ele>2640.6</ele><time>2026-03-08T12:04:04.000Z</time></trkpt>
<trkpt lat="42.102136" lon="23.572372"><ele>2640.6</ele><time>2026-03-08T12:04:05.000Z</time></trkpt>
<trkpt lat="42.102136" lon="23.572372"><ele>2640.6</ele><time>2026-03-08T12:04:06.000Z</time></trkpt>
<trkpt lat="42.102135" lon="23.572372"><ele>2640.5</ele><time>2026-03-08T12:04:07.000Z</time></trkpt>
<trkpt lat="42.102134" lon="23.572373"><ele>2640.5</ele><time>2026-03-08T12:04:08.000Z</time></trkpt>
<trkpt lat="42.102132" lon="23.572374"><ele>2640.5</ele><time>2026-03-08T12:04:09.000Z</time></trkpt>
<trkpt lat="42.102132" lon="23.572374"><ele>2640.5</ele><time>2026-03-08T12:04:10.000Z</time></trkpt>
<trkpt lat="42.102131" lon="23.572374"><ele>2640.5</ele><time>2026-03-08T12:04:11.000Z</time></trkpt>
<trkpt lat="42.102131" lon="23.572374"><ele>2640.5</ele><time>2026-03-08T12:04:12.000Z</time></trkpt>
<trkpt lat="42.10213" lon="23.572373"><ele>2640.5</ele><time>2026-03-08T12:04:13.000Z</time></trkpt>
<trkpt lat="42.10213" lon="23.572373"><ele>2640.5</ele><time>2026-03-08T12:04:14.000Z</time></trkpt>
<trkpt lat="42.10213" lon="23.572372"><ele>2640.5</ele><time>2026-03-08T12:04:15.000Z</time></trkpt>
<trkpt lat="42.10213" lon="23.572372"><ele>2640.5</ele><time>2026-03-08T12:04:16.000Z</time></trkpt>
<trkpt lat="42.10213" lon="23.572372"><ele>2640.5</ele><time>2026-03-08T12:04:17.000Z</time></trkpt>
<trkpt lat="42.10213" lon="23.572372"><ele>2640.5</ele><time>2026-03-08T12:04:18.000Z</time></trkpt>
<trkpt lat="42.10213" lon="23.572372"><ele>2640.5</ele><time>2026-03-08T12:04:19.000Z</time></trkpt>
<trkpt lat="42.10213" lon="23.572373"><ele>2640.5</ele><time>2026-03-08T12:04:20.000Z</time></trkpt>
<trkpt lat="42.10213" lon="23.572373"><ele>2640.5</ele><time>2026-03-08T12:04:21.000Z</time></trkpt>
<trkpt lat="42.10213" lon="23.572373"><ele>2640.5</ele><time>2026-03-08T12:04:22.000Z</time></trkpt>
<trkpt lat="42.10213" lon="23.572373"><ele>2640.5</ele><time>2026-03-08T12:04:23.000Z</time></trkpt>
<trkpt lat="42.10213" lon="23.572373"><ele>2640.5</ele><time>2026-03-08T12:04:24.000Z</time></trkpt>
<trkpt lat="42.10213" lon="23.572373"><ele>2640.5</ele><time>2026-03-08T12:04:25.000Z</time></trkpt>
<trkpt lat="42.10213" lon="23.572373"><ele>2640.5</ele><time>2026-03-08T12:04:26.000Z</time></trkpt>
<trkpt lat="42.10213" lon="23.572373"><ele>2640.5</ele><time>2026-03-08T12:04:27.000Z</time></trkpt>
<trkpt lat="42.10213" lon="23.572373"><ele>2640.5</ele><time>2026-03-08T12:04:28.000Z</time></trkpt>
<trkpt lat="42.10213" lon="23.572373"><ele>2640.5</ele><time>2026-03-08T12:04:29.000Z</time></trkpt>
<trkpt lat="42.10213" lon="23.572373"><ele>2640.5</ele><time>2026-03-08T12:04:30.000Z</time></trkpt>
<trkpt lat="42.10213" lon="23.572373"><ele>2640.5</ele><time>2026-03-08T12:04:31.000Z</time></trkpt>
<trkpt lat="42.10213" lon="23.572373"><ele>2640.6</ele><time>2026-03-08T12:04:32.000Z</time></trkpt>
<trkpt lat="42.10213" lon="23.572373"><ele>2640.6</ele><time>2026-03-08T12:04:33.000Z</time></trkpt>
<trkpt lat="42.10213" lon="23.572373"><ele>2640.6</ele><time>2026-03-08T12:04:34.000Z</time></trkpt>
<trkpt lat="42.10213" lon="23.572373"><ele>2640.6</ele><time>2026-03-08T12:04:35.000Z</time></trkpt>
<trkpt lat="42.10213" lon="23.572373"><ele>2640.6</ele><time>2026-03-08T12:04:36.000Z</time></trkpt>
<trkpt lat="42.102131" lon="23.572373"><ele>2640.6</ele><time>2026-03-08T12:04:37.000Z</time></trkpt>
<trkpt lat="42.102131" lon="23.572374"><ele>2640.6</ele><time>2026-03-08T12:04:38.000Z</time></trkpt>
<trkpt lat="42.102131" lon="23.572374"><ele>2640.6</ele><time>2026-03-08T12:04:39.000Z</time></trkpt>
<trkpt lat="42.10213" lon="23.572373"><ele>2640.6</ele><time>2026-03-08T12:04:40.000Z</time></trkpt>
<trkpt lat="42.102129" lon="23.57237"><ele>2640.6</ele><time>2026-03-08T12:04:41.000Z</time></trkpt>
<trkpt lat="42.102126" lon="23.572368"><ele>2640.6</ele><time>2026-03-08T12:04:42.000Z</time></trkpt>
<trkpt lat="42.102125" lon="23.572365"><ele>2640.6</ele><time>2026-03-08T12:04:43.000Z</time></trkpt>
<trkpt lat="42.102124" lon="23.572363"><ele>2640.6</ele><time>2026-03-08T12:04:44.000Z</time></trkpt>
<trkpt lat="42.102123" lon="23.572363"><ele>2640.6</ele><time>2026-03-08T12:04:45.000Z</time></trkpt>
<trkpt lat="42.102124" lon="23.572364"><ele>2640.6</ele><time>2026-03-08T12:04:46.000Z</time></trkpt>
<trkpt lat="42.102125" lon="23.572367"><ele>2640.4</ele><time>2026-03-08T12:04:47.000Z</time></trkpt>
<trkpt lat="42.102125" lon="23.572368"><ele>2640.4</ele><time>2026-03-08T12:04:48.000Z</time></trkpt>
<trkpt lat="42.102126" lon="23.57237"><ele>2640.4</ele><time>2026-03-08T12:04:49.000Z</time></trkpt>
<trkpt lat="42.102127" lon="23.572371"><ele>2640.4</ele><time>2026-03-08T12:04:50.000Z</time></trkpt>
<trkpt lat="42.102127" lon="23.572373"><ele>2640.4</ele><time>2026-03-08T12:04:51.000Z</time></trkpt>
<trkpt lat="42.102128" lon="23.572373"><ele>2640.2</ele><time>2026-03-08T12:04:52.000Z</time></trkpt>
<trkpt lat="42.102127" lon="23.572374"><ele>2640.2</ele><time>2026-03-08T12:04:53.000Z</time></trkpt>
<trkpt lat="42.102127" lon="23.572374"><ele>2640.2</ele><time>2026-03-08T12:04:54.000Z</time></trkpt>
<trkpt lat="42.102126" lon="23.572374"><ele>2640.2</ele><time>2026-03-08T12:04:55.000Z</time></trkpt>
<trkpt lat="42.102126" lon="23.572374"><ele>2640.2</ele><time>2026-03-08T12:04:56.000Z</time></trkpt>
<trkpt lat="42.102125" lon="23.572374"><ele>2640.1</ele><time>2026-03-08T12:04:57.000Z</time></trkpt>
<trkpt lat="42.102126" lon="23.572374"><ele>2640.1</ele><time>2026-03-08T12:04:58.000Z</time></trkpt>
<trkpt lat="42.102126" lon="23.572373"><ele>2640.1</ele><time>2026-03-08T12:04:59.000Z</time></trkpt>
<trkpt lat="42.102127" lon="23.572372"><ele>2640.1</ele><time>2026-03-08T12:05:00.000Z</time></trkpt>
<trkpt lat="42.102127" lon="23.572371"><ele>2640.1</ele><time>2026-03-08T12:05:01.000Z</time></trkpt>
<trkpt lat="42.102128" lon="23.57237"><ele>2639.9</ele><time>2026-03-08T12:05:02.000Z</time></trkpt>
<trkpt lat="42.102126" lon="23.572369"><ele>2639.9</ele><time>2026-03-08T12:05:03.000Z</time></trkpt>
<trkpt lat="42.102125" lon="23.572369"><ele>2639.9</ele><time>2026-03-08T12:05:04.000Z</time></trkpt>
<trkpt lat="42.102124" lon="23.572369"><ele>2639.9</ele><time>2026-03-08T12:05:05.000Z</time></trkpt>
<trkpt lat="42.102122" lon="23.572369"><ele>2639.9</ele><time>2026-03-08T12:05:06.000Z</time></trkpt>
<trkpt lat="42.102122" lon="23.57237"><ele>2639.8</ele><time>2026-03-08T12:05:07.000Z</time></trkpt>
<trkpt lat="42.102123" lon="23.572371"><ele>2639.8</ele><time>2026-03-08T12:05:08.000Z</time></trkpt>
<trkpt lat="42.102123" lon="23.572373"><ele>2639.8</ele><time>2026-03-08T12:05:09.000Z</time></trkpt>
<trkpt lat="42.102124" lon="23.572374"><ele>2639.8</ele><time>2026-03-08T12:05:10.000Z</time></trkpt>
<trkpt lat="42.102124" lon="23.572375"><ele>2639.8</ele><time>2026-03-08T12:05:11.000Z</time></trkpt>
<trkpt lat="42.102124" lon="23.572375"><ele>2639.8</ele><time>2026-03-08T12:05:12.000Z</time></trkpt>
<trkpt lat="42.102124" lon="23.572375"><ele>2639.8</ele><time>2026-03-08T12:05:13.000Z</time></trkpt>
<trkpt lat="42.102124" lon="23.572375"><ele>2639.8</ele><time>2026-03-08T12:05:14.000Z</time></trkpt>
<trkpt lat="42.102124" lon="23.572375"><ele>2639.8</ele><time>2026-03-08T12:05:15.000Z</time></trkpt>
<trkpt lat="42.102124" lon="23.572375"><ele>2639.8</ele><time>2026-03-08T12:05:16.000Z</time></trkpt>
<trkpt lat="42.102124" lon="23.572375"><ele>2639.9</ele><time>2026-03-08T12:05:17.000Z</time></trkpt>
<trkpt lat="42.102123" lon="23.572376"><ele>2639.9</ele><time>2026-03-08T12:05:18.000Z</time></trkpt>
<trkpt lat="42.102122" lon="23.572377"><ele>2639.9</ele><time>2026-03-08T12:05:19.000Z</time></trkpt>
<trkpt lat="42.102122" lon="23.572379"><ele>2639.9</ele><time>2026-03-08T12:05:20.000Z</time></trkpt>
<trkpt lat="42.102121" lon="23.572382"><ele>2639.9</ele><time>2026-03-08T12:05:21.000Z</time></trkpt>
<trkpt lat="42.102119" lon="23.572384"><ele>2640.1</ele><time>2026-03-08T12:05:22.000Z</time></trkpt>
<trkpt lat="42.102119" lon="23.572386"><ele>2640.1</ele><time>2026-03-08T12:05:23.000Z</time></trkpt>
<trkpt lat="42.102117" lon="23.572387"><ele>2640.1</ele><time>2026-03-08T12:05:24.000Z</time></trkpt>
<trkpt lat="42.102116" lon="23.572388"><ele>2640.1</ele><time>2026-03-08T12:05:25.000Z</time></trkpt>
<trkpt lat="42.102116" lon="23.572389"><ele>2640.1</ele><time>2026-03-08T12:05:26.000Z</time></trkpt>
<trkpt lat="42.102115" lon="23.572391"><ele>2640.1</ele><time>2026-03-08T12:05:27.000Z</time></trkpt>
<trkpt lat="42.102115" lon="23.572392"><ele>2640.1</ele><time>2026-03-08T12:05:28.000Z</time></trkpt>
<trkpt lat="42.102116" lon="23.572392"><ele>2640.1</ele><time>2026-03-08T12:05:29.000Z</time></trkpt>
<trkpt lat="42.102117" lon="23.572393"><ele>2640.1</ele><time>2026-03-08T12:05:30.000Z</time></trkpt>
<trkpt lat="42.102117" lon="23.572394"><ele>2640.1</ele><time>2026-03-08T12:05:31.000Z</time></trkpt>
<trkpt lat="42.102117" lon="23.572394"><ele>2639.9</ele><time>2026-03-08T12:05:32.000Z</time></trkpt>
<trkpt lat="42.102117" lon="23.572394"><ele>2639.9</ele><time>2026-03-08T12:05:33.000Z</time></trkpt>
<trkpt lat="42.102117" lon="23.572396"><ele>2639.9</ele><time>2026-03-08T12:05:34.000Z</time></trkpt>
<trkpt lat="42.102116" lon="23.572396"><ele>2639.9</ele><time>2026-03-08T12:05:35.000Z</time></trkpt>
<trkpt lat="42.102116" lon="23.572396"><ele>2639.9</ele><time>2026-03-08T12:05:36.000Z</time></trkpt>
<trkpt lat="42.102116" lon="23.572397"><ele>2639.6</ele><time>2026-03-08T12:05:37.000Z</time></trkpt>
<trkpt lat="42.102116" lon="23.572397"><ele>2639.6</ele><time>2026-03-08T12:05:38.000Z</time></trkpt>
<trkpt lat="42.102116" lon="23.572397"><ele>2639.6</ele><time>2026-03-08T12:05:39.000Z</time></trkpt>
<trkpt lat="42.102116" lon="23.572397"><ele>2639.6</ele><time>2026-03-08T12:05:40.000Z</time></trkpt>
<trkpt lat="42.102116" lon="23.572397"><ele>2639.6</ele><time>2026-03-08T12:05:41.000Z</time></trkpt>
<trkpt lat="42.102116" lon="23.572397"><ele>2639.5</ele><time>2026-03-08T12:05:42.000Z</time></trkpt>
<trkpt lat="42.102116" lon="23.572397"><ele>2639.5</ele><time>2026-03-08T12:05:43.000Z</time></trkpt>
<trkpt lat="42.102115" lon="23.572397"><ele>2639.5</ele><time>2026-03-08T12:05:44.000Z</time></trkpt>
<trkpt lat="42.102115" lon="23.572397"><ele>2639.5</ele><time>2026-03-08T12:05:45.000Z</time></trkpt>
<trkpt lat="42.102115" lon="23.572396"><ele>2639.5</ele><time>2026-03-08T12:05:46.000Z</time></trkpt>
<trkpt lat="42.102115" lon="23.572395"><ele>2639.4</ele><time>2026-03-08T12:05:47.000Z</time></trkpt>
<trkpt lat="42.102115" lon="23.572393"><ele>2639.4</ele><time>2026-03-08T12:05:48.000Z</time></trkpt>
<trkpt lat="42.102115" lon="23.572391"><ele>2639.4</ele><time>2026-03-08T12:05:49.000Z</time></trkpt>
<trkpt lat="42.102115" lon="23.57239"><ele>2639.4</ele><time>2026-03-08T12:05:50.000Z</time></trkpt>
<trkpt lat="42.102116" lon="23.572388"><ele>2639.4</ele><time>2026-03-08T12:05:51.000Z</time></trkpt>
<trkpt lat="42.102116" lon="23.572387"><ele>2639.4</ele><time>2026-03-08T12:05:52.000Z</time></trkpt>
<trkpt lat="42.102117" lon="23.572387"><ele>2639.4</ele><time>2026-03-08T12:05:53.000Z</time></trkpt>
<trkpt lat="42.102117" lon="23.572387"><ele>2639.4</ele><time>2026-03-08T12:05:54.000Z</time></trkpt>
<trkpt lat="42.102117" lon="23.572386"><ele>2639.4</ele><time>2026-03-08T12:05:55.000Z</time></trkpt>
<trkpt lat="42.102117" lon="23.572386"><ele>2639.4</ele><time>2026-03-08T12:05:56.000Z</time></trkpt>
<trkpt lat="42.102117" lon="23.572385"><ele>2639.5</ele><time>2026-03-08T12:05:57.000Z</time></trkpt>
<trkpt lat="42.102117" lon="23.572385"><ele>2639.5</ele><time>2026-03-08T12:05:58.000Z</time></trkpt>
<trkpt lat="42.102117" lon="23.572385"><ele>2639.5</ele><time>2026-03-08T12:05:59.000Z</time></trkpt>
<trkpt lat="42.102117" lon="23.572385"><ele>2639.5</ele><time>2026-03-08T12:06:00.000Z</time></trkpt>
<trkpt lat="42.102117" lon="23.572385"><ele>2639.5</ele><time>2026-03-08T12:06:01.000Z</time></trkpt>
<trkpt lat="42.102117" lon="23.572385"><ele>2639.6</ele><time>2026-03-08T12:06:02.000Z</time></trkpt>
<trkpt lat="42.102116" lon="23.572386"><ele>2639.6</ele><time>2026-03-08T12:06:03.000Z</time></trkpt>
<trkpt lat="42.102116" lon="23.572386"><ele>2639.6</ele><time>2026-03-08T12:06:04.000Z</time></trkpt>
<trkpt lat="42.102115" lon="23.572386"><ele>2639.6</ele><time>2026-03-08T12:06:05.000Z</time></trkpt>
<trkpt lat="42.102114" lon="23.572386"><ele>2639.6</ele><time>2026-03-08T12:06:06.000Z</time></trkpt>
<trkpt lat="42.102114" lon="23.572385"><ele>2639.7</ele><time>2026-03-08T12:06:07.000Z</time></trkpt>
<trkpt lat="42.102114" lon="23.572385"><ele>2639.7</ele><time>2026-03-08T12:06:08.000Z</time></trkpt>
<trkpt lat="42.102114" lon="23.572384"><ele>2639.7</ele><time>2026-03-08T12:06:09.000Z</time></trkpt>
<trkpt lat="42.102114" lon="23.572384"><ele>2639.7</ele><time>2026-03-08T12:06:10.000Z</time></trkpt>
<trkpt lat="42.102114" lon="23.572384"><ele>2639.7</ele><time>2026-03-08T12:06:11.000Z</time></trkpt>
<trkpt lat="42.102114" lon="23.572384"><ele>2639.7</ele><time>2026-03-08T12:06:12.000Z</time></trkpt>
<trkpt lat="42.102114" lon="23.572384"><ele>2639.7</ele><time>2026-03-08T12:06:13.000Z</time></trkpt>
<trkpt lat="42.102114" lon="23.572384"><ele>2639.7</ele><time>2026-03-08T12:06:14.000Z</time></trkpt>
<trkpt lat="42.102113" lon="23.572384"><ele>2639.7</ele><time>2026-03-08T12:06:15.000Z</time></trkpt>
<trkpt lat="42.102113" lon="23.572383"><ele>2639.7</ele><time>2026-03-08T12:06:16.000Z</time></trkpt>
<trkpt lat="42.102112" lon="23.572383"><ele>2639.7</ele><time>2026-03-08T12:06:17.000Z</time></trkpt>
<trkpt lat="42.102112" lon="23.572383"><ele>2639.7</ele><time>2026-03-08T12:06:18.000Z</time></trkpt>
<trkpt lat="42.10211" lon="23.572383"><ele>2639.7</ele><time>2026-03-08T12:06:19.000Z</time></trkpt>
<trkpt lat="42.102109" lon="23.572385"><ele>2639.7</ele><time>2026-03-08T12:06:20.000Z</time></trkpt>
<trkpt lat="42.102107" lon="23.572385"><ele>2639.7</ele><time>2026-03-08T12:06:21.000Z</time></trkpt>
<trkpt lat="42.102105" lon="23.572386"><ele>2639.7</ele><time>2026-03-08T12:06:22.000Z</time></trkpt>
<trkpt lat="42.102102" lon="23.572386"><ele>2639.7</ele><time>2026-03-08T12:06:23.000Z</time></trkpt>
<trkpt lat="42.102101" lon="23.572386"><ele>2639.7</ele><time>2026-03-08T12:06:24.000Z</time></trkpt>
<trkpt lat="42.1021" lon="23.572385"><ele>2639.7</ele><time>2026-03-08T12:06:25.000Z</time></trkpt>
<trkpt lat="42.102099" lon="23.572385"><ele>2639.7</ele><time>2026-03-08T12:06:26.000Z</time></trkpt>
<trkpt lat="42.1021" lon="23.572385"><ele>2639.7</ele><time>2026-03-08T12:06:27.000Z</time></trkpt>
<trkpt lat="42.1021" lon="23.572385"><ele>2639.7</ele><time>2026-03-08T12:06:28.000Z</time></trkpt>
<trkpt lat="42.102101" lon="23.572385"><ele>2639.7</ele><time>2026-03-08T12:06:29.000Z</time></trkpt>
<trkpt lat="42.102101" lon="23.572385"><ele>2639.7</ele><time>2026-03-08T12:06:30.000Z</time></trkpt>
<trkpt lat="42.102101" lon="23.572386"><ele>2639.7</ele><time>2026-03-08T12:06:31.000Z</time></trkpt>
<trkpt lat="42.102102" lon="23.572387"><ele>2639.6</ele><time>2026-03-08T12:06:32.000Z</time></trkpt>
<trkpt lat="42.102103" lon="23.572388"><ele>2639.6</ele><time>2026-03-08T12:06:33.000Z</time></trkpt>
<trkpt lat="42.102103" lon="23.572389"><ele>2639.6</ele><time>2026-03-08T12:06:34.000Z</time></trkpt>
<trkpt lat="42.102104" lon="23.572389"><ele>2639.6</ele><time>2026-03-08T12:06:35.000Z</time></trkpt>
<trkpt lat="42.102104" lon="23.572389"><ele>2639.6</ele><time>2026-03-08T12:06:36.000Z</time></trkpt>
<trkpt lat="42.102104" lon="23.572388"><ele>2639.6</ele><time>2026-03-08T12:06:37.000Z</time></trkpt>
<trkpt lat="42.102105" lon="23.572387"><ele>2639.6</ele><time>2026-03-08T12:06:38.000Z</time></trkpt>
<trkpt lat="42.102106" lon="23.572387"><ele>2639.6</ele><time>2026-03-08T12:06:39.000Z</time></trkpt>
<trkpt lat="42.102106" lon="23.572387"><ele>2639.6</ele><time>2026-03-08T12:06:40.000Z</time></trkpt>
<trkpt lat="42.102108" lon="23.572387"><ele>2639.6</ele><time>2026-03-08T12:06:41.000Z</time></trkpt>
<trkpt lat="42.102109" lon="23.572388"><ele>2639.4</ele><time>2026-03-08T12:06:42.000Z</time></trkpt>
<trkpt lat="42.102111" lon="23.572389"><ele>2639.4</ele><time>2026-03-08T12:06:43.000Z</time></trkpt>
<trkpt lat="42.102112" lon="23.572389"><ele>2639.4</ele><time>2026-03-08T12:06:44.000Z</time></trkpt>
<trkpt lat="42.102114" lon="23.572389"><ele>2639.4</ele><time>2026-03-08T12:06:45.000Z</time></trkpt>
<trkpt lat="42.102115" lon="23.572389"><ele>2639.4</ele><time>2026-03-08T12:06:46.000Z</time></trkpt>
<trkpt lat="42.102116" lon="23.572388"><ele>2639.1</ele><time>2026-03-08T12:06:47.000Z</time></trkpt>
<trkpt lat="42.102117" lon="23.572387"><ele>2639.1</ele><time>2026-03-08T12:06:48.000Z</time></trkpt>
<trkpt lat="42.102117" lon="23.572388"><ele>2639.1</ele><time>2026-03-08T12:06:49.000Z</time></trkpt>
<trkpt lat="42.102118" lon="23.572388"><ele>2639.1</ele><time>2026-03-08T12:06:50.000Z</time></trkpt>
<trkpt lat="42.102117" lon="23.572389"><ele>2639.1</ele><time>2026-03-08T12:06:51.000Z</time></trkpt>
<trkpt lat="42.102117" lon="23.572389"><ele>2638.9</ele><time>2026-03-08T12:06:52.000Z</time></trkpt>
<trkpt lat="42.102117" lon="23.572388"><ele>2638.9</ele><time>2026-03-08T12:06:53.000Z</time></trkpt>
<trkpt lat="42.102117" lon="23.572387"><ele>2638.9</ele><time>2026-03-08T12:06:54.000Z</time></trkpt>
<trkpt lat="42.102117" lon="23.572386"><ele>2638.9</ele><time>2026-03-08T12:06:55.000Z</time></trkpt>
<trkpt lat="42.102118" lon="23.572385"><ele>2638.9</ele><time>2026-03-08T12:06:56.000Z</time></trkpt>
<trkpt lat="42.102119" lon="23.572385"><ele>2638.9</ele><time>2026-03-08T12:06:57.000Z</time></trkpt>
<trkpt lat="42.102119" lon="23.572385"><ele>2638.9</ele><time>2026-03-08T12:06:58.000Z</time></trkpt>
<trkpt lat="42.10212" lon="23.572384"><ele>2638.9</ele><time>2026-03-08T12:06:59.000Z</time></trkpt>
<trkpt lat="42.102121" lon="23.572383"><ele>2638.9</ele><time>2026-03-08T12:07:00.000Z</time></trkpt>
<trkpt lat="42.102121" lon="23.572382"><ele>2638.9</ele><time>2026-03-08T12:07:01.000Z</time></trkpt>
<trkpt lat="42.102121" lon="23.57238"><ele>2639.1</ele><time>2026-03-08T12:07:02.000Z</time></trkpt>
<trkpt lat="42.102122" lon="23.572379"><ele>2639.1</ele><time>2026-03-08T12:07:03.000Z</time></trkpt>
<trkpt lat="42.102122" lon="23.572378"><ele>2639.1</ele><time>2026-03-08T12:07:04.000Z</time></trkpt>
<trkpt lat="42.102123" lon="23.572378"><ele>2639.1</ele><time>2026-03-08T12:07:05.000Z</time></trkpt>
<trkpt lat="42.102123" lon="23.572378"><ele>2639.1</ele><time>2026-03-08T12:07:06.000Z</time></trkpt>
<trkpt lat="42.102123" lon="23.572378"><ele>2639.4</ele><time>2026-03-08T12:07:07.000Z</time></trkpt>
<trkpt lat="42.102123" lon="23.572378"><ele>2639.4</ele><time>2026-03-08T12:07:08.000Z</time></trkpt>
<trkpt lat="42.102124" lon="23.572379"><ele>2639.4</ele><time>2026-03-08T12:07:09.000Z</time></trkpt>
<trkpt lat="42.102124" lon="23.57238"><ele>2639.4</ele><time>2026-03-08T12:07:10.000Z</time></trkpt>
<trkpt lat="42.102126" lon="23.572379"><ele>2639.4</ele><time>2026-03-08T12:07:11.000Z</time></trkpt>
<trkpt lat="42.102128" lon="23.572379"><ele>2639.6</ele><time>2026-03-08T12:07:12.000Z</time></trkpt>
<trkpt lat="42.102129" lon="23.572378"><ele>2639.6</ele><time>2026-03-08T12:07:13.000Z</time></trkpt>
<trkpt lat="42.10213" lon="23.572377"><ele>2639.6</ele><time>2026-03-08T12:07:14.000Z</time></trkpt>
<trkpt lat="42.10213" lon="23.572376"><ele>2639.6</ele><time>2026-03-08T12:07:15.000Z</time></trkpt>
<trkpt lat="42.10213" lon="23.572376"><ele>2639.6</ele><time>2026-03-08T12:07:16.000Z</time></trkpt>
<trkpt lat="42.10213" lon="23.572377"><ele>2640</ele><time>2026-03-08T12:07:17.000Z</time></trkpt>
<trkpt lat="42.10213" lon="23.572377"><ele>2640</ele><time>2026-03-08T12:07:18.000Z</time></trkpt>
<trkpt lat="42.102129" lon="23.572377"><ele>2640</ele><time>2026-03-08T12:07:19.000Z</time></trkpt>
<trkpt lat="42.10213" lon="23.572377"><ele>2640</ele><time>2026-03-08T12:07:20.000Z</time></trkpt>
<trkpt lat="42.10213" lon="23.572377"><ele>2640</ele><time>2026-03-08T12:07:21.000Z</time></trkpt>
<trkpt lat="42.10213" lon="23.572377"><ele>2640.2</ele><time>2026-03-08T12:07:22.000Z</time></trkpt>
<trkpt lat="42.10213" lon="23.572377"><ele>2640.2</ele><time>2026-03-08T12:07:23.000Z</time></trkpt>
<trkpt lat="42.10213" lon="23.572377"><ele>2640.2</ele><time>2026-03-08T12:07:24.000Z</time></trkpt>
<trkpt lat="42.102129" lon="23.572377"><ele>2640.2</ele><time>2026-03-08T12:07:25.000Z</time></trkpt>
<trkpt lat="42.102129" lon="23.572377"><ele>2640.2</ele><time>2026-03-08T12:07:26.000Z</time></trkpt>
<trkpt lat="42.102129" lon="23.572378"><ele>2640.2</ele><time>2026-03-08T12:07:27.000Z</time></trkpt>
<trkpt lat="42.102128" lon="23.572378"><ele>2640.2</ele><time>2026-03-08T12:07:28.000Z</time></trkpt>
<trkpt lat="42.102128" lon="23.572379"><ele>2640.2</ele><time>2026-03-08T12:07:29.000Z</time></trkpt>
<trkpt lat="42.102128" lon="23.572378"><ele>2640.2</ele><time>2026-03-08T12:07:30.000Z</time></trkpt>
<trkpt lat="42.102128" lon="23.572377"><ele>2640.2</ele><time>2026-03-08T12:07:31.000Z</time></trkpt>
<trkpt lat="42.102128" lon="23.572376"><ele>2639.8</ele><time>2026-03-08T12:07:32.000Z</time></trkpt>
<trkpt lat="42.102128" lon="23.572376"><ele>2639.8</ele><time>2026-03-08T12:07:33.000Z</time></trkpt>
<trkpt lat="42.102128" lon="23.572375"><ele>2639.8</ele><time>2026-03-08T12:07:34.000Z</time></trkpt>
<trkpt lat="42.102127" lon="23.572375"><ele>2639.8</ele><time>2026-03-08T12:07:35.000Z</time></trkpt>
<trkpt lat="42.102126" lon="23.572375"><ele>2639.8</ele><time>2026-03-08T12:07:36.000Z</time></trkpt>
<trkpt lat="42.102126" lon="23.572373"><ele>2639.5</ele><time>2026-03-08T12:07:37.000Z</time></trkpt>
<trkpt lat="42.102127" lon="23.572371"><ele>2639.5</ele><time>2026-03-08T12:07:38.000Z</time></trkpt>
<trkpt lat="42.102128" lon="23.57237"><ele>2639.5</ele><time>2026-03-08T12:07:39.000Z</time></trkpt>
<trkpt lat="42.102129" lon="23.572368"><ele>2639.5</ele><time>2026-03-08T12:07:40.000Z</time></trkpt>
<trkpt lat="42.10213" lon="23.572366"><ele>2639.5</ele><time>2026-03-08T12:07:41.000Z</time></trkpt>
<trkpt lat="42.10213" lon="23.572366"><ele>2639.6</ele><time>2026-03-08T12:07:42.000Z</time></trkpt>
<trkpt lat="42.10213" lon="23.572365"><ele>2639.6</ele><time>2026-03-08T12:07:43.000Z</time></trkpt>
<trkpt lat="42.102129" lon="23.572365"><ele>2639.6</ele><time>2026-03-08T12:07:44.000Z</time></trkpt>
<trkpt lat="42.102128" lon="23.572365"><ele>2639.6</ele><time>2026-03-08T12:07:45.000Z</time></trkpt>
<trkpt lat="42.102127" lon="23.572366"><ele>2639.6</ele><time>2026-03-08T12:07:46.000Z</time></trkpt>
<trkpt lat="42.102126" lon="23.572367"><ele>2639.8</ele><time>2026-03-08T12:07:47.000Z</time></trkpt>
<trkpt lat="42.102125" lon="23.572369"><ele>2639.8</ele><time>2026-03-08T12:07:48.000Z</time></trkpt>
<trkpt lat="42.102124" lon="23.57237"><ele>2639.8</ele><time>2026-03-08T12:07:49.000Z</time></trkpt>
<trkpt lat="42.102124" lon="23.572373"><ele>2639.8</ele><time>2026-03-08T12:07:50.000Z</time></trkpt>
<trkpt lat="42.102123" lon="23.572375"><ele>2639.8</ele><time>2026-03-08T12:07:51.000Z</time></trkpt>
<trkpt lat="42.102123" lon="23.572378"><ele>2639.6</ele><time>2026-03-08T12:07:52.000Z</time></trkpt>
<trkpt lat="42.102123" lon="23.57238"><ele>2639.6</ele><time>2026-03-08T12:07:53.000Z</time></trkpt>
<trkpt lat="42.102123" lon="23.572381"><ele>2639.6</ele><time>2026-03-08T12:07:54.000Z</time></trkpt>
<trkpt lat="42.102123" lon="23.572382"><ele>2639.6</ele><time>2026-03-08T12:07:55.000Z</time></trkpt>
<trkpt lat="42.102124" lon="23.572382"><ele>2639.6</ele><time>2026-03-08T12:07:56.000Z</time></trkpt>
<trkpt lat="42.102125" lon="23.572381"><ele>2639.5</ele><time>2026-03-08T12:07:57.000Z</time></trkpt>
<trkpt lat="42.102125" lon="23.57238"><ele>2639.5</ele><time>2026-03-08T12:07:58.000Z</time></trkpt>
<trkpt lat="42.102126" lon="23.572379"><ele>2639.5</ele><time>2026-03-08T12:07:59.000Z</time></trkpt>
<trkpt lat="42.102126" lon="23.572379"><ele>2639.5</ele><time>2026-03-08T12:08:00.000Z</time></trkpt>
<trkpt lat="42.102125" lon="23.572381"><ele>2639.5</ele><time>2026-03-08T12:08:01.000Z</time></trkpt>
<trkpt lat="42.102124" lon="23.572383"><ele>2639.2</ele><time>2026-03-08T12:08:02.000Z</time></trkpt>
<trkpt lat="42.102123" lon="23.572386"><ele>2639.2</ele><time>2026-03-08T12:08:03.000Z</time></trkpt>
<trkpt lat="42.102122" lon="23.572388"><ele>2639.2</ele><time>2026-03-08T12:08:04.000Z</time></trkpt>
<trkpt lat="42.102122" lon="23.572391"><ele>2639.2</ele><time>2026-03-08T12:08:05.000Z</time></trkpt>
<trkpt lat="42.102122" lon="23.572393"><ele>2639.2</ele><time>2026-03-08T12:08:06.000Z</time></trkpt>
<trkpt lat="42.102123" lon="23.572395"><ele>2639.1</ele><time>2026-03-08T12:08:07.000Z</time></trkpt>
<trkpt lat="42.102123" lon="23.572396"><ele>2639.1</ele><time>2026-03-08T12:08:08.000Z</time></trkpt>
<trkpt lat="42.102124" lon="23.572397"><ele>2639.1</ele><time>2026-03-08T12:08:09.000Z</time></trkpt>
<trkpt lat="42.102124" lon="23.572397"><ele>2639.1</ele><time>2026-03-08T12:08:10.000Z</time></trkpt>
<trkpt lat="42.102125" lon="23.572397"><ele>2639.1</ele><time>2026-03-08T12:08:11.000Z</time></trkpt>
<trkpt lat="42.102126" lon="23.572398"><ele>2639.2</ele><time>2026-03-08T12:08:12.000Z</time></trkpt>
<trkpt lat="42.102126" lon="23.572398"><ele>2639.2</ele><time>2026-03-08T12:08:13.000Z</time></trkpt>
<trkpt lat="42.102127" lon="23.572399"><ele>2639.2</ele><time>2026-03-08T12:08:14.000Z</time></trkpt>
<trkpt lat="42.102127" lon="23.572399"><ele>2639.2</ele><time>2026-03-08T12:08:15.000Z</time></trkpt>
<trkpt lat="42.102127" lon="23.572398"><ele>2639.2</ele><time>2026-03-08T12:08:16.000Z</time></trkpt>
<trkpt lat="42.102127" lon="23.572398"><ele>2639.4</ele><time>2026-03-08T12:08:17.000Z</time></trkpt>
<trkpt lat="42.102128" lon="23.572398"><ele>2639.4</ele><time>2026-03-08T12:08:18.000Z</time></trkpt>
<trkpt lat="42.102129" lon="23.572398"><ele>2639.4</ele><time>2026-03-08T12:08:19.000Z</time></trkpt>
<trkpt lat="42.10213" lon="23.572399"><ele>2639.4</ele><time>2026-03-08T12:08:20.000Z</time></trkpt>
<trkpt lat="42.10213" lon="23.572401"><ele>2639.4</ele><time>2026-03-08T12:08:21.000Z</time></trkpt>
<trkpt lat="42.10213" lon="23.572401"><ele>2639.8</ele><time>2026-03-08T12:08:22.000Z</time></trkpt>
<trkpt lat="42.102129" lon="23.572401"><ele>2639.8</ele><time>2026-03-08T12:08:23.000Z</time></trkpt>
<trkpt lat="42.102129" lon="23.5724"><ele>2639.8</ele><time>2026-03-08T12:08:24.000Z</time></trkpt>
<trkpt lat="42.102128" lon="23.5724"><ele>2639.8</ele><time>2026-03-08T12:08:25.000Z</time></trkpt>
<trkpt lat="42.102128" lon="23.572398"><ele>2639.8</ele><time>2026-03-08T12:08:26.000Z</time></trkpt>
<trkpt lat="42.102127" lon="23.572398"><ele>2640</ele><time>2026-03-08T12:08:27.000Z</time></trkpt>
<trkpt lat="42.102127" lon="23.572397"><ele>2640</ele><time>2026-03-08T12:08:28.000Z</time></trkpt>
<trkpt lat="42.102127" lon="23.572397"><ele>2640</ele><time>2026-03-08T12:08:29.000Z</time></trkpt>
<trkpt lat="42.102127" lon="23.572396"><ele>2640</ele><time>2026-03-08T12:08:30.000Z</time></trkpt>
<trkpt lat="42.102127" lon="23.572395"><ele>2640</ele><time>2026-03-08T12:08:31.000Z</time></trkpt>
<trkpt lat="42.102127" lon="23.572394"><ele>2640.3</ele><time>2026-03-08T12:08:32.000Z</time></trkpt>
<trkpt lat="42.102127" lon="23.572392"><ele>2640.3</ele><time>2026-03-08T12:08:33.000Z</time></trkpt>
<trkpt lat="42.102125" lon="23.572391"><ele>2640.3</ele><time>2026-03-08T12:08:34.000Z</time></trkpt>
<trkpt lat="42.102124" lon="23.572389"><ele>2640.3</ele><time>2026-03-08T12:08:35.000Z</time></trkpt>
<trkpt lat="42.102121" lon="23.572388"><ele>2640.3</ele><time>2026-03-08T12:08:36.000Z</time></trkpt>
<trkpt lat="42.102119" lon="23.572388"><ele>2640.4</ele><time>2026-03-08T12:08:37.000Z</time></trkpt>
<trkpt lat="42.102118" lon="23.572387"><ele>2640.4</ele><time>2026-03-08T12:08:38.000Z</time></trkpt>
<trkpt lat="42.102118" lon="23.572387"><ele>2640.4</ele><time>2026-03-08T12:08:39.000Z</time></trkpt>
<trkpt lat="42.102119" lon="23.572387"><ele>2640.4</ele><time>2026-03-08T12:08:40.000Z</time></trkpt>
<trkpt lat="42.10212" lon="23.572387"><ele>2640.4</ele><time>2026-03-08T12:08:41.000Z</time></trkpt>
<trkpt lat="42.102121" lon="23.572387"><ele>2640.4</ele><time>2026-03-08T12:08:42.000Z</time></trkpt>
<trkpt lat="42.102122" lon="23.572388"><ele>2640.4</ele><time>2026-03-08T12:08:43.000Z</time></trkpt>
<trkpt lat="42.102122" lon="23.572388"><ele>2640.4</ele><time>2026-03-08T12:08:44.000Z</time></trkpt>
<trkpt lat="42.102123" lon="23.572389"><ele>2640.4</ele><time>2026-03-08T12:08:45.000Z</time></trkpt>
<trkpt lat="42.102124" lon="23.572389"><ele>2640.4</ele><time>2026-03-08T12:08:46.000Z</time></trkpt>
<trkpt lat="42.102125" lon="23.572388"><ele>2640.2</ele><time>2026-03-08T12:08:47.000Z</time></trkpt>
<trkpt lat="42.102127" lon="23.572389"><ele>2640.2</ele><time>2026-03-08T12:08:48.000Z</time></trkpt>
<trkpt lat="42.102128" lon="23.57239"><ele>2640.2</ele><time>2026-03-08T12:08:49.000Z</time></trkpt>
<trkpt lat="42.10213" lon="23.572392"><ele>2640.2</ele><time>2026-03-08T12:08:50.000Z</time></trkpt>
<trkpt lat="42.102131" lon="23.572393"><ele>2640.2</ele><time>2026-03-08T12:08:51.000Z</time></trkpt>
<trkpt lat="42.102131" lon="23.572394"><ele>2639.9</ele><time>2026-03-08T12:08:52.000Z</time></trkpt>
<trkpt lat="42.102131" lon="23.572393"><ele>2639.9</ele><time>2026-03-08T12:08:53.000Z</time></trkpt>
<trkpt lat="42.10213" lon="23.57239"><ele>2639.9</ele><time>2026-03-08T12:08:54.000Z</time></trkpt>
<trkpt lat="42.10213" lon="23.572387"><ele>2639.9</ele><time>2026-03-08T12:08:55.000Z</time></trkpt>
<trkpt lat="42.102129" lon="23.572385"><ele>2639.9</ele><time>2026-03-08T12:08:56.000Z</time></trkpt>
<trkpt lat="42.102129" lon="23.572383"><ele>2639.7</ele><time>2026-03-08T12:08:57.000Z</time></trkpt>
<trkpt lat="42.10213" lon="23.572382"><ele>2639.7</ele><time>2026-03-08T12:08:58.000Z</time></trkpt>
<trkpt lat="42.10213" lon="23.572382"><ele>2639.7</ele><time>2026-03-08T12:08:59.000Z</time></trkpt>
<trkpt lat="42.102131" lon="23.572381"><ele>2639.7</ele><time>2026-03-08T12:09:00.000Z</time></trkpt>
<trkpt lat="42.102131" lon="23.572381"><ele>2639.7</ele><time>2026-03-08T12:09:01.000Z</time></trkpt>
<trkpt lat="42.102132" lon="23.572381"><ele>2639.5</ele><time>2026-03-08T12:09:02.000Z</time></trkpt>
<trkpt lat="42.102131" lon="23.57238"><ele>2639.5</ele><time>2026-03-08T12:09:03.000Z</time></trkpt>
<trkpt lat="42.102131" lon="23.57238"><ele>2639.5</ele><time>2026-03-08T12:09:04.000Z</time></trkpt>
<trkpt lat="42.102131" lon="23.57238"><ele>2639.5</ele><time>2026-03-08T12:09:05.000Z</time></trkpt>
<trkpt lat="42.102131" lon="23.57238"><ele>2639.5</ele><time>2026-03-08T12:09:06.000Z</time></trkpt>
<trkpt lat="42.102131" lon="23.57238"><ele>2639.5</ele><time>2026-03-08T12:09:07.000Z</time></trkpt>
<trkpt lat="42.102131" lon="23.57238"><ele>2639.5</ele><time>2026-03-08T12:09:08.000Z</time></trkpt>
<trkpt lat="42.102131" lon="23.57238"><ele>2639.5</ele><time>2026-03-08T12:09:09.000Z</time></trkpt>
<trkpt lat="42.102131" lon="23.57238"><ele>2639.5</ele><time>2026-03-08T12:09:10.000Z</time></trkpt>
<trkpt lat="42.10213" lon="23.572381"><ele>2639.5</ele><time>2026-03-08T12:09:11.000Z</time></trkpt>
<trkpt lat="42.102129" lon="23.572382"><ele>2639.5</ele><time>2026-03-08T12:09:12.000Z</time></trkpt>
<trkpt lat="42.102128" lon="23.572384"><ele>2639.5</ele><time>2026-03-08T12:09:13.000Z</time></trkpt>
<trkpt lat="42.102128" lon="23.572385"><ele>2639.5</ele><time>2026-03-08T12:09:14.000Z</time></trkpt>
<trkpt lat="42.102127" lon="23.572386"><ele>2639.5</ele><time>2026-03-08T12:09:15.000Z</time></trkpt>
<trkpt lat="42.102127" lon="23.572386"><ele>2639.5</ele><time>2026-03-08T12:09:16.000Z</time></trkpt>
<trkpt lat="42.102126" lon="23.572386"><ele>2639.7</ele><time>2026-03-08T12:09:17.000Z</time></trkpt>
<trkpt lat="42.102126" lon="23.572385"><ele>2639.7</ele><time>2026-03-08T12:09:18.000Z</time></trkpt>
<trkpt lat="42.102126" lon="23.572384"><ele>2639.7</ele><time>2026-03-08T12:09:19.000Z</time></trkpt>
<trkpt lat="42.102127" lon="23.572383"><ele>2639.7</ele><time>2026-03-08T12:09:20.000Z</time></trkpt>
<trkpt lat="42.102127" lon="23.572383"><ele>2639.7</ele><time>2026-03-08T12:09:21.000Z</time></trkpt>
<trkpt lat="42.102127" lon="23.572383"><ele>2639.6</ele><time>2026-03-08T12:09:22.000Z</time></trkpt>
<trkpt lat="42.102128" lon="23.572383"><ele>2639.6</ele><time>2026-03-08T12:09:23.000Z</time></trkpt>
<trkpt lat="42.102128" lon="23.572384"><ele>2639.6</ele><time>2026-03-08T12:09:24.000Z</time></trkpt>
<trkpt lat="42.102128" lon="23.572384"><ele>2639.6</ele><time>2026-03-08T12:09:25.000Z</time></trkpt>
<trkpt lat="42.102128" lon="23.572384"><ele>2639.6</ele><time>2026-03-08T12:09:26.000Z</time></trkpt>
<trkpt lat="42.102128" lon="23.572383"><ele>2639.5</ele><time>2026-03-08T12:09:27.000Z</time></trkpt>
<trkpt lat="42.102128" lon="23.572383"><ele>2639.5</ele><time>2026-03-08T12:09:28.000Z</time></trkpt>
<trkpt lat="42.102128" lon="23.572383"><ele>2639.5</ele><time>2026-03-08T12:09:29.000Z</time></trkpt>
<trkpt lat="42.102127" lon="23.572382"><ele>2639.5</ele><time>2026-03-08T12:09:30.000Z</time></trkpt>
<trkpt lat="42.102127" lon="23.572382"><ele>2639.5</ele><time>2026-03-08T12:09:31.000Z</time></trkpt>
<trkpt lat="42.102127" lon="23.572382"><ele>2639.2</ele><time>2026-03-08T12:09:32.000Z</time></trkpt>
<trkpt lat="42.102127" lon="23.572382"><ele>2639.2</ele><time>2026-03-08T12:09:33.000Z</time></trkpt>
<trkpt lat="42.102127" lon="23.572382"><ele>2639.2</ele><time>2026-03-08T12:09:34.000Z</time></trkpt>
<trkpt lat="42.102128" lon="23.572382"><ele>2639.2</ele><time>2026-03-08T12:09:35.000Z</time></trkpt>
<trkpt lat="42.102128" lon="23.572383"><ele>2639.2</ele><time>2026-03-08T12:09:36.000Z</time></trkpt>
<trkpt lat="42.102129" lon="23.572383"><ele>2639.1</ele><time>2026-03-08T12:09:37.000Z</time></trkpt>
<trkpt lat="42.10213" lon="23.572383"><ele>2639.1</ele><time>2026-03-08T12:09:38.000Z</time></trkpt>
<trkpt lat="42.10213" lon="23.572384"><ele>2639.1</ele><time>2026-03-08T12:09:39.000Z</time></trkpt>
<trkpt lat="42.102131" lon="23.572384"><ele>2639.1</ele><time>2026-03-08T12:09:40.000Z</time></trkpt>
<trkpt lat="42.10213" lon="23.572384"><ele>2639.1</ele><time>2026-03-08T12:09:41.000Z</time></trkpt>
<trkpt lat="42.102131" lon="23.572384"><ele>2639.1</ele><time>2026-03-08T12:09:42.000Z</time></trkpt>
<trkpt lat="42.102132" lon="23.572384"><ele>2639.1</ele><time>2026-03-08T12:09:43.000Z</time></trkpt>
<trkpt lat="42.102132" lon="23.572384"><ele>2639.1</ele><time>2026-03-08T12:09:44.000Z</time></trkpt>
<trkpt lat="42.102133" lon="23.572384"><ele>2639.1</ele><time>2026-03-08T12:09:45.000Z</time></trkpt>
<trkpt lat="42.102133" lon="23.572384"><ele>2639.1</ele><time>2026-03-08T12:09:46.000Z</time></trkpt>
<trkpt lat="42.102133" lon="23.572384"><ele>2639.2</ele><time>2026-03-08T12:09:47.000Z</time></trkpt>
<trkpt lat="42.102133" lon="23.572385"><ele>2639.2</ele><time>2026-03-08T12:09:48.000Z</time></trkpt>
<trkpt lat="42.102133" lon="23.572385"><ele>2639.2</ele><time>2026-03-08T12:09:49.000Z</time></trkpt>
<trkpt lat="42.102132" lon="23.572385"><ele>2639.2</ele><time>2026-03-08T12:09:50.000Z</time></trkpt>
<trkpt lat="42.102132" lon="23.572385"><ele>2639.2</ele><time>2026-03-08T12:09:51.000Z</time></trkpt>
<trkpt lat="42.102131" lon="23.572384"><ele>2639.4</ele><time>2026-03-08T12:09:52.000Z</time></trkpt>
<trkpt lat="42.10213" lon="23.572383"><ele>2639.4</ele><time>2026-03-08T12:09:53.000Z</time></trkpt>
<trkpt lat="42.102129" lon="23.572381"><ele>2639.4</ele><time>2026-03-08T12:09:54.000Z</time></trkpt>
<trkpt lat="42.102127" lon="23.57238"><ele>2639.4</ele><time>2026-03-08T12:09:55.000Z</time></trkpt>
<trkpt lat="42.102126" lon="23.572379"><ele>2639.4</ele><time>2026-03-08T12:09:56.000Z</time></trkpt>
<trkpt lat="42.102126" lon="23.57238"><ele>2639.5</ele><time>2026-03-08T12:09:57.000Z</time></trkpt>
<trkpt lat="42.102125" lon="23.57238"><ele>2639.5</ele><time>2026-03-08T12:09:58.000Z</time></trkpt>
<trkpt lat="42.102124" lon="23.57238"><ele>2639.5</ele><time>2026-03-08T12:09:59.000Z</time></trkpt>
<trkpt lat="42.102124" lon="23.57238"><ele>2639.5</ele><time>2026-03-08T12:10:00.000Z</time></trkpt>
<trkpt lat="42.102124" lon="23.57238"><ele>2639.5</ele><time>2026-03-08T12:10:01.000Z</time></trkpt>
<trkpt lat="42.102124" lon="23.572378"><ele>2639.9</ele><time>2026-03-08T12:10:02.000Z</time></trkpt>
<trkpt lat="42.102125" lon="23.572376"><ele>2639.9</ele><time>2026-03-08T12:10:03.000Z</time></trkpt>
<trkpt lat="42.102126" lon="23.572374"><ele>2639.9</ele><time>2026-03-08T12:10:04.000Z</time></trkpt>
<trkpt lat="42.102127" lon="23.572372"><ele>2639.9</ele><time>2026-03-08T12:10:05.000Z</time></trkpt>
<trkpt lat="42.102128" lon="23.572369"><ele>2639.9</ele><time>2026-03-08T12:10:06.000Z</time></trkpt>
<trkpt lat="42.102129" lon="23.572369"><ele>2640.1</ele><time>2026-03-08T12:10:07.000Z</time></trkpt>
<trkpt lat="42.102129" lon="23.572369"><ele>2640.1</ele><time>2026-03-08T12:10:08.000Z</time></trkpt>
<trkpt lat="42.102129" lon="23.572369"><ele>2640.1</ele><time>2026-03-08T12:10:09.000Z</time></trkpt>
<trkpt lat="42.102129" lon="23.572369"><ele>2640.1</ele><time>2026-03-08T12:10:10.000Z</time></trkpt>
<trkpt lat="42.102129" lon="23.572369"><ele>2640.1</ele><time>2026-03-08T12:10:11.000Z</time></trkpt>
<trkpt lat="42.102129" lon="23.572369"><ele>2640.2</ele><time>2026-03-08T12:10:12.000Z</time></trkpt>
<trkpt lat="42.102129" lon="23.572369"><ele>2640.2</ele><time>2026-03-08T12:10:13.000Z</time></trkpt>
<trkpt lat="42.102129" lon="23.57237"><ele>2640.2</ele><time>2026-03-08T12:10:14.000Z</time></trkpt>
<trkpt lat="42.102129" lon="23.57237"><ele>2640.2</ele><time>2026-03-08T12:10:15.000Z</time></trkpt>
<trkpt lat="42.10213" lon="23.572369"><ele>2640.2</ele><time>2026-03-08T12:10:16.000Z</time></trkpt>
<trkpt lat="42.10213" lon="23.572369"><ele>2640.1</ele><time>2026-03-08T12:10:17.000Z</time></trkpt>
<trkpt lat="42.10213" lon="23.572369"><ele>2640.1</ele><time>2026-03-08T12:10:18.000Z</time></trkpt>
<trkpt lat="42.10213" lon="23.572368"><ele>2640.1</ele><time>2026-03-08T12:10:19.000Z</time></trkpt>
<trkpt lat="42.102131" lon="23.572368"><ele>2640.1</ele><time>2026-03-08T12:10:20.000Z</time></trkpt>
<trkpt lat="42.10213" lon="23.572368"><ele>2640.1</ele><time>2026-03-08T12:10:21.000Z</time></trkpt>
<trkpt lat="42.10213" lon="23.572368"><ele>2639.9</ele><time>2026-03-08T12:10:22.000Z</time></trkpt>
<trkpt lat="42.10213" lon="23.572368"><ele>2639.9</ele><time>2026-03-08T12:10:23.000Z</time></trkpt>
<trkpt lat="42.102129" lon="23.572368"><ele>2639.9</ele><time>2026-03-08T12:10:24.000Z</time></trkpt>
<trkpt lat="42.102129" lon="23.572367"><ele>2639.9</ele><time>2026-03-08T12:10:25.000Z</time></trkpt>
<trkpt lat="42.10213" lon="23.572365"><ele>2639.9</ele><time>2026-03-08T12:10:26.000Z</time></trkpt>
<trkpt lat="42.102131" lon="23.572364"><ele>2639.8</ele><time>2026-03-08T12:10:27.000Z</time></trkpt>
<trkpt lat="42.102131" lon="23.572363"><ele>2639.8</ele><time>2026-03-08T12:10:28.000Z</time></trkpt>
<trkpt lat="42.102132" lon="23.572362"><ele>2639.8</ele><time>2026-03-08T12:10:29.000Z</time></trkpt>
<trkpt lat="42.102133" lon="23.572362"><ele>2639.8</ele><time>2026-03-08T12:10:30.000Z</time></trkpt>
<trkpt lat="42.102133" lon="23.572362"><ele>2639.8</ele><time>2026-03-08T12:10:31.000Z</time></trkpt>
<trkpt lat="42.102133" lon="23.572362"><ele>2639.9</ele><time>2026-03-08T12:10:32.000Z</time></trkpt>
<trkpt lat="42.102133" lon="23.572363"><ele>2639.9</ele><time>2026-03-08T12:10:33.000Z</time></trkpt>
<trkpt lat="42.102133" lon="23.572363"><ele>2639.9</ele><time>2026-03-08T12:10:34.000Z</time></trkpt>
<trkpt lat="42.102133" lon="23.572364"><ele>2639.9</ele><time>2026-03-08T12:10:35.000Z</time></trkpt>
<trkpt lat="42.102133" lon="23.572364"><ele>2639.9</ele><time>2026-03-08T12:10:36.000Z</time></trkpt>
<trkpt lat="42.102133" lon="23.572364"><ele>2640.1</ele><time>2026-03-08T12:10:37.000Z</time></trkpt>
<trkpt lat="42.102133" lon="23.572364"><ele>2640.1</ele><time>2026-03-08T12:10:38.000Z</time></trkpt>
<trkpt lat="42.102133" lon="23.572364"><ele>2640.1</ele><time>2026-03-08T12:10:39.000Z</time></trkpt>
<trkpt lat="42.102133" lon="23.572364"><ele>2640.1</ele><time>2026-03-08T12:10:40.000Z</time></trkpt>
<trkpt lat="42.102133" lon="23.572364"><ele>2640.1</ele><time>2026-03-08T12:10:41.000Z</time></trkpt>
<trkpt lat="42.102133" lon="23.572364"><ele>2640.2</ele><time>2026-03-08T12:10:42.000Z</time></trkpt>
<trkpt lat="42.102133" lon="23.572365"><ele>2640.2</ele><time>2026-03-08T12:10:43.000Z</time></trkpt>
<trkpt lat="42.102132" lon="23.572366"><ele>2640.2</ele><time>2026-03-08T12:10:44.000Z</time></trkpt>
<trkpt lat="42.102132" lon="23.572367"><ele>2640.2</ele><time>2026-03-08T12:10:45.000Z</time></trkpt>
<trkpt lat="42.102131" lon="23.572367"><ele>2640.2</ele><time>2026-03-08T12:10:46.000Z</time></trkpt>
<trkpt lat="42.102131" lon="23.572368"><ele>2640.5</ele><time>2026-03-08T12:10:47.000Z</time></trkpt>
<trkpt lat="42.10213" lon="23.572368"><ele>2640.5</ele><time>2026-03-08T12:10:48.000Z</time></trkpt>
<trkpt lat="42.10213" lon="23.572368"><ele>2640.5</ele><time>2026-03-08T12:10:49.000Z</time></trkpt>
<trkpt lat="42.10213" lon="23.572368"><ele>2640.5</ele><time>2026-03-08T12:10:50.000Z</time></trkpt>
<trkpt lat="42.10213" lon="23.572368"><ele>2640.5</ele><time>2026-03-08T12:10:51.000Z</time></trkpt>
<trkpt lat="42.10213" lon="23.572368"><ele>2640.5</ele><time>2026-03-08T12:10:52.000Z</time></trkpt>
<trkpt lat="42.10213" lon="23.572368"><ele>2640.5</ele><time>2026-03-08T12:10:53.000Z</time></trkpt>
<trkpt lat="42.10213" lon="23.572368"><ele>2640.5</ele><time>2026-03-08T12:10:54.000Z</time></trkpt>
<trkpt lat="42.10213" lon="23.572368"><ele>2640.5</ele><time>2026-03-08T12:10:55.000Z</time></trkpt>
<trkpt lat="42.10213" lon="23.572368"><ele>2640.5</ele><time>2026-03-08T12:10:56.000Z</time></trkpt>
<trkpt lat="42.10213" lon="23.572368"><ele>2640.5</ele><time>2026-03-08T12:10:57.000Z</time></trkpt>
<trkpt lat="42.10213" lon="23.572367"><ele>2640.5</ele><time>2026-03-08T12:10:58.000Z</time></trkpt>
<trkpt lat="42.10213" lon="23.572367"><ele>2640.5</ele><time>2026-03-08T12:10:59.000Z</time></trkpt>
<trkpt lat="42.10213" lon="23.572367"><ele>2640.5</ele><time>2026-03-08T12:11:00.000Z</time></trkpt>
<trkpt lat="42.10213" lon="23.572366"><ele>2640.5</ele><time>2026-03-08T12:11:01.000Z</time></trkpt>
<trkpt lat="42.10213" lon="23.572366"><ele>2640.4</ele><time>2026-03-08T12:11:02.000Z</time></trkpt>
<trkpt lat="42.10213" lon="23.572366"><ele>2640.4</ele><time>2026-03-08T12:11:03.000Z</time></trkpt>
<trkpt lat="42.10213" lon="23.572367"><ele>2640.4</ele><time>2026-03-08T12:11:04.000Z</time></trkpt>
<trkpt lat="42.10213" lon="23.572367"><ele>2640.4</ele><time>2026-03-08T12:11:05.000Z</time></trkpt>
<trkpt lat="42.10213" lon="23.572367"><ele>2640.4</ele><time>2026-03-08T12:11:06.000Z</time></trkpt>
<trkpt lat="42.10213" lon="23.572367"><ele>2640.4</ele><time>2026-03-08T12:11:07.000Z</time></trkpt>
<trkpt lat="42.10213" lon="23.572367"><ele>2640.4</ele><time>2026-03-08T12:11:08.000Z</time></trkpt>
<trkpt lat="42.10213" lon="23.572367"><ele>2640.4</ele><time>2026-03-08T12:11:09.000Z</time></trkpt>
<trkpt lat="42.10213" lon="23.572367"><ele>2640.4</ele><time>2026-03-08T12:11:10.000Z</time></trkpt>
<trkpt lat="42.10213" lon="23.572367"><ele>2640.4</ele><time>2026-03-08T12:11:11.000Z</time></trkpt>
<trkpt lat="42.10213" lon="23.572367"><ele>2640.5</ele><time>2026-03-08T12:11:12.000Z</time></trkpt>
<trkpt lat="42.10213" lon="23.572367"><ele>2640.5</ele><time>2026-03-08T12:11:13.000Z</time></trkpt>
<trkpt lat="42.10213" lon="23.572367"><ele>2640.5</ele><time>2026-03-08T12:11:14.000Z</time></trkpt>
<trkpt lat="42.10213" lon="23.572367"><ele>2640.5</ele><time>2026-03-08T12:11:15.000Z</time></trkpt>
<trkpt lat="42.10213" lon="23.572367"><ele>2640.5</ele><time>2026-03-08T12:11:16.000Z</time></trkpt>
<trkpt lat="42.10213" lon="23.572367"><ele>2640.5</ele><time>2026-03-08T12:11:17.000Z</time></trkpt>
<trkpt lat="42.10213" lon="23.572367"><ele>2640.5</ele><time>2026-03-08T12:11:18.000Z</time></trkpt>
<trkpt lat="42.10213" lon="23.572367"><ele>2640.5</ele><time>2026-03-08T12:11:19.000Z</time></trkpt>
<trkpt lat="42.102129" lon="23.572367"><ele>2640.5</ele><time>2026-03-08T12:11:20.000Z</time></trkpt>
<trkpt lat="42.102129" lon="23.572367"><ele>2640.5</ele><time>2026-03-08T12:11:21.000Z</time></trkpt>
<trkpt lat="42.102128" lon="23.572366"><ele>2640.4</ele><time>2026-03-08T12:11:22.000Z</time></trkpt>
<trkpt lat="42.102127" lon="23.572366"><ele>2640.4</ele><time>2026-03-08T12:11:23.000Z</time></trkpt>
<trkpt lat="42.102127" lon="23.572366"><ele>2640.4</ele><time>2026-03-08T12:11:24.000Z</time></trkpt>
<trkpt lat="42.102127" lon="23.572366"><ele>2640.4</ele><time>2026-03-08T12:11:25.000Z</time></trkpt>
<trkpt lat="42.102126" lon="23.572365"><ele>2640.4</ele><time>2026-03-08T12:11:26.000Z</time></trkpt>
<trkpt lat="42.102125" lon="23.572365"><ele>2640.3</ele><time>2026-03-08T12:11:27.000Z</time></trkpt>
<trkpt lat="42.102125" lon="23.572365"><ele>2640.3</ele><time>2026-03-08T12:11:28.000Z</time></trkpt>
<trkpt lat="42.102125" lon="23.572365"><ele>2640.3</ele><time>2026-03-08T12:11:29.000Z</time></trkpt>
<trkpt lat="42.102125" lon="23.572365"><ele>2640.3</ele><time>2026-03-08T12:11:30.000Z</time></trkpt>
<trkpt lat="42.102126" lon="23.572365"><ele>2640.3</ele><time>2026-03-08T12:11:31.000Z</time></trkpt>
<trkpt lat="42.102126" lon="23.572365"><ele>2640.4</ele><time>2026-03-08T12:11:32.000Z</time></trkpt>
<trkpt lat="42.102125" lon="23.572364"><ele>2640.4</ele><time>2026-03-08T12:11:33.000Z</time></trkpt>
<trkpt lat="42.102125" lon="23.572363"><ele>2640.4</ele><time>2026-03-08T12:11:34.000Z</time></trkpt>
<trkpt lat="42.102125" lon="23.572363"><ele>2640.4</ele><time>2026-03-08T12:11:35.000Z</time></trkpt>
<trkpt lat="42.102125" lon="23.572362"><ele>2640.4</ele><time>2026-03-08T12:11:36.000Z</time></trkpt>
<trkpt lat="42.102124" lon="23.572362"><ele>2640.4</ele><time>2026-03-08T12:11:37.000Z</time></trkpt>
<trkpt lat="42.102124" lon="23.572362"><ele>2640.4</ele><time>2026-03-08T12:11:38.000Z</time></trkpt>
<trkpt lat="42.102124" lon="23.572362"><ele>2640.4</ele><time>2026-03-08T12:11:39.000Z</time></trkpt>
<trkpt lat="42.102124" lon="23.572362"><ele>2640.4</ele><time>2026-03-08T12:11:40.000Z</time></trkpt>
<trkpt lat="42.102123" lon="23.572362"><ele>2640.4</ele><time>2026-03-08T12:11:41.000Z</time></trkpt>
<trkpt lat="42.102123" lon="23.572362"><ele>2640.3</ele><time>2026-03-08T12:11:42.000Z</time></trkpt>
<trkpt lat="42.102123" lon="23.572362"><ele>2640.3</ele><time>2026-03-08T12:11:43.000Z</time></trkpt>
<trkpt lat="42.102124" lon="23.572363"><ele>2640.3</ele><time>2026-03-08T12:11:44.000Z</time></trkpt>
<trkpt lat="42.102125" lon="23.572364"><ele>2640.3</ele><time>2026-03-08T12:11:45.000Z</time></trkpt>
<trkpt lat="42.102126" lon="23.572365"><ele>2640.3</ele><time>2026-03-08T12:11:46.000Z</time></trkpt>
<trkpt lat="42.102127" lon="23.572367"><ele>2640.2</ele><time>2026-03-08T12:11:47.000Z</time></trkpt>
<trkpt lat="42.102128" lon="23.572368"><ele>2640.2</ele><time>2026-03-08T12:11:48.000Z</time></trkpt>
<trkpt lat="42.102129" lon="23.572369"><ele>2640.2</ele><time>2026-03-08T12:11:49.000Z</time></trkpt>
<trkpt lat="42.10213" lon="23.572368"><ele>2640.2</ele><time>2026-03-08T12:11:50.000Z</time></trkpt>
<trkpt lat="42.10213" lon="23.572368"><ele>2640.2</ele><time>2026-03-08T12:11:51.000Z</time></trkpt>
<trkpt lat="42.102131" lon="23.572367"><ele>2640.3</ele><time>2026-03-08T12:11:52.000Z</time></trkpt>
<trkpt lat="42.102131" lon="23.572367"><ele>2640.3</ele><time>2026-03-08T12:11:53.000Z</time></trkpt>
<trkpt lat="42.102131" lon="23.572367"><ele>2640.3</ele><time>2026-03-08T12:11:54.000Z</time></trkpt>
<trkpt lat="42.102131" lon="23.572367"><ele>2640.3</ele><time>2026-03-08T12:11:55.000Z</time></trkpt>
<trkpt lat="42.102131" lon="23.572367"><ele>2640.3</ele><time>2026-03-08T12:11:56.000Z</time></trkpt>
<trkpt lat="42.102131" lon="23.572367"><ele>2640.4</ele><time>2026-03-08T12:11:57.000Z</time></trkpt>
<trkpt lat="42.102131" lon="23.572367"><ele>2640.4</ele><time>2026-03-08T12:11:58.000Z</time></trkpt>
<trkpt lat="42.102131" lon="23.572367"><ele>2640.4</ele><time>2026-03-08T12:11:59.000Z</time></trkpt>
<trkpt lat="42.102131" lon="23.572367"><ele>2640.4</ele><time>2026-03-08T12:12:00.000Z</time></trkpt>
<trkpt lat="42.102131" lon="23.572367"><ele>2640.4</ele><time>2026-03-08T12:12:01.000Z</time></trkpt>
<trkpt lat="42.102131" lon="23.572367"><ele>2640.4</ele><time>2026-03-08T12:12:02.000Z</time></trkpt>
<trkpt lat="42.102131" lon="23.572367"><ele>2640.4</ele><time>2026-03-08T12:12:03.000Z</time></trkpt>
<trkpt lat="42.10213" lon="23.572366"><ele>2640.4</ele><time>2026-03-08T12:12:04.000Z</time></trkpt>
<trkpt lat="42.10213" lon="23.572366"><ele>2640.4</ele><time>2026-03-08T12:12:05.000Z</time></trkpt>
<trkpt lat="42.102129" lon="23.572365"><ele>2640.4</ele><time>2026-03-08T12:12:06.000Z</time></trkpt>
<trkpt lat="42.102127" lon="23.572362"><ele>2640.4</ele><time>2026-03-08T12:12:07.000Z</time></trkpt>
<trkpt lat="42.102126" lon="23.57236"><ele>2640.4</ele><time>2026-03-08T12:12:08.000Z</time></trkpt>
<trkpt lat="42.102125" lon="23.572359"><ele>2640.4</ele><time>2026-03-08T12:12:09.000Z</time></trkpt>
<trkpt lat="42.102123" lon="23.572358"><ele>2640.4</ele><time>2026-03-08T12:12:10.000Z</time></trkpt>
<trkpt lat="42.102122" lon="23.572358"><ele>2640.4</ele><time>2026-03-08T12:12:11.000Z</time></trkpt>
<trkpt lat="42.102122" lon="23.572358"><ele>2640.3</ele><time>2026-03-08T12:12:12.000Z</time></trkpt>
<trkpt lat="42.102122" lon="23.572358"><ele>2640.3</ele><time>2026-03-08T12:12:13.000Z</time></trkpt>
<trkpt lat="42.102122" lon="23.572358"><ele>2640.3</ele><time>2026-03-08T12:12:14.000Z</time></trkpt>
<trkpt lat="42.102122" lon="23.572357"><ele>2640.3</ele><time>2026-03-08T12:12:15.000Z</time></trkpt>
<trkpt lat="42.102122" lon="23.572357"><ele>2640.3</ele><time>2026-03-08T12:12:16.000Z</time></trkpt>
<trkpt lat="42.102121" lon="23.572357"><ele>2640.1</ele><time>2026-03-08T12:12:17.000Z</time></trkpt>
<trkpt lat="42.102121" lon="23.572356"><ele>2640.1</ele><time>2026-03-08T12:12:18.000Z</time></trkpt>
<trkpt lat="42.102121" lon="23.572356"><ele>2640.1</ele><time>2026-03-08T12:12:19.000Z</time></trkpt>
<trkpt lat="42.10212" lon="23.572356"><ele>2640.1</ele><time>2026-03-08T12:12:20.000Z</time></trkpt>
<trkpt lat="42.102121" lon="23.572356"><ele>2640.1</ele><time>2026-03-08T12:12:21.000Z</time></trkpt>
<trkpt lat="42.102121" lon="23.572358"><ele>2639.8</ele><time>2026-03-08T12:12:22.000Z</time></trkpt>
<trkpt lat="42.102121" lon="23.57236"><ele>2639.8</ele><time>2026-03-08T12:12:23.000Z</time></trkpt>
<trkpt lat="42.102121" lon="23.572363"><ele>2639.8</ele><time>2026-03-08T12:12:24.000Z</time></trkpt>
<trkpt lat="42.102122" lon="23.572365"><ele>2639.8</ele><time>2026-03-08T12:12:25.000Z</time></trkpt>
<trkpt lat="42.102122" lon="23.572365"><ele>2639.8</ele><time>2026-03-08T12:12:26.000Z</time></trkpt>
<trkpt lat="42.102123" lon="23.572364"><ele>2639.8</ele><time>2026-03-08T12:12:27.000Z</time></trkpt>
<trkpt lat="42.102123" lon="23.572364"><ele>2639.8</ele><time>2026-03-08T12:12:28.000Z</time></trkpt>
<trkpt lat="42.102124" lon="23.572363"><ele>2639.8</ele><time>2026-03-08T12:12:29.000Z</time></trkpt>
<trkpt lat="42.102125" lon="23.572362"><ele>2639.8</ele><time>2026-03-08T12:12:30.000Z</time></trkpt>
<trkpt lat="42.102125" lon="23.572364"><ele>2639.8</ele><time>2026-03-08T12:12:31.000Z</time></trkpt>
<trkpt lat="42.102126" lon="23.572364"><ele>2639.8</ele><time>2026-03-08T12:12:32.000Z</time></trkpt>
<trkpt lat="42.102126" lon="23.572364"><ele>2639.8</ele><time>2026-03-08T12:12:33.000Z</time></trkpt>
<trkpt lat="42.102126" lon="23.572364"><ele>2639.8</ele><time>2026-03-08T12:12:34.000Z</time></trkpt>
<trkpt lat="42.102126" lon="23.572365"><ele>2639.8</ele><time>2026-03-08T12:12:35.000Z</time></trkpt>
<trkpt lat="42.102126" lon="23.572365"><ele>2639.8</ele><time>2026-03-08T12:12:36.000Z</time></trkpt>
<trkpt lat="42.102126" lon="23.572366"><ele>2640</ele><time>2026-03-08T12:12:37.000Z</time></trkpt>
<trkpt lat="42.102126" lon="23.572366"><ele>2640</ele><time>2026-03-08T12:12:38.000Z</time></trkpt>
<trkpt lat="42.102126" lon="23.572366"><ele>2640</ele><time>2026-03-08T12:12:39.000Z</time></trkpt>
<trkpt lat="42.102126" lon="23.572366"><ele>2640</ele><time>2026-03-08T12:12:40.000Z</time></trkpt>
<trkpt lat="42.102127" lon="23.572367"><ele>2640</ele><time>2026-03-08T12:12:41.000Z</time></trkpt>
<trkpt lat="42.102127" lon="23.572367"><ele>2640.1</ele><time>2026-03-08T12:12:42.000Z</time></trkpt>
<trkpt lat="42.102127" lon="23.572368"><ele>2640.1</ele><time>2026-03-08T12:12:43.000Z</time></trkpt>
<trkpt lat="42.102127" lon="23.572368"><ele>2640.1</ele><time>2026-03-08T12:12:44.000Z</time></trkpt>
<trkpt lat="42.102127" lon="23.572369"><ele>2640.1</ele><time>2026-03-08T12:12:45.000Z</time></trkpt>
<trkpt lat="42.102126" lon="23.572369"><ele>2640.1</ele><time>2026-03-08T12:12:46.000Z</time></trkpt>
<trkpt lat="42.102126" lon="23.572368"><ele>2640.2</ele><time>2026-03-08T12:12:47.000Z</time></trkpt>
<trkpt lat="42.102125" lon="23.572368"><ele>2640.2</ele><time>2026-03-08T12:12:48.000Z</time></trkpt>
<trkpt lat="42.102124" lon="23.572367"><ele>2640.2</ele><time>2026-03-08T12:12:49.000Z</time></trkpt>
<trkpt lat="42.102124" lon="23.572366"><ele>2640.2</ele><time>2026-03-08T12:12:50.000Z</time></trkpt>
<trkpt lat="42.102124" lon="23.572365"><ele>2640.2</ele><time>2026-03-08T12:12:51.000Z</time></trkpt>
<trkpt lat="42.102124" lon="23.572365"><ele>2640.3</ele><time>2026-03-08T12:12:52.000Z</time></trkpt>
<trkpt lat="42.102124" lon="23.572365"><ele>2640.3</ele><time>2026-03-08T12:12:53.000Z</time></trkpt>
<trkpt lat="42.102124" lon="23.572365"><ele>2640.3</ele><time>2026-03-08T12:12:54.000Z</time></trkpt>
<trkpt lat="42.102124" lon="23.572365"><ele>2640.3</ele><time>2026-03-08T12:12:55.000Z</time></trkpt>
<trkpt lat="42.102124" lon="23.572365"><ele>2640.3</ele><time>2026-03-08T12:12:56.000Z</time></trkpt>
<trkpt lat="42.102124" lon="23.572365"><ele>2640.3</ele><time>2026-03-08T12:12:57.000Z</time></trkpt>
<trkpt lat="42.102124" lon="23.572365"><ele>2640.3</ele><time>2026-03-08T12:12:58.000Z</time></trkpt>
<trkpt lat="42.102125" lon="23.572365"><ele>2640.3</ele><time>2026-03-08T12:12:59.000Z</time></trkpt>
<trkpt lat="42.102125" lon="23.572364"><ele>2640.3</ele><time>2026-03-08T12:13:00.000Z</time></trkpt>
<trkpt lat="42.102125" lon="23.572363"><ele>2640.3</ele><time>2026-03-08T12:13:01.000Z</time></trkpt>
<trkpt lat="42.102125" lon="23.572363"><ele>2640.1</ele><time>2026-03-08T12:13:02.000Z</time></trkpt>
<trkpt lat="42.102124" lon="23.572362"><ele>2640.1</ele><time>2026-03-08T12:13:03.000Z</time></trkpt>
<trkpt lat="42.102122" lon="23.572361"><ele>2640.1</ele><time>2026-03-08T12:13:04.000Z</time></trkpt>
<trkpt lat="42.102121" lon="23.57236"><ele>2640.1</ele><time>2026-03-08T12:13:05.000Z</time></trkpt>
<trkpt lat="42.10212" lon="23.572358"><ele>2640.1</ele><time>2026-03-08T12:13:06.000Z</time></trkpt>
<trkpt lat="42.102119" lon="23.572358"><ele>2640</ele><time>2026-03-08T12:13:07.000Z</time></trkpt>
<trkpt lat="42.102119" lon="23.572358"><ele>2640</ele><time>2026-03-08T12:13:08.000Z</time></trkpt>
<trkpt lat="42.102119" lon="23.572359"><ele>2640</ele><time>2026-03-08T12:13:09.000Z</time></trkpt>
<trkpt lat="42.102119" lon="23.57236"><ele>2640</ele><time>2026-03-08T12:13:10.000Z</time></trkpt>
<trkpt lat="42.102119" lon="23.572362"><ele>2640</ele><time>2026-03-08T12:13:11.000Z</time></trkpt>
<trkpt lat="42.102119" lon="23.572364"><ele>2639.9</ele><time>2026-03-08T12:13:12.000Z</time></trkpt>
<trkpt lat="42.102119" lon="23.572365"><ele>2639.9</ele><time>2026-03-08T12:13:13.000Z</time></trkpt>
<trkpt lat="42.102119" lon="23.572367"><ele>2639.9</ele><time>2026-03-08T12:13:14.000Z</time></trkpt>
<trkpt lat="42.102119" lon="23.572368"><ele>2639.9</ele><time>2026-03-08T12:13:15.000Z</time></trkpt>
<trkpt lat="42.102119" lon="23.572368"><ele>2639.9</ele><time>2026-03-08T12:13:16.000Z</time></trkpt>
<trkpt lat="42.102119" lon="23.572368"><ele>2639.8</ele><time>2026-03-08T12:13:17.000Z</time></trkpt>
<trkpt lat="42.102119" lon="23.572368"><ele>2639.8</ele><time>2026-03-08T12:13:18.000Z</time></trkpt>
<trkpt lat="42.102119" lon="23.572368"><ele>2639.8</ele><time>2026-03-08T12:13:19.000Z</time></trkpt>
<trkpt lat="42.102119" lon="23.572368"><ele>2639.8</ele><time>2026-03-08T12:13:20.000Z</time></trkpt>
<trkpt lat="42.102119" lon="23.572368"><ele>2639.8</ele><time>2026-03-08T12:13:21.000Z</time></trkpt>
<trkpt lat="42.102119" lon="23.572368"><ele>2639.8</ele><time>2026-03-08T12:13:22.000Z</time></trkpt>
<trkpt lat="42.102119" lon="23.572368"><ele>2639.8</ele><time>2026-03-08T12:13:23.000Z</time></trkpt>
<trkpt lat="42.102119" lon="23.572368"><ele>2639.8</ele><time>2026-03-08T12:13:24.000Z</time></trkpt>
<trkpt lat="42.102119" lon="23.572368"><ele>2639.8</ele><time>2026-03-08T12:13:25.000Z</time></trkpt>
<trkpt lat="42.102119" lon="23.572368"><ele>2639.8</ele><time>2026-03-08T12:13:26.000Z</time></trkpt>
<trkpt lat="42.102119" lon="23.572368"><ele>2639.7</ele><time>2026-03-08T12:13:27.000Z</time></trkpt>
<trkpt lat="42.102119" lon="23.572368"><ele>2639.7</ele><time>2026-03-08T12:13:28.000Z</time></trkpt>
<trkpt lat="42.102119" lon="23.572368"><ele>2639.7</ele><time>2026-03-08T12:13:29.000Z</time></trkpt>
<trkpt lat="42.102119" lon="23.572368"><ele>2639.7</ele><time>2026-03-08T12:13:30.000Z</time></trkpt>
<trkpt lat="42.102119" lon="23.572368"><ele>2639.7</ele><time>2026-03-08T12:13:31.000Z</time></trkpt>
<trkpt lat="42.102119" lon="23.572367"><ele>2639.6</ele><time>2026-03-08T12:13:32.000Z</time></trkpt>
<trkpt lat="42.10212" lon="23.572366"><ele>2639.6</ele><time>2026-03-08T12:13:33.000Z</time></trkpt>
<trkpt lat="42.10212" lon="23.572364"><ele>2639.6</ele><time>2026-03-08T12:13:34.000Z</time></trkpt>
<trkpt lat="42.10212" lon="23.572362"><ele>2639.6</ele><time>2026-03-08T12:13:35.000Z</time></trkpt>
<trkpt lat="42.102121" lon="23.57236"><ele>2639.6</ele><time>2026-03-08T12:13:36.000Z</time></trkpt>
<trkpt lat="42.10212" lon="23.572357"><ele>2639.5</ele><time>2026-03-08T12:13:37.000Z</time></trkpt>
<trkpt lat="42.10212" lon="23.572354"><ele>2639.5</ele><time>2026-03-08T12:13:38.000Z</time></trkpt>
<trkpt lat="42.10212" lon="23.572352"><ele>2639.5</ele><time>2026-03-08T12:13:39.000Z</time></trkpt>
<trkpt lat="42.10212" lon="23.572351"><ele>2639.5</ele><time>2026-03-08T12:13:40.000Z</time></trkpt>
<trkpt lat="42.10212" lon="23.572349"><ele>2639.5</ele><time>2026-03-08T12:13:41.000Z</time></trkpt>
<trkpt lat="42.102119" lon="23.572348"><ele>2639.5</ele><time>2026-03-08T12:13:42.000Z</time></trkpt>
<trkpt lat="42.102118" lon="23.572346"><ele>2639.5</ele><time>2026-03-08T12:13:43.000Z</time></trkpt>
<trkpt lat="42.102116" lon="23.572342"><ele>2639.5</ele><time>2026-03-08T12:13:44.000Z</time></trkpt>
<trkpt lat="42.102114" lon="23.572336"><ele>2639.5</ele><time>2026-03-08T12:13:45.000Z</time></trkpt>
<trkpt lat="42.102113" lon="23.57233"><ele>2639.5</ele><time>2026-03-08T12:13:46.000Z</time></trkpt>
<trkpt lat="42.102113" lon="23.572326"><ele>2639.7</ele><time>2026-03-08T12:13:47.000Z</time></trkpt>
<trkpt lat="42.102113" lon="23.572322"><ele>2639.7</ele><time>2026-03-08T12:13:48.000Z</time></trkpt>
<trkpt lat="42.102114" lon="23.572321"><ele>2639.7</ele><time>2026-03-08T12:13:49.000Z</time></trkpt>
<trkpt lat="42.102115" lon="23.572321"><ele>2639.7</ele><time>2026-03-08T12:13:50.000Z</time></trkpt>
<trkpt lat="42.102114" lon="23.572321"><ele>2639.7</ele><time>2026-03-08T12:13:51.000Z</time></trkpt>
<trkpt lat="42.102114" lon="23.572322"><ele>2640</ele><time>2026-03-08T12:13:52.000Z</time></trkpt>
<trkpt lat="42.102113" lon="23.572322"><ele>2640</ele><time>2026-03-08T12:13:53.000Z</time></trkpt>
<trkpt lat="42.102113" lon="23.572323"><ele>2640</ele><time>2026-03-08T12:13:54.000Z</time></trkpt>
<trkpt lat="42.102112" lon="23.572324"><ele>2640</ele><time>2026-03-08T12:13:55.000Z</time></trkpt>
<trkpt lat="42.102112" lon="23.572325"><ele>2640</ele><time>2026-03-08T12:13:56.000Z</time></trkpt>
<trkpt lat="42.102111" lon="23.572326"><ele>2640.2</ele><time>2026-03-08T12:13:57.000Z</time></trkpt>
<trkpt lat="42.102111" lon="23.572327"><ele>2640.2</ele><time>2026-03-08T12:13:58.000Z</time></trkpt>
<trkpt lat="42.102111" lon="23.572327"><ele>2640.2</ele><time>2026-03-08T12:13:59.000Z</time></trkpt>
<trkpt lat="42.10211" lon="23.572326"><ele>2640.2</ele><time>2026-03-08T12:14:00.000Z</time></trkpt>
<trkpt lat="42.10211" lon="23.572325"><ele>2640.2</ele><time>2026-03-08T12:14:01.000Z</time></trkpt>
<trkpt lat="42.10211" lon="23.572323"><ele>2640.5</ele><time>2026-03-08T12:14:02.000Z</time></trkpt>
<trkpt lat="42.102111" lon="23.572322"><ele>2640.5</ele><time>2026-03-08T12:14:03.000Z</time></trkpt>
<trkpt lat="42.102111" lon="23.572322"><ele>2640.5</ele><time>2026-03-08T12:14:04.000Z</time></trkpt>
<trkpt lat="42.102112" lon="23.572321"><ele>2640.5</ele><time>2026-03-08T12:14:05.000Z</time></trkpt>
<trkpt lat="42.102112" lon="23.572321"><ele>2640.5</ele><time>2026-03-08T12:14:06.000Z</time></trkpt>
<trkpt lat="42.102112" lon="23.572321"><ele>2640.7</ele><time>2026-03-08T12:14:07.000Z</time></trkpt>
<trkpt lat="42.102112" lon="23.572321"><ele>2640.7</ele><time>2026-03-08T12:14:08.000Z</time></trkpt>
<trkpt lat="42.102112" lon="23.572321"><ele>2640.7</ele><time>2026-03-08T12:14:09.000Z</time></trkpt>
<trkpt lat="42.102112" lon="23.572321"><ele>2640.7</ele><time>2026-03-08T12:14:10.000Z</time></trkpt>
<trkpt lat="42.102112" lon="23.572321"><ele>2640.7</ele><time>2026-03-08T12:14:11.000Z</time></trkpt>
<trkpt lat="42.102112" lon="23.572321"><ele>2640.6</ele><time>2026-03-08T12:14:12.000Z</time></trkpt>
<trkpt lat="42.102112" lon="23.572321"><ele>2640.6</ele><time>2026-03-08T12:14:13.000Z</time></trkpt>
<trkpt lat="42.102112" lon="23.572321"><ele>2640.6</ele><time>2026-03-08T12:14:14.000Z</time></trkpt>
<trkpt lat="42.102112" lon="23.572321"><ele>2640.6</ele><time>2026-03-08T12:14:15.000Z</time></trkpt>
<trkpt lat="42.102112" lon="23.57232"><ele>2640.6</ele><time>2026-03-08T12:14:16.000Z</time></trkpt>
<trkpt lat="42.102112" lon="23.57232"><ele>2640.7</ele><time>2026-03-08T12:14:17.000Z</time></trkpt>
<trkpt lat="42.102112" lon="23.57232"><ele>2640.7</ele><time>2026-03-08T12:14:18.000Z</time></trkpt>
<trkpt lat="42.102112" lon="23.57232"><ele>2640.7</ele><time>2026-03-08T12:14:19.000Z</time></trkpt>
<trkpt lat="42.102111" lon="23.572319"><ele>2640.7</ele><time>2026-03-08T12:14:20.000Z</time></trkpt>
<trkpt lat="42.102111" lon="23.572319"><ele>2640.7</ele><time>2026-03-08T12:14:21.000Z</time></trkpt>
<trkpt lat="42.102111" lon="23.572319"><ele>2640.8</ele><time>2026-03-08T12:14:22.000Z</time></trkpt>
<trkpt lat="42.102111" lon="23.572319"><ele>2640.8</ele><time>2026-03-08T12:14:23.000Z</time></trkpt>
<trkpt lat="42.102112" lon="23.57232"><ele>2640.8</ele><time>2026-03-08T12:14:24.000Z</time></trkpt>
<trkpt lat="42.102112" lon="23.57232"><ele>2640.8</ele><time>2026-03-08T12:14:25.000Z</time></trkpt>
<trkpt lat="42.102112" lon="23.57232"><ele>2640.8</ele><time>2026-03-08T12:14:26.000Z</time></trkpt>
<trkpt lat="42.102112" lon="23.57232"><ele>2640.9</ele><time>2026-03-08T12:14:27.000Z</time></trkpt>
<trkpt lat="42.102112" lon="23.57232"><ele>2640.9</ele><time>2026-03-08T12:14:28.000Z</time></trkpt>
<trkpt lat="42.102112" lon="23.572321"><ele>2640.9</ele><time>2026-03-08T12:14:29.000Z</time></trkpt>
<trkpt lat="42.102112" lon="23.572321"><ele>2640.9</ele><time>2026-03-08T12:14:30.000Z</time></trkpt>
<trkpt lat="42.102113" lon="23.572322"><ele>2640.9</ele><time>2026-03-08T12:14:31.000Z</time></trkpt>
<trkpt lat="42.102113" lon="23.572322"><ele>2640.9</ele><time>2026-03-08T12:14:32.000Z</time></trkpt>
<trkpt lat="42.102113" lon="23.572323"><ele>2640.9</ele><time>2026-03-08T12:14:33.000Z</time></trkpt>
<trkpt lat="42.102113" lon="23.572323"><ele>2640.9</ele><time>2026-03-08T12:14:34.000Z</time></trkpt>
<trkpt lat="42.102113" lon="23.572323"><ele>2640.9</ele><time>2026-03-08T12:14:35.000Z</time></trkpt>
<trkpt lat="42.102113" lon="23.572323"><ele>2640.9</ele><time>2026-03-08T12:14:36.000Z</time></trkpt>
<trkpt lat="42.102113" lon="23.572323"><ele>2641</ele><time>2026-03-08T12:14:37.000Z</time></trkpt>
<trkpt lat="42.102113" lon="23.572324"><ele>2641</ele><time>2026-03-08T12:14:38.000Z</time></trkpt>
<trkpt lat="42.102112" lon="23.572324"><ele>2641</ele><time>2026-03-08T12:14:39.000Z</time></trkpt>
<trkpt lat="42.10211" lon="23.572327"><ele>2641</ele><time>2026-03-08T12:14:40.000Z</time></trkpt>
<trkpt lat="42.102106" lon="23.57233"><ele>2641</ele><time>2026-03-08T12:14:41.000Z</time></trkpt>
<trkpt lat="42.102102" lon="23.572332"><ele>2641</ele><time>2026-03-08T12:14:42.000Z</time></trkpt>
<trkpt lat="42.102098" lon="23.572337"><ele>2641</ele><time>2026-03-08T12:14:43.000Z</time></trkpt>
<trkpt lat="42.102095" lon="23.572339"><ele>2641</ele><time>2026-03-08T12:14:44.000Z</time></trkpt>
<trkpt lat="42.102094" lon="23.57234"><ele>2641</ele><time>2026-03-08T12:14:45.000Z</time></trkpt>
<trkpt lat="42.102094" lon="23.572341"><ele>2641</ele><time>2026-03-08T12:14:46.000Z</time></trkpt>
<trkpt lat="42.102095" lon="23.572342"><ele>2641.2</ele><time>2026-03-08T12:14:47.000Z</time></trkpt>
<trkpt lat="42.102096" lon="23.572341"><ele>2641.2</ele><time>2026-03-08T12:14:48.000Z</time></trkpt>
<trkpt lat="42.102096" lon="23.572341"><ele>2641.2</ele><time>2026-03-08T12:14:49.000Z</time></trkpt>
<trkpt lat="42.102096" lon="23.57234"><ele>2641.2</ele><time>2026-03-08T12:14:50.000Z</time></trkpt>
<trkpt lat="42.102096" lon="23.57234"><ele>2641.2</ele><time>2026-03-08T12:14:51.000Z</time></trkpt>
<trkpt lat="42.102096" lon="23.572339"><ele>2641.3</ele><time>2026-03-08T12:14:52.000Z</time></trkpt>
<trkpt lat="42.102096" lon="23.572339"><ele>2641.3</ele><time>2026-03-08T12:14:53.000Z</time></trkpt>
<trkpt lat="42.102096" lon="23.572339"><ele>2641.3</ele><time>2026-03-08T12:14:54.000Z</time></trkpt>
<trkpt lat="42.102096" lon="23.572339"><ele>2641.3</ele><time>2026-03-08T12:14:55.000Z</time></trkpt>
<trkpt lat="42.102096" lon="23.572339"><ele>2641.3</ele><time>2026-03-08T12:14:56.000Z</time></trkpt>
<trkpt lat="42.102096" lon="23.572339"><ele>2641.3</ele><time>2026-03-08T12:14:57.000Z</time></trkpt>
<trkpt lat="42.102096" lon="23.572339"><ele>2641.3</ele><time>2026-03-08T12:14:58.000Z</time></trkpt>
<trkpt lat="42.102096" lon="23.572339"><ele>2641.3</ele><time>2026-03-08T12:14:59.000Z</time></trkpt>
<trkpt lat="42.102096" lon="23.572339"><ele>2641.3</ele><time>2026-03-08T12:15:00.000Z</time></trkpt>
<trkpt lat="42.102096" lon="23.572339"><ele>2641.3</ele><time>2026-03-08T12:15:01.000Z</time></trkpt>
<trkpt lat="42.102097" lon="23.572338"><ele>2641.3</ele><time>2026-03-08T12:15:02.000Z</time></trkpt>
<trkpt lat="42.102097" lon="23.572338"><ele>2641.3</ele><time>2026-03-08T12:15:03.000Z</time></trkpt>
<trkpt lat="42.102098" lon="23.572338"><ele>2641.3</ele><time>2026-03-08T12:15:04.000Z</time></trkpt>
<trkpt lat="42.102099" lon="23.572338"><ele>2641.3</ele><time>2026-03-08T12:15:05.000Z</time></trkpt>
<trkpt lat="42.1021" lon="23.572338"><ele>2641.3</ele><time>2026-03-08T12:15:06.000Z</time></trkpt>
<trkpt lat="42.102099" lon="23.572339"><ele>2641.2</ele><time>2026-03-08T12:15:07.000Z</time></trkpt>
<trkpt lat="42.102099" lon="23.57234"><ele>2641.2</ele><time>2026-03-08T12:15:08.000Z</time></trkpt>
<trkpt lat="42.102099" lon="23.57234"><ele>2641.2</ele><time>2026-03-08T12:15:09.000Z</time></trkpt>
<trkpt lat="42.102098" lon="23.572341"><ele>2641.2</ele><time>2026-03-08T12:15:10.000Z</time></trkpt>
<trkpt lat="42.102098" lon="23.572341"><ele>2641.2</ele><time>2026-03-08T12:15:11.000Z</time></trkpt>
<trkpt lat="42.102098" lon="23.572341"><ele>2641.2</ele><time>2026-03-08T12:15:12.000Z</time></trkpt>
<trkpt lat="42.102098" lon="23.572341"><ele>2641.2</ele><time>2026-03-08T12:15:13.000Z</time></trkpt>
<trkpt lat="42.102099" lon="23.572341"><ele>2641.2</ele><time>2026-03-08T12:15:14.000Z</time></trkpt>
<trkpt lat="42.102099" lon="23.572341"><ele>2641.2</ele><time>2026-03-08T12:15:15.000Z</time></trkpt>
<trkpt lat="42.1021" lon="23.57234"><ele>2641.2</ele><time>2026-03-08T12:15:16.000Z</time></trkpt>
<trkpt lat="42.102101" lon="23.572338"><ele>2641.1</ele><time>2026-03-08T12:15:17.000Z</time></trkpt>
<trkpt lat="42.102104" lon="23.572334"><ele>2641.1</ele><time>2026-03-08T12:15:18.000Z</time></trkpt>
<trkpt lat="42.102107" lon="23.572329"><ele>2641.1</ele><time>2026-03-08T12:15:19.000Z</time></trkpt>
<trkpt lat="42.102109" lon="23.572323"><ele>2641.1</ele><time>2026-03-08T12:15:20.000Z</time></trkpt>
<trkpt lat="42.102112" lon="23.572318"><ele>2641.1</ele><time>2026-03-08T12:15:21.000Z</time></trkpt>
<trkpt lat="42.102114" lon="23.572316"><ele>2640.9</ele><time>2026-03-08T12:15:22.000Z</time></trkpt>
<trkpt lat="42.102114" lon="23.572315"><ele>2640.9</ele><time>2026-03-08T12:15:23.000Z</time></trkpt>
<trkpt lat="42.102114" lon="23.572315"><ele>2640.9</ele><time>2026-03-08T12:15:24.000Z</time></trkpt>
<trkpt lat="42.102113" lon="23.572315"><ele>2640.9</ele><time>2026-03-08T12:15:25.000Z</time></trkpt>
<trkpt lat="42.102112" lon="23.572313"><ele>2640.9</ele><time>2026-03-08T12:15:26.000Z</time></trkpt>
<trkpt lat="42.102111" lon="23.57231"><ele>2640.7</ele><time>2026-03-08T12:15:27.000Z</time></trkpt>
<trkpt lat="42.102111" lon="23.572307"><ele>2640.7</ele><time>2026-03-08T12:15:28.000Z</time></trkpt>
<trkpt lat="42.102111" lon="23.572306"><ele>2640.7</ele><time>2026-03-08T12:15:29.000Z</time></trkpt>
<trkpt lat="42.102112" lon="23.572304"><ele>2640.7</ele><time>2026-03-08T12:15:30.000Z</time></trkpt>
<trkpt lat="42.102112" lon="23.572305"><ele>2640.7</ele><time>2026-03-08T12:15:31.000Z</time></trkpt>
<trkpt lat="42.102113" lon="23.572307"><ele>2640.4</ele><time>2026-03-08T12:15:32.000Z</time></trkpt>
<trkpt lat="42.102112" lon="23.572308"><ele>2640.4</ele><time>2026-03-08T12:15:33.000Z</time></trkpt>
<trkpt lat="42.102112" lon="23.572308"><ele>2640.4</ele><time>2026-03-08T12:15:34.000Z</time></trkpt>
<trkpt lat="42.102113" lon="23.572308"><ele>2640.4</ele><time>2026-03-08T12:15:35.000Z</time></trkpt>
<trkpt lat="42.102113" lon="23.572308"><ele>2640.4</ele><time>2026-03-08T12:15:36.000Z</time></trkpt>
<trkpt lat="42.102113" lon="23.572307"><ele>2640.4</ele><time>2026-03-08T12:15:37.000Z</time></trkpt>
<trkpt lat="42.102113" lon="23.572307"><ele>2640.4</ele><time>2026-03-08T12:15:38.000Z</time></trkpt>
<trkpt lat="42.102113" lon="23.572307"><ele>2640.4</ele><time>2026-03-08T12:15:39.000Z</time></trkpt>
<trkpt lat="42.102112" lon="23.572308"><ele>2640.4</ele><time>2026-03-08T12:15:40.000Z</time></trkpt>
<trkpt lat="42.102112" lon="23.572308"><ele>2640.4</ele><time>2026-03-08T12:15:41.000Z</time></trkpt>
<trkpt lat="42.102112" lon="23.572308"><ele>2640.3</ele><time>2026-03-08T12:15:42.000Z</time></trkpt>
<trkpt lat="42.102112" lon="23.572308"><ele>2640.3</ele><time>2026-03-08T12:15:43.000Z</time></trkpt>
<trkpt lat="42.102112" lon="23.572308"><ele>2640.3</ele><time>2026-03-08T12:15:44.000Z</time></trkpt>
<trkpt lat="42.102112" lon="23.572308"><ele>2640.3</ele><time>2026-03-08T12:15:45.000Z</time></trkpt>
<trkpt lat="42.102111" lon="23.572307"><ele>2640.3</ele><time>2026-03-08T12:15:46.000Z</time></trkpt>
<trkpt lat="42.102111" lon="23.572306"><ele>2640.1</ele><time>2026-03-08T12:15:47.000Z</time></trkpt>
<trkpt lat="42.102111" lon="23.572305"><ele>2640.1</ele><time>2026-03-08T12:15:48.000Z</time></trkpt>
<trkpt lat="42.102111" lon="23.572304"><ele>2640.1</ele><time>2026-03-08T12:15:49.000Z</time></trkpt>
<trkpt lat="42.102111" lon="23.572303"><ele>2640.1</ele><time>2026-03-08T12:15:50.000Z</time></trkpt>
<trkpt lat="42.102112" lon="23.572303"><ele>2640.1</ele><time>2026-03-08T12:15:51.000Z</time></trkpt>
<trkpt lat="42.102113" lon="23.572303"><ele>2639.7</ele><time>2026-03-08T12:15:52.000Z</time></trkpt>
<trkpt lat="42.102114" lon="23.572303"><ele>2639.7</ele><time>2026-03-08T12:15:53.000Z</time></trkpt>
<trkpt lat="42.102114" lon="23.572303"><ele>2639.7</ele><time>2026-03-08T12:15:54.000Z</time></trkpt>
<trkpt lat="42.102115" lon="23.572303"><ele>2639.7</ele><time>2026-03-08T12:15:55.000Z</time></trkpt>
<trkpt lat="42.102115" lon="23.572303"><ele>2639.7</ele><time>2026-03-08T12:15:56.000Z</time></trkpt>
<trkpt lat="42.102116" lon="23.572304"><ele>2639.6</ele><time>2026-03-08T12:15:57.000Z</time></trkpt>
<trkpt lat="42.102116" lon="23.572304"><ele>2639.6</ele><time>2026-03-08T12:15:58.000Z</time></trkpt>
<trkpt lat="42.102116" lon="23.572304"><ele>2639.6</ele><time>2026-03-08T12:15:59.000Z</time></trkpt>
<trkpt lat="42.102116" lon="23.572305"><ele>2639.6</ele><time>2026-03-08T12:16:00.000Z</time></trkpt>
<trkpt lat="42.102117" lon="23.572307"><ele>2639.6</ele><time>2026-03-08T12:16:01.000Z</time></trkpt>
<trkpt lat="42.102117" lon="23.57231"><ele>2639.9</ele><time>2026-03-08T12:16:02.000Z</time></trkpt>
<trkpt lat="42.102118" lon="23.572315"><ele>2639.9</ele><time>2026-03-08T12:16:03.000Z</time></trkpt>
<trkpt lat="42.102119" lon="23.572321"><ele>2639.9</ele><time>2026-03-08T12:16:04.000Z</time></trkpt>
<trkpt lat="42.102121" lon="23.572329"><ele>2639.9</ele><time>2026-03-08T12:16:05.000Z</time></trkpt>
<trkpt lat="42.102122" lon="23.572336"><ele>2639.9</ele><time>2026-03-08T12:16:06.000Z</time></trkpt>
<trkpt lat="42.102122" lon="23.572342"><ele>2640.2</ele><time>2026-03-08T12:16:07.000Z</time></trkpt>
<trkpt lat="42.102122" lon="23.572347"><ele>2640.2</ele><time>2026-03-08T12:16:08.000Z</time></trkpt>
<trkpt lat="42.102121" lon="23.57235"><ele>2640.2</ele><time>2026-03-08T12:16:09.000Z</time></trkpt>
<trkpt lat="42.102121" lon="23.572352"><ele>2640.2</ele><time>2026-03-08T12:16:10.000Z</time></trkpt>
<trkpt lat="42.10212" lon="23.572352"><ele>2640.2</ele><time>2026-03-08T12:16:11.000Z</time></trkpt>
<trkpt lat="42.102119" lon="23.572352"><ele>2640.5</ele><time>2026-03-08T12:16:12.000Z</time></trkpt>
<trkpt lat="42.102118" lon="23.572353"><ele>2640.5</ele><time>2026-03-08T12:16:13.000Z</time></trkpt>
<trkpt lat="42.102118" lon="23.572353"><ele>2640.5</ele><time>2026-03-08T12:16:14.000Z</time></trkpt>
<trkpt lat="42.102117" lon="23.572353"><ele>2640.5</ele><time>2026-03-08T12:16:15.000Z</time></trkpt>
<trkpt lat="42.102117" lon="23.572354"><ele>2640.5</ele><time>2026-03-08T12:16:16.000Z</time></trkpt>
<trkpt lat="42.102116" lon="23.572354"><ele>2640.7</ele><time>2026-03-08T12:16:17.000Z</time></trkpt>
<trkpt lat="42.102116" lon="23.572353"><ele>2640.7</ele><time>2026-03-08T12:16:18.000Z</time></trkpt>
<trkpt lat="42.102116" lon="23.572354"><ele>2640.7</ele><time>2026-03-08T12:16:19.000Z</time></trkpt>
<trkpt lat="42.102116" lon="23.572354"><ele>2640.7</ele><time>2026-03-08T12:16:20.000Z</time></trkpt>
<trkpt lat="42.102116" lon="23.572354"><ele>2640.7</ele><time>2026-03-08T12:16:21.000Z</time></trkpt>
<trkpt lat="42.102116" lon="23.572354"><ele>2640.9</ele><time>2026-03-08T12:16:22.000Z</time></trkpt>
<trkpt lat="42.102116" lon="23.572354"><ele>2640.9</ele><time>2026-03-08T12:16:23.000Z</time></trkpt>
<trkpt lat="42.102116" lon="23.572354"><ele>2640.9</ele><time>2026-03-08T12:16:24.000Z</time></trkpt>
<trkpt lat="42.102117" lon="23.572355"><ele>2640.9</ele><time>2026-03-08T12:16:25.000Z</time></trkpt>
<trkpt lat="42.102119" lon="23.572355"><ele>2640.9</ele><time>2026-03-08T12:16:26.000Z</time></trkpt>
<trkpt lat="42.102121" lon="23.572356"><ele>2641</ele><time>2026-03-08T12:16:27.000Z</time></trkpt>
<trkpt lat="42.102123" lon="23.572359"><ele>2641</ele><time>2026-03-08T12:16:28.000Z</time></trkpt>
<trkpt lat="42.102124" lon="23.572363"><ele>2641</ele><time>2026-03-08T12:16:29.000Z</time></trkpt>
<trkpt lat="42.102124" lon="23.572366"><ele>2641</ele><time>2026-03-08T12:16:30.000Z</time></trkpt>
<trkpt lat="42.102123" lon="23.572368"><ele>2641</ele><time>2026-03-08T12:16:31.000Z</time></trkpt>
<trkpt lat="42.102123" lon="23.572369"><ele>2641.1</ele><time>2026-03-08T12:16:32.000Z</time></trkpt>
<trkpt lat="42.102123" lon="23.57237"><ele>2641.1</ele><time>2026-03-08T12:16:33.000Z</time></trkpt>
<trkpt lat="42.102123" lon="23.572369"><ele>2641.1</ele><time>2026-03-08T12:16:34.000Z</time></trkpt>
<trkpt lat="42.102123" lon="23.572367"><ele>2641.1</ele><time>2026-03-08T12:16:35.000Z</time></trkpt>
<trkpt lat="42.102122" lon="23.572365"><ele>2641.1</ele><time>2026-03-08T12:16:36.000Z</time></trkpt>
<trkpt lat="42.10212" lon="23.572363"><ele>2640.8</ele><time>2026-03-08T12:16:37.000Z</time></trkpt>
<trkpt lat="42.102119" lon="23.572361"><ele>2640.8</ele><time>2026-03-08T12:16:38.000Z</time></trkpt>
<trkpt lat="42.102118" lon="23.572361"><ele>2640.8</ele><time>2026-03-08T12:16:39.000Z</time></trkpt>
<trkpt lat="42.102117" lon="23.572361"><ele>2640.8</ele><time>2026-03-08T12:16:40.000Z</time></trkpt>
<trkpt lat="42.102117" lon="23.572362"><ele>2640.8</ele><time>2026-03-08T12:16:41.000Z</time></trkpt>
<trkpt lat="42.102117" lon="23.572362"><ele>2640.6</ele><time>2026-03-08T12:16:42.000Z</time></trkpt>
<trkpt lat="42.102117" lon="23.572363"><ele>2640.6</ele><time>2026-03-08T12:16:43.000Z</time></trkpt>
<trkpt lat="42.102117" lon="23.572365"><ele>2640.6</ele><time>2026-03-08T12:16:44.000Z</time></trkpt>
<trkpt lat="42.102118" lon="23.572367"><ele>2640.6</ele><time>2026-03-08T12:16:45.000Z</time></trkpt>
<trkpt lat="42.102119" lon="23.57237"><ele>2640.6</ele><time>2026-03-08T12:16:46.000Z</time></trkpt>
<trkpt lat="42.10212" lon="23.572371"><ele>2640.2</ele><time>2026-03-08T12:16:47.000Z</time></trkpt>
<trkpt lat="42.10212" lon="23.572374"><ele>2640.2</ele><time>2026-03-08T12:16:48.000Z</time></trkpt>
<trkpt lat="42.102121" lon="23.572374"><ele>2640.2</ele><time>2026-03-08T12:16:49.000Z</time></trkpt>
<trkpt lat="42.102122" lon="23.572374"><ele>2640.2</ele><time>2026-03-08T12:16:50.000Z</time></trkpt>
<trkpt lat="42.102122" lon="23.572375"><ele>2640.2</ele><time>2026-03-08T12:16:51.000Z</time></trkpt>
<trkpt lat="42.102122" lon="23.572375"><ele>2640.1</ele><time>2026-03-08T12:16:52.000Z</time></trkpt>
<trkpt lat="42.102122" lon="23.572375"><ele>2640.1</ele><time>2026-03-08T12:16:53.000Z</time></trkpt>
<trkpt lat="42.102123" lon="23.572374"><ele>2640.1</ele><time>2026-03-08T12:16:54.000Z</time></trkpt>
<trkpt lat="42.102124" lon="23.572373"><ele>2640.1</ele><time>2026-03-08T12:16:55.000Z</time></trkpt>
<trkpt lat="42.102125" lon="23.572371"><ele>2640.1</ele><time>2026-03-08T12:16:56.000Z</time></trkpt>
<trkpt lat="42.102126" lon="23.57237"><ele>2640.2</ele><time>2026-03-08T12:16:57.000Z</time></trkpt>
<trkpt lat="42.102127" lon="23.572369"><ele>2640.2</ele><time>2026-03-08T12:16:58.000Z</time></trkpt>
<trkpt lat="42.102127" lon="23.572368"><ele>2640.2</ele><time>2026-03-08T12:16:59.000Z</time></trkpt>
<trkpt lat="42.102127" lon="23.572368"><ele>2640.2</ele><time>2026-03-08T12:17:00.000Z</time></trkpt>
<trkpt lat="42.102126" lon="23.572369"><ele>2640.2</ele><time>2026-03-08T12:17:01.000Z</time></trkpt>
<trkpt lat="42.102126" lon="23.572369"><ele>2640.2</ele><time>2026-03-08T12:17:02.000Z</time></trkpt>
<trkpt lat="42.102126" lon="23.572369"><ele>2640.2</ele><time>2026-03-08T12:17:03.000Z</time></trkpt>
<trkpt lat="42.102125" lon="23.572369"><ele>2640.2</ele><time>2026-03-08T12:17:04.000Z</time></trkpt>
<trkpt lat="42.102124" lon="23.57237"><ele>2640.2</ele><time>2026-03-08T12:17:05.000Z</time></trkpt>
<trkpt lat="42.102124" lon="23.572369"><ele>2640.2</ele><time>2026-03-08T12:17:06.000Z</time></trkpt>
<trkpt lat="42.102124" lon="23.572369"><ele>2640.2</ele><time>2026-03-08T12:17:07.000Z</time></trkpt>
<trkpt lat="42.102123" lon="23.572368"><ele>2640.2</ele><time>2026-03-08T12:17:08.000Z</time></trkpt>
<trkpt lat="42.102123" lon="23.572368"><ele>2640.2</ele><time>2026-03-08T12:17:09.000Z</time></trkpt>
<trkpt lat="42.102123" lon="23.572368"><ele>2640.2</ele><time>2026-03-08T12:17:10.000Z</time></trkpt>
<trkpt lat="42.102123" lon="23.572368"><ele>2640.2</ele><time>2026-03-08T12:17:11.000Z</time></trkpt>
<trkpt lat="42.102123" lon="23.572369"><ele>2640.1</ele><time>2026-03-08T12:17:12.000Z</time></trkpt>
<trkpt lat="42.102123" lon="23.572369"><ele>2640.1</ele><time>2026-03-08T12:17:13.000Z</time></trkpt>
<trkpt lat="42.102123" lon="23.57237"><ele>2640.1</ele><time>2026-03-08T12:17:14.000Z</time></trkpt>
<trkpt lat="42.102123" lon="23.572369"><ele>2640.1</ele><time>2026-03-08T12:17:15.000Z</time></trkpt>
<trkpt lat="42.102123" lon="23.572369"><ele>2640.1</ele><time>2026-03-08T12:17:16.000Z</time></trkpt>
<trkpt lat="42.102124" lon="23.572369"><ele>2639.8</ele><time>2026-03-08T12:17:17.000Z</time></trkpt>
<trkpt lat="42.102124" lon="23.572369"><ele>2639.8</ele><time>2026-03-08T12:17:18.000Z</time></trkpt>
<trkpt lat="42.102124" lon="23.572369"><ele>2639.8</ele><time>2026-03-08T12:17:19.000Z</time></trkpt>
<trkpt lat="42.102124" lon="23.572369"><ele>2639.8</ele><time>2026-03-08T12:17:20.000Z</time></trkpt>
<trkpt lat="42.102124" lon="23.572369"><ele>2639.8</ele><time>2026-03-08T12:17:21.000Z</time></trkpt>
<trkpt lat="42.102124" lon="23.572369"><ele>2639.4</ele><time>2026-03-08T12:17:22.000Z</time></trkpt>
<trkpt lat="42.102124" lon="23.572369"><ele>2639.4</ele><time>2026-03-08T12:17:23.000Z</time></trkpt>
<trkpt lat="42.102124" lon="23.572369"><ele>2639.4</ele><time>2026-03-08T12:17:24.000Z</time></trkpt>
<trkpt lat="42.102124" lon="23.572369"><ele>2639.4</ele><time>2026-03-08T12:17:25.000Z</time></trkpt>
<trkpt lat="42.102124" lon="23.572369"><ele>2639.4</ele><time>2026-03-08T12:17:26.000Z</time></trkpt>
<trkpt lat="42.102124" lon="23.57237"><ele>2639.4</ele><time>2026-03-08T12:17:27.000Z</time></trkpt>
<trkpt lat="42.102124" lon="23.57237"><ele>2639.4</ele><time>2026-03-08T12:17:28.000Z</time></trkpt>
<trkpt lat="42.102124" lon="23.57237"><ele>2639.4</ele><time>2026-03-08T12:17:29.000Z</time></trkpt>
<trkpt lat="42.102124" lon="23.572371"><ele>2639.4</ele><time>2026-03-08T12:17:30.000Z</time></trkpt>
<trkpt lat="42.102123" lon="23.57237"><ele>2639.4</ele><time>2026-03-08T12:17:31.000Z</time></trkpt>
<trkpt lat="42.102123" lon="23.57237"><ele>2639.5</ele><time>2026-03-08T12:17:32.000Z</time></trkpt>
<trkpt lat="42.102123" lon="23.57237"><ele>2639.5</ele><time>2026-03-08T12:17:33.000Z</time></trkpt>
<trkpt lat="42.102124" lon="23.572369"><ele>2639.5</ele><time>2026-03-08T12:17:34.000Z</time></trkpt>
<trkpt lat="42.102125" lon="23.572368"><ele>2639.5</ele><time>2026-03-08T12:17:35.000Z</time></trkpt>
<trkpt lat="42.102125" lon="23.572366"><ele>2639.5</ele><time>2026-03-08T12:17:36.000Z</time></trkpt>
<trkpt lat="42.102125" lon="23.572365"><ele>2639.6</ele><time>2026-03-08T12:17:37.000Z</time></trkpt>
<trkpt lat="42.102125" lon="23.572364"><ele>2639.6</ele><time>2026-03-08T12:17:38.000Z</time></trkpt>
<trkpt lat="42.102125" lon="23.572363"><ele>2639.6</ele><time>2026-03-08T12:17:39.000Z</time></trkpt>
<trkpt lat="42.102124" lon="23.572363"><ele>2639.6</ele><time>2026-03-08T12:17:40.000Z</time></trkpt>
<trkpt lat="42.102123" lon="23.572363"><ele>2639.6</ele><time>2026-03-08T12:17:41.000Z</time></trkpt>
<trkpt lat="42.102122" lon="23.572362"><ele>2639.6</ele><time>2026-03-08T12:17:42.000Z</time></trkpt>
<trkpt lat="42.102121" lon="23.572363"><ele>2639.6</ele><time>2026-03-08T12:17:43.000Z</time></trkpt>
<trkpt lat="42.102121" lon="23.572363"><ele>2639.6</ele><time>2026-03-08T12:17:44.000Z</time></trkpt>
<trkpt lat="42.10212" lon="23.572363"><ele>2639.6</ele><time>2026-03-08T12:17:45.000Z</time></trkpt>
<trkpt lat="42.10212" lon="23.572363"><ele>2639.6</ele><time>2026-03-08T12:17:46.000Z</time></trkpt>
<trkpt lat="42.10212" lon="23.572363"><ele>2639.7</ele><time>2026-03-08T12:17:47.000Z</time></trkpt>
<trkpt lat="42.10212" lon="23.572363"><ele>2639.7</ele><time>2026-03-08T12:17:48.000Z</time></trkpt>
<trkpt lat="42.10212" lon="23.572363"><ele>2639.7</ele><time>2026-03-08T12:17:49.000Z</time></trkpt>
<trkpt lat="42.10212" lon="23.572364"><ele>2639.7</ele><time>2026-03-08T12:17:50.000Z</time></trkpt>
<trkpt lat="42.102119" lon="23.572364"><ele>2639.7</ele><time>2026-03-08T12:17:51.000Z</time></trkpt>
<trkpt lat="42.102119" lon="23.572365"><ele>2639.9</ele><time>2026-03-08T12:17:52.000Z</time></trkpt>
<trkpt lat="42.102119" lon="23.572365"><ele>2639.9</ele><time>2026-03-08T12:17:53.000Z</time></trkpt>
<trkpt lat="42.102119" lon="23.572366"><ele>2639.9</ele><time>2026-03-08T12:17:54.000Z</time></trkpt>
<trkpt lat="42.102118" lon="23.572366"><ele>2639.9</ele><time>2026-03-08T12:17:55.000Z</time></trkpt>
<trkpt lat="42.102118" lon="23.572366"><ele>2639.9</ele><time>2026-03-08T12:17:56.000Z</time></trkpt>
<trkpt lat="42.102118" lon="23.572366"><ele>2640.1</ele><time>2026-03-08T12:17:57.000Z</time></trkpt>
<trkpt lat="42.102118" lon="23.572366"><ele>2640.1</ele><time>2026-03-08T12:17:58.000Z</time></trkpt>
<trkpt lat="42.102119" lon="23.572366"><ele>2640.1</ele><time>2026-03-08T12:17:59.000Z</time></trkpt>
<trkpt lat="42.102119" lon="23.572365"><ele>2640.1</ele><time>2026-03-08T12:18:00.000Z</time></trkpt>
<trkpt lat="42.102119" lon="23.572365"><ele>2640.1</ele><time>2026-03-08T12:18:01.000Z</time></trkpt>
<trkpt lat="42.102119" lon="23.572365"><ele>2640.5</ele><time>2026-03-08T12:18:02.000Z</time></trkpt>
<trkpt lat="42.102119" lon="23.572365"><ele>2640.5</ele><time>2026-03-08T12:18:03.000Z</time></trkpt>
<trkpt lat="42.10212" lon="23.572363"><ele>2640.5</ele><time>2026-03-08T12:18:04.000Z</time></trkpt>
<trkpt lat="42.102119" lon="23.572361"><ele>2640.5</ele><time>2026-03-08T12:18:05.000Z</time></trkpt>
<trkpt lat="42.102119" lon="23.572357"><ele>2640.5</ele><time>2026-03-08T12:18:06.000Z</time></trkpt>
<trkpt lat="42.10212" lon="23.572354"><ele>2640.6</ele><time>2026-03-08T12:18:07.000Z</time></trkpt>
<trkpt lat="42.10212" lon="23.572351"><ele>2640.6</ele><time>2026-03-08T12:18:08.000Z</time></trkpt>
<trkpt lat="42.102119" lon="23.572349"><ele>2640.6</ele><time>2026-03-08T12:18:09.000Z</time></trkpt>
<trkpt lat="42.102119" lon="23.57235"><ele>2640.6</ele><time>2026-03-08T12:18:10.000Z</time></trkpt>
<trkpt lat="42.102119" lon="23.57235"><ele>2640.6</ele><time>2026-03-08T12:18:11.000Z</time></trkpt>
<trkpt lat="42.102118" lon="23.572351"><ele>2640.5</ele><time>2026-03-08T12:18:12.000Z</time></trkpt>
<trkpt lat="42.102118" lon="23.57235"><ele>2640.5</ele><time>2026-03-08T12:18:13.000Z</time></trkpt>
<trkpt lat="42.102118" lon="23.572351"><ele>2640.5</ele><time>2026-03-08T12:18:14.000Z</time></trkpt>
<trkpt lat="42.102118" lon="23.572351"><ele>2640.5</ele><time>2026-03-08T12:18:15.000Z</time></trkpt>
<trkpt lat="42.102119" lon="23.572351"><ele>2640.5</ele><time>2026-03-08T12:18:16.000Z</time></trkpt>
<trkpt lat="42.102119" lon="23.572351"><ele>2640.3</ele><time>2026-03-08T12:18:17.000Z</time></trkpt>
<trkpt lat="42.102119" lon="23.572352"><ele>2640.3</ele><time>2026-03-08T12:18:18.000Z</time></trkpt>
<trkpt lat="42.10212" lon="23.572352"><ele>2640.3</ele><time>2026-03-08T12:18:19.000Z</time></trkpt>
<trkpt lat="42.10212" lon="23.572351"><ele>2640.3</ele><time>2026-03-08T12:18:20.000Z</time></trkpt>
<trkpt lat="42.10212" lon="23.57235"><ele>2640.3</ele><time>2026-03-08T12:18:21.000Z</time></trkpt>
<trkpt lat="42.102119" lon="23.572349"><ele>2640.2</ele><time>2026-03-08T12:18:22.000Z</time></trkpt>
<trkpt lat="42.102119" lon="23.572349"><ele>2640.2</ele><time>2026-03-08T12:18:23.000Z</time></trkpt>
<trkpt lat="42.102118" lon="23.572349"><ele>2640.2</ele><time>2026-03-08T12:18:24.000Z</time></trkpt>
<trkpt lat="42.102117" lon="23.57235"><ele>2640.2</ele><time>2026-03-08T12:18:25.000Z</time></trkpt>
<trkpt lat="42.102115" lon="23.572352"><ele>2640.2</ele><time>2026-03-08T12:18:26.000Z</time></trkpt>
<trkpt lat="42.102114" lon="23.572353"><ele>2640.1</ele><time>2026-03-08T12:18:27.000Z</time></trkpt>
<trkpt lat="42.102113" lon="23.572353"><ele>2640.1</ele><time>2026-03-08T12:18:28.000Z</time></trkpt>
<trkpt lat="42.102113" lon="23.572352"><ele>2640.1</ele><time>2026-03-08T12:18:29.000Z</time></trkpt>
<trkpt lat="42.102113" lon="23.572351"><ele>2640.1</ele><time>2026-03-08T12:18:30.000Z</time></trkpt>
<trkpt lat="42.102114" lon="23.572351"><ele>2640.1</ele><time>2026-03-08T12:18:31.000Z</time></trkpt>
<trkpt lat="42.102114" lon="23.57235"><ele>2640.1</ele><time>2026-03-08T12:18:32.000Z</time></trkpt>
<trkpt lat="42.102115" lon="23.57235"><ele>2640.1</ele><time>2026-03-08T12:18:33.000Z</time></trkpt>
<trkpt lat="42.102115" lon="23.57235"><ele>2640.1</ele><time>2026-03-08T12:18:34.000Z</time></trkpt>
<trkpt lat="42.102115" lon="23.57235"><ele>2640.1</ele><time>2026-03-08T12:18:35.000Z</time></trkpt>
<trkpt lat="42.102115" lon="23.57235"><ele>2640.1</ele><time>2026-03-08T12:18:36.000Z</time></trkpt>
<trkpt lat="42.102115" lon="23.57235"><ele>2640</ele><time>2026-03-08T12:18:37.000Z</time></trkpt>
<trkpt lat="42.102116" lon="23.57235"><ele>2640</ele><time>2026-03-08T12:18:38.000Z</time></trkpt>
<trkpt lat="42.102116" lon="23.57235"><ele>2640</ele><time>2026-03-08T12:18:39.000Z</time></trkpt>
<trkpt lat="42.102117" lon="23.57235"><ele>2640</ele><time>2026-03-08T12:18:40.000Z</time></trkpt>
<trkpt lat="42.102117" lon="23.57235"><ele>2640</ele><time>2026-03-08T12:18:41.000Z</time></trkpt>
<trkpt lat="42.102117" lon="23.57235"><ele>2640</ele><time>2026-03-08T12:18:42.000Z</time></trkpt>
<trkpt lat="42.102117" lon="23.57235"><ele>2640</ele><time>2026-03-08T12:18:43.000Z</time></trkpt>
<trkpt lat="42.102117" lon="23.57235"><ele>2640</ele><time>2026-03-08T12:18:44.000Z</time></trkpt>
<trkpt lat="42.102117" lon="23.57235"><ele>2640</ele><time>2026-03-08T12:18:45.000Z</time></trkpt>
<trkpt lat="42.102117" lon="23.57235"><ele>2640</ele><time>2026-03-08T12:18:46.000Z</time></trkpt>
<trkpt lat="42.102117" lon="23.57235"><ele>2640.2</ele><time>2026-03-08T12:18:47.000Z</time></trkpt>
<trkpt lat="42.102117" lon="23.57235"><ele>2640.2</ele><time>2026-03-08T12:18:48.000Z</time></trkpt>
<trkpt lat="42.102117" lon="23.57235"><ele>2640.2</ele><time>2026-03-08T12:18:49.000Z</time></trkpt>
<trkpt lat="42.102117" lon="23.57235"><ele>2640.2</ele><time>2026-03-08T12:18:50.000Z</time></trkpt>
<trkpt lat="42.102117" lon="23.57235"><ele>2640.2</ele><time>2026-03-08T12:18:51.000Z</time></trkpt>
<trkpt lat="42.102117" lon="23.57235"><ele>2640.5</ele><time>2026-03-08T12:18:52.000Z</time></trkpt>
<trkpt lat="42.102117" lon="23.57235"><ele>2640.5</ele><time>2026-03-08T12:18:53.000Z</time></trkpt>
<trkpt lat="42.102116" lon="23.572349"><ele>2640.5</ele><time>2026-03-08T12:18:54.000Z</time></trkpt>
<trkpt lat="42.102116" lon="23.572349"><ele>2640.5</ele><time>2026-03-08T12:18:55.000Z</time></trkpt>
<trkpt lat="42.102116" lon="23.572348"><ele>2640.5</ele><time>2026-03-08T12:18:56.000Z</time></trkpt>
<trkpt lat="42.102115" lon="23.572347"><ele>2640.7</ele><time>2026-03-08T12:18:57.000Z</time></trkpt>
<trkpt lat="42.102116" lon="23.572346"><ele>2640.7</ele><time>2026-03-08T12:18:58.000Z</time></trkpt>
<trkpt lat="42.102116" lon="23.572345"><ele>2640.7</ele><time>2026-03-08T12:18:59.000Z</time></trkpt>
<trkpt lat="42.102116" lon="23.572345"><ele>2640.7</ele><time>2026-03-08T12:19:00.000Z</time></trkpt>
<trkpt lat="42.102116" lon="23.572344"><ele>2640.7</ele><time>2026-03-08T12:19:01.000Z</time></trkpt>
<trkpt lat="42.102117" lon="23.572343"><ele>2640.9</ele><time>2026-03-08T12:19:02.000Z</time></trkpt>
<trkpt lat="42.102118" lon="23.572343"><ele>2640.9</ele><time>2026-03-08T12:19:03.000Z</time></trkpt>
<trkpt lat="42.102118" lon="23.572342"><ele>2640.9</ele><time>2026-03-08T12:19:04.000Z</time></trkpt>
<trkpt lat="42.10212" lon="23.572342"><ele>2640.9</ele><time>2026-03-08T12:19:05.000Z</time></trkpt>
<trkpt lat="42.102121" lon="23.572343"><ele>2640.9</ele><time>2026-03-08T12:19:06.000Z</time></trkpt>
<trkpt lat="42.102122" lon="23.572343"><ele>2640.9</ele><time>2026-03-08T12:19:07.000Z</time></trkpt>
<trkpt lat="42.102123" lon="23.572344"><ele>2640.9</ele><time>2026-03-08T12:19:08.000Z</time></trkpt>
<trkpt lat="42.102124" lon="23.572345"><ele>2640.9</ele><time>2026-03-08T12:19:09.000Z</time></trkpt>
<trkpt lat="42.102124" lon="23.572346"><ele>2640.9</ele><time>2026-03-08T12:19:10.000Z</time></trkpt>
<trkpt lat="42.102124" lon="23.572346"><ele>2640.9</ele><time>2026-03-08T12:19:11.000Z</time></trkpt>
<trkpt lat="42.102124" lon="23.572346"><ele>2640.9</ele><time>2026-03-08T12:19:12.000Z</time></trkpt>
<trkpt lat="42.102124" lon="23.572346"><ele>2640.9</ele><time>2026-03-08T12:19:13.000Z</time></trkpt>
<trkpt lat="42.102124" lon="23.572346"><ele>2640.9</ele><time>2026-03-08T12:19:14.000Z</time></trkpt>
<trkpt lat="42.102124" lon="23.572346"><ele>2640.9</ele><time>2026-03-08T12:19:15.000Z</time></trkpt>
<trkpt lat="42.102124" lon="23.572346"><ele>2640.9</ele><time>2026-03-08T12:19:16.000Z</time></trkpt>
<trkpt lat="42.102124" lon="23.572346"><ele>2640.8</ele><time>2026-03-08T12:19:17.000Z</time></trkpt>
<trkpt lat="42.102124" lon="23.572346"><ele>2640.8</ele><time>2026-03-08T12:19:18.000Z</time></trkpt>
<trkpt lat="42.102124" lon="23.572346"><ele>2640.8</ele><time>2026-03-08T12:19:19.000Z</time></trkpt>
<trkpt lat="42.102124" lon="23.572346"><ele>2640.8</ele><time>2026-03-08T12:19:20.000Z</time></trkpt>
<trkpt lat="42.102124" lon="23.572346"><ele>2640.8</ele><time>2026-03-08T12:19:21.000Z</time></trkpt>
<trkpt lat="42.102124" lon="23.572346"><ele>2640.7</ele><time>2026-03-08T12:19:22.000Z</time></trkpt>
<trkpt lat="42.102124" lon="23.572346"><ele>2640.7</ele><time>2026-03-08T12:19:23.000Z</time></trkpt>
<trkpt lat="42.102124" lon="23.572346"><ele>2640.7</ele><time>2026-03-08T12:19:24.000Z</time></trkpt>
<trkpt lat="42.102124" lon="23.572346"><ele>2640.7</ele><time>2026-03-08T12:19:25.000Z</time></trkpt>
<trkpt lat="42.102124" lon="23.572346"><ele>2640.7</ele><time>2026-03-08T12:19:26.000Z</time></trkpt>
<trkpt lat="42.102124" lon="23.572346"><ele>2640.6</ele><time>2026-03-08T12:19:27.000Z</time></trkpt>
<trkpt lat="42.102123" lon="23.572344"><ele>2640.6</ele><time>2026-03-08T12:19:28.000Z</time></trkpt>
<trkpt lat="42.102121" lon="23.572342"><ele>2640.6</ele><time>2026-03-08T12:19:29.000Z</time></trkpt>
<trkpt lat="42.102119" lon="23.572338"><ele>2640.6</ele><time>2026-03-08T12:19:30.000Z</time></trkpt>
<trkpt lat="42.102118" lon="23.572335"><ele>2640.6</ele><time>2026-03-08T12:19:31.000Z</time></trkpt>
<trkpt lat="42.102115" lon="23.572331"><ele>2640.7</ele><time>2026-03-08T12:19:32.000Z</time></trkpt>
<trkpt lat="42.102112" lon="23.572327"><ele>2640.7</ele><time>2026-03-08T12:19:33.000Z</time></trkpt>
<trkpt lat="42.102109" lon="23.572322"><ele>2640.7</ele><time>2026-03-08T12:19:34.000Z</time></trkpt>
<trkpt lat="42.102107" lon="23.572316"><ele>2640.7</ele><time>2026-03-08T12:19:35.000Z</time></trkpt>
<trkpt lat="42.102104" lon="23.572309"><ele>2640.7</ele><time>2026-03-08T12:19:36.000Z</time></trkpt>
<trkpt lat="42.102103" lon="23.572302"><ele>2640.8</ele><time>2026-03-08T12:19:37.000Z</time></trkpt>
<trkpt lat="42.102102" lon="23.572296"><ele>2640.8</ele><time>2026-03-08T12:19:38.000Z</time></trkpt>
<trkpt lat="42.102102" lon="23.572291"><ele>2640.8</ele><time>2026-03-08T12:19:39.000Z</time></trkpt>
<trkpt lat="42.102103" lon="23.572288"><ele>2640.8</ele><time>2026-03-08T12:19:40.000Z</time></trkpt>
<trkpt lat="42.102103" lon="23.572286"><ele>2640.8</ele><time>2026-03-08T12:19:41.000Z</time></trkpt>
<trkpt lat="42.102104" lon="23.572287"><ele>2640.8</ele><time>2026-03-08T12:19:42.000Z</time></trkpt>
<trkpt lat="42.102105" lon="23.572288"><ele>2640.8</ele><time>2026-03-08T12:19:43.000Z</time></trkpt>
<trkpt lat="42.102104" lon="23.57229"><ele>2640.8</ele><time>2026-03-08T12:19:44.000Z</time></trkpt>
<trkpt lat="42.102104" lon="23.572293"><ele>2640.8</ele><time>2026-03-08T12:19:45.000Z</time></trkpt>
<trkpt lat="42.102103" lon="23.572295"><ele>2640.8</ele><time>2026-03-08T12:19:46.000Z</time></trkpt>
<trkpt lat="42.102103" lon="23.572297"><ele>2640.5</ele><time>2026-03-08T12:19:47.000Z</time></trkpt>
<trkpt lat="42.102102" lon="23.572298"><ele>2640.5</ele><time>2026-03-08T12:19:48.000Z</time></trkpt>
<trkpt lat="42.102102" lon="23.572298"><ele>2640.5</ele><time>2026-03-08T12:19:49.000Z</time></trkpt>
<trkpt lat="42.102102" lon="23.572298"><ele>2640.5</ele><time>2026-03-08T12:19:50.000Z</time></trkpt>
<trkpt lat="42.102102" lon="23.572298"><ele>2640.5</ele><time>2026-03-08T12:19:51.000Z</time></trkpt>
<trkpt lat="42.102102" lon="23.572298"><ele>2640.3</ele><time>2026-03-08T12:19:52.000Z</time></trkpt>
<trkpt lat="42.102102" lon="23.572298"><ele>2640.3</ele><time>2026-03-08T12:19:53.000Z</time></trkpt>
<trkpt lat="42.102102" lon="23.572298"><ele>2640.3</ele><time>2026-03-08T12:19:54.000Z</time></trkpt>
<trkpt lat="42.102102" lon="23.572298"><ele>2640.3</ele><time>2026-03-08T12:19:55.000Z</time></trkpt>
<trkpt lat="42.102102" lon="23.572298"><ele>2640.3</ele><time>2026-03-08T12:19:56.000Z</time></trkpt>
<trkpt lat="42.102102" lon="23.572299"><ele>2640.2</ele><time>2026-03-08T12:19:57.000Z</time></trkpt>
<trkpt lat="42.102103" lon="23.5723"><ele>2640.2</ele><time>2026-03-08T12:19:58.000Z</time></trkpt>
<trkpt lat="42.102103" lon="23.572303"><ele>2640.2</ele><time>2026-03-08T12:19:59.000Z</time></trkpt>
<trkpt lat="42.102105" lon="23.572307"><ele>2640.2</ele><time>2026-03-08T12:20:00.000Z</time></trkpt>
<trkpt lat="42.102106" lon="23.572311"><ele>2640.2</ele><time>2026-03-08T12:20:01.000Z</time></trkpt>
<trkpt lat="42.102108" lon="23.572317"><ele>2640.1</ele><time>2026-03-08T12:20:02.000Z</time></trkpt>
<trkpt lat="42.102109" lon="23.572324"><ele>2640.1</ele><time>2026-03-08T12:20:03.000Z</time></trkpt>
<trkpt lat="42.102109" lon="23.57233"><ele>2640.1</ele><time>2026-03-08T12:20:04.000Z</time></trkpt>
<trkpt lat="42.10211" lon="23.572333"><ele>2640.1</ele><time>2026-03-08T12:20:05.000Z</time></trkpt>
<trkpt lat="42.102111" lon="23.572336"><ele>2640.1</ele><time>2026-03-08T12:20:06.000Z</time></trkpt>
<trkpt lat="42.102111" lon="23.572336"><ele>2640.1</ele><time>2026-03-08T12:20:07.000Z</time></trkpt>
<trkpt lat="42.102111" lon="23.572334"><ele>2640.1</ele><time>2026-03-08T12:20:08.000Z</time></trkpt>
<trkpt lat="42.102111" lon="23.572333"><ele>2640.1</ele><time>2026-03-08T12:20:09.000Z</time></trkpt>
<trkpt lat="42.102111" lon="23.572331"><ele>2640.1</ele><time>2026-03-08T12:20:10.000Z</time></trkpt>
<trkpt lat="42.102111" lon="23.57233"><ele>2640.1</ele><time>2026-03-08T12:20:11.000Z</time></trkpt>
<trkpt lat="42.102111" lon="23.57233"><ele>2640.1</ele><time>2026-03-08T12:20:12.000Z</time></trkpt>
<trkpt lat="42.102111" lon="23.57233"><ele>2640.1</ele><time>2026-03-08T12:20:13.000Z</time></trkpt>
<trkpt lat="42.10211" lon="23.572329"><ele>2640.1</ele><time>2026-03-08T12:20:14.000Z</time></trkpt>
<trkpt lat="42.10211" lon="23.572329"><ele>2640.1</ele><time>2026-03-08T12:20:15.000Z</time></trkpt>
<trkpt lat="42.10211" lon="23.572329"><ele>2640.1</ele><time>2026-03-08T12:20:16.000Z</time></trkpt>
<trkpt lat="42.10211" lon="23.572329"><ele>2640.3</ele><time>2026-03-08T12:20:17.000Z</time></trkpt>
<trkpt lat="42.10211" lon="23.572329"><ele>2640.3</ele><time>2026-03-08T12:20:18.000Z</time></trkpt>
<trkpt lat="42.102111" lon="23.572329"><ele>2640.3</ele><time>2026-03-08T12:20:19.000Z</time></trkpt>
<trkpt lat="42.102111" lon="23.572329"><ele>2640.3</ele><time>2026-03-08T12:20:20.000Z</time></trkpt>
<trkpt lat="42.102111" lon="23.572329"><ele>2640.3</ele><time>2026-03-08T12:20:21.000Z</time></trkpt>
<trkpt lat="42.102111" lon="23.572329"><ele>2640.5</ele><time>2026-03-08T12:20:22.000Z</time></trkpt>
<trkpt lat="42.102111" lon="23.572329"><ele>2640.5</ele><time>2026-03-08T12:20:23.000Z</time></trkpt>
<trkpt lat="42.102111" lon="23.572329"><ele>2640.5</ele><time>2026-03-08T12:20:24.000Z</time></trkpt>
<trkpt lat="42.102111" lon="23.572329"><ele>2640.5</ele><time>2026-03-08T12:20:25.000Z</time></trkpt>
<trkpt lat="42.102111" lon="23.572329"><ele>2640.5</ele><time>2026-03-08T12:20:26.000Z</time></trkpt>
<trkpt lat="42.102111" lon="23.572329"><ele>2640.5</ele><time>2026-03-08T12:20:27.000Z</time></trkpt>
<trkpt lat="42.102111" lon="23.57233"><ele>2640.5</ele><time>2026-03-08T12:20:28.000Z</time></trkpt>
<trkpt lat="42.102111" lon="23.57233"><ele>2640.5</ele><time>2026-03-08T12:20:29.000Z</time></trkpt>
<trkpt lat="42.102111" lon="23.57233"><ele>2640.5</ele><time>2026-03-08T12:20:30.000Z</time></trkpt>
<trkpt lat="42.102111" lon="23.57233"><ele>2640.5</ele><time>2026-03-08T12:20:31.000Z</time></trkpt>
<trkpt lat="42.102111" lon="23.57233"><ele>2640.5</ele><time>2026-03-08T12:20:32.000Z</time></trkpt>
<trkpt lat="42.102112" lon="23.572329"><ele>2640.5</ele><time>2026-03-08T12:20:33.000Z</time></trkpt>
<trkpt lat="42.102113" lon="23.572328"><ele>2640.5</ele><time>2026-03-08T12:20:34.000Z</time></trkpt>
<trkpt lat="42.102113" lon="23.572327"><ele>2640.5</ele><time>2026-03-08T12:20:35.000Z</time></trkpt>
<trkpt lat="42.102114" lon="23.572326"><ele>2640.5</ele><time>2026-03-08T12:20:36.000Z</time></trkpt>
<trkpt lat="42.102115" lon="23.572324"><ele>2640.4</ele><time>2026-03-08T12:20:37.000Z</time></trkpt>
<trkpt lat="42.102116" lon="23.572323"><ele>2640.4</ele><time>2026-03-08T12:20:38.000Z</time></trkpt>
<trkpt lat="42.102116" lon="23.572322"><ele>2640.4</ele><time>2026-03-08T12:20:39.000Z</time></trkpt>
<trkpt lat="42.102116" lon="23.57232"><ele>2640.4</ele><time>2026-03-08T12:20:40.000Z</time></trkpt>
<trkpt lat="42.102115" lon="23.572318"><ele>2640.4</ele><time>2026-03-08T12:20:41.000Z</time></trkpt>
<trkpt lat="42.102115" lon="23.572317"><ele>2640.3</ele><time>2026-03-08T12:20:42.000Z</time></trkpt>
<trkpt lat="42.102115" lon="23.572316"><ele>2640.3</ele><time>2026-03-08T12:20:43.000Z</time></trkpt>
<trkpt lat="42.102114" lon="23.572316"><ele>2640.3</ele><time>2026-03-08T12:20:44.000Z</time></trkpt>
<trkpt lat="42.102114" lon="23.572318"><ele>2640.3</ele><time>2026-03-08T12:20:45.000Z</time></trkpt>
<trkpt lat="42.102113" lon="23.572319"><ele>2640.3</ele><time>2026-03-08T12:20:46.000Z</time></trkpt>
<trkpt lat="42.102113" lon="23.57232"><ele>2640.3</ele><time>2026-03-08T12:20:47.000Z</time></trkpt>
<trkpt lat="42.102113" lon="23.572321"><ele>2640.3</ele><time>2026-03-08T12:20:48.000Z</time></trkpt>
<trkpt lat="42.102112" lon="23.572322"><ele>2640.3</ele><time>2026-03-08T12:20:49.000Z</time></trkpt>
<trkpt lat="42.102112" lon="23.572322"><ele>2640.3</ele><time>2026-03-08T12:20:50.000Z</time></trkpt>
<trkpt lat="42.102111" lon="23.572323"><ele>2640.3</ele><time>2026-03-08T12:20:51.000Z</time></trkpt>
<trkpt lat="42.102111" lon="23.572323"><ele>2640.7</ele><time>2026-03-08T12:20:52.000Z</time></trkpt>
<trkpt lat="42.102111" lon="23.572324"><ele>2640.7</ele><time>2026-03-08T12:20:53.000Z</time></trkpt>
<trkpt lat="42.10211" lon="23.572325"><ele>2640.7</ele><time>2026-03-08T12:20:54.000Z</time></trkpt>
<trkpt lat="42.10211" lon="23.572325"><ele>2640.7</ele><time>2026-03-08T12:20:55.000Z</time></trkpt>
<trkpt lat="42.10211" lon="23.572325"><ele>2640.7</ele><time>2026-03-08T12:20:56.000Z</time></trkpt>
<trkpt lat="42.102109" lon="23.572325"><ele>2641</ele><time>2026-03-08T12:20:57.000Z</time></trkpt>
<trkpt lat="42.102109" lon="23.572325"><ele>2641</ele><time>2026-03-08T12:20:58.000Z</time></trkpt>
<trkpt lat="42.102108" lon="23.572325"><ele>2641</ele><time>2026-03-08T12:20:59.000Z</time></trkpt>
<trkpt lat="42.102108" lon="23.572325"><ele>2641</ele><time>2026-03-08T12:21:00.000Z</time></trkpt>
<trkpt lat="42.102108" lon="23.572326"><ele>2641</ele><time>2026-03-08T12:21:01.000Z</time></trkpt>
<trkpt lat="42.102107" lon="23.572326"><ele>2641.5</ele><time>2026-03-08T12:21:02.000Z</time></trkpt>
<trkpt lat="42.102107" lon="23.572326"><ele>2641.5</ele><time>2026-03-08T12:21:03.000Z</time></trkpt>
<trkpt lat="42.102107" lon="23.572326"><ele>2641.5</ele><time>2026-03-08T12:21:04.000Z</time></trkpt>
<trkpt lat="42.102107" lon="23.572325"><ele>2641.5</ele><time>2026-03-08T12:21:05.000Z</time></trkpt>
<trkpt lat="42.102107" lon="23.572325"><ele>2641.5</ele><time>2026-03-08T12:21:06.000Z</time></trkpt>
<trkpt lat="42.102107" lon="23.572325"><ele>2641.6</ele><time>2026-03-08T12:21:07.000Z</time></trkpt>
<trkpt lat="42.102107" lon="23.572325"><ele>2641.6</ele><time>2026-03-08T12:21:08.000Z</time></trkpt>
<trkpt lat="42.102107" lon="23.572325"><ele>2641.6</ele><time>2026-03-08T12:21:09.000Z</time></trkpt>
<trkpt lat="42.102107" lon="23.572326"><ele>2641.6</ele><time>2026-03-08T12:21:10.000Z</time></trkpt>
<trkpt lat="42.102107" lon="23.572326"><ele>2641.6</ele><time>2026-03-08T12:21:11.000Z</time></trkpt>
<trkpt lat="42.102107" lon="23.572329"><ele>2641.6</ele><time>2026-03-08T12:21:12.000Z</time></trkpt>
<trkpt lat="42.102105" lon="23.572332"><ele>2641.6</ele><time>2026-03-08T12:21:13.000Z</time></trkpt>
<trkpt lat="42.102103" lon="23.572335"><ele>2641.6</ele><time>2026-03-08T12:21:14.000Z</time></trkpt>
<trkpt lat="42.1021" lon="23.572338"><ele>2641.6</ele><time>2026-03-08T12:21:15.000Z</time></trkpt>
<trkpt lat="42.102099" lon="23.57234"><ele>2641.6</ele><time>2026-03-08T12:21:16.000Z</time></trkpt>
<trkpt lat="42.102098" lon="23.572339"><ele>2641.6</ele><time>2026-03-08T12:21:17.000Z</time></trkpt>
<trkpt lat="42.102098" lon="23.572339"><ele>2641.6</ele><time>2026-03-08T12:21:18.000Z</time></trkpt>
<trkpt lat="42.102099" lon="23.572338"><ele>2641.6</ele><time>2026-03-08T12:21:19.000Z</time></trkpt>
<trkpt lat="42.1021" lon="23.572339"><ele>2641.6</ele><time>2026-03-08T12:21:20.000Z</time></trkpt>
<trkpt lat="42.1021" lon="23.572339"><ele>2641.6</ele><time>2026-03-08T12:21:21.000Z</time></trkpt>
<trkpt lat="42.102099" lon="23.572339"><ele>2641.5</ele><time>2026-03-08T12:21:22.000Z</time></trkpt>
<trkpt lat="42.102099" lon="23.572338"><ele>2641.5</ele><time>2026-03-08T12:21:23.000Z</time></trkpt>
<trkpt lat="42.102099" lon="23.572337"><ele>2641.5</ele><time>2026-03-08T12:21:24.000Z</time></trkpt>
<trkpt lat="42.1021" lon="23.572335"><ele>2641.5</ele><time>2026-03-08T12:21:25.000Z</time></trkpt>
<trkpt lat="42.1021" lon="23.57233"><ele>2641.5</ele><time>2026-03-08T12:21:26.000Z</time></trkpt>
<trkpt lat="42.1021" lon="23.572326"><ele>2641.6</ele><time>2026-03-08T12:21:27.000Z</time></trkpt>
<trkpt lat="42.102099" lon="23.572321"><ele>2641.6</ele><time>2026-03-08T12:21:28.000Z</time></trkpt>
<trkpt lat="42.102098" lon="23.572317"><ele>2641.6</ele><time>2026-03-08T12:21:29.000Z</time></trkpt>
<trkpt lat="42.102097" lon="23.572313"><ele>2641.6</ele><time>2026-03-08T12:21:30.000Z</time></trkpt>
<trkpt lat="42.102096" lon="23.572313"><ele>2641.6</ele><time>2026-03-08T12:21:31.000Z</time></trkpt>
<trkpt lat="42.102096" lon="23.572313"><ele>2641.7</ele><time>2026-03-08T12:21:32.000Z</time></trkpt>
<trkpt lat="42.102096" lon="23.572313"><ele>2641.7</ele><time>2026-03-08T12:21:33.000Z</time></trkpt>
<trkpt lat="42.102096" lon="23.572314"><ele>2641.7</ele><time>2026-03-08T12:21:34.000Z</time></trkpt>
<trkpt lat="42.102095" lon="23.572315"><ele>2641.7</ele><time>2026-03-08T12:21:35.000Z</time></trkpt>
<trkpt lat="42.102095" lon="23.572315"><ele>2641.7</ele><time>2026-03-08T12:21:36.000Z</time></trkpt>
<trkpt lat="42.102094" lon="23.572315"><ele>2641.7</ele><time>2026-03-08T12:21:37.000Z</time></trkpt>
<trkpt lat="42.102094" lon="23.572315"><ele>2641.7</ele><time>2026-03-08T12:21:38.000Z</time></trkpt>
<trkpt lat="42.102094" lon="23.572314"><ele>2641.7</ele><time>2026-03-08T12:21:39.000Z</time></trkpt>
<trkpt lat="42.102094" lon="23.572314"><ele>2641.7</ele><time>2026-03-08T12:21:40.000Z</time></trkpt>
<trkpt lat="42.102094" lon="23.572314"><ele>2641.7</ele><time>2026-03-08T12:21:41.000Z</time></trkpt>
<trkpt lat="42.102094" lon="23.572314"><ele>2641.5</ele><time>2026-03-08T12:21:42.000Z</time></trkpt>
<trkpt lat="42.102094" lon="23.572314"><ele>2641.5</ele><time>2026-03-08T12:21:43.000Z</time></trkpt>
<trkpt lat="42.102094" lon="23.572314"><ele>2641.5</ele><time>2026-03-08T12:21:44.000Z</time></trkpt>
<trkpt lat="42.102094" lon="23.572314"><ele>2641.5</ele><time>2026-03-08T12:21:45.000Z</time></trkpt>
<trkpt lat="42.102094" lon="23.572314"><ele>2641.5</ele><time>2026-03-08T12:21:46.000Z</time></trkpt>
<trkpt lat="42.102094" lon="23.572314"><ele>2641.2</ele><time>2026-03-08T12:21:47.000Z</time></trkpt>
<trkpt lat="42.102094" lon="23.572315"><ele>2641.2</ele><time>2026-03-08T12:21:48.000Z</time></trkpt>
<trkpt lat="42.102094" lon="23.572315"><ele>2641.2</ele><time>2026-03-08T12:21:49.000Z</time></trkpt>
<trkpt lat="42.102094" lon="23.572316"><ele>2641.2</ele><time>2026-03-08T12:21:50.000Z</time></trkpt>
<trkpt lat="42.102095" lon="23.572317"><ele>2641.2</ele><time>2026-03-08T12:21:51.000Z</time></trkpt>
<trkpt lat="42.102095" lon="23.572318"><ele>2641.1</ele><time>2026-03-08T12:21:52.000Z</time></trkpt>
<trkpt lat="42.102095" lon="23.572318"><ele>2641.1</ele><time>2026-03-08T12:21:53.000Z</time></trkpt>
<trkpt lat="42.102095" lon="23.572318"><ele>2641.1</ele><time>2026-03-08T12:21:54.000Z</time></trkpt>
<trkpt lat="42.102095" lon="23.572318"><ele>2641.1</ele><time>2026-03-08T12:21:55.000Z</time></trkpt>
<trkpt lat="42.102095" lon="23.572318"><ele>2641.1</ele><time>2026-03-08T12:21:56.000Z</time></trkpt>
<trkpt lat="42.102095" lon="23.572318"><ele>2641.1</ele><time>2026-03-08T12:21:57.000Z</time></trkpt>
<trkpt lat="42.102095" lon="23.572318"><ele>2641.1</ele><time>2026-03-08T12:21:58.000Z</time></trkpt>
<trkpt lat="42.102095" lon="23.572318"><ele>2641.1</ele><time>2026-03-08T12:21:59.000Z</time></trkpt>
<trkpt lat="42.102095" lon="23.572318"><ele>2641.1</ele><time>2026-03-08T12:22:00.000Z</time></trkpt>
<trkpt lat="42.102095" lon="23.572318"><ele>2641.1</ele><time>2026-03-08T12:22:01.000Z</time></trkpt>
<trkpt lat="42.102095" lon="23.572318"><ele>2641.1</ele><time>2026-03-08T12:22:02.000Z</time></trkpt>
<trkpt lat="42.102095" lon="23.572318"><ele>2641.1</ele><time>2026-03-08T12:22:03.000Z</time></trkpt>
<trkpt lat="42.102095" lon="23.572318"><ele>2641.1</ele><time>2026-03-08T12:22:04.000Z</time></trkpt>
<trkpt lat="42.102095" lon="23.572317"><ele>2641.1</ele><time>2026-03-08T12:22:05.000Z</time></trkpt>
<trkpt lat="42.102095" lon="23.572317"><ele>2641.1</ele><time>2026-03-08T12:22:06.000Z</time></trkpt>
<trkpt lat="42.102095" lon="23.572317"><ele>2641.1</ele><time>2026-03-08T12:22:07.000Z</time></trkpt>
<trkpt lat="42.102095" lon="23.572317"><ele>2641.1</ele><time>2026-03-08T12:22:08.000Z</time></trkpt>
<trkpt lat="42.102095" lon="23.572317"><ele>2641.1</ele><time>2026-03-08T12:22:09.000Z</time></trkpt>
<trkpt lat="42.102095" lon="23.572317"><ele>2641.1</ele><time>2026-03-08T12:22:10.000Z</time></trkpt>
<trkpt lat="42.102095" lon="23.572317"><ele>2641.1</ele><time>2026-03-08T12:22:11.000Z</time></trkpt>
<trkpt lat="42.102095" lon="23.572317"><ele>2641</ele><time>2026-03-08T12:22:12.000Z</time></trkpt>
<trkpt lat="42.102095" lon="23.572317"><ele>2641</ele><time>2026-03-08T12:22:13.000Z</time></trkpt>
<trkpt lat="42.102095" lon="23.572317"><ele>2641</ele><time>2026-03-08T12:22:14.000Z</time></trkpt>
<trkpt lat="42.102095" lon="23.572317"><ele>2641</ele><time>2026-03-08T12:22:15.000Z</time></trkpt>
<trkpt lat="42.102095" lon="23.572317"><ele>2641</ele><time>2026-03-08T12:22:16.000Z</time></trkpt>
<trkpt lat="42.102095" lon="23.572317"><ele>2640.9</ele><time>2026-03-08T12:22:17.000Z</time></trkpt>
<trkpt lat="42.102094" lon="23.572317"><ele>2640.9</ele><time>2026-03-08T12:22:18.000Z</time></trkpt>
<trkpt lat="42.102094" lon="23.572317"><ele>2640.9</ele><time>2026-03-08T12:22:19.000Z</time></trkpt>
<trkpt lat="42.102094" lon="23.572317"><ele>2640.9</ele><time>2026-03-08T12:22:20.000Z</time></trkpt>
<trkpt lat="42.102094" lon="23.572317"><ele>2640.9</ele><time>2026-03-08T12:22:21.000Z</time></trkpt>
<trkpt lat="42.102094" lon="23.572317"><ele>2640.8</ele><time>2026-03-08T12:22:22.000Z</time></trkpt>
<trkpt lat="42.102094" lon="23.572317"><ele>2640.8</ele><time>2026-03-08T12:22:23.000Z</time></trkpt>
<trkpt lat="42.102094" lon="23.572317"><ele>2640.8</ele><time>2026-03-08T12:22:24.000Z</time></trkpt>
<trkpt lat="42.102094" lon="23.572317"><ele>2640.8</ele><time>2026-03-08T12:22:25.000Z</time></trkpt>
<trkpt lat="42.102094" lon="23.572317"><ele>2640.8</ele><time>2026-03-08T12:22:26.000Z</time></trkpt>
<trkpt lat="42.102094" lon="23.572316"><ele>2640.7</ele><time>2026-03-08T12:22:27.000Z</time></trkpt>
<trkpt lat="42.102094" lon="23.572316"><ele>2640.7</ele><time>2026-03-08T12:22:28.000Z</time></trkpt>
<trkpt lat="42.102094" lon="23.572316"><ele>2640.7</ele><time>2026-03-08T12:22:29.000Z</time></trkpt>
<trkpt lat="42.102094" lon="23.572316"><ele>2640.7</ele><time>2026-03-08T12:22:30.000Z</time></trkpt>
<trkpt lat="42.102094" lon="23.572316"><ele>2640.7</ele><time>2026-03-08T12:22:31.000Z</time></trkpt>
<trkpt lat="42.102094" lon="23.572316"><ele>2640.9</ele><time>2026-03-08T12:22:32.000Z</time></trkpt>
<trkpt lat="42.102094" lon="23.572316"><ele>2640.9</ele><time>2026-03-08T12:22:33.000Z</time></trkpt>
<trkpt lat="42.102094" lon="23.572316"><ele>2640.9</ele><time>2026-03-08T12:22:34.000Z</time></trkpt>
<trkpt lat="42.102094" lon="23.572316"><ele>2640.9</ele><time>2026-03-08T12:22:35.000Z</time></trkpt>
<trkpt lat="42.102094" lon="23.572316"><ele>2640.9</ele><time>2026-03-08T12:22:36.000Z</time></trkpt>
<trkpt lat="42.102094" lon="23.572316"><ele>2641.3</ele><time>2026-03-08T12:22:37.000Z</time></trkpt>
<trkpt lat="42.102094" lon="23.572316"><ele>2641.3</ele><time>2026-03-08T12:22:38.000Z</time></trkpt>
<trkpt lat="42.102094" lon="23.572316"><ele>2641.3</ele><time>2026-03-08T12:22:39.000Z</time></trkpt>
<trkpt lat="42.102094" lon="23.572316"><ele>2641.3</ele><time>2026-03-08T12:22:40.000Z</time></trkpt>
<trkpt lat="42.102094" lon="23.572316"><ele>2641.3</ele><time>2026-03-08T12:22:41.000Z</time></trkpt>
<trkpt lat="42.102094" lon="23.572316"><ele>2641.5</ele><time>2026-03-08T12:22:42.000Z</time></trkpt>
<trkpt lat="42.102094" lon="23.572316"><ele>2641.5</ele><time>2026-03-08T12:22:43.000Z</time></trkpt>
<trkpt lat="42.102094" lon="23.572316"><ele>2641.5</ele><time>2026-03-08T12:22:44.000Z</time></trkpt>
<trkpt lat="42.102094" lon="23.572316"><ele>2641.5</ele><time>2026-03-08T12:22:45.000Z</time></trkpt>
<trkpt lat="42.102094" lon="23.572316"><ele>2641.5</ele><time>2026-03-08T12:22:46.000Z</time></trkpt>
<trkpt lat="42.102094" lon="23.572316"><ele>2641.8</ele><time>2026-03-08T12:22:47.000Z</time></trkpt>
<trkpt lat="42.102094" lon="23.572316"><ele>2641.8</ele><time>2026-03-08T12:22:48.000Z</time></trkpt>
<trkpt lat="42.102094" lon="23.572316"><ele>2641.8</ele><time>2026-03-08T12:22:49.000Z</time></trkpt>
<trkpt lat="42.102094" lon="23.572316"><ele>2641.8</ele><time>2026-03-08T12:22:50.000Z</time></trkpt>
<trkpt lat="42.102094" lon="23.572316"><ele>2641.8</ele><time>2026-03-08T12:22:51.000Z</time></trkpt>
<trkpt lat="42.102094" lon="23.572316"><ele>2641.8</ele><time>2026-03-08T12:22:52.000Z</time></trkpt>
<trkpt lat="42.102094" lon="23.572316"><ele>2641.8</ele><time>2026-03-08T12:22:53.000Z</time></trkpt>
<trkpt lat="42.102095" lon="23.572316"><ele>2641.8</ele><time>2026-03-08T12:22:54.000Z</time></trkpt>
<trkpt lat="42.102096" lon="23.572316"><ele>2641.8</ele><time>2026-03-08T12:22:55.000Z</time></trkpt>
<trkpt lat="42.102097" lon="23.572315"><ele>2641.8</ele><time>2026-03-08T12:22:56.000Z</time></trkpt>
<trkpt lat="42.102097" lon="23.572315"><ele>2641.7</ele><time>2026-03-08T12:22:57.000Z</time></trkpt>
<trkpt lat="42.102097" lon="23.572315"><ele>2641.7</ele><time>2026-03-08T12:22:58.000Z</time></trkpt>
<trkpt lat="42.102097" lon="23.572315"><ele>2641.7</ele><time>2026-03-08T12:22:59.000Z</time></trkpt>
<trkpt lat="42.102097" lon="23.572315"><ele>2641.7</ele><time>2026-03-08T12:23:00.000Z</time></trkpt>
<trkpt lat="42.102097" lon="23.572315"><ele>2641.7</ele><time>2026-03-08T12:23:01.000Z</time></trkpt>
<trkpt lat="42.102097" lon="23.572315"><ele>2641.8</ele><time>2026-03-08T12:23:02.000Z</time></trkpt>
<trkpt lat="42.102097" lon="23.572315"><ele>2641.8</ele><time>2026-03-08T12:23:03.000Z</time></trkpt>
<trkpt lat="42.102096" lon="23.572315"><ele>2641.8</ele><time>2026-03-08T12:23:04.000Z</time></trkpt>
<trkpt lat="42.102096" lon="23.572315"><ele>2641.8</ele><time>2026-03-08T12:23:05.000Z</time></trkpt>
<trkpt lat="42.102096" lon="23.572315"><ele>2641.8</ele><time>2026-03-08T12:23:06.000Z</time></trkpt>
<trkpt lat="42.102095" lon="23.572315"><ele>2642.1</ele><time>2026-03-08T12:23:07.000Z</time></trkpt>
<trkpt lat="42.102095" lon="23.572315"><ele>2642.1</ele><time>2026-03-08T12:23:08.000Z</time></trkpt>
<trkpt lat="42.102095" lon="23.572315"><ele>2642.1</ele><time>2026-03-08T12:23:09.000Z</time></trkpt>
<trkpt lat="42.102094" lon="23.572313"><ele>2642.1</ele><time>2026-03-08T12:23:10.000Z</time></trkpt>
<trkpt lat="42.102093" lon="23.57231"><ele>2642.1</ele><time>2026-03-08T12:23:11.000Z</time></trkpt>
<trkpt lat="42.102093" lon="23.572304"><ele>2642.2</ele><time>2026-03-08T12:23:12.000Z</time></trkpt>
<trkpt lat="42.102093" lon="23.572297"><ele>2642.2</ele><time>2026-03-08T12:23:13.000Z</time></trkpt>
<trkpt lat="42.102094" lon="23.572291"><ele>2642.2</ele><time>2026-03-08T12:23:14.000Z</time></trkpt>
<trkpt lat="42.102097" lon="23.572285"><ele>2642.2</ele><time>2026-03-08T12:23:15.000Z</time></trkpt>
<trkpt lat="42.102099" lon="23.572281"><ele>2642.2</ele><time>2026-03-08T12:23:16.000Z</time></trkpt>
<trkpt lat="42.102102" lon="23.57228"><ele>2642.2</ele><time>2026-03-08T12:23:17.000Z</time></trkpt>
<trkpt lat="42.102103" lon="23.57228"><ele>2642.2</ele><time>2026-03-08T12:23:18.000Z</time></trkpt>
<trkpt lat="42.102104" lon="23.572279"><ele>2642.2</ele><time>2026-03-08T12:23:19.000Z</time></trkpt>
<trkpt lat="42.102104" lon="23.572279"><ele>2642.2</ele><time>2026-03-08T12:23:20.000Z</time></trkpt>
<trkpt lat="42.102105" lon="23.572279"><ele>2642.2</ele><time>2026-03-08T12:23:21.000Z</time></trkpt>
<trkpt lat="42.102105" lon="23.572278"><ele>2642</ele><time>2026-03-08T12:23:22.000Z</time></trkpt>
<trkpt lat="42.102106" lon="23.572277"><ele>2642</ele><time>2026-03-08T12:23:23.000Z</time></trkpt>
<trkpt lat="42.102108" lon="23.572277"><ele>2642</ele><time>2026-03-08T12:23:24.000Z</time></trkpt>
<trkpt lat="42.102108" lon="23.572277"><ele>2642</ele><time>2026-03-08T12:23:25.000Z</time></trkpt>
<trkpt lat="42.102109" lon="23.572278"><ele>2642</ele><time>2026-03-08T12:23:26.000Z</time></trkpt>
<trkpt lat="42.10211" lon="23.572278"><ele>2641.8</ele><time>2026-03-08T12:23:27.000Z</time></trkpt>
<trkpt lat="42.10211" lon="23.572281"><ele>2641.8</ele><time>2026-03-08T12:23:28.000Z</time></trkpt>
<trkpt lat="42.10211" lon="23.572283"><ele>2641.8</ele><time>2026-03-08T12:23:29.000Z</time></trkpt>
<trkpt lat="42.102111" lon="23.572285"><ele>2641.8</ele><time>2026-03-08T12:23:30.000Z</time></trkpt>
<trkpt lat="42.10211" lon="23.572286"><ele>2641.8</ele><time>2026-03-08T12:23:31.000Z</time></trkpt>
<trkpt lat="42.10211" lon="23.572288"><ele>2641.6</ele><time>2026-03-08T12:23:32.000Z</time></trkpt>
<trkpt lat="42.102109" lon="23.572287"><ele>2641.6</ele><time>2026-03-08T12:23:33.000Z</time></trkpt>
<trkpt lat="42.102108" lon="23.572287"><ele>2641.6</ele><time>2026-03-08T12:23:34.000Z</time></trkpt>
<trkpt lat="42.102107" lon="23.572286"><ele>2641.6</ele><time>2026-03-08T12:23:35.000Z</time></trkpt>
<trkpt lat="42.102106" lon="23.572286"><ele>2641.6</ele><time>2026-03-08T12:23:36.000Z</time></trkpt>
<trkpt lat="42.102105" lon="23.572286"><ele>2641.6</ele><time>2026-03-08T12:23:37.000Z</time></trkpt>
<trkpt lat="42.102104" lon="23.572286"><ele>2641.6</ele><time>2026-03-08T12:23:38.000Z</time></trkpt>
<trkpt lat="42.102104" lon="23.572286"><ele>2641.6</ele><time>2026-03-08T12:23:39.000Z</time></trkpt>
<trkpt lat="42.102104" lon="23.572285"><ele>2641.6</ele><time>2026-03-08T12:23:40.000Z</time></trkpt>
<trkpt lat="42.102104" lon="23.572285"><ele>2641.6</ele><time>2026-03-08T12:23:41.000Z</time></trkpt>
<trkpt lat="42.102104" lon="23.572285"><ele>2641.6</ele><time>2026-03-08T12:23:42.000Z</time></trkpt>
<trkpt lat="42.102104" lon="23.572284"><ele>2641.6</ele><time>2026-03-08T12:23:43.000Z</time></trkpt>
<trkpt lat="42.102104" lon="23.572284"><ele>2641.6</ele><time>2026-03-08T12:23:44.000Z</time></trkpt>
<trkpt lat="42.102104" lon="23.572284"><ele>2641.6</ele><time>2026-03-08T12:23:45.000Z</time></trkpt>
<trkpt lat="42.102105" lon="23.572285"><ele>2641.6</ele><time>2026-03-08T12:23:46.000Z</time></trkpt>
<trkpt lat="42.102106" lon="23.572285"><ele>2641.7</ele><time>2026-03-08T12:23:47.000Z</time></trkpt>
<trkpt lat="42.102106" lon="23.572286"><ele>2641.7</ele><time>2026-03-08T12:23:48.000Z</time></trkpt>
<trkpt lat="42.102107" lon="23.572286"><ele>2641.7</ele><time>2026-03-08T12:23:49.000Z</time></trkpt>
<trkpt lat="42.102108" lon="23.572287"><ele>2641.7</ele><time>2026-03-08T12:23:50.000Z</time></trkpt>
<trkpt lat="42.102108" lon="23.572287"><ele>2641.7</ele><time>2026-03-08T12:23:51.000Z</time></trkpt>
<trkpt lat="42.102108" lon="23.572286"><ele>2641.6</ele><time>2026-03-08T12:23:52.000Z</time></trkpt>
<trkpt lat="42.102109" lon="23.572287"><ele>2641.6</ele><time>2026-03-08T12:23:53.000Z</time></trkpt>
<trkpt lat="42.102109" lon="23.572287"><ele>2641.6</ele><time>2026-03-08T12:23:54.000Z</time></trkpt>
<trkpt lat="42.102109" lon="23.572287"><ele>2641.6</ele><time>2026-03-08T12:23:55.000Z</time></trkpt>
<trkpt lat="42.10211" lon="23.572287"><ele>2641.6</ele><time>2026-03-08T12:23:56.000Z</time></trkpt>
<trkpt lat="42.10211" lon="23.572287"><ele>2641.5</ele><time>2026-03-08T12:23:57.000Z</time></trkpt>
<trkpt lat="42.10211" lon="23.572287"><ele>2641.5</ele><time>2026-03-08T12:23:58.000Z</time></trkpt>
<trkpt lat="42.10211" lon="23.572287"><ele>2641.5</ele><time>2026-03-08T12:23:59.000Z</time></trkpt>
<trkpt lat="42.10211" lon="23.572287"><ele>2641.5</ele><time>2026-03-08T12:24:00.000Z</time></trkpt>
<trkpt lat="42.10211" lon="23.572287"><ele>2641.5</ele><time>2026-03-08T12:24:01.000Z</time></trkpt>
<trkpt lat="42.10211" lon="23.572287"><ele>2641.3</ele><time>2026-03-08T12:24:02.000Z</time></trkpt>
<trkpt lat="42.10211" lon="23.572287"><ele>2641.3</ele><time>2026-03-08T12:24:03.000Z</time></trkpt>
<trkpt lat="42.10211" lon="23.572287"><ele>2641.3</ele><time>2026-03-08T12:24:04.000Z</time></trkpt>
<trkpt lat="42.10211" lon="23.572288"><ele>2641.3</ele><time>2026-03-08T12:24:05.000Z</time></trkpt>
<trkpt lat="42.10211" lon="23.572288"><ele>2641.3</ele><time>2026-03-08T12:24:06.000Z</time></trkpt>
<trkpt lat="42.10211" lon="23.572288"><ele>2641.1</ele><time>2026-03-08T12:24:07.000Z</time></trkpt>
<trkpt lat="42.10211" lon="23.572289"><ele>2641.1</ele><time>2026-03-08T12:24:08.000Z</time></trkpt>
<trkpt lat="42.10211" lon="23.572289"><ele>2641.1</ele><time>2026-03-08T12:24:09.000Z</time></trkpt>
<trkpt lat="42.10211" lon="23.572289"><ele>2641.1</ele><time>2026-03-08T12:24:10.000Z</time></trkpt>
<trkpt lat="42.10211" lon="23.572289"><ele>2641.1</ele><time>2026-03-08T12:24:11.000Z</time></trkpt>
<trkpt lat="42.10211" lon="23.572289"><ele>2641.1</ele><time>2026-03-08T12:24:12.000Z</time></trkpt>
<trkpt lat="42.10211" lon="23.572289"><ele>2641.1</ele><time>2026-03-08T12:24:13.000Z</time></trkpt>
<trkpt lat="42.10211" lon="23.572289"><ele>2641.1</ele><time>2026-03-08T12:24:14.000Z</time></trkpt>
<trkpt lat="42.10211" lon="23.572289"><ele>2641.1</ele><time>2026-03-08T12:24:15.000Z</time></trkpt>
<trkpt lat="42.102111" lon="23.57229"><ele>2641.1</ele><time>2026-03-08T12:24:16.000Z</time></trkpt>
<trkpt lat="42.10211" lon="23.572291"><ele>2641.1</ele><time>2026-03-08T12:24:17.000Z</time></trkpt>
<trkpt lat="42.10211" lon="23.572292"><ele>2641.1</ele><time>2026-03-08T12:24:18.000Z</time></trkpt>
<trkpt lat="42.10211" lon="23.572293"><ele>2641.1</ele><time>2026-03-08T12:24:19.000Z</time></trkpt>
<trkpt lat="42.102109" lon="23.572294"><ele>2641.1</ele><time>2026-03-08T12:24:20.000Z</time></trkpt>
<trkpt lat="42.102109" lon="23.572295"><ele>2641.1</ele><time>2026-03-08T12:24:21.000Z</time></trkpt>
<trkpt lat="42.102108" lon="23.572295"><ele>2641</ele><time>2026-03-08T12:24:22.000Z</time></trkpt>
<trkpt lat="42.102108" lon="23.572296"><ele>2641</ele><time>2026-03-08T12:24:23.000Z</time></trkpt>
<trkpt lat="42.102108" lon="23.572296"><ele>2641</ele><time>2026-03-08T12:24:24.000Z</time></trkpt>
<trkpt lat="42.102108" lon="23.572296"><ele>2641</ele><time>2026-03-08T12:24:25.000Z</time></trkpt>
<trkpt lat="42.102108" lon="23.572296"><ele>2641</ele><time>2026-03-08T12:24:26.000Z</time></trkpt>
<trkpt lat="42.102108" lon="23.572296"><ele>2641.1</ele><time>2026-03-08T12:24:27.000Z</time></trkpt>
<trkpt lat="42.102108" lon="23.572296"><ele>2641.1</ele><time>2026-03-08T12:24:28.000Z</time></trkpt>
<trkpt lat="42.102109" lon="23.572296"><ele>2641.1</ele><time>2026-03-08T12:24:29.000Z</time></trkpt>
<trkpt lat="42.102109" lon="23.572296"><ele>2641.1</ele><time>2026-03-08T12:24:30.000Z</time></trkpt>
<trkpt lat="42.102109" lon="23.572296"><ele>2641.1</ele><time>2026-03-08T12:24:31.000Z</time></trkpt>
<trkpt lat="42.10211" lon="23.572296"><ele>2641.2</ele><time>2026-03-08T12:24:32.000Z</time></trkpt>
<trkpt lat="42.10211" lon="23.572296"><ele>2641.2</ele><time>2026-03-08T12:24:33.000Z</time></trkpt>
<trkpt lat="42.102111" lon="23.572296"><ele>2641.2</ele><time>2026-03-08T12:24:34.000Z</time></trkpt>
<trkpt lat="42.102111" lon="23.572295"><ele>2641.2</ele><time>2026-03-08T12:24:35.000Z</time></trkpt>
<trkpt lat="42.102111" lon="23.572295"><ele>2641.2</ele><time>2026-03-08T12:24:36.000Z</time></trkpt>
<trkpt lat="42.102111" lon="23.572295"><ele>2641.4</ele><time>2026-03-08T12:24:37.000Z</time></trkpt>
<trkpt lat="42.10211" lon="23.572295"><ele>2641.4</ele><time>2026-03-08T12:24:38.000Z</time></trkpt>
<trkpt lat="42.10211" lon="23.572295"><ele>2641.4</ele><time>2026-03-08T12:24:39.000Z</time></trkpt>
<trkpt lat="42.10211" lon="23.572295"><ele>2641.4</ele><time>2026-03-08T12:24:40.000Z</time></trkpt>
<trkpt lat="42.10211" lon="23.572295"><ele>2641.4</ele><time>2026-03-08T12:24:41.000Z</time></trkpt>
<trkpt lat="42.10211" lon="23.572295"><ele>2641.4</ele><time>2026-03-08T12:24:42.000Z</time></trkpt>
<trkpt lat="42.102111" lon="23.572295"><ele>2641.4</ele><time>2026-03-08T12:24:43.000Z</time></trkpt>
<trkpt lat="42.102111" lon="23.572295"><ele>2641.4</ele><time>2026-03-08T12:24:44.000Z</time></trkpt>
<trkpt lat="42.102111" lon="23.572295"><ele>2641.4</ele><time>2026-03-08T12:24:45.000Z</time></trkpt>
<trkpt lat="42.102111" lon="23.572294"><ele>2641.4</ele><time>2026-03-08T12:24:46.000Z</time></trkpt>
<trkpt lat="42.102111" lon="23.572294"><ele>2641.5</ele><time>2026-03-08T12:24:47.000Z</time></trkpt>
<trkpt lat="42.102111" lon="23.572294"><ele>2641.5</ele><time>2026-03-08T12:24:48.000Z</time></trkpt>
<trkpt lat="42.102111" lon="23.572293"><ele>2641.5</ele><time>2026-03-08T12:24:49.000Z</time></trkpt>
<trkpt lat="42.102111" lon="23.572293"><ele>2641.5</ele><time>2026-03-08T12:24:50.000Z</time></trkpt>
<trkpt lat="42.102111" lon="23.572293"><ele>2641.5</ele><time>2026-03-08T12:24:51.000Z</time></trkpt>
<trkpt lat="42.102111" lon="23.572292"><ele>2641.6</ele><time>2026-03-08T12:24:52.000Z</time></trkpt>
<trkpt lat="42.102111" lon="23.572292"><ele>2641.6</ele><time>2026-03-08T12:24:53.000Z</time></trkpt>
<trkpt lat="42.10211" lon="23.572292"><ele>2641.6</ele><time>2026-03-08T12:24:54.000Z</time></trkpt>
<trkpt lat="42.10211" lon="23.572292"><ele>2641.6</ele><time>2026-03-08T12:24:55.000Z</time></trkpt>
<trkpt lat="42.10211" lon="23.572291"><ele>2641.6</ele><time>2026-03-08T12:24:56.000Z</time></trkpt>
<trkpt lat="42.10211" lon="23.572291"><ele>2641.7</ele><time>2026-03-08T12:24:57.000Z</time></trkpt>
<trkpt lat="42.10211" lon="23.572291"><ele>2641.7</ele><time>2026-03-08T12:24:58.000Z</time></trkpt>
<trkpt lat="42.10211" lon="23.572291"><ele>2641.7</ele><time>2026-03-08T12:24:59.000Z</time></trkpt>
<trkpt lat="42.10211" lon="23.572292"><ele>2641.7</ele><time>2026-03-08T12:25:00.000Z</time></trkpt>
<trkpt lat="42.10211" lon="23.572291"><ele>2641.7</ele><time>2026-03-08T12:25:01.000Z</time></trkpt>
<trkpt lat="42.102109" lon="23.572291"><ele>2641.4</ele><time>2026-03-08T12:25:02.000Z</time></trkpt>
<trkpt lat="42.102109" lon="23.572291"><ele>2641.4</ele><time>2026-03-08T12:25:03.000Z</time></trkpt>
<trkpt lat="42.102109" lon="23.572292"><ele>2641.4</ele><time>2026-03-08T12:25:04.000Z</time></trkpt>
<trkpt lat="42.102109" lon="23.572292"><ele>2641.4</ele><time>2026-03-08T12:25:05.000Z</time></trkpt>
<trkpt lat="42.102109" lon="23.572292"><ele>2641.4</ele><time>2026-03-08T12:25:06.000Z</time></trkpt>
<trkpt lat="42.102109" lon="23.572292"><ele>2641.2</ele><time>2026-03-08T12:25:07.000Z</time></trkpt>
<trkpt lat="42.102109" lon="23.572292"><ele>2641.2</ele><time>2026-03-08T12:25:08.000Z</time></trkpt>
<trkpt lat="42.102109" lon="23.572292"><ele>2641.2</ele><time>2026-03-08T12:25:09.000Z</time></trkpt>
<trkpt lat="42.102109" lon="23.572293"><ele>2641.2</ele><time>2026-03-08T12:25:10.000Z</time></trkpt>
<trkpt lat="42.102109" lon="23.572294"><ele>2641.2</ele><time>2026-03-08T12:25:11.000Z</time></trkpt>
<trkpt lat="42.102108" lon="23.572295"><ele>2641.3</ele><time>2026-03-08T12:25:12.000Z</time></trkpt>
<trkpt lat="42.102107" lon="23.572297"><ele>2641.3</ele><time>2026-03-08T12:25:13.000Z</time></trkpt>
<trkpt lat="42.102105" lon="23.5723"><ele>2641.3</ele><time>2026-03-08T12:25:14.000Z</time></trkpt>
<trkpt lat="42.102104" lon="23.572302"><ele>2641.3</ele><time>2026-03-08T12:25:15.000Z</time></trkpt>
<trkpt lat="42.102103" lon="23.572302"><ele>2641.3</ele><time>2026-03-08T12:25:16.000Z</time></trkpt>
<trkpt lat="42.102102" lon="23.572302"><ele>2641.6</ele><time>2026-03-08T12:25:17.000Z</time></trkpt>
<trkpt lat="42.102102" lon="23.572301"><ele>2641.6</ele><time>2026-03-08T12:25:18.000Z</time></trkpt>
<trkpt lat="42.102103" lon="23.572299"><ele>2641.6</ele><time>2026-03-08T12:25:19.000Z</time></trkpt>
<trkpt lat="42.102104" lon="23.572296"><ele>2641.6</ele><time>2026-03-08T12:25:20.000Z</time></trkpt>
<trkpt lat="42.102105" lon="23.572294"><ele>2641.6</ele><time>2026-03-08T12:25:21.000Z</time></trkpt>
<trkpt lat="42.102105" lon="23.572293"><ele>2641.9</ele><time>2026-03-08T12:25:22.000Z</time></trkpt>
<trkpt lat="42.102105" lon="23.572292"><ele>2641.9</ele><time>2026-03-08T12:25:23.000Z</time></trkpt>
<trkpt lat="42.102105" lon="23.572292"><ele>2641.9</ele><time>2026-03-08T12:25:24.000Z</time></trkpt>
<trkpt lat="42.102106" lon="23.572293"><ele>2641.9</ele><time>2026-03-08T12:25:25.000Z</time></trkpt>
<trkpt lat="42.102106" lon="23.572294"><ele>2641.9</ele><time>2026-03-08T12:25:26.000Z</time></trkpt>
<trkpt lat="42.102106" lon="23.572294"><ele>2641.8</ele><time>2026-03-08T12:25:27.000Z</time></trkpt>
<trkpt lat="42.102106" lon="23.572294"><ele>2641.8</ele><time>2026-03-08T12:25:28.000Z</time></trkpt>
<trkpt lat="42.102107" lon="23.572294"><ele>2641.8</ele><time>2026-03-08T12:25:29.000Z</time></trkpt>
<trkpt lat="42.102107" lon="23.572293"><ele>2641.8</ele><time>2026-03-08T12:25:30.000Z</time></trkpt>
<trkpt lat="42.102107" lon="23.572293"><ele>2641.8</ele><time>2026-03-08T12:25:31.000Z</time></trkpt>
<trkpt lat="42.102107" lon="23.572293"><ele>2641.4</ele><time>2026-03-08T12:25:32.000Z</time></trkpt>
<trkpt lat="42.102107" lon="23.572293"><ele>2641.4</ele><time>2026-03-08T12:25:33.000Z</time></trkpt>
<trkpt lat="42.102107" lon="23.572293"><ele>2641.4</ele><time>2026-03-08T12:25:34.000Z</time></trkpt>
<trkpt lat="42.102107" lon="23.572293"><ele>2641.4</ele><time>2026-03-08T12:25:35.000Z</time></trkpt>
<trkpt lat="42.102106" lon="23.572294"><ele>2641.4</ele><time>2026-03-08T12:25:36.000Z</time></trkpt>
<trkpt lat="42.102106" lon="23.572295"><ele>2641.1</ele><time>2026-03-08T12:25:37.000Z</time></trkpt>
<trkpt lat="42.102106" lon="23.572296"><ele>2641.1</ele><time>2026-03-08T12:25:38.000Z</time></trkpt>
<trkpt lat="42.102106" lon="23.572299"><ele>2641.1</ele><time>2026-03-08T12:25:39.000Z</time></trkpt>
<trkpt lat="42.102107" lon="23.572301"><ele>2641.1</ele><time>2026-03-08T12:25:40.000Z</time></trkpt>
<trkpt lat="42.102107" lon="23.572304"><ele>2641.1</ele><time>2026-03-08T12:25:41.000Z</time></trkpt>
<trkpt lat="42.102108" lon="23.572305"><ele>2641.1</ele><time>2026-03-08T12:25:42.000Z</time></trkpt>
<trkpt lat="42.102108" lon="23.572305"><ele>2641.1</ele><time>2026-03-08T12:25:43.000Z</time></trkpt>
<trkpt lat="42.102108" lon="23.572304"><ele>2641.1</ele><time>2026-03-08T12:25:44.000Z</time></trkpt>
<trkpt lat="42.102108" lon="23.572304"><ele>2641.1</ele><time>2026-03-08T12:25:45.000Z</time></trkpt>
<trkpt lat="42.102107" lon="23.572303"><ele>2641.1</ele><time>2026-03-08T12:25:46.000Z</time></trkpt>
<trkpt lat="42.102107" lon="23.572303"><ele>2641.2</ele><time>2026-03-08T12:25:47.000Z</time></trkpt>
<trkpt lat="42.102106" lon="23.572304"><ele>2641.2</ele><time>2026-03-08T12:25:48.000Z</time></trkpt>
<trkpt lat="42.102106" lon="23.572304"><ele>2641.2</ele><time>2026-03-08T12:25:49.000Z</time></trkpt>
<trkpt lat="42.102106" lon="23.572304"><ele>2641.2</ele><time>2026-03-08T12:25:50.000Z</time></trkpt>
<trkpt lat="42.102106" lon="23.572304"><ele>2641.2</ele><time>2026-03-08T12:25:51.000Z</time></trkpt>
<trkpt lat="42.102107" lon="23.572304"><ele>2641.5</ele><time>2026-03-08T12:25:52.000Z</time></trkpt>
<trkpt lat="42.102108" lon="23.572303"><ele>2641.5</ele><time>2026-03-08T12:25:53.000Z</time></trkpt>
<trkpt lat="42.102109" lon="23.572303"><ele>2641.5</ele><time>2026-03-08T12:25:54.000Z</time></trkpt>
<trkpt lat="42.102109" lon="23.572302"><ele>2641.5</ele><time>2026-03-08T12:25:55.000Z</time></trkpt>
<trkpt lat="42.102109" lon="23.572302"><ele>2641.5</ele><time>2026-03-08T12:25:56.000Z</time></trkpt>
<trkpt lat="42.102109" lon="23.572302"><ele>2641.7</ele><time>2026-03-08T12:25:57.000Z</time></trkpt>
<trkpt lat="42.102109" lon="23.572302"><ele>2641.7</ele><time>2026-03-08T12:25:58.000Z</time></trkpt>
<trkpt lat="42.102109" lon="23.572302"><ele>2641.7</ele><time>2026-03-08T12:25:59.000Z</time></trkpt>
<trkpt lat="42.102109" lon="23.572302"><ele>2641.7</ele><time>2026-03-08T12:26:00.000Z</time></trkpt>
<trkpt lat="42.102109" lon="23.572302"><ele>2641.7</ele><time>2026-03-08T12:26:01.000Z</time></trkpt>
<trkpt lat="42.102109" lon="23.572302"><ele>2642</ele><time>2026-03-08T12:26:02.000Z</time></trkpt>
<trkpt lat="42.10211" lon="23.572302"><ele>2642</ele><time>2026-03-08T12:26:03.000Z</time></trkpt>
<trkpt lat="42.10211" lon="23.572301"><ele>2642</ele><time>2026-03-08T12:26:04.000Z</time></trkpt>
<trkpt lat="42.102112" lon="23.5723"><ele>2642</ele><time>2026-03-08T12:26:05.000Z</time></trkpt>
<trkpt lat="42.102113" lon="23.572299"><ele>2642</ele><time>2026-03-08T12:26:06.000Z</time></trkpt>
<trkpt lat="42.102115" lon="23.572297"><ele>2642.1</ele><time>2026-03-08T12:26:07.000Z</time></trkpt>
<trkpt lat="42.102115" lon="23.572297"><ele>2642.1</ele><time>2026-03-08T12:26:08.000Z</time></trkpt>
<trkpt lat="42.102115" lon="23.572296"><ele>2642.1</ele><time>2026-03-08T12:26:09.000Z</time></trkpt>
<trkpt lat="42.102115" lon="23.572295"><ele>2642.1</ele><time>2026-03-08T12:26:10.000Z</time></trkpt>
<trkpt lat="42.102114" lon="23.572295"><ele>2642.1</ele><time>2026-03-08T12:26:11.000Z</time></trkpt>
<trkpt lat="42.102114" lon="23.572295"><ele>2642.1</ele><time>2026-03-08T12:26:12.000Z</time></trkpt>
<trkpt lat="42.102114" lon="23.572296"><ele>2642.1</ele><time>2026-03-08T12:26:13.000Z</time></trkpt>
<trkpt lat="42.102113" lon="23.572296"><ele>2642.1</ele><time>2026-03-08T12:26:14.000Z</time></trkpt>
<trkpt lat="42.102112" lon="23.572298"><ele>2642.1</ele><time>2026-03-08T12:26:15.000Z</time></trkpt>
<trkpt lat="42.102111" lon="23.572298"><ele>2642.1</ele><time>2026-03-08T12:26:16.000Z</time></trkpt>
<trkpt lat="42.102111" lon="23.572299"><ele>2642.1</ele><time>2026-03-08T12:26:17.000Z</time></trkpt>
<trkpt lat="42.10211" lon="23.572299"><ele>2642.1</ele><time>2026-03-08T12:26:18.000Z</time></trkpt>
<trkpt lat="42.102109" lon="23.572299"><ele>2642.1</ele><time>2026-03-08T12:26:19.000Z</time></trkpt>
<trkpt lat="42.102109" lon="23.572299"><ele>2642.1</ele><time>2026-03-08T12:26:20.000Z</time></trkpt>
<trkpt lat="42.102109" lon="23.572299"><ele>2642.1</ele><time>2026-03-08T12:26:21.000Z</time></trkpt>
<trkpt lat="42.102108" lon="23.572299"><ele>2642.2</ele><time>2026-03-08T12:26:22.000Z</time></trkpt>
<trkpt lat="42.102108" lon="23.572299"><ele>2642.2</ele><time>2026-03-08T12:26:23.000Z</time></trkpt>
<trkpt lat="42.102108" lon="23.572299"><ele>2642.2</ele><time>2026-03-08T12:26:24.000Z</time></trkpt>
<trkpt lat="42.102109" lon="23.572299"><ele>2642.2</ele><time>2026-03-08T12:26:25.000Z</time></trkpt>
<trkpt lat="42.10211" lon="23.572298"><ele>2642.2</ele><time>2026-03-08T12:26:26.000Z</time></trkpt>
<trkpt lat="42.10211" lon="23.572297"><ele>2642.4</ele><time>2026-03-08T12:26:27.000Z</time></trkpt>
<trkpt lat="42.102111" lon="23.572297"><ele>2642.4</ele><time>2026-03-08T12:26:28.000Z</time></trkpt>
<trkpt lat="42.102111" lon="23.572296"><ele>2642.4</ele><time>2026-03-08T12:26:29.000Z</time></trkpt>
<trkpt lat="42.102111" lon="23.572295"><ele>2642.4</ele><time>2026-03-08T12:26:30.000Z</time></trkpt>
<trkpt lat="42.102111" lon="23.572294"><ele>2642.4</ele><time>2026-03-08T12:26:31.000Z</time></trkpt>
<trkpt lat="42.102111" lon="23.572294"><ele>2642.7</ele><time>2026-03-08T12:26:32.000Z</time></trkpt>
<trkpt lat="42.102111" lon="23.572294"><ele>2642.7</ele><time>2026-03-08T12:26:33.000Z</time></trkpt>
<trkpt lat="42.102111" lon="23.572294"><ele>2642.7</ele><time>2026-03-08T12:26:34.000Z</time></trkpt>
<trkpt lat="42.102111" lon="23.572294"><ele>2642.7</ele><time>2026-03-08T12:26:35.000Z</time></trkpt>
<trkpt lat="42.10211" lon="23.572294"><ele>2642.7</ele><time>2026-03-08T12:26:36.000Z</time></trkpt>
<trkpt lat="42.102111" lon="23.572294"><ele>2642.6</ele><time>2026-03-08T12:26:37.000Z</time></trkpt>
<trkpt lat="42.102112" lon="23.572295"><ele>2642.6</ele><time>2026-03-08T12:26:38.000Z</time></trkpt>
<trkpt lat="42.102113" lon="23.572297"><ele>2642.6</ele><time>2026-03-08T12:26:39.000Z</time></trkpt>
<trkpt lat="42.102114" lon="23.5723"><ele>2642.6</ele><time>2026-03-08T12:26:40.000Z</time></trkpt>
<trkpt lat="42.102115" lon="23.572303"><ele>2642.6</ele><time>2026-03-08T12:26:41.000Z</time></trkpt>
<trkpt lat="42.102115" lon="23.572308"><ele>2642.5</ele><time>2026-03-08T12:26:42.000Z</time></trkpt>
<trkpt lat="42.102115" lon="23.57231"><ele>2642.5</ele><time>2026-03-08T12:26:43.000Z</time></trkpt>
<trkpt lat="42.102115" lon="23.572312"><ele>2642.5</ele><time>2026-03-08T12:26:44.000Z</time></trkpt>
<trkpt lat="42.102115" lon="23.572312"><ele>2642.5</ele><time>2026-03-08T12:26:45.000Z</time></trkpt>
<trkpt lat="42.102115" lon="23.572311"><ele>2642.5</ele><time>2026-03-08T12:26:46.000Z</time></trkpt>
<trkpt lat="42.102114" lon="23.572309"><ele>2642.2</ele><time>2026-03-08T12:26:47.000Z</time></trkpt>
<trkpt lat="42.102112" lon="23.572307"><ele>2642.2</ele><time>2026-03-08T12:26:48.000Z</time></trkpt>
<trkpt lat="42.102109" lon="23.572307"><ele>2642.2</ele><time>2026-03-08T12:26:49.000Z</time></trkpt>
<trkpt lat="42.102106" lon="23.572307"><ele>2642.2</ele><time>2026-03-08T12:26:50.000Z</time></trkpt>
<trkpt lat="42.102102" lon="23.572308"><ele>2642.2</ele><time>2026-03-08T12:26:51.000Z</time></trkpt>
<trkpt lat="42.1021" lon="23.572308"><ele>2642</ele><time>2026-03-08T12:26:52.000Z</time></trkpt>
<trkpt lat="42.102098" lon="23.572308"><ele>2642</ele><time>2026-03-08T12:26:53.000Z</time></trkpt>
<trkpt lat="42.102098" lon="23.572309"><ele>2642</ele><time>2026-03-08T12:26:54.000Z</time></trkpt>
<trkpt lat="42.102099" lon="23.572309"><ele>2642</ele><time>2026-03-08T12:26:55.000Z</time></trkpt>
<trkpt lat="42.1021" lon="23.572309"><ele>2642</ele><time>2026-03-08T12:26:56.000Z</time></trkpt>
<trkpt lat="42.102102" lon="23.572309"><ele>2642</ele><time>2026-03-08T12:26:57.000Z</time></trkpt>
<trkpt lat="42.102103" lon="23.572308"><ele>2642</ele><time>2026-03-08T12:26:58.000Z</time></trkpt>
<trkpt lat="42.102103" lon="23.572308"><ele>2642</ele><time>2026-03-08T12:26:59.000Z</time></trkpt>
<trkpt lat="42.102103" lon="23.572306"><ele>2642</ele><time>2026-03-08T12:27:00.000Z</time></trkpt>
<trkpt lat="42.102103" lon="23.572305"><ele>2642</ele><time>2026-03-08T12:27:01.000Z</time></trkpt>
<trkpt lat="42.102103" lon="23.572304"><ele>2642.3</ele><time>2026-03-08T12:27:02.000Z</time></trkpt>
<trkpt lat="42.102103" lon="23.572304"><ele>2642.3</ele><time>2026-03-08T12:27:03.000Z</time></trkpt>
<trkpt lat="42.102102" lon="23.572305"><ele>2642.3</ele><time>2026-03-08T12:27:04.000Z</time></trkpt>
<trkpt lat="42.102102" lon="23.572306"><ele>2642.3</ele><time>2026-03-08T12:27:05.000Z</time></trkpt>
<trkpt lat="42.102101" lon="23.572307"><ele>2642.3</ele><time>2026-03-08T12:27:06.000Z</time></trkpt>
<trkpt lat="42.1021" lon="23.572309"><ele>2642.6</ele><time>2026-03-08T12:27:07.000Z</time></trkpt>
<trkpt lat="42.102099" lon="23.572309"><ele>2642.6</ele><time>2026-03-08T12:27:08.000Z</time></trkpt>
<trkpt lat="42.102099" lon="23.572309"><ele>2642.6</ele><time>2026-03-08T12:27:09.000Z</time></trkpt>
<trkpt lat="42.102099" lon="23.572308"><ele>2642.6</ele><time>2026-03-08T12:27:10.000Z</time></trkpt>
<trkpt lat="42.102099" lon="23.572308"><ele>2642.6</ele><time>2026-03-08T12:27:11.000Z</time></trkpt>
<trkpt lat="42.102099" lon="23.572308"><ele>2642.7</ele><time>2026-03-08T12:27:12.000Z</time></trkpt>
<trkpt lat="42.102099" lon="23.572308"><ele>2642.7</ele><time>2026-03-08T12:27:13.000Z</time></trkpt>
<trkpt lat="42.102099" lon="23.572308"><ele>2642.7</ele><time>2026-03-08T12:27:14.000Z</time></trkpt>
<trkpt lat="42.102099" lon="23.572308"><ele>2642.7</ele><time>2026-03-08T12:27:15.000Z</time></trkpt>
<trkpt lat="42.102099" lon="23.572307"><ele>2642.7</ele><time>2026-03-08T12:27:16.000Z</time></trkpt>
<trkpt lat="42.1021" lon="23.572307"><ele>2642.8</ele><time>2026-03-08T12:27:17.000Z</time></trkpt>
<trkpt lat="42.1021" lon="23.572307"><ele>2642.8</ele><time>2026-03-08T12:27:18.000Z</time></trkpt>
<trkpt lat="42.1021" lon="23.572306"><ele>2642.8</ele><time>2026-03-08T12:27:19.000Z</time></trkpt>
<trkpt lat="42.1021" lon="23.572306"><ele>2642.8</ele><time>2026-03-08T12:27:20.000Z</time></trkpt>
<trkpt lat="42.1021" lon="23.572306"><ele>2642.8</ele><time>2026-03-08T12:27:21.000Z</time></trkpt>
<trkpt lat="42.1021" lon="23.572306"><ele>2642.7</ele><time>2026-03-08T12:27:22.000Z</time></trkpt>
<trkpt lat="42.1021" lon="23.572306"><ele>2642.7</ele><time>2026-03-08T12:27:23.000Z</time></trkpt>
<trkpt lat="42.1021" lon="23.572305"><ele>2642.7</ele><time>2026-03-08T12:27:24.000Z</time></trkpt>
<trkpt lat="42.1021" lon="23.572304"><ele>2642.7</ele><time>2026-03-08T12:27:25.000Z</time></trkpt>
<trkpt lat="42.102099" lon="23.572304"><ele>2642.7</ele><time>2026-03-08T12:27:26.000Z</time></trkpt>
<trkpt lat="42.102099" lon="23.572303"><ele>2642.7</ele><time>2026-03-08T12:27:27.000Z</time></trkpt>
<trkpt lat="42.102098" lon="23.572303"><ele>2642.7</ele><time>2026-03-08T12:27:28.000Z</time></trkpt>
<trkpt lat="42.102097" lon="23.572303"><ele>2642.7</ele><time>2026-03-08T12:27:29.000Z</time></trkpt>
<trkpt lat="42.102097" lon="23.572302"><ele>2642.7</ele><time>2026-03-08T12:27:30.000Z</time></trkpt>
<trkpt lat="42.102096" lon="23.572301"><ele>2642.7</ele><time>2026-03-08T12:27:31.000Z</time></trkpt>
<trkpt lat="42.102096" lon="23.572301"><ele>2642.7</ele><time>2026-03-08T12:27:32.000Z</time></trkpt>
<trkpt lat="42.102096" lon="23.5723"><ele>2642.7</ele><time>2026-03-08T12:27:33.000Z</time></trkpt>
<trkpt lat="42.102096" lon="23.572299"><ele>2642.7</ele><time>2026-03-08T12:27:34.000Z</time></trkpt>
<trkpt lat="42.102096" lon="23.572299"><ele>2642.7</ele><time>2026-03-08T12:27:35.000Z</time></trkpt>
<trkpt lat="42.102096" lon="23.572299"><ele>2642.7</ele><time>2026-03-08T12:27:36.000Z</time></trkpt>
<trkpt lat="42.102096" lon="23.572299"><ele>2642.7</ele><time>2026-03-08T12:27:37.000Z</time></trkpt>
<trkpt lat="42.102096" lon="23.572299"><ele>2642.7</ele><time>2026-03-08T12:27:38.000Z</time></trkpt>
<trkpt lat="42.102096" lon="23.572299"><ele>2642.7</ele><time>2026-03-08T12:27:39.000Z</time></trkpt>
<trkpt lat="42.102096" lon="23.572299"><ele>2642.7</ele><time>2026-03-08T12:27:40.000Z</time></trkpt>
<trkpt lat="42.102098" lon="23.572299"><ele>2642.7</ele><time>2026-03-08T12:27:41.000Z</time></trkpt>
<trkpt lat="42.1021" lon="23.572299"><ele>2642.7</ele><time>2026-03-08T12:27:42.000Z</time></trkpt>
<trkpt lat="42.102103" lon="23.572299"><ele>2642.7</ele><time>2026-03-08T12:27:43.000Z</time></trkpt>
<trkpt lat="42.102105" lon="23.572299"><ele>2642.7</ele><time>2026-03-08T12:27:44.000Z</time></trkpt>
<trkpt lat="42.102108" lon="23.572298"><ele>2642.7</ele><time>2026-03-08T12:27:45.000Z</time></trkpt>
<trkpt lat="42.10211" lon="23.572299"><ele>2642.7</ele><time>2026-03-08T12:27:46.000Z</time></trkpt>
<trkpt lat="42.10211" lon="23.572299"><ele>2642.7</ele><time>2026-03-08T12:27:47.000Z</time></trkpt>
<trkpt lat="42.102111" lon="23.572298"><ele>2642.7</ele><time>2026-03-08T12:27:48.000Z</time></trkpt>
<trkpt lat="42.102111" lon="23.572298"><ele>2642.7</ele><time>2026-03-08T12:27:49.000Z</time></trkpt>
<trkpt lat="42.102111" lon="23.572298"><ele>2642.7</ele><time>2026-03-08T12:27:50.000Z</time></trkpt>
<trkpt lat="42.102111" lon="23.572298"><ele>2642.7</ele><time>2026-03-08T12:27:51.000Z</time></trkpt>
<trkpt lat="42.102111" lon="23.572298"><ele>2642.6</ele><time>2026-03-08T12:27:52.000Z</time></trkpt>
<trkpt lat="42.102111" lon="23.572298"><ele>2642.6</ele><time>2026-03-08T12:27:53.000Z</time></trkpt>
<trkpt lat="42.102111" lon="23.572298"><ele>2642.6</ele><time>2026-03-08T12:27:54.000Z</time></trkpt>
<trkpt lat="42.102111" lon="23.572298"><ele>2642.6</ele><time>2026-03-08T12:27:55.000Z</time></trkpt>
<trkpt lat="42.102111" lon="23.572298"><ele>2642.6</ele><time>2026-03-08T12:27:56.000Z</time></trkpt>
<trkpt lat="42.102111" lon="23.572297"><ele>2642.6</ele><time>2026-03-08T12:27:57.000Z</time></trkpt>
<trkpt lat="42.102111" lon="23.572297"><ele>2642.6</ele><time>2026-03-08T12:27:58.000Z</time></trkpt>
<trkpt lat="42.102111" lon="23.572297"><ele>2642.6</ele><time>2026-03-08T12:27:59.000Z</time></trkpt>
<trkpt lat="42.102111" lon="23.572297"><ele>2642.6</ele><time>2026-03-08T12:28:00.000Z</time></trkpt>
<trkpt lat="42.102111" lon="23.572297"><ele>2642.6</ele><time>2026-03-08T12:28:01.000Z</time></trkpt>
<trkpt lat="42.102111" lon="23.572297"><ele>2642.5</ele><time>2026-03-08T12:28:02.000Z</time></trkpt>
<trkpt lat="42.102111" lon="23.572297"><ele>2642.5</ele><time>2026-03-08T12:28:03.000Z</time></trkpt>
<trkpt lat="42.102111" lon="23.572297"><ele>2642.5</ele><time>2026-03-08T12:28:04.000Z</time></trkpt>
<trkpt lat="42.102111" lon="23.572297"><ele>2642.5</ele><time>2026-03-08T12:28:05.000Z</time></trkpt>
<trkpt lat="42.102111" lon="23.572297"><ele>2642.5</ele><time>2026-03-08T12:28:06.000Z</time></trkpt>
<trkpt lat="42.102111" lon="23.572297"><ele>2642.4</ele><time>2026-03-08T12:28:07.000Z</time></trkpt>
<trkpt lat="42.102111" lon="23.572297"><ele>2642.4</ele><time>2026-03-08T12:28:08.000Z</time></trkpt>
<trkpt lat="42.102111" lon="23.572297"><ele>2642.4</ele><time>2026-03-08T12:28:09.000Z</time></trkpt>
<trkpt lat="42.102111" lon="23.572297"><ele>2642.4</ele><time>2026-03-08T12:28:10.000Z</time></trkpt>
<trkpt lat="42.102111" lon="23.572297"><ele>2642.4</ele><time>2026-03-08T12:28:11.000Z</time></trkpt>
<trkpt lat="42.102111" lon="23.572297"><ele>2642.3</ele><time>2026-03-08T12:28:12.000Z</time></trkpt>
<trkpt lat="42.102111" lon="23.572297"><ele>2642.3</ele><time>2026-03-08T12:28:13.000Z</time></trkpt>
<trkpt lat="42.102111" lon="23.572297"><ele>2642.3</ele><time>2026-03-08T12:28:14.000Z</time></trkpt>
<trkpt lat="42.102111" lon="23.572297"><ele>2642.3</ele><time>2026-03-08T12:28:15.000Z</time></trkpt>
<trkpt lat="42.102111" lon="23.572297"><ele>2642.3</ele><time>2026-03-08T12:28:16.000Z</time></trkpt>
<trkpt lat="42.102111" lon="23.572297"><ele>2642.3</ele><time>2026-03-08T12:28:17.000Z</time></trkpt>
<trkpt lat="42.10211" lon="23.572297"><ele>2642.3</ele><time>2026-03-08T12:28:18.000Z</time></trkpt>
<trkpt lat="42.10211" lon="23.572297"><ele>2642.3</ele><time>2026-03-08T12:28:19.000Z</time></trkpt>
<trkpt lat="42.10211" lon="23.572297"><ele>2642.3</ele><time>2026-03-08T12:28:20.000Z</time></trkpt>
<trkpt lat="42.10211" lon="23.572297"><ele>2642.3</ele><time>2026-03-08T12:28:21.000Z</time></trkpt>
<trkpt lat="42.102111" lon="23.572297"><ele>2642.4</ele><time>2026-03-08T12:28:22.000Z</time></trkpt>
<trkpt lat="42.102111" lon="23.572296"><ele>2642.4</ele><time>2026-03-08T12:28:23.000Z</time></trkpt>
<trkpt lat="42.102111" lon="23.572296"><ele>2642.4</ele><time>2026-03-08T12:28:24.000Z</time></trkpt>
<trkpt lat="42.102111" lon="23.572296"><ele>2642.4</ele><time>2026-03-08T12:28:25.000Z</time></trkpt>
<trkpt lat="42.102111" lon="23.572296"><ele>2642.4</ele><time>2026-03-08T12:28:26.000Z</time></trkpt>
<trkpt lat="42.10211" lon="23.572296"><ele>2642.4</ele><time>2026-03-08T12:28:27.000Z</time></trkpt>
<trkpt lat="42.10211" lon="23.572296"><ele>2642.4</ele><time>2026-03-08T12:28:28.000Z</time></trkpt>
<trkpt lat="42.10211" lon="23.572296"><ele>2642.4</ele><time>2026-03-08T12:28:29.000Z</time></trkpt>
<trkpt lat="42.10211" lon="23.572295"><ele>2642.4</ele><time>2026-03-08T12:28:30.000Z</time></trkpt>
<trkpt lat="42.10211" lon="23.572295"><ele>2642.4</ele><time>2026-03-08T12:28:31.000Z</time></trkpt>
<trkpt lat="42.10211" lon="23.572295"><ele>2642.4</ele><time>2026-03-08T12:28:32.000Z</time></trkpt>
<trkpt lat="42.10211" lon="23.572295"><ele>2642.4</ele><time>2026-03-08T12:28:33.000Z</time></trkpt>
<trkpt lat="42.102111" lon="23.572295"><ele>2642.4</ele><time>2026-03-08T12:28:34.000Z</time></trkpt>
<trkpt lat="42.102111" lon="23.572295"><ele>2642.4</ele><time>2026-03-08T12:28:35.000Z</time></trkpt>
<trkpt lat="42.102111" lon="23.572296"><ele>2642.4</ele><time>2026-03-08T12:28:36.000Z</time></trkpt>
<trkpt lat="42.102112" lon="23.572296"><ele>2642.4</ele><time>2026-03-08T12:28:37.000Z</time></trkpt>
<trkpt lat="42.102112" lon="23.572296"><ele>2642.4</ele><time>2026-03-08T12:28:38.000Z</time></trkpt>
<trkpt lat="42.102111" lon="23.572296"><ele>2642.4</ele><time>2026-03-08T12:28:39.000Z</time></trkpt>
<trkpt lat="42.102111" lon="23.572296"><ele>2642.4</ele><time>2026-03-08T12:28:40.000Z</time></trkpt>
<trkpt lat="42.102111" lon="23.572297"><ele>2642.4</ele><time>2026-03-08T12:28:41.000Z</time></trkpt>
<trkpt lat="42.102111" lon="23.5723"><ele>2642.5</ele><time>2026-03-08T12:28:42.000Z</time></trkpt>
<trkpt lat="42.102111" lon="23.572304"><ele>2642.5</ele><time>2026-03-08T12:28:43.000Z</time></trkpt>
<trkpt lat="42.102112" lon="23.57231"><ele>2642.5</ele><time>2026-03-08T12:28:44.000Z</time></trkpt>
<trkpt lat="42.102113" lon="23.572317"><ele>2642.5</ele><time>2026-03-08T12:28:45.000Z</time></trkpt>
<trkpt lat="42.102115" lon="23.572325"><ele>2642.5</ele><time>2026-03-08T12:28:46.000Z</time></trkpt>
<trkpt lat="42.102117" lon="23.572332"><ele>2642.6</ele><time>2026-03-08T12:28:47.000Z</time></trkpt>
<trkpt lat="42.102119" lon="23.572337"><ele>2642.6</ele><time>2026-03-08T12:28:48.000Z</time></trkpt>
<trkpt lat="42.10212" lon="23.572341"><ele>2642.6</ele><time>2026-03-08T12:28:49.000Z</time></trkpt>
<trkpt lat="42.10212" lon="23.572343"><ele>2642.6</ele><time>2026-03-08T12:28:50.000Z</time></trkpt>
<trkpt lat="42.102119" lon="23.572344"><ele>2642.6</ele><time>2026-03-08T12:28:51.000Z</time></trkpt>
<trkpt lat="42.102119" lon="23.572345"><ele>2642.5</ele><time>2026-03-08T12:28:52.000Z</time></trkpt>
<trkpt lat="42.102119" lon="23.572345"><ele>2642.5</ele><time>2026-03-08T12:28:53.000Z</time></trkpt>
<trkpt lat="42.102119" lon="23.572346"><ele>2642.5</ele><time>2026-03-08T12:28:54.000Z</time></trkpt>
<trkpt lat="42.102118" lon="23.572345"><ele>2642.5</ele><time>2026-03-08T12:28:55.000Z</time></trkpt>
<trkpt lat="42.102117" lon="23.572344"><ele>2642.5</ele><time>2026-03-08T12:28:56.000Z</time></trkpt>
<trkpt lat="42.102116" lon="23.572341"><ele>2642.4</ele><time>2026-03-08T12:28:57.000Z</time></trkpt>
<trkpt lat="42.102114" lon="23.572336"><ele>2642.4</ele><time>2026-03-08T12:28:58.000Z</time></trkpt>
<trkpt lat="42.102113" lon="23.572331"><ele>2642.4</ele><time>2026-03-08T12:28:59.000Z</time></trkpt>
<trkpt lat="42.102112" lon="23.572325"><ele>2642.4</ele><time>2026-03-08T12:29:00.000Z</time></trkpt>
<trkpt lat="42.102111" lon="23.572318"><ele>2642.4</ele><time>2026-03-08T12:29:01.000Z</time></trkpt>
<trkpt lat="42.102111" lon="23.572311"><ele>2642.4</ele><time>2026-03-08T12:29:02.000Z</time></trkpt>
<trkpt lat="42.102112" lon="23.572303"><ele>2642.4</ele><time>2026-03-08T12:29:03.000Z</time></trkpt>
<trkpt lat="42.102112" lon="23.572296"><ele>2642.4</ele><time>2026-03-08T12:29:04.000Z</time></trkpt>
<trkpt lat="42.102113" lon="23.572287"><ele>2642.4</ele><time>2026-03-08T12:29:05.000Z</time></trkpt>
<trkpt lat="42.102113" lon="23.572276"><ele>2642.4</ele><time>2026-03-08T12:29:06.000Z</time></trkpt>
<trkpt lat="42.102113" lon="23.572266"><ele>2642.6</ele><time>2026-03-08T12:29:07.000Z</time></trkpt>
<trkpt lat="42.102113" lon="23.572255"><ele>2642.6</ele><time>2026-03-08T12:29:08.000Z</time></trkpt>
<trkpt lat="42.102112" lon="23.572242"><ele>2642.6</ele><time>2026-03-08T12:29:09.000Z</time></trkpt>
<trkpt lat="42.102111" lon="23.572228"><ele>2642.6</ele><time>2026-03-08T12:29:10.000Z</time></trkpt>
<trkpt lat="42.10211" lon="23.572215"><ele>2642.6</ele><time>2026-03-08T12:29:11.000Z</time></trkpt>
<trkpt lat="42.102107" lon="23.572202"><ele>2642.8</ele><time>2026-03-08T12:29:12.000Z</time></trkpt>
<trkpt lat="42.102104" lon="23.572188"><ele>2642.8</ele><time>2026-03-08T12:29:13.000Z</time></trkpt>
<trkpt lat="42.1021" lon="23.572176"><ele>2642.8</ele><time>2026-03-08T12:29:14.000Z</time></trkpt>
<trkpt lat="42.102095" lon="23.572164"><ele>2642.8</ele><time>2026-03-08T12:29:15.000Z</time></trkpt>
<trkpt lat="42.102089" lon="23.572154"><ele>2642.8</ele><time>2026-03-08T12:29:16.000Z</time></trkpt>
<trkpt lat="42.102082" lon="23.572145"><ele>2642.9</ele><time>2026-03-08T12:29:17.000Z</time></trkpt>
<trkpt lat="42.102075" lon="23.572137"><ele>2642.9</ele><time>2026-03-08T12:29:18.000Z</time></trkpt>
<trkpt lat="42.10207" lon="23.572132"><ele>2642.9</ele><time>2026-03-08T12:29:19.000Z</time></trkpt>
<trkpt lat="42.102066" lon="23.572128"><ele>2642.9</ele><time>2026-03-08T12:29:20.000Z</time></trkpt>
<trkpt lat="42.102064" lon="23.572126"><ele>2642.9</ele><time>2026-03-08T12:29:21.000Z</time></trkpt>
<trkpt lat="42.102063" lon="23.572125"><ele>2642.3</ele><time>2026-03-08T12:29:22.000Z</time></trkpt>
<trkpt lat="42.102062" lon="23.572125"><ele>2642.3</ele><time>2026-03-08T12:29:23.000Z</time></trkpt>
<trkpt lat="42.102061" lon="23.572126"><ele>2642.3</ele><time>2026-03-08T12:29:24.000Z</time></trkpt>
<trkpt lat="42.10206" lon="23.572126"><ele>2642.3</ele><time>2026-03-08T12:29:25.000Z</time></trkpt>
<trkpt lat="42.102059" lon="23.572127"><ele>2642.3</ele><time>2026-03-08T12:29:26.000Z</time></trkpt>
<trkpt lat="42.102059" lon="23.572127"><ele>2642</ele><time>2026-03-08T12:29:27.000Z</time></trkpt>
<trkpt lat="42.10206" lon="23.572128"><ele>2642</ele><time>2026-03-08T12:29:28.000Z</time></trkpt>
<trkpt lat="42.10206" lon="23.572128"><ele>2642</ele><time>2026-03-08T12:29:29.000Z</time></trkpt>
<trkpt lat="42.10206" lon="23.572128"><ele>2642</ele><time>2026-03-08T12:29:30.000Z</time></trkpt>
<trkpt lat="42.10206" lon="23.572129"><ele>2642</ele><time>2026-03-08T12:29:31.000Z</time></trkpt>
<trkpt lat="42.10206" lon="23.572129"><ele>2641.3</ele><time>2026-03-08T12:29:32.000Z</time></trkpt>
<trkpt lat="42.10206" lon="23.572129"><ele>2641.3</ele><time>2026-03-08T12:29:33.000Z</time></trkpt>
<trkpt lat="42.102058" lon="23.572127"><ele>2641.3</ele><time>2026-03-08T12:29:34.000Z</time></trkpt>
<trkpt lat="42.102054" lon="23.572124"><ele>2641.3</ele><time>2026-03-08T12:29:35.000Z</time></trkpt>
<trkpt lat="42.102049" lon="23.572119"><ele>2641.3</ele><time>2026-03-08T12:29:36.000Z</time></trkpt>
<trkpt lat="42.102044" lon="23.572112"><ele>2641</ele><time>2026-03-08T12:29:37.000Z</time></trkpt>
<trkpt lat="42.102036" lon="23.572102"><ele>2641</ele><time>2026-03-08T12:29:38.000Z</time></trkpt>
<trkpt lat="42.10203" lon="23.572092"><ele>2641</ele><time>2026-03-08T12:29:39.000Z</time></trkpt>
<trkpt lat="42.102025" lon="23.572082"><ele>2641</ele><time>2026-03-08T12:29:40.000Z</time></trkpt>
<trkpt lat="42.102019" lon="23.572071"><ele>2641</ele><time>2026-03-08T12:29:41.000Z</time></trkpt>
<trkpt lat="42.102013" lon="23.57206"><ele>2641</ele><time>2026-03-08T12:29:42.000Z</time></trkpt>
<trkpt lat="42.102008" lon="23.57205"><ele>2641</ele><time>2026-03-08T12:29:43.000Z</time></trkpt>
<trkpt lat="42.102003" lon="23.572041"><ele>2641</ele><time>2026-03-08T12:29:44.000Z</time></trkpt>
<trkpt lat="42.101997" lon="23.572032"><ele>2641</ele><time>2026-03-08T12:29:45.000Z</time></trkpt>
<trkpt lat="42.10199" lon="23.572024"><ele>2641</ele><time>2026-03-08T12:29:46.000Z</time></trkpt>
<trkpt lat="42.101982" lon="23.572017"><ele>2640.9</ele><time>2026-03-08T12:29:47.000Z</time></trkpt>
<trkpt lat="42.101973" lon="23.572012"><ele>2640.9</ele><time>2026-03-08T12:29:48.000Z</time></trkpt>
<trkpt lat="42.101965" lon="23.572008"><ele>2640.9</ele><time>2026-03-08T12:29:49.000Z</time></trkpt>
<trkpt lat="42.101957" lon="23.572005"><ele>2640.9</ele><time>2026-03-08T12:29:50.000Z</time></trkpt>
<trkpt lat="42.10195" lon="23.572002"><ele>2640.9</ele><time>2026-03-08T12:29:51.000Z</time></trkpt>
<trkpt lat="42.101944" lon="23.571999"><ele>2640.4</ele><time>2026-03-08T12:29:52.000Z</time></trkpt>
<trkpt lat="42.101938" lon="23.571996"><ele>2640.4</ele><time>2026-03-08T12:29:53.000Z</time></trkpt>
<trkpt lat="42.101933" lon="23.571992"><ele>2640.4</ele><time>2026-03-08T12:29:54.000Z</time></trkpt>
<trkpt lat="42.101929" lon="23.571989"><ele>2640.4</ele><time>2026-03-08T12:29:55.000Z</time></trkpt>
<trkpt lat="42.101924" lon="23.571985"><ele>2640.4</ele><time>2026-03-08T12:29:56.000Z</time></trkpt>
<trkpt lat="42.101919" lon="23.571982"><ele>2640</ele><time>2026-03-08T12:29:57.000Z</time></trkpt>
<trkpt lat="42.101915" lon="23.571979"><ele>2640</ele><time>2026-03-08T12:29:58.000Z</time></trkpt>
<trkpt lat="42.101911" lon="23.571976"><ele>2640</ele><time>2026-03-08T12:29:59.000Z</time></trkpt>
<trkpt lat="42.101908" lon="23.571974"><ele>2640</ele><time>2026-03-08T12:30:00.000Z</time></trkpt>
<trkpt lat="42.101907" lon="23.571972"><ele>2640</ele><time>2026-03-08T12:30:01.000Z</time></trkpt>
<trkpt lat="42.101907" lon="23.571971"><ele>2638.7</ele><time>2026-03-08T12:30:02.000Z</time></trkpt>
<trkpt lat="42.101907" lon="23.571972"><ele>2638.7</ele><time>2026-03-08T12:30:03.000Z</time></trkpt>
<trkpt lat="42.101907" lon="23.571972"><ele>2638.7</ele><time>2026-03-08T12:30:04.000Z</time></trkpt>
<trkpt lat="42.101905" lon="23.571973"><ele>2638.7</ele><time>2026-03-08T12:30:05.000Z</time></trkpt>
<trkpt lat="42.101903" lon="23.571975"><ele>2638.7</ele><time>2026-03-08T12:30:06.000Z</time></trkpt>
<trkpt lat="42.1019" lon="23.571976"><ele>2637.3</ele><time>2026-03-08T12:30:07.000Z</time></trkpt>
<trkpt lat="42.101897" lon="23.571977"><ele>2637.3</ele><time>2026-03-08T12:30:08.000Z</time></trkpt>
<trkpt lat="42.101896" lon="23.571979"><ele>2637.3</ele><time>2026-03-08T12:30:09.000Z</time></trkpt>
<trkpt lat="42.101894" lon="23.571981"><ele>2637.3</ele><time>2026-03-08T12:30:10.000Z</time></trkpt>
<trkpt lat="42.101893" lon="23.571984"><ele>2637.3</ele><time>2026-03-08T12:30:11.000Z</time></trkpt>
<trkpt lat="42.101891" lon="23.571986"><ele>2636.7</ele><time>2026-03-08T12:30:12.000Z</time></trkpt>
<trkpt lat="42.101888" lon="23.571989"><ele>2636.7</ele><time>2026-03-08T12:30:13.000Z</time></trkpt>
<trkpt lat="42.101884" lon="23.57199"><ele>2636.7</ele><time>2026-03-08T12:30:14.000Z</time></trkpt>
<trkpt lat="42.101882" lon="23.57199"><ele>2636.7</ele><time>2026-03-08T12:30:15.000Z</time></trkpt>
<trkpt lat="42.101881" lon="23.571989"><ele>2636.7</ele><time>2026-03-08T12:30:16.000Z</time></trkpt>
<trkpt lat="42.10188" lon="23.571988"><ele>2636</ele><time>2026-03-08T12:30:17.000Z</time></trkpt>
<trkpt lat="42.10188" lon="23.571987"><ele>2636</ele><time>2026-03-08T12:30:18.000Z</time></trkpt>
<trkpt lat="42.10188" lon="23.571985"><ele>2636</ele><time>2026-03-08T12:30:19.000Z</time></trkpt>
<trkpt lat="42.10188" lon="23.571983"><ele>2636</ele><time>2026-03-08T12:30:20.000Z</time></trkpt>
<trkpt lat="42.10188" lon="23.571982"><ele>2636</ele><time>2026-03-08T12:30:21.000Z</time></trkpt>
<trkpt lat="42.10188" lon="23.571978"><ele>2635.7</ele><time>2026-03-08T12:30:22.000Z</time></trkpt>
<trkpt lat="42.10188" lon="23.571973"><ele>2635.7</ele><time>2026-03-08T12:30:23.000Z</time></trkpt>
<trkpt lat="42.101882" lon="23.571968"><ele>2635.7</ele><time>2026-03-08T12:30:24.000Z</time></trkpt>
<trkpt lat="42.101884" lon="23.571962"><ele>2635.7</ele><time>2026-03-08T12:30:25.000Z</time></trkpt>
<trkpt lat="42.101886" lon="23.571955"><ele>2635.7</ele><time>2026-03-08T12:30:26.000Z</time></trkpt>
<trkpt lat="42.101888" lon="23.571948"><ele>2635.6</ele><time>2026-03-08T12:30:27.000Z</time></trkpt>
<trkpt lat="42.10189" lon="23.571938"><ele>2635.6</ele><time>2026-03-08T12:30:28.000Z</time></trkpt>
<trkpt lat="42.101891" lon="23.571928"><ele>2635.6</ele><time>2026-03-08T12:30:29.000Z</time></trkpt>
<trkpt lat="42.10189" lon="23.571916"><ele>2635.6</ele><time>2026-03-08T12:30:30.000Z</time></trkpt>
<trkpt lat="42.10189" lon="23.571902"><ele>2635.6</ele><time>2026-03-08T12:30:31.000Z</time></trkpt>
<trkpt lat="42.101888" lon="23.571888"><ele>2635.6</ele><time>2026-03-08T12:30:32.000Z</time></trkpt>
<trkpt lat="42.101886" lon="23.571873"><ele>2635.6</ele><time>2026-03-08T12:30:33.000Z</time></trkpt>
<trkpt lat="42.101882" lon="23.571858"><ele>2635.6</ele><time>2026-03-08T12:30:34.000Z</time></trkpt>
<trkpt lat="42.101878" lon="23.571843"><ele>2635.6</ele><time>2026-03-08T12:30:35.000Z</time></trkpt>
<trkpt lat="42.101873" lon="23.57183"><ele>2635.6</ele><time>2026-03-08T12:30:36.000Z</time></trkpt>
<trkpt lat="42.101869" lon="23.571819"><ele>2635.5</ele><time>2026-03-08T12:30:37.000Z</time></trkpt>
<trkpt lat="42.101867" lon="23.571812"><ele>2635.5</ele><time>2026-03-08T12:30:38.000Z</time></trkpt>
<trkpt lat="42.101865" lon="23.571809"><ele>2635.5</ele><time>2026-03-08T12:30:39.000Z</time></trkpt>
<trkpt lat="42.101865" lon="23.571809"><ele>2635.5</ele><time>2026-03-08T12:30:40.000Z</time></trkpt>
<trkpt lat="42.101866" lon="23.571811"><ele>2635.5</ele><time>2026-03-08T12:30:41.000Z</time></trkpt>
<trkpt lat="42.101867" lon="23.571814"><ele>2635.4</ele><time>2026-03-08T12:30:42.000Z</time></trkpt>
<trkpt lat="42.101867" lon="23.571816"><ele>2635.4</ele><time>2026-03-08T12:30:43.000Z</time></trkpt>
<trkpt lat="42.101868" lon="23.571817"><ele>2635.4</ele><time>2026-03-08T12:30:44.000Z</time></trkpt>
<trkpt lat="42.101868" lon="23.571818"><ele>2635.4</ele><time>2026-03-08T12:30:45.000Z</time></trkpt>
<trkpt lat="42.101868" lon="23.571819"><ele>2635.4</ele><time>2026-03-08T12:30:46.000Z</time></trkpt>
<trkpt lat="42.101868" lon="23.571819"><ele>2634.8</ele><time>2026-03-08T12:30:47.000Z</time></trkpt>
<trkpt lat="42.101869" lon="23.571818"><ele>2634.8</ele><time>2026-03-08T12:30:48.000Z</time></trkpt>
<trkpt lat="42.101869" lon="23.571818"><ele>2634.8</ele><time>2026-03-08T12:30:49.000Z</time></trkpt>
<trkpt lat="42.101869" lon="23.571818"><ele>2634.8</ele><time>2026-03-08T12:30:50.000Z</time></trkpt>
<trkpt lat="42.101869" lon="23.571817"><ele>2634.8</ele><time>2026-03-08T12:30:51.000Z</time></trkpt>
<trkpt lat="42.101866" lon="23.571816"><ele>2634.1</ele><time>2026-03-08T12:30:52.000Z</time></trkpt>
<trkpt lat="42.101864" lon="23.571816"><ele>2634.1</ele><time>2026-03-08T12:30:53.000Z</time></trkpt>
<trkpt lat="42.10186" lon="23.571818"><ele>2634.1</ele><time>2026-03-08T12:30:54.000Z</time></trkpt>
<trkpt lat="42.101857" lon="23.571819"><ele>2634.1</ele><time>2026-03-08T12:30:55.000Z</time></trkpt>
<trkpt lat="42.101854" lon="23.571822"><ele>2634.1</ele><time>2026-03-08T12:30:56.000Z</time></trkpt>
<trkpt lat="42.101852" lon="23.571824"><ele>2633.9</ele><time>2026-03-08T12:30:57.000Z</time></trkpt>
<trkpt lat="42.101849" lon="23.571824"><ele>2633.9</ele><time>2026-03-08T12:30:58.000Z</time></trkpt>
<trkpt lat="42.101846" lon="23.571824"><ele>2633.9</ele><time>2026-03-08T12:30:59.000Z</time></trkpt>
<trkpt lat="42.101841" lon="23.571822"><ele>2633.9</ele><time>2026-03-08T12:31:00.000Z</time></trkpt>
<trkpt lat="42.101836" lon="23.571821"><ele>2633.9</ele><time>2026-03-08T12:31:01.000Z</time></trkpt>
<trkpt lat="42.101831" lon="23.57182"><ele>2633.6</ele><time>2026-03-08T12:31:02.000Z</time></trkpt>
<trkpt lat="42.101824" lon="23.571819"><ele>2633.6</ele><time>2026-03-08T12:31:03.000Z</time></trkpt>
<trkpt lat="42.101818" lon="23.571818"><ele>2633.6</ele><time>2026-03-08T12:31:04.000Z</time></trkpt>
<trkpt lat="42.101813" lon="23.571817"><ele>2633.6</ele><time>2026-03-08T12:31:05.000Z</time></trkpt>
<trkpt lat="42.101809" lon="23.571816"><ele>2633.6</ele><time>2026-03-08T12:31:06.000Z</time></trkpt>
<trkpt lat="42.101805" lon="23.571815"><ele>2633.3</ele><time>2026-03-08T12:31:07.000Z</time></trkpt>
<trkpt lat="42.101803" lon="23.571811"><ele>2633.3</ele><time>2026-03-08T12:31:08.000Z</time></trkpt>
<trkpt lat="42.1018" lon="23.571805"><ele>2633.3</ele><time>2026-03-08T12:31:09.000Z</time></trkpt>
<trkpt lat="42.101796" lon="23.571799"><ele>2633.3</ele><time>2026-03-08T12:31:10.000Z</time></trkpt>
<trkpt lat="42.10179" lon="23.571793"><ele>2633.3</ele><time>2026-03-08T12:31:11.000Z</time></trkpt>
<trkpt lat="42.101784" lon="23.571787"><ele>2633</ele><time>2026-03-08T12:31:12.000Z</time></trkpt>
<trkpt lat="42.101778" lon="23.571782"><ele>2633</ele><time>2026-03-08T12:31:13.000Z</time></trkpt>
<trkpt lat="42.101771" lon="23.571776"><ele>2633</ele><time>2026-03-08T12:31:14.000Z</time></trkpt>
<trkpt lat="42.101766" lon="23.571771"><ele>2633</ele><time>2026-03-08T12:31:15.000Z</time></trkpt>
<trkpt lat="42.101761" lon="23.571765"><ele>2633</ele><time>2026-03-08T12:31:16.000Z</time></trkpt>
<trkpt lat="42.101758" lon="23.57176"><ele>2632.4</ele><time>2026-03-08T12:31:17.000Z</time></trkpt>
<trkpt lat="42.101756" lon="23.571757"><ele>2632.4</ele><time>2026-03-08T12:31:18.000Z</time></trkpt>
<trkpt lat="42.101756" lon="23.571755"><ele>2632.4</ele><time>2026-03-08T12:31:19.000Z</time></trkpt>
<trkpt lat="42.101756" lon="23.571754"><ele>2632.4</ele><time>2026-03-08T12:31:20.000Z</time></trkpt>
<trkpt lat="42.101756" lon="23.571755"><ele>2632.4</ele><time>2026-03-08T12:31:21.000Z</time></trkpt>
<trkpt lat="42.101756" lon="23.571755"><ele>2631.5</ele><time>2026-03-08T12:31:22.000Z</time></trkpt>
<trkpt lat="42.101756" lon="23.571755"><ele>2631.5</ele><time>2026-03-08T12:31:23.000Z</time></trkpt>
<trkpt lat="42.101756" lon="23.571755"><ele>2631.5</ele><time>2026-03-08T12:31:24.000Z</time></trkpt>
<trkpt lat="42.101756" lon="23.571755"><ele>2631.5</ele><time>2026-03-08T12:31:25.000Z</time></trkpt>
<trkpt lat="42.101756" lon="23.571756"><ele>2631.5</ele><time>2026-03-08T12:31:26.000Z</time></trkpt>
<trkpt lat="42.101757" lon="23.571756"><ele>2631.2</ele><time>2026-03-08T12:31:27.000Z</time></trkpt>
<trkpt lat="42.101757" lon="23.571756"><ele>2631.2</ele><time>2026-03-08T12:31:28.000Z</time></trkpt>
<trkpt lat="42.101757" lon="23.571757"><ele>2631.2</ele><time>2026-03-08T12:31:29.000Z</time></trkpt>
<trkpt lat="42.101757" lon="23.571757"><ele>2631.2</ele><time>2026-03-08T12:31:30.000Z</time></trkpt>
<trkpt lat="42.101757" lon="23.571757"><ele>2631.2</ele><time>2026-03-08T12:31:31.000Z</time></trkpt>
<trkpt lat="42.101757" lon="23.571757"><ele>2630.8</ele><time>2026-03-08T12:31:32.000Z</time></trkpt>
<trkpt lat="42.101757" lon="23.571757"><ele>2630.8</ele><time>2026-03-08T12:31:33.000Z</time></trkpt>
<trkpt lat="42.101757" lon="23.571757"><ele>2630.8</ele><time>2026-03-08T12:31:34.000Z</time></trkpt>
<trkpt lat="42.101757" lon="23.571757"><ele>2630.8</ele><time>2026-03-08T12:31:35.000Z</time></trkpt>
<trkpt lat="42.101756" lon="23.571759"><ele>2630.8</ele><time>2026-03-08T12:31:36.000Z</time></trkpt>
<trkpt lat="42.101755" lon="23.571761"><ele>2630.6</ele><time>2026-03-08T12:31:37.000Z</time></trkpt>
<trkpt lat="42.101753" lon="23.571762"><ele>2630.6</ele><time>2026-03-08T12:31:38.000Z</time></trkpt>
<trkpt lat="42.101749" lon="23.571763"><ele>2630.6</ele><time>2026-03-08T12:31:39.000Z</time></trkpt>
<trkpt lat="42.101744" lon="23.571763"><ele>2630.6</ele><time>2026-03-08T12:31:40.000Z</time></trkpt>
<trkpt lat="42.101737" lon="23.571764"><ele>2630.6</ele><time>2026-03-08T12:31:41.000Z</time></trkpt>
<trkpt lat="42.10173" lon="23.571764"><ele>2630.6</ele><time>2026-03-08T12:31:42.000Z</time></trkpt>
<trkpt lat="42.101725" lon="23.571765"><ele>2630.6</ele><time>2026-03-08T12:31:43.000Z</time></trkpt>
<trkpt lat="42.10172" lon="23.571766"><ele>2630.6</ele><time>2026-03-08T12:31:44.000Z</time></trkpt>
<trkpt lat="42.101716" lon="23.571766"><ele>2630.6</ele><time>2026-03-08T12:31:45.000Z</time></trkpt>
<trkpt lat="42.101712" lon="23.571763"><ele>2630.6</ele><time>2026-03-08T12:31:46.000Z</time></trkpt>
<trkpt lat="42.101706" lon="23.571757"><ele>2630.6</ele><time>2026-03-08T12:31:47.000Z</time></trkpt>
<trkpt lat="42.1017" lon="23.571749"><ele>2630.6</ele><time>2026-03-08T12:31:48.000Z</time></trkpt>
<trkpt lat="42.101694" lon="23.571741"><ele>2630.6</ele><time>2026-03-08T12:31:49.000Z</time></trkpt>
<trkpt lat="42.101687" lon="23.571734"><ele>2630.6</ele><time>2026-03-08T12:31:50.000Z</time></trkpt>
<trkpt lat="42.101683" lon="23.571728"><ele>2630.6</ele><time>2026-03-08T12:31:51.000Z</time></trkpt>
<trkpt lat="42.10168" lon="23.571725"><ele>2630.4</ele><time>2026-03-08T12:31:52.000Z</time></trkpt>
<trkpt lat="42.101679" lon="23.571724"><ele>2630.4</ele><time>2026-03-08T12:31:53.000Z</time></trkpt>
<trkpt lat="42.101679" lon="23.571724"><ele>2630.4</ele><time>2026-03-08T12:31:54.000Z</time></trkpt>
<trkpt lat="42.101679" lon="23.571723"><ele>2630.4</ele><time>2026-03-08T12:31:55.000Z</time></trkpt>
<trkpt lat="42.10168" lon="23.571724"><ele>2630.4</ele><time>2026-03-08T12:31:56.000Z</time></trkpt>
<trkpt lat="42.10168" lon="23.571724"><ele>2630.1</ele><time>2026-03-08T12:31:57.000Z</time></trkpt>
<trkpt lat="42.10168" lon="23.571724"><ele>2630.1</ele><time>2026-03-08T12:31:58.000Z</time></trkpt>
<trkpt lat="42.10168" lon="23.571724"><ele>2630.1</ele><time>2026-03-08T12:31:59.000Z</time></trkpt>
<trkpt lat="42.101679" lon="23.571723"><ele>2630.1</ele><time>2026-03-08T12:32:00.000Z</time></trkpt>
<trkpt lat="42.101679" lon="23.571723"><ele>2630.1</ele><time>2026-03-08T12:32:01.000Z</time></trkpt>
<trkpt lat="42.101678" lon="23.571722"><ele>2629.6</ele><time>2026-03-08T12:32:02.000Z</time></trkpt>
<trkpt lat="42.101678" lon="23.571722"><ele>2629.6</ele><time>2026-03-08T12:32:03.000Z</time></trkpt>
<trkpt lat="42.101677" lon="23.571721"><ele>2629.6</ele><time>2026-03-08T12:32:04.000Z</time></trkpt>
<trkpt lat="42.101677" lon="23.571721"><ele>2629.6</ele><time>2026-03-08T12:32:05.000Z</time></trkpt>
<trkpt lat="42.101677" lon="23.571721"><ele>2629.6</ele><time>2026-03-08T12:32:06.000Z</time></trkpt>
<trkpt lat="42.101677" lon="23.571721"><ele>2629.3</ele><time>2026-03-08T12:32:07.000Z</time></trkpt>
<trkpt lat="42.101677" lon="23.571721"><ele>2629.3</ele><time>2026-03-08T12:32:08.000Z</time></trkpt>
<trkpt lat="42.101677" lon="23.57172"><ele>2629.3</ele><time>2026-03-08T12:32:09.000Z</time></trkpt>
<trkpt lat="42.101678" lon="23.57172"><ele>2629.3</ele><time>2026-03-08T12:32:10.000Z</time></trkpt>
<trkpt lat="42.101678" lon="23.57172"><ele>2629.3</ele><time>2026-03-08T12:32:11.000Z</time></trkpt>
<trkpt lat="42.101678" lon="23.571719"><ele>2629.2</ele><time>2026-03-08T12:32:12.000Z</time></trkpt>
<trkpt lat="42.101679" lon="23.571719"><ele>2629.2</ele><time>2026-03-08T12:32:13.000Z</time></trkpt>
<trkpt lat="42.101679" lon="23.571718"><ele>2629.2</ele><time>2026-03-08T12:32:14.000Z</time></trkpt>
<trkpt lat="42.101679" lon="23.571718"><ele>2629.2</ele><time>2026-03-08T12:32:15.000Z</time></trkpt>
<trkpt lat="42.101679" lon="23.571717"><ele>2629.2</ele><time>2026-03-08T12:32:16.000Z</time></trkpt>
<trkpt lat="42.101679" lon="23.571717"><ele>2629.2</ele><time>2026-03-08T12:32:17.000Z</time></trkpt>
<trkpt lat="42.101679" lon="23.571716"><ele>2629.2</ele><time>2026-03-08T12:32:18.000Z</time></trkpt>
<trkpt lat="42.101679" lon="23.571716"><ele>2629.2</ele><time>2026-03-08T12:32:19.000Z</time></trkpt>
<trkpt lat="42.101679" lon="23.571716"><ele>2629.2</ele><time>2026-03-08T12:32:20.000Z</time></trkpt>
<trkpt lat="42.101677" lon="23.571718"><ele>2629.2</ele><time>2026-03-08T12:32:21.000Z</time></trkpt>
<trkpt lat="42.101673" lon="23.57172"><ele>2629.3</ele><time>2026-03-08T12:32:22.000Z</time></trkpt>
<trkpt lat="42.101668" lon="23.571723"><ele>2629.3</ele><time>2026-03-08T12:32:23.000Z</time></trkpt>
<trkpt lat="42.101661" lon="23.571727"><ele>2629.3</ele><time>2026-03-08T12:32:24.000Z</time></trkpt>
<trkpt lat="42.101653" lon="23.571732"><ele>2629.3</ele><time>2026-03-08T12:32:25.000Z</time></trkpt>
<trkpt lat="42.101645" lon="23.571736"><ele>2629.3</ele><time>2026-03-08T12:32:26.000Z</time></trkpt>
<trkpt lat="42.101636" lon="23.57174"><ele>2629.3</ele><time>2026-03-08T12:32:27.000Z</time></trkpt>
<trkpt lat="42.101627" lon="23.571743"><ele>2629.3</ele><time>2026-03-08T12:32:28.000Z</time></trkpt>
<trkpt lat="42.101619" lon="23.571745"><ele>2629.3</ele><time>2026-03-08T12:32:29.000Z</time></trkpt>
<trkpt lat="42.101611" lon="23.571746"><ele>2629.3</ele><time>2026-03-08T12:32:30.000Z</time></trkpt>
<trkpt lat="42.101604" lon="23.571747"><ele>2629.3</ele><time>2026-03-08T12:32:31.000Z</time></trkpt>
<trkpt lat="42.101597" lon="23.571748"><ele>2629.5</ele><time>2026-03-08T12:32:32.000Z</time></trkpt>
<trkpt lat="42.101591" lon="23.57175"><ele>2629.5</ele><time>2026-03-08T12:32:33.000Z</time></trkpt>
<trkpt lat="42.101584" lon="23.571753"><ele>2629.5</ele><time>2026-03-08T12:32:34.000Z</time></trkpt>
<trkpt lat="42.101577" lon="23.571756"><ele>2629.5</ele><time>2026-03-08T12:32:35.000Z</time></trkpt>
<trkpt lat="42.10157" lon="23.571761"><ele>2629.5</ele><time>2026-03-08T12:32:36.000Z</time></trkpt>
<trkpt lat="42.101563" lon="23.571765"><ele>2629.6</ele><time>2026-03-08T12:32:37.000Z</time></trkpt>
<trkpt lat="42.101555" lon="23.57177"><ele>2629.6</ele><time>2026-03-08T12:32:38.000Z</time></trkpt>
<trkpt lat="42.101546" lon="23.571775"><ele>2629.6</ele><time>2026-03-08T12:32:39.000Z</time></trkpt>
<trkpt lat="42.101537" lon="23.57178"><ele>2629.6</ele><time>2026-03-08T12:32:40.000Z</time></trkpt>
<trkpt lat="42.101529" lon="23.571783"><ele>2629.6</ele><time>2026-03-08T12:32:41.000Z</time></trkpt>
<trkpt lat="42.101519" lon="23.571785"><ele>2629.4</ele><time>2026-03-08T12:32:42.000Z</time></trkpt>
<trkpt lat="42.10151" lon="23.571787"><ele>2629.4</ele><time>2026-03-08T12:32:43.000Z</time></trkpt>
<trkpt lat="42.101502" lon="23.571789"><ele>2629.4</ele><time>2026-03-08T12:32:44.000Z</time></trkpt>
<trkpt lat="42.101493" lon="23.571792"><ele>2629.4</ele><time>2026-03-08T12:32:45.000Z</time></trkpt>
<trkpt lat="42.101485" lon="23.571795"><ele>2629.4</ele><time>2026-03-08T12:32:46.000Z</time></trkpt>
<trkpt lat="42.101479" lon="23.571799"><ele>2628.8</ele><time>2026-03-08T12:32:47.000Z</time></trkpt>
<trkpt lat="42.101473" lon="23.571804"><ele>2628.8</ele><time>2026-03-08T12:32:48.000Z</time></trkpt>
<trkpt lat="42.101469" lon="23.571807"><ele>2628.8</ele><time>2026-03-08T12:32:49.000Z</time></trkpt>
<trkpt lat="42.101466" lon="23.571809"><ele>2628.8</ele><time>2026-03-08T12:32:50.000Z</time></trkpt>
<trkpt lat="42.101464" lon="23.571811"><ele>2628.8</ele><time>2026-03-08T12:32:51.000Z</time></trkpt>
<trkpt lat="42.101463" lon="23.571814"><ele>2628</ele><time>2026-03-08T12:32:52.000Z</time></trkpt>
<trkpt lat="42.101462" lon="23.571817"><ele>2628</ele><time>2026-03-08T12:32:53.000Z</time></trkpt>
<trkpt lat="42.101459" lon="23.571824"><ele>2628</ele><time>2026-03-08T12:32:54.000Z</time></trkpt>
<trkpt lat="42.101456" lon="23.571832"><ele>2628</ele><time>2026-03-08T12:32:55.000Z</time></trkpt>
<trkpt lat="42.101451" lon="23.571841"><ele>2628</ele><time>2026-03-08T12:32:56.000Z</time></trkpt>
<trkpt lat="42.101445" lon="23.571851"><ele>2627.8</ele><time>2026-03-08T12:32:57.000Z</time></trkpt>
<trkpt lat="42.101438" lon="23.57186"><ele>2627.8</ele><time>2026-03-08T12:32:58.000Z</time></trkpt>
<trkpt lat="42.10143" lon="23.571869"><ele>2627.8</ele><time>2026-03-08T12:32:59.000Z</time></trkpt>
<trkpt lat="42.101422" lon="23.571877"><ele>2627.8</ele><time>2026-03-08T12:33:00.000Z</time></trkpt>
<trkpt lat="42.101414" lon="23.571885"><ele>2627.8</ele><time>2026-03-08T12:33:01.000Z</time></trkpt>
<trkpt lat="42.101407" lon="23.571893"><ele>2627.4</ele><time>2026-03-08T12:33:02.000Z</time></trkpt>
<trkpt lat="42.101399" lon="23.571901"><ele>2627.4</ele><time>2026-03-08T12:33:03.000Z</time></trkpt>
<trkpt lat="42.101391" lon="23.57191"><ele>2627.4</ele><time>2026-03-08T12:33:04.000Z</time></trkpt>
<trkpt lat="42.101383" lon="23.571918"><ele>2627.4</ele><time>2026-03-08T12:33:05.000Z</time></trkpt>
<trkpt lat="42.101374" lon="23.571926"><ele>2627.4</ele><time>2026-03-08T12:33:06.000Z</time></trkpt>
<trkpt lat="42.101365" lon="23.571934"><ele>2627.2</ele><time>2026-03-08T12:33:07.000Z</time></trkpt>
<trkpt lat="42.101356" lon="23.57194"><ele>2627.2</ele><time>2026-03-08T12:33:08.000Z</time></trkpt>
<trkpt lat="42.101347" lon="23.571946"><ele>2627.2</ele><time>2026-03-08T12:33:09.000Z</time></trkpt>
<trkpt lat="42.101337" lon="23.57195"><ele>2627.2</ele><time>2026-03-08T12:33:10.000Z</time></trkpt>
<trkpt lat="42.101328" lon="23.571952"><ele>2627.2</ele><time>2026-03-08T12:33:11.000Z</time></trkpt>
<trkpt lat="42.101317" lon="23.571955"><ele>2627</ele><time>2026-03-08T12:33:12.000Z</time></trkpt>
<trkpt lat="42.101306" lon="23.571959"><ele>2627</ele><time>2026-03-08T12:33:13.000Z</time></trkpt>
<trkpt lat="42.101295" lon="23.571963"><ele>2627</ele><time>2026-03-08T12:33:14.000Z</time></trkpt>
<trkpt lat="42.101283" lon="23.571969"><ele>2627</ele><time>2026-03-08T12:33:15.000Z</time></trkpt>
<trkpt lat="42.101271" lon="23.571976"><ele>2627</ele><time>2026-03-08T12:33:16.000Z</time></trkpt>
<trkpt lat="42.10126" lon="23.571982"><ele>2626.2</ele><time>2026-03-08T12:33:17.000Z</time></trkpt>
<trkpt lat="42.101248" lon="23.571988"><ele>2626.2</ele><time>2026-03-08T12:33:18.000Z</time></trkpt>
<trkpt lat="42.101237" lon="23.571995"><ele>2626.2</ele><time>2026-03-08T12:33:19.000Z</time></trkpt>
<trkpt lat="42.101225" lon="23.572002"><ele>2626.2</ele><time>2026-03-08T12:33:20.000Z</time></trkpt>
<trkpt lat="42.101214" lon="23.572008"><ele>2626.2</ele><time>2026-03-08T12:33:21.000Z</time></trkpt>
<trkpt lat="42.101203" lon="23.572014"><ele>2625.4</ele><time>2026-03-08T12:33:22.000Z</time></trkpt>
<trkpt lat="42.101193" lon="23.572019"><ele>2625.4</ele><time>2026-03-08T12:33:23.000Z</time></trkpt>
<trkpt lat="42.101183" lon="23.572025"><ele>2625.4</ele><time>2026-03-08T12:33:24.000Z</time></trkpt>
<trkpt lat="42.101172" lon="23.572031"><ele>2625.4</ele><time>2026-03-08T12:33:25.000Z</time></trkpt>
<trkpt lat="42.101162" lon="23.572037"><ele>2625.4</ele><time>2026-03-08T12:33:26.000Z</time></trkpt>
<trkpt lat="42.101151" lon="23.572043"><ele>2624.9</ele><time>2026-03-08T12:33:27.000Z</time></trkpt>
<trkpt lat="42.10114" lon="23.572049"><ele>2624.9</ele><time>2026-03-08T12:33:28.000Z</time></trkpt>
<trkpt lat="42.101129" lon="23.572054"><ele>2624.9</ele><time>2026-03-08T12:33:29.000Z</time></trkpt>
<trkpt lat="42.101118" lon="23.572059"><ele>2624.9</ele><time>2026-03-08T12:33:30.000Z</time></trkpt>
<trkpt lat="42.101106" lon="23.572064"><ele>2624.9</ele><time>2026-03-08T12:33:31.000Z</time></trkpt>
<trkpt lat="42.101096" lon="23.572069"><ele>2624.1</ele><time>2026-03-08T12:33:32.000Z</time></trkpt>
<trkpt lat="42.101087" lon="23.572075"><ele>2624.1</ele><time>2026-03-08T12:33:33.000Z</time></trkpt>
<trkpt lat="42.101078" lon="23.572082"><ele>2624.1</ele><time>2026-03-08T12:33:34.000Z</time></trkpt>
<trkpt lat="42.101072" lon="23.57209"><ele>2624.1</ele><time>2026-03-08T12:33:35.000Z</time></trkpt>
<trkpt lat="42.101066" lon="23.5721"><ele>2624.1</ele><time>2026-03-08T12:33:36.000Z</time></trkpt>
<trkpt lat="42.101062" lon="23.572109"><ele>2623.3</ele><time>2026-03-08T12:33:37.000Z</time></trkpt>
<trkpt lat="42.101057" lon="23.57212"><ele>2623.3</ele><time>2026-03-08T12:33:38.000Z</time></trkpt>
<trkpt lat="42.101052" lon="23.572129"><ele>2623.3</ele><time>2026-03-08T12:33:39.000Z</time></trkpt>
<trkpt lat="42.101049" lon="23.572137"><ele>2623.3</ele><time>2026-03-08T12:33:40.000Z</time></trkpt>
<trkpt lat="42.101045" lon="23.572145"><ele>2623.3</ele><time>2026-03-08T12:33:41.000Z</time></trkpt>
<trkpt lat="42.101043" lon="23.572152"><ele>2622.9</ele><time>2026-03-08T12:33:42.000Z</time></trkpt>
<trkpt lat="42.101042" lon="23.572158"><ele>2622.9</ele><time>2026-03-08T12:33:43.000Z</time></trkpt>
<trkpt lat="42.101041" lon="23.572163"><ele>2622.9</ele><time>2026-03-08T12:33:44.000Z</time></trkpt>
<trkpt lat="42.10104" lon="23.572167"><ele>2622.9</ele><time>2026-03-08T12:33:45.000Z</time></trkpt>
<trkpt lat="42.10104" lon="23.572169"><ele>2622.9</ele><time>2026-03-08T12:33:46.000Z</time></trkpt>
<trkpt lat="42.10104" lon="23.572171"><ele>2622.3</ele><time>2026-03-08T12:33:47.000Z</time></trkpt>
<trkpt lat="42.10104" lon="23.572171"><ele>2622.3</ele><time>2026-03-08T12:33:48.000Z</time></trkpt>
<trkpt lat="42.101041" lon="23.572171"><ele>2622.3</ele><time>2026-03-08T12:33:49.000Z</time></trkpt>
<trkpt lat="42.101041" lon="23.572171"><ele>2622.3</ele><time>2026-03-08T12:33:50.000Z</time></trkpt>
<trkpt lat="42.101041" lon="23.572172"><ele>2622.3</ele><time>2026-03-08T12:33:51.000Z</time></trkpt>
<trkpt lat="42.101041" lon="23.572172"><ele>2622.4</ele><time>2026-03-08T12:33:52.000Z</time></trkpt>
<trkpt lat="42.10104" lon="23.572173"><ele>2622.4</ele><time>2026-03-08T12:33:53.000Z</time></trkpt>
<trkpt lat="42.10104" lon="23.572173"><ele>2622.4</ele><time>2026-03-08T12:33:54.000Z</time></trkpt>
<trkpt lat="42.10104" lon="23.572173"><ele>2622.4</ele><time>2026-03-08T12:33:55.000Z</time></trkpt>
<trkpt lat="42.10104" lon="23.572173"><ele>2622.4</ele><time>2026-03-08T12:33:56.000Z</time></trkpt>
<trkpt lat="42.10104" lon="23.572172"><ele>2622.6</ele><time>2026-03-08T12:33:57.000Z</time></trkpt>
<trkpt lat="42.10104" lon="23.572172"><ele>2622.6</ele><time>2026-03-08T12:33:58.000Z</time></trkpt>
<trkpt lat="42.10104" lon="23.572172"><ele>2622.6</ele><time>2026-03-08T12:33:59.000Z</time></trkpt>
<trkpt lat="42.10104" lon="23.572172"><ele>2622.6</ele><time>2026-03-08T12:34:00.000Z</time></trkpt>
<trkpt lat="42.10104" lon="23.572172"><ele>2622.6</ele><time>2026-03-08T12:34:01.000Z</time></trkpt>
<trkpt lat="42.10104" lon="23.572172"><ele>2623.2</ele><time>2026-03-08T12:34:02.000Z</time></trkpt>
<trkpt lat="42.10104" lon="23.572172"><ele>2623.2</ele><time>2026-03-08T12:34:03.000Z</time></trkpt>
<trkpt lat="42.10104" lon="23.572172"><ele>2623.2</ele><time>2026-03-08T12:34:04.000Z</time></trkpt>
<trkpt lat="42.10104" lon="23.572172"><ele>2623.2</ele><time>2026-03-08T12:34:05.000Z</time></trkpt>
<trkpt lat="42.10104" lon="23.572173"><ele>2623.2</ele><time>2026-03-08T12:34:06.000Z</time></trkpt>
<trkpt lat="42.101039" lon="23.572174"><ele>2623.5</ele><time>2026-03-08T12:34:07.000Z</time></trkpt>
<trkpt lat="42.101038" lon="23.572176"><ele>2623.5</ele><time>2026-03-08T12:34:08.000Z</time></trkpt>
<trkpt lat="42.101037" lon="23.572179"><ele>2623.5</ele><time>2026-03-08T12:34:09.000Z</time></trkpt>
<trkpt lat="42.101035" lon="23.572181"><ele>2623.5</ele><time>2026-03-08T12:34:10.000Z</time></trkpt>
<trkpt lat="42.101033" lon="23.572183"><ele>2623.5</ele><time>2026-03-08T12:34:11.000Z</time></trkpt>
<trkpt lat="42.101032" lon="23.572185"><ele>2623.6</ele><time>2026-03-08T12:34:12.000Z</time></trkpt>
<trkpt lat="42.101031" lon="23.572187"><ele>2623.6</ele><time>2026-03-08T12:34:13.000Z</time></trkpt>
<trkpt lat="42.101031" lon="23.572189"><ele>2623.6</ele><time>2026-03-08T12:34:14.000Z</time></trkpt>
<trkpt lat="42.101031" lon="23.57219"><ele>2623.6</ele><time>2026-03-08T12:34:15.000Z</time></trkpt>
<trkpt lat="42.101031" lon="23.572191"><ele>2623.6</ele><time>2026-03-08T12:34:16.000Z</time></trkpt>
<trkpt lat="42.101031" lon="23.572191"><ele>2623.5</ele><time>2026-03-08T12:34:17.000Z</time></trkpt>
<trkpt lat="42.101031" lon="23.572191"><ele>2623.5</ele><time>2026-03-08T12:34:18.000Z</time></trkpt>
<trkpt lat="42.101031" lon="23.572191"><ele>2623.5</ele><time>2026-03-08T12:34:19.000Z</time></trkpt>
<trkpt lat="42.101031" lon="23.572191"><ele>2623.5</ele><time>2026-03-08T12:34:20.000Z</time></trkpt>
<trkpt lat="42.10103" lon="23.572191"><ele>2623.5</ele><time>2026-03-08T12:34:21.000Z</time></trkpt>
<trkpt lat="42.10103" lon="23.572191"><ele>2623.1</ele><time>2026-03-08T12:34:22.000Z</time></trkpt>
<trkpt lat="42.10103" lon="23.572191"><ele>2623.1</ele><time>2026-03-08T12:34:23.000Z</time></trkpt>
<trkpt lat="42.10103" lon="23.572191"><ele>2623.1</ele><time>2026-03-08T12:34:24.000Z</time></trkpt>
<trkpt lat="42.10103" lon="23.572191"><ele>2623.1</ele><time>2026-03-08T12:34:25.000Z</time></trkpt>
<trkpt lat="42.101029" lon="23.572191"><ele>2623.1</ele><time>2026-03-08T12:34:26.000Z</time></trkpt>
<trkpt lat="42.101029" lon="23.572191"><ele>2622.9</ele><time>2026-03-08T12:34:27.000Z</time></trkpt>
<trkpt lat="42.101029" lon="23.57219"><ele>2622.9</ele><time>2026-03-08T12:34:28.000Z</time></trkpt>
<trkpt lat="42.101029" lon="23.57219"><ele>2622.9</ele><time>2026-03-08T12:34:29.000Z</time></trkpt>
<trkpt lat="42.101029" lon="23.57219"><ele>2622.9</ele><time>2026-03-08T12:34:30.000Z</time></trkpt>
<trkpt lat="42.101029" lon="23.57219"><ele>2622.9</ele><time>2026-03-08T12:34:31.000Z</time></trkpt>
<trkpt lat="42.101029" lon="23.57219"><ele>2622.7</ele><time>2026-03-08T12:34:32.000Z</time></trkpt>
<trkpt lat="42.101029" lon="23.57219"><ele>2622.7</ele><time>2026-03-08T12:34:33.000Z</time></trkpt>
<trkpt lat="42.101029" lon="23.57219"><ele>2622.7</ele><time>2026-03-08T12:34:34.000Z</time></trkpt>
<trkpt lat="42.101029" lon="23.57219"><ele>2622.7</ele><time>2026-03-08T12:34:35.000Z</time></trkpt>
<trkpt lat="42.101029" lon="23.57219"><ele>2622.7</ele><time>2026-03-08T12:34:36.000Z</time></trkpt>
<trkpt lat="42.101029" lon="23.57219"><ele>2622.8</ele><time>2026-03-08T12:34:37.000Z</time></trkpt>
<trkpt lat="42.101029" lon="23.57219"><ele>2622.8</ele><time>2026-03-08T12:34:38.000Z</time></trkpt>
<trkpt lat="42.10103" lon="23.572191"><ele>2622.8</ele><time>2026-03-08T12:34:39.000Z</time></trkpt>
<trkpt lat="42.10103" lon="23.572191"><ele>2622.8</ele><time>2026-03-08T12:34:40.000Z</time></trkpt>
<trkpt lat="42.10103" lon="23.572191"><ele>2622.8</ele><time>2026-03-08T12:34:41.000Z</time></trkpt>
<trkpt lat="42.101031" lon="23.572192"><ele>2622.8</ele><time>2026-03-08T12:34:42.000Z</time></trkpt>
<trkpt lat="42.101031" lon="23.572192"><ele>2622.8</ele><time>2026-03-08T12:34:43.000Z</time></trkpt>
<trkpt lat="42.101031" lon="23.572192"><ele>2622.8</ele><time>2026-03-08T12:34:44.000Z</time></trkpt>
<trkpt lat="42.101031" lon="23.572192"><ele>2622.8</ele><time>2026-03-08T12:34:45.000Z</time></trkpt>
<trkpt lat="42.101031" lon="23.572192"><ele>2622.8</ele><time>2026-03-08T12:34:46.000Z</time></trkpt>
<trkpt lat="42.101031" lon="23.572192"><ele>2622.7</ele><time>2026-03-08T12:34:47.000Z</time></trkpt>
<trkpt lat="42.101031" lon="23.572192"><ele>2622.7</ele><time>2026-03-08T12:34:48.000Z</time></trkpt>
<trkpt lat="42.101031" lon="23.572192"><ele>2622.7</ele><time>2026-03-08T12:34:49.000Z</time></trkpt>
<trkpt lat="42.101031" lon="23.572192"><ele>2622.7</ele><time>2026-03-08T12:34:50.000Z</time></trkpt>
<trkpt lat="42.101031" lon="23.572191"><ele>2622.7</ele><time>2026-03-08T12:34:51.000Z</time></trkpt>
<trkpt lat="42.101031" lon="23.572191"><ele>2622.6</ele><time>2026-03-08T12:34:52.000Z</time></trkpt>
<trkpt lat="42.101031" lon="23.57219"><ele>2622.6</ele><time>2026-03-08T12:34:53.000Z</time></trkpt>
<trkpt lat="42.10103" lon="23.57219"><ele>2622.6</ele><time>2026-03-08T12:34:54.000Z</time></trkpt>
<trkpt lat="42.10103" lon="23.57219"><ele>2622.6</ele><time>2026-03-08T12:34:55.000Z</time></trkpt>
<trkpt lat="42.10103" lon="23.57219"><ele>2622.6</ele><time>2026-03-08T12:34:56.000Z</time></trkpt>
<trkpt lat="42.10103" lon="23.57219"><ele>2622.6</ele><time>2026-03-08T12:34:57.000Z</time></trkpt>
<trkpt lat="42.10103" lon="23.57219"><ele>2622.6</ele><time>2026-03-08T12:34:58.000Z</time></trkpt>
<trkpt lat="42.10103" lon="23.57219"><ele>2622.6</ele><time>2026-03-08T12:34:59.000Z</time></trkpt>
<trkpt lat="42.10103" lon="23.57219"><ele>2622.6</ele><time>2026-03-08T12:35:00.000Z</time></trkpt>
<trkpt lat="42.101029" lon="23.57219"><ele>2622.6</ele><time>2026-03-08T12:35:01.000Z</time></trkpt>
<trkpt lat="42.101026" lon="23.57219"><ele>2622.6</ele><time>2026-03-08T12:35:02.000Z</time></trkpt>
<trkpt lat="42.101022" lon="23.572188"><ele>2622.6</ele><time>2026-03-08T12:35:03.000Z</time></trkpt>
<trkpt lat="42.101016" lon="23.572186"><ele>2622.6</ele><time>2026-03-08T12:35:04.000Z</time></trkpt>
<trkpt lat="42.101007" lon="23.572182"><ele>2622.6</ele><time>2026-03-08T12:35:05.000Z</time></trkpt>
<trkpt lat="42.100998" lon="23.572177"><ele>2622.6</ele><time>2026-03-08T12:35:06.000Z</time></trkpt>
<trkpt lat="42.100987" lon="23.572173"><ele>2622.5</ele><time>2026-03-08T12:35:07.000Z</time></trkpt>
<trkpt lat="42.100977" lon="23.572169"><ele>2622.5</ele><time>2026-03-08T12:35:08.000Z</time></trkpt>
<trkpt lat="42.100967" lon="23.572166"><ele>2622.5</ele><time>2026-03-08T12:35:09.000Z</time></trkpt>
<trkpt lat="42.100958" lon="23.572165"><ele>2622.5</ele><time>2026-03-08T12:35:10.000Z</time></trkpt>
<trkpt lat="42.10095" lon="23.572166"><ele>2622.5</ele><time>2026-03-08T12:35:11.000Z</time></trkpt>
<trkpt lat="42.100941" lon="23.572168"><ele>2622.5</ele><time>2026-03-08T12:35:12.000Z</time></trkpt>
<trkpt lat="42.100933" lon="23.572171"><ele>2622.5</ele><time>2026-03-08T12:35:13.000Z</time></trkpt>
<trkpt lat="42.100925" lon="23.572177"><ele>2622.5</ele><time>2026-03-08T12:35:14.000Z</time></trkpt>
<trkpt lat="42.100918" lon="23.572183"><ele>2622.5</ele><time>2026-03-08T12:35:15.000Z</time></trkpt>
<trkpt lat="42.10091" lon="23.572189"><ele>2622.5</ele><time>2026-03-08T12:35:16.000Z</time></trkpt>
<trkpt lat="42.100903" lon="23.572196"><ele>2622.1</ele><time>2026-03-08T12:35:17.000Z</time></trkpt>
<trkpt lat="42.100895" lon="23.572203"><ele>2622.1</ele><time>2026-03-08T12:35:18.000Z</time></trkpt>
<trkpt lat="42.100885" lon="23.57221"><ele>2622.1</ele><time>2026-03-08T12:35:19.000Z</time></trkpt>
<trkpt lat="42.100875" lon="23.572216"><ele>2622.1</ele><time>2026-03-08T12:35:20.000Z</time></trkpt>
<trkpt lat="42.100867" lon="23.572222"><ele>2622.1</ele><time>2026-03-08T12:35:21.000Z</time></trkpt>
<trkpt lat="42.100859" lon="23.572228"><ele>2621.6</ele><time>2026-03-08T12:35:22.000Z</time></trkpt>
<trkpt lat="42.100851" lon="23.572235"><ele>2621.6</ele><time>2026-03-08T12:35:23.000Z</time></trkpt>
<trkpt lat="42.100844" lon="23.572242"><ele>2621.6</ele><time>2026-03-08T12:35:24.000Z</time></trkpt>
<trkpt lat="42.100838" lon="23.572251"><ele>2621.6</ele><time>2026-03-08T12:35:25.000Z</time></trkpt>
<trkpt lat="42.100831" lon="23.57226"><ele>2621.6</ele><time>2026-03-08T12:35:26.000Z</time></trkpt>
<trkpt lat="42.100824" lon="23.572269"><ele>2621.3</ele><time>2026-03-08T12:35:27.000Z</time></trkpt>
<trkpt lat="42.100816" lon="23.572278"><ele>2621.3</ele><time>2026-03-08T12:35:28.000Z</time></trkpt>
<trkpt lat="42.100808" lon="23.572286"><ele>2621.3</ele><time>2026-03-08T12:35:29.000Z</time></trkpt>
<trkpt lat="42.100798" lon="23.572293"><ele>2621.3</ele><time>2026-03-08T12:35:30.000Z</time></trkpt>
<trkpt lat="42.100788" lon="23.572299"><ele>2621.3</ele><time>2026-03-08T12:35:31.000Z</time></trkpt>
<trkpt lat="42.100778" lon="23.572305"><ele>2621</ele><time>2026-03-08T12:35:32.000Z</time></trkpt>
<trkpt lat="42.100769" lon="23.572309"><ele>2621</ele><time>2026-03-08T12:35:33.000Z</time></trkpt>
<trkpt lat="42.10076" lon="23.572312"><ele>2621</ele><time>2026-03-08T12:35:34.000Z</time></trkpt>
<trkpt lat="42.100753" lon="23.572317"><ele>2621</ele><time>2026-03-08T12:35:35.000Z</time></trkpt>
<trkpt lat="42.100747" lon="23.572321"><ele>2621</ele><time>2026-03-08T12:35:36.000Z</time></trkpt>
<trkpt lat="42.100742" lon="23.572329"><ele>2620.7</ele><time>2026-03-08T12:35:37.000Z</time></trkpt>
<trkpt lat="42.100738" lon="23.572338"><ele>2620.7</ele><time>2026-03-08T12:35:38.000Z</time></trkpt>
<trkpt lat="42.100733" lon="23.572346"><ele>2620.7</ele><time>2026-03-08T12:35:39.000Z</time></trkpt>
<trkpt lat="42.100728" lon="23.572354"><ele>2620.7</ele><time>2026-03-08T12:35:40.000Z</time></trkpt>
<trkpt lat="42.100724" lon="23.572362"><ele>2620.7</ele><time>2026-03-08T12:35:41.000Z</time></trkpt>
<trkpt lat="42.100718" lon="23.572367"><ele>2620.6</ele><time>2026-03-08T12:35:42.000Z</time></trkpt>
<trkpt lat="42.100712" lon="23.572373"><ele>2620.6</ele><time>2026-03-08T12:35:43.000Z</time></trkpt>
<trkpt lat="42.100706" lon="23.57238"><ele>2620.6</ele><time>2026-03-08T12:35:44.000Z</time></trkpt>
<trkpt lat="42.100699" lon="23.572389"><ele>2620.6</ele><time>2026-03-08T12:35:45.000Z</time></trkpt>
<trkpt lat="42.100692" lon="23.572398"><ele>2620.6</ele><time>2026-03-08T12:35:46.000Z</time></trkpt>
<trkpt lat="42.100684" lon="23.572408"><ele>2620.4</ele><time>2026-03-08T12:35:47.000Z</time></trkpt>
<trkpt lat="42.100675" lon="23.572418"><ele>2620.4</ele><time>2026-03-08T12:35:48.000Z</time></trkpt>
<trkpt lat="42.100667" lon="23.572427"><ele>2620.4</ele><time>2026-03-08T12:35:49.000Z</time></trkpt>
<trkpt lat="42.100658" lon="23.572436"><ele>2620.4</ele><time>2026-03-08T12:35:50.000Z</time></trkpt>
<trkpt lat="42.10065" lon="23.572445"><ele>2620.4</ele><time>2026-03-08T12:35:51.000Z</time></trkpt>
<trkpt lat="42.100642" lon="23.572454"><ele>2620.4</ele><time>2026-03-08T12:35:52.000Z</time></trkpt>
<trkpt lat="42.100636" lon="23.572461"><ele>2620.4</ele><time>2026-03-08T12:35:53.000Z</time></trkpt>
<trkpt lat="42.100629" lon="23.57247"><ele>2620.4</ele><time>2026-03-08T12:35:54.000Z</time></trkpt>
<trkpt lat="42.100622" lon="23.572479"><ele>2620.4</ele><time>2026-03-08T12:35:55.000Z</time></trkpt>
<trkpt lat="42.100615" lon="23.572489"><ele>2620.4</ele><time>2026-03-08T12:35:56.000Z</time></trkpt>
<trkpt lat="42.100608" lon="23.572499"><ele>2620.5</ele><time>2026-03-08T12:35:57.000Z</time></trkpt>
<trkpt lat="42.100601" lon="23.57251"><ele>2620.5</ele><time>2026-03-08T12:35:58.000Z</time></trkpt>
<trkpt lat="42.100595" lon="23.572519"><ele>2620.5</ele><time>2026-03-08T12:35:59.000Z</time></trkpt>
<trkpt lat="42.100589" lon="23.572528"><ele>2620.5</ele><time>2026-03-08T12:36:00.000Z</time></trkpt>
<trkpt lat="42.100584" lon="23.572535"><ele>2620.5</ele><time>2026-03-08T12:36:01.000Z</time></trkpt>
<trkpt lat="42.100579" lon="23.572542"><ele>2620.7</ele><time>2026-03-08T12:36:02.000Z</time></trkpt>
<trkpt lat="42.100575" lon="23.572548"><ele>2620.7</ele><time>2026-03-08T12:36:03.000Z</time></trkpt>
<trkpt lat="42.10057" lon="23.572555"><ele>2620.7</ele><time>2026-03-08T12:36:04.000Z</time></trkpt>
<trkpt lat="42.100565" lon="23.572563"><ele>2620.7</ele><time>2026-03-08T12:36:05.000Z</time></trkpt>
<trkpt lat="42.10056" lon="23.572572"><ele>2620.7</ele><time>2026-03-08T12:36:06.000Z</time></trkpt>
<trkpt lat="42.100555" lon="23.572581"><ele>2620.9</ele><time>2026-03-08T12:36:07.000Z</time></trkpt>
<trkpt lat="42.100549" lon="23.572592"><ele>2620.9</ele><time>2026-03-08T12:36:08.000Z</time></trkpt>
<trkpt lat="42.100544" lon="23.572602"><ele>2620.9</ele><time>2026-03-08T12:36:09.000Z</time></trkpt>
<trkpt lat="42.100539" lon="23.572611"><ele>2620.9</ele><time>2026-03-08T12:36:10.000Z</time></trkpt>
<trkpt lat="42.100533" lon="23.57262"><ele>2620.9</ele><time>2026-03-08T12:36:11.000Z</time></trkpt>
<trkpt lat="42.100526" lon="23.572628"><ele>2621</ele><time>2026-03-08T12:36:12.000Z</time></trkpt>
<trkpt lat="42.100518" lon="23.572636"><ele>2621</ele><time>2026-03-08T12:36:13.000Z</time></trkpt>
<trkpt lat="42.100511" lon="23.572643"><ele>2621</ele><time>2026-03-08T12:36:14.000Z</time></trkpt>
<trkpt lat="42.100503" lon="23.572651"><ele>2621</ele><time>2026-03-08T12:36:15.000Z</time></trkpt>
<trkpt lat="42.100496" lon="23.572659"><ele>2621</ele><time>2026-03-08T12:36:16.000Z</time></trkpt>
<trkpt lat="42.100489" lon="23.572667"><ele>2621.4</ele><time>2026-03-08T12:36:17.000Z</time></trkpt>
<trkpt lat="42.100481" lon="23.572674"><ele>2621.4</ele><time>2026-03-08T12:36:18.000Z</time></trkpt>
<trkpt lat="42.100474" lon="23.572682"><ele>2621.4</ele><time>2026-03-08T12:36:19.000Z</time></trkpt>
<trkpt lat="42.100466" lon="23.57269"><ele>2621.4</ele><time>2026-03-08T12:36:20.000Z</time></trkpt>
<trkpt lat="42.100458" lon="23.572698"><ele>2621.4</ele><time>2026-03-08T12:36:21.000Z</time></trkpt>
<trkpt lat="42.100451" lon="23.572706"><ele>2621.8</ele><time>2026-03-08T12:36:22.000Z</time></trkpt>
<trkpt lat="42.100443" lon="23.572715"><ele>2621.8</ele><time>2026-03-08T12:36:23.000Z</time></trkpt>
<trkpt lat="42.100435" lon="23.572724"><ele>2621.8</ele><time>2026-03-08T12:36:24.000Z</time></trkpt>
<trkpt lat="42.100427" lon="23.572733"><ele>2621.8</ele><time>2026-03-08T12:36:25.000Z</time></trkpt>
<trkpt lat="42.100419" lon="23.572741"><ele>2621.8</ele><time>2026-03-08T12:36:26.000Z</time></trkpt>
<trkpt lat="42.100411" lon="23.572751"><ele>2622</ele><time>2026-03-08T12:36:27.000Z</time></trkpt>
<trkpt lat="42.100402" lon="23.57276"><ele>2622</ele><time>2026-03-08T12:36:28.000Z</time></trkpt>
<trkpt lat="42.100392" lon="23.572769"><ele>2622</ele><time>2026-03-08T12:36:29.000Z</time></trkpt>
<trkpt lat="42.100384" lon="23.572777"><ele>2622</ele><time>2026-03-08T12:36:30.000Z</time></trkpt>
<trkpt lat="42.100375" lon="23.572784"><ele>2622</ele><time>2026-03-08T12:36:31.000Z</time></trkpt>
<trkpt lat="42.100365" lon="23.572792"><ele>2622.2</ele><time>2026-03-08T12:36:32.000Z</time></trkpt>
<trkpt lat="42.100356" lon="23.572799"><ele>2622.2</ele><time>2026-03-08T12:36:33.000Z</time></trkpt>
<trkpt lat="42.100346" lon="23.572806"><ele>2622.2</ele><time>2026-03-08T12:36:34.000Z</time></trkpt>
<trkpt lat="42.100336" lon="23.572812"><ele>2622.2</ele><time>2026-03-08T12:36:35.000Z</time></trkpt>
<trkpt lat="42.100327" lon="23.572819"><ele>2622.2</ele><time>2026-03-08T12:36:36.000Z</time></trkpt>
<trkpt lat="42.100318" lon="23.572825"><ele>2622.3</ele><time>2026-03-08T12:36:37.000Z</time></trkpt>
<trkpt lat="42.10031" lon="23.572832"><ele>2622.3</ele><time>2026-03-08T12:36:38.000Z</time></trkpt>
<trkpt lat="42.100302" lon="23.57284"><ele>2622.3</ele><time>2026-03-08T12:36:39.000Z</time></trkpt>
<trkpt lat="42.100294" lon="23.572847"><ele>2622.3</ele><time>2026-03-08T12:36:40.000Z</time></trkpt>
<trkpt lat="42.100286" lon="23.572856"><ele>2622.3</ele><time>2026-03-08T12:36:41.000Z</time></trkpt>
<trkpt lat="42.100278" lon="23.572864"><ele>2622.3</ele><time>2026-03-08T12:36:42.000Z</time></trkpt>
<trkpt lat="42.100269" lon="23.572873"><ele>2622.3</ele><time>2026-03-08T12:36:43.000Z</time></trkpt>
<trkpt lat="42.100259" lon="23.572882"><ele>2622.3</ele><time>2026-03-08T12:36:44.000Z</time></trkpt>
<trkpt lat="42.100249" lon="23.572892"><ele>2622.3</ele><time>2026-03-08T12:36:45.000Z</time></trkpt>
<trkpt lat="42.100239" lon="23.5729"><ele>2622.3</ele><time>2026-03-08T12:36:46.000Z</time></trkpt>
<trkpt lat="42.100229" lon="23.572908"><ele>2622.2</ele><time>2026-03-08T12:36:47.000Z</time></trkpt>
<trkpt lat="42.10022" lon="23.572916"><ele>2622.2</ele><time>2026-03-08T12:36:48.000Z</time></trkpt>
<trkpt lat="42.100211" lon="23.572922"><ele>2622.2</ele><time>2026-03-08T12:36:49.000Z</time></trkpt>
<trkpt lat="42.100201" lon="23.572927"><ele>2622.2</ele><time>2026-03-08T12:36:50.000Z</time></trkpt>
<trkpt lat="42.10019" lon="23.572931"><ele>2622.2</ele><time>2026-03-08T12:36:51.000Z</time></trkpt>
<trkpt lat="42.10018" lon="23.572935"><ele>2621.9</ele><time>2026-03-08T12:36:52.000Z</time></trkpt>
<trkpt lat="42.10017" lon="23.572937"><ele>2621.9</ele><time>2026-03-08T12:36:53.000Z</time></trkpt>
<trkpt lat="42.10016" lon="23.572939"><ele>2621.9</ele><time>2026-03-08T12:36:54.000Z</time></trkpt>
<trkpt lat="42.10015" lon="23.572942"><ele>2621.9</ele><time>2026-03-08T12:36:55.000Z</time></trkpt>
<trkpt lat="42.10014" lon="23.572945"><ele>2621.9</ele><time>2026-03-08T12:36:56.000Z</time></trkpt>
<trkpt lat="42.100129" lon="23.572949"><ele>2621.8</ele><time>2026-03-08T12:36:57.000Z</time></trkpt>
<trkpt lat="42.100118" lon="23.572953"><ele>2621.8</ele><time>2026-03-08T12:36:58.000Z</time></trkpt>
<trkpt lat="42.100107" lon="23.572957"><ele>2621.8</ele><time>2026-03-08T12:36:59.000Z</time></trkpt>
<trkpt lat="42.100096" lon="23.572962"><ele>2621.8</ele><time>2026-03-08T12:37:00.000Z</time></trkpt>
<trkpt lat="42.100085" lon="23.572967"><ele>2621.8</ele><time>2026-03-08T12:37:01.000Z</time></trkpt>
<trkpt lat="42.100076" lon="23.572972"><ele>2621.4</ele><time>2026-03-08T12:37:02.000Z</time></trkpt>
<trkpt lat="42.100066" lon="23.572976"><ele>2621.4</ele><time>2026-03-08T12:37:03.000Z</time></trkpt>
<trkpt lat="42.100057" lon="23.57298"><ele>2621.4</ele><time>2026-03-08T12:37:04.000Z</time></trkpt>
<trkpt lat="42.100047" lon="23.572983"><ele>2621.4</ele><time>2026-03-08T12:37:05.000Z</time></trkpt>
<trkpt lat="42.100037" lon="23.572986"><ele>2621.4</ele><time>2026-03-08T12:37:06.000Z</time></trkpt>
<trkpt lat="42.100027" lon="23.572989"><ele>2620.9</ele><time>2026-03-08T12:37:07.000Z</time></trkpt>
<trkpt lat="42.100017" lon="23.572992"><ele>2620.9</ele><time>2026-03-08T12:37:08.000Z</time></trkpt>
<trkpt lat="42.100006" lon="23.572995"><ele>2620.9</ele><time>2026-03-08T12:37:09.000Z</time></trkpt>
<trkpt lat="42.099995" lon="23.572999"><ele>2620.9</ele><time>2026-03-08T12:37:10.000Z</time></trkpt>
<trkpt lat="42.099984" lon="23.573002"><ele>2620.9</ele><time>2026-03-08T12:37:11.000Z</time></trkpt>
<trkpt lat="42.099973" lon="23.573004"><ele>2620.6</ele><time>2026-03-08T12:37:12.000Z</time></trkpt>
<trkpt lat="42.099963" lon="23.573004"><ele>2620.6</ele><time>2026-03-08T12:37:13.000Z</time></trkpt>
<trkpt lat="42.099953" lon="23.573005"><ele>2620.6</ele><time>2026-03-08T12:37:14.000Z</time></trkpt>
<trkpt lat="42.099944" lon="23.573005"><ele>2620.6</ele><time>2026-03-08T12:37:15.000Z</time></trkpt>
<trkpt lat="42.099935" lon="23.573006"><ele>2620.6</ele><time>2026-03-08T12:37:16.000Z</time></trkpt>
<trkpt lat="42.099926" lon="23.573007"><ele>2620.1</ele><time>2026-03-08T12:37:17.000Z</time></trkpt>
<trkpt lat="42.099916" lon="23.57301"><ele>2620.1</ele><time>2026-03-08T12:37:18.000Z</time></trkpt>
<trkpt lat="42.099906" lon="23.573012"><ele>2620.1</ele><time>2026-03-08T12:37:19.000Z</time></trkpt>
<trkpt lat="42.099896" lon="23.573013"><ele>2620.1</ele><time>2026-03-08T12:37:20.000Z</time></trkpt>
<trkpt lat="42.099886" lon="23.573014"><ele>2620.1</ele><time>2026-03-08T12:37:21.000Z</time></trkpt>
<trkpt lat="42.099875" lon="23.573016"><ele>2619.7</ele><time>2026-03-08T12:37:22.000Z</time></trkpt>
<trkpt lat="42.099865" lon="23.573018"><ele>2619.7</ele><time>2026-03-08T12:37:23.000Z</time></trkpt>
<trkpt lat="42.099855" lon="23.573022"><ele>2619.7</ele><time>2026-03-08T12:37:24.000Z</time></trkpt>
<trkpt lat="42.099845" lon="23.573027"><ele>2619.7</ele><time>2026-03-08T12:37:25.000Z</time></trkpt>
<trkpt lat="42.099836" lon="23.573031"><ele>2619.7</ele><time>2026-03-08T12:37:26.000Z</time></trkpt>
<trkpt lat="42.099826" lon="23.573036"><ele>2619.4</ele><time>2026-03-08T12:37:27.000Z</time></trkpt>
<trkpt lat="42.099816" lon="23.573039"><ele>2619.4</ele><time>2026-03-08T12:37:28.000Z</time></trkpt>
<trkpt lat="42.099807" lon="23.573041"><ele>2619.4</ele><time>2026-03-08T12:37:29.000Z</time></trkpt>
<trkpt lat="42.099797" lon="23.573042"><ele>2619.4</ele><time>2026-03-08T12:37:30.000Z</time></trkpt>
<trkpt lat="42.099788" lon="23.573042"><ele>2619.4</ele><time>2026-03-08T12:37:31.000Z</time></trkpt>
<trkpt lat="42.099779" lon="23.573042"><ele>2619</ele><time>2026-03-08T12:37:32.000Z</time></trkpt>
<trkpt lat="42.099771" lon="23.573042"><ele>2619</ele><time>2026-03-08T12:37:33.000Z</time></trkpt>
<trkpt lat="42.099761" lon="23.573042"><ele>2619</ele><time>2026-03-08T12:37:34.000Z</time></trkpt>
<trkpt lat="42.099752" lon="23.573043"><ele>2619</ele><time>2026-03-08T12:37:35.000Z</time></trkpt>
<trkpt lat="42.099743" lon="23.573045"><ele>2619</ele><time>2026-03-08T12:37:36.000Z</time></trkpt>
<trkpt lat="42.099733" lon="23.573048"><ele>2618.6</ele><time>2026-03-08T12:37:37.000Z</time></trkpt>
<trkpt lat="42.099723" lon="23.573051"><ele>2618.6</ele><time>2026-03-08T12:37:38.000Z</time></trkpt>
<trkpt lat="42.099713" lon="23.573052"><ele>2618.6</ele><time>2026-03-08T12:37:39.000Z</time></trkpt>
<trkpt lat="42.099702" lon="23.573053"><ele>2618.6</ele><time>2026-03-08T12:37:40.000Z</time></trkpt>
<trkpt lat="42.099691" lon="23.573054"><ele>2618.6</ele><time>2026-03-08T12:37:41.000Z</time></trkpt>
<trkpt lat="42.09968" lon="23.573055"><ele>2618.4</ele><time>2026-03-08T12:37:42.000Z</time></trkpt>
<trkpt lat="42.099669" lon="23.573056"><ele>2618.4</ele><time>2026-03-08T12:37:43.000Z</time></trkpt>
<trkpt lat="42.099658" lon="23.573059"><ele>2618.4</ele><time>2026-03-08T12:37:44.000Z</time></trkpt>
<trkpt lat="42.099646" lon="23.573062"><ele>2618.4</ele><time>2026-03-08T12:37:45.000Z</time></trkpt>
<trkpt lat="42.099634" lon="23.573065"><ele>2618.4</ele><time>2026-03-08T12:37:46.000Z</time></trkpt>
<trkpt lat="42.099622" lon="23.573068"><ele>2617.7</ele><time>2026-03-08T12:37:47.000Z</time></trkpt>
<trkpt lat="42.099609" lon="23.573071"><ele>2617.7</ele><time>2026-03-08T12:37:48.000Z</time></trkpt>
<trkpt lat="42.099596" lon="23.573076"><ele>2617.7</ele><time>2026-03-08T12:37:49.000Z</time></trkpt>
<trkpt lat="42.099583" lon="23.573081"><ele>2617.7</ele><time>2026-03-08T12:37:50.000Z</time></trkpt>
<trkpt lat="42.099571" lon="23.573087"><ele>2617.7</ele><time>2026-03-08T12:37:51.000Z</time></trkpt>
<trkpt lat="42.099559" lon="23.573094"><ele>2616.5</ele><time>2026-03-08T12:37:52.000Z</time></trkpt>
<trkpt lat="42.099547" lon="23.573101"><ele>2616.5</ele><time>2026-03-08T12:37:53.000Z</time></trkpt>
<trkpt lat="42.099536" lon="23.573108"><ele>2616.5</ele><time>2026-03-08T12:37:54.000Z</time></trkpt>
<trkpt lat="42.099524" lon="23.573113"><ele>2616.5</ele><time>2026-03-08T12:37:55.000Z</time></trkpt>
<trkpt lat="42.099516" lon="23.573115"><ele>2616.5</ele><time>2026-03-08T12:37:56.000Z</time></trkpt>
<trkpt lat="42.099509" lon="23.573116"><ele>2615.8</ele><time>2026-03-08T12:37:57.000Z</time></trkpt>
<trkpt lat="42.099504" lon="23.573114"><ele>2615.8</ele><time>2026-03-08T12:37:58.000Z</time></trkpt>
<trkpt lat="42.099502" lon="23.573112"><ele>2615.8</ele><time>2026-03-08T12:37:59.000Z</time></trkpt>
<trkpt lat="42.099502" lon="23.573109"><ele>2615.8</ele><time>2026-03-08T12:38:00.000Z</time></trkpt>
<trkpt lat="42.099501" lon="23.573108"><ele>2615.8</ele><time>2026-03-08T12:38:01.000Z</time></trkpt>
<trkpt lat="42.0995" lon="23.573107"><ele>2614.4</ele><time>2026-03-08T12:38:02.000Z</time></trkpt>
<trkpt lat="42.099499" lon="23.573108"><ele>2614.4</ele><time>2026-03-08T12:38:03.000Z</time></trkpt>
<trkpt lat="42.099498" lon="23.57311"><ele>2614.4</ele><time>2026-03-08T12:38:04.000Z</time></trkpt>
<trkpt lat="42.099495" lon="23.573113"><ele>2614.4</ele><time>2026-03-08T12:38:05.000Z</time></trkpt>
<trkpt lat="42.099491" lon="23.573117"><ele>2614.4</ele><time>2026-03-08T12:38:06.000Z</time></trkpt>
<trkpt lat="42.099485" lon="23.573121"><ele>2613.3</ele><time>2026-03-08T12:38:07.000Z</time></trkpt>
<trkpt lat="42.099478" lon="23.573123"><ele>2613.3</ele><time>2026-03-08T12:38:08.000Z</time></trkpt>
<trkpt lat="42.09947" lon="23.573125"><ele>2613.3</ele><time>2026-03-08T12:38:09.000Z</time></trkpt>
<trkpt lat="42.099461" lon="23.573128"><ele>2613.3</ele><time>2026-03-08T12:38:10.000Z</time></trkpt>
<trkpt lat="42.099451" lon="23.573131"><ele>2613.3</ele><time>2026-03-08T12:38:11.000Z</time></trkpt>
<trkpt lat="42.099441" lon="23.573135"><ele>2613</ele><time>2026-03-08T12:38:12.000Z</time></trkpt>
<trkpt lat="42.099431" lon="23.57314"><ele>2613</ele><time>2026-03-08T12:38:13.000Z</time></trkpt>
<trkpt lat="42.09942" lon="23.573144"><ele>2613</ele><time>2026-03-08T12:38:14.000Z</time></trkpt>
<trkpt lat="42.099409" lon="23.573148"><ele>2613</ele><time>2026-03-08T12:38:15.000Z</time></trkpt>
<trkpt lat="42.099397" lon="23.57315"><ele>2613</ele><time>2026-03-08T12:38:16.000Z</time></trkpt>
<trkpt lat="42.099386" lon="23.573152"><ele>2612.5</ele><time>2026-03-08T12:38:17.000Z</time></trkpt>
<trkpt lat="42.099373" lon="23.573154"><ele>2612.5</ele><time>2026-03-08T12:38:18.000Z</time></trkpt>
<trkpt lat="42.099361" lon="23.573156"><ele>2612.5</ele><time>2026-03-08T12:38:19.000Z</time></trkpt>
<trkpt lat="42.099349" lon="23.573158"><ele>2612.5</ele><time>2026-03-08T12:38:20.000Z</time></trkpt>
<trkpt lat="42.099337" lon="23.57316"><ele>2612.5</ele><time>2026-03-08T12:38:21.000Z</time></trkpt>
<trkpt lat="42.099326" lon="23.573162"><ele>2612</ele><time>2026-03-08T12:38:22.000Z</time></trkpt>
<trkpt lat="42.099316" lon="23.573163"><ele>2612</ele><time>2026-03-08T12:38:23.000Z</time></trkpt>
<trkpt lat="42.099308" lon="23.573163"><ele>2612</ele><time>2026-03-08T12:38:24.000Z</time></trkpt>
<trkpt lat="42.099302" lon="23.573161"><ele>2612</ele><time>2026-03-08T12:38:25.000Z</time></trkpt>
<trkpt lat="42.099298" lon="23.573159"><ele>2612</ele><time>2026-03-08T12:38:26.000Z</time></trkpt>
<trkpt lat="42.099297" lon="23.573156"><ele>2611.5</ele><time>2026-03-08T12:38:27.000Z</time></trkpt>
<trkpt lat="42.099296" lon="23.573154"><ele>2611.5</ele><time>2026-03-08T12:38:28.000Z</time></trkpt>
<trkpt lat="42.099296" lon="23.573153"><ele>2611.5</ele><time>2026-03-08T12:38:29.000Z</time></trkpt>
<trkpt lat="42.099294" lon="23.573152"><ele>2611.5</ele><time>2026-03-08T12:38:30.000Z</time></trkpt>
<trkpt lat="42.099293" lon="23.573152"><ele>2611.5</ele><time>2026-03-08T12:38:31.000Z</time></trkpt>
<trkpt lat="42.099292" lon="23.573152"><ele>2610.6</ele><time>2026-03-08T12:38:32.000Z</time></trkpt>
<trkpt lat="42.099291" lon="23.573152"><ele>2610.6</ele><time>2026-03-08T12:38:33.000Z</time></trkpt>
<trkpt lat="42.09929" lon="23.573152"><ele>2610.6</ele><time>2026-03-08T12:38:34.000Z</time></trkpt>
<trkpt lat="42.099287" lon="23.573153"><ele>2610.6</ele><time>2026-03-08T12:38:35.000Z</time></trkpt>
<trkpt lat="42.099282" lon="23.573152"><ele>2610.6</ele><time>2026-03-08T12:38:36.000Z</time></trkpt>
<trkpt lat="42.099276" lon="23.573151"><ele>2609.8</ele><time>2026-03-08T12:38:37.000Z</time></trkpt>
<trkpt lat="42.099268" lon="23.573151"><ele>2609.8</ele><time>2026-03-08T12:38:38.000Z</time></trkpt>
<trkpt lat="42.099259" lon="23.573151"><ele>2609.8</ele><time>2026-03-08T12:38:39.000Z</time></trkpt>
<trkpt lat="42.099251" lon="23.573151"><ele>2609.8</ele><time>2026-03-08T12:38:40.000Z</time></trkpt>
<trkpt lat="42.099242" lon="23.573152"><ele>2609.8</ele><time>2026-03-08T12:38:41.000Z</time></trkpt>
<trkpt lat="42.099233" lon="23.573154"><ele>2609.4</ele><time>2026-03-08T12:38:42.000Z</time></trkpt>
<trkpt lat="42.099224" lon="23.573156"><ele>2609.4</ele><time>2026-03-08T12:38:43.000Z</time></trkpt>
<trkpt lat="42.099215" lon="23.573158"><ele>2609.4</ele><time>2026-03-08T12:38:44.000Z</time></trkpt>
<trkpt lat="42.099206" lon="23.57316"><ele>2609.4</ele><time>2026-03-08T12:38:45.000Z</time></trkpt>
<trkpt lat="42.099195" lon="23.573162"><ele>2609.4</ele><time>2026-03-08T12:38:46.000Z</time></trkpt>
<trkpt lat="42.099184" lon="23.573164"><ele>2608.9</ele><time>2026-03-08T12:38:47.000Z</time></trkpt>
<trkpt lat="42.099173" lon="23.573167"><ele>2608.9</ele><time>2026-03-08T12:38:48.000Z</time></trkpt>
<trkpt lat="42.099161" lon="23.573171"><ele>2608.9</ele><time>2026-03-08T12:38:49.000Z</time></trkpt>
<trkpt lat="42.099149" lon="23.573176"><ele>2608.9</ele><time>2026-03-08T12:38:50.000Z</time></trkpt>
<trkpt lat="42.099138" lon="23.573182"><ele>2608.9</ele><time>2026-03-08T12:38:51.000Z</time></trkpt>
<trkpt lat="42.099126" lon="23.573189"><ele>2608.2</ele><time>2026-03-08T12:38:52.000Z</time></trkpt>
<trkpt lat="42.099114" lon="23.573196"><ele>2608.2</ele><time>2026-03-08T12:38:53.000Z</time></trkpt>
<trkpt lat="42.099102" lon="23.573204"><ele>2608.2</ele><time>2026-03-08T12:38:54.000Z</time></trkpt>
<trkpt lat="42.09909" lon="23.573212"><ele>2608.2</ele><time>2026-03-08T12:38:55.000Z</time></trkpt>
<trkpt lat="42.099079" lon="23.573218"><ele>2608.2</ele><time>2026-03-08T12:38:56.000Z</time></trkpt>
<trkpt lat="42.099068" lon="23.573224"><ele>2607.8</ele><time>2026-03-08T12:38:57.000Z</time></trkpt>
<trkpt lat="42.099057" lon="23.573229"><ele>2607.8</ele><time>2026-03-08T12:38:58.000Z</time></trkpt>
<trkpt lat="42.099046" lon="23.573235"><ele>2607.8</ele><time>2026-03-08T12:38:59.000Z</time></trkpt>
<trkpt lat="42.099036" lon="23.57324"><ele>2607.8</ele><time>2026-03-08T12:39:00.000Z</time></trkpt>
<trkpt lat="42.099025" lon="23.573246"><ele>2607.8</ele><time>2026-03-08T12:39:01.000Z</time></trkpt>
<trkpt lat="42.099014" lon="23.573252"><ele>2607.2</ele><time>2026-03-08T12:39:02.000Z</time></trkpt>
<trkpt lat="42.099003" lon="23.573257"><ele>2607.2</ele><time>2026-03-08T12:39:03.000Z</time></trkpt>
<trkpt lat="42.098993" lon="23.573261"><ele>2607.2</ele><time>2026-03-08T12:39:04.000Z</time></trkpt>
<trkpt lat="42.098983" lon="23.573266"><ele>2607.2</ele><time>2026-03-08T12:39:05.000Z</time></trkpt>
<trkpt lat="42.098973" lon="23.57327"><ele>2607.2</ele><time>2026-03-08T12:39:06.000Z</time></trkpt>
<trkpt lat="42.098964" lon="23.573275"><ele>2606.5</ele><time>2026-03-08T12:39:07.000Z</time></trkpt>
<trkpt lat="42.098955" lon="23.573282"><ele>2606.5</ele><time>2026-03-08T12:39:08.000Z</time></trkpt>
<trkpt lat="42.098947" lon="23.573288"><ele>2606.5</ele><time>2026-03-08T12:39:09.000Z</time></trkpt>
<trkpt lat="42.09894" lon="23.573296"><ele>2606.5</ele><time>2026-03-08T12:39:10.000Z</time></trkpt>
<trkpt lat="42.098934" lon="23.573303"><ele>2606.5</ele><time>2026-03-08T12:39:11.000Z</time></trkpt>
<trkpt lat="42.098926" lon="23.573311"><ele>2606.2</ele><time>2026-03-08T12:39:12.000Z</time></trkpt>
<trkpt lat="42.09892" lon="23.573317"><ele>2606.2</ele><time>2026-03-08T12:39:13.000Z</time></trkpt>
<trkpt lat="42.098912" lon="23.573325"><ele>2606.2</ele><time>2026-03-08T12:39:14.000Z</time></trkpt>
<trkpt lat="42.098904" lon="23.573331"><ele>2606.2</ele><time>2026-03-08T12:39:15.000Z</time></trkpt>
<trkpt lat="42.098894" lon="23.573338"><ele>2606.2</ele><time>2026-03-08T12:39:16.000Z</time></trkpt>
<trkpt lat="42.098885" lon="23.573344"><ele>2605.2</ele><time>2026-03-08T12:39:17.000Z</time></trkpt>
<trkpt lat="42.098876" lon="23.57335"><ele>2605.2</ele><time>2026-03-08T12:39:18.000Z</time></trkpt>
<trkpt lat="42.098867" lon="23.573355"><ele>2605.2</ele><time>2026-03-08T12:39:19.000Z</time></trkpt>
<trkpt lat="42.098856" lon="23.573361"><ele>2605.2</ele><time>2026-03-08T12:39:20.000Z</time></trkpt>
<trkpt lat="42.098847" lon="23.573366"><ele>2605.2</ele><time>2026-03-08T12:39:21.000Z</time></trkpt>
<trkpt lat="42.098837" lon="23.573371"><ele>2604</ele><time>2026-03-08T12:39:22.000Z</time></trkpt>
<trkpt lat="42.098827" lon="23.573377"><ele>2604</ele><time>2026-03-08T12:39:23.000Z</time></trkpt>
<trkpt lat="42.098816" lon="23.573382"><ele>2604</ele><time>2026-03-08T12:39:24.000Z</time></trkpt>
<trkpt lat="42.098806" lon="23.573388"><ele>2604</ele><time>2026-03-08T12:39:25.000Z</time></trkpt>
<trkpt lat="42.098796" lon="23.573393"><ele>2604</ele><time>2026-03-08T12:39:26.000Z</time></trkpt>
<trkpt lat="42.098786" lon="23.573397"><ele>2603.4</ele><time>2026-03-08T12:39:27.000Z</time></trkpt>
<trkpt lat="42.098776" lon="23.573402"><ele>2603.4</ele><time>2026-03-08T12:39:28.000Z</time></trkpt>
<trkpt lat="42.098766" lon="23.573408"><ele>2603.4</ele><time>2026-03-08T12:39:29.000Z</time></trkpt>
<trkpt lat="42.098757" lon="23.573414"><ele>2603.4</ele><time>2026-03-08T12:39:30.000Z</time></trkpt>
<trkpt lat="42.098748" lon="23.573421"><ele>2603.4</ele><time>2026-03-08T12:39:31.000Z</time></trkpt>
<trkpt lat="42.098738" lon="23.573428"><ele>2602.1</ele><time>2026-03-08T12:39:32.000Z</time></trkpt>
<trkpt lat="42.09873" lon="23.573435"><ele>2602.1</ele><time>2026-03-08T12:39:33.000Z</time></trkpt>
<trkpt lat="42.098721" lon="23.573442"><ele>2602.1</ele><time>2026-03-08T12:39:34.000Z</time></trkpt>
<trkpt lat="42.098712" lon="23.573448"><ele>2602.1</ele><time>2026-03-08T12:39:35.000Z</time></trkpt>
<trkpt lat="42.098702" lon="23.573454"><ele>2602.1</ele><time>2026-03-08T12:39:36.000Z</time></trkpt>
<trkpt lat="42.098692" lon="23.57346"><ele>2600.8</ele><time>2026-03-08T12:39:37.000Z</time></trkpt>
<trkpt lat="42.098681" lon="23.573466"><ele>2600.8</ele><time>2026-03-08T12:39:38.000Z</time></trkpt>
<trkpt lat="42.09867" lon="23.573474"><ele>2600.8</ele><time>2026-03-08T12:39:39.000Z</time></trkpt>
<trkpt lat="42.098659" lon="23.573482"><ele>2600.8</ele><time>2026-03-08T12:39:40.000Z</time></trkpt>
<trkpt lat="42.098649" lon="23.573492"><ele>2600.8</ele><time>2026-03-08T12:39:41.000Z</time></trkpt>
<trkpt lat="42.098639" lon="23.573501"><ele>2600.1</ele><time>2026-03-08T12:39:42.000Z</time></trkpt>
<trkpt lat="42.098632" lon="23.573507"><ele>2600.1</ele><time>2026-03-08T12:39:43.000Z</time></trkpt>
<trkpt lat="42.098627" lon="23.573512"><ele>2600.1</ele><time>2026-03-08T12:39:44.000Z</time></trkpt>
<trkpt lat="42.098624" lon="23.573514"><ele>2600.1</ele><time>2026-03-08T12:39:45.000Z</time></trkpt>
<trkpt lat="42.098623" lon="23.573514"><ele>2600.1</ele><time>2026-03-08T12:39:46.000Z</time></trkpt>
<trkpt lat="42.098623" lon="23.573513"><ele>2598.7</ele><time>2026-03-08T12:39:47.000Z</time></trkpt>
<trkpt lat="42.098622" lon="23.573513"><ele>2598.7</ele><time>2026-03-08T12:39:48.000Z</time></trkpt>
<trkpt lat="42.098622" lon="23.573514"><ele>2598.7</ele><time>2026-03-08T12:39:49.000Z</time></trkpt>
<trkpt lat="42.09862" lon="23.573517"><ele>2598.7</ele><time>2026-03-08T12:39:50.000Z</time></trkpt>
<trkpt lat="42.098616" lon="23.573523"><ele>2598.7</ele><time>2026-03-08T12:39:51.000Z</time></trkpt>
<trkpt lat="42.098612" lon="23.573532"><ele>2597.4</ele><time>2026-03-08T12:39:52.000Z</time></trkpt>
<trkpt lat="42.098606" lon="23.573543"><ele>2597.4</ele><time>2026-03-08T12:39:53.000Z</time></trkpt>
<trkpt lat="42.0986" lon="23.573554"><ele>2597.4</ele><time>2026-03-08T12:39:54.000Z</time></trkpt>
<trkpt lat="42.098593" lon="23.573565"><ele>2597.4</ele><time>2026-03-08T12:39:55.000Z</time></trkpt>
<trkpt lat="42.098586" lon="23.573574"><ele>2597.4</ele><time>2026-03-08T12:39:56.000Z</time></trkpt>
<trkpt lat="42.098578" lon="23.573583"><ele>2596.9</ele><time>2026-03-08T12:39:57.000Z</time></trkpt>
<trkpt lat="42.098571" lon="23.57359"><ele>2596.9</ele><time>2026-03-08T12:39:58.000Z</time></trkpt>
<trkpt lat="42.098563" lon="23.573598"><ele>2596.9</ele><time>2026-03-08T12:39:59.000Z</time></trkpt>
<trkpt lat="42.098554" lon="23.573606"><ele>2596.9</ele><time>2026-03-08T12:40:00.000Z</time></trkpt>
<trkpt lat="42.098544" lon="23.573615"><ele>2596.9</ele><time>2026-03-08T12:40:01.000Z</time></trkpt>
<trkpt lat="42.098534" lon="23.573622"><ele>2596.2</ele><time>2026-03-08T12:40:02.000Z</time></trkpt>
<trkpt lat="42.098522" lon="23.573628"><ele>2596.2</ele><time>2026-03-08T12:40:03.000Z</time></trkpt>
<trkpt lat="42.098511" lon="23.573634"><ele>2596.2</ele><time>2026-03-08T12:40:04.000Z</time></trkpt>
<trkpt lat="42.0985" lon="23.573639"><ele>2596.2</ele><time>2026-03-08T12:40:05.000Z</time></trkpt>
<trkpt lat="42.09849" lon="23.573646"><ele>2596.2</ele><time>2026-03-08T12:40:06.000Z</time></trkpt>
<trkpt lat="42.09848" lon="23.573654"><ele>2595.4</ele><time>2026-03-08T12:40:07.000Z</time></trkpt>
<trkpt lat="42.098471" lon="23.573663"><ele>2595.4</ele><time>2026-03-08T12:40:08.000Z</time></trkpt>
<trkpt lat="42.098461" lon="23.573672"><ele>2595.4</ele><time>2026-03-08T12:40:09.000Z</time></trkpt>
<trkpt lat="42.098451" lon="23.573681"><ele>2595.4</ele><time>2026-03-08T12:40:10.000Z</time></trkpt>
<trkpt lat="42.09844" lon="23.573688"><ele>2595.4</ele><time>2026-03-08T12:40:11.000Z</time></trkpt>
<trkpt lat="42.098429" lon="23.573694"><ele>2594.8</ele><time>2026-03-08T12:40:12.000Z</time></trkpt>
<trkpt lat="42.098417" lon="23.573699"><ele>2594.8</ele><time>2026-03-08T12:40:13.000Z</time></trkpt>
<trkpt lat="42.098405" lon="23.573703"><ele>2594.8</ele><time>2026-03-08T12:40:14.000Z</time></trkpt>
<trkpt lat="42.098393" lon="23.573708"><ele>2594.8</ele><time>2026-03-08T12:40:15.000Z</time></trkpt>
<trkpt lat="42.098381" lon="23.573712"><ele>2594.8</ele><time>2026-03-08T12:40:16.000Z</time></trkpt>
<trkpt lat="42.09837" lon="23.573717"><ele>2593.4</ele><time>2026-03-08T12:40:17.000Z</time></trkpt>
<trkpt lat="42.098359" lon="23.573721"><ele>2593.4</ele><time>2026-03-08T12:40:18.000Z</time></trkpt>
<trkpt lat="42.098349" lon="23.573725"><ele>2593.4</ele><time>2026-03-08T12:40:19.000Z</time></trkpt>
<trkpt lat="42.098339" lon="23.573729"><ele>2593.4</ele><time>2026-03-08T12:40:20.000Z</time></trkpt>
<trkpt lat="42.098329" lon="23.573731"><ele>2593.4</ele><time>2026-03-08T12:40:21.000Z</time></trkpt>
<trkpt lat="42.098319" lon="23.573735"><ele>2591.8</ele><time>2026-03-08T12:40:22.000Z</time></trkpt>
<trkpt lat="42.098308" lon="23.573739"><ele>2591.8</ele><time>2026-03-08T12:40:23.000Z</time></trkpt>
<trkpt lat="42.098298" lon="23.573744"><ele>2591.8</ele><time>2026-03-08T12:40:24.000Z</time></trkpt>
<trkpt lat="42.098288" lon="23.573749"><ele>2591.8</ele><time>2026-03-08T12:40:25.000Z</time></trkpt>
<trkpt lat="42.098278" lon="23.573756"><ele>2591.8</ele><time>2026-03-08T12:40:26.000Z</time></trkpt>
<trkpt lat="42.098269" lon="23.573762"><ele>2591</ele><time>2026-03-08T12:40:27.000Z</time></trkpt>
<trkpt lat="42.09826" lon="23.573767"><ele>2591</ele><time>2026-03-08T12:40:28.000Z</time></trkpt>
<trkpt lat="42.09825" lon="23.573771"><ele>2591</ele><time>2026-03-08T12:40:29.000Z</time></trkpt>
<trkpt lat="42.09824" lon="23.573774"><ele>2591</ele><time>2026-03-08T12:40:30.000Z</time></trkpt>
<trkpt lat="42.098229" lon="23.573777"><ele>2591</ele><time>2026-03-08T12:40:31.000Z</time></trkpt>
<trkpt lat="42.098218" lon="23.57378"><ele>2589.2</ele><time>2026-03-08T12:40:32.000Z</time></trkpt>
<trkpt lat="42.098207" lon="23.573784"><ele>2589.2</ele><time>2026-03-08T12:40:33.000Z</time></trkpt>
<trkpt lat="42.098196" lon="23.573787"><ele>2589.2</ele><time>2026-03-08T12:40:34.000Z</time></trkpt>
<trkpt lat="42.098186" lon="23.57379"><ele>2589.2</ele><time>2026-03-08T12:40:35.000Z</time></trkpt>
<trkpt lat="42.098176" lon="23.573792"><ele>2589.2</ele><time>2026-03-08T12:40:36.000Z</time></trkpt>
<trkpt lat="42.098166" lon="23.573794"><ele>2587.5</ele><time>2026-03-08T12:40:37.000Z</time></trkpt>
<trkpt lat="42.098155" lon="23.573796"><ele>2587.5</ele><time>2026-03-08T12:40:38.000Z</time></trkpt>
<trkpt lat="42.098144" lon="23.573798"><ele>2587.5</ele><time>2026-03-08T12:40:39.000Z</time></trkpt>
<trkpt lat="42.098133" lon="23.573802"><ele>2587.5</ele><time>2026-03-08T12:40:40.000Z</time></trkpt>
<trkpt lat="42.098122" lon="23.573806"><ele>2587.5</ele><time>2026-03-08T12:40:41.000Z</time></trkpt>
<trkpt lat="42.098111" lon="23.57381"><ele>2586.7</ele><time>2026-03-08T12:40:42.000Z</time></trkpt>
<trkpt lat="42.098101" lon="23.573815"><ele>2586.7</ele><time>2026-03-08T12:40:43.000Z</time></trkpt>
<trkpt lat="42.09809" lon="23.57382"><ele>2586.7</ele><time>2026-03-08T12:40:44.000Z</time></trkpt>
<trkpt lat="42.098081" lon="23.573824"><ele>2586.7</ele><time>2026-03-08T12:40:45.000Z</time></trkpt>
<trkpt lat="42.098074" lon="23.573825"><ele>2586.7</ele><time>2026-03-08T12:40:46.000Z</time></trkpt>
<trkpt lat="42.098068" lon="23.573824"><ele>2585.3</ele><time>2026-03-08T12:40:47.000Z</time></trkpt>
<trkpt lat="42.098065" lon="23.573822"><ele>2585.3</ele><time>2026-03-08T12:40:48.000Z</time></trkpt>
<trkpt lat="42.098063" lon="23.573819"><ele>2585.3</ele><time>2026-03-08T12:40:49.000Z</time></trkpt>
<trkpt lat="42.098062" lon="23.573815"><ele>2585.3</ele><time>2026-03-08T12:40:50.000Z</time></trkpt>
<trkpt lat="42.09806" lon="23.573812"><ele>2585.3</ele><time>2026-03-08T12:40:51.000Z</time></trkpt>
<trkpt lat="42.098059" lon="23.57381"><ele>2584</ele><time>2026-03-08T12:40:52.000Z</time></trkpt>
<trkpt lat="42.098058" lon="23.573808"><ele>2584</ele><time>2026-03-08T12:40:53.000Z</time></trkpt>
<trkpt lat="42.098057" lon="23.573806"><ele>2584</ele><time>2026-03-08T12:40:54.000Z</time></trkpt>
<trkpt lat="42.098057" lon="23.573805"><ele>2584</ele><time>2026-03-08T12:40:55.000Z</time></trkpt>
<trkpt lat="42.098056" lon="23.573805"><ele>2584</ele><time>2026-03-08T12:40:56.000Z</time></trkpt>
<trkpt lat="42.098056" lon="23.573804"><ele>2583.5</ele><time>2026-03-08T12:40:57.000Z</time></trkpt>
<trkpt lat="42.098056" lon="23.573803"><ele>2583.5</ele><time>2026-03-08T12:40:58.000Z</time></trkpt>
<trkpt lat="42.098056" lon="23.573803"><ele>2583.5</ele><time>2026-03-08T12:40:59.000Z</time></trkpt>
<trkpt lat="42.098056" lon="23.573802"><ele>2583.5</ele><time>2026-03-08T12:41:00.000Z</time></trkpt>
<trkpt lat="42.098056" lon="23.573802"><ele>2583.5</ele><time>2026-03-08T12:41:01.000Z</time></trkpt>
<trkpt lat="42.098056" lon="23.573803"><ele>2582.9</ele><time>2026-03-08T12:41:02.000Z</time></trkpt>
<trkpt lat="42.098055" lon="23.573805"><ele>2582.9</ele><time>2026-03-08T12:41:03.000Z</time></trkpt>
<trkpt lat="42.098054" lon="23.573806"><ele>2582.9</ele><time>2026-03-08T12:41:04.000Z</time></trkpt>
<trkpt lat="42.098053" lon="23.573808"><ele>2582.9</ele><time>2026-03-08T12:41:05.000Z</time></trkpt>
<trkpt lat="42.098052" lon="23.573809"><ele>2582.9</ele><time>2026-03-08T12:41:06.000Z</time></trkpt>
<trkpt lat="42.098051" lon="23.57381"><ele>2582.8</ele><time>2026-03-08T12:41:07.000Z</time></trkpt>
<trkpt lat="42.098051" lon="23.573809"><ele>2582.8</ele><time>2026-03-08T12:41:08.000Z</time></trkpt>
<trkpt lat="42.09805" lon="23.573808"><ele>2582.8</ele><time>2026-03-08T12:41:09.000Z</time></trkpt>
<trkpt lat="42.09805" lon="23.573808"><ele>2582.8</ele><time>2026-03-08T12:41:10.000Z</time></trkpt>
<trkpt lat="42.09805" lon="23.573807"><ele>2582.8</ele><time>2026-03-08T12:41:11.000Z</time></trkpt>
<trkpt lat="42.09805" lon="23.573807"><ele>2582.8</ele><time>2026-03-08T12:41:12.000Z</time></trkpt>
<trkpt lat="42.098049" lon="23.573807"><ele>2582.8</ele><time>2026-03-08T12:41:13.000Z</time></trkpt>
<trkpt lat="42.098047" lon="23.573805"><ele>2582.8</ele><time>2026-03-08T12:41:14.000Z</time></trkpt>
<trkpt lat="42.098046" lon="23.573804"><ele>2582.8</ele><time>2026-03-08T12:41:15.000Z</time></trkpt>
<trkpt lat="42.098043" lon="23.573804"><ele>2582.8</ele><time>2026-03-08T12:41:16.000Z</time></trkpt>
<trkpt lat="42.09804" lon="23.573804"><ele>2582.9</ele><time>2026-03-08T12:41:17.000Z</time></trkpt>
<trkpt lat="42.098037" lon="23.573805"><ele>2582.9</ele><time>2026-03-08T12:41:18.000Z</time></trkpt>
<trkpt lat="42.098035" lon="23.573807"><ele>2582.9</ele><time>2026-03-08T12:41:19.000Z</time></trkpt>
<trkpt lat="42.098032" lon="23.573809"><ele>2582.9</ele><time>2026-03-08T12:41:20.000Z</time></trkpt>
<trkpt lat="42.09803" lon="23.57381"><ele>2582.9</ele><time>2026-03-08T12:41:21.000Z</time></trkpt>
<trkpt lat="42.098026" lon="23.573812"><ele>2583</ele><time>2026-03-08T12:41:22.000Z</time></trkpt>
<trkpt lat="42.098023" lon="23.573814"><ele>2583</ele><time>2026-03-08T12:41:23.000Z</time></trkpt>
<trkpt lat="42.098019" lon="23.573816"><ele>2583</ele><time>2026-03-08T12:41:24.000Z</time></trkpt>
<trkpt lat="42.098015" lon="23.573819"><ele>2583</ele><time>2026-03-08T12:41:25.000Z</time></trkpt>
<trkpt lat="42.098011" lon="23.57382"><ele>2583</ele><time>2026-03-08T12:41:26.000Z</time></trkpt>
<trkpt lat="42.098007" lon="23.573823"><ele>2583.1</ele><time>2026-03-08T12:41:27.000Z</time></trkpt>
<trkpt lat="42.098003" lon="23.573826"><ele>2583.1</ele><time>2026-03-08T12:41:28.000Z</time></trkpt>
<trkpt lat="42.097998" lon="23.573831"><ele>2583.1</ele><time>2026-03-08T12:41:29.000Z</time></trkpt>
<trkpt lat="42.097992" lon="23.573837"><ele>2583.1</ele><time>2026-03-08T12:41:30.000Z</time></trkpt>
<trkpt lat="42.097987" lon="23.573846"><ele>2583.1</ele><time>2026-03-08T12:41:31.000Z</time></trkpt>
<trkpt lat="42.097981" lon="23.573856"><ele>2583</ele><time>2026-03-08T12:41:32.000Z</time></trkpt>
<trkpt lat="42.097975" lon="23.573866"><ele>2583</ele><time>2026-03-08T12:41:33.000Z</time></trkpt>
<trkpt lat="42.097968" lon="23.573876"><ele>2583</ele><time>2026-03-08T12:41:34.000Z</time></trkpt>
<trkpt lat="42.097961" lon="23.573886"><ele>2583</ele><time>2026-03-08T12:41:35.000Z</time></trkpt>
<trkpt lat="42.097953" lon="23.573896"><ele>2583</ele><time>2026-03-08T12:41:36.000Z</time></trkpt>
<trkpt lat="42.097945" lon="23.573906"><ele>2582.6</ele><time>2026-03-08T12:41:37.000Z</time></trkpt>
<trkpt lat="42.097937" lon="23.573917"><ele>2582.6</ele><time>2026-03-08T12:41:38.000Z</time></trkpt>
<trkpt lat="42.097929" lon="23.573927"><ele>2582.6</ele><time>2026-03-08T12:41:39.000Z</time></trkpt>
<trkpt lat="42.097921" lon="23.573937"><ele>2582.6</ele><time>2026-03-08T12:41:40.000Z</time></trkpt>
<trkpt lat="42.097912" lon="23.573947"><ele>2582.6</ele><time>2026-03-08T12:41:41.000Z</time></trkpt>
<trkpt lat="42.097903" lon="23.573957"><ele>2582.2</ele><time>2026-03-08T12:41:42.000Z</time></trkpt>
<trkpt lat="42.097895" lon="23.573966"><ele>2582.2</ele><time>2026-03-08T12:41:43.000Z</time></trkpt>
<trkpt lat="42.097886" lon="23.573976"><ele>2582.2</ele><time>2026-03-08T12:41:44.000Z</time></trkpt>
<trkpt lat="42.097877" lon="23.573986"><ele>2582.2</ele><time>2026-03-08T12:41:45.000Z</time></trkpt>
<trkpt lat="42.097868" lon="23.573996"><ele>2582.2</ele><time>2026-03-08T12:41:46.000Z</time></trkpt>
<trkpt lat="42.097858" lon="23.574004"><ele>2581.4</ele><time>2026-03-08T12:41:47.000Z</time></trkpt>
<trkpt lat="42.097849" lon="23.574011"><ele>2581.4</ele><time>2026-03-08T12:41:48.000Z</time></trkpt>
<trkpt lat="42.097839" lon="23.574018"><ele>2581.4</ele><time>2026-03-08T12:41:49.000Z</time></trkpt>
<trkpt lat="42.097828" lon="23.574022"><ele>2581.4</ele><time>2026-03-08T12:41:50.000Z</time></trkpt>
<trkpt lat="42.097817" lon="23.574027"><ele>2581.4</ele><time>2026-03-08T12:41:51.000Z</time></trkpt>
<trkpt lat="42.097807" lon="23.574031"><ele>2580.5</ele><time>2026-03-08T12:41:52.000Z</time></trkpt>
<trkpt lat="42.097796" lon="23.574035"><ele>2580.5</ele><time>2026-03-08T12:41:53.000Z</time></trkpt>
<trkpt lat="42.097786" lon="23.574039"><ele>2580.5</ele><time>2026-03-08T12:41:54.000Z</time></trkpt>
<trkpt lat="42.097776" lon="23.574043"><ele>2580.5</ele><time>2026-03-08T12:41:55.000Z</time></trkpt>
<trkpt lat="42.097766" lon="23.574048"><ele>2580.5</ele><time>2026-03-08T12:41:56.000Z</time></trkpt>
<trkpt lat="42.097756" lon="23.574054"><ele>2580.1</ele><time>2026-03-08T12:41:57.000Z</time></trkpt>
<trkpt lat="42.097744" lon="23.574061"><ele>2580.1</ele><time>2026-03-08T12:41:58.000Z</time></trkpt>
<trkpt lat="42.097733" lon="23.574067"><ele>2580.1</ele><time>2026-03-08T12:41:59.000Z</time></trkpt>
<trkpt lat="42.097722" lon="23.574074"><ele>2580.1</ele><time>2026-03-08T12:42:00.000Z</time></trkpt>
<trkpt lat="42.097711" lon="23.574079"><ele>2580.1</ele><time>2026-03-08T12:42:01.000Z</time></trkpt>
<trkpt lat="42.0977" lon="23.574084"><ele>2579.3</ele><time>2026-03-08T12:42:02.000Z</time></trkpt>
<trkpt lat="42.097689" lon="23.574087"><ele>2579.3</ele><time>2026-03-08T12:42:03.000Z</time></trkpt>
<trkpt lat="42.097677" lon="23.574091"><ele>2579.3</ele><time>2026-03-08T12:42:04.000Z</time></trkpt>
<trkpt lat="42.097667" lon="23.574095"><ele>2579.3</ele><time>2026-03-08T12:42:05.000Z</time></trkpt>
<trkpt lat="42.097656" lon="23.574101"><ele>2579.3</ele><time>2026-03-08T12:42:06.000Z</time></trkpt>
<trkpt lat="42.097645" lon="23.574107"><ele>2578.2</ele><time>2026-03-08T12:42:07.000Z</time></trkpt>
<trkpt lat="42.097635" lon="23.574114"><ele>2578.2</ele><time>2026-03-08T12:42:08.000Z</time></trkpt>
<trkpt lat="42.097626" lon="23.574123"><ele>2578.2</ele><time>2026-03-08T12:42:09.000Z</time></trkpt>
<trkpt lat="42.097616" lon="23.574132"><ele>2578.2</ele><time>2026-03-08T12:42:10.000Z</time></trkpt>
<trkpt lat="42.097606" lon="23.57414"><ele>2578.2</ele><time>2026-03-08T12:42:11.000Z</time></trkpt>
<trkpt lat="42.097595" lon="23.574147"><ele>2577.6</ele><time>2026-03-08T12:42:12.000Z</time></trkpt>
<trkpt lat="42.097583" lon="23.574154"><ele>2577.6</ele><time>2026-03-08T12:42:13.000Z</time></trkpt>
<trkpt lat="42.097573" lon="23.57416"><ele>2577.6</ele><time>2026-03-08T12:42:14.000Z</time></trkpt>
<trkpt lat="42.097563" lon="23.574167"><ele>2577.6</ele><time>2026-03-08T12:42:15.000Z</time></trkpt>
<trkpt lat="42.097553" lon="23.574173"><ele>2577.6</ele><time>2026-03-08T12:42:16.000Z</time></trkpt>
<trkpt lat="42.097545" lon="23.574178"><ele>2576.1</ele><time>2026-03-08T12:42:17.000Z</time></trkpt>
<trkpt lat="42.097536" lon="23.574182"><ele>2576.1</ele><time>2026-03-08T12:42:18.000Z</time></trkpt>
<trkpt lat="42.097526" lon="23.574186"><ele>2576.1</ele><time>2026-03-08T12:42:19.000Z</time></trkpt>
<trkpt lat="42.097516" lon="23.574188"><ele>2576.1</ele><time>2026-03-08T12:42:20.000Z</time></trkpt>
<trkpt lat="42.097505" lon="23.574192"><ele>2576.1</ele><time>2026-03-08T12:42:21.000Z</time></trkpt>
<trkpt lat="42.097495" lon="23.574197"><ele>2574.7</ele><time>2026-03-08T12:42:22.000Z</time></trkpt>
<trkpt lat="42.097484" lon="23.574203"><ele>2574.7</ele><time>2026-03-08T12:42:23.000Z</time></trkpt>
<trkpt lat="42.097474" lon="23.574209"><ele>2574.7</ele><time>2026-03-08T12:42:24.000Z</time></trkpt>
<trkpt lat="42.097464" lon="23.574215"><ele>2574.7</ele><time>2026-03-08T12:42:25.000Z</time></trkpt>
<trkpt lat="42.097454" lon="23.57422"><ele>2574.7</ele><time>2026-03-08T12:42:26.000Z</time></trkpt>
<trkpt lat="42.097445" lon="23.574225"><ele>2574</ele><time>2026-03-08T12:42:27.000Z</time></trkpt>
<trkpt lat="42.097435" lon="23.574229"><ele>2574</ele><time>2026-03-08T12:42:28.000Z</time></trkpt>
<trkpt lat="42.097425" lon="23.574233"><ele>2574</ele><time>2026-03-08T12:42:29.000Z</time></trkpt>
<trkpt lat="42.097415" lon="23.574238"><ele>2574</ele><time>2026-03-08T12:42:30.000Z</time></trkpt>
<trkpt lat="42.097404" lon="23.574244"><ele>2574</ele><time>2026-03-08T12:42:31.000Z</time></trkpt>
<trkpt lat="42.097394" lon="23.574252"><ele>2572.7</ele><time>2026-03-08T12:42:32.000Z</time></trkpt>
<trkpt lat="42.097383" lon="23.574259"><ele>2572.7</ele><time>2026-03-08T12:42:33.000Z</time></trkpt>
<trkpt lat="42.097371" lon="23.574268"><ele>2572.7</ele><time>2026-03-08T12:42:34.000Z</time></trkpt>
<trkpt lat="42.097359" lon="23.574276"><ele>2572.7</ele><time>2026-03-08T12:42:35.000Z</time></trkpt>
<trkpt lat="42.097347" lon="23.574285"><ele>2572.7</ele><time>2026-03-08T12:42:36.000Z</time></trkpt>
<trkpt lat="42.097334" lon="23.574293"><ele>2571.6</ele><time>2026-03-08T12:42:37.000Z</time></trkpt>
<trkpt lat="42.097322" lon="23.574301"><ele>2571.6</ele><time>2026-03-08T12:42:38.000Z</time></trkpt>
<trkpt lat="42.097311" lon="23.574309"><ele>2571.6</ele><time>2026-03-08T12:42:39.000Z</time></trkpt>
<trkpt lat="42.0973" lon="23.574315"><ele>2571.6</ele><time>2026-03-08T12:42:40.000Z</time></trkpt>
<trkpt lat="42.097289" lon="23.574321"><ele>2571.6</ele><time>2026-03-08T12:42:41.000Z</time></trkpt>
<trkpt lat="42.097278" lon="23.574327"><ele>2570.9</ele><time>2026-03-08T12:42:42.000Z</time></trkpt>
<trkpt lat="42.097267" lon="23.574333"><ele>2570.9</ele><time>2026-03-08T12:42:43.000Z</time></trkpt>
<trkpt lat="42.097257" lon="23.574339"><ele>2570.9</ele><time>2026-03-08T12:42:44.000Z</time></trkpt>
<trkpt lat="42.097246" lon="23.574345"><ele>2570.9</ele><time>2026-03-08T12:42:45.000Z</time></trkpt>
<trkpt lat="42.097236" lon="23.57435"><ele>2570.9</ele><time>2026-03-08T12:42:46.000Z</time></trkpt>
<trkpt lat="42.097226" lon="23.574356"><ele>2569.5</ele><time>2026-03-08T12:42:47.000Z</time></trkpt>
<trkpt lat="42.097217" lon="23.574361"><ele>2569.5</ele><time>2026-03-08T12:42:48.000Z</time></trkpt>
<trkpt lat="42.097208" lon="23.574365"><ele>2569.5</ele><time>2026-03-08T12:42:49.000Z</time></trkpt>
<trkpt lat="42.097199" lon="23.574369"><ele>2569.5</ele><time>2026-03-08T12:42:50.000Z</time></trkpt>
<trkpt lat="42.097189" lon="23.574373"><ele>2569.5</ele><time>2026-03-08T12:42:51.000Z</time></trkpt>
<trkpt lat="42.09718" lon="23.574378"><ele>2567.9</ele><time>2026-03-08T12:42:52.000Z</time></trkpt>
<trkpt lat="42.097171" lon="23.574382"><ele>2567.9</ele><time>2026-03-08T12:42:53.000Z</time></trkpt>
<trkpt lat="42.097161" lon="23.574387"><ele>2567.9</ele><time>2026-03-08T12:42:54.000Z</time></trkpt>
<trkpt lat="42.097152" lon="23.574392"><ele>2567.9</ele><time>2026-03-08T12:42:55.000Z</time></trkpt>
<trkpt lat="42.097144" lon="23.574398"><ele>2567.9</ele><time>2026-03-08T12:42:56.000Z</time></trkpt>
<trkpt lat="42.097134" lon="23.574403"><ele>2567.1</ele><time>2026-03-08T12:42:57.000Z</time></trkpt>
<trkpt lat="42.097126" lon="23.574408"><ele>2567.1</ele><time>2026-03-08T12:42:58.000Z</time></trkpt>
<trkpt lat="42.097117" lon="23.574413"><ele>2567.1</ele><time>2026-03-08T12:42:59.000Z</time></trkpt>
<trkpt lat="42.097108" lon="23.574419"><ele>2567.1</ele><time>2026-03-08T12:43:00.000Z</time></trkpt>
<trkpt lat="42.0971" lon="23.574424"><ele>2567.1</ele><time>2026-03-08T12:43:01.000Z</time></trkpt>
<trkpt lat="42.097093" lon="23.574429"><ele>2565.7</ele><time>2026-03-08T12:43:02.000Z</time></trkpt>
<trkpt lat="42.097087" lon="23.574432"><ele>2565.7</ele><time>2026-03-08T12:43:03.000Z</time></trkpt>
<trkpt lat="42.097083" lon="23.574433"><ele>2565.7</ele><time>2026-03-08T12:43:04.000Z</time></trkpt>
<trkpt lat="42.09708" lon="23.574433"><ele>2565.7</ele><time>2026-03-08T12:43:05.000Z</time></trkpt>
<trkpt lat="42.097078" lon="23.57443"><ele>2565.7</ele><time>2026-03-08T12:43:06.000Z</time></trkpt>
<trkpt lat="42.097077" lon="23.574428"><ele>2564.5</ele><time>2026-03-08T12:43:07.000Z</time></trkpt>
<trkpt lat="42.097076" lon="23.574427"><ele>2564.5</ele><time>2026-03-08T12:43:08.000Z</time></trkpt>
<trkpt lat="42.097075" lon="23.574426"><ele>2564.5</ele><time>2026-03-08T12:43:09.000Z</time></trkpt>
<trkpt lat="42.097075" lon="23.574426"><ele>2564.5</ele><time>2026-03-08T12:43:10.000Z</time></trkpt>
<trkpt lat="42.097074" lon="23.574426"><ele>2564.5</ele><time>2026-03-08T12:43:11.000Z</time></trkpt>
<trkpt lat="42.097073" lon="23.574426"><ele>2564.1</ele><time>2026-03-08T12:43:12.000Z</time></trkpt>
<trkpt lat="42.097072" lon="23.574426"><ele>2564.1</ele><time>2026-03-08T12:43:13.000Z</time></trkpt>
<trkpt lat="42.097071" lon="23.574426"><ele>2564.1</ele><time>2026-03-08T12:43:14.000Z</time></trkpt>
<trkpt lat="42.09707" lon="23.574426"><ele>2564.1</ele><time>2026-03-08T12:43:15.000Z</time></trkpt>
<trkpt lat="42.097068" lon="23.574428"><ele>2564.1</ele><time>2026-03-08T12:43:16.000Z</time></trkpt>
<trkpt lat="42.097066" lon="23.574431"><ele>2563.5</ele><time>2026-03-08T12:43:17.000Z</time></trkpt>
<trkpt lat="42.097064" lon="23.574435"><ele>2563.5</ele><time>2026-03-08T12:43:18.000Z</time></trkpt>
<trkpt lat="42.097061" lon="23.574441"><ele>2563.5</ele><time>2026-03-08T12:43:19.000Z</time></trkpt>
<trkpt lat="42.097059" lon="23.574449"><ele>2563.5</ele><time>2026-03-08T12:43:20.000Z</time></trkpt>
<trkpt lat="42.097055" lon="23.574458"><ele>2563.5</ele><time>2026-03-08T12:43:21.000Z</time></trkpt>
<trkpt lat="42.097052" lon="23.574468"><ele>2563.4</ele><time>2026-03-08T12:43:22.000Z</time></trkpt>
<trkpt lat="42.097049" lon="23.574478"><ele>2563.4</ele><time>2026-03-08T12:43:23.000Z</time></trkpt>
<trkpt lat="42.097045" lon="23.574489"><ele>2563.4</ele><time>2026-03-08T12:43:24.000Z</time></trkpt>
<trkpt lat="42.097041" lon="23.5745"><ele>2563.4</ele><time>2026-03-08T12:43:25.000Z</time></trkpt>
<trkpt lat="42.097037" lon="23.574512"><ele>2563.4</ele><time>2026-03-08T12:43:26.000Z</time></trkpt>
<trkpt lat="42.097033" lon="23.574525"><ele>2563.4</ele><time>2026-03-08T12:43:27.000Z</time></trkpt>
<trkpt lat="42.097029" lon="23.574538"><ele>2563.4</ele><time>2026-03-08T12:43:28.000Z</time></trkpt>
<trkpt lat="42.097025" lon="23.574551"><ele>2563.4</ele><time>2026-03-08T12:43:29.000Z</time></trkpt>
<trkpt lat="42.097021" lon="23.574564"><ele>2563.4</ele><time>2026-03-08T12:43:30.000Z</time></trkpt>
<trkpt lat="42.097017" lon="23.574575"><ele>2563.4</ele><time>2026-03-08T12:43:31.000Z</time></trkpt>
<trkpt lat="42.097014" lon="23.574586"><ele>2563.1</ele><time>2026-03-08T12:43:32.000Z</time></trkpt>
<trkpt lat="42.097011" lon="23.574596"><ele>2563.1</ele><time>2026-03-08T12:43:33.000Z</time></trkpt>
<trkpt lat="42.09701" lon="23.574605"><ele>2563.1</ele><time>2026-03-08T12:43:34.000Z</time></trkpt>
<trkpt lat="42.097008" lon="23.574613"><ele>2563.1</ele><time>2026-03-08T12:43:35.000Z</time></trkpt>
<trkpt lat="42.097008" lon="23.574618"><ele>2563.1</ele><time>2026-03-08T12:43:36.000Z</time></trkpt>
<trkpt lat="42.097007" lon="23.574621"><ele>2562.2</ele><time>2026-03-08T12:43:37.000Z</time></trkpt>
<trkpt lat="42.097007" lon="23.574623"><ele>2562.2</ele><time>2026-03-08T12:43:38.000Z</time></trkpt>
<trkpt lat="42.097007" lon="23.574623"><ele>2562.2</ele><time>2026-03-08T12:43:39.000Z</time></trkpt>
<trkpt lat="42.097007" lon="23.574623"><ele>2562.2</ele><time>2026-03-08T12:43:40.000Z</time></trkpt>
<trkpt lat="42.097007" lon="23.574623"><ele>2562.2</ele><time>2026-03-08T12:43:41.000Z</time></trkpt>
<trkpt lat="42.097007" lon="23.574623"><ele>2561.5</ele><time>2026-03-08T12:43:42.000Z</time></trkpt>
<trkpt lat="42.097007" lon="23.574622"><ele>2561.5</ele><time>2026-03-08T12:43:43.000Z</time></trkpt>
<trkpt lat="42.097007" lon="23.574621"><ele>2561.5</ele><time>2026-03-08T12:43:44.000Z</time></trkpt>
<trkpt lat="42.097007" lon="23.574618"><ele>2561.5</ele><time>2026-03-08T12:43:45.000Z</time></trkpt>
<trkpt lat="42.097006" lon="23.574614"><ele>2561.5</ele><time>2026-03-08T12:43:46.000Z</time></trkpt>
<trkpt lat="42.097005" lon="23.57461"><ele>2560.4</ele><time>2026-03-08T12:43:47.000Z</time></trkpt>
<trkpt lat="42.097003" lon="23.574604"><ele>2560.4</ele><time>2026-03-08T12:43:48.000Z</time></trkpt>
<trkpt lat="42.097001" lon="23.5746"><ele>2560.4</ele><time>2026-03-08T12:43:49.000Z</time></trkpt>
<trkpt lat="42.096999" lon="23.574597"><ele>2560.4</ele><time>2026-03-08T12:43:50.000Z</time></trkpt>
<trkpt lat="42.096997" lon="23.574594"><ele>2560.4</ele><time>2026-03-08T12:43:51.000Z</time></trkpt>
<trkpt lat="42.096995" lon="23.574594"><ele>2559.8</ele><time>2026-03-08T12:43:52.000Z</time></trkpt>
<trkpt lat="42.096995" lon="23.574593"><ele>2559.8</ele><time>2026-03-08T12:43:53.000Z</time></trkpt>
<trkpt lat="42.096994" lon="23.574593"><ele>2559.8</ele><time>2026-03-08T12:43:54.000Z</time></trkpt>
<trkpt lat="42.096993" lon="23.574593"><ele>2559.8</ele><time>2026-03-08T12:43:55.000Z</time></trkpt>
<trkpt lat="42.096993" lon="23.574593"><ele>2559.8</ele><time>2026-03-08T12:43:56.000Z</time></trkpt>
<trkpt lat="42.096993" lon="23.574592"><ele>2559.8</ele><time>2026-03-08T12:43:57.000Z</time></trkpt>
<trkpt lat="42.096993" lon="23.574592"><ele>2559.8</ele><time>2026-03-08T12:43:58.000Z</time></trkpt>
<trkpt lat="42.096993" lon="23.574592"><ele>2559.8</ele><time>2026-03-08T12:43:59.000Z</time></trkpt>
<trkpt lat="42.096993" lon="23.574592"><ele>2559.8</ele><time>2026-03-08T12:44:00.000Z</time></trkpt>
<trkpt lat="42.096993" lon="23.574593"><ele>2559.8</ele><time>2026-03-08T12:44:01.000Z</time></trkpt>
<trkpt lat="42.096992" lon="23.574593"><ele>2560.3</ele><time>2026-03-08T12:44:02.000Z</time></trkpt>
<trkpt lat="42.096991" lon="23.574593"><ele>2560.3</ele><time>2026-03-08T12:44:03.000Z</time></trkpt>
<trkpt lat="42.096991" lon="23.574593"><ele>2560.3</ele><time>2026-03-08T12:44:04.000Z</time></trkpt>
<trkpt lat="42.09699" lon="23.574593"><ele>2560.3</ele><time>2026-03-08T12:44:05.000Z</time></trkpt>
<trkpt lat="42.09699" lon="23.574593"><ele>2560.3</ele><time>2026-03-08T12:44:06.000Z</time></trkpt>
<trkpt lat="42.09699" lon="23.574593"><ele>2560.7</ele><time>2026-03-08T12:44:07.000Z</time></trkpt>
<trkpt lat="42.09699" lon="23.574593"><ele>2560.7</ele><time>2026-03-08T12:44:08.000Z</time></trkpt>
<trkpt lat="42.09699" lon="23.574593"><ele>2560.7</ele><time>2026-03-08T12:44:09.000Z</time></trkpt>
<trkpt lat="42.09699" lon="23.574593"><ele>2560.7</ele><time>2026-03-08T12:44:10.000Z</time></trkpt>
<trkpt lat="42.096989" lon="23.574593"><ele>2560.7</ele><time>2026-03-08T12:44:11.000Z</time></trkpt>
<trkpt lat="42.096989" lon="23.574593"><ele>2560.8</ele><time>2026-03-08T12:44:12.000Z</time></trkpt>
<trkpt lat="42.096989" lon="23.574593"><ele>2560.8</ele><time>2026-03-08T12:44:13.000Z</time></trkpt>
<trkpt lat="42.096989" lon="23.574593"><ele>2560.8</ele><time>2026-03-08T12:44:14.000Z</time></trkpt>
<trkpt lat="42.096989" lon="23.574592"><ele>2560.8</ele><time>2026-03-08T12:44:15.000Z</time></trkpt>
<trkpt lat="42.096989" lon="23.57459"><ele>2560.8</ele><time>2026-03-08T12:44:16.000Z</time></trkpt>
<trkpt lat="42.096988" lon="23.574589"><ele>2560.7</ele><time>2026-03-08T12:44:17.000Z</time></trkpt>
<trkpt lat="42.096988" lon="23.574587"><ele>2560.7</ele><time>2026-03-08T12:44:18.000Z</time></trkpt>
<trkpt lat="42.096987" lon="23.574586"><ele>2560.7</ele><time>2026-03-08T12:44:19.000Z</time></trkpt>
<trkpt lat="42.096987" lon="23.574585"><ele>2560.7</ele><time>2026-03-08T12:44:20.000Z</time></trkpt>
<trkpt lat="42.096987" lon="23.574585"><ele>2560.7</ele><time>2026-03-08T12:44:21.000Z</time></trkpt>
<trkpt lat="42.096987" lon="23.574584"><ele>2560.6</ele><time>2026-03-08T12:44:22.000Z</time></trkpt>
<trkpt lat="42.096987" lon="23.574584"><ele>2560.6</ele><time>2026-03-08T12:44:23.000Z</time></trkpt>
<trkpt lat="42.096988" lon="23.574584"><ele>2560.6</ele><time>2026-03-08T12:44:24.000Z</time></trkpt>
<trkpt lat="42.096986" lon="23.574584"><ele>2560.6</ele><time>2026-03-08T12:44:25.000Z</time></trkpt>
<trkpt lat="42.096983" lon="23.574584"><ele>2560.6</ele><time>2026-03-08T12:44:26.000Z</time></trkpt>
<trkpt lat="42.096979" lon="23.574585"><ele>2560.6</ele><time>2026-03-08T12:44:27.000Z</time></trkpt>
<trkpt lat="42.096974" lon="23.574585"><ele>2560.6</ele><time>2026-03-08T12:44:28.000Z</time></trkpt>
<trkpt lat="42.096969" lon="23.574585"><ele>2560.6</ele><time>2026-03-08T12:44:29.000Z</time></trkpt>
<trkpt lat="42.096962" lon="23.574587"><ele>2560.6</ele><time>2026-03-08T12:44:30.000Z</time></trkpt>
<trkpt lat="42.096955" lon="23.574589"><ele>2560.6</ele><time>2026-03-08T12:44:31.000Z</time></trkpt>
<trkpt lat="42.096948" lon="23.574591"><ele>2560.7</ele><time>2026-03-08T12:44:32.000Z</time></trkpt>
<trkpt lat="42.096941" lon="23.574593"><ele>2560.7</ele><time>2026-03-08T12:44:33.000Z</time></trkpt>
<trkpt lat="42.096933" lon="23.574594"><ele>2560.7</ele><time>2026-03-08T12:44:34.000Z</time></trkpt>
<trkpt lat="42.096926" lon="23.574594"><ele>2560.7</ele><time>2026-03-08T12:44:35.000Z</time></trkpt>
<trkpt lat="42.096918" lon="23.574594"><ele>2560.7</ele><time>2026-03-08T12:44:36.000Z</time></trkpt>
<trkpt lat="42.096911" lon="23.574593"><ele>2560.6</ele><time>2026-03-08T12:44:37.000Z</time></trkpt>
<trkpt lat="42.096903" lon="23.574593"><ele>2560.6</ele><time>2026-03-08T12:44:38.000Z</time></trkpt>
<trkpt lat="42.096894" lon="23.574593"><ele>2560.6</ele><time>2026-03-08T12:44:39.000Z</time></trkpt>
<trkpt lat="42.096885" lon="23.574593"><ele>2560.6</ele><time>2026-03-08T12:44:40.000Z</time></trkpt>
<trkpt lat="42.096877" lon="23.574593"><ele>2560.6</ele><time>2026-03-08T12:44:41.000Z</time></trkpt>
<trkpt lat="42.096869" lon="23.574593"><ele>2560.5</ele><time>2026-03-08T12:44:42.000Z</time></trkpt>
<trkpt lat="42.09686" lon="23.574593"><ele>2560.5</ele><time>2026-03-08T12:44:43.000Z</time></trkpt>
<trkpt lat="42.096852" lon="23.574594"><ele>2560.5</ele><time>2026-03-08T12:44:44.000Z</time></trkpt>
<trkpt lat="42.096844" lon="23.574594"><ele>2560.5</ele><time>2026-03-08T12:44:45.000Z</time></trkpt>
<trkpt lat="42.096837" lon="23.574595"><ele>2560.5</ele><time>2026-03-08T12:44:46.000Z</time></trkpt>
<trkpt lat="42.096829" lon="23.574597"><ele>2560.4</ele><time>2026-03-08T12:44:47.000Z</time></trkpt>
<trkpt lat="42.096822" lon="23.5746"><ele>2560.4</ele><time>2026-03-08T12:44:48.000Z</time></trkpt>
<trkpt lat="42.096815" lon="23.574603"><ele>2560.4</ele><time>2026-03-08T12:44:49.000Z</time></trkpt>
<trkpt lat="42.096809" lon="23.574606"><ele>2560.4</ele><time>2026-03-08T12:44:50.000Z</time></trkpt>
<trkpt lat="42.096802" lon="23.574611"><ele>2560.4</ele><time>2026-03-08T12:44:51.000Z</time></trkpt>
<trkpt lat="42.096796" lon="23.574616"><ele>2560.3</ele><time>2026-03-08T12:44:52.000Z</time></trkpt>
<trkpt lat="42.09679" lon="23.574621"><ele>2560.3</ele><time>2026-03-08T12:44:53.000Z</time></trkpt>
<trkpt lat="42.096785" lon="23.574627"><ele>2560.3</ele><time>2026-03-08T12:44:54.000Z</time></trkpt>
<trkpt lat="42.096779" lon="23.574635"><ele>2560.3</ele><time>2026-03-08T12:44:55.000Z</time></trkpt>
<trkpt lat="42.096774" lon="23.574643"><ele>2560.3</ele><time>2026-03-08T12:44:56.000Z</time></trkpt>
<trkpt lat="42.096769" lon="23.574652"><ele>2560.2</ele><time>2026-03-08T12:44:57.000Z</time></trkpt>
<trkpt lat="42.096764" lon="23.57466"><ele>2560.2</ele><time>2026-03-08T12:44:58.000Z</time></trkpt>
<trkpt lat="42.096759" lon="23.574669"><ele>2560.2</ele><time>2026-03-08T12:44:59.000Z</time></trkpt>
<trkpt lat="42.096754" lon="23.574678"><ele>2560.2</ele><time>2026-03-08T12:45:00.000Z</time></trkpt>
<trkpt lat="42.096749" lon="23.574686"><ele>2560.2</ele><time>2026-03-08T12:45:01.000Z</time></trkpt>
<trkpt lat="42.096745" lon="23.574693"><ele>2559.9</ele><time>2026-03-08T12:45:02.000Z</time></trkpt>
<trkpt lat="42.09674" lon="23.574701"><ele>2559.9</ele><time>2026-03-08T12:45:03.000Z</time></trkpt>
<trkpt lat="42.096736" lon="23.57471"><ele>2559.9</ele><time>2026-03-08T12:45:04.000Z</time></trkpt>
<trkpt lat="42.096731" lon="23.574718"><ele>2559.9</ele><time>2026-03-08T12:45:05.000Z</time></trkpt>
<trkpt lat="42.096726" lon="23.574727"><ele>2559.9</ele><time>2026-03-08T12:45:06.000Z</time></trkpt>
<trkpt lat="42.096721" lon="23.574737"><ele>2559.5</ele><time>2026-03-08T12:45:07.000Z</time></trkpt>
<trkpt lat="42.096715" lon="23.574746"><ele>2559.5</ele><time>2026-03-08T12:45:08.000Z</time></trkpt>
<trkpt lat="42.096709" lon="23.574756"><ele>2559.5</ele><time>2026-03-08T12:45:09.000Z</time></trkpt>
<trkpt lat="42.096704" lon="23.574767"><ele>2559.5</ele><time>2026-03-08T12:45:10.000Z</time></trkpt>
<trkpt lat="42.0967" lon="23.574777"><ele>2559.5</ele><time>2026-03-08T12:45:11.000Z</time></trkpt>
<trkpt lat="42.096696" lon="23.574786"><ele>2559.3</ele><time>2026-03-08T12:45:12.000Z</time></trkpt>
<trkpt lat="42.096693" lon="23.574794"><ele>2559.3</ele><time>2026-03-08T12:45:13.000Z</time></trkpt>
<trkpt lat="42.09669" lon="23.574803"><ele>2559.3</ele><time>2026-03-08T12:45:14.000Z</time></trkpt>
<trkpt lat="42.096687" lon="23.574809"><ele>2559.3</ele><time>2026-03-08T12:45:15.000Z</time></trkpt>
<trkpt lat="42.096684" lon="23.574816"><ele>2559.3</ele><time>2026-03-08T12:45:16.000Z</time></trkpt>
<trkpt lat="42.096679" lon="23.574822"><ele>2559.1</ele><time>2026-03-08T12:45:17.000Z</time></trkpt>
<trkpt lat="42.096675" lon="23.574828"><ele>2559.1</ele><time>2026-03-08T12:45:18.000Z</time></trkpt>
<trkpt lat="42.096671" lon="23.574833"><ele>2559.1</ele><time>2026-03-08T12:45:19.000Z</time></trkpt>
<trkpt lat="42.096666" lon="23.574838"><ele>2559.1</ele><time>2026-03-08T12:45:20.000Z</time></trkpt>
<trkpt lat="42.096662" lon="23.574842"><ele>2559.1</ele><time>2026-03-08T12:45:21.000Z</time></trkpt>
<trkpt lat="42.096659" lon="23.574847"><ele>2559</ele><time>2026-03-08T12:45:22.000Z</time></trkpt>
<trkpt lat="42.096654" lon="23.574852"><ele>2559</ele><time>2026-03-08T12:45:23.000Z</time></trkpt>
<trkpt lat="42.096649" lon="23.574856"><ele>2559</ele><time>2026-03-08T12:45:24.000Z</time></trkpt>
<trkpt lat="42.096643" lon="23.57486"><ele>2559</ele><time>2026-03-08T12:45:25.000Z</time></trkpt>
<trkpt lat="42.096638" lon="23.574866"><ele>2559</ele><time>2026-03-08T12:45:26.000Z</time></trkpt>
<trkpt lat="42.096633" lon="23.574871"><ele>2559</ele><time>2026-03-08T12:45:27.000Z</time></trkpt>
<trkpt lat="42.096627" lon="23.574876"><ele>2559</ele><time>2026-03-08T12:45:28.000Z</time></trkpt>
<trkpt lat="42.096621" lon="23.574882"><ele>2559</ele><time>2026-03-08T12:45:29.000Z</time></trkpt>
<trkpt lat="42.096616" lon="23.574888"><ele>2559</ele><time>2026-03-08T12:45:30.000Z</time></trkpt>
<trkpt lat="42.096611" lon="23.574894"><ele>2559</ele><time>2026-03-08T12:45:31.000Z</time></trkpt>
<trkpt lat="42.096605" lon="23.5749"><ele>2559.2</ele><time>2026-03-08T12:45:32.000Z</time></trkpt>
<trkpt lat="42.0966" lon="23.574905"><ele>2559.2</ele><time>2026-03-08T12:45:33.000Z</time></trkpt>
<trkpt lat="42.096596" lon="23.57491"><ele>2559.2</ele><time>2026-03-08T12:45:34.000Z</time></trkpt>
<trkpt lat="42.096592" lon="23.574915"><ele>2559.2</ele><time>2026-03-08T12:45:35.000Z</time></trkpt>
<trkpt lat="42.096588" lon="23.57492"><ele>2559.2</ele><time>2026-03-08T12:45:36.000Z</time></trkpt>
<trkpt lat="42.096583" lon="23.574924"><ele>2559.6</ele><time>2026-03-08T12:45:37.000Z</time></trkpt>
<trkpt lat="42.096578" lon="23.574928"><ele>2559.6</ele><time>2026-03-08T12:45:38.000Z</time></trkpt>
<trkpt lat="42.096573" lon="23.574933"><ele>2559.6</ele><time>2026-03-08T12:45:39.000Z</time></trkpt>
<trkpt lat="42.096567" lon="23.574938"><ele>2559.6</ele><time>2026-03-08T12:45:40.000Z</time></trkpt>
<trkpt lat="42.096562" lon="23.57494"><ele>2559.6</ele><time>2026-03-08T12:45:41.000Z</time></trkpt>
<trkpt lat="42.096557" lon="23.574944"><ele>2559.8</ele><time>2026-03-08T12:45:42.000Z</time></trkpt>
<trkpt lat="42.096552" lon="23.574946"><ele>2559.8</ele><time>2026-03-08T12:45:43.000Z</time></trkpt>
<trkpt lat="42.096547" lon="23.574948"><ele>2559.8</ele><time>2026-03-08T12:45:44.000Z</time></trkpt>
<trkpt lat="42.096542" lon="23.574951"><ele>2559.8</ele><time>2026-03-08T12:45:45.000Z</time></trkpt>
<trkpt lat="42.096537" lon="23.574955"><ele>2559.8</ele><time>2026-03-08T12:45:46.000Z</time></trkpt>
<trkpt lat="42.096532" lon="23.574961"><ele>2560.1</ele><time>2026-03-08T12:45:47.000Z</time></trkpt>
<trkpt lat="42.096527" lon="23.574967"><ele>2560.1</ele><time>2026-03-08T12:45:48.000Z</time></trkpt>
<trkpt lat="42.096521" lon="23.574974"><ele>2560.1</ele><time>2026-03-08T12:45:49.000Z</time></trkpt>
<trkpt lat="42.096515" lon="23.57498"><ele>2560.1</ele><time>2026-03-08T12:45:50.000Z</time></trkpt>
<trkpt lat="42.096508" lon="23.574986"><ele>2560.1</ele><time>2026-03-08T12:45:51.000Z</time></trkpt>
<trkpt lat="42.096501" lon="23.574991"><ele>2560.4</ele><time>2026-03-08T12:45:52.000Z</time></trkpt>
<trkpt lat="42.096493" lon="23.574995"><ele>2560.4</ele><time>2026-03-08T12:45:53.000Z</time></trkpt>
<trkpt lat="42.096486" lon="23.574999"><ele>2560.4</ele><time>2026-03-08T12:45:54.000Z</time></trkpt>
<trkpt lat="42.09648" lon="23.575004"><ele>2560.4</ele><time>2026-03-08T12:45:55.000Z</time></trkpt>
<trkpt lat="42.096475" lon="23.575009"><ele>2560.4</ele><time>2026-03-08T12:45:56.000Z</time></trkpt>
<trkpt lat="42.09647" lon="23.575016"><ele>2560.5</ele><time>2026-03-08T12:45:57.000Z</time></trkpt>
<trkpt lat="42.096464" lon="23.575023"><ele>2560.5</ele><time>2026-03-08T12:45:58.000Z</time></trkpt>
<trkpt lat="42.096458" lon="23.575031"><ele>2560.5</ele><time>2026-03-08T12:45:59.000Z</time></trkpt>
<trkpt lat="42.09645" lon="23.575038"><ele>2560.5</ele><time>2026-03-08T12:46:00.000Z</time></trkpt>
<trkpt lat="42.096441" lon="23.575044"><ele>2560.5</ele><time>2026-03-08T12:46:01.000Z</time></trkpt>
<trkpt lat="42.096432" lon="23.575049"><ele>2560.5</ele><time>2026-03-08T12:46:02.000Z</time></trkpt>
<trkpt lat="42.096424" lon="23.575053"><ele>2560.5</ele><time>2026-03-08T12:46:03.000Z</time></trkpt>
<trkpt lat="42.096417" lon="23.575056"><ele>2560.5</ele><time>2026-03-08T12:46:04.000Z</time></trkpt>
<trkpt lat="42.096412" lon="23.575059"><ele>2560.5</ele><time>2026-03-08T12:46:05.000Z</time></trkpt>
<trkpt lat="42.096409" lon="23.57506"><ele>2560.5</ele><time>2026-03-08T12:46:06.000Z</time></trkpt>
<trkpt lat="42.096407" lon="23.57506"><ele>2560.5</ele><time>2026-03-08T12:46:07.000Z</time></trkpt>
<trkpt lat="42.096407" lon="23.57506"><ele>2560.5</ele><time>2026-03-08T12:46:08.000Z</time></trkpt>
<trkpt lat="42.096406" lon="23.57506"><ele>2560.5</ele><time>2026-03-08T12:46:09.000Z</time></trkpt>
<trkpt lat="42.096405" lon="23.57506"><ele>2560.5</ele><time>2026-03-08T12:46:10.000Z</time></trkpt>
<trkpt lat="42.096405" lon="23.575061"><ele>2560.5</ele><time>2026-03-08T12:46:11.000Z</time></trkpt>
<trkpt lat="42.096405" lon="23.575061"><ele>2560.4</ele><time>2026-03-08T12:46:12.000Z</time></trkpt>
<trkpt lat="42.096405" lon="23.575061"><ele>2560.4</ele><time>2026-03-08T12:46:13.000Z</time></trkpt>
<trkpt lat="42.096404" lon="23.57506"><ele>2560.4</ele><time>2026-03-08T12:46:14.000Z</time></trkpt>
<trkpt lat="42.096404" lon="23.57506"><ele>2560.4</ele><time>2026-03-08T12:46:15.000Z</time></trkpt>
<trkpt lat="42.096404" lon="23.575059"><ele>2560.4</ele><time>2026-03-08T12:46:16.000Z</time></trkpt>
<trkpt lat="42.096403" lon="23.575059"><ele>2560.2</ele><time>2026-03-08T12:46:17.000Z</time></trkpt>
<trkpt lat="42.096403" lon="23.575059"><ele>2560.2</ele><time>2026-03-08T12:46:18.000Z</time></trkpt>
<trkpt lat="42.096403" lon="23.575059"><ele>2560.2</ele><time>2026-03-08T12:46:19.000Z</time></trkpt>
<trkpt lat="42.096403" lon="23.575059"><ele>2560.2</ele><time>2026-03-08T12:46:20.000Z</time></trkpt>
<trkpt lat="42.096403" lon="23.575059"><ele>2560.2</ele><time>2026-03-08T12:46:21.000Z</time></trkpt>
<trkpt lat="42.096402" lon="23.57506"><ele>2560</ele><time>2026-03-08T12:46:22.000Z</time></trkpt>
<trkpt lat="42.0964" lon="23.57506"><ele>2560</ele><time>2026-03-08T12:46:23.000Z</time></trkpt>
<trkpt lat="42.096395" lon="23.575062"><ele>2560</ele><time>2026-03-08T12:46:24.000Z</time></trkpt>
<trkpt lat="42.09639" lon="23.575065"><ele>2560</ele><time>2026-03-08T12:46:25.000Z</time></trkpt>
<trkpt lat="42.096383" lon="23.57507"><ele>2560</ele><time>2026-03-08T12:46:26.000Z</time></trkpt>
<trkpt lat="42.096375" lon="23.575076"><ele>2560</ele><time>2026-03-08T12:46:27.000Z</time></trkpt>
<trkpt lat="42.096366" lon="23.575083"><ele>2560</ele><time>2026-03-08T12:46:28.000Z</time></trkpt>
<trkpt lat="42.096357" lon="23.575091"><ele>2560</ele><time>2026-03-08T12:46:29.000Z</time></trkpt>
<trkpt lat="42.096349" lon="23.575099"><ele>2560</ele><time>2026-03-08T12:46:30.000Z</time></trkpt>
<trkpt lat="42.096341" lon="23.575108"><ele>2560</ele><time>2026-03-08T12:46:31.000Z</time></trkpt>
<trkpt lat="42.096334" lon="23.575117"><ele>2559.9</ele><time>2026-03-08T12:46:32.000Z</time></trkpt>
<trkpt lat="42.096328" lon="23.575126"><ele>2559.9</ele><time>2026-03-08T12:46:33.000Z</time></trkpt>
<trkpt lat="42.096322" lon="23.575134"><ele>2559.9</ele><time>2026-03-08T12:46:34.000Z</time></trkpt>
<trkpt lat="42.096315" lon="23.575143"><ele>2559.9</ele><time>2026-03-08T12:46:35.000Z</time></trkpt>
<trkpt lat="42.096309" lon="23.575149"><ele>2559.9</ele><time>2026-03-08T12:46:36.000Z</time></trkpt>
<trkpt lat="42.096302" lon="23.575156"><ele>2559.4</ele><time>2026-03-08T12:46:37.000Z</time></trkpt>
<trkpt lat="42.096295" lon="23.575161"><ele>2559.4</ele><time>2026-03-08T12:46:38.000Z</time></trkpt>
<trkpt lat="42.096289" lon="23.575165"><ele>2559.4</ele><time>2026-03-08T12:46:39.000Z</time></trkpt>
<trkpt lat="42.096283" lon="23.575168"><ele>2559.4</ele><time>2026-03-08T12:46:40.000Z</time></trkpt>
<trkpt lat="42.096276" lon="23.575171"><ele>2559.4</ele><time>2026-03-08T12:46:41.000Z</time></trkpt>
<trkpt lat="42.09627" lon="23.575174"><ele>2559.1</ele><time>2026-03-08T12:46:42.000Z</time></trkpt>
<trkpt lat="42.096265" lon="23.575176"><ele>2559.1</ele><time>2026-03-08T12:46:43.000Z</time></trkpt>
<trkpt lat="42.096259" lon="23.575181"><ele>2559.1</ele><time>2026-03-08T12:46:44.000Z</time></trkpt>
<trkpt lat="42.096253" lon="23.575186"><ele>2559.1</ele><time>2026-03-08T12:46:45.000Z</time></trkpt>
<trkpt lat="42.096248" lon="23.575191"><ele>2559.1</ele><time>2026-03-08T12:46:46.000Z</time></trkpt>
<trkpt lat="42.096242" lon="23.575197"><ele>2558.3</ele><time>2026-03-08T12:46:47.000Z</time></trkpt>
<trkpt lat="42.096234" lon="23.575204"><ele>2558.3</ele><time>2026-03-08T12:46:48.000Z</time></trkpt>
<trkpt lat="42.096227" lon="23.57521"><ele>2558.3</ele><time>2026-03-08T12:46:49.000Z</time></trkpt>
<trkpt lat="42.096218" lon="23.575216"><ele>2558.3</ele><time>2026-03-08T12:46:50.000Z</time></trkpt>
<trkpt lat="42.096208" lon="23.575222"><ele>2558.3</ele><time>2026-03-08T12:46:51.000Z</time></trkpt>
<trkpt lat="42.096197" lon="23.575227"><ele>2557.6</ele><time>2026-03-08T12:46:52.000Z</time></trkpt>
<trkpt lat="42.096188" lon="23.575232"><ele>2557.6</ele><time>2026-03-08T12:46:53.000Z</time></trkpt>
<trkpt lat="42.096178" lon="23.575236"><ele>2557.6</ele><time>2026-03-08T12:46:54.000Z</time></trkpt>
<trkpt lat="42.09617" lon="23.575241"><ele>2557.6</ele><time>2026-03-08T12:46:55.000Z</time></trkpt>
<trkpt lat="42.096164" lon="23.575247"><ele>2557.6</ele><time>2026-03-08T12:46:56.000Z</time></trkpt>
<trkpt lat="42.096158" lon="23.575254"><ele>2557.3</ele><time>2026-03-08T12:46:57.000Z</time></trkpt>
<trkpt lat="42.096153" lon="23.57526"><ele>2557.3</ele><time>2026-03-08T12:46:58.000Z</time></trkpt>
<trkpt lat="42.096149" lon="23.575266"><ele>2557.3</ele><time>2026-03-08T12:46:59.000Z</time></trkpt>
<trkpt lat="42.096144" lon="23.575271"><ele>2557.3</ele><time>2026-03-08T12:47:00.000Z</time></trkpt>
<trkpt lat="42.09614" lon="23.575275"><ele>2557.3</ele><time>2026-03-08T12:47:01.000Z</time></trkpt>
<trkpt lat="42.096135" lon="23.57528"><ele>2556.4</ele><time>2026-03-08T12:47:02.000Z</time></trkpt>
<trkpt lat="42.096131" lon="23.575285"><ele>2556.4</ele><time>2026-03-08T12:47:03.000Z</time></trkpt>
<trkpt lat="42.096126" lon="23.575289"><ele>2556.4</ele><time>2026-03-08T12:47:04.000Z</time></trkpt>
<trkpt lat="42.09612" lon="23.575294"><ele>2556.4</ele><time>2026-03-08T12:47:05.000Z</time></trkpt>
<trkpt lat="42.096115" lon="23.575299"><ele>2556.4</ele><time>2026-03-08T12:47:06.000Z</time></trkpt>
<trkpt lat="42.09611" lon="23.575304"><ele>2555.5</ele><time>2026-03-08T12:47:07.000Z</time></trkpt>
<trkpt lat="42.096104" lon="23.575309"><ele>2555.5</ele><time>2026-03-08T12:47:08.000Z</time></trkpt>
<trkpt lat="42.096099" lon="23.575315"><ele>2555.5</ele><time>2026-03-08T12:47:09.000Z</time></trkpt>
<trkpt lat="42.096093" lon="23.575321"><ele>2555.5</ele><time>2026-03-08T12:47:10.000Z</time></trkpt>
<trkpt lat="42.096087" lon="23.575326"><ele>2555.5</ele><time>2026-03-08T12:47:11.000Z</time></trkpt>
<trkpt lat="42.096082" lon="23.575332"><ele>2555.1</ele><time>2026-03-08T12:47:12.000Z</time></trkpt>
<trkpt lat="42.096077" lon="23.575337"><ele>2555.1</ele><time>2026-03-08T12:47:13.000Z</time></trkpt>
<trkpt lat="42.096072" lon="23.57534"><ele>2555.1</ele><time>2026-03-08T12:47:14.000Z</time></trkpt>
<trkpt lat="42.096069" lon="23.575341"><ele>2555.1</ele><time>2026-03-08T12:47:15.000Z</time></trkpt>
<trkpt lat="42.096066" lon="23.575342"><ele>2555.1</ele><time>2026-03-08T12:47:16.000Z</time></trkpt>
<trkpt lat="42.096064" lon="23.575342"><ele>2554.6</ele><time>2026-03-08T12:47:17.000Z</time></trkpt>
<trkpt lat="42.096063" lon="23.575342"><ele>2554.6</ele><time>2026-03-08T12:47:18.000Z</time></trkpt>
<trkpt lat="42.096063" lon="23.575341"><ele>2554.6</ele><time>2026-03-08T12:47:19.000Z</time></trkpt>
<trkpt lat="42.096062" lon="23.575341"><ele>2554.6</ele><time>2026-03-08T12:47:20.000Z</time></trkpt>
<trkpt lat="42.096062" lon="23.575341"><ele>2554.6</ele><time>2026-03-08T12:47:21.000Z</time></trkpt>
<trkpt lat="42.096062" lon="23.575341"><ele>2554.3</ele><time>2026-03-08T12:47:22.000Z</time></trkpt>
<trkpt lat="42.096062" lon="23.575341"><ele>2554.3</ele><time>2026-03-08T12:47:23.000Z</time></trkpt>
<trkpt lat="42.096062" lon="23.575341"><ele>2554.3</ele><time>2026-03-08T12:47:24.000Z</time></trkpt>
<trkpt lat="42.096062" lon="23.575341"><ele>2554.3</ele><time>2026-03-08T12:47:25.000Z</time></trkpt>
<trkpt lat="42.096062" lon="23.575341"><ele>2554.3</ele><time>2026-03-08T12:47:26.000Z</time></trkpt>
<trkpt lat="42.096061" lon="23.57534"><ele>2554.2</ele><time>2026-03-08T12:47:27.000Z</time></trkpt>
<trkpt lat="42.09606" lon="23.575339"><ele>2554.2</ele><time>2026-03-08T12:47:28.000Z</time></trkpt>
<trkpt lat="42.09606" lon="23.575338"><ele>2554.2</ele><time>2026-03-08T12:47:29.000Z</time></trkpt>
<trkpt lat="42.096059" lon="23.575338"><ele>2554.2</ele><time>2026-03-08T12:47:30.000Z</time></trkpt>
<trkpt lat="42.096059" lon="23.575337"><ele>2554.2</ele><time>2026-03-08T12:47:31.000Z</time></trkpt>
<trkpt lat="42.096059" lon="23.575337"><ele>2553.9</ele><time>2026-03-08T12:47:32.000Z</time></trkpt>
<trkpt lat="42.096059" lon="23.575337"><ele>2553.9</ele><time>2026-03-08T12:47:33.000Z</time></trkpt>
<trkpt lat="42.096059" lon="23.575337"><ele>2553.9</ele><time>2026-03-08T12:47:34.000Z</time></trkpt>
<trkpt lat="42.096059" lon="23.575337"><ele>2553.9</ele><time>2026-03-08T12:47:35.000Z</time></trkpt>
<trkpt lat="42.096059" lon="23.575337"><ele>2553.9</ele><time>2026-03-08T12:47:36.000Z</time></trkpt>
<trkpt lat="42.096059" lon="23.575337"><ele>2553.8</ele><time>2026-03-08T12:47:37.000Z</time></trkpt>
<trkpt lat="42.096059" lon="23.575337"><ele>2553.8</ele><time>2026-03-08T12:47:38.000Z</time></trkpt>
<trkpt lat="42.09606" lon="23.575337"><ele>2553.8</ele><time>2026-03-08T12:47:39.000Z</time></trkpt>
<trkpt lat="42.09606" lon="23.575338"><ele>2553.8</ele><time>2026-03-08T12:47:40.000Z</time></trkpt>
<trkpt lat="42.096061" lon="23.575338"><ele>2553.8</ele><time>2026-03-08T12:47:41.000Z</time></trkpt>
<trkpt lat="42.096061" lon="23.575338"><ele>2553.7</ele><time>2026-03-08T12:47:42.000Z</time></trkpt>
<trkpt lat="42.096061" lon="23.575338"><ele>2553.7</ele><time>2026-03-08T12:47:43.000Z</time></trkpt>
<trkpt lat="42.096061" lon="23.575338"><ele>2553.7</ele><time>2026-03-08T12:47:44.000Z</time></trkpt>
<trkpt lat="42.096062" lon="23.575338"><ele>2553.7</ele><time>2026-03-08T12:47:45.000Z</time></trkpt>
<trkpt lat="42.096062" lon="23.575338"><ele>2553.7</ele><time>2026-03-08T12:47:46.000Z</time></trkpt>
<trkpt lat="42.096062" lon="23.575339"><ele>2553.6</ele><time>2026-03-08T12:47:47.000Z</time></trkpt>
<trkpt lat="42.096063" lon="23.575339"><ele>2553.6</ele><time>2026-03-08T12:47:48.000Z</time></trkpt>
<trkpt lat="42.096063" lon="23.57534"><ele>2553.6</ele><time>2026-03-08T12:47:49.000Z</time></trkpt>
<trkpt lat="42.096062" lon="23.575342"><ele>2553.6</ele><time>2026-03-08T12:47:50.000Z</time></trkpt>
<trkpt lat="42.09606" lon="23.575344"><ele>2553.6</ele><time>2026-03-08T12:47:51.000Z</time></trkpt>
<trkpt lat="42.096059" lon="23.575348"><ele>2553.6</ele><time>2026-03-08T12:47:52.000Z</time></trkpt>
<trkpt lat="42.096057" lon="23.575352"><ele>2553.6</ele><time>2026-03-08T12:47:53.000Z</time></trkpt>
<trkpt lat="42.096055" lon="23.575356"><ele>2553.6</ele><time>2026-03-08T12:47:54.000Z</time></trkpt>
<trkpt lat="42.096053" lon="23.575359"><ele>2553.6</ele><time>2026-03-08T12:47:55.000Z</time></trkpt>
<trkpt lat="42.096052" lon="23.575361"><ele>2553.6</ele><time>2026-03-08T12:47:56.000Z</time></trkpt>
<trkpt lat="42.09605" lon="23.575364"><ele>2553.5</ele><time>2026-03-08T12:47:57.000Z</time></trkpt>
<trkpt lat="42.096049" lon="23.575367"><ele>2553.5</ele><time>2026-03-08T12:47:58.000Z</time></trkpt>
<trkpt lat="42.096046" lon="23.57537"><ele>2553.5</ele><time>2026-03-08T12:47:59.000Z</time></trkpt>
<trkpt lat="42.096044" lon="23.575375"><ele>2553.5</ele><time>2026-03-08T12:48:00.000Z</time></trkpt>
<trkpt lat="42.096041" lon="23.575381"><ele>2553.5</ele><time>2026-03-08T12:48:01.000Z</time></trkpt>
<trkpt lat="42.096038" lon="23.575386"><ele>2553.4</ele><time>2026-03-08T12:48:02.000Z</time></trkpt>
<trkpt lat="42.096036" lon="23.575391"><ele>2553.4</ele><time>2026-03-08T12:48:03.000Z</time></trkpt>
<trkpt lat="42.096034" lon="23.575396"><ele>2553.4</ele><time>2026-03-08T12:48:04.000Z</time></trkpt>
<trkpt lat="42.096033" lon="23.575401"><ele>2553.4</ele><time>2026-03-08T12:48:05.000Z</time></trkpt>
<trkpt lat="42.09603" lon="23.575406"><ele>2553.4</ele><time>2026-03-08T12:48:06.000Z</time></trkpt>
<trkpt lat="42.096028" lon="23.57541"><ele>2553.1</ele><time>2026-03-08T12:48:07.000Z</time></trkpt>
<trkpt lat="42.096026" lon="23.575414"><ele>2553.1</ele><time>2026-03-08T12:48:08.000Z</time></trkpt>
<trkpt lat="42.096023" lon="23.575417"><ele>2553.1</ele><time>2026-03-08T12:48:09.000Z</time></trkpt>
<trkpt lat="42.096022" lon="23.575419"><ele>2553.1</ele><time>2026-03-08T12:48:10.000Z</time></trkpt>
<trkpt lat="42.096021" lon="23.57542"><ele>2553.1</ele><time>2026-03-08T12:48:11.000Z</time></trkpt>
<trkpt lat="42.09602" lon="23.575421"><ele>2552.9</ele><time>2026-03-08T12:48:12.000Z</time></trkpt>
<trkpt lat="42.09602" lon="23.575421"><ele>2552.9</ele><time>2026-03-08T12:48:13.000Z</time></trkpt>
<trkpt lat="42.09602" lon="23.575422"><ele>2552.9</ele><time>2026-03-08T12:48:14.000Z</time></trkpt>
<trkpt lat="42.096019" lon="23.575423"><ele>2552.9</ele><time>2026-03-08T12:48:15.000Z</time></trkpt>
<trkpt lat="42.096018" lon="23.575424"><ele>2552.9</ele><time>2026-03-08T12:48:16.000Z</time></trkpt>
<trkpt lat="42.096018" lon="23.575424"><ele>2552.3</ele><time>2026-03-08T12:48:17.000Z</time></trkpt>
<trkpt lat="42.096018" lon="23.575425"><ele>2552.3</ele><time>2026-03-08T12:48:18.000Z</time></trkpt>
<trkpt lat="42.096017" lon="23.575426"><ele>2552.3</ele><time>2026-03-08T12:48:19.000Z</time></trkpt>
<trkpt lat="42.096018" lon="23.575426"><ele>2552.3</ele><time>2026-03-08T12:48:20.000Z</time></trkpt>
<trkpt lat="42.096018" lon="23.575426"><ele>2552.3</ele><time>2026-03-08T12:48:21.000Z</time></trkpt>
<trkpt lat="42.096018" lon="23.575427"><ele>2551.8</ele><time>2026-03-08T12:48:22.000Z</time></trkpt>
<trkpt lat="42.096017" lon="23.575428"><ele>2551.8</ele><time>2026-03-08T12:48:23.000Z</time></trkpt>
<trkpt lat="42.096015" lon="23.575428"><ele>2551.8</ele><time>2026-03-08T12:48:24.000Z</time></trkpt>
<trkpt lat="42.096013" lon="23.575429"><ele>2551.8</ele><time>2026-03-08T12:48:25.000Z</time></trkpt>
<trkpt lat="42.09601" lon="23.575431"><ele>2551.8</ele><time>2026-03-08T12:48:26.000Z</time></trkpt>
<trkpt lat="42.096008" lon="23.575432"><ele>2551.7</ele><time>2026-03-08T12:48:27.000Z</time></trkpt>
<trkpt lat="42.096005" lon="23.575433"><ele>2551.7</ele><time>2026-03-08T12:48:28.000Z</time></trkpt>
<trkpt lat="42.096004" lon="23.575434"><ele>2551.7</ele><time>2026-03-08T12:48:29.000Z</time></trkpt>
<trkpt lat="42.096003" lon="23.575436"><ele>2551.7</ele><time>2026-03-08T12:48:30.000Z</time></trkpt>
<trkpt lat="42.096002" lon="23.575437"><ele>2551.7</ele><time>2026-03-08T12:48:31.000Z</time></trkpt>
<trkpt lat="42.096001" lon="23.575439"><ele>2551.6</ele><time>2026-03-08T12:48:32.000Z</time></trkpt>
<trkpt lat="42.096" lon="23.57544"><ele>2551.6</ele><time>2026-03-08T12:48:33.000Z</time></trkpt>
<trkpt lat="42.095999" lon="23.575441"><ele>2551.6</ele><time>2026-03-08T12:48:34.000Z</time></trkpt>
<trkpt lat="42.095998" lon="23.575441"><ele>2551.6</ele><time>2026-03-08T12:48:35.000Z</time></trkpt>
<trkpt lat="42.095997" lon="23.575441"><ele>2551.6</ele><time>2026-03-08T12:48:36.000Z</time></trkpt>
<trkpt lat="42.095996" lon="23.575443"><ele>2551.3</ele><time>2026-03-08T12:48:37.000Z</time></trkpt>
<trkpt lat="42.095995" lon="23.575445"><ele>2551.3</ele><time>2026-03-08T12:48:38.000Z</time></trkpt>
<trkpt lat="42.095994" lon="23.575449"><ele>2551.3</ele><time>2026-03-08T12:48:39.000Z</time></trkpt>
<trkpt lat="42.095991" lon="23.575453"><ele>2551.3</ele><time>2026-03-08T12:48:40.000Z</time></trkpt>
<trkpt lat="42.095989" lon="23.575459"><ele>2551.3</ele><time>2026-03-08T12:48:41.000Z</time></trkpt>
<trkpt lat="42.095986" lon="23.575466"><ele>2551.2</ele><time>2026-03-08T12:48:42.000Z</time></trkpt>
<trkpt lat="42.095983" lon="23.575472"><ele>2551.2</ele><time>2026-03-08T12:48:43.000Z</time></trkpt>
<trkpt lat="42.09598" lon="23.575477"><ele>2551.2</ele><time>2026-03-08T12:48:44.000Z</time></trkpt>
<trkpt lat="42.095977" lon="23.575481"><ele>2551.2</ele><time>2026-03-08T12:48:45.000Z</time></trkpt>
<trkpt lat="42.095975" lon="23.575484"><ele>2551.2</ele><time>2026-03-08T12:48:46.000Z</time></trkpt>
<trkpt lat="42.095973" lon="23.575486"><ele>2550.7</ele><time>2026-03-08T12:48:47.000Z</time></trkpt>
<trkpt lat="42.09597" lon="23.575488"><ele>2550.7</ele><time>2026-03-08T12:48:48.000Z</time></trkpt>
<trkpt lat="42.095969" lon="23.57549"><ele>2550.7</ele><time>2026-03-08T12:48:49.000Z</time></trkpt>
<trkpt lat="42.095969" lon="23.575492"><ele>2550.7</ele><time>2026-03-08T12:48:50.000Z</time></trkpt>
<trkpt lat="42.095969" lon="23.575493"><ele>2550.7</ele><time>2026-03-08T12:48:51.000Z</time></trkpt>
<trkpt lat="42.095969" lon="23.575494"><ele>2550</ele><time>2026-03-08T12:48:52.000Z</time></trkpt>
<trkpt lat="42.09597" lon="23.575494"><ele>2550</ele><time>2026-03-08T12:48:53.000Z</time></trkpt>
<trkpt lat="42.095971" lon="23.575494"><ele>2550</ele><time>2026-03-08T12:48:54.000Z</time></trkpt>
<trkpt lat="42.095971" lon="23.575494"><ele>2550</ele><time>2026-03-08T12:48:55.000Z</time></trkpt>
<trkpt lat="42.095971" lon="23.575494"><ele>2550</ele><time>2026-03-08T12:48:56.000Z</time></trkpt>
<trkpt lat="42.095971" lon="23.575494"><ele>2549.6</ele><time>2026-03-08T12:48:57.000Z</time></trkpt>
<trkpt lat="42.095971" lon="23.575494"><ele>2549.6</ele><time>2026-03-08T12:48:58.000Z</time></trkpt>
<trkpt lat="42.095971" lon="23.575494"><ele>2549.6</ele><time>2026-03-08T12:48:59.000Z</time></trkpt>
<trkpt lat="42.095971" lon="23.575493"><ele>2549.6</ele><time>2026-03-08T12:49:00.000Z</time></trkpt>
<trkpt lat="42.095971" lon="23.575493"><ele>2549.6</ele><time>2026-03-08T12:49:01.000Z</time></trkpt>
<trkpt lat="42.095971" lon="23.575493"><ele>2548.9</ele><time>2026-03-08T12:49:02.000Z</time></trkpt>
<trkpt lat="42.095971" lon="23.575493"><ele>2548.9</ele><time>2026-03-08T12:49:03.000Z</time></trkpt>
<trkpt lat="42.095971" lon="23.575494"><ele>2548.9</ele><time>2026-03-08T12:49:04.000Z</time></trkpt>
<trkpt lat="42.09597" lon="23.575496"><ele>2548.9</ele><time>2026-03-08T12:49:05.000Z</time></trkpt>
<trkpt lat="42.095968" lon="23.575498"><ele>2548.9</ele><time>2026-03-08T12:49:06.000Z</time></trkpt>
<trkpt lat="42.095966" lon="23.575502"><ele>2548.7</ele><time>2026-03-08T12:49:07.000Z</time></trkpt>
<trkpt lat="42.095962" lon="23.575506"><ele>2548.7</ele><time>2026-03-08T12:49:08.000Z</time></trkpt>
<trkpt lat="42.095958" lon="23.57551"><ele>2548.7</ele><time>2026-03-08T12:49:09.000Z</time></trkpt>
<trkpt lat="42.095955" lon="23.575515"><ele>2548.7</ele><time>2026-03-08T12:49:10.000Z</time></trkpt>
<trkpt lat="42.095953" lon="23.575518"><ele>2548.7</ele><time>2026-03-08T12:49:11.000Z</time></trkpt>
<trkpt lat="42.095951" lon="23.575519"><ele>2548.6</ele><time>2026-03-08T12:49:12.000Z</time></trkpt>
<trkpt lat="42.09595" lon="23.57552"><ele>2548.6</ele><time>2026-03-08T12:49:13.000Z</time></trkpt>
<trkpt lat="42.09595" lon="23.57552"><ele>2548.6</ele><time>2026-03-08T12:49:14.000Z</time></trkpt>
<trkpt lat="42.095949" lon="23.57552"><ele>2548.6</ele><time>2026-03-08T12:49:15.000Z</time></trkpt>
<trkpt lat="42.095948" lon="23.57552"><ele>2548.6</ele><time>2026-03-08T12:49:16.000Z</time></trkpt>
<trkpt lat="42.095948" lon="23.575521"><ele>2548.2</ele><time>2026-03-08T12:49:17.000Z</time></trkpt>
<trkpt lat="42.095947" lon="23.575521"><ele>2548.2</ele><time>2026-03-08T12:49:18.000Z</time></trkpt>
<trkpt lat="42.095946" lon="23.575521"><ele>2548.2</ele><time>2026-03-08T12:49:19.000Z</time></trkpt>
<trkpt lat="42.095946" lon="23.575522"><ele>2548.2</ele><time>2026-03-08T12:49:20.000Z</time></trkpt>
<trkpt lat="42.095947" lon="23.575522"><ele>2548.2</ele><time>2026-03-08T12:49:21.000Z</time></trkpt>
<trkpt lat="42.095947" lon="23.575523"><ele>2547.6</ele><time>2026-03-08T12:49:22.000Z</time></trkpt>
<trkpt lat="42.095947" lon="23.575523"><ele>2547.6</ele><time>2026-03-08T12:49:23.000Z</time></trkpt>
<trkpt lat="42.095947" lon="23.575523"><ele>2547.6</ele><time>2026-03-08T12:49:24.000Z</time></trkpt>
<trkpt lat="42.095947" lon="23.575523"><ele>2547.6</ele><time>2026-03-08T12:49:25.000Z</time></trkpt>
<trkpt lat="42.095947" lon="23.575523"><ele>2547.6</ele><time>2026-03-08T12:49:26.000Z</time></trkpt>
<trkpt lat="42.095947" lon="23.575522"><ele>2547.4</ele><time>2026-03-08T12:49:27.000Z</time></trkpt>
<trkpt lat="42.095947" lon="23.575522"><ele>2547.4</ele><time>2026-03-08T12:49:28.000Z</time></trkpt>
<trkpt lat="42.095947" lon="23.575522"><ele>2547.4</ele><time>2026-03-08T12:49:29.000Z</time></trkpt>
<trkpt lat="42.095947" lon="23.575522"><ele>2547.4</ele><time>2026-03-08T12:49:30.000Z</time></trkpt>
<trkpt lat="42.095947" lon="23.575522"><ele>2547.4</ele><time>2026-03-08T12:49:31.000Z</time></trkpt>
<trkpt lat="42.095947" lon="23.575521"><ele>2547.2</ele><time>2026-03-08T12:49:32.000Z</time></trkpt>
<trkpt lat="42.095947" lon="23.575521"><ele>2547.2</ele><time>2026-03-08T12:49:33.000Z</time></trkpt>
<trkpt lat="42.095947" lon="23.575521"><ele>2547.2</ele><time>2026-03-08T12:49:34.000Z</time></trkpt>
<trkpt lat="42.095947" lon="23.575521"><ele>2547.2</ele><time>2026-03-08T12:49:35.000Z</time></trkpt>
<trkpt lat="42.095947" lon="23.575521"><ele>2547.2</ele><time>2026-03-08T12:49:36.000Z</time></trkpt>
<trkpt lat="42.095948" lon="23.575521"><ele>2547.1</ele><time>2026-03-08T12:49:37.000Z</time></trkpt>
<trkpt lat="42.095948" lon="23.575521"><ele>2547.1</ele><time>2026-03-08T12:49:38.000Z</time></trkpt>
<trkpt lat="42.095948" lon="23.57552"><ele>2547.1</ele><time>2026-03-08T12:49:39.000Z</time></trkpt>
<trkpt lat="42.095948" lon="23.57552"><ele>2547.1</ele><time>2026-03-08T12:49:40.000Z</time></trkpt>
<trkpt lat="42.095948" lon="23.57552"><ele>2547.1</ele><time>2026-03-08T12:49:41.000Z</time></trkpt>
<trkpt lat="42.095948" lon="23.57552"><ele>2546.9</ele><time>2026-03-08T12:49:42.000Z</time></trkpt>
<trkpt lat="42.095948" lon="23.57552"><ele>2546.9</ele><time>2026-03-08T12:49:43.000Z</time></trkpt>
<trkpt lat="42.095947" lon="23.57552"><ele>2546.9</ele><time>2026-03-08T12:49:44.000Z</time></trkpt>
<trkpt lat="42.095947" lon="23.575521"><ele>2546.9</ele><time>2026-03-08T12:49:45.000Z</time></trkpt>
<trkpt lat="42.095946" lon="23.575521"><ele>2546.9</ele><time>2026-03-08T12:49:46.000Z</time></trkpt>
<trkpt lat="42.095944" lon="23.575523"><ele>2546.7</ele><time>2026-03-08T12:49:47.000Z</time></trkpt>
<trkpt lat="42.095943" lon="23.575525"><ele>2546.7</ele><time>2026-03-08T12:49:48.000Z</time></trkpt>
<trkpt lat="42.095941" lon="23.575527"><ele>2546.7</ele><time>2026-03-08T12:49:49.000Z</time></trkpt>
<trkpt lat="42.095938" lon="23.57553"><ele>2546.7</ele><time>2026-03-08T12:49:50.000Z</time></trkpt>
<trkpt lat="42.095937" lon="23.575533"><ele>2546.7</ele><time>2026-03-08T12:49:51.000Z</time></trkpt>
<trkpt lat="42.095935" lon="23.575536"><ele>2546.7</ele><time>2026-03-08T12:49:52.000Z</time></trkpt>
<trkpt lat="42.095935" lon="23.575538"><ele>2546.7</ele><time>2026-03-08T12:49:53.000Z</time></trkpt>
<trkpt lat="42.095934" lon="23.575539"><ele>2546.7</ele><time>2026-03-08T12:49:54.000Z</time></trkpt>
<trkpt lat="42.095935" lon="23.575541"><ele>2546.7</ele><time>2026-03-08T12:49:55.000Z</time></trkpt>
<trkpt lat="42.095935" lon="23.575541"><ele>2546.7</ele><time>2026-03-08T12:49:56.000Z</time></trkpt>
<trkpt lat="42.095936" lon="23.57554"><ele>2546.7</ele><time>2026-03-08T12:49:57.000Z</time></trkpt>
<trkpt lat="42.095937" lon="23.575539"><ele>2546.7</ele><time>2026-03-08T12:49:58.000Z</time></trkpt>
<trkpt lat="42.095938" lon="23.575538"><ele>2546.7</ele><time>2026-03-08T12:49:59.000Z</time></trkpt>
<trkpt lat="42.095937" lon="23.575537"><ele>2546.7</ele><time>2026-03-08T12:50:00.000Z</time></trkpt>
<trkpt lat="42.095936" lon="23.575536"><ele>2546.7</ele><time>2026-03-08T12:50:01.000Z</time></trkpt>
<trkpt lat="42.095936" lon="23.575535"><ele>2546.5</ele><time>2026-03-08T12:50:02.000Z</time></trkpt>
<trkpt lat="42.095935" lon="23.575534"><ele>2546.5</ele><time>2026-03-08T12:50:03.000Z</time></trkpt>
<trkpt lat="42.095934" lon="23.575533"><ele>2546.5</ele><time>2026-03-08T12:50:04.000Z</time></trkpt>
<trkpt lat="42.095934" lon="23.575531"><ele>2546.5</ele><time>2026-03-08T12:50:05.000Z</time></trkpt>
<trkpt lat="42.095935" lon="23.57553"><ele>2546.5</ele><time>2026-03-08T12:50:06.000Z</time></trkpt>
<trkpt lat="42.095935" lon="23.575529"><ele>2546.2</ele><time>2026-03-08T12:50:07.000Z</time></trkpt>
<trkpt lat="42.095936" lon="23.575528"><ele>2546.2</ele><time>2026-03-08T12:50:08.000Z</time></trkpt>
<trkpt lat="42.095936" lon="23.575528"><ele>2546.2</ele><time>2026-03-08T12:50:09.000Z</time></trkpt>
<trkpt lat="42.095936" lon="23.575527"><ele>2546.2</ele><time>2026-03-08T12:50:10.000Z</time></trkpt>
<trkpt lat="42.095936" lon="23.575527"><ele>2546.2</ele><time>2026-03-08T12:50:11.000Z</time></trkpt>
<trkpt lat="42.095936" lon="23.575527"><ele>2546.1</ele><time>2026-03-08T12:50:12.000Z</time></trkpt>
<trkpt lat="42.095936" lon="23.575527"><ele>2546.1</ele><time>2026-03-08T12:50:13.000Z</time></trkpt>
<trkpt lat="42.095936" lon="23.575527"><ele>2546.1</ele><time>2026-03-08T12:50:14.000Z</time></trkpt>
<trkpt lat="42.095936" lon="23.575527"><ele>2546.1</ele><time>2026-03-08T12:50:15.000Z</time></trkpt>
<trkpt lat="42.095936" lon="23.575527"><ele>2546.1</ele><time>2026-03-08T12:50:16.000Z</time></trkpt>
<trkpt lat="42.095936" lon="23.575528"><ele>2546.2</ele><time>2026-03-08T12:50:17.000Z</time></trkpt>
<trkpt lat="42.095935" lon="23.575529"><ele>2546.2</ele><time>2026-03-08T12:50:18.000Z</time></trkpt>
<trkpt lat="42.095935" lon="23.57553"><ele>2546.2</ele><time>2026-03-08T12:50:19.000Z</time></trkpt>
<trkpt lat="42.095934" lon="23.575531"><ele>2546.2</ele><time>2026-03-08T12:50:20.000Z</time></trkpt>
<trkpt lat="42.095933" lon="23.575532"><ele>2546.2</ele><time>2026-03-08T12:50:21.000Z</time></trkpt>
<trkpt lat="42.095933" lon="23.575532"><ele>2546.1</ele><time>2026-03-08T12:50:22.000Z</time></trkpt>
<trkpt lat="42.095932" lon="23.575532"><ele>2546.1</ele><time>2026-03-08T12:50:23.000Z</time></trkpt>
<trkpt lat="42.095932" lon="23.575532"><ele>2546.1</ele><time>2026-03-08T12:50:24.000Z</time></trkpt>
<trkpt lat="42.095932" lon="23.575531"><ele>2546.1</ele><time>2026-03-08T12:50:25.000Z</time></trkpt>
<trkpt lat="42.095932" lon="23.575531"><ele>2546.1</ele><time>2026-03-08T12:50:26.000Z</time></trkpt>
<trkpt lat="42.095932" lon="23.575531"><ele>2546</ele><time>2026-03-08T12:50:27.000Z</time></trkpt>
<trkpt lat="42.095932" lon="23.575532"><ele>2546</ele><time>2026-03-08T12:50:28.000Z</time></trkpt>
<trkpt lat="42.095931" lon="23.575533"><ele>2546</ele><time>2026-03-08T12:50:29.000Z</time></trkpt>
<trkpt lat="42.095931" lon="23.575533"><ele>2546</ele><time>2026-03-08T12:50:30.000Z</time></trkpt>
<trkpt lat="42.09593" lon="23.575533"><ele>2546</ele><time>2026-03-08T12:50:31.000Z</time></trkpt>
<trkpt lat="42.095929" lon="23.575533"><ele>2545.7</ele><time>2026-03-08T12:50:32.000Z</time></trkpt>
<trkpt lat="42.095928" lon="23.575534"><ele>2545.7</ele><time>2026-03-08T12:50:33.000Z</time></trkpt>
<trkpt lat="42.095928" lon="23.575534"><ele>2545.7</ele><time>2026-03-08T12:50:34.000Z</time></trkpt>
<trkpt lat="42.095928" lon="23.575534"><ele>2545.7</ele><time>2026-03-08T12:50:35.000Z</time></trkpt>
<trkpt lat="42.095928" lon="23.575536"><ele>2545.7</ele><time>2026-03-08T12:50:36.000Z</time></trkpt>
<trkpt lat="42.095927" lon="23.575538"><ele>2545.5</ele><time>2026-03-08T12:50:37.000Z</time></trkpt>
<trkpt lat="42.095927" lon="23.575539"><ele>2545.5</ele><time>2026-03-08T12:50:38.000Z</time></trkpt>
<trkpt lat="42.095926" lon="23.57554"><ele>2545.5</ele><time>2026-03-08T12:50:39.000Z</time></trkpt>
<trkpt lat="42.095925" lon="23.575542"><ele>2545.5</ele><time>2026-03-08T12:50:40.000Z</time></trkpt>
<trkpt lat="42.095925" lon="23.575543"><ele>2545.5</ele><time>2026-03-08T12:50:41.000Z</time></trkpt>
<trkpt lat="42.095925" lon="23.575544"><ele>2545.4</ele><time>2026-03-08T12:50:42.000Z</time></trkpt>
<trkpt lat="42.095926" lon="23.575546"><ele>2545.4</ele><time>2026-03-08T12:50:43.000Z</time></trkpt>
<trkpt lat="42.095926" lon="23.575547"><ele>2545.4</ele><time>2026-03-08T12:50:44.000Z</time></trkpt>
<trkpt lat="42.095926" lon="23.575548"><ele>2545.4</ele><time>2026-03-08T12:50:45.000Z</time></trkpt>
<trkpt lat="42.095926" lon="23.575549"><ele>2545.4</ele><time>2026-03-08T12:50:46.000Z</time></trkpt>
<trkpt lat="42.095926" lon="23.575549"><ele>2544.8</ele><time>2026-03-08T12:50:47.000Z</time></trkpt>
<trkpt lat="42.095926" lon="23.575549"><ele>2544.8</ele><time>2026-03-08T12:50:48.000Z</time></trkpt>
<trkpt lat="42.095926" lon="23.57555"><ele>2544.8</ele><time>2026-03-08T12:50:49.000Z</time></trkpt>
<trkpt lat="42.095926" lon="23.57555"><ele>2544.8</ele><time>2026-03-08T12:50:50.000Z</time></trkpt>
<trkpt lat="42.095925" lon="23.575551"><ele>2544.8</ele><time>2026-03-08T12:50:51.000Z</time></trkpt>
<trkpt lat="42.095924" lon="23.575552"><ele>2544.2</ele><time>2026-03-08T12:50:52.000Z</time></trkpt>
<trkpt lat="42.095924" lon="23.575553"><ele>2544.2</ele><time>2026-03-08T12:50:53.000Z</time></trkpt>
<trkpt lat="42.095924" lon="23.575553"><ele>2544.2</ele><time>2026-03-08T12:50:54.000Z</time></trkpt>
<trkpt lat="42.095924" lon="23.575553"><ele>2544.2</ele><time>2026-03-08T12:50:55.000Z</time></trkpt>
<trkpt lat="42.095924" lon="23.575552"><ele>2544.2</ele><time>2026-03-08T12:50:56.000Z</time></trkpt>
<trkpt lat="42.095924" lon="23.575552"><ele>2543.9</ele><time>2026-03-08T12:50:57.000Z</time></trkpt>
<trkpt lat="42.095924" lon="23.575552"><ele>2543.9</ele><time>2026-03-08T12:50:58.000Z</time></trkpt>
<trkpt lat="42.095924" lon="23.575553"><ele>2543.9</ele><time>2026-03-08T12:50:59.000Z</time></trkpt>
<trkpt lat="42.095924" lon="23.575554"><ele>2543.9</ele><time>2026-03-08T12:51:00.000Z</time></trkpt>
<trkpt lat="42.095923" lon="23.575555"><ele>2543.9</ele><time>2026-03-08T12:51:01.000Z</time></trkpt>
<trkpt lat="42.095923" lon="23.575555"><ele>2543.8</ele><time>2026-03-08T12:51:02.000Z</time></trkpt>
<trkpt lat="42.095923" lon="23.575555"><ele>2543.8</ele><time>2026-03-08T12:51:03.000Z</time></trkpt>
<trkpt lat="42.095923" lon="23.575555"><ele>2543.8</ele><time>2026-03-08T12:51:04.000Z</time></trkpt>
<trkpt lat="42.095923" lon="23.575555"><ele>2543.8</ele><time>2026-03-08T12:51:05.000Z</time></trkpt>
<trkpt lat="42.095923" lon="23.575555"><ele>2543.8</ele><time>2026-03-08T12:51:06.000Z</time></trkpt>
<trkpt lat="42.095923" lon="23.575556"><ele>2544</ele><time>2026-03-08T12:51:07.000Z</time></trkpt>
<trkpt lat="42.095923" lon="23.575556"><ele>2544</ele><time>2026-03-08T12:51:08.000Z</time></trkpt>
<trkpt lat="42.095923" lon="23.575556"><ele>2544</ele><time>2026-03-08T12:51:09.000Z</time></trkpt>
<trkpt lat="42.095923" lon="23.575556"><ele>2544</ele><time>2026-03-08T12:51:10.000Z</time></trkpt>
<trkpt lat="42.095923" lon="23.575555"><ele>2544</ele><time>2026-03-08T12:51:11.000Z</time></trkpt>
<trkpt lat="42.095923" lon="23.575555"><ele>2544.1</ele><time>2026-03-08T12:51:12.000Z</time></trkpt>
<trkpt lat="42.095923" lon="23.575554"><ele>2544.1</ele><time>2026-03-08T12:51:13.000Z</time></trkpt>
<trkpt lat="42.095923" lon="23.575553"><ele>2544.1</ele><time>2026-03-08T12:51:14.000Z</time></trkpt>
<trkpt lat="42.095923" lon="23.575552"><ele>2544.1</ele><time>2026-03-08T12:51:15.000Z</time></trkpt>
<trkpt lat="42.095923" lon="23.575552"><ele>2544.1</ele><time>2026-03-08T12:51:16.000Z</time></trkpt>
<trkpt lat="42.095922" lon="23.575551"><ele>2544.2</ele><time>2026-03-08T12:51:17.000Z</time></trkpt>
<trkpt lat="42.095922" lon="23.575551"><ele>2544.2</ele><time>2026-03-08T12:51:18.000Z</time></trkpt>
<trkpt lat="42.095922" lon="23.575552"><ele>2544.2</ele><time>2026-03-08T12:51:19.000Z</time></trkpt>
<trkpt lat="42.095921" lon="23.575552"><ele>2544.2</ele><time>2026-03-08T12:51:20.000Z</time></trkpt>
<trkpt lat="42.095921" lon="23.575553"><ele>2544.2</ele><time>2026-03-08T12:51:21.000Z</time></trkpt>
<trkpt lat="42.09592" lon="23.575553"><ele>2544</ele><time>2026-03-08T12:51:22.000Z</time></trkpt>
<trkpt lat="42.09592" lon="23.575553"><ele>2544</ele><time>2026-03-08T12:51:23.000Z</time></trkpt>
<trkpt lat="42.09592" lon="23.575553"><ele>2544</ele><time>2026-03-08T12:51:24.000Z</time></trkpt>
<trkpt lat="42.09592" lon="23.575553"><ele>2544</ele><time>2026-03-08T12:51:25.000Z</time></trkpt>
<trkpt lat="42.09592" lon="23.575553"><ele>2544</ele><time>2026-03-08T12:51:26.000Z</time></trkpt>
<trkpt lat="42.09592" lon="23.575553"><ele>2543.9</ele><time>2026-03-08T12:51:27.000Z</time></trkpt>
<trkpt lat="42.09592" lon="23.575553"><ele>2543.9</ele><time>2026-03-08T12:51:28.000Z</time></trkpt>
<trkpt lat="42.09592" lon="23.575553"><ele>2543.9</ele><time>2026-03-08T12:51:29.000Z</time></trkpt>
<trkpt lat="42.09592" lon="23.575554"><ele>2543.9</ele><time>2026-03-08T12:51:30.000Z</time></trkpt>
<trkpt lat="42.09592" lon="23.575554"><ele>2543.9</ele><time>2026-03-08T12:51:31.000Z</time></trkpt>
<trkpt lat="42.095919" lon="23.575554"><ele>2543.8</ele><time>2026-03-08T12:51:32.000Z</time></trkpt>
<trkpt lat="42.095919" lon="23.575554"><ele>2543.8</ele><time>2026-03-08T12:51:33.000Z</time></trkpt>
<trkpt lat="42.095919" lon="23.575554"><ele>2543.8</ele><time>2026-03-08T12:51:34.000Z</time></trkpt>
<trkpt lat="42.095919" lon="23.575554"><ele>2543.8</ele><time>2026-03-08T12:51:35.000Z</time></trkpt>
<trkpt lat="42.095919" lon="23.575553"><ele>2543.8</ele><time>2026-03-08T12:51:36.000Z</time></trkpt>
<trkpt lat="42.095919" lon="23.575553"><ele>2543.9</ele><time>2026-03-08T12:51:37.000Z</time></trkpt>
<trkpt lat="42.095919" lon="23.575552"><ele>2543.9</ele><time>2026-03-08T12:51:38.000Z</time></trkpt>
<trkpt lat="42.095918" lon="23.575551"><ele>2543.9</ele><time>2026-03-08T12:51:39.000Z</time></trkpt>
<trkpt lat="42.095918" lon="23.57555"><ele>2543.9</ele><time>2026-03-08T12:51:40.000Z</time></trkpt>
<trkpt lat="42.095918" lon="23.57555"><ele>2543.9</ele><time>2026-03-08T12:51:41.000Z</time></trkpt>
<trkpt lat="42.095917" lon="23.57555"><ele>2543.9</ele><time>2026-03-08T12:51:42.000Z</time></trkpt>
<trkpt lat="42.095917" lon="23.575549"><ele>2543.9</ele><time>2026-03-08T12:51:43.000Z</time></trkpt>
<trkpt lat="42.095918" lon="23.575549"><ele>2543.9</ele><time>2026-03-08T12:51:44.000Z</time></trkpt>
<trkpt lat="42.095918" lon="23.575549"><ele>2543.9</ele><time>2026-03-08T12:51:45.000Z</time></trkpt>
<trkpt lat="42.095919" lon="23.57555"><ele>2543.9</ele><time>2026-03-08T12:51:46.000Z</time></trkpt>
<trkpt lat="42.095919" lon="23.575549"><ele>2544.1</ele><time>2026-03-08T12:51:47.000Z</time></trkpt>
<trkpt lat="42.09592" lon="23.575549"><ele>2544.1</ele><time>2026-03-08T12:51:48.000Z</time></trkpt>
<trkpt lat="42.095921" lon="23.575549"><ele>2544.1</ele><time>2026-03-08T12:51:49.000Z</time></trkpt>
<trkpt lat="42.095921" lon="23.575549"><ele>2544.1</ele><time>2026-03-08T12:51:50.000Z</time></trkpt>
<trkpt lat="42.095921" lon="23.575548"><ele>2544.1</ele><time>2026-03-08T12:51:51.000Z</time></trkpt>
<trkpt lat="42.095921" lon="23.575548"><ele>2544.1</ele><time>2026-03-08T12:51:52.000Z</time></trkpt>
<trkpt lat="42.09592" lon="23.575548"><ele>2544.1</ele><time>2026-03-08T12:51:53.000Z</time></trkpt>
<trkpt lat="42.09592" lon="23.575548"><ele>2544.1</ele><time>2026-03-08T12:51:54.000Z</time></trkpt>
<trkpt lat="42.095919" lon="23.575548"><ele>2544.1</ele><time>2026-03-08T12:51:55.000Z</time></trkpt>
<trkpt lat="42.095919" lon="23.575548"><ele>2544.1</ele><time>2026-03-08T12:51:56.000Z</time></trkpt>
<trkpt lat="42.095919" lon="23.575548"><ele>2544</ele><time>2026-03-08T12:51:57.000Z</time></trkpt>
<trkpt lat="42.095919" lon="23.575548"><ele>2544</ele><time>2026-03-08T12:51:58.000Z</time></trkpt>
<trkpt lat="42.095919" lon="23.575548"><ele>2544</ele><time>2026-03-08T12:51:59.000Z</time></trkpt>
<trkpt lat="42.095919" lon="23.575548"><ele>2544</ele><time>2026-03-08T12:52:00.000Z</time></trkpt>
<trkpt lat="42.095919" lon="23.575549"><ele>2544</ele><time>2026-03-08T12:52:01.000Z</time></trkpt>
<trkpt lat="42.095919" lon="23.575549"><ele>2543.7</ele><time>2026-03-08T12:52:02.000Z</time></trkpt>
<trkpt lat="42.095919" lon="23.57555"><ele>2543.7</ele><time>2026-03-08T12:52:03.000Z</time></trkpt>
<trkpt lat="42.095919" lon="23.575551"><ele>2543.7</ele><time>2026-03-08T12:52:04.000Z</time></trkpt>
<trkpt lat="42.095919" lon="23.575551"><ele>2543.7</ele><time>2026-03-08T12:52:05.000Z</time></trkpt>
<trkpt lat="42.095919" lon="23.575551"><ele>2543.7</ele><time>2026-03-08T12:52:06.000Z</time></trkpt>
<trkpt lat="42.095919" lon="23.575551"><ele>2543.4</ele><time>2026-03-08T12:52:07.000Z</time></trkpt>
<trkpt lat="42.095919" lon="23.575551"><ele>2543.4</ele><time>2026-03-08T12:52:08.000Z</time></trkpt>
<trkpt lat="42.095919" lon="23.575552"><ele>2543.4</ele><time>2026-03-08T12:52:09.000Z</time></trkpt>
<trkpt lat="42.095919" lon="23.575552"><ele>2543.4</ele><time>2026-03-08T12:52:10.000Z</time></trkpt>
<trkpt lat="42.095919" lon="23.575553"><ele>2543.4</ele><time>2026-03-08T12:52:11.000Z</time></trkpt>
<trkpt lat="42.09592" lon="23.575554"><ele>2543.4</ele><time>2026-03-08T12:52:12.000Z</time></trkpt>
<trkpt lat="42.095919" lon="23.575555"><ele>2543.4</ele><time>2026-03-08T12:52:13.000Z</time></trkpt>
<trkpt lat="42.095919" lon="23.575555"><ele>2543.4</ele><time>2026-03-08T12:52:14.000Z</time></trkpt>
<trkpt lat="42.095919" lon="23.575555"><ele>2543.4</ele><time>2026-03-08T12:52:15.000Z</time></trkpt>
<trkpt lat="42.095919" lon="23.575556"><ele>2543.4</ele><time>2026-03-08T12:52:16.000Z</time></trkpt>
<trkpt lat="42.095919" lon="23.575557"><ele>2543.5</ele><time>2026-03-08T12:52:17.000Z</time></trkpt>
<trkpt lat="42.095919" lon="23.575559"><ele>2543.5</ele><time>2026-03-08T12:52:18.000Z</time></trkpt>
<trkpt lat="42.09592" lon="23.57556"><ele>2543.5</ele><time>2026-03-08T12:52:19.000Z</time></trkpt>
<trkpt lat="42.09592" lon="23.575561"><ele>2543.5</ele><time>2026-03-08T12:52:20.000Z</time></trkpt>
<trkpt lat="42.095919" lon="23.575562"><ele>2543.5</ele><time>2026-03-08T12:52:21.000Z</time></trkpt>
<trkpt lat="42.095918" lon="23.575562"><ele>2543.3</ele><time>2026-03-08T12:52:22.000Z</time></trkpt>
<trkpt lat="42.095918" lon="23.575562"><ele>2543.3</ele><time>2026-03-08T12:52:23.000Z</time></trkpt>
<trkpt lat="42.095917" lon="23.575562"><ele>2543.3</ele><time>2026-03-08T12:52:24.000Z</time></trkpt>
<trkpt lat="42.095917" lon="23.575563"><ele>2543.3</ele><time>2026-03-08T12:52:25.000Z</time></trkpt>
<trkpt lat="42.095918" lon="23.575563"><ele>2543.3</ele><time>2026-03-08T12:52:26.000Z</time></trkpt>
<trkpt lat="42.095918" lon="23.575563"><ele>2543.2</ele><time>2026-03-08T12:52:27.000Z</time></trkpt>
<trkpt lat="42.095918" lon="23.575563"><ele>2543.2</ele><time>2026-03-08T12:52:28.000Z</time></trkpt>
<trkpt lat="42.095918" lon="23.575564"><ele>2543.2</ele><time>2026-03-08T12:52:29.000Z</time></trkpt>
<trkpt lat="42.095918" lon="23.575566"><ele>2543.2</ele><time>2026-03-08T12:52:30.000Z</time></trkpt>
<trkpt lat="42.095918" lon="23.575569"><ele>2543.2</ele><time>2026-03-08T12:52:31.000Z</time></trkpt>
<trkpt lat="42.095918" lon="23.575572"><ele>2542.9</ele><time>2026-03-08T12:52:32.000Z</time></trkpt>
<trkpt lat="42.095918" lon="23.575574"><ele>2542.9</ele><time>2026-03-08T12:52:33.000Z</time></trkpt>
<trkpt lat="42.095918" lon="23.575576"><ele>2542.9</ele><time>2026-03-08T12:52:34.000Z</time></trkpt>
<trkpt lat="42.095917" lon="23.575577"><ele>2542.9</ele><time>2026-03-08T12:52:35.000Z</time></trkpt>
<trkpt lat="42.095917" lon="23.575578"><ele>2542.9</ele><time>2026-03-08T12:52:36.000Z</time></trkpt>
<trkpt lat="42.095916" lon="23.575578"><ele>2542.7</ele><time>2026-03-08T12:52:37.000Z</time></trkpt>
<trkpt lat="42.095915" lon="23.575579"><ele>2542.7</ele><time>2026-03-08T12:52:38.000Z</time></trkpt>
<trkpt lat="42.095914" lon="23.575581"><ele>2542.7</ele><time>2026-03-08T12:52:39.000Z</time></trkpt>
<trkpt lat="42.095913" lon="23.575582"><ele>2542.7</ele><time>2026-03-08T12:52:40.000Z</time></trkpt>
<trkpt lat="42.095912" lon="23.575584"><ele>2542.7</ele><time>2026-03-08T12:52:41.000Z</time></trkpt>
<trkpt lat="42.095912" lon="23.575585"><ele>2542.5</ele><time>2026-03-08T12:52:42.000Z</time></trkpt>
<trkpt lat="42.095911" lon="23.575586"><ele>2542.5</ele><time>2026-03-08T12:52:43.000Z</time></trkpt>
<trkpt lat="42.09591" lon="23.575586"><ele>2542.5</ele><time>2026-03-08T12:52:44.000Z</time></trkpt>
<trkpt lat="42.095908" lon="23.575586"><ele>2542.5</ele><time>2026-03-08T12:52:45.000Z</time></trkpt>
<trkpt lat="42.095907" lon="23.575587"><ele>2542.5</ele><time>2026-03-08T12:52:46.000Z</time></trkpt>
<trkpt lat="42.095906" lon="23.575587"><ele>2541.8</ele><time>2026-03-08T12:52:47.000Z</time></trkpt>
<trkpt lat="42.095906" lon="23.575587"><ele>2541.8</ele><time>2026-03-08T12:52:48.000Z</time></trkpt>
<trkpt lat="42.095907" lon="23.575588"><ele>2541.8</ele><time>2026-03-08T12:52:49.000Z</time></trkpt>
<trkpt lat="42.095908" lon="23.575588"><ele>2541.8</ele><time>2026-03-08T12:52:50.000Z</time></trkpt>
<trkpt lat="42.095909" lon="23.575589"><ele>2541.8</ele><time>2026-03-08T12:52:51.000Z</time></trkpt>
<trkpt lat="42.09591" lon="23.575589"><ele>2541.2</ele><time>2026-03-08T12:52:52.000Z</time></trkpt>
<trkpt lat="42.09591" lon="23.57559"><ele>2541.2</ele><time>2026-03-08T12:52:53.000Z</time></trkpt>
<trkpt lat="42.09591" lon="23.57559"><ele>2541.2</ele><time>2026-03-08T12:52:54.000Z</time></trkpt>
<trkpt lat="42.09591" lon="23.57559"><ele>2541.2</ele><time>2026-03-08T12:52:55.000Z</time></trkpt>
<trkpt lat="42.09591" lon="23.57559"><ele>2541.2</ele><time>2026-03-08T12:52:56.000Z</time></trkpt>
<trkpt lat="42.09591" lon="23.57559"><ele>2541</ele><time>2026-03-08T12:52:57.000Z</time></trkpt>
<trkpt lat="42.09591" lon="23.575589"><ele>2541</ele><time>2026-03-08T12:52:58.000Z</time></trkpt>
<trkpt lat="42.09591" lon="23.57559"><ele>2541</ele><time>2026-03-08T12:52:59.000Z</time></trkpt>
<trkpt lat="42.095909" lon="23.57559"><ele>2541</ele><time>2026-03-08T12:53:00.000Z</time></trkpt>
<trkpt lat="42.095909" lon="23.57559"><ele>2541</ele><time>2026-03-08T12:53:01.000Z</time></trkpt>
<trkpt lat="42.095909" lon="23.57559"><ele>2540.8</ele><time>2026-03-08T12:53:02.000Z</time></trkpt>
<trkpt lat="42.09591" lon="23.575592"><ele>2540.8</ele><time>2026-03-08T12:53:03.000Z</time></trkpt>
<trkpt lat="42.095911" lon="23.575592"><ele>2540.8</ele><time>2026-03-08T12:53:04.000Z</time></trkpt>
<trkpt lat="42.095912" lon="23.575593"><ele>2540.8</ele><time>2026-03-08T12:53:05.000Z</time></trkpt>
<trkpt lat="42.095913" lon="23.575594"><ele>2540.8</ele><time>2026-03-08T12:53:06.000Z</time></trkpt>
<trkpt lat="42.095914" lon="23.575593"><ele>2540.5</ele><time>2026-03-08T12:53:07.000Z</time></trkpt>
<trkpt lat="42.095915" lon="23.575592"><ele>2540.5</ele><time>2026-03-08T12:53:08.000Z</time></trkpt>
<trkpt lat="42.095916" lon="23.575591"><ele>2540.5</ele><time>2026-03-08T12:53:09.000Z</time></trkpt>
<trkpt lat="42.095917" lon="23.57559"><ele>2540.5</ele><time>2026-03-08T12:53:10.000Z</time></trkpt>
<trkpt lat="42.095917" lon="23.57559"><ele>2540.5</ele><time>2026-03-08T12:53:11.000Z</time></trkpt>
<trkpt lat="42.095917" lon="23.575591"><ele>2540.3</ele><time>2026-03-08T12:53:12.000Z</time></trkpt>
<trkpt lat="42.095917" lon="23.575591"><ele>2540.3</ele><time>2026-03-08T12:53:13.000Z</time></trkpt>
<trkpt lat="42.095916" lon="23.575592"><ele>2540.3</ele><time>2026-03-08T12:53:14.000Z</time></trkpt>
<trkpt lat="42.095915" lon="23.575592"><ele>2540.3</ele><time>2026-03-08T12:53:15.000Z</time></trkpt>
<trkpt lat="42.095914" lon="23.575591"><ele>2540.3</ele><time>2026-03-08T12:53:16.000Z</time></trkpt>
<trkpt lat="42.095914" lon="23.575591"><ele>2539.9</ele><time>2026-03-08T12:53:17.000Z</time></trkpt>
<trkpt lat="42.095914" lon="23.575591"><ele>2539.9</ele><time>2026-03-08T12:53:18.000Z</time></trkpt>
<trkpt lat="42.095914" lon="23.57559"><ele>2539.9</ele><time>2026-03-08T12:53:19.000Z</time></trkpt>
<trkpt lat="42.095914" lon="23.575591"><ele>2539.9</ele><time>2026-03-08T12:53:20.000Z</time></trkpt>
<trkpt lat="42.095913" lon="23.575593"><ele>2539.9</ele><time>2026-03-08T12:53:21.000Z</time></trkpt>
<trkpt lat="42.095911" lon="23.575595"><ele>2539.7</ele><time>2026-03-08T12:53:22.000Z</time></trkpt>
<trkpt lat="42.095909" lon="23.575597"><ele>2539.7</ele><time>2026-03-08T12:53:23.000Z</time></trkpt>
<trkpt lat="42.095906" lon="23.575599"><ele>2539.7</ele><time>2026-03-08T12:53:24.000Z</time></trkpt>
<trkpt lat="42.095903" lon="23.575601"><ele>2539.7</ele><time>2026-03-08T12:53:25.000Z</time></trkpt>
<trkpt lat="42.095901" lon="23.575602"><ele>2539.7</ele><time>2026-03-08T12:53:26.000Z</time></trkpt>
<trkpt lat="42.095899" lon="23.575602"><ele>2539.6</ele><time>2026-03-08T12:53:27.000Z</time></trkpt>
<trkpt lat="42.095898" lon="23.575603"><ele>2539.6</ele><time>2026-03-08T12:53:28.000Z</time></trkpt>
<trkpt lat="42.095897" lon="23.575603"><ele>2539.6</ele><time>2026-03-08T12:53:29.000Z</time></trkpt>
<trkpt lat="42.095897" lon="23.575603"><ele>2539.6</ele><time>2026-03-08T12:53:30.000Z</time></trkpt>
<trkpt lat="42.095898" lon="23.575604"><ele>2539.6</ele><time>2026-03-08T12:53:31.000Z</time></trkpt>
<trkpt lat="42.095898" lon="23.575605"><ele>2539.4</ele><time>2026-03-08T12:53:32.000Z</time></trkpt>
<trkpt lat="42.095898" lon="23.575606"><ele>2539.4</ele><time>2026-03-08T12:53:33.000Z</time></trkpt>
<trkpt lat="42.095899" lon="23.575607"><ele>2539.4</ele><time>2026-03-08T12:53:34.000Z</time></trkpt>
<trkpt lat="42.095899" lon="23.575608"><ele>2539.4</ele><time>2026-03-08T12:53:35.000Z</time></trkpt>
<trkpt lat="42.095898" lon="23.575609"><ele>2539.4</ele><time>2026-03-08T12:53:36.000Z</time></trkpt>
<trkpt lat="42.095898" lon="23.575609"><ele>2539</ele><time>2026-03-08T12:53:37.000Z</time></trkpt>
<trkpt lat="42.095897" lon="23.57561"><ele>2539</ele><time>2026-03-08T12:53:38.000Z</time></trkpt>
<trkpt lat="42.095897" lon="23.57561"><ele>2539</ele><time>2026-03-08T12:53:39.000Z</time></trkpt>
<trkpt lat="42.095897" lon="23.57561"><ele>2539</ele><time>2026-03-08T12:53:40.000Z</time></trkpt>
<trkpt lat="42.095897" lon="23.575611"><ele>2539</ele><time>2026-03-08T12:53:41.000Z</time></trkpt>
<trkpt lat="42.095897" lon="23.575612"><ele>2538.9</ele><time>2026-03-08T12:53:42.000Z</time></trkpt>
<trkpt lat="42.095897" lon="23.575613"><ele>2538.9</ele><time>2026-03-08T12:53:43.000Z</time></trkpt>
<trkpt lat="42.095897" lon="23.575614"><ele>2538.9</ele><time>2026-03-08T12:53:44.000Z</time></trkpt>
<trkpt lat="42.095897" lon="23.575616"><ele>2538.9</ele><time>2026-03-08T12:53:45.000Z</time></trkpt>
<trkpt lat="42.095897" lon="23.575617"><ele>2538.9</ele><time>2026-03-08T12:53:46.000Z</time></trkpt>
<trkpt lat="42.095896" lon="23.575617"><ele>2538.6</ele><time>2026-03-08T12:53:47.000Z</time></trkpt>
<trkpt lat="42.095895" lon="23.575617"><ele>2538.6</ele><time>2026-03-08T12:53:48.000Z</time></trkpt>
<trkpt lat="42.095895" lon="23.575617"><ele>2538.6</ele><time>2026-03-08T12:53:49.000Z</time></trkpt>
<trkpt lat="42.095894" lon="23.575617"><ele>2538.6</ele><time>2026-03-08T12:53:50.000Z</time></trkpt>
<trkpt lat="42.095895" lon="23.575616"><ele>2538.6</ele><time>2026-03-08T12:53:51.000Z</time></trkpt>
<trkpt lat="42.095895" lon="23.575615"><ele>2538.3</ele><time>2026-03-08T12:53:52.000Z</time></trkpt>
<trkpt lat="42.095896" lon="23.575615"><ele>2538.3</ele><time>2026-03-08T12:53:53.000Z</time></trkpt>
<trkpt lat="42.095896" lon="23.575615"><ele>2538.3</ele><time>2026-03-08T12:53:54.000Z</time></trkpt>
<trkpt lat="42.095897" lon="23.575615"><ele>2538.3</ele><time>2026-03-08T12:53:55.000Z</time></trkpt>
<trkpt lat="42.095898" lon="23.575616"><ele>2538.3</ele><time>2026-03-08T12:53:56.000Z</time></trkpt>
<trkpt lat="42.095898" lon="23.575616"><ele>2538.1</ele><time>2026-03-08T12:53:57.000Z</time></trkpt>
<trkpt lat="42.095899" lon="23.575617"><ele>2538.1</ele><time>2026-03-08T12:53:58.000Z</time></trkpt>
<trkpt lat="42.095899" lon="23.575618"><ele>2538.1</ele><time>2026-03-08T12:53:59.000Z</time></trkpt>
<trkpt lat="42.095899" lon="23.575619"><ele>2538.1</ele><time>2026-03-08T12:54:00.000Z</time></trkpt>
<trkpt lat="42.095899" lon="23.575619"><ele>2538.1</ele><time>2026-03-08T12:54:01.000Z</time></trkpt>
<trkpt lat="42.095898" lon="23.575619"><ele>2537.9</ele><time>2026-03-08T12:54:02.000Z</time></trkpt>
<trkpt lat="42.095898" lon="23.575619"><ele>2537.9</ele><time>2026-03-08T12:54:03.000Z</time></trkpt>
<trkpt lat="42.095898" lon="23.575619"><ele>2537.9</ele><time>2026-03-08T12:54:04.000Z</time></trkpt>
<trkpt lat="42.095897" lon="23.575619"><ele>2537.9</ele><time>2026-03-08T12:54:05.000Z</time></trkpt>
<trkpt lat="42.095897" lon="23.575619"><ele>2537.9</ele><time>2026-03-08T12:54:06.000Z</time></trkpt>
<trkpt lat="42.095896" lon="23.575619"><ele>2537.6</ele><time>2026-03-08T12:54:07.000Z</time></trkpt>
<trkpt lat="42.095896" lon="23.575619"><ele>2537.6</ele><time>2026-03-08T12:54:08.000Z</time></trkpt>
<trkpt lat="42.095896" lon="23.575619"><ele>2537.6</ele><time>2026-03-08T12:54:09.000Z</time></trkpt>
<trkpt lat="42.095895" lon="23.575621"><ele>2537.6</ele><time>2026-03-08T12:54:10.000Z</time></trkpt>
<trkpt lat="42.095895" lon="23.575622"><ele>2537.6</ele><time>2026-03-08T12:54:11.000Z</time></trkpt>
<trkpt lat="42.095894" lon="23.575624"><ele>2537.5</ele><time>2026-03-08T12:54:12.000Z</time></trkpt>
<trkpt lat="42.095894" lon="23.575626"><ele>2537.5</ele><time>2026-03-08T12:54:13.000Z</time></trkpt>
<trkpt lat="42.095894" lon="23.575627"><ele>2537.5</ele><time>2026-03-08T12:54:14.000Z</time></trkpt>
<trkpt lat="42.095894" lon="23.575627"><ele>2537.5</ele><time>2026-03-08T12:54:15.000Z</time></trkpt>
<trkpt lat="42.095895" lon="23.575627"><ele>2537.5</ele><time>2026-03-08T12:54:16.000Z</time></trkpt>
<trkpt lat="42.095896" lon="23.575628"><ele>2537.4</ele><time>2026-03-08T12:54:17.000Z</time></trkpt>
<trkpt lat="42.095896" lon="23.575628"><ele>2537.4</ele><time>2026-03-08T12:54:18.000Z</time></trkpt>
<trkpt lat="42.095896" lon="23.575628"><ele>2537.4</ele><time>2026-03-08T12:54:19.000Z</time></trkpt>
<trkpt lat="42.095897" lon="23.575628"><ele>2537.4</ele><time>2026-03-08T12:54:20.000Z</time></trkpt>
<trkpt lat="42.095898" lon="23.575629"><ele>2537.4</ele><time>2026-03-08T12:54:21.000Z</time></trkpt>
<trkpt lat="42.095899" lon="23.575629"><ele>2537</ele><time>2026-03-08T12:54:22.000Z</time></trkpt>
<trkpt lat="42.095899" lon="23.57563"><ele>2537</ele><time>2026-03-08T12:54:23.000Z</time></trkpt>
<trkpt lat="42.0959" lon="23.57563"><ele>2537</ele><time>2026-03-08T12:54:24.000Z</time></trkpt>
<trkpt lat="42.0959" lon="23.575632"><ele>2537</ele><time>2026-03-08T12:54:25.000Z</time></trkpt>
<trkpt lat="42.095899" lon="23.575633"><ele>2537</ele><time>2026-03-08T12:54:26.000Z</time></trkpt>
<trkpt lat="42.095899" lon="23.575634"><ele>2536.9</ele><time>2026-03-08T12:54:27.000Z</time></trkpt>
<trkpt lat="42.095898" lon="23.575635"><ele>2536.9</ele><time>2026-03-08T12:54:28.000Z</time></trkpt>
<trkpt lat="42.095897" lon="23.575636"><ele>2536.9</ele><time>2026-03-08T12:54:29.000Z</time></trkpt>
<trkpt lat="42.095896" lon="23.575637"><ele>2536.9</ele><time>2026-03-08T12:54:30.000Z</time></trkpt>
<trkpt lat="42.095896" lon="23.575637"><ele>2536.9</ele><time>2026-03-08T12:54:31.000Z</time></trkpt>
<trkpt lat="42.095895" lon="23.575636"><ele>2536.7</ele><time>2026-03-08T12:54:32.000Z</time></trkpt>
<trkpt lat="42.095895" lon="23.575636"><ele>2536.7</ele><time>2026-03-08T12:54:33.000Z</time></trkpt>
<trkpt lat="42.095894" lon="23.575636"><ele>2536.7</ele><time>2026-03-08T12:54:34.000Z</time></trkpt>
<trkpt lat="42.095894" lon="23.575636"><ele>2536.7</ele><time>2026-03-08T12:54:35.000Z</time></trkpt>
<trkpt lat="42.095894" lon="23.575636"><ele>2536.7</ele><time>2026-03-08T12:54:36.000Z</time></trkpt>
<trkpt lat="42.095894" lon="23.575637"><ele>2536.5</ele><time>2026-03-08T12:54:37.000Z</time></trkpt>
<trkpt lat="42.095894" lon="23.575637"><ele>2536.5</ele><time>2026-03-08T12:54:38.000Z</time></trkpt>
<trkpt lat="42.095895" lon="23.575637"><ele>2536.5</ele><time>2026-03-08T12:54:39.000Z</time></trkpt>
<trkpt lat="42.095895" lon="23.575638"><ele>2536.5</ele><time>2026-03-08T12:54:40.000Z</time></trkpt>
<trkpt lat="42.095895" lon="23.575639"><ele>2536.5</ele><time>2026-03-08T12:54:41.000Z</time></trkpt>
<trkpt lat="42.095895" lon="23.57564"><ele>2536.3</ele><time>2026-03-08T12:54:42.000Z</time></trkpt>
<trkpt lat="42.095894" lon="23.57564"><ele>2536.3</ele><time>2026-03-08T12:54:43.000Z</time></trkpt>
<trkpt lat="42.095893" lon="23.575642"><ele>2536.3</ele><time>2026-03-08T12:54:44.000Z</time></trkpt>
<trkpt lat="42.095892" lon="23.575643"><ele>2536.3</ele><time>2026-03-08T12:54:45.000Z</time></trkpt>
<trkpt lat="42.095892" lon="23.575644"><ele>2536.3</ele><time>2026-03-08T12:54:46.000Z</time></trkpt>
<trkpt lat="42.095892" lon="23.575645"><ele>2535.6</ele><time>2026-03-08T12:54:47.000Z</time></trkpt>
<trkpt lat="42.095891" lon="23.575646"><ele>2535.6</ele><time>2026-03-08T12:54:48.000Z</time></trkpt>
<trkpt lat="42.095891" lon="23.575646"><ele>2535.6</ele><time>2026-03-08T12:54:49.000Z</time></trkpt>
<trkpt lat="42.09589" lon="23.575646"><ele>2535.6</ele><time>2026-03-08T12:54:50.000Z</time></trkpt>
<trkpt lat="42.09589" lon="23.575647"><ele>2535.6</ele><time>2026-03-08T12:54:51.000Z</time></trkpt>
<trkpt lat="42.095889" lon="23.575647"><ele>2535</ele><time>2026-03-08T12:54:52.000Z</time></trkpt>
<trkpt lat="42.095889" lon="23.575647"><ele>2535</ele><time>2026-03-08T12:54:53.000Z</time></trkpt>
<trkpt lat="42.095889" lon="23.575648"><ele>2535</ele><time>2026-03-08T12:54:54.000Z</time></trkpt>
<trkpt lat="42.095888" lon="23.575648"><ele>2535</ele><time>2026-03-08T12:54:55.000Z</time></trkpt>
<trkpt lat="42.095888" lon="23.575649"><ele>2535</ele><time>2026-03-08T12:54:56.000Z</time></trkpt>
<trkpt lat="42.095887" lon="23.57565"><ele>2534.8</ele><time>2026-03-08T12:54:57.000Z</time></trkpt>
<trkpt lat="42.095887" lon="23.575651"><ele>2534.8</ele><time>2026-03-08T12:54:58.000Z</time></trkpt>
<trkpt lat="42.095888" lon="23.575652"><ele>2534.8</ele><time>2026-03-08T12:54:59.000Z</time></trkpt>
<trkpt lat="42.095888" lon="23.575653"><ele>2534.8</ele><time>2026-03-08T12:55:00.000Z</time></trkpt>
<trkpt lat="42.095888" lon="23.575656"><ele>2534.8</ele><time>2026-03-08T12:55:01.000Z</time></trkpt>
<trkpt lat="42.095888" lon="23.575659"><ele>2534.4</ele><time>2026-03-08T12:55:02.000Z</time></trkpt>
<trkpt lat="42.095888" lon="23.575661"><ele>2534.4</ele><time>2026-03-08T12:55:03.000Z</time></trkpt>
<trkpt lat="42.095887" lon="23.575664"><ele>2534.4</ele><time>2026-03-08T12:55:04.000Z</time></trkpt>
<trkpt lat="42.095886" lon="23.575667"><ele>2534.4</ele><time>2026-03-08T12:55:05.000Z</time></trkpt>
<trkpt lat="42.095886" lon="23.575669"><ele>2534.4</ele><time>2026-03-08T12:55:06.000Z</time></trkpt>
<trkpt lat="42.095885" lon="23.575672"><ele>2534.3</ele><time>2026-03-08T12:55:07.000Z</time></trkpt>
<trkpt lat="42.095884" lon="23.575675"><ele>2534.3</ele><time>2026-03-08T12:55:08.000Z</time></trkpt>
<trkpt lat="42.095882" lon="23.575679"><ele>2534.3</ele><time>2026-03-08T12:55:09.000Z</time></trkpt>
<trkpt lat="42.095882" lon="23.575681"><ele>2534.3</ele><time>2026-03-08T12:55:10.000Z</time></trkpt>
<trkpt lat="42.095881" lon="23.575684"><ele>2534.3</ele><time>2026-03-08T12:55:11.000Z</time></trkpt>
<trkpt lat="42.09588" lon="23.575686"><ele>2534.2</ele><time>2026-03-08T12:55:12.000Z</time></trkpt>
<trkpt lat="42.095878" lon="23.575688"><ele>2534.2</ele><time>2026-03-08T12:55:13.000Z</time></trkpt>
<trkpt lat="42.095878" lon="23.57569"><ele>2534.2</ele><time>2026-03-08T12:55:14.000Z</time></trkpt>
<trkpt lat="42.095877" lon="23.575692"><ele>2534.2</ele><time>2026-03-08T12:55:15.000Z</time></trkpt>
<trkpt lat="42.095877" lon="23.575694"><ele>2534.2</ele><time>2026-03-08T12:55:16.000Z</time></trkpt>
<trkpt lat="42.095877" lon="23.575696"><ele>2534</ele><time>2026-03-08T12:55:17.000Z</time></trkpt>
<trkpt lat="42.095877" lon="23.575699"><ele>2534</ele><time>2026-03-08T12:55:18.000Z</time></trkpt>
<trkpt lat="42.095878" lon="23.575701"><ele>2534</ele><time>2026-03-08T12:55:19.000Z</time></trkpt>
<trkpt lat="42.095878" lon="23.575703"><ele>2534</ele><time>2026-03-08T12:55:20.000Z</time></trkpt>
<trkpt lat="42.095879" lon="23.575705"><ele>2534</ele><time>2026-03-08T12:55:21.000Z</time></trkpt>
<trkpt lat="42.09588" lon="23.575706"><ele>2533.6</ele><time>2026-03-08T12:55:22.000Z</time></trkpt>
<trkpt lat="42.09588" lon="23.575707"><ele>2533.6</ele><time>2026-03-08T12:55:23.000Z</time></trkpt>
<trkpt lat="42.09588" lon="23.575708"><ele>2533.6</ele><time>2026-03-08T12:55:24.000Z</time></trkpt>
<trkpt lat="42.09588" lon="23.575711"><ele>2533.6</ele><time>2026-03-08T12:55:25.000Z</time></trkpt>
<trkpt lat="42.095879" lon="23.575714"><ele>2533.6</ele><time>2026-03-08T12:55:26.000Z</time></trkpt>
<trkpt lat="42.095878" lon="23.575717"><ele>2533.3</ele><time>2026-03-08T12:55:27.000Z</time></trkpt>
<trkpt lat="42.095877" lon="23.575719"><ele>2533.3</ele><time>2026-03-08T12:55:28.000Z</time></trkpt>
<trkpt lat="42.095876" lon="23.575721"><ele>2533.3</ele><time>2026-03-08T12:55:29.000Z</time></trkpt>
<trkpt lat="42.095876" lon="23.575721"><ele>2533.3</ele><time>2026-03-08T12:55:30.000Z</time></trkpt>
<trkpt lat="42.095875" lon="23.575721"><ele>2533.3</ele><time>2026-03-08T12:55:31.000Z</time></trkpt>
<trkpt lat="42.095875" lon="23.575721"><ele>2532.6</ele><time>2026-03-08T12:55:32.000Z</time></trkpt>
<trkpt lat="42.095875" lon="23.575722"><ele>2532.6</ele><time>2026-03-08T12:55:33.000Z</time></trkpt>
<trkpt lat="42.095875" lon="23.575723"><ele>2532.6</ele><time>2026-03-08T12:55:34.000Z</time></trkpt>
<trkpt lat="42.095874" lon="23.575723"><ele>2532.6</ele><time>2026-03-08T12:55:35.000Z</time></trkpt>
<trkpt lat="42.095874" lon="23.575725"><ele>2532.6</ele><time>2026-03-08T12:55:36.000Z</time></trkpt>
<trkpt lat="42.095874" lon="23.575727"><ele>2531.9</ele><time>2026-03-08T12:55:37.000Z</time></trkpt>
<trkpt lat="42.095874" lon="23.575728"><ele>2531.9</ele><time>2026-03-08T12:55:38.000Z</time></trkpt>
<trkpt lat="42.095874" lon="23.575731"><ele>2531.9</ele><time>2026-03-08T12:55:39.000Z</time></trkpt>
<trkpt lat="42.095874" lon="23.575735"><ele>2531.9</ele><time>2026-03-08T12:55:40.000Z</time></trkpt>
<trkpt lat="42.095874" lon="23.575737"><ele>2531.9</ele><time>2026-03-08T12:55:41.000Z</time></trkpt>
<trkpt lat="42.095874" lon="23.575739"><ele>2531.5</ele><time>2026-03-08T12:55:42.000Z</time></trkpt>
<trkpt lat="42.095874" lon="23.575741"><ele>2531.5</ele><time>2026-03-08T12:55:43.000Z</time></trkpt>
<trkpt lat="42.095874" lon="23.575742"><ele>2531.5</ele><time>2026-03-08T12:55:44.000Z</time></trkpt>
<trkpt lat="42.095874" lon="23.575743"><ele>2531.5</ele><time>2026-03-08T12:55:45.000Z</time></trkpt>
<trkpt lat="42.095874" lon="23.575744"><ele>2531.5</ele><time>2026-03-08T12:55:46.000Z</time></trkpt>
<trkpt lat="42.095874" lon="23.575745"><ele>2530.7</ele><time>2026-03-08T12:55:47.000Z</time></trkpt>
<trkpt lat="42.095874" lon="23.575746"><ele>2530.7</ele><time>2026-03-08T12:55:48.000Z</time></trkpt>
<trkpt lat="42.095874" lon="23.575746"><ele>2530.7</ele><time>2026-03-08T12:55:49.000Z</time></trkpt>
<trkpt lat="42.095874" lon="23.575746"><ele>2530.7</ele><time>2026-03-08T12:55:50.000Z</time></trkpt>
<trkpt lat="42.095873" lon="23.575746"><ele>2530.7</ele><time>2026-03-08T12:55:51.000Z</time></trkpt>
<trkpt lat="42.095873" lon="23.575746"><ele>2530.1</ele><time>2026-03-08T12:55:52.000Z</time></trkpt>
<trkpt lat="42.095873" lon="23.575746"><ele>2530.1</ele><time>2026-03-08T12:55:53.000Z</time></trkpt>
<trkpt lat="42.095873" lon="23.575745"><ele>2530.1</ele><time>2026-03-08T12:55:54.000Z</time></trkpt>
<trkpt lat="42.095873" lon="23.575745"><ele>2530.1</ele><time>2026-03-08T12:55:55.000Z</time></trkpt>
<trkpt lat="42.095872" lon="23.575744"><ele>2530.1</ele><time>2026-03-08T12:55:56.000Z</time></trkpt>
<trkpt lat="42.095872" lon="23.575743"><ele>2529.9</ele><time>2026-03-08T12:55:57.000Z</time></trkpt>
<trkpt lat="42.095872" lon="23.575743"><ele>2529.9</ele><time>2026-03-08T12:55:58.000Z</time></trkpt>
<trkpt lat="42.095872" lon="23.575743"><ele>2529.9</ele><time>2026-03-08T12:55:59.000Z</time></trkpt>
<trkpt lat="42.095871" lon="23.575743"><ele>2529.9</ele><time>2026-03-08T12:56:00.000Z</time></trkpt>
<trkpt lat="42.095871" lon="23.575743"><ele>2529.9</ele><time>2026-03-08T12:56:01.000Z</time></trkpt>
<trkpt lat="42.09587" lon="23.575743"><ele>2529.6</ele><time>2026-03-08T12:56:02.000Z</time></trkpt>
<trkpt lat="42.09587" lon="23.575745"><ele>2529.6</ele><time>2026-03-08T12:56:03.000Z</time></trkpt>
<trkpt lat="42.095869" lon="23.575747"><ele>2529.6</ele><time>2026-03-08T12:56:04.000Z</time></trkpt>
<trkpt lat="42.095869" lon="23.575749"><ele>2529.6</ele><time>2026-03-08T12:56:05.000Z</time></trkpt>
<trkpt lat="42.095869" lon="23.575751"><ele>2529.6</ele><time>2026-03-08T12:56:06.000Z</time></trkpt>
<trkpt lat="42.095869" lon="23.575752"><ele>2529.4</ele><time>2026-03-08T12:56:07.000Z</time></trkpt>
<trkpt lat="42.09587" lon="23.575754"><ele>2529.4</ele><time>2026-03-08T12:56:08.000Z</time></trkpt>
<trkpt lat="42.09587" lon="23.575755"><ele>2529.4</ele><time>2026-03-08T12:56:09.000Z</time></trkpt>
<trkpt lat="42.09587" lon="23.575756"><ele>2529.4</ele><time>2026-03-08T12:56:10.000Z</time></trkpt>
<trkpt lat="42.095871" lon="23.575757"><ele>2529.4</ele><time>2026-03-08T12:56:11.000Z</time></trkpt>
<trkpt lat="42.095871" lon="23.575758"><ele>2529.2</ele><time>2026-03-08T12:56:12.000Z</time></trkpt>
<trkpt lat="42.095871" lon="23.575758"><ele>2529.2</ele><time>2026-03-08T12:56:13.000Z</time></trkpt>
<trkpt lat="42.095872" lon="23.575758"><ele>2529.2</ele><time>2026-03-08T12:56:14.000Z</time></trkpt>
<trkpt lat="42.095873" lon="23.575758"><ele>2529.2</ele><time>2026-03-08T12:56:15.000Z</time></trkpt>
<trkpt lat="42.095873" lon="23.575758"><ele>2529.2</ele><time>2026-03-08T12:56:16.000Z</time></trkpt>
<trkpt lat="42.095873" lon="23.575758"><ele>2528.9</ele><time>2026-03-08T12:56:17.000Z</time></trkpt>
<trkpt lat="42.095873" lon="23.575758"><ele>2528.9</ele><time>2026-03-08T12:56:18.000Z</time></trkpt>
<trkpt lat="42.095873" lon="23.575757"><ele>2528.9</ele><time>2026-03-08T12:56:19.000Z</time></trkpt>
<trkpt lat="42.095873" lon="23.575757"><ele>2528.9</ele><time>2026-03-08T12:56:20.000Z</time></trkpt>
<trkpt lat="42.095873" lon="23.575758"><ele>2528.9</ele><time>2026-03-08T12:56:21.000Z</time></trkpt>
<trkpt lat="42.095873" lon="23.575758"><ele>2528.8</ele><time>2026-03-08T12:56:22.000Z</time></trkpt>
<trkpt lat="42.095872" lon="23.575759"><ele>2528.8</ele><time>2026-03-08T12:56:23.000Z</time></trkpt>
<trkpt lat="42.095872" lon="23.57576"><ele>2528.8</ele><time>2026-03-08T12:56:24.000Z</time></trkpt>
<trkpt lat="42.095871" lon="23.575761"><ele>2528.8</ele><time>2026-03-08T12:56:25.000Z</time></trkpt>
<trkpt lat="42.095871" lon="23.575761"><ele>2528.8</ele><time>2026-03-08T12:56:26.000Z</time></trkpt>
<trkpt lat="42.095871" lon="23.575761"><ele>2528.8</ele><time>2026-03-08T12:56:27.000Z</time></trkpt>
<trkpt lat="42.095871" lon="23.575761"><ele>2528.8</ele><time>2026-03-08T12:56:28.000Z</time></trkpt>
<trkpt lat="42.095871" lon="23.575761"><ele>2528.8</ele><time>2026-03-08T12:56:29.000Z</time></trkpt>
<trkpt lat="42.095871" lon="23.575761"><ele>2528.8</ele><time>2026-03-08T12:56:30.000Z</time></trkpt>
<trkpt lat="42.095871" lon="23.575761"><ele>2528.8</ele><time>2026-03-08T12:56:31.000Z</time></trkpt>
<trkpt lat="42.095871" lon="23.575762"><ele>2528.7</ele><time>2026-03-08T12:56:32.000Z</time></trkpt>
<trkpt lat="42.09587" lon="23.575762"><ele>2528.7</ele><time>2026-03-08T12:56:33.000Z</time></trkpt>
<trkpt lat="42.095869" lon="23.575762"><ele>2528.7</ele><time>2026-03-08T12:56:34.000Z</time></trkpt>
<trkpt lat="42.095868" lon="23.575762"><ele>2528.7</ele><time>2026-03-08T12:56:35.000Z</time></trkpt>
<trkpt lat="42.095866" lon="23.575763"><ele>2528.7</ele><time>2026-03-08T12:56:36.000Z</time></trkpt>
<trkpt lat="42.095865" lon="23.575764"><ele>2528.6</ele><time>2026-03-08T12:56:37.000Z</time></trkpt>
<trkpt lat="42.095865" lon="23.575765"><ele>2528.6</ele><time>2026-03-08T12:56:38.000Z</time></trkpt>
<trkpt lat="42.095864" lon="23.575765"><ele>2528.6</ele><time>2026-03-08T12:56:39.000Z</time></trkpt>
<trkpt lat="42.095864" lon="23.575766"><ele>2528.6</ele><time>2026-03-08T12:56:40.000Z</time></trkpt>
<trkpt lat="42.095864" lon="23.575766"><ele>2528.6</ele><time>2026-03-08T12:56:41.000Z</time></trkpt>
<trkpt lat="42.095864" lon="23.575766"><ele>2528.5</ele><time>2026-03-08T12:56:42.000Z</time></trkpt>
<trkpt lat="42.095865" lon="23.575766"><ele>2528.5</ele><time>2026-03-08T12:56:43.000Z</time></trkpt>
<trkpt lat="42.095865" lon="23.575767"><ele>2528.5</ele><time>2026-03-08T12:56:44.000Z</time></trkpt>
<trkpt lat="42.095865" lon="23.575767"><ele>2528.5</ele><time>2026-03-08T12:56:45.000Z</time></trkpt>
<trkpt lat="42.095865" lon="23.575767"><ele>2528.5</ele><time>2026-03-08T12:56:46.000Z</time></trkpt>
<trkpt lat="42.095865" lon="23.575767"><ele>2528.5</ele><time>2026-03-08T12:56:47.000Z</time></trkpt>
<trkpt lat="42.095865" lon="23.575767"><ele>2528.5</ele><time>2026-03-08T12:56:48.000Z</time></trkpt>
<trkpt lat="42.095865" lon="23.575767"><ele>2528.5</ele><time>2026-03-08T12:56:49.000Z</time></trkpt>
<trkpt lat="42.095865" lon="23.575767"><ele>2528.5</ele><time>2026-03-08T12:56:50.000Z</time></trkpt>
<trkpt lat="42.095864" lon="23.575767"><ele>2528.5</ele><time>2026-03-08T12:56:51.000Z</time></trkpt>
<trkpt lat="42.095864" lon="23.575767"><ele>2528.3</ele><time>2026-03-08T12:56:52.000Z</time></trkpt>
<trkpt lat="42.095865" lon="23.575768"><ele>2528.3</ele><time>2026-03-08T12:56:53.000Z</time></trkpt>
<trkpt lat="42.095865" lon="23.575769"><ele>2528.3</ele><time>2026-03-08T12:56:54.000Z</time></trkpt>
<trkpt lat="42.095865" lon="23.57577"><ele>2528.3</ele><time>2026-03-08T12:56:55.000Z</time></trkpt>
<trkpt lat="42.095866" lon="23.575772"><ele>2528.3</ele><time>2026-03-08T12:56:56.000Z</time></trkpt>
<trkpt lat="42.095866" lon="23.575774"><ele>2528.2</ele><time>2026-03-08T12:56:57.000Z</time></trkpt>
<trkpt lat="42.095866" lon="23.575775"><ele>2528.2</ele><time>2026-03-08T12:56:58.000Z</time></trkpt>
<trkpt lat="42.095866" lon="23.575775"><ele>2528.2</ele><time>2026-03-08T12:56:59.000Z</time></trkpt>
<trkpt lat="42.095866" lon="23.575776"><ele>2528.2</ele><time>2026-03-08T12:57:00.000Z</time></trkpt>
<trkpt lat="42.095866" lon="23.575776"><ele>2528.2</ele><time>2026-03-08T12:57:01.000Z</time></trkpt>
<trkpt lat="42.095867" lon="23.575776"><ele>2528</ele><time>2026-03-08T12:57:02.000Z</time></trkpt>
<trkpt lat="42.095867" lon="23.575776"><ele>2528</ele><time>2026-03-08T12:57:03.000Z</time></trkpt>
<trkpt lat="42.095867" lon="23.575776"><ele>2528</ele><time>2026-03-08T12:57:04.000Z</time></trkpt>
<trkpt lat="42.095866" lon="23.575777"><ele>2528</ele><time>2026-03-08T12:57:05.000Z</time></trkpt>
<trkpt lat="42.095866" lon="23.575777"><ele>2528</ele><time>2026-03-08T12:57:06.000Z</time></trkpt>
<trkpt lat="42.095866" lon="23.575778"><ele>2527.9</ele><time>2026-03-08T12:57:07.000Z</time></trkpt>
<trkpt lat="42.095866" lon="23.575778"><ele>2527.9</ele><time>2026-03-08T12:57:08.000Z</time></trkpt>
<trkpt lat="42.095866" lon="23.575779"><ele>2527.9</ele><time>2026-03-08T12:57:09.000Z</time></trkpt>
<trkpt lat="42.095867" lon="23.575779"><ele>2527.9</ele><time>2026-03-08T12:57:10.000Z</time></trkpt>
<trkpt lat="42.095867" lon="23.57578"><ele>2527.9</ele><time>2026-03-08T12:57:11.000Z</time></trkpt>
<trkpt lat="42.095868" lon="23.57578"><ele>2527.9</ele><time>2026-03-08T12:57:12.000Z</time></trkpt>
<trkpt lat="42.095868" lon="23.575781"><ele>2527.9</ele><time>2026-03-08T12:57:13.000Z</time></trkpt>
<trkpt lat="42.095869" lon="23.575782"><ele>2527.9</ele><time>2026-03-08T12:57:14.000Z</time></trkpt>
<trkpt lat="42.095869" lon="23.575782"><ele>2527.9</ele><time>2026-03-08T12:57:15.000Z</time></trkpt>
<trkpt lat="42.095868" lon="23.575782"><ele>2527.9</ele><time>2026-03-08T12:57:16.000Z</time></trkpt>
<trkpt lat="42.095868" lon="23.575782"><ele>2527.7</ele><time>2026-03-08T12:57:17.000Z</time></trkpt>
<trkpt lat="42.095868" lon="23.575782"><ele>2527.7</ele><time>2026-03-08T12:57:18.000Z</time></trkpt>
<trkpt lat="42.095868" lon="23.575782"><ele>2527.7</ele><time>2026-03-08T12:57:19.000Z</time></trkpt>
<trkpt lat="42.095868" lon="23.575782"><ele>2527.7</ele><time>2026-03-08T12:57:20.000Z</time></trkpt>
<trkpt lat="42.095868" lon="23.575782"><ele>2527.7</ele><time>2026-03-08T12:57:21.000Z</time></trkpt>
<trkpt lat="42.095869" lon="23.575782"><ele>2527.3</ele><time>2026-03-08T12:57:22.000Z</time></trkpt>
<trkpt lat="42.095869" lon="23.575782"><ele>2527.3</ele><time>2026-03-08T12:57:23.000Z</time></trkpt>
<trkpt lat="42.095869" lon="23.575782"><ele>2527.3</ele><time>2026-03-08T12:57:24.000Z</time></trkpt>
<trkpt lat="42.095869" lon="23.575782"><ele>2527.3</ele><time>2026-03-08T12:57:25.000Z</time></trkpt>
<trkpt lat="42.095869" lon="23.575784"><ele>2527.3</ele><time>2026-03-08T12:57:26.000Z</time></trkpt>
<trkpt lat="42.095868" lon="23.575787"><ele>2527.2</ele><time>2026-03-08T12:57:27.000Z</time></trkpt>
<trkpt lat="42.095868" lon="23.57579"><ele>2527.2</ele><time>2026-03-08T12:57:28.000Z</time></trkpt>
<trkpt lat="42.095867" lon="23.575793"><ele>2527.2</ele><time>2026-03-08T12:57:29.000Z</time></trkpt>
<trkpt lat="42.095867" lon="23.575796"><ele>2527.2</ele><time>2026-03-08T12:57:30.000Z</time></trkpt>
<trkpt lat="42.095868" lon="23.575798"><ele>2527.2</ele><time>2026-03-08T12:57:31.000Z</time></trkpt>
<trkpt lat="42.095869" lon="23.575799"><ele>2527</ele><time>2026-03-08T12:57:32.000Z</time></trkpt>
<trkpt lat="42.09587" lon="23.575799"><ele>2527</ele><time>2026-03-08T12:57:33.000Z</time></trkpt>
<trkpt lat="42.095871" lon="23.575799"><ele>2527</ele><time>2026-03-08T12:57:34.000Z</time></trkpt>
<trkpt lat="42.095871" lon="23.575799"><ele>2527</ele><time>2026-03-08T12:57:35.000Z</time></trkpt>
<trkpt lat="42.095871" lon="23.5758"><ele>2527</ele><time>2026-03-08T12:57:36.000Z</time></trkpt>
<trkpt lat="42.095872" lon="23.5758"><ele>2526.8</ele><time>2026-03-08T12:57:37.000Z</time></trkpt>
<trkpt lat="42.095872" lon="23.575801"><ele>2526.8</ele><time>2026-03-08T12:57:38.000Z</time></trkpt>
<trkpt lat="42.095872" lon="23.575801"><ele>2526.8</ele><time>2026-03-08T12:57:39.000Z</time></trkpt>
<trkpt lat="42.095873" lon="23.575801"><ele>2526.8</ele><time>2026-03-08T12:57:40.000Z</time></trkpt>
<trkpt lat="42.095873" lon="23.575802"><ele>2526.8</ele><time>2026-03-08T12:57:41.000Z</time></trkpt>
<trkpt lat="42.095872" lon="23.575802"><ele>2526.6</ele><time>2026-03-08T12:57:42.000Z</time></trkpt>
<trkpt lat="42.095873" lon="23.575803"><ele>2526.6</ele><time>2026-03-08T12:57:43.000Z</time></trkpt>
<trkpt lat="42.095873" lon="23.575803"><ele>2526.6</ele><time>2026-03-08T12:57:44.000Z</time></trkpt>
<trkpt lat="42.095873" lon="23.575804"><ele>2526.6</ele><time>2026-03-08T12:57:45.000Z</time></trkpt>
<trkpt lat="42.095873" lon="23.575804"><ele>2526.6</ele><time>2026-03-08T12:57:46.000Z</time></trkpt>
<trkpt lat="42.095873" lon="23.575804"><ele>2526.4</ele><time>2026-03-08T12:57:47.000Z</time></trkpt>
<trkpt lat="42.095873" lon="23.575805"><ele>2526.4</ele><time>2026-03-08T12:57:48.000Z</time></trkpt>
<trkpt lat="42.095872" lon="23.575805"><ele>2526.4</ele><time>2026-03-08T12:57:49.000Z</time></trkpt>
<trkpt lat="42.095872" lon="23.575806"><ele>2526.4</ele><time>2026-03-08T12:57:50.000Z</time></trkpt>
<trkpt lat="42.095871" lon="23.575807"><ele>2526.4</ele><time>2026-03-08T12:57:51.000Z</time></trkpt>
<trkpt lat="42.095871" lon="23.57581"><ele>2526.3</ele><time>2026-03-08T12:57:52.000Z</time></trkpt>
<trkpt lat="42.09587" lon="23.575812"><ele>2526.3</ele><time>2026-03-08T12:57:53.000Z</time></trkpt>
<trkpt lat="42.095869" lon="23.575816"><ele>2526.3</ele><time>2026-03-08T12:57:54.000Z</time></trkpt>
<trkpt lat="42.095869" lon="23.575819"><ele>2526.3</ele><time>2026-03-08T12:57:55.000Z</time></trkpt>
<trkpt lat="42.095867" lon="23.575822"><ele>2526.3</ele><time>2026-03-08T12:57:56.000Z</time></trkpt>
<trkpt lat="42.095866" lon="23.575825"><ele>2526.3</ele><time>2026-03-08T12:57:57.000Z</time></trkpt>
<trkpt lat="42.095865" lon="23.575828"><ele>2526.3</ele><time>2026-03-08T12:57:58.000Z</time></trkpt>
<trkpt lat="42.095863" lon="23.575829"><ele>2526.3</ele><time>2026-03-08T12:57:59.000Z</time></trkpt>
<trkpt lat="42.095862" lon="23.575832"><ele>2526.3</ele><time>2026-03-08T12:58:00.000Z</time></trkpt>
<trkpt lat="42.095861" lon="23.575833"><ele>2526.3</ele><time>2026-03-08T12:58:01.000Z</time></trkpt>
<trkpt lat="42.095859" lon="23.575834"><ele>2526.3</ele><time>2026-03-08T12:58:02.000Z</time></trkpt>
<trkpt lat="42.095858" lon="23.575833"><ele>2526.3</ele><time>2026-03-08T12:58:03.000Z</time></trkpt>
<trkpt lat="42.095856" lon="23.575834"><ele>2526.3</ele><time>2026-03-08T12:58:04.000Z</time></trkpt>
<trkpt lat="42.095855" lon="23.575833"><ele>2526.3</ele><time>2026-03-08T12:58:05.000Z</time></trkpt>
<trkpt lat="42.095854" lon="23.575834"><ele>2526.3</ele><time>2026-03-08T12:58:06.000Z</time></trkpt>
<trkpt lat="42.095854" lon="23.575835"><ele>2526.1</ele><time>2026-03-08T12:58:07.000Z</time></trkpt>
<trkpt lat="42.095854" lon="23.575836"><ele>2526.1</ele><time>2026-03-08T12:58:08.000Z</time></trkpt>
<trkpt lat="42.095855" lon="23.575838"><ele>2526.1</ele><time>2026-03-08T12:58:09.000Z</time></trkpt>
<trkpt lat="42.095855" lon="23.575841"><ele>2526.1</ele><time>2026-03-08T12:58:10.000Z</time></trkpt>
<trkpt lat="42.095857" lon="23.575843"><ele>2526.1</ele><time>2026-03-08T12:58:11.000Z</time></trkpt>
<trkpt lat="42.095858" lon="23.575847"><ele>2526</ele><time>2026-03-08T12:58:12.000Z</time></trkpt>
<trkpt lat="42.095859" lon="23.57585"><ele>2526</ele><time>2026-03-08T12:58:13.000Z</time></trkpt>
<trkpt lat="42.09586" lon="23.575852"><ele>2526</ele><time>2026-03-08T12:58:14.000Z</time></trkpt>
<trkpt lat="42.095861" lon="23.575854"><ele>2526</ele><time>2026-03-08T12:58:15.000Z</time></trkpt>
<trkpt lat="42.095861" lon="23.575856"><ele>2526</ele><time>2026-03-08T12:58:16.000Z</time></trkpt>
<trkpt lat="42.095861" lon="23.575857"><ele>2525.6</ele><time>2026-03-08T12:58:17.000Z</time></trkpt>
<trkpt lat="42.09586" lon="23.575859"><ele>2525.6</ele><time>2026-03-08T12:58:18.000Z</time></trkpt>
<trkpt lat="42.09586" lon="23.575862"><ele>2525.6</ele><time>2026-03-08T12:58:19.000Z</time></trkpt>
<trkpt lat="42.095859" lon="23.575866"><ele>2525.6</ele><time>2026-03-08T12:58:20.000Z</time></trkpt>
<trkpt lat="42.095859" lon="23.57587"><ele>2525.6</ele><time>2026-03-08T12:58:21.000Z</time></trkpt>
<trkpt lat="42.095859" lon="23.575874"><ele>2525.2</ele><time>2026-03-08T12:58:22.000Z</time></trkpt>
<trkpt lat="42.095858" lon="23.575878"><ele>2525.2</ele><time>2026-03-08T12:58:23.000Z</time></trkpt>
<trkpt lat="42.095858" lon="23.575881"><ele>2525.2</ele><time>2026-03-08T12:58:24.000Z</time></trkpt>
<trkpt lat="42.095858" lon="23.575883"><ele>2525.2</ele><time>2026-03-08T12:58:25.000Z</time></trkpt>
<trkpt lat="42.095858" lon="23.575884"><ele>2525.2</ele><time>2026-03-08T12:58:26.000Z</time></trkpt>
<trkpt lat="42.095857" lon="23.575885"><ele>2524.9</ele><time>2026-03-08T12:58:27.000Z</time></trkpt>
<trkpt lat="42.095856" lon="23.575886"><ele>2524.9</ele><time>2026-03-08T12:58:28.000Z</time></trkpt>
<trkpt lat="42.095856" lon="23.575886"><ele>2524.9</ele><time>2026-03-08T12:58:29.000Z</time></trkpt>
<trkpt lat="42.095855" lon="23.575887"><ele>2524.9</ele><time>2026-03-08T12:58:30.000Z</time></trkpt>
<trkpt lat="42.095854" lon="23.575888"><ele>2524.9</ele><time>2026-03-08T12:58:31.000Z</time></trkpt>
<trkpt lat="42.095854" lon="23.575889"><ele>2524.4</ele><time>2026-03-08T12:58:32.000Z</time></trkpt>
<trkpt lat="42.095854" lon="23.575891"><ele>2524.4</ele><time>2026-03-08T12:58:33.000Z</time></trkpt>
<trkpt lat="42.095854" lon="23.575892"><ele>2524.4</ele><time>2026-03-08T12:58:34.000Z</time></trkpt>
<trkpt lat="42.095854" lon="23.575893"><ele>2524.4</ele><time>2026-03-08T12:58:35.000Z</time></trkpt>
<trkpt lat="42.095854" lon="23.575895"><ele>2524.4</ele><time>2026-03-08T12:58:36.000Z</time></trkpt>
<trkpt lat="42.095853" lon="23.575896"><ele>2523.8</ele><time>2026-03-08T12:58:37.000Z</time></trkpt>
<trkpt lat="42.095853" lon="23.575896"><ele>2523.8</ele><time>2026-03-08T12:58:38.000Z</time></trkpt>
<trkpt lat="42.095852" lon="23.575897"><ele>2523.8</ele><time>2026-03-08T12:58:39.000Z</time></trkpt>
<trkpt lat="42.095852" lon="23.575897"><ele>2523.8</ele><time>2026-03-08T12:58:40.000Z</time></trkpt>
<trkpt lat="42.095852" lon="23.575898"><ele>2523.8</ele><time>2026-03-08T12:58:41.000Z</time></trkpt>
<trkpt lat="42.095853" lon="23.575898"><ele>2523.5</ele><time>2026-03-08T12:58:42.000Z</time></trkpt>
<trkpt lat="42.095853" lon="23.575898"><ele>2523.5</ele><time>2026-03-08T12:58:43.000Z</time></trkpt>
<trkpt lat="42.095853" lon="23.575898"><ele>2523.5</ele><time>2026-03-08T12:58:44.000Z</time></trkpt>
<trkpt lat="42.095853" lon="23.575897"><ele>2523.5</ele><time>2026-03-08T12:58:45.000Z</time></trkpt>
<trkpt lat="42.095852" lon="23.575897"><ele>2523.5</ele><time>2026-03-08T12:58:46.000Z</time></trkpt>
<trkpt lat="42.095852" lon="23.575896"><ele>2523</ele><time>2026-03-08T12:58:47.000Z</time></trkpt>
<trkpt lat="42.095852" lon="23.575896"><ele>2523</ele><time>2026-03-08T12:58:48.000Z</time></trkpt>
<trkpt lat="42.095851" lon="23.575897"><ele>2523</ele><time>2026-03-08T12:58:49.000Z</time></trkpt>
<trkpt lat="42.095851" lon="23.575899"><ele>2523</ele><time>2026-03-08T12:58:50.000Z</time></trkpt>
<trkpt lat="42.095851" lon="23.575899"><ele>2523</ele><time>2026-03-08T12:58:51.000Z</time></trkpt>
<trkpt lat="42.095851" lon="23.5759"><ele>2522.7</ele><time>2026-03-08T12:58:52.000Z</time></trkpt>
<trkpt lat="42.095851" lon="23.5759"><ele>2522.7</ele><time>2026-03-08T12:58:53.000Z</time></trkpt>
<trkpt lat="42.095851" lon="23.5759"><ele>2522.7</ele><time>2026-03-08T12:58:54.000Z</time></trkpt>
<trkpt lat="42.095851" lon="23.5759"><ele>2522.7</ele><time>2026-03-08T12:58:55.000Z</time></trkpt>
<trkpt lat="42.095851" lon="23.5759"><ele>2522.7</ele><time>2026-03-08T12:58:56.000Z</time></trkpt>
<trkpt lat="42.09585" lon="23.5759"><ele>2522.6</ele><time>2026-03-08T12:58:57.000Z</time></trkpt>
<trkpt lat="42.09585" lon="23.5759"><ele>2522.6</ele><time>2026-03-08T12:58:58.000Z</time></trkpt>
<trkpt lat="42.09585" lon="23.5759"><ele>2522.6</ele><time>2026-03-08T12:58:59.000Z</time></trkpt>
<trkpt lat="42.095851" lon="23.5759"><ele>2522.6</ele><time>2026-03-08T12:59:00.000Z</time></trkpt>
<trkpt lat="42.095851" lon="23.575899"><ele>2522.6</ele><time>2026-03-08T12:59:01.000Z</time></trkpt>
<trkpt lat="42.095851" lon="23.575899"><ele>2522.5</ele><time>2026-03-08T12:59:02.000Z</time></trkpt>
<trkpt lat="42.095851" lon="23.575899"><ele>2522.5</ele><time>2026-03-08T12:59:03.000Z</time></trkpt>
<trkpt lat="42.095851" lon="23.575898"><ele>2522.5</ele><time>2026-03-08T12:59:04.000Z</time></trkpt>
<trkpt lat="42.095851" lon="23.575898"><ele>2522.5</ele><time>2026-03-08T12:59:05.000Z</time></trkpt>
<trkpt lat="42.095851" lon="23.575898"><ele>2522.5</ele><time>2026-03-08T12:59:06.000Z</time></trkpt>
<trkpt lat="42.095851" lon="23.575898"><ele>2522.5</ele><time>2026-03-08T12:59:07.000Z</time></trkpt>
<trkpt lat="42.095851" lon="23.575898"><ele>2522.5</ele><time>2026-03-08T12:59:08.000Z</time></trkpt>
<trkpt lat="42.095851" lon="23.575898"><ele>2522.5</ele><time>2026-03-08T12:59:09.000Z</time></trkpt>
<trkpt lat="42.095851" lon="23.575899"><ele>2522.5</ele><time>2026-03-08T12:59:10.000Z</time></trkpt>
<trkpt lat="42.095851" lon="23.575899"><ele>2522.5</ele><time>2026-03-08T12:59:11.000Z</time></trkpt>
<trkpt lat="42.095851" lon="23.5759"><ele>2522.5</ele><time>2026-03-08T12:59:12.000Z</time></trkpt>
<trkpt lat="42.095851" lon="23.575901"><ele>2522.5</ele><time>2026-03-08T12:59:13.000Z</time></trkpt>
<trkpt lat="42.095851" lon="23.575902"><ele>2522.5</ele><time>2026-03-08T12:59:14.000Z</time></trkpt>
<trkpt lat="42.095851" lon="23.575902"><ele>2522.5</ele><time>2026-03-08T12:59:15.000Z</time></trkpt>
<trkpt lat="42.095851" lon="23.575903"><ele>2522.5</ele><time>2026-03-08T12:59:16.000Z</time></trkpt>
<trkpt lat="42.095851" lon="23.575904"><ele>2522.4</ele><time>2026-03-08T12:59:17.000Z</time></trkpt>
<trkpt lat="42.095851" lon="23.575905"><ele>2522.4</ele><time>2026-03-08T12:59:18.000Z</time></trkpt>
<trkpt lat="42.095851" lon="23.575906"><ele>2522.4</ele><time>2026-03-08T12:59:19.000Z</time></trkpt>
<trkpt lat="42.095851" lon="23.575907"><ele>2522.4</ele><time>2026-03-08T12:59:20.000Z</time></trkpt>
<trkpt lat="42.095851" lon="23.575908"><ele>2522.4</ele><time>2026-03-08T12:59:21.000Z</time></trkpt>
<trkpt lat="42.095851" lon="23.575908"><ele>2522.1</ele><time>2026-03-08T12:59:22.000Z</time></trkpt>
<trkpt lat="42.095851" lon="23.575909"><ele>2522.1</ele><time>2026-03-08T12:59:23.000Z</time></trkpt>
<trkpt lat="42.095851" lon="23.575909"><ele>2522.1</ele><time>2026-03-08T12:59:24.000Z</time></trkpt>
<trkpt lat="42.095851" lon="23.575909"><ele>2522.1</ele><time>2026-03-08T12:59:25.000Z</time></trkpt>
<trkpt lat="42.095851" lon="23.575909"><ele>2522.1</ele><time>2026-03-08T12:59:26.000Z</time></trkpt>
<trkpt lat="42.095851" lon="23.575909"><ele>2522</ele><time>2026-03-08T12:59:27.000Z</time></trkpt>
<trkpt lat="42.095851" lon="23.57591"><ele>2522</ele><time>2026-03-08T12:59:28.000Z</time></trkpt>
<trkpt lat="42.095851" lon="23.57591"><ele>2522</ele><time>2026-03-08T12:59:29.000Z</time></trkpt>
<trkpt lat="42.095851" lon="23.575911"><ele>2522</ele><time>2026-03-08T12:59:30.000Z</time></trkpt>
<trkpt lat="42.095852" lon="23.575912"><ele>2522</ele><time>2026-03-08T12:59:31.000Z</time></trkpt>
<trkpt lat="42.095852" lon="23.575914"><ele>2521.7</ele><time>2026-03-08T12:59:32.000Z</time></trkpt>
<trkpt lat="42.095852" lon="23.575915"><ele>2521.7</ele><time>2026-03-08T12:59:33.000Z</time></trkpt>
<trkpt lat="42.095853" lon="23.575916"><ele>2521.7</ele><time>2026-03-08T12:59:34.000Z</time></trkpt>
<trkpt lat="42.095853" lon="23.575917"><ele>2521.7</ele><time>2026-03-08T12:59:35.000Z</time></trkpt>
<trkpt lat="42.095854" lon="23.575917"><ele>2521.7</ele><time>2026-03-08T12:59:36.000Z</time></trkpt>
<trkpt lat="42.095854" lon="23.575917"><ele>2521.5</ele><time>2026-03-08T12:59:37.000Z</time></trkpt>
<trkpt lat="42.095853" lon="23.575918"><ele>2521.5</ele><time>2026-03-08T12:59:38.000Z</time></trkpt>
<trkpt lat="42.095853" lon="23.575918"><ele>2521.5</ele><time>2026-03-08T12:59:39.000Z</time></trkpt>
<trkpt lat="42.095853" lon="23.575918"><ele>2521.5</ele><time>2026-03-08T12:59:40.000Z</time></trkpt>
<trkpt lat="42.095852" lon="23.575919"><ele>2521.5</ele><time>2026-03-08T12:59:41.000Z</time></trkpt>
<trkpt lat="42.095852" lon="23.575919"><ele>2521.5</ele><time>2026-03-08T12:59:42.000Z</time></trkpt>
<trkpt lat="42.095851" lon="23.575919"><ele>2521.5</ele><time>2026-03-08T12:59:43.000Z</time></trkpt>
<trkpt lat="42.095851" lon="23.575919"><ele>2521.5</ele><time>2026-03-08T12:59:44.000Z</time></trkpt>
<trkpt lat="42.095851" lon="23.575918"><ele>2521.5</ele><time>2026-03-08T12:59:45.000Z</time></trkpt>
<trkpt lat="42.095851" lon="23.575918"><ele>2521.5</ele><time>2026-03-08T12:59:46.000Z</time></trkpt>
<trkpt lat="42.095851" lon="23.575918"><ele>2521.3</ele><time>2026-03-08T12:59:47.000Z</time></trkpt>
<trkpt lat="42.095851" lon="23.575918"><ele>2521.3</ele><time>2026-03-08T12:59:48.000Z</time></trkpt>
<trkpt lat="42.095851" lon="23.575918"><ele>2521.3</ele><time>2026-03-08T12:59:49.000Z</time></trkpt>
<trkpt lat="42.095851" lon="23.575918"><ele>2521.3</ele><time>2026-03-08T12:59:50.000Z</time></trkpt>
<trkpt lat="42.095851" lon="23.575918"><ele>2521.3</ele><time>2026-03-08T12:59:51.000Z</time></trkpt>
<trkpt lat="42.095851" lon="23.575919"><ele>2521</ele><time>2026-03-08T12:59:52.000Z</time></trkpt>
<trkpt lat="42.095851" lon="23.575919"><ele>2521</ele><time>2026-03-08T12:59:53.000Z</time></trkpt>
<trkpt lat="42.095851" lon="23.575919"><ele>2521</ele><time>2026-03-08T12:59:54.000Z</time></trkpt>
<trkpt lat="42.095852" lon="23.575919"><ele>2521</ele><time>2026-03-08T12:59:55.000Z</time></trkpt>
<trkpt lat="42.095852" lon="23.575919"><ele>2521</ele><time>2026-03-08T12:59:56.000Z</time></trkpt>
<trkpt lat="42.095852" lon="23.575919"><ele>2520.9</ele><time>2026-03-08T12:59:57.000Z</time></trkpt>
<trkpt lat="42.095852" lon="23.575919"><ele>2520.9</ele><time>2026-03-08T12:59:58.000Z</time></trkpt>
<trkpt lat="42.095851" lon="23.57592"><ele>2520.9</ele><time>2026-03-08T12:59:59.000Z</time></trkpt>
<trkpt lat="42.095851" lon="23.575921"><ele>2520.9</ele><time>2026-03-08T13:00:00.000Z</time></trkpt>
<trkpt lat="42.095851" lon="23.575921"><ele>2520.9</ele><time>2026-03-08T13:00:01.000Z</time></trkpt>
<trkpt lat="42.095851" lon="23.575922"><ele>2520.7</ele><time>2026-03-08T13:00:02.000Z</time></trkpt>
<trkpt lat="42.095851" lon="23.575923"><ele>2520.7</ele><time>2026-03-08T13:00:03.000Z</time></trkpt>
<trkpt lat="42.095851" lon="23.575923"><ele>2520.7</ele><time>2026-03-08T13:00:04.000Z</time></trkpt>
<trkpt lat="42.095851" lon="23.575923"><ele>2520.7</ele><time>2026-03-08T13:00:05.000Z</time></trkpt>
<trkpt lat="42.095852" lon="23.575923"><ele>2520.7</ele><time>2026-03-08T13:00:06.000Z</time></trkpt>
<trkpt lat="42.095852" lon="23.575923"><ele>2520.5</ele><time>2026-03-08T13:00:07.000Z</time></trkpt>
<trkpt lat="42.095852" lon="23.575924"><ele>2520.5</ele><time>2026-03-08T13:00:08.000Z</time></trkpt>
<trkpt lat="42.095852" lon="23.575925"><ele>2520.5</ele><time>2026-03-08T13:00:09.000Z</time></trkpt>
<trkpt lat="42.095852" lon="23.575926"><ele>2520.5</ele><time>2026-03-08T13:00:10.000Z</time></trkpt>
<trkpt lat="42.095853" lon="23.575926"><ele>2520.5</ele><time>2026-03-08T13:00:11.000Z</time></trkpt>
<trkpt lat="42.095853" lon="23.575927"><ele>2520.4</ele><time>2026-03-08T13:00:12.000Z</time></trkpt>
<trkpt lat="42.095853" lon="23.575927"><ele>2520.4</ele><time>2026-03-08T13:00:13.000Z</time></trkpt>
<trkpt lat="42.095853" lon="23.575927"><ele>2520.4</ele><time>2026-03-08T13:00:14.000Z</time></trkpt>
<trkpt lat="42.095853" lon="23.575927"><ele>2520.4</ele><time>2026-03-08T13:00:15.000Z</time></trkpt>
<trkpt lat="42.095853" lon="23.575927"><ele>2520.4</ele><time>2026-03-08T13:00:16.000Z</time></trkpt>
<trkpt lat="42.095853" lon="23.575927"><ele>2520.1</ele><time>2026-03-08T13:00:17.000Z</time></trkpt>
<trkpt lat="42.095853" lon="23.575927"><ele>2520.1</ele><time>2026-03-08T13:00:18.000Z</time></trkpt>
<trkpt lat="42.095853" lon="23.575927"><ele>2520.1</ele><time>2026-03-08T13:00:19.000Z</time></trkpt>
<trkpt lat="42.095853" lon="23.575927"><ele>2520.1</ele><time>2026-03-08T13:00:20.000Z</time></trkpt>
<trkpt lat="42.095853" lon="23.575927"><ele>2520.1</ele><time>2026-03-08T13:00:21.000Z</time></trkpt>
<trkpt lat="42.095853" lon="23.575927"><ele>2519.9</ele><time>2026-03-08T13:00:22.000Z</time></trkpt>
<trkpt lat="42.095853" lon="23.575927"><ele>2519.9</ele><time>2026-03-08T13:00:23.000Z</time></trkpt>
<trkpt lat="42.095853" lon="23.575927"><ele>2519.9</ele><time>2026-03-08T13:00:24.000Z</time></trkpt>
<trkpt lat="42.095853" lon="23.575927"><ele>2519.9</ele><time>2026-03-08T13:00:25.000Z</time></trkpt>
<trkpt lat="42.095853" lon="23.575927"><ele>2519.9</ele><time>2026-03-08T13:00:26.000Z</time></trkpt>
<trkpt lat="42.095853" lon="23.575927"><ele>2519.9</ele><time>2026-03-08T13:00:27.000Z</time></trkpt>
<trkpt lat="42.095853" lon="23.575927"><ele>2519.9</ele><time>2026-03-08T13:00:28.000Z</time></trkpt>
<trkpt lat="42.095853" lon="23.575927"><ele>2519.9</ele><time>2026-03-08T13:00:29.000Z</time></trkpt>
<trkpt lat="42.095854" lon="23.575928"><ele>2519.9</ele><time>2026-03-08T13:00:30.000Z</time></trkpt>
<trkpt lat="42.095854" lon="23.575929"><ele>2519.9</ele><time>2026-03-08T13:00:31.000Z</time></trkpt>
<trkpt lat="42.095854" lon="23.575929"><ele>2519.7</ele><time>2026-03-08T13:00:32.000Z</time></trkpt>
<trkpt lat="42.095854" lon="23.57593"><ele>2519.7</ele><time>2026-03-08T13:00:33.000Z</time></trkpt>
<trkpt lat="42.095854" lon="23.57593"><ele>2519.7</ele><time>2026-03-08T13:00:34.000Z</time></trkpt>
<trkpt lat="42.095854" lon="23.57593"><ele>2519.7</ele><time>2026-03-08T13:00:35.000Z</time></trkpt>
<trkpt lat="42.095854" lon="23.57593"><ele>2519.7</ele><time>2026-03-08T13:00:36.000Z</time></trkpt>
<trkpt lat="42.095854" lon="23.57593"><ele>2519.6</ele><time>2026-03-08T13:00:37.000Z</time></trkpt>
<trkpt lat="42.095854" lon="23.57593"><ele>2519.6</ele><time>2026-03-08T13:00:38.000Z</time></trkpt>
<trkpt lat="42.095854" lon="23.57593"><ele>2519.6</ele><time>2026-03-08T13:00:39.000Z</time></trkpt>
<trkpt lat="42.095854" lon="23.57593"><ele>2519.6</ele><time>2026-03-08T13:00:40.000Z</time></trkpt>
<trkpt lat="42.095854" lon="23.57593"><ele>2519.6</ele><time>2026-03-08T13:00:41.000Z</time></trkpt>
<trkpt lat="42.095854" lon="23.57593"><ele>2519.7</ele><time>2026-03-08T13:00:42.000Z</time></trkpt>
<trkpt lat="42.095854" lon="23.575929"><ele>2519.7</ele><time>2026-03-08T13:00:43.000Z</time></trkpt>
<trkpt lat="42.095853" lon="23.575928"><ele>2519.7</ele><time>2026-03-08T13:00:44.000Z</time></trkpt>
<trkpt lat="42.095852" lon="23.575927"><ele>2519.7</ele><time>2026-03-08T13:00:45.000Z</time></trkpt>
<trkpt lat="42.095851" lon="23.575927"><ele>2519.7</ele><time>2026-03-08T13:00:46.000Z</time></trkpt>
<trkpt lat="42.09585" lon="23.575925"><ele>2519.9</ele><time>2026-03-08T13:00:47.000Z</time></trkpt>
<trkpt lat="42.095849" lon="23.575925"><ele>2519.9</ele><time>2026-03-08T13:00:48.000Z</time></trkpt>
<trkpt lat="42.095849" lon="23.575924"><ele>2519.9</ele><time>2026-03-08T13:00:49.000Z</time></trkpt>
<trkpt lat="42.095848" lon="23.575924"><ele>2519.9</ele><time>2026-03-08T13:00:50.000Z</time></trkpt>
<trkpt lat="42.095848" lon="23.575923"><ele>2519.9</ele><time>2026-03-08T13:00:51.000Z</time></trkpt>
<trkpt lat="42.095848" lon="23.575922"><ele>2520.1</ele><time>2026-03-08T13:00:52.000Z</time></trkpt>
<trkpt lat="42.095848" lon="23.575922"><ele>2520.1</ele><time>2026-03-08T13:00:53.000Z</time></trkpt>
<trkpt lat="42.095849" lon="23.575922"><ele>2520.1</ele><time>2026-03-08T13:00:54.000Z</time></trkpt>
<trkpt lat="42.095849" lon="23.575922"><ele>2520.1</ele><time>2026-03-08T13:00:55.000Z</time></trkpt>
<trkpt lat="42.095849" lon="23.575923"><ele>2520.1</ele><time>2026-03-08T13:00:56.000Z</time></trkpt>
<trkpt lat="42.095849" lon="23.575923"><ele>2520.2</ele><time>2026-03-08T13:00:57.000Z</time></trkpt>
<trkpt lat="42.095849" lon="23.575923"><ele>2520.2</ele><time>2026-03-08T13:00:58.000Z</time></trkpt>
<trkpt lat="42.095849" lon="23.575923"><ele>2520.2</ele><time>2026-03-08T13:00:59.000Z</time></trkpt>
<trkpt lat="42.095849" lon="23.575923"><ele>2520.2</ele><time>2026-03-08T13:01:00.000Z</time></trkpt>
<trkpt lat="42.095849" lon="23.575924"><ele>2520.2</ele><time>2026-03-08T13:01:01.000Z</time></trkpt>
<trkpt lat="42.095848" lon="23.575924"><ele>2520.1</ele><time>2026-03-08T13:01:02.000Z</time></trkpt>
<trkpt lat="42.095848" lon="23.575924"><ele>2520.1</ele><time>2026-03-08T13:01:03.000Z</time></trkpt>
<trkpt lat="42.095847" lon="23.575925"><ele>2520.1</ele><time>2026-03-08T13:01:04.000Z</time></trkpt>
<trkpt lat="42.095847" lon="23.575925"><ele>2520.1</ele><time>2026-03-08T13:01:05.000Z</time></trkpt>
<trkpt lat="42.095846" lon="23.575925"><ele>2520.1</ele><time>2026-03-08T13:01:06.000Z</time></trkpt>
<trkpt lat="42.095846" lon="23.575925"><ele>2519.6</ele><time>2026-03-08T13:01:07.000Z</time></trkpt>
<trkpt lat="42.095846" lon="23.575926"><ele>2519.6</ele><time>2026-03-08T13:01:08.000Z</time></trkpt>
<trkpt lat="42.095846" lon="23.575926"><ele>2519.6</ele><time>2026-03-08T13:01:09.000Z</time></trkpt>
<trkpt lat="42.095845" lon="23.575927"><ele>2519.6</ele><time>2026-03-08T13:01:10.000Z</time></trkpt>
<trkpt lat="42.095845" lon="23.575927"><ele>2519.6</ele><time>2026-03-08T13:01:11.000Z</time></trkpt>
<trkpt lat="42.095844" lon="23.575928"><ele>2519.3</ele><time>2026-03-08T13:01:12.000Z</time></trkpt>
<trkpt lat="42.095844" lon="23.575928"><ele>2519.3</ele><time>2026-03-08T13:01:13.000Z</time></trkpt>
<trkpt lat="42.095844" lon="23.575928"><ele>2519.3</ele><time>2026-03-08T13:01:14.000Z</time></trkpt>
<trkpt lat="42.095844" lon="23.575929"><ele>2519.3</ele><time>2026-03-08T13:01:15.000Z</time></trkpt>
<trkpt lat="42.095844" lon="23.575929"><ele>2519.3</ele><time>2026-03-08T13:01:16.000Z</time></trkpt>
<trkpt lat="42.095844" lon="23.575929"><ele>2518.9</ele><time>2026-03-08T13:01:17.000Z</time></trkpt>
<trkpt lat="42.095844" lon="23.575929"><ele>2518.9</ele><time>2026-03-08T13:01:18.000Z</time></trkpt>
<trkpt lat="42.095844" lon="23.575929"><ele>2518.9</ele><time>2026-03-08T13:01:19.000Z</time></trkpt>
<trkpt lat="42.095844" lon="23.575929"><ele>2518.9</ele><time>2026-03-08T13:01:20.000Z</time></trkpt>
<trkpt lat="42.095845" lon="23.575929"><ele>2518.9</ele><time>2026-03-08T13:01:21.000Z</time></trkpt>
<trkpt lat="42.095845" lon="23.575929"><ele>2518.8</ele><time>2026-03-08T13:01:22.000Z</time></trkpt>
<trkpt lat="42.095845" lon="23.575928"><ele>2518.8</ele><time>2026-03-08T13:01:23.000Z</time></trkpt>
<trkpt lat="42.095845" lon="23.575928"><ele>2518.8</ele><time>2026-03-08T13:01:24.000Z</time></trkpt>
<trkpt lat="42.095845" lon="23.575928"><ele>2518.8</ele><time>2026-03-08T13:01:25.000Z</time></trkpt>
<trkpt lat="42.095845" lon="23.575928"><ele>2518.8</ele><time>2026-03-08T13:01:26.000Z</time></trkpt>
<trkpt lat="42.095844" lon="23.575928"><ele>2518.7</ele><time>2026-03-08T13:01:27.000Z</time></trkpt>
<trkpt lat="42.095844" lon="23.575928"><ele>2518.7</ele><time>2026-03-08T13:01:28.000Z</time></trkpt>
<trkpt lat="42.095844" lon="23.575928"><ele>2518.7</ele><time>2026-03-08T13:01:29.000Z</time></trkpt>
<trkpt lat="42.095844" lon="23.575928"><ele>2518.7</ele><time>2026-03-08T13:01:30.000Z</time></trkpt>
<trkpt lat="42.095844" lon="23.575928"><ele>2518.7</ele><time>2026-03-08T13:01:31.000Z</time></trkpt>
<trkpt lat="42.095844" lon="23.575928"><ele>2518.7</ele><time>2026-03-08T13:01:32.000Z</time></trkpt>
<trkpt lat="42.095844" lon="23.575928"><ele>2518.7</ele><time>2026-03-08T13:01:33.000Z</time></trkpt>
<trkpt lat="42.095844" lon="23.575929"><ele>2518.7</ele><time>2026-03-08T13:01:34.000Z</time></trkpt>
<trkpt lat="42.095844" lon="23.57593"><ele>2518.7</ele><time>2026-03-08T13:01:35.000Z</time></trkpt>
<trkpt lat="42.095844" lon="23.575932"><ele>2518.7</ele><time>2026-03-08T13:01:36.000Z</time></trkpt>
<trkpt lat="42.095844" lon="23.575933"><ele>2518.7</ele><time>2026-03-08T13:01:37.000Z</time></trkpt>
<trkpt lat="42.095844" lon="23.575934"><ele>2518.7</ele><time>2026-03-08T13:01:38.000Z</time></trkpt>
<trkpt lat="42.095844" lon="23.575934"><ele>2518.7</ele><time>2026-03-08T13:01:39.000Z</time></trkpt>
<trkpt lat="42.095844" lon="23.575934"><ele>2518.7</ele><time>2026-03-08T13:01:40.000Z</time></trkpt>
<trkpt lat="42.095844" lon="23.575935"><ele>2518.7</ele><time>2026-03-08T13:01:41.000Z</time></trkpt>
<trkpt lat="42.095845" lon="23.575935"><ele>2518.6</ele><time>2026-03-08T13:01:42.000Z</time></trkpt>
<trkpt lat="42.095845" lon="23.575935"><ele>2518.6</ele><time>2026-03-08T13:01:43.000Z</time></trkpt>
<trkpt lat="42.095845" lon="23.575936"><ele>2518.6</ele><time>2026-03-08T13:01:44.000Z</time></trkpt>
<trkpt lat="42.095845" lon="23.575936"><ele>2518.6</ele><time>2026-03-08T13:01:45.000Z</time></trkpt>
<trkpt lat="42.095845" lon="23.575937"><ele>2518.6</ele><time>2026-03-08T13:01:46.000Z</time></trkpt>
<trkpt lat="42.095845" lon="23.575937"><ele>2518.5</ele><time>2026-03-08T13:01:47.000Z</time></trkpt>
<trkpt lat="42.095845" lon="23.575938"><ele>2518.5</ele><time>2026-03-08T13:01:48.000Z</time></trkpt>
<trkpt lat="42.095845" lon="23.57594"><ele>2518.5</ele><time>2026-03-08T13:01:49.000Z</time></trkpt>
<trkpt lat="42.095845" lon="23.575943"><ele>2518.5</ele><time>2026-03-08T13:01:50.000Z</time></trkpt>
<trkpt lat="42.095845" lon="23.575944"><ele>2518.5</ele><time>2026-03-08T13:01:51.000Z</time></trkpt>
<trkpt lat="42.095845" lon="23.575946"><ele>2518.3</ele><time>2026-03-08T13:01:52.000Z</time></trkpt>
<trkpt lat="42.095845" lon="23.575948"><ele>2518.3</ele><time>2026-03-08T13:01:53.000Z</time></trkpt>
<trkpt lat="42.095844" lon="23.575949"><ele>2518.3</ele><time>2026-03-08T13:01:54.000Z</time></trkpt>
<trkpt lat="42.095844" lon="23.575949"><ele>2518.3</ele><time>2026-03-08T13:01:55.000Z</time></trkpt>
<trkpt lat="42.095843" lon="23.57595"><ele>2518.3</ele><time>2026-03-08T13:01:56.000Z</time></trkpt>
<trkpt lat="42.095842" lon="23.575951"><ele>2518.1</ele><time>2026-03-08T13:01:57.000Z</time></trkpt>
<trkpt lat="42.095842" lon="23.575951"><ele>2518.1</ele><time>2026-03-08T13:01:58.000Z</time></trkpt>
<trkpt lat="42.095842" lon="23.575951"><ele>2518.1</ele><time>2026-03-08T13:01:59.000Z</time></trkpt>
<trkpt lat="42.095842" lon="23.575951"><ele>2518.1</ele><time>2026-03-08T13:02:00.000Z</time></trkpt>
<trkpt lat="42.095842" lon="23.575951"><ele>2518.1</ele><time>2026-03-08T13:02:01.000Z</time></trkpt>
<trkpt lat="42.095842" lon="23.575951"><ele>2517.7</ele><time>2026-03-08T13:02:02.000Z</time></trkpt>
<trkpt lat="42.095842" lon="23.575952"><ele>2517.7</ele><time>2026-03-08T13:02:03.000Z</time></trkpt>
<trkpt lat="42.095842" lon="23.575953"><ele>2517.7</ele><time>2026-03-08T13:02:04.000Z</time></trkpt>
<trkpt lat="42.095843" lon="23.575954"><ele>2517.7</ele><time>2026-03-08T13:02:05.000Z</time></trkpt>
<trkpt lat="42.095843" lon="23.575955"><ele>2517.7</ele><time>2026-03-08T13:02:06.000Z</time></trkpt>
<trkpt lat="42.095843" lon="23.575956"><ele>2517.5</ele><time>2026-03-08T13:02:07.000Z</time></trkpt>
<trkpt lat="42.095843" lon="23.575958"><ele>2517.5</ele><time>2026-03-08T13:02:08.000Z</time></trkpt>
<trkpt lat="42.095843" lon="23.57596"><ele>2517.5</ele><time>2026-03-08T13:02:09.000Z</time></trkpt>
<trkpt lat="42.095844" lon="23.575962"><ele>2517.5</ele><time>2026-03-08T13:02:10.000Z</time></trkpt>
<trkpt lat="42.095845" lon="23.575965"><ele>2517.5</ele><time>2026-03-08T13:02:11.000Z</time></trkpt>
<trkpt lat="42.095846" lon="23.575969"><ele>2517.4</ele><time>2026-03-08T13:02:12.000Z</time></trkpt>
<trkpt lat="42.095846" lon="23.575971"><ele>2517.4</ele><time>2026-03-08T13:02:13.000Z</time></trkpt>
<trkpt lat="42.095847" lon="23.575973"><ele>2517.4</ele><time>2026-03-08T13:02:14.000Z</time></trkpt>
<trkpt lat="42.095847" lon="23.575975"><ele>2517.4</ele><time>2026-03-08T13:02:15.000Z</time></trkpt>
<trkpt lat="42.095846" lon="23.575978"><ele>2517.4</ele><time>2026-03-08T13:02:16.000Z</time></trkpt>
<trkpt lat="42.095845" lon="23.57598"><ele>2517.3</ele><time>2026-03-08T13:02:17.000Z</time></trkpt>
<trkpt lat="42.095844" lon="23.575982"><ele>2517.3</ele><time>2026-03-08T13:02:18.000Z</time></trkpt>
<trkpt lat="42.095843" lon="23.575985"><ele>2517.3</ele><time>2026-03-08T13:02:19.000Z</time></trkpt>
<trkpt lat="42.095842" lon="23.575987"><ele>2517.3</ele><time>2026-03-08T13:02:20.000Z</time></trkpt>
<trkpt lat="42.095842" lon="23.575988"><ele>2517.3</ele><time>2026-03-08T13:02:21.000Z</time></trkpt>
<trkpt lat="42.095842" lon="23.575991"><ele>2517</ele><time>2026-03-08T13:02:22.000Z</time></trkpt>
<trkpt lat="42.095842" lon="23.575995"><ele>2517</ele><time>2026-03-08T13:02:23.000Z</time></trkpt>
<trkpt lat="42.095841" lon="23.575997"><ele>2517</ele><time>2026-03-08T13:02:24.000Z</time></trkpt>
<trkpt lat="42.095841" lon="23.575999"><ele>2517</ele><time>2026-03-08T13:02:25.000Z</time></trkpt>
<trkpt lat="42.095841" lon="23.576003"><ele>2517</ele><time>2026-03-08T13:02:26.000Z</time></trkpt>
<trkpt lat="42.09584" lon="23.576007"><ele>2516.7</ele><time>2026-03-08T13:02:27.000Z</time></trkpt>
<trkpt lat="42.09584" lon="23.576009"><ele>2516.7</ele><time>2026-03-08T13:02:28.000Z</time></trkpt>
<trkpt lat="42.09584" lon="23.576013"><ele>2516.7</ele><time>2026-03-08T13:02:29.000Z</time></trkpt>
<trkpt lat="42.09584" lon="23.576017"><ele>2516.7</ele><time>2026-03-08T13:02:30.000Z</time></trkpt>
<trkpt lat="42.09584" lon="23.57602"><ele>2516.7</ele><time>2026-03-08T13:02:31.000Z</time></trkpt>
<trkpt lat="42.095841" lon="23.576022"><ele>2516.1</ele><time>2026-03-08T13:02:32.000Z</time></trkpt>
<trkpt lat="42.095841" lon="23.576024"><ele>2516.1</ele><time>2026-03-08T13:02:33.000Z</time></trkpt>
<trkpt lat="42.095842" lon="23.576026"><ele>2516.1</ele><time>2026-03-08T13:02:34.000Z</time></trkpt>
<trkpt lat="42.095842" lon="23.576027"><ele>2516.1</ele><time>2026-03-08T13:02:35.000Z</time></trkpt>
<trkpt lat="42.095843" lon="23.576028"><ele>2516.1</ele><time>2026-03-08T13:02:36.000Z</time></trkpt>
<trkpt lat="42.095843" lon="23.57603"><ele>2515.5</ele><time>2026-03-08T13:02:37.000Z</time></trkpt>
<trkpt lat="42.095844" lon="23.576031"><ele>2515.5</ele><time>2026-03-08T13:02:38.000Z</time></trkpt>
<trkpt lat="42.095844" lon="23.576032"><ele>2515.5</ele><time>2026-03-08T13:02:39.000Z</time></trkpt>
<trkpt lat="42.095845" lon="23.576034"><ele>2515.5</ele><time>2026-03-08T13:02:40.000Z</time></trkpt>
<trkpt lat="42.095845" lon="23.576033"><ele>2515.5</ele><time>2026-03-08T13:02:41.000Z</time></trkpt>
<trkpt lat="42.095845" lon="23.576033"><ele>2515.2</ele><time>2026-03-08T13:02:42.000Z</time></trkpt>
<trkpt lat="42.095845" lon="23.576033"><ele>2515.2</ele><time>2026-03-08T13:02:43.000Z</time></trkpt>
<trkpt lat="42.095845" lon="23.576033"><ele>2515.2</ele><time>2026-03-08T13:02:44.000Z</time></trkpt>
<trkpt lat="42.095845" lon="23.576033"><ele>2515.2</ele><time>2026-03-08T13:02:45.000Z</time></trkpt>
<trkpt lat="42.095845" lon="23.576033"><ele>2515.2</ele><time>2026-03-08T13:02:46.000Z</time></trkpt>
<trkpt lat="42.095845" lon="23.576033"><ele>2514.7</ele><time>2026-03-08T13:02:47.000Z</time></trkpt>
<trkpt lat="42.095845" lon="23.576033"><ele>2514.7</ele><time>2026-03-08T13:02:48.000Z</time></trkpt>
<trkpt lat="42.095845" lon="23.576034"><ele>2514.7</ele><time>2026-03-08T13:02:49.000Z</time></trkpt>
<trkpt lat="42.095845" lon="23.576036"><ele>2514.7</ele><time>2026-03-08T13:02:50.000Z</time></trkpt>
<trkpt lat="42.095845" lon="23.576037"><ele>2514.7</ele><time>2026-03-08T13:02:51.000Z</time></trkpt>
<trkpt lat="42.095845" lon="23.576038"><ele>2514.2</ele><time>2026-03-08T13:02:52.000Z</time></trkpt>
<trkpt lat="42.095845" lon="23.576039"><ele>2514.2</ele><time>2026-03-08T13:02:53.000Z</time></trkpt>
<trkpt lat="42.095845" lon="23.57604"><ele>2514.2</ele><time>2026-03-08T13:02:54.000Z</time></trkpt>
<trkpt lat="42.095845" lon="23.57604"><ele>2514.2</ele><time>2026-03-08T13:02:55.000Z</time></trkpt>
<trkpt lat="42.095845" lon="23.57604"><ele>2514.2</ele><time>2026-03-08T13:02:56.000Z</time></trkpt>
<trkpt lat="42.095846" lon="23.576041"><ele>2514.1</ele><time>2026-03-08T13:02:57.000Z</time></trkpt>
<trkpt lat="42.095846" lon="23.576041"><ele>2514.1</ele><time>2026-03-08T13:02:58.000Z</time></trkpt>
<trkpt lat="42.095846" lon="23.576041"><ele>2514.1</ele><time>2026-03-08T13:02:59.000Z</time></trkpt>
<trkpt lat="42.095846" lon="23.57604"><ele>2514.1</ele><time>2026-03-08T13:03:00.000Z</time></trkpt>
<trkpt lat="42.095846" lon="23.57604"><ele>2514.1</ele><time>2026-03-08T13:03:01.000Z</time></trkpt>
<trkpt lat="42.095846" lon="23.576039"><ele>2513.9</ele><time>2026-03-08T13:03:02.000Z</time></trkpt>
<trkpt lat="42.095846" lon="23.576039"><ele>2513.9</ele><time>2026-03-08T13:03:03.000Z</time></trkpt>
<trkpt lat="42.095846" lon="23.576039"><ele>2513.9</ele><time>2026-03-08T13:03:04.000Z</time></trkpt>
<trkpt lat="42.095846" lon="23.57604"><ele>2513.9</ele><time>2026-03-08T13:03:05.000Z</time></trkpt>
<trkpt lat="42.095846" lon="23.576041"><ele>2513.9</ele><time>2026-03-08T13:03:06.000Z</time></trkpt>
<trkpt lat="42.095847" lon="23.576042"><ele>2513.6</ele><time>2026-03-08T13:03:07.000Z</time></trkpt>
<trkpt lat="42.095847" lon="23.576043"><ele>2513.6</ele><time>2026-03-08T13:03:08.000Z</time></trkpt>
<trkpt lat="42.095847" lon="23.576043"><ele>2513.6</ele><time>2026-03-08T13:03:09.000Z</time></trkpt>
<trkpt lat="42.095847" lon="23.576043"><ele>2513.6</ele><time>2026-03-08T13:03:10.000Z</time></trkpt>
<trkpt lat="42.095847" lon="23.576044"><ele>2513.6</ele><time>2026-03-08T13:03:11.000Z</time></trkpt>
<trkpt lat="42.095847" lon="23.576044"><ele>2513.4</ele><time>2026-03-08T13:03:12.000Z</time></trkpt>
<trkpt lat="42.095847" lon="23.576044"><ele>2513.4</ele><time>2026-03-08T13:03:13.000Z</time></trkpt>
<trkpt lat="42.095847" lon="23.576045"><ele>2513.4</ele><time>2026-03-08T13:03:14.000Z</time></trkpt>
<trkpt lat="42.095847" lon="23.576047"><ele>2513.4</ele><time>2026-03-08T13:03:15.000Z</time></trkpt>
<trkpt lat="42.095846" lon="23.576049"><ele>2513.4</ele><time>2026-03-08T13:03:16.000Z</time></trkpt>
<trkpt lat="42.095846" lon="23.576051"><ele>2513</ele><time>2026-03-08T13:03:17.000Z</time></trkpt>
<trkpt lat="42.095846" lon="23.576052"><ele>2513</ele><time>2026-03-08T13:03:18.000Z</time></trkpt>
<trkpt lat="42.095846" lon="23.576055"><ele>2513</ele><time>2026-03-08T13:03:19.000Z</time></trkpt>
<trkpt lat="42.095846" lon="23.576056"><ele>2513</ele><time>2026-03-08T13:03:20.000Z</time></trkpt>
<trkpt lat="42.095846" lon="23.576056"><ele>2513</ele><time>2026-03-08T13:03:21.000Z</time></trkpt>
<trkpt lat="42.095846" lon="23.576059"><ele>2512.5</ele><time>2026-03-08T13:03:22.000Z</time></trkpt>
<trkpt lat="42.095845" lon="23.576061"><ele>2512.5</ele><time>2026-03-08T13:03:23.000Z</time></trkpt>
<trkpt lat="42.095845" lon="23.576062"><ele>2512.5</ele><time>2026-03-08T13:03:24.000Z</time></trkpt>
<trkpt lat="42.095845" lon="23.576063"><ele>2512.5</ele><time>2026-03-08T13:03:25.000Z</time></trkpt>
<trkpt lat="42.095845" lon="23.576066"><ele>2512.5</ele><time>2026-03-08T13:03:26.000Z</time></trkpt>
<trkpt lat="42.095845" lon="23.576067"><ele>2512.3</ele><time>2026-03-08T13:03:27.000Z</time></trkpt>
<trkpt lat="42.095845" lon="23.576068"><ele>2512.3</ele><time>2026-03-08T13:03:28.000Z</time></trkpt>
<trkpt lat="42.095846" lon="23.576069"><ele>2512.3</ele><time>2026-03-08T13:03:29.000Z</time></trkpt>
<trkpt lat="42.095846" lon="23.57607"><ele>2512.3</ele><time>2026-03-08T13:03:30.000Z</time></trkpt>
<trkpt lat="42.095845" lon="23.576072"><ele>2512.3</ele><time>2026-03-08T13:03:31.000Z</time></trkpt>
<trkpt lat="42.095844" lon="23.576074"><ele>2511.8</ele><time>2026-03-08T13:03:32.000Z</time></trkpt>
<trkpt lat="42.095843" lon="23.576076"><ele>2511.8</ele><time>2026-03-08T13:03:33.000Z</time></trkpt>
<trkpt lat="42.095842" lon="23.57608"><ele>2511.8</ele><time>2026-03-08T13:03:34.000Z</time></trkpt>
<trkpt lat="42.095841" lon="23.576083"><ele>2511.8</ele><time>2026-03-08T13:03:35.000Z</time></trkpt>
<trkpt lat="42.095841" lon="23.576084"><ele>2511.8</ele><time>2026-03-08T13:03:36.000Z</time></trkpt>
<trkpt lat="42.095841" lon="23.576084"><ele>2511.3</ele><time>2026-03-08T13:03:37.000Z</time></trkpt>
<trkpt lat="42.095841" lon="23.576085"><ele>2511.3</ele><time>2026-03-08T13:03:38.000Z</time></trkpt>
<trkpt lat="42.095841" lon="23.576087"><ele>2511.3</ele><time>2026-03-08T13:03:39.000Z</time></trkpt>
<trkpt lat="42.095841" lon="23.576089"><ele>2511.3</ele><time>2026-03-08T13:03:40.000Z</time></trkpt>
<trkpt lat="42.09584" lon="23.576091"><ele>2511.3</ele><time>2026-03-08T13:03:41.000Z</time></trkpt>
<trkpt lat="42.09584" lon="23.576093"><ele>2511</ele><time>2026-03-08T13:03:42.000Z</time></trkpt>
<trkpt lat="42.09584" lon="23.576096"><ele>2511</ele><time>2026-03-08T13:03:43.000Z</time></trkpt>
<trkpt lat="42.09584" lon="23.576097"><ele>2511</ele><time>2026-03-08T13:03:44.000Z</time></trkpt>
<trkpt lat="42.095841" lon="23.576098"><ele>2511</ele><time>2026-03-08T13:03:45.000Z</time></trkpt>
<trkpt lat="42.095841" lon="23.5761"><ele>2511</ele><time>2026-03-08T13:03:46.000Z</time></trkpt>
<trkpt lat="42.095841" lon="23.576102"><ele>2510.4</ele><time>2026-03-08T13:03:47.000Z</time></trkpt>
<trkpt lat="42.095841" lon="23.576104"><ele>2510.4</ele><time>2026-03-08T13:03:48.000Z</time></trkpt>
<trkpt lat="42.095841" lon="23.576105"><ele>2510.4</ele><time>2026-03-08T13:03:49.000Z</time></trkpt>
<trkpt lat="42.095841" lon="23.576108"><ele>2510.4</ele><time>2026-03-08T13:03:50.000Z</time></trkpt>
<trkpt lat="42.095842" lon="23.57611"><ele>2510.4</ele><time>2026-03-08T13:03:51.000Z</time></trkpt>
<trkpt lat="42.095842" lon="23.576111"><ele>2509.9</ele><time>2026-03-08T13:03:52.000Z</time></trkpt>
<trkpt lat="42.095843" lon="23.576112"><ele>2509.9</ele><time>2026-03-08T13:03:53.000Z</time></trkpt>
<trkpt lat="42.095844" lon="23.576114"><ele>2509.9</ele><time>2026-03-08T13:03:54.000Z</time></trkpt>
<trkpt lat="42.095844" lon="23.576115"><ele>2509.9</ele><time>2026-03-08T13:03:55.000Z</time></trkpt>
<trkpt lat="42.095845" lon="23.576116"><ele>2509.9</ele><time>2026-03-08T13:03:56.000Z</time></trkpt>
<trkpt lat="42.095845" lon="23.576116"><ele>2509.6</ele><time>2026-03-08T13:03:57.000Z</time></trkpt>
<trkpt lat="42.095845" lon="23.576117"><ele>2509.6</ele><time>2026-03-08T13:03:58.000Z</time></trkpt>
<trkpt lat="42.095844" lon="23.576117"><ele>2509.6</ele><time>2026-03-08T13:03:59.000Z</time></trkpt>
<trkpt lat="42.095843" lon="23.576118"><ele>2509.6</ele><time>2026-03-08T13:04:00.000Z</time></trkpt>
<trkpt lat="42.095842" lon="23.576119"><ele>2509.6</ele><time>2026-03-08T13:04:01.000Z</time></trkpt>
<trkpt lat="42.095841" lon="23.576122"><ele>2509</ele><time>2026-03-08T13:04:02.000Z</time></trkpt>
<trkpt lat="42.09584" lon="23.576124"><ele>2509</ele><time>2026-03-08T13:04:03.000Z</time></trkpt>
<trkpt lat="42.095839" lon="23.576127"><ele>2509</ele><time>2026-03-08T13:04:04.000Z</time></trkpt>
<trkpt lat="42.095838" lon="23.576131"><ele>2509</ele><time>2026-03-08T13:04:05.000Z</time></trkpt>
<trkpt lat="42.095837" lon="23.576134"><ele>2509</ele><time>2026-03-08T13:04:06.000Z</time></trkpt>
<trkpt lat="42.095837" lon="23.576136"><ele>2508.4</ele><time>2026-03-08T13:04:07.000Z</time></trkpt>
<trkpt lat="42.095837" lon="23.576139"><ele>2508.4</ele><time>2026-03-08T13:04:08.000Z</time></trkpt>
<trkpt lat="42.095837" lon="23.576142"><ele>2508.4</ele><time>2026-03-08T13:04:09.000Z</time></trkpt>
<trkpt lat="42.095838" lon="23.576144"><ele>2508.4</ele><time>2026-03-08T13:04:10.000Z</time></trkpt>
<trkpt lat="42.095838" lon="23.576147"><ele>2508.4</ele><time>2026-03-08T13:04:11.000Z</time></trkpt>
<trkpt lat="42.095838" lon="23.576149"><ele>2508.1</ele><time>2026-03-08T13:04:12.000Z</time></trkpt>
<trkpt lat="42.095838" lon="23.576152"><ele>2508.1</ele><time>2026-03-08T13:04:13.000Z</time></trkpt>
<trkpt lat="42.095838" lon="23.576154"><ele>2508.1</ele><time>2026-03-08T13:04:14.000Z</time></trkpt>
<trkpt lat="42.095838" lon="23.576156"><ele>2508.1</ele><time>2026-03-08T13:04:15.000Z</time></trkpt>
<trkpt lat="42.095839" lon="23.576158"><ele>2508.1</ele><time>2026-03-08T13:04:16.000Z</time></trkpt>
<trkpt lat="42.095839" lon="23.57616"><ele>2507.7</ele><time>2026-03-08T13:04:17.000Z</time></trkpt>
<trkpt lat="42.095839" lon="23.576161"><ele>2507.7</ele><time>2026-03-08T13:04:18.000Z</time></trkpt>
<trkpt lat="42.095839" lon="23.576161"><ele>2507.7</ele><time>2026-03-08T13:04:19.000Z</time></trkpt>
<trkpt lat="42.095839" lon="23.576162"><ele>2507.7</ele><time>2026-03-08T13:04:20.000Z</time></trkpt>
<trkpt lat="42.095839" lon="23.576163"><ele>2507.7</ele><time>2026-03-08T13:04:21.000Z</time></trkpt>
<trkpt lat="42.095839" lon="23.576163"><ele>2507.1</ele><time>2026-03-08T13:04:22.000Z</time></trkpt>
<trkpt lat="42.095839" lon="23.576163"><ele>2507.1</ele><time>2026-03-08T13:04:23.000Z</time></trkpt>
<trkpt lat="42.095839" lon="23.576163"><ele>2507.1</ele><time>2026-03-08T13:04:24.000Z</time></trkpt>
<trkpt lat="42.095839" lon="23.576163"><ele>2507.1</ele><time>2026-03-08T13:04:25.000Z</time></trkpt>
<trkpt lat="42.095839" lon="23.576163"><ele>2507.1</ele><time>2026-03-08T13:04:26.000Z</time></trkpt>
<trkpt lat="42.09584" lon="23.576163"><ele>2506.8</ele><time>2026-03-08T13:04:27.000Z</time></trkpt>
<trkpt lat="42.09584" lon="23.576163"><ele>2506.8</ele><time>2026-03-08T13:04:28.000Z</time></trkpt>
<trkpt lat="42.095839" lon="23.576163"><ele>2506.8</ele><time>2026-03-08T13:04:29.000Z</time></trkpt>
<trkpt lat="42.095838" lon="23.576163"><ele>2506.8</ele><time>2026-03-08T13:04:30.000Z</time></trkpt>
<trkpt lat="42.095838" lon="23.576163"><ele>2506.8</ele><time>2026-03-08T13:04:31.000Z</time></trkpt>
<trkpt lat="42.095836" lon="23.576165"><ele>2506.3</ele><time>2026-03-08T13:04:32.000Z</time></trkpt>
<trkpt lat="42.095834" lon="23.576166"><ele>2506.3</ele><time>2026-03-08T13:04:33.000Z</time></trkpt>
<trkpt lat="42.095833" lon="23.576167"><ele>2506.3</ele><time>2026-03-08T13:04:34.000Z</time></trkpt>
<trkpt lat="42.095833" lon="23.576168"><ele>2506.3</ele><time>2026-03-08T13:04:35.000Z</time></trkpt>
<trkpt lat="42.095832" lon="23.576169"><ele>2506.3</ele><time>2026-03-08T13:04:36.000Z</time></trkpt>
<trkpt lat="42.095832" lon="23.576168"><ele>2506</ele><time>2026-03-08T13:04:37.000Z</time></trkpt>
<trkpt lat="42.095832" lon="23.576168"><ele>2506</ele><time>2026-03-08T13:04:38.000Z</time></trkpt>
<trkpt lat="42.095832" lon="23.576169"><ele>2506</ele><time>2026-03-08T13:04:39.000Z</time></trkpt>
<trkpt lat="42.095832" lon="23.576169"><ele>2506</ele><time>2026-03-08T13:04:40.000Z</time></trkpt>
<trkpt lat="42.095832" lon="23.576169"><ele>2506</ele><time>2026-03-08T13:04:41.000Z</time></trkpt>
<trkpt lat="42.095832" lon="23.57617"><ele>2505.8</ele><time>2026-03-08T13:04:42.000Z</time></trkpt>
<trkpt lat="42.095832" lon="23.57617"><ele>2505.8</ele><time>2026-03-08T13:04:43.000Z</time></trkpt>
<trkpt lat="42.095832" lon="23.576171"><ele>2505.8</ele><time>2026-03-08T13:04:44.000Z</time></trkpt>
<trkpt lat="42.095832" lon="23.576171"><ele>2505.8</ele><time>2026-03-08T13:04:45.000Z</time></trkpt>
<trkpt lat="42.095832" lon="23.576171"><ele>2505.8</ele><time>2026-03-08T13:04:46.000Z</time></trkpt>
<trkpt lat="42.095832" lon="23.576171"><ele>2505.6</ele><time>2026-03-08T13:04:47.000Z</time></trkpt>
<trkpt lat="42.095832" lon="23.576171"><ele>2505.6</ele><time>2026-03-08T13:04:48.000Z</time></trkpt>
<trkpt lat="42.095831" lon="23.576172"><ele>2505.6</ele><time>2026-03-08T13:04:49.000Z</time></trkpt>
<trkpt lat="42.095831" lon="23.576173"><ele>2505.6</ele><time>2026-03-08T13:04:50.000Z</time></trkpt>
<trkpt lat="42.09583" lon="23.576175"><ele>2505.6</ele><time>2026-03-08T13:04:51.000Z</time></trkpt>
<trkpt lat="42.095829" lon="23.576176"><ele>2505.4</ele><time>2026-03-08T13:04:52.000Z</time></trkpt>
<trkpt lat="42.095829" lon="23.576179"><ele>2505.4</ele><time>2026-03-08T13:04:53.000Z</time></trkpt>
<trkpt lat="42.095828" lon="23.576182"><ele>2505.4</ele><time>2026-03-08T13:04:54.000Z</time></trkpt>
<trkpt lat="42.095828" lon="23.576185"><ele>2505.4</ele><time>2026-03-08T13:04:55.000Z</time></trkpt>
<trkpt lat="42.095827" lon="23.576188"><ele>2505.4</ele><time>2026-03-08T13:04:56.000Z</time></trkpt>
<trkpt lat="42.095827" lon="23.57619"><ele>2505.3</ele><time>2026-03-08T13:04:57.000Z</time></trkpt>
<trkpt lat="42.095827" lon="23.576191"><ele>2505.3</ele><time>2026-03-08T13:04:58.000Z</time></trkpt>
<trkpt lat="42.095827" lon="23.576191"><ele>2505.3</ele><time>2026-03-08T13:04:59.000Z</time></trkpt>
<trkpt lat="42.095827" lon="23.576191"><ele>2505.3</ele><time>2026-03-08T13:05:00.000Z</time></trkpt>
<trkpt lat="42.095827" lon="23.576191"><ele>2505.3</ele><time>2026-03-08T13:05:01.000Z</time></trkpt>
<trkpt lat="42.095826" lon="23.576192"><ele>2505.1</ele><time>2026-03-08T13:05:02.000Z</time></trkpt>
<trkpt lat="42.095825" lon="23.576192"><ele>2505.1</ele><time>2026-03-08T13:05:03.000Z</time></trkpt>
<trkpt lat="42.095824" lon="23.576193"><ele>2505.1</ele><time>2026-03-08T13:05:04.000Z</time></trkpt>
<trkpt lat="42.095823" lon="23.576193"><ele>2505.1</ele><time>2026-03-08T13:05:05.000Z</time></trkpt>
<trkpt lat="42.095823" lon="23.576194"><ele>2505.1</ele><time>2026-03-08T13:05:06.000Z</time></trkpt>
<trkpt lat="42.095822" lon="23.576195"><ele>2504.7</ele><time>2026-03-08T13:05:07.000Z</time></trkpt>
<trkpt lat="42.095822" lon="23.576195"><ele>2504.7</ele><time>2026-03-08T13:05:08.000Z</time></trkpt>
<trkpt lat="42.095821" lon="23.576197"><ele>2504.7</ele><time>2026-03-08T13:05:09.000Z</time></trkpt>
<trkpt lat="42.09582" lon="23.576199"><ele>2504.7</ele><time>2026-03-08T13:05:10.000Z</time></trkpt>
<trkpt lat="42.095819" lon="23.576202"><ele>2504.7</ele><time>2026-03-08T13:05:11.000Z</time></trkpt>
<trkpt lat="42.095819" lon="23.576204"><ele>2504.5</ele><time>2026-03-08T13:05:12.000Z</time></trkpt>
<trkpt lat="42.095819" lon="23.576206"><ele>2504.5</ele><time>2026-03-08T13:05:13.000Z</time></trkpt>
<trkpt lat="42.095819" lon="23.576207"><ele>2504.5</ele><time>2026-03-08T13:05:14.000Z</time></trkpt>
<trkpt lat="42.095819" lon="23.576207"><ele>2504.5</ele><time>2026-03-08T13:05:15.000Z</time></trkpt>
<trkpt lat="42.095819" lon="23.576206"><ele>2504.5</ele><time>2026-03-08T13:05:16.000Z</time></trkpt>
<trkpt lat="42.095819" lon="23.576206"><ele>2504.1</ele><time>2026-03-08T13:05:17.000Z</time></trkpt>
<trkpt lat="42.09582" lon="23.576206"><ele>2504.1</ele><time>2026-03-08T13:05:18.000Z</time></trkpt>
<trkpt lat="42.09582" lon="23.576207"><ele>2504.1</ele><time>2026-03-08T13:05:19.000Z</time></trkpt>
<trkpt lat="42.09582" lon="23.576207"><ele>2504.1</ele><time>2026-03-08T13:05:20.000Z</time></trkpt>
<trkpt lat="42.095819" lon="23.576208"><ele>2504.1</ele><time>2026-03-08T13:05:21.000Z</time></trkpt>
<trkpt lat="42.095818" lon="23.576209"><ele>2503.9</ele><time>2026-03-08T13:05:22.000Z</time></trkpt>
<trkpt lat="42.095818" lon="23.57621"><ele>2503.9</ele><time>2026-03-08T13:05:23.000Z</time></trkpt>
<trkpt lat="42.095817" lon="23.57621"><ele>2503.9</ele><time>2026-03-08T13:05:24.000Z</time></trkpt>
<trkpt lat="42.095816" lon="23.57621"><ele>2503.9</ele><time>2026-03-08T13:05:25.000Z</time></trkpt>
<trkpt lat="42.095815" lon="23.576211"><ele>2503.9</ele><time>2026-03-08T13:05:26.000Z</time></trkpt>
<trkpt lat="42.095815" lon="23.576212"><ele>2503.9</ele><time>2026-03-08T13:05:27.000Z</time></trkpt>
<trkpt lat="42.095814" lon="23.576212"><ele>2503.9</ele><time>2026-03-08T13:05:28.000Z</time></trkpt>
<trkpt lat="42.095814" lon="23.576212"><ele>2503.9</ele><time>2026-03-08T13:05:29.000Z</time></trkpt>
<trkpt lat="42.095814" lon="23.576211"><ele>2503.9</ele><time>2026-03-08T13:05:30.000Z</time></trkpt>
<trkpt lat="42.095814" lon="23.57621"><ele>2503.9</ele><time>2026-03-08T13:05:31.000Z</time></trkpt>
<trkpt lat="42.095814" lon="23.576209"><ele>2503.9</ele><time>2026-03-08T13:05:32.000Z</time></trkpt>
<trkpt lat="42.095813" lon="23.576209"><ele>2503.9</ele><time>2026-03-08T13:05:33.000Z</time></trkpt>
<trkpt lat="42.095813" lon="23.576209"><ele>2503.9</ele><time>2026-03-08T13:05:34.000Z</time></trkpt>
<trkpt lat="42.095812" lon="23.576209"><ele>2503.9</ele><time>2026-03-08T13:05:35.000Z</time></trkpt>
<trkpt lat="42.095811" lon="23.57621"><ele>2503.9</ele><time>2026-03-08T13:05:36.000Z</time></trkpt>
<trkpt lat="42.095811" lon="23.57621"><ele>2503.9</ele><time>2026-03-08T13:05:37.000Z</time></trkpt>
<trkpt lat="42.09581" lon="23.576211"><ele>2503.9</ele><time>2026-03-08T13:05:38.000Z</time></trkpt>
<trkpt lat="42.095809" lon="23.576211"><ele>2503.9</ele><time>2026-03-08T13:05:39.000Z</time></trkpt>
<trkpt lat="42.095809" lon="23.576211"><ele>2503.9</ele><time>2026-03-08T13:05:40.000Z</time></trkpt>
<trkpt lat="42.095808" lon="23.576211"><ele>2503.9</ele><time>2026-03-08T13:05:41.000Z</time></trkpt>
<trkpt lat="42.095807" lon="23.57621"><ele>2503.9</ele><time>2026-03-08T13:05:42.000Z</time></trkpt>
<trkpt lat="42.095807" lon="23.576209"><ele>2503.9</ele><time>2026-03-08T13:05:43.000Z</time></trkpt>
<trkpt lat="42.095806" lon="23.576209"><ele>2503.9</ele><time>2026-03-08T13:05:44.000Z</time></trkpt>
<trkpt lat="42.095806" lon="23.576209"><ele>2503.9</ele><time>2026-03-08T13:05:45.000Z</time></trkpt>
<trkpt lat="42.095806" lon="23.576209"><ele>2503.9</ele><time>2026-03-08T13:05:46.000Z</time></trkpt>
<trkpt lat="42.095805" lon="23.57621"><ele>2504</ele><time>2026-03-08T13:05:47.000Z</time></trkpt>
<trkpt lat="42.095805" lon="23.57621"><ele>2504</ele><time>2026-03-08T13:05:48.000Z</time></trkpt>
<trkpt lat="42.095805" lon="23.57621"><ele>2504</ele><time>2026-03-08T13:05:49.000Z</time></trkpt>
<trkpt lat="42.095805" lon="23.57621"><ele>2504</ele><time>2026-03-08T13:05:50.000Z</time></trkpt>
<trkpt lat="42.095805" lon="23.57621"><ele>2504</ele><time>2026-03-08T13:05:51.000Z</time></trkpt>
<trkpt lat="42.095804" lon="23.57621"><ele>2504.1</ele><time>2026-03-08T13:05:52.000Z</time></trkpt>
<trkpt lat="42.095804" lon="23.576209"><ele>2504.1</ele><time>2026-03-08T13:05:53.000Z</time></trkpt>
<trkpt lat="42.095804" lon="23.576208"><ele>2504.1</ele><time>2026-03-08T13:05:54.000Z</time></trkpt>
<trkpt lat="42.095803" lon="23.576208"><ele>2504.1</ele><time>2026-03-08T13:05:55.000Z</time></trkpt>
<trkpt lat="42.095802" lon="23.576208"><ele>2504.1</ele><time>2026-03-08T13:05:56.000Z</time></trkpt>
<trkpt lat="42.095801" lon="23.576208"><ele>2504.1</ele><time>2026-03-08T13:05:57.000Z</time></trkpt>
<trkpt lat="42.095799" lon="23.576209"><ele>2504.1</ele><time>2026-03-08T13:05:58.000Z</time></trkpt>
<trkpt lat="42.095797" lon="23.576211"><ele>2504.1</ele><time>2026-03-08T13:05:59.000Z</time></trkpt>
<trkpt lat="42.095795" lon="23.576214"><ele>2504.1</ele><time>2026-03-08T13:06:00.000Z</time></trkpt>
<trkpt lat="42.095793" lon="23.576218"><ele>2504.1</ele><time>2026-03-08T13:06:01.000Z</time></trkpt>
<trkpt lat="42.095791" lon="23.576222"><ele>2503.9</ele><time>2026-03-08T13:06:02.000Z</time></trkpt>
<trkpt lat="42.09579" lon="23.576226"><ele>2503.9</ele><time>2026-03-08T13:06:03.000Z</time></trkpt>
<trkpt lat="42.095788" lon="23.57623"><ele>2503.9</ele><time>2026-03-08T13:06:04.000Z</time></trkpt>
<trkpt lat="42.095787" lon="23.576233"><ele>2503.9</ele><time>2026-03-08T13:06:05.000Z</time></trkpt>
<trkpt lat="42.095787" lon="23.576236"><ele>2503.9</ele><time>2026-03-08T13:06:06.000Z</time></trkpt>
<trkpt lat="42.095787" lon="23.57624"><ele>2503.7</ele><time>2026-03-08T13:06:07.000Z</time></trkpt>
<trkpt lat="42.095787" lon="23.576243"><ele>2503.7</ele><time>2026-03-08T13:06:08.000Z</time></trkpt>
<trkpt lat="42.095787" lon="23.576246"><ele>2503.7</ele><time>2026-03-08T13:06:09.000Z</time></trkpt>
<trkpt lat="42.095787" lon="23.576248"><ele>2503.7</ele><time>2026-03-08T13:06:10.000Z</time></trkpt>
<trkpt lat="42.095788" lon="23.576249"><ele>2503.7</ele><time>2026-03-08T13:06:11.000Z</time></trkpt>
<trkpt lat="42.095788" lon="23.576249"><ele>2503.5</ele><time>2026-03-08T13:06:12.000Z</time></trkpt>
<trkpt lat="42.095789" lon="23.576249"><ele>2503.5</ele><time>2026-03-08T13:06:13.000Z</time></trkpt>
<trkpt lat="42.09579" lon="23.576248"><ele>2503.5</ele><time>2026-03-08T13:06:14.000Z</time></trkpt>
<trkpt lat="42.09579" lon="23.576247"><ele>2503.5</ele><time>2026-03-08T13:06:15.000Z</time></trkpt>
<trkpt lat="42.095791" lon="23.576247"><ele>2503.5</ele><time>2026-03-08T13:06:16.000Z</time></trkpt>
<trkpt lat="42.09579" lon="23.576248"><ele>2503.1</ele><time>2026-03-08T13:06:17.000Z</time></trkpt>
<trkpt lat="42.09579" lon="23.576248"><ele>2503.1</ele><time>2026-03-08T13:06:18.000Z</time></trkpt>
<trkpt lat="42.09579" lon="23.576248"><ele>2503.1</ele><time>2026-03-08T13:06:19.000Z</time></trkpt>
<trkpt lat="42.095789" lon="23.576249"><ele>2503.1</ele><time>2026-03-08T13:06:20.000Z</time></trkpt>
<trkpt lat="42.095789" lon="23.57625"><ele>2503.1</ele><time>2026-03-08T13:06:21.000Z</time></trkpt>
<trkpt lat="42.095789" lon="23.576251"><ele>2502.7</ele><time>2026-03-08T13:06:22.000Z</time></trkpt>
<trkpt lat="42.095788" lon="23.576251"><ele>2502.7</ele><time>2026-03-08T13:06:23.000Z</time></trkpt>
<trkpt lat="42.095788" lon="23.576253"><ele>2502.7</ele><time>2026-03-08T13:06:24.000Z</time></trkpt>
<trkpt lat="42.095789" lon="23.576254"><ele>2502.7</ele><time>2026-03-08T13:06:25.000Z</time></trkpt>
<trkpt lat="42.095789" lon="23.576254"><ele>2502.7</ele><time>2026-03-08T13:06:26.000Z</time></trkpt>
<trkpt lat="42.09579" lon="23.576255"><ele>2502.4</ele><time>2026-03-08T13:06:27.000Z</time></trkpt>
<trkpt lat="42.09579" lon="23.576255"><ele>2502.4</ele><time>2026-03-08T13:06:28.000Z</time></trkpt>
<trkpt lat="42.09579" lon="23.576255"><ele>2502.4</ele><time>2026-03-08T13:06:29.000Z</time></trkpt>
<trkpt lat="42.09579" lon="23.576256"><ele>2502.4</ele><time>2026-03-08T13:06:30.000Z</time></trkpt>
<trkpt lat="42.09579" lon="23.576256"><ele>2502.4</ele><time>2026-03-08T13:06:31.000Z</time></trkpt>
<trkpt lat="42.09579" lon="23.576256"><ele>2501.9</ele><time>2026-03-08T13:06:32.000Z</time></trkpt>
<trkpt lat="42.09579" lon="23.576256"><ele>2501.9</ele><time>2026-03-08T13:06:33.000Z</time></trkpt>
<trkpt lat="42.09579" lon="23.576257"><ele>2501.9</ele><time>2026-03-08T13:06:34.000Z</time></trkpt>
<trkpt lat="42.095791" lon="23.576257"><ele>2501.9</ele><time>2026-03-08T13:06:35.000Z</time></trkpt>
<trkpt lat="42.095791" lon="23.576258"><ele>2501.9</ele><time>2026-03-08T13:06:36.000Z</time></trkpt>
<trkpt lat="42.095791" lon="23.576259"><ele>2501.3</ele><time>2026-03-08T13:06:37.000Z</time></trkpt>
<trkpt lat="42.095792" lon="23.576261"><ele>2501.3</ele><time>2026-03-08T13:06:38.000Z</time></trkpt>
<trkpt lat="42.095792" lon="23.576262"><ele>2501.3</ele><time>2026-03-08T13:06:39.000Z</time></trkpt>
<trkpt lat="42.095792" lon="23.576264"><ele>2501.3</ele><time>2026-03-08T13:06:40.000Z</time></trkpt>
<trkpt lat="42.095793" lon="23.576267"><ele>2501.3</ele><time>2026-03-08T13:06:41.000Z</time></trkpt>
<trkpt lat="42.095794" lon="23.576268"><ele>2501</ele><time>2026-03-08T13:06:42.000Z</time></trkpt>
<trkpt lat="42.095794" lon="23.576269"><ele>2501</ele><time>2026-03-08T13:06:43.000Z</time></trkpt>
<trkpt lat="42.095795" lon="23.576272"><ele>2501</ele><time>2026-03-08T13:06:44.000Z</time></trkpt>
<trkpt lat="42.095796" lon="23.576274"><ele>2501</ele><time>2026-03-08T13:06:45.000Z</time></trkpt>
<trkpt lat="42.095796" lon="23.576276"><ele>2501</ele><time>2026-03-08T13:06:46.000Z</time></trkpt>
<trkpt lat="42.095797" lon="23.576278"><ele>2500.1</ele><time>2026-03-08T13:06:47.000Z</time></trkpt>
<trkpt lat="42.095798" lon="23.576281"><ele>2500.1</ele><time>2026-03-08T13:06:48.000Z</time></trkpt>
<trkpt lat="42.095798" lon="23.576283"><ele>2500.1</ele><time>2026-03-08T13:06:49.000Z</time></trkpt>
<trkpt lat="42.095798" lon="23.576286"><ele>2500.1</ele><time>2026-03-08T13:06:50.000Z</time></trkpt>
<trkpt lat="42.095798" lon="23.576289"><ele>2500.1</ele><time>2026-03-08T13:06:51.000Z</time></trkpt>
<trkpt lat="42.095798" lon="23.576292"><ele>2499.2</ele><time>2026-03-08T13:06:52.000Z</time></trkpt>
<trkpt lat="42.095797" lon="23.576294"><ele>2499.2</ele><time>2026-03-08T13:06:53.000Z</time></trkpt>
<trkpt lat="42.095796" lon="23.576297"><ele>2499.2</ele><time>2026-03-08T13:06:54.000Z</time></trkpt>
<trkpt lat="42.095795" lon="23.576298"><ele>2499.2</ele><time>2026-03-08T13:06:55.000Z</time></trkpt>
<trkpt lat="42.095794" lon="23.576299"><ele>2499.2</ele><time>2026-03-08T13:06:56.000Z</time></trkpt>
<trkpt lat="42.095794" lon="23.576301"><ele>2498.8</ele><time>2026-03-08T13:06:57.000Z</time></trkpt>
<trkpt lat="42.095793" lon="23.576302"><ele>2498.8</ele><time>2026-03-08T13:06:58.000Z</time></trkpt>
<trkpt lat="42.095792" lon="23.576303"><ele>2498.8</ele><time>2026-03-08T13:06:59.000Z</time></trkpt>
<trkpt lat="42.095791" lon="23.576305"><ele>2498.8</ele><time>2026-03-08T13:07:00.000Z</time></trkpt>
<trkpt lat="42.095788" lon="23.576306"><ele>2498.8</ele><time>2026-03-08T13:07:01.000Z</time></trkpt>
<trkpt lat="42.095786" lon="23.576308"><ele>2498.2</ele><time>2026-03-08T13:07:02.000Z</time></trkpt>
<trkpt lat="42.095782" lon="23.57631"><ele>2498.2</ele><time>2026-03-08T13:07:03.000Z</time></trkpt>
<trkpt lat="42.095777" lon="23.576313"><ele>2498.2</ele><time>2026-03-08T13:07:04.000Z</time></trkpt>
<trkpt lat="42.095772" lon="23.576316"><ele>2498.2</ele><time>2026-03-08T13:07:05.000Z</time></trkpt>
<trkpt lat="42.095766" lon="23.576316"><ele>2498.2</ele><time>2026-03-08T13:07:06.000Z</time></trkpt>
<trkpt lat="42.095762" lon="23.576317"><ele>2497.8</ele><time>2026-03-08T13:07:07.000Z</time></trkpt>
<trkpt lat="42.095758" lon="23.576316"><ele>2497.8</ele><time>2026-03-08T13:07:08.000Z</time></trkpt>
<trkpt lat="42.095754" lon="23.576314"><ele>2497.8</ele><time>2026-03-08T13:07:09.000Z</time></trkpt>
<trkpt lat="42.095751" lon="23.576313"><ele>2497.8</ele><time>2026-03-08T13:07:10.000Z</time></trkpt>
<trkpt lat="42.095747" lon="23.576313"><ele>2497.8</ele><time>2026-03-08T13:07:11.000Z</time></trkpt>
<trkpt lat="42.095743" lon="23.576313"><ele>2497.5</ele><time>2026-03-08T13:07:12.000Z</time></trkpt>
<trkpt lat="42.095738" lon="23.576314"><ele>2497.5</ele><time>2026-03-08T13:07:13.000Z</time></trkpt>
<trkpt lat="42.095733" lon="23.576315"><ele>2497.5</ele><time>2026-03-08T13:07:14.000Z</time></trkpt>
<trkpt lat="42.095729" lon="23.576316"><ele>2497.5</ele><time>2026-03-08T13:07:15.000Z</time></trkpt>
<trkpt lat="42.095725" lon="23.576318"><ele>2497.5</ele><time>2026-03-08T13:07:16.000Z</time></trkpt>
<trkpt lat="42.09572" lon="23.576319"><ele>2497.1</ele><time>2026-03-08T13:07:17.000Z</time></trkpt>
<trkpt lat="42.095715" lon="23.576321"><ele>2497.1</ele><time>2026-03-08T13:07:18.000Z</time></trkpt>
<trkpt lat="42.095711" lon="23.576323"><ele>2497.1</ele><time>2026-03-08T13:07:19.000Z</time></trkpt>
<trkpt lat="42.095708" lon="23.576324"><ele>2497.1</ele><time>2026-03-08T13:07:20.000Z</time></trkpt>
<trkpt lat="42.095705" lon="23.576326"><ele>2497.1</ele><time>2026-03-08T13:07:21.000Z</time></trkpt>
<trkpt lat="42.095704" lon="23.576328"><ele>2496.5</ele><time>2026-03-08T13:07:22.000Z</time></trkpt>
<trkpt lat="42.095704" lon="23.57633"><ele>2496.5</ele><time>2026-03-08T13:07:23.000Z</time></trkpt>
<trkpt lat="42.095705" lon="23.576332"><ele>2496.5</ele><time>2026-03-08T13:07:24.000Z</time></trkpt>
<trkpt lat="42.095706" lon="23.576336"><ele>2496.5</ele><time>2026-03-08T13:07:25.000Z</time></trkpt>
<trkpt lat="42.095707" lon="23.576339"><ele>2496.5</ele><time>2026-03-08T13:07:26.000Z</time></trkpt>
<trkpt lat="42.095708" lon="23.576344"><ele>2496.1</ele><time>2026-03-08T13:07:27.000Z</time></trkpt>
<trkpt lat="42.095709" lon="23.576351"><ele>2496.1</ele><time>2026-03-08T13:07:28.000Z</time></trkpt>
<trkpt lat="42.09571" lon="23.576357"><ele>2496.1</ele><time>2026-03-08T13:07:29.000Z</time></trkpt>
<trkpt lat="42.095711" lon="23.576363"><ele>2496.1</ele><time>2026-03-08T13:07:30.000Z</time></trkpt>
<trkpt lat="42.095713" lon="23.576369"><ele>2496.1</ele><time>2026-03-08T13:07:31.000Z</time></trkpt>
<trkpt lat="42.095716" lon="23.576375"><ele>2494.9</ele><time>2026-03-08T13:07:32.000Z</time></trkpt>
<trkpt lat="42.095719" lon="23.57638"><ele>2494.9</ele><time>2026-03-08T13:07:33.000Z</time></trkpt>
<trkpt lat="42.095722" lon="23.576386"><ele>2494.9</ele><time>2026-03-08T13:07:34.000Z</time></trkpt>
<trkpt lat="42.095725" lon="23.576392"><ele>2494.9</ele><time>2026-03-08T13:07:35.000Z</time></trkpt>
<trkpt lat="42.095728" lon="23.576399"><ele>2494.9</ele><time>2026-03-08T13:07:36.000Z</time></trkpt>
<trkpt lat="42.095732" lon="23.576406"><ele>2493.7</ele><time>2026-03-08T13:07:37.000Z</time></trkpt>
<trkpt lat="42.095735" lon="23.576414"><ele>2493.7</ele><time>2026-03-08T13:07:38.000Z</time></trkpt>
<trkpt lat="42.095738" lon="23.576423"><ele>2493.7</ele><time>2026-03-08T13:07:39.000Z</time></trkpt>
<trkpt lat="42.09574" lon="23.576433"><ele>2493.7</ele><time>2026-03-08T13:07:40.000Z</time></trkpt>
<trkpt lat="42.095741" lon="23.576441"><ele>2493.7</ele><time>2026-03-08T13:07:41.000Z</time></trkpt>
<trkpt lat="42.095741" lon="23.576449"><ele>2493.1</ele><time>2026-03-08T13:07:42.000Z</time></trkpt>
<trkpt lat="42.095741" lon="23.576457"><ele>2493.1</ele><time>2026-03-08T13:07:43.000Z</time></trkpt>
<trkpt lat="42.095741" lon="23.576463"><ele>2493.1</ele><time>2026-03-08T13:07:44.000Z</time></trkpt>
<trkpt lat="42.09574" lon="23.576469"><ele>2493.1</ele><time>2026-03-08T13:07:45.000Z</time></trkpt>
<trkpt lat="42.095738" lon="23.576475"><ele>2493.1</ele><time>2026-03-08T13:07:46.000Z</time></trkpt>
<trkpt lat="42.095734" lon="23.576481"><ele>2492</ele><time>2026-03-08T13:07:47.000Z</time></trkpt>
<trkpt lat="42.09573" lon="23.576485"><ele>2492</ele><time>2026-03-08T13:07:48.000Z</time></trkpt>
<trkpt lat="42.095727" lon="23.576489"><ele>2492</ele><time>2026-03-08T13:07:49.000Z</time></trkpt>
<trkpt lat="42.095723" lon="23.576492"><ele>2492</ele><time>2026-03-08T13:07:50.000Z</time></trkpt>
<trkpt lat="42.09572" lon="23.576496"><ele>2492</ele><time>2026-03-08T13:07:51.000Z</time></trkpt>
<trkpt lat="42.095719" lon="23.576501"><ele>2490.8</ele><time>2026-03-08T13:07:52.000Z</time></trkpt>
<trkpt lat="42.095718" lon="23.576507"><ele>2490.8</ele><time>2026-03-08T13:07:53.000Z</time></trkpt>
<trkpt lat="42.095717" lon="23.576515"><ele>2490.8</ele><time>2026-03-08T13:07:54.000Z</time></trkpt>
<trkpt lat="42.095717" lon="23.576524"><ele>2490.8</ele><time>2026-03-08T13:07:55.000Z</time></trkpt>
<trkpt lat="42.095717" lon="23.576533"><ele>2490.8</ele><time>2026-03-08T13:07:56.000Z</time></trkpt>
<trkpt lat="42.095716" lon="23.576541"><ele>2490.2</ele><time>2026-03-08T13:07:57.000Z</time></trkpt>
<trkpt lat="42.095716" lon="23.576549"><ele>2490.2</ele><time>2026-03-08T13:07:58.000Z</time></trkpt>
<trkpt lat="42.095715" lon="23.576555"><ele>2490.2</ele><time>2026-03-08T13:07:59.000Z</time></trkpt>
<trkpt lat="42.095713" lon="23.576562"><ele>2490.2</ele><time>2026-03-08T13:08:00.000Z</time></trkpt>
<trkpt lat="42.095712" lon="23.576568"><ele>2490.2</ele><time>2026-03-08T13:08:01.000Z</time></trkpt>
<trkpt lat="42.095711" lon="23.576575"><ele>2488.9</ele><time>2026-03-08T13:08:02.000Z</time></trkpt>
<trkpt lat="42.095709" lon="23.576582"><ele>2488.9</ele><time>2026-03-08T13:08:03.000Z</time></trkpt>
<trkpt lat="42.095708" lon="23.576592"><ele>2488.9</ele><time>2026-03-08T13:08:04.000Z</time></trkpt>
<trkpt lat="42.095706" lon="23.576602"><ele>2488.9</ele><time>2026-03-08T13:08:05.000Z</time></trkpt>
<trkpt lat="42.095704" lon="23.576612"><ele>2488.9</ele><time>2026-03-08T13:08:06.000Z</time></trkpt>
<trkpt lat="42.095701" lon="23.576623"><ele>2487.6</ele><time>2026-03-08T13:08:07.000Z</time></trkpt>
<trkpt lat="42.095697" lon="23.576633"><ele>2487.6</ele><time>2026-03-08T13:08:08.000Z</time></trkpt>
<trkpt lat="42.095692" lon="23.576643"><ele>2487.6</ele><time>2026-03-08T13:08:09.000Z</time></trkpt>
<trkpt lat="42.095686" lon="23.576652"><ele>2487.6</ele><time>2026-03-08T13:08:10.000Z</time></trkpt>
<trkpt lat="42.095681" lon="23.576662"><ele>2487.6</ele><time>2026-03-08T13:08:11.000Z</time></trkpt>
<trkpt lat="42.095674" lon="23.576671"><ele>2487</ele><time>2026-03-08T13:08:12.000Z</time></trkpt>
<trkpt lat="42.095667" lon="23.576679"><ele>2487</ele><time>2026-03-08T13:08:13.000Z</time></trkpt>
<trkpt lat="42.09566" lon="23.576688"><ele>2487</ele><time>2026-03-08T13:08:14.000Z</time></trkpt>
<trkpt lat="42.095653" lon="23.576695"><ele>2487</ele><time>2026-03-08T13:08:15.000Z</time></trkpt>
<trkpt lat="42.095645" lon="23.576703"><ele>2487</ele><time>2026-03-08T13:08:16.000Z</time></trkpt>
<trkpt lat="42.095636" lon="23.57671"><ele>2485.6</ele><time>2026-03-08T13:08:17.000Z</time></trkpt>
<trkpt lat="42.095628" lon="23.576717"><ele>2485.6</ele><time>2026-03-08T13:08:18.000Z</time></trkpt>
<trkpt lat="42.095618" lon="23.576723"><ele>2485.6</ele><time>2026-03-08T13:08:19.000Z</time></trkpt>
<trkpt lat="42.09561" lon="23.576729"><ele>2485.6</ele><time>2026-03-08T13:08:20.000Z</time></trkpt>
<trkpt lat="42.095602" lon="23.576734"><ele>2485.6</ele><time>2026-03-08T13:08:21.000Z</time></trkpt>
<trkpt lat="42.095596" lon="23.576739"><ele>2484.2</ele><time>2026-03-08T13:08:22.000Z</time></trkpt>
<trkpt lat="42.095592" lon="23.576744"><ele>2484.2</ele><time>2026-03-08T13:08:23.000Z</time></trkpt>
<trkpt lat="42.09559" lon="23.576749"><ele>2484.2</ele><time>2026-03-08T13:08:24.000Z</time></trkpt>
<trkpt lat="42.095587" lon="23.576754"><ele>2484.2</ele><time>2026-03-08T13:08:25.000Z</time></trkpt>
<trkpt lat="42.095585" lon="23.57676"><ele>2484.2</ele><time>2026-03-08T13:08:26.000Z</time></trkpt>
<trkpt lat="42.095583" lon="23.576767"><ele>2483.5</ele><time>2026-03-08T13:08:27.000Z</time></trkpt>
<trkpt lat="42.095581" lon="23.576775"><ele>2483.5</ele><time>2026-03-08T13:08:28.000Z</time></trkpt>
<trkpt lat="42.095577" lon="23.576784"><ele>2483.5</ele><time>2026-03-08T13:08:29.000Z</time></trkpt>
<trkpt lat="42.095573" lon="23.576791"><ele>2483.5</ele><time>2026-03-08T13:08:30.000Z</time></trkpt>
<trkpt lat="42.095567" lon="23.576797"><ele>2483.5</ele><time>2026-03-08T13:08:31.000Z</time></trkpt>
<trkpt lat="42.09556" lon="23.576802"><ele>2482.1</ele><time>2026-03-08T13:08:32.000Z</time></trkpt>
<trkpt lat="42.095553" lon="23.576807"><ele>2482.1</ele><time>2026-03-08T13:08:33.000Z</time></trkpt>
<trkpt lat="42.095545" lon="23.576813"><ele>2482.1</ele><time>2026-03-08T13:08:34.000Z</time></trkpt>
<trkpt lat="42.095537" lon="23.576819"><ele>2482.1</ele><time>2026-03-08T13:08:35.000Z</time></trkpt>
<trkpt lat="42.095529" lon="23.576825"><ele>2482.1</ele><time>2026-03-08T13:08:36.000Z</time></trkpt>
<trkpt lat="42.095523" lon="23.576831"><ele>2480.9</ele><time>2026-03-08T13:08:37.000Z</time></trkpt>
<trkpt lat="42.095517" lon="23.576837"><ele>2480.9</ele><time>2026-03-08T13:08:38.000Z</time></trkpt>
<trkpt lat="42.095512" lon="23.576841"><ele>2480.9</ele><time>2026-03-08T13:08:39.000Z</time></trkpt>
<trkpt lat="42.095509" lon="23.576844"><ele>2480.9</ele><time>2026-03-08T13:08:40.000Z</time></trkpt>
<trkpt lat="42.095508" lon="23.576848"><ele>2480.9</ele><time>2026-03-08T13:08:41.000Z</time></trkpt>
<trkpt lat="42.095507" lon="23.576849"><ele>2480.2</ele><time>2026-03-08T13:08:42.000Z</time></trkpt>
<trkpt lat="42.095507" lon="23.576848"><ele>2480.2</ele><time>2026-03-08T13:08:43.000Z</time></trkpt>
<trkpt lat="42.095507" lon="23.576846"><ele>2480.2</ele><time>2026-03-08T13:08:44.000Z</time></trkpt>
<trkpt lat="42.095508" lon="23.576844"><ele>2480.2</ele><time>2026-03-08T13:08:45.000Z</time></trkpt>
<trkpt lat="42.095508" lon="23.576841"><ele>2480.2</ele><time>2026-03-08T13:08:46.000Z</time></trkpt>
<trkpt lat="42.095509" lon="23.576839"><ele>2478.8</ele><time>2026-03-08T13:08:47.000Z</time></trkpt>
<trkpt lat="42.09551" lon="23.576837"><ele>2478.8</ele><time>2026-03-08T13:08:48.000Z</time></trkpt>
<trkpt lat="42.09551" lon="23.576835"><ele>2478.8</ele><time>2026-03-08T13:08:49.000Z</time></trkpt>
<trkpt lat="42.09551" lon="23.576836"><ele>2478.8</ele><time>2026-03-08T13:08:50.000Z</time></trkpt>
<trkpt lat="42.09551" lon="23.576838"><ele>2478.8</ele><time>2026-03-08T13:08:51.000Z</time></trkpt>
<trkpt lat="42.09551" lon="23.576843"><ele>2477.7</ele><time>2026-03-08T13:08:52.000Z</time></trkpt>
<trkpt lat="42.095511" lon="23.576849"><ele>2477.7</ele><time>2026-03-08T13:08:53.000Z</time></trkpt>
<trkpt lat="42.095511" lon="23.576858"><ele>2477.7</ele><time>2026-03-08T13:08:54.000Z</time></trkpt>
<trkpt lat="42.095511" lon="23.576867"><ele>2477.7</ele><time>2026-03-08T13:08:55.000Z</time></trkpt>
<trkpt lat="42.09551" lon="23.576875"><ele>2477.7</ele><time>2026-03-08T13:08:56.000Z</time></trkpt>
<trkpt lat="42.095509" lon="23.576884"><ele>2477.3</ele><time>2026-03-08T13:08:57.000Z</time></trkpt>
<trkpt lat="42.095508" lon="23.576893"><ele>2477.3</ele><time>2026-03-08T13:08:58.000Z</time></trkpt>
<trkpt lat="42.095509" lon="23.576902"><ele>2477.3</ele><time>2026-03-08T13:08:59.000Z</time></trkpt>
<trkpt lat="42.09551" lon="23.576912"><ele>2477.3</ele><time>2026-03-08T13:09:00.000Z</time></trkpt>
<trkpt lat="42.095513" lon="23.576923"><ele>2477.3</ele><time>2026-03-08T13:09:01.000Z</time></trkpt>
<trkpt lat="42.095515" lon="23.576936"><ele>2476.9</ele><time>2026-03-08T13:09:02.000Z</time></trkpt>
<trkpt lat="42.095516" lon="23.576948"><ele>2476.9</ele><time>2026-03-08T13:09:03.000Z</time></trkpt>
<trkpt lat="42.095516" lon="23.57696"><ele>2476.9</ele><time>2026-03-08T13:09:04.000Z</time></trkpt>
<trkpt lat="42.095516" lon="23.576972"><ele>2476.9</ele><time>2026-03-08T13:09:05.000Z</time></trkpt>
<trkpt lat="42.095516" lon="23.576985"><ele>2476.9</ele><time>2026-03-08T13:09:06.000Z</time></trkpt>
<trkpt lat="42.095516" lon="23.576997"><ele>2475.9</ele><time>2026-03-08T13:09:07.000Z</time></trkpt>
<trkpt lat="42.095515" lon="23.577009"><ele>2475.9</ele><time>2026-03-08T13:09:08.000Z</time></trkpt>
<trkpt lat="42.095515" lon="23.577022"><ele>2475.9</ele><time>2026-03-08T13:09:09.000Z</time></trkpt>
<trkpt lat="42.095516" lon="23.577034"><ele>2475.9</ele><time>2026-03-08T13:09:10.000Z</time></trkpt>
<trkpt lat="42.095516" lon="23.577046"><ele>2475.9</ele><time>2026-03-08T13:09:11.000Z</time></trkpt>
<trkpt lat="42.095518" lon="23.577058"><ele>2475.1</ele><time>2026-03-08T13:09:12.000Z</time></trkpt>
<trkpt lat="42.09552" lon="23.577071"><ele>2475.1</ele><time>2026-03-08T13:09:13.000Z</time></trkpt>
<trkpt lat="42.095524" lon="23.577083"><ele>2475.1</ele><time>2026-03-08T13:09:14.000Z</time></trkpt>
<trkpt lat="42.095529" lon="23.577094"><ele>2475.1</ele><time>2026-03-08T13:09:15.000Z</time></trkpt>
<trkpt lat="42.095535" lon="23.577105"><ele>2475.1</ele><time>2026-03-08T13:09:16.000Z</time></trkpt>
<trkpt lat="42.095541" lon="23.577116"><ele>2473.4</ele><time>2026-03-08T13:09:17.000Z</time></trkpt>
<trkpt lat="42.095548" lon="23.577127"><ele>2473.4</ele><time>2026-03-08T13:09:18.000Z</time></trkpt>
<trkpt lat="42.095555" lon="23.577139"><ele>2473.4</ele><time>2026-03-08T13:09:19.000Z</time></trkpt>
<trkpt lat="42.095561" lon="23.57715"><ele>2473.4</ele><time>2026-03-08T13:09:20.000Z</time></trkpt>
<trkpt lat="42.095567" lon="23.57716"><ele>2473.4</ele><time>2026-03-08T13:09:21.000Z</time></trkpt>
<trkpt lat="42.095574" lon="23.577168"><ele>2471.7</ele><time>2026-03-08T13:09:22.000Z</time></trkpt>
<trkpt lat="42.095581" lon="23.577176"><ele>2471.7</ele><time>2026-03-08T13:09:23.000Z</time></trkpt>
<trkpt lat="42.095588" lon="23.577182"><ele>2471.7</ele><time>2026-03-08T13:09:24.000Z</time></trkpt>
<trkpt lat="42.095596" lon="23.577188"><ele>2471.7</ele><time>2026-03-08T13:09:25.000Z</time></trkpt>
<trkpt lat="42.095603" lon="23.577193"><ele>2471.7</ele><time>2026-03-08T13:09:26.000Z</time></trkpt>
<trkpt lat="42.095611" lon="23.577197"><ele>2470.8</ele><time>2026-03-08T13:09:27.000Z</time></trkpt>
<trkpt lat="42.095619" lon="23.577202"><ele>2470.8</ele><time>2026-03-08T13:09:28.000Z</time></trkpt>
<trkpt lat="42.095626" lon="23.577207"><ele>2470.8</ele><time>2026-03-08T13:09:29.000Z</time></trkpt>
<trkpt lat="42.095633" lon="23.577213"><ele>2470.8</ele><time>2026-03-08T13:09:30.000Z</time></trkpt>
<trkpt lat="42.095641" lon="23.57722"><ele>2470.8</ele><time>2026-03-08T13:09:31.000Z</time></trkpt>
<trkpt lat="42.095647" lon="23.577227"><ele>2469.1</ele><time>2026-03-08T13:09:32.000Z</time></trkpt>
<trkpt lat="42.095653" lon="23.577232"><ele>2469.1</ele><time>2026-03-08T13:09:33.000Z</time></trkpt>
<trkpt lat="42.09566" lon="23.577234"><ele>2469.1</ele><time>2026-03-08T13:09:34.000Z</time></trkpt>
<trkpt lat="42.095666" lon="23.577235"><ele>2469.1</ele><time>2026-03-08T13:09:35.000Z</time></trkpt>
<trkpt lat="42.095673" lon="23.577234"><ele>2469.1</ele><time>2026-03-08T13:09:36.000Z</time></trkpt>
<trkpt lat="42.09568" lon="23.577232"><ele>2467.5</ele><time>2026-03-08T13:09:37.000Z</time></trkpt>
<trkpt lat="42.095689" lon="23.577229"><ele>2467.5</ele><time>2026-03-08T13:09:38.000Z</time></trkpt>
<trkpt lat="42.095697" lon="23.577225"><ele>2467.5</ele><time>2026-03-08T13:09:39.000Z</time></trkpt>
<trkpt lat="42.095705" lon="23.577221"><ele>2467.5</ele><time>2026-03-08T13:09:40.000Z</time></trkpt>
<trkpt lat="42.095713" lon="23.577217"><ele>2467.5</ele><time>2026-03-08T13:09:41.000Z</time></trkpt>
<trkpt lat="42.095721" lon="23.577212"><ele>2466.6</ele><time>2026-03-08T13:09:42.000Z</time></trkpt>
<trkpt lat="42.095729" lon="23.577208"><ele>2466.6</ele><time>2026-03-08T13:09:43.000Z</time></trkpt>
<trkpt lat="42.095738" lon="23.577204"><ele>2466.6</ele><time>2026-03-08T13:09:44.000Z</time></trkpt>
<trkpt lat="42.095747" lon="23.577201"><ele>2466.6</ele><time>2026-03-08T13:09:45.000Z</time></trkpt>
<trkpt lat="42.095757" lon="23.577197"><ele>2466.6</ele><time>2026-03-08T13:09:46.000Z</time></trkpt>
<trkpt lat="42.095767" lon="23.577194"><ele>2464.7</ele><time>2026-03-08T13:09:47.000Z</time></trkpt>
<trkpt lat="42.095777" lon="23.577191"><ele>2464.7</ele><time>2026-03-08T13:09:48.000Z</time></trkpt>
<trkpt lat="42.095788" lon="23.577189"><ele>2464.7</ele><time>2026-03-08T13:09:49.000Z</time></trkpt>
<trkpt lat="42.0958" lon="23.577188"><ele>2464.7</ele><time>2026-03-08T13:09:50.000Z</time></trkpt>
<trkpt lat="42.095812" lon="23.577188"><ele>2464.7</ele><time>2026-03-08T13:09:51.000Z</time></trkpt>
<trkpt lat="42.095824" lon="23.577189"><ele>2462.7</ele><time>2026-03-08T13:09:52.000Z</time></trkpt>
<trkpt lat="42.095837" lon="23.577191"><ele>2462.7</ele><time>2026-03-08T13:09:53.000Z</time></trkpt>
<trkpt lat="42.095851" lon="23.577193"><ele>2462.7</ele><time>2026-03-08T13:09:54.000Z</time></trkpt>
<trkpt lat="42.095864" lon="23.577194"><ele>2462.7</ele><time>2026-03-08T13:09:55.000Z</time></trkpt>
<trkpt lat="42.095877" lon="23.577193"><ele>2462.7</ele><time>2026-03-08T13:09:56.000Z</time></trkpt>
<trkpt lat="42.09589" lon="23.57719"><ele>2461.7</ele><time>2026-03-08T13:09:57.000Z</time></trkpt>
<trkpt lat="42.095902" lon="23.577186"><ele>2461.7</ele><time>2026-03-08T13:09:58.000Z</time></trkpt>
<trkpt lat="42.095914" lon="23.577182"><ele>2461.7</ele><time>2026-03-08T13:09:59.000Z</time></trkpt>
<trkpt lat="42.095925" lon="23.577178"><ele>2461.7</ele><time>2026-03-08T13:10:00.000Z</time></trkpt>
<trkpt lat="42.095936" lon="23.577174"><ele>2461.7</ele><time>2026-03-08T13:10:01.000Z</time></trkpt>
<trkpt lat="42.095946" lon="23.577171"><ele>2459.8</ele><time>2026-03-08T13:10:02.000Z</time></trkpt>
<trkpt lat="42.095956" lon="23.577168"><ele>2459.8</ele><time>2026-03-08T13:10:03.000Z</time></trkpt>
<trkpt lat="42.095967" lon="23.577166"><ele>2459.8</ele><time>2026-03-08T13:10:04.000Z</time></trkpt>
<trkpt lat="42.095977" lon="23.577164"><ele>2459.8</ele><time>2026-03-08T13:10:05.000Z</time></trkpt>
<trkpt lat="42.095988" lon="23.577162"><ele>2459.8</ele><time>2026-03-08T13:10:06.000Z</time></trkpt>
<trkpt lat="42.096" lon="23.57716"><ele>2458.1</ele><time>2026-03-08T13:10:07.000Z</time></trkpt>
<trkpt lat="42.096011" lon="23.577159"><ele>2458.1</ele><time>2026-03-08T13:10:08.000Z</time></trkpt>
<trkpt lat="42.096022" lon="23.577159"><ele>2458.1</ele><time>2026-03-08T13:10:09.000Z</time></trkpt>
<trkpt lat="42.096033" lon="23.57716"><ele>2458.1</ele><time>2026-03-08T13:10:10.000Z</time></trkpt>
<trkpt lat="42.096044" lon="23.577161"><ele>2458.1</ele><time>2026-03-08T13:10:11.000Z</time></trkpt>
<trkpt lat="42.096055" lon="23.577162"><ele>2457.4</ele><time>2026-03-08T13:10:12.000Z</time></trkpt>
<trkpt lat="42.096065" lon="23.577162"><ele>2457.4</ele><time>2026-03-08T13:10:13.000Z</time></trkpt>
<trkpt lat="42.096076" lon="23.577161"><ele>2457.4</ele><time>2026-03-08T13:10:14.000Z</time></trkpt>
<trkpt lat="42.096088" lon="23.57716"><ele>2457.4</ele><time>2026-03-08T13:10:15.000Z</time></trkpt>
<trkpt lat="42.096099" lon="23.577159"><ele>2457.4</ele><time>2026-03-08T13:10:16.000Z</time></trkpt>
<trkpt lat="42.096109" lon="23.577157"><ele>2456.1</ele><time>2026-03-08T13:10:17.000Z</time></trkpt>
<trkpt lat="42.096121" lon="23.577155"><ele>2456.1</ele><time>2026-03-08T13:10:18.000Z</time></trkpt>
<trkpt lat="42.096132" lon="23.577153"><ele>2456.1</ele><time>2026-03-08T13:10:19.000Z</time></trkpt>
<trkpt lat="42.096143" lon="23.577151"><ele>2456.1</ele><time>2026-03-08T13:10:20.000Z</time></trkpt>
<trkpt lat="42.096154" lon="23.57715"><ele>2456.1</ele><time>2026-03-08T13:10:21.000Z</time></trkpt>
<trkpt lat="42.096167" lon="23.577149"><ele>2454.9</ele><time>2026-03-08T13:10:22.000Z</time></trkpt>
<trkpt lat="42.096179" lon="23.577147"><ele>2454.9</ele><time>2026-03-08T13:10:23.000Z</time></trkpt>
<trkpt lat="42.096192" lon="23.577146"><ele>2454.9</ele><time>2026-03-08T13:10:24.000Z</time></trkpt>
<trkpt lat="42.096204" lon="23.577144"><ele>2454.9</ele><time>2026-03-08T13:10:25.000Z</time></trkpt>
<trkpt lat="42.096216" lon="23.577143"><ele>2454.9</ele><time>2026-03-08T13:10:26.000Z</time></trkpt>
<trkpt lat="42.096228" lon="23.577141"><ele>2454.4</ele><time>2026-03-08T13:10:27.000Z</time></trkpt>
<trkpt lat="42.096239" lon="23.577141"><ele>2454.4</ele><time>2026-03-08T13:10:28.000Z</time></trkpt>
<trkpt lat="42.09625" lon="23.577141"><ele>2454.4</ele><time>2026-03-08T13:10:29.000Z</time></trkpt>
<trkpt lat="42.096262" lon="23.577143"><ele>2454.4</ele><time>2026-03-08T13:10:30.000Z</time></trkpt>
<trkpt lat="42.096273" lon="23.577145"><ele>2454.4</ele><time>2026-03-08T13:10:31.000Z</time></trkpt>
<trkpt lat="42.096285" lon="23.577146"><ele>2453.5</ele><time>2026-03-08T13:10:32.000Z</time></trkpt>
<trkpt lat="42.096296" lon="23.577147"><ele>2453.5</ele><time>2026-03-08T13:10:33.000Z</time></trkpt>
<trkpt lat="42.096307" lon="23.577146"><ele>2453.5</ele><time>2026-03-08T13:10:34.000Z</time></trkpt>
<trkpt lat="42.096318" lon="23.577144"><ele>2453.5</ele><time>2026-03-08T13:10:35.000Z</time></trkpt>
<trkpt lat="42.096328" lon="23.577139"><ele>2453.5</ele><time>2026-03-08T13:10:36.000Z</time></trkpt>
<trkpt lat="42.096339" lon="23.577134"><ele>2452.6</ele><time>2026-03-08T13:10:37.000Z</time></trkpt>
<trkpt lat="42.096349" lon="23.577129"><ele>2452.6</ele><time>2026-03-08T13:10:38.000Z</time></trkpt>
<trkpt lat="42.096359" lon="23.577124"><ele>2452.6</ele><time>2026-03-08T13:10:39.000Z</time></trkpt>
<trkpt lat="42.096369" lon="23.577119"><ele>2452.6</ele><time>2026-03-08T13:10:40.000Z</time></trkpt>
<trkpt lat="42.096378" lon="23.577115"><ele>2452.6</ele><time>2026-03-08T13:10:41.000Z</time></trkpt>
<trkpt lat="42.096387" lon="23.577112"><ele>2452</ele><time>2026-03-08T13:10:42.000Z</time></trkpt>
<trkpt lat="42.096397" lon="23.577109"><ele>2452</ele><time>2026-03-08T13:10:43.000Z</time></trkpt>
<trkpt lat="42.096406" lon="23.577106"><ele>2452</ele><time>2026-03-08T13:10:44.000Z</time></trkpt>
<trkpt lat="42.096416" lon="23.577104"><ele>2452</ele><time>2026-03-08T13:10:45.000Z</time></trkpt>
<trkpt lat="42.096425" lon="23.577101"><ele>2452</ele><time>2026-03-08T13:10:46.000Z</time></trkpt>
<trkpt lat="42.096434" lon="23.577098"><ele>2450.8</ele><time>2026-03-08T13:10:47.000Z</time></trkpt>
<trkpt lat="42.096443" lon="23.577094"><ele>2450.8</ele><time>2026-03-08T13:10:48.000Z</time></trkpt>
<trkpt lat="42.096451" lon="23.577091"><ele>2450.8</ele><time>2026-03-08T13:10:49.000Z</time></trkpt>
<trkpt lat="42.09646" lon="23.577087"><ele>2450.8</ele><time>2026-03-08T13:10:50.000Z</time></trkpt>
<trkpt lat="42.096468" lon="23.577085"><ele>2450.8</ele><time>2026-03-08T13:10:51.000Z</time></trkpt>
<trkpt lat="42.096476" lon="23.577083"><ele>2449.9</ele><time>2026-03-08T13:10:52.000Z</time></trkpt>
<trkpt lat="42.096484" lon="23.577082"><ele>2449.9</ele><time>2026-03-08T13:10:53.000Z</time></trkpt>
<trkpt lat="42.096493" lon="23.577081"><ele>2449.9</ele><time>2026-03-08T13:10:54.000Z</time></trkpt>
<trkpt lat="42.096502" lon="23.57708"><ele>2449.9</ele><time>2026-03-08T13:10:55.000Z</time></trkpt>
<trkpt lat="42.096511" lon="23.57708"><ele>2449.9</ele><time>2026-03-08T13:10:56.000Z</time></trkpt>
<trkpt lat="42.096521" lon="23.577078"><ele>2449.6</ele><time>2026-03-08T13:10:57.000Z</time></trkpt>
<trkpt lat="42.09653" lon="23.577077"><ele>2449.6</ele><time>2026-03-08T13:10:58.000Z</time></trkpt>
<trkpt lat="42.096539" lon="23.577075"><ele>2449.6</ele><time>2026-03-08T13:10:59.000Z</time></trkpt>
<trkpt lat="42.096548" lon="23.577074"><ele>2449.6</ele><time>2026-03-08T13:11:00.000Z</time></trkpt>
<trkpt lat="42.096557" lon="23.577073"><ele>2449.6</ele><time>2026-03-08T13:11:01.000Z</time></trkpt>
<trkpt lat="42.096567" lon="23.577073"><ele>2449.3</ele><time>2026-03-08T13:11:02.000Z</time></trkpt>
<trkpt lat="42.096577" lon="23.577074"><ele>2449.3</ele><time>2026-03-08T13:11:03.000Z</time></trkpt>
<trkpt lat="42.096586" lon="23.577075"><ele>2449.3</ele><time>2026-03-08T13:11:04.000Z</time></trkpt>
<trkpt lat="42.096596" lon="23.577076"><ele>2449.3</ele><time>2026-03-08T13:11:05.000Z</time></trkpt>
<trkpt lat="42.096605" lon="23.577078"><ele>2449.3</ele><time>2026-03-08T13:11:06.000Z</time></trkpt>
<trkpt lat="42.096614" lon="23.577078"><ele>2448.8</ele><time>2026-03-08T13:11:07.000Z</time></trkpt>
<trkpt lat="42.096623" lon="23.577077"><ele>2448.8</ele><time>2026-03-08T13:11:08.000Z</time></trkpt>
<trkpt lat="42.096633" lon="23.577076"><ele>2448.8</ele><time>2026-03-08T13:11:09.000Z</time></trkpt>
<trkpt lat="42.096644" lon="23.577074"><ele>2448.8</ele><time>2026-03-08T13:11:10.000Z</time></trkpt>
<trkpt lat="42.096656" lon="23.577071"><ele>2448.8</ele><time>2026-03-08T13:11:11.000Z</time></trkpt>
<trkpt lat="42.096668" lon="23.577069"><ele>2448.5</ele><time>2026-03-08T13:11:12.000Z</time></trkpt>
<trkpt lat="42.096681" lon="23.577068"><ele>2448.5</ele><time>2026-03-08T13:11:13.000Z</time></trkpt>
<trkpt lat="42.096693" lon="23.577068"><ele>2448.5</ele><time>2026-03-08T13:11:14.000Z</time></trkpt>
<trkpt lat="42.096704" lon="23.577069"><ele>2448.5</ele><time>2026-03-08T13:11:15.000Z</time></trkpt>
<trkpt lat="42.096715" lon="23.577069"><ele>2448.5</ele><time>2026-03-08T13:11:16.000Z</time></trkpt>
<trkpt lat="42.096726" lon="23.577069"><ele>2447.8</ele><time>2026-03-08T13:11:17.000Z</time></trkpt>
<trkpt lat="42.096736" lon="23.577069"><ele>2447.8</ele><time>2026-03-08T13:11:18.000Z</time></trkpt>
<trkpt lat="42.096747" lon="23.577067"><ele>2447.8</ele><time>2026-03-08T13:11:19.000Z</time></trkpt>
<trkpt lat="42.096757" lon="23.577065"><ele>2447.8</ele><time>2026-03-08T13:11:20.000Z</time></trkpt>
<trkpt lat="42.096767" lon="23.577063"><ele>2447.8</ele><time>2026-03-08T13:11:21.000Z</time></trkpt>
<trkpt lat="42.096777" lon="23.57706"><ele>2447</ele><time>2026-03-08T13:11:22.000Z</time></trkpt>
<trkpt lat="42.096786" lon="23.577056"><ele>2447</ele><time>2026-03-08T13:11:23.000Z</time></trkpt>
<trkpt lat="42.096795" lon="23.577053"><ele>2447</ele><time>2026-03-08T13:11:24.000Z</time></trkpt>
<trkpt lat="42.096804" lon="23.577049"><ele>2447</ele><time>2026-03-08T13:11:25.000Z</time></trkpt>
<trkpt lat="42.096812" lon="23.577045"><ele>2447</ele><time>2026-03-08T13:11:26.000Z</time></trkpt>
<trkpt lat="42.096821" lon="23.577041"><ele>2446.6</ele><time>2026-03-08T13:11:27.000Z</time></trkpt>
<trkpt lat="42.096829" lon="23.577037"><ele>2446.6</ele><time>2026-03-08T13:11:28.000Z</time></trkpt>
<trkpt lat="42.096837" lon="23.577034"><ele>2446.6</ele><time>2026-03-08T13:11:29.000Z</time></trkpt>
<trkpt lat="42.096845" lon="23.577031"><ele>2446.6</ele><time>2026-03-08T13:11:30.000Z</time></trkpt>
<trkpt lat="42.096854" lon="23.577028"><ele>2446.6</ele><time>2026-03-08T13:11:31.000Z</time></trkpt>
<trkpt lat="42.096863" lon="23.577024"><ele>2446.1</ele><time>2026-03-08T13:11:32.000Z</time></trkpt>
<trkpt lat="42.096871" lon="23.57702"><ele>2446.1</ele><time>2026-03-08T13:11:33.000Z</time></trkpt>
<trkpt lat="42.09688" lon="23.577016"><ele>2446.1</ele><time>2026-03-08T13:11:34.000Z</time></trkpt>
<trkpt lat="42.096887" lon="23.577013"><ele>2446.1</ele><time>2026-03-08T13:11:35.000Z</time></trkpt>
<trkpt lat="42.096894" lon="23.57701"><ele>2446.1</ele><time>2026-03-08T13:11:36.000Z</time></trkpt>
<trkpt lat="42.0969" lon="23.577008"><ele>2446.2</ele><time>2026-03-08T13:11:37.000Z</time></trkpt>
<trkpt lat="42.096907" lon="23.577005"><ele>2446.2</ele><time>2026-03-08T13:11:38.000Z</time></trkpt>
<trkpt lat="42.096914" lon="23.577002"><ele>2446.2</ele><time>2026-03-08T13:11:39.000Z</time></trkpt>
<trkpt lat="42.096922" lon="23.576999"><ele>2446.2</ele><time>2026-03-08T13:11:40.000Z</time></trkpt>
<trkpt lat="42.09693" lon="23.576996"><ele>2446.2</ele><time>2026-03-08T13:11:41.000Z</time></trkpt>
<trkpt lat="42.096937" lon="23.576993"><ele>2446.3</ele><time>2026-03-08T13:11:42.000Z</time></trkpt>
<trkpt lat="42.096945" lon="23.576991"><ele>2446.3</ele><time>2026-03-08T13:11:43.000Z</time></trkpt>
<trkpt lat="42.096952" lon="23.576989"><ele>2446.3</ele><time>2026-03-08T13:11:44.000Z</time></trkpt>
<trkpt lat="42.096958" lon="23.576986"><ele>2446.3</ele><time>2026-03-08T13:11:45.000Z</time></trkpt>
<trkpt lat="42.096965" lon="23.576982"><ele>2446.3</ele><time>2026-03-08T13:11:46.000Z</time></trkpt>
<trkpt lat="42.096971" lon="23.576978"><ele>2446.6</ele><time>2026-03-08T13:11:47.000Z</time></trkpt>
<trkpt lat="42.096978" lon="23.576973"><ele>2446.6</ele><time>2026-03-08T13:11:48.000Z</time></trkpt>
<trkpt lat="42.096986" lon="23.576967"><ele>2446.6</ele><time>2026-03-08T13:11:49.000Z</time></trkpt>
<trkpt lat="42.096996" lon="23.576961"><ele>2446.6</ele><time>2026-03-08T13:11:50.000Z</time></trkpt>
<trkpt lat="42.097005" lon="23.576956"><ele>2446.6</ele><time>2026-03-08T13:11:51.000Z</time></trkpt>
<trkpt lat="42.097015" lon="23.576951"><ele>2446.8</ele><time>2026-03-08T13:11:52.000Z</time></trkpt>
<trkpt lat="42.097024" lon="23.576947"><ele>2446.8</ele><time>2026-03-08T13:11:53.000Z</time></trkpt>
<trkpt lat="42.097033" lon="23.576943"><ele>2446.8</ele><time>2026-03-08T13:11:54.000Z</time></trkpt>
<trkpt lat="42.097041" lon="23.576939"><ele>2446.8</ele><time>2026-03-08T13:11:55.000Z</time></trkpt>
<trkpt lat="42.09705" lon="23.576935"><ele>2446.8</ele><time>2026-03-08T13:11:56.000Z</time></trkpt>
<trkpt lat="42.097058" lon="23.576931"><ele>2446.9</ele><time>2026-03-08T13:11:57.000Z</time></trkpt>
<trkpt lat="42.097066" lon="23.576927"><ele>2446.9</ele><time>2026-03-08T13:11:58.000Z</time></trkpt>
<trkpt lat="42.097074" lon="23.576923"><ele>2446.9</ele><time>2026-03-08T13:11:59.000Z</time></trkpt>
<trkpt lat="42.097081" lon="23.576919"><ele>2446.9</ele><time>2026-03-08T13:12:00.000Z</time></trkpt>
<trkpt lat="42.097089" lon="23.576916"><ele>2446.9</ele><time>2026-03-08T13:12:01.000Z</time></trkpt>
<trkpt lat="42.097097" lon="23.576914"><ele>2447.2</ele><time>2026-03-08T13:12:02.000Z</time></trkpt>
<trkpt lat="42.097105" lon="23.576912"><ele>2447.2</ele><time>2026-03-08T13:12:03.000Z</time></trkpt>
<trkpt lat="42.097113" lon="23.57691"><ele>2447.2</ele><time>2026-03-08T13:12:04.000Z</time></trkpt>
<trkpt lat="42.09712" lon="23.576909"><ele>2447.2</ele><time>2026-03-08T13:12:05.000Z</time></trkpt>
<trkpt lat="42.097127" lon="23.576908"><ele>2447.2</ele><time>2026-03-08T13:12:06.000Z</time></trkpt>
<trkpt lat="42.097133" lon="23.576907"><ele>2447.3</ele><time>2026-03-08T13:12:07.000Z</time></trkpt>
<trkpt lat="42.097139" lon="23.576904"><ele>2447.3</ele><time>2026-03-08T13:12:08.000Z</time></trkpt>
<trkpt lat="42.097147" lon="23.576902"><ele>2447.3</ele><time>2026-03-08T13:12:09.000Z</time></trkpt>
<trkpt lat="42.097156" lon="23.576899"><ele>2447.3</ele><time>2026-03-08T13:12:10.000Z</time></trkpt>
<trkpt lat="42.097164" lon="23.576896"><ele>2447.3</ele><time>2026-03-08T13:12:11.000Z</time></trkpt>
<trkpt lat="42.097172" lon="23.576895"><ele>2447.3</ele><time>2026-03-08T13:12:12.000Z</time></trkpt>
<trkpt lat="42.09718" lon="23.576897"><ele>2447.3</ele><time>2026-03-08T13:12:13.000Z</time></trkpt>
<trkpt lat="42.097186" lon="23.576902"><ele>2447.3</ele><time>2026-03-08T13:12:14.000Z</time></trkpt>
<trkpt lat="42.09719" lon="23.576908"><ele>2447.3</ele><time>2026-03-08T13:12:15.000Z</time></trkpt>
<trkpt lat="42.097193" lon="23.576915"><ele>2447.3</ele><time>2026-03-08T13:12:16.000Z</time></trkpt>
<trkpt lat="42.097195" lon="23.576923"><ele>2447.2</ele><time>2026-03-08T13:12:17.000Z</time></trkpt>
<trkpt lat="42.097198" lon="23.57693"><ele>2447.2</ele><time>2026-03-08T13:12:18.000Z</time></trkpt>
<trkpt lat="42.097202" lon="23.576937"><ele>2447.2</ele><time>2026-03-08T13:12:19.000Z</time></trkpt>
<trkpt lat="42.097207" lon="23.576942"><ele>2447.2</ele><time>2026-03-08T13:12:20.000Z</time></trkpt>
<trkpt lat="42.097212" lon="23.576947"><ele>2447.2</ele><time>2026-03-08T13:12:21.000Z</time></trkpt>
<trkpt lat="42.097218" lon="23.576952"><ele>2446.9</ele><time>2026-03-08T13:12:22.000Z</time></trkpt>
<trkpt lat="42.097225" lon="23.576955"><ele>2446.9</ele><time>2026-03-08T13:12:23.000Z</time></trkpt>
<trkpt lat="42.097232" lon="23.576958"><ele>2446.9</ele><time>2026-03-08T13:12:24.000Z</time></trkpt>
<trkpt lat="42.09724" lon="23.576962"><ele>2446.9</ele><time>2026-03-08T13:12:25.000Z</time></trkpt>
<trkpt lat="42.097247" lon="23.576966"><ele>2446.9</ele><time>2026-03-08T13:12:26.000Z</time></trkpt>
<trkpt lat="42.097253" lon="23.576971"><ele>2446.6</ele><time>2026-03-08T13:12:27.000Z</time></trkpt>
<trkpt lat="42.097257" lon="23.576976"><ele>2446.6</ele><time>2026-03-08T13:12:28.000Z</time></trkpt>
<trkpt lat="42.097259" lon="23.576983"><ele>2446.6</ele><time>2026-03-08T13:12:29.000Z</time></trkpt>
<trkpt lat="42.09726" lon="23.576989"><ele>2446.6</ele><time>2026-03-08T13:12:30.000Z</time></trkpt>
<trkpt lat="42.09726" lon="23.576995"><ele>2446.6</ele><time>2026-03-08T13:12:31.000Z</time></trkpt>
<trkpt lat="42.09726" lon="23.577"><ele>2445.4</ele><time>2026-03-08T13:12:32.000Z</time></trkpt>
<trkpt lat="42.097261" lon="23.577006"><ele>2445.4</ele><time>2026-03-08T13:12:33.000Z</time></trkpt>
<trkpt lat="42.097262" lon="23.577012"><ele>2445.4</ele><time>2026-03-08T13:12:34.000Z</time></trkpt>
<trkpt lat="42.097263" lon="23.577019"><ele>2445.4</ele><time>2026-03-08T13:12:35.000Z</time></trkpt>
<trkpt lat="42.097263" lon="23.577027"><ele>2445.4</ele><time>2026-03-08T13:12:36.000Z</time></trkpt>
<trkpt lat="42.097263" lon="23.577034"><ele>2443.9</ele><time>2026-03-08T13:12:37.000Z</time></trkpt>
<trkpt lat="42.097263" lon="23.577042"><ele>2443.9</ele><time>2026-03-08T13:12:38.000Z</time></trkpt>
<trkpt lat="42.097263" lon="23.577049"><ele>2443.9</ele><time>2026-03-08T13:12:39.000Z</time></trkpt>
<trkpt lat="42.097263" lon="23.577055"><ele>2443.9</ele><time>2026-03-08T13:12:40.000Z</time></trkpt>
<trkpt lat="42.097263" lon="23.57706"><ele>2443.9</ele><time>2026-03-08T13:12:41.000Z</time></trkpt>
<trkpt lat="42.097262" lon="23.577065"><ele>2443.1</ele><time>2026-03-08T13:12:42.000Z</time></trkpt>
<trkpt lat="42.097262" lon="23.57707"><ele>2443.1</ele><time>2026-03-08T13:12:43.000Z</time></trkpt>
<trkpt lat="42.097261" lon="23.577075"><ele>2443.1</ele><time>2026-03-08T13:12:44.000Z</time></trkpt>
<trkpt lat="42.097261" lon="23.57708"><ele>2443.1</ele><time>2026-03-08T13:12:45.000Z</time></trkpt>
<trkpt lat="42.09726" lon="23.577085"><ele>2443.1</ele><time>2026-03-08T13:12:46.000Z</time></trkpt>
<trkpt lat="42.097261" lon="23.577089"><ele>2441.5</ele><time>2026-03-08T13:12:47.000Z</time></trkpt>
<trkpt lat="42.097263" lon="23.577093"><ele>2441.5</ele><time>2026-03-08T13:12:48.000Z</time></trkpt>
<trkpt lat="42.097264" lon="23.577097"><ele>2441.5</ele><time>2026-03-08T13:12:49.000Z</time></trkpt>
<trkpt lat="42.097267" lon="23.5771"><ele>2441.5</ele><time>2026-03-08T13:12:50.000Z</time></trkpt>
<trkpt lat="42.097271" lon="23.577104"><ele>2441.5</ele><time>2026-03-08T13:12:51.000Z</time></trkpt>
<trkpt lat="42.097275" lon="23.577108"><ele>2439.9</ele><time>2026-03-08T13:12:52.000Z</time></trkpt>
<trkpt lat="42.09728" lon="23.577112"><ele>2439.9</ele><time>2026-03-08T13:12:53.000Z</time></trkpt>
<trkpt lat="42.097286" lon="23.577116"><ele>2439.9</ele><time>2026-03-08T13:12:54.000Z</time></trkpt>
<trkpt lat="42.097292" lon="23.577122"><ele>2439.9</ele><time>2026-03-08T13:12:55.000Z</time></trkpt>
<trkpt lat="42.097298" lon="23.577127"><ele>2439.9</ele><time>2026-03-08T13:12:56.000Z</time></trkpt>
<trkpt lat="42.097304" lon="23.577132"><ele>2439.2</ele><time>2026-03-08T13:12:57.000Z</time></trkpt>
<trkpt lat="42.097309" lon="23.577137"><ele>2439.2</ele><time>2026-03-08T13:12:58.000Z</time></trkpt>
<trkpt lat="42.097314" lon="23.577141"><ele>2439.2</ele><time>2026-03-08T13:12:59.000Z</time></trkpt>
<trkpt lat="42.097317" lon="23.577145"><ele>2439.2</ele><time>2026-03-08T13:13:00.000Z</time></trkpt>
<trkpt lat="42.09732" lon="23.577149"><ele>2439.2</ele><time>2026-03-08T13:13:01.000Z</time></trkpt>
<trkpt lat="42.097321" lon="23.577152"><ele>2438</ele><time>2026-03-08T13:13:02.000Z</time></trkpt>
<trkpt lat="42.097321" lon="23.577154"><ele>2438</ele><time>2026-03-08T13:13:03.000Z</time></trkpt>
<trkpt lat="42.097321" lon="23.577155"><ele>2438</ele><time>2026-03-08T13:13:04.000Z</time></trkpt>
<trkpt lat="42.097321" lon="23.577155"><ele>2438</ele><time>2026-03-08T13:13:05.000Z</time></trkpt>
<trkpt lat="42.097321" lon="23.577155"><ele>2438</ele><time>2026-03-08T13:13:06.000Z</time></trkpt>
<trkpt lat="42.09732" lon="23.577155"><ele>2437</ele><time>2026-03-08T13:13:07.000Z</time></trkpt>
<trkpt lat="42.09732" lon="23.577155"><ele>2437</ele><time>2026-03-08T13:13:08.000Z</time></trkpt>
<trkpt lat="42.097321" lon="23.577156"><ele>2437</ele><time>2026-03-08T13:13:09.000Z</time></trkpt>
<trkpt lat="42.097323" lon="23.577158"><ele>2437</ele><time>2026-03-08T13:13:10.000Z</time></trkpt>
<trkpt lat="42.097328" lon="23.577162"><ele>2437</ele><time>2026-03-08T13:13:11.000Z</time></trkpt>
<trkpt lat="42.097333" lon="23.577167"><ele>2436.6</ele><time>2026-03-08T13:13:12.000Z</time></trkpt>
<trkpt lat="42.097339" lon="23.577174"><ele>2436.6</ele><time>2026-03-08T13:13:13.000Z</time></trkpt>
<trkpt lat="42.097344" lon="23.57718"><ele>2436.6</ele><time>2026-03-08T13:13:14.000Z</time></trkpt>
<trkpt lat="42.097349" lon="23.577185"><ele>2436.6</ele><time>2026-03-08T13:13:15.000Z</time></trkpt>
<trkpt lat="42.097352" lon="23.577189"><ele>2436.6</ele><time>2026-03-08T13:13:16.000Z</time></trkpt>
<trkpt lat="42.097356" lon="23.577193"><ele>2436</ele><time>2026-03-08T13:13:17.000Z</time></trkpt>
<trkpt lat="42.097359" lon="23.577195"><ele>2436</ele><time>2026-03-08T13:13:18.000Z</time></trkpt>
<trkpt lat="42.097362" lon="23.577198"><ele>2436</ele><time>2026-03-08T13:13:19.000Z</time></trkpt>
<trkpt lat="42.097366" lon="23.577201"><ele>2436</ele><time>2026-03-08T13:13:20.000Z</time></trkpt>
<trkpt lat="42.09737" lon="23.577203"><ele>2436</ele><time>2026-03-08T13:13:21.000Z</time></trkpt>
<trkpt lat="42.097374" lon="23.577206"><ele>2435.7</ele><time>2026-03-08T13:13:22.000Z</time></trkpt>
<trkpt lat="42.097379" lon="23.577209"><ele>2435.7</ele><time>2026-03-08T13:13:23.000Z</time></trkpt>
<trkpt lat="42.097384" lon="23.577211"><ele>2435.7</ele><time>2026-03-08T13:13:24.000Z</time></trkpt>
<trkpt lat="42.097388" lon="23.577215"><ele>2435.7</ele><time>2026-03-08T13:13:25.000Z</time></trkpt>
<trkpt lat="42.097393" lon="23.577219"><ele>2435.7</ele><time>2026-03-08T13:13:26.000Z</time></trkpt>
<trkpt lat="42.097398" lon="23.577224"><ele>2435.5</ele><time>2026-03-08T13:13:27.000Z</time></trkpt>
<trkpt lat="42.097402" lon="23.577229"><ele>2435.5</ele><time>2026-03-08T13:13:28.000Z</time></trkpt>
<trkpt lat="42.097407" lon="23.577234"><ele>2435.5</ele><time>2026-03-08T13:13:29.000Z</time></trkpt>
<trkpt lat="42.097411" lon="23.577239"><ele>2435.5</ele><time>2026-03-08T13:13:30.000Z</time></trkpt>
<trkpt lat="42.097416" lon="23.577243"><ele>2435.5</ele><time>2026-03-08T13:13:31.000Z</time></trkpt>
<trkpt lat="42.097421" lon="23.577248"><ele>2435.2</ele><time>2026-03-08T13:13:32.000Z</time></trkpt>
<trkpt lat="42.097426" lon="23.577254"><ele>2435.2</ele><time>2026-03-08T13:13:33.000Z</time></trkpt>
<trkpt lat="42.097432" lon="23.577259"><ele>2435.2</ele><time>2026-03-08T13:13:34.000Z</time></trkpt>
<trkpt lat="42.097439" lon="23.577264"><ele>2435.2</ele><time>2026-03-08T13:13:35.000Z</time></trkpt>
<trkpt lat="42.097445" lon="23.577269"><ele>2435.2</ele><time>2026-03-08T13:13:36.000Z</time></trkpt>
<trkpt lat="42.097453" lon="23.577275"><ele>2434.6</ele><time>2026-03-08T13:13:37.000Z</time></trkpt>
<trkpt lat="42.09746" lon="23.57728"><ele>2434.6</ele><time>2026-03-08T13:13:38.000Z</time></trkpt>
<trkpt lat="42.097468" lon="23.577288"><ele>2434.6</ele><time>2026-03-08T13:13:39.000Z</time></trkpt>
<trkpt lat="42.097475" lon="23.577295"><ele>2434.6</ele><time>2026-03-08T13:13:40.000Z</time></trkpt>
<trkpt lat="42.097481" lon="23.577303"><ele>2434.6</ele><time>2026-03-08T13:13:41.000Z</time></trkpt>
<trkpt lat="42.097485" lon="23.577312"><ele>2434.3</ele><time>2026-03-08T13:13:42.000Z</time></trkpt>
<trkpt lat="42.09749" lon="23.57732"><ele>2434.3</ele><time>2026-03-08T13:13:43.000Z</time></trkpt>
<trkpt lat="42.097493" lon="23.577328"><ele>2434.3</ele><time>2026-03-08T13:13:44.000Z</time></trkpt>
<trkpt lat="42.097497" lon="23.577336"><ele>2434.3</ele><time>2026-03-08T13:13:45.000Z</time></trkpt>
<trkpt lat="42.0975" lon="23.577343"><ele>2434.3</ele><time>2026-03-08T13:13:46.000Z</time></trkpt>
<trkpt lat="42.097504" lon="23.577349"><ele>2433.6</ele><time>2026-03-08T13:13:47.000Z</time></trkpt>
<trkpt lat="42.097506" lon="23.577355"><ele>2433.6</ele><time>2026-03-08T13:13:48.000Z</time></trkpt>
<trkpt lat="42.097509" lon="23.577363"><ele>2433.6</ele><time>2026-03-08T13:13:49.000Z</time></trkpt>
<trkpt lat="42.097511" lon="23.577371"><ele>2433.6</ele><time>2026-03-08T13:13:50.000Z</time></trkpt>
<trkpt lat="42.097512" lon="23.577379"><ele>2433.6</ele><time>2026-03-08T13:13:51.000Z</time></trkpt>
<trkpt lat="42.097513" lon="23.577387"><ele>2432.6</ele><time>2026-03-08T13:13:52.000Z</time></trkpt>
<trkpt lat="42.097514" lon="23.577395"><ele>2432.6</ele><time>2026-03-08T13:13:53.000Z</time></trkpt>
<trkpt lat="42.097515" lon="23.577403"><ele>2432.6</ele><time>2026-03-08T13:13:54.000Z</time></trkpt>
<trkpt lat="42.097515" lon="23.577411"><ele>2432.6</ele><time>2026-03-08T13:13:55.000Z</time></trkpt>
<trkpt lat="42.097516" lon="23.57742"><ele>2432.6</ele><time>2026-03-08T13:13:56.000Z</time></trkpt>
<trkpt lat="42.097518" lon="23.577429"><ele>2432</ele><time>2026-03-08T13:13:57.000Z</time></trkpt>
<trkpt lat="42.097519" lon="23.577437"><ele>2432</ele><time>2026-03-08T13:13:58.000Z</time></trkpt>
<trkpt lat="42.097521" lon="23.577444"><ele>2432</ele><time>2026-03-08T13:13:59.000Z</time></trkpt>
<trkpt lat="42.097524" lon="23.577451"><ele>2432</ele><time>2026-03-08T13:14:00.000Z</time></trkpt>
<trkpt lat="42.097526" lon="23.577458"><ele>2432</ele><time>2026-03-08T13:14:01.000Z</time></trkpt>
<trkpt lat="42.097529" lon="23.577465"><ele>2430.4</ele><time>2026-03-08T13:14:02.000Z</time></trkpt>
<trkpt lat="42.097531" lon="23.577474"><ele>2430.4</ele><time>2026-03-08T13:14:03.000Z</time></trkpt>
<trkpt lat="42.097533" lon="23.577482"><ele>2430.4</ele><time>2026-03-08T13:14:04.000Z</time></trkpt>
<trkpt lat="42.097535" lon="23.577489"><ele>2430.4</ele><time>2026-03-08T13:14:05.000Z</time></trkpt>
<trkpt lat="42.097536" lon="23.577496"><ele>2430.4</ele><time>2026-03-08T13:14:06.000Z</time></trkpt>
<trkpt lat="42.097537" lon="23.577502"><ele>2428.6</ele><time>2026-03-08T13:14:07.000Z</time></trkpt>
<trkpt lat="42.097539" lon="23.577507"><ele>2428.6</ele><time>2026-03-08T13:14:08.000Z</time></trkpt>
<trkpt lat="42.097539" lon="23.577512"><ele>2428.6</ele><time>2026-03-08T13:14:09.000Z</time></trkpt>
<trkpt lat="42.097539" lon="23.577519"><ele>2428.6</ele><time>2026-03-08T13:14:10.000Z</time></trkpt>
<trkpt lat="42.097538" lon="23.577526"><ele>2428.6</ele><time>2026-03-08T13:14:11.000Z</time></trkpt>
<trkpt lat="42.097535" lon="23.577533"><ele>2427.8</ele><time>2026-03-08T13:14:12.000Z</time></trkpt>
<trkpt lat="42.097532" lon="23.57754"><ele>2427.8</ele><time>2026-03-08T13:14:13.000Z</time></trkpt>
<trkpt lat="42.097529" lon="23.577546"><ele>2427.8</ele><time>2026-03-08T13:14:14.000Z</time></trkpt>
<trkpt lat="42.097526" lon="23.577551"><ele>2427.8</ele><time>2026-03-08T13:14:15.000Z</time></trkpt>
<trkpt lat="42.097524" lon="23.577555"><ele>2427.8</ele><time>2026-03-08T13:14:16.000Z</time></trkpt>
<trkpt lat="42.097523" lon="23.577558"><ele>2426.3</ele><time>2026-03-08T13:14:17.000Z</time></trkpt>
<trkpt lat="42.097523" lon="23.57756"><ele>2426.3</ele><time>2026-03-08T13:14:18.000Z</time></trkpt>
<trkpt lat="42.097523" lon="23.577564"><ele>2426.3</ele><time>2026-03-08T13:14:19.000Z</time></trkpt>
<trkpt lat="42.097522" lon="23.577568"><ele>2426.3</ele><time>2026-03-08T13:14:20.000Z</time></trkpt>
<trkpt lat="42.097522" lon="23.577572"><ele>2426.3</ele><time>2026-03-08T13:14:21.000Z</time></trkpt>
<trkpt lat="42.097521" lon="23.577575"><ele>2425</ele><time>2026-03-08T13:14:22.000Z</time></trkpt>
<trkpt lat="42.09752" lon="23.577577"><ele>2425</ele><time>2026-03-08T13:14:23.000Z</time></trkpt>
<trkpt lat="42.097519" lon="23.577579"><ele>2425</ele><time>2026-03-08T13:14:24.000Z</time></trkpt>
<trkpt lat="42.097517" lon="23.57758"><ele>2425</ele><time>2026-03-08T13:14:25.000Z</time></trkpt>
<trkpt lat="42.097517" lon="23.57758"><ele>2425</ele><time>2026-03-08T13:14:26.000Z</time></trkpt>
<trkpt lat="42.097515" lon="23.577581"><ele>2424.5</ele><time>2026-03-08T13:14:27.000Z</time></trkpt>
<trkpt lat="42.097513" lon="23.577583"><ele>2424.5</ele><time>2026-03-08T13:14:28.000Z</time></trkpt>
<trkpt lat="42.097511" lon="23.577585"><ele>2424.5</ele><time>2026-03-08T13:14:29.000Z</time></trkpt>
<trkpt lat="42.097509" lon="23.577587"><ele>2424.5</ele><time>2026-03-08T13:14:30.000Z</time></trkpt>
<trkpt lat="42.097507" lon="23.577588"><ele>2424.5</ele><time>2026-03-08T13:14:31.000Z</time></trkpt>
<trkpt lat="42.097506" lon="23.577589"><ele>2423.5</ele><time>2026-03-08T13:14:32.000Z</time></trkpt>
<trkpt lat="42.097506" lon="23.57759"><ele>2423.5</ele><time>2026-03-08T13:14:33.000Z</time></trkpt>
<trkpt lat="42.097506" lon="23.577591"><ele>2423.5</ele><time>2026-03-08T13:14:34.000Z</time></trkpt>
<trkpt lat="42.097505" lon="23.577592"><ele>2423.5</ele><time>2026-03-08T13:14:35.000Z</time></trkpt>
<trkpt lat="42.097505" lon="23.577593"><ele>2423.5</ele><time>2026-03-08T13:14:36.000Z</time></trkpt>
<trkpt lat="42.097503" lon="23.577595"><ele>2422.8</ele><time>2026-03-08T13:14:37.000Z</time></trkpt>
<trkpt lat="42.097502" lon="23.577599"><ele>2422.8</ele><time>2026-03-08T13:14:38.000Z</time></trkpt>
<trkpt lat="42.097499" lon="23.577603"><ele>2422.8</ele><time>2026-03-08T13:14:39.000Z</time></trkpt>
<trkpt lat="42.097497" lon="23.577606"><ele>2422.8</ele><time>2026-03-08T13:14:40.000Z</time></trkpt>
<trkpt lat="42.097494" lon="23.57761"><ele>2422.8</ele><time>2026-03-08T13:14:41.000Z</time></trkpt>
<trkpt lat="42.097493" lon="23.577614"><ele>2422.6</ele><time>2026-03-08T13:14:42.000Z</time></trkpt>
<trkpt lat="42.097491" lon="23.577617"><ele>2422.6</ele><time>2026-03-08T13:14:43.000Z</time></trkpt>
<trkpt lat="42.09749" lon="23.57762"><ele>2422.6</ele><time>2026-03-08T13:14:44.000Z</time></trkpt>
<trkpt lat="42.097489" lon="23.577622"><ele>2422.6</ele><time>2026-03-08T13:14:45.000Z</time></trkpt>
<trkpt lat="42.097487" lon="23.577625"><ele>2422.6</ele><time>2026-03-08T13:14:46.000Z</time></trkpt>
<trkpt lat="42.097485" lon="23.577628"><ele>2422</ele><time>2026-03-08T13:14:47.000Z</time></trkpt>
<trkpt lat="42.097482" lon="23.577629"><ele>2422</ele><time>2026-03-08T13:14:48.000Z</time></trkpt>
<trkpt lat="42.09748" lon="23.577631"><ele>2422</ele><time>2026-03-08T13:14:49.000Z</time></trkpt>
<trkpt lat="42.097477" lon="23.577632"><ele>2422</ele><time>2026-03-08T13:14:50.000Z</time></trkpt>
<trkpt lat="42.097475" lon="23.577633"><ele>2422</ele><time>2026-03-08T13:14:51.000Z</time></trkpt>
<trkpt lat="42.097472" lon="23.577634"><ele>2421.5</ele><time>2026-03-08T13:14:52.000Z</time></trkpt>
<trkpt lat="42.097471" lon="23.577635"><ele>2421.5</ele><time>2026-03-08T13:14:53.000Z</time></trkpt>
<trkpt lat="42.097469" lon="23.577636"><ele>2421.5</ele><time>2026-03-08T13:14:54.000Z</time></trkpt>
<trkpt lat="42.097468" lon="23.577637"><ele>2421.5</ele><time>2026-03-08T13:14:55.000Z</time></trkpt>
<trkpt lat="42.097466" lon="23.577638"><ele>2421.5</ele><time>2026-03-08T13:14:56.000Z</time></trkpt>
<trkpt lat="42.097465" lon="23.57764"><ele>2421.1</ele><time>2026-03-08T13:14:57.000Z</time></trkpt>
<trkpt lat="42.097463" lon="23.577641"><ele>2421.1</ele><time>2026-03-08T13:14:58.000Z</time></trkpt>
<trkpt lat="42.097461" lon="23.577643"><ele>2421.1</ele><time>2026-03-08T13:14:59.000Z</time></trkpt>
<trkpt lat="42.097458" lon="23.577645"><ele>2421.1</ele><time>2026-03-08T13:15:00.000Z</time></trkpt>
<trkpt lat="42.097456" lon="23.577647"><ele>2421.1</ele><time>2026-03-08T13:15:01.000Z</time></trkpt>
<trkpt lat="42.097455" lon="23.577649"><ele>2420.2</ele><time>2026-03-08T13:15:02.000Z</time></trkpt>
<trkpt lat="42.097454" lon="23.577652"><ele>2420.2</ele><time>2026-03-08T13:15:03.000Z</time></trkpt>
<trkpt lat="42.097453" lon="23.577654"><ele>2420.2</ele><time>2026-03-08T13:15:04.000Z</time></trkpt>
<trkpt lat="42.097453" lon="23.577656"><ele>2420.2</ele><time>2026-03-08T13:15:05.000Z</time></trkpt>
<trkpt lat="42.097453" lon="23.577657"><ele>2420.2</ele><time>2026-03-08T13:15:06.000Z</time></trkpt>
<trkpt lat="42.097452" lon="23.577658"><ele>2419</ele><time>2026-03-08T13:15:07.000Z</time></trkpt>
<trkpt lat="42.097452" lon="23.577658"><ele>2419</ele><time>2026-03-08T13:15:08.000Z</time></trkpt>
<trkpt lat="42.097451" lon="23.577659"><ele>2419</ele><time>2026-03-08T13:15:09.000Z</time></trkpt>
<trkpt lat="42.09745" lon="23.57766"><ele>2419</ele><time>2026-03-08T13:15:10.000Z</time></trkpt>
<trkpt lat="42.097449" lon="23.577661"><ele>2419</ele><time>2026-03-08T13:15:11.000Z</time></trkpt>
<trkpt lat="42.097447" lon="23.577662"><ele>2418.4</ele><time>2026-03-08T13:15:12.000Z</time></trkpt>
<trkpt lat="42.097446" lon="23.577662"><ele>2418.4</ele><time>2026-03-08T13:15:13.000Z</time></trkpt>
<trkpt lat="42.097445" lon="23.577662"><ele>2418.4</ele><time>2026-03-08T13:15:14.000Z</time></trkpt>
<trkpt lat="42.097443" lon="23.577663"><ele>2418.4</ele><time>2026-03-08T13:15:15.000Z</time></trkpt>
<trkpt lat="42.097441" lon="23.577664"><ele>2418.4</ele><time>2026-03-08T13:15:16.000Z</time></trkpt>
<trkpt lat="42.097441" lon="23.577666"><ele>2417.5</ele><time>2026-03-08T13:15:17.000Z</time></trkpt>
<trkpt lat="42.09744" lon="23.577669"><ele>2417.5</ele><time>2026-03-08T13:15:18.000Z</time></trkpt>
<trkpt lat="42.097439" lon="23.577672"><ele>2417.5</ele><time>2026-03-08T13:15:19.000Z</time></trkpt>
<trkpt lat="42.097438" lon="23.577674"><ele>2417.5</ele><time>2026-03-08T13:15:20.000Z</time></trkpt>
<trkpt lat="42.097438" lon="23.577676"><ele>2417.5</ele><time>2026-03-08T13:15:21.000Z</time></trkpt>
<trkpt lat="42.097436" lon="23.577678"><ele>2416.6</ele><time>2026-03-08T13:15:22.000Z</time></trkpt>
<trkpt lat="42.097435" lon="23.57768"><ele>2416.6</ele><time>2026-03-08T13:15:23.000Z</time></trkpt>
<trkpt lat="42.097434" lon="23.577681"><ele>2416.6</ele><time>2026-03-08T13:15:24.000Z</time></trkpt>
<trkpt lat="42.097433" lon="23.577683"><ele>2416.6</ele><time>2026-03-08T13:15:25.000Z</time></trkpt>
<trkpt lat="42.097432" lon="23.577687"><ele>2416.6</ele><time>2026-03-08T13:15:26.000Z</time></trkpt>
<trkpt lat="42.09743" lon="23.57769"><ele>2416.2</ele><time>2026-03-08T13:15:27.000Z</time></trkpt>
<trkpt lat="42.097428" lon="23.577695"><ele>2416.2</ele><time>2026-03-08T13:15:28.000Z</time></trkpt>
<trkpt lat="42.097425" lon="23.577701"><ele>2416.2</ele><time>2026-03-08T13:15:29.000Z</time></trkpt>
<trkpt lat="42.097422" lon="23.577707"><ele>2416.2</ele><time>2026-03-08T13:15:30.000Z</time></trkpt>
<trkpt lat="42.097419" lon="23.577713"><ele>2416.2</ele><time>2026-03-08T13:15:31.000Z</time></trkpt>
<trkpt lat="42.097416" lon="23.57772"><ele>2415.2</ele><time>2026-03-08T13:15:32.000Z</time></trkpt>
<trkpt lat="42.097413" lon="23.577727"><ele>2415.2</ele><time>2026-03-08T13:15:33.000Z</time></trkpt>
<trkpt lat="42.097411" lon="23.577735"><ele>2415.2</ele><time>2026-03-08T13:15:34.000Z</time></trkpt>
<trkpt lat="42.097408" lon="23.577743"><ele>2415.2</ele><time>2026-03-08T13:15:35.000Z</time></trkpt>
<trkpt lat="42.097406" lon="23.57775"><ele>2415.2</ele><time>2026-03-08T13:15:36.000Z</time></trkpt>
<trkpt lat="42.097403" lon="23.577757"><ele>2413.9</ele><time>2026-03-08T13:15:37.000Z</time></trkpt>
<trkpt lat="42.097401" lon="23.577763"><ele>2413.9</ele><time>2026-03-08T13:15:38.000Z</time></trkpt>
<trkpt lat="42.097399" lon="23.577768"><ele>2413.9</ele><time>2026-03-08T13:15:39.000Z</time></trkpt>
<trkpt lat="42.097397" lon="23.577771"><ele>2413.9</ele><time>2026-03-08T13:15:40.000Z</time></trkpt>
<trkpt lat="42.097396" lon="23.577775"><ele>2413.9</ele><time>2026-03-08T13:15:41.000Z</time></trkpt>
<trkpt lat="42.097395" lon="23.577778"><ele>2413</ele><time>2026-03-08T13:15:42.000Z</time></trkpt>
<trkpt lat="42.097393" lon="23.57778"><ele>2413</ele><time>2026-03-08T13:15:43.000Z</time></trkpt>
<trkpt lat="42.097392" lon="23.577783"><ele>2413</ele><time>2026-03-08T13:15:44.000Z</time></trkpt>
<trkpt lat="42.09739" lon="23.577787"><ele>2413</ele><time>2026-03-08T13:15:45.000Z</time></trkpt>
<trkpt lat="42.097387" lon="23.577791"><ele>2413</ele><time>2026-03-08T13:15:46.000Z</time></trkpt>
<trkpt lat="42.097385" lon="23.577795"><ele>2410.9</ele><time>2026-03-08T13:15:47.000Z</time></trkpt>
<trkpt lat="42.097384" lon="23.577799"><ele>2410.9</ele><time>2026-03-08T13:15:48.000Z</time></trkpt>
<trkpt lat="42.097383" lon="23.577804"><ele>2410.9</ele><time>2026-03-08T13:15:49.000Z</time></trkpt>
<trkpt lat="42.097381" lon="23.577809"><ele>2410.9</ele><time>2026-03-08T13:15:50.000Z</time></trkpt>
<trkpt lat="42.097381" lon="23.577813"><ele>2410.9</ele><time>2026-03-08T13:15:51.000Z</time></trkpt>
<trkpt lat="42.09738" lon="23.577818"><ele>2408.7</ele><time>2026-03-08T13:15:52.000Z</time></trkpt>
<trkpt lat="42.097379" lon="23.577824"><ele>2408.7</ele><time>2026-03-08T13:15:53.000Z</time></trkpt>
<trkpt lat="42.097378" lon="23.577829"><ele>2408.7</ele><time>2026-03-08T13:15:54.000Z</time></trkpt>
<trkpt lat="42.097378" lon="23.577834"><ele>2408.7</ele><time>2026-03-08T13:15:55.000Z</time></trkpt>
<trkpt lat="42.097377" lon="23.57784"><ele>2408.7</ele><time>2026-03-08T13:15:56.000Z</time></trkpt>
<trkpt lat="42.097377" lon="23.577844"><ele>2407.8</ele><time>2026-03-08T13:15:57.000Z</time></trkpt>
<trkpt lat="42.097378" lon="23.577848"><ele>2407.8</ele><time>2026-03-08T13:15:58.000Z</time></trkpt>
<trkpt lat="42.097378" lon="23.577852"><ele>2407.8</ele><time>2026-03-08T13:15:59.000Z</time></trkpt>
<trkpt lat="42.097377" lon="23.577856"><ele>2407.8</ele><time>2026-03-08T13:16:00.000Z</time></trkpt>
<trkpt lat="42.097376" lon="23.577859"><ele>2407.8</ele><time>2026-03-08T13:16:01.000Z</time></trkpt>
<trkpt lat="42.097375" lon="23.577865"><ele>2406.3</ele><time>2026-03-08T13:16:02.000Z</time></trkpt>
<trkpt lat="42.097374" lon="23.57787"><ele>2406.3</ele><time>2026-03-08T13:16:03.000Z</time></trkpt>
<trkpt lat="42.097373" lon="23.577876"><ele>2406.3</ele><time>2026-03-08T13:16:04.000Z</time></trkpt>
<trkpt lat="42.097372" lon="23.577881"><ele>2406.3</ele><time>2026-03-08T13:16:05.000Z</time></trkpt>
<trkpt lat="42.09737" lon="23.577889"><ele>2406.3</ele><time>2026-03-08T13:16:06.000Z</time></trkpt>
<trkpt lat="42.097368" lon="23.577896"><ele>2404.7</ele><time>2026-03-08T13:16:07.000Z</time></trkpt>
<trkpt lat="42.097366" lon="23.577903"><ele>2404.7</ele><time>2026-03-08T13:16:08.000Z</time></trkpt>
<trkpt lat="42.097363" lon="23.577911"><ele>2404.7</ele><time>2026-03-08T13:16:09.000Z</time></trkpt>
<trkpt lat="42.09736" lon="23.577918"><ele>2404.7</ele><time>2026-03-08T13:16:10.000Z</time></trkpt>
<trkpt lat="42.097358" lon="23.577925"><ele>2404.7</ele><time>2026-03-08T13:16:11.000Z</time></trkpt>
<trkpt lat="42.097356" lon="23.577932"><ele>2403.8</ele><time>2026-03-08T13:16:12.000Z</time></trkpt>
<trkpt lat="42.097354" lon="23.577939"><ele>2403.8</ele><time>2026-03-08T13:16:13.000Z</time></trkpt>
<trkpt lat="42.097352" lon="23.577945"><ele>2403.8</ele><time>2026-03-08T13:16:14.000Z</time></trkpt>
<trkpt lat="42.097351" lon="23.577952"><ele>2403.8</ele><time>2026-03-08T13:16:15.000Z</time></trkpt>
<trkpt lat="42.09735" lon="23.577958"><ele>2403.8</ele><time>2026-03-08T13:16:16.000Z</time></trkpt>
<trkpt lat="42.097351" lon="23.577964"><ele>2401.9</ele><time>2026-03-08T13:16:17.000Z</time></trkpt>
<trkpt lat="42.097352" lon="23.577971"><ele>2401.9</ele><time>2026-03-08T13:16:18.000Z</time></trkpt>
<trkpt lat="42.097354" lon="23.577977"><ele>2401.9</ele><time>2026-03-08T13:16:19.000Z</time></trkpt>
<trkpt lat="42.097356" lon="23.577984"><ele>2401.9</ele><time>2026-03-08T13:16:20.000Z</time></trkpt>
<trkpt lat="42.097359" lon="23.577991"><ele>2401.9</ele><time>2026-03-08T13:16:21.000Z</time></trkpt>
<trkpt lat="42.097362" lon="23.577998"><ele>2400.1</ele><time>2026-03-08T13:16:22.000Z</time></trkpt>
<trkpt lat="42.097365" lon="23.578004"><ele>2400.1</ele><time>2026-03-08T13:16:23.000Z</time></trkpt>
<trkpt lat="42.097368" lon="23.578011"><ele>2400.1</ele><time>2026-03-08T13:16:24.000Z</time></trkpt>
<trkpt lat="42.097371" lon="23.578019"><ele>2400.1</ele><time>2026-03-08T13:16:25.000Z</time></trkpt>
<trkpt lat="42.097374" lon="23.578026"><ele>2400.1</ele><time>2026-03-08T13:16:26.000Z</time></trkpt>
<trkpt lat="42.097376" lon="23.578035"><ele>2399.3</ele><time>2026-03-08T13:16:27.000Z</time></trkpt>
<trkpt lat="42.097378" lon="23.578045"><ele>2399.3</ele><time>2026-03-08T13:16:28.000Z</time></trkpt>
<trkpt lat="42.097379" lon="23.578054"><ele>2399.3</ele><time>2026-03-08T13:16:29.000Z</time></trkpt>
<trkpt lat="42.097381" lon="23.578062"><ele>2399.3</ele><time>2026-03-08T13:16:30.000Z</time></trkpt>
<trkpt lat="42.097382" lon="23.578069"><ele>2399.3</ele><time>2026-03-08T13:16:31.000Z</time></trkpt>
<trkpt lat="42.097385" lon="23.578076"><ele>2397.8</ele><time>2026-03-08T13:16:32.000Z</time></trkpt>
<trkpt lat="42.097387" lon="23.578082"><ele>2397.8</ele><time>2026-03-08T13:16:33.000Z</time></trkpt>
<trkpt lat="42.097389" lon="23.57809"><ele>2397.8</ele><time>2026-03-08T13:16:34.000Z</time></trkpt>
<trkpt lat="42.09739" lon="23.578099"><ele>2397.8</ele><time>2026-03-08T13:16:35.000Z</time></trkpt>
<trkpt lat="42.097392" lon="23.578108"><ele>2397.8</ele><time>2026-03-08T13:16:36.000Z</time></trkpt>
<trkpt lat="42.097393" lon="23.578116"><ele>2396.2</ele><time>2026-03-08T13:16:37.000Z</time></trkpt>
<trkpt lat="42.097394" lon="23.578126"><ele>2396.2</ele><time>2026-03-08T13:16:38.000Z</time></trkpt>
<trkpt lat="42.097395" lon="23.578134"><ele>2396.2</ele><time>2026-03-08T13:16:39.000Z</time></trkpt>
<trkpt lat="42.097395" lon="23.578144"><ele>2396.2</ele><time>2026-03-08T13:16:40.000Z</time></trkpt>
<trkpt lat="42.097396" lon="23.578154"><ele>2396.2</ele><time>2026-03-08T13:16:41.000Z</time></trkpt>
<trkpt lat="42.097397" lon="23.578164"><ele>2395.5</ele><time>2026-03-08T13:16:42.000Z</time></trkpt>
<trkpt lat="42.097397" lon="23.578174"><ele>2395.5</ele><time>2026-03-08T13:16:43.000Z</time></trkpt>
<trkpt lat="42.097397" lon="23.578183"><ele>2395.5</ele><time>2026-03-08T13:16:44.000Z</time></trkpt>
<trkpt lat="42.097397" lon="23.578193"><ele>2395.5</ele><time>2026-03-08T13:16:45.000Z</time></trkpt>
<trkpt lat="42.097396" lon="23.578203"><ele>2395.5</ele><time>2026-03-08T13:16:46.000Z</time></trkpt>
<trkpt lat="42.097396" lon="23.578212"><ele>2394</ele><time>2026-03-08T13:16:47.000Z</time></trkpt>
<trkpt lat="42.097395" lon="23.578222"><ele>2394</ele><time>2026-03-08T13:16:48.000Z</time></trkpt>
<trkpt lat="42.097396" lon="23.578231"><ele>2394</ele><time>2026-03-08T13:16:49.000Z</time></trkpt>
<trkpt lat="42.097397" lon="23.578241"><ele>2394</ele><time>2026-03-08T13:16:50.000Z</time></trkpt>
<trkpt lat="42.097398" lon="23.578251"><ele>2394</ele><time>2026-03-08T13:16:51.000Z</time></trkpt>
<trkpt lat="42.097398" lon="23.578261"><ele>2392.7</ele><time>2026-03-08T13:16:52.000Z</time></trkpt>
<trkpt lat="42.097399" lon="23.57827"><ele>2392.7</ele><time>2026-03-08T13:16:53.000Z</time></trkpt>
<trkpt lat="42.097398" lon="23.578279"><ele>2392.7</ele><time>2026-03-08T13:16:54.000Z</time></trkpt>
<trkpt lat="42.097398" lon="23.578289"><ele>2392.7</ele><time>2026-03-08T13:16:55.000Z</time></trkpt>
<trkpt lat="42.097398" lon="23.578297"><ele>2392.7</ele><time>2026-03-08T13:16:56.000Z</time></trkpt>
<trkpt lat="42.097397" lon="23.578306"><ele>2392.1</ele><time>2026-03-08T13:16:57.000Z</time></trkpt>
<trkpt lat="42.097397" lon="23.578315"><ele>2392.1</ele><time>2026-03-08T13:16:58.000Z</time></trkpt>
<trkpt lat="42.097397" lon="23.578323"><ele>2392.1</ele><time>2026-03-08T13:16:59.000Z</time></trkpt>
<trkpt lat="42.097397" lon="23.578332"><ele>2392.1</ele><time>2026-03-08T13:17:00.000Z</time></trkpt>
<trkpt lat="42.097396" lon="23.578341"><ele>2392.1</ele><time>2026-03-08T13:17:01.000Z</time></trkpt>
<trkpt lat="42.097396" lon="23.57835"><ele>2390.9</ele><time>2026-03-08T13:17:02.000Z</time></trkpt>
<trkpt lat="42.097395" lon="23.578359"><ele>2390.9</ele><time>2026-03-08T13:17:03.000Z</time></trkpt>
<trkpt lat="42.097394" lon="23.578368"><ele>2390.9</ele><time>2026-03-08T13:17:04.000Z</time></trkpt>
<trkpt lat="42.097393" lon="23.578376"><ele>2390.9</ele><time>2026-03-08T13:17:05.000Z</time></trkpt>
<trkpt lat="42.097392" lon="23.578381"><ele>2390.9</ele><time>2026-03-08T13:17:06.000Z</time></trkpt>
<trkpt lat="42.097393" lon="23.578385"><ele>2389.7</ele><time>2026-03-08T13:17:07.000Z</time></trkpt>
<trkpt lat="42.097393" lon="23.578386"><ele>2389.7</ele><time>2026-03-08T13:17:08.000Z</time></trkpt>
<trkpt lat="42.097394" lon="23.578388"><ele>2389.7</ele><time>2026-03-08T13:17:09.000Z</time></trkpt>
<trkpt lat="42.097395" lon="23.578392"><ele>2389.7</ele><time>2026-03-08T13:17:10.000Z</time></trkpt>
<trkpt lat="42.097394" lon="23.578398"><ele>2389.7</ele><time>2026-03-08T13:17:11.000Z</time></trkpt>
<trkpt lat="42.097393" lon="23.578406"><ele>2389</ele><time>2026-03-08T13:17:12.000Z</time></trkpt>
<trkpt lat="42.097391" lon="23.578415"><ele>2389</ele><time>2026-03-08T13:17:13.000Z</time></trkpt>
<trkpt lat="42.097389" lon="23.578424"><ele>2389</ele><time>2026-03-08T13:17:14.000Z</time></trkpt>
<trkpt lat="42.097387" lon="23.578432"><ele>2389</ele><time>2026-03-08T13:17:15.000Z</time></trkpt>
<trkpt lat="42.097386" lon="23.578439"><ele>2389</ele><time>2026-03-08T13:17:16.000Z</time></trkpt>
<trkpt lat="42.097385" lon="23.578444"><ele>2387.7</ele><time>2026-03-08T13:17:17.000Z</time></trkpt>
<trkpt lat="42.097384" lon="23.578448"><ele>2387.7</ele><time>2026-03-08T13:17:18.000Z</time></trkpt>
<trkpt lat="42.097384" lon="23.57845"><ele>2387.7</ele><time>2026-03-08T13:17:19.000Z</time></trkpt>
<trkpt lat="42.097384" lon="23.578453"><ele>2387.7</ele><time>2026-03-08T13:17:20.000Z</time></trkpt>
<trkpt lat="42.097384" lon="23.578457"><ele>2387.7</ele><time>2026-03-08T13:17:21.000Z</time></trkpt>
<trkpt lat="42.097384" lon="23.578464"><ele>2386.6</ele><time>2026-03-08T13:17:22.000Z</time></trkpt>
<trkpt lat="42.097384" lon="23.578472"><ele>2386.6</ele><time>2026-03-08T13:17:23.000Z</time></trkpt>
<trkpt lat="42.097383" lon="23.578481"><ele>2386.6</ele><time>2026-03-08T13:17:24.000Z</time></trkpt>
<trkpt lat="42.097383" lon="23.578491"><ele>2386.6</ele><time>2026-03-08T13:17:25.000Z</time></trkpt>
<trkpt lat="42.097383" lon="23.578498"><ele>2386.6</ele><time>2026-03-08T13:17:26.000Z</time></trkpt>
<trkpt lat="42.097384" lon="23.578504"><ele>2386.2</ele><time>2026-03-08T13:17:27.000Z</time></trkpt>
<trkpt lat="42.097384" lon="23.578508"><ele>2386.2</ele><time>2026-03-08T13:17:28.000Z</time></trkpt>
<trkpt lat="42.097384" lon="23.578509"><ele>2386.2</ele><time>2026-03-08T13:17:29.000Z</time></trkpt>
<trkpt lat="42.097384" lon="23.578509"><ele>2386.2</ele><time>2026-03-08T13:17:30.000Z</time></trkpt>
<trkpt lat="42.097383" lon="23.578508"><ele>2386.2</ele><time>2026-03-08T13:17:31.000Z</time></trkpt>
<trkpt lat="42.097383" lon="23.578508"><ele>2385.5</ele><time>2026-03-08T13:17:32.000Z</time></trkpt>
<trkpt lat="42.097383" lon="23.578506"><ele>2385.5</ele><time>2026-03-08T13:17:33.000Z</time></trkpt>
<trkpt lat="42.097383" lon="23.578506"><ele>2385.5</ele><time>2026-03-08T13:17:34.000Z</time></trkpt>
<trkpt lat="42.097383" lon="23.578506"><ele>2385.5</ele><time>2026-03-08T13:17:35.000Z</time></trkpt>
<trkpt lat="42.097383" lon="23.578506"><ele>2385.5</ele><time>2026-03-08T13:17:36.000Z</time></trkpt>
<trkpt lat="42.097383" lon="23.578506"><ele>2385.2</ele><time>2026-03-08T13:17:37.000Z</time></trkpt>
<trkpt lat="42.097383" lon="23.578506"><ele>2385.2</ele><time>2026-03-08T13:17:38.000Z</time></trkpt>
<trkpt lat="42.097383" lon="23.578506"><ele>2385.2</ele><time>2026-03-08T13:17:39.000Z</time></trkpt>
<trkpt lat="42.097383" lon="23.578506"><ele>2385.2</ele><time>2026-03-08T13:17:40.000Z</time></trkpt>
<trkpt lat="42.097383" lon="23.578505"><ele>2385.2</ele><time>2026-03-08T13:17:41.000Z</time></trkpt>
<trkpt lat="42.097382" lon="23.578505"><ele>2385</ele><time>2026-03-08T13:17:42.000Z</time></trkpt>
<trkpt lat="42.097382" lon="23.578505"><ele>2385</ele><time>2026-03-08T13:17:43.000Z</time></trkpt>
<trkpt lat="42.097381" lon="23.578504"><ele>2385</ele><time>2026-03-08T13:17:44.000Z</time></trkpt>
<trkpt lat="42.097381" lon="23.578504"><ele>2385</ele><time>2026-03-08T13:17:45.000Z</time></trkpt>
<trkpt lat="42.097381" lon="23.578504"><ele>2385</ele><time>2026-03-08T13:17:46.000Z</time></trkpt>
<trkpt lat="42.097381" lon="23.578504"><ele>2385</ele><time>2026-03-08T13:17:47.000Z</time></trkpt>
<trkpt lat="42.097381" lon="23.578504"><ele>2385</ele><time>2026-03-08T13:17:48.000Z</time></trkpt>
<trkpt lat="42.097381" lon="23.578505"><ele>2385</ele><time>2026-03-08T13:17:49.000Z</time></trkpt>
<trkpt lat="42.09738" lon="23.578506"><ele>2385</ele><time>2026-03-08T13:17:50.000Z</time></trkpt>
<trkpt lat="42.09738" lon="23.578507"><ele>2385</ele><time>2026-03-08T13:17:51.000Z</time></trkpt>
<trkpt lat="42.09738" lon="23.578508"><ele>2385</ele><time>2026-03-08T13:17:52.000Z</time></trkpt>
<trkpt lat="42.097381" lon="23.578509"><ele>2385</ele><time>2026-03-08T13:17:53.000Z</time></trkpt>
<trkpt lat="42.097381" lon="23.578509"><ele>2385</ele><time>2026-03-08T13:17:54.000Z</time></trkpt>
<trkpt lat="42.097381" lon="23.578509"><ele>2385</ele><time>2026-03-08T13:17:55.000Z</time></trkpt>
<trkpt lat="42.097381" lon="23.578508"><ele>2385</ele><time>2026-03-08T13:17:56.000Z</time></trkpt>
<trkpt lat="42.097381" lon="23.578508"><ele>2385</ele><time>2026-03-08T13:17:57.000Z</time></trkpt>
<trkpt lat="42.097381" lon="23.578508"><ele>2385</ele><time>2026-03-08T13:17:58.000Z</time></trkpt>
<trkpt lat="42.097381" lon="23.578508"><ele>2385</ele><time>2026-03-08T13:17:59.000Z</time></trkpt>
<trkpt lat="42.097381" lon="23.578508"><ele>2385</ele><time>2026-03-08T13:18:00.000Z</time></trkpt>
<trkpt lat="42.097381" lon="23.578508"><ele>2385</ele><time>2026-03-08T13:18:01.000Z</time></trkpt>
<trkpt lat="42.097381" lon="23.578508"><ele>2385.1</ele><time>2026-03-08T13:18:02.000Z</time></trkpt>
<trkpt lat="42.09738" lon="23.578507"><ele>2385.1</ele><time>2026-03-08T13:18:03.000Z</time></trkpt>
<trkpt lat="42.097379" lon="23.578506"><ele>2385.1</ele><time>2026-03-08T13:18:04.000Z</time></trkpt>
<trkpt lat="42.097378" lon="23.578505"><ele>2385.1</ele><time>2026-03-08T13:18:05.000Z</time></trkpt>
<trkpt lat="42.097378" lon="23.578504"><ele>2385.1</ele><time>2026-03-08T13:18:06.000Z</time></trkpt>
<trkpt lat="42.097378" lon="23.578503"><ele>2385.2</ele><time>2026-03-08T13:18:07.000Z</time></trkpt>
<trkpt lat="42.097379" lon="23.578504"><ele>2385.2</ele><time>2026-03-08T13:18:08.000Z</time></trkpt>
<trkpt lat="42.097379" lon="23.578505"><ele>2385.2</ele><time>2026-03-08T13:18:09.000Z</time></trkpt>
<trkpt lat="42.09738" lon="23.578506"><ele>2385.2</ele><time>2026-03-08T13:18:10.000Z</time></trkpt>
<trkpt lat="42.09738" lon="23.57851"><ele>2385.2</ele><time>2026-03-08T13:18:11.000Z</time></trkpt>
<trkpt lat="42.09738" lon="23.578515"><ele>2385.2</ele><time>2026-03-08T13:18:12.000Z</time></trkpt>
<trkpt lat="42.09738" lon="23.578521"><ele>2385.2</ele><time>2026-03-08T13:18:13.000Z</time></trkpt>
<trkpt lat="42.097381" lon="23.578528"><ele>2385.2</ele><time>2026-03-08T13:18:14.000Z</time></trkpt>
<trkpt lat="42.09738" lon="23.578536"><ele>2385.2</ele><time>2026-03-08T13:18:15.000Z</time></trkpt>
<trkpt lat="42.097381" lon="23.578545"><ele>2385.2</ele><time>2026-03-08T13:18:16.000Z</time></trkpt>
<trkpt lat="42.097381" lon="23.578554"><ele>2385.1</ele><time>2026-03-08T13:18:17.000Z</time></trkpt>
<trkpt lat="42.097383" lon="23.578564"><ele>2385.1</ele><time>2026-03-08T13:18:18.000Z</time></trkpt>
<trkpt lat="42.097385" lon="23.578574"><ele>2385.1</ele><time>2026-03-08T13:18:19.000Z</time></trkpt>
<trkpt lat="42.097388" lon="23.578584"><ele>2385.1</ele><time>2026-03-08T13:18:20.000Z</time></trkpt>
<trkpt lat="42.097392" lon="23.578594"><ele>2385.1</ele><time>2026-03-08T13:18:21.000Z</time></trkpt>
<trkpt lat="42.097396" lon="23.578602"><ele>2384.9</ele><time>2026-03-08T13:18:22.000Z</time></trkpt>
<trkpt lat="42.0974" lon="23.578611"><ele>2384.9</ele><time>2026-03-08T13:18:23.000Z</time></trkpt>
<trkpt lat="42.097403" lon="23.578621"><ele>2384.9</ele><time>2026-03-08T13:18:24.000Z</time></trkpt>
<trkpt lat="42.097406" lon="23.57863"><ele>2384.9</ele><time>2026-03-08T13:18:25.000Z</time></trkpt>
<trkpt lat="42.097409" lon="23.578639"><ele>2384.9</ele><time>2026-03-08T13:18:26.000Z</time></trkpt>
<trkpt lat="42.097411" lon="23.578648"><ele>2384.6</ele><time>2026-03-08T13:18:27.000Z</time></trkpt>
<trkpt lat="42.097414" lon="23.578656"><ele>2384.6</ele><time>2026-03-08T13:18:28.000Z</time></trkpt>
<trkpt lat="42.097416" lon="23.578663"><ele>2384.6</ele><time>2026-03-08T13:18:29.000Z</time></trkpt>
<trkpt lat="42.097417" lon="23.578669"><ele>2384.6</ele><time>2026-03-08T13:18:30.000Z</time></trkpt>
<trkpt lat="42.097419" lon="23.578676"><ele>2384.6</ele><time>2026-03-08T13:18:31.000Z</time></trkpt>
<trkpt lat="42.097422" lon="23.578681"><ele>2384.2</ele><time>2026-03-08T13:18:32.000Z</time></trkpt>
<trkpt lat="42.097424" lon="23.578686"><ele>2384.2</ele><time>2026-03-08T13:18:33.000Z</time></trkpt>
<trkpt lat="42.097426" lon="23.57869"><ele>2384.2</ele><time>2026-03-08T13:18:34.000Z</time></trkpt>
<trkpt lat="42.097428" lon="23.578696"><ele>2384.2</ele><time>2026-03-08T13:18:35.000Z</time></trkpt>
<trkpt lat="42.09743" lon="23.578702"><ele>2384.2</ele><time>2026-03-08T13:18:36.000Z</time></trkpt>
<trkpt lat="42.097432" lon="23.578708"><ele>2383.5</ele><time>2026-03-08T13:18:37.000Z</time></trkpt>
<trkpt lat="42.097434" lon="23.578714"><ele>2383.5</ele><time>2026-03-08T13:18:38.000Z</time></trkpt>
<trkpt lat="42.097436" lon="23.57872"><ele>2383.5</ele><time>2026-03-08T13:18:39.000Z</time></trkpt>
<trkpt lat="42.097438" lon="23.578725"><ele>2383.5</ele><time>2026-03-08T13:18:40.000Z</time></trkpt>
<trkpt lat="42.097441" lon="23.57873"><ele>2383.5</ele><time>2026-03-08T13:18:41.000Z</time></trkpt>
<trkpt lat="42.097444" lon="23.578734"><ele>2383</ele><time>2026-03-08T13:18:42.000Z</time></trkpt>
<trkpt lat="42.097447" lon="23.578739"><ele>2383</ele><time>2026-03-08T13:18:43.000Z</time></trkpt>
<trkpt lat="42.09745" lon="23.578745"><ele>2383</ele><time>2026-03-08T13:18:44.000Z</time></trkpt>
<trkpt lat="42.097453" lon="23.578751"><ele>2383</ele><time>2026-03-08T13:18:45.000Z</time></trkpt>
<trkpt lat="42.097455" lon="23.578756"><ele>2383</ele><time>2026-03-08T13:18:46.000Z</time></trkpt>
<trkpt lat="42.097458" lon="23.578764"><ele>2381.8</ele><time>2026-03-08T13:18:47.000Z</time></trkpt>
<trkpt lat="42.09746" lon="23.578773"><ele>2381.8</ele><time>2026-03-08T13:18:48.000Z</time></trkpt>
<trkpt lat="42.097462" lon="23.578782"><ele>2381.8</ele><time>2026-03-08T13:18:49.000Z</time></trkpt>
<trkpt lat="42.097463" lon="23.578792"><ele>2381.8</ele><time>2026-03-08T13:18:50.000Z</time></trkpt>
<trkpt lat="42.097464" lon="23.5788"><ele>2381.8</ele><time>2026-03-08T13:18:51.000Z</time></trkpt>
<trkpt lat="42.097464" lon="23.578805"><ele>2380.6</ele><time>2026-03-08T13:18:52.000Z</time></trkpt>
<trkpt lat="42.097464" lon="23.578809"><ele>2380.6</ele><time>2026-03-08T13:18:53.000Z</time></trkpt>
<trkpt lat="42.097464" lon="23.578811"><ele>2380.6</ele><time>2026-03-08T13:18:54.000Z</time></trkpt>
<trkpt lat="42.097463" lon="23.57881"><ele>2380.6</ele><time>2026-03-08T13:18:55.000Z</time></trkpt>
<trkpt lat="42.097463" lon="23.57881"><ele>2380.6</ele><time>2026-03-08T13:18:56.000Z</time></trkpt>
<trkpt lat="42.097462" lon="23.57881"><ele>2380</ele><time>2026-03-08T13:18:57.000Z</time></trkpt>
<trkpt lat="42.097462" lon="23.57881"><ele>2380</ele><time>2026-03-08T13:18:58.000Z</time></trkpt>
<trkpt lat="42.097461" lon="23.578809"><ele>2380</ele><time>2026-03-08T13:18:59.000Z</time></trkpt>
<trkpt lat="42.097461" lon="23.57881"><ele>2380</ele><time>2026-03-08T13:19:00.000Z</time></trkpt>
<trkpt lat="42.097461" lon="23.57881"><ele>2380</ele><time>2026-03-08T13:19:01.000Z</time></trkpt>
<trkpt lat="42.09746" lon="23.578812"><ele>2379.1</ele><time>2026-03-08T13:19:02.000Z</time></trkpt>
<trkpt lat="42.097459" lon="23.578815"><ele>2379.1</ele><time>2026-03-08T13:19:03.000Z</time></trkpt>
<trkpt lat="42.097459" lon="23.578819"><ele>2379.1</ele><time>2026-03-08T13:19:04.000Z</time></trkpt>
<trkpt lat="42.09746" lon="23.578824"><ele>2379.1</ele><time>2026-03-08T13:19:05.000Z</time></trkpt>
<trkpt lat="42.097459" lon="23.57883"><ele>2379.1</ele><time>2026-03-08T13:19:06.000Z</time></trkpt>
<trkpt lat="42.097461" lon="23.578838"><ele>2378.5</ele><time>2026-03-08T13:19:07.000Z</time></trkpt>
<trkpt lat="42.097461" lon="23.578846"><ele>2378.5</ele><time>2026-03-08T13:19:08.000Z</time></trkpt>
<trkpt lat="42.097462" lon="23.578855"><ele>2378.5</ele><time>2026-03-08T13:19:09.000Z</time></trkpt>
<trkpt lat="42.097463" lon="23.578863"><ele>2378.5</ele><time>2026-03-08T13:19:10.000Z</time></trkpt>
<trkpt lat="42.097463" lon="23.57887"><ele>2378.5</ele><time>2026-03-08T13:19:11.000Z</time></trkpt>
<trkpt lat="42.097464" lon="23.578875"><ele>2378.3</ele><time>2026-03-08T13:19:12.000Z</time></trkpt>
<trkpt lat="42.097464" lon="23.578879"><ele>2378.3</ele><time>2026-03-08T13:19:13.000Z</time></trkpt>
<trkpt lat="42.097463" lon="23.578883"><ele>2378.3</ele><time>2026-03-08T13:19:14.000Z</time></trkpt>
<trkpt lat="42.097463" lon="23.578887"><ele>2378.3</ele><time>2026-03-08T13:19:15.000Z</time></trkpt>
<trkpt lat="42.097463" lon="23.578893"><ele>2378.3</ele><time>2026-03-08T13:19:16.000Z</time></trkpt>
<trkpt lat="42.097464" lon="23.578901"><ele>2378</ele><time>2026-03-08T13:19:17.000Z</time></trkpt>
<trkpt lat="42.097465" lon="23.578912"><ele>2378</ele><time>2026-03-08T13:19:18.000Z</time></trkpt>
<trkpt lat="42.097466" lon="23.578924"><ele>2378</ele><time>2026-03-08T13:19:19.000Z</time></trkpt>
<trkpt lat="42.097469" lon="23.578936"><ele>2378</ele><time>2026-03-08T13:19:20.000Z</time></trkpt>
<trkpt lat="42.097472" lon="23.578948"><ele>2378</ele><time>2026-03-08T13:19:21.000Z</time></trkpt>
<trkpt lat="42.097475" lon="23.57896"><ele>2377.4</ele><time>2026-03-08T13:19:22.000Z</time></trkpt>
<trkpt lat="42.097479" lon="23.578972"><ele>2377.4</ele><time>2026-03-08T13:19:23.000Z</time></trkpt>
<trkpt lat="42.097484" lon="23.578983"><ele>2377.4</ele><time>2026-03-08T13:19:24.000Z</time></trkpt>
<trkpt lat="42.09749" lon="23.578995"><ele>2377.4</ele><time>2026-03-08T13:19:25.000Z</time></trkpt>
<trkpt lat="42.097496" lon="23.579008"><ele>2377.4</ele><time>2026-03-08T13:19:26.000Z</time></trkpt>
<trkpt lat="42.097501" lon="23.579022"><ele>2377.1</ele><time>2026-03-08T13:19:27.000Z</time></trkpt>
<trkpt lat="42.097506" lon="23.579036"><ele>2377.1</ele><time>2026-03-08T13:19:28.000Z</time></trkpt>
<trkpt lat="42.09751" lon="23.57905"><ele>2377.1</ele><time>2026-03-08T13:19:29.000Z</time></trkpt>
<trkpt lat="42.097514" lon="23.579065"><ele>2377.1</ele><time>2026-03-08T13:19:30.000Z</time></trkpt>
<trkpt lat="42.097518" lon="23.57908"><ele>2377.1</ele><time>2026-03-08T13:19:31.000Z</time></trkpt>
<trkpt lat="42.097521" lon="23.579095"><ele>2376.3</ele><time>2026-03-08T13:19:32.000Z</time></trkpt>
<trkpt lat="42.097524" lon="23.57911"><ele>2376.3</ele><time>2026-03-08T13:19:33.000Z</time></trkpt>
<trkpt lat="42.097527" lon="23.579125"><ele>2376.3</ele><time>2026-03-08T13:19:34.000Z</time></trkpt>
<trkpt lat="42.09753" lon="23.57914"><ele>2376.3</ele><time>2026-03-08T13:19:35.000Z</time></trkpt>
<trkpt lat="42.097532" lon="23.579155"><ele>2376.3</ele><time>2026-03-08T13:19:36.000Z</time></trkpt>
<trkpt lat="42.097535" lon="23.579169"><ele>2375.5</ele><time>2026-03-08T13:19:37.000Z</time></trkpt>
<trkpt lat="42.097538" lon="23.579183"><ele>2375.5</ele><time>2026-03-08T13:19:38.000Z</time></trkpt>
<trkpt lat="42.097542" lon="23.579198"><ele>2375.5</ele><time>2026-03-08T13:19:39.000Z</time></trkpt>
<trkpt lat="42.097546" lon="23.579214"><ele>2375.5</ele><time>2026-03-08T13:19:40.000Z</time></trkpt>
<trkpt lat="42.097549" lon="23.57923"><ele>2375.5</ele><time>2026-03-08T13:19:41.000Z</time></trkpt>
<trkpt lat="42.097552" lon="23.579247"><ele>2375.1</ele><time>2026-03-08T13:19:42.000Z</time></trkpt>
<trkpt lat="42.097555" lon="23.579264"><ele>2375.1</ele><time>2026-03-08T13:19:43.000Z</time></trkpt>
<trkpt lat="42.097557" lon="23.57928"><ele>2375.1</ele><time>2026-03-08T13:19:44.000Z</time></trkpt>
<trkpt lat="42.09756" lon="23.579296"><ele>2375.1</ele><time>2026-03-08T13:19:45.000Z</time></trkpt>
<trkpt lat="42.097562" lon="23.579312"><ele>2375.1</ele><time>2026-03-08T13:19:46.000Z</time></trkpt>
<trkpt lat="42.097565" lon="23.579327"><ele>2374.3</ele><time>2026-03-08T13:19:47.000Z</time></trkpt>
<trkpt lat="42.097567" lon="23.579343"><ele>2374.3</ele><time>2026-03-08T13:19:48.000Z</time></trkpt>
<trkpt lat="42.09757" lon="23.57936"><ele>2374.3</ele><time>2026-03-08T13:19:49.000Z</time></trkpt>
<trkpt lat="42.097572" lon="23.579376"><ele>2374.3</ele><time>2026-03-08T13:19:50.000Z</time></trkpt>
<trkpt lat="42.097574" lon="23.579393"><ele>2374.3</ele><time>2026-03-08T13:19:51.000Z</time></trkpt>
<trkpt lat="42.097575" lon="23.57941"><ele>2373.5</ele><time>2026-03-08T13:19:52.000Z</time></trkpt>
<trkpt lat="42.097576" lon="23.579427"><ele>2373.5</ele><time>2026-03-08T13:19:53.000Z</time></trkpt>
<trkpt lat="42.097578" lon="23.579444"><ele>2373.5</ele><time>2026-03-08T13:19:54.000Z</time></trkpt>
<trkpt lat="42.097581" lon="23.57946"><ele>2373.5</ele><time>2026-03-08T13:19:55.000Z</time></trkpt>
<trkpt lat="42.097583" lon="23.579477"><ele>2373.5</ele><time>2026-03-08T13:19:56.000Z</time></trkpt>
<trkpt lat="42.097587" lon="23.579492"><ele>2373.2</ele><time>2026-03-08T13:19:57.000Z</time></trkpt>
<trkpt lat="42.097591" lon="23.579509"><ele>2373.2</ele><time>2026-03-08T13:19:58.000Z</time></trkpt>
<trkpt lat="42.097594" lon="23.579526"><ele>2373.2</ele><time>2026-03-08T13:19:59.000Z</time></trkpt>
<trkpt lat="42.097596" lon="23.579545"><ele>2373.2</ele><time>2026-03-08T13:20:00.000Z</time></trkpt>
<trkpt lat="42.097598" lon="23.579563"><ele>2373.2</ele><time>2026-03-08T13:20:01.000Z</time></trkpt>
<trkpt lat="42.0976" lon="23.579582"><ele>2372.7</ele><time>2026-03-08T13:20:02.000Z</time></trkpt>
<trkpt lat="42.097602" lon="23.5796"><ele>2372.7</ele><time>2026-03-08T13:20:03.000Z</time></trkpt>
<trkpt lat="42.097605" lon="23.579617"><ele>2372.7</ele><time>2026-03-08T13:20:04.000Z</time></trkpt>
<trkpt lat="42.097609" lon="23.579633"><ele>2372.7</ele><time>2026-03-08T13:20:05.000Z</time></trkpt>
<trkpt lat="42.097612" lon="23.579648"><ele>2372.7</ele><time>2026-03-08T13:20:06.000Z</time></trkpt>
<trkpt lat="42.097616" lon="23.579664"><ele>2372.5</ele><time>2026-03-08T13:20:07.000Z</time></trkpt>
<trkpt lat="42.097619" lon="23.57968"><ele>2372.5</ele><time>2026-03-08T13:20:08.000Z</time></trkpt>
<trkpt lat="42.097622" lon="23.579696"><ele>2372.5</ele><time>2026-03-08T13:20:09.000Z</time></trkpt>
<trkpt lat="42.097625" lon="23.579712"><ele>2372.5</ele><time>2026-03-08T13:20:10.000Z</time></trkpt>
<trkpt lat="42.097627" lon="23.579729"><ele>2372.5</ele><time>2026-03-08T13:20:11.000Z</time></trkpt>
<trkpt lat="42.09763" lon="23.579744"><ele>2372.3</ele><time>2026-03-08T13:20:12.000Z</time></trkpt>
<trkpt lat="42.097632" lon="23.579759"><ele>2372.3</ele><time>2026-03-08T13:20:13.000Z</time></trkpt>
<trkpt lat="42.097635" lon="23.579774"><ele>2372.3</ele><time>2026-03-08T13:20:14.000Z</time></trkpt>
<trkpt lat="42.097637" lon="23.579788"><ele>2372.3</ele><time>2026-03-08T13:20:15.000Z</time></trkpt>
<trkpt lat="42.09764" lon="23.579802"><ele>2372.3</ele><time>2026-03-08T13:20:16.000Z</time></trkpt>
<trkpt lat="42.097643" lon="23.579816"><ele>2371.7</ele><time>2026-03-08T13:20:17.000Z</time></trkpt>
<trkpt lat="42.097647" lon="23.579831"><ele>2371.7</ele><time>2026-03-08T13:20:18.000Z</time></trkpt>
<trkpt lat="42.09765" lon="23.579846"><ele>2371.7</ele><time>2026-03-08T13:20:19.000Z</time></trkpt>
<trkpt lat="42.097654" lon="23.579861"><ele>2371.7</ele><time>2026-03-08T13:20:20.000Z</time></trkpt>
<trkpt lat="42.097658" lon="23.579875"><ele>2371.7</ele><time>2026-03-08T13:20:21.000Z</time></trkpt>
<trkpt lat="42.097662" lon="23.579889"><ele>2371</ele><time>2026-03-08T13:20:22.000Z</time></trkpt>
<trkpt lat="42.097667" lon="23.579903"><ele>2371</ele><time>2026-03-08T13:20:23.000Z</time></trkpt>
<trkpt lat="42.097675" lon="23.579916"><ele>2371</ele><time>2026-03-08T13:20:24.000Z</time></trkpt>
<trkpt lat="42.097683" lon="23.579928"><ele>2371</ele><time>2026-03-08T13:20:25.000Z</time></trkpt>
<trkpt lat="42.097692" lon="23.579941"><ele>2371</ele><time>2026-03-08T13:20:26.000Z</time></trkpt>
<trkpt lat="42.097701" lon="23.579955"><ele>2370.7</ele><time>2026-03-08T13:20:27.000Z</time></trkpt>
<trkpt lat="42.09771" lon="23.579967"><ele>2370.7</ele><time>2026-03-08T13:20:28.000Z</time></trkpt>
<trkpt lat="42.097718" lon="23.579977"><ele>2370.7</ele><time>2026-03-08T13:20:29.000Z</time></trkpt>
<trkpt lat="42.097727" lon="23.579988"><ele>2370.7</ele><time>2026-03-08T13:20:30.000Z</time></trkpt>
<trkpt lat="42.097736" lon="23.579998"><ele>2370.7</ele><time>2026-03-08T13:20:31.000Z</time></trkpt>
<trkpt lat="42.097746" lon="23.580007"><ele>2370</ele><time>2026-03-08T13:20:32.000Z</time></trkpt>
<trkpt lat="42.097755" lon="23.580017"><ele>2370</ele><time>2026-03-08T13:20:33.000Z</time></trkpt>
<trkpt lat="42.097763" lon="23.580029"><ele>2370</ele><time>2026-03-08T13:20:34.000Z</time></trkpt>
<trkpt lat="42.09777" lon="23.58004"><ele>2370</ele><time>2026-03-08T13:20:35.000Z</time></trkpt>
<trkpt lat="42.097775" lon="23.580052"><ele>2370</ele><time>2026-03-08T13:20:36.000Z</time></trkpt>
<trkpt lat="42.09778" lon="23.580064"><ele>2369.5</ele><time>2026-03-08T13:20:37.000Z</time></trkpt>
<trkpt lat="42.097785" lon="23.580076"><ele>2369.5</ele><time>2026-03-08T13:20:38.000Z</time></trkpt>
<trkpt lat="42.097789" lon="23.580089"><ele>2369.5</ele><time>2026-03-08T13:20:39.000Z</time></trkpt>
<trkpt lat="42.097794" lon="23.580103"><ele>2369.5</ele><time>2026-03-08T13:20:40.000Z</time></trkpt>
<trkpt lat="42.097798" lon="23.580119"><ele>2369.5</ele><time>2026-03-08T13:20:41.000Z</time></trkpt>
<trkpt lat="42.097801" lon="23.580135"><ele>2369.3</ele><time>2026-03-08T13:20:42.000Z</time></trkpt>
<trkpt lat="42.097805" lon="23.580151"><ele>2369.3</ele><time>2026-03-08T13:20:43.000Z</time></trkpt>
<trkpt lat="42.097808" lon="23.580168"><ele>2369.3</ele><time>2026-03-08T13:20:44.000Z</time></trkpt>
<trkpt lat="42.09781" lon="23.580184"><ele>2369.3</ele><time>2026-03-08T13:20:45.000Z</time></trkpt>
<trkpt lat="42.097812" lon="23.580201"><ele>2369.3</ele><time>2026-03-08T13:20:46.000Z</time></trkpt>
<trkpt lat="42.097813" lon="23.580217"><ele>2368.8</ele><time>2026-03-08T13:20:47.000Z</time></trkpt>
<trkpt lat="42.097814" lon="23.580234"><ele>2368.8</ele><time>2026-03-08T13:20:48.000Z</time></trkpt>
<trkpt lat="42.097814" lon="23.580251"><ele>2368.8</ele><time>2026-03-08T13:20:49.000Z</time></trkpt>
<trkpt lat="42.097815" lon="23.580268"><ele>2368.8</ele><time>2026-03-08T13:20:50.000Z</time></trkpt>
<trkpt lat="42.097817" lon="23.580285"><ele>2368.8</ele><time>2026-03-08T13:20:51.000Z</time></trkpt>
<trkpt lat="42.09782" lon="23.580302"><ele>2368.5</ele><time>2026-03-08T13:20:52.000Z</time></trkpt>
<trkpt lat="42.097823" lon="23.580318"><ele>2368.5</ele><time>2026-03-08T13:20:53.000Z</time></trkpt>
<trkpt lat="42.097827" lon="23.580335"><ele>2368.5</ele><time>2026-03-08T13:20:54.000Z</time></trkpt>
<trkpt lat="42.097832" lon="23.580352"><ele>2368.5</ele><time>2026-03-08T13:20:55.000Z</time></trkpt>
<trkpt lat="42.097836" lon="23.580368"><ele>2368.5</ele><time>2026-03-08T13:20:56.000Z</time></trkpt>
<trkpt lat="42.09784" lon="23.580383"><ele>2368.3</ele><time>2026-03-08T13:20:57.000Z</time></trkpt>
<trkpt lat="42.097844" lon="23.580399"><ele>2368.3</ele><time>2026-03-08T13:20:58.000Z</time></trkpt>
<trkpt lat="42.097848" lon="23.580415"><ele>2368.3</ele><time>2026-03-08T13:20:59.000Z</time></trkpt>
<trkpt lat="42.097853" lon="23.580431"><ele>2368.3</ele><time>2026-03-08T13:21:00.000Z</time></trkpt>
<trkpt lat="42.097857" lon="23.580446"><ele>2368.3</ele><time>2026-03-08T13:21:01.000Z</time></trkpt>
<trkpt lat="42.097863" lon="23.580461"><ele>2368</ele><time>2026-03-08T13:21:02.000Z</time></trkpt>
<trkpt lat="42.097869" lon="23.580475"><ele>2368</ele><time>2026-03-08T13:21:03.000Z</time></trkpt>
<trkpt lat="42.097876" lon="23.580487"><ele>2368</ele><time>2026-03-08T13:21:04.000Z</time></trkpt>
<trkpt lat="42.097883" lon="23.580498"><ele>2368</ele><time>2026-03-08T13:21:05.000Z</time></trkpt>
<trkpt lat="42.097891" lon="23.580507"><ele>2368</ele><time>2026-03-08T13:21:06.000Z</time></trkpt>
<trkpt lat="42.0979" lon="23.580516"><ele>2367.6</ele><time>2026-03-08T13:21:07.000Z</time></trkpt>
<trkpt lat="42.09791" lon="23.580524"><ele>2367.6</ele><time>2026-03-08T13:21:08.000Z</time></trkpt>
<trkpt lat="42.097919" lon="23.580532"><ele>2367.6</ele><time>2026-03-08T13:21:09.000Z</time></trkpt>
<trkpt lat="42.097929" lon="23.580541"><ele>2367.6</ele><time>2026-03-08T13:21:10.000Z</time></trkpt>
<trkpt lat="42.097938" lon="23.580549"><ele>2367.6</ele><time>2026-03-08T13:21:11.000Z</time></trkpt>
<trkpt lat="42.097947" lon="23.580558"><ele>2367.4</ele><time>2026-03-08T13:21:12.000Z</time></trkpt>
<trkpt lat="42.097955" lon="23.580568"><ele>2367.4</ele><time>2026-03-08T13:21:13.000Z</time></trkpt>
<trkpt lat="42.097963" lon="23.580578"><ele>2367.4</ele><time>2026-03-08T13:21:14.000Z</time></trkpt>
<trkpt lat="42.097971" lon="23.580588"><ele>2367.4</ele><time>2026-03-08T13:21:15.000Z</time></trkpt>
<trkpt lat="42.097979" lon="23.580599"><ele>2367.4</ele><time>2026-03-08T13:21:16.000Z</time></trkpt>
<trkpt lat="42.097988" lon="23.58061"><ele>2366.9</ele><time>2026-03-08T13:21:17.000Z</time></trkpt>
<trkpt lat="42.097996" lon="23.580622"><ele>2366.9</ele><time>2026-03-08T13:21:18.000Z</time></trkpt>
<trkpt lat="42.098004" lon="23.580633"><ele>2366.9</ele><time>2026-03-08T13:21:19.000Z</time></trkpt>
<trkpt lat="42.098012" lon="23.580645"><ele>2366.9</ele><time>2026-03-08T13:21:20.000Z</time></trkpt>
<trkpt lat="42.09802" lon="23.580658"><ele>2366.9</ele><time>2026-03-08T13:21:21.000Z</time></trkpt>
<trkpt lat="42.098029" lon="23.580669"><ele>2366.2</ele><time>2026-03-08T13:21:22.000Z</time></trkpt>
<trkpt lat="42.098037" lon="23.580679"><ele>2366.2</ele><time>2026-03-08T13:21:23.000Z</time></trkpt>
<trkpt lat="42.098046" lon="23.580688"><ele>2366.2</ele><time>2026-03-08T13:21:24.000Z</time></trkpt>
<trkpt lat="42.098055" lon="23.580696"><ele>2366.2</ele><time>2026-03-08T13:21:25.000Z</time></trkpt>
<trkpt lat="42.098063" lon="23.580702"><ele>2366.2</ele><time>2026-03-08T13:21:26.000Z</time></trkpt>
<trkpt lat="42.098071" lon="23.58071"><ele>2365.9</ele><time>2026-03-08T13:21:27.000Z</time></trkpt>
<trkpt lat="42.09808" lon="23.580717"><ele>2365.9</ele><time>2026-03-08T13:21:28.000Z</time></trkpt>
<trkpt lat="42.098088" lon="23.580724"><ele>2365.9</ele><time>2026-03-08T13:21:29.000Z</time></trkpt>
<trkpt lat="42.098098" lon="23.580731"><ele>2365.9</ele><time>2026-03-08T13:21:30.000Z</time></trkpt>
<trkpt lat="42.098108" lon="23.580737"><ele>2365.9</ele><time>2026-03-08T13:21:31.000Z</time></trkpt>
<trkpt lat="42.098118" lon="23.580742"><ele>2365.2</ele><time>2026-03-08T13:21:32.000Z</time></trkpt>
<trkpt lat="42.098129" lon="23.580747"><ele>2365.2</ele><time>2026-03-08T13:21:33.000Z</time></trkpt>
<trkpt lat="42.098139" lon="23.580751"><ele>2365.2</ele><time>2026-03-08T13:21:34.000Z</time></trkpt>
<trkpt lat="42.09815" lon="23.580755"><ele>2365.2</ele><time>2026-03-08T13:21:35.000Z</time></trkpt>
<trkpt lat="42.09816" lon="23.58076"><ele>2365.2</ele><time>2026-03-08T13:21:36.000Z</time></trkpt>
<trkpt lat="42.09817" lon="23.580764"><ele>2364.3</ele><time>2026-03-08T13:21:37.000Z</time></trkpt>
<trkpt lat="42.098181" lon="23.580769"><ele>2364.3</ele><time>2026-03-08T13:21:38.000Z</time></trkpt>
<trkpt lat="42.098192" lon="23.580774"><ele>2364.3</ele><time>2026-03-08T13:21:39.000Z</time></trkpt>
<trkpt lat="42.098203" lon="23.580779"><ele>2364.3</ele><time>2026-03-08T13:21:40.000Z</time></trkpt>
<trkpt lat="42.098215" lon="23.580784"><ele>2364.3</ele><time>2026-03-08T13:21:41.000Z</time></trkpt>
<trkpt lat="42.098225" lon="23.580789"><ele>2363.7</ele><time>2026-03-08T13:21:42.000Z</time></trkpt>
<trkpt lat="42.098235" lon="23.580793"><ele>2363.7</ele><time>2026-03-08T13:21:43.000Z</time></trkpt>
<trkpt lat="42.098244" lon="23.580799"><ele>2363.7</ele><time>2026-03-08T13:21:44.000Z</time></trkpt>
<trkpt lat="42.098254" lon="23.580806"><ele>2363.7</ele><time>2026-03-08T13:21:45.000Z</time></trkpt>
<trkpt lat="42.098261" lon="23.580814"><ele>2363.7</ele><time>2026-03-08T13:21:46.000Z</time></trkpt>
<trkpt lat="42.098268" lon="23.580823"><ele>2362.2</ele><time>2026-03-08T13:21:47.000Z</time></trkpt>
<trkpt lat="42.098274" lon="23.580834"><ele>2362.2</ele><time>2026-03-08T13:21:48.000Z</time></trkpt>
<trkpt lat="42.098279" lon="23.580846"><ele>2362.2</ele><time>2026-03-08T13:21:49.000Z</time></trkpt>
<trkpt lat="42.098284" lon="23.580856"><ele>2362.2</ele><time>2026-03-08T13:21:50.000Z</time></trkpt>
<trkpt lat="42.098288" lon="23.580866"><ele>2362.2</ele><time>2026-03-08T13:21:51.000Z</time></trkpt>
<trkpt lat="42.098295" lon="23.580876"><ele>2360.9</ele><time>2026-03-08T13:21:52.000Z</time></trkpt>
<trkpt lat="42.098303" lon="23.580885"><ele>2360.9</ele><time>2026-03-08T13:21:53.000Z</time></trkpt>
<trkpt lat="42.098313" lon="23.580893"><ele>2360.9</ele><time>2026-03-08T13:21:54.000Z</time></trkpt>
<trkpt lat="42.098324" lon="23.580898"><ele>2360.9</ele><time>2026-03-08T13:21:55.000Z</time></trkpt>
<trkpt lat="42.098337" lon="23.580902"><ele>2360.9</ele><time>2026-03-08T13:21:56.000Z</time></trkpt>
<trkpt lat="42.098348" lon="23.580904"><ele>2360.5</ele><time>2026-03-08T13:21:57.000Z</time></trkpt>
<trkpt lat="42.098359" lon="23.580904"><ele>2360.5</ele><time>2026-03-08T13:21:58.000Z</time></trkpt>
<trkpt lat="42.09837" lon="23.580904"><ele>2360.5</ele><time>2026-03-08T13:21:59.000Z</time></trkpt>
<trkpt lat="42.09838" lon="23.580906"><ele>2360.5</ele><time>2026-03-08T13:22:00.000Z</time></trkpt>
<trkpt lat="42.098389" lon="23.580908"><ele>2360.5</ele><time>2026-03-08T13:22:01.000Z</time></trkpt>
<trkpt lat="42.098398" lon="23.580913"><ele>2360.1</ele><time>2026-03-08T13:22:02.000Z</time></trkpt>
<trkpt lat="42.098408" lon="23.580918"><ele>2360.1</ele><time>2026-03-08T13:22:03.000Z</time></trkpt>
<trkpt lat="42.098417" lon="23.580924"><ele>2360.1</ele><time>2026-03-08T13:22:04.000Z</time></trkpt>
<trkpt lat="42.098427" lon="23.58093"><ele>2360.1</ele><time>2026-03-08T13:22:05.000Z</time></trkpt>
<trkpt lat="42.098436" lon="23.580935"><ele>2360.1</ele><time>2026-03-08T13:22:06.000Z</time></trkpt>
<trkpt lat="42.098446" lon="23.580941"><ele>2359.6</ele><time>2026-03-08T13:22:07.000Z</time></trkpt>
<trkpt lat="42.098457" lon="23.580948"><ele>2359.6</ele><time>2026-03-08T13:22:08.000Z</time></trkpt>
<trkpt lat="42.098467" lon="23.580954"><ele>2359.6</ele><time>2026-03-08T13:22:09.000Z</time></trkpt>
<trkpt lat="42.098476" lon="23.58096"><ele>2359.6</ele><time>2026-03-08T13:22:10.000Z</time></trkpt>
<trkpt lat="42.098486" lon="23.580967"><ele>2359.6</ele><time>2026-03-08T13:22:11.000Z</time></trkpt>
<trkpt lat="42.098496" lon="23.580973"><ele>2359.1</ele><time>2026-03-08T13:22:12.000Z</time></trkpt>
<trkpt lat="42.098505" lon="23.580979"><ele>2359.1</ele><time>2026-03-08T13:22:13.000Z</time></trkpt>
<trkpt lat="42.098514" lon="23.580984"><ele>2359.1</ele><time>2026-03-08T13:22:14.000Z</time></trkpt>
<trkpt lat="42.098523" lon="23.580988"><ele>2359.1</ele><time>2026-03-08T13:22:15.000Z</time></trkpt>
<trkpt lat="42.098531" lon="23.580991"><ele>2359.1</ele><time>2026-03-08T13:22:16.000Z</time></trkpt>
<trkpt lat="42.09854" lon="23.580996"><ele>2357.8</ele><time>2026-03-08T13:22:17.000Z</time></trkpt>
<trkpt lat="42.098548" lon="23.581001"><ele>2357.8</ele><time>2026-03-08T13:22:18.000Z</time></trkpt>
<trkpt lat="42.098557" lon="23.581006"><ele>2357.8</ele><time>2026-03-08T13:22:19.000Z</time></trkpt>
<trkpt lat="42.098567" lon="23.581011"><ele>2357.8</ele><time>2026-03-08T13:22:20.000Z</time></trkpt>
<trkpt lat="42.098576" lon="23.581015"><ele>2357.8</ele><time>2026-03-08T13:22:21.000Z</time></trkpt>
<trkpt lat="42.098586" lon="23.581016"><ele>2356.2</ele><time>2026-03-08T13:22:22.000Z</time></trkpt>
<trkpt lat="42.098597" lon="23.581017"><ele>2356.2</ele><time>2026-03-08T13:22:23.000Z</time></trkpt>
<trkpt lat="42.098607" lon="23.581019"><ele>2356.2</ele><time>2026-03-08T13:22:24.000Z</time></trkpt>
<trkpt lat="42.098617" lon="23.581023"><ele>2356.2</ele><time>2026-03-08T13:22:25.000Z</time></trkpt>
<trkpt lat="42.098627" lon="23.58103"><ele>2356.2</ele><time>2026-03-08T13:22:26.000Z</time></trkpt>
<trkpt lat="42.098635" lon="23.581039"><ele>2355.4</ele><time>2026-03-08T13:22:27.000Z</time></trkpt>
<trkpt lat="42.098644" lon="23.581049"><ele>2355.4</ele><time>2026-03-08T13:22:28.000Z</time></trkpt>
<trkpt lat="42.098653" lon="23.581061"><ele>2355.4</ele><time>2026-03-08T13:22:29.000Z</time></trkpt>
<trkpt lat="42.098661" lon="23.581072"><ele>2355.4</ele><time>2026-03-08T13:22:30.000Z</time></trkpt>
<trkpt lat="42.098669" lon="23.581084"><ele>2355.4</ele><time>2026-03-08T13:22:31.000Z</time></trkpt>
<trkpt lat="42.098678" lon="23.581096"><ele>2353.4</ele><time>2026-03-08T13:22:32.000Z</time></trkpt>
<trkpt lat="42.098686" lon="23.581108"><ele>2353.4</ele><time>2026-03-08T13:22:33.000Z</time></trkpt>
<trkpt lat="42.098695" lon="23.581121"><ele>2353.4</ele><time>2026-03-08T13:22:34.000Z</time></trkpt>
<trkpt lat="42.098703" lon="23.581132"><ele>2353.4</ele><time>2026-03-08T13:22:35.000Z</time></trkpt>
<trkpt lat="42.098712" lon="23.581142"><ele>2353.4</ele><time>2026-03-08T13:22:36.000Z</time></trkpt>
<trkpt lat="42.098722" lon="23.581152"><ele>2351.5</ele><time>2026-03-08T13:22:37.000Z</time></trkpt>
<trkpt lat="42.098731" lon="23.58116"><ele>2351.5</ele><time>2026-03-08T13:22:38.000Z</time></trkpt>
<trkpt lat="42.09874" lon="23.581167"><ele>2351.5</ele><time>2026-03-08T13:22:39.000Z</time></trkpt>
<trkpt lat="42.09875" lon="23.581174"><ele>2351.5</ele><time>2026-03-08T13:22:40.000Z</time></trkpt>
<trkpt lat="42.098758" lon="23.581181"><ele>2351.5</ele><time>2026-03-08T13:22:41.000Z</time></trkpt>
<trkpt lat="42.098767" lon="23.581187"><ele>2350.6</ele><time>2026-03-08T13:22:42.000Z</time></trkpt>
<trkpt lat="42.098774" lon="23.581195"><ele>2350.6</ele><time>2026-03-08T13:22:43.000Z</time></trkpt>
<trkpt lat="42.098783" lon="23.581204"><ele>2350.6</ele><time>2026-03-08T13:22:44.000Z</time></trkpt>
<trkpt lat="42.098791" lon="23.581214"><ele>2350.6</ele><time>2026-03-08T13:22:45.000Z</time></trkpt>
<trkpt lat="42.0988" lon="23.581224"><ele>2350.6</ele><time>2026-03-08T13:22:46.000Z</time></trkpt>
<trkpt lat="42.098808" lon="23.581234"><ele>2349.3</ele><time>2026-03-08T13:22:47.000Z</time></trkpt>
<trkpt lat="42.098817" lon="23.581245"><ele>2349.3</ele><time>2026-03-08T13:22:48.000Z</time></trkpt>
<trkpt lat="42.098824" lon="23.581256"><ele>2349.3</ele><time>2026-03-08T13:22:49.000Z</time></trkpt>
<trkpt lat="42.098832" lon="23.581267"><ele>2349.3</ele><time>2026-03-08T13:22:50.000Z</time></trkpt>
<trkpt lat="42.09884" lon="23.581279"><ele>2349.3</ele><time>2026-03-08T13:22:51.000Z</time></trkpt>
<trkpt lat="42.098848" lon="23.581291"><ele>2348.3</ele><time>2026-03-08T13:22:52.000Z</time></trkpt>
<trkpt lat="42.098856" lon="23.581304"><ele>2348.3</ele><time>2026-03-08T13:22:53.000Z</time></trkpt>
<trkpt lat="42.098865" lon="23.581315"><ele>2348.3</ele><time>2026-03-08T13:22:54.000Z</time></trkpt>
<trkpt lat="42.098874" lon="23.581325"><ele>2348.3</ele><time>2026-03-08T13:22:55.000Z</time></trkpt>
<trkpt lat="42.098883" lon="23.581335"><ele>2348.3</ele><time>2026-03-08T13:22:56.000Z</time></trkpt>
<trkpt lat="42.098892" lon="23.581345"><ele>2347.8</ele><time>2026-03-08T13:22:57.000Z</time></trkpt>
<trkpt lat="42.098902" lon="23.581354"><ele>2347.8</ele><time>2026-03-08T13:22:58.000Z</time></trkpt>
<trkpt lat="42.098912" lon="23.581364"><ele>2347.8</ele><time>2026-03-08T13:22:59.000Z</time></trkpt>
<trkpt lat="42.098922" lon="23.581375"><ele>2347.8</ele><time>2026-03-08T13:23:00.000Z</time></trkpt>
<trkpt lat="42.098931" lon="23.581387"><ele>2347.8</ele><time>2026-03-08T13:23:01.000Z</time></trkpt>
<trkpt lat="42.09894" lon="23.581398"><ele>2346.8</ele><time>2026-03-08T13:23:02.000Z</time></trkpt>
<trkpt lat="42.098949" lon="23.581409"><ele>2346.8</ele><time>2026-03-08T13:23:03.000Z</time></trkpt>
<trkpt lat="42.098957" lon="23.581422"><ele>2346.8</ele><time>2026-03-08T13:23:04.000Z</time></trkpt>
<trkpt lat="42.098964" lon="23.581434"><ele>2346.8</ele><time>2026-03-08T13:23:05.000Z</time></trkpt>
<trkpt lat="42.098971" lon="23.581445"><ele>2346.8</ele><time>2026-03-08T13:23:06.000Z</time></trkpt>
<trkpt lat="42.098976" lon="23.581457"><ele>2345.7</ele><time>2026-03-08T13:23:07.000Z</time></trkpt>
<trkpt lat="42.09898" lon="23.581469"><ele>2345.7</ele><time>2026-03-08T13:23:08.000Z</time></trkpt>
<trkpt lat="42.098984" lon="23.581481"><ele>2345.7</ele><time>2026-03-08T13:23:09.000Z</time></trkpt>
<trkpt lat="42.098988" lon="23.581494"><ele>2345.7</ele><time>2026-03-08T13:23:10.000Z</time></trkpt>
<trkpt lat="42.098991" lon="23.581507"><ele>2345.7</ele><time>2026-03-08T13:23:11.000Z</time></trkpt>
<trkpt lat="42.098995" lon="23.581518"><ele>2345</ele><time>2026-03-08T13:23:12.000Z</time></trkpt>
<trkpt lat="42.098997" lon="23.581528"><ele>2345</ele><time>2026-03-08T13:23:13.000Z</time></trkpt>
<trkpt lat="42.099" lon="23.581539"><ele>2345</ele><time>2026-03-08T13:23:14.000Z</time></trkpt>
<trkpt lat="42.099004" lon="23.58155"><ele>2345</ele><time>2026-03-08T13:23:15.000Z</time></trkpt>
<trkpt lat="42.099008" lon="23.58156"><ele>2345</ele><time>2026-03-08T13:23:16.000Z</time></trkpt>
<trkpt lat="42.099012" lon="23.581571"><ele>2343.7</ele><time>2026-03-08T13:23:17.000Z</time></trkpt>
<trkpt lat="42.099017" lon="23.58158"><ele>2343.7</ele><time>2026-03-08T13:23:18.000Z</time></trkpt>
<trkpt lat="42.099022" lon="23.581588"><ele>2343.7</ele><time>2026-03-08T13:23:19.000Z</time></trkpt>
<trkpt lat="42.099027" lon="23.581593"><ele>2343.7</ele><time>2026-03-08T13:23:20.000Z</time></trkpt>
<trkpt lat="42.099031" lon="23.581599"><ele>2343.7</ele><time>2026-03-08T13:23:21.000Z</time></trkpt>
<trkpt lat="42.099036" lon="23.581604"><ele>2342.6</ele><time>2026-03-08T13:23:22.000Z</time></trkpt>
<trkpt lat="42.09904" lon="23.581611"><ele>2342.6</ele><time>2026-03-08T13:23:23.000Z</time></trkpt>
<trkpt lat="42.099044" lon="23.581617"><ele>2342.6</ele><time>2026-03-08T13:23:24.000Z</time></trkpt>
<trkpt lat="42.099047" lon="23.581624"><ele>2342.6</ele><time>2026-03-08T13:23:25.000Z</time></trkpt>
<trkpt lat="42.09905" lon="23.581631"><ele>2342.6</ele><time>2026-03-08T13:23:26.000Z</time></trkpt>
<trkpt lat="42.099052" lon="23.581638"><ele>2342.3</ele><time>2026-03-08T13:23:27.000Z</time></trkpt>
<trkpt lat="42.099054" lon="23.581646"><ele>2342.3</ele><time>2026-03-08T13:23:28.000Z</time></trkpt>
<trkpt lat="42.099056" lon="23.581654"><ele>2342.3</ele><time>2026-03-08T13:23:29.000Z</time></trkpt>
<trkpt lat="42.099059" lon="23.581661"><ele>2342.3</ele><time>2026-03-08T13:23:30.000Z</time></trkpt>
<trkpt lat="42.099063" lon="23.581669"><ele>2342.3</ele><time>2026-03-08T13:23:31.000Z</time></trkpt>
<trkpt lat="42.099067" lon="23.581677"><ele>2341.7</ele><time>2026-03-08T13:23:32.000Z</time></trkpt>
<trkpt lat="42.099071" lon="23.581684"><ele>2341.7</ele><time>2026-03-08T13:23:33.000Z</time></trkpt>
<trkpt lat="42.099076" lon="23.581692"><ele>2341.7</ele><time>2026-03-08T13:23:34.000Z</time></trkpt>
<trkpt lat="42.099081" lon="23.581701"><ele>2341.7</ele><time>2026-03-08T13:23:35.000Z</time></trkpt>
<trkpt lat="42.099086" lon="23.58171"><ele>2341.7</ele><time>2026-03-08T13:23:36.000Z</time></trkpt>
<trkpt lat="42.09909" lon="23.581719"><ele>2341</ele><time>2026-03-08T13:23:37.000Z</time></trkpt>
<trkpt lat="42.099095" lon="23.581728"><ele>2341</ele><time>2026-03-08T13:23:38.000Z</time></trkpt>
<trkpt lat="42.099098" lon="23.581735"><ele>2341</ele><time>2026-03-08T13:23:39.000Z</time></trkpt>
<trkpt lat="42.0991" lon="23.581743"><ele>2341</ele><time>2026-03-08T13:23:40.000Z</time></trkpt>
<trkpt lat="42.099101" lon="23.58175"><ele>2341</ele><time>2026-03-08T13:23:41.000Z</time></trkpt>
<trkpt lat="42.099103" lon="23.581758"><ele>2340.6</ele><time>2026-03-08T13:23:42.000Z</time></trkpt>
<trkpt lat="42.099104" lon="23.581767"><ele>2340.6</ele><time>2026-03-08T13:23:43.000Z</time></trkpt>
<trkpt lat="42.099106" lon="23.581776"><ele>2340.6</ele><time>2026-03-08T13:23:44.000Z</time></trkpt>
<trkpt lat="42.099108" lon="23.581785"><ele>2340.6</ele><time>2026-03-08T13:23:45.000Z</time></trkpt>
<trkpt lat="42.099111" lon="23.581794"><ele>2340.6</ele><time>2026-03-08T13:23:46.000Z</time></trkpt>
<trkpt lat="42.099115" lon="23.581802"><ele>2340</ele><time>2026-03-08T13:23:47.000Z</time></trkpt>
<trkpt lat="42.099119" lon="23.581809"><ele>2340</ele><time>2026-03-08T13:23:48.000Z</time></trkpt>
<trkpt lat="42.099123" lon="23.581818"><ele>2340</ele><time>2026-03-08T13:23:49.000Z</time></trkpt>
<trkpt lat="42.099128" lon="23.581826"><ele>2340</ele><time>2026-03-08T13:23:50.000Z</time></trkpt>
<trkpt lat="42.099132" lon="23.581835"><ele>2340</ele><time>2026-03-08T13:23:51.000Z</time></trkpt>
<trkpt lat="42.099136" lon="23.581844"><ele>2339.6</ele><time>2026-03-08T13:23:52.000Z</time></trkpt>
<trkpt lat="42.09914" lon="23.581853"><ele>2339.6</ele><time>2026-03-08T13:23:53.000Z</time></trkpt>
<trkpt lat="42.099146" lon="23.581862"><ele>2339.6</ele><time>2026-03-08T13:23:54.000Z</time></trkpt>
<trkpt lat="42.099152" lon="23.581871"><ele>2339.6</ele><time>2026-03-08T13:23:55.000Z</time></trkpt>
<trkpt lat="42.099159" lon="23.58188"><ele>2339.6</ele><time>2026-03-08T13:23:56.000Z</time></trkpt>
<trkpt lat="42.099166" lon="23.581888"><ele>2339.5</ele><time>2026-03-08T13:23:57.000Z</time></trkpt>
<trkpt lat="42.099173" lon="23.581897"><ele>2339.5</ele><time>2026-03-08T13:23:58.000Z</time></trkpt>
<trkpt lat="42.099179" lon="23.581905"><ele>2339.5</ele><time>2026-03-08T13:23:59.000Z</time></trkpt>
<trkpt lat="42.099186" lon="23.581913"><ele>2339.5</ele><time>2026-03-08T13:24:00.000Z</time></trkpt>
<trkpt lat="42.099191" lon="23.581921"><ele>2339.5</ele><time>2026-03-08T13:24:01.000Z</time></trkpt>
<trkpt lat="42.099197" lon="23.581929"><ele>2339.6</ele><time>2026-03-08T13:24:02.000Z</time></trkpt>
<trkpt lat="42.099203" lon="23.581937"><ele>2339.6</ele><time>2026-03-08T13:24:03.000Z</time></trkpt>
<trkpt lat="42.099207" lon="23.581947"><ele>2339.6</ele><time>2026-03-08T13:24:04.000Z</time></trkpt>
<trkpt lat="42.09921" lon="23.581958"><ele>2339.6</ele><time>2026-03-08T13:24:05.000Z</time></trkpt>
<trkpt lat="42.099214" lon="23.581968"><ele>2339.6</ele><time>2026-03-08T13:24:06.000Z</time></trkpt>
<trkpt lat="42.099216" lon="23.581981"><ele>2339.4</ele><time>2026-03-08T13:24:07.000Z</time></trkpt>
<trkpt lat="42.09922" lon="23.581993"><ele>2339.4</ele><time>2026-03-08T13:24:08.000Z</time></trkpt>
<trkpt lat="42.099224" lon="23.582003"><ele>2339.4</ele><time>2026-03-08T13:24:09.000Z</time></trkpt>
<trkpt lat="42.099229" lon="23.582014"><ele>2339.4</ele><time>2026-03-08T13:24:10.000Z</time></trkpt>
<trkpt lat="42.099235" lon="23.582024"><ele>2339.4</ele><time>2026-03-08T13:24:11.000Z</time></trkpt>
<trkpt lat="42.099242" lon="23.582032"><ele>2339.1</ele><time>2026-03-08T13:24:12.000Z</time></trkpt>
<trkpt lat="42.099248" lon="23.58204"><ele>2339.1</ele><time>2026-03-08T13:24:13.000Z</time></trkpt>
<trkpt lat="42.099256" lon="23.582048"><ele>2339.1</ele><time>2026-03-08T13:24:14.000Z</time></trkpt>
<trkpt lat="42.099263" lon="23.582055"><ele>2339.1</ele><time>2026-03-08T13:24:15.000Z</time></trkpt>
<trkpt lat="42.09927" lon="23.582063"><ele>2339.1</ele><time>2026-03-08T13:24:16.000Z</time></trkpt>
<trkpt lat="42.099277" lon="23.582071"><ele>2338.4</ele><time>2026-03-08T13:24:17.000Z</time></trkpt>
<trkpt lat="42.099285" lon="23.582078"><ele>2338.4</ele><time>2026-03-08T13:24:18.000Z</time></trkpt>
<trkpt lat="42.099294" lon="23.582084"><ele>2338.4</ele><time>2026-03-08T13:24:19.000Z</time></trkpt>
<trkpt lat="42.099302" lon="23.582089"><ele>2338.4</ele><time>2026-03-08T13:24:20.000Z</time></trkpt>
<trkpt lat="42.099311" lon="23.582093"><ele>2338.4</ele><time>2026-03-08T13:24:21.000Z</time></trkpt>
<trkpt lat="42.09932" lon="23.582098"><ele>2337.6</ele><time>2026-03-08T13:24:22.000Z</time></trkpt>
<trkpt lat="42.099329" lon="23.582103"><ele>2337.6</ele><time>2026-03-08T13:24:23.000Z</time></trkpt>
<trkpt lat="42.099337" lon="23.582107"><ele>2337.6</ele><time>2026-03-08T13:24:24.000Z</time></trkpt>
<trkpt lat="42.099347" lon="23.582112"><ele>2337.6</ele><time>2026-03-08T13:24:25.000Z</time></trkpt>
<trkpt lat="42.099356" lon="23.582117"><ele>2337.6</ele><time>2026-03-08T13:24:26.000Z</time></trkpt>
<trkpt lat="42.099366" lon="23.582121"><ele>2337.2</ele><time>2026-03-08T13:24:27.000Z</time></trkpt>
<trkpt lat="42.099375" lon="23.582125"><ele>2337.2</ele><time>2026-03-08T13:24:28.000Z</time></trkpt>
<trkpt lat="42.099384" lon="23.582131"><ele>2337.2</ele><time>2026-03-08T13:24:29.000Z</time></trkpt>
<trkpt lat="42.099393" lon="23.582136"><ele>2337.2</ele><time>2026-03-08T13:24:30.000Z</time></trkpt>
<trkpt lat="42.099401" lon="23.582142"><ele>2337.2</ele><time>2026-03-08T13:24:31.000Z</time></trkpt>
<trkpt lat="42.099408" lon="23.582151"><ele>2336.2</ele><time>2026-03-08T13:24:32.000Z</time></trkpt>
<trkpt lat="42.099413" lon="23.582161"><ele>2336.2</ele><time>2026-03-08T13:24:33.000Z</time></trkpt>
<trkpt lat="42.099419" lon="23.582171"><ele>2336.2</ele><time>2026-03-08T13:24:34.000Z</time></trkpt>
<trkpt lat="42.099424" lon="23.582181"><ele>2336.2</ele><time>2026-03-08T13:24:35.000Z</time></trkpt>
<trkpt lat="42.099429" lon="23.582188"><ele>2336.2</ele><time>2026-03-08T13:24:36.000Z</time></trkpt>
<trkpt lat="42.099436" lon="23.582192"><ele>2335.1</ele><time>2026-03-08T13:24:37.000Z</time></trkpt>
<trkpt lat="42.099445" lon="23.582192"><ele>2335.1</ele><time>2026-03-08T13:24:38.000Z</time></trkpt>
<trkpt lat="42.099455" lon="23.582191"><ele>2335.1</ele><time>2026-03-08T13:24:39.000Z</time></trkpt>
<trkpt lat="42.099465" lon="23.582189"><ele>2335.1</ele><time>2026-03-08T13:24:40.000Z</time></trkpt>
<trkpt lat="42.099476" lon="23.582187"><ele>2335.1</ele><time>2026-03-08T13:24:41.000Z</time></trkpt>
<trkpt lat="42.099486" lon="23.582188"><ele>2334.7</ele><time>2026-03-08T13:24:42.000Z</time></trkpt>
<trkpt lat="42.099494" lon="23.582188"><ele>2334.7</ele><time>2026-03-08T13:24:43.000Z</time></trkpt>
<trkpt lat="42.099503" lon="23.582188"><ele>2334.7</ele><time>2026-03-08T13:24:44.000Z</time></trkpt>
<trkpt lat="42.099513" lon="23.582188"><ele>2334.7</ele><time>2026-03-08T13:24:45.000Z</time></trkpt>
<trkpt lat="42.099522" lon="23.582189"><ele>2334.7</ele><time>2026-03-08T13:24:46.000Z</time></trkpt>
<trkpt lat="42.09953" lon="23.582191"><ele>2333.6</ele><time>2026-03-08T13:24:47.000Z</time></trkpt>
<trkpt lat="42.099538" lon="23.582196"><ele>2333.6</ele><time>2026-03-08T13:24:48.000Z</time></trkpt>
<trkpt lat="42.099543" lon="23.582204"><ele>2333.6</ele><time>2026-03-08T13:24:49.000Z</time></trkpt>
<trkpt lat="42.099547" lon="23.582214"><ele>2333.6</ele><time>2026-03-08T13:24:50.000Z</time></trkpt>
<trkpt lat="42.09955" lon="23.582224"><ele>2333.6</ele><time>2026-03-08T13:24:51.000Z</time></trkpt>
<trkpt lat="42.099553" lon="23.582234"><ele>2332.6</ele><time>2026-03-08T13:24:52.000Z</time></trkpt>
<trkpt lat="42.099556" lon="23.582243"><ele>2332.6</ele><time>2026-03-08T13:24:53.000Z</time></trkpt>
<trkpt lat="42.099561" lon="23.582253"><ele>2332.6</ele><time>2026-03-08T13:24:54.000Z</time></trkpt>
<trkpt lat="42.099567" lon="23.582263"><ele>2332.6</ele><time>2026-03-08T13:24:55.000Z</time></trkpt>
<trkpt lat="42.09957" lon="23.582274"><ele>2332.6</ele><time>2026-03-08T13:24:56.000Z</time></trkpt>
<trkpt lat="42.099572" lon="23.582287"><ele>2332.3</ele><time>2026-03-08T13:24:57.000Z</time></trkpt>
<trkpt lat="42.099571" lon="23.582301"><ele>2332.3</ele><time>2026-03-08T13:24:58.000Z</time></trkpt>
<trkpt lat="42.099567" lon="23.582315"><ele>2332.3</ele><time>2026-03-08T13:24:59.000Z</time></trkpt>
<trkpt lat="42.099562" lon="23.582329"><ele>2332.3</ele><time>2026-03-08T13:25:00.000Z</time></trkpt>
<trkpt lat="42.099557" lon="23.582342"><ele>2332.3</ele><time>2026-03-08T13:25:01.000Z</time></trkpt>
<trkpt lat="42.099551" lon="23.582356"><ele>2332</ele><time>2026-03-08T13:25:02.000Z</time></trkpt>
<trkpt lat="42.099546" lon="23.582371"><ele>2332</ele><time>2026-03-08T13:25:03.000Z</time></trkpt>
<trkpt lat="42.09954" lon="23.582385"><ele>2332</ele><time>2026-03-08T13:25:04.000Z</time></trkpt>
<trkpt lat="42.099535" lon="23.582401"><ele>2332</ele><time>2026-03-08T13:25:05.000Z</time></trkpt>
<trkpt lat="42.099529" lon="23.582417"><ele>2332</ele><time>2026-03-08T13:25:06.000Z</time></trkpt>
<trkpt lat="42.099524" lon="23.582434"><ele>2332</ele><time>2026-03-08T13:25:07.000Z</time></trkpt>
<trkpt lat="42.099519" lon="23.58245"><ele>2332</ele><time>2026-03-08T13:25:08.000Z</time></trkpt>
<trkpt lat="42.099515" lon="23.582467"><ele>2332</ele><time>2026-03-08T13:25:09.000Z</time></trkpt>
<trkpt lat="42.099509" lon="23.582483"><ele>2332</ele><time>2026-03-08T13:25:10.000Z</time></trkpt>
<trkpt lat="42.099502" lon="23.582499"><ele>2332</ele><time>2026-03-08T13:25:11.000Z</time></trkpt>
<trkpt lat="42.099495" lon="23.582513"><ele>2332</ele><time>2026-03-08T13:25:12.000Z</time></trkpt>
<trkpt lat="42.099487" lon="23.582528"><ele>2332</ele><time>2026-03-08T13:25:13.000Z</time></trkpt>
<trkpt lat="42.099479" lon="23.582542"><ele>2332</ele><time>2026-03-08T13:25:14.000Z</time></trkpt>
<trkpt lat="42.099473" lon="23.582557"><ele>2332</ele><time>2026-03-08T13:25:15.000Z</time></trkpt>
<trkpt lat="42.099466" lon="23.582571"><ele>2332</ele><time>2026-03-08T13:25:16.000Z</time></trkpt>
<trkpt lat="42.09946" lon="23.582585"><ele>2331.7</ele><time>2026-03-08T13:25:17.000Z</time></trkpt>
<trkpt lat="42.099453" lon="23.582599"><ele>2331.7</ele><time>2026-03-08T13:25:18.000Z</time></trkpt>
<trkpt lat="42.099447" lon="23.582611"><ele>2331.7</ele><time>2026-03-08T13:25:19.000Z</time></trkpt>
<trkpt lat="42.099441" lon="23.582623"><ele>2331.7</ele><time>2026-03-08T13:25:20.000Z</time></trkpt>
<trkpt lat="42.099434" lon="23.582635"><ele>2331.7</ele><time>2026-03-08T13:25:21.000Z</time></trkpt>
<trkpt lat="42.099427" lon="23.582648"><ele>2331.2</ele><time>2026-03-08T13:25:22.000Z</time></trkpt>
<trkpt lat="42.099421" lon="23.58266"><ele>2331.2</ele><time>2026-03-08T13:25:23.000Z</time></trkpt>
<trkpt lat="42.099414" lon="23.582673"><ele>2331.2</ele><time>2026-03-08T13:25:24.000Z</time></trkpt>
<trkpt lat="42.099408" lon="23.582684"><ele>2331.2</ele><time>2026-03-08T13:25:25.000Z</time></trkpt>
<trkpt lat="42.099401" lon="23.582695"><ele>2331.2</ele><time>2026-03-08T13:25:26.000Z</time></trkpt>
<trkpt lat="42.099395" lon="23.582705"><ele>2331</ele><time>2026-03-08T13:25:27.000Z</time></trkpt>
<trkpt lat="42.099389" lon="23.582716"><ele>2331</ele><time>2026-03-08T13:25:28.000Z</time></trkpt>
<trkpt lat="42.099382" lon="23.582727"><ele>2331</ele><time>2026-03-08T13:25:29.000Z</time></trkpt>
<trkpt lat="42.099375" lon="23.582738"><ele>2331</ele><time>2026-03-08T13:25:30.000Z</time></trkpt>
<trkpt lat="42.099368" lon="23.58275"><ele>2331</ele><time>2026-03-08T13:25:31.000Z</time></trkpt>
<trkpt lat="42.09936" lon="23.582762"><ele>2330.8</ele><time>2026-03-08T13:25:32.000Z</time></trkpt>
<trkpt lat="42.099352" lon="23.582774"><ele>2330.8</ele><time>2026-03-08T13:25:33.000Z</time></trkpt>
<trkpt lat="42.099345" lon="23.582785"><ele>2330.8</ele><time>2026-03-08T13:25:34.000Z</time></trkpt>
<trkpt lat="42.099339" lon="23.582796"><ele>2330.8</ele><time>2026-03-08T13:25:35.000Z</time></trkpt>
<trkpt lat="42.099333" lon="23.582807"><ele>2330.8</ele><time>2026-03-08T13:25:36.000Z</time></trkpt>
<trkpt lat="42.099327" lon="23.582818"><ele>2331</ele><time>2026-03-08T13:25:37.000Z</time></trkpt>
<trkpt lat="42.099321" lon="23.582828"><ele>2331</ele><time>2026-03-08T13:25:38.000Z</time></trkpt>
<trkpt lat="42.099314" lon="23.58284"><ele>2331</ele><time>2026-03-08T13:25:39.000Z</time></trkpt>
<trkpt lat="42.099307" lon="23.582852"><ele>2331</ele><time>2026-03-08T13:25:40.000Z</time></trkpt>
<trkpt lat="42.0993" lon="23.582864"><ele>2331</ele><time>2026-03-08T13:25:41.000Z</time></trkpt>
<trkpt lat="42.099293" lon="23.582876"><ele>2331.1</ele><time>2026-03-08T13:25:42.000Z</time></trkpt>
<trkpt lat="42.099286" lon="23.582888"><ele>2331.1</ele><time>2026-03-08T13:25:43.000Z</time></trkpt>
<trkpt lat="42.099281" lon="23.582901"><ele>2331.1</ele><time>2026-03-08T13:25:44.000Z</time></trkpt>
<trkpt lat="42.099275" lon="23.582913"><ele>2331.1</ele><time>2026-03-08T13:25:45.000Z</time></trkpt>
<trkpt lat="42.099269" lon="23.582926"><ele>2331.1</ele><time>2026-03-08T13:25:46.000Z</time></trkpt>
<trkpt lat="42.099263" lon="23.58294"><ele>2331.3</ele><time>2026-03-08T13:25:47.000Z</time></trkpt>
<trkpt lat="42.099257" lon="23.582955"><ele>2331.3</ele><time>2026-03-08T13:25:48.000Z</time></trkpt>
<trkpt lat="42.09925" lon="23.582969"><ele>2331.3</ele><time>2026-03-08T13:25:49.000Z</time></trkpt>
<trkpt lat="42.099244" lon="23.582984"><ele>2331.3</ele><time>2026-03-08T13:25:50.000Z</time></trkpt>
<trkpt lat="42.099238" lon="23.582998"><ele>2331.3</ele><time>2026-03-08T13:25:51.000Z</time></trkpt>
<trkpt lat="42.099233" lon="23.583012"><ele>2331.4</ele><time>2026-03-08T13:25:52.000Z</time></trkpt>
<trkpt lat="42.099227" lon="23.583025"><ele>2331.4</ele><time>2026-03-08T13:25:53.000Z</time></trkpt>
<trkpt lat="42.099222" lon="23.583038"><ele>2331.4</ele><time>2026-03-08T13:25:54.000Z</time></trkpt>
<trkpt lat="42.099217" lon="23.583051"><ele>2331.4</ele><time>2026-03-08T13:25:55.000Z</time></trkpt>
<trkpt lat="42.099212" lon="23.583064"><ele>2331.4</ele><time>2026-03-08T13:25:56.000Z</time></trkpt>
<trkpt lat="42.099207" lon="23.583078"><ele>2331.4</ele><time>2026-03-08T13:25:57.000Z</time></trkpt>
<trkpt lat="42.099203" lon="23.583092"><ele>2331.4</ele><time>2026-03-08T13:25:58.000Z</time></trkpt>
<trkpt lat="42.099199" lon="23.583105"><ele>2331.4</ele><time>2026-03-08T13:25:59.000Z</time></trkpt>
<trkpt lat="42.099195" lon="23.583118"><ele>2331.4</ele><time>2026-03-08T13:26:00.000Z</time></trkpt>
<trkpt lat="42.099189" lon="23.58313"><ele>2331.4</ele><time>2026-03-08T13:26:01.000Z</time></trkpt>
<trkpt lat="42.099184" lon="23.583142"><ele>2331.7</ele><time>2026-03-08T13:26:02.000Z</time></trkpt>
<trkpt lat="42.099177" lon="23.583154"><ele>2331.7</ele><time>2026-03-08T13:26:03.000Z</time></trkpt>
<trkpt lat="42.09917" lon="23.583166"><ele>2331.7</ele><time>2026-03-08T13:26:04.000Z</time></trkpt>
<trkpt lat="42.099163" lon="23.583179"><ele>2331.7</ele><time>2026-03-08T13:26:05.000Z</time></trkpt>
<trkpt lat="42.099157" lon="23.583191"><ele>2331.7</ele><time>2026-03-08T13:26:06.000Z</time></trkpt>
<trkpt lat="42.099152" lon="23.583203"><ele>2331.9</ele><time>2026-03-08T13:26:07.000Z</time></trkpt>
<trkpt lat="42.099146" lon="23.583215"><ele>2331.9</ele><time>2026-03-08T13:26:08.000Z</time></trkpt>
<trkpt lat="42.099141" lon="23.583227"><ele>2331.9</ele><time>2026-03-08T13:26:09.000Z</time></trkpt>
<trkpt lat="42.099134" lon="23.583238"><ele>2331.9</ele><time>2026-03-08T13:26:10.000Z</time></trkpt>
<trkpt lat="42.099127" lon="23.58325"><ele>2331.9</ele><time>2026-03-08T13:26:11.000Z</time></trkpt>
<trkpt lat="42.09912" lon="23.583263"><ele>2332</ele><time>2026-03-08T13:26:12.000Z</time></trkpt>
<trkpt lat="42.099113" lon="23.583275"><ele>2332</ele><time>2026-03-08T13:26:13.000Z</time></trkpt>
<trkpt lat="42.099106" lon="23.583288"><ele>2332</ele><time>2026-03-08T13:26:14.000Z</time></trkpt>
<trkpt lat="42.0991" lon="23.583301"><ele>2332</ele><time>2026-03-08T13:26:15.000Z</time></trkpt>
<trkpt lat="42.099094" lon="23.583315"><ele>2332</ele><time>2026-03-08T13:26:16.000Z</time></trkpt>
<trkpt lat="42.099088" lon="23.583328"><ele>2332.1</ele><time>2026-03-08T13:26:17.000Z</time></trkpt>
<trkpt lat="42.099081" lon="23.583343"><ele>2332.1</ele><time>2026-03-08T13:26:18.000Z</time></trkpt>
<trkpt lat="42.099074" lon="23.583358"><ele>2332.1</ele><time>2026-03-08T13:26:19.000Z</time></trkpt>
<trkpt lat="42.099067" lon="23.583373"><ele>2332.1</ele><time>2026-03-08T13:26:20.000Z</time></trkpt>
<trkpt lat="42.099061" lon="23.583388"><ele>2332.1</ele><time>2026-03-08T13:26:21.000Z</time></trkpt>
<trkpt lat="42.099055" lon="23.583403"><ele>2332.1</ele><time>2026-03-08T13:26:22.000Z</time></trkpt>
<trkpt lat="42.099049" lon="23.583417"><ele>2332.1</ele><time>2026-03-08T13:26:23.000Z</time></trkpt>
<trkpt lat="42.099043" lon="23.583431"><ele>2332.1</ele><time>2026-03-08T13:26:24.000Z</time></trkpt>
<trkpt lat="42.099036" lon="23.583445"><ele>2332.1</ele><time>2026-03-08T13:26:25.000Z</time></trkpt>
<trkpt lat="42.09903" lon="23.583459"><ele>2332.1</ele><time>2026-03-08T13:26:26.000Z</time></trkpt>
<trkpt lat="42.099024" lon="23.583472"><ele>2332</ele><time>2026-03-08T13:26:27.000Z</time></trkpt>
<trkpt lat="42.099018" lon="23.583486"><ele>2332</ele><time>2026-03-08T13:26:28.000Z</time></trkpt>
<trkpt lat="42.099012" lon="23.583501"><ele>2332</ele><time>2026-03-08T13:26:29.000Z</time></trkpt>
<trkpt lat="42.099006" lon="23.583515"><ele>2332</ele><time>2026-03-08T13:26:30.000Z</time></trkpt>
<trkpt lat="42.099001" lon="23.583529"><ele>2332</ele><time>2026-03-08T13:26:31.000Z</time></trkpt>
<trkpt lat="42.098996" lon="23.583543"><ele>2331.6</ele><time>2026-03-08T13:26:32.000Z</time></trkpt>
<trkpt lat="42.09899" lon="23.583557"><ele>2331.6</ele><time>2026-03-08T13:26:33.000Z</time></trkpt>
<trkpt lat="42.098984" lon="23.58357"><ele>2331.6</ele><time>2026-03-08T13:26:34.000Z</time></trkpt>
<trkpt lat="42.098977" lon="23.583584"><ele>2331.6</ele><time>2026-03-08T13:26:35.000Z</time></trkpt>
<trkpt lat="42.09897" lon="23.583597"><ele>2331.6</ele><time>2026-03-08T13:26:36.000Z</time></trkpt>
<trkpt lat="42.098963" lon="23.58361"><ele>2330.9</ele><time>2026-03-08T13:26:37.000Z</time></trkpt>
<trkpt lat="42.098954" lon="23.583622"><ele>2330.9</ele><time>2026-03-08T13:26:38.000Z</time></trkpt>
<trkpt lat="42.098946" lon="23.583634"><ele>2330.9</ele><time>2026-03-08T13:26:39.000Z</time></trkpt>
<trkpt lat="42.098936" lon="23.583645"><ele>2330.9</ele><time>2026-03-08T13:26:40.000Z</time></trkpt>
<trkpt lat="42.098927" lon="23.583656"><ele>2330.9</ele><time>2026-03-08T13:26:41.000Z</time></trkpt>
<trkpt lat="42.098919" lon="23.583665"><ele>2330.4</ele><time>2026-03-08T13:26:42.000Z</time></trkpt>
<trkpt lat="42.098912" lon="23.583675"><ele>2330.4</ele><time>2026-03-08T13:26:43.000Z</time></trkpt>
<trkpt lat="42.098906" lon="23.583684"><ele>2330.4</ele><time>2026-03-08T13:26:44.000Z</time></trkpt>
<trkpt lat="42.098901" lon="23.583693"><ele>2330.4</ele><time>2026-03-08T13:26:45.000Z</time></trkpt>
<trkpt lat="42.098896" lon="23.583702"><ele>2330.4</ele><time>2026-03-08T13:26:46.000Z</time></trkpt>
<trkpt lat="42.098891" lon="23.583712"><ele>2329.3</ele><time>2026-03-08T13:26:47.000Z</time></trkpt>
<trkpt lat="42.098886" lon="23.583721"><ele>2329.3</ele><time>2026-03-08T13:26:48.000Z</time></trkpt>
<trkpt lat="42.098881" lon="23.583731"><ele>2329.3</ele><time>2026-03-08T13:26:49.000Z</time></trkpt>
<trkpt lat="42.098876" lon="23.583741"><ele>2329.3</ele><time>2026-03-08T13:26:50.000Z</time></trkpt>
<trkpt lat="42.098872" lon="23.583752"><ele>2329.3</ele><time>2026-03-08T13:26:51.000Z</time></trkpt>
<trkpt lat="42.098868" lon="23.583764"><ele>2327.8</ele><time>2026-03-08T13:26:52.000Z</time></trkpt>
<trkpt lat="42.098865" lon="23.583776"><ele>2327.8</ele><time>2026-03-08T13:26:53.000Z</time></trkpt>
<trkpt lat="42.098862" lon="23.583788"><ele>2327.8</ele><time>2026-03-08T13:26:54.000Z</time></trkpt>
<trkpt lat="42.098859" lon="23.583801"><ele>2327.8</ele><time>2026-03-08T13:26:55.000Z</time></trkpt>
<trkpt lat="42.098856" lon="23.583813"><ele>2327.8</ele><time>2026-03-08T13:26:56.000Z</time></trkpt>
<trkpt lat="42.098854" lon="23.583825"><ele>2327</ele><time>2026-03-08T13:26:57.000Z</time></trkpt>
<trkpt lat="42.098851" lon="23.583839"><ele>2327</ele><time>2026-03-08T13:26:58.000Z</time></trkpt>
<trkpt lat="42.098848" lon="23.583852"><ele>2327</ele><time>2026-03-08T13:26:59.000Z</time></trkpt>
<trkpt lat="42.098845" lon="23.583865"><ele>2327</ele><time>2026-03-08T13:27:00.000Z</time></trkpt>
<trkpt lat="42.098842" lon="23.583878"><ele>2327</ele><time>2026-03-08T13:27:01.000Z</time></trkpt>
<trkpt lat="42.09884" lon="23.583889"><ele>2325.1</ele><time>2026-03-08T13:27:02.000Z</time></trkpt>
<trkpt lat="42.098837" lon="23.583899"><ele>2325.1</ele><time>2026-03-08T13:27:03.000Z</time></trkpt>
<trkpt lat="42.098833" lon="23.583908"><ele>2325.1</ele><time>2026-03-08T13:27:04.000Z</time></trkpt>
<trkpt lat="42.098829" lon="23.583918"><ele>2325.1</ele><time>2026-03-08T13:27:05.000Z</time></trkpt>
<trkpt lat="42.098824" lon="23.583926"><ele>2325.1</ele><time>2026-03-08T13:27:06.000Z</time></trkpt>
<trkpt lat="42.098819" lon="23.583934"><ele>2323.1</ele><time>2026-03-08T13:27:07.000Z</time></trkpt>
<trkpt lat="42.098815" lon="23.583943"><ele>2323.1</ele><time>2026-03-08T13:27:08.000Z</time></trkpt>
<trkpt lat="42.098811" lon="23.583952"><ele>2323.1</ele><time>2026-03-08T13:27:09.000Z</time></trkpt>
<trkpt lat="42.098808" lon="23.583962"><ele>2323.1</ele><time>2026-03-08T13:27:10.000Z</time></trkpt>
<trkpt lat="42.098806" lon="23.583973"><ele>2323.1</ele><time>2026-03-08T13:27:11.000Z</time></trkpt>
<trkpt lat="42.098804" lon="23.583983"><ele>2321.9</ele><time>2026-03-08T13:27:12.000Z</time></trkpt>
<trkpt lat="42.098802" lon="23.583994"><ele>2321.9</ele><time>2026-03-08T13:27:13.000Z</time></trkpt>
<trkpt lat="42.098798" lon="23.584005"><ele>2321.9</ele><time>2026-03-08T13:27:14.000Z</time></trkpt>
<trkpt lat="42.098794" lon="23.584017"><ele>2321.9</ele><time>2026-03-08T13:27:15.000Z</time></trkpt>
<trkpt lat="42.098789" lon="23.58403"><ele>2321.9</ele><time>2026-03-08T13:27:16.000Z</time></trkpt>
<trkpt lat="42.098784" lon="23.584044"><ele>2319.6</ele><time>2026-03-08T13:27:17.000Z</time></trkpt>
<trkpt lat="42.098779" lon="23.584058"><ele>2319.6</ele><time>2026-03-08T13:27:18.000Z</time></trkpt>
<trkpt lat="42.098774" lon="23.584071"><ele>2319.6</ele><time>2026-03-08T13:27:19.000Z</time></trkpt>
<trkpt lat="42.09877" lon="23.584085"><ele>2319.6</ele><time>2026-03-08T13:27:20.000Z</time></trkpt>
<trkpt lat="42.098766" lon="23.584098"><ele>2319.6</ele><time>2026-03-08T13:27:21.000Z</time></trkpt>
<trkpt lat="42.098763" lon="23.584112"><ele>2317.2</ele><time>2026-03-08T13:27:22.000Z</time></trkpt>
<trkpt lat="42.09876" lon="23.584127"><ele>2317.2</ele><time>2026-03-08T13:27:23.000Z</time></trkpt>
<trkpt lat="42.098758" lon="23.584142"><ele>2317.2</ele><time>2026-03-08T13:27:24.000Z</time></trkpt>
<trkpt lat="42.098757" lon="23.584158"><ele>2317.2</ele><time>2026-03-08T13:27:25.000Z</time></trkpt>
<trkpt lat="42.098754" lon="23.584173"><ele>2317.2</ele><time>2026-03-08T13:27:26.000Z</time></trkpt>
<trkpt lat="42.098752" lon="23.584188"><ele>2316</ele><time>2026-03-08T13:27:27.000Z</time></trkpt>
<trkpt lat="42.098751" lon="23.584203"><ele>2316</ele><time>2026-03-08T13:27:28.000Z</time></trkpt>
<trkpt lat="42.098749" lon="23.584217"><ele>2316</ele><time>2026-03-08T13:27:29.000Z</time></trkpt>
<trkpt lat="42.098747" lon="23.584231"><ele>2316</ele><time>2026-03-08T13:27:30.000Z</time></trkpt>
<trkpt lat="42.098746" lon="23.584246"><ele>2316</ele><time>2026-03-08T13:27:31.000Z</time></trkpt>
<trkpt lat="42.098745" lon="23.584261"><ele>2314</ele><time>2026-03-08T13:27:32.000Z</time></trkpt>
<trkpt lat="42.098744" lon="23.584276"><ele>2314</ele><time>2026-03-08T13:27:33.000Z</time></trkpt>
<trkpt lat="42.098743" lon="23.584292"><ele>2314</ele><time>2026-03-08T13:27:34.000Z</time></trkpt>
<trkpt lat="42.098743" lon="23.584308"><ele>2314</ele><time>2026-03-08T13:27:35.000Z</time></trkpt>
<trkpt lat="42.098743" lon="23.584324"><ele>2314</ele><time>2026-03-08T13:27:36.000Z</time></trkpt>
<trkpt lat="42.098745" lon="23.584341"><ele>2312.6</ele><time>2026-03-08T13:27:37.000Z</time></trkpt>
<trkpt lat="42.098747" lon="23.584358"><ele>2312.6</ele><time>2026-03-08T13:27:38.000Z</time></trkpt>
<trkpt lat="42.09875" lon="23.584376"><ele>2312.6</ele><time>2026-03-08T13:27:39.000Z</time></trkpt>
<trkpt lat="42.098753" lon="23.584393"><ele>2312.6</ele><time>2026-03-08T13:27:40.000Z</time></trkpt>
<trkpt lat="42.098755" lon="23.58441"><ele>2312.6</ele><time>2026-03-08T13:27:41.000Z</time></trkpt>
<trkpt lat="42.098758" lon="23.584427"><ele>2312</ele><time>2026-03-08T13:27:42.000Z</time></trkpt>
<trkpt lat="42.098761" lon="23.584444"><ele>2312</ele><time>2026-03-08T13:27:43.000Z</time></trkpt>
<trkpt lat="42.098764" lon="23.58446"><ele>2312</ele><time>2026-03-08T13:27:44.000Z</time></trkpt>
<trkpt lat="42.098767" lon="23.584475"><ele>2312</ele><time>2026-03-08T13:27:45.000Z</time></trkpt>
<trkpt lat="42.098771" lon="23.58449"><ele>2312</ele><time>2026-03-08T13:27:46.000Z</time></trkpt>
<trkpt lat="42.098774" lon="23.584503"><ele>2310.9</ele><time>2026-03-08T13:27:47.000Z</time></trkpt>
<trkpt lat="42.098778" lon="23.584515"><ele>2310.9</ele><time>2026-03-08T13:27:48.000Z</time></trkpt>
<trkpt lat="42.098782" lon="23.584528"><ele>2310.9</ele><time>2026-03-08T13:27:49.000Z</time></trkpt>
<trkpt lat="42.098785" lon="23.58454"><ele>2310.9</ele><time>2026-03-08T13:27:50.000Z</time></trkpt>
<trkpt lat="42.098789" lon="23.584552"><ele>2310.9</ele><time>2026-03-08T13:27:51.000Z</time></trkpt>
<trkpt lat="42.098792" lon="23.584566"><ele>2309.7</ele><time>2026-03-08T13:27:52.000Z</time></trkpt>
<trkpt lat="42.098796" lon="23.58458"><ele>2309.7</ele><time>2026-03-08T13:27:53.000Z</time></trkpt>
<trkpt lat="42.0988" lon="23.584593"><ele>2309.7</ele><time>2026-03-08T13:27:54.000Z</time></trkpt>
<trkpt lat="42.098804" lon="23.584607"><ele>2309.7</ele><time>2026-03-08T13:27:55.000Z</time></trkpt>
<trkpt lat="42.098809" lon="23.58462"><ele>2309.7</ele><time>2026-03-08T13:27:56.000Z</time></trkpt>
<trkpt lat="42.098814" lon="23.584633"><ele>2309</ele><time>2026-03-08T13:27:57.000Z</time></trkpt>
<trkpt lat="42.098819" lon="23.584646"><ele>2309</ele><time>2026-03-08T13:27:58.000Z</time></trkpt>
<trkpt lat="42.098824" lon="23.584658"><ele>2309</ele><time>2026-03-08T13:27:59.000Z</time></trkpt>
<trkpt lat="42.09883" lon="23.584671"><ele>2309</ele><time>2026-03-08T13:28:00.000Z</time></trkpt>
<trkpt lat="42.098835" lon="23.584683"><ele>2309</ele><time>2026-03-08T13:28:01.000Z</time></trkpt>
<trkpt lat="42.098841" lon="23.584695"><ele>2307.9</ele><time>2026-03-08T13:28:02.000Z</time></trkpt>
<trkpt lat="42.098846" lon="23.584705"><ele>2307.9</ele><time>2026-03-08T13:28:03.000Z</time></trkpt>
<trkpt lat="42.098852" lon="23.584716"><ele>2307.9</ele><time>2026-03-08T13:28:04.000Z</time></trkpt>
<trkpt lat="42.098857" lon="23.584726"><ele>2307.9</ele><time>2026-03-08T13:28:05.000Z</time></trkpt>
<trkpt lat="42.098863" lon="23.584737"><ele>2307.9</ele><time>2026-03-08T13:28:06.000Z</time></trkpt>
<trkpt lat="42.098868" lon="23.584747"><ele>2307.1</ele><time>2026-03-08T13:28:07.000Z</time></trkpt>
<trkpt lat="42.098874" lon="23.584757"><ele>2307.1</ele><time>2026-03-08T13:28:08.000Z</time></trkpt>
<trkpt lat="42.098881" lon="23.584768"><ele>2307.1</ele><time>2026-03-08T13:28:09.000Z</time></trkpt>
<trkpt lat="42.098886" lon="23.584779"><ele>2307.1</ele><time>2026-03-08T13:28:10.000Z</time></trkpt>
<trkpt lat="42.098892" lon="23.58479"><ele>2307.1</ele><time>2026-03-08T13:28:11.000Z</time></trkpt>
<trkpt lat="42.098897" lon="23.584801"><ele>2306.7</ele><time>2026-03-08T13:28:12.000Z</time></trkpt>
<trkpt lat="42.098902" lon="23.584812"><ele>2306.7</ele><time>2026-03-08T13:28:13.000Z</time></trkpt>
<trkpt lat="42.098906" lon="23.584822"><ele>2306.7</ele><time>2026-03-08T13:28:14.000Z</time></trkpt>
<trkpt lat="42.098911" lon="23.584832"><ele>2306.7</ele><time>2026-03-08T13:28:15.000Z</time></trkpt>
<trkpt lat="42.098917" lon="23.584842"><ele>2306.7</ele><time>2026-03-08T13:28:16.000Z</time></trkpt>
<trkpt lat="42.098922" lon="23.584853"><ele>2306</ele><time>2026-03-08T13:28:17.000Z</time></trkpt>
<trkpt lat="42.098927" lon="23.584864"><ele>2306</ele><time>2026-03-08T13:28:18.000Z</time></trkpt>
<trkpt lat="42.098932" lon="23.584875"><ele>2306</ele><time>2026-03-08T13:28:19.000Z</time></trkpt>
<trkpt lat="42.098937" lon="23.584886"><ele>2306</ele><time>2026-03-08T13:28:20.000Z</time></trkpt>
<trkpt lat="42.098942" lon="23.584897"><ele>2306</ele><time>2026-03-08T13:28:21.000Z</time></trkpt>
<trkpt lat="42.098948" lon="23.584909"><ele>2305.2</ele><time>2026-03-08T13:28:22.000Z</time></trkpt>
<trkpt lat="42.098954" lon="23.584921"><ele>2305.2</ele><time>2026-03-08T13:28:23.000Z</time></trkpt>
<trkpt lat="42.098959" lon="23.584931"><ele>2305.2</ele><time>2026-03-08T13:28:24.000Z</time></trkpt>
<trkpt lat="42.098964" lon="23.58494"><ele>2305.2</ele><time>2026-03-08T13:28:25.000Z</time></trkpt>
<trkpt lat="42.098967" lon="23.584947"><ele>2305.2</ele><time>2026-03-08T13:28:26.000Z</time></trkpt>
<trkpt lat="42.098967" lon="23.584953"><ele>2304.9</ele><time>2026-03-08T13:28:27.000Z</time></trkpt>
<trkpt lat="42.098965" lon="23.584956"><ele>2304.9</ele><time>2026-03-08T13:28:28.000Z</time></trkpt>
<trkpt lat="42.098963" lon="23.584959"><ele>2304.9</ele><time>2026-03-08T13:28:29.000Z</time></trkpt>
<trkpt lat="42.098961" lon="23.58496"><ele>2304.9</ele><time>2026-03-08T13:28:30.000Z</time></trkpt>
<trkpt lat="42.098958" lon="23.584962"><ele>2304.9</ele><time>2026-03-08T13:28:31.000Z</time></trkpt>
<trkpt lat="42.098957" lon="23.584963"><ele>2304.3</ele><time>2026-03-08T13:28:32.000Z</time></trkpt>
<trkpt lat="42.098956" lon="23.584963"><ele>2304.3</ele><time>2026-03-08T13:28:33.000Z</time></trkpt>
<trkpt lat="42.098955" lon="23.584963"><ele>2304.3</ele><time>2026-03-08T13:28:34.000Z</time></trkpt>
<trkpt lat="42.098954" lon="23.584963"><ele>2304.3</ele><time>2026-03-08T13:28:35.000Z</time></trkpt>
<trkpt lat="42.098953" lon="23.584963"><ele>2304.3</ele><time>2026-03-08T13:28:36.000Z</time></trkpt>
<trkpt lat="42.098952" lon="23.584964"><ele>2303.9</ele><time>2026-03-08T13:28:37.000Z</time></trkpt>
<trkpt lat="42.098952" lon="23.584964"><ele>2303.9</ele><time>2026-03-08T13:28:38.000Z</time></trkpt>
<trkpt lat="42.098951" lon="23.584965"><ele>2303.9</ele><time>2026-03-08T13:28:39.000Z</time></trkpt>
<trkpt lat="42.098951" lon="23.584965"><ele>2303.9</ele><time>2026-03-08T13:28:40.000Z</time></trkpt>
<trkpt lat="42.098951" lon="23.584965"><ele>2303.9</ele><time>2026-03-08T13:28:41.000Z</time></trkpt>
<trkpt lat="42.098951" lon="23.584964"><ele>2303.7</ele><time>2026-03-08T13:28:42.000Z</time></trkpt>
<trkpt lat="42.098951" lon="23.584963"><ele>2303.7</ele><time>2026-03-08T13:28:43.000Z</time></trkpt>
<trkpt lat="42.098951" lon="23.584962"><ele>2303.7</ele><time>2026-03-08T13:28:44.000Z</time></trkpt>
<trkpt lat="42.098951" lon="23.58496"><ele>2303.7</ele><time>2026-03-08T13:28:45.000Z</time></trkpt>
<trkpt lat="42.098951" lon="23.584959"><ele>2303.7</ele><time>2026-03-08T13:28:46.000Z</time></trkpt>
<trkpt lat="42.098951" lon="23.584958"><ele>2303.5</ele><time>2026-03-08T13:28:47.000Z</time></trkpt>
<trkpt lat="42.098952" lon="23.584958"><ele>2303.5</ele><time>2026-03-08T13:28:48.000Z</time></trkpt>
<trkpt lat="42.098952" lon="23.584957"><ele>2303.5</ele><time>2026-03-08T13:28:49.000Z</time></trkpt>
<trkpt lat="42.098952" lon="23.584957"><ele>2303.5</ele><time>2026-03-08T13:28:50.000Z</time></trkpt>
<trkpt lat="42.098951" lon="23.584956"><ele>2303.5</ele><time>2026-03-08T13:28:51.000Z</time></trkpt>
<trkpt lat="42.09895" lon="23.584955"><ele>2303.4</ele><time>2026-03-08T13:28:52.000Z</time></trkpt>
<trkpt lat="42.09895" lon="23.584954"><ele>2303.4</ele><time>2026-03-08T13:28:53.000Z</time></trkpt>
<trkpt lat="42.098949" lon="23.584953"><ele>2303.4</ele><time>2026-03-08T13:28:54.000Z</time></trkpt>
<trkpt lat="42.098949" lon="23.584952"><ele>2303.4</ele><time>2026-03-08T13:28:55.000Z</time></trkpt>
<trkpt lat="42.09895" lon="23.584952"><ele>2303.4</ele><time>2026-03-08T13:28:56.000Z</time></trkpt>
<trkpt lat="42.09895" lon="23.584951"><ele>2303.4</ele><time>2026-03-08T13:28:57.000Z</time></trkpt>
<trkpt lat="42.098951" lon="23.584951"><ele>2303.4</ele><time>2026-03-08T13:28:58.000Z</time></trkpt>
<trkpt lat="42.098951" lon="23.58495"><ele>2303.4</ele><time>2026-03-08T13:28:59.000Z</time></trkpt>
<trkpt lat="42.098951" lon="23.58495"><ele>2303.4</ele><time>2026-03-08T13:29:00.000Z</time></trkpt>
<trkpt lat="42.098951" lon="23.58495"><ele>2303.4</ele><time>2026-03-08T13:29:01.000Z</time></trkpt>
<trkpt lat="42.098951" lon="23.58495"><ele>2303.6</ele><time>2026-03-08T13:29:02.000Z</time></trkpt>
<trkpt lat="42.098951" lon="23.58495"><ele>2303.6</ele><time>2026-03-08T13:29:03.000Z</time></trkpt>
<trkpt lat="42.098951" lon="23.58495"><ele>2303.6</ele><time>2026-03-08T13:29:04.000Z</time></trkpt>
<trkpt lat="42.098951" lon="23.58495"><ele>2303.6</ele><time>2026-03-08T13:29:05.000Z</time></trkpt>
<trkpt lat="42.098951" lon="23.58495"><ele>2303.6</ele><time>2026-03-08T13:29:06.000Z</time></trkpt>
<trkpt lat="42.098951" lon="23.58495"><ele>2303.9</ele><time>2026-03-08T13:29:07.000Z</time></trkpt>
<trkpt lat="42.098951" lon="23.58495"><ele>2303.9</ele><time>2026-03-08T13:29:08.000Z</time></trkpt>
<trkpt lat="42.098951" lon="23.58495"><ele>2303.9</ele><time>2026-03-08T13:29:09.000Z</time></trkpt>
<trkpt lat="42.098951" lon="23.584951"><ele>2303.9</ele><time>2026-03-08T13:29:10.000Z</time></trkpt>
<trkpt lat="42.098951" lon="23.584951"><ele>2303.9</ele><time>2026-03-08T13:29:11.000Z</time></trkpt>
<trkpt lat="42.098951" lon="23.584952"><ele>2304.1</ele><time>2026-03-08T13:29:12.000Z</time></trkpt>
<trkpt lat="42.098951" lon="23.584952"><ele>2304.1</ele><time>2026-03-08T13:29:13.000Z</time></trkpt>
<trkpt lat="42.098951" lon="23.584952"><ele>2304.1</ele><time>2026-03-08T13:29:14.000Z</time></trkpt>
<trkpt lat="42.098951" lon="23.584952"><ele>2304.1</ele><time>2026-03-08T13:29:15.000Z</time></trkpt>
<trkpt lat="42.098951" lon="23.584952"><ele>2304.1</ele><time>2026-03-08T13:29:16.000Z</time></trkpt>
<trkpt lat="42.098951" lon="23.584952"><ele>2304.2</ele><time>2026-03-08T13:29:17.000Z</time></trkpt>
<trkpt lat="42.098951" lon="23.584952"><ele>2304.2</ele><time>2026-03-08T13:29:18.000Z</time></trkpt>
<trkpt lat="42.098951" lon="23.584952"><ele>2304.2</ele><time>2026-03-08T13:29:19.000Z</time></trkpt>
<trkpt lat="42.098951" lon="23.584952"><ele>2304.2</ele><time>2026-03-08T13:29:20.000Z</time></trkpt>
<trkpt lat="42.098951" lon="23.584952"><ele>2304.2</ele><time>2026-03-08T13:29:21.000Z</time></trkpt>
<trkpt lat="42.09895" lon="23.584953"><ele>2304.1</ele><time>2026-03-08T13:29:22.000Z</time></trkpt>
<trkpt lat="42.09895" lon="23.584953"><ele>2304.1</ele><time>2026-03-08T13:29:23.000Z</time></trkpt>
<trkpt lat="42.098949" lon="23.584953"><ele>2304.1</ele><time>2026-03-08T13:29:24.000Z</time></trkpt>
<trkpt lat="42.098949" lon="23.584954"><ele>2304.1</ele><time>2026-03-08T13:29:25.000Z</time></trkpt>
<trkpt lat="42.098948" lon="23.584955"><ele>2304.1</ele><time>2026-03-08T13:29:26.000Z</time></trkpt>
<trkpt lat="42.098948" lon="23.584955"><ele>2304</ele><time>2026-03-08T13:29:27.000Z</time></trkpt>
<trkpt lat="42.098948" lon="23.584956"><ele>2304</ele><time>2026-03-08T13:29:28.000Z</time></trkpt>
<trkpt lat="42.098946" lon="23.584956"><ele>2304</ele><time>2026-03-08T13:29:29.000Z</time></trkpt>
<trkpt lat="42.098945" lon="23.584956"><ele>2304</ele><time>2026-03-08T13:29:30.000Z</time></trkpt>
<trkpt lat="42.098944" lon="23.584956"><ele>2304</ele><time>2026-03-08T13:29:31.000Z</time></trkpt>
<trkpt lat="42.098944" lon="23.584955"><ele>2303.8</ele><time>2026-03-08T13:29:32.000Z</time></trkpt>
<trkpt lat="42.098943" lon="23.584955"><ele>2303.8</ele><time>2026-03-08T13:29:33.000Z</time></trkpt>
<trkpt lat="42.098943" lon="23.584954"><ele>2303.8</ele><time>2026-03-08T13:29:34.000Z</time></trkpt>
<trkpt lat="42.098943" lon="23.584954"><ele>2303.8</ele><time>2026-03-08T13:29:35.000Z</time></trkpt>
<trkpt lat="42.098943" lon="23.584954"><ele>2303.8</ele><time>2026-03-08T13:29:36.000Z</time></trkpt>
<trkpt lat="42.098943" lon="23.584954"><ele>2303.7</ele><time>2026-03-08T13:29:37.000Z</time></trkpt>
<trkpt lat="42.098943" lon="23.584954"><ele>2303.7</ele><time>2026-03-08T13:29:38.000Z</time></trkpt>
<trkpt lat="42.098943" lon="23.584953"><ele>2303.7</ele><time>2026-03-08T13:29:39.000Z</time></trkpt>
<trkpt lat="42.098944" lon="23.584953"><ele>2303.7</ele><time>2026-03-08T13:29:40.000Z</time></trkpt>
<trkpt lat="42.098944" lon="23.584952"><ele>2303.7</ele><time>2026-03-08T13:29:41.000Z</time></trkpt>
<trkpt lat="42.098944" lon="23.584952"><ele>2303.6</ele><time>2026-03-08T13:29:42.000Z</time></trkpt>
<trkpt lat="42.098944" lon="23.584952"><ele>2303.6</ele><time>2026-03-08T13:29:43.000Z</time></trkpt>
<trkpt lat="42.098944" lon="23.584953"><ele>2303.6</ele><time>2026-03-08T13:29:44.000Z</time></trkpt>
<trkpt lat="42.098944" lon="23.584953"><ele>2303.6</ele><time>2026-03-08T13:29:45.000Z</time></trkpt>
<trkpt lat="42.098944" lon="23.584953"><ele>2303.6</ele><time>2026-03-08T13:29:46.000Z</time></trkpt>
<trkpt lat="42.098944" lon="23.584954"><ele>2303.7</ele><time>2026-03-08T13:29:47.000Z</time></trkpt>
<trkpt lat="42.098944" lon="23.584955"><ele>2303.7</ele><time>2026-03-08T13:29:48.000Z</time></trkpt>
<trkpt lat="42.098943" lon="23.584955"><ele>2303.7</ele><time>2026-03-08T13:29:49.000Z</time></trkpt>
<trkpt lat="42.098943" lon="23.584956"><ele>2303.7</ele><time>2026-03-08T13:29:50.000Z</time></trkpt>
<trkpt lat="42.098942" lon="23.584956"><ele>2303.7</ele><time>2026-03-08T13:29:51.000Z</time></trkpt>
<trkpt lat="42.098942" lon="23.584956"><ele>2303.7</ele><time>2026-03-08T13:29:52.000Z</time></trkpt>
<trkpt lat="42.098941" lon="23.584956"><ele>2303.7</ele><time>2026-03-08T13:29:53.000Z</time></trkpt>
<trkpt lat="42.098941" lon="23.584957"><ele>2303.7</ele><time>2026-03-08T13:29:54.000Z</time></trkpt>
<trkpt lat="42.098941" lon="23.584959"><ele>2303.7</ele><time>2026-03-08T13:29:55.000Z</time></trkpt>
<trkpt lat="42.098942" lon="23.584961"><ele>2303.7</ele><time>2026-03-08T13:29:56.000Z</time></trkpt>
<trkpt lat="42.098943" lon="23.584963"><ele>2303.6</ele><time>2026-03-08T13:29:57.000Z</time></trkpt>
<trkpt lat="42.098944" lon="23.584966"><ele>2303.6</ele><time>2026-03-08T13:29:58.000Z</time></trkpt>
<trkpt lat="42.098945" lon="23.584968"><ele>2303.6</ele><time>2026-03-08T13:29:59.000Z</time></trkpt>
<trkpt lat="42.098945" lon="23.584969"><ele>2303.6</ele><time>2026-03-08T13:30:00.000Z</time></trkpt>
<trkpt lat="42.098945" lon="23.58497"><ele>2303.6</ele><time>2026-03-08T13:30:01.000Z</time></trkpt>
<trkpt lat="42.098946" lon="23.584969"><ele>2303.5</ele><time>2026-03-08T13:30:02.000Z</time></trkpt>
<trkpt lat="42.098946" lon="23.584969"><ele>2303.5</ele><time>2026-03-08T13:30:03.000Z</time></trkpt>
<trkpt lat="42.098945" lon="23.584969"><ele>2303.5</ele><time>2026-03-08T13:30:04.000Z</time></trkpt>
<trkpt lat="42.098945" lon="23.584969"><ele>2303.5</ele><time>2026-03-08T13:30:05.000Z</time></trkpt>
<trkpt lat="42.098944" lon="23.58497"><ele>2303.5</ele><time>2026-03-08T13:30:06.000Z</time></trkpt>
<trkpt lat="42.098944" lon="23.58497"><ele>2303.5</ele><time>2026-03-08T13:30:07.000Z</time></trkpt>
<trkpt lat="42.098943" lon="23.584971"><ele>2303.5</ele><time>2026-03-08T13:30:08.000Z</time></trkpt>
<trkpt lat="42.098941" lon="23.584971"><ele>2303.5</ele><time>2026-03-08T13:30:09.000Z</time></trkpt>
<trkpt lat="42.098939" lon="23.584971"><ele>2303.5</ele><time>2026-03-08T13:30:10.000Z</time></trkpt>
<trkpt lat="42.098938" lon="23.58497"><ele>2303.5</ele><time>2026-03-08T13:30:11.000Z</time></trkpt>
<trkpt lat="42.098937" lon="23.584969"><ele>2303.5</ele><time>2026-03-08T13:30:12.000Z</time></trkpt>
<trkpt lat="42.098937" lon="23.584968"><ele>2303.5</ele><time>2026-03-08T13:30:13.000Z</time></trkpt>
<trkpt lat="42.098936" lon="23.584967"><ele>2303.5</ele><time>2026-03-08T13:30:14.000Z</time></trkpt>
<trkpt lat="42.098936" lon="23.584965"><ele>2303.5</ele><time>2026-03-08T13:30:15.000Z</time></trkpt>
<trkpt lat="42.098936" lon="23.584965"><ele>2303.5</ele><time>2026-03-08T13:30:16.000Z</time></trkpt>
<trkpt lat="42.098935" lon="23.584965"><ele>2303.5</ele><time>2026-03-08T13:30:17.000Z</time></trkpt>
<trkpt lat="42.098935" lon="23.584964"><ele>2303.5</ele><time>2026-03-08T13:30:18.000Z</time></trkpt>
<trkpt lat="42.098935" lon="23.584964"><ele>2303.5</ele><time>2026-03-08T13:30:19.000Z</time></trkpt>
<trkpt lat="42.098935" lon="23.584964"><ele>2303.5</ele><time>2026-03-08T13:30:20.000Z</time></trkpt>
<trkpt lat="42.098935" lon="23.584963"><ele>2303.5</ele><time>2026-03-08T13:30:21.000Z</time></trkpt>
<trkpt lat="42.098935" lon="23.584964"><ele>2303.4</ele><time>2026-03-08T13:30:22.000Z</time></trkpt>
<trkpt lat="42.098936" lon="23.584963"><ele>2303.4</ele><time>2026-03-08T13:30:23.000Z</time></trkpt>
<trkpt lat="42.098936" lon="23.584963"><ele>2303.4</ele><time>2026-03-08T13:30:24.000Z</time></trkpt>
<trkpt lat="42.098937" lon="23.584964"><ele>2303.4</ele><time>2026-03-08T13:30:25.000Z</time></trkpt>
<trkpt lat="42.098937" lon="23.584965"><ele>2303.4</ele><time>2026-03-08T13:30:26.000Z</time></trkpt>
<trkpt lat="42.098937" lon="23.584966"><ele>2303.4</ele><time>2026-03-08T13:30:27.000Z</time></trkpt>
<trkpt lat="42.098937" lon="23.584967"><ele>2303.4</ele><time>2026-03-08T13:30:28.000Z</time></trkpt>
<trkpt lat="42.098937" lon="23.584968"><ele>2303.4</ele><time>2026-03-08T13:30:29.000Z</time></trkpt>
<trkpt lat="42.098936" lon="23.584969"><ele>2303.4</ele><time>2026-03-08T13:30:30.000Z</time></trkpt>
<trkpt lat="42.098936" lon="23.584969"><ele>2303.4</ele><time>2026-03-08T13:30:31.000Z</time></trkpt>
<trkpt lat="42.098936" lon="23.584969"><ele>2303.4</ele><time>2026-03-08T13:30:32.000Z</time></trkpt>
<trkpt lat="42.098935" lon="23.584969"><ele>2303.4</ele><time>2026-03-08T13:30:33.000Z</time></trkpt>
<trkpt lat="42.098935" lon="23.584969"><ele>2303.4</ele><time>2026-03-08T13:30:34.000Z</time></trkpt>
<trkpt lat="42.098935" lon="23.584968"><ele>2303.4</ele><time>2026-03-08T13:30:35.000Z</time></trkpt>
<trkpt lat="42.098936" lon="23.584968"><ele>2303.4</ele><time>2026-03-08T13:30:36.000Z</time></trkpt>
<trkpt lat="42.098936" lon="23.584968"><ele>2303.5</ele><time>2026-03-08T13:30:37.000Z</time></trkpt>
<trkpt lat="42.098937" lon="23.584967"><ele>2303.5</ele><time>2026-03-08T13:30:38.000Z</time></trkpt>
<trkpt lat="42.098938" lon="23.584967"><ele>2303.5</ele><time>2026-03-08T13:30:39.000Z</time></trkpt>
<trkpt lat="42.098938" lon="23.584966"><ele>2303.5</ele><time>2026-03-08T13:30:40.000Z</time></trkpt>
<trkpt lat="42.098939" lon="23.584966"><ele>2303.5</ele><time>2026-03-08T13:30:41.000Z</time></trkpt>
<trkpt lat="42.098939" lon="23.584966"><ele>2303.5</ele><time>2026-03-08T13:30:42.000Z</time></trkpt>
<trkpt lat="42.098939" lon="23.584966"><ele>2303.5</ele><time>2026-03-08T13:30:43.000Z</time></trkpt>
<trkpt lat="42.09894" lon="23.584966"><ele>2303.5</ele><time>2026-03-08T13:30:44.000Z</time></trkpt>
<trkpt lat="42.09894" lon="23.584967"><ele>2303.5</ele><time>2026-03-08T13:30:45.000Z</time></trkpt>
<trkpt lat="42.098941" lon="23.584967"><ele>2303.5</ele><time>2026-03-08T13:30:46.000Z</time></trkpt>
<trkpt lat="42.098941" lon="23.584967"><ele>2303.6</ele><time>2026-03-08T13:30:47.000Z</time></trkpt>
<trkpt lat="42.098942" lon="23.584967"><ele>2303.6</ele><time>2026-03-08T13:30:48.000Z</time></trkpt>
<trkpt lat="42.098943" lon="23.584966"><ele>2303.6</ele><time>2026-03-08T13:30:49.000Z</time></trkpt>
<trkpt lat="42.098944" lon="23.584965"><ele>2303.6</ele><time>2026-03-08T13:30:50.000Z</time></trkpt>
<trkpt lat="42.098945" lon="23.584965"><ele>2303.6</ele><time>2026-03-08T13:30:51.000Z</time></trkpt>
<trkpt lat="42.098945" lon="23.584964"><ele>2303.5</ele><time>2026-03-08T13:30:52.000Z</time></trkpt>
<trkpt lat="42.098944" lon="23.584964"><ele>2303.5</ele><time>2026-03-08T13:30:53.000Z</time></trkpt>
<trkpt lat="42.098943" lon="23.584964"><ele>2303.5</ele><time>2026-03-08T13:30:54.000Z</time></trkpt>
<trkpt lat="42.098942" lon="23.584964"><ele>2303.5</ele><time>2026-03-08T13:30:55.000Z</time></trkpt>
<trkpt lat="42.098941" lon="23.584964"><ele>2303.5</ele><time>2026-03-08T13:30:56.000Z</time></trkpt>
<trkpt lat="42.09894" lon="23.584964"><ele>2303.4</ele><time>2026-03-08T13:30:57.000Z</time></trkpt>
<trkpt lat="42.09894" lon="23.584964"><ele>2303.4</ele><time>2026-03-08T13:30:58.000Z</time></trkpt>
<trkpt lat="42.098939" lon="23.584964"><ele>2303.4</ele><time>2026-03-08T13:30:59.000Z</time></trkpt>
<trkpt lat="42.098939" lon="23.584963"><ele>2303.4</ele><time>2026-03-08T13:31:00.000Z</time></trkpt>
<trkpt lat="42.098938" lon="23.584963"><ele>2303.4</ele><time>2026-03-08T13:31:01.000Z</time></trkpt>
<trkpt lat="42.098938" lon="23.584963"><ele>2303.3</ele><time>2026-03-08T13:31:02.000Z</time></trkpt>
<trkpt lat="42.098938" lon="23.584963"><ele>2303.3</ele><time>2026-03-08T13:31:03.000Z</time></trkpt>
<trkpt lat="42.098938" lon="23.584963"><ele>2303.3</ele><time>2026-03-08T13:31:04.000Z</time></trkpt>
<trkpt lat="42.098938" lon="23.584963"><ele>2303.3</ele><time>2026-03-08T13:31:05.000Z</time></trkpt>
<trkpt lat="42.098938" lon="23.584963"><ele>2303.3</ele><time>2026-03-08T13:31:06.000Z</time></trkpt>
<trkpt lat="42.098939" lon="23.584963"><ele>2303.3</ele><time>2026-03-08T13:31:07.000Z</time></trkpt>
<trkpt lat="42.09894" lon="23.584964"><ele>2303.3</ele><time>2026-03-08T13:31:08.000Z</time></trkpt>
<trkpt lat="42.09894" lon="23.584963"><ele>2303.3</ele><time>2026-03-08T13:31:09.000Z</time></trkpt>
<trkpt lat="42.098941" lon="23.584963"><ele>2303.3</ele><time>2026-03-08T13:31:10.000Z</time></trkpt>
<trkpt lat="42.098941" lon="23.584962"><ele>2303.3</ele><time>2026-03-08T13:31:11.000Z</time></trkpt>
<trkpt lat="42.098941" lon="23.584962"><ele>2303.4</ele><time>2026-03-08T13:31:12.000Z</time></trkpt>
<trkpt lat="42.098941" lon="23.584962"><ele>2303.4</ele><time>2026-03-08T13:31:13.000Z</time></trkpt>
<trkpt lat="42.098941" lon="23.584963"><ele>2303.4</ele><time>2026-03-08T13:31:14.000Z</time></trkpt>
<trkpt lat="42.098941" lon="23.584963"><ele>2303.4</ele><time>2026-03-08T13:31:15.000Z</time></trkpt>
<trkpt lat="42.098941" lon="23.584963"><ele>2303.4</ele><time>2026-03-08T13:31:16.000Z</time></trkpt>
<trkpt lat="42.098941" lon="23.584963"><ele>2303.5</ele><time>2026-03-08T13:31:17.000Z</time></trkpt>
<trkpt lat="42.098941" lon="23.584964"><ele>2303.5</ele><time>2026-03-08T13:31:18.000Z</time></trkpt>
<trkpt lat="42.09894" lon="23.584964"><ele>2303.5</ele><time>2026-03-08T13:31:19.000Z</time></trkpt>
<trkpt lat="42.098939" lon="23.584964"><ele>2303.5</ele><time>2026-03-08T13:31:20.000Z</time></trkpt>
<trkpt lat="42.098938" lon="23.584964"><ele>2303.5</ele><time>2026-03-08T13:31:21.000Z</time></trkpt>
<trkpt lat="42.098937" lon="23.584964"><ele>2303.7</ele><time>2026-03-08T13:31:22.000Z</time></trkpt>
<trkpt lat="42.098937" lon="23.584965"><ele>2303.7</ele><time>2026-03-08T13:31:23.000Z</time></trkpt>
<trkpt lat="42.098938" lon="23.584965"><ele>2303.7</ele><time>2026-03-08T13:31:24.000Z</time></trkpt>
<trkpt lat="42.098939" lon="23.584968"><ele>2303.7</ele><time>2026-03-08T13:31:25.000Z</time></trkpt>
<trkpt lat="42.098941" lon="23.584973"><ele>2303.7</ele><time>2026-03-08T13:31:26.000Z</time></trkpt>
<trkpt lat="42.098944" lon="23.58498"><ele>2303.8</ele><time>2026-03-08T13:31:27.000Z</time></trkpt>
<trkpt lat="42.098947" lon="23.584991"><ele>2303.8</ele><time>2026-03-08T13:31:28.000Z</time></trkpt>
<trkpt lat="42.09895" lon="23.585003"><ele>2303.8</ele><time>2026-03-08T13:31:29.000Z</time></trkpt>
<trkpt lat="42.098952" lon="23.585017"><ele>2303.8</ele><time>2026-03-08T13:31:30.000Z</time></trkpt>
<trkpt lat="42.098954" lon="23.585031"><ele>2303.8</ele><time>2026-03-08T13:31:31.000Z</time></trkpt>
<trkpt lat="42.098956" lon="23.585044"><ele>2303.8</ele><time>2026-03-08T13:31:32.000Z</time></trkpt>
<trkpt lat="42.098957" lon="23.585056"><ele>2303.8</ele><time>2026-03-08T13:31:33.000Z</time></trkpt>
<trkpt lat="42.098959" lon="23.58507"><ele>2303.8</ele><time>2026-03-08T13:31:34.000Z</time></trkpt>
<trkpt lat="42.098961" lon="23.585083"><ele>2303.8</ele><time>2026-03-08T13:31:35.000Z</time></trkpt>
<trkpt lat="42.098964" lon="23.585097"><ele>2303.8</ele><time>2026-03-08T13:31:36.000Z</time></trkpt>
<trkpt lat="42.098966" lon="23.585111"><ele>2303.5</ele><time>2026-03-08T13:31:37.000Z</time></trkpt>
<trkpt lat="42.098967" lon="23.585126"><ele>2303.5</ele><time>2026-03-08T13:31:38.000Z</time></trkpt>
<trkpt lat="42.098968" lon="23.585141"><ele>2303.5</ele><time>2026-03-08T13:31:39.000Z</time></trkpt>
<trkpt lat="42.098969" lon="23.585158"><ele>2303.5</ele><time>2026-03-08T13:31:40.000Z</time></trkpt>
<trkpt lat="42.09897" lon="23.585174"><ele>2303.5</ele><time>2026-03-08T13:31:41.000Z</time></trkpt>
<trkpt lat="42.098973" lon="23.58519"><ele>2303.4</ele><time>2026-03-08T13:31:42.000Z</time></trkpt>
<trkpt lat="42.098976" lon="23.585206"><ele>2303.4</ele><time>2026-03-08T13:31:43.000Z</time></trkpt>
<trkpt lat="42.09898" lon="23.585221"><ele>2303.4</ele><time>2026-03-08T13:31:44.000Z</time></trkpt>
<trkpt lat="42.098984" lon="23.585236"><ele>2303.4</ele><time>2026-03-08T13:31:45.000Z</time></trkpt>
<trkpt lat="42.098987" lon="23.585252"><ele>2303.4</ele><time>2026-03-08T13:31:46.000Z</time></trkpt>
<trkpt lat="42.098989" lon="23.585268"><ele>2303</ele><time>2026-03-08T13:31:47.000Z</time></trkpt>
<trkpt lat="42.098992" lon="23.585284"><ele>2303</ele><time>2026-03-08T13:31:48.000Z</time></trkpt>
<trkpt lat="42.098996" lon="23.5853"><ele>2303</ele><time>2026-03-08T13:31:49.000Z</time></trkpt>
<trkpt lat="42.098999" lon="23.585315"><ele>2303</ele><time>2026-03-08T13:31:50.000Z</time></trkpt>
<trkpt lat="42.099003" lon="23.58533"><ele>2303</ele><time>2026-03-08T13:31:51.000Z</time></trkpt>
<trkpt lat="42.099007" lon="23.585345"><ele>2302.3</ele><time>2026-03-08T13:31:52.000Z</time></trkpt>
<trkpt lat="42.09901" lon="23.585361"><ele>2302.3</ele><time>2026-03-08T13:31:53.000Z</time></trkpt>
<trkpt lat="42.099013" lon="23.585376"><ele>2302.3</ele><time>2026-03-08T13:31:54.000Z</time></trkpt>
<trkpt lat="42.099017" lon="23.585392"><ele>2302.3</ele><time>2026-03-08T13:31:55.000Z</time></trkpt>
<trkpt lat="42.099021" lon="23.585408"><ele>2302.3</ele><time>2026-03-08T13:31:56.000Z</time></trkpt>
<trkpt lat="42.099025" lon="23.585424"><ele>2301.8</ele><time>2026-03-08T13:31:57.000Z</time></trkpt>
<trkpt lat="42.099029" lon="23.585442"><ele>2301.8</ele><time>2026-03-08T13:31:58.000Z</time></trkpt>
<trkpt lat="42.099033" lon="23.585459"><ele>2301.8</ele><time>2026-03-08T13:31:59.000Z</time></trkpt>
<trkpt lat="42.099037" lon="23.585476"><ele>2301.8</ele><time>2026-03-08T13:32:00.000Z</time></trkpt>
<trkpt lat="42.099042" lon="23.585492"><ele>2301.8</ele><time>2026-03-08T13:32:01.000Z</time></trkpt>
<trkpt lat="42.099047" lon="23.585508"><ele>2300.7</ele><time>2026-03-08T13:32:02.000Z</time></trkpt>
<trkpt lat="42.099052" lon="23.585523"><ele>2300.7</ele><time>2026-03-08T13:32:03.000Z</time></trkpt>
<trkpt lat="42.099056" lon="23.585539"><ele>2300.7</ele><time>2026-03-08T13:32:04.000Z</time></trkpt>
<trkpt lat="42.09906" lon="23.585556"><ele>2300.7</ele><time>2026-03-08T13:32:05.000Z</time></trkpt>
<trkpt lat="42.099062" lon="23.585573"><ele>2300.7</ele><time>2026-03-08T13:32:06.000Z</time></trkpt>
<trkpt lat="42.099063" lon="23.58559"><ele>2299.3</ele><time>2026-03-08T13:32:07.000Z</time></trkpt>
<trkpt lat="42.099063" lon="23.585608"><ele>2299.3</ele><time>2026-03-08T13:32:08.000Z</time></trkpt>
<trkpt lat="42.099062" lon="23.585626"><ele>2299.3</ele><time>2026-03-08T13:32:09.000Z</time></trkpt>
<trkpt lat="42.099061" lon="23.585644"><ele>2299.3</ele><time>2026-03-08T13:32:10.000Z</time></trkpt>
<trkpt lat="42.09906" lon="23.585662"><ele>2299.3</ele><time>2026-03-08T13:32:11.000Z</time></trkpt>
<trkpt lat="42.099059" lon="23.58568"><ele>2298.6</ele><time>2026-03-08T13:32:12.000Z</time></trkpt>
<trkpt lat="42.099058" lon="23.585697"><ele>2298.6</ele><time>2026-03-08T13:32:13.000Z</time></trkpt>
<trkpt lat="42.099059" lon="23.585714"><ele>2298.6</ele><time>2026-03-08T13:32:14.000Z</time></trkpt>
<trkpt lat="42.09906" lon="23.58573"><ele>2298.6</ele><time>2026-03-08T13:32:15.000Z</time></trkpt>
<trkpt lat="42.099061" lon="23.585747"><ele>2298.6</ele><time>2026-03-08T13:32:16.000Z</time></trkpt>
<trkpt lat="42.099064" lon="23.585762"><ele>2297.4</ele><time>2026-03-08T13:32:17.000Z</time></trkpt>
<trkpt lat="42.099068" lon="23.585776"><ele>2297.4</ele><time>2026-03-08T13:32:18.000Z</time></trkpt>
<trkpt lat="42.099073" lon="23.585789"><ele>2297.4</ele><time>2026-03-08T13:32:19.000Z</time></trkpt>
<trkpt lat="42.099079" lon="23.585801"><ele>2297.4</ele><time>2026-03-08T13:32:20.000Z</time></trkpt>
<trkpt lat="42.099086" lon="23.585811"><ele>2297.4</ele><time>2026-03-08T13:32:21.000Z</time></trkpt>
<trkpt lat="42.099093" lon="23.585822"><ele>2296.3</ele><time>2026-03-08T13:32:22.000Z</time></trkpt>
<trkpt lat="42.099099" lon="23.585833"><ele>2296.3</ele><time>2026-03-08T13:32:23.000Z</time></trkpt>
<trkpt lat="42.099104" lon="23.585844"><ele>2296.3</ele><time>2026-03-08T13:32:24.000Z</time></trkpt>
<trkpt lat="42.099109" lon="23.585856"><ele>2296.3</ele><time>2026-03-08T13:32:25.000Z</time></trkpt>
<trkpt lat="42.099113" lon="23.585868"><ele>2296.3</ele><time>2026-03-08T13:32:26.000Z</time></trkpt>
<trkpt lat="42.099118" lon="23.585878"><ele>2295.7</ele><time>2026-03-08T13:32:27.000Z</time></trkpt>
<trkpt lat="42.099123" lon="23.585888"><ele>2295.7</ele><time>2026-03-08T13:32:28.000Z</time></trkpt>
<trkpt lat="42.099128" lon="23.585898"><ele>2295.7</ele><time>2026-03-08T13:32:29.000Z</time></trkpt>
<trkpt lat="42.099133" lon="23.585908"><ele>2295.7</ele><time>2026-03-08T13:32:30.000Z</time></trkpt>
<trkpt lat="42.099138" lon="23.585917"><ele>2295.7</ele><time>2026-03-08T13:32:31.000Z</time></trkpt>
<trkpt lat="42.099143" lon="23.585926"><ele>2294</ele><time>2026-03-08T13:32:32.000Z</time></trkpt>
<trkpt lat="42.099148" lon="23.585936"><ele>2294</ele><time>2026-03-08T13:32:33.000Z</time></trkpt>
<trkpt lat="42.099153" lon="23.585946"><ele>2294</ele><time>2026-03-08T13:32:34.000Z</time></trkpt>
<trkpt lat="42.099159" lon="23.585956"><ele>2294</ele><time>2026-03-08T13:32:35.000Z</time></trkpt>
<trkpt lat="42.099164" lon="23.585968"><ele>2294</ele><time>2026-03-08T13:32:36.000Z</time></trkpt>
<trkpt lat="42.099169" lon="23.585979"><ele>2292</ele><time>2026-03-08T13:32:37.000Z</time></trkpt>
<trkpt lat="42.099174" lon="23.58599"><ele>2292</ele><time>2026-03-08T13:32:38.000Z</time></trkpt>
<trkpt lat="42.09918" lon="23.586001"><ele>2292</ele><time>2026-03-08T13:32:39.000Z</time></trkpt>
<trkpt lat="42.099185" lon="23.586014"><ele>2292</ele><time>2026-03-08T13:32:40.000Z</time></trkpt>
<trkpt lat="42.099191" lon="23.586025"><ele>2292</ele><time>2026-03-08T13:32:41.000Z</time></trkpt>
<trkpt lat="42.099198" lon="23.586036"><ele>2290.8</ele><time>2026-03-08T13:32:42.000Z</time></trkpt>
<trkpt lat="42.099204" lon="23.586048"><ele>2290.8</ele><time>2026-03-08T13:32:43.000Z</time></trkpt>
<trkpt lat="42.09921" lon="23.58606"><ele>2290.8</ele><time>2026-03-08T13:32:44.000Z</time></trkpt>
<trkpt lat="42.099216" lon="23.586071"><ele>2290.8</ele><time>2026-03-08T13:32:45.000Z</time></trkpt>
<trkpt lat="42.099222" lon="23.586084"><ele>2290.8</ele><time>2026-03-08T13:32:46.000Z</time></trkpt>
<trkpt lat="42.099229" lon="23.586096"><ele>2288.3</ele><time>2026-03-08T13:32:47.000Z</time></trkpt>
<trkpt lat="42.099235" lon="23.586108"><ele>2288.3</ele><time>2026-03-08T13:32:48.000Z</time></trkpt>
<trkpt lat="42.099242" lon="23.586122"><ele>2288.3</ele><time>2026-03-08T13:32:49.000Z</time></trkpt>
<trkpt lat="42.099249" lon="23.586135"><ele>2288.3</ele><time>2026-03-08T13:32:50.000Z</time></trkpt>
<trkpt lat="42.099255" lon="23.586149"><ele>2288.3</ele><time>2026-03-08T13:32:51.000Z</time></trkpt>
<trkpt lat="42.099261" lon="23.586162"><ele>2285.8</ele><time>2026-03-08T13:32:52.000Z</time></trkpt>
<trkpt lat="42.099267" lon="23.586175"><ele>2285.8</ele><time>2026-03-08T13:32:53.000Z</time></trkpt>
<trkpt lat="42.099273" lon="23.586187"><ele>2285.8</ele><time>2026-03-08T13:32:54.000Z</time></trkpt>
<trkpt lat="42.099278" lon="23.586198"><ele>2285.8</ele><time>2026-03-08T13:32:55.000Z</time></trkpt>
<trkpt lat="42.099284" lon="23.586209"><ele>2285.8</ele><time>2026-03-08T13:32:56.000Z</time></trkpt>
<trkpt lat="42.09929" lon="23.586219"><ele>2284.6</ele><time>2026-03-08T13:32:57.000Z</time></trkpt>
<trkpt lat="42.099297" lon="23.586229"><ele>2284.6</ele><time>2026-03-08T13:32:58.000Z</time></trkpt>
<trkpt lat="42.099304" lon="23.586238"><ele>2284.6</ele><time>2026-03-08T13:32:59.000Z</time></trkpt>
<trkpt lat="42.099312" lon="23.586246"><ele>2284.6</ele><time>2026-03-08T13:33:00.000Z</time></trkpt>
<trkpt lat="42.09932" lon="23.586253"><ele>2284.6</ele><time>2026-03-08T13:33:01.000Z</time></trkpt>
<trkpt lat="42.099328" lon="23.58626"><ele>2282.5</ele><time>2026-03-08T13:33:02.000Z</time></trkpt>
<trkpt lat="42.099337" lon="23.586267"><ele>2282.5</ele><time>2026-03-08T13:33:03.000Z</time></trkpt>
<trkpt lat="42.099345" lon="23.586274"><ele>2282.5</ele><time>2026-03-08T13:33:04.000Z</time></trkpt>
<trkpt lat="42.099354" lon="23.586282"><ele>2282.5</ele><time>2026-03-08T13:33:05.000Z</time></trkpt>
<trkpt lat="42.099364" lon="23.586291"><ele>2282.5</ele><time>2026-03-08T13:33:06.000Z</time></trkpt>
<trkpt lat="42.099373" lon="23.5863"><ele>2280.7</ele><time>2026-03-08T13:33:07.000Z</time></trkpt>
<trkpt lat="42.099382" lon="23.586309"><ele>2280.7</ele><time>2026-03-08T13:33:08.000Z</time></trkpt>
<trkpt lat="42.09939" lon="23.586319"><ele>2280.7</ele><time>2026-03-08T13:33:09.000Z</time></trkpt>
<trkpt lat="42.099398" lon="23.586329"><ele>2280.7</ele><time>2026-03-08T13:33:10.000Z</time></trkpt>
<trkpt lat="42.099405" lon="23.58634"><ele>2280.7</ele><time>2026-03-08T13:33:11.000Z</time></trkpt>
<trkpt lat="42.099412" lon="23.586351"><ele>2279.9</ele><time>2026-03-08T13:33:12.000Z</time></trkpt>
<trkpt lat="42.099419" lon="23.586362"><ele>2279.9</ele><time>2026-03-08T13:33:13.000Z</time></trkpt>
<trkpt lat="42.099426" lon="23.586374"><ele>2279.9</ele><time>2026-03-08T13:33:14.000Z</time></trkpt>
<trkpt lat="42.099435" lon="23.586386"><ele>2279.9</ele><time>2026-03-08T13:33:15.000Z</time></trkpt>
<trkpt lat="42.099445" lon="23.586399"><ele>2279.9</ele><time>2026-03-08T13:33:16.000Z</time></trkpt>
<trkpt lat="42.099454" lon="23.586412"><ele>2278.5</ele><time>2026-03-08T13:33:17.000Z</time></trkpt>
<trkpt lat="42.099462" lon="23.586424"><ele>2278.5</ele><time>2026-03-08T13:33:18.000Z</time></trkpt>
<trkpt lat="42.09947" lon="23.586434"><ele>2278.5</ele><time>2026-03-08T13:33:19.000Z</time></trkpt>
<trkpt lat="42.099478" lon="23.586445"><ele>2278.5</ele><time>2026-03-08T13:33:20.000Z</time></trkpt>
<trkpt lat="42.099485" lon="23.586457"><ele>2278.5</ele><time>2026-03-08T13:33:21.000Z</time></trkpt>
<trkpt lat="42.099492" lon="23.58647"><ele>2277.2</ele><time>2026-03-08T13:33:22.000Z</time></trkpt>
<trkpt lat="42.099499" lon="23.586484"><ele>2277.2</ele><time>2026-03-08T13:33:23.000Z</time></trkpt>
<trkpt lat="42.099507" lon="23.586498"><ele>2277.2</ele><time>2026-03-08T13:33:24.000Z</time></trkpt>
<trkpt lat="42.099514" lon="23.586512"><ele>2277.2</ele><time>2026-03-08T13:33:25.000Z</time></trkpt>
<trkpt lat="42.099522" lon="23.586525"><ele>2277.2</ele><time>2026-03-08T13:33:26.000Z</time></trkpt>
<trkpt lat="42.09953" lon="23.586537"><ele>2276.5</ele><time>2026-03-08T13:33:27.000Z</time></trkpt>
<trkpt lat="42.099538" lon="23.58655"><ele>2276.5</ele><time>2026-03-08T13:33:28.000Z</time></trkpt>
<trkpt lat="42.099546" lon="23.586562"><ele>2276.5</ele><time>2026-03-08T13:33:29.000Z</time></trkpt>
<trkpt lat="42.099553" lon="23.586575"><ele>2276.5</ele><time>2026-03-08T13:33:30.000Z</time></trkpt>
<trkpt lat="42.099559" lon="23.586588"><ele>2276.5</ele><time>2026-03-08T13:33:31.000Z</time></trkpt>
<trkpt lat="42.099566" lon="23.586601"><ele>2275.1</ele><time>2026-03-08T13:33:32.000Z</time></trkpt>
<trkpt lat="42.099572" lon="23.586614"><ele>2275.1</ele><time>2026-03-08T13:33:33.000Z</time></trkpt>
<trkpt lat="42.099578" lon="23.586628"><ele>2275.1</ele><time>2026-03-08T13:33:34.000Z</time></trkpt>
<trkpt lat="42.099583" lon="23.586643"><ele>2275.1</ele><time>2026-03-08T13:33:35.000Z</time></trkpt>
<trkpt lat="42.099589" lon="23.586658"><ele>2275.1</ele><time>2026-03-08T13:33:36.000Z</time></trkpt>
<trkpt lat="42.099594" lon="23.586675"><ele>2273.5</ele><time>2026-03-08T13:33:37.000Z</time></trkpt>
<trkpt lat="42.099599" lon="23.586692"><ele>2273.5</ele><time>2026-03-08T13:33:38.000Z</time></trkpt>
<trkpt lat="42.099604" lon="23.586709"><ele>2273.5</ele><time>2026-03-08T13:33:39.000Z</time></trkpt>
<trkpt lat="42.099608" lon="23.586727"><ele>2273.5</ele><time>2026-03-08T13:33:40.000Z</time></trkpt>
<trkpt lat="42.099611" lon="23.586745"><ele>2273.5</ele><time>2026-03-08T13:33:41.000Z</time></trkpt>
<trkpt lat="42.099615" lon="23.586762"><ele>2272.6</ele><time>2026-03-08T13:33:42.000Z</time></trkpt>
<trkpt lat="42.099617" lon="23.586779"><ele>2272.6</ele><time>2026-03-08T13:33:43.000Z</time></trkpt>
<trkpt lat="42.09962" lon="23.586796"><ele>2272.6</ele><time>2026-03-08T13:33:44.000Z</time></trkpt>
<trkpt lat="42.099623" lon="23.586812"><ele>2272.6</ele><time>2026-03-08T13:33:45.000Z</time></trkpt>
<trkpt lat="42.099626" lon="23.586828"><ele>2272.6</ele><time>2026-03-08T13:33:46.000Z</time></trkpt>
<trkpt lat="42.09963" lon="23.586845"><ele>2270.8</ele><time>2026-03-08T13:33:47.000Z</time></trkpt>
<trkpt lat="42.099634" lon="23.586862"><ele>2270.8</ele><time>2026-03-08T13:33:48.000Z</time></trkpt>
<trkpt lat="42.099638" lon="23.586877"><ele>2270.8</ele><time>2026-03-08T13:33:49.000Z</time></trkpt>
<trkpt lat="42.099641" lon="23.586893"><ele>2270.8</ele><time>2026-03-08T13:33:50.000Z</time></trkpt>
<trkpt lat="42.099645" lon="23.586909"><ele>2270.8</ele><time>2026-03-08T13:33:51.000Z</time></trkpt>
<trkpt lat="42.099649" lon="23.586925"><ele>2269</ele><time>2026-03-08T13:33:52.000Z</time></trkpt>
<trkpt lat="42.099653" lon="23.58694"><ele>2269</ele><time>2026-03-08T13:33:53.000Z</time></trkpt>
<trkpt lat="42.099655" lon="23.586956"><ele>2269</ele><time>2026-03-08T13:33:54.000Z</time></trkpt>
<trkpt lat="42.099659" lon="23.586971"><ele>2269</ele><time>2026-03-08T13:33:55.000Z</time></trkpt>
<trkpt lat="42.099662" lon="23.586987"><ele>2269</ele><time>2026-03-08T13:33:56.000Z</time></trkpt>
<trkpt lat="42.099665" lon="23.587002"><ele>2268.2</ele><time>2026-03-08T13:33:57.000Z</time></trkpt>
<trkpt lat="42.099668" lon="23.587018"><ele>2268.2</ele><time>2026-03-08T13:33:58.000Z</time></trkpt>
<trkpt lat="42.099671" lon="23.587032"><ele>2268.2</ele><time>2026-03-08T13:33:59.000Z</time></trkpt>
<trkpt lat="42.099674" lon="23.587047"><ele>2268.2</ele><time>2026-03-08T13:34:00.000Z</time></trkpt>
<trkpt lat="42.099678" lon="23.58706"><ele>2268.2</ele><time>2026-03-08T13:34:01.000Z</time></trkpt>
<trkpt lat="42.099681" lon="23.587073"><ele>2266.9</ele><time>2026-03-08T13:34:02.000Z</time></trkpt>
<trkpt lat="42.099683" lon="23.587086"><ele>2266.9</ele><time>2026-03-08T13:34:03.000Z</time></trkpt>
<trkpt lat="42.099685" lon="23.5871"><ele>2266.9</ele><time>2026-03-08T13:34:04.000Z</time></trkpt>
<trkpt lat="42.099687" lon="23.587114"><ele>2266.9</ele><time>2026-03-08T13:34:05.000Z</time></trkpt>
<trkpt lat="42.099688" lon="23.587127"><ele>2266.9</ele><time>2026-03-08T13:34:06.000Z</time></trkpt>
<trkpt lat="42.099689" lon="23.587141"><ele>2265.8</ele><time>2026-03-08T13:34:07.000Z</time></trkpt>
<trkpt lat="42.099691" lon="23.587156"><ele>2265.8</ele><time>2026-03-08T13:34:08.000Z</time></trkpt>
<trkpt lat="42.099692" lon="23.587171"><ele>2265.8</ele><time>2026-03-08T13:34:09.000Z</time></trkpt>
<trkpt lat="42.099694" lon="23.587186"><ele>2265.8</ele><time>2026-03-08T13:34:10.000Z</time></trkpt>
<trkpt lat="42.099694" lon="23.587201"><ele>2265.8</ele><time>2026-03-08T13:34:11.000Z</time></trkpt>
<trkpt lat="42.099694" lon="23.587215"><ele>2265.2</ele><time>2026-03-08T13:34:12.000Z</time></trkpt>
<trkpt lat="42.099696" lon="23.587229"><ele>2265.2</ele><time>2026-03-08T13:34:13.000Z</time></trkpt>
<trkpt lat="42.099697" lon="23.587241"><ele>2265.2</ele><time>2026-03-08T13:34:14.000Z</time></trkpt>
<trkpt lat="42.0997" lon="23.587253"><ele>2265.2</ele><time>2026-03-08T13:34:15.000Z</time></trkpt>
<trkpt lat="42.099703" lon="23.587265"><ele>2265.2</ele><time>2026-03-08T13:34:16.000Z</time></trkpt>
<trkpt lat="42.099707" lon="23.587278"><ele>2264</ele><time>2026-03-08T13:34:17.000Z</time></trkpt>
<trkpt lat="42.099711" lon="23.587292"><ele>2264</ele><time>2026-03-08T13:34:18.000Z</time></trkpt>
<trkpt lat="42.099714" lon="23.587306"><ele>2264</ele><time>2026-03-08T13:34:19.000Z</time></trkpt>
<trkpt lat="42.099718" lon="23.58732"><ele>2264</ele><time>2026-03-08T13:34:20.000Z</time></trkpt>
<trkpt lat="42.099721" lon="23.587334"><ele>2264</ele><time>2026-03-08T13:34:21.000Z</time></trkpt>
<trkpt lat="42.099726" lon="23.587347"><ele>2262.9</ele><time>2026-03-08T13:34:22.000Z</time></trkpt>
<trkpt lat="42.099732" lon="23.58736"><ele>2262.9</ele><time>2026-03-08T13:34:23.000Z</time></trkpt>
<trkpt lat="42.099739" lon="23.587371"><ele>2262.9</ele><time>2026-03-08T13:34:24.000Z</time></trkpt>
<trkpt lat="42.099746" lon="23.587383"><ele>2262.9</ele><time>2026-03-08T13:34:25.000Z</time></trkpt>
<trkpt lat="42.099754" lon="23.587395"><ele>2262.9</ele><time>2026-03-08T13:34:26.000Z</time></trkpt>
<trkpt lat="42.099761" lon="23.587407"><ele>2262.4</ele><time>2026-03-08T13:34:27.000Z</time></trkpt>
<trkpt lat="42.099769" lon="23.587418"><ele>2262.4</ele><time>2026-03-08T13:34:28.000Z</time></trkpt>
<trkpt lat="42.099776" lon="23.58743"><ele>2262.4</ele><time>2026-03-08T13:34:29.000Z</time></trkpt>
<trkpt lat="42.099782" lon="23.587442"><ele>2262.4</ele><time>2026-03-08T13:34:30.000Z</time></trkpt>
<trkpt lat="42.099787" lon="23.587453"><ele>2262.4</ele><time>2026-03-08T13:34:31.000Z</time></trkpt>
<trkpt lat="42.099792" lon="23.587464"><ele>2261.4</ele><time>2026-03-08T13:34:32.000Z</time></trkpt>
<trkpt lat="42.099797" lon="23.587474"><ele>2261.4</ele><time>2026-03-08T13:34:33.000Z</time></trkpt>
<trkpt lat="42.099802" lon="23.587484"><ele>2261.4</ele><time>2026-03-08T13:34:34.000Z</time></trkpt>
<trkpt lat="42.099806" lon="23.587495"><ele>2261.4</ele><time>2026-03-08T13:34:35.000Z</time></trkpt>
<trkpt lat="42.09981" lon="23.587505"><ele>2261.4</ele><time>2026-03-08T13:34:36.000Z</time></trkpt>
<trkpt lat="42.099813" lon="23.587516"><ele>2260.2</ele><time>2026-03-08T13:34:37.000Z</time></trkpt>
<trkpt lat="42.099816" lon="23.587528"><ele>2260.2</ele><time>2026-03-08T13:34:38.000Z</time></trkpt>
<trkpt lat="42.099818" lon="23.587539"><ele>2260.2</ele><time>2026-03-08T13:34:39.000Z</time></trkpt>
<trkpt lat="42.099821" lon="23.587551"><ele>2260.2</ele><time>2026-03-08T13:34:40.000Z</time></trkpt>
<trkpt lat="42.099823" lon="23.587563"><ele>2260.2</ele><time>2026-03-08T13:34:41.000Z</time></trkpt>
<trkpt lat="42.099826" lon="23.587576"><ele>2259.4</ele><time>2026-03-08T13:34:42.000Z</time></trkpt>
<trkpt lat="42.099829" lon="23.587588"><ele>2259.4</ele><time>2026-03-08T13:34:43.000Z</time></trkpt>
<trkpt lat="42.099833" lon="23.5876"><ele>2259.4</ele><time>2026-03-08T13:34:44.000Z</time></trkpt>
<trkpt lat="42.099836" lon="23.587613"><ele>2259.4</ele><time>2026-03-08T13:34:45.000Z</time></trkpt>
<trkpt lat="42.09984" lon="23.587626"><ele>2259.4</ele><time>2026-03-08T13:34:46.000Z</time></trkpt>
<trkpt lat="42.099843" lon="23.587637"><ele>2257.9</ele><time>2026-03-08T13:34:47.000Z</time></trkpt>
<trkpt lat="42.099846" lon="23.587649"><ele>2257.9</ele><time>2026-03-08T13:34:48.000Z</time></trkpt>
<trkpt lat="42.099849" lon="23.58766"><ele>2257.9</ele><time>2026-03-08T13:34:49.000Z</time></trkpt>
<trkpt lat="42.099852" lon="23.587673"><ele>2257.9</ele><time>2026-03-08T13:34:50.000Z</time></trkpt>
<trkpt lat="42.099857" lon="23.587684"><ele>2257.9</ele><time>2026-03-08T13:34:51.000Z</time></trkpt>
<trkpt lat="42.099863" lon="23.587694"><ele>2256.3</ele><time>2026-03-08T13:34:52.000Z</time></trkpt>
<trkpt lat="42.099869" lon="23.587705"><ele>2256.3</ele><time>2026-03-08T13:34:53.000Z</time></trkpt>
<trkpt lat="42.099875" lon="23.587717"><ele>2256.3</ele><time>2026-03-08T13:34:54.000Z</time></trkpt>
<trkpt lat="42.099881" lon="23.587728"><ele>2256.3</ele><time>2026-03-08T13:34:55.000Z</time></trkpt>
<trkpt lat="42.099886" lon="23.58774"><ele>2256.3</ele><time>2026-03-08T13:34:56.000Z</time></trkpt>
<trkpt lat="42.099891" lon="23.587754"><ele>2255.5</ele><time>2026-03-08T13:34:57.000Z</time></trkpt>
<trkpt lat="42.099896" lon="23.587766"><ele>2255.5</ele><time>2026-03-08T13:34:58.000Z</time></trkpt>
<trkpt lat="42.0999" lon="23.587779"><ele>2255.5</ele><time>2026-03-08T13:34:59.000Z</time></trkpt>
<trkpt lat="42.099904" lon="23.58779"><ele>2255.5</ele><time>2026-03-08T13:35:00.000Z</time></trkpt>
<trkpt lat="42.099908" lon="23.587801"><ele>2255.5</ele><time>2026-03-08T13:35:01.000Z</time></trkpt>
<trkpt lat="42.099912" lon="23.587811"><ele>2253.6</ele><time>2026-03-08T13:35:02.000Z</time></trkpt>
<trkpt lat="42.099916" lon="23.587821"><ele>2253.6</ele><time>2026-03-08T13:35:03.000Z</time></trkpt>
<trkpt lat="42.09992" lon="23.58783"><ele>2253.6</ele><time>2026-03-08T13:35:04.000Z</time></trkpt>
<trkpt lat="42.099925" lon="23.587839"><ele>2253.6</ele><time>2026-03-08T13:35:05.000Z</time></trkpt>
<trkpt lat="42.09993" lon="23.587848"><ele>2253.6</ele><time>2026-03-08T13:35:06.000Z</time></trkpt>
<trkpt lat="42.099935" lon="23.587859"><ele>2251.5</ele><time>2026-03-08T13:35:07.000Z</time></trkpt>
<trkpt lat="42.099941" lon="23.58787"><ele>2251.5</ele><time>2026-03-08T13:35:08.000Z</time></trkpt>
<trkpt lat="42.099947" lon="23.58788"><ele>2251.5</ele><time>2026-03-08T13:35:09.000Z</time></trkpt>
<trkpt lat="42.099953" lon="23.587892"><ele>2251.5</ele><time>2026-03-08T13:35:10.000Z</time></trkpt>
<trkpt lat="42.099957" lon="23.587904"><ele>2251.5</ele><time>2026-03-08T13:35:11.000Z</time></trkpt>
<trkpt lat="42.09996" lon="23.587915"><ele>2250.5</ele><time>2026-03-08T13:35:12.000Z</time></trkpt>
<trkpt lat="42.099962" lon="23.587925"><ele>2250.5</ele><time>2026-03-08T13:35:13.000Z</time></trkpt>
<trkpt lat="42.099965" lon="23.587936"><ele>2250.5</ele><time>2026-03-08T13:35:14.000Z</time></trkpt>
<trkpt lat="42.099968" lon="23.587947"><ele>2250.5</ele><time>2026-03-08T13:35:15.000Z</time></trkpt>
<trkpt lat="42.099974" lon="23.587957"><ele>2250.5</ele><time>2026-03-08T13:35:16.000Z</time></trkpt>
<trkpt lat="42.099979" lon="23.587967"><ele>2248.6</ele><time>2026-03-08T13:35:17.000Z</time></trkpt>
<trkpt lat="42.099986" lon="23.587978"><ele>2248.6</ele><time>2026-03-08T13:35:18.000Z</time></trkpt>
<trkpt lat="42.099992" lon="23.587991"><ele>2248.6</ele><time>2026-03-08T13:35:19.000Z</time></trkpt>
<trkpt lat="42.099998" lon="23.588004"><ele>2248.6</ele><time>2026-03-08T13:35:20.000Z</time></trkpt>
<trkpt lat="42.100003" lon="23.588018"><ele>2248.6</ele><time>2026-03-08T13:35:21.000Z</time></trkpt>
<trkpt lat="42.100009" lon="23.588032"><ele>2246.9</ele><time>2026-03-08T13:35:22.000Z</time></trkpt>
<trkpt lat="42.100014" lon="23.588045"><ele>2246.9</ele><time>2026-03-08T13:35:23.000Z</time></trkpt>
<trkpt lat="42.100018" lon="23.588059"><ele>2246.9</ele><time>2026-03-08T13:35:24.000Z</time></trkpt>
<trkpt lat="42.100023" lon="23.588072"><ele>2246.9</ele><time>2026-03-08T13:35:25.000Z</time></trkpt>
<trkpt lat="42.100028" lon="23.588085"><ele>2246.9</ele><time>2026-03-08T13:35:26.000Z</time></trkpt>
<trkpt lat="42.100033" lon="23.588099"><ele>2246.2</ele><time>2026-03-08T13:35:27.000Z</time></trkpt>
<trkpt lat="42.100038" lon="23.588113"><ele>2246.2</ele><time>2026-03-08T13:35:28.000Z</time></trkpt>
<trkpt lat="42.100043" lon="23.588127"><ele>2246.2</ele><time>2026-03-08T13:35:29.000Z</time></trkpt>
<trkpt lat="42.100046" lon="23.588142"><ele>2246.2</ele><time>2026-03-08T13:35:30.000Z</time></trkpt>
<trkpt lat="42.10005" lon="23.588156"><ele>2246.2</ele><time>2026-03-08T13:35:31.000Z</time></trkpt>
<trkpt lat="42.100054" lon="23.588169"><ele>2244.8</ele><time>2026-03-08T13:35:32.000Z</time></trkpt>
<trkpt lat="42.100058" lon="23.588183"><ele>2244.8</ele><time>2026-03-08T13:35:33.000Z</time></trkpt>
<trkpt lat="42.100063" lon="23.588196"><ele>2244.8</ele><time>2026-03-08T13:35:34.000Z</time></trkpt>
<trkpt lat="42.100069" lon="23.588209"><ele>2244.8</ele><time>2026-03-08T13:35:35.000Z</time></trkpt>
<trkpt lat="42.100076" lon="23.588222"><ele>2244.8</ele><time>2026-03-08T13:35:36.000Z</time></trkpt>
<trkpt lat="42.100083" lon="23.588235"><ele>2243.4</ele><time>2026-03-08T13:35:37.000Z</time></trkpt>
<trkpt lat="42.100089" lon="23.588248"><ele>2243.4</ele><time>2026-03-08T13:35:38.000Z</time></trkpt>
<trkpt lat="42.100096" lon="23.588261"><ele>2243.4</ele><time>2026-03-08T13:35:39.000Z</time></trkpt>
<trkpt lat="42.100103" lon="23.588276"><ele>2243.4</ele><time>2026-03-08T13:35:40.000Z</time></trkpt>
<trkpt lat="42.100109" lon="23.58829"><ele>2243.4</ele><time>2026-03-08T13:35:41.000Z</time></trkpt>
<trkpt lat="42.100114" lon="23.588304"><ele>2242.6</ele><time>2026-03-08T13:35:42.000Z</time></trkpt>
<trkpt lat="42.100121" lon="23.588317"><ele>2242.6</ele><time>2026-03-08T13:35:43.000Z</time></trkpt>
<trkpt lat="42.100127" lon="23.58833"><ele>2242.6</ele><time>2026-03-08T13:35:44.000Z</time></trkpt>
<trkpt lat="42.100133" lon="23.588342"><ele>2242.6</ele><time>2026-03-08T13:35:45.000Z</time></trkpt>
<trkpt lat="42.10014" lon="23.588354"><ele>2242.6</ele><time>2026-03-08T13:35:46.000Z</time></trkpt>
<trkpt lat="42.100147" lon="23.588366"><ele>2241.1</ele><time>2026-03-08T13:35:47.000Z</time></trkpt>
<trkpt lat="42.100153" lon="23.588379"><ele>2241.1</ele><time>2026-03-08T13:35:48.000Z</time></trkpt>
<trkpt lat="42.100159" lon="23.588391"><ele>2241.1</ele><time>2026-03-08T13:35:49.000Z</time></trkpt>
<trkpt lat="42.100165" lon="23.588403"><ele>2241.1</ele><time>2026-03-08T13:35:50.000Z</time></trkpt>
<trkpt lat="42.100171" lon="23.588415"><ele>2241.1</ele><time>2026-03-08T13:35:51.000Z</time></trkpt>
<trkpt lat="42.100176" lon="23.588426"><ele>2239.7</ele><time>2026-03-08T13:35:52.000Z</time></trkpt>
<trkpt lat="42.100182" lon="23.588437"><ele>2239.7</ele><time>2026-03-08T13:35:53.000Z</time></trkpt>
<trkpt lat="42.100187" lon="23.588447"><ele>2239.7</ele><time>2026-03-08T13:35:54.000Z</time></trkpt>
<trkpt lat="42.100193" lon="23.588458"><ele>2239.7</ele><time>2026-03-08T13:35:55.000Z</time></trkpt>
<trkpt lat="42.100199" lon="23.588469"><ele>2239.7</ele><time>2026-03-08T13:35:56.000Z</time></trkpt>
<trkpt lat="42.100205" lon="23.58848"><ele>2239</ele><time>2026-03-08T13:35:57.000Z</time></trkpt>
<trkpt lat="42.100212" lon="23.588491"><ele>2239</ele><time>2026-03-08T13:35:58.000Z</time></trkpt>
<trkpt lat="42.10022" lon="23.588502"><ele>2239</ele><time>2026-03-08T13:35:59.000Z</time></trkpt>
<trkpt lat="42.100229" lon="23.588512"><ele>2239</ele><time>2026-03-08T13:36:00.000Z</time></trkpt>
<trkpt lat="42.100237" lon="23.588522"><ele>2239</ele><time>2026-03-08T13:36:01.000Z</time></trkpt>
<trkpt lat="42.100244" lon="23.588532"><ele>2237.4</ele><time>2026-03-08T13:36:02.000Z</time></trkpt>
<trkpt lat="42.10025" lon="23.588543"><ele>2237.4</ele><time>2026-03-08T13:36:03.000Z</time></trkpt>
<trkpt lat="42.100257" lon="23.588555"><ele>2237.4</ele><time>2026-03-08T13:36:04.000Z</time></trkpt>
<trkpt lat="42.100264" lon="23.588568"><ele>2237.4</ele><time>2026-03-08T13:36:05.000Z</time></trkpt>
<trkpt lat="42.100271" lon="23.588581"><ele>2237.4</ele><time>2026-03-08T13:36:06.000Z</time></trkpt>
<trkpt lat="42.100279" lon="23.588594"><ele>2235.8</ele><time>2026-03-08T13:36:07.000Z</time></trkpt>
<trkpt lat="42.100287" lon="23.588607"><ele>2235.8</ele><time>2026-03-08T13:36:08.000Z</time></trkpt>
<trkpt lat="42.100295" lon="23.588619"><ele>2235.8</ele><time>2026-03-08T13:36:09.000Z</time></trkpt>
<trkpt lat="42.100302" lon="23.588629"><ele>2235.8</ele><time>2026-03-08T13:36:10.000Z</time></trkpt>
<trkpt lat="42.100308" lon="23.588639"><ele>2235.8</ele><time>2026-03-08T13:36:11.000Z</time></trkpt>
<trkpt lat="42.100315" lon="23.588649"><ele>2235</ele><time>2026-03-08T13:36:12.000Z</time></trkpt>
<trkpt lat="42.10032" lon="23.588658"><ele>2235</ele><time>2026-03-08T13:36:13.000Z</time></trkpt>
<trkpt lat="42.100327" lon="23.588668"><ele>2235</ele><time>2026-03-08T13:36:14.000Z</time></trkpt>
<trkpt lat="42.100333" lon="23.588679"><ele>2235</ele><time>2026-03-08T13:36:15.000Z</time></trkpt>
<trkpt lat="42.10034" lon="23.588691"><ele>2235</ele><time>2026-03-08T13:36:16.000Z</time></trkpt>
<trkpt lat="42.100347" lon="23.588702"><ele>2233.4</ele><time>2026-03-08T13:36:17.000Z</time></trkpt>
<trkpt lat="42.100354" lon="23.588713"><ele>2233.4</ele><time>2026-03-08T13:36:18.000Z</time></trkpt>
<trkpt lat="42.100361" lon="23.588725"><ele>2233.4</ele><time>2026-03-08T13:36:19.000Z</time></trkpt>
<trkpt lat="42.100367" lon="23.588737"><ele>2233.4</ele><time>2026-03-08T13:36:20.000Z</time></trkpt>
<trkpt lat="42.100373" lon="23.588748"><ele>2233.4</ele><time>2026-03-08T13:36:21.000Z</time></trkpt>
<trkpt lat="42.100379" lon="23.58876"><ele>2231.8</ele><time>2026-03-08T13:36:22.000Z</time></trkpt>
<trkpt lat="42.100385" lon="23.58877"><ele>2231.8</ele><time>2026-03-08T13:36:23.000Z</time></trkpt>
<trkpt lat="42.100391" lon="23.58878"><ele>2231.8</ele><time>2026-03-08T13:36:24.000Z</time></trkpt>
<trkpt lat="42.100397" lon="23.588789"><ele>2231.8</ele><time>2026-03-08T13:36:25.000Z</time></trkpt>
<trkpt lat="42.100404" lon="23.588798"><ele>2231.8</ele><time>2026-03-08T13:36:26.000Z</time></trkpt>
<trkpt lat="42.100411" lon="23.588806"><ele>2231</ele><time>2026-03-08T13:36:27.000Z</time></trkpt>
<trkpt lat="42.100418" lon="23.588814"><ele>2231</ele><time>2026-03-08T13:36:28.000Z</time></trkpt>
<trkpt lat="42.100427" lon="23.588823"><ele>2231</ele><time>2026-03-08T13:36:29.000Z</time></trkpt>
<trkpt lat="42.100435" lon="23.588832"><ele>2231</ele><time>2026-03-08T13:36:30.000Z</time></trkpt>
<trkpt lat="42.100443" lon="23.58884"><ele>2231</ele><time>2026-03-08T13:36:31.000Z</time></trkpt>
<trkpt lat="42.100452" lon="23.58885"><ele>2229.4</ele><time>2026-03-08T13:36:32.000Z</time></trkpt>
<trkpt lat="42.10046" lon="23.588861"><ele>2229.4</ele><time>2026-03-08T13:36:33.000Z</time></trkpt>
<trkpt lat="42.100467" lon="23.588872"><ele>2229.4</ele><time>2026-03-08T13:36:34.000Z</time></trkpt>
<trkpt lat="42.100476" lon="23.588883"><ele>2229.4</ele><time>2026-03-08T13:36:35.000Z</time></trkpt>
<trkpt lat="42.100484" lon="23.588895"><ele>2229.4</ele><time>2026-03-08T13:36:36.000Z</time></trkpt>
<trkpt lat="42.100492" lon="23.588908"><ele>2228.1</ele><time>2026-03-08T13:36:37.000Z</time></trkpt>
<trkpt lat="42.1005" lon="23.588919"><ele>2228.1</ele><time>2026-03-08T13:36:38.000Z</time></trkpt>
<trkpt lat="42.100507" lon="23.58893"><ele>2228.1</ele><time>2026-03-08T13:36:39.000Z</time></trkpt>
<trkpt lat="42.100514" lon="23.588941"><ele>2228.1</ele><time>2026-03-08T13:36:40.000Z</time></trkpt>
<trkpt lat="42.100522" lon="23.588952"><ele>2228.1</ele><time>2026-03-08T13:36:41.000Z</time></trkpt>
<trkpt lat="42.100531" lon="23.588963"><ele>2227.5</ele><time>2026-03-08T13:36:42.000Z</time></trkpt>
<trkpt lat="42.100539" lon="23.588975"><ele>2227.5</ele><time>2026-03-08T13:36:43.000Z</time></trkpt>
<trkpt lat="42.100546" lon="23.588987"><ele>2227.5</ele><time>2026-03-08T13:36:44.000Z</time></trkpt>
<trkpt lat="42.100554" lon="23.588999"><ele>2227.5</ele><time>2026-03-08T13:36:45.000Z</time></trkpt>
<trkpt lat="42.100561" lon="23.589011"><ele>2227.5</ele><time>2026-03-08T13:36:46.000Z</time></trkpt>
<trkpt lat="42.100568" lon="23.589022"><ele>2226.4</ele><time>2026-03-08T13:36:47.000Z</time></trkpt>
<trkpt lat="42.100575" lon="23.589033"><ele>2226.4</ele><time>2026-03-08T13:36:48.000Z</time></trkpt>
<trkpt lat="42.100582" lon="23.589043"><ele>2226.4</ele><time>2026-03-08T13:36:49.000Z</time></trkpt>
<trkpt lat="42.100589" lon="23.589054"><ele>2226.4</ele><time>2026-03-08T13:36:50.000Z</time></trkpt>
<trkpt lat="42.100596" lon="23.589065"><ele>2226.4</ele><time>2026-03-08T13:36:51.000Z</time></trkpt>
<trkpt lat="42.100603" lon="23.589076"><ele>2225.4</ele><time>2026-03-08T13:36:52.000Z</time></trkpt>
<trkpt lat="42.100611" lon="23.589088"><ele>2225.4</ele><time>2026-03-08T13:36:53.000Z</time></trkpt>
<trkpt lat="42.100619" lon="23.5891"><ele>2225.4</ele><time>2026-03-08T13:36:54.000Z</time></trkpt>
<trkpt lat="42.100627" lon="23.589111"><ele>2225.4</ele><time>2026-03-08T13:36:55.000Z</time></trkpt>
<trkpt lat="42.100636" lon="23.589123"><ele>2225.4</ele><time>2026-03-08T13:36:56.000Z</time></trkpt>
<trkpt lat="42.100644" lon="23.589135"><ele>2224.9</ele><time>2026-03-08T13:36:57.000Z</time></trkpt>
<trkpt lat="42.100652" lon="23.589147"><ele>2224.9</ele><time>2026-03-08T13:36:58.000Z</time></trkpt>
<trkpt lat="42.10066" lon="23.589161"><ele>2224.9</ele><time>2026-03-08T13:36:59.000Z</time></trkpt>
<trkpt lat="42.100667" lon="23.589176"><ele>2224.9</ele><time>2026-03-08T13:37:00.000Z</time></trkpt>
<trkpt lat="42.100673" lon="23.589191"><ele>2224.9</ele><time>2026-03-08T13:37:01.000Z</time></trkpt>
<trkpt lat="42.100679" lon="23.589205"><ele>2224.2</ele><time>2026-03-08T13:37:02.000Z</time></trkpt>
<trkpt lat="42.100685" lon="23.589219"><ele>2224.2</ele><time>2026-03-08T13:37:03.000Z</time></trkpt>
<trkpt lat="42.10069" lon="23.589233"><ele>2224.2</ele><time>2026-03-08T13:37:04.000Z</time></trkpt>
<trkpt lat="42.100696" lon="23.589247"><ele>2224.2</ele><time>2026-03-08T13:37:05.000Z</time></trkpt>
<trkpt lat="42.100702" lon="23.589261"><ele>2224.2</ele><time>2026-03-08T13:37:06.000Z</time></trkpt>
<trkpt lat="42.100709" lon="23.589276"><ele>2223.8</ele><time>2026-03-08T13:37:07.000Z</time></trkpt>
<trkpt lat="42.100715" lon="23.589291"><ele>2223.8</ele><time>2026-03-08T13:37:08.000Z</time></trkpt>
<trkpt lat="42.100722" lon="23.589307"><ele>2223.8</ele><time>2026-03-08T13:37:09.000Z</time></trkpt>
<trkpt lat="42.100728" lon="23.589322"><ele>2223.8</ele><time>2026-03-08T13:37:10.000Z</time></trkpt>
<trkpt lat="42.100736" lon="23.589335"><ele>2223.8</ele><time>2026-03-08T13:37:11.000Z</time></trkpt>
<trkpt lat="42.100743" lon="23.589349"><ele>2223.8</ele><time>2026-03-08T13:37:12.000Z</time></trkpt>
<trkpt lat="42.100751" lon="23.589363"><ele>2223.8</ele><time>2026-03-08T13:37:13.000Z</time></trkpt>
<trkpt lat="42.100758" lon="23.589376"><ele>2223.8</ele><time>2026-03-08T13:37:14.000Z</time></trkpt>
<trkpt lat="42.100766" lon="23.589389"><ele>2223.8</ele><time>2026-03-08T13:37:15.000Z</time></trkpt>
<trkpt lat="42.100774" lon="23.589402"><ele>2223.8</ele><time>2026-03-08T13:37:16.000Z</time></trkpt>
<trkpt lat="42.100783" lon="23.589414"><ele>2223.7</ele><time>2026-03-08T13:37:17.000Z</time></trkpt>
<trkpt lat="42.100792" lon="23.589427"><ele>2223.7</ele><time>2026-03-08T13:37:18.000Z</time></trkpt>
<trkpt lat="42.100801" lon="23.589439"><ele>2223.7</ele><time>2026-03-08T13:37:19.000Z</time></trkpt>
<trkpt lat="42.100807" lon="23.589449"><ele>2223.7</ele><time>2026-03-08T13:37:20.000Z</time></trkpt>
<trkpt lat="42.100811" lon="23.589458"><ele>2223.7</ele><time>2026-03-08T13:37:21.000Z</time></trkpt>
<trkpt lat="42.100814" lon="23.589465"><ele>2223.6</ele><time>2026-03-08T13:37:22.000Z</time></trkpt>
<trkpt lat="42.100814" lon="23.589468"><ele>2223.6</ele><time>2026-03-08T13:37:23.000Z</time></trkpt>
<trkpt lat="42.100814" lon="23.58947"><ele>2223.6</ele><time>2026-03-08T13:37:24.000Z</time></trkpt>
<trkpt lat="42.100814" lon="23.58947"><ele>2223.6</ele><time>2026-03-08T13:37:25.000Z</time></trkpt>
<trkpt lat="42.100814" lon="23.58947"><ele>2223.6</ele><time>2026-03-08T13:37:26.000Z</time></trkpt>
<trkpt lat="42.100813" lon="23.58947"><ele>2223.6</ele><time>2026-03-08T13:37:27.000Z</time></trkpt>
<trkpt lat="42.100813" lon="23.589471"><ele>2223.6</ele><time>2026-03-08T13:37:28.000Z</time></trkpt>
<trkpt lat="42.100812" lon="23.589471"><ele>2223.6</ele><time>2026-03-08T13:37:29.000Z</time></trkpt>
<trkpt lat="42.100812" lon="23.589471"><ele>2223.6</ele><time>2026-03-08T13:37:30.000Z</time></trkpt>
<trkpt lat="42.100812" lon="23.589471"><ele>2223.6</ele><time>2026-03-08T13:37:31.000Z</time></trkpt>
<trkpt lat="42.100812" lon="23.589471"><ele>2223.5</ele><time>2026-03-08T13:37:32.000Z</time></trkpt>
<trkpt lat="42.100812" lon="23.589471"><ele>2223.5</ele><time>2026-03-08T13:37:33.000Z</time></trkpt>
<trkpt lat="42.100812" lon="23.589471"><ele>2223.5</ele><time>2026-03-08T13:37:34.000Z</time></trkpt>
<trkpt lat="42.100812" lon="23.589471"><ele>2223.5</ele><time>2026-03-08T13:37:35.000Z</time></trkpt>
<trkpt lat="42.100812" lon="23.589471"><ele>2223.5</ele><time>2026-03-08T13:37:36.000Z</time></trkpt>
<trkpt lat="42.100812" lon="23.589471"><ele>2223.6</ele><time>2026-03-08T13:37:37.000Z</time></trkpt>
<trkpt lat="42.100811" lon="23.589471"><ele>2223.6</ele><time>2026-03-08T13:37:38.000Z</time></trkpt>
<trkpt lat="42.100811" lon="23.589471"><ele>2223.6</ele><time>2026-03-08T13:37:39.000Z</time></trkpt>
<trkpt lat="42.100811" lon="23.589471"><ele>2223.6</ele><time>2026-03-08T13:37:40.000Z</time></trkpt>
<trkpt lat="42.10081" lon="23.589471"><ele>2223.6</ele><time>2026-03-08T13:37:41.000Z</time></trkpt>
<trkpt lat="42.10081" lon="23.589471"><ele>2223.6</ele><time>2026-03-08T13:37:42.000Z</time></trkpt>
<trkpt lat="42.10081" lon="23.589471"><ele>2223.6</ele><time>2026-03-08T13:37:43.000Z</time></trkpt>
<trkpt lat="42.10081" lon="23.589471"><ele>2223.6</ele><time>2026-03-08T13:37:44.000Z</time></trkpt>
<trkpt lat="42.100809" lon="23.58947"><ele>2223.6</ele><time>2026-03-08T13:37:45.000Z</time></trkpt>
<trkpt lat="42.100809" lon="23.58947"><ele>2223.6</ele><time>2026-03-08T13:37:46.000Z</time></trkpt>
<trkpt lat="42.100809" lon="23.58947"><ele>2223.6</ele><time>2026-03-08T13:37:47.000Z</time></trkpt>
<trkpt lat="42.100809" lon="23.58947"><ele>2223.6</ele><time>2026-03-08T13:37:48.000Z</time></trkpt>
<trkpt lat="42.100811" lon="23.589472"><ele>2223.6</ele><time>2026-03-08T13:37:49.000Z</time></trkpt>
<trkpt lat="42.100815" lon="23.589475"><ele>2223.6</ele><time>2026-03-08T13:37:50.000Z</time></trkpt>
<trkpt lat="42.10082" lon="23.589481"><ele>2223.6</ele><time>2026-03-08T13:37:51.000Z</time></trkpt>
<trkpt lat="42.100826" lon="23.589487"><ele>2223.5</ele><time>2026-03-08T13:37:52.000Z</time></trkpt>
<trkpt lat="42.100831" lon="23.589494"><ele>2223.5</ele><time>2026-03-08T13:37:53.000Z</time></trkpt>
<trkpt lat="42.100835" lon="23.589501"><ele>2223.5</ele><time>2026-03-08T13:37:54.000Z</time></trkpt>
<trkpt lat="42.100837" lon="23.589506"><ele>2223.5</ele><time>2026-03-08T13:37:55.000Z</time></trkpt>
<trkpt lat="42.10084" lon="23.589511"><ele>2223.5</ele><time>2026-03-08T13:37:56.000Z</time></trkpt>
<trkpt lat="42.100844" lon="23.589519"><ele>2223.5</ele><time>2026-03-08T13:37:57.000Z</time></trkpt>
<trkpt lat="42.100849" lon="23.589528"><ele>2223.5</ele><time>2026-03-08T13:37:58.000Z</time></trkpt>
<trkpt lat="42.100858" lon="23.589538"><ele>2223.5</ele><time>2026-03-08T13:37:59.000Z</time></trkpt>
<trkpt lat="42.100867" lon="23.589549"><ele>2223.5</ele><time>2026-03-08T13:38:00.000Z</time></trkpt>
<trkpt lat="42.100875" lon="23.58956"><ele>2223.5</ele><time>2026-03-08T13:38:01.000Z</time></trkpt>
<trkpt lat="42.100884" lon="23.58957"><ele>2223.5</ele><time>2026-03-08T13:38:02.000Z</time></trkpt>
<trkpt lat="42.100892" lon="23.589581"><ele>2223.5</ele><time>2026-03-08T13:38:03.000Z</time></trkpt>
<trkpt lat="42.100899" lon="23.589591"><ele>2223.5</ele><time>2026-03-08T13:38:04.000Z</time></trkpt>
<trkpt lat="42.100905" lon="23.589602"><ele>2223.5</ele><time>2026-03-08T13:38:05.000Z</time></trkpt>
<trkpt lat="42.100911" lon="23.589614"><ele>2223.5</ele><time>2026-03-08T13:38:06.000Z</time></trkpt>
<trkpt lat="42.100918" lon="23.589626"><ele>2223.3</ele><time>2026-03-08T13:38:07.000Z</time></trkpt>
<trkpt lat="42.100923" lon="23.589637"><ele>2223.3</ele><time>2026-03-08T13:38:08.000Z</time></trkpt>
<trkpt lat="42.100929" lon="23.589649"><ele>2223.3</ele><time>2026-03-08T13:38:09.000Z</time></trkpt>
<trkpt lat="42.100935" lon="23.589662"><ele>2223.3</ele><time>2026-03-08T13:38:10.000Z</time></trkpt>
<trkpt lat="42.100941" lon="23.589674"><ele>2223.3</ele><time>2026-03-08T13:38:11.000Z</time></trkpt>
<trkpt lat="42.100948" lon="23.589686"><ele>2223.1</ele><time>2026-03-08T13:38:12.000Z</time></trkpt>
<trkpt lat="42.100955" lon="23.589699"><ele>2223.1</ele><time>2026-03-08T13:38:13.000Z</time></trkpt>
<trkpt lat="42.100962" lon="23.589711"><ele>2223.1</ele><time>2026-03-08T13:38:14.000Z</time></trkpt>
<trkpt lat="42.10097" lon="23.589722"><ele>2223.1</ele><time>2026-03-08T13:38:15.000Z</time></trkpt>
<trkpt lat="42.100976" lon="23.589734"><ele>2223.1</ele><time>2026-03-08T13:38:16.000Z</time></trkpt>
<trkpt lat="42.100983" lon="23.589746"><ele>2222.7</ele><time>2026-03-08T13:38:17.000Z</time></trkpt>
<trkpt lat="42.100989" lon="23.58976"><ele>2222.7</ele><time>2026-03-08T13:38:18.000Z</time></trkpt>
<trkpt lat="42.100996" lon="23.589774"><ele>2222.7</ele><time>2026-03-08T13:38:19.000Z</time></trkpt>
<trkpt lat="42.101003" lon="23.58979"><ele>2222.7</ele><time>2026-03-08T13:38:20.000Z</time></trkpt>
<trkpt lat="42.10101" lon="23.589806"><ele>2222.7</ele><time>2026-03-08T13:38:21.000Z</time></trkpt>
<trkpt lat="42.101016" lon="23.589821"><ele>2222.1</ele><time>2026-03-08T13:38:22.000Z</time></trkpt>
<trkpt lat="42.101021" lon="23.589836"><ele>2222.1</ele><time>2026-03-08T13:38:23.000Z</time></trkpt>
<trkpt lat="42.101026" lon="23.589849"><ele>2222.1</ele><time>2026-03-08T13:38:24.000Z</time></trkpt>
<trkpt lat="42.101029" lon="23.589863"><ele>2222.1</ele><time>2026-03-08T13:38:25.000Z</time></trkpt>
<trkpt lat="42.101033" lon="23.589876"><ele>2222.1</ele><time>2026-03-08T13:38:26.000Z</time></trkpt>
<trkpt lat="42.101036" lon="23.589889"><ele>2221.8</ele><time>2026-03-08T13:38:27.000Z</time></trkpt>
<trkpt lat="42.10104" lon="23.589902"><ele>2221.8</ele><time>2026-03-08T13:38:28.000Z</time></trkpt>
<trkpt lat="42.101044" lon="23.589916"><ele>2221.8</ele><time>2026-03-08T13:38:29.000Z</time></trkpt>
<trkpt lat="42.101049" lon="23.589929"><ele>2221.8</ele><time>2026-03-08T13:38:30.000Z</time></trkpt>
<trkpt lat="42.101053" lon="23.589942"><ele>2221.8</ele><time>2026-03-08T13:38:31.000Z</time></trkpt>
<trkpt lat="42.101058" lon="23.589955"><ele>2221.3</ele><time>2026-03-08T13:38:32.000Z</time></trkpt>
<trkpt lat="42.101062" lon="23.58997"><ele>2221.3</ele><time>2026-03-08T13:38:33.000Z</time></trkpt>
<trkpt lat="42.101068" lon="23.589984"><ele>2221.3</ele><time>2026-03-08T13:38:34.000Z</time></trkpt>
<trkpt lat="42.101072" lon="23.59"><ele>2221.3</ele><time>2026-03-08T13:38:35.000Z</time></trkpt>
<trkpt lat="42.101075" lon="23.590016"><ele>2221.3</ele><time>2026-03-08T13:38:36.000Z</time></trkpt>
<trkpt lat="42.10108" lon="23.590032"><ele>2220.9</ele><time>2026-03-08T13:38:37.000Z</time></trkpt>
<trkpt lat="42.101084" lon="23.590047"><ele>2220.9</ele><time>2026-03-08T13:38:38.000Z</time></trkpt>
<trkpt lat="42.101088" lon="23.590062"><ele>2220.9</ele><time>2026-03-08T13:38:39.000Z</time></trkpt>
<trkpt lat="42.101092" lon="23.590077"><ele>2220.9</ele><time>2026-03-08T13:38:40.000Z</time></trkpt>
<trkpt lat="42.101097" lon="23.590091"><ele>2220.9</ele><time>2026-03-08T13:38:41.000Z</time></trkpt>
<trkpt lat="42.101101" lon="23.590105"><ele>2220.8</ele><time>2026-03-08T13:38:42.000Z</time></trkpt>
<trkpt lat="42.101106" lon="23.590119"><ele>2220.8</ele><time>2026-03-08T13:38:43.000Z</time></trkpt>
<trkpt lat="42.10111" lon="23.590134"><ele>2220.8</ele><time>2026-03-08T13:38:44.000Z</time></trkpt>
<trkpt lat="42.101115" lon="23.590148"><ele>2220.8</ele><time>2026-03-08T13:38:45.000Z</time></trkpt>
<trkpt lat="42.10112" lon="23.590162"><ele>2220.8</ele><time>2026-03-08T13:38:46.000Z</time></trkpt>
<trkpt lat="42.101125" lon="23.590177"><ele>2220.5</ele><time>2026-03-08T13:38:47.000Z</time></trkpt>
<trkpt lat="42.10113" lon="23.590193"><ele>2220.5</ele><time>2026-03-08T13:38:48.000Z</time></trkpt>
<trkpt lat="42.101135" lon="23.590208"><ele>2220.5</ele><time>2026-03-08T13:38:49.000Z</time></trkpt>
<trkpt lat="42.10114" lon="23.590223"><ele>2220.5</ele><time>2026-03-08T13:38:50.000Z</time></trkpt>
<trkpt lat="42.101144" lon="23.590236"><ele>2220.5</ele><time>2026-03-08T13:38:51.000Z</time></trkpt>
<trkpt lat="42.101149" lon="23.590249"><ele>2220.1</ele><time>2026-03-08T13:38:52.000Z</time></trkpt>
<trkpt lat="42.101154" lon="23.59026"><ele>2220.1</ele><time>2026-03-08T13:38:53.000Z</time></trkpt>
<trkpt lat="42.101158" lon="23.590271"><ele>2220.1</ele><time>2026-03-08T13:38:54.000Z</time></trkpt>
<trkpt lat="42.101162" lon="23.590283"><ele>2220.1</ele><time>2026-03-08T13:38:55.000Z</time></trkpt>
<trkpt lat="42.101168" lon="23.590297"><ele>2220.1</ele><time>2026-03-08T13:38:56.000Z</time></trkpt>
<trkpt lat="42.101173" lon="23.590309"><ele>2219.7</ele><time>2026-03-08T13:38:57.000Z</time></trkpt>
<trkpt lat="42.101179" lon="23.590322"><ele>2219.7</ele><time>2026-03-08T13:38:58.000Z</time></trkpt>
<trkpt lat="42.101185" lon="23.590335"><ele>2219.7</ele><time>2026-03-08T13:38:59.000Z</time></trkpt>
<trkpt lat="42.101191" lon="23.590348"><ele>2219.7</ele><time>2026-03-08T13:39:00.000Z</time></trkpt>
<trkpt lat="42.101197" lon="23.590362"><ele>2219.7</ele><time>2026-03-08T13:39:01.000Z</time></trkpt>
<trkpt lat="42.101202" lon="23.590375"><ele>2218.7</ele><time>2026-03-08T13:39:02.000Z</time></trkpt>
<trkpt lat="42.101208" lon="23.590388"><ele>2218.7</ele><time>2026-03-08T13:39:03.000Z</time></trkpt>
<trkpt lat="42.101213" lon="23.590401"><ele>2218.7</ele><time>2026-03-08T13:39:04.000Z</time></trkpt>
<trkpt lat="42.10122" lon="23.590413"><ele>2218.7</ele><time>2026-03-08T13:39:05.000Z</time></trkpt>
<trkpt lat="42.101226" lon="23.590425"><ele>2218.7</ele><time>2026-03-08T13:39:06.000Z</time></trkpt>
<trkpt lat="42.101233" lon="23.590436"><ele>2217.4</ele><time>2026-03-08T13:39:07.000Z</time></trkpt>
<trkpt lat="42.10124" lon="23.590449"><ele>2217.4</ele><time>2026-03-08T13:39:08.000Z</time></trkpt>
<trkpt lat="42.101248" lon="23.590462"><ele>2217.4</ele><time>2026-03-08T13:39:09.000Z</time></trkpt>
<trkpt lat="42.101255" lon="23.590474"><ele>2217.4</ele><time>2026-03-08T13:39:10.000Z</time></trkpt>
<trkpt lat="42.101263" lon="23.590487"><ele>2217.4</ele><time>2026-03-08T13:39:11.000Z</time></trkpt>
<trkpt lat="42.10127" lon="23.590501"><ele>2216.7</ele><time>2026-03-08T13:39:12.000Z</time></trkpt>
<trkpt lat="42.101277" lon="23.590514"><ele>2216.7</ele><time>2026-03-08T13:39:13.000Z</time></trkpt>
<trkpt lat="42.101285" lon="23.590527"><ele>2216.7</ele><time>2026-03-08T13:39:14.000Z</time></trkpt>
<trkpt lat="42.101293" lon="23.590541"><ele>2216.7</ele><time>2026-03-08T13:39:15.000Z</time></trkpt>
<trkpt lat="42.101302" lon="23.590555"><ele>2216.7</ele><time>2026-03-08T13:39:16.000Z</time></trkpt>
<trkpt lat="42.10131" lon="23.590569"><ele>2215.2</ele><time>2026-03-08T13:39:17.000Z</time></trkpt>
<trkpt lat="42.101319" lon="23.590584"><ele>2215.2</ele><time>2026-03-08T13:39:18.000Z</time></trkpt>
<trkpt lat="42.101327" lon="23.590599"><ele>2215.2</ele><time>2026-03-08T13:39:19.000Z</time></trkpt>
<trkpt lat="42.101334" lon="23.590613"><ele>2215.2</ele><time>2026-03-08T13:39:20.000Z</time></trkpt>
<trkpt lat="42.10134" lon="23.590628"><ele>2215.2</ele><time>2026-03-08T13:39:21.000Z</time></trkpt>
<trkpt lat="42.101347" lon="23.590643"><ele>2213.9</ele><time>2026-03-08T13:39:22.000Z</time></trkpt>
<trkpt lat="42.101353" lon="23.590657"><ele>2213.9</ele><time>2026-03-08T13:39:23.000Z</time></trkpt>
<trkpt lat="42.101361" lon="23.590672"><ele>2213.9</ele><time>2026-03-08T13:39:24.000Z</time></trkpt>
<trkpt lat="42.10137" lon="23.590687"><ele>2213.9</ele><time>2026-03-08T13:39:25.000Z</time></trkpt>
<trkpt lat="42.101378" lon="23.5907"><ele>2213.9</ele><time>2026-03-08T13:39:26.000Z</time></trkpt>
<trkpt lat="42.101387" lon="23.590713"><ele>2213.4</ele><time>2026-03-08T13:39:27.000Z</time></trkpt>
<trkpt lat="42.101396" lon="23.590726"><ele>2213.4</ele><time>2026-03-08T13:39:28.000Z</time></trkpt>
<trkpt lat="42.101405" lon="23.590739"><ele>2213.4</ele><time>2026-03-08T13:39:29.000Z</time></trkpt>
<trkpt lat="42.101415" lon="23.590752"><ele>2213.4</ele><time>2026-03-08T13:39:30.000Z</time></trkpt>
<trkpt lat="42.101425" lon="23.590765"><ele>2213.4</ele><time>2026-03-08T13:39:31.000Z</time></trkpt>
<trkpt lat="42.101435" lon="23.590778"><ele>2212.2</ele><time>2026-03-08T13:39:32.000Z</time></trkpt>
<trkpt lat="42.101445" lon="23.590792"><ele>2212.2</ele><time>2026-03-08T13:39:33.000Z</time></trkpt>
<trkpt lat="42.101454" lon="23.590806"><ele>2212.2</ele><time>2026-03-08T13:39:34.000Z</time></trkpt>
<trkpt lat="42.101463" lon="23.590819"><ele>2212.2</ele><time>2026-03-08T13:39:35.000Z</time></trkpt>
<trkpt lat="42.101471" lon="23.590831"><ele>2212.2</ele><time>2026-03-08T13:39:36.000Z</time></trkpt>
<trkpt lat="42.10148" lon="23.590843"><ele>2210.9</ele><time>2026-03-08T13:39:37.000Z</time></trkpt>
<trkpt lat="42.101489" lon="23.590853"><ele>2210.9</ele><time>2026-03-08T13:39:38.000Z</time></trkpt>
<trkpt lat="42.101499" lon="23.590863"><ele>2210.9</ele><time>2026-03-08T13:39:39.000Z</time></trkpt>
<trkpt lat="42.101508" lon="23.590873"><ele>2210.9</ele><time>2026-03-08T13:39:40.000Z</time></trkpt>
<trkpt lat="42.101517" lon="23.590884"><ele>2210.9</ele><time>2026-03-08T13:39:41.000Z</time></trkpt>
<trkpt lat="42.101524" lon="23.590893"><ele>2210.2</ele><time>2026-03-08T13:39:42.000Z</time></trkpt>
<trkpt lat="42.101531" lon="23.590902"><ele>2210.2</ele><time>2026-03-08T13:39:43.000Z</time></trkpt>
<trkpt lat="42.101536" lon="23.59091"><ele>2210.2</ele><time>2026-03-08T13:39:44.000Z</time></trkpt>
<trkpt lat="42.101541" lon="23.590918"><ele>2210.2</ele><time>2026-03-08T13:39:45.000Z</time></trkpt>
<trkpt lat="42.101545" lon="23.590925"><ele>2210.2</ele><time>2026-03-08T13:39:46.000Z</time></trkpt>
<trkpt lat="42.10155" lon="23.590932"><ele>2208.8</ele><time>2026-03-08T13:39:47.000Z</time></trkpt>
<trkpt lat="42.101556" lon="23.59094"><ele>2208.8</ele><time>2026-03-08T13:39:48.000Z</time></trkpt>
<trkpt lat="42.101563" lon="23.590949"><ele>2208.8</ele><time>2026-03-08T13:39:49.000Z</time></trkpt>
<trkpt lat="42.10157" lon="23.59096"><ele>2208.8</ele><time>2026-03-08T13:39:50.000Z</time></trkpt>
<trkpt lat="42.101577" lon="23.590971"><ele>2208.8</ele><time>2026-03-08T13:39:51.000Z</time></trkpt>
<trkpt lat="42.101584" lon="23.590982"><ele>2207.2</ele><time>2026-03-08T13:39:52.000Z</time></trkpt>
<trkpt lat="42.10159" lon="23.590995"><ele>2207.2</ele><time>2026-03-08T13:39:53.000Z</time></trkpt>
<trkpt lat="42.101595" lon="23.591007"><ele>2207.2</ele><time>2026-03-08T13:39:54.000Z</time></trkpt>
<trkpt lat="42.101601" lon="23.59102"><ele>2207.2</ele><time>2026-03-08T13:39:55.000Z</time></trkpt>
<trkpt lat="42.101607" lon="23.591033"><ele>2207.2</ele><time>2026-03-08T13:39:56.000Z</time></trkpt>
<trkpt lat="42.101613" lon="23.591045"><ele>2206.3</ele><time>2026-03-08T13:39:57.000Z</time></trkpt>
<trkpt lat="42.10162" lon="23.591057"><ele>2206.3</ele><time>2026-03-08T13:39:58.000Z</time></trkpt>
<trkpt lat="42.101628" lon="23.591069"><ele>2206.3</ele><time>2026-03-08T13:39:59.000Z</time></trkpt>
<trkpt lat="42.101634" lon="23.591081"><ele>2206.3</ele><time>2026-03-08T13:40:00.000Z</time></trkpt>
<trkpt lat="42.10164" lon="23.591093"><ele>2206.3</ele><time>2026-03-08T13:40:01.000Z</time></trkpt>
<trkpt lat="42.101646" lon="23.591104"><ele>2204.6</ele><time>2026-03-08T13:40:02.000Z</time></trkpt>
<trkpt lat="42.101651" lon="23.591115"><ele>2204.6</ele><time>2026-03-08T13:40:03.000Z</time></trkpt>
<trkpt lat="42.101656" lon="23.591125"><ele>2204.6</ele><time>2026-03-08T13:40:04.000Z</time></trkpt>
<trkpt lat="42.101662" lon="23.591134"><ele>2204.6</ele><time>2026-03-08T13:40:05.000Z</time></trkpt>
<trkpt lat="42.101667" lon="23.591144"><ele>2204.6</ele><time>2026-03-08T13:40:06.000Z</time></trkpt>
<trkpt lat="42.101671" lon="23.591156"><ele>2203.7</ele><time>2026-03-08T13:40:07.000Z</time></trkpt>
<trkpt lat="42.101674" lon="23.591169"><ele>2203.7</ele><time>2026-03-08T13:40:08.000Z</time></trkpt>
<trkpt lat="42.101678" lon="23.591184"><ele>2203.7</ele><time>2026-03-08T13:40:09.000Z</time></trkpt>
<trkpt lat="42.101682" lon="23.591198"><ele>2203.7</ele><time>2026-03-08T13:40:10.000Z</time></trkpt>
<trkpt lat="42.101684" lon="23.591212"><ele>2203.7</ele><time>2026-03-08T13:40:11.000Z</time></trkpt>
<trkpt lat="42.101687" lon="23.591227"><ele>2203.6</ele><time>2026-03-08T13:40:12.000Z</time></trkpt>
<trkpt lat="42.10169" lon="23.591242"><ele>2203.6</ele><time>2026-03-08T13:40:13.000Z</time></trkpt>
<trkpt lat="42.101694" lon="23.591256"><ele>2203.6</ele><time>2026-03-08T13:40:14.000Z</time></trkpt>
<trkpt lat="42.101697" lon="23.591272"><ele>2203.6</ele><time>2026-03-08T13:40:15.000Z</time></trkpt>
<trkpt lat="42.1017" lon="23.591287"><ele>2203.6</ele><time>2026-03-08T13:40:16.000Z</time></trkpt>
<trkpt lat="42.101704" lon="23.591302"><ele>2203.9</ele><time>2026-03-08T13:40:17.000Z</time></trkpt>
<trkpt lat="42.101707" lon="23.591316"><ele>2203.9</ele><time>2026-03-08T13:40:18.000Z</time></trkpt>
<trkpt lat="42.101708" lon="23.59133"><ele>2203.9</ele><time>2026-03-08T13:40:19.000Z</time></trkpt>
<trkpt lat="42.10171" lon="23.591343"><ele>2203.9</ele><time>2026-03-08T13:40:20.000Z</time></trkpt>
<trkpt lat="42.10171" lon="23.591356"><ele>2203.9</ele><time>2026-03-08T13:40:21.000Z</time></trkpt>
<trkpt lat="42.101709" lon="23.591368"><ele>2204.2</ele><time>2026-03-08T13:40:22.000Z</time></trkpt>
<trkpt lat="42.101708" lon="23.591378"><ele>2204.2</ele><time>2026-03-08T13:40:23.000Z</time></trkpt>
<trkpt lat="42.101707" lon="23.591386"><ele>2204.2</ele><time>2026-03-08T13:40:24.000Z</time></trkpt>
<trkpt lat="42.101706" lon="23.591391"><ele>2204.2</ele><time>2026-03-08T13:40:25.000Z</time></trkpt>
<trkpt lat="42.101706" lon="23.591394"><ele>2204.2</ele><time>2026-03-08T13:40:26.000Z</time></trkpt>
<trkpt lat="42.101706" lon="23.591394"><ele>2204.1</ele><time>2026-03-08T13:40:27.000Z</time></trkpt>
<trkpt lat="42.101705" lon="23.591393"><ele>2204.1</ele><time>2026-03-08T13:40:28.000Z</time></trkpt>
<trkpt lat="42.101704" lon="23.591391"><ele>2204.1</ele><time>2026-03-08T13:40:29.000Z</time></trkpt>
<trkpt lat="42.101703" lon="23.59139"><ele>2204.1</ele><time>2026-03-08T13:40:30.000Z</time></trkpt>
<trkpt lat="42.101701" lon="23.59139"><ele>2204.1</ele><time>2026-03-08T13:40:31.000Z</time></trkpt>
<trkpt lat="42.101701" lon="23.591391"><ele>2203.3</ele><time>2026-03-08T13:40:32.000Z</time></trkpt>
<trkpt lat="42.101701" lon="23.591391"><ele>2203.3</ele><time>2026-03-08T13:40:33.000Z</time></trkpt>
<trkpt lat="42.101702" lon="23.591392"><ele>2203.3</ele><time>2026-03-08T13:40:34.000Z</time></trkpt>
<trkpt lat="42.101703" lon="23.591392"><ele>2203.3</ele><time>2026-03-08T13:40:35.000Z</time></trkpt>
<trkpt lat="42.101704" lon="23.591391"><ele>2203.3</ele><time>2026-03-08T13:40:36.000Z</time></trkpt>
<trkpt lat="42.101704" lon="23.591391"><ele>2202.4</ele><time>2026-03-08T13:40:37.000Z</time></trkpt>
<trkpt lat="42.101703" lon="23.591391"><ele>2202.4</ele><time>2026-03-08T13:40:38.000Z</time></trkpt>
<trkpt lat="42.101703" lon="23.591391"><ele>2202.4</ele><time>2026-03-08T13:40:39.000Z</time></trkpt>
<trkpt lat="42.101703" lon="23.591391"><ele>2202.4</ele><time>2026-03-08T13:40:40.000Z</time></trkpt>
<trkpt lat="42.101702" lon="23.591391"><ele>2202.4</ele><time>2026-03-08T13:40:41.000Z</time></trkpt>
<trkpt lat="42.101702" lon="23.59139"><ele>2202.2</ele><time>2026-03-08T13:40:42.000Z</time></trkpt>
<trkpt lat="42.101702" lon="23.59139"><ele>2202.2</ele><time>2026-03-08T13:40:43.000Z</time></trkpt>
<trkpt lat="42.101701" lon="23.591389"><ele>2202.2</ele><time>2026-03-08T13:40:44.000Z</time></trkpt>
<trkpt lat="42.101701" lon="23.591388"><ele>2202.2</ele><time>2026-03-08T13:40:45.000Z</time></trkpt>
<trkpt lat="42.1017" lon="23.591387"><ele>2202.2</ele><time>2026-03-08T13:40:46.000Z</time></trkpt>
<trkpt lat="42.101698" lon="23.591386"><ele>2202.1</ele><time>2026-03-08T13:40:47.000Z</time></trkpt>
<trkpt lat="42.101696" lon="23.591385"><ele>2202.1</ele><time>2026-03-08T13:40:48.000Z</time></trkpt>
<trkpt lat="42.101695" lon="23.591385"><ele>2202.1</ele><time>2026-03-08T13:40:49.000Z</time></trkpt>
<trkpt lat="42.101694" lon="23.591385"><ele>2202.1</ele><time>2026-03-08T13:40:50.000Z</time></trkpt>
<trkpt lat="42.101694" lon="23.591384"><ele>2202.1</ele><time>2026-03-08T13:40:51.000Z</time></trkpt>
<trkpt lat="42.101695" lon="23.591384"><ele>2202.1</ele><time>2026-03-08T13:40:52.000Z</time></trkpt>
<trkpt lat="42.101697" lon="23.591385"><ele>2202.1</ele><time>2026-03-08T13:40:53.000Z</time></trkpt>
<trkpt lat="42.101698" lon="23.591385"><ele>2202.1</ele><time>2026-03-08T13:40:54.000Z</time></trkpt>
<trkpt lat="42.101699" lon="23.591385"><ele>2202.1</ele><time>2026-03-08T13:40:55.000Z</time></trkpt>
<trkpt lat="42.101699" lon="23.591386"><ele>2202.1</ele><time>2026-03-08T13:40:56.000Z</time></trkpt>
<trkpt lat="42.101699" lon="23.591386"><ele>2202.2</ele><time>2026-03-08T13:40:57.000Z</time></trkpt>
<trkpt lat="42.101699" lon="23.591386"><ele>2202.2</ele><time>2026-03-08T13:40:58.000Z</time></trkpt>
<trkpt lat="42.101699" lon="23.591385"><ele>2202.2</ele><time>2026-03-08T13:40:59.000Z</time></trkpt>
<trkpt lat="42.101698" lon="23.591384"><ele>2202.2</ele><time>2026-03-08T13:41:00.000Z</time></trkpt>
<trkpt lat="42.101697" lon="23.591383"><ele>2202.2</ele><time>2026-03-08T13:41:01.000Z</time></trkpt>
<trkpt lat="42.101697" lon="23.591381"><ele>2202.2</ele><time>2026-03-08T13:41:02.000Z</time></trkpt>
<trkpt lat="42.101696" lon="23.591381"><ele>2202.2</ele><time>2026-03-08T13:41:03.000Z</time></trkpt>
<trkpt lat="42.101695" lon="23.591382"><ele>2202.2</ele><time>2026-03-08T13:41:04.000Z</time></trkpt>
<trkpt lat="42.101695" lon="23.591383"><ele>2202.2</ele><time>2026-03-08T13:41:05.000Z</time></trkpt>
<trkpt lat="42.101695" lon="23.591384"><ele>2202.2</ele><time>2026-03-08T13:41:06.000Z</time></trkpt>
<trkpt lat="42.101694" lon="23.591385"><ele>2202.2</ele><time>2026-03-08T13:41:07.000Z</time></trkpt>
<trkpt lat="42.101694" lon="23.591386"><ele>2202.2</ele><time>2026-03-08T13:41:08.000Z</time></trkpt>
<trkpt lat="42.101693" lon="23.591387"><ele>2202.2</ele><time>2026-03-08T13:41:09.000Z</time></trkpt>
<trkpt lat="42.101693" lon="23.591387"><ele>2202.2</ele><time>2026-03-08T13:41:10.000Z</time></trkpt>
<trkpt lat="42.101692" lon="23.591388"><ele>2202.2</ele><time>2026-03-08T13:41:11.000Z</time></trkpt>
<trkpt lat="42.101692" lon="23.591389"><ele>2202.2</ele><time>2026-03-08T13:41:12.000Z</time></trkpt>
<trkpt lat="42.101692" lon="23.591389"><ele>2202.2</ele><time>2026-03-08T13:41:13.000Z</time></trkpt>
<trkpt lat="42.101692" lon="23.591389"><ele>2202.2</ele><time>2026-03-08T13:41:14.000Z</time></trkpt>
<trkpt lat="42.101692" lon="23.591389"><ele>2202.2</ele><time>2026-03-08T13:41:15.000Z</time></trkpt>
<trkpt lat="42.101692" lon="23.59139"><ele>2202.2</ele><time>2026-03-08T13:41:16.000Z</time></trkpt>
<trkpt lat="42.101692" lon="23.591391"><ele>2202</ele><time>2026-03-08T13:41:17.000Z</time></trkpt>
<trkpt lat="42.101692" lon="23.591393"><ele>2202</ele><time>2026-03-08T13:41:18.000Z</time></trkpt>
<trkpt lat="42.101692" lon="23.591397"><ele>2202</ele><time>2026-03-08T13:41:19.000Z</time></trkpt>
<trkpt lat="42.101691" lon="23.591401"><ele>2202</ele><time>2026-03-08T13:41:20.000Z</time></trkpt>
<trkpt lat="42.101691" lon="23.591406"><ele>2202</ele><time>2026-03-08T13:41:21.000Z</time></trkpt>
<trkpt lat="42.10169" lon="23.591413"><ele>2201.8</ele><time>2026-03-08T13:41:22.000Z</time></trkpt>
<trkpt lat="42.101689" lon="23.591422"><ele>2201.8</ele><time>2026-03-08T13:41:23.000Z</time></trkpt>
<trkpt lat="42.101688" lon="23.591432"><ele>2201.8</ele><time>2026-03-08T13:41:24.000Z</time></trkpt>
<trkpt lat="42.101687" lon="23.591444"><ele>2201.8</ele><time>2026-03-08T13:41:25.000Z</time></trkpt>
<trkpt lat="42.101685" lon="23.591457"><ele>2201.8</ele><time>2026-03-08T13:41:26.000Z</time></trkpt>
<trkpt lat="42.101683" lon="23.59147"><ele>2201.7</ele><time>2026-03-08T13:41:27.000Z</time></trkpt>
<trkpt lat="42.101681" lon="23.591484"><ele>2201.7</ele><time>2026-03-08T13:41:28.000Z</time></trkpt>
<trkpt lat="42.10168" lon="23.591499"><ele>2201.7</ele><time>2026-03-08T13:41:29.000Z</time></trkpt>
<trkpt lat="42.101678" lon="23.591515"><ele>2201.7</ele><time>2026-03-08T13:41:30.000Z</time></trkpt>
<trkpt lat="42.101677" lon="23.591532"><ele>2201.7</ele><time>2026-03-08T13:41:31.000Z</time></trkpt>
<trkpt lat="42.101676" lon="23.59155"><ele>2201.5</ele><time>2026-03-08T13:41:32.000Z</time></trkpt>
<trkpt lat="42.101677" lon="23.59157"><ele>2201.5</ele><time>2026-03-08T13:41:33.000Z</time></trkpt>
<trkpt lat="42.101677" lon="23.591587"><ele>2201.5</ele><time>2026-03-08T13:41:34.000Z</time></trkpt>
<trkpt lat="42.101678" lon="23.591606"><ele>2201.5</ele><time>2026-03-08T13:41:35.000Z</time></trkpt>
<trkpt lat="42.101679" lon="23.591623"><ele>2201.5</ele><time>2026-03-08T13:41:36.000Z</time></trkpt>
<trkpt lat="42.101681" lon="23.591641"><ele>2201</ele><time>2026-03-08T13:41:37.000Z</time></trkpt>
<trkpt lat="42.101683" lon="23.591657"><ele>2201</ele><time>2026-03-08T13:41:38.000Z</time></trkpt>
<trkpt lat="42.101685" lon="23.591674"><ele>2201</ele><time>2026-03-08T13:41:39.000Z</time></trkpt>
<trkpt lat="42.101688" lon="23.591689"><ele>2201</ele><time>2026-03-08T13:41:40.000Z</time></trkpt>
<trkpt lat="42.101692" lon="23.591703"><ele>2201</ele><time>2026-03-08T13:41:41.000Z</time></trkpt>
<trkpt lat="42.101698" lon="23.591717"><ele>2200.5</ele><time>2026-03-08T13:41:42.000Z</time></trkpt>
<trkpt lat="42.101704" lon="23.59173"><ele>2200.5</ele><time>2026-03-08T13:41:43.000Z</time></trkpt>
<trkpt lat="42.10171" lon="23.591744"><ele>2200.5</ele><time>2026-03-08T13:41:44.000Z</time></trkpt>
<trkpt lat="42.101718" lon="23.591758"><ele>2200.5</ele><time>2026-03-08T13:41:45.000Z</time></trkpt>
<trkpt lat="42.101726" lon="23.591772"><ele>2200.5</ele><time>2026-03-08T13:41:46.000Z</time></trkpt>
<trkpt lat="42.101733" lon="23.591785"><ele>2199.2</ele><time>2026-03-08T13:41:47.000Z</time></trkpt>
<trkpt lat="42.101742" lon="23.591798"><ele>2199.2</ele><time>2026-03-08T13:41:48.000Z</time></trkpt>
<trkpt lat="42.101751" lon="23.59181"><ele>2199.2</ele><time>2026-03-08T13:41:49.000Z</time></trkpt>
<trkpt lat="42.10176" lon="23.591821"><ele>2199.2</ele><time>2026-03-08T13:41:50.000Z</time></trkpt>
<trkpt lat="42.101768" lon="23.591833"><ele>2199.2</ele><time>2026-03-08T13:41:51.000Z</time></trkpt>
<trkpt lat="42.101777" lon="23.591845"><ele>2197.6</ele><time>2026-03-08T13:41:52.000Z</time></trkpt>
<trkpt lat="42.101785" lon="23.591856"><ele>2197.6</ele><time>2026-03-08T13:41:53.000Z</time></trkpt>
<trkpt lat="42.101793" lon="23.591868"><ele>2197.6</ele><time>2026-03-08T13:41:54.000Z</time></trkpt>
<trkpt lat="42.101802" lon="23.591879"><ele>2197.6</ele><time>2026-03-08T13:41:55.000Z</time></trkpt>
<trkpt lat="42.101809" lon="23.591889"><ele>2197.6</ele><time>2026-03-08T13:41:56.000Z</time></trkpt>
<trkpt lat="42.101818" lon="23.5919"><ele>2196.7</ele><time>2026-03-08T13:41:57.000Z</time></trkpt>
<trkpt lat="42.101827" lon="23.591912"><ele>2196.7</ele><time>2026-03-08T13:41:58.000Z</time></trkpt>
<trkpt lat="42.101836" lon="23.591925"><ele>2196.7</ele><time>2026-03-08T13:41:59.000Z</time></trkpt>
<trkpt lat="42.101845" lon="23.591939"><ele>2196.7</ele><time>2026-03-08T13:42:00.000Z</time></trkpt>
<trkpt lat="42.101854" lon="23.591953"><ele>2196.7</ele><time>2026-03-08T13:42:01.000Z</time></trkpt>
<trkpt lat="42.101862" lon="23.591966"><ele>2195</ele><time>2026-03-08T13:42:02.000Z</time></trkpt>
<trkpt lat="42.10187" lon="23.59198"><ele>2195</ele><time>2026-03-08T13:42:03.000Z</time></trkpt>
<trkpt lat="42.101877" lon="23.591995"><ele>2195</ele><time>2026-03-08T13:42:04.000Z</time></trkpt>
<trkpt lat="42.101885" lon="23.59201"><ele>2195</ele><time>2026-03-08T13:42:05.000Z</time></trkpt>
<trkpt lat="42.101892" lon="23.592027"><ele>2195</ele><time>2026-03-08T13:42:06.000Z</time></trkpt>
<trkpt lat="42.101899" lon="23.592043"><ele>2193.1</ele><time>2026-03-08T13:42:07.000Z</time></trkpt>
<trkpt lat="42.101905" lon="23.592056"><ele>2193.1</ele><time>2026-03-08T13:42:08.000Z</time></trkpt>
<trkpt lat="42.101911" lon="23.592069"><ele>2193.1</ele><time>2026-03-08T13:42:09.000Z</time></trkpt>
<trkpt lat="42.101917" lon="23.592082"><ele>2193.1</ele><time>2026-03-08T13:42:10.000Z</time></trkpt>
<trkpt lat="42.101922" lon="23.592093"><ele>2193.1</ele><time>2026-03-08T13:42:11.000Z</time></trkpt>
<trkpt lat="42.101929" lon="23.592104"><ele>2192</ele><time>2026-03-08T13:42:12.000Z</time></trkpt>
<trkpt lat="42.101935" lon="23.592115"><ele>2192</ele><time>2026-03-08T13:42:13.000Z</time></trkpt>
<trkpt lat="42.101941" lon="23.592126"><ele>2192</ele><time>2026-03-08T13:42:14.000Z</time></trkpt>
<trkpt lat="42.101948" lon="23.592137"><ele>2192</ele><time>2026-03-08T13:42:15.000Z</time></trkpt>
<trkpt lat="42.101955" lon="23.592147"><ele>2192</ele><time>2026-03-08T13:42:16.000Z</time></trkpt>
<trkpt lat="42.101962" lon="23.592157"><ele>2189.3</ele><time>2026-03-08T13:42:17.000Z</time></trkpt>
<trkpt lat="42.101969" lon="23.592167"><ele>2189.3</ele><time>2026-03-08T13:42:18.000Z</time></trkpt>
<trkpt lat="42.101976" lon="23.592176"><ele>2189.3</ele><time>2026-03-08T13:42:19.000Z</time></trkpt>
<trkpt lat="42.101982" lon="23.592186"><ele>2189.3</ele><time>2026-03-08T13:42:20.000Z</time></trkpt>
<trkpt lat="42.101989" lon="23.592196"><ele>2189.3</ele><time>2026-03-08T13:42:21.000Z</time></trkpt>
<trkpt lat="42.101996" lon="23.592207"><ele>2186.6</ele><time>2026-03-08T13:42:22.000Z</time></trkpt>
<trkpt lat="42.102002" lon="23.592217"><ele>2186.6</ele><time>2026-03-08T13:42:23.000Z</time></trkpt>
<trkpt lat="42.102009" lon="23.592229"><ele>2186.6</ele><time>2026-03-08T13:42:24.000Z</time></trkpt>
<trkpt lat="42.102015" lon="23.59224"><ele>2186.6</ele><time>2026-03-08T13:42:25.000Z</time></trkpt>
<trkpt lat="42.102022" lon="23.592252"><ele>2186.6</ele><time>2026-03-08T13:42:26.000Z</time></trkpt>
<trkpt lat="42.102029" lon="23.592264"><ele>2185.2</ele><time>2026-03-08T13:42:27.000Z</time></trkpt>
<trkpt lat="42.102035" lon="23.592277"><ele>2185.2</ele><time>2026-03-08T13:42:28.000Z</time></trkpt>
<trkpt lat="42.102043" lon="23.592289"><ele>2185.2</ele><time>2026-03-08T13:42:29.000Z</time></trkpt>
<trkpt lat="42.10205" lon="23.5923"><ele>2185.2</ele><time>2026-03-08T13:42:30.000Z</time></trkpt>
<trkpt lat="42.102053" lon="23.59231"><ele>2185.2</ele><time>2026-03-08T13:42:31.000Z</time></trkpt>
<trkpt lat="42.102055" lon="23.59232"><ele>2182.8</ele><time>2026-03-08T13:42:32.000Z</time></trkpt>
<trkpt lat="42.102056" lon="23.592331"><ele>2182.8</ele><time>2026-03-08T13:42:33.000Z</time></trkpt>
<trkpt lat="42.102055" lon="23.592342"><ele>2182.8</ele><time>2026-03-08T13:42:34.000Z</time></trkpt>
<trkpt lat="42.102054" lon="23.592355"><ele>2182.8</ele><time>2026-03-08T13:42:35.000Z</time></trkpt>
<trkpt lat="42.102055" lon="23.59237"><ele>2182.8</ele><time>2026-03-08T13:42:36.000Z</time></trkpt>
<trkpt lat="42.102056" lon="23.592385"><ele>2180.5</ele><time>2026-03-08T13:42:37.000Z</time></trkpt>
<trkpt lat="42.102057" lon="23.5924"><ele>2180.5</ele><time>2026-03-08T13:42:38.000Z</time></trkpt>
<trkpt lat="42.102059" lon="23.592414"><ele>2180.5</ele><time>2026-03-08T13:42:39.000Z</time></trkpt>
<trkpt lat="42.102061" lon="23.592428"><ele>2180.5</ele><time>2026-03-08T13:42:40.000Z</time></trkpt>
<trkpt lat="42.102063" lon="23.592442"><ele>2180.5</ele><time>2026-03-08T13:42:41.000Z</time></trkpt>
<trkpt lat="42.102065" lon="23.592455"><ele>2179.4</ele><time>2026-03-08T13:42:42.000Z</time></trkpt>
<trkpt lat="42.102067" lon="23.592468"><ele>2179.4</ele><time>2026-03-08T13:42:43.000Z</time></trkpt>
<trkpt lat="42.102069" lon="23.592481"><ele>2179.4</ele><time>2026-03-08T13:42:44.000Z</time></trkpt>
<trkpt lat="42.102071" lon="23.592495"><ele>2179.4</ele><time>2026-03-08T13:42:45.000Z</time></trkpt>
<trkpt lat="42.102073" lon="23.592509"><ele>2179.4</ele><time>2026-03-08T13:42:46.000Z</time></trkpt>
<trkpt lat="42.102074" lon="23.592523"><ele>2177.3</ele><time>2026-03-08T13:42:47.000Z</time></trkpt>
<trkpt lat="42.102076" lon="23.592539"><ele>2177.3</ele><time>2026-03-08T13:42:48.000Z</time></trkpt>
<trkpt lat="42.102077" lon="23.592555"><ele>2177.3</ele><time>2026-03-08T13:42:49.000Z</time></trkpt>
<trkpt lat="42.102078" lon="23.592571"><ele>2177.3</ele><time>2026-03-08T13:42:50.000Z</time></trkpt>
<trkpt lat="42.10208" lon="23.592586"><ele>2177.3</ele><time>2026-03-08T13:42:51.000Z</time></trkpt>
<trkpt lat="42.10208" lon="23.592602"><ele>2175.3</ele><time>2026-03-08T13:42:52.000Z</time></trkpt>
<trkpt lat="42.102081" lon="23.592617"><ele>2175.3</ele><time>2026-03-08T13:42:53.000Z</time></trkpt>
<trkpt lat="42.102083" lon="23.592631"><ele>2175.3</ele><time>2026-03-08T13:42:54.000Z</time></trkpt>
<trkpt lat="42.102085" lon="23.592645"><ele>2175.3</ele><time>2026-03-08T13:42:55.000Z</time></trkpt>
<trkpt lat="42.102088" lon="23.592659"><ele>2175.3</ele><time>2026-03-08T13:42:56.000Z</time></trkpt>
<trkpt lat="42.102091" lon="23.592673"><ele>2174.4</ele><time>2026-03-08T13:42:57.000Z</time></trkpt>
<trkpt lat="42.102096" lon="23.592686"><ele>2174.4</ele><time>2026-03-08T13:42:58.000Z</time></trkpt>
<trkpt lat="42.1021" lon="23.592699"><ele>2174.4</ele><time>2026-03-08T13:42:59.000Z</time></trkpt>
<trkpt lat="42.102103" lon="23.592713"><ele>2174.4</ele><time>2026-03-08T13:43:00.000Z</time></trkpt>
<trkpt lat="42.102106" lon="23.592727"><ele>2174.4</ele><time>2026-03-08T13:43:01.000Z</time></trkpt>
<trkpt lat="42.102108" lon="23.592742"><ele>2172.6</ele><time>2026-03-08T13:43:02.000Z</time></trkpt>
<trkpt lat="42.10211" lon="23.592758"><ele>2172.6</ele><time>2026-03-08T13:43:03.000Z</time></trkpt>
<trkpt lat="42.102112" lon="23.592775"><ele>2172.6</ele><time>2026-03-08T13:43:04.000Z</time></trkpt>
<trkpt lat="42.102114" lon="23.592792"><ele>2172.6</ele><time>2026-03-08T13:43:05.000Z</time></trkpt>
<trkpt lat="42.102115" lon="23.592809"><ele>2172.6</ele><time>2026-03-08T13:43:06.000Z</time></trkpt>
<trkpt lat="42.102117" lon="23.592826"><ele>2170.8</ele><time>2026-03-08T13:43:07.000Z</time></trkpt>
<trkpt lat="42.102119" lon="23.592842"><ele>2170.8</ele><time>2026-03-08T13:43:08.000Z</time></trkpt>
<trkpt lat="42.102121" lon="23.592857"><ele>2170.8</ele><time>2026-03-08T13:43:09.000Z</time></trkpt>
<trkpt lat="42.102123" lon="23.592872"><ele>2170.8</ele><time>2026-03-08T13:43:10.000Z</time></trkpt>
<trkpt lat="42.102125" lon="23.592887"><ele>2170.8</ele><time>2026-03-08T13:43:11.000Z</time></trkpt>
<trkpt lat="42.102127" lon="23.592901"><ele>2169.8</ele><time>2026-03-08T13:43:12.000Z</time></trkpt>
<trkpt lat="42.102129" lon="23.592914"><ele>2169.8</ele><time>2026-03-08T13:43:13.000Z</time></trkpt>
<trkpt lat="42.102131" lon="23.592928"><ele>2169.8</ele><time>2026-03-08T13:43:14.000Z</time></trkpt>
<trkpt lat="42.102134" lon="23.59294"><ele>2169.8</ele><time>2026-03-08T13:43:15.000Z</time></trkpt>
<trkpt lat="42.102137" lon="23.592953"><ele>2169.8</ele><time>2026-03-08T13:43:16.000Z</time></trkpt>
<trkpt lat="42.102139" lon="23.592968"><ele>2168.1</ele><time>2026-03-08T13:43:17.000Z</time></trkpt>
<trkpt lat="42.102142" lon="23.592984"><ele>2168.1</ele><time>2026-03-08T13:43:18.000Z</time></trkpt>
<trkpt lat="42.102144" lon="23.593"><ele>2168.1</ele><time>2026-03-08T13:43:19.000Z</time></trkpt>
<trkpt lat="42.102146" lon="23.593015"><ele>2168.1</ele><time>2026-03-08T13:43:20.000Z</time></trkpt>
<trkpt lat="42.102146" lon="23.59303"><ele>2168.1</ele><time>2026-03-08T13:43:21.000Z</time></trkpt>
<trkpt lat="42.102145" lon="23.593044"><ele>2166.6</ele><time>2026-03-08T13:43:22.000Z</time></trkpt>
<trkpt lat="42.102144" lon="23.593055"><ele>2166.6</ele><time>2026-03-08T13:43:23.000Z</time></trkpt>
<trkpt lat="42.102143" lon="23.593064"><ele>2166.6</ele><time>2026-03-08T13:43:24.000Z</time></trkpt>
<trkpt lat="42.102142" lon="23.593071"><ele>2166.6</ele><time>2026-03-08T13:43:25.000Z</time></trkpt>
<trkpt lat="42.102142" lon="23.593074"><ele>2166.6</ele><time>2026-03-08T13:43:26.000Z</time></trkpt>
<trkpt lat="42.102142" lon="23.593074"><ele>2166</ele><time>2026-03-08T13:43:27.000Z</time></trkpt>
<trkpt lat="42.102142" lon="23.593074"><ele>2166</ele><time>2026-03-08T13:43:28.000Z</time></trkpt>
<trkpt lat="42.102142" lon="23.593074"><ele>2166</ele><time>2026-03-08T13:43:29.000Z</time></trkpt>
<trkpt lat="42.102141" lon="23.593073"><ele>2166</ele><time>2026-03-08T13:43:30.000Z</time></trkpt>
<trkpt lat="42.102139" lon="23.593074"><ele>2166</ele><time>2026-03-08T13:43:31.000Z</time></trkpt>
<trkpt lat="42.102138" lon="23.593074"><ele>2165.1</ele><time>2026-03-08T13:43:32.000Z</time></trkpt>
<trkpt lat="42.102137" lon="23.593073"><ele>2165.1</ele><time>2026-03-08T13:43:33.000Z</time></trkpt>
<trkpt lat="42.102135" lon="23.593074"><ele>2165.1</ele><time>2026-03-08T13:43:34.000Z</time></trkpt>
<trkpt lat="42.102135" lon="23.593074"><ele>2165.1</ele><time>2026-03-08T13:43:35.000Z</time></trkpt>
<trkpt lat="42.102135" lon="23.593075"><ele>2165.1</ele><time>2026-03-08T13:43:36.000Z</time></trkpt>
<trkpt lat="42.102135" lon="23.593075"><ele>2164.6</ele><time>2026-03-08T13:43:37.000Z</time></trkpt>
<trkpt lat="42.102135" lon="23.593076"><ele>2164.6</ele><time>2026-03-08T13:43:38.000Z</time></trkpt>
<trkpt lat="42.102134" lon="23.593077"><ele>2164.6</ele><time>2026-03-08T13:43:39.000Z</time></trkpt>
<trkpt lat="42.102134" lon="23.593077"><ele>2164.6</ele><time>2026-03-08T13:43:40.000Z</time></trkpt>
<trkpt lat="42.102134" lon="23.593078"><ele>2164.6</ele><time>2026-03-08T13:43:41.000Z</time></trkpt>
<trkpt lat="42.102134" lon="23.593079"><ele>2164.6</ele><time>2026-03-08T13:43:42.000Z</time></trkpt>
<trkpt lat="42.102134" lon="23.59308"><ele>2164.6</ele><time>2026-03-08T13:43:43.000Z</time></trkpt>
<trkpt lat="42.102134" lon="23.593079"><ele>2164.6</ele><time>2026-03-08T13:43:44.000Z</time></trkpt>
<trkpt lat="42.102135" lon="23.593079"><ele>2164.6</ele><time>2026-03-08T13:43:45.000Z</time></trkpt>
<trkpt lat="42.102135" lon="23.593079"><ele>2164.6</ele><time>2026-03-08T13:43:46.000Z</time></trkpt>
<trkpt lat="42.102135" lon="23.593079"><ele>2164.4</ele><time>2026-03-08T13:43:47.000Z</time></trkpt>
<trkpt lat="42.102135" lon="23.593078"><ele>2164.4</ele><time>2026-03-08T13:43:48.000Z</time></trkpt>
<trkpt lat="42.102134" lon="23.593077"><ele>2164.4</ele><time>2026-03-08T13:43:49.000Z</time></trkpt>
<trkpt lat="42.102134" lon="23.593077"><ele>2164.4</ele><time>2026-03-08T13:43:50.000Z</time></trkpt>
<trkpt lat="42.102133" lon="23.593076"><ele>2164.4</ele><time>2026-03-08T13:43:51.000Z</time></trkpt>
<trkpt lat="42.102133" lon="23.593075"><ele>2164.3</ele><time>2026-03-08T13:43:52.000Z</time></trkpt>
<trkpt lat="42.102133" lon="23.593077"><ele>2164.3</ele><time>2026-03-08T13:43:53.000Z</time></trkpt>
<trkpt lat="42.102132" lon="23.593078"><ele>2164.3</ele><time>2026-03-08T13:43:54.000Z</time></trkpt>
<trkpt lat="42.102132" lon="23.593079"><ele>2164.3</ele><time>2026-03-08T13:43:55.000Z</time></trkpt>
<trkpt lat="42.102132" lon="23.59308"><ele>2164.3</ele><time>2026-03-08T13:43:56.000Z</time></trkpt>
<trkpt lat="42.102133" lon="23.59308"><ele>2164.3</ele><time>2026-03-08T13:43:57.000Z</time></trkpt>
<trkpt lat="42.102133" lon="23.59308"><ele>2164.3</ele><time>2026-03-08T13:43:58.000Z</time></trkpt>
<trkpt lat="42.102134" lon="23.59308"><ele>2164.3</ele><time>2026-03-08T13:43:59.000Z</time></trkpt>
<trkpt lat="42.102134" lon="23.593079"><ele>2164.3</ele><time>2026-03-08T13:44:00.000Z</time></trkpt>
<trkpt lat="42.102134" lon="23.593079"><ele>2164.3</ele><time>2026-03-08T13:44:01.000Z</time></trkpt>
<trkpt lat="42.102134" lon="23.593079"><ele>2164.4</ele><time>2026-03-08T13:44:02.000Z</time></trkpt>
<trkpt lat="42.102134" lon="23.593079"><ele>2164.4</ele><time>2026-03-08T13:44:03.000Z</time></trkpt>
<trkpt lat="42.102134" lon="23.593079"><ele>2164.4</ele><time>2026-03-08T13:44:04.000Z</time></trkpt>
<trkpt lat="42.102134" lon="23.593079"><ele>2164.4</ele><time>2026-03-08T13:44:05.000Z</time></trkpt>
<trkpt lat="42.102134" lon="23.593079"><ele>2164.4</ele><time>2026-03-08T13:44:06.000Z</time></trkpt>
<trkpt lat="42.102134" lon="23.593079"><ele>2164.4</ele><time>2026-03-08T13:44:07.000Z</time></trkpt>
<trkpt lat="42.102134" lon="23.593079"><ele>2164.4</ele><time>2026-03-08T13:44:08.000Z</time></trkpt>
<trkpt lat="42.102134" lon="23.593079"><ele>2164.4</ele><time>2026-03-08T13:44:09.000Z</time></trkpt>
<trkpt lat="42.102134" lon="23.593079"><ele>2164.4</ele><time>2026-03-08T13:44:10.000Z</time></trkpt>
<trkpt lat="42.102134" lon="23.593078"><ele>2164.4</ele><time>2026-03-08T13:44:11.000Z</time></trkpt>
<trkpt lat="42.102134" lon="23.593078"><ele>2164.3</ele><time>2026-03-08T13:44:12.000Z</time></trkpt>
<trkpt lat="42.102134" lon="23.593077"><ele>2164.3</ele><time>2026-03-08T13:44:13.000Z</time></trkpt>
<trkpt lat="42.102134" lon="23.593076"><ele>2164.3</ele><time>2026-03-08T13:44:14.000Z</time></trkpt>
<trkpt lat="42.102134" lon="23.593076"><ele>2164.3</ele><time>2026-03-08T13:44:15.000Z</time></trkpt>
<trkpt lat="42.102134" lon="23.593076"><ele>2164.3</ele><time>2026-03-08T13:44:16.000Z</time></trkpt>
<trkpt lat="42.102134" lon="23.593076"><ele>2164.5</ele><time>2026-03-08T13:44:17.000Z</time></trkpt>
<trkpt lat="42.102134" lon="23.593076"><ele>2164.5</ele><time>2026-03-08T13:44:18.000Z</time></trkpt>
<trkpt lat="42.102134" lon="23.593076"><ele>2164.5</ele><time>2026-03-08T13:44:19.000Z</time></trkpt>
<trkpt lat="42.102134" lon="23.593076"><ele>2164.5</ele><time>2026-03-08T13:44:20.000Z</time></trkpt>
<trkpt lat="42.102134" lon="23.593076"><ele>2164.5</ele><time>2026-03-08T13:44:21.000Z</time></trkpt>
<trkpt lat="42.102134" lon="23.593076"><ele>2164.6</ele><time>2026-03-08T13:44:22.000Z</time></trkpt>
<trkpt lat="42.102134" lon="23.593076"><ele>2164.6</ele><time>2026-03-08T13:44:23.000Z</time></trkpt>
<trkpt lat="42.102134" lon="23.593076"><ele>2164.6</ele><time>2026-03-08T13:44:24.000Z</time></trkpt>
<trkpt lat="42.102134" lon="23.593075"><ele>2164.6</ele><time>2026-03-08T13:44:25.000Z</time></trkpt>
<trkpt lat="42.102134" lon="23.593074"><ele>2164.6</ele><time>2026-03-08T13:44:26.000Z</time></trkpt>
<trkpt lat="42.102134" lon="23.593074"><ele>2164.6</ele><time>2026-03-08T13:44:27.000Z</time></trkpt>
<trkpt lat="42.102134" lon="23.593073"><ele>2164.6</ele><time>2026-03-08T13:44:28.000Z</time></trkpt>
<trkpt lat="42.102134" lon="23.593073"><ele>2164.6</ele><time>2026-03-08T13:44:29.000Z</time></trkpt>
<trkpt lat="42.102133" lon="23.593073"><ele>2164.6</ele><time>2026-03-08T13:44:30.000Z</time></trkpt>
<trkpt lat="42.102133" lon="23.593074"><ele>2164.6</ele><time>2026-03-08T13:44:31.000Z</time></trkpt>
<trkpt lat="42.102133" lon="23.593073"><ele>2164.4</ele><time>2026-03-08T13:44:32.000Z</time></trkpt>
<trkpt lat="42.102133" lon="23.593073"><ele>2164.4</ele><time>2026-03-08T13:44:33.000Z</time></trkpt>
<trkpt lat="42.102134" lon="23.593071"><ele>2164.4</ele><time>2026-03-08T13:44:34.000Z</time></trkpt>
<trkpt lat="42.102134" lon="23.59307"><ele>2164.4</ele><time>2026-03-08T13:44:35.000Z</time></trkpt>
<trkpt lat="42.102135" lon="23.593069"><ele>2164.4</ele><time>2026-03-08T13:44:36.000Z</time></trkpt>
<trkpt lat="42.102136" lon="23.593069"><ele>2164.3</ele><time>2026-03-08T13:44:37.000Z</time></trkpt>
<trkpt lat="42.102137" lon="23.593069"><ele>2164.3</ele><time>2026-03-08T13:44:38.000Z</time></trkpt>
<trkpt lat="42.102138" lon="23.593069"><ele>2164.3</ele><time>2026-03-08T13:44:39.000Z</time></trkpt>
<trkpt lat="42.102138" lon="23.593069"><ele>2164.3</ele><time>2026-03-08T13:44:40.000Z</time></trkpt>
<trkpt lat="42.102139" lon="23.593069"><ele>2164.3</ele><time>2026-03-08T13:44:41.000Z</time></trkpt>
<trkpt lat="42.102139" lon="23.59307"><ele>2164.2</ele><time>2026-03-08T13:44:42.000Z</time></trkpt>
<trkpt lat="42.102139" lon="23.593071"><ele>2164.2</ele><time>2026-03-08T13:44:43.000Z</time></trkpt>
<trkpt lat="42.102139" lon="23.593071"><ele>2164.2</ele><time>2026-03-08T13:44:44.000Z</time></trkpt>
<trkpt lat="42.102139" lon="23.593072"><ele>2164.2</ele><time>2026-03-08T13:44:45.000Z</time></trkpt>
<trkpt lat="42.102139" lon="23.593072"><ele>2164.2</ele><time>2026-03-08T13:44:46.000Z</time></trkpt>
<trkpt lat="42.102139" lon="23.593072"><ele>2164.2</ele><time>2026-03-08T13:44:47.000Z</time></trkpt>
<trkpt lat="42.102138" lon="23.593072"><ele>2164.2</ele><time>2026-03-08T13:44:48.000Z</time></trkpt>
<trkpt lat="42.102137" lon="23.593071"><ele>2164.2</ele><time>2026-03-08T13:44:49.000Z</time></trkpt>
<trkpt lat="42.102137" lon="23.593071"><ele>2164.2</ele><time>2026-03-08T13:44:50.000Z</time></trkpt>
<trkpt lat="42.102138" lon="23.593071"><ele>2164.2</ele><time>2026-03-08T13:44:51.000Z</time></trkpt>
<trkpt lat="42.102138" lon="23.593071"><ele>2164</ele><time>2026-03-08T13:44:52.000Z</time></trkpt>
<trkpt lat="42.102138" lon="23.593071"><ele>2164</ele><time>2026-03-08T13:44:53.000Z</time></trkpt>
<trkpt lat="42.102138" lon="23.593071"><ele>2164</ele><time>2026-03-08T13:44:54.000Z</time></trkpt>
<trkpt lat="42.102138" lon="23.593071"><ele>2164</ele><time>2026-03-08T13:44:55.000Z</time></trkpt>
<trkpt lat="42.102138" lon="23.593071"><ele>2164</ele><time>2026-03-08T13:44:56.000Z</time></trkpt>
<trkpt lat="42.102138" lon="23.593071"><ele>2163.9</ele><time>2026-03-08T13:44:57.000Z</time></trkpt>
<trkpt lat="42.102138" lon="23.593071"><ele>2163.9</ele><time>2026-03-08T13:44:58.000Z</time></trkpt>
<trkpt lat="42.102138" lon="23.593071"><ele>2163.9</ele><time>2026-03-08T13:44:59.000Z</time></trkpt>
<trkpt lat="42.102138" lon="23.593071"><ele>2163.9</ele><time>2026-03-08T13:45:00.000Z</time></trkpt>
<trkpt lat="42.102138" lon="23.593071"><ele>2163.9</ele><time>2026-03-08T13:45:01.000Z</time></trkpt>
<trkpt lat="42.102139" lon="23.593071"><ele>2163.8</ele><time>2026-03-08T13:45:02.000Z</time></trkpt>
<trkpt lat="42.102139" lon="23.593071"><ele>2163.8</ele><time>2026-03-08T13:45:03.000Z</time></trkpt>
<trkpt lat="42.102139" lon="23.593071"><ele>2163.8</ele><time>2026-03-08T13:45:04.000Z</time></trkpt>
<trkpt lat="42.10214" lon="23.593071"><ele>2163.8</ele><time>2026-03-08T13:45:05.000Z</time></trkpt>
<trkpt lat="42.10214" lon="23.593071"><ele>2163.8</ele><time>2026-03-08T13:45:06.000Z</time></trkpt>
<trkpt lat="42.10214" lon="23.593071"><ele>2163.9</ele><time>2026-03-08T13:45:07.000Z</time></trkpt>
<trkpt lat="42.10214" lon="23.593071"><ele>2163.9</ele><time>2026-03-08T13:45:08.000Z</time></trkpt>
<trkpt lat="42.10214" lon="23.593071"><ele>2163.9</ele><time>2026-03-08T13:45:09.000Z</time></trkpt>
<trkpt lat="42.102141" lon="23.593074"><ele>2163.9</ele><time>2026-03-08T13:45:10.000Z</time></trkpt>
<trkpt lat="42.102141" lon="23.593079"><ele>2163.9</ele><time>2026-03-08T13:45:11.000Z</time></trkpt>
<trkpt lat="42.102142" lon="23.593088"><ele>2164</ele><time>2026-03-08T13:45:12.000Z</time></trkpt>
<trkpt lat="42.102143" lon="23.5931"><ele>2164</ele><time>2026-03-08T13:45:13.000Z</time></trkpt>
<trkpt lat="42.102144" lon="23.593115"><ele>2164</ele><time>2026-03-08T13:45:14.000Z</time></trkpt>
<trkpt lat="42.102145" lon="23.593131"><ele>2164</ele><time>2026-03-08T13:45:15.000Z</time></trkpt>
<trkpt lat="42.102146" lon="23.593148"><ele>2164</ele><time>2026-03-08T13:45:16.000Z</time></trkpt>
<trkpt lat="42.102147" lon="23.593164"><ele>2164.3</ele><time>2026-03-08T13:45:17.000Z</time></trkpt>
<trkpt lat="42.102148" lon="23.593179"><ele>2164.3</ele><time>2026-03-08T13:45:18.000Z</time></trkpt>
<trkpt lat="42.102149" lon="23.593195"><ele>2164.3</ele><time>2026-03-08T13:45:19.000Z</time></trkpt>
<trkpt lat="42.102151" lon="23.593211"><ele>2164.3</ele><time>2026-03-08T13:45:20.000Z</time></trkpt>
<trkpt lat="42.102153" lon="23.593229"><ele>2164.3</ele><time>2026-03-08T13:45:21.000Z</time></trkpt>
<trkpt lat="42.102156" lon="23.593246"><ele>2164.3</ele><time>2026-03-08T13:45:22.000Z</time></trkpt>
<trkpt lat="42.102159" lon="23.593264"><ele>2164.3</ele><time>2026-03-08T13:45:23.000Z</time></trkpt>
<trkpt lat="42.102163" lon="23.593281"><ele>2164.3</ele><time>2026-03-08T13:45:24.000Z</time></trkpt>
<trkpt lat="42.102166" lon="23.593298"><ele>2164.3</ele><time>2026-03-08T13:45:25.000Z</time></trkpt>
<trkpt lat="42.102168" lon="23.593315"><ele>2164.3</ele><time>2026-03-08T13:45:26.000Z</time></trkpt>
<trkpt lat="42.102171" lon="23.593331"><ele>2164</ele><time>2026-03-08T13:45:27.000Z</time></trkpt>
<trkpt lat="42.102172" lon="23.593347"><ele>2164</ele><time>2026-03-08T13:45:28.000Z</time></trkpt>
<trkpt lat="42.102174" lon="23.593363"><ele>2164</ele><time>2026-03-08T13:45:29.000Z</time></trkpt>
<trkpt lat="42.102176" lon="23.593379"><ele>2164</ele><time>2026-03-08T13:45:30.000Z</time></trkpt>
<trkpt lat="42.102177" lon="23.593394"><ele>2164</ele><time>2026-03-08T13:45:31.000Z</time></trkpt>
<trkpt lat="42.102178" lon="23.593409"><ele>2163.1</ele><time>2026-03-08T13:45:32.000Z</time></trkpt>
<trkpt lat="42.10218" lon="23.593424"><ele>2163.1</ele><time>2026-03-08T13:45:33.000Z</time></trkpt>
<trkpt lat="42.10218" lon="23.59344"><ele>2163.1</ele><time>2026-03-08T13:45:34.000Z</time></trkpt>
<trkpt lat="42.10218" lon="23.593455"><ele>2163.1</ele><time>2026-03-08T13:45:35.000Z</time></trkpt>
<trkpt lat="42.102181" lon="23.59347"><ele>2163.1</ele><time>2026-03-08T13:45:36.000Z</time></trkpt>
<trkpt lat="42.102181" lon="23.593484"><ele>2162.3</ele><time>2026-03-08T13:45:37.000Z</time></trkpt>
<trkpt lat="42.102182" lon="23.593497"><ele>2162.3</ele><time>2026-03-08T13:45:38.000Z</time></trkpt>
<trkpt lat="42.102183" lon="23.59351"><ele>2162.3</ele><time>2026-03-08T13:45:39.000Z</time></trkpt>
<trkpt lat="42.102184" lon="23.593523"><ele>2162.3</ele><time>2026-03-08T13:45:40.000Z</time></trkpt>
<trkpt lat="42.102184" lon="23.593535"><ele>2162.3</ele><time>2026-03-08T13:45:41.000Z</time></trkpt>
<trkpt lat="42.102183" lon="23.593547"><ele>2162</ele><time>2026-03-08T13:45:42.000Z</time></trkpt>
<trkpt lat="42.102181" lon="23.593561"><ele>2162</ele><time>2026-03-08T13:45:43.000Z</time></trkpt>
<trkpt lat="42.102179" lon="23.593574"><ele>2162</ele><time>2026-03-08T13:45:44.000Z</time></trkpt>
<trkpt lat="42.102177" lon="23.593588"><ele>2162</ele><time>2026-03-08T13:45:45.000Z</time></trkpt>
<trkpt lat="42.102174" lon="23.593602"><ele>2162</ele><time>2026-03-08T13:45:46.000Z</time></trkpt>
<trkpt lat="42.102171" lon="23.593616"><ele>2161.5</ele><time>2026-03-08T13:45:47.000Z</time></trkpt>
<trkpt lat="42.102168" lon="23.593629"><ele>2161.5</ele><time>2026-03-08T13:45:48.000Z</time></trkpt>
<trkpt lat="42.102164" lon="23.593643"><ele>2161.5</ele><time>2026-03-08T13:45:49.000Z</time></trkpt>
<trkpt lat="42.102161" lon="23.593657"><ele>2161.5</ele><time>2026-03-08T13:45:50.000Z</time></trkpt>
<trkpt lat="42.102158" lon="23.59367"><ele>2161.5</ele><time>2026-03-08T13:45:51.000Z</time></trkpt>
<trkpt lat="42.102155" lon="23.593682"><ele>2161.3</ele><time>2026-03-08T13:45:52.000Z</time></trkpt>
<trkpt lat="42.102152" lon="23.593694"><ele>2161.3</ele><time>2026-03-08T13:45:53.000Z</time></trkpt>
<trkpt lat="42.10215" lon="23.593706"><ele>2161.3</ele><time>2026-03-08T13:45:54.000Z</time></trkpt>
<trkpt lat="42.102149" lon="23.593717"><ele>2161.3</ele><time>2026-03-08T13:45:55.000Z</time></trkpt>
<trkpt lat="42.102146" lon="23.593729"><ele>2161.3</ele><time>2026-03-08T13:45:56.000Z</time></trkpt>
<trkpt lat="42.102143" lon="23.593741"><ele>2161.2</ele><time>2026-03-08T13:45:57.000Z</time></trkpt>
<trkpt lat="42.10214" lon="23.593753"><ele>2161.2</ele><time>2026-03-08T13:45:58.000Z</time></trkpt>
<trkpt lat="42.102136" lon="23.593763"><ele>2161.2</ele><time>2026-03-08T13:45:59.000Z</time></trkpt>
<trkpt lat="42.102133" lon="23.593774"><ele>2161.2</ele><time>2026-03-08T13:46:00.000Z</time></trkpt>
<trkpt lat="42.10213" lon="23.593785"><ele>2161.2</ele><time>2026-03-08T13:46:01.000Z</time></trkpt>
<trkpt lat="42.102126" lon="23.593796"><ele>2160.9</ele><time>2026-03-08T13:46:02.000Z</time></trkpt>
<trkpt lat="42.102124" lon="23.593807"><ele>2160.9</ele><time>2026-03-08T13:46:03.000Z</time></trkpt>
<trkpt lat="42.102121" lon="23.593818"><ele>2160.9</ele><time>2026-03-08T13:46:04.000Z</time></trkpt>
<trkpt lat="42.102118" lon="23.593829"><ele>2160.9</ele><time>2026-03-08T13:46:05.000Z</time></trkpt>
<trkpt lat="42.102115" lon="23.593841"><ele>2160.9</ele><time>2026-03-08T13:46:06.000Z</time></trkpt>
<trkpt lat="42.102113" lon="23.593854"><ele>2160.8</ele><time>2026-03-08T13:46:07.000Z</time></trkpt>
<trkpt lat="42.102112" lon="23.593867"><ele>2160.8</ele><time>2026-03-08T13:46:08.000Z</time></trkpt>
<trkpt lat="42.10211" lon="23.593882"><ele>2160.8</ele><time>2026-03-08T13:46:09.000Z</time></trkpt>
<trkpt lat="42.102109" lon="23.593897"><ele>2160.8</ele><time>2026-03-08T13:46:10.000Z</time></trkpt>
<trkpt lat="42.102107" lon="23.593911"><ele>2160.8</ele><time>2026-03-08T13:46:11.000Z</time></trkpt>
<trkpt lat="42.102104" lon="23.593926"><ele>2160.8</ele><time>2026-03-08T13:46:12.000Z</time></trkpt>
<trkpt lat="42.102102" lon="23.593941"><ele>2160.8</ele><time>2026-03-08T13:46:13.000Z</time></trkpt>
<trkpt lat="42.102099" lon="23.593955"><ele>2160.8</ele><time>2026-03-08T13:46:14.000Z</time></trkpt>
<trkpt lat="42.102096" lon="23.593969"><ele>2160.8</ele><time>2026-03-08T13:46:15.000Z</time></trkpt>
<trkpt lat="42.102095" lon="23.593982"><ele>2160.8</ele><time>2026-03-08T13:46:16.000Z</time></trkpt>
<trkpt lat="42.102093" lon="23.593995"><ele>2160.7</ele><time>2026-03-08T13:46:17.000Z</time></trkpt>
<trkpt lat="42.102091" lon="23.594009"><ele>2160.7</ele><time>2026-03-08T13:46:18.000Z</time></trkpt>
<trkpt lat="42.102089" lon="23.594022"><ele>2160.7</ele><time>2026-03-08T13:46:19.000Z</time></trkpt>
<trkpt lat="42.102087" lon="23.594036"><ele>2160.7</ele><time>2026-03-08T13:46:20.000Z</time></trkpt>
<trkpt lat="42.102084" lon="23.59405"><ele>2160.7</ele><time>2026-03-08T13:46:21.000Z</time></trkpt>
<trkpt lat="42.102082" lon="23.594063"><ele>2160.6</ele><time>2026-03-08T13:46:22.000Z</time></trkpt>
<trkpt lat="42.102079" lon="23.594077"><ele>2160.6</ele><time>2026-03-08T13:46:23.000Z</time></trkpt>
<trkpt lat="42.102076" lon="23.59409"><ele>2160.6</ele><time>2026-03-08T13:46:24.000Z</time></trkpt>
<trkpt lat="42.102072" lon="23.594104"><ele>2160.6</ele><time>2026-03-08T13:46:25.000Z</time></trkpt>
<trkpt lat="42.10207" lon="23.594117"><ele>2160.6</ele><time>2026-03-08T13:46:26.000Z</time></trkpt>
<trkpt lat="42.102067" lon="23.594131"><ele>2160.6</ele><time>2026-03-08T13:46:27.000Z</time></trkpt>
<trkpt lat="42.102066" lon="23.594145"><ele>2160.6</ele><time>2026-03-08T13:46:28.000Z</time></trkpt>
<trkpt lat="42.102065" lon="23.594158"><ele>2160.6</ele><time>2026-03-08T13:46:29.000Z</time></trkpt>
<trkpt lat="42.102064" lon="23.594173"><ele>2160.6</ele><time>2026-03-08T13:46:30.000Z</time></trkpt>
<trkpt lat="42.102062" lon="23.594187"><ele>2160.6</ele><time>2026-03-08T13:46:31.000Z</time></trkpt>
<trkpt lat="42.10206" lon="23.594202"><ele>2160.5</ele><time>2026-03-08T13:46:32.000Z</time></trkpt>
<trkpt lat="42.102058" lon="23.594215"><ele>2160.5</ele><time>2026-03-08T13:46:33.000Z</time></trkpt>
<trkpt lat="42.102055" lon="23.594229"><ele>2160.5</ele><time>2026-03-08T13:46:34.000Z</time></trkpt>
<trkpt lat="42.102052" lon="23.594243"><ele>2160.5</ele><time>2026-03-08T13:46:35.000Z</time></trkpt>
<trkpt lat="42.102048" lon="23.594258"><ele>2160.5</ele><time>2026-03-08T13:46:36.000Z</time></trkpt>
<trkpt lat="42.102044" lon="23.594271"><ele>2160.3</ele><time>2026-03-08T13:46:37.000Z</time></trkpt>
<trkpt lat="42.102041" lon="23.594285"><ele>2160.3</ele><time>2026-03-08T13:46:38.000Z</time></trkpt>
<trkpt lat="42.102038" lon="23.594297"><ele>2160.3</ele><time>2026-03-08T13:46:39.000Z</time></trkpt>
<trkpt lat="42.102036" lon="23.594309"><ele>2160.3</ele><time>2026-03-08T13:46:40.000Z</time></trkpt>
<trkpt lat="42.102034" lon="23.594321"><ele>2160.3</ele><time>2026-03-08T13:46:41.000Z</time></trkpt>
<trkpt lat="42.102032" lon="23.594334"><ele>2160.1</ele><time>2026-03-08T13:46:42.000Z</time></trkpt>
<trkpt lat="42.102028" lon="23.594347"><ele>2160.1</ele><time>2026-03-08T13:46:43.000Z</time></trkpt>
<trkpt lat="42.102024" lon="23.59436"><ele>2160.1</ele><time>2026-03-08T13:46:44.000Z</time></trkpt>
<trkpt lat="42.102019" lon="23.594372"><ele>2160.1</ele><time>2026-03-08T13:46:45.000Z</time></trkpt>
<trkpt lat="42.102014" lon="23.594384"><ele>2160.1</ele><time>2026-03-08T13:46:46.000Z</time></trkpt>
<trkpt lat="42.102009" lon="23.594395"><ele>2160</ele><time>2026-03-08T13:46:47.000Z</time></trkpt>
<trkpt lat="42.102005" lon="23.594408"><ele>2160</ele><time>2026-03-08T13:46:48.000Z</time></trkpt>
<trkpt lat="42.102" lon="23.594422"><ele>2160</ele><time>2026-03-08T13:46:49.000Z</time></trkpt>
<trkpt lat="42.101997" lon="23.594436"><ele>2160</ele><time>2026-03-08T13:46:50.000Z</time></trkpt>
<trkpt lat="42.101994" lon="23.59445"><ele>2160</ele><time>2026-03-08T13:46:51.000Z</time></trkpt>
<trkpt lat="42.10199" lon="23.594464"><ele>2159.9</ele><time>2026-03-08T13:46:52.000Z</time></trkpt>
<trkpt lat="42.101988" lon="23.594478"><ele>2159.9</ele><time>2026-03-08T13:46:53.000Z</time></trkpt>
<trkpt lat="42.101986" lon="23.594491"><ele>2159.9</ele><time>2026-03-08T13:46:54.000Z</time></trkpt>
<trkpt lat="42.101984" lon="23.594505"><ele>2159.9</ele><time>2026-03-08T13:46:55.000Z</time></trkpt>
<trkpt lat="42.101981" lon="23.594517"><ele>2159.9</ele><time>2026-03-08T13:46:56.000Z</time></trkpt>
<trkpt lat="42.101979" lon="23.594529"><ele>2160</ele><time>2026-03-08T13:46:57.000Z</time></trkpt>
<trkpt lat="42.101977" lon="23.594541"><ele>2160</ele><time>2026-03-08T13:46:58.000Z</time></trkpt>
<trkpt lat="42.101974" lon="23.594554"><ele>2160</ele><time>2026-03-08T13:46:59.000Z</time></trkpt>
<trkpt lat="42.10197" lon="23.594567"><ele>2160</ele><time>2026-03-08T13:47:00.000Z</time></trkpt>
<trkpt lat="42.101966" lon="23.594581"><ele>2160</ele><time>2026-03-08T13:47:01.000Z</time></trkpt>
<trkpt lat="42.101963" lon="23.594594"><ele>2160.1</ele><time>2026-03-08T13:47:02.000Z</time></trkpt>
<trkpt lat="42.10196" lon="23.594607"><ele>2160.1</ele><time>2026-03-08T13:47:03.000Z</time></trkpt>
<trkpt lat="42.101958" lon="23.594619"><ele>2160.1</ele><time>2026-03-08T13:47:04.000Z</time></trkpt>
<trkpt lat="42.101956" lon="23.594631"><ele>2160.1</ele><time>2026-03-08T13:47:05.000Z</time></trkpt>
<trkpt lat="42.101953" lon="23.594642"><ele>2160.1</ele><time>2026-03-08T13:47:06.000Z</time></trkpt>
<trkpt lat="42.101951" lon="23.594654"><ele>2160.1</ele><time>2026-03-08T13:47:07.000Z</time></trkpt>
<trkpt lat="42.101947" lon="23.594666"><ele>2160.1</ele><time>2026-03-08T13:47:08.000Z</time></trkpt>
<trkpt lat="42.101943" lon="23.594678"><ele>2160.1</ele><time>2026-03-08T13:47:09.000Z</time></trkpt>
<trkpt lat="42.10194" lon="23.59469"><ele>2160.1</ele><time>2026-03-08T13:47:10.000Z</time></trkpt>
<trkpt lat="42.101936" lon="23.594703"><ele>2160.1</ele><time>2026-03-08T13:47:11.000Z</time></trkpt>
<trkpt lat="42.101933" lon="23.594715"><ele>2160</ele><time>2026-03-08T13:47:12.000Z</time></trkpt>
<trkpt lat="42.10193" lon="23.594727"><ele>2160</ele><time>2026-03-08T13:47:13.000Z</time></trkpt>
<trkpt lat="42.101929" lon="23.594738"><ele>2160</ele><time>2026-03-08T13:47:14.000Z</time></trkpt>
<trkpt lat="42.101927" lon="23.594749"><ele>2160</ele><time>2026-03-08T13:47:15.000Z</time></trkpt>
<trkpt lat="42.101925" lon="23.594761"><ele>2160</ele><time>2026-03-08T13:47:16.000Z</time></trkpt>
<trkpt lat="42.101924" lon="23.594773"><ele>2159.7</ele><time>2026-03-08T13:47:17.000Z</time></trkpt>
<trkpt lat="42.101922" lon="23.594785"><ele>2159.7</ele><time>2026-03-08T13:47:18.000Z</time></trkpt>
<trkpt lat="42.10192" lon="23.594798"><ele>2159.7</ele><time>2026-03-08T13:47:19.000Z</time></trkpt>
<trkpt lat="42.101918" lon="23.594811"><ele>2159.7</ele><time>2026-03-08T13:47:20.000Z</time></trkpt>
<trkpt lat="42.101916" lon="23.594825"><ele>2159.7</ele><time>2026-03-08T13:47:21.000Z</time></trkpt>
<trkpt lat="42.101913" lon="23.594837"><ele>2159.6</ele><time>2026-03-08T13:47:22.000Z</time></trkpt>
<trkpt lat="42.10191" lon="23.59485"><ele>2159.6</ele><time>2026-03-08T13:47:23.000Z</time></trkpt>
<trkpt lat="42.101907" lon="23.594863"><ele>2159.6</ele><time>2026-03-08T13:47:24.000Z</time></trkpt>
<trkpt lat="42.101905" lon="23.594875"><ele>2159.6</ele><time>2026-03-08T13:47:25.000Z</time></trkpt>
<trkpt lat="42.101903" lon="23.594888"><ele>2159.6</ele><time>2026-03-08T13:47:26.000Z</time></trkpt>
<trkpt lat="42.101901" lon="23.5949"><ele>2159.6</ele><time>2026-03-08T13:47:27.000Z</time></trkpt>
<trkpt lat="42.101899" lon="23.594913"><ele>2159.6</ele><time>2026-03-08T13:47:28.000Z</time></trkpt>
<trkpt lat="42.101896" lon="23.594925"><ele>2159.6</ele><time>2026-03-08T13:47:29.000Z</time></trkpt>
<trkpt lat="42.101893" lon="23.594938"><ele>2159.6</ele><time>2026-03-08T13:47:30.000Z</time></trkpt>
<trkpt lat="42.10189" lon="23.594949"><ele>2159.6</ele><time>2026-03-08T13:47:31.000Z</time></trkpt>
<trkpt lat="42.101886" lon="23.59496"><ele>2159.8</ele><time>2026-03-08T13:47:32.000Z</time></trkpt>
<trkpt lat="42.101883" lon="23.594971"><ele>2159.8</ele><time>2026-03-08T13:47:33.000Z</time></trkpt>
<trkpt lat="42.10188" lon="23.59498"><ele>2159.8</ele><time>2026-03-08T13:47:34.000Z</time></trkpt>
<trkpt lat="42.101877" lon="23.594986"><ele>2159.8</ele><time>2026-03-08T13:47:35.000Z</time></trkpt>
<trkpt lat="42.101876" lon="23.594988"><ele>2159.8</ele><time>2026-03-08T13:47:36.000Z</time></trkpt>
<trkpt lat="42.101875" lon="23.594989"><ele>2159.9</ele><time>2026-03-08T13:47:37.000Z</time></trkpt>
<trkpt lat="42.101876" lon="23.594987"><ele>2159.9</ele><time>2026-03-08T13:47:38.000Z</time></trkpt>
<trkpt lat="42.101876" lon="23.594984"><ele>2159.9</ele><time>2026-03-08T13:47:39.000Z</time></trkpt>
<trkpt lat="42.101877" lon="23.594981"><ele>2159.9</ele><time>2026-03-08T13:47:40.000Z</time></trkpt>
<trkpt lat="42.101876" lon="23.594982"><ele>2159.9</ele><time>2026-03-08T13:47:41.000Z</time></trkpt>
<trkpt lat="42.101876" lon="23.594985"><ele>2159.9</ele><time>2026-03-08T13:47:42.000Z</time></trkpt>
<trkpt lat="42.101874" lon="23.594991"><ele>2159.9</ele><time>2026-03-08T13:47:43.000Z</time></trkpt>
<trkpt lat="42.101871" lon="23.595001"><ele>2159.9</ele><time>2026-03-08T13:47:44.000Z</time></trkpt>
<trkpt lat="42.101868" lon="23.595012"><ele>2159.9</ele><time>2026-03-08T13:47:45.000Z</time></trkpt>
<trkpt lat="42.101866" lon="23.595022"><ele>2159.9</ele><time>2026-03-08T13:47:46.000Z</time></trkpt>
<trkpt lat="42.101865" lon="23.595029"><ele>2159.9</ele><time>2026-03-08T13:47:47.000Z</time></trkpt>
<trkpt lat="42.101865" lon="23.595034"><ele>2159.9</ele><time>2026-03-08T13:47:48.000Z</time></trkpt>
<trkpt lat="42.101865" lon="23.595037"><ele>2159.9</ele><time>2026-03-08T13:47:49.000Z</time></trkpt>
<trkpt lat="42.101866" lon="23.595037"><ele>2159.9</ele><time>2026-03-08T13:47:50.000Z</time></trkpt>
<trkpt lat="42.101866" lon="23.595035"><ele>2159.9</ele><time>2026-03-08T13:47:51.000Z</time></trkpt>
<trkpt lat="42.101866" lon="23.595035"><ele>2159.8</ele><time>2026-03-08T13:47:52.000Z</time></trkpt>
<trkpt lat="42.101865" lon="23.595035"><ele>2159.8</ele><time>2026-03-08T13:47:53.000Z</time></trkpt>
<trkpt lat="42.101863" lon="23.595034"><ele>2159.8</ele><time>2026-03-08T13:47:54.000Z</time></trkpt>
<trkpt lat="42.101862" lon="23.595034"><ele>2159.8</ele><time>2026-03-08T13:47:55.000Z</time></trkpt>
<trkpt lat="42.101861" lon="23.595034"><ele>2159.8</ele><time>2026-03-08T13:47:56.000Z</time></trkpt>
<trkpt lat="42.101859" lon="23.595037"><ele>2159.8</ele><time>2026-03-08T13:47:57.000Z</time></trkpt>
<trkpt lat="42.101857" lon="23.595041"><ele>2159.8</ele><time>2026-03-08T13:47:58.000Z</time></trkpt>
<trkpt lat="42.101855" lon="23.595047"><ele>2159.8</ele><time>2026-03-08T13:47:59.000Z</time></trkpt>
<trkpt lat="42.101851" lon="23.595056"><ele>2159.8</ele><time>2026-03-08T13:48:00.000Z</time></trkpt>
<trkpt lat="42.101847" lon="23.595068"><ele>2159.8</ele><time>2026-03-08T13:48:01.000Z</time></trkpt>
<trkpt lat="42.101844" lon="23.595078"><ele>2159.7</ele><time>2026-03-08T13:48:02.000Z</time></trkpt>
<trkpt lat="42.101841" lon="23.595091"><ele>2159.7</ele><time>2026-03-08T13:48:03.000Z</time></trkpt>
<trkpt lat="42.101838" lon="23.595103"><ele>2159.7</ele><time>2026-03-08T13:48:04.000Z</time></trkpt>
<trkpt lat="42.101835" lon="23.595115"><ele>2159.7</ele><time>2026-03-08T13:48:05.000Z</time></trkpt>
<trkpt lat="42.101833" lon="23.595127"><ele>2159.7</ele><time>2026-03-08T13:48:06.000Z</time></trkpt>
<trkpt lat="42.10183" lon="23.595139"><ele>2159.7</ele><time>2026-03-08T13:48:07.000Z</time></trkpt>
<trkpt lat="42.101827" lon="23.595151"><ele>2159.7</ele><time>2026-03-08T13:48:08.000Z</time></trkpt>
<trkpt lat="42.101824" lon="23.595164"><ele>2159.7</ele><time>2026-03-08T13:48:09.000Z</time></trkpt>
<trkpt lat="42.10182" lon="23.595176"><ele>2159.7</ele><time>2026-03-08T13:48:10.000Z</time></trkpt>
<trkpt lat="42.101816" lon="23.595187"><ele>2159.7</ele><time>2026-03-08T13:48:11.000Z</time></trkpt>
<trkpt lat="42.101812" lon="23.595197"><ele>2159.7</ele><time>2026-03-08T13:48:12.000Z</time></trkpt>
<trkpt lat="42.101808" lon="23.595207"><ele>2159.7</ele><time>2026-03-08T13:48:13.000Z</time></trkpt>
<trkpt lat="42.101805" lon="23.595217"><ele>2159.7</ele><time>2026-03-08T13:48:14.000Z</time></trkpt>
<trkpt lat="42.101802" lon="23.595229"><ele>2159.7</ele><time>2026-03-08T13:48:15.000Z</time></trkpt>
<trkpt lat="42.101798" lon="23.595241"><ele>2159.7</ele><time>2026-03-08T13:48:16.000Z</time></trkpt>
<trkpt lat="42.101795" lon="23.595255"><ele>2159.7</ele><time>2026-03-08T13:48:17.000Z</time></trkpt>
<trkpt lat="42.101791" lon="23.595269"><ele>2159.7</ele><time>2026-03-08T13:48:18.000Z</time></trkpt>
<trkpt lat="42.101787" lon="23.595282"><ele>2159.7</ele><time>2026-03-08T13:48:19.000Z</time></trkpt>
<trkpt lat="42.101783" lon="23.595295"><ele>2159.7</ele><time>2026-03-08T13:48:20.000Z</time></trkpt>
<trkpt lat="42.101779" lon="23.595308"><ele>2159.7</ele><time>2026-03-08T13:48:21.000Z</time></trkpt>
<trkpt lat="42.101775" lon="23.59532"><ele>2159.7</ele><time>2026-03-08T13:48:22.000Z</time></trkpt>
<trkpt lat="42.101771" lon="23.595332"><ele>2159.7</ele><time>2026-03-08T13:48:23.000Z</time></trkpt>
<trkpt lat="42.101768" lon="23.595343"><ele>2159.7</ele><time>2026-03-08T13:48:24.000Z</time></trkpt>
<trkpt lat="42.101765" lon="23.595355"><ele>2159.7</ele><time>2026-03-08T13:48:25.000Z</time></trkpt>
<trkpt lat="42.101762" lon="23.595367"><ele>2159.7</ele><time>2026-03-08T13:48:26.000Z</time></trkpt>
<trkpt lat="42.101758" lon="23.59538"><ele>2159.7</ele><time>2026-03-08T13:48:27.000Z</time></trkpt>
<trkpt lat="42.101755" lon="23.595394"><ele>2159.7</ele><time>2026-03-08T13:48:28.000Z</time></trkpt>
<trkpt lat="42.101753" lon="23.595407"><ele>2159.7</ele><time>2026-03-08T13:48:29.000Z</time></trkpt>
<trkpt lat="42.10175" lon="23.59542"><ele>2159.7</ele><time>2026-03-08T13:48:30.000Z</time></trkpt>
<trkpt lat="42.101747" lon="23.595432"><ele>2159.7</ele><time>2026-03-08T13:48:31.000Z</time></trkpt>
<trkpt lat="42.101745" lon="23.595444"><ele>2159.4</ele><time>2026-03-08T13:48:32.000Z</time></trkpt>
<trkpt lat="42.101741" lon="23.595456"><ele>2159.4</ele><time>2026-03-08T13:48:33.000Z</time></trkpt>
<trkpt lat="42.101736" lon="23.595468"><ele>2159.4</ele><time>2026-03-08T13:48:34.000Z</time></trkpt>
<trkpt lat="42.101731" lon="23.595477"><ele>2159.4</ele><time>2026-03-08T13:48:35.000Z</time></trkpt>
<trkpt lat="42.101727" lon="23.595486"><ele>2159.4</ele><time>2026-03-08T13:48:36.000Z</time></trkpt>
<trkpt lat="42.101722" lon="23.595496"><ele>2159.1</ele><time>2026-03-08T13:48:37.000Z</time></trkpt>
<trkpt lat="42.101718" lon="23.595505"><ele>2159.1</ele><time>2026-03-08T13:48:38.000Z</time></trkpt>
<trkpt lat="42.101715" lon="23.595514"><ele>2159.1</ele><time>2026-03-08T13:48:39.000Z</time></trkpt>
<trkpt lat="42.101711" lon="23.595524"><ele>2159.1</ele><time>2026-03-08T13:48:40.000Z</time></trkpt>
<trkpt lat="42.101706" lon="23.595534"><ele>2159.1</ele><time>2026-03-08T13:48:41.000Z</time></trkpt>
<trkpt lat="42.101703" lon="23.595542"><ele>2159</ele><time>2026-03-08T13:48:42.000Z</time></trkpt>
<trkpt lat="42.1017" lon="23.595548"><ele>2159</ele><time>2026-03-08T13:48:43.000Z</time></trkpt>
<trkpt lat="42.101698" lon="23.595553"><ele>2159</ele><time>2026-03-08T13:48:44.000Z</time></trkpt>
<trkpt lat="42.101697" lon="23.59556"><ele>2159</ele><time>2026-03-08T13:48:45.000Z</time></trkpt>
<trkpt lat="42.101694" lon="23.595567"><ele>2159</ele><time>2026-03-08T13:48:46.000Z</time></trkpt>
<trkpt lat="42.101692" lon="23.595575"><ele>2158.8</ele><time>2026-03-08T13:48:47.000Z</time></trkpt>
<trkpt lat="42.101689" lon="23.595586"><ele>2158.8</ele><time>2026-03-08T13:48:48.000Z</time></trkpt>
<trkpt lat="42.101685" lon="23.595599"><ele>2158.8</ele><time>2026-03-08T13:48:49.000Z</time></trkpt>
<trkpt lat="42.10168" lon="23.595612"><ele>2158.8</ele><time>2026-03-08T13:48:50.000Z</time></trkpt>
<trkpt lat="42.101676" lon="23.595624"><ele>2158.8</ele><time>2026-03-08T13:48:51.000Z</time></trkpt>
<trkpt lat="42.101671" lon="23.595637"><ele>2158.7</ele><time>2026-03-08T13:48:52.000Z</time></trkpt>
<trkpt lat="42.101667" lon="23.595649"><ele>2158.7</ele><time>2026-03-08T13:48:53.000Z</time></trkpt>
<trkpt lat="42.101662" lon="23.595661"><ele>2158.7</ele><time>2026-03-08T13:48:54.000Z</time></trkpt>
<trkpt lat="42.101659" lon="23.595672"><ele>2158.7</ele><time>2026-03-08T13:48:55.000Z</time></trkpt>
<trkpt lat="42.101655" lon="23.595685"><ele>2158.7</ele><time>2026-03-08T13:48:56.000Z</time></trkpt>
<trkpt lat="42.101652" lon="23.595698"><ele>2158.7</ele><time>2026-03-08T13:48:57.000Z</time></trkpt>
<trkpt lat="42.101649" lon="23.595712"><ele>2158.7</ele><time>2026-03-08T13:48:58.000Z</time></trkpt>
<trkpt lat="42.101646" lon="23.595727"><ele>2158.7</ele><time>2026-03-08T13:48:59.000Z</time></trkpt>
<trkpt lat="42.101643" lon="23.595743"><ele>2158.7</ele><time>2026-03-08T13:49:00.000Z</time></trkpt>
<trkpt lat="42.10164" lon="23.595757"><ele>2158.7</ele><time>2026-03-08T13:49:01.000Z</time></trkpt>
<trkpt lat="42.101637" lon="23.595772"><ele>2158.5</ele><time>2026-03-08T13:49:02.000Z</time></trkpt>
<trkpt lat="42.101632" lon="23.595787"><ele>2158.5</ele><time>2026-03-08T13:49:03.000Z</time></trkpt>
<trkpt lat="42.101627" lon="23.595802"><ele>2158.5</ele><time>2026-03-08T13:49:04.000Z</time></trkpt>
<trkpt lat="42.101622" lon="23.595816"><ele>2158.5</ele><time>2026-03-08T13:49:05.000Z</time></trkpt>
<trkpt lat="42.101617" lon="23.595831"><ele>2158.5</ele><time>2026-03-08T13:49:06.000Z</time></trkpt>
<trkpt lat="42.101612" lon="23.595845"><ele>2158.1</ele><time>2026-03-08T13:49:07.000Z</time></trkpt>
<trkpt lat="42.101608" lon="23.595857"><ele>2158.1</ele><time>2026-03-08T13:49:08.000Z</time></trkpt>
<trkpt lat="42.101603" lon="23.595869"><ele>2158.1</ele><time>2026-03-08T13:49:09.000Z</time></trkpt>
<trkpt lat="42.101597" lon="23.595881"><ele>2158.1</ele><time>2026-03-08T13:49:10.000Z</time></trkpt>
<trkpt lat="42.101591" lon="23.595893"><ele>2158.1</ele><time>2026-03-08T13:49:11.000Z</time></trkpt>
<trkpt lat="42.101584" lon="23.595905"><ele>2157.9</ele><time>2026-03-08T13:49:12.000Z</time></trkpt>
<trkpt lat="42.101578" lon="23.595919"><ele>2157.9</ele><time>2026-03-08T13:49:13.000Z</time></trkpt>
<trkpt lat="42.101572" lon="23.595933"><ele>2157.9</ele><time>2026-03-08T13:49:14.000Z</time></trkpt>
<trkpt lat="42.101567" lon="23.595947"><ele>2157.9</ele><time>2026-03-08T13:49:15.000Z</time></trkpt>
<trkpt lat="42.101563" lon="23.59596"><ele>2157.9</ele><time>2026-03-08T13:49:16.000Z</time></trkpt>
<trkpt lat="42.10156" lon="23.595974"><ele>2157.6</ele><time>2026-03-08T13:49:17.000Z</time></trkpt>
<trkpt lat="42.101556" lon="23.595988"><ele>2157.6</ele><time>2026-03-08T13:49:18.000Z</time></trkpt>
<trkpt lat="42.101552" lon="23.596002"><ele>2157.6</ele><time>2026-03-08T13:49:19.000Z</time></trkpt>
<trkpt lat="42.101548" lon="23.596016"><ele>2157.6</ele><time>2026-03-08T13:49:20.000Z</time></trkpt>
<trkpt lat="42.101545" lon="23.596029"><ele>2157.6</ele><time>2026-03-08T13:49:21.000Z</time></trkpt>
<trkpt lat="42.101541" lon="23.596041"><ele>2157.5</ele><time>2026-03-08T13:49:22.000Z</time></trkpt>
<trkpt lat="42.101537" lon="23.596053"><ele>2157.5</ele><time>2026-03-08T13:49:23.000Z</time></trkpt>
<trkpt lat="42.101532" lon="23.596063"><ele>2157.5</ele><time>2026-03-08T13:49:24.000Z</time></trkpt>
<trkpt lat="42.101528" lon="23.596074"><ele>2157.5</ele><time>2026-03-08T13:49:25.000Z</time></trkpt>
<trkpt lat="42.101523" lon="23.596085"><ele>2157.5</ele><time>2026-03-08T13:49:26.000Z</time></trkpt>
<trkpt lat="42.101518" lon="23.596096"><ele>2157.4</ele><time>2026-03-08T13:49:27.000Z</time></trkpt>
<trkpt lat="42.101513" lon="23.596108"><ele>2157.4</ele><time>2026-03-08T13:49:28.000Z</time></trkpt>
<trkpt lat="42.101508" lon="23.59612"><ele>2157.4</ele><time>2026-03-08T13:49:29.000Z</time></trkpt>
<trkpt lat="42.101506" lon="23.596132"><ele>2157.4</ele><time>2026-03-08T13:49:30.000Z</time></trkpt>
<trkpt lat="42.101502" lon="23.596145"><ele>2157.4</ele><time>2026-03-08T13:49:31.000Z</time></trkpt>
<trkpt lat="42.101499" lon="23.596157"><ele>2157.3</ele><time>2026-03-08T13:49:32.000Z</time></trkpt>
<trkpt lat="42.101496" lon="23.59617"><ele>2157.3</ele><time>2026-03-08T13:49:33.000Z</time></trkpt>
<trkpt lat="42.101493" lon="23.596183"><ele>2157.3</ele><time>2026-03-08T13:49:34.000Z</time></trkpt>
<trkpt lat="42.101489" lon="23.596195"><ele>2157.3</ele><time>2026-03-08T13:49:35.000Z</time></trkpt>
<trkpt lat="42.101486" lon="23.596207"><ele>2157.3</ele><time>2026-03-08T13:49:36.000Z</time></trkpt>
<trkpt lat="42.101483" lon="23.596218"><ele>2157.2</ele><time>2026-03-08T13:49:37.000Z</time></trkpt>
<trkpt lat="42.101479" lon="23.596229"><ele>2157.2</ele><time>2026-03-08T13:49:38.000Z</time></trkpt>
<trkpt lat="42.101476" lon="23.596241"><ele>2157.2</ele><time>2026-03-08T13:49:39.000Z</time></trkpt>
<trkpt lat="42.101472" lon="23.596253"><ele>2157.2</ele><time>2026-03-08T13:49:40.000Z</time></trkpt>
<trkpt lat="42.101467" lon="23.596266"><ele>2157.2</ele><time>2026-03-08T13:49:41.000Z</time></trkpt>
<trkpt lat="42.101461" lon="23.596279"><ele>2157.3</ele><time>2026-03-08T13:49:42.000Z</time></trkpt>
<trkpt lat="42.101456" lon="23.596291"><ele>2157.3</ele><time>2026-03-08T13:49:43.000Z</time></trkpt>
<trkpt lat="42.10145" lon="23.596303"><ele>2157.3</ele><time>2026-03-08T13:49:44.000Z</time></trkpt>
<trkpt lat="42.101445" lon="23.596314"><ele>2157.3</ele><time>2026-03-08T13:49:45.000Z</time></trkpt>
<trkpt lat="42.101441" lon="23.596326"><ele>2157.3</ele><time>2026-03-08T13:49:46.000Z</time></trkpt>
<trkpt lat="42.101436" lon="23.596339"><ele>2157.5</ele><time>2026-03-08T13:49:47.000Z</time></trkpt>
<trkpt lat="42.101432" lon="23.596352"><ele>2157.5</ele><time>2026-03-08T13:49:48.000Z</time></trkpt>
<trkpt lat="42.101427" lon="23.596366"><ele>2157.5</ele><time>2026-03-08T13:49:49.000Z</time></trkpt>
<trkpt lat="42.101422" lon="23.596379"><ele>2157.5</ele><time>2026-03-08T13:49:50.000Z</time></trkpt>
<trkpt lat="42.101417" lon="23.596393"><ele>2157.5</ele><time>2026-03-08T13:49:51.000Z</time></trkpt>
<trkpt lat="42.101413" lon="23.596405"><ele>2157.6</ele><time>2026-03-08T13:49:52.000Z</time></trkpt>
<trkpt lat="42.101409" lon="23.596417"><ele>2157.6</ele><time>2026-03-08T13:49:53.000Z</time></trkpt>
<trkpt lat="42.101405" lon="23.596429"><ele>2157.6</ele><time>2026-03-08T13:49:54.000Z</time></trkpt>
<trkpt lat="42.101401" lon="23.596441"><ele>2157.6</ele><time>2026-03-08T13:49:55.000Z</time></trkpt>
<trkpt lat="42.101398" lon="23.596454"><ele>2157.6</ele><time>2026-03-08T13:49:56.000Z</time></trkpt>
<trkpt lat="42.101393" lon="23.596467"><ele>2157.6</ele><time>2026-03-08T13:49:57.000Z</time></trkpt>
<trkpt lat="42.101389" lon="23.596481"><ele>2157.6</ele><time>2026-03-08T13:49:58.000Z</time></trkpt>
<trkpt lat="42.101385" lon="23.596495"><ele>2157.6</ele><time>2026-03-08T13:49:59.000Z</time></trkpt>
<trkpt lat="42.101381" lon="23.596509"><ele>2157.6</ele><time>2026-03-08T13:50:00.000Z</time></trkpt>
<trkpt lat="42.101376" lon="23.596522"><ele>2157.6</ele><time>2026-03-08T13:50:01.000Z</time></trkpt>
<trkpt lat="42.101372" lon="23.596535"><ele>2157.5</ele><time>2026-03-08T13:50:02.000Z</time></trkpt>
<trkpt lat="42.101367" lon="23.596548"><ele>2157.5</ele><time>2026-03-08T13:50:03.000Z</time></trkpt>
<trkpt lat="42.101363" lon="23.59656"><ele>2157.5</ele><time>2026-03-08T13:50:04.000Z</time></trkpt>
<trkpt lat="42.101358" lon="23.596573"><ele>2157.5</ele><time>2026-03-08T13:50:05.000Z</time></trkpt>
<trkpt lat="42.101355" lon="23.596586"><ele>2157.5</ele><time>2026-03-08T13:50:06.000Z</time></trkpt>
<trkpt lat="42.101352" lon="23.596599"><ele>2157.4</ele><time>2026-03-08T13:50:07.000Z</time></trkpt>
<trkpt lat="42.10135" lon="23.596613"><ele>2157.4</ele><time>2026-03-08T13:50:08.000Z</time></trkpt>
<trkpt lat="42.101348" lon="23.596628"><ele>2157.4</ele><time>2026-03-08T13:50:09.000Z</time></trkpt>
<trkpt lat="42.101345" lon="23.596642"><ele>2157.4</ele><time>2026-03-08T13:50:10.000Z</time></trkpt>
<trkpt lat="42.101343" lon="23.596656"><ele>2157.4</ele><time>2026-03-08T13:50:11.000Z</time></trkpt>
<trkpt lat="42.10134" lon="23.596669"><ele>2157.2</ele><time>2026-03-08T13:50:12.000Z</time></trkpt>
<trkpt lat="42.101338" lon="23.596682"><ele>2157.2</ele><time>2026-03-08T13:50:13.000Z</time></trkpt>
<trkpt lat="42.101336" lon="23.596694"><ele>2157.2</ele><time>2026-03-08T13:50:14.000Z</time></trkpt>
<trkpt lat="42.101335" lon="23.596706"><ele>2157.2</ele><time>2026-03-08T13:50:15.000Z</time></trkpt>
<trkpt lat="42.101334" lon="23.596717"><ele>2157.2</ele><time>2026-03-08T13:50:16.000Z</time></trkpt>
<trkpt lat="42.101332" lon="23.596729"><ele>2156.9</ele><time>2026-03-08T13:50:17.000Z</time></trkpt>
<trkpt lat="42.10133" lon="23.596742"><ele>2156.9</ele><time>2026-03-08T13:50:18.000Z</time></trkpt>
<trkpt lat="42.101328" lon="23.596754"><ele>2156.9</ele><time>2026-03-08T13:50:19.000Z</time></trkpt>
<trkpt lat="42.101326" lon="23.596768"><ele>2156.9</ele><time>2026-03-08T13:50:20.000Z</time></trkpt>
<trkpt lat="42.101324" lon="23.596782"><ele>2156.9</ele><time>2026-03-08T13:50:21.000Z</time></trkpt>
<trkpt lat="42.101323" lon="23.596795"><ele>2156.5</ele><time>2026-03-08T13:50:22.000Z</time></trkpt>
<trkpt lat="42.101322" lon="23.596808"><ele>2156.5</ele><time>2026-03-08T13:50:23.000Z</time></trkpt>
<trkpt lat="42.101321" lon="23.596822"><ele>2156.5</ele><time>2026-03-08T13:50:24.000Z</time></trkpt>
<trkpt lat="42.10132" lon="23.596835"><ele>2156.5</ele><time>2026-03-08T13:50:25.000Z</time></trkpt>
<trkpt lat="42.101318" lon="23.596849"><ele>2156.5</ele><time>2026-03-08T13:50:26.000Z</time></trkpt>
<trkpt lat="42.101318" lon="23.596863"><ele>2156.5</ele><time>2026-03-08T13:50:27.000Z</time></trkpt>
<trkpt lat="42.101318" lon="23.596876"><ele>2156.5</ele><time>2026-03-08T13:50:28.000Z</time></trkpt>
<trkpt lat="42.101318" lon="23.596889"><ele>2156.5</ele><time>2026-03-08T13:50:29.000Z</time></trkpt>
<trkpt lat="42.101317" lon="23.596902"><ele>2156.5</ele><time>2026-03-08T13:50:30.000Z</time></trkpt>
<trkpt lat="42.101317" lon="23.596916"><ele>2156.5</ele><time>2026-03-08T13:50:31.000Z</time></trkpt>
<trkpt lat="42.101317" lon="23.596931"><ele>2156.3</ele><time>2026-03-08T13:50:32.000Z</time></trkpt>
<trkpt lat="42.101316" lon="23.596947"><ele>2156.3</ele><time>2026-03-08T13:50:33.000Z</time></trkpt>
<trkpt lat="42.101317" lon="23.596962"><ele>2156.3</ele><time>2026-03-08T13:50:34.000Z</time></trkpt>
<trkpt lat="42.101317" lon="23.596977"><ele>2156.3</ele><time>2026-03-08T13:50:35.000Z</time></trkpt>
<trkpt lat="42.101319" lon="23.596993"><ele>2156.3</ele><time>2026-03-08T13:50:36.000Z</time></trkpt>
<trkpt lat="42.10132" lon="23.597007"><ele>2156</ele><time>2026-03-08T13:50:37.000Z</time></trkpt>
<trkpt lat="42.101321" lon="23.597022"><ele>2156</ele><time>2026-03-08T13:50:38.000Z</time></trkpt>
<trkpt lat="42.101322" lon="23.597037"><ele>2156</ele><time>2026-03-08T13:50:39.000Z</time></trkpt>
<trkpt lat="42.101322" lon="23.597053"><ele>2156</ele><time>2026-03-08T13:50:40.000Z</time></trkpt>
<trkpt lat="42.101322" lon="23.597068"><ele>2156</ele><time>2026-03-08T13:50:41.000Z</time></trkpt>
<trkpt lat="42.101322" lon="23.597083"><ele>2155.8</ele><time>2026-03-08T13:50:42.000Z</time></trkpt>
<trkpt lat="42.101322" lon="23.597097"><ele>2155.8</ele><time>2026-03-08T13:50:43.000Z</time></trkpt>
<trkpt lat="42.101323" lon="23.597111"><ele>2155.8</ele><time>2026-03-08T13:50:44.000Z</time></trkpt>
<trkpt lat="42.101324" lon="23.597125"><ele>2155.8</ele><time>2026-03-08T13:50:45.000Z</time></trkpt>
<trkpt lat="42.101326" lon="23.597141"><ele>2155.8</ele><time>2026-03-08T13:50:46.000Z</time></trkpt>
<trkpt lat="42.101328" lon="23.597155"><ele>2155.3</ele><time>2026-03-08T13:50:47.000Z</time></trkpt>
<trkpt lat="42.10133" lon="23.597169"><ele>2155.3</ele><time>2026-03-08T13:50:48.000Z</time></trkpt>
<trkpt lat="42.101331" lon="23.597183"><ele>2155.3</ele><time>2026-03-08T13:50:49.000Z</time></trkpt>
<trkpt lat="42.101333" lon="23.597197"><ele>2155.3</ele><time>2026-03-08T13:50:50.000Z</time></trkpt>
<trkpt lat="42.101334" lon="23.59721"><ele>2155.3</ele><time>2026-03-08T13:50:51.000Z</time></trkpt>
<trkpt lat="42.101337" lon="23.597222"><ele>2155</ele><time>2026-03-08T13:50:52.000Z</time></trkpt>
<trkpt lat="42.10134" lon="23.597236"><ele>2155</ele><time>2026-03-08T13:50:53.000Z</time></trkpt>
<trkpt lat="42.101343" lon="23.59725"><ele>2155</ele><time>2026-03-08T13:50:54.000Z</time></trkpt>
<trkpt lat="42.101345" lon="23.597265"><ele>2155</ele><time>2026-03-08T13:50:55.000Z</time></trkpt>
<trkpt lat="42.101348" lon="23.59728"><ele>2155</ele><time>2026-03-08T13:50:56.000Z</time></trkpt>
<trkpt lat="42.10135" lon="23.597297"><ele>2154.7</ele><time>2026-03-08T13:50:57.000Z</time></trkpt>
<trkpt lat="42.101352" lon="23.597314"><ele>2154.7</ele><time>2026-03-08T13:50:58.000Z</time></trkpt>
<trkpt lat="42.101354" lon="23.59733"><ele>2154.7</ele><time>2026-03-08T13:50:59.000Z</time></trkpt>
<trkpt lat="42.101356" lon="23.597346"><ele>2154.7</ele><time>2026-03-08T13:51:00.000Z</time></trkpt>
<trkpt lat="42.101358" lon="23.59736"><ele>2154.7</ele><time>2026-03-08T13:51:01.000Z</time></trkpt>
<trkpt lat="42.10136" lon="23.597375"><ele>2154.3</ele><time>2026-03-08T13:51:02.000Z</time></trkpt>
<trkpt lat="42.101364" lon="23.597388"><ele>2154.3</ele><time>2026-03-08T13:51:03.000Z</time></trkpt>
<trkpt lat="42.101367" lon="23.597401"><ele>2154.3</ele><time>2026-03-08T13:51:04.000Z</time></trkpt>
<trkpt lat="42.10137" lon="23.597413"><ele>2154.3</ele><time>2026-03-08T13:51:05.000Z</time></trkpt>
<trkpt lat="42.101373" lon="23.597426"><ele>2154.3</ele><time>2026-03-08T13:51:06.000Z</time></trkpt>
<trkpt lat="42.101376" lon="23.597438"><ele>2154</ele><time>2026-03-08T13:51:07.000Z</time></trkpt>
<trkpt lat="42.101378" lon="23.597451"><ele>2154</ele><time>2026-03-08T13:51:08.000Z</time></trkpt>
<trkpt lat="42.101381" lon="23.597464"><ele>2154</ele><time>2026-03-08T13:51:09.000Z</time></trkpt>
<trkpt lat="42.101383" lon="23.597478"><ele>2154</ele><time>2026-03-08T13:51:10.000Z</time></trkpt>
<trkpt lat="42.101385" lon="23.597491"><ele>2154</ele><time>2026-03-08T13:51:11.000Z</time></trkpt>
<trkpt lat="42.101387" lon="23.597505"><ele>2153.9</ele><time>2026-03-08T13:51:12.000Z</time></trkpt>
<trkpt lat="42.10139" lon="23.597518"><ele>2153.9</ele><time>2026-03-08T13:51:13.000Z</time></trkpt>
<trkpt lat="42.101392" lon="23.597532"><ele>2153.9</ele><time>2026-03-08T13:51:14.000Z</time></trkpt>
<trkpt lat="42.101395" lon="23.597544"><ele>2153.9</ele><time>2026-03-08T13:51:15.000Z</time></trkpt>
<trkpt lat="42.101397" lon="23.597555"><ele>2153.9</ele><time>2026-03-08T13:51:16.000Z</time></trkpt>
<trkpt lat="42.101399" lon="23.597563"><ele>2153.7</ele><time>2026-03-08T13:51:17.000Z</time></trkpt>
<trkpt lat="42.1014" lon="23.597569"><ele>2153.7</ele><time>2026-03-08T13:51:18.000Z</time></trkpt>
<trkpt lat="42.101401" lon="23.597572"><ele>2153.7</ele><time>2026-03-08T13:51:19.000Z</time></trkpt>
<trkpt lat="42.101401" lon="23.597575"><ele>2153.7</ele><time>2026-03-08T13:51:20.000Z</time></trkpt>
<trkpt lat="42.101403" lon="23.597577"><ele>2153.7</ele><time>2026-03-08T13:51:21.000Z</time></trkpt>
<trkpt lat="42.101403" lon="23.597577"><ele>2153.5</ele><time>2026-03-08T13:51:22.000Z</time></trkpt>
<trkpt lat="42.101404" lon="23.597577"><ele>2153.5</ele><time>2026-03-08T13:51:23.000Z</time></trkpt>
<trkpt lat="42.101405" lon="23.597576"><ele>2153.5</ele><time>2026-03-08T13:51:24.000Z</time></trkpt>
<trkpt lat="42.101405" lon="23.597576"><ele>2153.5</ele><time>2026-03-08T13:51:25.000Z</time></trkpt>
<trkpt lat="42.101405" lon="23.597576"><ele>2153.5</ele><time>2026-03-08T13:51:26.000Z</time></trkpt>
<trkpt lat="42.101405" lon="23.597575"><ele>2153.3</ele><time>2026-03-08T13:51:27.000Z</time></trkpt>
<trkpt lat="42.101405" lon="23.597575"><ele>2153.3</ele><time>2026-03-08T13:51:28.000Z</time></trkpt>
<trkpt lat="42.101405" lon="23.597575"><ele>2153.3</ele><time>2026-03-08T13:51:29.000Z</time></trkpt>
<trkpt lat="42.101404" lon="23.597576"><ele>2153.3</ele><time>2026-03-08T13:51:30.000Z</time></trkpt>
<trkpt lat="42.101401" lon="23.597577"><ele>2153.3</ele><time>2026-03-08T13:51:31.000Z</time></trkpt>
<trkpt lat="42.101397" lon="23.597579"><ele>2153.2</ele><time>2026-03-08T13:51:32.000Z</time></trkpt>
<trkpt lat="42.101391" lon="23.597582"><ele>2153.2</ele><time>2026-03-08T13:51:33.000Z</time></trkpt>
<trkpt lat="42.101383" lon="23.597586"><ele>2153.2</ele><time>2026-03-08T13:51:34.000Z</time></trkpt>
<trkpt lat="42.101377" lon="23.59759"><ele>2153.2</ele><time>2026-03-08T13:51:35.000Z</time></trkpt>
<trkpt lat="42.10137" lon="23.597595"><ele>2153.2</ele><time>2026-03-08T13:51:36.000Z</time></trkpt>
<trkpt lat="42.101363" lon="23.5976"><ele>2153.3</ele><time>2026-03-08T13:51:37.000Z</time></trkpt>
<trkpt lat="42.101356" lon="23.597604"><ele>2153.3</ele><time>2026-03-08T13:51:38.000Z</time></trkpt>
<trkpt lat="42.101348" lon="23.597608"><ele>2153.3</ele><time>2026-03-08T13:51:39.000Z</time></trkpt>
<trkpt lat="42.10134" lon="23.597614"><ele>2153.3</ele><time>2026-03-08T13:51:40.000Z</time></trkpt>
<trkpt lat="42.101331" lon="23.597618"><ele>2153.3</ele><time>2026-03-08T13:51:41.000Z</time></trkpt>
<trkpt lat="42.101322" lon="23.597621"><ele>2153.3</ele><time>2026-03-08T13:51:42.000Z</time></trkpt>
<trkpt lat="42.101314" lon="23.597626"><ele>2153.3</ele><time>2026-03-08T13:51:43.000Z</time></trkpt>
<trkpt lat="42.101305" lon="23.59763"><ele>2153.3</ele><time>2026-03-08T13:51:44.000Z</time></trkpt>
<trkpt lat="42.101296" lon="23.597634"><ele>2153.3</ele><time>2026-03-08T13:51:45.000Z</time></trkpt>
<trkpt lat="42.101287" lon="23.597638"><ele>2153.3</ele><time>2026-03-08T13:51:46.000Z</time></trkpt>
<trkpt lat="42.101277" lon="23.597642"><ele>2153.1</ele><time>2026-03-08T13:51:47.000Z</time></trkpt>
<trkpt lat="42.101268" lon="23.597646"><ele>2153.1</ele><time>2026-03-08T13:51:48.000Z</time></trkpt>
<trkpt lat="42.101259" lon="23.59765"><ele>2153.1</ele><time>2026-03-08T13:51:49.000Z</time></trkpt>
<trkpt lat="42.10125" lon="23.597653"><ele>2153.1</ele><time>2026-03-08T13:51:50.000Z</time></trkpt>
<trkpt lat="42.101242" lon="23.597656"><ele>2153.1</ele><time>2026-03-08T13:51:51.000Z</time></trkpt>
<trkpt lat="42.101233" lon="23.59766"><ele>2152.9</ele><time>2026-03-08T13:51:52.000Z</time></trkpt>
<trkpt lat="42.101226" lon="23.597664"><ele>2152.9</ele><time>2026-03-08T13:51:53.000Z</time></trkpt>
<trkpt lat="42.101218" lon="23.597671"><ele>2152.9</ele><time>2026-03-08T13:51:54.000Z</time></trkpt>
<trkpt lat="42.101212" lon="23.597681"><ele>2152.9</ele><time>2026-03-08T13:51:55.000Z</time></trkpt>
<trkpt lat="42.101207" lon="23.597692"><ele>2152.9</ele><time>2026-03-08T13:51:56.000Z</time></trkpt>
<trkpt lat="42.101203" lon="23.597705"><ele>2152.9</ele><time>2026-03-08T13:51:57.000Z</time></trkpt>
<trkpt lat="42.101199" lon="23.59772"><ele>2152.9</ele><time>2026-03-08T13:51:58.000Z</time></trkpt>
<trkpt lat="42.101196" lon="23.597735"><ele>2152.9</ele><time>2026-03-08T13:51:59.000Z</time></trkpt>
<trkpt lat="42.101193" lon="23.59775"><ele>2152.9</ele><time>2026-03-08T13:52:00.000Z</time></trkpt>
<trkpt lat="42.101191" lon="23.597766"><ele>2152.9</ele><time>2026-03-08T13:52:01.000Z</time></trkpt>
<trkpt lat="42.101189" lon="23.597781"><ele>2153</ele><time>2026-03-08T13:52:02.000Z</time></trkpt>
<trkpt lat="42.101188" lon="23.597795"><ele>2153</ele><time>2026-03-08T13:52:03.000Z</time></trkpt>
<trkpt lat="42.101189" lon="23.597809"><ele>2153</ele><time>2026-03-08T13:52:04.000Z</time></trkpt>
<trkpt lat="42.101188" lon="23.597823"><ele>2153</ele><time>2026-03-08T13:52:05.000Z</time></trkpt>
<trkpt lat="42.101189" lon="23.597838"><ele>2153</ele><time>2026-03-08T13:52:06.000Z</time></trkpt>
<trkpt lat="42.101188" lon="23.597854"><ele>2152.9</ele><time>2026-03-08T13:52:07.000Z</time></trkpt>
<trkpt lat="42.101186" lon="23.59787"><ele>2152.9</ele><time>2026-03-08T13:52:08.000Z</time></trkpt>
<trkpt lat="42.101183" lon="23.597884"><ele>2152.9</ele><time>2026-03-08T13:52:09.000Z</time></trkpt>
<trkpt lat="42.101181" lon="23.597897"><ele>2152.9</ele><time>2026-03-08T13:52:10.000Z</time></trkpt>
<trkpt lat="42.101177" lon="23.597909"><ele>2152.9</ele><time>2026-03-08T13:52:11.000Z</time></trkpt>
<trkpt lat="42.101174" lon="23.59792"><ele>2152.8</ele><time>2026-03-08T13:52:12.000Z</time></trkpt>
<trkpt lat="42.101173" lon="23.597931"><ele>2152.8</ele><time>2026-03-08T13:52:13.000Z</time></trkpt>
<trkpt lat="42.101171" lon="23.597943"><ele>2152.8</ele><time>2026-03-08T13:52:14.000Z</time></trkpt>
<trkpt lat="42.101169" lon="23.597955"><ele>2152.8</ele><time>2026-03-08T13:52:15.000Z</time></trkpt>
<trkpt lat="42.101167" lon="23.597967"><ele>2152.8</ele><time>2026-03-08T13:52:16.000Z</time></trkpt>
<trkpt lat="42.101165" lon="23.597978"><ele>2152.5</ele><time>2026-03-08T13:52:17.000Z</time></trkpt>
<trkpt lat="42.101163" lon="23.59799"><ele>2152.5</ele><time>2026-03-08T13:52:18.000Z</time></trkpt>
<trkpt lat="42.101162" lon="23.598001"><ele>2152.5</ele><time>2026-03-08T13:52:19.000Z</time></trkpt>
<trkpt lat="42.10116" lon="23.598012"><ele>2152.5</ele><time>2026-03-08T13:52:20.000Z</time></trkpt>
<trkpt lat="42.10116" lon="23.598023"><ele>2152.5</ele><time>2026-03-08T13:52:21.000Z</time></trkpt>
<trkpt lat="42.101158" lon="23.598036"><ele>2152.2</ele><time>2026-03-08T13:52:22.000Z</time></trkpt>
<trkpt lat="42.101156" lon="23.59805"><ele>2152.2</ele><time>2026-03-08T13:52:23.000Z</time></trkpt>
<trkpt lat="42.101154" lon="23.598063"><ele>2152.2</ele><time>2026-03-08T13:52:24.000Z</time></trkpt>
<trkpt lat="42.101153" lon="23.598076"><ele>2152.2</ele><time>2026-03-08T13:52:25.000Z</time></trkpt>
<trkpt lat="42.101151" lon="23.598089"><ele>2152.2</ele><time>2026-03-08T13:52:26.000Z</time></trkpt>
<trkpt lat="42.10115" lon="23.598102"><ele>2152.1</ele><time>2026-03-08T13:52:27.000Z</time></trkpt>
<trkpt lat="42.101149" lon="23.598115"><ele>2152.1</ele><time>2026-03-08T13:52:28.000Z</time></trkpt>
<trkpt lat="42.101148" lon="23.598128"><ele>2152.1</ele><time>2026-03-08T13:52:29.000Z</time></trkpt>
<trkpt lat="42.101146" lon="23.598141"><ele>2152.1</ele><time>2026-03-08T13:52:30.000Z</time></trkpt>
<trkpt lat="42.101143" lon="23.598154"><ele>2152.1</ele><time>2026-03-08T13:52:31.000Z</time></trkpt>
<trkpt lat="42.10114" lon="23.598168"><ele>2152</ele><time>2026-03-08T13:52:32.000Z</time></trkpt>
<trkpt lat="42.101137" lon="23.598182"><ele>2152</ele><time>2026-03-08T13:52:33.000Z</time></trkpt>
<trkpt lat="42.101136" lon="23.598196"><ele>2152</ele><time>2026-03-08T13:52:34.000Z</time></trkpt>
<trkpt lat="42.101135" lon="23.598211"><ele>2152</ele><time>2026-03-08T13:52:35.000Z</time></trkpt>
<trkpt lat="42.101134" lon="23.598225"><ele>2152</ele><time>2026-03-08T13:52:36.000Z</time></trkpt>
<trkpt lat="42.101134" lon="23.59824"><ele>2151.7</ele><time>2026-03-08T13:52:37.000Z</time></trkpt>
<trkpt lat="42.101135" lon="23.598253"><ele>2151.7</ele><time>2026-03-08T13:52:38.000Z</time></trkpt>
<trkpt lat="42.101135" lon="23.598265"><ele>2151.7</ele><time>2026-03-08T13:52:39.000Z</time></trkpt>
<trkpt lat="42.101137" lon="23.598276"><ele>2151.7</ele><time>2026-03-08T13:52:40.000Z</time></trkpt>
<trkpt lat="42.10114" lon="23.598286"><ele>2151.7</ele><time>2026-03-08T13:52:41.000Z</time></trkpt>
<trkpt lat="42.101144" lon="23.598297"><ele>2151.6</ele><time>2026-03-08T13:52:42.000Z</time></trkpt>
<trkpt lat="42.101149" lon="23.598307"><ele>2151.6</ele><time>2026-03-08T13:52:43.000Z</time></trkpt>
<trkpt lat="42.101153" lon="23.598318"><ele>2151.6</ele><time>2026-03-08T13:52:44.000Z</time></trkpt>
<trkpt lat="42.101156" lon="23.598332"><ele>2151.6</ele><time>2026-03-08T13:52:45.000Z</time></trkpt>
<trkpt lat="42.101157" lon="23.598347"><ele>2151.6</ele><time>2026-03-08T13:52:46.000Z</time></trkpt>
<trkpt lat="42.101159" lon="23.598361"><ele>2151.3</ele><time>2026-03-08T13:52:47.000Z</time></trkpt>
<trkpt lat="42.101161" lon="23.598377"><ele>2151.3</ele><time>2026-03-08T13:52:48.000Z</time></trkpt>
<trkpt lat="42.101161" lon="23.598392"><ele>2151.3</ele><time>2026-03-08T13:52:49.000Z</time></trkpt>
<trkpt lat="42.101163" lon="23.598406"><ele>2151.3</ele><time>2026-03-08T13:52:50.000Z</time></trkpt>
<trkpt lat="42.101165" lon="23.598419"><ele>2151.3</ele><time>2026-03-08T13:52:51.000Z</time></trkpt>
<trkpt lat="42.101166" lon="23.598432"><ele>2151.2</ele><time>2026-03-08T13:52:52.000Z</time></trkpt>
<trkpt lat="42.101168" lon="23.598445"><ele>2151.2</ele><time>2026-03-08T13:52:53.000Z</time></trkpt>
<trkpt lat="42.10117" lon="23.598458"><ele>2151.2</ele><time>2026-03-08T13:52:54.000Z</time></trkpt>
<trkpt lat="42.101172" lon="23.598472"><ele>2151.2</ele><time>2026-03-08T13:52:55.000Z</time></trkpt>
<trkpt lat="42.101174" lon="23.598487"><ele>2151.2</ele><time>2026-03-08T13:52:56.000Z</time></trkpt>
<trkpt lat="42.101177" lon="23.598501"><ele>2151.2</ele><time>2026-03-08T13:52:57.000Z</time></trkpt>
<trkpt lat="42.101179" lon="23.598515"><ele>2151.2</ele><time>2026-03-08T13:52:58.000Z</time></trkpt>
<trkpt lat="42.101181" lon="23.598528"><ele>2151.2</ele><time>2026-03-08T13:52:59.000Z</time></trkpt>
<trkpt lat="42.101181" lon="23.59854"><ele>2151.2</ele><time>2026-03-08T13:53:00.000Z</time></trkpt>
<trkpt lat="42.101182" lon="23.598551"><ele>2151.2</ele><time>2026-03-08T13:53:01.000Z</time></trkpt>
<trkpt lat="42.101183" lon="23.598561"><ele>2151.4</ele><time>2026-03-08T13:53:02.000Z</time></trkpt>
<trkpt lat="42.101183" lon="23.598571"><ele>2151.4</ele><time>2026-03-08T13:53:03.000Z</time></trkpt>
<trkpt lat="42.101184" lon="23.598582"><ele>2151.4</ele><time>2026-03-08T13:53:04.000Z</time></trkpt>
<trkpt lat="42.101184" lon="23.598593"><ele>2151.4</ele><time>2026-03-08T13:53:05.000Z</time></trkpt>
<trkpt lat="42.101185" lon="23.598605"><ele>2151.4</ele><time>2026-03-08T13:53:06.000Z</time></trkpt>
<trkpt lat="42.101185" lon="23.598616"><ele>2151.6</ele><time>2026-03-08T13:53:07.000Z</time></trkpt>
<trkpt lat="42.101185" lon="23.598629"><ele>2151.6</ele><time>2026-03-08T13:53:08.000Z</time></trkpt>
<trkpt lat="42.101184" lon="23.598642"><ele>2151.6</ele><time>2026-03-08T13:53:09.000Z</time></trkpt>
<trkpt lat="42.101184" lon="23.598655"><ele>2151.6</ele><time>2026-03-08T13:53:10.000Z</time></trkpt>
<trkpt lat="42.101183" lon="23.598668"><ele>2151.6</ele><time>2026-03-08T13:53:11.000Z</time></trkpt>
<trkpt lat="42.101183" lon="23.59868"><ele>2151.8</ele><time>2026-03-08T13:53:12.000Z</time></trkpt>
<trkpt lat="42.101183" lon="23.598693"><ele>2151.8</ele><time>2026-03-08T13:53:13.000Z</time></trkpt>
<trkpt lat="42.101183" lon="23.598705"><ele>2151.8</ele><time>2026-03-08T13:53:14.000Z</time></trkpt>
<trkpt lat="42.101184" lon="23.598717"><ele>2151.8</ele><time>2026-03-08T13:53:15.000Z</time></trkpt>
<trkpt lat="42.101184" lon="23.598729"><ele>2151.8</ele><time>2026-03-08T13:53:16.000Z</time></trkpt>
<trkpt lat="42.101184" lon="23.598741"><ele>2151.9</ele><time>2026-03-08T13:53:17.000Z</time></trkpt>
<trkpt lat="42.101184" lon="23.598752"><ele>2151.9</ele><time>2026-03-08T13:53:18.000Z</time></trkpt>
<trkpt lat="42.101185" lon="23.598763"><ele>2151.9</ele><time>2026-03-08T13:53:19.000Z</time></trkpt>
<trkpt lat="42.101185" lon="23.598774"><ele>2151.9</ele><time>2026-03-08T13:53:20.000Z</time></trkpt>
<trkpt lat="42.101186" lon="23.598786"><ele>2151.9</ele><time>2026-03-08T13:53:21.000Z</time></trkpt>
<trkpt lat="42.101187" lon="23.598797"><ele>2152</ele><time>2026-03-08T13:53:22.000Z</time></trkpt>
<trkpt lat="42.101187" lon="23.598809"><ele>2152</ele><time>2026-03-08T13:53:23.000Z</time></trkpt>
<trkpt lat="42.101188" lon="23.59882"><ele>2152</ele><time>2026-03-08T13:53:24.000Z</time></trkpt>
<trkpt lat="42.101188" lon="23.598832"><ele>2152</ele><time>2026-03-08T13:53:25.000Z</time></trkpt>
<trkpt lat="42.101188" lon="23.598843"><ele>2152</ele><time>2026-03-08T13:53:26.000Z</time></trkpt>
<trkpt lat="42.101187" lon="23.598854"><ele>2152</ele><time>2026-03-08T13:53:27.000Z</time></trkpt>
<trkpt lat="42.101187" lon="23.598865"><ele>2152</ele><time>2026-03-08T13:53:28.000Z</time></trkpt>
<trkpt lat="42.101187" lon="23.598876"><ele>2152</ele><time>2026-03-08T13:53:29.000Z</time></trkpt>
<trkpt lat="42.101187" lon="23.598888"><ele>2152</ele><time>2026-03-08T13:53:30.000Z</time></trkpt>
<trkpt lat="42.101189" lon="23.5989"><ele>2152</ele><time>2026-03-08T13:53:31.000Z</time></trkpt>
<trkpt lat="42.10119" lon="23.598911"><ele>2152.1</ele><time>2026-03-08T13:53:32.000Z</time></trkpt>
<trkpt lat="42.101191" lon="23.598924"><ele>2152.1</ele><time>2026-03-08T13:53:33.000Z</time></trkpt>
<trkpt lat="42.101193" lon="23.598936"><ele>2152.1</ele><time>2026-03-08T13:53:34.000Z</time></trkpt>
<trkpt lat="42.101193" lon="23.598947"><ele>2152.1</ele><time>2026-03-08T13:53:35.000Z</time></trkpt>
<trkpt lat="42.101193" lon="23.598958"><ele>2152.1</ele><time>2026-03-08T13:53:36.000Z</time></trkpt>
<trkpt lat="42.101194" lon="23.59897"><ele>2152.2</ele><time>2026-03-08T13:53:37.000Z</time></trkpt>
<trkpt lat="42.101195" lon="23.598982"><ele>2152.2</ele><time>2026-03-08T13:53:38.000Z</time></trkpt>
<trkpt lat="42.101197" lon="23.598994"><ele>2152.2</ele><time>2026-03-08T13:53:39.000Z</time></trkpt>
<trkpt lat="42.101198" lon="23.599006"><ele>2152.2</ele><time>2026-03-08T13:53:40.000Z</time></trkpt>
<trkpt lat="42.1012" lon="23.599019"><ele>2152.2</ele><time>2026-03-08T13:53:41.000Z</time></trkpt>
<trkpt lat="42.101201" lon="23.599031"><ele>2152.3</ele><time>2026-03-08T13:53:42.000Z</time></trkpt>
<trkpt lat="42.101201" lon="23.599043"><ele>2152.3</ele><time>2026-03-08T13:53:43.000Z</time></trkpt>
<trkpt lat="42.101202" lon="23.599055"><ele>2152.3</ele><time>2026-03-08T13:53:44.000Z</time></trkpt>
<trkpt lat="42.101203" lon="23.599066"><ele>2152.3</ele><time>2026-03-08T13:53:45.000Z</time></trkpt>
<trkpt lat="42.101204" lon="23.599078"><ele>2152.3</ele><time>2026-03-08T13:53:46.000Z</time></trkpt>
<trkpt lat="42.101206" lon="23.59909"><ele>2152.4</ele><time>2026-03-08T13:53:47.000Z</time></trkpt>
<trkpt lat="42.101209" lon="23.599103"><ele>2152.4</ele><time>2026-03-08T13:53:48.000Z</time></trkpt>
<trkpt lat="42.101211" lon="23.599116"><ele>2152.4</ele><time>2026-03-08T13:53:49.000Z</time></trkpt>
<trkpt lat="42.101213" lon="23.59913"><ele>2152.4</ele><time>2026-03-08T13:53:50.000Z</time></trkpt>
<trkpt lat="42.101215" lon="23.599144"><ele>2152.4</ele><time>2026-03-08T13:53:51.000Z</time></trkpt>
<trkpt lat="42.101217" lon="23.599158"><ele>2152.6</ele><time>2026-03-08T13:53:52.000Z</time></trkpt>
<trkpt lat="42.101219" lon="23.599171"><ele>2152.6</ele><time>2026-03-08T13:53:53.000Z</time></trkpt>
<trkpt lat="42.101221" lon="23.599184"><ele>2152.6</ele><time>2026-03-08T13:53:54.000Z</time></trkpt>
<trkpt lat="42.101222" lon="23.599197"><ele>2152.6</ele><time>2026-03-08T13:53:55.000Z</time></trkpt>
<trkpt lat="42.101224" lon="23.599209"><ele>2152.6</ele><time>2026-03-08T13:53:56.000Z</time></trkpt>
<trkpt lat="42.101225" lon="23.599221"><ele>2152.8</ele><time>2026-03-08T13:53:57.000Z</time></trkpt>
<trkpt lat="42.101226" lon="23.599232"><ele>2152.8</ele><time>2026-03-08T13:53:58.000Z</time></trkpt>
<trkpt lat="42.101227" lon="23.599243"><ele>2152.8</ele><time>2026-03-08T13:53:59.000Z</time></trkpt>
<trkpt lat="42.101228" lon="23.599254"><ele>2152.8</ele><time>2026-03-08T13:54:00.000Z</time></trkpt>
<trkpt lat="42.101228" lon="23.599265"><ele>2152.8</ele><time>2026-03-08T13:54:01.000Z</time></trkpt>
<trkpt lat="42.101228" lon="23.599278"><ele>2153.2</ele><time>2026-03-08T13:54:02.000Z</time></trkpt>
<trkpt lat="42.101227" lon="23.599291"><ele>2153.2</ele><time>2026-03-08T13:54:03.000Z</time></trkpt>
<trkpt lat="42.101226" lon="23.599303"><ele>2153.2</ele><time>2026-03-08T13:54:04.000Z</time></trkpt>
<trkpt lat="42.101225" lon="23.599316"><ele>2153.2</ele><time>2026-03-08T13:54:05.000Z</time></trkpt>
<trkpt lat="42.101226" lon="23.599328"><ele>2153.2</ele><time>2026-03-08T13:54:06.000Z</time></trkpt>
<trkpt lat="42.101226" lon="23.59934"><ele>2153.8</ele><time>2026-03-08T13:54:07.000Z</time></trkpt>
<trkpt lat="42.101226" lon="23.599353"><ele>2153.8</ele><time>2026-03-08T13:54:08.000Z</time></trkpt>
<trkpt lat="42.101226" lon="23.599366"><ele>2153.8</ele><time>2026-03-08T13:54:09.000Z</time></trkpt>
<trkpt lat="42.101227" lon="23.59938"><ele>2153.8</ele><time>2026-03-08T13:54:10.000Z</time></trkpt>
<trkpt lat="42.101226" lon="23.599392"><ele>2153.8</ele><time>2026-03-08T13:54:11.000Z</time></trkpt>
<trkpt lat="42.101225" lon="23.599406"><ele>2154.1</ele><time>2026-03-08T13:54:12.000Z</time></trkpt>
<trkpt lat="42.101225" lon="23.599419"><ele>2154.1</ele><time>2026-03-08T13:54:13.000Z</time></trkpt>
<trkpt lat="42.101225" lon="23.599432"><ele>2154.1</ele><time>2026-03-08T13:54:14.000Z</time></trkpt>
<trkpt lat="42.101224" lon="23.599444"><ele>2154.1</ele><time>2026-03-08T13:54:15.000Z</time></trkpt>
<trkpt lat="42.101225" lon="23.599458"><ele>2154.1</ele><time>2026-03-08T13:54:16.000Z</time></trkpt>
<trkpt lat="42.101226" lon="23.599471"><ele>2154.8</ele><time>2026-03-08T13:54:17.000Z</time></trkpt>
<trkpt lat="42.101228" lon="23.599483"><ele>2154.8</ele><time>2026-03-08T13:54:18.000Z</time></trkpt>
<trkpt lat="42.10123" lon="23.599497"><ele>2154.8</ele><time>2026-03-08T13:54:19.000Z</time></trkpt>
<trkpt lat="42.101232" lon="23.59951"><ele>2154.8</ele><time>2026-03-08T13:54:20.000Z</time></trkpt>
<trkpt lat="42.101235" lon="23.599525"><ele>2154.8</ele><time>2026-03-08T13:54:21.000Z</time></trkpt>
<trkpt lat="42.101236" lon="23.599539"><ele>2155.2</ele><time>2026-03-08T13:54:22.000Z</time></trkpt>
<trkpt lat="42.101236" lon="23.599553"><ele>2155.2</ele><time>2026-03-08T13:54:23.000Z</time></trkpt>
<trkpt lat="42.101235" lon="23.599567"><ele>2155.2</ele><time>2026-03-08T13:54:24.000Z</time></trkpt>
<trkpt lat="42.101234" lon="23.599581"><ele>2155.2</ele><time>2026-03-08T13:54:25.000Z</time></trkpt>
<trkpt lat="42.101233" lon="23.599595"><ele>2155.2</ele><time>2026-03-08T13:54:26.000Z</time></trkpt>
<trkpt lat="42.101233" lon="23.599609"><ele>2155.3</ele><time>2026-03-08T13:54:27.000Z</time></trkpt>
<trkpt lat="42.101234" lon="23.599624"><ele>2155.3</ele><time>2026-03-08T13:54:28.000Z</time></trkpt>
<trkpt lat="42.101235" lon="23.599639"><ele>2155.3</ele><time>2026-03-08T13:54:29.000Z</time></trkpt>
<trkpt lat="42.101236" lon="23.599653"><ele>2155.3</ele><time>2026-03-08T13:54:30.000Z</time></trkpt>
<trkpt lat="42.101237" lon="23.599666"><ele>2155.3</ele><time>2026-03-08T13:54:31.000Z</time></trkpt>
<trkpt lat="42.101238" lon="23.599679"><ele>2155.3</ele><time>2026-03-08T13:54:32.000Z</time></trkpt>
<trkpt lat="42.101239" lon="23.599692"><ele>2155.3</ele><time>2026-03-08T13:54:33.000Z</time></trkpt>
<trkpt lat="42.10124" lon="23.599704"><ele>2155.3</ele><time>2026-03-08T13:54:34.000Z</time></trkpt>
<trkpt lat="42.101241" lon="23.599717"><ele>2155.3</ele><time>2026-03-08T13:54:35.000Z</time></trkpt>
<trkpt lat="42.101243" lon="23.599729"><ele>2155.3</ele><time>2026-03-08T13:54:36.000Z</time></trkpt>
<trkpt lat="42.101245" lon="23.599741"><ele>2155.1</ele><time>2026-03-08T13:54:37.000Z</time></trkpt>
<trkpt lat="42.101246" lon="23.599753"><ele>2155.1</ele><time>2026-03-08T13:54:38.000Z</time></trkpt>
<trkpt lat="42.101247" lon="23.599766"><ele>2155.1</ele><time>2026-03-08T13:54:39.000Z</time></trkpt>
<trkpt lat="42.101248" lon="23.599779"><ele>2155.1</ele><time>2026-03-08T13:54:40.000Z</time></trkpt>
<trkpt lat="42.10125" lon="23.599793"><ele>2155.1</ele><time>2026-03-08T13:54:41.000Z</time></trkpt>
<trkpt lat="42.101252" lon="23.599807"><ele>2155.1</ele><time>2026-03-08T13:54:42.000Z</time></trkpt>
<trkpt lat="42.101252" lon="23.599822"><ele>2155.1</ele><time>2026-03-08T13:54:43.000Z</time></trkpt>
<trkpt lat="42.101252" lon="23.599837"><ele>2155.1</ele><time>2026-03-08T13:54:44.000Z</time></trkpt>
<trkpt lat="42.101252" lon="23.599851"><ele>2155.1</ele><time>2026-03-08T13:54:45.000Z</time></trkpt>
<trkpt lat="42.101252" lon="23.599865"><ele>2155.1</ele><time>2026-03-08T13:54:46.000Z</time></trkpt>
<trkpt lat="42.101251" lon="23.599879"><ele>2155.1</ele><time>2026-03-08T13:54:47.000Z</time></trkpt>
<trkpt lat="42.101251" lon="23.599893"><ele>2155.1</ele><time>2026-03-08T13:54:48.000Z</time></trkpt>
<trkpt lat="42.101251" lon="23.599907"><ele>2155.1</ele><time>2026-03-08T13:54:49.000Z</time></trkpt>
<trkpt lat="42.101249" lon="23.599921"><ele>2155.1</ele><time>2026-03-08T13:54:50.000Z</time></trkpt>
<trkpt lat="42.101247" lon="23.599935"><ele>2155.1</ele><time>2026-03-08T13:54:51.000Z</time></trkpt>
<trkpt lat="42.101244" lon="23.599948"><ele>2155.3</ele><time>2026-03-08T13:54:52.000Z</time></trkpt>
<trkpt lat="42.101242" lon="23.599961"><ele>2155.3</ele><time>2026-03-08T13:54:53.000Z</time></trkpt>
<trkpt lat="42.10124" lon="23.599973"><ele>2155.3</ele><time>2026-03-08T13:54:54.000Z</time></trkpt>
<trkpt lat="42.10124" lon="23.599984"><ele>2155.3</ele><time>2026-03-08T13:54:55.000Z</time></trkpt>
<trkpt lat="42.10124" lon="23.599995"><ele>2155.3</ele><time>2026-03-08T13:54:56.000Z</time></trkpt>
<trkpt lat="42.101239" lon="23.600007"><ele>2155.4</ele><time>2026-03-08T13:54:57.000Z</time></trkpt>
<trkpt lat="42.101238" lon="23.600019"><ele>2155.4</ele><time>2026-03-08T13:54:58.000Z</time></trkpt>
<trkpt lat="42.101237" lon="23.600032"><ele>2155.4</ele><time>2026-03-08T13:54:59.000Z</time></trkpt>
<trkpt lat="42.101234" lon="23.600045"><ele>2155.4</ele><time>2026-03-08T13:55:00.000Z</time></trkpt>
<trkpt lat="42.10123" lon="23.600058"><ele>2155.4</ele><time>2026-03-08T13:55:01.000Z</time></trkpt>
<trkpt lat="42.101227" lon="23.600071"><ele>2155.5</ele><time>2026-03-08T13:55:02.000Z</time></trkpt>
<trkpt lat="42.101223" lon="23.600085"><ele>2155.5</ele><time>2026-03-08T13:55:03.000Z</time></trkpt>
<trkpt lat="42.10122" lon="23.600099"><ele>2155.5</ele><time>2026-03-08T13:55:04.000Z</time></trkpt>
<trkpt lat="42.101217" lon="23.600114"><ele>2155.5</ele><time>2026-03-08T13:55:05.000Z</time></trkpt>
<trkpt lat="42.101215" lon="23.600129"><ele>2155.5</ele><time>2026-03-08T13:55:06.000Z</time></trkpt>
<trkpt lat="42.101214" lon="23.600143"><ele>2155.7</ele><time>2026-03-08T13:55:07.000Z</time></trkpt>
<trkpt lat="42.101213" lon="23.600158"><ele>2155.7</ele><time>2026-03-08T13:55:08.000Z</time></trkpt>
<trkpt lat="42.101212" lon="23.600172"><ele>2155.7</ele><time>2026-03-08T13:55:09.000Z</time></trkpt>
<trkpt lat="42.101211" lon="23.600187"><ele>2155.7</ele><time>2026-03-08T13:55:10.000Z</time></trkpt>
<trkpt lat="42.10121" lon="23.600202"><ele>2155.7</ele><time>2026-03-08T13:55:11.000Z</time></trkpt>
<trkpt lat="42.101209" lon="23.600215"><ele>2155.8</ele><time>2026-03-08T13:55:12.000Z</time></trkpt>
<trkpt lat="42.101208" lon="23.600229"><ele>2155.8</ele><time>2026-03-08T13:55:13.000Z</time></trkpt>
<trkpt lat="42.101207" lon="23.600242"><ele>2155.8</ele><time>2026-03-08T13:55:14.000Z</time></trkpt>
<trkpt lat="42.101206" lon="23.600256"><ele>2155.8</ele><time>2026-03-08T13:55:15.000Z</time></trkpt>
<trkpt lat="42.101205" lon="23.60027"><ele>2155.8</ele><time>2026-03-08T13:55:16.000Z</time></trkpt>
<trkpt lat="42.101204" lon="23.600284"><ele>2155.9</ele><time>2026-03-08T13:55:17.000Z</time></trkpt>
<trkpt lat="42.101203" lon="23.600299"><ele>2155.9</ele><time>2026-03-08T13:55:18.000Z</time></trkpt>
<trkpt lat="42.101202" lon="23.600313"><ele>2155.9</ele><time>2026-03-08T13:55:19.000Z</time></trkpt>
<trkpt lat="42.101199" lon="23.600327"><ele>2155.9</ele><time>2026-03-08T13:55:20.000Z</time></trkpt>
<trkpt lat="42.101196" lon="23.600342"><ele>2155.9</ele><time>2026-03-08T13:55:21.000Z</time></trkpt>
<trkpt lat="42.101193" lon="23.600358"><ele>2155.9</ele><time>2026-03-08T13:55:22.000Z</time></trkpt>
<trkpt lat="42.10119" lon="23.600373"><ele>2155.9</ele><time>2026-03-08T13:55:23.000Z</time></trkpt>
<trkpt lat="42.101187" lon="23.600388"><ele>2155.9</ele><time>2026-03-08T13:55:24.000Z</time></trkpt>
<trkpt lat="42.101186" lon="23.600403"><ele>2155.9</ele><time>2026-03-08T13:55:25.000Z</time></trkpt>
<trkpt lat="42.101184" lon="23.600418"><ele>2155.9</ele><time>2026-03-08T13:55:26.000Z</time></trkpt>
<trkpt lat="42.101182" lon="23.600433"><ele>2155.9</ele><time>2026-03-08T13:55:27.000Z</time></trkpt>
<trkpt lat="42.101179" lon="23.600449"><ele>2155.9</ele><time>2026-03-08T13:55:28.000Z</time></trkpt>
<trkpt lat="42.101176" lon="23.600465"><ele>2155.9</ele><time>2026-03-08T13:55:29.000Z</time></trkpt>
<trkpt lat="42.101172" lon="23.600481"><ele>2155.9</ele><time>2026-03-08T13:55:30.000Z</time></trkpt>
<trkpt lat="42.101169" lon="23.600496"><ele>2155.9</ele><time>2026-03-08T13:55:31.000Z</time></trkpt>
<trkpt lat="42.101167" lon="23.60051"><ele>2155.5</ele><time>2026-03-08T13:55:32.000Z</time></trkpt>
<trkpt lat="42.101166" lon="23.600522"><ele>2155.5</ele><time>2026-03-08T13:55:33.000Z</time></trkpt>
<trkpt lat="42.101166" lon="23.600535"><ele>2155.5</ele><time>2026-03-08T13:55:34.000Z</time></trkpt>
<trkpt lat="42.101166" lon="23.600548"><ele>2155.5</ele><time>2026-03-08T13:55:35.000Z</time></trkpt>
<trkpt lat="42.101166" lon="23.600562"><ele>2155.5</ele><time>2026-03-08T13:55:36.000Z</time></trkpt>
<trkpt lat="42.101167" lon="23.600576"><ele>2154.9</ele><time>2026-03-08T13:55:37.000Z</time></trkpt>
<trkpt lat="42.101168" lon="23.600589"><ele>2154.9</ele><time>2026-03-08T13:55:38.000Z</time></trkpt>
<trkpt lat="42.101171" lon="23.600601"><ele>2154.9</ele><time>2026-03-08T13:55:39.000Z</time></trkpt>
<trkpt lat="42.101174" lon="23.600614"><ele>2154.9</ele><time>2026-03-08T13:55:40.000Z</time></trkpt>
<trkpt lat="42.101177" lon="23.600626"><ele>2154.9</ele><time>2026-03-08T13:55:41.000Z</time></trkpt>
<trkpt lat="42.101181" lon="23.600639"><ele>2154.6</ele><time>2026-03-08T13:55:42.000Z</time></trkpt>
<trkpt lat="42.101184" lon="23.600652"><ele>2154.6</ele><time>2026-03-08T13:55:43.000Z</time></trkpt>
<trkpt lat="42.101185" lon="23.600666"><ele>2154.6</ele><time>2026-03-08T13:55:44.000Z</time></trkpt>
<trkpt lat="42.101185" lon="23.600679"><ele>2154.6</ele><time>2026-03-08T13:55:45.000Z</time></trkpt>
<trkpt lat="42.101184" lon="23.600693"><ele>2154.6</ele><time>2026-03-08T13:55:46.000Z</time></trkpt>
<trkpt lat="42.101182" lon="23.600707"><ele>2154.2</ele><time>2026-03-08T13:55:47.000Z</time></trkpt>
<trkpt lat="42.101181" lon="23.60072"><ele>2154.2</ele><time>2026-03-08T13:55:48.000Z</time></trkpt>
<trkpt lat="42.101181" lon="23.600733"><ele>2154.2</ele><time>2026-03-08T13:55:49.000Z</time></trkpt>
<trkpt lat="42.101181" lon="23.600746"><ele>2154.2</ele><time>2026-03-08T13:55:50.000Z</time></trkpt>
<trkpt lat="42.101181" lon="23.600759"><ele>2154.2</ele><time>2026-03-08T13:55:51.000Z</time></trkpt>
<trkpt lat="42.101182" lon="23.600772"><ele>2154</ele><time>2026-03-08T13:55:52.000Z</time></trkpt>
<trkpt lat="42.101184" lon="23.600785"><ele>2154</ele><time>2026-03-08T13:55:53.000Z</time></trkpt>
<trkpt lat="42.101186" lon="23.600799"><ele>2154</ele><time>2026-03-08T13:55:54.000Z</time></trkpt>
<trkpt lat="42.101187" lon="23.600813"><ele>2154</ele><time>2026-03-08T13:55:55.000Z</time></trkpt>
<trkpt lat="42.101189" lon="23.600827"><ele>2154</ele><time>2026-03-08T13:55:56.000Z</time></trkpt>
<trkpt lat="42.101189" lon="23.600841"><ele>2154</ele><time>2026-03-08T13:55:57.000Z</time></trkpt>
<trkpt lat="42.101188" lon="23.600856"><ele>2154</ele><time>2026-03-08T13:55:58.000Z</time></trkpt>
<trkpt lat="42.101187" lon="23.600871"><ele>2154</ele><time>2026-03-08T13:55:59.000Z</time></trkpt>
<trkpt lat="42.101185" lon="23.600886"><ele>2154</ele><time>2026-03-08T13:56:00.000Z</time></trkpt>
<trkpt lat="42.101184" lon="23.600901"><ele>2154</ele><time>2026-03-08T13:56:01.000Z</time></trkpt>
<trkpt lat="42.101183" lon="23.600916"><ele>2153.9</ele><time>2026-03-08T13:56:02.000Z</time></trkpt>
<trkpt lat="42.101182" lon="23.600931"><ele>2153.9</ele><time>2026-03-08T13:56:03.000Z</time></trkpt>
<trkpt lat="42.101182" lon="23.600947"><ele>2153.9</ele><time>2026-03-08T13:56:04.000Z</time></trkpt>
<trkpt lat="42.101181" lon="23.600962"><ele>2153.9</ele><time>2026-03-08T13:56:05.000Z</time></trkpt>
<trkpt lat="42.10118" lon="23.600976"><ele>2153.9</ele><time>2026-03-08T13:56:06.000Z</time></trkpt>
<trkpt lat="42.10118" lon="23.60099"><ele>2153.8</ele><time>2026-03-08T13:56:07.000Z</time></trkpt>
<trkpt lat="42.101181" lon="23.601003"><ele>2153.8</ele><time>2026-03-08T13:56:08.000Z</time></trkpt>
<trkpt lat="42.101181" lon="23.601016"><ele>2153.8</ele><time>2026-03-08T13:56:09.000Z</time></trkpt>
<trkpt lat="42.10118" lon="23.60103"><ele>2153.8</ele><time>2026-03-08T13:56:10.000Z</time></trkpt>
<trkpt lat="42.10118" lon="23.601044"><ele>2153.8</ele><time>2026-03-08T13:56:11.000Z</time></trkpt>
<trkpt lat="42.10118" lon="23.601059"><ele>2153.7</ele><time>2026-03-08T13:56:12.000Z</time></trkpt>
<trkpt lat="42.101181" lon="23.601073"><ele>2153.7</ele><time>2026-03-08T13:56:13.000Z</time></trkpt>
<trkpt lat="42.101183" lon="23.601088"><ele>2153.7</ele><time>2026-03-08T13:56:14.000Z</time></trkpt>
<trkpt lat="42.101184" lon="23.601103"><ele>2153.7</ele><time>2026-03-08T13:56:15.000Z</time></trkpt>
<trkpt lat="42.101185" lon="23.601117"><ele>2153.7</ele><time>2026-03-08T13:56:16.000Z</time></trkpt>
<trkpt lat="42.101185" lon="23.601132"><ele>2153.3</ele><time>2026-03-08T13:56:17.000Z</time></trkpt>
<trkpt lat="42.101184" lon="23.601147"><ele>2153.3</ele><time>2026-03-08T13:56:18.000Z</time></trkpt>
<trkpt lat="42.101183" lon="23.601162"><ele>2153.3</ele><time>2026-03-08T13:56:19.000Z</time></trkpt>
<trkpt lat="42.101182" lon="23.601177"><ele>2153.3</ele><time>2026-03-08T13:56:20.000Z</time></trkpt>
<trkpt lat="42.101181" lon="23.601192"><ele>2153.3</ele><time>2026-03-08T13:56:21.000Z</time></trkpt>
<trkpt lat="42.101181" lon="23.601206"><ele>2153</ele><time>2026-03-08T13:56:22.000Z</time></trkpt>
<trkpt lat="42.101181" lon="23.601219"><ele>2153</ele><time>2026-03-08T13:56:23.000Z</time></trkpt>
<trkpt lat="42.101182" lon="23.601231"><ele>2153</ele><time>2026-03-08T13:56:24.000Z</time></trkpt>
<trkpt lat="42.101184" lon="23.601243"><ele>2153</ele><time>2026-03-08T13:56:25.000Z</time></trkpt>
<trkpt lat="42.101186" lon="23.601255"><ele>2153</ele><time>2026-03-08T13:56:26.000Z</time></trkpt>
<trkpt lat="42.101188" lon="23.601268"><ele>2152.7</ele><time>2026-03-08T13:56:27.000Z</time></trkpt>
<trkpt lat="42.10119" lon="23.60128"><ele>2152.7</ele><time>2026-03-08T13:56:28.000Z</time></trkpt>
<trkpt lat="42.101191" lon="23.601295"><ele>2152.7</ele><time>2026-03-08T13:56:29.000Z</time></trkpt>
<trkpt lat="42.101191" lon="23.601309"><ele>2152.7</ele><time>2026-03-08T13:56:30.000Z</time></trkpt>
<trkpt lat="42.10119" lon="23.601319"><ele>2152.7</ele><time>2026-03-08T13:56:31.000Z</time></trkpt>
<trkpt lat="42.101189" lon="23.601327"><ele>2152.3</ele><time>2026-03-08T13:56:32.000Z</time></trkpt>
<trkpt lat="42.101188" lon="23.601332"><ele>2152.3</ele><time>2026-03-08T13:56:33.000Z</time></trkpt>
<trkpt lat="42.101187" lon="23.601336"><ele>2152.3</ele><time>2026-03-08T13:56:34.000Z</time></trkpt>
<trkpt lat="42.101187" lon="23.601341"><ele>2152.3</ele><time>2026-03-08T13:56:35.000Z</time></trkpt>
<trkpt lat="42.101186" lon="23.601349"><ele>2152.3</ele><time>2026-03-08T13:56:36.000Z</time></trkpt>
<trkpt lat="42.101185" lon="23.601359"><ele>2151.8</ele><time>2026-03-08T13:56:37.000Z</time></trkpt>
<trkpt lat="42.101183" lon="23.601373"><ele>2151.8</ele><time>2026-03-08T13:56:38.000Z</time></trkpt>
<trkpt lat="42.101181" lon="23.601387"><ele>2151.8</ele><time>2026-03-08T13:56:39.000Z</time></trkpt>
<trkpt lat="42.101179" lon="23.601402"><ele>2151.8</ele><time>2026-03-08T13:56:40.000Z</time></trkpt>
<trkpt lat="42.101177" lon="23.601418"><ele>2151.8</ele><time>2026-03-08T13:56:41.000Z</time></trkpt>
<trkpt lat="42.101175" lon="23.601435"><ele>2151.6</ele><time>2026-03-08T13:56:42.000Z</time></trkpt>
<trkpt lat="42.101173" lon="23.601451"><ele>2151.6</ele><time>2026-03-08T13:56:43.000Z</time></trkpt>
<trkpt lat="42.101173" lon="23.601468"><ele>2151.6</ele><time>2026-03-08T13:56:44.000Z</time></trkpt>
<trkpt lat="42.101172" lon="23.601484"><ele>2151.6</ele><time>2026-03-08T13:56:45.000Z</time></trkpt>
<trkpt lat="42.101172" lon="23.601499"><ele>2151.6</ele><time>2026-03-08T13:56:46.000Z</time></trkpt>
<trkpt lat="42.101172" lon="23.601514"><ele>2151.2</ele><time>2026-03-08T13:56:47.000Z</time></trkpt>
<trkpt lat="42.101172" lon="23.601529"><ele>2151.2</ele><time>2026-03-08T13:56:48.000Z</time></trkpt>
<trkpt lat="42.101171" lon="23.601544"><ele>2151.2</ele><time>2026-03-08T13:56:49.000Z</time></trkpt>
<trkpt lat="42.101171" lon="23.601558"><ele>2151.2</ele><time>2026-03-08T13:56:50.000Z</time></trkpt>
<trkpt lat="42.101171" lon="23.601573"><ele>2151.2</ele><time>2026-03-08T13:56:51.000Z</time></trkpt>
<trkpt lat="42.101171" lon="23.601588"><ele>2150.5</ele><time>2026-03-08T13:56:52.000Z</time></trkpt>
<trkpt lat="42.101171" lon="23.601603"><ele>2150.5</ele><time>2026-03-08T13:56:53.000Z</time></trkpt>
<trkpt lat="42.101172" lon="23.601619"><ele>2150.5</ele><time>2026-03-08T13:56:54.000Z</time></trkpt>
<trkpt lat="42.101173" lon="23.601634"><ele>2150.5</ele><time>2026-03-08T13:56:55.000Z</time></trkpt>
<trkpt lat="42.101176" lon="23.601649"><ele>2150.5</ele><time>2026-03-08T13:56:56.000Z</time></trkpt>
<trkpt lat="42.10118" lon="23.601664"><ele>2150</ele><time>2026-03-08T13:56:57.000Z</time></trkpt>
<trkpt lat="42.101183" lon="23.601678"><ele>2150</ele><time>2026-03-08T13:56:58.000Z</time></trkpt>
<trkpt lat="42.101186" lon="23.601692"><ele>2150</ele><time>2026-03-08T13:56:59.000Z</time></trkpt>
<trkpt lat="42.101189" lon="23.601706"><ele>2150</ele><time>2026-03-08T13:57:00.000Z</time></trkpt>
<trkpt lat="42.10119" lon="23.601721"><ele>2150</ele><time>2026-03-08T13:57:01.000Z</time></trkpt>
<trkpt lat="42.101191" lon="23.601735"><ele>2149.1</ele><time>2026-03-08T13:57:02.000Z</time></trkpt>
<trkpt lat="42.101192" lon="23.60175"><ele>2149.1</ele><time>2026-03-08T13:57:03.000Z</time></trkpt>
<trkpt lat="42.101192" lon="23.601765"><ele>2149.1</ele><time>2026-03-08T13:57:04.000Z</time></trkpt>
<trkpt lat="42.101192" lon="23.60178"><ele>2149.1</ele><time>2026-03-08T13:57:05.000Z</time></trkpt>
<trkpt lat="42.101192" lon="23.601795"><ele>2149.1</ele><time>2026-03-08T13:57:06.000Z</time></trkpt>
<trkpt lat="42.101192" lon="23.601811"><ele>2148.3</ele><time>2026-03-08T13:57:07.000Z</time></trkpt>
<trkpt lat="42.101192" lon="23.601828"><ele>2148.3</ele><time>2026-03-08T13:57:08.000Z</time></trkpt>
<trkpt lat="42.101192" lon="23.601844"><ele>2148.3</ele><time>2026-03-08T13:57:09.000Z</time></trkpt>
<trkpt lat="42.101193" lon="23.601858"><ele>2148.3</ele><time>2026-03-08T13:57:10.000Z</time></trkpt>
<trkpt lat="42.101192" lon="23.601873"><ele>2148.3</ele><time>2026-03-08T13:57:11.000Z</time></trkpt>
<trkpt lat="42.101193" lon="23.601888"><ele>2148</ele><time>2026-03-08T13:57:12.000Z</time></trkpt>
<trkpt lat="42.101193" lon="23.601903"><ele>2148</ele><time>2026-03-08T13:57:13.000Z</time></trkpt>
<trkpt lat="42.101193" lon="23.601917"><ele>2148</ele><time>2026-03-08T13:57:14.000Z</time></trkpt>
<trkpt lat="42.101194" lon="23.601933"><ele>2148</ele><time>2026-03-08T13:57:15.000Z</time></trkpt>
<trkpt lat="42.101194" lon="23.601948"><ele>2148</ele><time>2026-03-08T13:57:16.000Z</time></trkpt>
<trkpt lat="42.101194" lon="23.601962"><ele>2147.1</ele><time>2026-03-08T13:57:17.000Z</time></trkpt>
<trkpt lat="42.101195" lon="23.601976"><ele>2147.1</ele><time>2026-03-08T13:57:18.000Z</time></trkpt>
<trkpt lat="42.101196" lon="23.601991"><ele>2147.1</ele><time>2026-03-08T13:57:19.000Z</time></trkpt>
<trkpt lat="42.101197" lon="23.602006"><ele>2147.1</ele><time>2026-03-08T13:57:20.000Z</time></trkpt>
<trkpt lat="42.101197" lon="23.602021"><ele>2147.1</ele><time>2026-03-08T13:57:21.000Z</time></trkpt>
<trkpt lat="42.101198" lon="23.602035"><ele>2146.1</ele><time>2026-03-08T13:57:22.000Z</time></trkpt>
<trkpt lat="42.101197" lon="23.602049"><ele>2146.1</ele><time>2026-03-08T13:57:23.000Z</time></trkpt>
<trkpt lat="42.101197" lon="23.602063"><ele>2146.1</ele><time>2026-03-08T13:57:24.000Z</time></trkpt>
<trkpt lat="42.101196" lon="23.602076"><ele>2146.1</ele><time>2026-03-08T13:57:25.000Z</time></trkpt>
<trkpt lat="42.101196" lon="23.602091"><ele>2146.1</ele><time>2026-03-08T13:57:26.000Z</time></trkpt>
<trkpt lat="42.101196" lon="23.602106"><ele>2145.6</ele><time>2026-03-08T13:57:27.000Z</time></trkpt>
<trkpt lat="42.101196" lon="23.602123"><ele>2145.6</ele><time>2026-03-08T13:57:28.000Z</time></trkpt>
<trkpt lat="42.101195" lon="23.602139"><ele>2145.6</ele><time>2026-03-08T13:57:29.000Z</time></trkpt>
<trkpt lat="42.101193" lon="23.602155"><ele>2145.6</ele><time>2026-03-08T13:57:30.000Z</time></trkpt>
<trkpt lat="42.101192" lon="23.602167"><ele>2145.6</ele><time>2026-03-08T13:57:31.000Z</time></trkpt>
<trkpt lat="42.10119" lon="23.602178"><ele>2144.8</ele><time>2026-03-08T13:57:32.000Z</time></trkpt>
<trkpt lat="42.10119" lon="23.602185"><ele>2144.8</ele><time>2026-03-08T13:57:33.000Z</time></trkpt>
<trkpt lat="42.101189" lon="23.60219"><ele>2144.8</ele><time>2026-03-08T13:57:34.000Z</time></trkpt>
<trkpt lat="42.10119" lon="23.602193"><ele>2144.8</ele><time>2026-03-08T13:57:35.000Z</time></trkpt>
<trkpt lat="42.10119" lon="23.602197"><ele>2144.8</ele><time>2026-03-08T13:57:36.000Z</time></trkpt>
<trkpt lat="42.101191" lon="23.602199"><ele>2144.1</ele><time>2026-03-08T13:57:37.000Z</time></trkpt>
<trkpt lat="42.101191" lon="23.6022"><ele>2144.1</ele><time>2026-03-08T13:57:38.000Z</time></trkpt>
<trkpt lat="42.101191" lon="23.602202"><ele>2144.1</ele><time>2026-03-08T13:57:39.000Z</time></trkpt>
<trkpt lat="42.101192" lon="23.602202"><ele>2144.1</ele><time>2026-03-08T13:57:40.000Z</time></trkpt>
<trkpt lat="42.101192" lon="23.602201"><ele>2144.1</ele><time>2026-03-08T13:57:41.000Z</time></trkpt>
<trkpt lat="42.101192" lon="23.602201"><ele>2143.8</ele><time>2026-03-08T13:57:42.000Z</time></trkpt>
<trkpt lat="42.101192" lon="23.6022"><ele>2143.8</ele><time>2026-03-08T13:57:43.000Z</time></trkpt>
<trkpt lat="42.101192" lon="23.602199"><ele>2143.8</ele><time>2026-03-08T13:57:44.000Z</time></trkpt>
<trkpt lat="42.101192" lon="23.602199"><ele>2143.8</ele><time>2026-03-08T13:57:45.000Z</time></trkpt>
<trkpt lat="42.101192" lon="23.602199"><ele>2143.8</ele><time>2026-03-08T13:57:46.000Z</time></trkpt>
<trkpt lat="42.101192" lon="23.6022"><ele>2143.3</ele><time>2026-03-08T13:57:47.000Z</time></trkpt>
<trkpt lat="42.101192" lon="23.6022"><ele>2143.3</ele><time>2026-03-08T13:57:48.000Z</time></trkpt>
<trkpt lat="42.101191" lon="23.602202"><ele>2143.3</ele><time>2026-03-08T13:57:49.000Z</time></trkpt>
<trkpt lat="42.101191" lon="23.602206"><ele>2143.3</ele><time>2026-03-08T13:57:50.000Z</time></trkpt>
<trkpt lat="42.10119" lon="23.602212"><ele>2143.3</ele><time>2026-03-08T13:57:51.000Z</time></trkpt>
<trkpt lat="42.101189" lon="23.602222"><ele>2143.1</ele><time>2026-03-08T13:57:52.000Z</time></trkpt>
<trkpt lat="42.101188" lon="23.602234"><ele>2143.1</ele><time>2026-03-08T13:57:53.000Z</time></trkpt>
<trkpt lat="42.101187" lon="23.602248"><ele>2143.1</ele><time>2026-03-08T13:57:54.000Z</time></trkpt>
<trkpt lat="42.101187" lon="23.602262"><ele>2143.1</ele><time>2026-03-08T13:57:55.000Z</time></trkpt>
<trkpt lat="42.101187" lon="23.602276"><ele>2143.1</ele><time>2026-03-08T13:57:56.000Z</time></trkpt>
<trkpt lat="42.101188" lon="23.602291"><ele>2143.2</ele><time>2026-03-08T13:57:57.000Z</time></trkpt>
<trkpt lat="42.101189" lon="23.602304"><ele>2143.2</ele><time>2026-03-08T13:57:58.000Z</time></trkpt>
<trkpt lat="42.101192" lon="23.602318"><ele>2143.2</ele><time>2026-03-08T13:57:59.000Z</time></trkpt>
<trkpt lat="42.101195" lon="23.602331"><ele>2143.2</ele><time>2026-03-08T13:58:00.000Z</time></trkpt>
<trkpt lat="42.101199" lon="23.602344"><ele>2143.2</ele><time>2026-03-08T13:58:01.000Z</time></trkpt>
<trkpt lat="42.101203" lon="23.602356"><ele>2143.4</ele><time>2026-03-08T13:58:02.000Z</time></trkpt>
<trkpt lat="42.101207" lon="23.602367"><ele>2143.4</ele><time>2026-03-08T13:58:03.000Z</time></trkpt>
<trkpt lat="42.101209" lon="23.602379"><ele>2143.4</ele><time>2026-03-08T13:58:04.000Z</time></trkpt>
<trkpt lat="42.101209" lon="23.602392"><ele>2143.4</ele><time>2026-03-08T13:58:05.000Z</time></trkpt>
<trkpt lat="42.101208" lon="23.602406"><ele>2143.4</ele><time>2026-03-08T13:58:06.000Z</time></trkpt>
<trkpt lat="42.101207" lon="23.60242"><ele>2143.1</ele><time>2026-03-08T13:58:07.000Z</time></trkpt>
<trkpt lat="42.101206" lon="23.602435"><ele>2143.1</ele><time>2026-03-08T13:58:08.000Z</time></trkpt>
<trkpt lat="42.101206" lon="23.60245"><ele>2143.1</ele><time>2026-03-08T13:58:09.000Z</time></trkpt>
<trkpt lat="42.101206" lon="23.602465"><ele>2143.1</ele><time>2026-03-08T13:58:10.000Z</time></trkpt>
<trkpt lat="42.101206" lon="23.602479"><ele>2143.1</ele><time>2026-03-08T13:58:11.000Z</time></trkpt>
<trkpt lat="42.101205" lon="23.602494"><ele>2142.8</ele><time>2026-03-08T13:58:12.000Z</time></trkpt>
<trkpt lat="42.101205" lon="23.602508"><ele>2142.8</ele><time>2026-03-08T13:58:13.000Z</time></trkpt>
<trkpt lat="42.101205" lon="23.602522"><ele>2142.8</ele><time>2026-03-08T13:58:14.000Z</time></trkpt>
<trkpt lat="42.101205" lon="23.602536"><ele>2142.8</ele><time>2026-03-08T13:58:15.000Z</time></trkpt>
<trkpt lat="42.101207" lon="23.602549"><ele>2142.8</ele><time>2026-03-08T13:58:16.000Z</time></trkpt>
<trkpt lat="42.10121" lon="23.602563"><ele>2142.2</ele><time>2026-03-08T13:58:17.000Z</time></trkpt>
<trkpt lat="42.101213" lon="23.602577"><ele>2142.2</ele><time>2026-03-08T13:58:18.000Z</time></trkpt>
<trkpt lat="42.101217" lon="23.602589"><ele>2142.2</ele><time>2026-03-08T13:58:19.000Z</time></trkpt>
<trkpt lat="42.101221" lon="23.602601"><ele>2142.2</ele><time>2026-03-08T13:58:20.000Z</time></trkpt>
<trkpt lat="42.101225" lon="23.602612"><ele>2142.2</ele><time>2026-03-08T13:58:21.000Z</time></trkpt>
<trkpt lat="42.101229" lon="23.602623"><ele>2141.5</ele><time>2026-03-08T13:58:22.000Z</time></trkpt>
<trkpt lat="42.101233" lon="23.602633"><ele>2141.5</ele><time>2026-03-08T13:58:23.000Z</time></trkpt>
<trkpt lat="42.101236" lon="23.602645"><ele>2141.5</ele><time>2026-03-08T13:58:24.000Z</time></trkpt>
<trkpt lat="42.101238" lon="23.602656"><ele>2141.5</ele><time>2026-03-08T13:58:25.000Z</time></trkpt>
<trkpt lat="42.10124" lon="23.602668"><ele>2141.5</ele><time>2026-03-08T13:58:26.000Z</time></trkpt>
<trkpt lat="42.101241" lon="23.60268"><ele>2141.2</ele><time>2026-03-08T13:58:27.000Z</time></trkpt>
<trkpt lat="42.101242" lon="23.602691"><ele>2141.2</ele><time>2026-03-08T13:58:28.000Z</time></trkpt>
<trkpt lat="42.101243" lon="23.602702"><ele>2141.2</ele><time>2026-03-08T13:58:29.000Z</time></trkpt>
<trkpt lat="42.101244" lon="23.602715"><ele>2141.2</ele><time>2026-03-08T13:58:30.000Z</time></trkpt>
<trkpt lat="42.101245" lon="23.602728"><ele>2141.2</ele><time>2026-03-08T13:58:31.000Z</time></trkpt>
<trkpt lat="42.101245" lon="23.60274"><ele>2140.7</ele><time>2026-03-08T13:58:32.000Z</time></trkpt>
<trkpt lat="42.101246" lon="23.602753"><ele>2140.7</ele><time>2026-03-08T13:58:33.000Z</time></trkpt>
<trkpt lat="42.101247" lon="23.602766"><ele>2140.7</ele><time>2026-03-08T13:58:34.000Z</time></trkpt>
<trkpt lat="42.101248" lon="23.602779"><ele>2140.7</ele><time>2026-03-08T13:58:35.000Z</time></trkpt>
<trkpt lat="42.101251" lon="23.602792"><ele>2140.7</ele><time>2026-03-08T13:58:36.000Z</time></trkpt>
<trkpt lat="42.101253" lon="23.602807"><ele>2140.4</ele><time>2026-03-08T13:58:37.000Z</time></trkpt>
<trkpt lat="42.101256" lon="23.602821"><ele>2140.4</ele><time>2026-03-08T13:58:38.000Z</time></trkpt>
<trkpt lat="42.101258" lon="23.602835"><ele>2140.4</ele><time>2026-03-08T13:58:39.000Z</time></trkpt>
<trkpt lat="42.101259" lon="23.60285"><ele>2140.4</ele><time>2026-03-08T13:58:40.000Z</time></trkpt>
<trkpt lat="42.10126" lon="23.602865"><ele>2140.4</ele><time>2026-03-08T13:58:41.000Z</time></trkpt>
<trkpt lat="42.101261" lon="23.60288"><ele>2140.2</ele><time>2026-03-08T13:58:42.000Z</time></trkpt>
<trkpt lat="42.101262" lon="23.602896"><ele>2140.2</ele><time>2026-03-08T13:58:43.000Z</time></trkpt>
<trkpt lat="42.101263" lon="23.602912"><ele>2140.2</ele><time>2026-03-08T13:58:44.000Z</time></trkpt>
<trkpt lat="42.101263" lon="23.602929"><ele>2140.2</ele><time>2026-03-08T13:58:45.000Z</time></trkpt>
<trkpt lat="42.101264" lon="23.602946"><ele>2140.2</ele><time>2026-03-08T13:58:46.000Z</time></trkpt>
<trkpt lat="42.101265" lon="23.602962"><ele>2139.7</ele><time>2026-03-08T13:58:47.000Z</time></trkpt>
<trkpt lat="42.101265" lon="23.602979"><ele>2139.7</ele><time>2026-03-08T13:58:48.000Z</time></trkpt>
<trkpt lat="42.101266" lon="23.602994"><ele>2139.7</ele><time>2026-03-08T13:58:49.000Z</time></trkpt>
<trkpt lat="42.101267" lon="23.60301"><ele>2139.7</ele><time>2026-03-08T13:58:50.000Z</time></trkpt>
<trkpt lat="42.101267" lon="23.603026"><ele>2139.7</ele><time>2026-03-08T13:58:51.000Z</time></trkpt>
<trkpt lat="42.101266" lon="23.60304"><ele>2139.1</ele><time>2026-03-08T13:58:52.000Z</time></trkpt>
<trkpt lat="42.101266" lon="23.603054"><ele>2139.1</ele><time>2026-03-08T13:58:53.000Z</time></trkpt>
<trkpt lat="42.101266" lon="23.603068"><ele>2139.1</ele><time>2026-03-08T13:58:54.000Z</time></trkpt>
<trkpt lat="42.101266" lon="23.603081"><ele>2139.1</ele><time>2026-03-08T13:58:55.000Z</time></trkpt>
<trkpt lat="42.101266" lon="23.603096"><ele>2139.1</ele><time>2026-03-08T13:58:56.000Z</time></trkpt>
<trkpt lat="42.101266" lon="23.603111"><ele>2138.8</ele><time>2026-03-08T13:58:57.000Z</time></trkpt>
<trkpt lat="42.101266" lon="23.603127"><ele>2138.8</ele><time>2026-03-08T13:58:58.000Z</time></trkpt>
<trkpt lat="42.101266" lon="23.603143"><ele>2138.8</ele><time>2026-03-08T13:58:59.000Z</time></trkpt>
<trkpt lat="42.101266" lon="23.603159"><ele>2138.8</ele><time>2026-03-08T13:59:00.000Z</time></trkpt>
<trkpt lat="42.101266" lon="23.603175"><ele>2138.8</ele><time>2026-03-08T13:59:01.000Z</time></trkpt>
<trkpt lat="42.101265" lon="23.603191"><ele>2137.7</ele><time>2026-03-08T13:59:02.000Z</time></trkpt>
<trkpt lat="42.101264" lon="23.603207"><ele>2137.7</ele><time>2026-03-08T13:59:03.000Z</time></trkpt>
<trkpt lat="42.101262" lon="23.603223"><ele>2137.7</ele><time>2026-03-08T13:59:04.000Z</time></trkpt>
<trkpt lat="42.10126" lon="23.60324"><ele>2137.7</ele><time>2026-03-08T13:59:05.000Z</time></trkpt>
<trkpt lat="42.101258" lon="23.603258"><ele>2137.7</ele><time>2026-03-08T13:59:06.000Z</time></trkpt>
<trkpt lat="42.101257" lon="23.603276"><ele>2136.4</ele><time>2026-03-08T13:59:07.000Z</time></trkpt>
<trkpt lat="42.101257" lon="23.603294"><ele>2136.4</ele><time>2026-03-08T13:59:08.000Z</time></trkpt>
<trkpt lat="42.101256" lon="23.603313"><ele>2136.4</ele><time>2026-03-08T13:59:09.000Z</time></trkpt>
<trkpt lat="42.101256" lon="23.603331"><ele>2136.4</ele><time>2026-03-08T13:59:10.000Z</time></trkpt>
<trkpt lat="42.101255" lon="23.603349"><ele>2136.4</ele><time>2026-03-08T13:59:11.000Z</time></trkpt>
<trkpt lat="42.101255" lon="23.603365"><ele>2135.9</ele><time>2026-03-08T13:59:12.000Z</time></trkpt>
<trkpt lat="42.101255" lon="23.60338"><ele>2135.9</ele><time>2026-03-08T13:59:13.000Z</time></trkpt>
<trkpt lat="42.101255" lon="23.603395"><ele>2135.9</ele><time>2026-03-08T13:59:14.000Z</time></trkpt>
<trkpt lat="42.101254" lon="23.60341"><ele>2135.9</ele><time>2026-03-08T13:59:15.000Z</time></trkpt>
<trkpt lat="42.101253" lon="23.603425"><ele>2135.9</ele><time>2026-03-08T13:59:16.000Z</time></trkpt>
<trkpt lat="42.101252" lon="23.60344"><ele>2134.8</ele><time>2026-03-08T13:59:17.000Z</time></trkpt>
<trkpt lat="42.10125" lon="23.603456"><ele>2134.8</ele><time>2026-03-08T13:59:18.000Z</time></trkpt>
<trkpt lat="42.101248" lon="23.603473"><ele>2134.8</ele><time>2026-03-08T13:59:19.000Z</time></trkpt>
<trkpt lat="42.101246" lon="23.60349"><ele>2134.8</ele><time>2026-03-08T13:59:20.000Z</time></trkpt>
<trkpt lat="42.101244" lon="23.603506"><ele>2134.8</ele><time>2026-03-08T13:59:21.000Z</time></trkpt>
<trkpt lat="42.101243" lon="23.603523"><ele>2133.9</ele><time>2026-03-08T13:59:22.000Z</time></trkpt>
<trkpt lat="42.101242" lon="23.60354"><ele>2133.9</ele><time>2026-03-08T13:59:23.000Z</time></trkpt>
<trkpt lat="42.101242" lon="23.603556"><ele>2133.9</ele><time>2026-03-08T13:59:24.000Z</time></trkpt>
<trkpt lat="42.101242" lon="23.603571"><ele>2133.9</ele><time>2026-03-08T13:59:25.000Z</time></trkpt>
<trkpt lat="42.101241" lon="23.603586"><ele>2133.9</ele><time>2026-03-08T13:59:26.000Z</time></trkpt>
<trkpt lat="42.10124" lon="23.603599"><ele>2133.5</ele><time>2026-03-08T13:59:27.000Z</time></trkpt>
<trkpt lat="42.101239" lon="23.603612"><ele>2133.5</ele><time>2026-03-08T13:59:28.000Z</time></trkpt>
<trkpt lat="42.101237" lon="23.603624"><ele>2133.5</ele><time>2026-03-08T13:59:29.000Z</time></trkpt>
<trkpt lat="42.101234" lon="23.603635"><ele>2133.5</ele><time>2026-03-08T13:59:30.000Z</time></trkpt>
<trkpt lat="42.101233" lon="23.603646"><ele>2133.5</ele><time>2026-03-08T13:59:31.000Z</time></trkpt>
<trkpt lat="42.101232" lon="23.603658"><ele>2132.9</ele><time>2026-03-08T13:59:32.000Z</time></trkpt>
<trkpt lat="42.10123" lon="23.603669"><ele>2132.9</ele><time>2026-03-08T13:59:33.000Z</time></trkpt>
<trkpt lat="42.101229" lon="23.60368"><ele>2132.9</ele><time>2026-03-08T13:59:34.000Z</time></trkpt>
<trkpt lat="42.101228" lon="23.603692"><ele>2132.9</ele><time>2026-03-08T13:59:35.000Z</time></trkpt>
<trkpt lat="42.101226" lon="23.603702"><ele>2132.9</ele><time>2026-03-08T13:59:36.000Z</time></trkpt>
<trkpt lat="42.101222" lon="23.603712"><ele>2132.3</ele><time>2026-03-08T13:59:37.000Z</time></trkpt>
<trkpt lat="42.101218" lon="23.603719"><ele>2132.3</ele><time>2026-03-08T13:59:38.000Z</time></trkpt>
<trkpt lat="42.101213" lon="23.603726"><ele>2132.3</ele><time>2026-03-08T13:59:39.000Z</time></trkpt>
<trkpt lat="42.101208" lon="23.603732"><ele>2132.3</ele><time>2026-03-08T13:59:40.000Z</time></trkpt>
<trkpt lat="42.101202" lon="23.603739"><ele>2132.3</ele><time>2026-03-08T13:59:41.000Z</time></trkpt>
<trkpt lat="42.101198" lon="23.603746"><ele>2131.8</ele><time>2026-03-08T13:59:42.000Z</time></trkpt>
<trkpt lat="42.101195" lon="23.603756"><ele>2131.8</ele><time>2026-03-08T13:59:43.000Z</time></trkpt>
<trkpt lat="42.101193" lon="23.603767"><ele>2131.8</ele><time>2026-03-08T13:59:44.000Z</time></trkpt>
<trkpt lat="42.101191" lon="23.603779"><ele>2131.8</ele><time>2026-03-08T13:59:45.000Z</time></trkpt>
<trkpt lat="42.10119" lon="23.603792"><ele>2131.8</ele><time>2026-03-08T13:59:46.000Z</time></trkpt>
<trkpt lat="42.101188" lon="23.603804"><ele>2130.7</ele><time>2026-03-08T13:59:47.000Z</time></trkpt>
<trkpt lat="42.101185" lon="23.603817"><ele>2130.7</ele><time>2026-03-08T13:59:48.000Z</time></trkpt>
<trkpt lat="42.101182" lon="23.603829"><ele>2130.7</ele><time>2026-03-08T13:59:49.000Z</time></trkpt>
<trkpt lat="42.101179" lon="23.603841"><ele>2130.7</ele><time>2026-03-08T13:59:50.000Z</time></trkpt>
<trkpt lat="42.101176" lon="23.603854"><ele>2130.7</ele><time>2026-03-08T13:59:51.000Z</time></trkpt>
<trkpt lat="42.101173" lon="23.603867"><ele>2129.7</ele><time>2026-03-08T13:59:52.000Z</time></trkpt>
<trkpt lat="42.10117" lon="23.603879"><ele>2129.7</ele><time>2026-03-08T13:59:53.000Z</time></trkpt>
<trkpt lat="42.101168" lon="23.603892"><ele>2129.7</ele><time>2026-03-08T13:59:54.000Z</time></trkpt>
<trkpt lat="42.101168" lon="23.603904"><ele>2129.7</ele><time>2026-03-08T13:59:55.000Z</time></trkpt>
<trkpt lat="42.101168" lon="23.603915"><ele>2129.7</ele><time>2026-03-08T13:59:56.000Z</time></trkpt>
<trkpt lat="42.101167" lon="23.603925"><ele>2129.2</ele><time>2026-03-08T13:59:57.000Z</time></trkpt>
<trkpt lat="42.101167" lon="23.603937"><ele>2129.2</ele><time>2026-03-08T13:59:58.000Z</time></trkpt>
<trkpt lat="42.101165" lon="23.603948"><ele>2129.2</ele><time>2026-03-08T13:59:59.000Z</time></trkpt>
<trkpt lat="42.101162" lon="23.603961"><ele>2129.2</ele><time>2026-03-08T14:00:00.000Z</time></trkpt>
<trkpt lat="42.101157" lon="23.603973"><ele>2129.2</ele><time>2026-03-08T14:00:01.000Z</time></trkpt>
<trkpt lat="42.101151" lon="23.603985"><ele>2128.2</ele><time>2026-03-08T14:00:02.000Z</time></trkpt>
<trkpt lat="42.101145" lon="23.603997"><ele>2128.2</ele><time>2026-03-08T14:00:03.000Z</time></trkpt>
<trkpt lat="42.101139" lon="23.60401"><ele>2128.2</ele><time>2026-03-08T14:00:04.000Z</time></trkpt>
<trkpt lat="42.101135" lon="23.604023"><ele>2128.2</ele><time>2026-03-08T14:00:05.000Z</time></trkpt>
<trkpt lat="42.101131" lon="23.604036"><ele>2128.2</ele><time>2026-03-08T14:00:06.000Z</time></trkpt>
<trkpt lat="42.101129" lon="23.60405"><ele>2127</ele><time>2026-03-08T14:00:07.000Z</time></trkpt>
<trkpt lat="42.101127" lon="23.604063"><ele>2127</ele><time>2026-03-08T14:00:08.000Z</time></trkpt>
<trkpt lat="42.101125" lon="23.604076"><ele>2127</ele><time>2026-03-08T14:00:09.000Z</time></trkpt>
<trkpt lat="42.101124" lon="23.604088"><ele>2127</ele><time>2026-03-08T14:00:10.000Z</time></trkpt>
<trkpt lat="42.101122" lon="23.604101"><ele>2127</ele><time>2026-03-08T14:00:11.000Z</time></trkpt>
<trkpt lat="42.10112" lon="23.604114"><ele>2126.3</ele><time>2026-03-08T14:00:12.000Z</time></trkpt>
<trkpt lat="42.101119" lon="23.604126"><ele>2126.3</ele><time>2026-03-08T14:00:13.000Z</time></trkpt>
<trkpt lat="42.101119" lon="23.604138"><ele>2126.3</ele><time>2026-03-08T14:00:14.000Z</time></trkpt>
<trkpt lat="42.101117" lon="23.604151"><ele>2126.3</ele><time>2026-03-08T14:00:15.000Z</time></trkpt>
<trkpt lat="42.101115" lon="23.604163"><ele>2126.3</ele><time>2026-03-08T14:00:16.000Z</time></trkpt>
<trkpt lat="42.101113" lon="23.604174"><ele>2124.9</ele><time>2026-03-08T14:00:17.000Z</time></trkpt>
<trkpt lat="42.101111" lon="23.604182"><ele>2124.9</ele><time>2026-03-08T14:00:18.000Z</time></trkpt>
<trkpt lat="42.101109" lon="23.604189"><ele>2124.9</ele><time>2026-03-08T14:00:19.000Z</time></trkpt>
<trkpt lat="42.101107" lon="23.604192"><ele>2124.9</ele><time>2026-03-08T14:00:20.000Z</time></trkpt>
<trkpt lat="42.101106" lon="23.604192"><ele>2124.9</ele><time>2026-03-08T14:00:21.000Z</time></trkpt>
<trkpt lat="42.101105" lon="23.604191"><ele>2123.6</ele><time>2026-03-08T14:00:22.000Z</time></trkpt>
<trkpt lat="42.101104" lon="23.604191"><ele>2123.6</ele><time>2026-03-08T14:00:23.000Z</time></trkpt>
<trkpt lat="42.101104" lon="23.60419"><ele>2123.6</ele><time>2026-03-08T14:00:24.000Z</time></trkpt>
<trkpt lat="42.101104" lon="23.60419"><ele>2123.6</ele><time>2026-03-08T14:00:25.000Z</time></trkpt>
<trkpt lat="42.101104" lon="23.604189"><ele>2123.6</ele><time>2026-03-08T14:00:26.000Z</time></trkpt>
<trkpt lat="42.101104" lon="23.604189"><ele>2123.1</ele><time>2026-03-08T14:00:27.000Z</time></trkpt>
<trkpt lat="42.101104" lon="23.604188"><ele>2123.1</ele><time>2026-03-08T14:00:28.000Z</time></trkpt>
<trkpt lat="42.101105" lon="23.604188"><ele>2123.1</ele><time>2026-03-08T14:00:29.000Z</time></trkpt>
<trkpt lat="42.101105" lon="23.604188"><ele>2123.1</ele><time>2026-03-08T14:00:30.000Z</time></trkpt>
<trkpt lat="42.101104" lon="23.604188"><ele>2123.1</ele><time>2026-03-08T14:00:31.000Z</time></trkpt>
<trkpt lat="42.101104" lon="23.604188"><ele>2122.4</ele><time>2026-03-08T14:00:32.000Z</time></trkpt>
<trkpt lat="42.101104" lon="23.604189"><ele>2122.4</ele><time>2026-03-08T14:00:33.000Z</time></trkpt>
<trkpt lat="42.101103" lon="23.604189"><ele>2122.4</ele><time>2026-03-08T14:00:34.000Z</time></trkpt>
<trkpt lat="42.101103" lon="23.604189"><ele>2122.4</ele><time>2026-03-08T14:00:35.000Z</time></trkpt>
<trkpt lat="42.101103" lon="23.604189"><ele>2122.4</ele><time>2026-03-08T14:00:36.000Z</time></trkpt>
<trkpt lat="42.101103" lon="23.604189"><ele>2122</ele><time>2026-03-08T14:00:37.000Z</time></trkpt>
<trkpt lat="42.101103" lon="23.604189"><ele>2122</ele><time>2026-03-08T14:00:38.000Z</time></trkpt>
<trkpt lat="42.101102" lon="23.604188"><ele>2122</ele><time>2026-03-08T14:00:39.000Z</time></trkpt>
<trkpt lat="42.101102" lon="23.604188"><ele>2122</ele><time>2026-03-08T14:00:40.000Z</time></trkpt>
<trkpt lat="42.101102" lon="23.604188"><ele>2122</ele><time>2026-03-08T14:00:41.000Z</time></trkpt>
<trkpt lat="42.101102" lon="23.604188"><ele>2121.9</ele><time>2026-03-08T14:00:42.000Z</time></trkpt>
<trkpt lat="42.101102" lon="23.604188"><ele>2121.9</ele><time>2026-03-08T14:00:43.000Z</time></trkpt>
<trkpt lat="42.101102" lon="23.604188"><ele>2121.9</ele><time>2026-03-08T14:00:44.000Z</time></trkpt>
<trkpt lat="42.101102" lon="23.604188"><ele>2121.9</ele><time>2026-03-08T14:00:45.000Z</time></trkpt>
<trkpt lat="42.101102" lon="23.604188"><ele>2121.9</ele><time>2026-03-08T14:00:46.000Z</time></trkpt>
<trkpt lat="42.101102" lon="23.604188"><ele>2121.8</ele><time>2026-03-08T14:00:47.000Z</time></trkpt>
<trkpt lat="42.101102" lon="23.604188"><ele>2121.8</ele><time>2026-03-08T14:00:48.000Z</time></trkpt>
<trkpt lat="42.101102" lon="23.604188"><ele>2121.8</ele><time>2026-03-08T14:00:49.000Z</time></trkpt>
<trkpt lat="42.101102" lon="23.604188"><ele>2121.8</ele><time>2026-03-08T14:00:50.000Z</time></trkpt>
<trkpt lat="42.101102" lon="23.604188"><ele>2121.8</ele><time>2026-03-08T14:00:51.000Z</time></trkpt>
<trkpt lat="42.101102" lon="23.604188"><ele>2121.9</ele><time>2026-03-08T14:00:52.000Z</time></trkpt>
<trkpt lat="42.101102" lon="23.604188"><ele>2121.9</ele><time>2026-03-08T14:00:53.000Z</time></trkpt>
<trkpt lat="42.101102" lon="23.604188"><ele>2121.9</ele><time>2026-03-08T14:00:54.000Z</time></trkpt>
<trkpt lat="42.101102" lon="23.604188"><ele>2121.9</ele><time>2026-03-08T14:00:55.000Z</time></trkpt>
<trkpt lat="42.101102" lon="23.604188"><ele>2121.9</ele><time>2026-03-08T14:00:56.000Z</time></trkpt>
<trkpt lat="42.101102" lon="23.604188"><ele>2122</ele><time>2026-03-08T14:00:57.000Z</time></trkpt>
<trkpt lat="42.101102" lon="23.604188"><ele>2122</ele><time>2026-03-08T14:00:58.000Z</time></trkpt>
<trkpt lat="42.101102" lon="23.604188"><ele>2122</ele><time>2026-03-08T14:00:59.000Z</time></trkpt>
<trkpt lat="42.101102" lon="23.604189"><ele>2122</ele><time>2026-03-08T14:01:00.000Z</time></trkpt>
<trkpt lat="42.101102" lon="23.604189"><ele>2122</ele><time>2026-03-08T14:01:01.000Z</time></trkpt>
<trkpt lat="42.101101" lon="23.604191"><ele>2122</ele><time>2026-03-08T14:01:02.000Z</time></trkpt>
<trkpt lat="42.101099" lon="23.604196"><ele>2122</ele><time>2026-03-08T14:01:03.000Z</time></trkpt>
<trkpt lat="42.101097" lon="23.604205"><ele>2122</ele><time>2026-03-08T14:01:04.000Z</time></trkpt>
<trkpt lat="42.101095" lon="23.604217"><ele>2122</ele><time>2026-03-08T14:01:05.000Z</time></trkpt>
<trkpt lat="42.101092" lon="23.604232"><ele>2122</ele><time>2026-03-08T14:01:06.000Z</time></trkpt>
<trkpt lat="42.101089" lon="23.604247"><ele>2122</ele><time>2026-03-08T14:01:07.000Z</time></trkpt>
<trkpt lat="42.101087" lon="23.604263"><ele>2122</ele><time>2026-03-08T14:01:08.000Z</time></trkpt>
<trkpt lat="42.101086" lon="23.60428"><ele>2122</ele><time>2026-03-08T14:01:09.000Z</time></trkpt>
<trkpt lat="42.101084" lon="23.604296"><ele>2122</ele><time>2026-03-08T14:01:10.000Z</time></trkpt>
<trkpt lat="42.101083" lon="23.604311"><ele>2122</ele><time>2026-03-08T14:01:11.000Z</time></trkpt>
<trkpt lat="42.101081" lon="23.604326"><ele>2121.9</ele><time>2026-03-08T14:01:12.000Z</time></trkpt>
<trkpt lat="42.101079" lon="23.604341"><ele>2121.9</ele><time>2026-03-08T14:01:13.000Z</time></trkpt>
<trkpt lat="42.101077" lon="23.604355"><ele>2121.9</ele><time>2026-03-08T14:01:14.000Z</time></trkpt>
<trkpt lat="42.101075" lon="23.604368"><ele>2121.9</ele><time>2026-03-08T14:01:15.000Z</time></trkpt>
<trkpt lat="42.101072" lon="23.60438"><ele>2121.9</ele><time>2026-03-08T14:01:16.000Z</time></trkpt>
<trkpt lat="42.101071" lon="23.604391"><ele>2121.7</ele><time>2026-03-08T14:01:17.000Z</time></trkpt>
<trkpt lat="42.10107" lon="23.604402"><ele>2121.7</ele><time>2026-03-08T14:01:18.000Z</time></trkpt>
<trkpt lat="42.101068" lon="23.604413"><ele>2121.7</ele><time>2026-03-08T14:01:19.000Z</time></trkpt>
<trkpt lat="42.101066" lon="23.604425"><ele>2121.7</ele><time>2026-03-08T14:01:20.000Z</time></trkpt>
<trkpt lat="42.101065" lon="23.604438"><ele>2121.7</ele><time>2026-03-08T14:01:21.000Z</time></trkpt>
<trkpt lat="42.101064" lon="23.604452"><ele>2120.7</ele><time>2026-03-08T14:01:22.000Z</time></trkpt>
<trkpt lat="42.101061" lon="23.604466"><ele>2120.7</ele><time>2026-03-08T14:01:23.000Z</time></trkpt>
<trkpt lat="42.101059" lon="23.604482"><ele>2120.7</ele><time>2026-03-08T14:01:24.000Z</time></trkpt>
<trkpt lat="42.101057" lon="23.604498"><ele>2120.7</ele><time>2026-03-08T14:01:25.000Z</time></trkpt>
<trkpt lat="42.101054" lon="23.604514"><ele>2120.7</ele><time>2026-03-08T14:01:26.000Z</time></trkpt>
<trkpt lat="42.101051" lon="23.604531"><ele>2119.1</ele><time>2026-03-08T14:01:27.000Z</time></trkpt>
<trkpt lat="42.10105" lon="23.604548"><ele>2119.1</ele><time>2026-03-08T14:01:28.000Z</time></trkpt>
<trkpt lat="42.101049" lon="23.604566"><ele>2119.1</ele><time>2026-03-08T14:01:29.000Z</time></trkpt>
<trkpt lat="42.101048" lon="23.604583"><ele>2119.1</ele><time>2026-03-08T14:01:30.000Z</time></trkpt>
<trkpt lat="42.101047" lon="23.604601"><ele>2119.1</ele><time>2026-03-08T14:01:31.000Z</time></trkpt>
<trkpt lat="42.101046" lon="23.604617"><ele>2118.3</ele><time>2026-03-08T14:01:32.000Z</time></trkpt>
<trkpt lat="42.101044" lon="23.604634"><ele>2118.3</ele><time>2026-03-08T14:01:33.000Z</time></trkpt>
<trkpt lat="42.101043" lon="23.604649"><ele>2118.3</ele><time>2026-03-08T14:01:34.000Z</time></trkpt>
<trkpt lat="42.101041" lon="23.604665"><ele>2118.3</ele><time>2026-03-08T14:01:35.000Z</time></trkpt>
<trkpt lat="42.10104" lon="23.604681"><ele>2118.3</ele><time>2026-03-08T14:01:36.000Z</time></trkpt>
<trkpt lat="42.101039" lon="23.604697"><ele>2116.9</ele><time>2026-03-08T14:01:37.000Z</time></trkpt>
<trkpt lat="42.101038" lon="23.604713"><ele>2116.9</ele><time>2026-03-08T14:01:38.000Z</time></trkpt>
<trkpt lat="42.101037" lon="23.604729"><ele>2116.9</ele><time>2026-03-08T14:01:39.000Z</time></trkpt>
<trkpt lat="42.101035" lon="23.604745"><ele>2116.9</ele><time>2026-03-08T14:01:40.000Z</time></trkpt>
<trkpt lat="42.101032" lon="23.604761"><ele>2116.9</ele><time>2026-03-08T14:01:41.000Z</time></trkpt>
<trkpt lat="42.10103" lon="23.604776"><ele>2115.5</ele><time>2026-03-08T14:01:42.000Z</time></trkpt>
<trkpt lat="42.101027" lon="23.604792"><ele>2115.5</ele><time>2026-03-08T14:01:43.000Z</time></trkpt>
<trkpt lat="42.101024" lon="23.604808"><ele>2115.5</ele><time>2026-03-08T14:01:44.000Z</time></trkpt>
<trkpt lat="42.101021" lon="23.604823"><ele>2115.5</ele><time>2026-03-08T14:01:45.000Z</time></trkpt>
<trkpt lat="42.101018" lon="23.604838"><ele>2115.5</ele><time>2026-03-08T14:01:46.000Z</time></trkpt>
<trkpt lat="42.101014" lon="23.604853"><ele>2114.8</ele><time>2026-03-08T14:01:47.000Z</time></trkpt>
<trkpt lat="42.101011" lon="23.604867"><ele>2114.8</ele><time>2026-03-08T14:01:48.000Z</time></trkpt>
<trkpt lat="42.101006" lon="23.604881"><ele>2114.8</ele><time>2026-03-08T14:01:49.000Z</time></trkpt>
<trkpt lat="42.101001" lon="23.604896"><ele>2114.8</ele><time>2026-03-08T14:01:50.000Z</time></trkpt>
<trkpt lat="42.100997" lon="23.60491"><ele>2114.8</ele><time>2026-03-08T14:01:51.000Z</time></trkpt>
<trkpt lat="42.100992" lon="23.604922"><ele>2113.6</ele><time>2026-03-08T14:01:52.000Z</time></trkpt>
<trkpt lat="42.100989" lon="23.604931"><ele>2113.6</ele><time>2026-03-08T14:01:53.000Z</time></trkpt>
<trkpt lat="42.100986" lon="23.604938"><ele>2113.6</ele><time>2026-03-08T14:01:54.000Z</time></trkpt>
<trkpt lat="42.100984" lon="23.604946"><ele>2113.6</ele><time>2026-03-08T14:01:55.000Z</time></trkpt>
<trkpt lat="42.100981" lon="23.604954"><ele>2113.6</ele><time>2026-03-08T14:01:56.000Z</time></trkpt>
<trkpt lat="42.100979" lon="23.604964"><ele>2112.7</ele><time>2026-03-08T14:01:57.000Z</time></trkpt>
<trkpt lat="42.100976" lon="23.604976"><ele>2112.7</ele><time>2026-03-08T14:01:58.000Z</time></trkpt>
<trkpt lat="42.100973" lon="23.604989"><ele>2112.7</ele><time>2026-03-08T14:01:59.000Z</time></trkpt>
<trkpt lat="42.100969" lon="23.605002"><ele>2112.7</ele><time>2026-03-08T14:02:00.000Z</time></trkpt>
<trkpt lat="42.100965" lon="23.605015"><ele>2112.7</ele><time>2026-03-08T14:02:01.000Z</time></trkpt>
<trkpt lat="42.100961" lon="23.605027"><ele>2112.3</ele><time>2026-03-08T14:02:02.000Z</time></trkpt>
<trkpt lat="42.100957" lon="23.605039"><ele>2112.3</ele><time>2026-03-08T14:02:03.000Z</time></trkpt>
<trkpt lat="42.100953" lon="23.605052"><ele>2112.3</ele><time>2026-03-08T14:02:04.000Z</time></trkpt>
<trkpt lat="42.10095" lon="23.605064"><ele>2112.3</ele><time>2026-03-08T14:02:05.000Z</time></trkpt>
<trkpt lat="42.100947" lon="23.605076"><ele>2112.3</ele><time>2026-03-08T14:02:06.000Z</time></trkpt>
<trkpt lat="42.100945" lon="23.605088"><ele>2111.9</ele><time>2026-03-08T14:02:07.000Z</time></trkpt>
<trkpt lat="42.100944" lon="23.605101"><ele>2111.9</ele><time>2026-03-08T14:02:08.000Z</time></trkpt>
<trkpt lat="42.100943" lon="23.605114"><ele>2111.9</ele><time>2026-03-08T14:02:09.000Z</time></trkpt>
<trkpt lat="42.100941" lon="23.605127"><ele>2111.9</ele><time>2026-03-08T14:02:10.000Z</time></trkpt>
<trkpt lat="42.10094" lon="23.605141"><ele>2111.9</ele><time>2026-03-08T14:02:11.000Z</time></trkpt>
<trkpt lat="42.100938" lon="23.605153"><ele>2111.6</ele><time>2026-03-08T14:02:12.000Z</time></trkpt>
<trkpt lat="42.100935" lon="23.605166"><ele>2111.6</ele><time>2026-03-08T14:02:13.000Z</time></trkpt>
<trkpt lat="42.100933" lon="23.605178"><ele>2111.6</ele><time>2026-03-08T14:02:14.000Z</time></trkpt>
<trkpt lat="42.100931" lon="23.60519"><ele>2111.6</ele><time>2026-03-08T14:02:15.000Z</time></trkpt>
<trkpt lat="42.10093" lon="23.605203"><ele>2111.6</ele><time>2026-03-08T14:02:16.000Z</time></trkpt>
<trkpt lat="42.100928" lon="23.605218"><ele>2111.5</ele><time>2026-03-08T14:02:17.000Z</time></trkpt>
<trkpt lat="42.100926" lon="23.605232"><ele>2111.5</ele><time>2026-03-08T14:02:18.000Z</time></trkpt>
<trkpt lat="42.100924" lon="23.605246"><ele>2111.5</ele><time>2026-03-08T14:02:19.000Z</time></trkpt>
<trkpt lat="42.100922" lon="23.605261"><ele>2111.5</ele><time>2026-03-08T14:02:20.000Z</time></trkpt>
<trkpt lat="42.100918" lon="23.605275"><ele>2111.5</ele><time>2026-03-08T14:02:21.000Z</time></trkpt>
<trkpt lat="42.100914" lon="23.605289"><ele>2111.1</ele><time>2026-03-08T14:02:22.000Z</time></trkpt>
<trkpt lat="42.100908" lon="23.605302"><ele>2111.1</ele><time>2026-03-08T14:02:23.000Z</time></trkpt>
<trkpt lat="42.100903" lon="23.605314"><ele>2111.1</ele><time>2026-03-08T14:02:24.000Z</time></trkpt>
<trkpt lat="42.100897" lon="23.605325"><ele>2111.1</ele><time>2026-03-08T14:02:25.000Z</time></trkpt>
<trkpt lat="42.100891" lon="23.605337"><ele>2111.1</ele><time>2026-03-08T14:02:26.000Z</time></trkpt>
<trkpt lat="42.100887" lon="23.60535"><ele>2110.8</ele><time>2026-03-08T14:02:27.000Z</time></trkpt>
<trkpt lat="42.100882" lon="23.605364"><ele>2110.8</ele><time>2026-03-08T14:02:28.000Z</time></trkpt>
<trkpt lat="42.100878" lon="23.605378"><ele>2110.8</ele><time>2026-03-08T14:02:29.000Z</time></trkpt>
<trkpt lat="42.100876" lon="23.605393"><ele>2110.8</ele><time>2026-03-08T14:02:30.000Z</time></trkpt>
<trkpt lat="42.100873" lon="23.605407"><ele>2110.8</ele><time>2026-03-08T14:02:31.000Z</time></trkpt>
<trkpt lat="42.100871" lon="23.60542"><ele>2110.2</ele><time>2026-03-08T14:02:32.000Z</time></trkpt>
<trkpt lat="42.100867" lon="23.605432"><ele>2110.2</ele><time>2026-03-08T14:02:33.000Z</time></trkpt>
<trkpt lat="42.100863" lon="23.605444"><ele>2110.2</ele><time>2026-03-08T14:02:34.000Z</time></trkpt>
<trkpt lat="42.100857" lon="23.605456"><ele>2110.2</ele><time>2026-03-08T14:02:35.000Z</time></trkpt>
<trkpt lat="42.100851" lon="23.605469"><ele>2110.2</ele><time>2026-03-08T14:02:36.000Z</time></trkpt>
<trkpt lat="42.100845" lon="23.605482"><ele>2109.8</ele><time>2026-03-08T14:02:37.000Z</time></trkpt>
<trkpt lat="42.10084" lon="23.605495"><ele>2109.8</ele><time>2026-03-08T14:02:38.000Z</time></trkpt>
<trkpt lat="42.100835" lon="23.605509"><ele>2109.8</ele><time>2026-03-08T14:02:39.000Z</time></trkpt>
<trkpt lat="42.10083" lon="23.605522"><ele>2109.8</ele><time>2026-03-08T14:02:40.000Z</time></trkpt>
<trkpt lat="42.100826" lon="23.605535"><ele>2109.8</ele><time>2026-03-08T14:02:41.000Z</time></trkpt>
<trkpt lat="42.10082" lon="23.605548"><ele>2109.4</ele><time>2026-03-08T14:02:42.000Z</time></trkpt>
<trkpt lat="42.100815" lon="23.60556"><ele>2109.4</ele><time>2026-03-08T14:02:43.000Z</time></trkpt>
<trkpt lat="42.100809" lon="23.605572"><ele>2109.4</ele><time>2026-03-08T14:02:44.000Z</time></trkpt>
<trkpt lat="42.100804" lon="23.605585"><ele>2109.4</ele><time>2026-03-08T14:02:45.000Z</time></trkpt>
<trkpt lat="42.100799" lon="23.605597"><ele>2109.4</ele><time>2026-03-08T14:02:46.000Z</time></trkpt>
<trkpt lat="42.100795" lon="23.60561"><ele>2109.2</ele><time>2026-03-08T14:02:47.000Z</time></trkpt>
<trkpt lat="42.100791" lon="23.605622"><ele>2109.2</ele><time>2026-03-08T14:02:48.000Z</time></trkpt>
<trkpt lat="42.100789" lon="23.605635"><ele>2109.2</ele><time>2026-03-08T14:02:49.000Z</time></trkpt>
<trkpt lat="42.100788" lon="23.605648"><ele>2109.2</ele><time>2026-03-08T14:02:50.000Z</time></trkpt>
<trkpt lat="42.100786" lon="23.605661"><ele>2109.2</ele><time>2026-03-08T14:02:51.000Z</time></trkpt>
<trkpt lat="42.100786" lon="23.605674"><ele>2108.7</ele><time>2026-03-08T14:02:52.000Z</time></trkpt>
<trkpt lat="42.100785" lon="23.605687"><ele>2108.7</ele><time>2026-03-08T14:02:53.000Z</time></trkpt>
<trkpt lat="42.100783" lon="23.605701"><ele>2108.7</ele><time>2026-03-08T14:02:54.000Z</time></trkpt>
<trkpt lat="42.100781" lon="23.605714"><ele>2108.7</ele><time>2026-03-08T14:02:55.000Z</time></trkpt>
<trkpt lat="42.100778" lon="23.605727"><ele>2108.7</ele><time>2026-03-08T14:02:56.000Z</time></trkpt>
<trkpt lat="42.100775" lon="23.60574"><ele>2108.4</ele><time>2026-03-08T14:02:57.000Z</time></trkpt>
<trkpt lat="42.100772" lon="23.605753"><ele>2108.4</ele><time>2026-03-08T14:02:58.000Z</time></trkpt>
<trkpt lat="42.100769" lon="23.605767"><ele>2108.4</ele><time>2026-03-08T14:02:59.000Z</time></trkpt>
<trkpt lat="42.100766" lon="23.605783"><ele>2108.4</ele><time>2026-03-08T14:03:00.000Z</time></trkpt>
<trkpt lat="42.100764" lon="23.605798"><ele>2108.4</ele><time>2026-03-08T14:03:01.000Z</time></trkpt>
<trkpt lat="42.100762" lon="23.605813"><ele>2107.9</ele><time>2026-03-08T14:03:02.000Z</time></trkpt>
<trkpt lat="42.100759" lon="23.605828"><ele>2107.9</ele><time>2026-03-08T14:03:03.000Z</time></trkpt>
<trkpt lat="42.100757" lon="23.605842"><ele>2107.9</ele><time>2026-03-08T14:03:04.000Z</time></trkpt>
<trkpt lat="42.100755" lon="23.605856"><ele>2107.9</ele><time>2026-03-08T14:03:05.000Z</time></trkpt>
<trkpt lat="42.100752" lon="23.60587"><ele>2107.9</ele><time>2026-03-08T14:03:06.000Z</time></trkpt>
<trkpt lat="42.100749" lon="23.605884"><ele>2107.6</ele><time>2026-03-08T14:03:07.000Z</time></trkpt>
<trkpt lat="42.100745" lon="23.605898"><ele>2107.6</ele><time>2026-03-08T14:03:08.000Z</time></trkpt>
<trkpt lat="42.100741" lon="23.605912"><ele>2107.6</ele><time>2026-03-08T14:03:09.000Z</time></trkpt>
<trkpt lat="42.100737" lon="23.605926"><ele>2107.6</ele><time>2026-03-08T14:03:10.000Z</time></trkpt>
<trkpt lat="42.100732" lon="23.60594"><ele>2107.6</ele><time>2026-03-08T14:03:11.000Z</time></trkpt>
<trkpt lat="42.100727" lon="23.605952"><ele>2107.2</ele><time>2026-03-08T14:03:12.000Z</time></trkpt>
<trkpt lat="42.100722" lon="23.605965"><ele>2107.2</ele><time>2026-03-08T14:03:13.000Z</time></trkpt>
<trkpt lat="42.100718" lon="23.605979"><ele>2107.2</ele><time>2026-03-08T14:03:14.000Z</time></trkpt>
<trkpt lat="42.100714" lon="23.605991"><ele>2107.2</ele><time>2026-03-08T14:03:15.000Z</time></trkpt>
<trkpt lat="42.100711" lon="23.606004"><ele>2107.2</ele><time>2026-03-08T14:03:16.000Z</time></trkpt>
<trkpt lat="42.100708" lon="23.606017"><ele>2106.8</ele><time>2026-03-08T14:03:17.000Z</time></trkpt>
<trkpt lat="42.100705" lon="23.60603"><ele>2106.8</ele><time>2026-03-08T14:03:18.000Z</time></trkpt>
<trkpt lat="42.100702" lon="23.606043"><ele>2106.8</ele><time>2026-03-08T14:03:19.000Z</time></trkpt>
<trkpt lat="42.100698" lon="23.606056"><ele>2106.8</ele><time>2026-03-08T14:03:20.000Z</time></trkpt>
<trkpt lat="42.100693" lon="23.606071"><ele>2106.8</ele><time>2026-03-08T14:03:21.000Z</time></trkpt>
<trkpt lat="42.10069" lon="23.606086"><ele>2105.9</ele><time>2026-03-08T14:03:22.000Z</time></trkpt>
<trkpt lat="42.100688" lon="23.606102"><ele>2105.9</ele><time>2026-03-08T14:03:23.000Z</time></trkpt>
<trkpt lat="42.100685" lon="23.606119"><ele>2105.9</ele><time>2026-03-08T14:03:24.000Z</time></trkpt>
<trkpt lat="42.100684" lon="23.606135"><ele>2105.9</ele><time>2026-03-08T14:03:25.000Z</time></trkpt>
<trkpt lat="42.100683" lon="23.606151"><ele>2105.9</ele><time>2026-03-08T14:03:26.000Z</time></trkpt>
<trkpt lat="42.100682" lon="23.606167"><ele>2105.5</ele><time>2026-03-08T14:03:27.000Z</time></trkpt>
<trkpt lat="42.100681" lon="23.606183"><ele>2105.5</ele><time>2026-03-08T14:03:28.000Z</time></trkpt>
<trkpt lat="42.100681" lon="23.606198"><ele>2105.5</ele><time>2026-03-08T14:03:29.000Z</time></trkpt>
<trkpt lat="42.10068" lon="23.606214"><ele>2105.5</ele><time>2026-03-08T14:03:30.000Z</time></trkpt>
<trkpt lat="42.10068" lon="23.60623"><ele>2105.5</ele><time>2026-03-08T14:03:31.000Z</time></trkpt>
<trkpt lat="42.10068" lon="23.606245"><ele>2104.6</ele><time>2026-03-08T14:03:32.000Z</time></trkpt>
<trkpt lat="42.10068" lon="23.60626"><ele>2104.6</ele><time>2026-03-08T14:03:33.000Z</time></trkpt>
<trkpt lat="42.10068" lon="23.606274"><ele>2104.6</ele><time>2026-03-08T14:03:34.000Z</time></trkpt>
<trkpt lat="42.100679" lon="23.606289"><ele>2104.6</ele><time>2026-03-08T14:03:35.000Z</time></trkpt>
<trkpt lat="42.100677" lon="23.606304"><ele>2104.6</ele><time>2026-03-08T14:03:36.000Z</time></trkpt>
<trkpt lat="42.100676" lon="23.60632"><ele>2104</ele><time>2026-03-08T14:03:37.000Z</time></trkpt>
<trkpt lat="42.100674" lon="23.606336"><ele>2104</ele><time>2026-03-08T14:03:38.000Z</time></trkpt>
<trkpt lat="42.100673" lon="23.606351"><ele>2104</ele><time>2026-03-08T14:03:39.000Z</time></trkpt>
<trkpt lat="42.100671" lon="23.606366"><ele>2104</ele><time>2026-03-08T14:03:40.000Z</time></trkpt>
<trkpt lat="42.100669" lon="23.606382"><ele>2104</ele><time>2026-03-08T14:03:41.000Z</time></trkpt>
<trkpt lat="42.100666" lon="23.606398"><ele>2103.7</ele><time>2026-03-08T14:03:42.000Z</time></trkpt>
<trkpt lat="42.100664" lon="23.606415"><ele>2103.7</ele><time>2026-03-08T14:03:43.000Z</time></trkpt>
<trkpt lat="42.10066" lon="23.606432"><ele>2103.7</ele><time>2026-03-08T14:03:44.000Z</time></trkpt>
<trkpt lat="42.100658" lon="23.606448"><ele>2103.7</ele><time>2026-03-08T14:03:45.000Z</time></trkpt>
<trkpt lat="42.100655" lon="23.606464"><ele>2103.7</ele><time>2026-03-08T14:03:46.000Z</time></trkpt>
<trkpt lat="42.100652" lon="23.60648"><ele>2103.3</ele><time>2026-03-08T14:03:47.000Z</time></trkpt>
<trkpt lat="42.10065" lon="23.606496"><ele>2103.3</ele><time>2026-03-08T14:03:48.000Z</time></trkpt>
<trkpt lat="42.100647" lon="23.606514"><ele>2103.3</ele><time>2026-03-08T14:03:49.000Z</time></trkpt>
<trkpt lat="42.100645" lon="23.606531"><ele>2103.3</ele><time>2026-03-08T14:03:50.000Z</time></trkpt>
<trkpt lat="42.100642" lon="23.606547"><ele>2103.3</ele><time>2026-03-08T14:03:51.000Z</time></trkpt>
<trkpt lat="42.100641" lon="23.606564"><ele>2102.8</ele><time>2026-03-08T14:03:52.000Z</time></trkpt>
<trkpt lat="42.100639" lon="23.60658"><ele>2102.8</ele><time>2026-03-08T14:03:53.000Z</time></trkpt>
<trkpt lat="42.100637" lon="23.606594"><ele>2102.8</ele><time>2026-03-08T14:03:54.000Z</time></trkpt>
<trkpt lat="42.100634" lon="23.606608"><ele>2102.8</ele><time>2026-03-08T14:03:55.000Z</time></trkpt>
<trkpt lat="42.100633" lon="23.606622"><ele>2102.8</ele><time>2026-03-08T14:03:56.000Z</time></trkpt>
<trkpt lat="42.100631" lon="23.606636"><ele>2102.5</ele><time>2026-03-08T14:03:57.000Z</time></trkpt>
<trkpt lat="42.10063" lon="23.60665"><ele>2102.5</ele><time>2026-03-08T14:03:58.000Z</time></trkpt>
<trkpt lat="42.100629" lon="23.606665"><ele>2102.5</ele><time>2026-03-08T14:03:59.000Z</time></trkpt>
<trkpt lat="42.100627" lon="23.606679"><ele>2102.5</ele><time>2026-03-08T14:04:00.000Z</time></trkpt>
<trkpt lat="42.100625" lon="23.606694"><ele>2102.5</ele><time>2026-03-08T14:04:01.000Z</time></trkpt>
<trkpt lat="42.100623" lon="23.606709"><ele>2101.8</ele><time>2026-03-08T14:04:02.000Z</time></trkpt>
<trkpt lat="42.100619" lon="23.606723"><ele>2101.8</ele><time>2026-03-08T14:04:03.000Z</time></trkpt>
<trkpt lat="42.100616" lon="23.606736"><ele>2101.8</ele><time>2026-03-08T14:04:04.000Z</time></trkpt>
<trkpt lat="42.100612" lon="23.60675"><ele>2101.8</ele><time>2026-03-08T14:04:05.000Z</time></trkpt>
<trkpt lat="42.100609" lon="23.606764"><ele>2101.8</ele><time>2026-03-08T14:04:06.000Z</time></trkpt>
<trkpt lat="42.100605" lon="23.606777"><ele>2101.1</ele><time>2026-03-08T14:04:07.000Z</time></trkpt>
<trkpt lat="42.100601" lon="23.606791"><ele>2101.1</ele><time>2026-03-08T14:04:08.000Z</time></trkpt>
<trkpt lat="42.100598" lon="23.606805"><ele>2101.1</ele><time>2026-03-08T14:04:09.000Z</time></trkpt>
<trkpt lat="42.100595" lon="23.606819"><ele>2101.1</ele><time>2026-03-08T14:04:10.000Z</time></trkpt>
<trkpt lat="42.100593" lon="23.606832"><ele>2101.1</ele><time>2026-03-08T14:04:11.000Z</time></trkpt>
<trkpt lat="42.100591" lon="23.606846"><ele>2100.8</ele><time>2026-03-08T14:04:12.000Z</time></trkpt>
<trkpt lat="42.10059" lon="23.60686"><ele>2100.8</ele><time>2026-03-08T14:04:13.000Z</time></trkpt>
<trkpt lat="42.100589" lon="23.606874"><ele>2100.8</ele><time>2026-03-08T14:04:14.000Z</time></trkpt>
<trkpt lat="42.100587" lon="23.606888"><ele>2100.8</ele><time>2026-03-08T14:04:15.000Z</time></trkpt>
<trkpt lat="42.100585" lon="23.606904"><ele>2100.8</ele><time>2026-03-08T14:04:16.000Z</time></trkpt>
<trkpt lat="42.100582" lon="23.60692"><ele>2100.3</ele><time>2026-03-08T14:04:17.000Z</time></trkpt>
<trkpt lat="42.10058" lon="23.606936"><ele>2100.3</ele><time>2026-03-08T14:04:18.000Z</time></trkpt>
<trkpt lat="42.100578" lon="23.606951"><ele>2100.3</ele><time>2026-03-08T14:04:19.000Z</time></trkpt>
<trkpt lat="42.100577" lon="23.606967"><ele>2100.3</ele><time>2026-03-08T14:04:20.000Z</time></trkpt>
<trkpt lat="42.100576" lon="23.606981"><ele>2100.3</ele><time>2026-03-08T14:04:21.000Z</time></trkpt>
<trkpt lat="42.100574" lon="23.606997"><ele>2100</ele><time>2026-03-08T14:04:22.000Z</time></trkpt>
<trkpt lat="42.100572" lon="23.607013"><ele>2100</ele><time>2026-03-08T14:04:23.000Z</time></trkpt>
<trkpt lat="42.10057" lon="23.607028"><ele>2100</ele><time>2026-03-08T14:04:24.000Z</time></trkpt>
<trkpt lat="42.100568" lon="23.607042"><ele>2100</ele><time>2026-03-08T14:04:25.000Z</time></trkpt>
<trkpt lat="42.100565" lon="23.607056"><ele>2100</ele><time>2026-03-08T14:04:26.000Z</time></trkpt>
<trkpt lat="42.100563" lon="23.607069"><ele>2099.9</ele><time>2026-03-08T14:04:27.000Z</time></trkpt>
<trkpt lat="42.10056" lon="23.607082"><ele>2099.9</ele><time>2026-03-08T14:04:28.000Z</time></trkpt>
<trkpt lat="42.100558" lon="23.607097"><ele>2099.9</ele><time>2026-03-08T14:04:29.000Z</time></trkpt>
<trkpt lat="42.100556" lon="23.607112"><ele>2099.9</ele><time>2026-03-08T14:04:30.000Z</time></trkpt>
<trkpt lat="42.100554" lon="23.607128"><ele>2099.9</ele><time>2026-03-08T14:04:31.000Z</time></trkpt>
<trkpt lat="42.100551" lon="23.607143"><ele>2099.8</ele><time>2026-03-08T14:04:32.000Z</time></trkpt>
<trkpt lat="42.100548" lon="23.607157"><ele>2099.8</ele><time>2026-03-08T14:04:33.000Z</time></trkpt>
<trkpt lat="42.100545" lon="23.607171"><ele>2099.8</ele><time>2026-03-08T14:04:34.000Z</time></trkpt>
<trkpt lat="42.100542" lon="23.607185"><ele>2099.8</ele><time>2026-03-08T14:04:35.000Z</time></trkpt>
<trkpt lat="42.100538" lon="23.607199"><ele>2099.8</ele><time>2026-03-08T14:04:36.000Z</time></trkpt>
<trkpt lat="42.100534" lon="23.607214"><ele>2099.7</ele><time>2026-03-08T14:04:37.000Z</time></trkpt>
<trkpt lat="42.100531" lon="23.607228"><ele>2099.7</ele><time>2026-03-08T14:04:38.000Z</time></trkpt>
<trkpt lat="42.100526" lon="23.607243"><ele>2099.7</ele><time>2026-03-08T14:04:39.000Z</time></trkpt>
<trkpt lat="42.100523" lon="23.607256"><ele>2099.7</ele><time>2026-03-08T14:04:40.000Z</time></trkpt>
<trkpt lat="42.10052" lon="23.60727"><ele>2099.7</ele><time>2026-03-08T14:04:41.000Z</time></trkpt>
<trkpt lat="42.100517" lon="23.607283"><ele>2099.6</ele><time>2026-03-08T14:04:42.000Z</time></trkpt>
<trkpt lat="42.100514" lon="23.607298"><ele>2099.6</ele><time>2026-03-08T14:04:43.000Z</time></trkpt>
<trkpt lat="42.100511" lon="23.607312"><ele>2099.6</ele><time>2026-03-08T14:04:44.000Z</time></trkpt>
<trkpt lat="42.100507" lon="23.607326"><ele>2099.6</ele><time>2026-03-08T14:04:45.000Z</time></trkpt>
<trkpt lat="42.100504" lon="23.60734"><ele>2099.6</ele><time>2026-03-08T14:04:46.000Z</time></trkpt>
<trkpt lat="42.100501" lon="23.607355"><ele>2099.2</ele><time>2026-03-08T14:04:47.000Z</time></trkpt>
<trkpt lat="42.100498" lon="23.60737"><ele>2099.2</ele><time>2026-03-08T14:04:48.000Z</time></trkpt>
<trkpt lat="42.100496" lon="23.607386"><ele>2099.2</ele><time>2026-03-08T14:04:49.000Z</time></trkpt>
<trkpt lat="42.100494" lon="23.607404"><ele>2099.2</ele><time>2026-03-08T14:04:50.000Z</time></trkpt>
<trkpt lat="42.100492" lon="23.607421"><ele>2099.2</ele><time>2026-03-08T14:04:51.000Z</time></trkpt>
<trkpt lat="42.10049" lon="23.607438"><ele>2098.7</ele><time>2026-03-08T14:04:52.000Z</time></trkpt>
<trkpt lat="42.100488" lon="23.607453"><ele>2098.7</ele><time>2026-03-08T14:04:53.000Z</time></trkpt>
<trkpt lat="42.100486" lon="23.607469"><ele>2098.7</ele><time>2026-03-08T14:04:54.000Z</time></trkpt>
<trkpt lat="42.100484" lon="23.607485"><ele>2098.7</ele><time>2026-03-08T14:04:55.000Z</time></trkpt>
<trkpt lat="42.100482" lon="23.6075"><ele>2098.7</ele><time>2026-03-08T14:04:56.000Z</time></trkpt>
<trkpt lat="42.100479" lon="23.607515"><ele>2098.1</ele><time>2026-03-08T14:04:57.000Z</time></trkpt>
<trkpt lat="42.100477" lon="23.60753"><ele>2098.1</ele><time>2026-03-08T14:04:58.000Z</time></trkpt>
<trkpt lat="42.100473" lon="23.607545"><ele>2098.1</ele><time>2026-03-08T14:04:59.000Z</time></trkpt>
<trkpt lat="42.10047" lon="23.60756"><ele>2098.1</ele><time>2026-03-08T14:05:00.000Z</time></trkpt>
<trkpt lat="42.100467" lon="23.607575"><ele>2098.1</ele><time>2026-03-08T14:05:01.000Z</time></trkpt>
<trkpt lat="42.100464" lon="23.60759"><ele>2097.8</ele><time>2026-03-08T14:05:02.000Z</time></trkpt>
<trkpt lat="42.100461" lon="23.607605"><ele>2097.8</ele><time>2026-03-08T14:05:03.000Z</time></trkpt>
<trkpt lat="42.100457" lon="23.607619"><ele>2097.8</ele><time>2026-03-08T14:05:04.000Z</time></trkpt>
<trkpt lat="42.100453" lon="23.607633"><ele>2097.8</ele><time>2026-03-08T14:05:05.000Z</time></trkpt>
<trkpt lat="42.100449" lon="23.607647"><ele>2097.8</ele><time>2026-03-08T14:05:06.000Z</time></trkpt>
<trkpt lat="42.100445" lon="23.607662"><ele>2097.2</ele><time>2026-03-08T14:05:07.000Z</time></trkpt>
<trkpt lat="42.100442" lon="23.607679"><ele>2097.2</ele><time>2026-03-08T14:05:08.000Z</time></trkpt>
<trkpt lat="42.10044" lon="23.607695"><ele>2097.2</ele><time>2026-03-08T14:05:09.000Z</time></trkpt>
<trkpt lat="42.100439" lon="23.607712"><ele>2097.2</ele><time>2026-03-08T14:05:10.000Z</time></trkpt>
<trkpt lat="42.100436" lon="23.607728"><ele>2097.2</ele><time>2026-03-08T14:05:11.000Z</time></trkpt>
<trkpt lat="42.100432" lon="23.607744"><ele>2096.6</ele><time>2026-03-08T14:05:12.000Z</time></trkpt>
<trkpt lat="42.100427" lon="23.607758"><ele>2096.6</ele><time>2026-03-08T14:05:13.000Z</time></trkpt>
<trkpt lat="42.10042" lon="23.607773"><ele>2096.6</ele><time>2026-03-08T14:05:14.000Z</time></trkpt>
<trkpt lat="42.100414" lon="23.607787"><ele>2096.6</ele><time>2026-03-08T14:05:15.000Z</time></trkpt>
<trkpt lat="42.100408" lon="23.6078"><ele>2096.6</ele><time>2026-03-08T14:05:16.000Z</time></trkpt>
<trkpt lat="42.100403" lon="23.607812"><ele>2096.3</ele><time>2026-03-08T14:05:17.000Z</time></trkpt>
<trkpt lat="42.100398" lon="23.607825"><ele>2096.3</ele><time>2026-03-08T14:05:18.000Z</time></trkpt>
<trkpt lat="42.100393" lon="23.607837"><ele>2096.3</ele><time>2026-03-08T14:05:19.000Z</time></trkpt>
<trkpt lat="42.100389" lon="23.607851"><ele>2096.3</ele><time>2026-03-08T14:05:20.000Z</time></trkpt>
<trkpt lat="42.100384" lon="23.607864"><ele>2096.3</ele><time>2026-03-08T14:05:21.000Z</time></trkpt>
<trkpt lat="42.100379" lon="23.607877"><ele>2095.6</ele><time>2026-03-08T14:05:22.000Z</time></trkpt>
<trkpt lat="42.100374" lon="23.60789"><ele>2095.6</ele><time>2026-03-08T14:05:23.000Z</time></trkpt>
<trkpt lat="42.100371" lon="23.607902"><ele>2095.6</ele><time>2026-03-08T14:05:24.000Z</time></trkpt>
<trkpt lat="42.100367" lon="23.607915"><ele>2095.6</ele><time>2026-03-08T14:05:25.000Z</time></trkpt>
<trkpt lat="42.100364" lon="23.607927"><ele>2095.6</ele><time>2026-03-08T14:05:26.000Z</time></trkpt>
<trkpt lat="42.100364" lon="23.60794"><ele>2095.1</ele><time>2026-03-08T14:05:27.000Z</time></trkpt>
<trkpt lat="42.100363" lon="23.607953"><ele>2095.1</ele><time>2026-03-08T14:05:28.000Z</time></trkpt>
<trkpt lat="42.100363" lon="23.607967"><ele>2095.1</ele><time>2026-03-08T14:05:29.000Z</time></trkpt>
<trkpt lat="42.100362" lon="23.607981"><ele>2095.1</ele><time>2026-03-08T14:05:30.000Z</time></trkpt>
<trkpt lat="42.10036" lon="23.607996"><ele>2095.1</ele><time>2026-03-08T14:05:31.000Z</time></trkpt>
<trkpt lat="42.100356" lon="23.60801"><ele>2094.9</ele><time>2026-03-08T14:05:32.000Z</time></trkpt>
<trkpt lat="42.100353" lon="23.608025"><ele>2094.9</ele><time>2026-03-08T14:05:33.000Z</time></trkpt>
<trkpt lat="42.10035" lon="23.60804"><ele>2094.9</ele><time>2026-03-08T14:05:34.000Z</time></trkpt>
<trkpt lat="42.100346" lon="23.608054"><ele>2094.9</ele><time>2026-03-08T14:05:35.000Z</time></trkpt>
<trkpt lat="42.100343" lon="23.608068"><ele>2094.9</ele><time>2026-03-08T14:05:36.000Z</time></trkpt>
<trkpt lat="42.100339" lon="23.608083"><ele>2094.3</ele><time>2026-03-08T14:05:37.000Z</time></trkpt>
<trkpt lat="42.100335" lon="23.608098"><ele>2094.3</ele><time>2026-03-08T14:05:38.000Z</time></trkpt>
<trkpt lat="42.100329" lon="23.608114"><ele>2094.3</ele><time>2026-03-08T14:05:39.000Z</time></trkpt>
<trkpt lat="42.100324" lon="23.608128"><ele>2094.3</ele><time>2026-03-08T14:05:40.000Z</time></trkpt>
<trkpt lat="42.10032" lon="23.608142"><ele>2094.3</ele><time>2026-03-08T14:05:41.000Z</time></trkpt>
<trkpt lat="42.100317" lon="23.608156"><ele>2093.7</ele><time>2026-03-08T14:05:42.000Z</time></trkpt>
<trkpt lat="42.100315" lon="23.608171"><ele>2093.7</ele><time>2026-03-08T14:05:43.000Z</time></trkpt>
<trkpt lat="42.100313" lon="23.608186"><ele>2093.7</ele><time>2026-03-08T14:05:44.000Z</time></trkpt>
<trkpt lat="42.100313" lon="23.608201"><ele>2093.7</ele><time>2026-03-08T14:05:45.000Z</time></trkpt>
<trkpt lat="42.100312" lon="23.608217"><ele>2093.7</ele><time>2026-03-08T14:05:46.000Z</time></trkpt>
<trkpt lat="42.10031" lon="23.608233"><ele>2093.4</ele><time>2026-03-08T14:05:47.000Z</time></trkpt>
<trkpt lat="42.10031" lon="23.608248"><ele>2093.4</ele><time>2026-03-08T14:05:48.000Z</time></trkpt>
<trkpt lat="42.100309" lon="23.608264"><ele>2093.4</ele><time>2026-03-08T14:05:49.000Z</time></trkpt>
<trkpt lat="42.100307" lon="23.608279"><ele>2093.4</ele><time>2026-03-08T14:05:50.000Z</time></trkpt>
<trkpt lat="42.100304" lon="23.608295"><ele>2093.4</ele><time>2026-03-08T14:05:51.000Z</time></trkpt>
<trkpt lat="42.100302" lon="23.60831"><ele>2092.9</ele><time>2026-03-08T14:05:52.000Z</time></trkpt>
<trkpt lat="42.100298" lon="23.608325"><ele>2092.9</ele><time>2026-03-08T14:05:53.000Z</time></trkpt>
<trkpt lat="42.100294" lon="23.608339"><ele>2092.9</ele><time>2026-03-08T14:05:54.000Z</time></trkpt>
<trkpt lat="42.100292" lon="23.608353"><ele>2092.9</ele><time>2026-03-08T14:05:55.000Z</time></trkpt>
<trkpt lat="42.100291" lon="23.608367"><ele>2092.9</ele><time>2026-03-08T14:05:56.000Z</time></trkpt>
<trkpt lat="42.100289" lon="23.608382"><ele>2092.5</ele><time>2026-03-08T14:05:57.000Z</time></trkpt>
<trkpt lat="42.100288" lon="23.608398"><ele>2092.5</ele><time>2026-03-08T14:05:58.000Z</time></trkpt>
<trkpt lat="42.100286" lon="23.608414"><ele>2092.5</ele><time>2026-03-08T14:05:59.000Z</time></trkpt>
<trkpt lat="42.100284" lon="23.608429"><ele>2092.5</ele><time>2026-03-08T14:06:00.000Z</time></trkpt>
<trkpt lat="42.100282" lon="23.608444"><ele>2092.5</ele><time>2026-03-08T14:06:01.000Z</time></trkpt>
<trkpt lat="42.10028" lon="23.608458"><ele>2092.3</ele><time>2026-03-08T14:06:02.000Z</time></trkpt>
<trkpt lat="42.100277" lon="23.608472"><ele>2092.3</ele><time>2026-03-08T14:06:03.000Z</time></trkpt>
<trkpt lat="42.100274" lon="23.608486"><ele>2092.3</ele><time>2026-03-08T14:06:04.000Z</time></trkpt>
<trkpt lat="42.100271" lon="23.6085"><ele>2092.3</ele><time>2026-03-08T14:06:05.000Z</time></trkpt>
<trkpt lat="42.100268" lon="23.608514"><ele>2092.3</ele><time>2026-03-08T14:06:06.000Z</time></trkpt>
<trkpt lat="42.100266" lon="23.60853"><ele>2092</ele><time>2026-03-08T14:06:07.000Z</time></trkpt>
<trkpt lat="42.100264" lon="23.608545"><ele>2092</ele><time>2026-03-08T14:06:08.000Z</time></trkpt>
<trkpt lat="42.100262" lon="23.60856"><ele>2092</ele><time>2026-03-08T14:06:09.000Z</time></trkpt>
<trkpt lat="42.10026" lon="23.608576"><ele>2092</ele><time>2026-03-08T14:06:10.000Z</time></trkpt>
<trkpt lat="42.100257" lon="23.608592"><ele>2092</ele><time>2026-03-08T14:06:11.000Z</time></trkpt>
<trkpt lat="42.100254" lon="23.608608"><ele>2091.6</ele><time>2026-03-08T14:06:12.000Z</time></trkpt>
<trkpt lat="42.10025" lon="23.608622"><ele>2091.6</ele><time>2026-03-08T14:06:13.000Z</time></trkpt>
<trkpt lat="42.100247" lon="23.608634"><ele>2091.6</ele><time>2026-03-08T14:06:14.000Z</time></trkpt>
<trkpt lat="42.100244" lon="23.608645"><ele>2091.6</ele><time>2026-03-08T14:06:15.000Z</time></trkpt>
<trkpt lat="42.100243" lon="23.608656"><ele>2091.6</ele><time>2026-03-08T14:06:16.000Z</time></trkpt>
<trkpt lat="42.100242" lon="23.608668"><ele>2091.4</ele><time>2026-03-08T14:06:17.000Z</time></trkpt>
<trkpt lat="42.100242" lon="23.608682"><ele>2091.4</ele><time>2026-03-08T14:06:18.000Z</time></trkpt>
<trkpt lat="42.100241" lon="23.608697"><ele>2091.4</ele><time>2026-03-08T14:06:19.000Z</time></trkpt>
<trkpt lat="42.100239" lon="23.608712"><ele>2091.4</ele><time>2026-03-08T14:06:20.000Z</time></trkpt>
<trkpt lat="42.100236" lon="23.608727"><ele>2091.4</ele><time>2026-03-08T14:06:21.000Z</time></trkpt>
<trkpt lat="42.100233" lon="23.608742"><ele>2091.1</ele><time>2026-03-08T14:06:22.000Z</time></trkpt>
<trkpt lat="42.10023" lon="23.608756"><ele>2091.1</ele><time>2026-03-08T14:06:23.000Z</time></trkpt>
<trkpt lat="42.100226" lon="23.60877"><ele>2091.1</ele><time>2026-03-08T14:06:24.000Z</time></trkpt>
<trkpt lat="42.100222" lon="23.608784"><ele>2091.1</ele><time>2026-03-08T14:06:25.000Z</time></trkpt>
<trkpt lat="42.100219" lon="23.608798"><ele>2091.1</ele><time>2026-03-08T14:06:26.000Z</time></trkpt>
<trkpt lat="42.100216" lon="23.608811"><ele>2090.7</ele><time>2026-03-08T14:06:27.000Z</time></trkpt>
<trkpt lat="42.100213" lon="23.608825"><ele>2090.7</ele><time>2026-03-08T14:06:28.000Z</time></trkpt>
<trkpt lat="42.100209" lon="23.608839"><ele>2090.7</ele><time>2026-03-08T14:06:29.000Z</time></trkpt>
<trkpt lat="42.100207" lon="23.608853"><ele>2090.7</ele><time>2026-03-08T14:06:30.000Z</time></trkpt>
<trkpt lat="42.100203" lon="23.608867"><ele>2090.7</ele><time>2026-03-08T14:06:31.000Z</time></trkpt>
<trkpt lat="42.100199" lon="23.60888"><ele>2090.5</ele><time>2026-03-08T14:06:32.000Z</time></trkpt>
<trkpt lat="42.100195" lon="23.608893"><ele>2090.5</ele><time>2026-03-08T14:06:33.000Z</time></trkpt>
<trkpt lat="42.100192" lon="23.608904"><ele>2090.5</ele><time>2026-03-08T14:06:34.000Z</time></trkpt>
<trkpt lat="42.100189" lon="23.608914"><ele>2090.5</ele><time>2026-03-08T14:06:35.000Z</time></trkpt>
<trkpt lat="42.100187" lon="23.608923"><ele>2090.5</ele><time>2026-03-08T14:06:36.000Z</time></trkpt>
<trkpt lat="42.100185" lon="23.608934"><ele>2090.1</ele><time>2026-03-08T14:06:37.000Z</time></trkpt>
<trkpt lat="42.100184" lon="23.608944"><ele>2090.1</ele><time>2026-03-08T14:06:38.000Z</time></trkpt>
<trkpt lat="42.100182" lon="23.608953"><ele>2090.1</ele><time>2026-03-08T14:06:39.000Z</time></trkpt>
<trkpt lat="42.10018" lon="23.60896"><ele>2090.1</ele><time>2026-03-08T14:06:40.000Z</time></trkpt>
<trkpt lat="42.100179" lon="23.608965"><ele>2090.1</ele><time>2026-03-08T14:06:41.000Z</time></trkpt>
<trkpt lat="42.100179" lon="23.608968"><ele>2089.6</ele><time>2026-03-08T14:06:42.000Z</time></trkpt>
<trkpt lat="42.100178" lon="23.608968"><ele>2089.6</ele><time>2026-03-08T14:06:43.000Z</time></trkpt>
<trkpt lat="42.100179" lon="23.608968"><ele>2089.6</ele><time>2026-03-08T14:06:44.000Z</time></trkpt>
<trkpt lat="42.100179" lon="23.608969"><ele>2089.6</ele><time>2026-03-08T14:06:45.000Z</time></trkpt>
<trkpt lat="42.100179" lon="23.608969"><ele>2089.6</ele><time>2026-03-08T14:06:46.000Z</time></trkpt>
<trkpt lat="42.100179" lon="23.608968"><ele>2089.4</ele><time>2026-03-08T14:06:47.000Z</time></trkpt>
<trkpt lat="42.100179" lon="23.608967"><ele>2089.4</ele><time>2026-03-08T14:06:48.000Z</time></trkpt>
<trkpt lat="42.100179" lon="23.608967"><ele>2089.4</ele><time>2026-03-08T14:06:49.000Z</time></trkpt>
<trkpt lat="42.100179" lon="23.608966"><ele>2089.4</ele><time>2026-03-08T14:06:50.000Z</time></trkpt>
<trkpt lat="42.100179" lon="23.608966"><ele>2089.4</ele><time>2026-03-08T14:06:51.000Z</time></trkpt>
<trkpt lat="42.100179" lon="23.608966"><ele>2089.3</ele><time>2026-03-08T14:06:52.000Z</time></trkpt>
<trkpt lat="42.100179" lon="23.608966"><ele>2089.3</ele><time>2026-03-08T14:06:53.000Z</time></trkpt>
<trkpt lat="42.100178" lon="23.608965"><ele>2089.3</ele><time>2026-03-08T14:06:54.000Z</time></trkpt>
<trkpt lat="42.100178" lon="23.608965"><ele>2089.3</ele><time>2026-03-08T14:06:55.000Z</time></trkpt>
<trkpt lat="42.100178" lon="23.608964"><ele>2089.3</ele><time>2026-03-08T14:06:56.000Z</time></trkpt>
<trkpt lat="42.100177" lon="23.608964"><ele>2089.4</ele><time>2026-03-08T14:06:57.000Z</time></trkpt>
<trkpt lat="42.100177" lon="23.608964"><ele>2089.4</ele><time>2026-03-08T14:06:58.000Z</time></trkpt>
<trkpt lat="42.100176" lon="23.608964"><ele>2089.4</ele><time>2026-03-08T14:06:59.000Z</time></trkpt>
<trkpt lat="42.100176" lon="23.608964"><ele>2089.4</ele><time>2026-03-08T14:07:00.000Z</time></trkpt>
<trkpt lat="42.100175" lon="23.608964"><ele>2089.4</ele><time>2026-03-08T14:07:01.000Z</time></trkpt>
<trkpt lat="42.100174" lon="23.608964"><ele>2089.4</ele><time>2026-03-08T14:07:02.000Z</time></trkpt>
<trkpt lat="42.100174" lon="23.608964"><ele>2089.4</ele><time>2026-03-08T14:07:03.000Z</time></trkpt>
<trkpt lat="42.100174" lon="23.608964"><ele>2089.4</ele><time>2026-03-08T14:07:04.000Z</time></trkpt>
<trkpt lat="42.100174" lon="23.608963"><ele>2089.4</ele><time>2026-03-08T14:07:05.000Z</time></trkpt>
<trkpt lat="42.100174" lon="23.608963"><ele>2089.4</ele><time>2026-03-08T14:07:06.000Z</time></trkpt>
<trkpt lat="42.100174" lon="23.608963"><ele>2089.5</ele><time>2026-03-08T14:07:07.000Z</time></trkpt>
<trkpt lat="42.100174" lon="23.608963"><ele>2089.5</ele><time>2026-03-08T14:07:08.000Z</time></trkpt>
<trkpt lat="42.100175" lon="23.608963"><ele>2089.5</ele><time>2026-03-08T14:07:09.000Z</time></trkpt>
<trkpt lat="42.100175" lon="23.608963"><ele>2089.5</ele><time>2026-03-08T14:07:10.000Z</time></trkpt>
<trkpt lat="42.100175" lon="23.608963"><ele>2089.5</ele><time>2026-03-08T14:07:11.000Z</time></trkpt>
<trkpt lat="42.100175" lon="23.608964"><ele>2089.6</ele><time>2026-03-08T14:07:12.000Z</time></trkpt>
<trkpt lat="42.100175" lon="23.608965"><ele>2089.6</ele><time>2026-03-08T14:07:13.000Z</time></trkpt>
<trkpt lat="42.100175" lon="23.608966"><ele>2089.6</ele><time>2026-03-08T14:07:14.000Z</time></trkpt>
<trkpt lat="42.100175" lon="23.608967"><ele>2089.6</ele><time>2026-03-08T14:07:15.000Z</time></trkpt>
<trkpt lat="42.100175" lon="23.608968"><ele>2089.6</ele><time>2026-03-08T14:07:16.000Z</time></trkpt>
<trkpt lat="42.100175" lon="23.608969"><ele>2089.6</ele><time>2026-03-08T14:07:17.000Z</time></trkpt>
<trkpt lat="42.100175" lon="23.608969"><ele>2089.6</ele><time>2026-03-08T14:07:18.000Z</time></trkpt>
<trkpt lat="42.100175" lon="23.608969"><ele>2089.6</ele><time>2026-03-08T14:07:19.000Z</time></trkpt>
<trkpt lat="42.100176" lon="23.608968"><ele>2089.6</ele><time>2026-03-08T14:07:20.000Z</time></trkpt>
<trkpt lat="42.100176" lon="23.608968"><ele>2089.6</ele><time>2026-03-08T14:07:21.000Z</time></trkpt>
<trkpt lat="42.100176" lon="23.60897"><ele>2089.6</ele><time>2026-03-08T14:07:22.000Z</time></trkpt>
<trkpt lat="42.100176" lon="23.608975"><ele>2089.6</ele><time>2026-03-08T14:07:23.000Z</time></trkpt>
<trkpt lat="42.100175" lon="23.608984"><ele>2089.6</ele><time>2026-03-08T14:07:24.000Z</time></trkpt>
<trkpt lat="42.100174" lon="23.608995"><ele>2089.6</ele><time>2026-03-08T14:07:25.000Z</time></trkpt>
<trkpt lat="42.100172" lon="23.609008"><ele>2089.6</ele><time>2026-03-08T14:07:26.000Z</time></trkpt>
<trkpt lat="42.10017" lon="23.60902"><ele>2089.7</ele><time>2026-03-08T14:07:27.000Z</time></trkpt>
<trkpt lat="42.100168" lon="23.609032"><ele>2089.7</ele><time>2026-03-08T14:07:28.000Z</time></trkpt>
<trkpt lat="42.100165" lon="23.609044"><ele>2089.7</ele><time>2026-03-08T14:07:29.000Z</time></trkpt>
<trkpt lat="42.100163" lon="23.609055"><ele>2089.7</ele><time>2026-03-08T14:07:30.000Z</time></trkpt>
<trkpt lat="42.10016" lon="23.609068"><ele>2089.7</ele><time>2026-03-08T14:07:31.000Z</time></trkpt>
<trkpt lat="42.100157" lon="23.60908"><ele>2089.6</ele><time>2026-03-08T14:07:32.000Z</time></trkpt>
<trkpt lat="42.100155" lon="23.609093"><ele>2089.6</ele><time>2026-03-08T14:07:33.000Z</time></trkpt>
<trkpt lat="42.100154" lon="23.609106"><ele>2089.6</ele><time>2026-03-08T14:07:34.000Z</time></trkpt>
<trkpt lat="42.100152" lon="23.60912"><ele>2089.6</ele><time>2026-03-08T14:07:35.000Z</time></trkpt>
<trkpt lat="42.10015" lon="23.609134"><ele>2089.6</ele><time>2026-03-08T14:07:36.000Z</time></trkpt>
<trkpt lat="42.100147" lon="23.609148"><ele>2089.4</ele><time>2026-03-08T14:07:37.000Z</time></trkpt>
<trkpt lat="42.100144" lon="23.609162"><ele>2089.4</ele><time>2026-03-08T14:07:38.000Z</time></trkpt>
<trkpt lat="42.100141" lon="23.609177"><ele>2089.4</ele><time>2026-03-08T14:07:39.000Z</time></trkpt>
<trkpt lat="42.100138" lon="23.609192"><ele>2089.4</ele><time>2026-03-08T14:07:40.000Z</time></trkpt>
<trkpt lat="42.100135" lon="23.609207"><ele>2089.4</ele><time>2026-03-08T14:07:41.000Z</time></trkpt>
<trkpt lat="42.100133" lon="23.609222"><ele>2089</ele><time>2026-03-08T14:07:42.000Z</time></trkpt>
<trkpt lat="42.100132" lon="23.609238"><ele>2089</ele><time>2026-03-08T14:07:43.000Z</time></trkpt>
<trkpt lat="42.10013" lon="23.609253"><ele>2089</ele><time>2026-03-08T14:07:44.000Z</time></trkpt>
<trkpt lat="42.100127" lon="23.609269"><ele>2089</ele><time>2026-03-08T14:07:45.000Z</time></trkpt>
<trkpt lat="42.100124" lon="23.609283"><ele>2089</ele><time>2026-03-08T14:07:46.000Z</time></trkpt>
<trkpt lat="42.100121" lon="23.609297"><ele>2088.7</ele><time>2026-03-08T14:07:47.000Z</time></trkpt>
<trkpt lat="42.100118" lon="23.609311"><ele>2088.7</ele><time>2026-03-08T14:07:48.000Z</time></trkpt>
<trkpt lat="42.100116" lon="23.609325"><ele>2088.7</ele><time>2026-03-08T14:07:49.000Z</time></trkpt>
<trkpt lat="42.100115" lon="23.60934"><ele>2088.7</ele><time>2026-03-08T14:07:50.000Z</time></trkpt>
<trkpt lat="42.100115" lon="23.609356"><ele>2088.7</ele><time>2026-03-08T14:07:51.000Z</time></trkpt>
<trkpt lat="42.100116" lon="23.609371"><ele>2087.9</ele><time>2026-03-08T14:07:52.000Z</time></trkpt>
<trkpt lat="42.100116" lon="23.609386"><ele>2087.9</ele><time>2026-03-08T14:07:53.000Z</time></trkpt>
<trkpt lat="42.100116" lon="23.609398"><ele>2087.9</ele><time>2026-03-08T14:07:54.000Z</time></trkpt>
<trkpt lat="42.100116" lon="23.609411"><ele>2087.9</ele><time>2026-03-08T14:07:55.000Z</time></trkpt>
<trkpt lat="42.100116" lon="23.609424"><ele>2087.9</ele><time>2026-03-08T14:07:56.000Z</time></trkpt>
<trkpt lat="42.100115" lon="23.609437"><ele>2087.1</ele><time>2026-03-08T14:07:57.000Z</time></trkpt>
<trkpt lat="42.100115" lon="23.60945"><ele>2087.1</ele><time>2026-03-08T14:07:58.000Z</time></trkpt>
<trkpt lat="42.100115" lon="23.609465"><ele>2087.1</ele><time>2026-03-08T14:07:59.000Z</time></trkpt>
<trkpt lat="42.100114" lon="23.60948"><ele>2087.1</ele><time>2026-03-08T14:08:00.000Z</time></trkpt>
<trkpt lat="42.100115" lon="23.609495"><ele>2087.1</ele><time>2026-03-08T14:08:01.000Z</time></trkpt>
<trkpt lat="42.100115" lon="23.609511"><ele>2086.7</ele><time>2026-03-08T14:08:02.000Z</time></trkpt>
<trkpt lat="42.100116" lon="23.609527"><ele>2086.7</ele><time>2026-03-08T14:08:03.000Z</time></trkpt>
<trkpt lat="42.100117" lon="23.609544"><ele>2086.7</ele><time>2026-03-08T14:08:04.000Z</time></trkpt>
<trkpt lat="42.100116" lon="23.60956"><ele>2086.7</ele><time>2026-03-08T14:08:05.000Z</time></trkpt>
<trkpt lat="42.100115" lon="23.609576"><ele>2086.7</ele><time>2026-03-08T14:08:06.000Z</time></trkpt>
<trkpt lat="42.100113" lon="23.609592"><ele>2086.2</ele><time>2026-03-08T14:08:07.000Z</time></trkpt>
<trkpt lat="42.10011" lon="23.609607"><ele>2086.2</ele><time>2026-03-08T14:08:08.000Z</time></trkpt>
<trkpt lat="42.100106" lon="23.609621"><ele>2086.2</ele><time>2026-03-08T14:08:09.000Z</time></trkpt>
<trkpt lat="42.100102" lon="23.609635"><ele>2086.2</ele><time>2026-03-08T14:08:10.000Z</time></trkpt>
<trkpt lat="42.100099" lon="23.60965"><ele>2086.2</ele><time>2026-03-08T14:08:11.000Z</time></trkpt>
<trkpt lat="42.100096" lon="23.609665"><ele>2085.8</ele><time>2026-03-08T14:08:12.000Z</time></trkpt>
<trkpt lat="42.100095" lon="23.60968"><ele>2085.8</ele><time>2026-03-08T14:08:13.000Z</time></trkpt>
<trkpt lat="42.100093" lon="23.609694"><ele>2085.8</ele><time>2026-03-08T14:08:14.000Z</time></trkpt>
<trkpt lat="42.100091" lon="23.609708"><ele>2085.8</ele><time>2026-03-08T14:08:15.000Z</time></trkpt>
<trkpt lat="42.100088" lon="23.609723"><ele>2085.8</ele><time>2026-03-08T14:08:16.000Z</time></trkpt>
<trkpt lat="42.100085" lon="23.609738"><ele>2085.6</ele><time>2026-03-08T14:08:17.000Z</time></trkpt>
<trkpt lat="42.100081" lon="23.609754"><ele>2085.6</ele><time>2026-03-08T14:08:18.000Z</time></trkpt>
<trkpt lat="42.100078" lon="23.609771"><ele>2085.6</ele><time>2026-03-08T14:08:19.000Z</time></trkpt>
<trkpt lat="42.100075" lon="23.609788"><ele>2085.6</ele><time>2026-03-08T14:08:20.000Z</time></trkpt>
<trkpt lat="42.100073" lon="23.609805"><ele>2085.6</ele><time>2026-03-08T14:08:21.000Z</time></trkpt>
<trkpt lat="42.100073" lon="23.60982"><ele>2085</ele><time>2026-03-08T14:08:22.000Z</time></trkpt>
<trkpt lat="42.100072" lon="23.609833"><ele>2085</ele><time>2026-03-08T14:08:23.000Z</time></trkpt>
<trkpt lat="42.10007" lon="23.609846"><ele>2085</ele><time>2026-03-08T14:08:24.000Z</time></trkpt>
<trkpt lat="42.100069" lon="23.609856"><ele>2085</ele><time>2026-03-08T14:08:25.000Z</time></trkpt>
<trkpt lat="42.100066" lon="23.609866"><ele>2085</ele><time>2026-03-08T14:08:26.000Z</time></trkpt>
<trkpt lat="42.100063" lon="23.609878"><ele>2084.4</ele><time>2026-03-08T14:08:27.000Z</time></trkpt>
<trkpt lat="42.10006" lon="23.609892"><ele>2084.4</ele><time>2026-03-08T14:08:28.000Z</time></trkpt>
<trkpt lat="42.100056" lon="23.609906"><ele>2084.4</ele><time>2026-03-08T14:08:29.000Z</time></trkpt>
<trkpt lat="42.100053" lon="23.609921"><ele>2084.4</ele><time>2026-03-08T14:08:30.000Z</time></trkpt>
<trkpt lat="42.100048" lon="23.609936"><ele>2084.4</ele><time>2026-03-08T14:08:31.000Z</time></trkpt>
<trkpt lat="42.100043" lon="23.60995"><ele>2084.1</ele><time>2026-03-08T14:08:32.000Z</time></trkpt>
<trkpt lat="42.100039" lon="23.609965"><ele>2084.1</ele><time>2026-03-08T14:08:33.000Z</time></trkpt>
<trkpt lat="42.100035" lon="23.609979"><ele>2084.1</ele><time>2026-03-08T14:08:34.000Z</time></trkpt>
<trkpt lat="42.100032" lon="23.609993"><ele>2084.1</ele><time>2026-03-08T14:08:35.000Z</time></trkpt>
<trkpt lat="42.100027" lon="23.610007"><ele>2084.1</ele><time>2026-03-08T14:08:36.000Z</time></trkpt>
<trkpt lat="42.100023" lon="23.610022"><ele>2083.7</ele><time>2026-03-08T14:08:37.000Z</time></trkpt>
<trkpt lat="42.100019" lon="23.610036"><ele>2083.7</ele><time>2026-03-08T14:08:38.000Z</time></trkpt>
<trkpt lat="42.100014" lon="23.610051"><ele>2083.7</ele><time>2026-03-08T14:08:39.000Z</time></trkpt>
<trkpt lat="42.10001" lon="23.610067"><ele>2083.7</ele><time>2026-03-08T14:08:40.000Z</time></trkpt>
<trkpt lat="42.100006" lon="23.610084"><ele>2083.7</ele><time>2026-03-08T14:08:41.000Z</time></trkpt>
<trkpt lat="42.100003" lon="23.6101"><ele>2083.3</ele><time>2026-03-08T14:08:42.000Z</time></trkpt>
<trkpt lat="42.1" lon="23.610116"><ele>2083.3</ele><time>2026-03-08T14:08:43.000Z</time></trkpt>
<trkpt lat="42.099997" lon="23.610132"><ele>2083.3</ele><time>2026-03-08T14:08:44.000Z</time></trkpt>
<trkpt lat="42.099994" lon="23.610148"><ele>2083.3</ele><time>2026-03-08T14:08:45.000Z</time></trkpt>
<trkpt lat="42.099991" lon="23.610164"><ele>2083.3</ele><time>2026-03-08T14:08:46.000Z</time></trkpt>
<trkpt lat="42.099987" lon="23.610179"><ele>2083</ele><time>2026-03-08T14:08:47.000Z</time></trkpt>
<trkpt lat="42.099983" lon="23.610194"><ele>2083</ele><time>2026-03-08T14:08:48.000Z</time></trkpt>
<trkpt lat="42.099978" lon="23.610208"><ele>2083</ele><time>2026-03-08T14:08:49.000Z</time></trkpt>
<trkpt lat="42.099973" lon="23.610221"><ele>2083</ele><time>2026-03-08T14:08:50.000Z</time></trkpt>
<trkpt lat="42.099968" lon="23.610235"><ele>2083</ele><time>2026-03-08T14:08:51.000Z</time></trkpt>
<trkpt lat="42.099963" lon="23.610248"><ele>2082.2</ele><time>2026-03-08T14:08:52.000Z</time></trkpt>
<trkpt lat="42.099958" lon="23.610261"><ele>2082.2</ele><time>2026-03-08T14:08:53.000Z</time></trkpt>
<trkpt lat="42.099953" lon="23.610275"><ele>2082.2</ele><time>2026-03-08T14:08:54.000Z</time></trkpt>
<trkpt lat="42.099948" lon="23.610288"><ele>2082.2</ele><time>2026-03-08T14:08:55.000Z</time></trkpt>
<trkpt lat="42.099942" lon="23.610302"><ele>2082.2</ele><time>2026-03-08T14:08:56.000Z</time></trkpt>
<trkpt lat="42.099937" lon="23.610315"><ele>2081.6</ele><time>2026-03-08T14:08:57.000Z</time></trkpt>
<trkpt lat="42.099932" lon="23.610329"><ele>2081.6</ele><time>2026-03-08T14:08:58.000Z</time></trkpt>
<trkpt lat="42.099926" lon="23.610344"><ele>2081.6</ele><time>2026-03-08T14:08:59.000Z</time></trkpt>
<trkpt lat="42.099922" lon="23.610359"><ele>2081.6</ele><time>2026-03-08T14:09:00.000Z</time></trkpt>
<trkpt lat="42.099917" lon="23.610374"><ele>2081.6</ele><time>2026-03-08T14:09:01.000Z</time></trkpt>
<trkpt lat="42.099913" lon="23.610389"><ele>2080.4</ele><time>2026-03-08T14:09:02.000Z</time></trkpt>
<trkpt lat="42.099909" lon="23.610405"><ele>2080.4</ele><time>2026-03-08T14:09:03.000Z</time></trkpt>
<trkpt lat="42.099905" lon="23.61042"><ele>2080.4</ele><time>2026-03-08T14:09:04.000Z</time></trkpt>
<trkpt lat="42.099901" lon="23.610434"><ele>2080.4</ele><time>2026-03-08T14:09:05.000Z</time></trkpt>
<trkpt lat="42.099897" lon="23.610448"><ele>2080.4</ele><time>2026-03-08T14:09:06.000Z</time></trkpt>
<trkpt lat="42.099893" lon="23.610463"><ele>2079.3</ele><time>2026-03-08T14:09:07.000Z</time></trkpt>
<trkpt lat="42.099888" lon="23.610478"><ele>2079.3</ele><time>2026-03-08T14:09:08.000Z</time></trkpt>
<trkpt lat="42.099884" lon="23.610493"><ele>2079.3</ele><time>2026-03-08T14:09:09.000Z</time></trkpt>
<trkpt lat="42.099879" lon="23.610511"><ele>2079.3</ele><time>2026-03-08T14:09:10.000Z</time></trkpt>
<trkpt lat="42.099875" lon="23.610528"><ele>2079.3</ele><time>2026-03-08T14:09:11.000Z</time></trkpt>
<trkpt lat="42.099871" lon="23.610545"><ele>2078.4</ele><time>2026-03-08T14:09:12.000Z</time></trkpt>
<trkpt lat="42.099867" lon="23.610561"><ele>2078.4</ele><time>2026-03-08T14:09:13.000Z</time></trkpt>
<trkpt lat="42.099862" lon="23.610576"><ele>2078.4</ele><time>2026-03-08T14:09:14.000Z</time></trkpt>
<trkpt lat="42.099857" lon="23.61059"><ele>2078.4</ele><time>2026-03-08T14:09:15.000Z</time></trkpt>
<trkpt lat="42.099852" lon="23.610604"><ele>2078.4</ele><time>2026-03-08T14:09:16.000Z</time></trkpt>
<trkpt lat="42.099847" lon="23.610619"><ele>2078</ele><time>2026-03-08T14:09:17.000Z</time></trkpt>
<trkpt lat="42.099841" lon="23.610635"><ele>2078</ele><time>2026-03-08T14:09:18.000Z</time></trkpt>
<trkpt lat="42.099836" lon="23.610649"><ele>2078</ele><time>2026-03-08T14:09:19.000Z</time></trkpt>
<trkpt lat="42.099831" lon="23.610664"><ele>2078</ele><time>2026-03-08T14:09:20.000Z</time></trkpt>
<trkpt lat="42.099825" lon="23.610677"><ele>2078</ele><time>2026-03-08T14:09:21.000Z</time></trkpt>
<trkpt lat="42.099818" lon="23.61069"><ele>2077</ele><time>2026-03-08T14:09:22.000Z</time></trkpt>
<trkpt lat="42.09981" lon="23.610703"><ele>2077</ele><time>2026-03-08T14:09:23.000Z</time></trkpt>
<trkpt lat="42.099803" lon="23.610715"><ele>2077</ele><time>2026-03-08T14:09:24.000Z</time></trkpt>
<trkpt lat="42.099796" lon="23.610727"><ele>2077</ele><time>2026-03-08T14:09:25.000Z</time></trkpt>
<trkpt lat="42.099791" lon="23.610741"><ele>2077</ele><time>2026-03-08T14:09:26.000Z</time></trkpt>
<trkpt lat="42.099786" lon="23.610754"><ele>2076.4</ele><time>2026-03-08T14:09:27.000Z</time></trkpt>
<trkpt lat="42.099781" lon="23.610766"><ele>2076.4</ele><time>2026-03-08T14:09:28.000Z</time></trkpt>
<trkpt lat="42.099775" lon="23.610779"><ele>2076.4</ele><time>2026-03-08T14:09:29.000Z</time></trkpt>
<trkpt lat="42.099769" lon="23.610793"><ele>2076.4</ele><time>2026-03-08T14:09:30.000Z</time></trkpt>
<trkpt lat="42.099762" lon="23.610805"><ele>2076.4</ele><time>2026-03-08T14:09:31.000Z</time></trkpt>
<trkpt lat="42.099754" lon="23.610817"><ele>2075.4</ele><time>2026-03-08T14:09:32.000Z</time></trkpt>
<trkpt lat="42.099747" lon="23.610829"><ele>2075.4</ele><time>2026-03-08T14:09:33.000Z</time></trkpt>
<trkpt lat="42.09974" lon="23.610841"><ele>2075.4</ele><time>2026-03-08T14:09:34.000Z</time></trkpt>
<trkpt lat="42.099734" lon="23.610853"><ele>2075.4</ele><time>2026-03-08T14:09:35.000Z</time></trkpt>
<trkpt lat="42.09973" lon="23.610865"><ele>2075.4</ele><time>2026-03-08T14:09:36.000Z</time></trkpt>
<trkpt lat="42.099727" lon="23.610879"><ele>2074.6</ele><time>2026-03-08T14:09:37.000Z</time></trkpt>
<trkpt lat="42.099723" lon="23.610893"><ele>2074.6</ele><time>2026-03-08T14:09:38.000Z</time></trkpt>
<trkpt lat="42.09972" lon="23.610906"><ele>2074.6</ele><time>2026-03-08T14:09:39.000Z</time></trkpt>
<trkpt lat="42.099717" lon="23.61092"><ele>2074.6</ele><time>2026-03-08T14:09:40.000Z</time></trkpt>
<trkpt lat="42.099713" lon="23.610933"><ele>2074.6</ele><time>2026-03-08T14:09:41.000Z</time></trkpt>
<trkpt lat="42.099708" lon="23.610945"><ele>2074.1</ele><time>2026-03-08T14:09:42.000Z</time></trkpt>
<trkpt lat="42.099704" lon="23.610956"><ele>2074.1</ele><time>2026-03-08T14:09:43.000Z</time></trkpt>
<trkpt lat="42.0997" lon="23.610967"><ele>2074.1</ele><time>2026-03-08T14:09:44.000Z</time></trkpt>
<trkpt lat="42.099697" lon="23.61098"><ele>2074.1</ele><time>2026-03-08T14:09:45.000Z</time></trkpt>
<trkpt lat="42.099696" lon="23.610993"><ele>2074.1</ele><time>2026-03-08T14:09:46.000Z</time></trkpt>
<trkpt lat="42.099696" lon="23.611007"><ele>2073.9</ele><time>2026-03-08T14:09:47.000Z</time></trkpt>
<trkpt lat="42.099695" lon="23.611022"><ele>2073.9</ele><time>2026-03-08T14:09:48.000Z</time></trkpt>
<trkpt lat="42.099693" lon="23.611037"><ele>2073.9</ele><time>2026-03-08T14:09:49.000Z</time></trkpt>
<trkpt lat="42.099691" lon="23.611051"><ele>2073.9</ele><time>2026-03-08T14:09:50.000Z</time></trkpt>
<trkpt lat="42.099687" lon="23.611064"><ele>2073.9</ele><time>2026-03-08T14:09:51.000Z</time></trkpt>
<trkpt lat="42.099682" lon="23.611076"><ele>2073.3</ele><time>2026-03-08T14:09:52.000Z</time></trkpt>
<trkpt lat="42.099678" lon="23.611089"><ele>2073.3</ele><time>2026-03-08T14:09:53.000Z</time></trkpt>
<trkpt lat="42.099673" lon="23.611102"><ele>2073.3</ele><time>2026-03-08T14:09:54.000Z</time></trkpt>
<trkpt lat="42.099669" lon="23.611114"><ele>2073.3</ele><time>2026-03-08T14:09:55.000Z</time></trkpt>
<trkpt lat="42.099664" lon="23.611127"><ele>2073.3</ele><time>2026-03-08T14:09:56.000Z</time></trkpt>
<trkpt lat="42.099661" lon="23.611139"><ele>2073</ele><time>2026-03-08T14:09:57.000Z</time></trkpt>
<trkpt lat="42.099657" lon="23.611151"><ele>2073</ele><time>2026-03-08T14:09:58.000Z</time></trkpt>
<trkpt lat="42.099654" lon="23.611162"><ele>2073</ele><time>2026-03-08T14:09:59.000Z</time></trkpt>
<trkpt lat="42.09965" lon="23.611175"><ele>2073</ele><time>2026-03-08T14:10:00.000Z</time></trkpt>
<trkpt lat="42.099647" lon="23.611189"><ele>2073</ele><time>2026-03-08T14:10:01.000Z</time></trkpt>
<trkpt lat="42.099643" lon="23.611203"><ele>2072.2</ele><time>2026-03-08T14:10:02.000Z</time></trkpt>
<trkpt lat="42.099639" lon="23.611219"><ele>2072.2</ele><time>2026-03-08T14:10:03.000Z</time></trkpt>
<trkpt lat="42.099635" lon="23.611236"><ele>2072.2</ele><time>2026-03-08T14:10:04.000Z</time></trkpt>
<trkpt lat="42.09963" lon="23.611252"><ele>2072.2</ele><time>2026-03-08T14:10:05.000Z</time></trkpt>
<trkpt lat="42.099627" lon="23.611268"><ele>2072.2</ele><time>2026-03-08T14:10:06.000Z</time></trkpt>
<trkpt lat="42.099623" lon="23.611283"><ele>2071.5</ele><time>2026-03-08T14:10:07.000Z</time></trkpt>
<trkpt lat="42.09962" lon="23.611299"><ele>2071.5</ele><time>2026-03-08T14:10:08.000Z</time></trkpt>
<trkpt lat="42.099617" lon="23.611314"><ele>2071.5</ele><time>2026-03-08T14:10:09.000Z</time></trkpt>
<trkpt lat="42.099614" lon="23.611331"><ele>2071.5</ele><time>2026-03-08T14:10:10.000Z</time></trkpt>
<trkpt lat="42.099611" lon="23.611347"><ele>2071.5</ele><time>2026-03-08T14:10:11.000Z</time></trkpt>
<trkpt lat="42.099608" lon="23.611364"><ele>2071.4</ele><time>2026-03-08T14:10:12.000Z</time></trkpt>
<trkpt lat="42.099604" lon="23.61138"><ele>2071.4</ele><time>2026-03-08T14:10:13.000Z</time></trkpt>
<trkpt lat="42.099601" lon="23.611395"><ele>2071.4</ele><time>2026-03-08T14:10:14.000Z</time></trkpt>
<trkpt lat="42.099597" lon="23.611409"><ele>2071.4</ele><time>2026-03-08T14:10:15.000Z</time></trkpt>
<trkpt lat="42.099593" lon="23.611421"><ele>2071.4</ele><time>2026-03-08T14:10:16.000Z</time></trkpt>
<trkpt lat="42.099587" lon="23.611434"><ele>2071.1</ele><time>2026-03-08T14:10:17.000Z</time></trkpt>
<trkpt lat="42.09958" lon="23.611447"><ele>2071.1</ele><time>2026-03-08T14:10:18.000Z</time></trkpt>
<trkpt lat="42.099572" lon="23.61146"><ele>2071.1</ele><time>2026-03-08T14:10:19.000Z</time></trkpt>
<trkpt lat="42.099564" lon="23.611472"><ele>2071.1</ele><time>2026-03-08T14:10:20.000Z</time></trkpt>
<trkpt lat="42.099555" lon="23.611484"><ele>2071.1</ele><time>2026-03-08T14:10:21.000Z</time></trkpt>
<trkpt lat="42.099546" lon="23.611496"><ele>2070.9</ele><time>2026-03-08T14:10:22.000Z</time></trkpt>
<trkpt lat="42.099538" lon="23.611508"><ele>2070.9</ele><time>2026-03-08T14:10:23.000Z</time></trkpt>
<trkpt lat="42.09953" lon="23.61152"><ele>2070.9</ele><time>2026-03-08T14:10:24.000Z</time></trkpt>
<trkpt lat="42.099523" lon="23.611532"><ele>2070.9</ele><time>2026-03-08T14:10:25.000Z</time></trkpt>
<trkpt lat="42.099515" lon="23.611544"><ele>2070.9</ele><time>2026-03-08T14:10:26.000Z</time></trkpt>
<trkpt lat="42.099508" lon="23.611556"><ele>2070.7</ele><time>2026-03-08T14:10:27.000Z</time></trkpt>
<trkpt lat="42.099501" lon="23.611567"><ele>2070.7</ele><time>2026-03-08T14:10:28.000Z</time></trkpt>
<trkpt lat="42.099494" lon="23.611577"><ele>2070.7</ele><time>2026-03-08T14:10:29.000Z</time></trkpt>
<trkpt lat="42.099487" lon="23.611586"><ele>2070.7</ele><time>2026-03-08T14:10:30.000Z</time></trkpt>
<trkpt lat="42.099481" lon="23.611595"><ele>2070.7</ele><time>2026-03-08T14:10:31.000Z</time></trkpt>
<trkpt lat="42.099474" lon="23.611604"><ele>2070.3</ele><time>2026-03-08T14:10:32.000Z</time></trkpt>
<trkpt lat="42.099468" lon="23.611614"><ele>2070.3</ele><time>2026-03-08T14:10:33.000Z</time></trkpt>
<trkpt lat="42.099462" lon="23.611625"><ele>2070.3</ele><time>2026-03-08T14:10:34.000Z</time></trkpt>
<trkpt lat="42.099455" lon="23.611637"><ele>2070.3</ele><time>2026-03-08T14:10:35.000Z</time></trkpt>
<trkpt lat="42.099448" lon="23.611649"><ele>2070.3</ele><time>2026-03-08T14:10:36.000Z</time></trkpt>
<trkpt lat="42.099441" lon="23.611662"><ele>2070.1</ele><time>2026-03-08T14:10:37.000Z</time></trkpt>
<trkpt lat="42.099433" lon="23.611674"><ele>2070.1</ele><time>2026-03-08T14:10:38.000Z</time></trkpt>
<trkpt lat="42.099426" lon="23.611687"><ele>2070.1</ele><time>2026-03-08T14:10:39.000Z</time></trkpt>
<trkpt lat="42.099418" lon="23.6117"><ele>2070.1</ele><time>2026-03-08T14:10:40.000Z</time></trkpt>
<trkpt lat="42.09941" lon="23.611714"><ele>2070.1</ele><time>2026-03-08T14:10:41.000Z</time></trkpt>
<trkpt lat="42.099401" lon="23.611727"><ele>2070</ele><time>2026-03-08T14:10:42.000Z</time></trkpt>
<trkpt lat="42.099392" lon="23.611739"><ele>2070</ele><time>2026-03-08T14:10:43.000Z</time></trkpt>
<trkpt lat="42.099383" lon="23.611751"><ele>2070</ele><time>2026-03-08T14:10:44.000Z</time></trkpt>
<trkpt lat="42.099375" lon="23.611761"><ele>2070</ele><time>2026-03-08T14:10:45.000Z</time></trkpt>
<trkpt lat="42.099368" lon="23.611771"><ele>2070</ele><time>2026-03-08T14:10:46.000Z</time></trkpt>
<trkpt lat="42.09936" lon="23.611781"><ele>2069.7</ele><time>2026-03-08T14:10:47.000Z</time></trkpt>
<trkpt lat="42.099354" lon="23.61179"><ele>2069.7</ele><time>2026-03-08T14:10:48.000Z</time></trkpt>
<trkpt lat="42.099347" lon="23.6118"><ele>2069.7</ele><time>2026-03-08T14:10:49.000Z</time></trkpt>
<trkpt lat="42.099341" lon="23.611809"><ele>2069.7</ele><time>2026-03-08T14:10:50.000Z</time></trkpt>
<trkpt lat="42.099334" lon="23.611819"><ele>2069.7</ele><time>2026-03-08T14:10:51.000Z</time></trkpt>
<trkpt lat="42.099327" lon="23.611828"><ele>2069.5</ele><time>2026-03-08T14:10:52.000Z</time></trkpt>
<trkpt lat="42.09932" lon="23.611838"><ele>2069.5</ele><time>2026-03-08T14:10:53.000Z</time></trkpt>
<trkpt lat="42.099314" lon="23.61185"><ele>2069.5</ele><time>2026-03-08T14:10:54.000Z</time></trkpt>
<trkpt lat="42.099306" lon="23.611862"><ele>2069.5</ele><time>2026-03-08T14:10:55.000Z</time></trkpt>
<trkpt lat="42.099299" lon="23.611875"><ele>2069.5</ele><time>2026-03-08T14:10:56.000Z</time></trkpt>
<trkpt lat="42.099292" lon="23.611888"><ele>2069.4</ele><time>2026-03-08T14:10:57.000Z</time></trkpt>
<trkpt lat="42.099285" lon="23.6119"><ele>2069.4</ele><time>2026-03-08T14:10:58.000Z</time></trkpt>
<trkpt lat="42.099277" lon="23.611911"><ele>2069.4</ele><time>2026-03-08T14:10:59.000Z</time></trkpt>
<trkpt lat="42.09927" lon="23.611922"><ele>2069.4</ele><time>2026-03-08T14:11:00.000Z</time></trkpt>
<trkpt lat="42.099263" lon="23.611933"><ele>2069.4</ele><time>2026-03-08T14:11:01.000Z</time></trkpt>
<trkpt lat="42.099256" lon="23.611945"><ele>2069.2</ele><time>2026-03-08T14:11:02.000Z</time></trkpt>
<trkpt lat="42.099249" lon="23.611957"><ele>2069.2</ele><time>2026-03-08T14:11:03.000Z</time></trkpt>
<trkpt lat="42.099243" lon="23.61197"><ele>2069.2</ele><time>2026-03-08T14:11:04.000Z</time></trkpt>
<trkpt lat="42.099236" lon="23.611982"><ele>2069.2</ele><time>2026-03-08T14:11:05.000Z</time></trkpt>
<trkpt lat="42.09923" lon="23.611993"><ele>2069.2</ele><time>2026-03-08T14:11:06.000Z</time></trkpt>
<trkpt lat="42.099223" lon="23.612005"><ele>2068.7</ele><time>2026-03-08T14:11:07.000Z</time></trkpt>
<trkpt lat="42.099216" lon="23.612016"><ele>2068.7</ele><time>2026-03-08T14:11:08.000Z</time></trkpt>
<trkpt lat="42.099209" lon="23.612027"><ele>2068.7</ele><time>2026-03-08T14:11:09.000Z</time></trkpt>
<trkpt lat="42.099202" lon="23.612038"><ele>2068.7</ele><time>2026-03-08T14:11:10.000Z</time></trkpt>
<trkpt lat="42.099196" lon="23.61205"><ele>2068.7</ele><time>2026-03-08T14:11:11.000Z</time></trkpt>
<trkpt lat="42.099189" lon="23.612061"><ele>2068.4</ele><time>2026-03-08T14:11:12.000Z</time></trkpt>
<trkpt lat="42.099183" lon="23.612072"><ele>2068.4</ele><time>2026-03-08T14:11:13.000Z</time></trkpt>
<trkpt lat="42.099176" lon="23.612084"><ele>2068.4</ele><time>2026-03-08T14:11:14.000Z</time></trkpt>
<trkpt lat="42.099169" lon="23.612096"><ele>2068.4</ele><time>2026-03-08T14:11:15.000Z</time></trkpt>
<trkpt lat="42.099162" lon="23.612107"><ele>2068.4</ele><time>2026-03-08T14:11:16.000Z</time></trkpt>
<trkpt lat="42.099154" lon="23.612119"><ele>2067.7</ele><time>2026-03-08T14:11:17.000Z</time></trkpt>
<trkpt lat="42.099147" lon="23.61213"><ele>2067.7</ele><time>2026-03-08T14:11:18.000Z</time></trkpt>
<trkpt lat="42.09914" lon="23.612141"><ele>2067.7</ele><time>2026-03-08T14:11:19.000Z</time></trkpt>
<trkpt lat="42.099133" lon="23.612151"><ele>2067.7</ele><time>2026-03-08T14:11:20.000Z</time></trkpt>
<trkpt lat="42.099126" lon="23.612162"><ele>2067.7</ele><time>2026-03-08T14:11:21.000Z</time></trkpt>
<trkpt lat="42.099119" lon="23.612173"><ele>2067.2</ele><time>2026-03-08T14:11:22.000Z</time></trkpt>
<trkpt lat="42.099112" lon="23.612183"><ele>2067.2</ele><time>2026-03-08T14:11:23.000Z</time></trkpt>
<trkpt lat="42.099105" lon="23.612194"><ele>2067.2</ele><time>2026-03-08T14:11:24.000Z</time></trkpt>
<trkpt lat="42.099099" lon="23.612204"><ele>2067.2</ele><time>2026-03-08T14:11:25.000Z</time></trkpt>
<trkpt lat="42.099092" lon="23.612215"><ele>2067.2</ele><time>2026-03-08T14:11:26.000Z</time></trkpt>
<trkpt lat="42.099086" lon="23.612225"><ele>2067</ele><time>2026-03-08T14:11:27.000Z</time></trkpt>
<trkpt lat="42.09908" lon="23.612236"><ele>2067</ele><time>2026-03-08T14:11:28.000Z</time></trkpt>
<trkpt lat="42.099074" lon="23.612245"><ele>2067</ele><time>2026-03-08T14:11:29.000Z</time></trkpt>
<trkpt lat="42.099068" lon="23.612254"><ele>2067</ele><time>2026-03-08T14:11:30.000Z</time></trkpt>
<trkpt lat="42.099063" lon="23.612263"><ele>2067</ele><time>2026-03-08T14:11:31.000Z</time></trkpt>
<trkpt lat="42.099058" lon="23.612273"><ele>2066.9</ele><time>2026-03-08T14:11:32.000Z</time></trkpt>
<trkpt lat="42.099052" lon="23.612282"><ele>2066.9</ele><time>2026-03-08T14:11:33.000Z</time></trkpt>
<trkpt lat="42.099046" lon="23.612293"><ele>2066.9</ele><time>2026-03-08T14:11:34.000Z</time></trkpt>
<trkpt lat="42.09904" lon="23.612304"><ele>2066.9</ele><time>2026-03-08T14:11:35.000Z</time></trkpt>
<trkpt lat="42.099033" lon="23.612315"><ele>2066.9</ele><time>2026-03-08T14:11:36.000Z</time></trkpt>
<trkpt lat="42.099026" lon="23.612326"><ele>2066.9</ele><time>2026-03-08T14:11:37.000Z</time></trkpt>
<trkpt lat="42.099019" lon="23.612338"><ele>2066.9</ele><time>2026-03-08T14:11:38.000Z</time></trkpt>
<trkpt lat="42.099013" lon="23.612351"><ele>2066.9</ele><time>2026-03-08T14:11:39.000Z</time></trkpt>
<trkpt lat="42.099006" lon="23.612364"><ele>2066.9</ele><time>2026-03-08T14:11:40.000Z</time></trkpt>
<trkpt lat="42.099" lon="23.612377"><ele>2066.9</ele><time>2026-03-08T14:11:41.000Z</time></trkpt>
<trkpt lat="42.098993" lon="23.612391"><ele>2067</ele><time>2026-03-08T14:11:42.000Z</time></trkpt>
<trkpt lat="42.098987" lon="23.612405"><ele>2067</ele><time>2026-03-08T14:11:43.000Z</time></trkpt>
<trkpt lat="42.098981" lon="23.612418"><ele>2067</ele><time>2026-03-08T14:11:44.000Z</time></trkpt>
<trkpt lat="42.098975" lon="23.612432"><ele>2067</ele><time>2026-03-08T14:11:45.000Z</time></trkpt>
<trkpt lat="42.098968" lon="23.612445"><ele>2067</ele><time>2026-03-08T14:11:46.000Z</time></trkpt>
<trkpt lat="42.098961" lon="23.612458"><ele>2066.9</ele><time>2026-03-08T14:11:47.000Z</time></trkpt>
<trkpt lat="42.098953" lon="23.612471"><ele>2066.9</ele><time>2026-03-08T14:11:48.000Z</time></trkpt>
<trkpt lat="42.098946" lon="23.612483"><ele>2066.9</ele><time>2026-03-08T14:11:49.000Z</time></trkpt>
<trkpt lat="42.098939" lon="23.612494"><ele>2066.9</ele><time>2026-03-08T14:11:50.000Z</time></trkpt>
<trkpt lat="42.098932" lon="23.612506"><ele>2066.9</ele><time>2026-03-08T14:11:51.000Z</time></trkpt>
<trkpt lat="42.098925" lon="23.612517"><ele>2066.6</ele><time>2026-03-08T14:11:52.000Z</time></trkpt>
<trkpt lat="42.098917" lon="23.612528"><ele>2066.6</ele><time>2026-03-08T14:11:53.000Z</time></trkpt>
<trkpt lat="42.098909" lon="23.61254"><ele>2066.6</ele><time>2026-03-08T14:11:54.000Z</time></trkpt>
<trkpt lat="42.098901" lon="23.612552"><ele>2066.6</ele><time>2026-03-08T14:11:55.000Z</time></trkpt>
<trkpt lat="42.098893" lon="23.612564"><ele>2066.6</ele><time>2026-03-08T14:11:56.000Z</time></trkpt>
<trkpt lat="42.098885" lon="23.612578"><ele>2066</ele><time>2026-03-08T14:11:57.000Z</time></trkpt>
<trkpt lat="42.098878" lon="23.612591"><ele>2066</ele><time>2026-03-08T14:11:58.000Z</time></trkpt>
<trkpt lat="42.098872" lon="23.612605"><ele>2066</ele><time>2026-03-08T14:11:59.000Z</time></trkpt>
<trkpt lat="42.098865" lon="23.612618"><ele>2066</ele><time>2026-03-08T14:12:00.000Z</time></trkpt>
<trkpt lat="42.098859" lon="23.61263"><ele>2066</ele><time>2026-03-08T14:12:01.000Z</time></trkpt>
<trkpt lat="42.098852" lon="23.612642"><ele>2065.6</ele><time>2026-03-08T14:12:02.000Z</time></trkpt>
<trkpt lat="42.098844" lon="23.612654"><ele>2065.6</ele><time>2026-03-08T14:12:03.000Z</time></trkpt>
<trkpt lat="42.098837" lon="23.612667"><ele>2065.6</ele><time>2026-03-08T14:12:04.000Z</time></trkpt>
<trkpt lat="42.09883" lon="23.612679"><ele>2065.6</ele><time>2026-03-08T14:12:05.000Z</time></trkpt>
<trkpt lat="42.098822" lon="23.612691"><ele>2065.6</ele><time>2026-03-08T14:12:06.000Z</time></trkpt>
<trkpt lat="42.098814" lon="23.612703"><ele>2064.8</ele><time>2026-03-08T14:12:07.000Z</time></trkpt>
<trkpt lat="42.098806" lon="23.612713"><ele>2064.8</ele><time>2026-03-08T14:12:08.000Z</time></trkpt>
<trkpt lat="42.098798" lon="23.612722"><ele>2064.8</ele><time>2026-03-08T14:12:09.000Z</time></trkpt>
<trkpt lat="42.098789" lon="23.61273"><ele>2064.8</ele><time>2026-03-08T14:12:10.000Z</time></trkpt>
<trkpt lat="42.09878" lon="23.612738"><ele>2064.8</ele><time>2026-03-08T14:12:11.000Z</time></trkpt>
<trkpt lat="42.098773" lon="23.612747"><ele>2063.9</ele><time>2026-03-08T14:12:12.000Z</time></trkpt>
<trkpt lat="42.098765" lon="23.612756"><ele>2063.9</ele><time>2026-03-08T14:12:13.000Z</time></trkpt>
<trkpt lat="42.098758" lon="23.612766"><ele>2063.9</ele><time>2026-03-08T14:12:14.000Z</time></trkpt>
<trkpt lat="42.098751" lon="23.612777"><ele>2063.9</ele><time>2026-03-08T14:12:15.000Z</time></trkpt>
<trkpt lat="42.098745" lon="23.612788"><ele>2063.9</ele><time>2026-03-08T14:12:16.000Z</time></trkpt>
<trkpt lat="42.098738" lon="23.612799"><ele>2063.5</ele><time>2026-03-08T14:12:17.000Z</time></trkpt>
<trkpt lat="42.098732" lon="23.61281"><ele>2063.5</ele><time>2026-03-08T14:12:18.000Z</time></trkpt>
<trkpt lat="42.098726" lon="23.612821"><ele>2063.5</ele><time>2026-03-08T14:12:19.000Z</time></trkpt>
<trkpt lat="42.098719" lon="23.612833"><ele>2063.5</ele><time>2026-03-08T14:12:20.000Z</time></trkpt>
<trkpt lat="42.098712" lon="23.612845"><ele>2063.5</ele><time>2026-03-08T14:12:21.000Z</time></trkpt>
<trkpt lat="42.098705" lon="23.612858"><ele>2062.7</ele><time>2026-03-08T14:12:22.000Z</time></trkpt>
<trkpt lat="42.098699" lon="23.612871"><ele>2062.7</ele><time>2026-03-08T14:12:23.000Z</time></trkpt>
<trkpt lat="42.098693" lon="23.612883"><ele>2062.7</ele><time>2026-03-08T14:12:24.000Z</time></trkpt>
<trkpt lat="42.098688" lon="23.612895"><ele>2062.7</ele><time>2026-03-08T14:12:25.000Z</time></trkpt>
<trkpt lat="42.098682" lon="23.612907"><ele>2062.7</ele><time>2026-03-08T14:12:26.000Z</time></trkpt>
<trkpt lat="42.098676" lon="23.612917"><ele>2062</ele><time>2026-03-08T14:12:27.000Z</time></trkpt>
<trkpt lat="42.09867" lon="23.612928"><ele>2062</ele><time>2026-03-08T14:12:28.000Z</time></trkpt>
<trkpt lat="42.098663" lon="23.612939"><ele>2062</ele><time>2026-03-08T14:12:29.000Z</time></trkpt>
<trkpt lat="42.098655" lon="23.612949"><ele>2062</ele><time>2026-03-08T14:12:30.000Z</time></trkpt>
<trkpt lat="42.098648" lon="23.612959"><ele>2062</ele><time>2026-03-08T14:12:31.000Z</time></trkpt>
<trkpt lat="42.098639" lon="23.612971"><ele>2061.7</ele><time>2026-03-08T14:12:32.000Z</time></trkpt>
<trkpt lat="42.098631" lon="23.612982"><ele>2061.7</ele><time>2026-03-08T14:12:33.000Z</time></trkpt>
<trkpt lat="42.098622" lon="23.612992"><ele>2061.7</ele><time>2026-03-08T14:12:34.000Z</time></trkpt>
<trkpt lat="42.098614" lon="23.613003"><ele>2061.7</ele><time>2026-03-08T14:12:35.000Z</time></trkpt>
<trkpt lat="42.098606" lon="23.613012"><ele>2061.7</ele><time>2026-03-08T14:12:36.000Z</time></trkpt>
<trkpt lat="42.098597" lon="23.613021"><ele>2061.1</ele><time>2026-03-08T14:12:37.000Z</time></trkpt>
<trkpt lat="42.098589" lon="23.613029"><ele>2061.1</ele><time>2026-03-08T14:12:38.000Z</time></trkpt>
<trkpt lat="42.098581" lon="23.613037"><ele>2061.1</ele><time>2026-03-08T14:12:39.000Z</time></trkpt>
<trkpt lat="42.098574" lon="23.613044"><ele>2061.1</ele><time>2026-03-08T14:12:40.000Z</time></trkpt>
<trkpt lat="42.098566" lon="23.613052"><ele>2061.1</ele><time>2026-03-08T14:12:41.000Z</time></trkpt>
<trkpt lat="42.098557" lon="23.613059"><ele>2060.7</ele><time>2026-03-08T14:12:42.000Z</time></trkpt>
<trkpt lat="42.098549" lon="23.613067"><ele>2060.7</ele><time>2026-03-08T14:12:43.000Z</time></trkpt>
<trkpt lat="42.09854" lon="23.613075"><ele>2060.7</ele><time>2026-03-08T14:12:44.000Z</time></trkpt>
<trkpt lat="42.09853" lon="23.613083"><ele>2060.7</ele><time>2026-03-08T14:12:45.000Z</time></trkpt>
<trkpt lat="42.09852" lon="23.613092"><ele>2060.7</ele><time>2026-03-08T14:12:46.000Z</time></trkpt>
<trkpt lat="42.098511" lon="23.613102"><ele>2060.4</ele><time>2026-03-08T14:12:47.000Z</time></trkpt>
<trkpt lat="42.0985" lon="23.613111"><ele>2060.4</ele><time>2026-03-08T14:12:48.000Z</time></trkpt>
<trkpt lat="42.098489" lon="23.613122"><ele>2060.4</ele><time>2026-03-08T14:12:49.000Z</time></trkpt>
<trkpt lat="42.098477" lon="23.613133"><ele>2060.4</ele><time>2026-03-08T14:12:50.000Z</time></trkpt>
<trkpt lat="42.098465" lon="23.613143"><ele>2060.4</ele><time>2026-03-08T14:12:51.000Z</time></trkpt>
<trkpt lat="42.098454" lon="23.613153"><ele>2059.9</ele><time>2026-03-08T14:12:52.000Z</time></trkpt>
<trkpt lat="42.098442" lon="23.613162"><ele>2059.9</ele><time>2026-03-08T14:12:53.000Z</time></trkpt>
<trkpt lat="42.09843" lon="23.613172"><ele>2059.9</ele><time>2026-03-08T14:12:54.000Z</time></trkpt>
<trkpt lat="42.098419" lon="23.613181"><ele>2059.9</ele><time>2026-03-08T14:12:55.000Z</time></trkpt>
<trkpt lat="42.098407" lon="23.613189"><ele>2059.9</ele><time>2026-03-08T14:12:56.000Z</time></trkpt>
<trkpt lat="42.098396" lon="23.613198"><ele>2059.2</ele><time>2026-03-08T14:12:57.000Z</time></trkpt>
<trkpt lat="42.098384" lon="23.613206"><ele>2059.2</ele><time>2026-03-08T14:12:58.000Z</time></trkpt>
<trkpt lat="42.098372" lon="23.613214"><ele>2059.2</ele><time>2026-03-08T14:12:59.000Z</time></trkpt>
<trkpt lat="42.098361" lon="23.613223"><ele>2059.2</ele><time>2026-03-08T14:13:00.000Z</time></trkpt>
<trkpt lat="42.098349" lon="23.613231"><ele>2059.2</ele><time>2026-03-08T14:13:01.000Z</time></trkpt>
<trkpt lat="42.098338" lon="23.61324"><ele>2058.8</ele><time>2026-03-08T14:13:02.000Z</time></trkpt>
<trkpt lat="42.098328" lon="23.613249"><ele>2058.8</ele><time>2026-03-08T14:13:03.000Z</time></trkpt>
<trkpt lat="42.098318" lon="23.613259"><ele>2058.8</ele><time>2026-03-08T14:13:04.000Z</time></trkpt>
<trkpt lat="42.098309" lon="23.61327"><ele>2058.8</ele><time>2026-03-08T14:13:05.000Z</time></trkpt>
<trkpt lat="42.0983" lon="23.613281"><ele>2058.8</ele><time>2026-03-08T14:13:06.000Z</time></trkpt>
<trkpt lat="42.098291" lon="23.613291"><ele>2057.5</ele><time>2026-03-08T14:13:07.000Z</time></trkpt>
<trkpt lat="42.098281" lon="23.613302"><ele>2057.5</ele><time>2026-03-08T14:13:08.000Z</time></trkpt>
<trkpt lat="42.098272" lon="23.613312"><ele>2057.5</ele><time>2026-03-08T14:13:09.000Z</time></trkpt>
<trkpt lat="42.098262" lon="23.613323"><ele>2057.5</ele><time>2026-03-08T14:13:10.000Z</time></trkpt>
<trkpt lat="42.098252" lon="23.613334"><ele>2057.5</ele><time>2026-03-08T14:13:11.000Z</time></trkpt>
<trkpt lat="42.098242" lon="23.613346"><ele>2055.9</ele><time>2026-03-08T14:13:12.000Z</time></trkpt>
<trkpt lat="42.098232" lon="23.613358"><ele>2055.9</ele><time>2026-03-08T14:13:13.000Z</time></trkpt>
<trkpt lat="42.098223" lon="23.61337"><ele>2055.9</ele><time>2026-03-08T14:13:14.000Z</time></trkpt>
<trkpt lat="42.098213" lon="23.613381"><ele>2055.9</ele><time>2026-03-08T14:13:15.000Z</time></trkpt>
<trkpt lat="42.098202" lon="23.613392"><ele>2055.9</ele><time>2026-03-08T14:13:16.000Z</time></trkpt>
<trkpt lat="42.098192" lon="23.613402"><ele>2055.2</ele><time>2026-03-08T14:13:17.000Z</time></trkpt>
<trkpt lat="42.098183" lon="23.613412"><ele>2055.2</ele><time>2026-03-08T14:13:18.000Z</time></trkpt>
<trkpt lat="42.098173" lon="23.613422"><ele>2055.2</ele><time>2026-03-08T14:13:19.000Z</time></trkpt>
<trkpt lat="42.098163" lon="23.61343"><ele>2055.2</ele><time>2026-03-08T14:13:20.000Z</time></trkpt>
<trkpt lat="42.098153" lon="23.613439"><ele>2055.2</ele><time>2026-03-08T14:13:21.000Z</time></trkpt>
<trkpt lat="42.098144" lon="23.613447"><ele>2053.8</ele><time>2026-03-08T14:13:22.000Z</time></trkpt>
<trkpt lat="42.098136" lon="23.613456"><ele>2053.8</ele><time>2026-03-08T14:13:23.000Z</time></trkpt>
<trkpt lat="42.098128" lon="23.613465"><ele>2053.8</ele><time>2026-03-08T14:13:24.000Z</time></trkpt>
<trkpt lat="42.09812" lon="23.613476"><ele>2053.8</ele><time>2026-03-08T14:13:25.000Z</time></trkpt>
<trkpt lat="42.098113" lon="23.613486"><ele>2053.8</ele><time>2026-03-08T14:13:26.000Z</time></trkpt>
<trkpt lat="42.098106" lon="23.613497"><ele>2052.5</ele><time>2026-03-08T14:13:27.000Z</time></trkpt>
<trkpt lat="42.098098" lon="23.613507"><ele>2052.5</ele><time>2026-03-08T14:13:28.000Z</time></trkpt>
<trkpt lat="42.09809" lon="23.613519"><ele>2052.5</ele><time>2026-03-08T14:13:29.000Z</time></trkpt>
<trkpt lat="42.098082" lon="23.61353"><ele>2052.5</ele><time>2026-03-08T14:13:30.000Z</time></trkpt>
<trkpt lat="42.098074" lon="23.613542"><ele>2052.5</ele><time>2026-03-08T14:13:31.000Z</time></trkpt>
<trkpt lat="42.098065" lon="23.613555"><ele>2051.8</ele><time>2026-03-08T14:13:32.000Z</time></trkpt>
<trkpt lat="42.098057" lon="23.613569"><ele>2051.8</ele><time>2026-03-08T14:13:33.000Z</time></trkpt>
<trkpt lat="42.098049" lon="23.613581"><ele>2051.8</ele><time>2026-03-08T14:13:34.000Z</time></trkpt>
<trkpt lat="42.098041" lon="23.613593"><ele>2051.8</ele><time>2026-03-08T14:13:35.000Z</time></trkpt>
<trkpt lat="42.098033" lon="23.613605"><ele>2051.8</ele><time>2026-03-08T14:13:36.000Z</time></trkpt>
<trkpt lat="42.098024" lon="23.613617"><ele>2050.6</ele><time>2026-03-08T14:13:37.000Z</time></trkpt>
<trkpt lat="42.098015" lon="23.613628"><ele>2050.6</ele><time>2026-03-08T14:13:38.000Z</time></trkpt>
<trkpt lat="42.098006" lon="23.61364"><ele>2050.6</ele><time>2026-03-08T14:13:39.000Z</time></trkpt>
<trkpt lat="42.097997" lon="23.613652"><ele>2050.6</ele><time>2026-03-08T14:13:40.000Z</time></trkpt>
<trkpt lat="42.097989" lon="23.613664"><ele>2050.6</ele><time>2026-03-08T14:13:41.000Z</time></trkpt>
<trkpt lat="42.097981" lon="23.613677"><ele>2049.5</ele><time>2026-03-08T14:13:42.000Z</time></trkpt>
<trkpt lat="42.097972" lon="23.613689"><ele>2049.5</ele><time>2026-03-08T14:13:43.000Z</time></trkpt>
<trkpt lat="42.097964" lon="23.613702"><ele>2049.5</ele><time>2026-03-08T14:13:44.000Z</time></trkpt>
<trkpt lat="42.097955" lon="23.613714"><ele>2049.5</ele><time>2026-03-08T14:13:45.000Z</time></trkpt>
<trkpt lat="42.097946" lon="23.613726"><ele>2049.5</ele><time>2026-03-08T14:13:46.000Z</time></trkpt>
<trkpt lat="42.097937" lon="23.613737"><ele>2049</ele><time>2026-03-08T14:13:47.000Z</time></trkpt>
<trkpt lat="42.09793" lon="23.613747"><ele>2049</ele><time>2026-03-08T14:13:48.000Z</time></trkpt>
<trkpt lat="42.097921" lon="23.613757"><ele>2049</ele><time>2026-03-08T14:13:49.000Z</time></trkpt>
<trkpt lat="42.097913" lon="23.613766"><ele>2049</ele><time>2026-03-08T14:13:50.000Z</time></trkpt>
<trkpt lat="42.097904" lon="23.613775"><ele>2049</ele><time>2026-03-08T14:13:51.000Z</time></trkpt>
<trkpt lat="42.097896" lon="23.613784"><ele>2048</ele><time>2026-03-08T14:13:52.000Z</time></trkpt>
<trkpt lat="42.097886" lon="23.613794"><ele>2048</ele><time>2026-03-08T14:13:53.000Z</time></trkpt>
<trkpt lat="42.097877" lon="23.613804"><ele>2048</ele><time>2026-03-08T14:13:54.000Z</time></trkpt>
<trkpt lat="42.097869" lon="23.613814"><ele>2048</ele><time>2026-03-08T14:13:55.000Z</time></trkpt>
<trkpt lat="42.09786" lon="23.613826"><ele>2048</ele><time>2026-03-08T14:13:56.000Z</time></trkpt>
<trkpt lat="42.097851" lon="23.613836"><ele>2047.1</ele><time>2026-03-08T14:13:57.000Z</time></trkpt>
<trkpt lat="42.097843" lon="23.613848"><ele>2047.1</ele><time>2026-03-08T14:13:58.000Z</time></trkpt>
<trkpt lat="42.097835" lon="23.613859"><ele>2047.1</ele><time>2026-03-08T14:13:59.000Z</time></trkpt>
<trkpt lat="42.097827" lon="23.613869"><ele>2047.1</ele><time>2026-03-08T14:14:00.000Z</time></trkpt>
<trkpt lat="42.09782" lon="23.613878"><ele>2047.1</ele><time>2026-03-08T14:14:01.000Z</time></trkpt>
<trkpt lat="42.097813" lon="23.613887"><ele>2046.8</ele><time>2026-03-08T14:14:02.000Z</time></trkpt>
<trkpt lat="42.097806" lon="23.613896"><ele>2046.8</ele><time>2026-03-08T14:14:03.000Z</time></trkpt>
<trkpt lat="42.097799" lon="23.613904"><ele>2046.8</ele><time>2026-03-08T14:14:04.000Z</time></trkpt>
<trkpt lat="42.097791" lon="23.613913"><ele>2046.8</ele><time>2026-03-08T14:14:05.000Z</time></trkpt>
<trkpt lat="42.097783" lon="23.613923"><ele>2046.8</ele><time>2026-03-08T14:14:06.000Z</time></trkpt>
<trkpt lat="42.097775" lon="23.613934"><ele>2046.1</ele><time>2026-03-08T14:14:07.000Z</time></trkpt>
<trkpt lat="42.097767" lon="23.613944"><ele>2046.1</ele><time>2026-03-08T14:14:08.000Z</time></trkpt>
<trkpt lat="42.09776" lon="23.613956"><ele>2046.1</ele><time>2026-03-08T14:14:09.000Z</time></trkpt>
<trkpt lat="42.097753" lon="23.613967"><ele>2046.1</ele><time>2026-03-08T14:14:10.000Z</time></trkpt>
<trkpt lat="42.097745" lon="23.613978"><ele>2046.1</ele><time>2026-03-08T14:14:11.000Z</time></trkpt>
<trkpt lat="42.097738" lon="23.613988"><ele>2045.6</ele><time>2026-03-08T14:14:12.000Z</time></trkpt>
<trkpt lat="42.09773" lon="23.613997"><ele>2045.6</ele><time>2026-03-08T14:14:13.000Z</time></trkpt>
<trkpt lat="42.097723" lon="23.614007"><ele>2045.6</ele><time>2026-03-08T14:14:14.000Z</time></trkpt>
<trkpt lat="42.097715" lon="23.614017"><ele>2045.6</ele><time>2026-03-08T14:14:15.000Z</time></trkpt>
<trkpt lat="42.097707" lon="23.614027"><ele>2045.6</ele><time>2026-03-08T14:14:16.000Z</time></trkpt>
<trkpt lat="42.0977" lon="23.614038"><ele>2045.3</ele><time>2026-03-08T14:14:17.000Z</time></trkpt>
<trkpt lat="42.097692" lon="23.614048"><ele>2045.3</ele><time>2026-03-08T14:14:18.000Z</time></trkpt>
<trkpt lat="42.097684" lon="23.614059"><ele>2045.3</ele><time>2026-03-08T14:14:19.000Z</time></trkpt>
<trkpt lat="42.097677" lon="23.614069"><ele>2045.3</ele><time>2026-03-08T14:14:20.000Z</time></trkpt>
<trkpt lat="42.09767" lon="23.614079"><ele>2045.3</ele><time>2026-03-08T14:14:21.000Z</time></trkpt>
<trkpt lat="42.097663" lon="23.614089"><ele>2044.8</ele><time>2026-03-08T14:14:22.000Z</time></trkpt>
<trkpt lat="42.097655" lon="23.614099"><ele>2044.8</ele><time>2026-03-08T14:14:23.000Z</time></trkpt>
<trkpt lat="42.097648" lon="23.614109"><ele>2044.8</ele><time>2026-03-08T14:14:24.000Z</time></trkpt>
<trkpt lat="42.097639" lon="23.614119"><ele>2044.8</ele><time>2026-03-08T14:14:25.000Z</time></trkpt>
<trkpt lat="42.09763" lon="23.614127"><ele>2044.8</ele><time>2026-03-08T14:14:26.000Z</time></trkpt>
<trkpt lat="42.097622" lon="23.614133"><ele>2044.2</ele><time>2026-03-08T14:14:27.000Z</time></trkpt>
<trkpt lat="42.097617" lon="23.614137"><ele>2044.2</ele><time>2026-03-08T14:14:28.000Z</time></trkpt>
<trkpt lat="42.097614" lon="23.614139"><ele>2044.2</ele><time>2026-03-08T14:14:29.000Z</time></trkpt>
<trkpt lat="42.097613" lon="23.614139"><ele>2044.2</ele><time>2026-03-08T14:14:30.000Z</time></trkpt>
<trkpt lat="42.097613" lon="23.61414"><ele>2044.2</ele><time>2026-03-08T14:14:31.000Z</time></trkpt>
<trkpt lat="42.097613" lon="23.61414"><ele>2043.9</ele><time>2026-03-08T14:14:32.000Z</time></trkpt>
<trkpt lat="42.097612" lon="23.614139"><ele>2043.9</ele><time>2026-03-08T14:14:33.000Z</time></trkpt>
<trkpt lat="42.097612" lon="23.614139"><ele>2043.9</ele><time>2026-03-08T14:14:34.000Z</time></trkpt>
<trkpt lat="42.097612" lon="23.614139"><ele>2043.9</ele><time>2026-03-08T14:14:35.000Z</time></trkpt>
<trkpt lat="42.097611" lon="23.614138"><ele>2043.9</ele><time>2026-03-08T14:14:36.000Z</time></trkpt>
<trkpt lat="42.09761" lon="23.614138"><ele>2043.6</ele><time>2026-03-08T14:14:37.000Z</time></trkpt>
<trkpt lat="42.097609" lon="23.614137"><ele>2043.6</ele><time>2026-03-08T14:14:38.000Z</time></trkpt>
<trkpt lat="42.097608" lon="23.614136"><ele>2043.6</ele><time>2026-03-08T14:14:39.000Z</time></trkpt>
<trkpt lat="42.097607" lon="23.614137"><ele>2043.6</ele><time>2026-03-08T14:14:40.000Z</time></trkpt>
<trkpt lat="42.097606" lon="23.614138"><ele>2043.6</ele><time>2026-03-08T14:14:41.000Z</time></trkpt>
<trkpt lat="42.097602" lon="23.614142"><ele>2043.5</ele><time>2026-03-08T14:14:42.000Z</time></trkpt>
<trkpt lat="42.097598" lon="23.614148"><ele>2043.5</ele><time>2026-03-08T14:14:43.000Z</time></trkpt>
<trkpt lat="42.097591" lon="23.614157"><ele>2043.5</ele><time>2026-03-08T14:14:44.000Z</time></trkpt>
<trkpt lat="42.097583" lon="23.614167"><ele>2043.5</ele><time>2026-03-08T14:14:45.000Z</time></trkpt>
<trkpt lat="42.097575" lon="23.614177"><ele>2043.5</ele><time>2026-03-08T14:14:46.000Z</time></trkpt>
<trkpt lat="42.097568" lon="23.614187"><ele>2043.5</ele><time>2026-03-08T14:14:47.000Z</time></trkpt>
<trkpt lat="42.097561" lon="23.614197"><ele>2043.5</ele><time>2026-03-08T14:14:48.000Z</time></trkpt>
<trkpt lat="42.097553" lon="23.614206"><ele>2043.5</ele><time>2026-03-08T14:14:49.000Z</time></trkpt>
<trkpt lat="42.097545" lon="23.614215"><ele>2043.5</ele><time>2026-03-08T14:14:50.000Z</time></trkpt>
<trkpt lat="42.097537" lon="23.614225"><ele>2043.5</ele><time>2026-03-08T14:14:51.000Z</time></trkpt>
<trkpt lat="42.097529" lon="23.614235"><ele>2043.5</ele><time>2026-03-08T14:14:52.000Z</time></trkpt>
<trkpt lat="42.097521" lon="23.614244"><ele>2043.5</ele><time>2026-03-08T14:14:53.000Z</time></trkpt>
<trkpt lat="42.097513" lon="23.614255"><ele>2043.5</ele><time>2026-03-08T14:14:54.000Z</time></trkpt>
<trkpt lat="42.097505" lon="23.614264"><ele>2043.5</ele><time>2026-03-08T14:14:55.000Z</time></trkpt>
<trkpt lat="42.097497" lon="23.614273"><ele>2043.5</ele><time>2026-03-08T14:14:56.000Z</time></trkpt>
<trkpt lat="42.097489" lon="23.614283"><ele>2043.3</ele><time>2026-03-08T14:14:57.000Z</time></trkpt>
<trkpt lat="42.09748" lon="23.614294"><ele>2043.3</ele><time>2026-03-08T14:14:58.000Z</time></trkpt>
<trkpt lat="42.09747" lon="23.614306"><ele>2043.3</ele><time>2026-03-08T14:14:59.000Z</time></trkpt>
<trkpt lat="42.097461" lon="23.614318"><ele>2043.3</ele><time>2026-03-08T14:15:00.000Z</time></trkpt>
<trkpt lat="42.097452" lon="23.614331"><ele>2043.3</ele><time>2026-03-08T14:15:01.000Z</time></trkpt>
<trkpt lat="42.097442" lon="23.614345"><ele>2043</ele><time>2026-03-08T14:15:02.000Z</time></trkpt>
<trkpt lat="42.097433" lon="23.614358"><ele>2043</ele><time>2026-03-08T14:15:03.000Z</time></trkpt>
<trkpt lat="42.097424" lon="23.61437"><ele>2043</ele><time>2026-03-08T14:15:04.000Z</time></trkpt>
<trkpt lat="42.097416" lon="23.614383"><ele>2043</ele><time>2026-03-08T14:15:05.000Z</time></trkpt>
<trkpt lat="42.097407" lon="23.614394"><ele>2043</ele><time>2026-03-08T14:15:06.000Z</time></trkpt>
<trkpt lat="42.097399" lon="23.614405"><ele>2042.2</ele><time>2026-03-08T14:15:07.000Z</time></trkpt>
<trkpt lat="42.097392" lon="23.614416"><ele>2042.2</ele><time>2026-03-08T14:15:08.000Z</time></trkpt>
<trkpt lat="42.097383" lon="23.614427"><ele>2042.2</ele><time>2026-03-08T14:15:09.000Z</time></trkpt>
<trkpt lat="42.097375" lon="23.614437"><ele>2042.2</ele><time>2026-03-08T14:15:10.000Z</time></trkpt>
<trkpt lat="42.097367" lon="23.614448"><ele>2042.2</ele><time>2026-03-08T14:15:11.000Z</time></trkpt>
<trkpt lat="42.097359" lon="23.614459"><ele>2041.4</ele><time>2026-03-08T14:15:12.000Z</time></trkpt>
<trkpt lat="42.097351" lon="23.614469"><ele>2041.4</ele><time>2026-03-08T14:15:13.000Z</time></trkpt>
<trkpt lat="42.097343" lon="23.614479"><ele>2041.4</ele><time>2026-03-08T14:15:14.000Z</time></trkpt>
<trkpt lat="42.097335" lon="23.614489"><ele>2041.4</ele><time>2026-03-08T14:15:15.000Z</time></trkpt>
<trkpt lat="42.097327" lon="23.614498"><ele>2041.4</ele><time>2026-03-08T14:15:16.000Z</time></trkpt>
<trkpt lat="42.097319" lon="23.614507"><ele>2041.1</ele><time>2026-03-08T14:15:17.000Z</time></trkpt>
<trkpt lat="42.097311" lon="23.614517"><ele>2041.1</ele><time>2026-03-08T14:15:18.000Z</time></trkpt>
<trkpt lat="42.097304" lon="23.614525"><ele>2041.1</ele><time>2026-03-08T14:15:19.000Z</time></trkpt>
<trkpt lat="42.097297" lon="23.614533"><ele>2041.1</ele><time>2026-03-08T14:15:20.000Z</time></trkpt>
<trkpt lat="42.09729" lon="23.614541"><ele>2041.1</ele><time>2026-03-08T14:15:21.000Z</time></trkpt>
<trkpt lat="42.097282" lon="23.614549"><ele>2040.4</ele><time>2026-03-08T14:15:22.000Z</time></trkpt>
<trkpt lat="42.097274" lon="23.614556"><ele>2040.4</ele><time>2026-03-08T14:15:23.000Z</time></trkpt>
<trkpt lat="42.097266" lon="23.614563"><ele>2040.4</ele><time>2026-03-08T14:15:24.000Z</time></trkpt>
<trkpt lat="42.097257" lon="23.614571"><ele>2040.4</ele><time>2026-03-08T14:15:25.000Z</time></trkpt>
<trkpt lat="42.097249" lon="23.61458"><ele>2040.4</ele><time>2026-03-08T14:15:26.000Z</time></trkpt>
<trkpt lat="42.097241" lon="23.614589"><ele>2039.7</ele><time>2026-03-08T14:15:27.000Z</time></trkpt>
<trkpt lat="42.097231" lon="23.614598"><ele>2039.7</ele><time>2026-03-08T14:15:28.000Z</time></trkpt>
<trkpt lat="42.097221" lon="23.614606"><ele>2039.7</ele><time>2026-03-08T14:15:29.000Z</time></trkpt>
<trkpt lat="42.097211" lon="23.614613"><ele>2039.7</ele><time>2026-03-08T14:15:30.000Z</time></trkpt>
<trkpt lat="42.097201" lon="23.614619"><ele>2039.7</ele><time>2026-03-08T14:15:31.000Z</time></trkpt>
<trkpt lat="42.097191" lon="23.614625"><ele>2039.4</ele><time>2026-03-08T14:15:32.000Z</time></trkpt>
<trkpt lat="42.097181" lon="23.614631"><ele>2039.4</ele><time>2026-03-08T14:15:33.000Z</time></trkpt>
<trkpt lat="42.097172" lon="23.614638"><ele>2039.4</ele><time>2026-03-08T14:15:34.000Z</time></trkpt>
<trkpt lat="42.097163" lon="23.614646"><ele>2039.4</ele><time>2026-03-08T14:15:35.000Z</time></trkpt>
<trkpt lat="42.097154" lon="23.614655"><ele>2039.4</ele><time>2026-03-08T14:15:36.000Z</time></trkpt>
<trkpt lat="42.097145" lon="23.614664"><ele>2038.7</ele><time>2026-03-08T14:15:37.000Z</time></trkpt>
<trkpt lat="42.097136" lon="23.614673"><ele>2038.7</ele><time>2026-03-08T14:15:38.000Z</time></trkpt>
<trkpt lat="42.097128" lon="23.614683"><ele>2038.7</ele><time>2026-03-08T14:15:39.000Z</time></trkpt>
<trkpt lat="42.09712" lon="23.614694"><ele>2038.7</ele><time>2026-03-08T14:15:40.000Z</time></trkpt>
<trkpt lat="42.097112" lon="23.614704"><ele>2038.7</ele><time>2026-03-08T14:15:41.000Z</time></trkpt>
<trkpt lat="42.097102" lon="23.614713"><ele>2038.1</ele><time>2026-03-08T14:15:42.000Z</time></trkpt>
<trkpt lat="42.097092" lon="23.614722"><ele>2038.1</ele><time>2026-03-08T14:15:43.000Z</time></trkpt>
<trkpt lat="42.097081" lon="23.614729"><ele>2038.1</ele><time>2026-03-08T14:15:44.000Z</time></trkpt>
<trkpt lat="42.097069" lon="23.614734"><ele>2038.1</ele><time>2026-03-08T14:15:45.000Z</time></trkpt>
<trkpt lat="42.097058" lon="23.61474"><ele>2038.1</ele><time>2026-03-08T14:15:46.000Z</time></trkpt>
<trkpt lat="42.097046" lon="23.614745"><ele>2037.8</ele><time>2026-03-08T14:15:47.000Z</time></trkpt>
<trkpt lat="42.097034" lon="23.614748"><ele>2037.8</ele><time>2026-03-08T14:15:48.000Z</time></trkpt>
<trkpt lat="42.097024" lon="23.614751"><ele>2037.8</ele><time>2026-03-08T14:15:49.000Z</time></trkpt>
<trkpt lat="42.097015" lon="23.614754"><ele>2037.8</ele><time>2026-03-08T14:15:50.000Z</time></trkpt>
<trkpt lat="42.097006" lon="23.614758"><ele>2037.8</ele><time>2026-03-08T14:15:51.000Z</time></trkpt>
<trkpt lat="42.096998" lon="23.614762"><ele>2037.3</ele><time>2026-03-08T14:15:52.000Z</time></trkpt>
<trkpt lat="42.09699" lon="23.614768"><ele>2037.3</ele><time>2026-03-08T14:15:53.000Z</time></trkpt>
<trkpt lat="42.096981" lon="23.614776"><ele>2037.3</ele><time>2026-03-08T14:15:54.000Z</time></trkpt>
<trkpt lat="42.096973" lon="23.614784"><ele>2037.3</ele><time>2026-03-08T14:15:55.000Z</time></trkpt>
<trkpt lat="42.096965" lon="23.614791"><ele>2037.3</ele><time>2026-03-08T14:15:56.000Z</time></trkpt>
<trkpt lat="42.096957" lon="23.614799"><ele>2037.1</ele><time>2026-03-08T14:15:57.000Z</time></trkpt>
<trkpt lat="42.096948" lon="23.614806"><ele>2037.1</ele><time>2026-03-08T14:15:58.000Z</time></trkpt>
<trkpt lat="42.096939" lon="23.614814"><ele>2037.1</ele><time>2026-03-08T14:15:59.000Z</time></trkpt>
<trkpt lat="42.096929" lon="23.614822"><ele>2037.1</ele><time>2026-03-08T14:16:00.000Z</time></trkpt>
<trkpt lat="42.096919" lon="23.61483"><ele>2037.1</ele><time>2026-03-08T14:16:01.000Z</time></trkpt>
<trkpt lat="42.09691" lon="23.614838"><ele>2036.9</ele><time>2026-03-08T14:16:02.000Z</time></trkpt>
<trkpt lat="42.0969" lon="23.614847"><ele>2036.9</ele><time>2026-03-08T14:16:03.000Z</time></trkpt>
<trkpt lat="42.096892" lon="23.614855"><ele>2036.9</ele><time>2026-03-08T14:16:04.000Z</time></trkpt>
<trkpt lat="42.096883" lon="23.614864"><ele>2036.9</ele><time>2026-03-08T14:16:05.000Z</time></trkpt>
<trkpt lat="42.096873" lon="23.614872"><ele>2036.9</ele><time>2026-03-08T14:16:06.000Z</time></trkpt>
<trkpt lat="42.096863" lon="23.614881"><ele>2036.4</ele><time>2026-03-08T14:16:07.000Z</time></trkpt>
<trkpt lat="42.096853" lon="23.614889"><ele>2036.4</ele><time>2026-03-08T14:16:08.000Z</time></trkpt>
<trkpt lat="42.096844" lon="23.614897"><ele>2036.4</ele><time>2026-03-08T14:16:09.000Z</time></trkpt>
<trkpt lat="42.096834" lon="23.614905"><ele>2036.4</ele><time>2026-03-08T14:16:10.000Z</time></trkpt>
<trkpt lat="42.096824" lon="23.614911"><ele>2036.4</ele><time>2026-03-08T14:16:11.000Z</time></trkpt>
<trkpt lat="42.096813" lon="23.614916"><ele>2035.7</ele><time>2026-03-08T14:16:12.000Z</time></trkpt>
<trkpt lat="42.096803" lon="23.614922"><ele>2035.7</ele><time>2026-03-08T14:16:13.000Z</time></trkpt>
<trkpt lat="42.096793" lon="23.614926"><ele>2035.7</ele><time>2026-03-08T14:16:14.000Z</time></trkpt>
<trkpt lat="42.096782" lon="23.614932"><ele>2035.7</ele><time>2026-03-08T14:16:15.000Z</time></trkpt>
<trkpt lat="42.096772" lon="23.614938"><ele>2035.7</ele><time>2026-03-08T14:16:16.000Z</time></trkpt>
<trkpt lat="42.096762" lon="23.614944"><ele>2035.3</ele><time>2026-03-08T14:16:17.000Z</time></trkpt>
<trkpt lat="42.096753" lon="23.614951"><ele>2035.3</ele><time>2026-03-08T14:16:18.000Z</time></trkpt>
<trkpt lat="42.096744" lon="23.614958"><ele>2035.3</ele><time>2026-03-08T14:16:19.000Z</time></trkpt>
<trkpt lat="42.096735" lon="23.614965"><ele>2035.3</ele><time>2026-03-08T14:16:20.000Z</time></trkpt>
<trkpt lat="42.096725" lon="23.614971"><ele>2035.3</ele><time>2026-03-08T14:16:21.000Z</time></trkpt>
<trkpt lat="42.096716" lon="23.614976"><ele>2034.4</ele><time>2026-03-08T14:16:22.000Z</time></trkpt>
<trkpt lat="42.096706" lon="23.614981"><ele>2034.4</ele><time>2026-03-08T14:16:23.000Z</time></trkpt>
<trkpt lat="42.096697" lon="23.614986"><ele>2034.4</ele><time>2026-03-08T14:16:24.000Z</time></trkpt>
<trkpt lat="42.096689" lon="23.614992"><ele>2034.4</ele><time>2026-03-08T14:16:25.000Z</time></trkpt>
<trkpt lat="42.09668" lon="23.614999"><ele>2034.4</ele><time>2026-03-08T14:16:26.000Z</time></trkpt>
<trkpt lat="42.096672" lon="23.615007"><ele>2034</ele><time>2026-03-08T14:16:27.000Z</time></trkpt>
<trkpt lat="42.096663" lon="23.615016"><ele>2034</ele><time>2026-03-08T14:16:28.000Z</time></trkpt>
<trkpt lat="42.096655" lon="23.615026"><ele>2034</ele><time>2026-03-08T14:16:29.000Z</time></trkpt>
<trkpt lat="42.096646" lon="23.615036"><ele>2034</ele><time>2026-03-08T14:16:30.000Z</time></trkpt>
<trkpt lat="42.096637" lon="23.615047"><ele>2034</ele><time>2026-03-08T14:16:31.000Z</time></trkpt>
<trkpt lat="42.096629" lon="23.615059"><ele>2033.5</ele><time>2026-03-08T14:16:32.000Z</time></trkpt>
<trkpt lat="42.096619" lon="23.61507"><ele>2033.5</ele><time>2026-03-08T14:16:33.000Z</time></trkpt>
<trkpt lat="42.09661" lon="23.615081"><ele>2033.5</ele><time>2026-03-08T14:16:34.000Z</time></trkpt>
<trkpt lat="42.0966" lon="23.615092"><ele>2033.5</ele><time>2026-03-08T14:16:35.000Z</time></trkpt>
<trkpt lat="42.096591" lon="23.615101"><ele>2033.5</ele><time>2026-03-08T14:16:36.000Z</time></trkpt>
<trkpt lat="42.096582" lon="23.615108"><ele>2033</ele><time>2026-03-08T14:16:37.000Z</time></trkpt>
<trkpt lat="42.096574" lon="23.615114"><ele>2033</ele><time>2026-03-08T14:16:38.000Z</time></trkpt>
<trkpt lat="42.096566" lon="23.615119"><ele>2033</ele><time>2026-03-08T14:16:39.000Z</time></trkpt>
<trkpt lat="42.096557" lon="23.615123"><ele>2033</ele><time>2026-03-08T14:16:40.000Z</time></trkpt>
<trkpt lat="42.096549" lon="23.615128"><ele>2033</ele><time>2026-03-08T14:16:41.000Z</time></trkpt>
<trkpt lat="42.096541" lon="23.615134"><ele>2032.7</ele><time>2026-03-08T14:16:42.000Z</time></trkpt>
<trkpt lat="42.096533" lon="23.615141"><ele>2032.7</ele><time>2026-03-08T14:16:43.000Z</time></trkpt>
<trkpt lat="42.096523" lon="23.615149"><ele>2032.7</ele><time>2026-03-08T14:16:44.000Z</time></trkpt>
<trkpt lat="42.096513" lon="23.615157"><ele>2032.7</ele><time>2026-03-08T14:16:45.000Z</time></trkpt>
<trkpt lat="42.096503" lon="23.615164"><ele>2032.7</ele><time>2026-03-08T14:16:46.000Z</time></trkpt>
<trkpt lat="42.096494" lon="23.61517"><ele>2032.6</ele><time>2026-03-08T14:16:47.000Z</time></trkpt>
<trkpt lat="42.096484" lon="23.615175"><ele>2032.6</ele><time>2026-03-08T14:16:48.000Z</time></trkpt>
<trkpt lat="42.096474" lon="23.61518"><ele>2032.6</ele><time>2026-03-08T14:16:49.000Z</time></trkpt>
<trkpt lat="42.096464" lon="23.615184"><ele>2032.6</ele><time>2026-03-08T14:16:50.000Z</time></trkpt>
<trkpt lat="42.096454" lon="23.615188"><ele>2032.6</ele><time>2026-03-08T14:16:51.000Z</time></trkpt>
<trkpt lat="42.096444" lon="23.615192"><ele>2032.2</ele><time>2026-03-08T14:16:52.000Z</time></trkpt>
<trkpt lat="42.096434" lon="23.615198"><ele>2032.2</ele><time>2026-03-08T14:16:53.000Z</time></trkpt>
<trkpt lat="42.096423" lon="23.615204"><ele>2032.2</ele><time>2026-03-08T14:16:54.000Z</time></trkpt>
<trkpt lat="42.096413" lon="23.61521"><ele>2032.2</ele><time>2026-03-08T14:16:55.000Z</time></trkpt>
<trkpt lat="42.096402" lon="23.615216"><ele>2032.2</ele><time>2026-03-08T14:16:56.000Z</time></trkpt>
<trkpt lat="42.096391" lon="23.615222"><ele>2032.1</ele><time>2026-03-08T14:16:57.000Z</time></trkpt>
<trkpt lat="42.096381" lon="23.615227"><ele>2032.1</ele><time>2026-03-08T14:16:58.000Z</time></trkpt>
<trkpt lat="42.096371" lon="23.615233"><ele>2032.1</ele><time>2026-03-08T14:16:59.000Z</time></trkpt>
<trkpt lat="42.096362" lon="23.615238"><ele>2032.1</ele><time>2026-03-08T14:17:00.000Z</time></trkpt>
<trkpt lat="42.096354" lon="23.615245"><ele>2032.1</ele><time>2026-03-08T14:17:01.000Z</time></trkpt>
<trkpt lat="42.096346" lon="23.615254"><ele>2031.8</ele><time>2026-03-08T14:17:02.000Z</time></trkpt>
<trkpt lat="42.096338" lon="23.615263"><ele>2031.8</ele><time>2026-03-08T14:17:03.000Z</time></trkpt>
<trkpt lat="42.096329" lon="23.615274"><ele>2031.8</ele><time>2026-03-08T14:17:04.000Z</time></trkpt>
<trkpt lat="42.09632" lon="23.615284"><ele>2031.8</ele><time>2026-03-08T14:17:05.000Z</time></trkpt>
<trkpt lat="42.09631" lon="23.615294"><ele>2031.8</ele><time>2026-03-08T14:17:06.000Z</time></trkpt>
<trkpt lat="42.0963" lon="23.615302"><ele>2031.7</ele><time>2026-03-08T14:17:07.000Z</time></trkpt>
<trkpt lat="42.09629" lon="23.615311"><ele>2031.7</ele><time>2026-03-08T14:17:08.000Z</time></trkpt>
<trkpt lat="42.09628" lon="23.615317"><ele>2031.7</ele><time>2026-03-08T14:17:09.000Z</time></trkpt>
<trkpt lat="42.09627" lon="23.615323"><ele>2031.7</ele><time>2026-03-08T14:17:10.000Z</time></trkpt>
<trkpt lat="42.09626" lon="23.615328"><ele>2031.7</ele><time>2026-03-08T14:17:11.000Z</time></trkpt>
<trkpt lat="42.09625" lon="23.615332"><ele>2031.6</ele><time>2026-03-08T14:17:12.000Z</time></trkpt>
<trkpt lat="42.096241" lon="23.615336"><ele>2031.6</ele><time>2026-03-08T14:17:13.000Z</time></trkpt>
<trkpt lat="42.096233" lon="23.615342"><ele>2031.6</ele><time>2026-03-08T14:17:14.000Z</time></trkpt>
<trkpt lat="42.096226" lon="23.615349"><ele>2031.6</ele><time>2026-03-08T14:17:15.000Z</time></trkpt>
<trkpt lat="42.096219" lon="23.615358"><ele>2031.6</ele><time>2026-03-08T14:17:16.000Z</time></trkpt>
<trkpt lat="42.096211" lon="23.615368"><ele>2031.4</ele><time>2026-03-08T14:17:17.000Z</time></trkpt>
<trkpt lat="42.096203" lon="23.615378"><ele>2031.4</ele><time>2026-03-08T14:17:18.000Z</time></trkpt>
<trkpt lat="42.096194" lon="23.615387"><ele>2031.4</ele><time>2026-03-08T14:17:19.000Z</time></trkpt>
<trkpt lat="42.096185" lon="23.615397"><ele>2031.4</ele><time>2026-03-08T14:17:20.000Z</time></trkpt>
<trkpt lat="42.096176" lon="23.615405"><ele>2031.4</ele><time>2026-03-08T14:17:21.000Z</time></trkpt>
<trkpt lat="42.096167" lon="23.615414"><ele>2031</ele><time>2026-03-08T14:17:22.000Z</time></trkpt>
<trkpt lat="42.096159" lon="23.615422"><ele>2031</ele><time>2026-03-08T14:17:23.000Z</time></trkpt>
<trkpt lat="42.096151" lon="23.61543"><ele>2031</ele><time>2026-03-08T14:17:24.000Z</time></trkpt>
<trkpt lat="42.096143" lon="23.615437"><ele>2031</ele><time>2026-03-08T14:17:25.000Z</time></trkpt>
<trkpt lat="42.096135" lon="23.615446"><ele>2031</ele><time>2026-03-08T14:17:26.000Z</time></trkpt>
<trkpt lat="42.096125" lon="23.615454"><ele>2030.8</ele><time>2026-03-08T14:17:27.000Z</time></trkpt>
<trkpt lat="42.096116" lon="23.615462"><ele>2030.8</ele><time>2026-03-08T14:17:28.000Z</time></trkpt>
<trkpt lat="42.096107" lon="23.615471"><ele>2030.8</ele><time>2026-03-08T14:17:29.000Z</time></trkpt>
<trkpt lat="42.096097" lon="23.61548"><ele>2030.8</ele><time>2026-03-08T14:17:30.000Z</time></trkpt>
<trkpt lat="42.096087" lon="23.615487"><ele>2030.8</ele><time>2026-03-08T14:17:31.000Z</time></trkpt>
<trkpt lat="42.096077" lon="23.615494"><ele>2030.4</ele><time>2026-03-08T14:17:32.000Z</time></trkpt>
<trkpt lat="42.096067" lon="23.6155"><ele>2030.4</ele><time>2026-03-08T14:17:33.000Z</time></trkpt>
<trkpt lat="42.096057" lon="23.615504"><ele>2030.4</ele><time>2026-03-08T14:17:34.000Z</time></trkpt>
<trkpt lat="42.096046" lon="23.615508"><ele>2030.4</ele><time>2026-03-08T14:17:35.000Z</time></trkpt>
<trkpt lat="42.096037" lon="23.615512"><ele>2030.4</ele><time>2026-03-08T14:17:36.000Z</time></trkpt>
<trkpt lat="42.096027" lon="23.615516"><ele>2029.9</ele><time>2026-03-08T14:17:37.000Z</time></trkpt>
<trkpt lat="42.096018" lon="23.615521"><ele>2029.9</ele><time>2026-03-08T14:17:38.000Z</time></trkpt>
<trkpt lat="42.09601" lon="23.615529"><ele>2029.9</ele><time>2026-03-08T14:17:39.000Z</time></trkpt>
<trkpt lat="42.096001" lon="23.615536"><ele>2029.9</ele><time>2026-03-08T14:17:40.000Z</time></trkpt>
<trkpt lat="42.095993" lon="23.615544"><ele>2029.9</ele><time>2026-03-08T14:17:41.000Z</time></trkpt>
<trkpt lat="42.095985" lon="23.615551"><ele>2029.4</ele><time>2026-03-08T14:17:42.000Z</time></trkpt>
<trkpt lat="42.095976" lon="23.615557"><ele>2029.4</ele><time>2026-03-08T14:17:43.000Z</time></trkpt>
<trkpt lat="42.095966" lon="23.615562"><ele>2029.4</ele><time>2026-03-08T14:17:44.000Z</time></trkpt>
<trkpt lat="42.095957" lon="23.615567"><ele>2029.4</ele><time>2026-03-08T14:17:45.000Z</time></trkpt>
<trkpt lat="42.095949" lon="23.615572"><ele>2029.4</ele><time>2026-03-08T14:17:46.000Z</time></trkpt>
<trkpt lat="42.09594" lon="23.615579"><ele>2028.4</ele><time>2026-03-08T14:17:47.000Z</time></trkpt>
<trkpt lat="42.095931" lon="23.615585"><ele>2028.4</ele><time>2026-03-08T14:17:48.000Z</time></trkpt>
<trkpt lat="42.095922" lon="23.615591"><ele>2028.4</ele><time>2026-03-08T14:17:49.000Z</time></trkpt>
<trkpt lat="42.095913" lon="23.615598"><ele>2028.4</ele><time>2026-03-08T14:17:50.000Z</time></trkpt>
<trkpt lat="42.095904" lon="23.615604"><ele>2028.4</ele><time>2026-03-08T14:17:51.000Z</time></trkpt>
<trkpt lat="42.095895" lon="23.615609"><ele>2027.4</ele><time>2026-03-08T14:17:52.000Z</time></trkpt>
<trkpt lat="42.095888" lon="23.615611"><ele>2027.4</ele><time>2026-03-08T14:17:53.000Z</time></trkpt>
<trkpt lat="42.095883" lon="23.615613"><ele>2027.4</ele><time>2026-03-08T14:17:54.000Z</time></trkpt>
<trkpt lat="42.09588" lon="23.615613"><ele>2027.4</ele><time>2026-03-08T14:17:55.000Z</time></trkpt>
<trkpt lat="42.095879" lon="23.615614"><ele>2027.4</ele><time>2026-03-08T14:17:56.000Z</time></trkpt>
<trkpt lat="42.095879" lon="23.615614"><ele>2027.1</ele><time>2026-03-08T14:17:57.000Z</time></trkpt>
<trkpt lat="42.09588" lon="23.615614"><ele>2027.1</ele><time>2026-03-08T14:17:58.000Z</time></trkpt>
<trkpt lat="42.09588" lon="23.615614"><ele>2027.1</ele><time>2026-03-08T14:17:59.000Z</time></trkpt>
<trkpt lat="42.09588" lon="23.615614"><ele>2027.1</ele><time>2026-03-08T14:18:00.000Z</time></trkpt>
<trkpt lat="42.09588" lon="23.615613"><ele>2027.1</ele><time>2026-03-08T14:18:01.000Z</time></trkpt>
<trkpt lat="42.09588" lon="23.615613"><ele>2026.6</ele><time>2026-03-08T14:18:02.000Z</time></trkpt>
<trkpt lat="42.09588" lon="23.615613"><ele>2026.6</ele><time>2026-03-08T14:18:03.000Z</time></trkpt>
<trkpt lat="42.095879" lon="23.615614"><ele>2026.6</ele><time>2026-03-08T14:18:04.000Z</time></trkpt>
<trkpt lat="42.095879" lon="23.615615"><ele>2026.6</ele><time>2026-03-08T14:18:05.000Z</time></trkpt>
<trkpt lat="42.095879" lon="23.615616"><ele>2026.6</ele><time>2026-03-08T14:18:06.000Z</time></trkpt>
<trkpt lat="42.095878" lon="23.615618"><ele>2026.1</ele><time>2026-03-08T14:18:07.000Z</time></trkpt>
<trkpt lat="42.095878" lon="23.615619"><ele>2026.1</ele><time>2026-03-08T14:18:08.000Z</time></trkpt>
<trkpt lat="42.095878" lon="23.615619"><ele>2026.1</ele><time>2026-03-08T14:18:09.000Z</time></trkpt>
<trkpt lat="42.095878" lon="23.615619"><ele>2026.1</ele><time>2026-03-08T14:18:10.000Z</time></trkpt>
<trkpt lat="42.095877" lon="23.615619"><ele>2026.1</ele><time>2026-03-08T14:18:11.000Z</time></trkpt>
<trkpt lat="42.095877" lon="23.615619"><ele>2025.9</ele><time>2026-03-08T14:18:12.000Z</time></trkpt>
<trkpt lat="42.095877" lon="23.615619"><ele>2025.9</ele><time>2026-03-08T14:18:13.000Z</time></trkpt>
<trkpt lat="42.095877" lon="23.615619"><ele>2025.9</ele><time>2026-03-08T14:18:14.000Z</time></trkpt>
<trkpt lat="42.095877" lon="23.615618"><ele>2025.9</ele><time>2026-03-08T14:18:15.000Z</time></trkpt>
<trkpt lat="42.095877" lon="23.615618"><ele>2025.9</ele><time>2026-03-08T14:18:16.000Z</time></trkpt>
<trkpt lat="42.095877" lon="23.615617"><ele>2025.8</ele><time>2026-03-08T14:18:17.000Z</time></trkpt>
<trkpt lat="42.095878" lon="23.615617"><ele>2025.8</ele><time>2026-03-08T14:18:18.000Z</time></trkpt>
<trkpt lat="42.095878" lon="23.615617"><ele>2025.8</ele><time>2026-03-08T14:18:19.000Z</time></trkpt>
<trkpt lat="42.095878" lon="23.615617"><ele>2025.8</ele><time>2026-03-08T14:18:20.000Z</time></trkpt>
<trkpt lat="42.095878" lon="23.615617"><ele>2025.8</ele><time>2026-03-08T14:18:21.000Z</time></trkpt>
<trkpt lat="42.095878" lon="23.615618"><ele>2025.8</ele><time>2026-03-08T14:18:22.000Z</time></trkpt>
<trkpt lat="42.095878" lon="23.615618"><ele>2025.8</ele><time>2026-03-08T14:18:23.000Z</time></trkpt>
<trkpt lat="42.095878" lon="23.615618"><ele>2025.8</ele><time>2026-03-08T14:18:24.000Z</time></trkpt>
<trkpt lat="42.095878" lon="23.615618"><ele>2025.8</ele><time>2026-03-08T14:18:25.000Z</time></trkpt>
<trkpt lat="42.095878" lon="23.615618"><ele>2025.8</ele><time>2026-03-08T14:18:26.000Z</time></trkpt>
<trkpt lat="42.095878" lon="23.615618"><ele>2025.9</ele><time>2026-03-08T14:18:27.000Z</time></trkpt>
<trkpt lat="42.095878" lon="23.615618"><ele>2025.9</ele><time>2026-03-08T14:18:28.000Z</time></trkpt>
<trkpt lat="42.095878" lon="23.615618"><ele>2025.9</ele><time>2026-03-08T14:18:29.000Z</time></trkpt>
<trkpt lat="42.095878" lon="23.615618"><ele>2025.9</ele><time>2026-03-08T14:18:30.000Z</time></trkpt>
<trkpt lat="42.095878" lon="23.615618"><ele>2025.9</ele><time>2026-03-08T14:18:31.000Z</time></trkpt>
<trkpt lat="42.095878" lon="23.615618"><ele>2026</ele><time>2026-03-08T14:18:32.000Z</time></trkpt>
<trkpt lat="42.095878" lon="23.615618"><ele>2026</ele><time>2026-03-08T14:18:33.000Z</time></trkpt>
<trkpt lat="42.095878" lon="23.615618"><ele>2026</ele><time>2026-03-08T14:18:34.000Z</time></trkpt>
<trkpt lat="42.095878" lon="23.615618"><ele>2026</ele><time>2026-03-08T14:18:35.000Z</time></trkpt>
<trkpt lat="42.095878" lon="23.615618"><ele>2026</ele><time>2026-03-08T14:18:36.000Z</time></trkpt>
<trkpt lat="42.095878" lon="23.615618"><ele>2026</ele><time>2026-03-08T14:18:37.000Z</time></trkpt>
<trkpt lat="42.095878" lon="23.615618"><ele>2026</ele><time>2026-03-08T14:18:38.000Z</time></trkpt>
<trkpt lat="42.095878" lon="23.615618"><ele>2026</ele><time>2026-03-08T14:18:39.000Z</time></trkpt>
<trkpt lat="42.095878" lon="23.615618"><ele>2026</ele><time>2026-03-08T14:18:40.000Z</time></trkpt>
<trkpt lat="42.095878" lon="23.615618"><ele>2026</ele><time>2026-03-08T14:18:41.000Z</time></trkpt>
<trkpt lat="42.095878" lon="23.615618"><ele>2025.9</ele><time>2026-03-08T14:18:42.000Z</time></trkpt>
<trkpt lat="42.095878" lon="23.615618"><ele>2025.9</ele><time>2026-03-08T14:18:43.000Z</time></trkpt>
<trkpt lat="42.095878" lon="23.615617"><ele>2025.9</ele><time>2026-03-08T14:18:44.000Z</time></trkpt>
<trkpt lat="42.095878" lon="23.615617"><ele>2025.9</ele><time>2026-03-08T14:18:45.000Z</time></trkpt>
<trkpt lat="42.095878" lon="23.615617"><ele>2025.9</ele><time>2026-03-08T14:18:46.000Z</time></trkpt>
<trkpt lat="42.095878" lon="23.615617"><ele>2025.8</ele><time>2026-03-08T14:18:47.000Z</time></trkpt>
<trkpt lat="42.095878" lon="23.615617"><ele>2025.8</ele><time>2026-03-08T14:18:48.000Z</time></trkpt>
<trkpt lat="42.095878" lon="23.615617"><ele>2025.8</ele><time>2026-03-08T14:18:49.000Z</time></trkpt>
<trkpt lat="42.095878" lon="23.615617"><ele>2025.8</ele><time>2026-03-08T14:18:50.000Z</time></trkpt>
<trkpt lat="42.095878" lon="23.615617"><ele>2025.8</ele><time>2026-03-08T14:18:51.000Z</time></trkpt>
<trkpt lat="42.095878" lon="23.615617"><ele>2026</ele><time>2026-03-08T14:18:52.000Z</time></trkpt>
<trkpt lat="42.095878" lon="23.615617"><ele>2026</ele><time>2026-03-08T14:18:53.000Z</time></trkpt>
<trkpt lat="42.095878" lon="23.615617"><ele>2026</ele><time>2026-03-08T14:18:54.000Z</time></trkpt>
<trkpt lat="42.095878" lon="23.615617"><ele>2026</ele><time>2026-03-08T14:18:55.000Z</time></trkpt>
<trkpt lat="42.095878" lon="23.615617"><ele>2026</ele><time>2026-03-08T14:18:56.000Z</time></trkpt>
<trkpt lat="42.095878" lon="23.615617"><ele>2026</ele><time>2026-03-08T14:18:57.000Z</time></trkpt>
<trkpt lat="42.095878" lon="23.615617"><ele>2026</ele><time>2026-03-08T14:18:58.000Z</time></trkpt>
<trkpt lat="42.095878" lon="23.615617"><ele>2026</ele><time>2026-03-08T14:18:59.000Z</time></trkpt>
<trkpt lat="42.095878" lon="23.615617"><ele>2026</ele><time>2026-03-08T14:19:00.000Z</time></trkpt>
<trkpt lat="42.095877" lon="23.615617"><ele>2026</ele><time>2026-03-08T14:19:01.000Z</time></trkpt>
<trkpt lat="42.095876" lon="23.615617"><ele>2026</ele><time>2026-03-08T14:19:02.000Z</time></trkpt>
<trkpt lat="42.095876" lon="23.615617"><ele>2026</ele><time>2026-03-08T14:19:03.000Z</time></trkpt>
<trkpt lat="42.095875" lon="23.615618"><ele>2026</ele><time>2026-03-08T14:19:04.000Z</time></trkpt>
<trkpt lat="42.095875" lon="23.615618"><ele>2026</ele><time>2026-03-08T14:19:05.000Z</time></trkpt>
<trkpt lat="42.095875" lon="23.615618"><ele>2026</ele><time>2026-03-08T14:19:06.000Z</time></trkpt>
<trkpt lat="42.095875" lon="23.615618"><ele>2025.8</ele><time>2026-03-08T14:19:07.000Z</time></trkpt>
<trkpt lat="42.095875" lon="23.615617"><ele>2025.8</ele><time>2026-03-08T14:19:08.000Z</time></trkpt>
<trkpt lat="42.095875" lon="23.615617"><ele>2025.8</ele><time>2026-03-08T14:19:09.000Z</time></trkpt>
<trkpt lat="42.095875" lon="23.615617"><ele>2025.8</ele><time>2026-03-08T14:19:10.000Z</time></trkpt>
<trkpt lat="42.095875" lon="23.615617"><ele>2025.8</ele><time>2026-03-08T14:19:11.000Z</time></trkpt>
<trkpt lat="42.095875" lon="23.615617"><ele>2025.8</ele><time>2026-03-08T14:19:12.000Z</time></trkpt>
<trkpt lat="42.095875" lon="23.615617"><ele>2025.8</ele><time>2026-03-08T14:19:13.000Z</time></trkpt>
<trkpt lat="42.095875" lon="23.615617"><ele>2025.8</ele><time>2026-03-08T14:19:14.000Z</time></trkpt>
<trkpt lat="42.095875" lon="23.615617"><ele>2025.8</ele><time>2026-03-08T14:19:15.000Z</time></trkpt>
<trkpt lat="42.095875" lon="23.615617"><ele>2025.8</ele><time>2026-03-08T14:19:16.000Z</time></trkpt>
<trkpt lat="42.095875" lon="23.615617"><ele>2025.9</ele><time>2026-03-08T14:19:17.000Z</time></trkpt>
<trkpt lat="42.095875" lon="23.615617"><ele>2025.9</ele><time>2026-03-08T14:19:18.000Z</time></trkpt>
<trkpt lat="42.095875" lon="23.615617"><ele>2025.9</ele><time>2026-03-08T14:19:19.000Z</time></trkpt>
<trkpt lat="42.095875" lon="23.615617"><ele>2025.9</ele><time>2026-03-08T14:19:20.000Z</time></trkpt>
<trkpt lat="42.095875" lon="23.615617"><ele>2025.9</ele><time>2026-03-08T14:19:21.000Z</time></trkpt>
<trkpt lat="42.095875" lon="23.615617"><ele>2026</ele><time>2026-03-08T14:19:22.000Z</time></trkpt>
<trkpt lat="42.095875" lon="23.615617"><ele>2026</ele><time>2026-03-08T14:19:23.000Z</time></trkpt>
<trkpt lat="42.095875" lon="23.615617"><ele>2026</ele><time>2026-03-08T14:19:24.000Z</time></trkpt>
<trkpt lat="42.095875" lon="23.615617"><ele>2026</ele><time>2026-03-08T14:19:25.000Z</time></trkpt>
<trkpt lat="42.095875" lon="23.615617"><ele>2026</ele><time>2026-03-08T14:19:26.000Z</time></trkpt>
<trkpt lat="42.095875" lon="23.615617"><ele>2026.1</ele><time>2026-03-08T14:19:27.000Z</time></trkpt>
<trkpt lat="42.095875" lon="23.615617"><ele>2026.1</ele><time>2026-03-08T14:19:28.000Z</time></trkpt>
<trkpt lat="42.095875" lon="23.615617"><ele>2026.1</ele><time>2026-03-08T14:19:29.000Z</time></trkpt>
<trkpt lat="42.095875" lon="23.615617"><ele>2026.1</ele><time>2026-03-08T14:19:30.000Z</time></trkpt>
<trkpt lat="42.095875" lon="23.615617"><ele>2026.1</ele><time>2026-03-08T14:19:31.000Z</time></trkpt>
<trkpt lat="42.095875" lon="23.615617"><ele>2026.1</ele><time>2026-03-08T14:19:32.000Z</time></trkpt>
<trkpt lat="42.095875" lon="23.615617"><ele>2026.1</ele><time>2026-03-08T14:19:33.000Z</time></trkpt>
<trkpt lat="42.095875" lon="23.615617"><ele>2026.1</ele><time>2026-03-08T14:19:34.000Z</time></trkpt>
<trkpt lat="42.095875" lon="23.615617"><ele>2026.1</ele><time>2026-03-08T14:19:35.000Z</time></trkpt>
<trkpt lat="42.095875" lon="23.615617"><ele>2026.1</ele><time>2026-03-08T14:19:36.000Z</time></trkpt>
<trkpt lat="42.095876" lon="23.615617"><ele>2026</ele><time>2026-03-08T14:19:37.000Z</time></trkpt>
<trkpt lat="42.095877" lon="23.615616"><ele>2026</ele><time>2026-03-08T14:19:38.000Z</time></trkpt>
<trkpt lat="42.095877" lon="23.615615"><ele>2026</ele><time>2026-03-08T14:19:39.000Z</time></trkpt>
<trkpt lat="42.095877" lon="23.615614"><ele>2026</ele><time>2026-03-08T14:19:40.000Z</time></trkpt>
<trkpt lat="42.095878" lon="23.615613"><ele>2026</ele><time>2026-03-08T14:19:41.000Z</time></trkpt>
<trkpt lat="42.095877" lon="23.615613"><ele>2025.9</ele><time>2026-03-08T14:19:42.000Z</time></trkpt>
<trkpt lat="42.095877" lon="23.615613"><ele>2025.9</ele><time>2026-03-08T14:19:43.000Z</time></trkpt>
<trkpt lat="42.095877" lon="23.615613"><ele>2025.9</ele><time>2026-03-08T14:19:44.000Z</time></trkpt>
<trkpt lat="42.095876" lon="23.615613"><ele>2025.9</ele><time>2026-03-08T14:19:45.000Z</time></trkpt>
<trkpt lat="42.095876" lon="23.615613"><ele>2025.9</ele><time>2026-03-08T14:19:46.000Z</time></trkpt>
<trkpt lat="42.095876" lon="23.615613"><ele>2025.8</ele><time>2026-03-08T14:19:47.000Z</time></trkpt>
<trkpt lat="42.095876" lon="23.615613"><ele>2025.8</ele><time>2026-03-08T14:19:48.000Z</time></trkpt>
<trkpt lat="42.095876" lon="23.615613"><ele>2025.8</ele><time>2026-03-08T14:19:49.000Z</time></trkpt>
<trkpt lat="42.095876" lon="23.615613"><ele>2025.8</ele><time>2026-03-08T14:19:50.000Z</time></trkpt>
<trkpt lat="42.095876" lon="23.615613"><ele>2025.8</ele><time>2026-03-08T14:19:51.000Z</time></trkpt>
<trkpt lat="42.095876" lon="23.615613"><ele>2025.6</ele><time>2026-03-08T14:19:52.000Z</time></trkpt>
<trkpt lat="42.095876" lon="23.615613"><ele>2025.6</ele><time>2026-03-08T14:19:53.000Z</time></trkpt>
<trkpt lat="42.095876" lon="23.615613"><ele>2025.6</ele><time>2026-03-08T14:19:54.000Z</time></trkpt>
<trkpt lat="42.095876" lon="23.615613"><ele>2025.6</ele><time>2026-03-08T14:19:55.000Z</time></trkpt>
<trkpt lat="42.095876" lon="23.615613"><ele>2025.6</ele><time>2026-03-08T14:19:56.000Z</time></trkpt>
<trkpt lat="42.095876" lon="23.615613"><ele>2025.5</ele><time>2026-03-08T14:19:57.000Z</time></trkpt>
<trkpt lat="42.095876" lon="23.615614"><ele>2025.5</ele><time>2026-03-08T14:19:58.000Z</time></trkpt>
<trkpt lat="42.095875" lon="23.615616"><ele>2025.5</ele><time>2026-03-08T14:19:59.000Z</time></trkpt>
<trkpt lat="42.095873" lon="23.615619"><ele>2025.5</ele><time>2026-03-08T14:20:00.000Z</time></trkpt>
<trkpt lat="42.09587" lon="23.615622"><ele>2025.5</ele><time>2026-03-08T14:20:01.000Z</time></trkpt>
<trkpt lat="42.095867" lon="23.615627"><ele>2025.4</ele><time>2026-03-08T14:20:02.000Z</time></trkpt>
<trkpt lat="42.095862" lon="23.615632"><ele>2025.4</ele><time>2026-03-08T14:20:03.000Z</time></trkpt>
<trkpt lat="42.095856" lon="23.615637"><ele>2025.4</ele><time>2026-03-08T14:20:04.000Z</time></trkpt>
<trkpt lat="42.095849" lon="23.615644"><ele>2025.4</ele><time>2026-03-08T14:20:05.000Z</time></trkpt>
<trkpt lat="42.095842" lon="23.615652"><ele>2025.4</ele><time>2026-03-08T14:20:06.000Z</time></trkpt>
<trkpt lat="42.095834" lon="23.615659"><ele>2025.2</ele><time>2026-03-08T14:20:07.000Z</time></trkpt>
<trkpt lat="42.095826" lon="23.615667"><ele>2025.2</ele><time>2026-03-08T14:20:08.000Z</time></trkpt>
<trkpt lat="42.095817" lon="23.615674"><ele>2025.2</ele><time>2026-03-08T14:20:09.000Z</time></trkpt>
<trkpt lat="42.095808" lon="23.615679"><ele>2025.2</ele><time>2026-03-08T14:20:10.000Z</time></trkpt>
<trkpt lat="42.095798" lon="23.615682"><ele>2025.2</ele><time>2026-03-08T14:20:11.000Z</time></trkpt>
<trkpt lat="42.095789" lon="23.615685"><ele>2024.9</ele><time>2026-03-08T14:20:12.000Z</time></trkpt>
<trkpt lat="42.095779" lon="23.615687"><ele>2024.9</ele><time>2026-03-08T14:20:13.000Z</time></trkpt>
<trkpt lat="42.095769" lon="23.615689"><ele>2024.9</ele><time>2026-03-08T14:20:14.000Z</time></trkpt>
<trkpt lat="42.095758" lon="23.615692"><ele>2024.9</ele><time>2026-03-08T14:20:15.000Z</time></trkpt>
<trkpt lat="42.095748" lon="23.615696"><ele>2024.9</ele><time>2026-03-08T14:20:16.000Z</time></trkpt>
<trkpt lat="42.095737" lon="23.615701"><ele>2024.7</ele><time>2026-03-08T14:20:17.000Z</time></trkpt>
<trkpt lat="42.095726" lon="23.615707"><ele>2024.7</ele><time>2026-03-08T14:20:18.000Z</time></trkpt>
<trkpt lat="42.095715" lon="23.615712"><ele>2024.7</ele><time>2026-03-08T14:20:19.000Z</time></trkpt>
<trkpt lat="42.095704" lon="23.615718"><ele>2024.7</ele><time>2026-03-08T14:20:20.000Z</time></trkpt>
<trkpt lat="42.095694" lon="23.615723"><ele>2024.7</ele><time>2026-03-08T14:20:21.000Z</time></trkpt>
<trkpt lat="42.095683" lon="23.615727"><ele>2024.1</ele><time>2026-03-08T14:20:22.000Z</time></trkpt>
<trkpt lat="42.095673" lon="23.615731"><ele>2024.1</ele><time>2026-03-08T14:20:23.000Z</time></trkpt>
<trkpt lat="42.095663" lon="23.615736"><ele>2024.1</ele><time>2026-03-08T14:20:24.000Z</time></trkpt>
<trkpt lat="42.095653" lon="23.61574"><ele>2024.1</ele><time>2026-03-08T14:20:25.000Z</time></trkpt>
<trkpt lat="42.095644" lon="23.615744"><ele>2024.1</ele><time>2026-03-08T14:20:26.000Z</time></trkpt>
<trkpt lat="42.095635" lon="23.615749"><ele>2023.5</ele><time>2026-03-08T14:20:27.000Z</time></trkpt>
<trkpt lat="42.095627" lon="23.615754"><ele>2023.5</ele><time>2026-03-08T14:20:28.000Z</time></trkpt>
<trkpt lat="42.09562" lon="23.61576"><ele>2023.5</ele><time>2026-03-08T14:20:29.000Z</time></trkpt>
<trkpt lat="42.095614" lon="23.615769"><ele>2023.5</ele><time>2026-03-08T14:20:30.000Z</time></trkpt>
<trkpt lat="42.095607" lon="23.61578"><ele>2023.5</ele><time>2026-03-08T14:20:31.000Z</time></trkpt>
<trkpt lat="42.095601" lon="23.61579"><ele>2023.2</ele><time>2026-03-08T14:20:32.000Z</time></trkpt>
<trkpt lat="42.095594" lon="23.615801"><ele>2023.2</ele><time>2026-03-08T14:20:33.000Z</time></trkpt>
<trkpt lat="42.095585" lon="23.61581"><ele>2023.2</ele><time>2026-03-08T14:20:34.000Z</time></trkpt>
<trkpt lat="42.095577" lon="23.615818"><ele>2023.2</ele><time>2026-03-08T14:20:35.000Z</time></trkpt>
<trkpt lat="42.095568" lon="23.615826"><ele>2023.2</ele><time>2026-03-08T14:20:36.000Z</time></trkpt>
<trkpt lat="42.095559" lon="23.615833"><ele>2022.6</ele><time>2026-03-08T14:20:37.000Z</time></trkpt>
<trkpt lat="42.095551" lon="23.61584"><ele>2022.6</ele><time>2026-03-08T14:20:38.000Z</time></trkpt>
<trkpt lat="42.095543" lon="23.615847"><ele>2022.6</ele><time>2026-03-08T14:20:39.000Z</time></trkpt>
<trkpt lat="42.095535" lon="23.615856"><ele>2022.6</ele><time>2026-03-08T14:20:40.000Z</time></trkpt>
<trkpt lat="42.095527" lon="23.615865"><ele>2022.6</ele><time>2026-03-08T14:20:41.000Z</time></trkpt>
<trkpt lat="42.095519" lon="23.615874"><ele>2022.1</ele><time>2026-03-08T14:20:42.000Z</time></trkpt>
<trkpt lat="42.095511" lon="23.615883"><ele>2022.1</ele><time>2026-03-08T14:20:43.000Z</time></trkpt>
<trkpt lat="42.095503" lon="23.615892"><ele>2022.1</ele><time>2026-03-08T14:20:44.000Z</time></trkpt>
<trkpt lat="42.095495" lon="23.6159"><ele>2022.1</ele><time>2026-03-08T14:20:45.000Z</time></trkpt>
<trkpt lat="42.095487" lon="23.615908"><ele>2022.1</ele><time>2026-03-08T14:20:46.000Z</time></trkpt>
<trkpt lat="42.09548" lon="23.615915"><ele>2021.9</ele><time>2026-03-08T14:20:47.000Z</time></trkpt>
<trkpt lat="42.095472" lon="23.615922"><ele>2021.9</ele><time>2026-03-08T14:20:48.000Z</time></trkpt>
<trkpt lat="42.095465" lon="23.615929"><ele>2021.9</ele><time>2026-03-08T14:20:49.000Z</time></trkpt>
<trkpt lat="42.095457" lon="23.615938"><ele>2021.9</ele><time>2026-03-08T14:20:50.000Z</time></trkpt>
<trkpt lat="42.09545" lon="23.615947"><ele>2021.9</ele><time>2026-03-08T14:20:51.000Z</time></trkpt>
<trkpt lat="42.095441" lon="23.615957"><ele>2021.6</ele><time>2026-03-08T14:20:52.000Z</time></trkpt>
<trkpt lat="42.095434" lon="23.615968"><ele>2021.6</ele><time>2026-03-08T14:20:53.000Z</time></trkpt>
<trkpt lat="42.095427" lon="23.615979"><ele>2021.6</ele><time>2026-03-08T14:20:54.000Z</time></trkpt>
<trkpt lat="42.095419" lon="23.61599"><ele>2021.6</ele><time>2026-03-08T14:20:55.000Z</time></trkpt>
<trkpt lat="42.095412" lon="23.616"><ele>2021.6</ele><time>2026-03-08T14:20:56.000Z</time></trkpt>
<trkpt lat="42.095405" lon="23.616008"><ele>2021.1</ele><time>2026-03-08T14:20:57.000Z</time></trkpt>
<trkpt lat="42.095397" lon="23.616016"><ele>2021.1</ele><time>2026-03-08T14:20:58.000Z</time></trkpt>
<trkpt lat="42.095389" lon="23.616022"><ele>2021.1</ele><time>2026-03-08T14:20:59.000Z</time></trkpt>
<trkpt lat="42.095382" lon="23.616027"><ele>2021.1</ele><time>2026-03-08T14:21:00.000Z</time></trkpt>
<trkpt lat="42.095374" lon="23.616033"><ele>2021.1</ele><time>2026-03-08T14:21:01.000Z</time></trkpt>
<trkpt lat="42.095367" lon="23.61604"><ele>2020.8</ele><time>2026-03-08T14:21:02.000Z</time></trkpt>
<trkpt lat="42.095361" lon="23.616049"><ele>2020.8</ele><time>2026-03-08T14:21:03.000Z</time></trkpt>
<trkpt lat="42.095355" lon="23.616059"><ele>2020.8</ele><time>2026-03-08T14:21:04.000Z</time></trkpt>
<trkpt lat="42.09535" lon="23.616069"><ele>2020.8</ele><time>2026-03-08T14:21:05.000Z</time></trkpt>
<trkpt lat="42.095345" lon="23.616079"><ele>2020.8</ele><time>2026-03-08T14:21:06.000Z</time></trkpt>
<trkpt lat="42.095339" lon="23.616088"><ele>2020.3</ele><time>2026-03-08T14:21:07.000Z</time></trkpt>
<trkpt lat="42.095334" lon="23.616098"><ele>2020.3</ele><time>2026-03-08T14:21:08.000Z</time></trkpt>
<trkpt lat="42.095329" lon="23.616106"><ele>2020.3</ele><time>2026-03-08T14:21:09.000Z</time></trkpt>
<trkpt lat="42.095325" lon="23.616114"><ele>2020.3</ele><time>2026-03-08T14:21:10.000Z</time></trkpt>
<trkpt lat="42.095321" lon="23.616121"><ele>2020.3</ele><time>2026-03-08T14:21:11.000Z</time></trkpt>
<trkpt lat="42.095315" lon="23.616128"><ele>2019.9</ele><time>2026-03-08T14:21:12.000Z</time></trkpt>
<trkpt lat="42.09531" lon="23.616135"><ele>2019.9</ele><time>2026-03-08T14:21:13.000Z</time></trkpt>
<trkpt lat="42.095305" lon="23.61614"><ele>2019.9</ele><time>2026-03-08T14:21:14.000Z</time></trkpt>
<trkpt lat="42.095298" lon="23.616147"><ele>2019.9</ele><time>2026-03-08T14:21:15.000Z</time></trkpt>
<trkpt lat="42.095291" lon="23.616155"><ele>2019.9</ele><time>2026-03-08T14:21:16.000Z</time></trkpt>
<trkpt lat="42.095284" lon="23.616163"><ele>2019.7</ele><time>2026-03-08T14:21:17.000Z</time></trkpt>
<trkpt lat="42.095277" lon="23.616171"><ele>2019.7</ele><time>2026-03-08T14:21:18.000Z</time></trkpt>
<trkpt lat="42.09527" lon="23.61618"><ele>2019.7</ele><time>2026-03-08T14:21:19.000Z</time></trkpt>
<trkpt lat="42.095263" lon="23.61619"><ele>2019.7</ele><time>2026-03-08T14:21:20.000Z</time></trkpt>
<trkpt lat="42.095257" lon="23.616199"><ele>2019.7</ele><time>2026-03-08T14:21:21.000Z</time></trkpt>
<trkpt lat="42.09525" lon="23.616208"><ele>2019.4</ele><time>2026-03-08T14:21:22.000Z</time></trkpt>
<trkpt lat="42.095243" lon="23.616218"><ele>2019.4</ele><time>2026-03-08T14:21:23.000Z</time></trkpt>
<trkpt lat="42.095237" lon="23.616228"><ele>2019.4</ele><time>2026-03-08T14:21:24.000Z</time></trkpt>
<trkpt lat="42.095231" lon="23.616238"><ele>2019.4</ele><time>2026-03-08T14:21:25.000Z</time></trkpt>
<trkpt lat="42.095225" lon="23.616247"><ele>2019.4</ele><time>2026-03-08T14:21:26.000Z</time></trkpt>
<trkpt lat="42.09522" lon="23.616256"><ele>2019</ele><time>2026-03-08T14:21:27.000Z</time></trkpt>
<trkpt lat="42.095215" lon="23.616265"><ele>2019</ele><time>2026-03-08T14:21:28.000Z</time></trkpt>
<trkpt lat="42.095209" lon="23.616274"><ele>2019</ele><time>2026-03-08T14:21:29.000Z</time></trkpt>
<trkpt lat="42.095203" lon="23.616283"><ele>2019</ele><time>2026-03-08T14:21:30.000Z</time></trkpt>
<trkpt lat="42.095197" lon="23.61629"><ele>2019</ele><time>2026-03-08T14:21:31.000Z</time></trkpt>
<trkpt lat="42.095191" lon="23.616298"><ele>2018.9</ele><time>2026-03-08T14:21:32.000Z</time></trkpt>
<trkpt lat="42.095185" lon="23.616307"><ele>2018.9</ele><time>2026-03-08T14:21:33.000Z</time></trkpt>
<trkpt lat="42.095179" lon="23.616316"><ele>2018.9</ele><time>2026-03-08T14:21:34.000Z</time></trkpt>
<trkpt lat="42.095173" lon="23.616326"><ele>2018.9</ele><time>2026-03-08T14:21:35.000Z</time></trkpt>
<trkpt lat="42.095168" lon="23.616338"><ele>2018.9</ele><time>2026-03-08T14:21:36.000Z</time></trkpt>
<trkpt lat="42.095161" lon="23.61635"><ele>2018.6</ele><time>2026-03-08T14:21:37.000Z</time></trkpt>
<trkpt lat="42.095154" lon="23.616361"><ele>2018.6</ele><time>2026-03-08T14:21:38.000Z</time></trkpt>
<trkpt lat="42.095147" lon="23.616371"><ele>2018.6</ele><time>2026-03-08T14:21:39.000Z</time></trkpt>
<trkpt lat="42.09514" lon="23.616381"><ele>2018.6</ele><time>2026-03-08T14:21:40.000Z</time></trkpt>
<trkpt lat="42.095133" lon="23.616389"><ele>2018.6</ele><time>2026-03-08T14:21:41.000Z</time></trkpt>
<trkpt lat="42.095127" lon="23.616396"><ele>2018.4</ele><time>2026-03-08T14:21:42.000Z</time></trkpt>
<trkpt lat="42.09512" lon="23.616402"><ele>2018.4</ele><time>2026-03-08T14:21:43.000Z</time></trkpt>
<trkpt lat="42.095113" lon="23.616408"><ele>2018.4</ele><time>2026-03-08T14:21:44.000Z</time></trkpt>
<trkpt lat="42.095106" lon="23.616411"><ele>2018.4</ele><time>2026-03-08T14:21:45.000Z</time></trkpt>
<trkpt lat="42.095098" lon="23.616414"><ele>2018.4</ele><time>2026-03-08T14:21:46.000Z</time></trkpt>
<trkpt lat="42.09509" lon="23.616416"><ele>2018.2</ele><time>2026-03-08T14:21:47.000Z</time></trkpt>
<trkpt lat="42.095082" lon="23.616417"><ele>2018.2</ele><time>2026-03-08T14:21:48.000Z</time></trkpt>
<trkpt lat="42.095074" lon="23.616419"><ele>2018.2</ele><time>2026-03-08T14:21:49.000Z</time></trkpt>
<trkpt lat="42.095065" lon="23.616423"><ele>2018.2</ele><time>2026-03-08T14:21:50.000Z</time></trkpt>
<trkpt lat="42.095057" lon="23.616427"><ele>2018.2</ele><time>2026-03-08T14:21:51.000Z</time></trkpt>
<trkpt lat="42.095048" lon="23.616431"><ele>2017.9</ele><time>2026-03-08T14:21:52.000Z</time></trkpt>
<trkpt lat="42.095041" lon="23.616436"><ele>2017.9</ele><time>2026-03-08T14:21:53.000Z</time></trkpt>
<trkpt lat="42.095033" lon="23.616441"><ele>2017.9</ele><time>2026-03-08T14:21:54.000Z</time></trkpt>
<trkpt lat="42.095027" lon="23.616447"><ele>2017.9</ele><time>2026-03-08T14:21:55.000Z</time></trkpt>
<trkpt lat="42.09502" lon="23.616452"><ele>2017.9</ele><time>2026-03-08T14:21:56.000Z</time></trkpt>
<trkpt lat="42.095013" lon="23.616458"><ele>2017.5</ele><time>2026-03-08T14:21:57.000Z</time></trkpt>
<trkpt lat="42.095006" lon="23.616464"><ele>2017.5</ele><time>2026-03-08T14:21:58.000Z</time></trkpt>
<trkpt lat="42.095" lon="23.616471"><ele>2017.5</ele><time>2026-03-08T14:21:59.000Z</time></trkpt>
<trkpt lat="42.094993" lon="23.616477"><ele>2017.5</ele><time>2026-03-08T14:22:00.000Z</time></trkpt>
<trkpt lat="42.094986" lon="23.616483"><ele>2017.5</ele><time>2026-03-08T14:22:01.000Z</time></trkpt>
<trkpt lat="42.09498" lon="23.616489"><ele>2017.4</ele><time>2026-03-08T14:22:02.000Z</time></trkpt>
<trkpt lat="42.094973" lon="23.616496"><ele>2017.4</ele><time>2026-03-08T14:22:03.000Z</time></trkpt>
<trkpt lat="42.094966" lon="23.616502"><ele>2017.4</ele><time>2026-03-08T14:22:04.000Z</time></trkpt>
<trkpt lat="42.09496" lon="23.616508"><ele>2017.4</ele><time>2026-03-08T14:22:05.000Z</time></trkpt>
<trkpt lat="42.094953" lon="23.616514"><ele>2017.4</ele><time>2026-03-08T14:22:06.000Z</time></trkpt>
<trkpt lat="42.094946" lon="23.616522"><ele>2017.2</ele><time>2026-03-08T14:22:07.000Z</time></trkpt>
<trkpt lat="42.09494" lon="23.616529"><ele>2017.2</ele><time>2026-03-08T14:22:08.000Z</time></trkpt>
<trkpt lat="42.094932" lon="23.616537"><ele>2017.2</ele><time>2026-03-08T14:22:09.000Z</time></trkpt>
<trkpt lat="42.094924" lon="23.616545"><ele>2017.2</ele><time>2026-03-08T14:22:10.000Z</time></trkpt>
<trkpt lat="42.094916" lon="23.616553"><ele>2017.2</ele><time>2026-03-08T14:22:11.000Z</time></trkpt>
<trkpt lat="42.094909" lon="23.616561"><ele>2016.9</ele><time>2026-03-08T14:22:12.000Z</time></trkpt>
<trkpt lat="42.094901" lon="23.616569"><ele>2016.9</ele><time>2026-03-08T14:22:13.000Z</time></trkpt>
<trkpt lat="42.094893" lon="23.616577"><ele>2016.9</ele><time>2026-03-08T14:22:14.000Z</time></trkpt>
<trkpt lat="42.094887" lon="23.616585"><ele>2016.9</ele><time>2026-03-08T14:22:15.000Z</time></trkpt>
<trkpt lat="42.09488" lon="23.616593"><ele>2016.9</ele><time>2026-03-08T14:22:16.000Z</time></trkpt>
<trkpt lat="42.094874" lon="23.616601"><ele>2016.8</ele><time>2026-03-08T14:22:17.000Z</time></trkpt>
<trkpt lat="42.094867" lon="23.61661"><ele>2016.8</ele><time>2026-03-08T14:22:18.000Z</time></trkpt>
<trkpt lat="42.094861" lon="23.616619"><ele>2016.8</ele><time>2026-03-08T14:22:19.000Z</time></trkpt>
<trkpt lat="42.094854" lon="23.616629"><ele>2016.8</ele><time>2026-03-08T14:22:20.000Z</time></trkpt>
<trkpt lat="42.094846" lon="23.616639"><ele>2016.8</ele><time>2026-03-08T14:22:21.000Z</time></trkpt>
<trkpt lat="42.094839" lon="23.616648"><ele>2016.7</ele><time>2026-03-08T14:22:22.000Z</time></trkpt>
<trkpt lat="42.094832" lon="23.616656"><ele>2016.7</ele><time>2026-03-08T14:22:23.000Z</time></trkpt>
<trkpt lat="42.094826" lon="23.616665"><ele>2016.7</ele><time>2026-03-08T14:22:24.000Z</time></trkpt>
<trkpt lat="42.09482" lon="23.616674"><ele>2016.7</ele><time>2026-03-08T14:22:25.000Z</time></trkpt>
<trkpt lat="42.094814" lon="23.616683"><ele>2016.7</ele><time>2026-03-08T14:22:26.000Z</time></trkpt>
<trkpt lat="42.094807" lon="23.616691"><ele>2016.5</ele><time>2026-03-08T14:22:27.000Z</time></trkpt>
<trkpt lat="42.0948" lon="23.616698"><ele>2016.5</ele><time>2026-03-08T14:22:28.000Z</time></trkpt>
<trkpt lat="42.094794" lon="23.616703"><ele>2016.5</ele><time>2026-03-08T14:22:29.000Z</time></trkpt>
<trkpt lat="42.094787" lon="23.616708"><ele>2016.5</ele><time>2026-03-08T14:22:30.000Z</time></trkpt>
<trkpt lat="42.094779" lon="23.616711"><ele>2016.5</ele><time>2026-03-08T14:22:31.000Z</time></trkpt>
<trkpt lat="42.094772" lon="23.616717"><ele>2016.3</ele><time>2026-03-08T14:22:32.000Z</time></trkpt>
<trkpt lat="42.094766" lon="23.616724"><ele>2016.3</ele><time>2026-03-08T14:22:33.000Z</time></trkpt>
<trkpt lat="42.094759" lon="23.616731"><ele>2016.3</ele><time>2026-03-08T14:22:34.000Z</time></trkpt>
<trkpt lat="42.094752" lon="23.616738"><ele>2016.3</ele><time>2026-03-08T14:22:35.000Z</time></trkpt>
<trkpt lat="42.094747" lon="23.616746"><ele>2016.3</ele><time>2026-03-08T14:22:36.000Z</time></trkpt>
<trkpt lat="42.094741" lon="23.616754"><ele>2016.1</ele><time>2026-03-08T14:22:37.000Z</time></trkpt>
<trkpt lat="42.094734" lon="23.616762"><ele>2016.1</ele><time>2026-03-08T14:22:38.000Z</time></trkpt>
<trkpt lat="42.094727" lon="23.61677"><ele>2016.1</ele><time>2026-03-08T14:22:39.000Z</time></trkpt>
<trkpt lat="42.094721" lon="23.616778"><ele>2016.1</ele><time>2026-03-08T14:22:40.000Z</time></trkpt>
<trkpt lat="42.094714" lon="23.616786"><ele>2016.1</ele><time>2026-03-08T14:22:41.000Z</time></trkpt>
<trkpt lat="42.094706" lon="23.616794"><ele>2016</ele><time>2026-03-08T14:22:42.000Z</time></trkpt>
<trkpt lat="42.094699" lon="23.616803"><ele>2016</ele><time>2026-03-08T14:22:43.000Z</time></trkpt>
<trkpt lat="42.094692" lon="23.616811"><ele>2016</ele><time>2026-03-08T14:22:44.000Z</time></trkpt>
<trkpt lat="42.094685" lon="23.616819"><ele>2016</ele><time>2026-03-08T14:22:45.000Z</time></trkpt>
<trkpt lat="42.094677" lon="23.616826"><ele>2016</ele><time>2026-03-08T14:22:46.000Z</time></trkpt>
<trkpt lat="42.094671" lon="23.616832"><ele>2016.1</ele><time>2026-03-08T14:22:47.000Z</time></trkpt>
<trkpt lat="42.094666" lon="23.616837"><ele>2016.1</ele><time>2026-03-08T14:22:48.000Z</time></trkpt>
<trkpt lat="42.09466" lon="23.616842"><ele>2016.1</ele><time>2026-03-08T14:22:49.000Z</time></trkpt>
<trkpt lat="42.094654" lon="23.616847"><ele>2016.1</ele><time>2026-03-08T14:22:50.000Z</time></trkpt>
<trkpt lat="42.094648" lon="23.616852"><ele>2016.1</ele><time>2026-03-08T14:22:51.000Z</time></trkpt>
<trkpt lat="42.09464" lon="23.616857"><ele>2016</ele><time>2026-03-08T14:22:52.000Z</time></trkpt>
<trkpt lat="42.094632" lon="23.616865"><ele>2016</ele><time>2026-03-08T14:22:53.000Z</time></trkpt>
<trkpt lat="42.094623" lon="23.616872"><ele>2016</ele><time>2026-03-08T14:22:54.000Z</time></trkpt>
<trkpt lat="42.094615" lon="23.616879"><ele>2016</ele><time>2026-03-08T14:22:55.000Z</time></trkpt>
<trkpt lat="42.094608" lon="23.616887"><ele>2016</ele><time>2026-03-08T14:22:56.000Z</time></trkpt>
<trkpt lat="42.0946" lon="23.616896"><ele>2015.9</ele><time>2026-03-08T14:22:57.000Z</time></trkpt>
<trkpt lat="42.094594" lon="23.616904"><ele>2015.9</ele><time>2026-03-08T14:22:58.000Z</time></trkpt>
<trkpt lat="42.094588" lon="23.616912"><ele>2015.9</ele><time>2026-03-08T14:22:59.000Z</time></trkpt>
<trkpt lat="42.094583" lon="23.61692"><ele>2015.9</ele><time>2026-03-08T14:23:00.000Z</time></trkpt>
<trkpt lat="42.094578" lon="23.616929"><ele>2015.9</ele><time>2026-03-08T14:23:01.000Z</time></trkpt>
<trkpt lat="42.094571" lon="23.616937"><ele>2015.6</ele><time>2026-03-08T14:23:02.000Z</time></trkpt>
<trkpt lat="42.094565" lon="23.616944"><ele>2015.6</ele><time>2026-03-08T14:23:03.000Z</time></trkpt>
<trkpt lat="42.094558" lon="23.616952"><ele>2015.6</ele><time>2026-03-08T14:23:04.000Z</time></trkpt>
<trkpt lat="42.094549" lon="23.616959"><ele>2015.6</ele><time>2026-03-08T14:23:05.000Z</time></trkpt>
<trkpt lat="42.09454" lon="23.616965"><ele>2015.6</ele><time>2026-03-08T14:23:06.000Z</time></trkpt>
<trkpt lat="42.094531" lon="23.616971"><ele>2015.3</ele><time>2026-03-08T14:23:07.000Z</time></trkpt>
<trkpt lat="42.094522" lon="23.616977"><ele>2015.3</ele><time>2026-03-08T14:23:08.000Z</time></trkpt>
<trkpt lat="42.094514" lon="23.616983"><ele>2015.3</ele><time>2026-03-08T14:23:09.000Z</time></trkpt>
<trkpt lat="42.094505" lon="23.61699"><ele>2015.3</ele><time>2026-03-08T14:23:10.000Z</time></trkpt>
<trkpt lat="42.094497" lon="23.616997"><ele>2015.3</ele><time>2026-03-08T14:23:11.000Z</time></trkpt>
<trkpt lat="42.094488" lon="23.617004"><ele>2015</ele><time>2026-03-08T14:23:12.000Z</time></trkpt>
<trkpt lat="42.09448" lon="23.617011"><ele>2015</ele><time>2026-03-08T14:23:13.000Z</time></trkpt>
<trkpt lat="42.094471" lon="23.617018"><ele>2015</ele><time>2026-03-08T14:23:14.000Z</time></trkpt>
<trkpt lat="42.094463" lon="23.617025"><ele>2015</ele><time>2026-03-08T14:23:15.000Z</time></trkpt>
<trkpt lat="42.094455" lon="23.617033"><ele>2015</ele><time>2026-03-08T14:23:16.000Z</time></trkpt>
<trkpt lat="42.094448" lon="23.617041"><ele>2014.8</ele><time>2026-03-08T14:23:17.000Z</time></trkpt>
<trkpt lat="42.09444" lon="23.61705"><ele>2014.8</ele><time>2026-03-08T14:23:18.000Z</time></trkpt>
<trkpt lat="42.094432" lon="23.61706"><ele>2014.8</ele><time>2026-03-08T14:23:19.000Z</time></trkpt>
<trkpt lat="42.094424" lon="23.617069"><ele>2014.8</ele><time>2026-03-08T14:23:20.000Z</time></trkpt>
<trkpt lat="42.094416" lon="23.617078"><ele>2014.8</ele><time>2026-03-08T14:23:21.000Z</time></trkpt>
<trkpt lat="42.094408" lon="23.617086"><ele>2014.4</ele><time>2026-03-08T14:23:22.000Z</time></trkpt>
<trkpt lat="42.0944" lon="23.617094"><ele>2014.4</ele><time>2026-03-08T14:23:23.000Z</time></trkpt>
<trkpt lat="42.094393" lon="23.617102"><ele>2014.4</ele><time>2026-03-08T14:23:24.000Z</time></trkpt>
<trkpt lat="42.094385" lon="23.617109"><ele>2014.4</ele><time>2026-03-08T14:23:25.000Z</time></trkpt>
<trkpt lat="42.094377" lon="23.617116"><ele>2014.4</ele><time>2026-03-08T14:23:26.000Z</time></trkpt>
<trkpt lat="42.09437" lon="23.617124"><ele>2014.2</ele><time>2026-03-08T14:23:27.000Z</time></trkpt>
<trkpt lat="42.094362" lon="23.617131"><ele>2014.2</ele><time>2026-03-08T14:23:28.000Z</time></trkpt>
<trkpt lat="42.094354" lon="23.617139"><ele>2014.2</ele><time>2026-03-08T14:23:29.000Z</time></trkpt>
<trkpt lat="42.094346" lon="23.617148"><ele>2014.2</ele><time>2026-03-08T14:23:30.000Z</time></trkpt>
<trkpt lat="42.094337" lon="23.617156"><ele>2014.2</ele><time>2026-03-08T14:23:31.000Z</time></trkpt>
<trkpt lat="42.094328" lon="23.617163"><ele>2013.8</ele><time>2026-03-08T14:23:32.000Z</time></trkpt>
<trkpt lat="42.094319" lon="23.617169"><ele>2013.8</ele><time>2026-03-08T14:23:33.000Z</time></trkpt>
<trkpt lat="42.09431" lon="23.617173"><ele>2013.8</ele><time>2026-03-08T14:23:34.000Z</time></trkpt>
<trkpt lat="42.0943" lon="23.617176"><ele>2013.8</ele><time>2026-03-08T14:23:35.000Z</time></trkpt>
<trkpt lat="42.09429" lon="23.617181"><ele>2013.8</ele><time>2026-03-08T14:23:36.000Z</time></trkpt>
<trkpt lat="42.09428" lon="23.617184"><ele>2013.2</ele><time>2026-03-08T14:23:37.000Z</time></trkpt>
<trkpt lat="42.094272" lon="23.61719"><ele>2013.2</ele><time>2026-03-08T14:23:38.000Z</time></trkpt>
<trkpt lat="42.094264" lon="23.617196"><ele>2013.2</ele><time>2026-03-08T14:23:39.000Z</time></trkpt>
<trkpt lat="42.094256" lon="23.617203"><ele>2013.2</ele><time>2026-03-08T14:23:40.000Z</time></trkpt>
<trkpt lat="42.094248" lon="23.61721"><ele>2013.2</ele><time>2026-03-08T14:23:41.000Z</time></trkpt>
<trkpt lat="42.09424" lon="23.617218"><ele>2012.7</ele><time>2026-03-08T14:23:42.000Z</time></trkpt>
<trkpt lat="42.094232" lon="23.617225"><ele>2012.7</ele><time>2026-03-08T14:23:43.000Z</time></trkpt>
<trkpt lat="42.094224" lon="23.617232"><ele>2012.7</ele><time>2026-03-08T14:23:44.000Z</time></trkpt>
<trkpt lat="42.094216" lon="23.617239"><ele>2012.7</ele><time>2026-03-08T14:23:45.000Z</time></trkpt>
<trkpt lat="42.094209" lon="23.617246"><ele>2012.7</ele><time>2026-03-08T14:23:46.000Z</time></trkpt>
<trkpt lat="42.094201" lon="23.617254"><ele>2012.6</ele><time>2026-03-08T14:23:47.000Z</time></trkpt>
<trkpt lat="42.094194" lon="23.617263"><ele>2012.6</ele><time>2026-03-08T14:23:48.000Z</time></trkpt>
<trkpt lat="42.094187" lon="23.617273"><ele>2012.6</ele><time>2026-03-08T14:23:49.000Z</time></trkpt>
<trkpt lat="42.09418" lon="23.617284"><ele>2012.6</ele><time>2026-03-08T14:23:50.000Z</time></trkpt>
<trkpt lat="42.094172" lon="23.617294"><ele>2012.6</ele><time>2026-03-08T14:23:51.000Z</time></trkpt>
<trkpt lat="42.094165" lon="23.617304"><ele>2012.3</ele><time>2026-03-08T14:23:52.000Z</time></trkpt>
<trkpt lat="42.094158" lon="23.617313"><ele>2012.3</ele><time>2026-03-08T14:23:53.000Z</time></trkpt>
<trkpt lat="42.094151" lon="23.617321"><ele>2012.3</ele><time>2026-03-08T14:23:54.000Z</time></trkpt>
<trkpt lat="42.094145" lon="23.617329"><ele>2012.3</ele><time>2026-03-08T14:23:55.000Z</time></trkpt>
<trkpt lat="42.09414" lon="23.617336"><ele>2012.3</ele><time>2026-03-08T14:23:56.000Z</time></trkpt>
<trkpt lat="42.094138" lon="23.617342"><ele>2012.1</ele><time>2026-03-08T14:23:57.000Z</time></trkpt>
<trkpt lat="42.094136" lon="23.617347"><ele>2012.1</ele><time>2026-03-08T14:23:58.000Z</time></trkpt>
<trkpt lat="42.094136" lon="23.617351"><ele>2012.1</ele><time>2026-03-08T14:23:59.000Z</time></trkpt>
<trkpt lat="42.094136" lon="23.617355"><ele>2012.1</ele><time>2026-03-08T14:24:00.000Z</time></trkpt>
<trkpt lat="42.094134" lon="23.61736"><ele>2012.1</ele><time>2026-03-08T14:24:01.000Z</time></trkpt>
<trkpt lat="42.09413" lon="23.617367"><ele>2011.9</ele><time>2026-03-08T14:24:02.000Z</time></trkpt>
<trkpt lat="42.094126" lon="23.617373"><ele>2011.9</ele><time>2026-03-08T14:24:03.000Z</time></trkpt>
<trkpt lat="42.094119" lon="23.617382"><ele>2011.9</ele><time>2026-03-08T14:24:04.000Z</time></trkpt>
<trkpt lat="42.094112" lon="23.617391"><ele>2011.9</ele><time>2026-03-08T14:24:05.000Z</time></trkpt>
<trkpt lat="42.094106" lon="23.617399"><ele>2011.9</ele><time>2026-03-08T14:24:06.000Z</time></trkpt>
<trkpt lat="42.094099" lon="23.617407"><ele>2011.6</ele><time>2026-03-08T14:24:07.000Z</time></trkpt>
<trkpt lat="42.094092" lon="23.617416"><ele>2011.6</ele><time>2026-03-08T14:24:08.000Z</time></trkpt>
<trkpt lat="42.094085" lon="23.617424"><ele>2011.6</ele><time>2026-03-08T14:24:09.000Z</time></trkpt>
<trkpt lat="42.094078" lon="23.617432"><ele>2011.6</ele><time>2026-03-08T14:24:10.000Z</time></trkpt>
<trkpt lat="42.09407" lon="23.61744"><ele>2011.6</ele><time>2026-03-08T14:24:11.000Z</time></trkpt>
<trkpt lat="42.094063" lon="23.617449"><ele>2011.5</ele><time>2026-03-08T14:24:12.000Z</time></trkpt>
<trkpt lat="42.094057" lon="23.617456"><ele>2011.5</ele><time>2026-03-08T14:24:13.000Z</time></trkpt>
<trkpt lat="42.094051" lon="23.617462"><ele>2011.5</ele><time>2026-03-08T14:24:14.000Z</time></trkpt>
<trkpt lat="42.094048" lon="23.617466"><ele>2011.5</ele><time>2026-03-08T14:24:15.000Z</time></trkpt>
<trkpt lat="42.094045" lon="23.617468"><ele>2011.5</ele><time>2026-03-08T14:24:16.000Z</time></trkpt>
<trkpt lat="42.094043" lon="23.617469"><ele>2011.2</ele><time>2026-03-08T14:24:17.000Z</time></trkpt>
<trkpt lat="42.094043" lon="23.61747"><ele>2011.2</ele><time>2026-03-08T14:24:18.000Z</time></trkpt>
<trkpt lat="42.094043" lon="23.617471"><ele>2011.2</ele><time>2026-03-08T14:24:19.000Z</time></trkpt>
<trkpt lat="42.094042" lon="23.617471"><ele>2011.2</ele><time>2026-03-08T14:24:20.000Z</time></trkpt>
<trkpt lat="42.094041" lon="23.617471"><ele>2011.2</ele><time>2026-03-08T14:24:21.000Z</time></trkpt>
<trkpt lat="42.094041" lon="23.617471"><ele>2010.9</ele><time>2026-03-08T14:24:22.000Z</time></trkpt>
<trkpt lat="42.09404" lon="23.61747"><ele>2010.9</ele><time>2026-03-08T14:24:23.000Z</time></trkpt>
<trkpt lat="42.09404" lon="23.61747"><ele>2010.9</ele><time>2026-03-08T14:24:24.000Z</time></trkpt>
<trkpt lat="42.09404" lon="23.617469"><ele>2010.9</ele><time>2026-03-08T14:24:25.000Z</time></trkpt>
<trkpt lat="42.09404" lon="23.617469"><ele>2010.9</ele><time>2026-03-08T14:24:26.000Z</time></trkpt>
<trkpt lat="42.09404" lon="23.617469"><ele>2010.7</ele><time>2026-03-08T14:24:27.000Z</time></trkpt>
<trkpt lat="42.09404" lon="23.617469"><ele>2010.7</ele><time>2026-03-08T14:24:28.000Z</time></trkpt>
<trkpt lat="42.09404" lon="23.617469"><ele>2010.7</ele><time>2026-03-08T14:24:29.000Z</time></trkpt>
<trkpt lat="42.09404" lon="23.617469"><ele>2010.7</ele><time>2026-03-08T14:24:30.000Z</time></trkpt>
<trkpt lat="42.09404" lon="23.617469"><ele>2010.7</ele><time>2026-03-08T14:24:31.000Z</time></trkpt>
<trkpt lat="42.09404" lon="23.617469"><ele>2010.6</ele><time>2026-03-08T14:24:32.000Z</time></trkpt>
<trkpt lat="42.09404" lon="23.617468"><ele>2010.6</ele><time>2026-03-08T14:24:33.000Z</time></trkpt>
<trkpt lat="42.09404" lon="23.617467"><ele>2010.6</ele><time>2026-03-08T14:24:34.000Z</time></trkpt>
<trkpt lat="42.094039" lon="23.617466"><ele>2010.6</ele><time>2026-03-08T14:24:35.000Z</time></trkpt>
<trkpt lat="42.094039" lon="23.617465"><ele>2010.6</ele><time>2026-03-08T14:24:36.000Z</time></trkpt>
<trkpt lat="42.094039" lon="23.617464"><ele>2010.5</ele><time>2026-03-08T14:24:37.000Z</time></trkpt>
<trkpt lat="42.094039" lon="23.617464"><ele>2010.5</ele><time>2026-03-08T14:24:38.000Z</time></trkpt>
<trkpt lat="42.094039" lon="23.617464"><ele>2010.5</ele><time>2026-03-08T14:24:39.000Z</time></trkpt>
<trkpt lat="42.094039" lon="23.617464"><ele>2010.5</ele><time>2026-03-08T14:24:40.000Z</time></trkpt>
<trkpt lat="42.094039" lon="23.617464"><ele>2010.5</ele><time>2026-03-08T14:24:41.000Z</time></trkpt>
<trkpt lat="42.094039" lon="23.617464"><ele>2010.6</ele><time>2026-03-08T14:24:42.000Z</time></trkpt>
<trkpt lat="42.094039" lon="23.617464"><ele>2010.6</ele><time>2026-03-08T14:24:43.000Z</time></trkpt>
<trkpt lat="42.094039" lon="23.617464"><ele>2010.6</ele><time>2026-03-08T14:24:44.000Z</time></trkpt>
<trkpt lat="42.094037" lon="23.617463"><ele>2010.6</ele><time>2026-03-08T14:24:45.000Z</time></trkpt>
<trkpt lat="42.094036" lon="23.617463"><ele>2010.6</ele><time>2026-03-08T14:24:46.000Z</time></trkpt>
<trkpt lat="42.094035" lon="23.617463"><ele>2010.6</ele><time>2026-03-08T14:24:47.000Z</time></trkpt>
<trkpt lat="42.094033" lon="23.617462"><ele>2010.6</ele><time>2026-03-08T14:24:48.000Z</time></trkpt>
<trkpt lat="42.094032" lon="23.617462"><ele>2010.6</ele><time>2026-03-08T14:24:49.000Z</time></trkpt>
<trkpt lat="42.094032" lon="23.617462"><ele>2010.6</ele><time>2026-03-08T14:24:50.000Z</time></trkpt>
<trkpt lat="42.094031" lon="23.617462"><ele>2010.6</ele><time>2026-03-08T14:24:51.000Z</time></trkpt>
<trkpt lat="42.094031" lon="23.617462"><ele>2010.7</ele><time>2026-03-08T14:24:52.000Z</time></trkpt>
<trkpt lat="42.094031" lon="23.617462"><ele>2010.7</ele><time>2026-03-08T14:24:53.000Z</time></trkpt>
<trkpt lat="42.09403" lon="23.617462"><ele>2010.7</ele><time>2026-03-08T14:24:54.000Z</time></trkpt>
<trkpt lat="42.09403" lon="23.617462"><ele>2010.7</ele><time>2026-03-08T14:24:55.000Z</time></trkpt>
<trkpt lat="42.094031" lon="23.617463"><ele>2010.7</ele><time>2026-03-08T14:24:56.000Z</time></trkpt>
<trkpt lat="42.094031" lon="23.617463"><ele>2010.6</ele><time>2026-03-08T14:24:57.000Z</time></trkpt>
<trkpt lat="42.094031" lon="23.617463"><ele>2010.6</ele><time>2026-03-08T14:24:58.000Z</time></trkpt>
<trkpt lat="42.094031" lon="23.617464"><ele>2010.6</ele><time>2026-03-08T14:24:59.000Z</time></trkpt>
<trkpt lat="42.094031" lon="23.617464"><ele>2010.6</ele><time>2026-03-08T14:25:00.000Z</time></trkpt>
<trkpt lat="42.094031" lon="23.617464"><ele>2010.6</ele><time>2026-03-08T14:25:01.000Z</time></trkpt>
<trkpt lat="42.094031" lon="23.617464"><ele>2010.6</ele><time>2026-03-08T14:25:02.000Z</time></trkpt>
<trkpt lat="42.09403" lon="23.617464"><ele>2010.6</ele><time>2026-03-08T14:25:03.000Z</time></trkpt>
<trkpt lat="42.09403" lon="23.617464"><ele>2010.6</ele><time>2026-03-08T14:25:04.000Z</time></trkpt>
<trkpt lat="42.09403" lon="23.617464"><ele>2010.6</ele><time>2026-03-08T14:25:05.000Z</time></trkpt>
<trkpt lat="42.09403" lon="23.617464"><ele>2010.6</ele><time>2026-03-08T14:25:06.000Z</time></trkpt>
<trkpt lat="42.09403" lon="23.617464"><ele>2010.4</ele><time>2026-03-08T14:25:07.000Z</time></trkpt>
<trkpt lat="42.094029" lon="23.617465"><ele>2010.4</ele><time>2026-03-08T14:25:08.000Z</time></trkpt>
<trkpt lat="42.094029" lon="23.617464"><ele>2010.4</ele><time>2026-03-08T14:25:09.000Z</time></trkpt>
<trkpt lat="42.094029" lon="23.617464"><ele>2010.4</ele><time>2026-03-08T14:25:10.000Z</time></trkpt>
<trkpt lat="42.09403" lon="23.617464"><ele>2010.4</ele><time>2026-03-08T14:25:11.000Z</time></trkpt>
<trkpt lat="42.09403" lon="23.617463"><ele>2010.3</ele><time>2026-03-08T14:25:12.000Z</time></trkpt>
<trkpt lat="42.09403" lon="23.617462"><ele>2010.3</ele><time>2026-03-08T14:25:13.000Z</time></trkpt>
<trkpt lat="42.094031" lon="23.617461"><ele>2010.3</ele><time>2026-03-08T14:25:14.000Z</time></trkpt>
<trkpt lat="42.094031" lon="23.61746"><ele>2010.3</ele><time>2026-03-08T14:25:15.000Z</time></trkpt>
<trkpt lat="42.094031" lon="23.617459"><ele>2010.3</ele><time>2026-03-08T14:25:16.000Z</time></trkpt>
<trkpt lat="42.094032" lon="23.617458"><ele>2010.1</ele><time>2026-03-08T14:25:17.000Z</time></trkpt>
<trkpt lat="42.094032" lon="23.617457"><ele>2010.1</ele><time>2026-03-08T14:25:18.000Z</time></trkpt>
<trkpt lat="42.094032" lon="23.617457"><ele>2010.1</ele><time>2026-03-08T14:25:19.000Z</time></trkpt>
<trkpt lat="42.094032" lon="23.617457"><ele>2010.1</ele><time>2026-03-08T14:25:20.000Z</time></trkpt>
<trkpt lat="42.094032" lon="23.617457"><ele>2010.1</ele><time>2026-03-08T14:25:21.000Z</time></trkpt>
<trkpt lat="42.094032" lon="23.617457"><ele>2010.2</ele><time>2026-03-08T14:25:22.000Z</time></trkpt>
<trkpt lat="42.094032" lon="23.617457"><ele>2010.2</ele><time>2026-03-08T14:25:23.000Z</time></trkpt>
<trkpt lat="42.094032" lon="23.617457"><ele>2010.2</ele><time>2026-03-08T14:25:24.000Z</time></trkpt>
<trkpt lat="42.094032" lon="23.617457"><ele>2010.2</ele><time>2026-03-08T14:25:25.000Z</time></trkpt>
<trkpt lat="42.094032" lon="23.617457"><ele>2010.2</ele><time>2026-03-08T14:25:26.000Z</time></trkpt>
<trkpt lat="42.094032" lon="23.617457"><ele>2010.2</ele><time>2026-03-08T14:25:27.000Z</time></trkpt>
<trkpt lat="42.094032" lon="23.617457"><ele>2010.2</ele><time>2026-03-08T14:25:28.000Z</time></trkpt>
<trkpt lat="42.094032" lon="23.617457"><ele>2010.2</ele><time>2026-03-08T14:25:29.000Z</time></trkpt>
<trkpt lat="42.094032" lon="23.617457"><ele>2010.2</ele><time>2026-03-08T14:25:30.000Z</time></trkpt>
<trkpt lat="42.094032" lon="23.617457"><ele>2010.2</ele><time>2026-03-08T14:25:31.000Z</time></trkpt>
<trkpt lat="42.094032" lon="23.617458"><ele>2010.3</ele><time>2026-03-08T14:25:32.000Z</time></trkpt>
<trkpt lat="42.094032" lon="23.617458"><ele>2010.3</ele><time>2026-03-08T14:25:33.000Z</time></trkpt>
<trkpt lat="42.094032" lon="23.617458"><ele>2010.3</ele><time>2026-03-08T14:25:34.000Z</time></trkpt>
<trkpt lat="42.094032" lon="23.617458"><ele>2010.3</ele><time>2026-03-08T14:25:35.000Z</time></trkpt>
<trkpt lat="42.094032" lon="23.617458"><ele>2010.3</ele><time>2026-03-08T14:25:36.000Z</time></trkpt>
<trkpt lat="42.094032" lon="23.617459"><ele>2010.3</ele><time>2026-03-08T14:25:37.000Z</time></trkpt>
<trkpt lat="42.094032" lon="23.617459"><ele>2010.3</ele><time>2026-03-08T14:25:38.000Z</time></trkpt>
<trkpt lat="42.094032" lon="23.61746"><ele>2010.3</ele><time>2026-03-08T14:25:39.000Z</time></trkpt>
<trkpt lat="42.094032" lon="23.61746"><ele>2010.3</ele><time>2026-03-08T14:25:40.000Z</time></trkpt>
<trkpt lat="42.094032" lon="23.61746"><ele>2010.3</ele><time>2026-03-08T14:25:41.000Z</time></trkpt>
<trkpt lat="42.094032" lon="23.61746"><ele>2010.4</ele><time>2026-03-08T14:25:42.000Z</time></trkpt>
<trkpt lat="42.094032" lon="23.61746"><ele>2010.4</ele><time>2026-03-08T14:25:43.000Z</time></trkpt>
<trkpt lat="42.094032" lon="23.61746"><ele>2010.4</ele><time>2026-03-08T14:25:44.000Z</time></trkpt>
<trkpt lat="42.094032" lon="23.61746"><ele>2010.4</ele><time>2026-03-08T14:25:45.000Z</time></trkpt>
<trkpt lat="42.094032" lon="23.61746"><ele>2010.4</ele><time>2026-03-08T14:25:46.000Z</time></trkpt>
<trkpt lat="42.094032" lon="23.61746"><ele>2010.6</ele><time>2026-03-08T14:25:47.000Z</time></trkpt>
<trkpt lat="42.094032" lon="23.61746"><ele>2010.6</ele><time>2026-03-08T14:25:48.000Z</time></trkpt>
<trkpt lat="42.094032" lon="23.61746"><ele>2010.6</ele><time>2026-03-08T14:25:49.000Z</time></trkpt>
<trkpt lat="42.094032" lon="23.61746"><ele>2010.6</ele><time>2026-03-08T14:25:50.000Z</time></trkpt>
<trkpt lat="42.094032" lon="23.61746"><ele>2010.6</ele><time>2026-03-08T14:25:51.000Z</time></trkpt>
<trkpt lat="42.094032" lon="23.61746"><ele>2010.8</ele><time>2026-03-08T14:25:52.000Z</time></trkpt>
<trkpt lat="42.094032" lon="23.61746"><ele>2010.8</ele><time>2026-03-08T14:25:53.000Z</time></trkpt>
<trkpt lat="42.094032" lon="23.61746"><ele>2010.8</ele><time>2026-03-08T14:25:54.000Z</time></trkpt>
<trkpt lat="42.094032" lon="23.61746"><ele>2010.8</ele><time>2026-03-08T14:25:55.000Z</time></trkpt>
<trkpt lat="42.094032" lon="23.61746"><ele>2010.8</ele><time>2026-03-08T14:25:56.000Z</time></trkpt>
<trkpt lat="42.094032" lon="23.61746"><ele>2010.7</ele><time>2026-03-08T14:25:57.000Z</time></trkpt>
<trkpt lat="42.094032" lon="23.61746"><ele>2010.7</ele><time>2026-03-08T14:25:58.000Z</time></trkpt>
<trkpt lat="42.094032" lon="23.61746"><ele>2010.7</ele><time>2026-03-08T14:25:59.000Z</time></trkpt>
<trkpt lat="42.094032" lon="23.61746"><ele>2010.7</ele><time>2026-03-08T14:26:00.000Z</time></trkpt>
<trkpt lat="42.094032" lon="23.61746"><ele>2010.7</ele><time>2026-03-08T14:26:01.000Z</time></trkpt>
<trkpt lat="42.094032" lon="23.61746"><ele>2010.7</ele><time>2026-03-08T14:26:02.000Z</time></trkpt>
<trkpt lat="42.094032" lon="23.617461"><ele>2010.7</ele><time>2026-03-08T14:26:03.000Z</time></trkpt>
<trkpt lat="42.094032" lon="23.617461"><ele>2010.7</ele><time>2026-03-08T14:26:04.000Z</time></trkpt>
<trkpt lat="42.094032" lon="23.617462"><ele>2010.7</ele><time>2026-03-08T14:26:05.000Z</time></trkpt>
<trkpt lat="42.094031" lon="23.617463"><ele>2010.7</ele><time>2026-03-08T14:26:06.000Z</time></trkpt>
<trkpt lat="42.094031" lon="23.617463"><ele>2010.7</ele><time>2026-03-08T14:26:07.000Z</time></trkpt>
<trkpt lat="42.094031" lon="23.617463"><ele>2010.7</ele><time>2026-03-08T14:26:08.000Z</time></trkpt>
<trkpt lat="42.094031" lon="23.617463"><ele>2010.7</ele><time>2026-03-08T14:26:09.000Z</time></trkpt>
<trkpt lat="42.094031" lon="23.617463"><ele>2010.7</ele><time>2026-03-08T14:26:10.000Z</time></trkpt>
<trkpt lat="42.094031" lon="23.617463"><ele>2010.7</ele><time>2026-03-08T14:26:11.000Z</time></trkpt>
<trkpt lat="42.094031" lon="23.617463"><ele>2010.8</ele><time>2026-03-08T14:26:12.000Z</time></trkpt>
<trkpt lat="42.094031" lon="23.617464"><ele>2010.8</ele><time>2026-03-08T14:26:13.000Z</time></trkpt>
<trkpt lat="42.094029" lon="23.617466"><ele>2010.8</ele><time>2026-03-08T14:26:14.000Z</time></trkpt>
<trkpt lat="42.094026" lon="23.617468"><ele>2010.8</ele><time>2026-03-08T14:26:15.000Z</time></trkpt>
<trkpt lat="42.094022" lon="23.617471"><ele>2010.8</ele><time>2026-03-08T14:26:16.000Z</time></trkpt>
<trkpt lat="42.094019" lon="23.617473"><ele>2010.8</ele><time>2026-03-08T14:26:17.000Z</time></trkpt>
<trkpt lat="42.094016" lon="23.617473"><ele>2010.8</ele><time>2026-03-08T14:26:18.000Z</time></trkpt>
<trkpt lat="42.094014" lon="23.617474"><ele>2010.8</ele><time>2026-03-08T14:26:19.000Z</time></trkpt>
<trkpt lat="42.094014" lon="23.617475"><ele>2010.8</ele><time>2026-03-08T14:26:20.000Z</time></trkpt>
<trkpt lat="42.094013" lon="23.617476"><ele>2010.8</ele><time>2026-03-08T14:26:21.000Z</time></trkpt>
<trkpt lat="42.09401" lon="23.617478"><ele>2010.8</ele><time>2026-03-08T14:26:22.000Z</time></trkpt>
<trkpt lat="42.094006" lon="23.617481"><ele>2010.8</ele><time>2026-03-08T14:26:23.000Z</time></trkpt>
<trkpt lat="42.094002" lon="23.617483"><ele>2010.8</ele><time>2026-03-08T14:26:24.000Z</time></trkpt>
<trkpt lat="42.093996" lon="23.617485"><ele>2010.8</ele><time>2026-03-08T14:26:25.000Z</time></trkpt>
<trkpt lat="42.09399" lon="23.617485"><ele>2010.8</ele><time>2026-03-08T14:26:26.000Z</time></trkpt>
<trkpt lat="42.093986" lon="23.617485"><ele>2010.8</ele><time>2026-03-08T14:26:27.000Z</time></trkpt>
<trkpt lat="42.093984" lon="23.617486"><ele>2010.8</ele><time>2026-03-08T14:26:28.000Z</time></trkpt>
<trkpt lat="42.093981" lon="23.617486"><ele>2010.8</ele><time>2026-03-08T14:26:29.000Z</time></trkpt>
<trkpt lat="42.09398" lon="23.617487"><ele>2010.8</ele><time>2026-03-08T14:26:30.000Z</time></trkpt>
<trkpt lat="42.09398" lon="23.617488"><ele>2010.8</ele><time>2026-03-08T14:26:31.000Z</time></trkpt>
<trkpt lat="42.093979" lon="23.617489"><ele>2010.7</ele><time>2026-03-08T14:26:32.000Z</time></trkpt>
<trkpt lat="42.093979" lon="23.617489"><ele>2010.7</ele><time>2026-03-08T14:26:33.000Z</time></trkpt>
<trkpt lat="42.093979" lon="23.61749"><ele>2010.7</ele><time>2026-03-08T14:26:34.000Z</time></trkpt>
<trkpt lat="42.093979" lon="23.61749"><ele>2010.7</ele><time>2026-03-08T14:26:35.000Z</time></trkpt>
<trkpt lat="42.09398" lon="23.61749"><ele>2010.7</ele><time>2026-03-08T14:26:36.000Z</time></trkpt>
<trkpt lat="42.09398" lon="23.617491"><ele>2010.5</ele><time>2026-03-08T14:26:37.000Z</time></trkpt>
<trkpt lat="42.09398" lon="23.617491"><ele>2010.5</ele><time>2026-03-08T14:26:38.000Z</time></trkpt>
<trkpt lat="42.09398" lon="23.617491"><ele>2010.5</ele><time>2026-03-08T14:26:39.000Z</time></trkpt>
<trkpt lat="42.09398" lon="23.617491"><ele>2010.5</ele><time>2026-03-08T14:26:40.000Z</time></trkpt>
<trkpt lat="42.09398" lon="23.617491"><ele>2010.5</ele><time>2026-03-08T14:26:41.000Z</time></trkpt>
<trkpt lat="42.09398" lon="23.617491"><ele>2010.3</ele><time>2026-03-08T14:26:42.000Z</time></trkpt>
<trkpt lat="42.093981" lon="23.617491"><ele>2010.3</ele><time>2026-03-08T14:26:43.000Z</time></trkpt>
<trkpt lat="42.093983" lon="23.617491"><ele>2010.3</ele><time>2026-03-08T14:26:44.000Z</time></trkpt>
<trkpt lat="42.093985" lon="23.617491"><ele>2010.3</ele><time>2026-03-08T14:26:45.000Z</time></trkpt>
<trkpt lat="42.093988" lon="23.617491"><ele>2010.3</ele><time>2026-03-08T14:26:46.000Z</time></trkpt>
<trkpt lat="42.093991" lon="23.61749"><ele>2010.3</ele><time>2026-03-08T14:26:47.000Z</time></trkpt>
<trkpt lat="42.093993" lon="23.617489"><ele>2010.3</ele><time>2026-03-08T14:26:48.000Z</time></trkpt>
<trkpt lat="42.093993" lon="23.617488"><ele>2010.3</ele><time>2026-03-08T14:26:49.000Z</time></trkpt>
<trkpt lat="42.093993" lon="23.617488"><ele>2010.3</ele><time>2026-03-08T14:26:50.000Z</time></trkpt>
<trkpt lat="42.093994" lon="23.617488"><ele>2010.3</ele><time>2026-03-08T14:26:51.000Z</time></trkpt>
<trkpt lat="42.093994" lon="23.617488"><ele>2010.1</ele><time>2026-03-08T14:26:52.000Z</time></trkpt>
<trkpt lat="42.093994" lon="23.617488"><ele>2010.1</ele><time>2026-03-08T14:26:53.000Z</time></trkpt>
<trkpt lat="42.093994" lon="23.617488"><ele>2010.1</ele><time>2026-03-08T14:26:54.000Z</time></trkpt>
<trkpt lat="42.093994" lon="23.617488"><ele>2010.1</ele><time>2026-03-08T14:26:55.000Z</time></trkpt>
<trkpt lat="42.093994" lon="23.617488"><ele>2010.1</ele><time>2026-03-08T14:26:56.000Z</time></trkpt>
<trkpt lat="42.093993" lon="23.617488"><ele>2010</ele><time>2026-03-08T14:26:57.000Z</time></trkpt>
<trkpt lat="42.093992" lon="23.617488"><ele>2010</ele><time>2026-03-08T14:26:58.000Z</time></trkpt>
<trkpt lat="42.09399" lon="23.617489"><ele>2010</ele><time>2026-03-08T14:26:59.000Z</time></trkpt>
<trkpt lat="42.093985" lon="23.617491"><ele>2010</ele><time>2026-03-08T14:27:00.000Z</time></trkpt>
<trkpt lat="42.093979" lon="23.617494"><ele>2010</ele><time>2026-03-08T14:27:01.000Z</time></trkpt>
<trkpt lat="42.093972" lon="23.617498"><ele>2010</ele><time>2026-03-08T14:27:02.000Z</time></trkpt>
<trkpt lat="42.093964" lon="23.617503"><ele>2010</ele><time>2026-03-08T14:27:03.000Z</time></trkpt>
<trkpt lat="42.093954" lon="23.617509"><ele>2010</ele><time>2026-03-08T14:27:04.000Z</time></trkpt>
<trkpt lat="42.093944" lon="23.617515"><ele>2010</ele><time>2026-03-08T14:27:05.000Z</time></trkpt>
<trkpt lat="42.093934" lon="23.61752"><ele>2010</ele><time>2026-03-08T14:27:06.000Z</time></trkpt>
<trkpt lat="42.093924" lon="23.617526"><ele>2010</ele><time>2026-03-08T14:27:07.000Z</time></trkpt>
<trkpt lat="42.093914" lon="23.617532"><ele>2010</ele><time>2026-03-08T14:27:08.000Z</time></trkpt>
<trkpt lat="42.093904" lon="23.617539"><ele>2010</ele><time>2026-03-08T14:27:09.000Z</time></trkpt>
<trkpt lat="42.093894" lon="23.617547"><ele>2010</ele><time>2026-03-08T14:27:10.000Z</time></trkpt>
<trkpt lat="42.093884" lon="23.617557"><ele>2010</ele><time>2026-03-08T14:27:11.000Z</time></trkpt>
<trkpt lat="42.093873" lon="23.617567"><ele>2010</ele><time>2026-03-08T14:27:12.000Z</time></trkpt>
<trkpt lat="42.093862" lon="23.617577"><ele>2010</ele><time>2026-03-08T14:27:13.000Z</time></trkpt>
<trkpt lat="42.09385" lon="23.617586"><ele>2010</ele><time>2026-03-08T14:27:14.000Z</time></trkpt>
<trkpt lat="42.093839" lon="23.617593"><ele>2010</ele><time>2026-03-08T14:27:15.000Z</time></trkpt>
<trkpt lat="42.093827" lon="23.617599"><ele>2010</ele><time>2026-03-08T14:27:16.000Z</time></trkpt>
<trkpt lat="42.093815" lon="23.617603"><ele>2009.9</ele><time>2026-03-08T14:27:17.000Z</time></trkpt>
<trkpt lat="42.093803" lon="23.617605"><ele>2009.9</ele><time>2026-03-08T14:27:18.000Z</time></trkpt>
<trkpt lat="42.093792" lon="23.617606"><ele>2009.9</ele><time>2026-03-08T14:27:19.000Z</time></trkpt>
<trkpt lat="42.09378" lon="23.617606"><ele>2009.9</ele><time>2026-03-08T14:27:20.000Z</time></trkpt>
<trkpt lat="42.09377" lon="23.617609"><ele>2009.9</ele><time>2026-03-08T14:27:21.000Z</time></trkpt>
<trkpt lat="42.09376" lon="23.617612"><ele>2009.4</ele><time>2026-03-08T14:27:22.000Z</time></trkpt>
<trkpt lat="42.09375" lon="23.617617"><ele>2009.4</ele><time>2026-03-08T14:27:23.000Z</time></trkpt>
<trkpt lat="42.093739" lon="23.617624"><ele>2009.4</ele><time>2026-03-08T14:27:24.000Z</time></trkpt>
<trkpt lat="42.093729" lon="23.61763"><ele>2009.4</ele><time>2026-03-08T14:27:25.000Z</time></trkpt>
<trkpt lat="42.093719" lon="23.617637"><ele>2009.4</ele><time>2026-03-08T14:27:26.000Z</time></trkpt>
<trkpt lat="42.093708" lon="23.617644"><ele>2008.8</ele><time>2026-03-08T14:27:27.000Z</time></trkpt>
<trkpt lat="42.093697" lon="23.617652"><ele>2008.8</ele><time>2026-03-08T14:27:28.000Z</time></trkpt>
<trkpt lat="42.093687" lon="23.61766"><ele>2008.8</ele><time>2026-03-08T14:27:29.000Z</time></trkpt>
<trkpt lat="42.093678" lon="23.617669"><ele>2008.8</ele><time>2026-03-08T14:27:30.000Z</time></trkpt>
<trkpt lat="42.093667" lon="23.617678"><ele>2008.8</ele><time>2026-03-08T14:27:31.000Z</time></trkpt>
<trkpt lat="42.093658" lon="23.617685"><ele>2008.5</ele><time>2026-03-08T14:27:32.000Z</time></trkpt>
<trkpt lat="42.093647" lon="23.617692"><ele>2008.5</ele><time>2026-03-08T14:27:33.000Z</time></trkpt>
<trkpt lat="42.093637" lon="23.617698"><ele>2008.5</ele><time>2026-03-08T14:27:34.000Z</time></trkpt>
<trkpt lat="42.093628" lon="23.617703"><ele>2008.5</ele><time>2026-03-08T14:27:35.000Z</time></trkpt>
<trkpt lat="42.093621" lon="23.617707"><ele>2008.5</ele><time>2026-03-08T14:27:36.000Z</time></trkpt>
<trkpt lat="42.093615" lon="23.61771"><ele>2007.9</ele><time>2026-03-08T14:27:37.000Z</time></trkpt>
<trkpt lat="42.093612" lon="23.617711"><ele>2007.9</ele><time>2026-03-08T14:27:38.000Z</time></trkpt>
<trkpt lat="42.09361" lon="23.617713"><ele>2007.9</ele><time>2026-03-08T14:27:39.000Z</time></trkpt>
<trkpt lat="42.09361" lon="23.617714"><ele>2007.9</ele><time>2026-03-08T14:27:40.000Z</time></trkpt>
<trkpt lat="42.093607" lon="23.617717"><ele>2007.9</ele><time>2026-03-08T14:27:41.000Z</time></trkpt>
<trkpt lat="42.093603" lon="23.617721"><ele>2006.9</ele><time>2026-03-08T14:27:42.000Z</time></trkpt>
<trkpt lat="42.093596" lon="23.617727"><ele>2006.9</ele><time>2026-03-08T14:27:43.000Z</time></trkpt>
<trkpt lat="42.093587" lon="23.617733"><ele>2006.9</ele><time>2026-03-08T14:27:44.000Z</time></trkpt>
<trkpt lat="42.093576" lon="23.617741"><ele>2006.9</ele><time>2026-03-08T14:27:45.000Z</time></trkpt>
<trkpt lat="42.093565" lon="23.617748"><ele>2006.9</ele><time>2026-03-08T14:27:46.000Z</time></trkpt>
<trkpt lat="42.093554" lon="23.617755"><ele>2006.3</ele><time>2026-03-08T14:27:47.000Z</time></trkpt>
<trkpt lat="42.093544" lon="23.617763"><ele>2006.3</ele><time>2026-03-08T14:27:48.000Z</time></trkpt>
<trkpt lat="42.093534" lon="23.617772"><ele>2006.3</ele><time>2026-03-08T14:27:49.000Z</time></trkpt>
<trkpt lat="42.093526" lon="23.617782"><ele>2006.3</ele><time>2026-03-08T14:27:50.000Z</time></trkpt>
<trkpt lat="42.093517" lon="23.617791"><ele>2006.3</ele><time>2026-03-08T14:27:51.000Z</time></trkpt>
<trkpt lat="42.093508" lon="23.617801"><ele>2005.2</ele><time>2026-03-08T14:27:52.000Z</time></trkpt>
<trkpt lat="42.093499" lon="23.617809"><ele>2005.2</ele><time>2026-03-08T14:27:53.000Z</time></trkpt>
<trkpt lat="42.093489" lon="23.617817"><ele>2005.2</ele><time>2026-03-08T14:27:54.000Z</time></trkpt>
<trkpt lat="42.093479" lon="23.617824"><ele>2005.2</ele><time>2026-03-08T14:27:55.000Z</time></trkpt>
<trkpt lat="42.093469" lon="23.617832"><ele>2005.2</ele><time>2026-03-08T14:27:56.000Z</time></trkpt>
<trkpt lat="42.093459" lon="23.617839"><ele>2004.2</ele><time>2026-03-08T14:27:57.000Z</time></trkpt>
<trkpt lat="42.093448" lon="23.617847"><ele>2004.2</ele><time>2026-03-08T14:27:58.000Z</time></trkpt>
<trkpt lat="42.093438" lon="23.617856"><ele>2004.2</ele><time>2026-03-08T14:27:59.000Z</time></trkpt>
<trkpt lat="42.093426" lon="23.617865"><ele>2004.2</ele><time>2026-03-08T14:28:00.000Z</time></trkpt>
<trkpt lat="42.093413" lon="23.617875"><ele>2004.2</ele><time>2026-03-08T14:28:01.000Z</time></trkpt>
<trkpt lat="42.0934" lon="23.617885"><ele>2003.6</ele><time>2026-03-08T14:28:02.000Z</time></trkpt>
<trkpt lat="42.093387" lon="23.617894"><ele>2003.6</ele><time>2026-03-08T14:28:03.000Z</time></trkpt>
<trkpt lat="42.093375" lon="23.617902"><ele>2003.6</ele><time>2026-03-08T14:28:04.000Z</time></trkpt>
<trkpt lat="42.093364" lon="23.617909"><ele>2003.6</ele><time>2026-03-08T14:28:05.000Z</time></trkpt>
<trkpt lat="42.093355" lon="23.617915"><ele>2003.6</ele><time>2026-03-08T14:28:06.000Z</time></trkpt>
<trkpt lat="42.093347" lon="23.617921"><ele>2002.1</ele><time>2026-03-08T14:28:07.000Z</time></trkpt>
<trkpt lat="42.093339" lon="23.617928"><ele>2002.1</ele><time>2026-03-08T14:28:08.000Z</time></trkpt>
<trkpt lat="42.09333" lon="23.617934"><ele>2002.1</ele><time>2026-03-08T14:28:09.000Z</time></trkpt>
<trkpt lat="42.093322" lon="23.61794"><ele>2002.1</ele><time>2026-03-08T14:28:10.000Z</time></trkpt>
<trkpt lat="42.093313" lon="23.617945"><ele>2002.1</ele><time>2026-03-08T14:28:11.000Z</time></trkpt>
<trkpt lat="42.093304" lon="23.61795"><ele>2000.3</ele><time>2026-03-08T14:28:12.000Z</time></trkpt>
<trkpt lat="42.093295" lon="23.617955"><ele>2000.3</ele><time>2026-03-08T14:28:13.000Z</time></trkpt>
<trkpt lat="42.093286" lon="23.617961"><ele>2000.3</ele><time>2026-03-08T14:28:14.000Z</time></trkpt>
<trkpt lat="42.093276" lon="23.617966"><ele>2000.3</ele><time>2026-03-08T14:28:15.000Z</time></trkpt>
<trkpt lat="42.093266" lon="23.617972"><ele>2000.3</ele><time>2026-03-08T14:28:16.000Z</time></trkpt>
<trkpt lat="42.093255" lon="23.617977"><ele>1999.5</ele><time>2026-03-08T14:28:17.000Z</time></trkpt>
<trkpt lat="42.093245" lon="23.617981"><ele>1999.5</ele><time>2026-03-08T14:28:18.000Z</time></trkpt>
<trkpt lat="42.093236" lon="23.617986"><ele>1999.5</ele><time>2026-03-08T14:28:19.000Z</time></trkpt>
<trkpt lat="42.093229" lon="23.617991"><ele>1999.5</ele><time>2026-03-08T14:28:20.000Z</time></trkpt>
<trkpt lat="42.093224" lon="23.617996"><ele>1999.5</ele><time>2026-03-08T14:28:21.000Z</time></trkpt>
<trkpt lat="42.09322" lon="23.618002"><ele>1998.3</ele><time>2026-03-08T14:28:22.000Z</time></trkpt>
<trkpt lat="42.093214" lon="23.618007"><ele>1998.3</ele><time>2026-03-08T14:28:23.000Z</time></trkpt>
<trkpt lat="42.093208" lon="23.61801"><ele>1998.3</ele><time>2026-03-08T14:28:24.000Z</time></trkpt>
<trkpt lat="42.0932" lon="23.61801"><ele>1998.3</ele><time>2026-03-08T14:28:25.000Z</time></trkpt>
<trkpt lat="42.093191" lon="23.618007"><ele>1998.3</ele><time>2026-03-08T14:28:26.000Z</time></trkpt>
<trkpt lat="42.093181" lon="23.618001"><ele>1997.2</ele><time>2026-03-08T14:28:27.000Z</time></trkpt>
<trkpt lat="42.093172" lon="23.617994"><ele>1997.2</ele><time>2026-03-08T14:28:28.000Z</time></trkpt>
<trkpt lat="42.093163" lon="23.617989"><ele>1997.2</ele><time>2026-03-08T14:28:29.000Z</time></trkpt>
<trkpt lat="42.093153" lon="23.617985"><ele>1997.2</ele><time>2026-03-08T14:28:30.000Z</time></trkpt>
<trkpt lat="42.093143" lon="23.617985"><ele>1997.2</ele><time>2026-03-08T14:28:31.000Z</time></trkpt>
<trkpt lat="42.093132" lon="23.617987"><ele>1996.7</ele><time>2026-03-08T14:28:32.000Z</time></trkpt>
<trkpt lat="42.093121" lon="23.617991"><ele>1996.7</ele><time>2026-03-08T14:28:33.000Z</time></trkpt>
<trkpt lat="42.09311" lon="23.617996"><ele>1996.7</ele><time>2026-03-08T14:28:34.000Z</time></trkpt>
<trkpt lat="42.093099" lon="23.617999"><ele>1996.7</ele><time>2026-03-08T14:28:35.000Z</time></trkpt>
<trkpt lat="42.093088" lon="23.618001"><ele>1996.7</ele><time>2026-03-08T14:28:36.000Z</time></trkpt>
<trkpt lat="42.093077" lon="23.618002"><ele>1995.7</ele><time>2026-03-08T14:28:37.000Z</time></trkpt>
<trkpt lat="42.093067" lon="23.618"><ele>1995.7</ele><time>2026-03-08T14:28:38.000Z</time></trkpt>
<trkpt lat="42.093057" lon="23.617996"><ele>1995.7</ele><time>2026-03-08T14:28:39.000Z</time></trkpt>
<trkpt lat="42.093049" lon="23.617992"><ele>1995.7</ele><time>2026-03-08T14:28:40.000Z</time></trkpt>
<trkpt lat="42.093041" lon="23.617987"><ele>1995.7</ele><time>2026-03-08T14:28:41.000Z</time></trkpt>
<trkpt lat="42.093033" lon="23.617981"><ele>1994.9</ele><time>2026-03-08T14:28:42.000Z</time></trkpt>
<trkpt lat="42.093026" lon="23.617976"><ele>1994.9</ele><time>2026-03-08T14:28:43.000Z</time></trkpt>
<trkpt lat="42.093018" lon="23.617972"><ele>1994.9</ele><time>2026-03-08T14:28:44.000Z</time></trkpt>
<trkpt lat="42.093011" lon="23.617968"><ele>1994.9</ele><time>2026-03-08T14:28:45.000Z</time></trkpt>
<trkpt lat="42.093003" lon="23.617963"><ele>1994.9</ele><time>2026-03-08T14:28:46.000Z</time></trkpt>
<trkpt lat="42.092995" lon="23.617959"><ele>1994.4</ele><time>2026-03-08T14:28:47.000Z</time></trkpt>
<trkpt lat="42.092986" lon="23.617956"><ele>1994.4</ele><time>2026-03-08T14:28:48.000Z</time></trkpt>
<trkpt lat="42.092976" lon="23.617955"><ele>1994.4</ele><time>2026-03-08T14:28:49.000Z</time></trkpt>
<trkpt lat="42.092966" lon="23.617957"><ele>1994.4</ele><time>2026-03-08T14:28:50.000Z</time></trkpt>
<trkpt lat="42.092955" lon="23.617962"><ele>1994.4</ele><time>2026-03-08T14:28:51.000Z</time></trkpt>
<trkpt lat="42.092944" lon="23.61797"><ele>1993.2</ele><time>2026-03-08T14:28:52.000Z</time></trkpt>
<trkpt lat="42.092934" lon="23.617979"><ele>1993.2</ele><time>2026-03-08T14:28:53.000Z</time></trkpt>
<trkpt lat="42.092924" lon="23.617989"><ele>1993.2</ele><time>2026-03-08T14:28:54.000Z</time></trkpt>
<trkpt lat="42.092915" lon="23.617999"><ele>1993.2</ele><time>2026-03-08T14:28:55.000Z</time></trkpt>
<trkpt lat="42.092907" lon="23.618009"><ele>1993.2</ele><time>2026-03-08T14:28:56.000Z</time></trkpt>
<trkpt lat="42.092899" lon="23.61802"><ele>1991.6</ele><time>2026-03-08T14:28:57.000Z</time></trkpt>
<trkpt lat="42.092891" lon="23.61803"><ele>1991.6</ele><time>2026-03-08T14:28:58.000Z</time></trkpt>
<trkpt lat="42.092882" lon="23.618038"><ele>1991.6</ele><time>2026-03-08T14:28:59.000Z</time></trkpt>
<trkpt lat="42.092873" lon="23.618046"><ele>1991.6</ele><time>2026-03-08T14:29:00.000Z</time></trkpt>
<trkpt lat="42.092863" lon="23.618054"><ele>1991.6</ele><time>2026-03-08T14:29:01.000Z</time></trkpt>
<trkpt lat="42.092851" lon="23.618059"><ele>1990.9</ele><time>2026-03-08T14:29:02.000Z</time></trkpt>
<trkpt lat="42.092839" lon="23.618063"><ele>1990.9</ele><time>2026-03-08T14:29:03.000Z</time></trkpt>
<trkpt lat="42.092827" lon="23.618067"><ele>1990.9</ele><time>2026-03-08T14:29:04.000Z</time></trkpt>
<trkpt lat="42.092815" lon="23.61807"><ele>1990.9</ele><time>2026-03-08T14:29:05.000Z</time></trkpt>
<trkpt lat="42.092803" lon="23.618071"><ele>1990.9</ele><time>2026-03-08T14:29:06.000Z</time></trkpt>
<trkpt lat="42.092791" lon="23.618073"><ele>1989.6</ele><time>2026-03-08T14:29:07.000Z</time></trkpt>
<trkpt lat="42.09278" lon="23.618074"><ele>1989.6</ele><time>2026-03-08T14:29:08.000Z</time></trkpt>
<trkpt lat="42.092768" lon="23.618077"><ele>1989.6</ele><time>2026-03-08T14:29:09.000Z</time></trkpt>
<trkpt lat="42.092756" lon="23.618079"><ele>1989.6</ele><time>2026-03-08T14:29:10.000Z</time></trkpt>
<trkpt lat="42.092745" lon="23.618082"><ele>1989.6</ele><time>2026-03-08T14:29:11.000Z</time></trkpt>
<trkpt lat="42.092735" lon="23.618084"><ele>1988.6</ele><time>2026-03-08T14:29:12.000Z</time></trkpt>
<trkpt lat="42.092724" lon="23.618086"><ele>1988.6</ele><time>2026-03-08T14:29:13.000Z</time></trkpt>
<trkpt lat="42.092715" lon="23.618086"><ele>1988.6</ele><time>2026-03-08T14:29:14.000Z</time></trkpt>
<trkpt lat="42.092705" lon="23.618085"><ele>1988.6</ele><time>2026-03-08T14:29:15.000Z</time></trkpt>
<trkpt lat="42.092697" lon="23.618084"><ele>1988.6</ele><time>2026-03-08T14:29:16.000Z</time></trkpt>
<trkpt lat="42.092687" lon="23.618085"><ele>1988.1</ele><time>2026-03-08T14:29:17.000Z</time></trkpt>
<trkpt lat="42.092676" lon="23.618086"><ele>1988.1</ele><time>2026-03-08T14:29:18.000Z</time></trkpt>
<trkpt lat="42.092666" lon="23.618088"><ele>1988.1</ele><time>2026-03-08T14:29:19.000Z</time></trkpt>
<trkpt lat="42.092654" lon="23.618091"><ele>1988.1</ele><time>2026-03-08T14:29:20.000Z</time></trkpt>
<trkpt lat="42.092643" lon="23.618094"><ele>1988.1</ele><time>2026-03-08T14:29:21.000Z</time></trkpt>
<trkpt lat="42.092632" lon="23.618098"><ele>1987.2</ele><time>2026-03-08T14:29:22.000Z</time></trkpt>
<trkpt lat="42.092622" lon="23.618103"><ele>1987.2</ele><time>2026-03-08T14:29:23.000Z</time></trkpt>
<trkpt lat="42.092613" lon="23.618109"><ele>1987.2</ele><time>2026-03-08T14:29:24.000Z</time></trkpt>
<trkpt lat="42.092606" lon="23.618116"><ele>1987.2</ele><time>2026-03-08T14:29:25.000Z</time></trkpt>
<trkpt lat="42.092599" lon="23.618126"><ele>1987.2</ele><time>2026-03-08T14:29:26.000Z</time></trkpt>
<trkpt lat="42.092593" lon="23.618135"><ele>1986.6</ele><time>2026-03-08T14:29:27.000Z</time></trkpt>
<trkpt lat="42.092587" lon="23.618142"><ele>1986.6</ele><time>2026-03-08T14:29:28.000Z</time></trkpt>
<trkpt lat="42.092583" lon="23.618149"><ele>1986.6</ele><time>2026-03-08T14:29:29.000Z</time></trkpt>
<trkpt lat="42.092579" lon="23.618155"><ele>1986.6</ele><time>2026-03-08T14:29:30.000Z</time></trkpt>
<trkpt lat="42.092577" lon="23.618158"><ele>1986.6</ele><time>2026-03-08T14:29:31.000Z</time></trkpt>
<trkpt lat="42.092577" lon="23.618162"><ele>1986.5</ele><time>2026-03-08T14:29:32.000Z</time></trkpt>
<trkpt lat="42.09258" lon="23.618167"><ele>1986.5</ele><time>2026-03-08T14:29:33.000Z</time></trkpt>
<trkpt lat="42.092583" lon="23.618171"><ele>1986.5</ele><time>2026-03-08T14:29:34.000Z</time></trkpt>
<trkpt lat="42.092587" lon="23.618175"><ele>1986.5</ele><time>2026-03-08T14:29:35.000Z</time></trkpt>
<trkpt lat="42.092589" lon="23.618178"><ele>1986.5</ele><time>2026-03-08T14:29:36.000Z</time></trkpt>
<trkpt lat="42.09259" lon="23.61818"><ele>1986.4</ele><time>2026-03-08T14:29:37.000Z</time></trkpt>
<trkpt lat="42.09259" lon="23.61818"><ele>1986.4</ele><time>2026-03-08T14:29:38.000Z</time></trkpt>
<trkpt lat="42.09259" lon="23.61818"><ele>1986.4</ele><time>2026-03-08T14:29:39.000Z</time></trkpt>
<trkpt lat="42.09259" lon="23.61818"><ele>1986.4</ele><time>2026-03-08T14:29:40.000Z</time></trkpt>
<trkpt lat="42.092591" lon="23.61818"><ele>1986.4</ele><time>2026-03-08T14:29:41.000Z</time></trkpt>
<trkpt lat="42.092593" lon="23.61818"><ele>1986.1</ele><time>2026-03-08T14:29:42.000Z</time></trkpt>
<trkpt lat="42.092593" lon="23.618179"><ele>1986.1</ele><time>2026-03-08T14:29:43.000Z</time></trkpt>
<trkpt lat="42.092594" lon="23.618179"><ele>1986.1</ele><time>2026-03-08T14:29:44.000Z</time></trkpt>
<trkpt lat="42.092593" lon="23.618179"><ele>1986.1</ele><time>2026-03-08T14:29:45.000Z</time></trkpt>
<trkpt lat="42.09259" lon="23.618179"><ele>1986.1</ele><time>2026-03-08T14:29:46.000Z</time></trkpt>
<trkpt lat="42.092584" lon="23.618179"><ele>1985.9</ele><time>2026-03-08T14:29:47.000Z</time></trkpt>
<trkpt lat="42.092576" lon="23.61818"><ele>1985.9</ele><time>2026-03-08T14:29:48.000Z</time></trkpt>
<trkpt lat="42.092566" lon="23.618182"><ele>1985.9</ele><time>2026-03-08T14:29:49.000Z</time></trkpt>
<trkpt lat="42.092554" lon="23.618185"><ele>1985.9</ele><time>2026-03-08T14:29:50.000Z</time></trkpt>
<trkpt lat="42.092542" lon="23.618188"><ele>1985.9</ele><time>2026-03-08T14:29:51.000Z</time></trkpt>
<trkpt lat="42.09253" lon="23.618191"><ele>1985.7</ele><time>2026-03-08T14:29:52.000Z</time></trkpt>
<trkpt lat="42.092517" lon="23.618196"><ele>1985.7</ele><time>2026-03-08T14:29:53.000Z</time></trkpt>
<trkpt lat="42.092505" lon="23.6182"><ele>1985.7</ele><time>2026-03-08T14:29:54.000Z</time></trkpt>
<trkpt lat="42.092492" lon="23.618206"><ele>1985.7</ele><time>2026-03-08T14:29:55.000Z</time></trkpt>
<trkpt lat="42.09248" lon="23.618212"><ele>1985.7</ele><time>2026-03-08T14:29:56.000Z</time></trkpt>
<trkpt lat="42.092468" lon="23.61822"><ele>1985.6</ele><time>2026-03-08T14:29:57.000Z</time></trkpt>
<trkpt lat="42.092457" lon="23.618226"><ele>1985.6</ele><time>2026-03-08T14:29:58.000Z</time></trkpt>
<trkpt lat="42.092445" lon="23.618232"><ele>1985.6</ele><time>2026-03-08T14:29:59.000Z</time></trkpt>
<trkpt lat="42.092434" lon="23.618238"><ele>1985.6</ele><time>2026-03-08T14:30:00.000Z</time></trkpt>
<trkpt lat="42.092421" lon="23.618243"><ele>1985.6</ele><time>2026-03-08T14:30:01.000Z</time></trkpt>
<trkpt lat="42.092409" lon="23.618247"><ele>1985.4</ele><time>2026-03-08T14:30:02.000Z</time></trkpt>
<trkpt lat="42.092398" lon="23.618252"><ele>1985.4</ele><time>2026-03-08T14:30:03.000Z</time></trkpt>
<trkpt lat="42.092388" lon="23.618258"><ele>1985.4</ele><time>2026-03-08T14:30:04.000Z</time></trkpt>
<trkpt lat="42.092377" lon="23.618265"><ele>1985.4</ele><time>2026-03-08T14:30:05.000Z</time></trkpt>
<trkpt lat="42.092366" lon="23.618273"><ele>1985.4</ele><time>2026-03-08T14:30:06.000Z</time></trkpt>
<trkpt lat="42.092355" lon="23.61828"><ele>1985.1</ele><time>2026-03-08T14:30:07.000Z</time></trkpt>
<trkpt lat="42.092343" lon="23.618287"><ele>1985.1</ele><time>2026-03-08T14:30:08.000Z</time></trkpt>
<trkpt lat="42.092331" lon="23.618293"><ele>1985.1</ele><time>2026-03-08T14:30:09.000Z</time></trkpt>
<trkpt lat="42.092319" lon="23.618298"><ele>1985.1</ele><time>2026-03-08T14:30:10.000Z</time></trkpt>
<trkpt lat="42.092307" lon="23.618302"><ele>1985.1</ele><time>2026-03-08T14:30:11.000Z</time></trkpt>
<trkpt lat="42.092297" lon="23.618306"><ele>1984.8</ele><time>2026-03-08T14:30:12.000Z</time></trkpt>
<trkpt lat="42.092287" lon="23.618311"><ele>1984.8</ele><time>2026-03-08T14:30:13.000Z</time></trkpt>
<trkpt lat="42.092277" lon="23.618314"><ele>1984.8</ele><time>2026-03-08T14:30:14.000Z</time></trkpt>
<trkpt lat="42.092268" lon="23.618318"><ele>1984.8</ele><time>2026-03-08T14:30:15.000Z</time></trkpt>
<trkpt lat="42.092258" lon="23.618321"><ele>1984.8</ele><time>2026-03-08T14:30:16.000Z</time></trkpt>
<trkpt lat="42.092247" lon="23.618324"><ele>1984.6</ele><time>2026-03-08T14:30:17.000Z</time></trkpt>
<trkpt lat="42.092236" lon="23.618326"><ele>1984.6</ele><time>2026-03-08T14:30:18.000Z</time></trkpt>
<trkpt lat="42.092224" lon="23.618329"><ele>1984.6</ele><time>2026-03-08T14:30:19.000Z</time></trkpt>
<trkpt lat="42.092212" lon="23.618333"><ele>1984.6</ele><time>2026-03-08T14:30:20.000Z</time></trkpt>
<trkpt lat="42.092201" lon="23.618336"><ele>1984.6</ele><time>2026-03-08T14:30:21.000Z</time></trkpt>
<trkpt lat="42.092191" lon="23.618338"><ele>1984.5</ele><time>2026-03-08T14:30:22.000Z</time></trkpt>
<trkpt lat="42.092181" lon="23.61834"><ele>1984.5</ele><time>2026-03-08T14:30:23.000Z</time></trkpt>
<trkpt lat="42.092172" lon="23.618343"><ele>1984.5</ele><time>2026-03-08T14:30:24.000Z</time></trkpt>
<trkpt lat="42.092164" lon="23.618344"><ele>1984.5</ele><time>2026-03-08T14:30:25.000Z</time></trkpt>
<trkpt lat="42.092159" lon="23.618347"><ele>1984.5</ele><time>2026-03-08T14:30:26.000Z</time></trkpt>
<trkpt lat="42.092155" lon="23.618348"><ele>1984.5</ele><time>2026-03-08T14:30:27.000Z</time></trkpt>
<trkpt lat="42.092153" lon="23.618349"><ele>1984.5</ele><time>2026-03-08T14:30:28.000Z</time></trkpt>
<trkpt lat="42.092153" lon="23.618349"><ele>1984.5</ele><time>2026-03-08T14:30:29.000Z</time></trkpt>
<trkpt lat="42.092153" lon="23.61835"><ele>1984.5</ele><time>2026-03-08T14:30:30.000Z</time></trkpt>
<trkpt lat="42.092154" lon="23.618349"><ele>1984.5</ele><time>2026-03-08T14:30:31.000Z</time></trkpt>
<trkpt lat="42.092154" lon="23.618349"><ele>1984.2</ele><time>2026-03-08T14:30:32.000Z</time></trkpt>
<trkpt lat="42.092155" lon="23.618349"><ele>1984.2</ele><time>2026-03-08T14:30:33.000Z</time></trkpt>
<trkpt lat="42.092155" lon="23.618349"><ele>1984.2</ele><time>2026-03-08T14:30:34.000Z</time></trkpt>
<trkpt lat="42.092156" lon="23.618349"><ele>1984.2</ele><time>2026-03-08T14:30:35.000Z</time></trkpt>
<trkpt lat="42.092156" lon="23.618348"><ele>1984.2</ele><time>2026-03-08T14:30:36.000Z</time></trkpt>
<trkpt lat="42.092156" lon="23.618347"><ele>1983.9</ele><time>2026-03-08T14:30:37.000Z</time></trkpt>
<trkpt lat="42.092156" lon="23.618345"><ele>1983.9</ele><time>2026-03-08T14:30:38.000Z</time></trkpt>
<trkpt lat="42.092155" lon="23.618344"><ele>1983.9</ele><time>2026-03-08T14:30:39.000Z</time></trkpt>
<trkpt lat="42.092154" lon="23.618342"><ele>1983.9</ele><time>2026-03-08T14:30:40.000Z</time></trkpt>
<trkpt lat="42.092154" lon="23.61834"><ele>1983.9</ele><time>2026-03-08T14:30:41.000Z</time></trkpt>
<trkpt lat="42.092153" lon="23.618339"><ele>1983.8</ele><time>2026-03-08T14:30:42.000Z</time></trkpt>
<trkpt lat="42.092154" lon="23.618337"><ele>1983.8</ele><time>2026-03-08T14:30:43.000Z</time></trkpt>
<trkpt lat="42.092154" lon="23.618336"><ele>1983.8</ele><time>2026-03-08T14:30:44.000Z</time></trkpt>
<trkpt lat="42.092155" lon="23.618335"><ele>1983.8</ele><time>2026-03-08T14:30:45.000Z</time></trkpt>
<trkpt lat="42.092157" lon="23.618334"><ele>1983.8</ele><time>2026-03-08T14:30:46.000Z</time></trkpt>
<trkpt lat="42.092161" lon="23.618329"><ele>1983.9</ele><time>2026-03-08T14:30:47.000Z</time></trkpt>
<trkpt lat="42.092165" lon="23.618322"><ele>1983.9</ele><time>2026-03-08T14:30:48.000Z</time></trkpt>
<trkpt lat="42.092172" lon="23.618313"><ele>1983.9</ele><time>2026-03-08T14:30:49.000Z</time></trkpt>
<trkpt lat="42.092178" lon="23.618303"><ele>1983.9</ele><time>2026-03-08T14:30:50.000Z</time></trkpt>
<trkpt lat="42.092184" lon="23.618295"><ele>1983.9</ele><time>2026-03-08T14:30:51.000Z</time></trkpt>
<trkpt lat="42.092187" lon="23.618288"><ele>1984</ele><time>2026-03-08T14:30:52.000Z</time></trkpt>
<trkpt lat="42.092189" lon="23.618283"><ele>1984</ele><time>2026-03-08T14:30:53.000Z</time></trkpt>
<trkpt lat="42.092189" lon="23.618279"><ele>1984</ele><time>2026-03-08T14:30:54.000Z</time></trkpt>
<trkpt lat="42.092189" lon="23.618274"><ele>1984</ele><time>2026-03-08T14:30:55.000Z</time></trkpt>
<trkpt lat="42.092189" lon="23.618269"><ele>1984</ele><time>2026-03-08T14:30:56.000Z</time></trkpt>
<trkpt lat="42.09219" lon="23.618266"><ele>1984</ele><time>2026-03-08T14:30:57.000Z</time></trkpt>
<trkpt lat="42.09219" lon="23.618264"><ele>1984</ele><time>2026-03-08T14:30:58.000Z</time></trkpt>
<trkpt lat="42.092191" lon="23.618263"><ele>1984</ele><time>2026-03-08T14:30:59.000Z</time></trkpt>
<trkpt lat="42.092191" lon="23.618264"><ele>1984</ele><time>2026-03-08T14:31:00.000Z</time></trkpt>
<trkpt lat="42.092191" lon="23.618264"><ele>1984</ele><time>2026-03-08T14:31:01.000Z</time></trkpt>
<trkpt lat="42.092191" lon="23.618264"><ele>1983.9</ele><time>2026-03-08T14:31:02.000Z</time></trkpt>
<trkpt lat="42.092191" lon="23.618264"><ele>1983.9</ele><time>2026-03-08T14:31:03.000Z</time></trkpt>
<trkpt lat="42.092191" lon="23.618264"><ele>1983.9</ele><time>2026-03-08T14:31:04.000Z</time></trkpt>
<trkpt lat="42.092191" lon="23.618264"><ele>1983.9</ele><time>2026-03-08T14:31:05.000Z</time></trkpt>
<trkpt lat="42.092191" lon="23.618264"><ele>1983.9</ele><time>2026-03-08T14:31:06.000Z</time></trkpt>
<trkpt lat="42.092192" lon="23.618263"><ele>1983.9</ele><time>2026-03-08T14:31:07.000Z</time></trkpt>
<trkpt lat="42.092192" lon="23.618263"><ele>1983.9</ele><time>2026-03-08T14:31:08.000Z</time></trkpt>
<trkpt lat="42.092192" lon="23.618263"><ele>1983.9</ele><time>2026-03-08T14:31:09.000Z</time></trkpt>
<trkpt lat="42.092193" lon="23.618263"><ele>1983.9</ele><time>2026-03-08T14:31:10.000Z</time></trkpt>
<trkpt lat="42.092193" lon="23.618263"><ele>1983.9</ele><time>2026-03-08T14:31:11.000Z</time></trkpt>
<trkpt lat="42.092193" lon="23.618263"><ele>1984</ele><time>2026-03-08T14:31:12.000Z</time></trkpt>
<trkpt lat="42.092193" lon="23.618263"><ele>1984</ele><time>2026-03-08T14:31:13.000Z</time></trkpt>
<trkpt lat="42.092193" lon="23.618263"><ele>1984</ele><time>2026-03-08T14:31:14.000Z</time></trkpt>
<trkpt lat="42.092193" lon="23.618262"><ele>1984</ele><time>2026-03-08T14:31:15.000Z</time></trkpt>
<trkpt lat="42.092193" lon="23.618261"><ele>1984</ele><time>2026-03-08T14:31:16.000Z</time></trkpt>
<trkpt lat="42.092193" lon="23.618261"><ele>1984.2</ele><time>2026-03-08T14:31:17.000Z</time></trkpt>
<trkpt lat="42.092193" lon="23.61826"><ele>1984.2</ele><time>2026-03-08T14:31:18.000Z</time></trkpt>
<trkpt lat="42.092193" lon="23.618259"><ele>1984.2</ele><time>2026-03-08T14:31:19.000Z</time></trkpt>
<trkpt lat="42.092193" lon="23.618259"><ele>1984.2</ele><time>2026-03-08T14:31:20.000Z</time></trkpt>
<trkpt lat="42.092193" lon="23.618259"><ele>1984.2</ele><time>2026-03-08T14:31:21.000Z</time></trkpt>
<trkpt lat="42.092193" lon="23.618259"><ele>1984.3</ele><time>2026-03-08T14:31:22.000Z</time></trkpt>
<trkpt lat="42.092193" lon="23.618259"><ele>1984.3</ele><time>2026-03-08T14:31:23.000Z</time></trkpt>
<trkpt lat="42.092193" lon="23.618259"><ele>1984.3</ele><time>2026-03-08T14:31:24.000Z</time></trkpt>
<trkpt lat="42.092193" lon="23.618259"><ele>1984.3</ele><time>2026-03-08T14:31:25.000Z</time></trkpt>
<trkpt lat="42.092193" lon="23.618259"><ele>1984.3</ele><time>2026-03-08T14:31:26.000Z</time></trkpt>
<trkpt lat="42.092193" lon="23.618259"><ele>1984.3</ele><time>2026-03-08T14:31:27.000Z</time></trkpt>
<trkpt lat="42.092193" lon="23.618259"><ele>1984.3</ele><time>2026-03-08T14:31:28.000Z</time></trkpt>
<trkpt lat="42.092193" lon="23.618259"><ele>1984.3</ele><time>2026-03-08T14:31:29.000Z</time></trkpt>
<trkpt lat="42.092193" lon="23.618259"><ele>1984.3</ele><time>2026-03-08T14:31:30.000Z</time></trkpt>
<trkpt lat="42.092193" lon="23.618259"><ele>1984.3</ele><time>2026-03-08T14:31:31.000Z</time></trkpt>
<trkpt lat="42.092193" lon="23.618259"><ele>1984.2</ele><time>2026-03-08T14:31:32.000Z</time></trkpt>
<trkpt lat="42.092193" lon="23.618259"><ele>1984.2</ele><time>2026-03-08T14:31:33.000Z</time></trkpt>
<trkpt lat="42.092194" lon="23.618259"><ele>1984.2</ele><time>2026-03-08T14:31:34.000Z</time></trkpt>
<trkpt lat="42.092194" lon="23.618259"><ele>1984.2</ele><time>2026-03-08T14:31:35.000Z</time></trkpt>
<trkpt lat="42.092195" lon="23.618259"><ele>1984.2</ele><time>2026-03-08T14:31:36.000Z</time></trkpt>
<trkpt lat="42.092195" lon="23.618259"><ele>1984.1</ele><time>2026-03-08T14:31:37.000Z</time></trkpt>
<trkpt lat="42.092195" lon="23.618259"><ele>1984.1</ele><time>2026-03-08T14:31:38.000Z</time></trkpt>
<trkpt lat="42.092195" lon="23.618259"><ele>1984.1</ele><time>2026-03-08T14:31:39.000Z</time></trkpt>
<trkpt lat="42.092196" lon="23.618259"><ele>1984.1</ele><time>2026-03-08T14:31:40.000Z</time></trkpt>
<trkpt lat="42.092197" lon="23.618259"><ele>1984.1</ele><time>2026-03-08T14:31:41.000Z</time></trkpt>
<trkpt lat="42.092197" lon="23.618259"><ele>1984.2</ele><time>2026-03-08T14:31:42.000Z</time></trkpt>
<trkpt lat="42.092198" lon="23.61826"><ele>1984.2</ele><time>2026-03-08T14:31:43.000Z</time></trkpt>
<trkpt lat="42.092199" lon="23.618259"><ele>1984.2</ele><time>2026-03-08T14:31:44.000Z</time></trkpt>
<trkpt lat="42.092199" lon="23.618259"><ele>1984.2</ele><time>2026-03-08T14:31:45.000Z</time></trkpt>
<trkpt lat="42.092198" lon="23.618258"><ele>1984.2</ele><time>2026-03-08T14:31:46.000Z</time></trkpt>
<trkpt lat="42.092197" lon="23.618258"><ele>1984.2</ele><time>2026-03-08T14:31:47.000Z</time></trkpt>
<trkpt lat="42.092196" lon="23.618258"><ele>1984.2</ele><time>2026-03-08T14:31:48.000Z</time></trkpt>
<trkpt lat="42.092195" lon="23.618257"><ele>1984.2</ele><time>2026-03-08T14:31:49.000Z</time></trkpt>
<trkpt lat="42.092195" lon="23.618257"><ele>1984.2</ele><time>2026-03-08T14:31:50.000Z</time></trkpt>
<trkpt lat="42.092195" lon="23.618257"><ele>1984.2</ele><time>2026-03-08T14:31:51.000Z</time></trkpt>
<trkpt lat="42.092195" lon="23.618257"><ele>1984.3</ele><time>2026-03-08T14:31:52.000Z</time></trkpt>
<trkpt lat="42.092195" lon="23.618257"><ele>1984.3</ele><time>2026-03-08T14:31:53.000Z</time></trkpt>
<trkpt lat="42.092195" lon="23.618257"><ele>1984.3</ele><time>2026-03-08T14:31:54.000Z</time></trkpt>
<trkpt lat="42.092195" lon="23.618257"><ele>1984.3</ele><time>2026-03-08T14:31:55.000Z</time></trkpt>
<trkpt lat="42.092195" lon="23.618257"><ele>1984.3</ele><time>2026-03-08T14:31:56.000Z</time></trkpt>
<trkpt lat="42.092195" lon="23.618258"><ele>1984.3</ele><time>2026-03-08T14:31:57.000Z</time></trkpt>
<trkpt lat="42.092195" lon="23.618258"><ele>1984.3</ele><time>2026-03-08T14:31:58.000Z</time></trkpt>
<trkpt lat="42.092195" lon="23.618258"><ele>1984.3</ele><time>2026-03-08T14:31:59.000Z</time></trkpt>
<trkpt lat="42.092194" lon="23.618259"><ele>1984.3</ele><time>2026-03-08T14:32:00.000Z</time></trkpt>
<trkpt lat="42.092194" lon="23.618259"><ele>1984.3</ele><time>2026-03-08T14:32:01.000Z</time></trkpt>
<trkpt lat="42.092192" lon="23.618259"><ele>1984.4</ele><time>2026-03-08T14:32:02.000Z</time></trkpt>
<trkpt lat="42.092189" lon="23.618261"><ele>1984.4</ele><time>2026-03-08T14:32:03.000Z</time></trkpt>
<trkpt lat="42.092187" lon="23.618264"><ele>1984.4</ele><time>2026-03-08T14:32:04.000Z</time></trkpt>
<trkpt lat="42.092184" lon="23.618269"><ele>1984.4</ele><time>2026-03-08T14:32:05.000Z</time></trkpt>
<trkpt lat="42.092179" lon="23.618275"><ele>1984.4</ele><time>2026-03-08T14:32:06.000Z</time></trkpt>
<trkpt lat="42.092175" lon="23.618284"><ele>1984.3</ele><time>2026-03-08T14:32:07.000Z</time></trkpt>
<trkpt lat="42.092169" lon="23.618291"><ele>1984.3</ele><time>2026-03-08T14:32:08.000Z</time></trkpt>
<trkpt lat="42.092163" lon="23.618297"><ele>1984.3</ele><time>2026-03-08T14:32:09.000Z</time></trkpt>
<trkpt lat="42.092158" lon="23.618301"><ele>1984.3</ele><time>2026-03-08T14:32:10.000Z</time></trkpt>
<trkpt lat="42.092157" lon="23.618305"><ele>1984.3</ele><time>2026-03-08T14:32:11.000Z</time></trkpt>
<trkpt lat="42.092158" lon="23.61831"><ele>1984.2</ele><time>2026-03-08T14:32:12.000Z</time></trkpt>
<trkpt lat="42.092159" lon="23.618314"><ele>1984.2</ele><time>2026-03-08T14:32:13.000Z</time></trkpt>
<trkpt lat="42.092161" lon="23.618317"><ele>1984.2</ele><time>2026-03-08T14:32:14.000Z</time></trkpt>
<trkpt lat="42.092163" lon="23.618319"><ele>1984.2</ele><time>2026-03-08T14:32:15.000Z</time></trkpt>
<trkpt lat="42.092164" lon="23.61832"><ele>1984.2</ele><time>2026-03-08T14:32:16.000Z</time></trkpt>
<trkpt lat="42.092163" lon="23.618319"><ele>1983.9</ele><time>2026-03-08T14:32:17.000Z</time></trkpt>
<trkpt lat="42.092163" lon="23.618318"><ele>1983.9</ele><time>2026-03-08T14:32:18.000Z</time></trkpt>
<trkpt lat="42.092163" lon="23.618319"><ele>1983.9</ele><time>2026-03-08T14:32:19.000Z</time></trkpt>
<trkpt lat="42.092163" lon="23.61832"><ele>1983.9</ele><time>2026-03-08T14:32:20.000Z</time></trkpt>
<trkpt lat="42.092162" lon="23.618322"><ele>1983.9</ele><time>2026-03-08T14:32:21.000Z</time></trkpt>
<trkpt lat="42.092162" lon="23.618324"><ele>1983.5</ele><time>2026-03-08T14:32:22.000Z</time></trkpt>
<trkpt lat="42.092161" lon="23.618326"><ele>1983.5</ele><time>2026-03-08T14:32:23.000Z</time></trkpt>
<trkpt lat="42.092161" lon="23.618327"><ele>1983.5</ele><time>2026-03-08T14:32:24.000Z</time></trkpt>
<trkpt lat="42.09216" lon="23.618328"><ele>1983.5</ele><time>2026-03-08T14:32:25.000Z</time></trkpt>
<trkpt lat="42.09216" lon="23.618328"><ele>1983.5</ele><time>2026-03-08T14:32:26.000Z</time></trkpt>
<trkpt lat="42.09216" lon="23.618328"><ele>1983.1</ele><time>2026-03-08T14:32:27.000Z</time></trkpt>
<trkpt lat="42.09216" lon="23.618328"><ele>1983.1</ele><time>2026-03-08T14:32:28.000Z</time></trkpt>
<trkpt lat="42.09216" lon="23.618328"><ele>1983.1</ele><time>2026-03-08T14:32:29.000Z</time></trkpt>
<trkpt lat="42.09216" lon="23.618328"><ele>1983.1</ele><time>2026-03-08T14:32:30.000Z</time></trkpt>
<trkpt lat="42.09216" lon="23.618328"><ele>1983.1</ele><time>2026-03-08T14:32:31.000Z</time></trkpt>
<trkpt lat="42.09216" lon="23.618328"><ele>1983</ele><time>2026-03-08T14:32:32.000Z</time></trkpt>
<trkpt lat="42.09216" lon="23.618328"><ele>1983</ele><time>2026-03-08T14:32:33.000Z</time></trkpt>
<trkpt lat="42.09216" lon="23.618328"><ele>1983</ele><time>2026-03-08T14:32:34.000Z</time></trkpt>
<trkpt lat="42.092161" lon="23.618329"><ele>1983</ele><time>2026-03-08T14:32:35.000Z</time></trkpt>
<trkpt lat="42.092161" lon="23.61833"><ele>1983</ele><time>2026-03-08T14:32:36.000Z</time></trkpt>
<trkpt lat="42.092161" lon="23.618331"><ele>1983.2</ele><time>2026-03-08T14:32:37.000Z</time></trkpt>
<trkpt lat="42.092161" lon="23.618332"><ele>1983.2</ele><time>2026-03-08T14:32:38.000Z</time></trkpt>
<trkpt lat="42.092161" lon="23.618332"><ele>1983.2</ele><time>2026-03-08T14:32:39.000Z</time></trkpt>
<trkpt lat="42.092161" lon="23.618332"><ele>1983.2</ele><time>2026-03-08T14:32:40.000Z</time></trkpt>
<trkpt lat="42.092161" lon="23.618332"><ele>1983.2</ele><time>2026-03-08T14:32:41.000Z</time></trkpt>
<trkpt lat="42.092161" lon="23.618331"><ele>1983.5</ele><time>2026-03-08T14:32:42.000Z</time></trkpt>
<trkpt lat="42.09216" lon="23.618331"><ele>1983.5</ele><time>2026-03-08T14:32:43.000Z</time></trkpt>
<trkpt lat="42.092161" lon="23.618329"><ele>1983.5</ele><time>2026-03-08T14:32:44.000Z</time></trkpt>
<trkpt lat="42.092162" lon="23.618327"><ele>1983.5</ele><time>2026-03-08T14:32:45.000Z</time></trkpt>
<trkpt lat="42.092163" lon="23.618325"><ele>1983.5</ele><time>2026-03-08T14:32:46.000Z</time></trkpt>
<trkpt lat="42.092164" lon="23.618322"><ele>1983.5</ele><time>2026-03-08T14:32:47.000Z</time></trkpt>
<trkpt lat="42.092164" lon="23.618321"><ele>1983.5</ele><time>2026-03-08T14:32:48.000Z</time></trkpt>
<trkpt lat="42.092163" lon="23.618321"><ele>1983.5</ele><time>2026-03-08T14:32:49.000Z</time></trkpt>
<trkpt lat="42.092162" lon="23.618321"><ele>1983.5</ele><time>2026-03-08T14:32:50.000Z</time></trkpt>
<trkpt lat="42.092161" lon="23.618323"><ele>1983.5</ele><time>2026-03-08T14:32:51.000Z</time></trkpt>
<trkpt lat="42.09216" lon="23.618325"><ele>1983.3</ele><time>2026-03-08T14:32:52.000Z</time></trkpt>
<trkpt lat="42.09216" lon="23.618327"><ele>1983.3</ele><time>2026-03-08T14:32:53.000Z</time></trkpt>
<trkpt lat="42.09216" lon="23.618328"><ele>1983.3</ele><time>2026-03-08T14:32:54.000Z</time></trkpt>
<trkpt lat="42.09216" lon="23.61833"><ele>1983.3</ele><time>2026-03-08T14:32:55.000Z</time></trkpt>
<trkpt lat="42.09216" lon="23.618331"><ele>1983.3</ele><time>2026-03-08T14:32:56.000Z</time></trkpt>
<trkpt lat="42.09216" lon="23.618331"><ele>1983.2</ele><time>2026-03-08T14:32:57.000Z</time></trkpt>
<trkpt lat="42.092159" lon="23.618332"><ele>1983.2</ele><time>2026-03-08T14:32:58.000Z</time></trkpt>
<trkpt lat="42.092159" lon="23.618331"><ele>1983.2</ele><time>2026-03-08T14:32:59.000Z</time></trkpt>
<trkpt lat="42.092159" lon="23.618329"><ele>1983.2</ele><time>2026-03-08T14:33:00.000Z</time></trkpt>
<trkpt lat="42.092158" lon="23.618325"><ele>1983.2</ele><time>2026-03-08T14:33:01.000Z</time></trkpt>
<trkpt lat="42.092158" lon="23.618322"><ele>1983.3</ele><time>2026-03-08T14:33:02.000Z</time></trkpt>
<trkpt lat="42.092157" lon="23.618319"><ele>1983.3</ele><time>2026-03-08T14:33:03.000Z</time></trkpt>
<trkpt lat="42.092157" lon="23.618318"><ele>1983.3</ele><time>2026-03-08T14:33:04.000Z</time></trkpt>
<trkpt lat="42.092156" lon="23.618316"><ele>1983.3</ele><time>2026-03-08T14:33:05.000Z</time></trkpt>
<trkpt lat="42.092156" lon="23.618316"><ele>1983.3</ele><time>2026-03-08T14:33:06.000Z</time></trkpt>
<trkpt lat="42.092156" lon="23.618315"><ele>1983.5</ele><time>2026-03-08T14:33:07.000Z</time></trkpt>
<trkpt lat="42.092156" lon="23.618313"><ele>1983.5</ele><time>2026-03-08T14:33:08.000Z</time></trkpt>
<trkpt lat="42.092156" lon="23.618312"><ele>1983.5</ele><time>2026-03-08T14:33:09.000Z</time></trkpt>
<trkpt lat="42.092156" lon="23.618312"><ele>1983.5</ele><time>2026-03-08T14:33:10.000Z</time></trkpt>
<trkpt lat="42.092156" lon="23.618312"><ele>1983.5</ele><time>2026-03-08T14:33:11.000Z</time></trkpt>
<trkpt lat="42.092155" lon="23.618313"><ele>1983.4</ele><time>2026-03-08T14:33:12.000Z</time></trkpt>
<trkpt lat="42.092155" lon="23.618316"><ele>1983.4</ele><time>2026-03-08T14:33:13.000Z</time></trkpt>
<trkpt lat="42.092153" lon="23.61832"><ele>1983.4</ele><time>2026-03-08T14:33:14.000Z</time></trkpt>
<trkpt lat="42.092151" lon="23.618323"><ele>1983.4</ele><time>2026-03-08T14:33:15.000Z</time></trkpt>
<trkpt lat="42.092147" lon="23.618326"><ele>1983.4</ele><time>2026-03-08T14:33:16.000Z</time></trkpt>
<trkpt lat="42.092143" lon="23.618327"><ele>1983.3</ele><time>2026-03-08T14:33:17.000Z</time></trkpt>
<trkpt lat="42.092138" lon="23.618326"><ele>1983.3</ele><time>2026-03-08T14:33:18.000Z</time></trkpt>
<trkpt lat="42.092134" lon="23.618324"><ele>1983.3</ele><time>2026-03-08T14:33:19.000Z</time></trkpt>
<trkpt lat="42.092129" lon="23.618322"><ele>1983.3</ele><time>2026-03-08T14:33:20.000Z</time></trkpt>
<trkpt lat="42.092125" lon="23.618319"><ele>1983.3</ele><time>2026-03-08T14:33:21.000Z</time></trkpt>
<trkpt lat="42.092122" lon="23.618318"><ele>1983.2</ele><time>2026-03-08T14:33:22.000Z</time></trkpt>
<trkpt lat="42.09212" lon="23.618317"><ele>1983.2</ele><time>2026-03-08T14:33:23.000Z</time></trkpt>
<trkpt lat="42.092118" lon="23.618317"><ele>1983.2</ele><time>2026-03-08T14:33:24.000Z</time></trkpt>
<trkpt lat="42.092118" lon="23.618318"><ele>1983.2</ele><time>2026-03-08T14:33:25.000Z</time></trkpt>
<trkpt lat="42.092119" lon="23.618319"><ele>1983.2</ele><time>2026-03-08T14:33:26.000Z</time></trkpt>
<trkpt lat="42.092119" lon="23.618319"><ele>1983.2</ele><time>2026-03-08T14:33:27.000Z</time></trkpt>
<trkpt lat="42.092118" lon="23.618319"><ele>1983.2</ele><time>2026-03-08T14:33:28.000Z</time></trkpt>
<trkpt lat="42.092118" lon="23.618318"><ele>1983.2</ele><time>2026-03-08T14:33:29.000Z</time></trkpt>
<trkpt lat="42.092119" lon="23.618317"><ele>1983.2</ele><time>2026-03-08T14:33:30.000Z</time></trkpt>
<trkpt lat="42.092119" lon="23.618316"><ele>1983.2</ele><time>2026-03-08T14:33:31.000Z</time></trkpt>
<trkpt lat="42.092119" lon="23.618315"><ele>1983.2</ele><time>2026-03-08T14:33:32.000Z</time></trkpt>
<trkpt lat="42.092119" lon="23.618315"><ele>1983.2</ele><time>2026-03-08T14:33:33.000Z</time></trkpt>
<trkpt lat="42.092119" lon="23.618315"><ele>1983.2</ele><time>2026-03-08T14:33:34.000Z</time></trkpt>
<trkpt lat="42.092118" lon="23.618315"><ele>1983.2</ele><time>2026-03-08T14:33:35.000Z</time></trkpt>
<trkpt lat="42.092118" lon="23.618315"><ele>1983.2</ele><time>2026-03-08T14:33:36.000Z</time></trkpt>
<trkpt lat="42.092117" lon="23.618315"><ele>1983.1</ele><time>2026-03-08T14:33:37.000Z</time></trkpt>
<trkpt lat="42.092117" lon="23.618315"><ele>1983.1</ele><time>2026-03-08T14:33:38.000Z</time></trkpt>
<trkpt lat="42.092115" lon="23.618316"><ele>1983.1</ele><time>2026-03-08T14:33:39.000Z</time></trkpt>
<trkpt lat="42.092111" lon="23.618317"><ele>1983.1</ele><time>2026-03-08T14:33:40.000Z</time></trkpt>
<trkpt lat="42.092106" lon="23.618317"><ele>1983.1</ele><time>2026-03-08T14:33:41.000Z</time></trkpt>
<trkpt lat="42.092098" lon="23.618318"><ele>1983.2</ele><time>2026-03-08T14:33:42.000Z</time></trkpt>
<trkpt lat="42.092088" lon="23.618319"><ele>1983.2</ele><time>2026-03-08T14:33:43.000Z</time></trkpt>
<trkpt lat="42.092076" lon="23.618319"><ele>1983.2</ele><time>2026-03-08T14:33:44.000Z</time></trkpt>
<trkpt lat="42.092064" lon="23.618319"><ele>1983.2</ele><time>2026-03-08T14:33:45.000Z</time></trkpt>
<trkpt lat="42.092051" lon="23.61832"><ele>1983.2</ele><time>2026-03-08T14:33:46.000Z</time></trkpt>
<trkpt lat="42.092039" lon="23.618321"><ele>1983.2</ele><time>2026-03-08T14:33:47.000Z</time></trkpt>
<trkpt lat="42.092026" lon="23.618321"><ele>1983.2</ele><time>2026-03-08T14:33:48.000Z</time></trkpt>
<trkpt lat="42.092013" lon="23.618321"><ele>1983.2</ele><time>2026-03-08T14:33:49.000Z</time></trkpt>
<trkpt lat="42.092001" lon="23.618321"><ele>1983.2</ele><time>2026-03-08T14:33:50.000Z</time></trkpt>
<trkpt lat="42.09199" lon="23.618321"><ele>1983.2</ele><time>2026-03-08T14:33:51.000Z</time></trkpt>
<trkpt lat="42.091979" lon="23.618321"><ele>1983.3</ele><time>2026-03-08T14:33:52.000Z</time></trkpt>
<trkpt lat="42.091968" lon="23.618323"><ele>1983.3</ele><time>2026-03-08T14:33:53.000Z</time></trkpt>
<trkpt lat="42.091958" lon="23.618324"><ele>1983.3</ele><time>2026-03-08T14:33:54.000Z</time></trkpt>
<trkpt lat="42.091948" lon="23.618326"><ele>1983.3</ele><time>2026-03-08T14:33:55.000Z</time></trkpt>
<trkpt lat="42.091937" lon="23.618328"><ele>1983.3</ele><time>2026-03-08T14:33:56.000Z</time></trkpt>
<trkpt lat="42.091927" lon="23.618331"><ele>1983.2</ele><time>2026-03-08T14:33:57.000Z</time></trkpt>
<trkpt lat="42.091917" lon="23.618333"><ele>1983.2</ele><time>2026-03-08T14:33:58.000Z</time></trkpt>
<trkpt lat="42.091907" lon="23.618337"><ele>1983.2</ele><time>2026-03-08T14:33:59.000Z</time></trkpt>
<trkpt lat="42.091897" lon="23.618341"><ele>1983.2</ele><time>2026-03-08T14:34:00.000Z</time></trkpt>
<trkpt lat="42.091887" lon="23.618345"><ele>1983.2</ele><time>2026-03-08T14:34:01.000Z</time></trkpt>
<trkpt lat="42.091877" lon="23.618349"><ele>1983.3</ele><time>2026-03-08T14:34:02.000Z</time></trkpt>
<trkpt lat="42.091867" lon="23.618352"><ele>1983.3</ele><time>2026-03-08T14:34:03.000Z</time></trkpt>
<trkpt lat="42.091856" lon="23.618356"><ele>1983.3</ele><time>2026-03-08T14:34:04.000Z</time></trkpt>
<trkpt lat="42.091845" lon="23.61836"><ele>1983.3</ele><time>2026-03-08T14:34:05.000Z</time></trkpt>
<trkpt lat="42.091833" lon="23.618364"><ele>1983.3</ele><time>2026-03-08T14:34:06.000Z</time></trkpt>
<trkpt lat="42.091821" lon="23.618369"><ele>1983.4</ele><time>2026-03-08T14:34:07.000Z</time></trkpt>
<trkpt lat="42.09181" lon="23.618373"><ele>1983.4</ele><time>2026-03-08T14:34:08.000Z</time></trkpt>
<trkpt lat="42.091799" lon="23.61838"><ele>1983.4</ele><time>2026-03-08T14:34:09.000Z</time></trkpt>
<trkpt lat="42.091789" lon="23.618387"><ele>1983.4</ele><time>2026-03-08T14:34:10.000Z</time></trkpt>
<trkpt lat="42.09178" lon="23.618394"><ele>1983.4</ele><time>2026-03-08T14:34:11.000Z</time></trkpt>
<trkpt lat="42.091772" lon="23.618402"><ele>1983.4</ele><time>2026-03-08T14:34:12.000Z</time></trkpt>
<trkpt lat="42.091765" lon="23.618409"><ele>1983.4</ele><time>2026-03-08T14:34:13.000Z</time></trkpt>
<trkpt lat="42.091758" lon="23.618414"><ele>1983.4</ele><time>2026-03-08T14:34:14.000Z</time></trkpt>
<trkpt lat="42.091753" lon="23.618416"><ele>1983.4</ele><time>2026-03-08T14:34:15.000Z</time></trkpt>
<trkpt lat="42.091749" lon="23.618416"><ele>1983.4</ele><time>2026-03-08T14:34:16.000Z</time></trkpt>
<trkpt lat="42.091747" lon="23.618415"><ele>1983.4</ele><time>2026-03-08T14:34:17.000Z</time></trkpt>
<trkpt lat="42.091745" lon="23.618413"><ele>1983.4</ele><time>2026-03-08T14:34:18.000Z</time></trkpt>
<trkpt lat="42.091745" lon="23.61841"><ele>1983.4</ele><time>2026-03-08T14:34:19.000Z</time></trkpt>
<trkpt lat="42.091744" lon="23.618408"><ele>1983.4</ele><time>2026-03-08T14:34:20.000Z</time></trkpt>
<trkpt lat="42.091743" lon="23.618405"><ele>1983.4</ele><time>2026-03-08T14:34:21.000Z</time></trkpt>
<trkpt lat="42.091741" lon="23.618403"><ele>1983.1</ele><time>2026-03-08T14:34:22.000Z</time></trkpt>
<trkpt lat="42.091737" lon="23.618402"><ele>1983.1</ele><time>2026-03-08T14:34:23.000Z</time></trkpt>
<trkpt lat="42.091731" lon="23.618403"><ele>1983.1</ele><time>2026-03-08T14:34:24.000Z</time></trkpt>
<trkpt lat="42.091723" lon="23.618406"><ele>1983.1</ele><time>2026-03-08T14:34:25.000Z</time></trkpt>
<trkpt lat="42.091714" lon="23.618409"><ele>1983.1</ele><time>2026-03-08T14:34:26.000Z</time></trkpt>
<trkpt lat="42.091704" lon="23.618413"><ele>1982.7</ele><time>2026-03-08T14:34:27.000Z</time></trkpt>
<trkpt lat="42.091693" lon="23.618418"><ele>1982.7</ele><time>2026-03-08T14:34:28.000Z</time></trkpt>
<trkpt lat="42.091681" lon="23.618423"><ele>1982.7</ele><time>2026-03-08T14:34:29.000Z</time></trkpt>
<trkpt lat="42.091668" lon="23.618427"><ele>1982.7</ele><time>2026-03-08T14:34:30.000Z</time></trkpt>
<trkpt lat="42.091655" lon="23.61843"><ele>1982.7</ele><time>2026-03-08T14:34:31.000Z</time></trkpt>
<trkpt lat="42.091641" lon="23.618434"><ele>1982.6</ele><time>2026-03-08T14:34:32.000Z</time></trkpt>
<trkpt lat="42.091628" lon="23.618437"><ele>1982.6</ele><time>2026-03-08T14:34:33.000Z</time></trkpt>
<trkpt lat="42.091616" lon="23.61844"><ele>1982.6</ele><time>2026-03-08T14:34:34.000Z</time></trkpt>
<trkpt lat="42.091604" lon="23.618443"><ele>1982.6</ele><time>2026-03-08T14:34:35.000Z</time></trkpt>
<trkpt lat="42.091593" lon="23.618448"><ele>1982.6</ele><time>2026-03-08T14:34:36.000Z</time></trkpt>
<trkpt lat="42.091581" lon="23.618452"><ele>1982.4</ele><time>2026-03-08T14:34:37.000Z</time></trkpt>
<trkpt lat="42.09157" lon="23.618454"><ele>1982.4</ele><time>2026-03-08T14:34:38.000Z</time></trkpt>
<trkpt lat="42.091558" lon="23.618456"><ele>1982.4</ele><time>2026-03-08T14:34:39.000Z</time></trkpt>
<trkpt lat="42.091545" lon="23.618458"><ele>1982.4</ele><time>2026-03-08T14:34:40.000Z</time></trkpt>
<trkpt lat="42.091533" lon="23.61846"><ele>1982.4</ele><time>2026-03-08T14:34:41.000Z</time></trkpt>
<trkpt lat="42.091521" lon="23.618463"><ele>1982.1</ele><time>2026-03-08T14:34:42.000Z</time></trkpt>
<trkpt lat="42.09151" lon="23.618467"><ele>1982.1</ele><time>2026-03-08T14:34:43.000Z</time></trkpt>
<trkpt lat="42.091498" lon="23.618471"><ele>1982.1</ele><time>2026-03-08T14:34:44.000Z</time></trkpt>
<trkpt lat="42.091488" lon="23.618475"><ele>1982.1</ele><time>2026-03-08T14:34:45.000Z</time></trkpt>
<trkpt lat="42.091477" lon="23.618479"><ele>1982.1</ele><time>2026-03-08T14:34:46.000Z</time></trkpt>
<trkpt lat="42.091465" lon="23.618485"><ele>1981.9</ele><time>2026-03-08T14:34:47.000Z</time></trkpt>
<trkpt lat="42.091453" lon="23.61849"><ele>1981.9</ele><time>2026-03-08T14:34:48.000Z</time></trkpt>
<trkpt lat="42.091441" lon="23.618495"><ele>1981.9</ele><time>2026-03-08T14:34:49.000Z</time></trkpt>
<trkpt lat="42.091428" lon="23.6185"><ele>1981.9</ele><time>2026-03-08T14:34:50.000Z</time></trkpt>
<trkpt lat="42.091416" lon="23.618506"><ele>1981.9</ele><time>2026-03-08T14:34:51.000Z</time></trkpt>
<trkpt lat="42.091403" lon="23.618511"><ele>1981.6</ele><time>2026-03-08T14:34:52.000Z</time></trkpt>
<trkpt lat="42.091391" lon="23.618516"><ele>1981.6</ele><time>2026-03-08T14:34:53.000Z</time></trkpt>
<trkpt lat="42.091379" lon="23.618522"><ele>1981.6</ele><time>2026-03-08T14:34:54.000Z</time></trkpt>
<trkpt lat="42.091368" lon="23.618529"><ele>1981.6</ele><time>2026-03-08T14:34:55.000Z</time></trkpt>
<trkpt lat="42.091356" lon="23.618535"><ele>1981.6</ele><time>2026-03-08T14:34:56.000Z</time></trkpt>
<trkpt lat="42.091345" lon="23.618541"><ele>1981.3</ele><time>2026-03-08T14:34:57.000Z</time></trkpt>
<trkpt lat="42.091333" lon="23.618546"><ele>1981.3</ele><time>2026-03-08T14:34:58.000Z</time></trkpt>
<trkpt lat="42.091321" lon="23.618551"><ele>1981.3</ele><time>2026-03-08T14:34:59.000Z</time></trkpt>
<trkpt lat="42.091309" lon="23.618557"><ele>1981.3</ele><time>2026-03-08T14:35:00.000Z</time></trkpt>
<trkpt lat="42.091298" lon="23.618562"><ele>1981.3</ele><time>2026-03-08T14:35:01.000Z</time></trkpt>
<trkpt lat="42.091286" lon="23.618567"><ele>1981.1</ele><time>2026-03-08T14:35:02.000Z</time></trkpt>
<trkpt lat="42.091275" lon="23.618572"><ele>1981.1</ele><time>2026-03-08T14:35:03.000Z</time></trkpt>
<trkpt lat="42.091263" lon="23.618577"><ele>1981.1</ele><time>2026-03-08T14:35:04.000Z</time></trkpt>
<trkpt lat="42.091252" lon="23.618581"><ele>1981.1</ele><time>2026-03-08T14:35:05.000Z</time></trkpt>
<trkpt lat="42.091241" lon="23.618584"><ele>1981.1</ele><time>2026-03-08T14:35:06.000Z</time></trkpt>
<trkpt lat="42.09123" lon="23.618587"><ele>1980.7</ele><time>2026-03-08T14:35:07.000Z</time></trkpt>
<trkpt lat="42.09122" lon="23.61859"><ele>1980.7</ele><time>2026-03-08T14:35:08.000Z</time></trkpt>
<trkpt lat="42.091209" lon="23.618594"><ele>1980.7</ele><time>2026-03-08T14:35:09.000Z</time></trkpt>
<trkpt lat="42.091198" lon="23.618598"><ele>1980.7</ele><time>2026-03-08T14:35:10.000Z</time></trkpt>
<trkpt lat="42.091186" lon="23.618603"><ele>1980.7</ele><time>2026-03-08T14:35:11.000Z</time></trkpt>
<trkpt lat="42.091174" lon="23.618609"><ele>1980.3</ele><time>2026-03-08T14:35:12.000Z</time></trkpt>
<trkpt lat="42.09116" lon="23.618614"><ele>1980.3</ele><time>2026-03-08T14:35:13.000Z</time></trkpt>
<trkpt lat="42.091147" lon="23.618621"><ele>1980.3</ele><time>2026-03-08T14:35:14.000Z</time></trkpt>
<trkpt lat="42.091134" lon="23.618628"><ele>1980.3</ele><time>2026-03-08T14:35:15.000Z</time></trkpt>
<trkpt lat="42.091122" lon="23.618636"><ele>1980.3</ele><time>2026-03-08T14:35:16.000Z</time></trkpt>
<trkpt lat="42.091111" lon="23.618644"><ele>1980.2</ele><time>2026-03-08T14:35:17.000Z</time></trkpt>
<trkpt lat="42.091099" lon="23.618651"><ele>1980.2</ele><time>2026-03-08T14:35:18.000Z</time></trkpt>
<trkpt lat="42.091088" lon="23.618658"><ele>1980.2</ele><time>2026-03-08T14:35:19.000Z</time></trkpt>
<trkpt lat="42.091076" lon="23.618663"><ele>1980.2</ele><time>2026-03-08T14:35:20.000Z</time></trkpt>
<trkpt lat="42.091065" lon="23.618669"><ele>1980.2</ele><time>2026-03-08T14:35:21.000Z</time></trkpt>
<trkpt lat="42.091054" lon="23.618675"><ele>1979.8</ele><time>2026-03-08T14:35:22.000Z</time></trkpt>
<trkpt lat="42.091042" lon="23.618682"><ele>1979.8</ele><time>2026-03-08T14:35:23.000Z</time></trkpt>
<trkpt lat="42.091031" lon="23.618689"><ele>1979.8</ele><time>2026-03-08T14:35:24.000Z</time></trkpt>
<trkpt lat="42.091021" lon="23.618696"><ele>1979.8</ele><time>2026-03-08T14:35:25.000Z</time></trkpt>
<trkpt lat="42.09101" lon="23.618701"><ele>1979.8</ele><time>2026-03-08T14:35:26.000Z</time></trkpt>
<trkpt lat="42.091" lon="23.618706"><ele>1979.5</ele><time>2026-03-08T14:35:27.000Z</time></trkpt>
<trkpt lat="42.09099" lon="23.61871"><ele>1979.5</ele><time>2026-03-08T14:35:28.000Z</time></trkpt>
<trkpt lat="42.090979" lon="23.618714"><ele>1979.5</ele><time>2026-03-08T14:35:29.000Z</time></trkpt>
<trkpt lat="42.090969" lon="23.618719"><ele>1979.5</ele><time>2026-03-08T14:35:30.000Z</time></trkpt>
<trkpt lat="42.090957" lon="23.618724"><ele>1979.5</ele><time>2026-03-08T14:35:31.000Z</time></trkpt>
<trkpt lat="42.090944" lon="23.61873"><ele>1979.4</ele><time>2026-03-08T14:35:32.000Z</time></trkpt>
<trkpt lat="42.090931" lon="23.618734"><ele>1979.4</ele><time>2026-03-08T14:35:33.000Z</time></trkpt>
<trkpt lat="42.090918" lon="23.618739"><ele>1979.4</ele><time>2026-03-08T14:35:34.000Z</time></trkpt>
<trkpt lat="42.090906" lon="23.618745"><ele>1979.4</ele><time>2026-03-08T14:35:35.000Z</time></trkpt>
<trkpt lat="42.090894" lon="23.618749"><ele>1979.4</ele><time>2026-03-08T14:35:36.000Z</time></trkpt>
<trkpt lat="42.090883" lon="23.618754"><ele>1979.2</ele><time>2026-03-08T14:35:37.000Z</time></trkpt>
<trkpt lat="42.090872" lon="23.618759"><ele>1979.2</ele><time>2026-03-08T14:35:38.000Z</time></trkpt>
<trkpt lat="42.090861" lon="23.618764"><ele>1979.2</ele><time>2026-03-08T14:35:39.000Z</time></trkpt>
<trkpt lat="42.090849" lon="23.618769"><ele>1979.2</ele><time>2026-03-08T14:35:40.000Z</time></trkpt>
<trkpt lat="42.090837" lon="23.618772"><ele>1979.2</ele><time>2026-03-08T14:35:41.000Z</time></trkpt>
<trkpt lat="42.090826" lon="23.618775"><ele>1979.1</ele><time>2026-03-08T14:35:42.000Z</time></trkpt>
<trkpt lat="42.090815" lon="23.618778"><ele>1979.1</ele><time>2026-03-08T14:35:43.000Z</time></trkpt>
<trkpt lat="42.090804" lon="23.61878"><ele>1979.1</ele><time>2026-03-08T14:35:44.000Z</time></trkpt>
<trkpt lat="42.090793" lon="23.618783"><ele>1979.1</ele><time>2026-03-08T14:35:45.000Z</time></trkpt>
<trkpt lat="42.090783" lon="23.618786"><ele>1979.1</ele><time>2026-03-08T14:35:46.000Z</time></trkpt>
<trkpt lat="42.090771" lon="23.618791"><ele>1978.9</ele><time>2026-03-08T14:35:47.000Z</time></trkpt>
<trkpt lat="42.09076" lon="23.618795"><ele>1978.9</ele><time>2026-03-08T14:35:48.000Z</time></trkpt>
<trkpt lat="42.090749" lon="23.618799"><ele>1978.9</ele><time>2026-03-08T14:35:49.000Z</time></trkpt>
<trkpt lat="42.090738" lon="23.618803"><ele>1978.9</ele><time>2026-03-08T14:35:50.000Z</time></trkpt>
<trkpt lat="42.090727" lon="23.618807"><ele>1978.9</ele><time>2026-03-08T14:35:51.000Z</time></trkpt>
<trkpt lat="42.090716" lon="23.61881"><ele>1978.5</ele><time>2026-03-08T14:35:52.000Z</time></trkpt>
<trkpt lat="42.090704" lon="23.618815"><ele>1978.5</ele><time>2026-03-08T14:35:53.000Z</time></trkpt>
<trkpt lat="42.090692" lon="23.618819"><ele>1978.5</ele><time>2026-03-08T14:35:54.000Z</time></trkpt>
<trkpt lat="42.09068" lon="23.618822"><ele>1978.5</ele><time>2026-03-08T14:35:55.000Z</time></trkpt>
<trkpt lat="42.090668" lon="23.618825"><ele>1978.5</ele><time>2026-03-08T14:35:56.000Z</time></trkpt>
<trkpt lat="42.090656" lon="23.618829"><ele>1978.1</ele><time>2026-03-08T14:35:57.000Z</time></trkpt>
<trkpt lat="42.090645" lon="23.618832"><ele>1978.1</ele><time>2026-03-08T14:35:58.000Z</time></trkpt>
<trkpt lat="42.090633" lon="23.618837"><ele>1978.1</ele><time>2026-03-08T14:35:59.000Z</time></trkpt>
<trkpt lat="42.090621" lon="23.618842"><ele>1978.1</ele><time>2026-03-08T14:36:00.000Z</time></trkpt>
<trkpt lat="42.090609" lon="23.618848"><ele>1978.1</ele><time>2026-03-08T14:36:01.000Z</time></trkpt>
<trkpt lat="42.090596" lon="23.618854"><ele>1978</ele><time>2026-03-08T14:36:02.000Z</time></trkpt>
<trkpt lat="42.090583" lon="23.618859"><ele>1978</ele><time>2026-03-08T14:36:03.000Z</time></trkpt>
<trkpt lat="42.090572" lon="23.618864"><ele>1978</ele><time>2026-03-08T14:36:04.000Z</time></trkpt>
<trkpt lat="42.09056" lon="23.618869"><ele>1978</ele><time>2026-03-08T14:36:05.000Z</time></trkpt>
<trkpt lat="42.090549" lon="23.618874"><ele>1978</ele><time>2026-03-08T14:36:06.000Z</time></trkpt>
<trkpt lat="42.090539" lon="23.618879"><ele>1977.9</ele><time>2026-03-08T14:36:07.000Z</time></trkpt>
<trkpt lat="42.090529" lon="23.618882"><ele>1977.9</ele><time>2026-03-08T14:36:08.000Z</time></trkpt>
<trkpt lat="42.090519" lon="23.618885"><ele>1977.9</ele><time>2026-03-08T14:36:09.000Z</time></trkpt>
<trkpt lat="42.090509" lon="23.618889"><ele>1977.9</ele><time>2026-03-08T14:36:10.000Z</time></trkpt>
<trkpt lat="42.090497" lon="23.618892"><ele>1977.9</ele><time>2026-03-08T14:36:11.000Z</time></trkpt>
<trkpt lat="42.090486" lon="23.618896"><ele>1977.7</ele><time>2026-03-08T14:36:12.000Z</time></trkpt>
<trkpt lat="42.090475" lon="23.6189"><ele>1977.7</ele><time>2026-03-08T14:36:13.000Z</time></trkpt>
<trkpt lat="42.090464" lon="23.618905"><ele>1977.7</ele><time>2026-03-08T14:36:14.000Z</time></trkpt>
<trkpt lat="42.090453" lon="23.618909"><ele>1977.7</ele><time>2026-03-08T14:36:15.000Z</time></trkpt>
<trkpt lat="42.090442" lon="23.618913"><ele>1977.7</ele><time>2026-03-08T14:36:16.000Z</time></trkpt>
<trkpt lat="42.090432" lon="23.618918"><ele>1977.6</ele><time>2026-03-08T14:36:17.000Z</time></trkpt>
<trkpt lat="42.090423" lon="23.618922"><ele>1977.6</ele><time>2026-03-08T14:36:18.000Z</time></trkpt>
<trkpt lat="42.090414" lon="23.618927"><ele>1977.6</ele><time>2026-03-08T14:36:19.000Z</time></trkpt>
<trkpt lat="42.090405" lon="23.618933"><ele>1977.6</ele><time>2026-03-08T14:36:20.000Z</time></trkpt>
<trkpt lat="42.090397" lon="23.618938"><ele>1977.6</ele><time>2026-03-08T14:36:21.000Z</time></trkpt>
<trkpt lat="42.090388" lon="23.618942"><ele>1977.2</ele><time>2026-03-08T14:36:22.000Z</time></trkpt>
<trkpt lat="42.090379" lon="23.618947"><ele>1977.2</ele><time>2026-03-08T14:36:23.000Z</time></trkpt>
<trkpt lat="42.090368" lon="23.618951"><ele>1977.2</ele><time>2026-03-08T14:36:24.000Z</time></trkpt>
<trkpt lat="42.090357" lon="23.618955"><ele>1977.2</ele><time>2026-03-08T14:36:25.000Z</time></trkpt>
<trkpt lat="42.090346" lon="23.61896"><ele>1977.2</ele><time>2026-03-08T14:36:26.000Z</time></trkpt>
<trkpt lat="42.090335" lon="23.618965"><ele>1976.9</ele><time>2026-03-08T14:36:27.000Z</time></trkpt>
<trkpt lat="42.090324" lon="23.618972"><ele>1976.9</ele><time>2026-03-08T14:36:28.000Z</time></trkpt>
<trkpt lat="42.090313" lon="23.61898"><ele>1976.9</ele><time>2026-03-08T14:36:29.000Z</time></trkpt>
<trkpt lat="42.090303" lon="23.618989"><ele>1976.9</ele><time>2026-03-08T14:36:30.000Z</time></trkpt>
<trkpt lat="42.090293" lon="23.618997"><ele>1976.9</ele><time>2026-03-08T14:36:31.000Z</time></trkpt>
<trkpt lat="42.090282" lon="23.619005"><ele>1976.5</ele><time>2026-03-08T14:36:32.000Z</time></trkpt>
<trkpt lat="42.090271" lon="23.619013"><ele>1976.5</ele><time>2026-03-08T14:36:33.000Z</time></trkpt>
<trkpt lat="42.09026" lon="23.619021"><ele>1976.5</ele><time>2026-03-08T14:36:34.000Z</time></trkpt>
<trkpt lat="42.090249" lon="23.619029"><ele>1976.5</ele><time>2026-03-08T14:36:35.000Z</time></trkpt>
<trkpt lat="42.090238" lon="23.619038"><ele>1976.5</ele><time>2026-03-08T14:36:36.000Z</time></trkpt>
<trkpt lat="42.090227" lon="23.619046"><ele>1976.1</ele><time>2026-03-08T14:36:37.000Z</time></trkpt>
<trkpt lat="42.090218" lon="23.619055"><ele>1976.1</ele><time>2026-03-08T14:36:38.000Z</time></trkpt>
<trkpt lat="42.090208" lon="23.619063"><ele>1976.1</ele><time>2026-03-08T14:36:39.000Z</time></trkpt>
<trkpt lat="42.090199" lon="23.619071"><ele>1976.1</ele><time>2026-03-08T14:36:40.000Z</time></trkpt>
<trkpt lat="42.090189" lon="23.619079"><ele>1976.1</ele><time>2026-03-08T14:36:41.000Z</time></trkpt>
<trkpt lat="42.09018" lon="23.619089"><ele>1975.8</ele><time>2026-03-08T14:36:42.000Z</time></trkpt>
<trkpt lat="42.090171" lon="23.619099"><ele>1975.8</ele><time>2026-03-08T14:36:43.000Z</time></trkpt>
<trkpt lat="42.090162" lon="23.619109"><ele>1975.8</ele><time>2026-03-08T14:36:44.000Z</time></trkpt>
<trkpt lat="42.090154" lon="23.619117"><ele>1975.8</ele><time>2026-03-08T14:36:45.000Z</time></trkpt>
<trkpt lat="42.090148" lon="23.619124"><ele>1975.8</ele><time>2026-03-08T14:36:46.000Z</time></trkpt>
<trkpt lat="42.090141" lon="23.61913"><ele>1975.7</ele><time>2026-03-08T14:36:47.000Z</time></trkpt>
<trkpt lat="42.090135" lon="23.619137"><ele>1975.7</ele><time>2026-03-08T14:36:48.000Z</time></trkpt>
<trkpt lat="42.090128" lon="23.619145"><ele>1975.7</ele><time>2026-03-08T14:36:49.000Z</time></trkpt>
<trkpt lat="42.090121" lon="23.619155"><ele>1975.7</ele><time>2026-03-08T14:36:50.000Z</time></trkpt>
<trkpt lat="42.090112" lon="23.619166"><ele>1975.7</ele><time>2026-03-08T14:36:51.000Z</time></trkpt>
<trkpt lat="42.090103" lon="23.619177"><ele>1975.5</ele><time>2026-03-08T14:36:52.000Z</time></trkpt>
<trkpt lat="42.090094" lon="23.619189"><ele>1975.5</ele><time>2026-03-08T14:36:53.000Z</time></trkpt>
<trkpt lat="42.090085" lon="23.6192"><ele>1975.5</ele><time>2026-03-08T14:36:54.000Z</time></trkpt>
<trkpt lat="42.090076" lon="23.619212"><ele>1975.5</ele><time>2026-03-08T14:36:55.000Z</time></trkpt>
<trkpt lat="42.090066" lon="23.619223"><ele>1975.5</ele><time>2026-03-08T14:36:56.000Z</time></trkpt>
<trkpt lat="42.090057" lon="23.619235"><ele>1975.4</ele><time>2026-03-08T14:36:57.000Z</time></trkpt>
<trkpt lat="42.090049" lon="23.619247"><ele>1975.4</ele><time>2026-03-08T14:36:58.000Z</time></trkpt>
<trkpt lat="42.090041" lon="23.61926"><ele>1975.4</ele><time>2026-03-08T14:36:59.000Z</time></trkpt>
<trkpt lat="42.090033" lon="23.619274"><ele>1975.4</ele><time>2026-03-08T14:37:00.000Z</time></trkpt>
<trkpt lat="42.090026" lon="23.619288"><ele>1975.4</ele><time>2026-03-08T14:37:01.000Z</time></trkpt>
<trkpt lat="42.090018" lon="23.619302"><ele>1975.2</ele><time>2026-03-08T14:37:02.000Z</time></trkpt>
<trkpt lat="42.09001" lon="23.619315"><ele>1975.2</ele><time>2026-03-08T14:37:03.000Z</time></trkpt>
<trkpt lat="42.090003" lon="23.619327"><ele>1975.2</ele><time>2026-03-08T14:37:04.000Z</time></trkpt>
<trkpt lat="42.089995" lon="23.619339"><ele>1975.2</ele><time>2026-03-08T14:37:05.000Z</time></trkpt>
<trkpt lat="42.089987" lon="23.619349"><ele>1975.2</ele><time>2026-03-08T14:37:06.000Z</time></trkpt>
<trkpt lat="42.08998" lon="23.619356"><ele>1975</ele><time>2026-03-08T14:37:07.000Z</time></trkpt>
<trkpt lat="42.089974" lon="23.619363"><ele>1975</ele><time>2026-03-08T14:37:08.000Z</time></trkpt>
<trkpt lat="42.089968" lon="23.61937"><ele>1975</ele><time>2026-03-08T14:37:09.000Z</time></trkpt>
<trkpt lat="42.089962" lon="23.619377"><ele>1975</ele><time>2026-03-08T14:37:10.000Z</time></trkpt>
<trkpt lat="42.089957" lon="23.619383"><ele>1975</ele><time>2026-03-08T14:37:11.000Z</time></trkpt>
<trkpt lat="42.08995" lon="23.619391"><ele>1974.9</ele><time>2026-03-08T14:37:12.000Z</time></trkpt>
<trkpt lat="42.089942" lon="23.619399"><ele>1974.9</ele><time>2026-03-08T14:37:13.000Z</time></trkpt>
<trkpt lat="42.089934" lon="23.619407"><ele>1974.9</ele><time>2026-03-08T14:37:14.000Z</time></trkpt>
<trkpt lat="42.089926" lon="23.619415"><ele>1974.9</ele><time>2026-03-08T14:37:15.000Z</time></trkpt>
<trkpt lat="42.089919" lon="23.619425"><ele>1974.9</ele><time>2026-03-08T14:37:16.000Z</time></trkpt>
<trkpt lat="42.089911" lon="23.619436"><ele>1974.7</ele><time>2026-03-08T14:37:17.000Z</time></trkpt>
<trkpt lat="42.089905" lon="23.619445"><ele>1974.7</ele><time>2026-03-08T14:37:18.000Z</time></trkpt>
<trkpt lat="42.089898" lon="23.619457"><ele>1974.7</ele><time>2026-03-08T14:37:19.000Z</time></trkpt>
<trkpt lat="42.089892" lon="23.619468"><ele>1974.7</ele><time>2026-03-08T14:37:20.000Z</time></trkpt>
<trkpt lat="42.089886" lon="23.619479"><ele>1974.7</ele><time>2026-03-08T14:37:21.000Z</time></trkpt>
<trkpt lat="42.089881" lon="23.619492"><ele>1974.3</ele><time>2026-03-08T14:37:22.000Z</time></trkpt>
<trkpt lat="42.089874" lon="23.619505"><ele>1974.3</ele><time>2026-03-08T14:37:23.000Z</time></trkpt>
<trkpt lat="42.089868" lon="23.619518"><ele>1974.3</ele><time>2026-03-08T14:37:24.000Z</time></trkpt>
<trkpt lat="42.089859" lon="23.61953"><ele>1974.3</ele><time>2026-03-08T14:37:25.000Z</time></trkpt>
<trkpt lat="42.089851" lon="23.619542"><ele>1974.3</ele><time>2026-03-08T14:37:26.000Z</time></trkpt>
<trkpt lat="42.089842" lon="23.619553"><ele>1974.1</ele><time>2026-03-08T14:37:27.000Z</time></trkpt>
<trkpt lat="42.089834" lon="23.619564"><ele>1974.1</ele><time>2026-03-08T14:37:28.000Z</time></trkpt>
<trkpt lat="42.089826" lon="23.619576"><ele>1974.1</ele><time>2026-03-08T14:37:29.000Z</time></trkpt>
<trkpt lat="42.089821" lon="23.619587"><ele>1974.1</ele><time>2026-03-08T14:37:30.000Z</time></trkpt>
<trkpt lat="42.089815" lon="23.619601"><ele>1974.1</ele><time>2026-03-08T14:37:31.000Z</time></trkpt>
<trkpt lat="42.089811" lon="23.619614"><ele>1973.6</ele><time>2026-03-08T14:37:32.000Z</time></trkpt>
<trkpt lat="42.089808" lon="23.619628"><ele>1973.6</ele><time>2026-03-08T14:37:33.000Z</time></trkpt>
<trkpt lat="42.089802" lon="23.619642"><ele>1973.6</ele><time>2026-03-08T14:37:34.000Z</time></trkpt>
<trkpt lat="42.089796" lon="23.619658"><ele>1973.6</ele><time>2026-03-08T14:37:35.000Z</time></trkpt>
<trkpt lat="42.08979" lon="23.619672"><ele>1973.6</ele><time>2026-03-08T14:37:36.000Z</time></trkpt>
<trkpt lat="42.089781" lon="23.619687"><ele>1973.2</ele><time>2026-03-08T14:37:37.000Z</time></trkpt>
<trkpt lat="42.089773" lon="23.619701"><ele>1973.2</ele><time>2026-03-08T14:37:38.000Z</time></trkpt>
<trkpt lat="42.089764" lon="23.619715"><ele>1973.2</ele><time>2026-03-08T14:37:39.000Z</time></trkpt>
<trkpt lat="42.089756" lon="23.619728"><ele>1973.2</ele><time>2026-03-08T14:37:40.000Z</time></trkpt>
<trkpt lat="42.089747" lon="23.619741"><ele>1973.2</ele><time>2026-03-08T14:37:41.000Z</time></trkpt>
<trkpt lat="42.089739" lon="23.619753"><ele>1973</ele><time>2026-03-08T14:37:42.000Z</time></trkpt>
<trkpt lat="42.089731" lon="23.619766"><ele>1973</ele><time>2026-03-08T14:37:43.000Z</time></trkpt>
<trkpt lat="42.089724" lon="23.619778"><ele>1973</ele><time>2026-03-08T14:37:44.000Z</time></trkpt>
<trkpt lat="42.089717" lon="23.61979"><ele>1973</ele><time>2026-03-08T14:37:45.000Z</time></trkpt>
<trkpt lat="42.089709" lon="23.619802"><ele>1973</ele><time>2026-03-08T14:37:46.000Z</time></trkpt>
<trkpt lat="42.089702" lon="23.619815"><ele>1972.4</ele><time>2026-03-08T14:37:47.000Z</time></trkpt>
<trkpt lat="42.089695" lon="23.619826"><ele>1972.4</ele><time>2026-03-08T14:37:48.000Z</time></trkpt>
<trkpt lat="42.089688" lon="23.619837"><ele>1972.4</ele><time>2026-03-08T14:37:49.000Z</time></trkpt>
<trkpt lat="42.089683" lon="23.619849"><ele>1972.4</ele><time>2026-03-08T14:37:50.000Z</time></trkpt>
<trkpt lat="42.089678" lon="23.619862"><ele>1972.4</ele><time>2026-03-08T14:37:51.000Z</time></trkpt>
<trkpt lat="42.089674" lon="23.619873"><ele>1971.8</ele><time>2026-03-08T14:37:52.000Z</time></trkpt>
<trkpt lat="42.089668" lon="23.619886"><ele>1971.8</ele><time>2026-03-08T14:37:53.000Z</time></trkpt>
<trkpt lat="42.089663" lon="23.619899"><ele>1971.8</ele><time>2026-03-08T14:37:54.000Z</time></trkpt>
<trkpt lat="42.089656" lon="23.619911"><ele>1971.8</ele><time>2026-03-08T14:37:55.000Z</time></trkpt>
<trkpt lat="42.089649" lon="23.619923"><ele>1971.8</ele><time>2026-03-08T14:37:56.000Z</time></trkpt>
<trkpt lat="42.089642" lon="23.619936"><ele>1971.5</ele><time>2026-03-08T14:37:57.000Z</time></trkpt>
<trkpt lat="42.089635" lon="23.619949"><ele>1971.5</ele><time>2026-03-08T14:37:58.000Z</time></trkpt>
<trkpt lat="42.089629" lon="23.619962"><ele>1971.5</ele><time>2026-03-08T14:37:59.000Z</time></trkpt>
<trkpt lat="42.089622" lon="23.619975"><ele>1971.5</ele><time>2026-03-08T14:38:00.000Z</time></trkpt>
<trkpt lat="42.089615" lon="23.619989"><ele>1971.5</ele><time>2026-03-08T14:38:01.000Z</time></trkpt>
<trkpt lat="42.089607" lon="23.620003"><ele>1971.1</ele><time>2026-03-08T14:38:02.000Z</time></trkpt>
<trkpt lat="42.089598" lon="23.620018"><ele>1971.1</ele><time>2026-03-08T14:38:03.000Z</time></trkpt>
<trkpt lat="42.08959" lon="23.620034"><ele>1971.1</ele><time>2026-03-08T14:38:04.000Z</time></trkpt>
<trkpt lat="42.089582" lon="23.62005"><ele>1971.1</ele><time>2026-03-08T14:38:05.000Z</time></trkpt>
<trkpt lat="42.089575" lon="23.620065"><ele>1971.1</ele><time>2026-03-08T14:38:06.000Z</time></trkpt>
<trkpt lat="42.089569" lon="23.620079"><ele>1970.7</ele><time>2026-03-08T14:38:07.000Z</time></trkpt>
<trkpt lat="42.089563" lon="23.620093"><ele>1970.7</ele><time>2026-03-08T14:38:08.000Z</time></trkpt>
<trkpt lat="42.089558" lon="23.620107"><ele>1970.7</ele><time>2026-03-08T14:38:09.000Z</time></trkpt>
<trkpt lat="42.089552" lon="23.62012"><ele>1970.7</ele><time>2026-03-08T14:38:10.000Z</time></trkpt>
<trkpt lat="42.089546" lon="23.620134"><ele>1970.7</ele><time>2026-03-08T14:38:11.000Z</time></trkpt>
<trkpt lat="42.08954" lon="23.620147"><ele>1970.6</ele><time>2026-03-08T14:38:12.000Z</time></trkpt>
<trkpt lat="42.089532" lon="23.620161"><ele>1970.6</ele><time>2026-03-08T14:38:13.000Z</time></trkpt>
<trkpt lat="42.089522" lon="23.620174"><ele>1970.6</ele><time>2026-03-08T14:38:14.000Z</time></trkpt>
<trkpt lat="42.089512" lon="23.620186"><ele>1970.6</ele><time>2026-03-08T14:38:15.000Z</time></trkpt>
<trkpt lat="42.089503" lon="23.620199"><ele>1970.6</ele><time>2026-03-08T14:38:16.000Z</time></trkpt>
<trkpt lat="42.089494" lon="23.620211"><ele>1970.2</ele><time>2026-03-08T14:38:17.000Z</time></trkpt>
<trkpt lat="42.089487" lon="23.620225"><ele>1970.2</ele><time>2026-03-08T14:38:18.000Z</time></trkpt>
<trkpt lat="42.08948" lon="23.620239"><ele>1970.2</ele><time>2026-03-08T14:38:19.000Z</time></trkpt>
<trkpt lat="42.089474" lon="23.620254"><ele>1970.2</ele><time>2026-03-08T14:38:20.000Z</time></trkpt>
<trkpt lat="42.089469" lon="23.620269"><ele>1970.2</ele><time>2026-03-08T14:38:21.000Z</time></trkpt>
<trkpt lat="42.089463" lon="23.620285"><ele>1969.7</ele><time>2026-03-08T14:38:22.000Z</time></trkpt>
<trkpt lat="42.089456" lon="23.620301"><ele>1969.7</ele><time>2026-03-08T14:38:23.000Z</time></trkpt>
<trkpt lat="42.08945" lon="23.620316"><ele>1969.7</ele><time>2026-03-08T14:38:24.000Z</time></trkpt>
<trkpt lat="42.089443" lon="23.620333"><ele>1969.7</ele><time>2026-03-08T14:38:25.000Z</time></trkpt>
<trkpt lat="42.089436" lon="23.620348"><ele>1969.7</ele><time>2026-03-08T14:38:26.000Z</time></trkpt>
<trkpt lat="42.089429" lon="23.620364"><ele>1969.4</ele><time>2026-03-08T14:38:27.000Z</time></trkpt>
<trkpt lat="42.089424" lon="23.620381"><ele>1969.4</ele><time>2026-03-08T14:38:28.000Z</time></trkpt>
<trkpt lat="42.089418" lon="23.620397"><ele>1969.4</ele><time>2026-03-08T14:38:29.000Z</time></trkpt>
<trkpt lat="42.089413" lon="23.620412"><ele>1969.4</ele><time>2026-03-08T14:38:30.000Z</time></trkpt>
<trkpt lat="42.089408" lon="23.620427"><ele>1969.4</ele><time>2026-03-08T14:38:31.000Z</time></trkpt>
<trkpt lat="42.089402" lon="23.620441"><ele>1968.8</ele><time>2026-03-08T14:38:32.000Z</time></trkpt>
<trkpt lat="42.089395" lon="23.620454"><ele>1968.8</ele><time>2026-03-08T14:38:33.000Z</time></trkpt>
<trkpt lat="42.089388" lon="23.620466"><ele>1968.8</ele><time>2026-03-08T14:38:34.000Z</time></trkpt>
<trkpt lat="42.08938" lon="23.620478"><ele>1968.8</ele><time>2026-03-08T14:38:35.000Z</time></trkpt>
<trkpt lat="42.089373" lon="23.62049"><ele>1968.8</ele><time>2026-03-08T14:38:36.000Z</time></trkpt>
<trkpt lat="42.089366" lon="23.620503"><ele>1968.1</ele><time>2026-03-08T14:38:37.000Z</time></trkpt>
<trkpt lat="42.08936" lon="23.620517"><ele>1968.1</ele><time>2026-03-08T14:38:38.000Z</time></trkpt>
<trkpt lat="42.089354" lon="23.620531"><ele>1968.1</ele><time>2026-03-08T14:38:39.000Z</time></trkpt>
<trkpt lat="42.089348" lon="23.620545"><ele>1968.1</ele><time>2026-03-08T14:38:40.000Z</time></trkpt>
<trkpt lat="42.089342" lon="23.620559"><ele>1968.1</ele><time>2026-03-08T14:38:41.000Z</time></trkpt>
<trkpt lat="42.089336" lon="23.620573"><ele>1967.8</ele><time>2026-03-08T14:38:42.000Z</time></trkpt>
<trkpt lat="42.08933" lon="23.620588"><ele>1967.8</ele><time>2026-03-08T14:38:43.000Z</time></trkpt>
<trkpt lat="42.089324" lon="23.620603"><ele>1967.8</ele><time>2026-03-08T14:38:44.000Z</time></trkpt>
<trkpt lat="42.089317" lon="23.620619"><ele>1967.8</ele><time>2026-03-08T14:38:45.000Z</time></trkpt>
<trkpt lat="42.089311" lon="23.620634"><ele>1967.8</ele><time>2026-03-08T14:38:46.000Z</time></trkpt>
<trkpt lat="42.089305" lon="23.620649"><ele>1967.3</ele><time>2026-03-08T14:38:47.000Z</time></trkpt>
<trkpt lat="42.0893" lon="23.620665"><ele>1967.3</ele><time>2026-03-08T14:38:48.000Z</time></trkpt>
<trkpt lat="42.089294" lon="23.620679"><ele>1967.3</ele><time>2026-03-08T14:38:49.000Z</time></trkpt>
<trkpt lat="42.08929" lon="23.620694"><ele>1967.3</ele><time>2026-03-08T14:38:50.000Z</time></trkpt>
<trkpt lat="42.089285" lon="23.62071"><ele>1967.3</ele><time>2026-03-08T14:38:51.000Z</time></trkpt>
<trkpt lat="42.08928" lon="23.620724"><ele>1966.9</ele><time>2026-03-08T14:38:52.000Z</time></trkpt>
<trkpt lat="42.089274" lon="23.620739"><ele>1966.9</ele><time>2026-03-08T14:38:53.000Z</time></trkpt>
<trkpt lat="42.089267" lon="23.620753"><ele>1966.9</ele><time>2026-03-08T14:38:54.000Z</time></trkpt>
<trkpt lat="42.089259" lon="23.620767"><ele>1966.9</ele><time>2026-03-08T14:38:55.000Z</time></trkpt>
<trkpt lat="42.08925" lon="23.620781"><ele>1966.9</ele><time>2026-03-08T14:38:56.000Z</time></trkpt>
<trkpt lat="42.089242" lon="23.620795"><ele>1966.7</ele><time>2026-03-08T14:38:57.000Z</time></trkpt>
<trkpt lat="42.089233" lon="23.620807"><ele>1966.7</ele><time>2026-03-08T14:38:58.000Z</time></trkpt>
<trkpt lat="42.089224" lon="23.620818"><ele>1966.7</ele><time>2026-03-08T14:38:59.000Z</time></trkpt>
<trkpt lat="42.089216" lon="23.620829"><ele>1966.7</ele><time>2026-03-08T14:39:00.000Z</time></trkpt>
<trkpt lat="42.089207" lon="23.620838"><ele>1966.7</ele><time>2026-03-08T14:39:01.000Z</time></trkpt>
<trkpt lat="42.089197" lon="23.620848"><ele>1966</ele><time>2026-03-08T14:39:02.000Z</time></trkpt>
<trkpt lat="42.089188" lon="23.620859"><ele>1966</ele><time>2026-03-08T14:39:03.000Z</time></trkpt>
<trkpt lat="42.089178" lon="23.62087"><ele>1966</ele><time>2026-03-08T14:39:04.000Z</time></trkpt>
<trkpt lat="42.089169" lon="23.620881"><ele>1966</ele><time>2026-03-08T14:39:05.000Z</time></trkpt>
<trkpt lat="42.089161" lon="23.620893"><ele>1966</ele><time>2026-03-08T14:39:06.000Z</time></trkpt>
<trkpt lat="42.089153" lon="23.620904"><ele>1965.1</ele><time>2026-03-08T14:39:07.000Z</time></trkpt>
<trkpt lat="42.089144" lon="23.620916"><ele>1965.1</ele><time>2026-03-08T14:39:08.000Z</time></trkpt>
<trkpt lat="42.089135" lon="23.620929"><ele>1965.1</ele><time>2026-03-08T14:39:09.000Z</time></trkpt>
<trkpt lat="42.089126" lon="23.620941"><ele>1965.1</ele><time>2026-03-08T14:39:10.000Z</time></trkpt>
<trkpt lat="42.089117" lon="23.620954"><ele>1965.1</ele><time>2026-03-08T14:39:11.000Z</time></trkpt>
<trkpt lat="42.089109" lon="23.620967"><ele>1964.2</ele><time>2026-03-08T14:39:12.000Z</time></trkpt>
<trkpt lat="42.089102" lon="23.620982"><ele>1964.2</ele><time>2026-03-08T14:39:13.000Z</time></trkpt>
<trkpt lat="42.089096" lon="23.620998"><ele>1964.2</ele><time>2026-03-08T14:39:14.000Z</time></trkpt>
<trkpt lat="42.089089" lon="23.621013"><ele>1964.2</ele><time>2026-03-08T14:39:15.000Z</time></trkpt>
<trkpt lat="42.089082" lon="23.621029"><ele>1964.2</ele><time>2026-03-08T14:39:16.000Z</time></trkpt>
<trkpt lat="42.089073" lon="23.621044"><ele>1963.9</ele><time>2026-03-08T14:39:17.000Z</time></trkpt>
<trkpt lat="42.089063" lon="23.621057"><ele>1963.9</ele><time>2026-03-08T14:39:18.000Z</time></trkpt>
<trkpt lat="42.089054" lon="23.62107"><ele>1963.9</ele><time>2026-03-08T14:39:19.000Z</time></trkpt>
<trkpt lat="42.089044" lon="23.621083"><ele>1963.9</ele><time>2026-03-08T14:39:20.000Z</time></trkpt>
<trkpt lat="42.089035" lon="23.621097"><ele>1963.9</ele><time>2026-03-08T14:39:21.000Z</time></trkpt>
<trkpt lat="42.089026" lon="23.62111"><ele>1963.3</ele><time>2026-03-08T14:39:22.000Z</time></trkpt>
<trkpt lat="42.089017" lon="23.621123"><ele>1963.3</ele><time>2026-03-08T14:39:23.000Z</time></trkpt>
<trkpt lat="42.089008" lon="23.621134"><ele>1963.3</ele><time>2026-03-08T14:39:24.000Z</time></trkpt>
<trkpt lat="42.088998" lon="23.621146"><ele>1963.3</ele><time>2026-03-08T14:39:25.000Z</time></trkpt>
<trkpt lat="42.088988" lon="23.621157"><ele>1963.3</ele><time>2026-03-08T14:39:26.000Z</time></trkpt>
<trkpt lat="42.088979" lon="23.621168"><ele>1962.9</ele><time>2026-03-08T14:39:27.000Z</time></trkpt>
<trkpt lat="42.088968" lon="23.62118"><ele>1962.9</ele><time>2026-03-08T14:39:28.000Z</time></trkpt>
<trkpt lat="42.088958" lon="23.621192"><ele>1962.9</ele><time>2026-03-08T14:39:29.000Z</time></trkpt>
<trkpt lat="42.088947" lon="23.621202"><ele>1962.9</ele><time>2026-03-08T14:39:30.000Z</time></trkpt>
<trkpt lat="42.088936" lon="23.621213"><ele>1962.9</ele><time>2026-03-08T14:39:31.000Z</time></trkpt>
<trkpt lat="42.088925" lon="23.621222"><ele>1962.7</ele><time>2026-03-08T14:39:32.000Z</time></trkpt>
<trkpt lat="42.088914" lon="23.621232"><ele>1962.7</ele><time>2026-03-08T14:39:33.000Z</time></trkpt>
<trkpt lat="42.088904" lon="23.621241"><ele>1962.7</ele><time>2026-03-08T14:39:34.000Z</time></trkpt>
<trkpt lat="42.088894" lon="23.621251"><ele>1962.7</ele><time>2026-03-08T14:39:35.000Z</time></trkpt>
<trkpt lat="42.088883" lon="23.62126"><ele>1962.7</ele><time>2026-03-08T14:39:36.000Z</time></trkpt>
<trkpt lat="42.088873" lon="23.62127"><ele>1962.2</ele><time>2026-03-08T14:39:37.000Z</time></trkpt>
<trkpt lat="42.088862" lon="23.62128"><ele>1962.2</ele><time>2026-03-08T14:39:38.000Z</time></trkpt>
<trkpt lat="42.08885" lon="23.621288"><ele>1962.2</ele><time>2026-03-08T14:39:39.000Z</time></trkpt>
<trkpt lat="42.088838" lon="23.621297"><ele>1962.2</ele><time>2026-03-08T14:39:40.000Z</time></trkpt>
<trkpt lat="42.088826" lon="23.621305"><ele>1962.2</ele><time>2026-03-08T14:39:41.000Z</time></trkpt>
<trkpt lat="42.088814" lon="23.621312"><ele>1961.5</ele><time>2026-03-08T14:39:42.000Z</time></trkpt>
<trkpt lat="42.088802" lon="23.621319"><ele>1961.5</ele><time>2026-03-08T14:39:43.000Z</time></trkpt>
<trkpt lat="42.08879" lon="23.621326"><ele>1961.5</ele><time>2026-03-08T14:39:44.000Z</time></trkpt>
<trkpt lat="42.088778" lon="23.621333"><ele>1961.5</ele><time>2026-03-08T14:39:45.000Z</time></trkpt>
<trkpt lat="42.088768" lon="23.621341"><ele>1961.5</ele><time>2026-03-08T14:39:46.000Z</time></trkpt>
<trkpt lat="42.088757" lon="23.621351"><ele>1961.1</ele><time>2026-03-08T14:39:47.000Z</time></trkpt>
<trkpt lat="42.088746" lon="23.62136"><ele>1961.1</ele><time>2026-03-08T14:39:48.000Z</time></trkpt>
<trkpt lat="42.088734" lon="23.621369"><ele>1961.1</ele><time>2026-03-08T14:39:49.000Z</time></trkpt>
<trkpt lat="42.088723" lon="23.621378"><ele>1961.1</ele><time>2026-03-08T14:39:50.000Z</time></trkpt>
<trkpt lat="42.088711" lon="23.621387"><ele>1961.1</ele><time>2026-03-08T14:39:51.000Z</time></trkpt>
<trkpt lat="42.088699" lon="23.621395"><ele>1960.5</ele><time>2026-03-08T14:39:52.000Z</time></trkpt>
<trkpt lat="42.088687" lon="23.621404"><ele>1960.5</ele><time>2026-03-08T14:39:53.000Z</time></trkpt>
<trkpt lat="42.088676" lon="23.621414"><ele>1960.5</ele><time>2026-03-08T14:39:54.000Z</time></trkpt>
<trkpt lat="42.088665" lon="23.621424"><ele>1960.5</ele><time>2026-03-08T14:39:55.000Z</time></trkpt>
<trkpt lat="42.088654" lon="23.621434"><ele>1960.5</ele><time>2026-03-08T14:39:56.000Z</time></trkpt>
<trkpt lat="42.088642" lon="23.621445"><ele>1959.9</ele><time>2026-03-08T14:39:57.000Z</time></trkpt>
<trkpt lat="42.088631" lon="23.621455"><ele>1959.9</ele><time>2026-03-08T14:39:58.000Z</time></trkpt>
<trkpt lat="42.088619" lon="23.621465"><ele>1959.9</ele><time>2026-03-08T14:39:59.000Z</time></trkpt>
<trkpt lat="42.088609" lon="23.621475"><ele>1959.9</ele><time>2026-03-08T14:40:00.000Z</time></trkpt>
<trkpt lat="42.088598" lon="23.621485"><ele>1959.9</ele><time>2026-03-08T14:40:01.000Z</time></trkpt>
<trkpt lat="42.088587" lon="23.621493"><ele>1959.7</ele><time>2026-03-08T14:40:02.000Z</time></trkpt>
<trkpt lat="42.088577" lon="23.6215"><ele>1959.7</ele><time>2026-03-08T14:40:03.000Z</time></trkpt>
<trkpt lat="42.088566" lon="23.621508"><ele>1959.7</ele><time>2026-03-08T14:40:04.000Z</time></trkpt>
<trkpt lat="42.088555" lon="23.621515"><ele>1959.7</ele><time>2026-03-08T14:40:05.000Z</time></trkpt>
<trkpt lat="42.088545" lon="23.621523"><ele>1959.7</ele><time>2026-03-08T14:40:06.000Z</time></trkpt>
<trkpt lat="42.088535" lon="23.621531"><ele>1959</ele><time>2026-03-08T14:40:07.000Z</time></trkpt>
<trkpt lat="42.088525" lon="23.62154"><ele>1959</ele><time>2026-03-08T14:40:08.000Z</time></trkpt>
<trkpt lat="42.088515" lon="23.621549"><ele>1959</ele><time>2026-03-08T14:40:09.000Z</time></trkpt>
<trkpt lat="42.088505" lon="23.621557"><ele>1959</ele><time>2026-03-08T14:40:10.000Z</time></trkpt>
<trkpt lat="42.088494" lon="23.621565"><ele>1959</ele><time>2026-03-08T14:40:11.000Z</time></trkpt>
<trkpt lat="42.088483" lon="23.621572"><ele>1958.2</ele><time>2026-03-08T14:40:12.000Z</time></trkpt>
<trkpt lat="42.088472" lon="23.621579"><ele>1958.2</ele><time>2026-03-08T14:40:13.000Z</time></trkpt>
<trkpt lat="42.088459" lon="23.621585"><ele>1958.2</ele><time>2026-03-08T14:40:14.000Z</time></trkpt>
<trkpt lat="42.088447" lon="23.621591"><ele>1958.2</ele><time>2026-03-08T14:40:15.000Z</time></trkpt>
<trkpt lat="42.088433" lon="23.621594"><ele>1958.2</ele><time>2026-03-08T14:40:16.000Z</time></trkpt>
<trkpt lat="42.088419" lon="23.621597"><ele>1957.8</ele><time>2026-03-08T14:40:17.000Z</time></trkpt>
<trkpt lat="42.088405" lon="23.6216"><ele>1957.8</ele><time>2026-03-08T14:40:18.000Z</time></trkpt>
<trkpt lat="42.088391" lon="23.621603"><ele>1957.8</ele><time>2026-03-08T14:40:19.000Z</time></trkpt>
<trkpt lat="42.088378" lon="23.621608"><ele>1957.8</ele><time>2026-03-08T14:40:20.000Z</time></trkpt>
<trkpt lat="42.088365" lon="23.621615"><ele>1957.8</ele><time>2026-03-08T14:40:21.000Z</time></trkpt>
<trkpt lat="42.088353" lon="23.621623"><ele>1957</ele><time>2026-03-08T14:40:22.000Z</time></trkpt>
<trkpt lat="42.088341" lon="23.62163"><ele>1957</ele><time>2026-03-08T14:40:23.000Z</time></trkpt>
<trkpt lat="42.088329" lon="23.621637"><ele>1957</ele><time>2026-03-08T14:40:24.000Z</time></trkpt>
<trkpt lat="42.088317" lon="23.621644"><ele>1957</ele><time>2026-03-08T14:40:25.000Z</time></trkpt>
<trkpt lat="42.088305" lon="23.62165"><ele>1957</ele><time>2026-03-08T14:40:26.000Z</time></trkpt>
<trkpt lat="42.088294" lon="23.621656"><ele>1956.2</ele><time>2026-03-08T14:40:27.000Z</time></trkpt>
<trkpt lat="42.088283" lon="23.621662"><ele>1956.2</ele><time>2026-03-08T14:40:28.000Z</time></trkpt>
<trkpt lat="42.088271" lon="23.621668"><ele>1956.2</ele><time>2026-03-08T14:40:29.000Z</time></trkpt>
<trkpt lat="42.08826" lon="23.621674"><ele>1956.2</ele><time>2026-03-08T14:40:30.000Z</time></trkpt>
<trkpt lat="42.088248" lon="23.62168"><ele>1956.2</ele><time>2026-03-08T14:40:31.000Z</time></trkpt>
<trkpt lat="42.088237" lon="23.621686"><ele>1955.8</ele><time>2026-03-08T14:40:32.000Z</time></trkpt>
<trkpt lat="42.088225" lon="23.621692"><ele>1955.8</ele><time>2026-03-08T14:40:33.000Z</time></trkpt>
<trkpt lat="42.088213" lon="23.621698"><ele>1955.8</ele><time>2026-03-08T14:40:34.000Z</time></trkpt>
<trkpt lat="42.088201" lon="23.621703"><ele>1955.8</ele><time>2026-03-08T14:40:35.000Z</time></trkpt>
<trkpt lat="42.088188" lon="23.621709"><ele>1955.8</ele><time>2026-03-08T14:40:36.000Z</time></trkpt>
<trkpt lat="42.088175" lon="23.621714"><ele>1955.2</ele><time>2026-03-08T14:40:37.000Z</time></trkpt>
<trkpt lat="42.088162" lon="23.621719"><ele>1955.2</ele><time>2026-03-08T14:40:38.000Z</time></trkpt>
<trkpt lat="42.088148" lon="23.621724"><ele>1955.2</ele><time>2026-03-08T14:40:39.000Z</time></trkpt>
<trkpt lat="42.088135" lon="23.62173"><ele>1955.2</ele><time>2026-03-08T14:40:40.000Z</time></trkpt>
<trkpt lat="42.088122" lon="23.621735"><ele>1955.2</ele><time>2026-03-08T14:40:41.000Z</time></trkpt>
<trkpt lat="42.08811" lon="23.621741"><ele>1954.5</ele><time>2026-03-08T14:40:42.000Z</time></trkpt>
<trkpt lat="42.088098" lon="23.621748"><ele>1954.5</ele><time>2026-03-08T14:40:43.000Z</time></trkpt>
<trkpt lat="42.088087" lon="23.621756"><ele>1954.5</ele><time>2026-03-08T14:40:44.000Z</time></trkpt>
<trkpt lat="42.088077" lon="23.621764"><ele>1954.5</ele><time>2026-03-08T14:40:45.000Z</time></trkpt>
<trkpt lat="42.088067" lon="23.621772"><ele>1954.5</ele><time>2026-03-08T14:40:46.000Z</time></trkpt>
<trkpt lat="42.088057" lon="23.621782"><ele>1954.1</ele><time>2026-03-08T14:40:47.000Z</time></trkpt>
<trkpt lat="42.088048" lon="23.621791"><ele>1954.1</ele><time>2026-03-08T14:40:48.000Z</time></trkpt>
<trkpt lat="42.088038" lon="23.621801"><ele>1954.1</ele><time>2026-03-08T14:40:49.000Z</time></trkpt>
<trkpt lat="42.088029" lon="23.621813"><ele>1954.1</ele><time>2026-03-08T14:40:50.000Z</time></trkpt>
<trkpt lat="42.08802" lon="23.621824"><ele>1954.1</ele><time>2026-03-08T14:40:51.000Z</time></trkpt>
<trkpt lat="42.08801" lon="23.621836"><ele>1953.3</ele><time>2026-03-08T14:40:52.000Z</time></trkpt>
<trkpt lat="42.088001" lon="23.621849"><ele>1953.3</ele><time>2026-03-08T14:40:53.000Z</time></trkpt>
<trkpt lat="42.087994" lon="23.621862"><ele>1953.3</ele><time>2026-03-08T14:40:54.000Z</time></trkpt>
<trkpt lat="42.087988" lon="23.621876"><ele>1953.3</ele><time>2026-03-08T14:40:55.000Z</time></trkpt>
<trkpt lat="42.087984" lon="23.621891"><ele>1953.3</ele><time>2026-03-08T14:40:56.000Z</time></trkpt>
<trkpt lat="42.08798" lon="23.621906"><ele>1952.5</ele><time>2026-03-08T14:40:57.000Z</time></trkpt>
<trkpt lat="42.087978" lon="23.621922"><ele>1952.5</ele><time>2026-03-08T14:40:58.000Z</time></trkpt>
<trkpt lat="42.087976" lon="23.621938"><ele>1952.5</ele><time>2026-03-08T14:40:59.000Z</time></trkpt>
<trkpt lat="42.087974" lon="23.621954"><ele>1952.5</ele><time>2026-03-08T14:41:00.000Z</time></trkpt>
<trkpt lat="42.087972" lon="23.62197"><ele>1952.5</ele><time>2026-03-08T14:41:01.000Z</time></trkpt>
<trkpt lat="42.087971" lon="23.621987"><ele>1952</ele><time>2026-03-08T14:41:02.000Z</time></trkpt>
<trkpt lat="42.087971" lon="23.622003"><ele>1952</ele><time>2026-03-08T14:41:03.000Z</time></trkpt>
<trkpt lat="42.087971" lon="23.622019"><ele>1952</ele><time>2026-03-08T14:41:04.000Z</time></trkpt>
<trkpt lat="42.087971" lon="23.622034"><ele>1952</ele><time>2026-03-08T14:41:05.000Z</time></trkpt>
<trkpt lat="42.087971" lon="23.622049"><ele>1952</ele><time>2026-03-08T14:41:06.000Z</time></trkpt>
<trkpt lat="42.087973" lon="23.622064"><ele>1951.1</ele><time>2026-03-08T14:41:07.000Z</time></trkpt>
<trkpt lat="42.087975" lon="23.622079"><ele>1951.1</ele><time>2026-03-08T14:41:08.000Z</time></trkpt>
<trkpt lat="42.087976" lon="23.622094"><ele>1951.1</ele><time>2026-03-08T14:41:09.000Z</time></trkpt>
<trkpt lat="42.087978" lon="23.622109"><ele>1951.1</ele><time>2026-03-08T14:41:10.000Z</time></trkpt>
<trkpt lat="42.087979" lon="23.622122"><ele>1951.1</ele><time>2026-03-08T14:41:11.000Z</time></trkpt>
<trkpt lat="42.08798" lon="23.622136"><ele>1950.2</ele><time>2026-03-08T14:41:12.000Z</time></trkpt>
<trkpt lat="42.08798" lon="23.622149"><ele>1950.2</ele><time>2026-03-08T14:41:13.000Z</time></trkpt>
<trkpt lat="42.08798" lon="23.622163"><ele>1950.2</ele><time>2026-03-08T14:41:14.000Z</time></trkpt>
<trkpt lat="42.087981" lon="23.622178"><ele>1950.2</ele><time>2026-03-08T14:41:15.000Z</time></trkpt>
<trkpt lat="42.087982" lon="23.622193"><ele>1950.2</ele><time>2026-03-08T14:41:16.000Z</time></trkpt>
<trkpt lat="42.087983" lon="23.62221"><ele>1949.8</ele><time>2026-03-08T14:41:17.000Z</time></trkpt>
<trkpt lat="42.087985" lon="23.622226"><ele>1949.8</ele><time>2026-03-08T14:41:18.000Z</time></trkpt>
<trkpt lat="42.087987" lon="23.622241"><ele>1949.8</ele><time>2026-03-08T14:41:19.000Z</time></trkpt>
<trkpt lat="42.087989" lon="23.622257"><ele>1949.8</ele><time>2026-03-08T14:41:20.000Z</time></trkpt>
<trkpt lat="42.087991" lon="23.622273"><ele>1949.8</ele><time>2026-03-08T14:41:21.000Z</time></trkpt>
<trkpt lat="42.087993" lon="23.622288"><ele>1949.1</ele><time>2026-03-08T14:41:22.000Z</time></trkpt>
<trkpt lat="42.087994" lon="23.622305"><ele>1949.1</ele><time>2026-03-08T14:41:23.000Z</time></trkpt>
<trkpt lat="42.087995" lon="23.622321"><ele>1949.1</ele><time>2026-03-08T14:41:24.000Z</time></trkpt>
<trkpt lat="42.087995" lon="23.622338"><ele>1949.1</ele><time>2026-03-08T14:41:25.000Z</time></trkpt>
<trkpt lat="42.087996" lon="23.622354"><ele>1949.1</ele><time>2026-03-08T14:41:26.000Z</time></trkpt>
<trkpt lat="42.087996" lon="23.622371"><ele>1948.4</ele><time>2026-03-08T14:41:27.000Z</time></trkpt>
<trkpt lat="42.087996" lon="23.622388"><ele>1948.4</ele><time>2026-03-08T14:41:28.000Z</time></trkpt>
<trkpt lat="42.087995" lon="23.622406"><ele>1948.4</ele><time>2026-03-08T14:41:29.000Z</time></trkpt>
<trkpt lat="42.087994" lon="23.622423"><ele>1948.4</ele><time>2026-03-08T14:41:30.000Z</time></trkpt>
<trkpt lat="42.087993" lon="23.62244"><ele>1948.4</ele><time>2026-03-08T14:41:31.000Z</time></trkpt>
<trkpt lat="42.087991" lon="23.622457"><ele>1948</ele><time>2026-03-08T14:41:32.000Z</time></trkpt>
<trkpt lat="42.087989" lon="23.622474"><ele>1948</ele><time>2026-03-08T14:41:33.000Z</time></trkpt>
<trkpt lat="42.087987" lon="23.622491"><ele>1948</ele><time>2026-03-08T14:41:34.000Z</time></trkpt>
<trkpt lat="42.087983" lon="23.622507"><ele>1948</ele><time>2026-03-08T14:41:35.000Z</time></trkpt>
<trkpt lat="42.087979" lon="23.622522"><ele>1948</ele><time>2026-03-08T14:41:36.000Z</time></trkpt>
<trkpt lat="42.087974" lon="23.622538"><ele>1947.3</ele><time>2026-03-08T14:41:37.000Z</time></trkpt>
<trkpt lat="42.087967" lon="23.622553"><ele>1947.3</ele><time>2026-03-08T14:41:38.000Z</time></trkpt>
<trkpt lat="42.087959" lon="23.622566"><ele>1947.3</ele><time>2026-03-08T14:41:39.000Z</time></trkpt>
<trkpt lat="42.087949" lon="23.622579"><ele>1947.3</ele><time>2026-03-08T14:41:40.000Z</time></trkpt>
<trkpt lat="42.087938" lon="23.622591"><ele>1947.3</ele><time>2026-03-08T14:41:41.000Z</time></trkpt>
<trkpt lat="42.087925" lon="23.622601"><ele>1946.6</ele><time>2026-03-08T14:41:42.000Z</time></trkpt>
<trkpt lat="42.08791" lon="23.622608"><ele>1946.6</ele><time>2026-03-08T14:41:43.000Z</time></trkpt>
<trkpt lat="42.087895" lon="23.622613"><ele>1946.6</ele><time>2026-03-08T14:41:44.000Z</time></trkpt>
<trkpt lat="42.08788" lon="23.622616"><ele>1946.6</ele><time>2026-03-08T14:41:45.000Z</time></trkpt>
<trkpt lat="42.087864" lon="23.622617"><ele>1946.6</ele><time>2026-03-08T14:41:46.000Z</time></trkpt>
<trkpt lat="42.087849" lon="23.622617"><ele>1946.2</ele><time>2026-03-08T14:41:47.000Z</time></trkpt>
<trkpt lat="42.087834" lon="23.622615"><ele>1946.2</ele><time>2026-03-08T14:41:48.000Z</time></trkpt>
<trkpt lat="42.087818" lon="23.622612"><ele>1946.2</ele><time>2026-03-08T14:41:49.000Z</time></trkpt>
<trkpt lat="42.087804" lon="23.622607"><ele>1946.2</ele><time>2026-03-08T14:41:50.000Z</time></trkpt>
<trkpt lat="42.087791" lon="23.6226"><ele>1946.2</ele><time>2026-03-08T14:41:51.000Z</time></trkpt>
<trkpt lat="42.087778" lon="23.62259"><ele>1945.1</ele><time>2026-03-08T14:41:52.000Z</time></trkpt>
<trkpt lat="42.087766" lon="23.622578"><ele>1945.1</ele><time>2026-03-08T14:41:53.000Z</time></trkpt>
<trkpt lat="42.087755" lon="23.622564"><ele>1945.1</ele><time>2026-03-08T14:41:54.000Z</time></trkpt>
<trkpt lat="42.087743" lon="23.62255"><ele>1945.1</ele><time>2026-03-08T14:41:55.000Z</time></trkpt>
<trkpt lat="42.087732" lon="23.622538"><ele>1945.1</ele><time>2026-03-08T14:41:56.000Z</time></trkpt>
<trkpt lat="42.087722" lon="23.622525"><ele>1943.9</ele><time>2026-03-08T14:41:57.000Z</time></trkpt>
<trkpt lat="42.087712" lon="23.622511"><ele>1943.9</ele><time>2026-03-08T14:41:58.000Z</time></trkpt>
<trkpt lat="42.087704" lon="23.622499"><ele>1943.9</ele><time>2026-03-08T14:41:59.000Z</time></trkpt>
<trkpt lat="42.087696" lon="23.622486"><ele>1943.9</ele><time>2026-03-08T14:42:00.000Z</time></trkpt>
<trkpt lat="42.087689" lon="23.622473"><ele>1943.9</ele><time>2026-03-08T14:42:01.000Z</time></trkpt>
<trkpt lat="42.087682" lon="23.622462"><ele>1943.4</ele><time>2026-03-08T14:42:02.000Z</time></trkpt>
<trkpt lat="42.087674" lon="23.62245"><ele>1943.4</ele><time>2026-03-08T14:42:03.000Z</time></trkpt>
<trkpt lat="42.087666" lon="23.622439"><ele>1943.4</ele><time>2026-03-08T14:42:04.000Z</time></trkpt>
<trkpt lat="42.087656" lon="23.622426"><ele>1943.4</ele><time>2026-03-08T14:42:05.000Z</time></trkpt>
<trkpt lat="42.087647" lon="23.622414"><ele>1943.4</ele><time>2026-03-08T14:42:06.000Z</time></trkpt>
<trkpt lat="42.087638" lon="23.622401"><ele>1942.8</ele><time>2026-03-08T14:42:07.000Z</time></trkpt>
<trkpt lat="42.087629" lon="23.622388"><ele>1942.8</ele><time>2026-03-08T14:42:08.000Z</time></trkpt>
<trkpt lat="42.087621" lon="23.622376"><ele>1942.8</ele><time>2026-03-08T14:42:09.000Z</time></trkpt>
<trkpt lat="42.087612" lon="23.622365"><ele>1942.8</ele><time>2026-03-08T14:42:10.000Z</time></trkpt>
<trkpt lat="42.087604" lon="23.622353"><ele>1942.8</ele><time>2026-03-08T14:42:11.000Z</time></trkpt>
<trkpt lat="42.087596" lon="23.622342"><ele>1942.4</ele><time>2026-03-08T14:42:12.000Z</time></trkpt>
<trkpt lat="42.087586" lon="23.622332"><ele>1942.4</ele><time>2026-03-08T14:42:13.000Z</time></trkpt>
<trkpt lat="42.087576" lon="23.622321"><ele>1942.4</ele><time>2026-03-08T14:42:14.000Z</time></trkpt>
<trkpt lat="42.087567" lon="23.62231"><ele>1942.4</ele><time>2026-03-08T14:42:15.000Z</time></trkpt>
<trkpt lat="42.087557" lon="23.6223"><ele>1942.4</ele><time>2026-03-08T14:42:16.000Z</time></trkpt>
<trkpt lat="42.087549" lon="23.622292"><ele>1942.1</ele><time>2026-03-08T14:42:17.000Z</time></trkpt>
<trkpt lat="42.087542" lon="23.622286"><ele>1942.1</ele><time>2026-03-08T14:42:18.000Z</time></trkpt>
<trkpt lat="42.087535" lon="23.622281"><ele>1942.1</ele><time>2026-03-08T14:42:19.000Z</time></trkpt>
<trkpt lat="42.08753" lon="23.622276"><ele>1942.1</ele><time>2026-03-08T14:42:20.000Z</time></trkpt>
<trkpt lat="42.087524" lon="23.622272"><ele>1942.1</ele><time>2026-03-08T14:42:21.000Z</time></trkpt>
<trkpt lat="42.087519" lon="23.622266"><ele>1941.6</ele><time>2026-03-08T14:42:22.000Z</time></trkpt>
<trkpt lat="42.087514" lon="23.62226"><ele>1941.6</ele><time>2026-03-08T14:42:23.000Z</time></trkpt>
<trkpt lat="42.087509" lon="23.622252"><ele>1941.6</ele><time>2026-03-08T14:42:24.000Z</time></trkpt>
<trkpt lat="42.087504" lon="23.622244"><ele>1941.6</ele><time>2026-03-08T14:42:25.000Z</time></trkpt>
<trkpt lat="42.087498" lon="23.622235"><ele>1941.6</ele><time>2026-03-08T14:42:26.000Z</time></trkpt>
<trkpt lat="42.087492" lon="23.622225"><ele>1941.1</ele><time>2026-03-08T14:42:27.000Z</time></trkpt>
<trkpt lat="42.087485" lon="23.622216"><ele>1941.1</ele><time>2026-03-08T14:42:28.000Z</time></trkpt>
<trkpt lat="42.087479" lon="23.622207"><ele>1941.1</ele><time>2026-03-08T14:42:29.000Z</time></trkpt>
<trkpt lat="42.087473" lon="23.622199"><ele>1941.1</ele><time>2026-03-08T14:42:30.000Z</time></trkpt>
<trkpt lat="42.087469" lon="23.622193"><ele>1941.1</ele><time>2026-03-08T14:42:31.000Z</time></trkpt>
<trkpt lat="42.087465" lon="23.622189"><ele>1940.9</ele><time>2026-03-08T14:42:32.000Z</time></trkpt>
<trkpt lat="42.087461" lon="23.622184"><ele>1940.9</ele><time>2026-03-08T14:42:33.000Z</time></trkpt>
<trkpt lat="42.087458" lon="23.62218"><ele>1940.9</ele><time>2026-03-08T14:42:34.000Z</time></trkpt>
<trkpt lat="42.087454" lon="23.622177"><ele>1940.9</ele><time>2026-03-08T14:42:35.000Z</time></trkpt>
<trkpt lat="42.08745" lon="23.622173"><ele>1940.9</ele><time>2026-03-08T14:42:36.000Z</time></trkpt>
<trkpt lat="42.087445" lon="23.622169"><ele>1940.6</ele><time>2026-03-08T14:42:37.000Z</time></trkpt>
<trkpt lat="42.087439" lon="23.622165"><ele>1940.6</ele><time>2026-03-08T14:42:38.000Z</time></trkpt>
<trkpt lat="42.087432" lon="23.622157"><ele>1940.6</ele><time>2026-03-08T14:42:39.000Z</time></trkpt>
<trkpt lat="42.087424" lon="23.622148"><ele>1940.6</ele><time>2026-03-08T14:42:40.000Z</time></trkpt>
<trkpt lat="42.087414" lon="23.622137"><ele>1940.6</ele><time>2026-03-08T14:42:41.000Z</time></trkpt>
<trkpt lat="42.087405" lon="23.622126"><ele>1940.5</ele><time>2026-03-08T14:42:42.000Z</time></trkpt>
<trkpt lat="42.087395" lon="23.622114"><ele>1940.5</ele><time>2026-03-08T14:42:43.000Z</time></trkpt>
<trkpt lat="42.087385" lon="23.622103"><ele>1940.5</ele><time>2026-03-08T14:42:44.000Z</time></trkpt>
<trkpt lat="42.087375" lon="23.622093"><ele>1940.5</ele><time>2026-03-08T14:42:45.000Z</time></trkpt>
<trkpt lat="42.087366" lon="23.622083"><ele>1940.5</ele><time>2026-03-08T14:42:46.000Z</time></trkpt>
<trkpt lat="42.087357" lon="23.622072"><ele>1940.5</ele><time>2026-03-08T14:42:47.000Z</time></trkpt>
<trkpt lat="42.087347" lon="23.622061"><ele>1940.5</ele><time>2026-03-08T14:42:48.000Z</time></trkpt>
<trkpt lat="42.087338" lon="23.62205"><ele>1940.5</ele><time>2026-03-08T14:42:49.000Z</time></trkpt>
<trkpt lat="42.087329" lon="23.62204"><ele>1940.5</ele><time>2026-03-08T14:42:50.000Z</time></trkpt>
<trkpt lat="42.08732" lon="23.622031"><ele>1940.5</ele><time>2026-03-08T14:42:51.000Z</time></trkpt>
<trkpt lat="42.08731" lon="23.622023"><ele>1940.4</ele><time>2026-03-08T14:42:52.000Z</time></trkpt>
<trkpt lat="42.0873" lon="23.622016"><ele>1940.4</ele><time>2026-03-08T14:42:53.000Z</time></trkpt>
<trkpt lat="42.08729" lon="23.622008"><ele>1940.4</ele><time>2026-03-08T14:42:54.000Z</time></trkpt>
<trkpt lat="42.08728" lon="23.622"><ele>1940.4</ele><time>2026-03-08T14:42:55.000Z</time></trkpt>
<trkpt lat="42.08727" lon="23.621992"><ele>1940.4</ele><time>2026-03-08T14:42:56.000Z</time></trkpt>
<trkpt lat="42.087261" lon="23.621983"><ele>1940.4</ele><time>2026-03-08T14:42:57.000Z</time></trkpt>
<trkpt lat="42.087252" lon="23.621974"><ele>1940.4</ele><time>2026-03-08T14:42:58.000Z</time></trkpt>
<trkpt lat="42.087244" lon="23.621966"><ele>1940.4</ele><time>2026-03-08T14:42:59.000Z</time></trkpt>
<trkpt lat="42.087236" lon="23.621959"><ele>1940.4</ele><time>2026-03-08T14:43:00.000Z</time></trkpt>
<trkpt lat="42.087227" lon="23.621952"><ele>1940.4</ele><time>2026-03-08T14:43:01.000Z</time></trkpt>
<trkpt lat="42.087218" lon="23.621944"><ele>1940.3</ele><time>2026-03-08T14:43:02.000Z</time></trkpt>
<trkpt lat="42.087208" lon="23.621936"><ele>1940.3</ele><time>2026-03-08T14:43:03.000Z</time></trkpt>
<trkpt lat="42.087198" lon="23.621928"><ele>1940.3</ele><time>2026-03-08T14:43:04.000Z</time></trkpt>
<trkpt lat="42.087188" lon="23.621919"><ele>1940.3</ele><time>2026-03-08T14:43:05.000Z</time></trkpt>
<trkpt lat="42.087178" lon="23.621909"><ele>1940.3</ele><time>2026-03-08T14:43:06.000Z</time></trkpt>
<trkpt lat="42.087168" lon="23.6219"><ele>1940.2</ele><time>2026-03-08T14:43:07.000Z</time></trkpt>
<trkpt lat="42.087158" lon="23.621893"><ele>1940.2</ele><time>2026-03-08T14:43:08.000Z</time></trkpt>
<trkpt lat="42.087148" lon="23.621887"><ele>1940.2</ele><time>2026-03-08T14:43:09.000Z</time></trkpt>
<trkpt lat="42.087137" lon="23.621883"><ele>1940.2</ele><time>2026-03-08T14:43:10.000Z</time></trkpt>
<trkpt lat="42.087125" lon="23.621879"><ele>1940.2</ele><time>2026-03-08T14:43:11.000Z</time></trkpt>
<trkpt lat="42.087112" lon="23.621874"><ele>1940</ele><time>2026-03-08T14:43:12.000Z</time></trkpt>
<trkpt lat="42.087099" lon="23.621868"><ele>1940</ele><time>2026-03-08T14:43:13.000Z</time></trkpt>
<trkpt lat="42.087086" lon="23.621861"><ele>1940</ele><time>2026-03-08T14:43:14.000Z</time></trkpt>
<trkpt lat="42.087072" lon="23.621852"><ele>1940</ele><time>2026-03-08T14:43:15.000Z</time></trkpt>
<trkpt lat="42.087059" lon="23.621843"><ele>1940</ele><time>2026-03-08T14:43:16.000Z</time></trkpt>
<trkpt lat="42.087046" lon="23.621835"><ele>1939.9</ele><time>2026-03-08T14:43:17.000Z</time></trkpt>
<trkpt lat="42.087034" lon="23.621828"><ele>1939.9</ele><time>2026-03-08T14:43:18.000Z</time></trkpt>
<trkpt lat="42.087023" lon="23.621822"><ele>1939.9</ele><time>2026-03-08T14:43:19.000Z</time></trkpt>
<trkpt lat="42.087012" lon="23.621816"><ele>1939.9</ele><time>2026-03-08T14:43:20.000Z</time></trkpt>
<trkpt lat="42.087003" lon="23.621808"><ele>1939.9</ele><time>2026-03-08T14:43:21.000Z</time></trkpt>
<trkpt lat="42.086992" lon="23.621802"><ele>1939.7</ele><time>2026-03-08T14:43:22.000Z</time></trkpt>
<trkpt lat="42.086982" lon="23.621795"><ele>1939.7</ele><time>2026-03-08T14:43:23.000Z</time></trkpt>
<trkpt lat="42.08697" lon="23.621787"><ele>1939.7</ele><time>2026-03-08T14:43:24.000Z</time></trkpt>
<trkpt lat="42.086959" lon="23.62178"><ele>1939.7</ele><time>2026-03-08T14:43:25.000Z</time></trkpt>
<trkpt lat="42.086947" lon="23.621775"><ele>1939.7</ele><time>2026-03-08T14:43:26.000Z</time></trkpt>
<trkpt lat="42.086935" lon="23.62177"><ele>1939.6</ele><time>2026-03-08T14:43:27.000Z</time></trkpt>
<trkpt lat="42.086923" lon="23.621765"><ele>1939.6</ele><time>2026-03-08T14:43:28.000Z</time></trkpt>
<trkpt lat="42.08691" lon="23.62176"><ele>1939.6</ele><time>2026-03-08T14:43:29.000Z</time></trkpt>
<trkpt lat="42.086897" lon="23.621756"><ele>1939.6</ele><time>2026-03-08T14:43:30.000Z</time></trkpt>
<trkpt lat="42.086884" lon="23.621752"><ele>1939.6</ele><time>2026-03-08T14:43:31.000Z</time></trkpt>
<trkpt lat="42.086872" lon="23.621748"><ele>1939.3</ele><time>2026-03-08T14:43:32.000Z</time></trkpt>
<trkpt lat="42.08686" lon="23.621745"><ele>1939.3</ele><time>2026-03-08T14:43:33.000Z</time></trkpt>
<trkpt lat="42.08685" lon="23.621744"><ele>1939.3</ele><time>2026-03-08T14:43:34.000Z</time></trkpt>
<trkpt lat="42.086839" lon="23.621742"><ele>1939.3</ele><time>2026-03-08T14:43:35.000Z</time></trkpt>
<trkpt lat="42.086829" lon="23.621741"><ele>1939.3</ele><time>2026-03-08T14:43:36.000Z</time></trkpt>
<trkpt lat="42.086819" lon="23.62174"><ele>1939.1</ele><time>2026-03-08T14:43:37.000Z</time></trkpt>
<trkpt lat="42.086808" lon="23.621738"><ele>1939.1</ele><time>2026-03-08T14:43:38.000Z</time></trkpt>
<trkpt lat="42.086796" lon="23.621736"><ele>1939.1</ele><time>2026-03-08T14:43:39.000Z</time></trkpt>
<trkpt lat="42.086783" lon="23.621733"><ele>1939.1</ele><time>2026-03-08T14:43:40.000Z</time></trkpt>
<trkpt lat="42.08677" lon="23.621731"><ele>1939.1</ele><time>2026-03-08T14:43:41.000Z</time></trkpt>
<trkpt lat="42.086757" lon="23.621729"><ele>1938.9</ele><time>2026-03-08T14:43:42.000Z</time></trkpt>
<trkpt lat="42.086747" lon="23.621725"><ele>1938.9</ele><time>2026-03-08T14:43:43.000Z</time></trkpt>
<trkpt lat="42.086736" lon="23.621723"><ele>1938.9</ele><time>2026-03-08T14:43:44.000Z</time></trkpt>
<trkpt lat="42.086726" lon="23.621721"><ele>1938.9</ele><time>2026-03-08T14:43:45.000Z</time></trkpt>
<trkpt lat="42.086717" lon="23.621719"><ele>1938.9</ele><time>2026-03-08T14:43:46.000Z</time></trkpt>
<trkpt lat="42.086706" lon="23.621717"><ele>1938.8</ele><time>2026-03-08T14:43:47.000Z</time></trkpt>
<trkpt lat="42.086695" lon="23.621715"><ele>1938.8</ele><time>2026-03-08T14:43:48.000Z</time></trkpt>
<trkpt lat="42.086685" lon="23.621714"><ele>1938.8</ele><time>2026-03-08T14:43:49.000Z</time></trkpt>
<trkpt lat="42.086676" lon="23.621713"><ele>1938.8</ele><time>2026-03-08T14:43:50.000Z</time></trkpt>
<trkpt lat="42.086667" lon="23.621712"><ele>1938.8</ele><time>2026-03-08T14:43:51.000Z</time></trkpt>
<trkpt lat="42.086659" lon="23.621712"><ele>1938.6</ele><time>2026-03-08T14:43:52.000Z</time></trkpt>
<trkpt lat="42.086651" lon="23.621714"><ele>1938.6</ele><time>2026-03-08T14:43:53.000Z</time></trkpt>
<trkpt lat="42.086641" lon="23.621715"><ele>1938.6</ele><time>2026-03-08T14:43:54.000Z</time></trkpt>
<trkpt lat="42.086629" lon="23.621717"><ele>1938.6</ele><time>2026-03-08T14:43:55.000Z</time></trkpt>
<trkpt lat="42.086617" lon="23.621719"><ele>1938.6</ele><time>2026-03-08T14:43:56.000Z</time></trkpt>
<trkpt lat="42.086604" lon="23.621722"><ele>1938.4</ele><time>2026-03-08T14:43:57.000Z</time></trkpt>
<trkpt lat="42.086592" lon="23.621725"><ele>1938.4</ele><time>2026-03-08T14:43:58.000Z</time></trkpt>
<trkpt lat="42.08658" lon="23.621727"><ele>1938.4</ele><time>2026-03-08T14:43:59.000Z</time></trkpt>
<trkpt lat="42.086569" lon="23.62173"><ele>1938.4</ele><time>2026-03-08T14:44:00.000Z</time></trkpt>
<trkpt lat="42.086558" lon="23.621733"><ele>1938.4</ele><time>2026-03-08T14:44:01.000Z</time></trkpt>
<trkpt lat="42.086546" lon="23.621736"><ele>1938.2</ele><time>2026-03-08T14:44:02.000Z</time></trkpt>
<trkpt lat="42.086533" lon="23.621739"><ele>1938.2</ele><time>2026-03-08T14:44:03.000Z</time></trkpt>
<trkpt lat="42.086519" lon="23.621744"><ele>1938.2</ele><time>2026-03-08T14:44:04.000Z</time></trkpt>
<trkpt lat="42.086504" lon="23.621748"><ele>1938.2</ele><time>2026-03-08T14:44:05.000Z</time></trkpt>
<trkpt lat="42.086489" lon="23.621753"><ele>1938.2</ele><time>2026-03-08T14:44:06.000Z</time></trkpt>
<trkpt lat="42.086476" lon="23.621757"><ele>1937.8</ele><time>2026-03-08T14:44:07.000Z</time></trkpt>
<trkpt lat="42.086462" lon="23.621762"><ele>1937.8</ele><time>2026-03-08T14:44:08.000Z</time></trkpt>
<trkpt lat="42.08645" lon="23.621766"><ele>1937.8</ele><time>2026-03-08T14:44:09.000Z</time></trkpt>
<trkpt lat="42.086439" lon="23.621771"><ele>1937.8</ele><time>2026-03-08T14:44:10.000Z</time></trkpt>
<trkpt lat="42.086428" lon="23.621776"><ele>1937.8</ele><time>2026-03-08T14:44:11.000Z</time></trkpt>
<trkpt lat="42.086416" lon="23.621781"><ele>1937.4</ele><time>2026-03-08T14:44:12.000Z</time></trkpt>
<trkpt lat="42.086404" lon="23.621786"><ele>1937.4</ele><time>2026-03-08T14:44:13.000Z</time></trkpt>
<trkpt lat="42.086393" lon="23.621791"><ele>1937.4</ele><time>2026-03-08T14:44:14.000Z</time></trkpt>
<trkpt lat="42.086383" lon="23.621797"><ele>1937.4</ele><time>2026-03-08T14:44:15.000Z</time></trkpt>
<trkpt lat="42.086373" lon="23.621803"><ele>1937.4</ele><time>2026-03-08T14:44:16.000Z</time></trkpt>
<trkpt lat="42.086363" lon="23.621807"><ele>1937.3</ele><time>2026-03-08T14:44:17.000Z</time></trkpt>
<trkpt lat="42.086354" lon="23.62181"><ele>1937.3</ele><time>2026-03-08T14:44:18.000Z</time></trkpt>
<trkpt lat="42.086345" lon="23.621813"><ele>1937.3</ele><time>2026-03-08T14:44:19.000Z</time></trkpt>
<trkpt lat="42.086335" lon="23.621815"><ele>1937.3</ele><time>2026-03-08T14:44:20.000Z</time></trkpt>
<trkpt lat="42.086326" lon="23.621817"><ele>1937.3</ele><time>2026-03-08T14:44:21.000Z</time></trkpt>
<trkpt lat="42.086316" lon="23.621819"><ele>1937.1</ele><time>2026-03-08T14:44:22.000Z</time></trkpt>
<trkpt lat="42.086305" lon="23.621823"><ele>1937.1</ele><time>2026-03-08T14:44:23.000Z</time></trkpt>
<trkpt lat="42.086293" lon="23.621827"><ele>1937.1</ele><time>2026-03-08T14:44:24.000Z</time></trkpt>
<trkpt lat="42.086282" lon="23.621831"><ele>1937.1</ele><time>2026-03-08T14:44:25.000Z</time></trkpt>
<trkpt lat="42.08627" lon="23.621835"><ele>1937.1</ele><time>2026-03-08T14:44:26.000Z</time></trkpt>
<trkpt lat="42.086258" lon="23.62184"><ele>1937</ele><time>2026-03-08T14:44:27.000Z</time></trkpt>
<trkpt lat="42.086246" lon="23.621844"><ele>1937</ele><time>2026-03-08T14:44:28.000Z</time></trkpt>
<trkpt lat="42.086235" lon="23.621848"><ele>1937</ele><time>2026-03-08T14:44:29.000Z</time></trkpt>
<trkpt lat="42.086223" lon="23.621852"><ele>1937</ele><time>2026-03-08T14:44:30.000Z</time></trkpt>
<trkpt lat="42.086212" lon="23.621855"><ele>1937</ele><time>2026-03-08T14:44:31.000Z</time></trkpt>
<trkpt lat="42.086202" lon="23.621857"><ele>1937</ele><time>2026-03-08T14:44:32.000Z</time></trkpt>
<trkpt lat="42.086191" lon="23.621858"><ele>1937</ele><time>2026-03-08T14:44:33.000Z</time></trkpt>
<trkpt lat="42.086182" lon="23.621861"><ele>1937</ele><time>2026-03-08T14:44:34.000Z</time></trkpt>
<trkpt lat="42.086172" lon="23.621863"><ele>1937</ele><time>2026-03-08T14:44:35.000Z</time></trkpt>
<trkpt lat="42.086162" lon="23.621867"><ele>1937</ele><time>2026-03-08T14:44:36.000Z</time></trkpt>
<trkpt lat="42.08615" lon="23.621871"><ele>1936.9</ele><time>2026-03-08T14:44:37.000Z</time></trkpt>
<trkpt lat="42.086137" lon="23.621876"><ele>1936.9</ele><time>2026-03-08T14:44:38.000Z</time></trkpt>
<trkpt lat="42.086124" lon="23.62188"><ele>1936.9</ele><time>2026-03-08T14:44:39.000Z</time></trkpt>
<trkpt lat="42.086111" lon="23.621884"><ele>1936.9</ele><time>2026-03-08T14:44:40.000Z</time></trkpt>
<trkpt lat="42.086099" lon="23.621888"><ele>1936.9</ele><time>2026-03-08T14:44:41.000Z</time></trkpt>
<trkpt lat="42.086088" lon="23.621892"><ele>1936.8</ele><time>2026-03-08T14:44:42.000Z</time></trkpt>
<trkpt lat="42.086076" lon="23.621895"><ele>1936.8</ele><time>2026-03-08T14:44:43.000Z</time></trkpt>
<trkpt lat="42.086064" lon="23.621899"><ele>1936.8</ele><time>2026-03-08T14:44:44.000Z</time></trkpt>
<trkpt lat="42.086052" lon="23.621902"><ele>1936.8</ele><time>2026-03-08T14:44:45.000Z</time></trkpt>
<trkpt lat="42.08604" lon="23.621904"><ele>1936.8</ele><time>2026-03-08T14:44:46.000Z</time></trkpt>
<trkpt lat="42.086028" lon="23.621904"><ele>1936.5</ele><time>2026-03-08T14:44:47.000Z</time></trkpt>
<trkpt lat="42.086017" lon="23.621905"><ele>1936.5</ele><time>2026-03-08T14:44:48.000Z</time></trkpt>
<trkpt lat="42.086006" lon="23.621904"><ele>1936.5</ele><time>2026-03-08T14:44:49.000Z</time></trkpt>
<trkpt lat="42.085995" lon="23.621902"><ele>1936.5</ele><time>2026-03-08T14:44:50.000Z</time></trkpt>
<trkpt lat="42.085984" lon="23.6219"><ele>1936.5</ele><time>2026-03-08T14:44:51.000Z</time></trkpt>
<trkpt lat="42.085973" lon="23.621896"><ele>1936.4</ele><time>2026-03-08T14:44:52.000Z</time></trkpt>
<trkpt lat="42.085963" lon="23.621891"><ele>1936.4</ele><time>2026-03-08T14:44:53.000Z</time></trkpt>
<trkpt lat="42.085952" lon="23.621886"><ele>1936.4</ele><time>2026-03-08T14:44:54.000Z</time></trkpt>
<trkpt lat="42.085941" lon="23.62188"><ele>1936.4</ele><time>2026-03-08T14:44:55.000Z</time></trkpt>
<trkpt lat="42.085931" lon="23.621874"><ele>1936.4</ele><time>2026-03-08T14:44:56.000Z</time></trkpt>
<trkpt lat="42.085921" lon="23.621868"><ele>1936.4</ele><time>2026-03-08T14:44:57.000Z</time></trkpt>
<trkpt lat="42.085911" lon="23.621861"><ele>1936.4</ele><time>2026-03-08T14:44:58.000Z</time></trkpt>
<trkpt lat="42.085901" lon="23.621854"><ele>1936.4</ele><time>2026-03-08T14:44:59.000Z</time></trkpt>
<trkpt lat="42.085891" lon="23.621848"><ele>1936.4</ele><time>2026-03-08T14:45:00.000Z</time></trkpt>
<trkpt lat="42.085882" lon="23.621842"><ele>1936.4</ele><time>2026-03-08T14:45:01.000Z</time></trkpt>
<trkpt lat="42.085873" lon="23.621836"><ele>1936.2</ele><time>2026-03-08T14:45:02.000Z</time></trkpt>
<trkpt lat="42.085863" lon="23.621829"><ele>1936.2</ele><time>2026-03-08T14:45:03.000Z</time></trkpt>
<trkpt lat="42.085853" lon="23.621821"><ele>1936.2</ele><time>2026-03-08T14:45:04.000Z</time></trkpt>
<trkpt lat="42.085843" lon="23.621813"><ele>1936.2</ele><time>2026-03-08T14:45:05.000Z</time></trkpt>
<trkpt lat="42.085833" lon="23.621805"><ele>1936.2</ele><time>2026-03-08T14:45:06.000Z</time></trkpt>
<trkpt lat="42.085823" lon="23.621798"><ele>1935.9</ele><time>2026-03-08T14:45:07.000Z</time></trkpt>
<trkpt lat="42.085813" lon="23.621792"><ele>1935.9</ele><time>2026-03-08T14:45:08.000Z</time></trkpt>
<trkpt lat="42.085803" lon="23.621785"><ele>1935.9</ele><time>2026-03-08T14:45:09.000Z</time></trkpt>
<trkpt lat="42.085792" lon="23.621779"><ele>1935.9</ele><time>2026-03-08T14:45:10.000Z</time></trkpt>
<trkpt lat="42.085782" lon="23.621773"><ele>1935.9</ele><time>2026-03-08T14:45:11.000Z</time></trkpt>
<trkpt lat="42.085773" lon="23.621766"><ele>1935.6</ele><time>2026-03-08T14:45:12.000Z</time></trkpt>
<trkpt lat="42.085764" lon="23.621759"><ele>1935.6</ele><time>2026-03-08T14:45:13.000Z</time></trkpt>
<trkpt lat="42.085755" lon="23.621752"><ele>1935.6</ele><time>2026-03-08T14:45:14.000Z</time></trkpt>
<trkpt lat="42.085747" lon="23.621744"><ele>1935.6</ele><time>2026-03-08T14:45:15.000Z</time></trkpt>
<trkpt lat="42.08574" lon="23.621734"><ele>1935.6</ele><time>2026-03-08T14:45:16.000Z</time></trkpt>
<trkpt lat="42.085732" lon="23.621725"><ele>1935.2</ele><time>2026-03-08T14:45:17.000Z</time></trkpt>
<trkpt lat="42.085723" lon="23.621715"><ele>1935.2</ele><time>2026-03-08T14:45:18.000Z</time></trkpt>
<trkpt lat="42.085714" lon="23.621705"><ele>1935.2</ele><time>2026-03-08T14:45:19.000Z</time></trkpt>
<trkpt lat="42.085704" lon="23.621695"><ele>1935.2</ele><time>2026-03-08T14:45:20.000Z</time></trkpt>
<trkpt lat="42.085694" lon="23.621685"><ele>1935.2</ele><time>2026-03-08T14:45:21.000Z</time></trkpt>
<trkpt lat="42.085683" lon="23.621674"><ele>1934.8</ele><time>2026-03-08T14:45:22.000Z</time></trkpt>
<trkpt lat="42.085673" lon="23.621663"><ele>1934.8</ele><time>2026-03-08T14:45:23.000Z</time></trkpt>
<trkpt lat="42.085663" lon="23.621653"><ele>1934.8</ele><time>2026-03-08T14:45:24.000Z</time></trkpt>
<trkpt lat="42.085652" lon="23.621644"><ele>1934.8</ele><time>2026-03-08T14:45:25.000Z</time></trkpt>
<trkpt lat="42.085642" lon="23.621634"><ele>1934.8</ele><time>2026-03-08T14:45:26.000Z</time></trkpt>
<trkpt lat="42.085633" lon="23.621624"><ele>1934.7</ele><time>2026-03-08T14:45:27.000Z</time></trkpt>
<trkpt lat="42.085623" lon="23.621614"><ele>1934.7</ele><time>2026-03-08T14:45:28.000Z</time></trkpt>
<trkpt lat="42.085615" lon="23.621604"><ele>1934.7</ele><time>2026-03-08T14:45:29.000Z</time></trkpt>
<trkpt lat="42.085606" lon="23.621593"><ele>1934.7</ele><time>2026-03-08T14:45:30.000Z</time></trkpt>
<trkpt lat="42.085597" lon="23.621583"><ele>1934.7</ele><time>2026-03-08T14:45:31.000Z</time></trkpt>
<trkpt lat="42.085587" lon="23.621572"><ele>1934.5</ele><time>2026-03-08T14:45:32.000Z</time></trkpt>
<trkpt lat="42.085577" lon="23.621563"><ele>1934.5</ele><time>2026-03-08T14:45:33.000Z</time></trkpt>
<trkpt lat="42.085566" lon="23.621555"><ele>1934.5</ele><time>2026-03-08T14:45:34.000Z</time></trkpt>
<trkpt lat="42.085555" lon="23.621547"><ele>1934.5</ele><time>2026-03-08T14:45:35.000Z</time></trkpt>
<trkpt lat="42.085544" lon="23.62154"><ele>1934.5</ele><time>2026-03-08T14:45:36.000Z</time></trkpt>
<trkpt lat="42.085534" lon="23.621533"><ele>1934.1</ele><time>2026-03-08T14:45:37.000Z</time></trkpt>
<trkpt lat="42.085525" lon="23.621525"><ele>1934.1</ele><time>2026-03-08T14:45:38.000Z</time></trkpt>
<trkpt lat="42.085516" lon="23.621516"><ele>1934.1</ele><time>2026-03-08T14:45:39.000Z</time></trkpt>
<trkpt lat="42.085508" lon="23.621507"><ele>1934.1</ele><time>2026-03-08T14:45:40.000Z</time></trkpt>
<trkpt lat="42.085499" lon="23.621497"><ele>1934.1</ele><time>2026-03-08T14:45:41.000Z</time></trkpt>
<trkpt lat="42.08549" lon="23.621487"><ele>1933.6</ele><time>2026-03-08T14:45:42.000Z</time></trkpt>
<trkpt lat="42.085481" lon="23.621477"><ele>1933.6</ele><time>2026-03-08T14:45:43.000Z</time></trkpt>
<trkpt lat="42.085471" lon="23.621466"><ele>1933.6</ele><time>2026-03-08T14:45:44.000Z</time></trkpt>
<trkpt lat="42.085462" lon="23.621456"><ele>1933.6</ele><time>2026-03-08T14:45:45.000Z</time></trkpt>
<trkpt lat="42.085452" lon="23.621446"><ele>1933.6</ele><time>2026-03-08T14:45:46.000Z</time></trkpt>
<trkpt lat="42.085443" lon="23.621436"><ele>1933.4</ele><time>2026-03-08T14:45:47.000Z</time></trkpt>
<trkpt lat="42.085435" lon="23.621427"><ele>1933.4</ele><time>2026-03-08T14:45:48.000Z</time></trkpt>
<trkpt lat="42.085427" lon="23.621417"><ele>1933.4</ele><time>2026-03-08T14:45:49.000Z</time></trkpt>
<trkpt lat="42.08542" lon="23.621406"><ele>1933.4</ele><time>2026-03-08T14:45:50.000Z</time></trkpt>
<trkpt lat="42.085413" lon="23.621394"><ele>1933.4</ele><time>2026-03-08T14:45:51.000Z</time></trkpt>
<trkpt lat="42.085405" lon="23.621382"><ele>1932.8</ele><time>2026-03-08T14:45:52.000Z</time></trkpt>
<trkpt lat="42.085398" lon="23.621369"><ele>1932.8</ele><time>2026-03-08T14:45:53.000Z</time></trkpt>
<trkpt lat="42.085392" lon="23.621355"><ele>1932.8</ele><time>2026-03-08T14:45:54.000Z</time></trkpt>
<trkpt lat="42.085386" lon="23.621342"><ele>1932.8</ele><time>2026-03-08T14:45:55.000Z</time></trkpt>
<trkpt lat="42.085382" lon="23.621328"><ele>1932.8</ele><time>2026-03-08T14:45:56.000Z</time></trkpt>
<trkpt lat="42.085378" lon="23.621313"><ele>1932.3</ele><time>2026-03-08T14:45:57.000Z</time></trkpt>
<trkpt lat="42.085373" lon="23.621297"><ele>1932.3</ele><time>2026-03-08T14:45:58.000Z</time></trkpt>
<trkpt lat="42.08537" lon="23.62128"><ele>1932.3</ele><time>2026-03-08T14:45:59.000Z</time></trkpt>
<trkpt lat="42.085367" lon="23.621262"><ele>1932.3</ele><time>2026-03-08T14:46:00.000Z</time></trkpt>
<trkpt lat="42.085365" lon="23.621245"><ele>1932.3</ele><time>2026-03-08T14:46:01.000Z</time></trkpt>
<trkpt lat="42.085365" lon="23.621227"><ele>1932.1</ele><time>2026-03-08T14:46:02.000Z</time></trkpt>
<trkpt lat="42.085364" lon="23.621209"><ele>1932.1</ele><time>2026-03-08T14:46:03.000Z</time></trkpt>
<trkpt lat="42.085363" lon="23.621192"><ele>1932.1</ele><time>2026-03-08T14:46:04.000Z</time></trkpt>
<trkpt lat="42.085362" lon="23.621175"><ele>1932.1</ele><time>2026-03-08T14:46:05.000Z</time></trkpt>
<trkpt lat="42.08536" lon="23.621157"><ele>1932.1</ele><time>2026-03-08T14:46:06.000Z</time></trkpt>
<trkpt lat="42.085359" lon="23.621141"><ele>1931.8</ele><time>2026-03-08T14:46:07.000Z</time></trkpt>
<trkpt lat="42.085359" lon="23.621125"><ele>1931.8</ele><time>2026-03-08T14:46:08.000Z</time></trkpt>
<trkpt lat="42.085359" lon="23.621108"><ele>1931.8</ele><time>2026-03-08T14:46:09.000Z</time></trkpt>
<trkpt lat="42.08536" lon="23.621091"><ele>1931.8</ele><time>2026-03-08T14:46:10.000Z</time></trkpt>
<trkpt lat="42.08536" lon="23.621076"><ele>1931.8</ele><time>2026-03-08T14:46:11.000Z</time></trkpt>
<trkpt lat="42.08536" lon="23.621059"><ele>1931.2</ele><time>2026-03-08T14:46:12.000Z</time></trkpt>
<trkpt lat="42.085359" lon="23.621043"><ele>1931.2</ele><time>2026-03-08T14:46:13.000Z</time></trkpt>
<trkpt lat="42.085358" lon="23.621028"><ele>1931.2</ele><time>2026-03-08T14:46:14.000Z</time></trkpt>
<trkpt lat="42.085357" lon="23.621015"><ele>1931.2</ele><time>2026-03-08T14:46:15.000Z</time></trkpt>
<trkpt lat="42.085356" lon="23.621001"><ele>1931.2</ele><time>2026-03-08T14:46:16.000Z</time></trkpt>
<trkpt lat="42.085355" lon="23.620988"><ele>1930.9</ele><time>2026-03-08T14:46:17.000Z</time></trkpt>
<trkpt lat="42.085353" lon="23.620975"><ele>1930.9</ele><time>2026-03-08T14:46:18.000Z</time></trkpt>
<trkpt lat="42.085352" lon="23.620959"><ele>1930.9</ele><time>2026-03-08T14:46:19.000Z</time></trkpt>
<trkpt lat="42.085352" lon="23.620944"><ele>1930.9</ele><time>2026-03-08T14:46:20.000Z</time></trkpt>
<trkpt lat="42.085351" lon="23.620929"><ele>1930.9</ele><time>2026-03-08T14:46:21.000Z</time></trkpt>
<trkpt lat="42.085351" lon="23.620913"><ele>1930.1</ele><time>2026-03-08T14:46:22.000Z</time></trkpt>
<trkpt lat="42.085351" lon="23.620897"><ele>1930.1</ele><time>2026-03-08T14:46:23.000Z</time></trkpt>
<trkpt lat="42.085352" lon="23.620882"><ele>1930.1</ele><time>2026-03-08T14:46:24.000Z</time></trkpt>
<trkpt lat="42.085353" lon="23.620867"><ele>1930.1</ele><time>2026-03-08T14:46:25.000Z</time></trkpt>
<trkpt lat="42.085354" lon="23.620852"><ele>1930.1</ele><time>2026-03-08T14:46:26.000Z</time></trkpt>
<trkpt lat="42.085355" lon="23.620837"><ele>1929.5</ele><time>2026-03-08T14:46:27.000Z</time></trkpt>
<trkpt lat="42.085355" lon="23.620822"><ele>1929.5</ele><time>2026-03-08T14:46:28.000Z</time></trkpt>
<trkpt lat="42.085355" lon="23.620808"><ele>1929.5</ele><time>2026-03-08T14:46:29.000Z</time></trkpt>
<trkpt lat="42.085354" lon="23.620793"><ele>1929.5</ele><time>2026-03-08T14:46:30.000Z</time></trkpt>
<trkpt lat="42.085354" lon="23.620778"><ele>1929.5</ele><time>2026-03-08T14:46:31.000Z</time></trkpt>
<trkpt lat="42.085352" lon="23.620762"><ele>1929.3</ele><time>2026-03-08T14:46:32.000Z</time></trkpt>
<trkpt lat="42.085352" lon="23.620746"><ele>1929.3</ele><time>2026-03-08T14:46:33.000Z</time></trkpt>
<trkpt lat="42.085353" lon="23.620729"><ele>1929.3</ele><time>2026-03-08T14:46:34.000Z</time></trkpt>
<trkpt lat="42.085354" lon="23.620713"><ele>1929.3</ele><time>2026-03-08T14:46:35.000Z</time></trkpt>
<trkpt lat="42.085355" lon="23.620696"><ele>1929.3</ele><time>2026-03-08T14:46:36.000Z</time></trkpt>
<trkpt lat="42.085355" lon="23.620681"><ele>1928.9</ele><time>2026-03-08T14:46:37.000Z</time></trkpt>
<trkpt lat="42.085355" lon="23.620667"><ele>1928.9</ele><time>2026-03-08T14:46:38.000Z</time></trkpt>
<trkpt lat="42.085354" lon="23.620653"><ele>1928.9</ele><time>2026-03-08T14:46:39.000Z</time></trkpt>
<trkpt lat="42.085353" lon="23.62064"><ele>1928.9</ele><time>2026-03-08T14:46:40.000Z</time></trkpt>
<trkpt lat="42.085352" lon="23.620627"><ele>1928.9</ele><time>2026-03-08T14:46:41.000Z</time></trkpt>
<trkpt lat="42.085351" lon="23.620612"><ele>1928.4</ele><time>2026-03-08T14:46:42.000Z</time></trkpt>
<trkpt lat="42.08535" lon="23.620596"><ele>1928.4</ele><time>2026-03-08T14:46:43.000Z</time></trkpt>
<trkpt lat="42.085349" lon="23.62058"><ele>1928.4</ele><time>2026-03-08T14:46:44.000Z</time></trkpt>
<trkpt lat="42.085349" lon="23.620562"><ele>1928.4</ele><time>2026-03-08T14:46:45.000Z</time></trkpt>
<trkpt lat="42.085347" lon="23.620544"><ele>1928.4</ele><time>2026-03-08T14:46:46.000Z</time></trkpt>
<trkpt lat="42.085344" lon="23.620527"><ele>1928.2</ele><time>2026-03-08T14:46:47.000Z</time></trkpt>
<trkpt lat="42.085342" lon="23.620509"><ele>1928.2</ele><time>2026-03-08T14:46:48.000Z</time></trkpt>
<trkpt lat="42.08534" lon="23.620493"><ele>1928.2</ele><time>2026-03-08T14:46:49.000Z</time></trkpt>
<trkpt lat="42.085338" lon="23.620476"><ele>1928.2</ele><time>2026-03-08T14:46:50.000Z</time></trkpt>
<trkpt lat="42.085335" lon="23.620461"><ele>1928.2</ele><time>2026-03-08T14:46:51.000Z</time></trkpt>
<trkpt lat="42.085333" lon="23.620446"><ele>1927.6</ele><time>2026-03-08T14:46:52.000Z</time></trkpt>
<trkpt lat="42.085331" lon="23.620432"><ele>1927.6</ele><time>2026-03-08T14:46:53.000Z</time></trkpt>
<trkpt lat="42.085328" lon="23.620419"><ele>1927.6</ele><time>2026-03-08T14:46:54.000Z</time></trkpt>
<trkpt lat="42.085327" lon="23.620405"><ele>1927.6</ele><time>2026-03-08T14:46:55.000Z</time></trkpt>
<trkpt lat="42.085325" lon="23.620392"><ele>1927.6</ele><time>2026-03-08T14:46:56.000Z</time></trkpt>
<trkpt lat="42.085324" lon="23.620378"><ele>1927</ele><time>2026-03-08T14:46:57.000Z</time></trkpt>
<trkpt lat="42.085322" lon="23.620365"><ele>1927</ele><time>2026-03-08T14:46:58.000Z</time></trkpt>
<trkpt lat="42.085319" lon="23.620351"><ele>1927</ele><time>2026-03-08T14:46:59.000Z</time></trkpt>
<trkpt lat="42.085315" lon="23.620336"><ele>1927</ele><time>2026-03-08T14:47:00.000Z</time></trkpt>
<trkpt lat="42.085311" lon="23.620321"><ele>1927</ele><time>2026-03-08T14:47:01.000Z</time></trkpt>
<trkpt lat="42.085307" lon="23.620305"><ele>1926.7</ele><time>2026-03-08T14:47:02.000Z</time></trkpt>
<trkpt lat="42.085305" lon="23.620289"><ele>1926.7</ele><time>2026-03-08T14:47:03.000Z</time></trkpt>
<trkpt lat="42.085303" lon="23.620273"><ele>1926.7</ele><time>2026-03-08T14:47:04.000Z</time></trkpt>
<trkpt lat="42.085301" lon="23.620258"><ele>1926.7</ele><time>2026-03-08T14:47:05.000Z</time></trkpt>
<trkpt lat="42.085298" lon="23.620242"><ele>1926.7</ele><time>2026-03-08T14:47:06.000Z</time></trkpt>
<trkpt lat="42.085295" lon="23.620227"><ele>1926.2</ele><time>2026-03-08T14:47:07.000Z</time></trkpt>
<trkpt lat="42.08529" lon="23.620211"><ele>1926.2</ele><time>2026-03-08T14:47:08.000Z</time></trkpt>
<trkpt lat="42.085285" lon="23.620195"><ele>1926.2</ele><time>2026-03-08T14:47:09.000Z</time></trkpt>
<trkpt lat="42.085279" lon="23.62018"><ele>1926.2</ele><time>2026-03-08T14:47:10.000Z</time></trkpt>
<trkpt lat="42.085274" lon="23.620165"><ele>1926.2</ele><time>2026-03-08T14:47:11.000Z</time></trkpt>
<trkpt lat="42.085269" lon="23.62015"><ele>1925.8</ele><time>2026-03-08T14:47:12.000Z</time></trkpt>
<trkpt lat="42.085265" lon="23.620136"><ele>1925.8</ele><time>2026-03-08T14:47:13.000Z</time></trkpt>
<trkpt lat="42.085262" lon="23.620121"><ele>1925.8</ele><time>2026-03-08T14:47:14.000Z</time></trkpt>
<trkpt lat="42.085259" lon="23.620107"><ele>1925.8</ele><time>2026-03-08T14:47:15.000Z</time></trkpt>
<trkpt lat="42.085256" lon="23.620091"><ele>1925.8</ele><time>2026-03-08T14:47:16.000Z</time></trkpt>
<trkpt lat="42.085253" lon="23.620076"><ele>1925.6</ele><time>2026-03-08T14:47:17.000Z</time></trkpt>
<trkpt lat="42.08525" lon="23.620061"><ele>1925.6</ele><time>2026-03-08T14:47:18.000Z</time></trkpt>
<trkpt lat="42.085248" lon="23.620047"><ele>1925.6</ele><time>2026-03-08T14:47:19.000Z</time></trkpt>
<trkpt lat="42.085245" lon="23.620032"><ele>1925.6</ele><time>2026-03-08T14:47:20.000Z</time></trkpt>
<trkpt lat="42.085241" lon="23.620017"><ele>1925.6</ele><time>2026-03-08T14:47:21.000Z</time></trkpt>
<trkpt lat="42.085238" lon="23.620003"><ele>1925.3</ele><time>2026-03-08T14:47:22.000Z</time></trkpt>
<trkpt lat="42.085234" lon="23.619988"><ele>1925.3</ele><time>2026-03-08T14:47:23.000Z</time></trkpt>
<trkpt lat="42.085231" lon="23.619974"><ele>1925.3</ele><time>2026-03-08T14:47:24.000Z</time></trkpt>
<trkpt lat="42.085228" lon="23.61996"><ele>1925.3</ele><time>2026-03-08T14:47:25.000Z</time></trkpt>
<trkpt lat="42.085226" lon="23.619947"><ele>1925.3</ele><time>2026-03-08T14:47:26.000Z</time></trkpt>
<trkpt lat="42.085224" lon="23.619935"><ele>1924.9</ele><time>2026-03-08T14:47:27.000Z</time></trkpt>
<trkpt lat="42.085222" lon="23.619924"><ele>1924.9</ele><time>2026-03-08T14:47:28.000Z</time></trkpt>
<trkpt lat="42.08522" lon="23.619914"><ele>1924.9</ele><time>2026-03-08T14:47:29.000Z</time></trkpt>
<trkpt lat="42.085219" lon="23.619904"><ele>1924.9</ele><time>2026-03-08T14:47:30.000Z</time></trkpt>
<trkpt lat="42.085217" lon="23.619894"><ele>1924.9</ele><time>2026-03-08T14:47:31.000Z</time></trkpt>
<trkpt lat="42.085214" lon="23.619883"><ele>1924.7</ele><time>2026-03-08T14:47:32.000Z</time></trkpt>
<trkpt lat="42.085211" lon="23.61987"><ele>1924.7</ele><time>2026-03-08T14:47:33.000Z</time></trkpt>
<trkpt lat="42.085207" lon="23.619856"><ele>1924.7</ele><time>2026-03-08T14:47:34.000Z</time></trkpt>
<trkpt lat="42.085203" lon="23.61984"><ele>1924.7</ele><time>2026-03-08T14:47:35.000Z</time></trkpt>
<trkpt lat="42.085198" lon="23.619824"><ele>1924.7</ele><time>2026-03-08T14:47:36.000Z</time></trkpt>
<trkpt lat="42.085192" lon="23.619808"><ele>1924.3</ele><time>2026-03-08T14:47:37.000Z</time></trkpt>
<trkpt lat="42.085186" lon="23.619794"><ele>1924.3</ele><time>2026-03-08T14:47:38.000Z</time></trkpt>
<trkpt lat="42.085179" lon="23.619781"><ele>1924.3</ele><time>2026-03-08T14:47:39.000Z</time></trkpt>
<trkpt lat="42.085172" lon="23.61977"><ele>1924.3</ele><time>2026-03-08T14:47:40.000Z</time></trkpt>
<trkpt lat="42.085164" lon="23.619758"><ele>1924.3</ele><time>2026-03-08T14:47:41.000Z</time></trkpt>
<trkpt lat="42.085155" lon="23.619748"><ele>1923.9</ele><time>2026-03-08T14:47:42.000Z</time></trkpt>
<trkpt lat="42.085146" lon="23.619738"><ele>1923.9</ele><time>2026-03-08T14:47:43.000Z</time></trkpt>
<trkpt lat="42.085137" lon="23.61973"><ele>1923.9</ele><time>2026-03-08T14:47:44.000Z</time></trkpt>
<trkpt lat="42.085129" lon="23.619723"><ele>1923.9</ele><time>2026-03-08T14:47:45.000Z</time></trkpt>
<trkpt lat="42.085122" lon="23.619718"><ele>1923.9</ele><time>2026-03-08T14:47:46.000Z</time></trkpt>
<trkpt lat="42.085114" lon="23.619713"><ele>1923.7</ele><time>2026-03-08T14:47:47.000Z</time></trkpt>
<trkpt lat="42.085106" lon="23.619709"><ele>1923.7</ele><time>2026-03-08T14:47:48.000Z</time></trkpt>
<trkpt lat="42.085099" lon="23.619704"><ele>1923.7</ele><time>2026-03-08T14:47:49.000Z</time></trkpt>
<trkpt lat="42.08509" lon="23.619699"><ele>1923.7</ele><time>2026-03-08T14:47:50.000Z</time></trkpt>
<trkpt lat="42.085081" lon="23.619693"><ele>1923.7</ele><time>2026-03-08T14:47:51.000Z</time></trkpt>
<trkpt lat="42.085072" lon="23.619687"><ele>1923.2</ele><time>2026-03-08T14:47:52.000Z</time></trkpt>
<trkpt lat="42.085062" lon="23.619684"><ele>1923.2</ele><time>2026-03-08T14:47:53.000Z</time></trkpt>
<trkpt lat="42.08505" lon="23.619681"><ele>1923.2</ele><time>2026-03-08T14:47:54.000Z</time></trkpt>
<trkpt lat="42.085039" lon="23.61968"><ele>1923.2</ele><time>2026-03-08T14:47:55.000Z</time></trkpt>
<trkpt lat="42.085027" lon="23.61968"><ele>1923.2</ele><time>2026-03-08T14:47:56.000Z</time></trkpt>
<trkpt lat="42.085016" lon="23.619682"><ele>1922.6</ele><time>2026-03-08T14:47:57.000Z</time></trkpt>
<trkpt lat="42.085006" lon="23.619684"><ele>1922.6</ele><time>2026-03-08T14:47:58.000Z</time></trkpt>
<trkpt lat="42.084995" lon="23.619686"><ele>1922.6</ele><time>2026-03-08T14:47:59.000Z</time></trkpt>
<trkpt lat="42.084985" lon="23.619689"><ele>1922.6</ele><time>2026-03-08T14:48:00.000Z</time></trkpt>
<trkpt lat="42.084974" lon="23.619693"><ele>1922.6</ele><time>2026-03-08T14:48:01.000Z</time></trkpt>
<trkpt lat="42.084964" lon="23.619697"><ele>1922.2</ele><time>2026-03-08T14:48:02.000Z</time></trkpt>
<trkpt lat="42.084954" lon="23.619703"><ele>1922.2</ele><time>2026-03-08T14:48:03.000Z</time></trkpt>
<trkpt lat="42.084946" lon="23.61971"><ele>1922.2</ele><time>2026-03-08T14:48:04.000Z</time></trkpt>
<trkpt lat="42.084937" lon="23.619718"><ele>1922.2</ele><time>2026-03-08T14:48:05.000Z</time></trkpt>
<trkpt lat="42.084929" lon="23.619726"><ele>1922.2</ele><time>2026-03-08T14:48:06.000Z</time></trkpt>
<trkpt lat="42.084921" lon="23.619734"><ele>1921.7</ele><time>2026-03-08T14:48:07.000Z</time></trkpt>
<trkpt lat="42.084914" lon="23.619743"><ele>1921.7</ele><time>2026-03-08T14:48:08.000Z</time></trkpt>
<trkpt lat="42.084908" lon="23.619752"><ele>1921.7</ele><time>2026-03-08T14:48:09.000Z</time></trkpt>
<trkpt lat="42.084901" lon="23.619762"><ele>1921.7</ele><time>2026-03-08T14:48:10.000Z</time></trkpt>
<trkpt lat="42.084894" lon="23.619771"><ele>1921.7</ele><time>2026-03-08T14:48:11.000Z</time></trkpt>
<trkpt lat="42.084887" lon="23.619781"><ele>1921.3</ele><time>2026-03-08T14:48:12.000Z</time></trkpt>
<trkpt lat="42.084879" lon="23.619791"><ele>1921.3</ele><time>2026-03-08T14:48:13.000Z</time></trkpt>
<trkpt lat="42.08487" lon="23.6198"><ele>1921.3</ele><time>2026-03-08T14:48:14.000Z</time></trkpt>
<trkpt lat="42.084861" lon="23.619809"><ele>1921.3</ele><time>2026-03-08T14:48:15.000Z</time></trkpt>
<trkpt lat="42.084852" lon="23.619819"><ele>1921.3</ele><time>2026-03-08T14:48:16.000Z</time></trkpt>
<trkpt lat="42.084842" lon="23.619828"><ele>1921.1</ele><time>2026-03-08T14:48:17.000Z</time></trkpt>
<trkpt lat="42.084834" lon="23.619837"><ele>1921.1</ele><time>2026-03-08T14:48:18.000Z</time></trkpt>
<trkpt lat="42.084825" lon="23.619845"><ele>1921.1</ele><time>2026-03-08T14:48:19.000Z</time></trkpt>
<trkpt lat="42.084817" lon="23.619854"><ele>1921.1</ele><time>2026-03-08T14:48:20.000Z</time></trkpt>
<trkpt lat="42.08481" lon="23.619863"><ele>1921.1</ele><time>2026-03-08T14:48:21.000Z</time></trkpt>
<trkpt lat="42.084806" lon="23.619872"><ele>1920.7</ele><time>2026-03-08T14:48:22.000Z</time></trkpt>
<trkpt lat="42.0848" lon="23.61988"><ele>1920.7</ele><time>2026-03-08T14:48:23.000Z</time></trkpt>
<trkpt lat="42.084794" lon="23.619889"><ele>1920.7</ele><time>2026-03-08T14:48:24.000Z</time></trkpt>
<trkpt lat="42.084791" lon="23.619899"><ele>1920.7</ele><time>2026-03-08T14:48:25.000Z</time></trkpt>
<trkpt lat="42.084786" lon="23.61991"><ele>1920.7</ele><time>2026-03-08T14:48:26.000Z</time></trkpt>
<trkpt lat="42.084781" lon="23.619923"><ele>1920.1</ele><time>2026-03-08T14:48:27.000Z</time></trkpt>
<trkpt lat="42.084776" lon="23.619937"><ele>1920.1</ele><time>2026-03-08T14:48:28.000Z</time></trkpt>
<trkpt lat="42.084772" lon="23.619951"><ele>1920.1</ele><time>2026-03-08T14:48:29.000Z</time></trkpt>
<trkpt lat="42.084766" lon="23.619965"><ele>1920.1</ele><time>2026-03-08T14:48:30.000Z</time></trkpt>
<trkpt lat="42.084759" lon="23.619978"><ele>1920.1</ele><time>2026-03-08T14:48:31.000Z</time></trkpt>
<trkpt lat="42.084753" lon="23.61999"><ele>1919.8</ele><time>2026-03-08T14:48:32.000Z</time></trkpt>
<trkpt lat="42.084748" lon="23.620003"><ele>1919.8</ele><time>2026-03-08T14:48:33.000Z</time></trkpt>
<trkpt lat="42.084742" lon="23.620015"><ele>1919.8</ele><time>2026-03-08T14:48:34.000Z</time></trkpt>
<trkpt lat="42.084737" lon="23.620028"><ele>1919.8</ele><time>2026-03-08T14:48:35.000Z</time></trkpt>
<trkpt lat="42.084732" lon="23.62004"><ele>1919.8</ele><time>2026-03-08T14:48:36.000Z</time></trkpt>
<trkpt lat="42.084726" lon="23.620052"><ele>1919.3</ele><time>2026-03-08T14:48:37.000Z</time></trkpt>
<trkpt lat="42.084719" lon="23.620063"><ele>1919.3</ele><time>2026-03-08T14:48:38.000Z</time></trkpt>
<trkpt lat="42.084713" lon="23.620074"><ele>1919.3</ele><time>2026-03-08T14:48:39.000Z</time></trkpt>
<trkpt lat="42.084706" lon="23.620085"><ele>1919.3</ele><time>2026-03-08T14:48:40.000Z</time></trkpt>
<trkpt lat="42.0847" lon="23.620097"><ele>1919.3</ele><time>2026-03-08T14:48:41.000Z</time></trkpt>
<trkpt lat="42.084693" lon="23.62011"><ele>1918.9</ele><time>2026-03-08T14:48:42.000Z</time></trkpt>
<trkpt lat="42.084687" lon="23.620124"><ele>1918.9</ele><time>2026-03-08T14:48:43.000Z</time></trkpt>
<trkpt lat="42.084681" lon="23.620139"><ele>1918.9</ele><time>2026-03-08T14:48:44.000Z</time></trkpt>
<trkpt lat="42.084674" lon="23.620155"><ele>1918.9</ele><time>2026-03-08T14:48:45.000Z</time></trkpt>
<trkpt lat="42.084668" lon="23.620171"><ele>1918.9</ele><time>2026-03-08T14:48:46.000Z</time></trkpt>
<trkpt lat="42.084662" lon="23.620187"><ele>1918.7</ele><time>2026-03-08T14:48:47.000Z</time></trkpt>
<trkpt lat="42.084656" lon="23.620204"><ele>1918.7</ele><time>2026-03-08T14:48:48.000Z</time></trkpt>
<trkpt lat="42.084649" lon="23.620221"><ele>1918.7</ele><time>2026-03-08T14:48:49.000Z</time></trkpt>
<trkpt lat="42.084643" lon="23.620237"><ele>1918.7</ele><time>2026-03-08T14:48:50.000Z</time></trkpt>
<trkpt lat="42.084637" lon="23.620253"><ele>1918.7</ele><time>2026-03-08T14:48:51.000Z</time></trkpt>
<trkpt lat="42.084631" lon="23.620268"><ele>1918.4</ele><time>2026-03-08T14:48:52.000Z</time></trkpt>
<trkpt lat="42.084627" lon="23.620284"><ele>1918.4</ele><time>2026-03-08T14:48:53.000Z</time></trkpt>
<trkpt lat="42.084622" lon="23.6203"><ele>1918.4</ele><time>2026-03-08T14:48:54.000Z</time></trkpt>
<trkpt lat="42.084618" lon="23.620314"><ele>1918.4</ele><time>2026-03-08T14:48:55.000Z</time></trkpt>
<trkpt lat="42.084613" lon="23.620328"><ele>1918.4</ele><time>2026-03-08T14:48:56.000Z</time></trkpt>
<trkpt lat="42.084609" lon="23.620342"><ele>1917.8</ele><time>2026-03-08T14:48:57.000Z</time></trkpt>
<trkpt lat="42.084604" lon="23.620355"><ele>1917.8</ele><time>2026-03-08T14:48:58.000Z</time></trkpt>
<trkpt lat="42.084599" lon="23.620367"><ele>1917.8</ele><time>2026-03-08T14:48:59.000Z</time></trkpt>
<trkpt lat="42.084592" lon="23.620379"><ele>1917.8</ele><time>2026-03-08T14:49:00.000Z</time></trkpt>
<trkpt lat="42.084586" lon="23.620392"><ele>1917.8</ele><time>2026-03-08T14:49:01.000Z</time></trkpt>
<trkpt lat="42.084581" lon="23.620406"><ele>1917.5</ele><time>2026-03-08T14:49:02.000Z</time></trkpt>
<trkpt lat="42.084575" lon="23.620419"><ele>1917.5</ele><time>2026-03-08T14:49:03.000Z</time></trkpt>
<trkpt lat="42.084568" lon="23.620434"><ele>1917.5</ele><time>2026-03-08T14:49:04.000Z</time></trkpt>
<trkpt lat="42.084562" lon="23.620449"><ele>1917.5</ele><time>2026-03-08T14:49:05.000Z</time></trkpt>
<trkpt lat="42.084557" lon="23.620464"><ele>1917.5</ele><time>2026-03-08T14:49:06.000Z</time></trkpt>
<trkpt lat="42.08455" lon="23.620477"><ele>1916.8</ele><time>2026-03-08T14:49:07.000Z</time></trkpt>
<trkpt lat="42.084542" lon="23.62049"><ele>1916.8</ele><time>2026-03-08T14:49:08.000Z</time></trkpt>
<trkpt lat="42.084535" lon="23.620503"><ele>1916.8</ele><time>2026-03-08T14:49:09.000Z</time></trkpt>
<trkpt lat="42.084527" lon="23.620516"><ele>1916.8</ele><time>2026-03-08T14:49:10.000Z</time></trkpt>
<trkpt lat="42.084518" lon="23.620528"><ele>1916.8</ele><time>2026-03-08T14:49:11.000Z</time></trkpt>
<trkpt lat="42.084509" lon="23.62054"><ele>1916.2</ele><time>2026-03-08T14:49:12.000Z</time></trkpt>
<trkpt lat="42.084501" lon="23.620553"><ele>1916.2</ele><time>2026-03-08T14:49:13.000Z</time></trkpt>
<trkpt lat="42.084494" lon="23.620565"><ele>1916.2</ele><time>2026-03-08T14:49:14.000Z</time></trkpt>
<trkpt lat="42.084486" lon="23.620577"><ele>1916.2</ele><time>2026-03-08T14:49:15.000Z</time></trkpt>
<trkpt lat="42.084478" lon="23.62059"><ele>1916.2</ele><time>2026-03-08T14:49:16.000Z</time></trkpt>
<trkpt lat="42.08447" lon="23.620601"><ele>1915.8</ele><time>2026-03-08T14:49:17.000Z</time></trkpt>
<trkpt lat="42.084461" lon="23.620611"><ele>1915.8</ele><time>2026-03-08T14:49:18.000Z</time></trkpt>
<trkpt lat="42.084451" lon="23.620621"><ele>1915.8</ele><time>2026-03-08T14:49:19.000Z</time></trkpt>
<trkpt lat="42.084441" lon="23.62063"><ele>1915.8</ele><time>2026-03-08T14:49:20.000Z</time></trkpt>
<trkpt lat="42.084432" lon="23.620639"><ele>1915.8</ele><time>2026-03-08T14:49:21.000Z</time></trkpt>
<trkpt lat="42.084423" lon="23.620648"><ele>1915</ele><time>2026-03-08T14:49:22.000Z</time></trkpt>
<trkpt lat="42.084414" lon="23.620657"><ele>1915</ele><time>2026-03-08T14:49:23.000Z</time></trkpt>
<trkpt lat="42.084405" lon="23.620667"><ele>1915</ele><time>2026-03-08T14:49:24.000Z</time></trkpt>
<trkpt lat="42.084396" lon="23.620677"><ele>1915</ele><time>2026-03-08T14:49:25.000Z</time></trkpt>
<trkpt lat="42.084386" lon="23.620688"><ele>1915</ele><time>2026-03-08T14:49:26.000Z</time></trkpt>
<trkpt lat="42.084377" lon="23.620699"><ele>1914.2</ele><time>2026-03-08T14:49:27.000Z</time></trkpt>
<trkpt lat="42.084367" lon="23.62071"><ele>1914.2</ele><time>2026-03-08T14:49:28.000Z</time></trkpt>
<trkpt lat="42.084357" lon="23.620721"><ele>1914.2</ele><time>2026-03-08T14:49:29.000Z</time></trkpt>
<trkpt lat="42.084348" lon="23.620731"><ele>1914.2</ele><time>2026-03-08T14:49:30.000Z</time></trkpt>
<trkpt lat="42.084341" lon="23.620741"><ele>1914.2</ele><time>2026-03-08T14:49:31.000Z</time></trkpt>
<trkpt lat="42.084334" lon="23.62075"><ele>1913.8</ele><time>2026-03-08T14:49:32.000Z</time></trkpt>
<trkpt lat="42.084328" lon="23.620758"><ele>1913.8</ele><time>2026-03-08T14:49:33.000Z</time></trkpt>
<trkpt lat="42.084323" lon="23.620765"><ele>1913.8</ele><time>2026-03-08T14:49:34.000Z</time></trkpt>
<trkpt lat="42.084319" lon="23.62077"><ele>1913.8</ele><time>2026-03-08T14:49:35.000Z</time></trkpt>
<trkpt lat="42.084315" lon="23.620774"><ele>1913.8</ele><time>2026-03-08T14:49:36.000Z</time></trkpt>
<trkpt lat="42.084313" lon="23.620779"><ele>1913.1</ele><time>2026-03-08T14:49:37.000Z</time></trkpt>
<trkpt lat="42.084309" lon="23.620784"><ele>1913.1</ele><time>2026-03-08T14:49:38.000Z</time></trkpt>
<trkpt lat="42.084303" lon="23.620792"><ele>1913.1</ele><time>2026-03-08T14:49:39.000Z</time></trkpt>
<trkpt lat="42.084296" lon="23.6208"><ele>1913.1</ele><time>2026-03-08T14:49:40.000Z</time></trkpt>
<trkpt lat="42.084287" lon="23.620807"><ele>1913.1</ele><time>2026-03-08T14:49:41.000Z</time></trkpt>
<trkpt lat="42.084277" lon="23.620814"><ele>1912.5</ele><time>2026-03-08T14:49:42.000Z</time></trkpt>
<trkpt lat="42.084266" lon="23.620819"><ele>1912.5</ele><time>2026-03-08T14:49:43.000Z</time></trkpt>
<trkpt lat="42.084255" lon="23.620823"><ele>1912.5</ele><time>2026-03-08T14:49:44.000Z</time></trkpt>
<trkpt lat="42.084244" lon="23.620828"><ele>1912.5</ele><time>2026-03-08T14:49:45.000Z</time></trkpt>
<trkpt lat="42.084232" lon="23.620832"><ele>1912.5</ele><time>2026-03-08T14:49:46.000Z</time></trkpt>
<trkpt lat="42.084219" lon="23.620836"><ele>1912.3</ele><time>2026-03-08T14:49:47.000Z</time></trkpt>
<trkpt lat="42.084207" lon="23.62084"><ele>1912.3</ele><time>2026-03-08T14:49:48.000Z</time></trkpt>
<trkpt lat="42.084195" lon="23.620843"><ele>1912.3</ele><time>2026-03-08T14:49:49.000Z</time></trkpt>
<trkpt lat="42.084183" lon="23.620845"><ele>1912.3</ele><time>2026-03-08T14:49:50.000Z</time></trkpt>
<trkpt lat="42.084172" lon="23.620846"><ele>1912.3</ele><time>2026-03-08T14:49:51.000Z</time></trkpt>
<trkpt lat="42.084161" lon="23.620846"><ele>1911.8</ele><time>2026-03-08T14:49:52.000Z</time></trkpt>
<trkpt lat="42.084151" lon="23.620845"><ele>1911.8</ele><time>2026-03-08T14:49:53.000Z</time></trkpt>
<trkpt lat="42.084139" lon="23.620843"><ele>1911.8</ele><time>2026-03-08T14:49:54.000Z</time></trkpt>
<trkpt lat="42.084127" lon="23.620841"><ele>1911.8</ele><time>2026-03-08T14:49:55.000Z</time></trkpt>
<trkpt lat="42.084114" lon="23.620837"><ele>1911.8</ele><time>2026-03-08T14:49:56.000Z</time></trkpt>
<trkpt lat="42.084099" lon="23.620833"><ele>1911.2</ele><time>2026-03-08T14:49:57.000Z</time></trkpt>
<trkpt lat="42.084085" lon="23.620827"><ele>1911.2</ele><time>2026-03-08T14:49:58.000Z</time></trkpt>
<trkpt lat="42.084071" lon="23.620821"><ele>1911.2</ele><time>2026-03-08T14:49:59.000Z</time></trkpt>
<trkpt lat="42.084057" lon="23.620813"><ele>1911.2</ele><time>2026-03-08T14:50:00.000Z</time></trkpt>
<trkpt lat="42.084043" lon="23.620805"><ele>1911.2</ele><time>2026-03-08T14:50:01.000Z</time></trkpt>
<trkpt lat="42.08403" lon="23.620797"><ele>1910.9</ele><time>2026-03-08T14:50:02.000Z</time></trkpt>
<trkpt lat="42.084019" lon="23.620789"><ele>1910.9</ele><time>2026-03-08T14:50:03.000Z</time></trkpt>
<trkpt lat="42.084008" lon="23.620781"><ele>1910.9</ele><time>2026-03-08T14:50:04.000Z</time></trkpt>
<trkpt lat="42.083998" lon="23.620772"><ele>1910.9</ele><time>2026-03-08T14:50:05.000Z</time></trkpt>
<trkpt lat="42.083987" lon="23.620763"><ele>1910.9</ele><time>2026-03-08T14:50:06.000Z</time></trkpt>
<trkpt lat="42.083976" lon="23.620755"><ele>1910.6</ele><time>2026-03-08T14:50:07.000Z</time></trkpt>
<trkpt lat="42.083964" lon="23.620745"><ele>1910.6</ele><time>2026-03-08T14:50:08.000Z</time></trkpt>
<trkpt lat="42.083952" lon="23.620736"><ele>1910.6</ele><time>2026-03-08T14:50:09.000Z</time></trkpt>
<trkpt lat="42.083941" lon="23.620726"><ele>1910.6</ele><time>2026-03-08T14:50:10.000Z</time></trkpt>
<trkpt lat="42.08393" lon="23.620714"><ele>1910.6</ele><time>2026-03-08T14:50:11.000Z</time></trkpt>
<trkpt lat="42.083919" lon="23.620701"><ele>1910.1</ele><time>2026-03-08T14:50:12.000Z</time></trkpt>
<trkpt lat="42.083909" lon="23.620688"><ele>1910.1</ele><time>2026-03-08T14:50:13.000Z</time></trkpt>
<trkpt lat="42.083899" lon="23.620677"><ele>1910.1</ele><time>2026-03-08T14:50:14.000Z</time></trkpt>
<trkpt lat="42.083889" lon="23.620664"><ele>1910.1</ele><time>2026-03-08T14:50:15.000Z</time></trkpt>
<trkpt lat="42.083879" lon="23.620653"><ele>1910.1</ele><time>2026-03-08T14:50:16.000Z</time></trkpt>
<trkpt lat="42.08387" lon="23.620642"><ele>1909.8</ele><time>2026-03-08T14:50:17.000Z</time></trkpt>
<trkpt lat="42.083859" lon="23.620632"><ele>1909.8</ele><time>2026-03-08T14:50:18.000Z</time></trkpt>
<trkpt lat="42.083849" lon="23.620621"><ele>1909.8</ele><time>2026-03-08T14:50:19.000Z</time></trkpt>
<trkpt lat="42.083837" lon="23.620612"><ele>1909.8</ele><time>2026-03-08T14:50:20.000Z</time></trkpt>
<trkpt lat="42.083825" lon="23.620603"><ele>1909.8</ele><time>2026-03-08T14:50:21.000Z</time></trkpt>
<trkpt lat="42.083812" lon="23.620594"><ele>1909.2</ele><time>2026-03-08T14:50:22.000Z</time></trkpt>
<trkpt lat="42.0838" lon="23.620585"><ele>1909.2</ele><time>2026-03-08T14:50:23.000Z</time></trkpt>
<trkpt lat="42.083789" lon="23.620576"><ele>1909.2</ele><time>2026-03-08T14:50:24.000Z</time></trkpt>
<trkpt lat="42.083778" lon="23.620567"><ele>1909.2</ele><time>2026-03-08T14:50:25.000Z</time></trkpt>
<trkpt lat="42.083768" lon="23.620559"><ele>1909.2</ele><time>2026-03-08T14:50:26.000Z</time></trkpt>
<trkpt lat="42.083758" lon="23.62055"><ele>1908.6</ele><time>2026-03-08T14:50:27.000Z</time></trkpt>
<trkpt lat="42.083747" lon="23.620543"><ele>1908.6</ele><time>2026-03-08T14:50:28.000Z</time></trkpt>
<trkpt lat="42.083736" lon="23.620535"><ele>1908.6</ele><time>2026-03-08T14:50:29.000Z</time></trkpt>
<trkpt lat="42.083723" lon="23.620527"><ele>1908.6</ele><time>2026-03-08T14:50:30.000Z</time></trkpt>
<trkpt lat="42.083711" lon="23.620519"><ele>1908.6</ele><time>2026-03-08T14:50:31.000Z</time></trkpt>
<trkpt lat="42.083699" lon="23.620511"><ele>1908.3</ele><time>2026-03-08T14:50:32.000Z</time></trkpt>
<trkpt lat="42.083687" lon="23.620503"><ele>1908.3</ele><time>2026-03-08T14:50:33.000Z</time></trkpt>
<trkpt lat="42.083676" lon="23.620495"><ele>1908.3</ele><time>2026-03-08T14:50:34.000Z</time></trkpt>
<trkpt lat="42.083665" lon="23.620489"><ele>1908.3</ele><time>2026-03-08T14:50:35.000Z</time></trkpt>
<trkpt lat="42.083654" lon="23.620482"><ele>1908.3</ele><time>2026-03-08T14:50:36.000Z</time></trkpt>
<trkpt lat="42.083643" lon="23.620475"><ele>1907.7</ele><time>2026-03-08T14:50:37.000Z</time></trkpt>
<trkpt lat="42.083632" lon="23.620469"><ele>1907.7</ele><time>2026-03-08T14:50:38.000Z</time></trkpt>
<trkpt lat="42.083621" lon="23.620464"><ele>1907.7</ele><time>2026-03-08T14:50:39.000Z</time></trkpt>
<trkpt lat="42.083608" lon="23.620459"><ele>1907.7</ele><time>2026-03-08T14:50:40.000Z</time></trkpt>
<trkpt lat="42.083596" lon="23.620454"><ele>1907.7</ele><time>2026-03-08T14:50:41.000Z</time></trkpt>
<trkpt lat="42.083584" lon="23.62045"><ele>1907.1</ele><time>2026-03-08T14:50:42.000Z</time></trkpt>
<trkpt lat="42.083571" lon="23.620447"><ele>1907.1</ele><time>2026-03-08T14:50:43.000Z</time></trkpt>
<trkpt lat="42.083559" lon="23.620443"><ele>1907.1</ele><time>2026-03-08T14:50:44.000Z</time></trkpt>
<trkpt lat="42.083548" lon="23.620439"><ele>1907.1</ele><time>2026-03-08T14:50:45.000Z</time></trkpt>
<trkpt lat="42.083537" lon="23.620434"><ele>1907.1</ele><time>2026-03-08T14:50:46.000Z</time></trkpt>
<trkpt lat="42.083526" lon="23.620431"><ele>1906.7</ele><time>2026-03-08T14:50:47.000Z</time></trkpt>
<trkpt lat="42.083515" lon="23.620427"><ele>1906.7</ele><time>2026-03-08T14:50:48.000Z</time></trkpt>
<trkpt lat="42.083504" lon="23.620425"><ele>1906.7</ele><time>2026-03-08T14:50:49.000Z</time></trkpt>
<trkpt lat="42.083494" lon="23.620425"><ele>1906.7</ele><time>2026-03-08T14:50:50.000Z</time></trkpt>
<trkpt lat="42.083483" lon="23.620425"><ele>1906.7</ele><time>2026-03-08T14:50:51.000Z</time></trkpt>
<trkpt lat="42.083471" lon="23.620425"><ele>1906</ele><time>2026-03-08T14:50:52.000Z</time></trkpt>
<trkpt lat="42.08346" lon="23.620425"><ele>1906</ele><time>2026-03-08T14:50:53.000Z</time></trkpt>
<trkpt lat="42.083449" lon="23.620424"><ele>1906</ele><time>2026-03-08T14:50:54.000Z</time></trkpt>
<trkpt lat="42.083438" lon="23.620423"><ele>1906</ele><time>2026-03-08T14:50:55.000Z</time></trkpt>
<trkpt lat="42.083427" lon="23.620424"><ele>1906</ele><time>2026-03-08T14:50:56.000Z</time></trkpt>
<trkpt lat="42.083417" lon="23.620425"><ele>1905.4</ele><time>2026-03-08T14:50:57.000Z</time></trkpt>
<trkpt lat="42.083407" lon="23.620426"><ele>1905.4</ele><time>2026-03-08T14:50:58.000Z</time></trkpt>
<trkpt lat="42.083398" lon="23.620428"><ele>1905.4</ele><time>2026-03-08T14:50:59.000Z</time></trkpt>
<trkpt lat="42.08339" lon="23.620431"><ele>1905.4</ele><time>2026-03-08T14:51:00.000Z</time></trkpt>
<trkpt lat="42.083382" lon="23.620432"><ele>1905.4</ele><time>2026-03-08T14:51:01.000Z</time></trkpt>
<trkpt lat="42.083374" lon="23.620433"><ele>1905.1</ele><time>2026-03-08T14:51:02.000Z</time></trkpt>
<trkpt lat="42.083365" lon="23.620432"><ele>1905.1</ele><time>2026-03-08T14:51:03.000Z</time></trkpt>
<trkpt lat="42.083356" lon="23.620431"><ele>1905.1</ele><time>2026-03-08T14:51:04.000Z</time></trkpt>
<trkpt lat="42.083347" lon="23.620427"><ele>1905.1</ele><time>2026-03-08T14:51:05.000Z</time></trkpt>
<trkpt lat="42.08334" lon="23.620423"><ele>1905.1</ele><time>2026-03-08T14:51:06.000Z</time></trkpt>
<trkpt lat="42.083333" lon="23.620419"><ele>1904.6</ele><time>2026-03-08T14:51:07.000Z</time></trkpt>
<trkpt lat="42.08333" lon="23.620415"><ele>1904.6</ele><time>2026-03-08T14:51:08.000Z</time></trkpt>
<trkpt lat="42.083329" lon="23.620411"><ele>1904.6</ele><time>2026-03-08T14:51:09.000Z</time></trkpt>
<trkpt lat="42.083328" lon="23.620408"><ele>1904.6</ele><time>2026-03-08T14:51:10.000Z</time></trkpt>
<trkpt lat="42.083328" lon="23.620406"><ele>1904.6</ele><time>2026-03-08T14:51:11.000Z</time></trkpt>
<trkpt lat="42.083327" lon="23.620403"><ele>1904.1</ele><time>2026-03-08T14:51:12.000Z</time></trkpt>
<trkpt lat="42.083323" lon="23.620403"><ele>1904.1</ele><time>2026-03-08T14:51:13.000Z</time></trkpt>
<trkpt lat="42.083318" lon="23.620402"><ele>1904.1</ele><time>2026-03-08T14:51:14.000Z</time></trkpt>
<trkpt lat="42.083313" lon="23.620403"><ele>1904.1</ele><time>2026-03-08T14:51:15.000Z</time></trkpt>
<trkpt lat="42.083307" lon="23.620403"><ele>1904.1</ele><time>2026-03-08T14:51:16.000Z</time></trkpt>
<trkpt lat="42.083303" lon="23.620404"><ele>1904</ele><time>2026-03-08T14:51:17.000Z</time></trkpt>
<trkpt lat="42.083299" lon="23.620406"><ele>1904</ele><time>2026-03-08T14:51:18.000Z</time></trkpt>
<trkpt lat="42.083295" lon="23.620409"><ele>1904</ele><time>2026-03-08T14:51:19.000Z</time></trkpt>
<trkpt lat="42.083292" lon="23.620411"><ele>1904</ele><time>2026-03-08T14:51:20.000Z</time></trkpt>
<trkpt lat="42.08329" lon="23.620413"><ele>1904</ele><time>2026-03-08T14:51:21.000Z</time></trkpt>
<trkpt lat="42.083289" lon="23.620416"><ele>1903.8</ele><time>2026-03-08T14:51:22.000Z</time></trkpt>
<trkpt lat="42.08329" lon="23.620416"><ele>1903.8</ele><time>2026-03-08T14:51:23.000Z</time></trkpt>
<trkpt lat="42.083291" lon="23.620417"><ele>1903.8</ele><time>2026-03-08T14:51:24.000Z</time></trkpt>
<trkpt lat="42.083293" lon="23.620418"><ele>1903.8</ele><time>2026-03-08T14:51:25.000Z</time></trkpt>
<trkpt lat="42.083293" lon="23.62042"><ele>1903.8</ele><time>2026-03-08T14:51:26.000Z</time></trkpt>
<trkpt lat="42.083293" lon="23.62042"><ele>1903.6</ele><time>2026-03-08T14:51:27.000Z</time></trkpt>
<trkpt lat="42.083293" lon="23.620422"><ele>1903.6</ele><time>2026-03-08T14:51:28.000Z</time></trkpt>
<trkpt lat="42.083293" lon="23.620423"><ele>1903.6</ele><time>2026-03-08T14:51:29.000Z</time></trkpt>
<trkpt lat="42.083294" lon="23.620424"><ele>1903.6</ele><time>2026-03-08T14:51:30.000Z</time></trkpt>
<trkpt lat="42.083293" lon="23.620426"><ele>1903.6</ele><time>2026-03-08T14:51:31.000Z</time></trkpt>
<trkpt lat="42.083291" lon="23.620429"><ele>1903.5</ele><time>2026-03-08T14:51:32.000Z</time></trkpt>
<trkpt lat="42.083287" lon="23.620432"><ele>1903.5</ele><time>2026-03-08T14:51:33.000Z</time></trkpt>
<trkpt lat="42.083281" lon="23.620435"><ele>1903.5</ele><time>2026-03-08T14:51:34.000Z</time></trkpt>
<trkpt lat="42.083273" lon="23.620438"><ele>1903.5</ele><time>2026-03-08T14:51:35.000Z</time></trkpt>
<trkpt lat="42.083264" lon="23.620441"><ele>1903.5</ele><time>2026-03-08T14:51:36.000Z</time></trkpt>
<trkpt lat="42.083254" lon="23.620444"><ele>1903.1</ele><time>2026-03-08T14:51:37.000Z</time></trkpt>
<trkpt lat="42.083243" lon="23.620447"><ele>1903.1</ele><time>2026-03-08T14:51:38.000Z</time></trkpt>
<trkpt lat="42.083232" lon="23.620449"><ele>1903.1</ele><time>2026-03-08T14:51:39.000Z</time></trkpt>
<trkpt lat="42.08322" lon="23.620452"><ele>1903.1</ele><time>2026-03-08T14:51:40.000Z</time></trkpt>
<trkpt lat="42.083208" lon="23.620455"><ele>1903.1</ele><time>2026-03-08T14:51:41.000Z</time></trkpt>
<trkpt lat="42.083197" lon="23.620459"><ele>1902.9</ele><time>2026-03-08T14:51:42.000Z</time></trkpt>
<trkpt lat="42.083186" lon="23.620462"><ele>1902.9</ele><time>2026-03-08T14:51:43.000Z</time></trkpt>
<trkpt lat="42.083176" lon="23.620465"><ele>1902.9</ele><time>2026-03-08T14:51:44.000Z</time></trkpt>
<trkpt lat="42.083166" lon="23.62047"><ele>1902.9</ele><time>2026-03-08T14:51:45.000Z</time></trkpt>
<trkpt lat="42.083155" lon="23.620473"><ele>1902.9</ele><time>2026-03-08T14:51:46.000Z</time></trkpt>
<trkpt lat="42.083144" lon="23.620477"><ele>1902.7</ele><time>2026-03-08T14:51:47.000Z</time></trkpt>
<trkpt lat="42.083132" lon="23.620481"><ele>1902.7</ele><time>2026-03-08T14:51:48.000Z</time></trkpt>
<trkpt lat="42.08312" lon="23.620485"><ele>1902.7</ele><time>2026-03-08T14:51:49.000Z</time></trkpt>
<trkpt lat="42.083108" lon="23.620487"><ele>1902.7</ele><time>2026-03-08T14:51:50.000Z</time></trkpt>
<trkpt lat="42.083095" lon="23.620491"><ele>1902.7</ele><time>2026-03-08T14:51:51.000Z</time></trkpt>
<trkpt lat="42.083083" lon="23.620494"><ele>1902.3</ele><time>2026-03-08T14:51:52.000Z</time></trkpt>
<trkpt lat="42.083072" lon="23.620496"><ele>1902.3</ele><time>2026-03-08T14:51:53.000Z</time></trkpt>
<trkpt lat="42.083059" lon="23.620501"><ele>1902.3</ele><time>2026-03-08T14:51:54.000Z</time></trkpt>
<trkpt lat="42.083047" lon="23.620506"><ele>1902.3</ele><time>2026-03-08T14:51:55.000Z</time></trkpt>
<trkpt lat="42.083036" lon="23.620511"><ele>1902.3</ele><time>2026-03-08T14:51:56.000Z</time></trkpt>
<trkpt lat="42.083024" lon="23.620517"><ele>1901.6</ele><time>2026-03-08T14:51:57.000Z</time></trkpt>
<trkpt lat="42.083012" lon="23.620524"><ele>1901.6</ele><time>2026-03-08T14:51:58.000Z</time></trkpt>
<trkpt lat="42.083" lon="23.62053"><ele>1901.6</ele><time>2026-03-08T14:51:59.000Z</time></trkpt>
<trkpt lat="42.082987" lon="23.620537"><ele>1901.6</ele><time>2026-03-08T14:52:00.000Z</time></trkpt>
<trkpt lat="42.082975" lon="23.620543"><ele>1901.6</ele><time>2026-03-08T14:52:01.000Z</time></trkpt>
<trkpt lat="42.082963" lon="23.620548"><ele>1901.2</ele><time>2026-03-08T14:52:02.000Z</time></trkpt>
<trkpt lat="42.082952" lon="23.620552"><ele>1901.2</ele><time>2026-03-08T14:52:03.000Z</time></trkpt>
<trkpt lat="42.082942" lon="23.620558"><ele>1901.2</ele><time>2026-03-08T14:52:04.000Z</time></trkpt>
<trkpt lat="42.082933" lon="23.620562"><ele>1901.2</ele><time>2026-03-08T14:52:05.000Z</time></trkpt>
<trkpt lat="42.082925" lon="23.620566"><ele>1901.2</ele><time>2026-03-08T14:52:06.000Z</time></trkpt>
<trkpt lat="42.082918" lon="23.620571"><ele>1900.3</ele><time>2026-03-08T14:52:07.000Z</time></trkpt>
<trkpt lat="42.082911" lon="23.620574"><ele>1900.3</ele><time>2026-03-08T14:52:08.000Z</time></trkpt>
<trkpt lat="42.082905" lon="23.620577"><ele>1900.3</ele><time>2026-03-08T14:52:09.000Z</time></trkpt>
<trkpt lat="42.082898" lon="23.62058"><ele>1900.3</ele><time>2026-03-08T14:52:10.000Z</time></trkpt>
<trkpt lat="42.08289" lon="23.620583"><ele>1900.3</ele><time>2026-03-08T14:52:11.000Z</time></trkpt>
<trkpt lat="42.082881" lon="23.620585"><ele>1899.7</ele><time>2026-03-08T14:52:12.000Z</time></trkpt>
<trkpt lat="42.082873" lon="23.620587"><ele>1899.7</ele><time>2026-03-08T14:52:13.000Z</time></trkpt>
<trkpt lat="42.082865" lon="23.620588"><ele>1899.7</ele><time>2026-03-08T14:52:14.000Z</time></trkpt>
<trkpt lat="42.082856" lon="23.620589"><ele>1899.7</ele><time>2026-03-08T14:52:15.000Z</time></trkpt>
<trkpt lat="42.082848" lon="23.620591"><ele>1899.7</ele><time>2026-03-08T14:52:16.000Z</time></trkpt>
<trkpt lat="42.082841" lon="23.620592"><ele>1899.5</ele><time>2026-03-08T14:52:17.000Z</time></trkpt>
<trkpt lat="42.082835" lon="23.620592"><ele>1899.5</ele><time>2026-03-08T14:52:18.000Z</time></trkpt>
<trkpt lat="42.082831" lon="23.620592"><ele>1899.5</ele><time>2026-03-08T14:52:19.000Z</time></trkpt>
<trkpt lat="42.082828" lon="23.620593"><ele>1899.5</ele><time>2026-03-08T14:52:20.000Z</time></trkpt>
<trkpt lat="42.082826" lon="23.620594"><ele>1899.5</ele><time>2026-03-08T14:52:21.000Z</time></trkpt>
<trkpt lat="42.082824" lon="23.620598"><ele>1899.5</ele><time>2026-03-08T14:52:22.000Z</time></trkpt>
<trkpt lat="42.082821" lon="23.620606"><ele>1899.5</ele><time>2026-03-08T14:52:23.000Z</time></trkpt>
<trkpt lat="42.082819" lon="23.620615"><ele>1899.5</ele><time>2026-03-08T14:52:24.000Z</time></trkpt>
<trkpt lat="42.082818" lon="23.620624"><ele>1899.5</ele><time>2026-03-08T14:52:25.000Z</time></trkpt>
<trkpt lat="42.08282" lon="23.620635"><ele>1899.5</ele><time>2026-03-08T14:52:26.000Z</time></trkpt>
<trkpt lat="42.082822" lon="23.620647"><ele>1899.5</ele><time>2026-03-08T14:52:27.000Z</time></trkpt>
<trkpt lat="42.082826" lon="23.620659"><ele>1899.5</ele><time>2026-03-08T14:52:28.000Z</time></trkpt>
<trkpt lat="42.08283" lon="23.62067"><ele>1899.5</ele><time>2026-03-08T14:52:29.000Z</time></trkpt>
<trkpt lat="42.082836" lon="23.620681"><ele>1899.5</ele><time>2026-03-08T14:52:30.000Z</time></trkpt>
<trkpt lat="42.082841" lon="23.620692"><ele>1899.5</ele><time>2026-03-08T14:52:31.000Z</time></trkpt>
<trkpt lat="42.082845" lon="23.620702"><ele>1899.4</ele><time>2026-03-08T14:52:32.000Z</time></trkpt>
<trkpt lat="42.082848" lon="23.620712"><ele>1899.4</ele><time>2026-03-08T14:52:33.000Z</time></trkpt>
<trkpt lat="42.082853" lon="23.620722"><ele>1899.4</ele><time>2026-03-08T14:52:34.000Z</time></trkpt>
<trkpt lat="42.082856" lon="23.620732"><ele>1899.4</ele><time>2026-03-08T14:52:35.000Z</time></trkpt>
<trkpt lat="42.082859" lon="23.620742"><ele>1899.4</ele><time>2026-03-08T14:52:36.000Z</time></trkpt>
<trkpt lat="42.082862" lon="23.620753"><ele>1898.9</ele><time>2026-03-08T14:52:37.000Z</time></trkpt>
<trkpt lat="42.082866" lon="23.620766"><ele>1898.9</ele><time>2026-03-08T14:52:38.000Z</time></trkpt>
<trkpt lat="42.082869" lon="23.620777"><ele>1898.9</ele><time>2026-03-08T14:52:39.000Z</time></trkpt>
<trkpt lat="42.082872" lon="23.62079"><ele>1898.9</ele><time>2026-03-08T14:52:40.000Z</time></trkpt>
<trkpt lat="42.082875" lon="23.620803"><ele>1898.9</ele><time>2026-03-08T14:52:41.000Z</time></trkpt>
<trkpt lat="42.082879" lon="23.620817"><ele>1897.8</ele><time>2026-03-08T14:52:42.000Z</time></trkpt>
<trkpt lat="42.082882" lon="23.62083"><ele>1897.8</ele><time>2026-03-08T14:52:43.000Z</time></trkpt>
<trkpt lat="42.082885" lon="23.620843"><ele>1897.8</ele><time>2026-03-08T14:52:44.000Z</time></trkpt>
<trkpt lat="42.082888" lon="23.620855"><ele>1897.8</ele><time>2026-03-08T14:52:45.000Z</time></trkpt>
<trkpt lat="42.08289" lon="23.620867"><ele>1897.8</ele><time>2026-03-08T14:52:46.000Z</time></trkpt>
<trkpt lat="42.082891" lon="23.620878"><ele>1897.1</ele><time>2026-03-08T14:52:47.000Z</time></trkpt>
<trkpt lat="42.082893" lon="23.620891"><ele>1897.1</ele><time>2026-03-08T14:52:48.000Z</time></trkpt>
<trkpt lat="42.082894" lon="23.620903"><ele>1897.1</ele><time>2026-03-08T14:52:49.000Z</time></trkpt>
<trkpt lat="42.082895" lon="23.620917"><ele>1897.1</ele><time>2026-03-08T14:52:50.000Z</time></trkpt>
<trkpt lat="42.082895" lon="23.62093"><ele>1897.1</ele><time>2026-03-08T14:52:51.000Z</time></trkpt>
<trkpt lat="42.082897" lon="23.620944"><ele>1895.7</ele><time>2026-03-08T14:52:52.000Z</time></trkpt>
<trkpt lat="42.082897" lon="23.620958"><ele>1895.7</ele><time>2026-03-08T14:52:53.000Z</time></trkpt>
<trkpt lat="42.082898" lon="23.620971"><ele>1895.7</ele><time>2026-03-08T14:52:54.000Z</time></trkpt>
<trkpt lat="42.082899" lon="23.620985"><ele>1895.7</ele><time>2026-03-08T14:52:55.000Z</time></trkpt>
<trkpt lat="42.0829" lon="23.620999"><ele>1895.7</ele><time>2026-03-08T14:52:56.000Z</time></trkpt>
<trkpt lat="42.082902" lon="23.621012"><ele>1894.3</ele><time>2026-03-08T14:52:57.000Z</time></trkpt>
<trkpt lat="42.082902" lon="23.621025"><ele>1894.3</ele><time>2026-03-08T14:52:58.000Z</time></trkpt>
<trkpt lat="42.082903" lon="23.621036"><ele>1894.3</ele><time>2026-03-08T14:52:59.000Z</time></trkpt>
<trkpt lat="42.082902" lon="23.621043"><ele>1894.3</ele><time>2026-03-08T14:53:00.000Z</time></trkpt>
<trkpt lat="42.082902" lon="23.621048"><ele>1894.3</ele><time>2026-03-08T14:53:01.000Z</time></trkpt>
<trkpt lat="42.082901" lon="23.621052"><ele>1893.6</ele><time>2026-03-08T14:53:02.000Z</time></trkpt>
<trkpt lat="42.082901" lon="23.621053"><ele>1893.6</ele><time>2026-03-08T14:53:03.000Z</time></trkpt>
<trkpt lat="42.082901" lon="23.621054"><ele>1893.6</ele><time>2026-03-08T14:53:04.000Z</time></trkpt>
<trkpt lat="42.082901" lon="23.621055"><ele>1893.6</ele><time>2026-03-08T14:53:05.000Z</time></trkpt>
<trkpt lat="42.0829" lon="23.621059"><ele>1893.6</ele><time>2026-03-08T14:53:06.000Z</time></trkpt>
<trkpt lat="42.082899" lon="23.621067"><ele>1892</ele><time>2026-03-08T14:53:07.000Z</time></trkpt>
<trkpt lat="42.082898" lon="23.621077"><ele>1892</ele><time>2026-03-08T14:53:08.000Z</time></trkpt>
<trkpt lat="42.082896" lon="23.621092"><ele>1892</ele><time>2026-03-08T14:53:09.000Z</time></trkpt>
<trkpt lat="42.082894" lon="23.621109"><ele>1892</ele><time>2026-03-08T14:53:10.000Z</time></trkpt>
<trkpt lat="42.082892" lon="23.621127"><ele>1892</ele><time>2026-03-08T14:53:11.000Z</time></trkpt>
<trkpt lat="42.082891" lon="23.621145"><ele>1890.6</ele><time>2026-03-08T14:53:12.000Z</time></trkpt>
<trkpt lat="42.08289" lon="23.621164"><ele>1890.6</ele><time>2026-03-08T14:53:13.000Z</time></trkpt>
<trkpt lat="42.08289" lon="23.62118"><ele>1890.6</ele><time>2026-03-08T14:53:14.000Z</time></trkpt>
<trkpt lat="42.082889" lon="23.621197"><ele>1890.6</ele><time>2026-03-08T14:53:15.000Z</time></trkpt>
<trkpt lat="42.082889" lon="23.621213"><ele>1890.6</ele><time>2026-03-08T14:53:16.000Z</time></trkpt>
<trkpt lat="42.082889" lon="23.621229"><ele>1889.9</ele><time>2026-03-08T14:53:17.000Z</time></trkpt>
<trkpt lat="42.082888" lon="23.621245"><ele>1889.9</ele><time>2026-03-08T14:53:18.000Z</time></trkpt>
<trkpt lat="42.082887" lon="23.621261"><ele>1889.9</ele><time>2026-03-08T14:53:19.000Z</time></trkpt>
<trkpt lat="42.082886" lon="23.621278"><ele>1889.9</ele><time>2026-03-08T14:53:20.000Z</time></trkpt>
<trkpt lat="42.082885" lon="23.621295"><ele>1889.9</ele><time>2026-03-08T14:53:21.000Z</time></trkpt>
<trkpt lat="42.082884" lon="23.621312"><ele>1888.4</ele><time>2026-03-08T14:53:22.000Z</time></trkpt>
<trkpt lat="42.082883" lon="23.621329"><ele>1888.4</ele><time>2026-03-08T14:53:23.000Z</time></trkpt>
<trkpt lat="42.082881" lon="23.621346"><ele>1888.4</ele><time>2026-03-08T14:53:24.000Z</time></trkpt>
<trkpt lat="42.082879" lon="23.621363"><ele>1888.4</ele><time>2026-03-08T14:53:25.000Z</time></trkpt>
<trkpt lat="42.082877" lon="23.621379"><ele>1888.4</ele><time>2026-03-08T14:53:26.000Z</time></trkpt>
<trkpt lat="42.082876" lon="23.621394"><ele>1886</ele><time>2026-03-08T14:53:27.000Z</time></trkpt>
<trkpt lat="42.082876" lon="23.62141"><ele>1886</ele><time>2026-03-08T14:53:28.000Z</time></trkpt>
<trkpt lat="42.082878" lon="23.621426"><ele>1886</ele><time>2026-03-08T14:53:29.000Z</time></trkpt>
<trkpt lat="42.082879" lon="23.621442"><ele>1886</ele><time>2026-03-08T14:53:30.000Z</time></trkpt>
<trkpt lat="42.082879" lon="23.621457"><ele>1886</ele><time>2026-03-08T14:53:31.000Z</time></trkpt>
<trkpt lat="42.082879" lon="23.621473"><ele>1884.6</ele><time>2026-03-08T14:53:32.000Z</time></trkpt>
<trkpt lat="42.082878" lon="23.621489"><ele>1884.6</ele><time>2026-03-08T14:53:33.000Z</time></trkpt>
<trkpt lat="42.082877" lon="23.621504"><ele>1884.6</ele><time>2026-03-08T14:53:34.000Z</time></trkpt>
<trkpt lat="42.082877" lon="23.621519"><ele>1884.6</ele><time>2026-03-08T14:53:35.000Z</time></trkpt>
<trkpt lat="42.082877" lon="23.621535"><ele>1884.6</ele><time>2026-03-08T14:53:36.000Z</time></trkpt>
<trkpt lat="42.082878" lon="23.62155"><ele>1882.1</ele><time>2026-03-08T14:53:37.000Z</time></trkpt>
<trkpt lat="42.082878" lon="23.621564"><ele>1882.1</ele><time>2026-03-08T14:53:38.000Z</time></trkpt>
<trkpt lat="42.082878" lon="23.621578"><ele>1882.1</ele><time>2026-03-08T14:53:39.000Z</time></trkpt>
<trkpt lat="42.082878" lon="23.621592"><ele>1882.1</ele><time>2026-03-08T14:53:40.000Z</time></trkpt>
<trkpt lat="42.082878" lon="23.621605"><ele>1882.1</ele><time>2026-03-08T14:53:41.000Z</time></trkpt>
<trkpt lat="42.082878" lon="23.621619"><ele>1880.1</ele><time>2026-03-08T14:53:42.000Z</time></trkpt>
<trkpt lat="42.082878" lon="23.621633"><ele>1880.1</ele><time>2026-03-08T14:53:43.000Z</time></trkpt>
<trkpt lat="42.082877" lon="23.621647"><ele>1880.1</ele><time>2026-03-08T14:53:44.000Z</time></trkpt>
<trkpt lat="42.082876" lon="23.621662"><ele>1880.1</ele><time>2026-03-08T14:53:45.000Z</time></trkpt>
<trkpt lat="42.082874" lon="23.621677"><ele>1880.1</ele><time>2026-03-08T14:53:46.000Z</time></trkpt>
<trkpt lat="42.082871" lon="23.621691"><ele>1879.2</ele><time>2026-03-08T14:53:47.000Z</time></trkpt>
<trkpt lat="42.082867" lon="23.621705"><ele>1879.2</ele><time>2026-03-08T14:53:48.000Z</time></trkpt>
<trkpt lat="42.082863" lon="23.62172"><ele>1879.2</ele><time>2026-03-08T14:53:49.000Z</time></trkpt>
<trkpt lat="42.082858" lon="23.621735"><ele>1879.2</ele><time>2026-03-08T14:53:50.000Z</time></trkpt>
<trkpt lat="42.082853" lon="23.621751"><ele>1879.2</ele><time>2026-03-08T14:53:51.000Z</time></trkpt>
<trkpt lat="42.082849" lon="23.621768"><ele>1877.2</ele><time>2026-03-08T14:53:52.000Z</time></trkpt>
<trkpt lat="42.082845" lon="23.621784"><ele>1877.2</ele><time>2026-03-08T14:53:53.000Z</time></trkpt>
<trkpt lat="42.08284" lon="23.621801"><ele>1877.2</ele><time>2026-03-08T14:53:54.000Z</time></trkpt>
<trkpt lat="42.082836" lon="23.621818"><ele>1877.2</ele><time>2026-03-08T14:53:55.000Z</time></trkpt>
<trkpt lat="42.082832" lon="23.621835"><ele>1877.2</ele><time>2026-03-08T14:53:56.000Z</time></trkpt>
<trkpt lat="42.082829" lon="23.621851"><ele>1875</ele><time>2026-03-08T14:53:57.000Z</time></trkpt>
<trkpt lat="42.082826" lon="23.621869"><ele>1875</ele><time>2026-03-08T14:53:58.000Z</time></trkpt>
<trkpt lat="42.082823" lon="23.621885"><ele>1875</ele><time>2026-03-08T14:53:59.000Z</time></trkpt>
<trkpt lat="42.08282" lon="23.6219"><ele>1875</ele><time>2026-03-08T14:54:00.000Z</time></trkpt>
<trkpt lat="42.082817" lon="23.621914"><ele>1875</ele><time>2026-03-08T14:54:01.000Z</time></trkpt>
<trkpt lat="42.082814" lon="23.621928"><ele>1873.9</ele><time>2026-03-08T14:54:02.000Z</time></trkpt>
<trkpt lat="42.082812" lon="23.621942"><ele>1873.9</ele><time>2026-03-08T14:54:03.000Z</time></trkpt>
<trkpt lat="42.082809" lon="23.621956"><ele>1873.9</ele><time>2026-03-08T14:54:04.000Z</time></trkpt>
<trkpt lat="42.082807" lon="23.621971"><ele>1873.9</ele><time>2026-03-08T14:54:05.000Z</time></trkpt>
<trkpt lat="42.082804" lon="23.621986"><ele>1873.9</ele><time>2026-03-08T14:54:06.000Z</time></trkpt>
<trkpt lat="42.082801" lon="23.622"><ele>1871.7</ele><time>2026-03-08T14:54:07.000Z</time></trkpt>
<trkpt lat="42.082799" lon="23.622014"><ele>1871.7</ele><time>2026-03-08T14:54:08.000Z</time></trkpt>
<trkpt lat="42.082798" lon="23.622028"><ele>1871.7</ele><time>2026-03-08T14:54:09.000Z</time></trkpt>
<trkpt lat="42.082797" lon="23.622042"><ele>1871.7</ele><time>2026-03-08T14:54:10.000Z</time></trkpt>
<trkpt lat="42.082797" lon="23.622057"><ele>1871.7</ele><time>2026-03-08T14:54:11.000Z</time></trkpt>
<trkpt lat="42.082796" lon="23.622073"><ele>1870</ele><time>2026-03-08T14:54:12.000Z</time></trkpt>
<trkpt lat="42.082795" lon="23.62209"><ele>1870</ele><time>2026-03-08T14:54:13.000Z</time></trkpt>
<trkpt lat="42.082793" lon="23.622104"><ele>1870</ele><time>2026-03-08T14:54:14.000Z</time></trkpt>
<trkpt lat="42.08279" lon="23.622116"><ele>1870</ele><time>2026-03-08T14:54:15.000Z</time></trkpt>
<trkpt lat="42.082788" lon="23.622123"><ele>1870</ele><time>2026-03-08T14:54:16.000Z</time></trkpt>
<trkpt lat="42.082786" lon="23.622127"><ele>1869.3</ele><time>2026-03-08T14:54:17.000Z</time></trkpt>
<trkpt lat="42.082784" lon="23.622129"><ele>1869.3</ele><time>2026-03-08T14:54:18.000Z</time></trkpt>
<trkpt lat="42.082782" lon="23.622129"><ele>1869.3</ele><time>2026-03-08T14:54:19.000Z</time></trkpt>
<trkpt lat="42.082781" lon="23.62213"><ele>1869.3</ele><time>2026-03-08T14:54:20.000Z</time></trkpt>
<trkpt lat="42.08278" lon="23.622131"><ele>1869.3</ele><time>2026-03-08T14:54:21.000Z</time></trkpt>
<trkpt lat="42.08278" lon="23.622133"><ele>1868.1</ele><time>2026-03-08T14:54:22.000Z</time></trkpt>
<trkpt lat="42.082781" lon="23.622132"><ele>1868.1</ele><time>2026-03-08T14:54:23.000Z</time></trkpt>
<trkpt lat="42.082782" lon="23.622133"><ele>1868.1</ele><time>2026-03-08T14:54:24.000Z</time></trkpt>
<trkpt lat="42.082783" lon="23.622136"><ele>1868.1</ele><time>2026-03-08T14:54:25.000Z</time></trkpt>
<trkpt lat="42.082783" lon="23.62214"><ele>1868.1</ele><time>2026-03-08T14:54:26.000Z</time></trkpt>
<trkpt lat="42.082782" lon="23.622145"><ele>1867.1</ele><time>2026-03-08T14:54:27.000Z</time></trkpt>
<trkpt lat="42.08278" lon="23.622152"><ele>1867.1</ele><time>2026-03-08T14:54:28.000Z</time></trkpt>
<trkpt lat="42.082779" lon="23.622157"><ele>1867.1</ele><time>2026-03-08T14:54:29.000Z</time></trkpt>
<trkpt lat="42.082777" lon="23.62216"><ele>1867.1</ele><time>2026-03-08T14:54:30.000Z</time></trkpt>
<trkpt lat="42.082776" lon="23.622162"><ele>1867.1</ele><time>2026-03-08T14:54:31.000Z</time></trkpt>
<trkpt lat="42.082776" lon="23.622161"><ele>1866.8</ele><time>2026-03-08T14:54:32.000Z</time></trkpt>
<trkpt lat="42.082777" lon="23.622161"><ele>1866.8</ele><time>2026-03-08T14:54:33.000Z</time></trkpt>
<trkpt lat="42.082778" lon="23.622161"><ele>1866.8</ele><time>2026-03-08T14:54:34.000Z</time></trkpt>
<trkpt lat="42.082779" lon="23.622161"><ele>1866.8</ele><time>2026-03-08T14:54:35.000Z</time></trkpt>
<trkpt lat="42.082779" lon="23.622161"><ele>1866.8</ele><time>2026-03-08T14:54:36.000Z</time></trkpt>
<trkpt lat="42.082779" lon="23.622161"><ele>1866.6</ele><time>2026-03-08T14:54:37.000Z</time></trkpt>
<trkpt lat="42.082778" lon="23.622161"><ele>1866.6</ele><time>2026-03-08T14:54:38.000Z</time></trkpt>
<trkpt lat="42.082778" lon="23.622161"><ele>1866.6</ele><time>2026-03-08T14:54:39.000Z</time></trkpt>
<trkpt lat="42.082779" lon="23.622161"><ele>1866.6</ele><time>2026-03-08T14:54:40.000Z</time></trkpt>
<trkpt lat="42.082779" lon="23.622161"><ele>1866.6</ele><time>2026-03-08T14:54:41.000Z</time></trkpt>
<trkpt lat="42.08278" lon="23.622161"><ele>1866.4</ele><time>2026-03-08T14:54:42.000Z</time></trkpt>
<trkpt lat="42.08278" lon="23.622161"><ele>1866.4</ele><time>2026-03-08T14:54:43.000Z</time></trkpt>
<trkpt lat="42.08278" lon="23.62216"><ele>1866.4</ele><time>2026-03-08T14:54:44.000Z</time></trkpt>
<trkpt lat="42.08278" lon="23.62216"><ele>1866.4</ele><time>2026-03-08T14:54:45.000Z</time></trkpt>
<trkpt lat="42.08278" lon="23.62216"><ele>1866.4</ele><time>2026-03-08T14:54:46.000Z</time></trkpt>
<trkpt lat="42.08278" lon="23.62216"><ele>1866.3</ele><time>2026-03-08T14:54:47.000Z</time></trkpt>
<trkpt lat="42.08278" lon="23.62216"><ele>1866.3</ele><time>2026-03-08T14:54:48.000Z</time></trkpt>
<trkpt lat="42.08278" lon="23.62216"><ele>1866.3</ele><time>2026-03-08T14:54:49.000Z</time></trkpt>
<trkpt lat="42.08278" lon="23.62216"><ele>1866.3</ele><time>2026-03-08T14:54:50.000Z</time></trkpt>
<trkpt lat="42.08278" lon="23.62216"><ele>1866.3</ele><time>2026-03-08T14:54:51.000Z</time></trkpt>
<trkpt lat="42.08278" lon="23.62216"><ele>1866</ele><time>2026-03-08T14:54:52.000Z</time></trkpt>
<trkpt lat="42.08278" lon="23.62216"><ele>1866</ele><time>2026-03-08T14:54:53.000Z</time></trkpt>
<trkpt lat="42.08278" lon="23.62216"><ele>1866</ele><time>2026-03-08T14:54:54.000Z</time></trkpt>
<trkpt lat="42.08278" lon="23.62216"><ele>1866</ele><time>2026-03-08T14:54:55.000Z</time></trkpt>
<trkpt lat="42.08278" lon="23.62216"><ele>1866</ele><time>2026-03-08T14:54:56.000Z</time></trkpt>
<trkpt lat="42.08278" lon="23.622159"><ele>1865.9</ele><time>2026-03-08T14:54:57.000Z</time></trkpt>
<trkpt lat="42.082779" lon="23.622159"><ele>1865.9</ele><time>2026-03-08T14:54:58.000Z</time></trkpt>
<trkpt lat="42.082779" lon="23.622158"><ele>1865.9</ele><time>2026-03-08T14:54:59.000Z</time></trkpt>
<trkpt lat="42.082779" lon="23.622158"><ele>1865.9</ele><time>2026-03-08T14:55:00.000Z</time></trkpt>
<trkpt lat="42.082778" lon="23.622157"><ele>1865.9</ele><time>2026-03-08T14:55:01.000Z</time></trkpt>
<trkpt lat="42.082778" lon="23.622157"><ele>1865.9</ele><time>2026-03-08T14:55:02.000Z</time></trkpt>
<trkpt lat="42.082778" lon="23.622157"><ele>1865.9</ele><time>2026-03-08T14:55:03.000Z</time></trkpt>
<trkpt lat="42.082778" lon="23.622157"><ele>1865.9</ele><time>2026-03-08T14:55:04.000Z</time></trkpt>
<trkpt lat="42.082778" lon="23.622158"><ele>1865.9</ele><time>2026-03-08T14:55:05.000Z</time></trkpt>
<trkpt lat="42.082778" lon="23.622158"><ele>1865.9</ele><time>2026-03-08T14:55:06.000Z</time></trkpt>
<trkpt lat="42.082777" lon="23.622158"><ele>1866</ele><time>2026-03-08T14:55:07.000Z</time></trkpt>
<trkpt lat="42.082777" lon="23.622158"><ele>1866</ele><time>2026-03-08T14:55:08.000Z</time></trkpt>
<trkpt lat="42.082777" lon="23.622158"><ele>1866</ele><time>2026-03-08T14:55:09.000Z</time></trkpt>
<trkpt lat="42.082777" lon="23.622158"><ele>1866</ele><time>2026-03-08T14:55:10.000Z</time></trkpt>
<trkpt lat="42.082777" lon="23.622158"><ele>1866</ele><time>2026-03-08T14:55:11.000Z</time></trkpt>
<trkpt lat="42.082777" lon="23.622158"><ele>1866.1</ele><time>2026-03-08T14:55:12.000Z</time></trkpt>
<trkpt lat="42.082777" lon="23.622158"><ele>1866.1</ele><time>2026-03-08T14:55:13.000Z</time></trkpt>
<trkpt lat="42.082777" lon="23.622158"><ele>1866.1</ele><time>2026-03-08T14:55:14.000Z</time></trkpt>
<trkpt lat="42.082777" lon="23.622158"><ele>1866.1</ele><time>2026-03-08T14:55:15.000Z</time></trkpt>
<trkpt lat="42.082777" lon="23.622158"><ele>1866.1</ele><time>2026-03-08T14:55:16.000Z</time></trkpt>
<trkpt lat="42.082777" lon="23.622158"><ele>1866.1</ele><time>2026-03-08T14:55:17.000Z</time></trkpt>
<trkpt lat="42.082777" lon="23.62216"><ele>1866.1</ele><time>2026-03-08T14:55:18.000Z</time></trkpt>
<trkpt lat="42.082776" lon="23.622164"><ele>1866.1</ele><time>2026-03-08T14:55:19.000Z</time></trkpt>
<trkpt lat="42.082775" lon="23.62217"><ele>1866.1</ele><time>2026-03-08T14:55:20.000Z</time></trkpt>
<trkpt lat="42.082774" lon="23.62218"><ele>1866.1</ele><time>2026-03-08T14:55:21.000Z</time></trkpt>
<trkpt lat="42.082772" lon="23.622193"><ele>1866.2</ele><time>2026-03-08T14:55:22.000Z</time></trkpt>
<trkpt lat="42.082772" lon="23.622208"><ele>1866.2</ele><time>2026-03-08T14:55:23.000Z</time></trkpt>
<trkpt lat="42.082771" lon="23.622223"><ele>1866.2</ele><time>2026-03-08T14:55:24.000Z</time></trkpt>
<trkpt lat="42.082771" lon="23.62224"><ele>1866.2</ele><time>2026-03-08T14:55:25.000Z</time></trkpt>
<trkpt lat="42.082771" lon="23.622256"><ele>1866.2</ele><time>2026-03-08T14:55:26.000Z</time></trkpt>
<trkpt lat="42.082771" lon="23.622273"><ele>1866.1</ele><time>2026-03-08T14:55:27.000Z</time></trkpt>
<trkpt lat="42.082771" lon="23.62229"><ele>1866.1</ele><time>2026-03-08T14:55:28.000Z</time></trkpt>
<trkpt lat="42.08277" lon="23.622306"><ele>1866.1</ele><time>2026-03-08T14:55:29.000Z</time></trkpt>
<trkpt lat="42.082771" lon="23.622323"><ele>1866.1</ele><time>2026-03-08T14:55:30.000Z</time></trkpt>
<trkpt lat="42.082771" lon="23.622339"><ele>1866.1</ele><time>2026-03-08T14:55:31.000Z</time></trkpt>
<trkpt lat="42.082772" lon="23.622356"><ele>1866</ele><time>2026-03-08T14:55:32.000Z</time></trkpt>
<trkpt lat="42.082774" lon="23.622371"><ele>1866</ele><time>2026-03-08T14:55:33.000Z</time></trkpt>
<trkpt lat="42.082776" lon="23.622387"><ele>1866</ele><time>2026-03-08T14:55:34.000Z</time></trkpt>
<trkpt lat="42.082778" lon="23.622403"><ele>1866</ele><time>2026-03-08T14:55:35.000Z</time></trkpt>
<trkpt lat="42.082782" lon="23.622419"><ele>1866</ele><time>2026-03-08T14:55:36.000Z</time></trkpt>
<trkpt lat="42.082785" lon="23.622435"><ele>1864.9</ele><time>2026-03-08T14:55:37.000Z</time></trkpt>
<trkpt lat="42.082789" lon="23.622451"><ele>1864.9</ele><time>2026-03-08T14:55:38.000Z</time></trkpt>
<trkpt lat="42.082792" lon="23.622467"><ele>1864.9</ele><time>2026-03-08T14:55:39.000Z</time></trkpt>
<trkpt lat="42.082796" lon="23.622483"><ele>1864.9</ele><time>2026-03-08T14:55:40.000Z</time></trkpt>
<trkpt lat="42.0828" lon="23.6225"><ele>1864.9</ele><time>2026-03-08T14:55:41.000Z</time></trkpt>
<trkpt lat="42.082803" lon="23.622517"><ele>1863.2</ele><time>2026-03-08T14:55:42.000Z</time></trkpt>
<trkpt lat="42.082805" lon="23.622535"><ele>1863.2</ele><time>2026-03-08T14:55:43.000Z</time></trkpt>
<trkpt lat="42.082807" lon="23.622555"><ele>1863.2</ele><time>2026-03-08T14:55:44.000Z</time></trkpt>
<trkpt lat="42.082807" lon="23.622575"><ele>1863.2</ele><time>2026-03-08T14:55:45.000Z</time></trkpt>
<trkpt lat="42.082807" lon="23.622595"><ele>1863.2</ele><time>2026-03-08T14:55:46.000Z</time></trkpt>
<trkpt lat="42.082806" lon="23.622614"><ele>1862.2</ele><time>2026-03-08T14:55:47.000Z</time></trkpt>
<trkpt lat="42.082806" lon="23.622634"><ele>1862.2</ele><time>2026-03-08T14:55:48.000Z</time></trkpt>
<trkpt lat="42.082806" lon="23.622652"><ele>1862.2</ele><time>2026-03-08T14:55:49.000Z</time></trkpt>
<trkpt lat="42.082806" lon="23.62267"><ele>1862.2</ele><time>2026-03-08T14:55:50.000Z</time></trkpt>
<trkpt lat="42.082805" lon="23.622689"><ele>1862.2</ele><time>2026-03-08T14:55:51.000Z</time></trkpt>
<trkpt lat="42.082805" lon="23.622706"><ele>1859.9</ele><time>2026-03-08T14:55:52.000Z</time></trkpt>
<trkpt lat="42.082804" lon="23.622723"><ele>1859.9</ele><time>2026-03-08T14:55:53.000Z</time></trkpt>
<trkpt lat="42.082802" lon="23.62274"><ele>1859.9</ele><time>2026-03-08T14:55:54.000Z</time></trkpt>
<trkpt lat="42.0828" lon="23.622756"><ele>1859.9</ele><time>2026-03-08T14:55:55.000Z</time></trkpt>
<trkpt lat="42.082797" lon="23.622772"><ele>1859.9</ele><time>2026-03-08T14:55:56.000Z</time></trkpt>
<trkpt lat="42.082795" lon="23.622788"><ele>1857.2</ele><time>2026-03-08T14:55:57.000Z</time></trkpt>
<trkpt lat="42.082793" lon="23.622804"><ele>1857.2</ele><time>2026-03-08T14:55:58.000Z</time></trkpt>
<trkpt lat="42.082792" lon="23.622819"><ele>1857.2</ele><time>2026-03-08T14:55:59.000Z</time></trkpt>
<trkpt lat="42.082791" lon="23.622834"><ele>1857.2</ele><time>2026-03-08T14:56:00.000Z</time></trkpt>
<trkpt lat="42.08279" lon="23.622848"><ele>1857.2</ele><time>2026-03-08T14:56:01.000Z</time></trkpt>
<trkpt lat="42.082789" lon="23.622863"><ele>1855.7</ele><time>2026-03-08T14:56:02.000Z</time></trkpt>
<trkpt lat="42.082789" lon="23.622877"><ele>1855.7</ele><time>2026-03-08T14:56:03.000Z</time></trkpt>
<trkpt lat="42.082788" lon="23.62289"><ele>1855.7</ele><time>2026-03-08T14:56:04.000Z</time></trkpt>
<trkpt lat="42.082787" lon="23.622903"><ele>1855.7</ele><time>2026-03-08T14:56:05.000Z</time></trkpt>
<trkpt lat="42.082785" lon="23.622916"><ele>1855.7</ele><time>2026-03-08T14:56:06.000Z</time></trkpt>
<trkpt lat="42.082784" lon="23.62293"><ele>1852.9</ele><time>2026-03-08T14:56:07.000Z</time></trkpt>
<trkpt lat="42.082782" lon="23.622942"><ele>1852.9</ele><time>2026-03-08T14:56:08.000Z</time></trkpt>
<trkpt lat="42.08278" lon="23.622955"><ele>1852.9</ele><time>2026-03-08T14:56:09.000Z</time></trkpt>
<trkpt lat="42.082777" lon="23.622968"><ele>1852.9</ele><time>2026-03-08T14:56:10.000Z</time></trkpt>
<trkpt lat="42.082773" lon="23.62298"><ele>1852.9</ele><time>2026-03-08T14:56:11.000Z</time></trkpt>
<trkpt lat="42.082767" lon="23.622991"><ele>1850.3</ele><time>2026-03-08T14:56:12.000Z</time></trkpt>
<trkpt lat="42.08276" lon="23.623003"><ele>1850.3</ele><time>2026-03-08T14:56:13.000Z</time></trkpt>
<trkpt lat="42.082751" lon="23.623015"><ele>1850.3</ele><time>2026-03-08T14:56:14.000Z</time></trkpt>
<trkpt lat="42.082741" lon="23.623023"><ele>1850.3</ele><time>2026-03-08T14:56:15.000Z</time></trkpt>
<trkpt lat="42.08273" lon="23.62303"><ele>1850.3</ele><time>2026-03-08T14:56:16.000Z</time></trkpt>
<trkpt lat="42.08272" lon="23.623035"><ele>1849.2</ele><time>2026-03-08T14:56:17.000Z</time></trkpt>
<trkpt lat="42.08271" lon="23.623039"><ele>1849.2</ele><time>2026-03-08T14:56:18.000Z</time></trkpt>
<trkpt lat="42.082702" lon="23.623043"><ele>1849.2</ele><time>2026-03-08T14:56:19.000Z</time></trkpt>
<trkpt lat="42.082694" lon="23.623049"><ele>1849.2</ele><time>2026-03-08T14:56:20.000Z</time></trkpt>
<trkpt lat="42.082685" lon="23.623056"><ele>1849.2</ele><time>2026-03-08T14:56:21.000Z</time></trkpt>
<trkpt lat="42.082676" lon="23.623063"><ele>1847.1</ele><time>2026-03-08T14:56:22.000Z</time></trkpt>
<trkpt lat="42.082665" lon="23.623068"><ele>1847.1</ele><time>2026-03-08T14:56:23.000Z</time></trkpt>
<trkpt lat="42.082653" lon="23.623073"><ele>1847.1</ele><time>2026-03-08T14:56:24.000Z</time></trkpt>
<trkpt lat="42.08264" lon="23.623076"><ele>1847.1</ele><time>2026-03-08T14:56:25.000Z</time></trkpt>
<trkpt lat="42.082629" lon="23.62308"><ele>1847.1</ele><time>2026-03-08T14:56:26.000Z</time></trkpt>
<trkpt lat="42.082618" lon="23.623084"><ele>1845</ele><time>2026-03-08T14:56:27.000Z</time></trkpt>
<trkpt lat="42.082607" lon="23.623091"><ele>1845</ele><time>2026-03-08T14:56:28.000Z</time></trkpt>
<trkpt lat="42.082597" lon="23.6231"><ele>1845</ele><time>2026-03-08T14:56:29.000Z</time></trkpt>
<trkpt lat="42.082587" lon="23.623112"><ele>1845</ele><time>2026-03-08T14:56:30.000Z</time></trkpt>
<trkpt lat="42.082577" lon="23.623125"><ele>1845</ele><time>2026-03-08T14:56:31.000Z</time></trkpt>
<trkpt lat="42.082567" lon="23.623138"><ele>1844.1</ele><time>2026-03-08T14:56:32.000Z</time></trkpt>
<trkpt lat="42.082557" lon="23.623153"><ele>1844.1</ele><time>2026-03-08T14:56:33.000Z</time></trkpt>
<trkpt lat="42.082546" lon="23.623164"><ele>1844.1</ele><time>2026-03-08T14:56:34.000Z</time></trkpt>
<trkpt lat="42.082535" lon="23.623174"><ele>1844.1</ele><time>2026-03-08T14:56:35.000Z</time></trkpt>
<trkpt lat="42.082523" lon="23.623183"><ele>1844.1</ele><time>2026-03-08T14:56:36.000Z</time></trkpt>
<trkpt lat="42.082512" lon="23.62319"><ele>1842.6</ele><time>2026-03-08T14:56:37.000Z</time></trkpt>
<trkpt lat="42.0825" lon="23.623197"><ele>1842.6</ele><time>2026-03-08T14:56:38.000Z</time></trkpt>
<trkpt lat="42.082489" lon="23.623206"><ele>1842.6</ele><time>2026-03-08T14:56:39.000Z</time></trkpt>
<trkpt lat="42.082476" lon="23.623216"><ele>1842.6</ele><time>2026-03-08T14:56:40.000Z</time></trkpt>
<trkpt lat="42.082465" lon="23.623224"><ele>1842.6</ele><time>2026-03-08T14:56:41.000Z</time></trkpt>
<trkpt lat="42.082454" lon="23.623234"><ele>1841.3</ele><time>2026-03-08T14:56:42.000Z</time></trkpt>
<trkpt lat="42.082443" lon="23.623243"><ele>1841.3</ele><time>2026-03-08T14:56:43.000Z</time></trkpt>
<trkpt lat="42.082432" lon="23.623251"><ele>1841.3</ele><time>2026-03-08T14:56:44.000Z</time></trkpt>
<trkpt lat="42.082422" lon="23.623258"><ele>1841.3</ele><time>2026-03-08T14:56:45.000Z</time></trkpt>
<trkpt lat="42.082411" lon="23.623266"><ele>1841.3</ele><time>2026-03-08T14:56:46.000Z</time></trkpt>
<trkpt lat="42.082399" lon="23.623274"><ele>1840.7</ele><time>2026-03-08T14:56:47.000Z</time></trkpt>
<trkpt lat="42.082388" lon="23.623282"><ele>1840.7</ele><time>2026-03-08T14:56:48.000Z</time></trkpt>
<trkpt lat="42.082377" lon="23.62329"><ele>1840.7</ele><time>2026-03-08T14:56:49.000Z</time></trkpt>
<trkpt lat="42.082366" lon="23.623297"><ele>1840.7</ele><time>2026-03-08T14:56:50.000Z</time></trkpt>
<trkpt lat="42.082357" lon="23.623305"><ele>1840.7</ele><time>2026-03-08T14:56:51.000Z</time></trkpt>
<trkpt lat="42.082347" lon="23.623312"><ele>1839.4</ele><time>2026-03-08T14:56:52.000Z</time></trkpt>
<trkpt lat="42.082336" lon="23.623317"><ele>1839.4</ele><time>2026-03-08T14:56:53.000Z</time></trkpt>
<trkpt lat="42.082325" lon="23.623323"><ele>1839.4</ele><time>2026-03-08T14:56:54.000Z</time></trkpt>
<trkpt lat="42.082312" lon="23.623328"><ele>1839.4</ele><time>2026-03-08T14:56:55.000Z</time></trkpt>
<trkpt lat="42.082299" lon="23.623332"><ele>1839.4</ele><time>2026-03-08T14:56:56.000Z</time></trkpt>
<trkpt lat="42.082285" lon="23.623335"><ele>1838.5</ele><time>2026-03-08T14:56:57.000Z</time></trkpt>
<trkpt lat="42.082271" lon="23.623337"><ele>1838.5</ele><time>2026-03-08T14:56:58.000Z</time></trkpt>
<trkpt lat="42.082259" lon="23.623338"><ele>1838.5</ele><time>2026-03-08T14:56:59.000Z</time></trkpt>
<trkpt lat="42.082247" lon="23.623338"><ele>1838.5</ele><time>2026-03-08T14:57:00.000Z</time></trkpt>
<trkpt lat="42.082235" lon="23.623336"><ele>1838.5</ele><time>2026-03-08T14:57:01.000Z</time></trkpt>
<trkpt lat="42.082225" lon="23.623334"><ele>1838.1</ele><time>2026-03-08T14:57:02.000Z</time></trkpt>
<trkpt lat="42.082215" lon="23.623333"><ele>1838.1</ele><time>2026-03-08T14:57:03.000Z</time></trkpt>
<trkpt lat="42.082205" lon="23.62333"><ele>1838.1</ele><time>2026-03-08T14:57:04.000Z</time></trkpt>
<trkpt lat="42.082194" lon="23.623327"><ele>1838.1</ele><time>2026-03-08T14:57:05.000Z</time></trkpt>
<trkpt lat="42.082183" lon="23.623322"><ele>1838.1</ele><time>2026-03-08T14:57:06.000Z</time></trkpt>
<trkpt lat="42.082171" lon="23.623317"><ele>1837.5</ele><time>2026-03-08T14:57:07.000Z</time></trkpt>
<trkpt lat="42.08216" lon="23.623309"><ele>1837.5</ele><time>2026-03-08T14:57:08.000Z</time></trkpt>
<trkpt lat="42.082147" lon="23.623302"><ele>1837.5</ele><time>2026-03-08T14:57:09.000Z</time></trkpt>
<trkpt lat="42.082135" lon="23.623297"><ele>1837.5</ele><time>2026-03-08T14:57:10.000Z</time></trkpt>
<trkpt lat="42.082123" lon="23.623292"><ele>1837.5</ele><time>2026-03-08T14:57:11.000Z</time></trkpt>
<trkpt lat="42.082111" lon="23.623287"><ele>1836.8</ele><time>2026-03-08T14:57:12.000Z</time></trkpt>
<trkpt lat="42.0821" lon="23.623283"><ele>1836.8</ele><time>2026-03-08T14:57:13.000Z</time></trkpt>
<trkpt lat="42.08209" lon="23.623279"><ele>1836.8</ele><time>2026-03-08T14:57:14.000Z</time></trkpt>
<trkpt lat="42.08208" lon="23.623274"><ele>1836.8</ele><time>2026-03-08T14:57:15.000Z</time></trkpt>
<trkpt lat="42.082069" lon="23.623268"><ele>1836.8</ele><time>2026-03-08T14:57:16.000Z</time></trkpt>
<trkpt lat="42.082058" lon="23.623263"><ele>1836.6</ele><time>2026-03-08T14:57:17.000Z</time></trkpt>
<trkpt lat="42.082047" lon="23.62326"><ele>1836.6</ele><time>2026-03-08T14:57:18.000Z</time></trkpt>
<trkpt lat="42.082036" lon="23.623257"><ele>1836.6</ele><time>2026-03-08T14:57:19.000Z</time></trkpt>
<trkpt lat="42.082027" lon="23.623256"><ele>1836.6</ele><time>2026-03-08T14:57:20.000Z</time></trkpt>
<trkpt lat="42.082018" lon="23.623259"><ele>1836.6</ele><time>2026-03-08T14:57:21.000Z</time></trkpt>
<trkpt lat="42.082011" lon="23.623263"><ele>1836.2</ele><time>2026-03-08T14:57:22.000Z</time></trkpt>
<trkpt lat="42.082007" lon="23.623269"><ele>1836.2</ele><time>2026-03-08T14:57:23.000Z</time></trkpt>
<trkpt lat="42.082003" lon="23.623278"><ele>1836.2</ele><time>2026-03-08T14:57:24.000Z</time></trkpt>
<trkpt lat="42.081999" lon="23.623287"><ele>1836.2</ele><time>2026-03-08T14:57:25.000Z</time></trkpt>
<trkpt lat="42.081994" lon="23.623298"><ele>1836.2</ele><time>2026-03-08T14:57:26.000Z</time></trkpt>
<trkpt lat="42.081988" lon="23.623309"><ele>1836.1</ele><time>2026-03-08T14:57:27.000Z</time></trkpt>
<trkpt lat="42.08198" lon="23.62332"><ele>1836.1</ele><time>2026-03-08T14:57:28.000Z</time></trkpt>
<trkpt lat="42.081972" lon="23.623332"><ele>1836.1</ele><time>2026-03-08T14:57:29.000Z</time></trkpt>
<trkpt lat="42.081964" lon="23.623343"><ele>1836.1</ele><time>2026-03-08T14:57:30.000Z</time></trkpt>
<trkpt lat="42.081955" lon="23.623353"><ele>1836.1</ele><time>2026-03-08T14:57:31.000Z</time></trkpt>
<trkpt lat="42.081947" lon="23.623366"><ele>1836</ele><time>2026-03-08T14:57:32.000Z</time></trkpt>
<trkpt lat="42.081939" lon="23.623379"><ele>1836</ele><time>2026-03-08T14:57:33.000Z</time></trkpt>
<trkpt lat="42.08193" lon="23.623393"><ele>1836</ele><time>2026-03-08T14:57:34.000Z</time></trkpt>
<trkpt lat="42.08192" lon="23.623406"><ele>1836</ele><time>2026-03-08T14:57:35.000Z</time></trkpt>
<trkpt lat="42.081911" lon="23.62342"><ele>1836</ele><time>2026-03-08T14:57:36.000Z</time></trkpt>
<trkpt lat="42.081902" lon="23.623431"><ele>1835.5</ele><time>2026-03-08T14:57:37.000Z</time></trkpt>
<trkpt lat="42.081893" lon="23.62344"><ele>1835.5</ele><time>2026-03-08T14:57:38.000Z</time></trkpt>
<trkpt lat="42.081885" lon="23.62345"><ele>1835.5</ele><time>2026-03-08T14:57:39.000Z</time></trkpt>
<trkpt lat="42.081878" lon="23.623461"><ele>1835.5</ele><time>2026-03-08T14:57:40.000Z</time></trkpt>
<trkpt lat="42.081872" lon="23.623471"><ele>1835.5</ele><time>2026-03-08T14:57:41.000Z</time></trkpt>
<trkpt lat="42.081867" lon="23.623483"><ele>1834.3</ele><time>2026-03-08T14:57:42.000Z</time></trkpt>
<trkpt lat="42.081864" lon="23.623498"><ele>1834.3</ele><time>2026-03-08T14:57:43.000Z</time></trkpt>
<trkpt lat="42.081863" lon="23.623512"><ele>1834.3</ele><time>2026-03-08T14:57:44.000Z</time></trkpt>
<trkpt lat="42.081864" lon="23.623527"><ele>1834.3</ele><time>2026-03-08T14:57:45.000Z</time></trkpt>
<trkpt lat="42.081867" lon="23.623543"><ele>1834.3</ele><time>2026-03-08T14:57:46.000Z</time></trkpt>
<trkpt lat="42.081871" lon="23.623558"><ele>1833.5</ele><time>2026-03-08T14:57:47.000Z</time></trkpt>
<trkpt lat="42.081875" lon="23.623574"><ele>1833.5</ele><time>2026-03-08T14:57:48.000Z</time></trkpt>
<trkpt lat="42.081877" lon="23.623591"><ele>1833.5</ele><time>2026-03-08T14:57:49.000Z</time></trkpt>
<trkpt lat="42.081877" lon="23.623606"><ele>1833.5</ele><time>2026-03-08T14:57:50.000Z</time></trkpt>
<trkpt lat="42.081875" lon="23.623622"><ele>1833.5</ele><time>2026-03-08T14:57:51.000Z</time></trkpt>
<trkpt lat="42.08187" lon="23.623636"><ele>1832</ele><time>2026-03-08T14:57:52.000Z</time></trkpt>
<trkpt lat="42.081863" lon="23.623648"><ele>1832</ele><time>2026-03-08T14:57:53.000Z</time></trkpt>
<trkpt lat="42.081855" lon="23.623659"><ele>1832</ele><time>2026-03-08T14:57:54.000Z</time></trkpt>
<trkpt lat="42.081848" lon="23.623669"><ele>1832</ele><time>2026-03-08T14:57:55.000Z</time></trkpt>
<trkpt lat="42.081841" lon="23.62368"><ele>1832</ele><time>2026-03-08T14:57:56.000Z</time></trkpt>
<trkpt lat="42.081835" lon="23.623691"><ele>1830.7</ele><time>2026-03-08T14:57:57.000Z</time></trkpt>
<trkpt lat="42.081832" lon="23.623703"><ele>1830.7</ele><time>2026-03-08T14:57:58.000Z</time></trkpt>
<trkpt lat="42.08183" lon="23.623714"><ele>1830.7</ele><time>2026-03-08T14:57:59.000Z</time></trkpt>
<trkpt lat="42.081829" lon="23.623724"><ele>1830.7</ele><time>2026-03-08T14:58:00.000Z</time></trkpt>
<trkpt lat="42.081828" lon="23.623734"><ele>1830.7</ele><time>2026-03-08T14:58:01.000Z</time></trkpt>
<trkpt lat="42.081824" lon="23.623743"><ele>1830.1</ele><time>2026-03-08T14:58:02.000Z</time></trkpt>
<trkpt lat="42.081818" lon="23.623752"><ele>1830.1</ele><time>2026-03-08T14:58:03.000Z</time></trkpt>
<trkpt lat="42.08181" lon="23.623758"><ele>1830.1</ele><time>2026-03-08T14:58:04.000Z</time></trkpt>
<trkpt lat="42.081801" lon="23.623764"><ele>1830.1</ele><time>2026-03-08T14:58:05.000Z</time></trkpt>
<trkpt lat="42.081791" lon="23.623766"><ele>1830.1</ele><time>2026-03-08T14:58:06.000Z</time></trkpt>
<trkpt lat="42.081783" lon="23.623765"><ele>1828.9</ele><time>2026-03-08T14:58:07.000Z</time></trkpt>
<trkpt lat="42.081777" lon="23.623762"><ele>1828.9</ele><time>2026-03-08T14:58:08.000Z</time></trkpt>
<trkpt lat="42.081771" lon="23.623758"><ele>1828.9</ele><time>2026-03-08T14:58:09.000Z</time></trkpt>
<trkpt lat="42.081766" lon="23.623754"><ele>1828.9</ele><time>2026-03-08T14:58:10.000Z</time></trkpt>
<trkpt lat="42.081761" lon="23.623751"><ele>1828.9</ele><time>2026-03-08T14:58:11.000Z</time></trkpt>
<trkpt lat="42.081755" lon="23.623746"><ele>1827.7</ele><time>2026-03-08T14:58:12.000Z</time></trkpt>
<trkpt lat="42.081749" lon="23.623745"><ele>1827.7</ele><time>2026-03-08T14:58:13.000Z</time></trkpt>
<trkpt lat="42.081743" lon="23.623744"><ele>1827.7</ele><time>2026-03-08T14:58:14.000Z</time></trkpt>
<trkpt lat="42.081736" lon="23.623744"><ele>1827.7</ele><time>2026-03-08T14:58:15.000Z</time></trkpt>
<trkpt lat="42.081729" lon="23.623745"><ele>1827.7</ele><time>2026-03-08T14:58:16.000Z</time></trkpt>
<trkpt lat="42.081722" lon="23.623748"><ele>1827</ele><time>2026-03-08T14:58:17.000Z</time></trkpt>
<trkpt lat="42.081714" lon="23.623751"><ele>1827</ele><time>2026-03-08T14:58:18.000Z</time></trkpt>
<trkpt lat="42.081703" lon="23.623754"><ele>1827</ele><time>2026-03-08T14:58:19.000Z</time></trkpt>
<trkpt lat="42.081692" lon="23.623757"><ele>1827</ele><time>2026-03-08T14:58:20.000Z</time></trkpt>
<trkpt lat="42.08168" lon="23.623759"><ele>1827</ele><time>2026-03-08T14:58:21.000Z</time></trkpt>
<trkpt lat="42.081667" lon="23.623758"><ele>1825.5</ele><time>2026-03-08T14:58:22.000Z</time></trkpt>
<trkpt lat="42.081655" lon="23.623756"><ele>1825.5</ele><time>2026-03-08T14:58:23.000Z</time></trkpt>
<trkpt lat="42.081645" lon="23.623755"><ele>1825.5</ele><time>2026-03-08T14:58:24.000Z</time></trkpt>
<trkpt lat="42.081634" lon="23.623752"><ele>1825.5</ele><time>2026-03-08T14:58:25.000Z</time></trkpt>
<trkpt lat="42.081623" lon="23.623751"><ele>1825.5</ele><time>2026-03-08T14:58:26.000Z</time></trkpt>
<trkpt lat="42.081612" lon="23.623754"><ele>1824.3</ele><time>2026-03-08T14:58:27.000Z</time></trkpt>
<trkpt lat="42.081602" lon="23.623758"><ele>1824.3</ele><time>2026-03-08T14:58:28.000Z</time></trkpt>
<trkpt lat="42.08159" lon="23.623763"><ele>1824.3</ele><time>2026-03-08T14:58:29.000Z</time></trkpt>
<trkpt lat="42.081581" lon="23.62377"><ele>1824.3</ele><time>2026-03-08T14:58:30.000Z</time></trkpt>
<trkpt lat="42.081571" lon="23.623777"><ele>1824.3</ele><time>2026-03-08T14:58:31.000Z</time></trkpt>
<trkpt lat="42.081562" lon="23.623785"><ele>1823.8</ele><time>2026-03-08T14:58:32.000Z</time></trkpt>
<trkpt lat="42.081555" lon="23.623794"><ele>1823.8</ele><time>2026-03-08T14:58:33.000Z</time></trkpt>
<trkpt lat="42.081549" lon="23.623804"><ele>1823.8</ele><time>2026-03-08T14:58:34.000Z</time></trkpt>
<trkpt lat="42.081544" lon="23.623818"><ele>1823.8</ele><time>2026-03-08T14:58:35.000Z</time></trkpt>
<trkpt lat="42.081539" lon="23.623832"><ele>1823.8</ele><time>2026-03-08T14:58:36.000Z</time></trkpt>
<trkpt lat="42.081534" lon="23.623847"><ele>1823.1</ele><time>2026-03-08T14:58:37.000Z</time></trkpt>
<trkpt lat="42.081529" lon="23.623862"><ele>1823.1</ele><time>2026-03-08T14:58:38.000Z</time></trkpt>
<trkpt lat="42.081525" lon="23.623874"><ele>1823.1</ele><time>2026-03-08T14:58:39.000Z</time></trkpt>
<trkpt lat="42.081522" lon="23.623884"><ele>1823.1</ele><time>2026-03-08T14:58:40.000Z</time></trkpt>
<trkpt lat="42.08152" lon="23.623892"><ele>1823.1</ele><time>2026-03-08T14:58:41.000Z</time></trkpt>
<trkpt lat="42.08152" lon="23.623898"><ele>1822.4</ele><time>2026-03-08T14:58:42.000Z</time></trkpt>
<trkpt lat="42.08152" lon="23.623902"><ele>1822.4</ele><time>2026-03-08T14:58:43.000Z</time></trkpt>
<trkpt lat="42.081521" lon="23.623906"><ele>1822.4</ele><time>2026-03-08T14:58:44.000Z</time></trkpt>
<trkpt lat="42.08152" lon="23.623911"><ele>1822.4</ele><time>2026-03-08T14:58:45.000Z</time></trkpt>
<trkpt lat="42.081518" lon="23.623918"><ele>1822.4</ele><time>2026-03-08T14:58:46.000Z</time></trkpt>
<trkpt lat="42.081515" lon="23.623923"><ele>1822</ele><time>2026-03-08T14:58:47.000Z</time></trkpt>
<trkpt lat="42.081513" lon="23.623928"><ele>1822</ele><time>2026-03-08T14:58:48.000Z</time></trkpt>
<trkpt lat="42.081511" lon="23.623931"><ele>1822</ele><time>2026-03-08T14:58:49.000Z</time></trkpt>
<trkpt lat="42.08151" lon="23.623931"><ele>1822</ele><time>2026-03-08T14:58:50.000Z</time></trkpt>
<trkpt lat="42.081511" lon="23.62393"><ele>1822</ele><time>2026-03-08T14:58:51.000Z</time></trkpt>
<trkpt lat="42.081511" lon="23.623928"><ele>1821.1</ele><time>2026-03-08T14:58:52.000Z</time></trkpt>
<trkpt lat="42.081512" lon="23.623926"><ele>1821.1</ele><time>2026-03-08T14:58:53.000Z</time></trkpt>
<trkpt lat="42.081512" lon="23.623926"><ele>1821.1</ele><time>2026-03-08T14:58:54.000Z</time></trkpt>
<trkpt lat="42.081513" lon="23.623925"><ele>1821.1</ele><time>2026-03-08T14:58:55.000Z</time></trkpt>
<trkpt lat="42.081513" lon="23.623925"><ele>1821.1</ele><time>2026-03-08T14:58:56.000Z</time></trkpt>
<trkpt lat="42.081513" lon="23.623924"><ele>1820.2</ele><time>2026-03-08T14:58:57.000Z</time></trkpt>
<trkpt lat="42.081513" lon="23.623925"><ele>1820.2</ele><time>2026-03-08T14:58:58.000Z</time></trkpt>
<trkpt lat="42.081513" lon="23.623925"><ele>1820.2</ele><time>2026-03-08T14:58:59.000Z</time></trkpt>
<trkpt lat="42.081513" lon="23.623925"><ele>1820.2</ele><time>2026-03-08T14:59:00.000Z</time></trkpt>
<trkpt lat="42.081513" lon="23.623926"><ele>1820.2</ele><time>2026-03-08T14:59:01.000Z</time></trkpt>
<trkpt lat="42.081513" lon="23.623929"><ele>1819.9</ele><time>2026-03-08T14:59:02.000Z</time></trkpt>
<trkpt lat="42.081512" lon="23.623934"><ele>1819.9</ele><time>2026-03-08T14:59:03.000Z</time></trkpt>
<trkpt lat="42.08151" lon="23.623942"><ele>1819.9</ele><time>2026-03-08T14:59:04.000Z</time></trkpt>
<trkpt lat="42.081506" lon="23.623952"><ele>1819.9</ele><time>2026-03-08T14:59:05.000Z</time></trkpt>
<trkpt lat="42.081501" lon="23.623966"><ele>1819.9</ele><time>2026-03-08T14:59:06.000Z</time></trkpt>
<trkpt lat="42.081497" lon="23.623978"><ele>1819.6</ele><time>2026-03-08T14:59:07.000Z</time></trkpt>
<trkpt lat="42.081492" lon="23.623991"><ele>1819.6</ele><time>2026-03-08T14:59:08.000Z</time></trkpt>
<trkpt lat="42.081488" lon="23.624003"><ele>1819.6</ele><time>2026-03-08T14:59:09.000Z</time></trkpt>
<trkpt lat="42.081486" lon="23.624015"><ele>1819.6</ele><time>2026-03-08T14:59:10.000Z</time></trkpt>
<trkpt lat="42.081483" lon="23.624026"><ele>1819.6</ele><time>2026-03-08T14:59:11.000Z</time></trkpt>
<trkpt lat="42.08148" lon="23.624038"><ele>1819.4</ele><time>2026-03-08T14:59:12.000Z</time></trkpt>
<trkpt lat="42.081477" lon="23.624051"><ele>1819.4</ele><time>2026-03-08T14:59:13.000Z</time></trkpt>
<trkpt lat="42.081472" lon="23.624062"><ele>1819.4</ele><time>2026-03-08T14:59:14.000Z</time></trkpt>
<trkpt lat="42.081466" lon="23.624072"><ele>1819.4</ele><time>2026-03-08T14:59:15.000Z</time></trkpt>
<trkpt lat="42.08146" lon="23.624079"><ele>1819.4</ele><time>2026-03-08T14:59:16.000Z</time></trkpt>
<trkpt lat="42.081455" lon="23.624085"><ele>1819.3</ele><time>2026-03-08T14:59:17.000Z</time></trkpt>
<trkpt lat="42.08145" lon="23.624088"><ele>1819.3</ele><time>2026-03-08T14:59:18.000Z</time></trkpt>
<trkpt lat="42.081447" lon="23.62409"><ele>1819.3</ele><time>2026-03-08T14:59:19.000Z</time></trkpt>
<trkpt lat="42.081444" lon="23.624093"><ele>1819.3</ele><time>2026-03-08T14:59:20.000Z</time></trkpt>
<trkpt lat="42.081442" lon="23.624096"><ele>1819.3</ele><time>2026-03-08T14:59:21.000Z</time></trkpt>
<trkpt lat="42.081439" lon="23.6241"><ele>1818.4</ele><time>2026-03-08T14:59:22.000Z</time></trkpt>
<trkpt lat="42.081435" lon="23.624103"><ele>1818.4</ele><time>2026-03-08T14:59:23.000Z</time></trkpt>
<trkpt lat="42.081431" lon="23.624106"><ele>1818.4</ele><time>2026-03-08T14:59:24.000Z</time></trkpt>
<trkpt lat="42.081423" lon="23.624109"><ele>1818.4</ele><time>2026-03-08T14:59:25.000Z</time></trkpt>
<trkpt lat="42.081414" lon="23.624114"><ele>1818.4</ele><time>2026-03-08T14:59:26.000Z</time></trkpt>
<trkpt lat="42.081406" lon="23.624118"><ele>1817.3</ele><time>2026-03-08T14:59:27.000Z</time></trkpt>
<trkpt lat="42.081398" lon="23.624124"><ele>1817.3</ele><time>2026-03-08T14:59:28.000Z</time></trkpt>
<trkpt lat="42.081391" lon="23.624133"><ele>1817.3</ele><time>2026-03-08T14:59:29.000Z</time></trkpt>
<trkpt lat="42.081386" lon="23.624143"><ele>1817.3</ele><time>2026-03-08T14:59:30.000Z</time></trkpt>
<trkpt lat="42.081383" lon="23.624155"><ele>1817.3</ele><time>2026-03-08T14:59:31.000Z</time></trkpt>
<trkpt lat="42.081381" lon="23.62417"><ele>1816.9</ele><time>2026-03-08T14:59:32.000Z</time></trkpt>
<trkpt lat="42.08138" lon="23.624186"><ele>1816.9</ele><time>2026-03-08T14:59:33.000Z</time></trkpt>
<trkpt lat="42.08138" lon="23.624202"><ele>1816.9</ele><time>2026-03-08T14:59:34.000Z</time></trkpt>
<trkpt lat="42.081382" lon="23.62422"><ele>1816.9</ele><time>2026-03-08T14:59:35.000Z</time></trkpt>
<trkpt lat="42.081384" lon="23.624239"><ele>1816.9</ele><time>2026-03-08T14:59:36.000Z</time></trkpt>
<trkpt lat="42.081387" lon="23.624257"><ele>1816.3</ele><time>2026-03-08T14:59:37.000Z</time></trkpt>
<trkpt lat="42.081391" lon="23.624274"><ele>1816.3</ele><time>2026-03-08T14:59:38.000Z</time></trkpt>
<trkpt lat="42.081396" lon="23.62429"><ele>1816.3</ele><time>2026-03-08T14:59:39.000Z</time></trkpt>
<trkpt lat="42.081401" lon="23.624307"><ele>1816.3</ele><time>2026-03-08T14:59:40.000Z</time></trkpt>
<trkpt lat="42.081408" lon="23.624323"><ele>1816.3</ele><time>2026-03-08T14:59:41.000Z</time></trkpt>
<trkpt lat="42.081414" lon="23.62434"><ele>1815.5</ele><time>2026-03-08T14:59:42.000Z</time></trkpt>
<trkpt lat="42.08142" lon="23.624357"><ele>1815.5</ele><time>2026-03-08T14:59:43.000Z</time></trkpt>
<trkpt lat="42.081426" lon="23.624376"><ele>1815.5</ele><time>2026-03-08T14:59:44.000Z</time></trkpt>
<trkpt lat="42.081429" lon="23.624393"><ele>1815.5</ele><time>2026-03-08T14:59:45.000Z</time></trkpt>
<trkpt lat="42.081431" lon="23.624408"><ele>1815.5</ele><time>2026-03-08T14:59:46.000Z</time></trkpt>
<trkpt lat="42.08143" lon="23.624425"><ele>1814.9</ele><time>2026-03-08T14:59:47.000Z</time></trkpt>
<trkpt lat="42.081429" lon="23.62444"><ele>1814.9</ele><time>2026-03-08T14:59:48.000Z</time></trkpt>
<trkpt lat="42.081427" lon="23.624454"><ele>1814.9</ele><time>2026-03-08T14:59:49.000Z</time></trkpt>
<trkpt lat="42.081424" lon="23.62447"><ele>1814.9</ele><time>2026-03-08T14:59:50.000Z</time></trkpt>
<trkpt lat="42.081421" lon="23.624486"><ele>1814.9</ele><time>2026-03-08T14:59:51.000Z</time></trkpt>
<trkpt lat="42.081418" lon="23.6245"><ele>1813.3</ele><time>2026-03-08T14:59:52.000Z</time></trkpt>
<trkpt lat="42.081414" lon="23.624515"><ele>1813.3</ele><time>2026-03-08T14:59:53.000Z</time></trkpt>
<trkpt lat="42.081412" lon="23.62453"><ele>1813.3</ele><time>2026-03-08T14:59:54.000Z</time></trkpt>
<trkpt lat="42.081409" lon="23.624546"><ele>1813.3</ele><time>2026-03-08T14:59:55.000Z</time></trkpt>
<trkpt lat="42.081406" lon="23.624561"><ele>1813.3</ele><time>2026-03-08T14:59:56.000Z</time></trkpt>
<trkpt lat="42.081405" lon="23.624576"><ele>1811.5</ele><time>2026-03-08T14:59:57.000Z</time></trkpt>
<trkpt lat="42.081405" lon="23.624591"><ele>1811.5</ele><time>2026-03-08T14:59:58.000Z</time></trkpt>
<trkpt lat="42.081405" lon="23.624607"><ele>1811.5</ele><time>2026-03-08T14:59:59.000Z</time></trkpt>
<trkpt lat="42.081408" lon="23.624623"><ele>1811.5</ele><time>2026-03-08T15:00:00.000Z</time></trkpt>
<trkpt lat="42.081411" lon="23.624638"><ele>1811.5</ele><time>2026-03-08T15:00:01.000Z</time></trkpt>
<trkpt lat="42.081413" lon="23.624653"><ele>1810.7</ele><time>2026-03-08T15:00:02.000Z</time></trkpt>
<trkpt lat="42.081415" lon="23.624669"><ele>1810.7</ele><time>2026-03-08T15:00:03.000Z</time></trkpt>
<trkpt lat="42.081417" lon="23.624687"><ele>1810.7</ele><time>2026-03-08T15:00:04.000Z</time></trkpt>
<trkpt lat="42.081418" lon="23.624704"><ele>1810.7</ele><time>2026-03-08T15:00:05.000Z</time></trkpt>
<trkpt lat="42.081419" lon="23.624724"><ele>1810.7</ele><time>2026-03-08T15:00:06.000Z</time></trkpt>
<trkpt lat="42.08142" lon="23.624745"><ele>1809.2</ele><time>2026-03-08T15:00:07.000Z</time></trkpt>
<trkpt lat="42.081418" lon="23.624764"><ele>1809.2</ele><time>2026-03-08T15:00:08.000Z</time></trkpt>
<trkpt lat="42.081415" lon="23.624782"><ele>1809.2</ele><time>2026-03-08T15:00:09.000Z</time></trkpt>
<trkpt lat="42.08141" lon="23.6248"><ele>1809.2</ele><time>2026-03-08T15:00:10.000Z</time></trkpt>
<trkpt lat="42.081405" lon="23.624816"><ele>1809.2</ele><time>2026-03-08T15:00:11.000Z</time></trkpt>
<trkpt lat="42.081399" lon="23.624832"><ele>1807.9</ele><time>2026-03-08T15:00:12.000Z</time></trkpt>
<trkpt lat="42.081392" lon="23.624848"><ele>1807.9</ele><time>2026-03-08T15:00:13.000Z</time></trkpt>
<trkpt lat="42.081386" lon="23.624865"><ele>1807.9</ele><time>2026-03-08T15:00:14.000Z</time></trkpt>
<trkpt lat="42.081379" lon="23.624882"><ele>1807.9</ele><time>2026-03-08T15:00:15.000Z</time></trkpt>
<trkpt lat="42.08137" lon="23.6249"><ele>1807.9</ele><time>2026-03-08T15:00:16.000Z</time></trkpt>
<trkpt lat="42.081361" lon="23.624918"><ele>1807.3</ele><time>2026-03-08T15:00:17.000Z</time></trkpt>
<trkpt lat="42.081351" lon="23.624936"><ele>1807.3</ele><time>2026-03-08T15:00:18.000Z</time></trkpt>
<trkpt lat="42.081342" lon="23.62495"><ele>1807.3</ele><time>2026-03-08T15:00:19.000Z</time></trkpt>
<trkpt lat="42.081333" lon="23.624963"><ele>1807.3</ele><time>2026-03-08T15:00:20.000Z</time></trkpt>
<trkpt lat="42.081325" lon="23.624976"><ele>1807.3</ele><time>2026-03-08T15:00:21.000Z</time></trkpt>
<trkpt lat="42.081317" lon="23.624988"><ele>1806</ele><time>2026-03-08T15:00:22.000Z</time></trkpt>
<trkpt lat="42.08131" lon="23.625002"><ele>1806</ele><time>2026-03-08T15:00:23.000Z</time></trkpt>
<trkpt lat="42.081302" lon="23.625017"><ele>1806</ele><time>2026-03-08T15:00:24.000Z</time></trkpt>
<trkpt lat="42.081293" lon="23.625032"><ele>1806</ele><time>2026-03-08T15:00:25.000Z</time></trkpt>
<trkpt lat="42.081284" lon="23.625047"><ele>1806</ele><time>2026-03-08T15:00:26.000Z</time></trkpt>
<trkpt lat="42.081275" lon="23.625061"><ele>1804.7</ele><time>2026-03-08T15:00:27.000Z</time></trkpt>
<trkpt lat="42.081265" lon="23.625074"><ele>1804.7</ele><time>2026-03-08T15:00:28.000Z</time></trkpt>
<trkpt lat="42.081255" lon="23.625086"><ele>1804.7</ele><time>2026-03-08T15:00:29.000Z</time></trkpt>
<trkpt lat="42.081247" lon="23.625096"><ele>1804.7</ele><time>2026-03-08T15:00:30.000Z</time></trkpt>
<trkpt lat="42.08124" lon="23.625109"><ele>1804.7</ele><time>2026-03-08T15:00:31.000Z</time></trkpt>
<trkpt lat="42.081233" lon="23.625122"><ele>1804.1</ele><time>2026-03-08T15:00:32.000Z</time></trkpt>
<trkpt lat="42.081229" lon="23.625136"><ele>1804.1</ele><time>2026-03-08T15:00:33.000Z</time></trkpt>
<trkpt lat="42.081228" lon="23.625152"><ele>1804.1</ele><time>2026-03-08T15:00:34.000Z</time></trkpt>
<trkpt lat="42.081228" lon="23.625168"><ele>1804.1</ele><time>2026-03-08T15:00:35.000Z</time></trkpt>
<trkpt lat="42.08123" lon="23.625181"><ele>1804.1</ele><time>2026-03-08T15:00:36.000Z</time></trkpt>
<trkpt lat="42.081232" lon="23.625191"><ele>1803</ele><time>2026-03-08T15:00:37.000Z</time></trkpt>
<trkpt lat="42.081236" lon="23.6252"><ele>1803</ele><time>2026-03-08T15:00:38.000Z</time></trkpt>
<trkpt lat="42.081239" lon="23.625209"><ele>1803</ele><time>2026-03-08T15:00:39.000Z</time></trkpt>
<trkpt lat="42.081242" lon="23.625219"><ele>1803</ele><time>2026-03-08T15:00:40.000Z</time></trkpt>
<trkpt lat="42.081245" lon="23.62523"><ele>1803</ele><time>2026-03-08T15:00:41.000Z</time></trkpt>
<trkpt lat="42.081249" lon="23.625241"><ele>1802.1</ele><time>2026-03-08T15:00:42.000Z</time></trkpt>
<trkpt lat="42.081253" lon="23.625253"><ele>1802.1</ele><time>2026-03-08T15:00:43.000Z</time></trkpt>
<trkpt lat="42.081258" lon="23.625265"><ele>1802.1</ele><time>2026-03-08T15:00:44.000Z</time></trkpt>
<trkpt lat="42.081263" lon="23.625274"><ele>1802.1</ele><time>2026-03-08T15:00:45.000Z</time></trkpt>
<trkpt lat="42.08127" lon="23.625285"><ele>1802.1</ele><time>2026-03-08T15:00:46.000Z</time></trkpt>
<trkpt lat="42.081276" lon="23.625295"><ele>1801.7</ele><time>2026-03-08T15:00:47.000Z</time></trkpt>
<trkpt lat="42.081283" lon="23.625305"><ele>1801.7</ele><time>2026-03-08T15:00:48.000Z</time></trkpt>
<trkpt lat="42.081289" lon="23.625314"><ele>1801.7</ele><time>2026-03-08T15:00:49.000Z</time></trkpt>
<trkpt lat="42.081294" lon="23.625323"><ele>1801.7</ele><time>2026-03-08T15:00:50.000Z</time></trkpt>
<trkpt lat="42.081297" lon="23.62533"><ele>1801.7</ele><time>2026-03-08T15:00:51.000Z</time></trkpt>
<trkpt lat="42.0813" lon="23.625336"><ele>1801.3</ele><time>2026-03-08T15:00:52.000Z</time></trkpt>
<trkpt lat="42.081301" lon="23.62534"><ele>1801.3</ele><time>2026-03-08T15:00:53.000Z</time></trkpt>
<trkpt lat="42.081302" lon="23.625342"><ele>1801.3</ele><time>2026-03-08T15:00:54.000Z</time></trkpt>
<trkpt lat="42.081302" lon="23.625343"><ele>1801.3</ele><time>2026-03-08T15:00:55.000Z</time></trkpt>
<trkpt lat="42.081302" lon="23.625343"><ele>1801.3</ele><time>2026-03-08T15:00:56.000Z</time></trkpt>
<trkpt lat="42.081301" lon="23.625343"><ele>1801</ele><time>2026-03-08T15:00:57.000Z</time></trkpt>
<trkpt lat="42.081301" lon="23.625343"><ele>1801</ele><time>2026-03-08T15:00:58.000Z</time></trkpt>
<trkpt lat="42.0813" lon="23.625343"><ele>1801</ele><time>2026-03-08T15:00:59.000Z</time></trkpt>
<trkpt lat="42.0813" lon="23.625343"><ele>1801</ele><time>2026-03-08T15:01:00.000Z</time></trkpt>
<trkpt lat="42.0813" lon="23.625343"><ele>1801</ele><time>2026-03-08T15:01:01.000Z</time></trkpt>
<trkpt lat="42.0813" lon="23.625342"><ele>1800.9</ele><time>2026-03-08T15:01:02.000Z</time></trkpt>
<trkpt lat="42.0813" lon="23.625342"><ele>1800.9</ele><time>2026-03-08T15:01:03.000Z</time></trkpt>
<trkpt lat="42.0813" lon="23.625341"><ele>1800.9</ele><time>2026-03-08T15:01:04.000Z</time></trkpt>
<trkpt lat="42.0813" lon="23.62534"><ele>1800.9</ele><time>2026-03-08T15:01:05.000Z</time></trkpt>
<trkpt lat="42.0813" lon="23.625339"><ele>1800.9</ele><time>2026-03-08T15:01:06.000Z</time></trkpt>
<trkpt lat="42.0813" lon="23.625339"><ele>1800.7</ele><time>2026-03-08T15:01:07.000Z</time></trkpt>
<trkpt lat="42.081301" lon="23.625338"><ele>1800.7</ele><time>2026-03-08T15:01:08.000Z</time></trkpt>
<trkpt lat="42.081302" lon="23.625337"><ele>1800.7</ele><time>2026-03-08T15:01:09.000Z</time></trkpt>
<trkpt lat="42.081302" lon="23.625337"><ele>1800.7</ele><time>2026-03-08T15:01:10.000Z</time></trkpt>
<trkpt lat="42.081303" lon="23.625337"><ele>1800.7</ele><time>2026-03-08T15:01:11.000Z</time></trkpt>
<trkpt lat="42.081304" lon="23.625336"><ele>1800.5</ele><time>2026-03-08T15:01:12.000Z</time></trkpt>
<trkpt lat="42.081304" lon="23.625336"><ele>1800.5</ele><time>2026-03-08T15:01:13.000Z</time></trkpt>
<trkpt lat="42.081305" lon="23.625337"><ele>1800.5</ele><time>2026-03-08T15:01:14.000Z</time></trkpt>
<trkpt lat="42.081306" lon="23.625338"><ele>1800.5</ele><time>2026-03-08T15:01:15.000Z</time></trkpt>
<trkpt lat="42.081307" lon="23.625339"><ele>1800.5</ele><time>2026-03-08T15:01:16.000Z</time></trkpt>
<trkpt lat="42.081308" lon="23.625341"><ele>1800.4</ele><time>2026-03-08T15:01:17.000Z</time></trkpt>
<trkpt lat="42.081309" lon="23.625342"><ele>1800.4</ele><time>2026-03-08T15:01:18.000Z</time></trkpt>
<trkpt lat="42.081309" lon="23.625342"><ele>1800.4</ele><time>2026-03-08T15:01:19.000Z</time></trkpt>
<trkpt lat="42.08131" lon="23.625343"><ele>1800.4</ele><time>2026-03-08T15:01:20.000Z</time></trkpt>
<trkpt lat="42.08131" lon="23.625343"><ele>1800.4</ele><time>2026-03-08T15:01:21.000Z</time></trkpt>
<trkpt lat="42.08131" lon="23.625344"><ele>1800.3</ele><time>2026-03-08T15:01:22.000Z</time></trkpt>
<trkpt lat="42.08131" lon="23.625345"><ele>1800.3</ele><time>2026-03-08T15:01:23.000Z</time></trkpt>
<trkpt lat="42.08131" lon="23.625346"><ele>1800.3</ele><time>2026-03-08T15:01:24.000Z</time></trkpt>
<trkpt lat="42.08131" lon="23.625347"><ele>1800.3</ele><time>2026-03-08T15:01:25.000Z</time></trkpt>
<trkpt lat="42.08131" lon="23.625346"><ele>1800.3</ele><time>2026-03-08T15:01:26.000Z</time></trkpt>
<trkpt lat="42.08131" lon="23.625346"><ele>1800.3</ele><time>2026-03-08T15:01:27.000Z</time></trkpt>
<trkpt lat="42.081309" lon="23.625345"><ele>1800.3</ele><time>2026-03-08T15:01:28.000Z</time></trkpt>
<trkpt lat="42.081309" lon="23.625344"><ele>1800.3</ele><time>2026-03-08T15:01:29.000Z</time></trkpt>
<trkpt lat="42.081309" lon="23.625343"><ele>1800.3</ele><time>2026-03-08T15:01:30.000Z</time></trkpt>
<trkpt lat="42.081309" lon="23.625343"><ele>1800.3</ele><time>2026-03-08T15:01:31.000Z</time></trkpt>
<trkpt lat="42.081309" lon="23.625342"><ele>1800.3</ele><time>2026-03-08T15:01:32.000Z</time></trkpt>
<trkpt lat="42.081309" lon="23.625343"><ele>1800.3</ele><time>2026-03-08T15:01:33.000Z</time></trkpt>
<trkpt lat="42.081308" lon="23.625343"><ele>1800.3</ele><time>2026-03-08T15:01:34.000Z</time></trkpt>
<trkpt lat="42.081308" lon="23.625343"><ele>1800.3</ele><time>2026-03-08T15:01:35.000Z</time></trkpt>
<trkpt lat="42.081308" lon="23.625343"><ele>1800.3</ele><time>2026-03-08T15:01:36.000Z</time></trkpt>
<trkpt lat="42.081307" lon="23.625343"><ele>1800.4</ele><time>2026-03-08T15:01:37.000Z</time></trkpt>
<trkpt lat="42.081306" lon="23.625343"><ele>1800.4</ele><time>2026-03-08T15:01:38.000Z</time></trkpt>
<trkpt lat="42.081306" lon="23.625342"><ele>1800.4</ele><time>2026-03-08T15:01:39.000Z</time></trkpt>
<trkpt lat="42.081306" lon="23.625342"><ele>1800.4</ele><time>2026-03-08T15:01:40.000Z</time></trkpt>
<trkpt lat="42.081307" lon="23.625342"><ele>1800.4</ele><time>2026-03-08T15:01:41.000Z</time></trkpt>
<trkpt lat="42.081308" lon="23.625342"><ele>1800.5</ele><time>2026-03-08T15:01:42.000Z</time></trkpt>
<trkpt lat="42.08131" lon="23.625342"><ele>1800.5</ele><time>2026-03-08T15:01:43.000Z</time></trkpt>
<trkpt lat="42.081311" lon="23.625342"><ele>1800.5</ele><time>2026-03-08T15:01:44.000Z</time></trkpt>
<trkpt lat="42.081312" lon="23.625342"><ele>1800.5</ele><time>2026-03-08T15:01:45.000Z</time></trkpt>
<trkpt lat="42.081312" lon="23.625342"><ele>1800.5</ele><time>2026-03-08T15:01:46.000Z</time></trkpt>
<trkpt lat="42.081311" lon="23.625342"><ele>1800.4</ele><time>2026-03-08T15:01:47.000Z</time></trkpt>
<trkpt lat="42.081311" lon="23.625342"><ele>1800.4</ele><time>2026-03-08T15:01:48.000Z</time></trkpt>
<trkpt lat="42.08131" lon="23.625342"><ele>1800.4</ele><time>2026-03-08T15:01:49.000Z</time></trkpt>
<trkpt lat="42.08131" lon="23.625343"><ele>1800.4</ele><time>2026-03-08T15:01:50.000Z</time></trkpt>
<trkpt lat="42.08131" lon="23.625345"><ele>1800.4</ele><time>2026-03-08T15:01:51.000Z</time></trkpt>
<trkpt lat="42.081312" lon="23.625349"><ele>1800.4</ele><time>2026-03-08T15:01:52.000Z</time></trkpt>
<trkpt lat="42.081313" lon="23.625355"><ele>1800.4</ele><time>2026-03-08T15:01:53.000Z</time></trkpt>
<trkpt lat="42.081315" lon="23.62536"><ele>1800.4</ele><time>2026-03-08T15:01:54.000Z</time></trkpt>
<trkpt lat="42.081318" lon="23.625368"><ele>1800.4</ele><time>2026-03-08T15:01:55.000Z</time></trkpt>
<trkpt lat="42.081321" lon="23.625378"><ele>1800.4</ele><time>2026-03-08T15:01:56.000Z</time></trkpt>
<trkpt lat="42.081323" lon="23.625387"><ele>1800.4</ele><time>2026-03-08T15:01:57.000Z</time></trkpt>
<trkpt lat="42.081327" lon="23.625398"><ele>1800.4</ele><time>2026-03-08T15:01:58.000Z</time></trkpt>
<trkpt lat="42.081332" lon="23.625411"><ele>1800.4</ele><time>2026-03-08T15:01:59.000Z</time></trkpt>
<trkpt lat="42.081338" lon="23.625424"><ele>1800.4</ele><time>2026-03-08T15:02:00.000Z</time></trkpt>
<trkpt lat="42.081343" lon="23.625437"><ele>1800.4</ele><time>2026-03-08T15:02:01.000Z</time></trkpt>
<trkpt lat="42.081349" lon="23.625448"><ele>1800.4</ele><time>2026-03-08T15:02:02.000Z</time></trkpt>
<trkpt lat="42.081357" lon="23.625459"><ele>1800.4</ele><time>2026-03-08T15:02:03.000Z</time></trkpt>
<trkpt lat="42.081364" lon="23.625469"><ele>1800.4</ele><time>2026-03-08T15:02:04.000Z</time></trkpt>
<trkpt lat="42.081371" lon="23.625481"><ele>1800.4</ele><time>2026-03-08T15:02:05.000Z</time></trkpt>
<trkpt lat="42.081378" lon="23.625493"><ele>1800.4</ele><time>2026-03-08T15:02:06.000Z</time></trkpt>
<trkpt lat="42.081385" lon="23.625508"><ele>1800.4</ele><time>2026-03-08T15:02:07.000Z</time></trkpt>
<trkpt lat="42.081392" lon="23.625524"><ele>1800.4</ele><time>2026-03-08T15:02:08.000Z</time></trkpt>
<trkpt lat="42.0814" lon="23.625541"><ele>1800.4</ele><time>2026-03-08T15:02:09.000Z</time></trkpt>
<trkpt lat="42.081407" lon="23.625557"><ele>1800.4</ele><time>2026-03-08T15:02:10.000Z</time></trkpt>
<trkpt lat="42.081415" lon="23.625575"><ele>1800.4</ele><time>2026-03-08T15:02:11.000Z</time></trkpt>
<trkpt lat="42.081422" lon="23.625592"><ele>1800.3</ele><time>2026-03-08T15:02:12.000Z</time></trkpt>
<trkpt lat="42.081429" lon="23.62561"><ele>1800.3</ele><time>2026-03-08T15:02:13.000Z</time></trkpt>
<trkpt lat="42.081435" lon="23.625626"><ele>1800.3</ele><time>2026-03-08T15:02:14.000Z</time></trkpt>
<trkpt lat="42.081441" lon="23.625643"><ele>1800.3</ele><time>2026-03-08T15:02:15.000Z</time></trkpt>
<trkpt lat="42.081444" lon="23.625659"><ele>1800.3</ele><time>2026-03-08T15:02:16.000Z</time></trkpt>
<trkpt lat="42.081447" lon="23.625674"><ele>1800.2</ele><time>2026-03-08T15:02:17.000Z</time></trkpt>
<trkpt lat="42.08145" lon="23.625689"><ele>1800.2</ele><time>2026-03-08T15:02:18.000Z</time></trkpt>
<trkpt lat="42.081454" lon="23.625705"><ele>1800.2</ele><time>2026-03-08T15:02:19.000Z</time></trkpt>
<trkpt lat="42.081459" lon="23.625722"><ele>1800.2</ele><time>2026-03-08T15:02:20.000Z</time></trkpt>
<trkpt lat="42.081466" lon="23.625738"><ele>1800.2</ele><time>2026-03-08T15:02:21.000Z</time></trkpt>
<trkpt lat="42.081474" lon="23.625756"><ele>1799.6</ele><time>2026-03-08T15:02:22.000Z</time></trkpt>
<trkpt lat="42.081482" lon="23.625773"><ele>1799.6</ele><time>2026-03-08T15:02:23.000Z</time></trkpt>
<trkpt lat="42.081488" lon="23.62579"><ele>1799.6</ele><time>2026-03-08T15:02:24.000Z</time></trkpt>
<trkpt lat="42.081494" lon="23.625807"><ele>1799.6</ele><time>2026-03-08T15:02:25.000Z</time></trkpt>
<trkpt lat="42.0815" lon="23.625823"><ele>1799.6</ele><time>2026-03-08T15:02:26.000Z</time></trkpt>
<trkpt lat="42.081506" lon="23.625839"><ele>1798.8</ele><time>2026-03-08T15:02:27.000Z</time></trkpt>
<trkpt lat="42.081511" lon="23.625854"><ele>1798.8</ele><time>2026-03-08T15:02:28.000Z</time></trkpt>
<trkpt lat="42.081517" lon="23.625869"><ele>1798.8</ele><time>2026-03-08T15:02:29.000Z</time></trkpt>
<trkpt lat="42.081524" lon="23.625884"><ele>1798.8</ele><time>2026-03-08T15:02:30.000Z</time></trkpt>
<trkpt lat="42.08153" lon="23.6259"><ele>1798.8</ele><time>2026-03-08T15:02:31.000Z</time></trkpt>
<trkpt lat="42.081533" lon="23.625914"><ele>1798.5</ele><time>2026-03-08T15:02:32.000Z</time></trkpt>
<trkpt lat="42.081537" lon="23.62593"><ele>1798.5</ele><time>2026-03-08T15:02:33.000Z</time></trkpt>
<trkpt lat="42.081541" lon="23.625947"><ele>1798.5</ele><time>2026-03-08T15:02:34.000Z</time></trkpt>
<trkpt lat="42.081544" lon="23.625965"><ele>1798.5</ele><time>2026-03-08T15:02:35.000Z</time></trkpt>
<trkpt lat="42.081547" lon="23.625985"><ele>1798.5</ele><time>2026-03-08T15:02:36.000Z</time></trkpt>
<trkpt lat="42.081549" lon="23.626005"><ele>1797.9</ele><time>2026-03-08T15:02:37.000Z</time></trkpt>
<trkpt lat="42.08155" lon="23.626025"><ele>1797.9</ele><time>2026-03-08T15:02:38.000Z</time></trkpt>
<trkpt lat="42.081548" lon="23.626044"><ele>1797.9</ele><time>2026-03-08T15:02:39.000Z</time></trkpt>
<trkpt lat="42.081546" lon="23.626062"><ele>1797.9</ele><time>2026-03-08T15:02:40.000Z</time></trkpt>
<trkpt lat="42.081543" lon="23.626079"><ele>1797.9</ele><time>2026-03-08T15:02:41.000Z</time></trkpt>
<trkpt lat="42.081542" lon="23.626096"><ele>1797.3</ele><time>2026-03-08T15:02:42.000Z</time></trkpt>
<trkpt lat="42.081542" lon="23.626113"><ele>1797.3</ele><time>2026-03-08T15:02:43.000Z</time></trkpt>
<trkpt lat="42.081543" lon="23.626129"><ele>1797.3</ele><time>2026-03-08T15:02:44.000Z</time></trkpt>
<trkpt lat="42.081545" lon="23.626144"><ele>1797.3</ele><time>2026-03-08T15:02:45.000Z</time></trkpt>
<trkpt lat="42.081547" lon="23.62616"><ele>1797.3</ele><time>2026-03-08T15:02:46.000Z</time></trkpt>
<trkpt lat="42.081548" lon="23.626176"><ele>1797</ele><time>2026-03-08T15:02:47.000Z</time></trkpt>
<trkpt lat="42.081548" lon="23.626192"><ele>1797</ele><time>2026-03-08T15:02:48.000Z</time></trkpt>
<trkpt lat="42.081548" lon="23.626209"><ele>1797</ele><time>2026-03-08T15:02:49.000Z</time></trkpt>
<trkpt lat="42.081547" lon="23.626226"><ele>1797</ele><time>2026-03-08T15:02:50.000Z</time></trkpt>
<trkpt lat="42.081544" lon="23.626243"><ele>1797</ele><time>2026-03-08T15:02:51.000Z</time></trkpt>
<trkpt lat="42.081541" lon="23.626259"><ele>1796.3</ele><time>2026-03-08T15:02:52.000Z</time></trkpt>
<trkpt lat="42.081536" lon="23.626275"><ele>1796.3</ele><time>2026-03-08T15:02:53.000Z</time></trkpt>
<trkpt lat="42.081532" lon="23.626291"><ele>1796.3</ele><time>2026-03-08T15:02:54.000Z</time></trkpt>
<trkpt lat="42.081527" lon="23.626306"><ele>1796.3</ele><time>2026-03-08T15:02:55.000Z</time></trkpt>
<trkpt lat="42.081521" lon="23.626322"><ele>1796.3</ele><time>2026-03-08T15:02:56.000Z</time></trkpt>
<trkpt lat="42.081515" lon="23.626337"><ele>1795.6</ele><time>2026-03-08T15:02:57.000Z</time></trkpt>
<trkpt lat="42.081509" lon="23.626352"><ele>1795.6</ele><time>2026-03-08T15:02:58.000Z</time></trkpt>
<trkpt lat="42.081502" lon="23.626365"><ele>1795.6</ele><time>2026-03-08T15:02:59.000Z</time></trkpt>
<trkpt lat="42.081495" lon="23.626379"><ele>1795.6</ele><time>2026-03-08T15:03:00.000Z</time></trkpt>
<trkpt lat="42.081488" lon="23.626391"><ele>1795.6</ele><time>2026-03-08T15:03:01.000Z</time></trkpt>
<trkpt lat="42.081481" lon="23.626403"><ele>1795.2</ele><time>2026-03-08T15:03:02.000Z</time></trkpt>
<trkpt lat="42.081474" lon="23.626415"><ele>1795.2</ele><time>2026-03-08T15:03:03.000Z</time></trkpt>
<trkpt lat="42.081467" lon="23.626428"><ele>1795.2</ele><time>2026-03-08T15:03:04.000Z</time></trkpt>
<trkpt lat="42.081459" lon="23.626441"><ele>1795.2</ele><time>2026-03-08T15:03:05.000Z</time></trkpt>
<trkpt lat="42.081451" lon="23.626455"><ele>1795.2</ele><time>2026-03-08T15:03:06.000Z</time></trkpt>
<trkpt lat="42.081443" lon="23.626468"><ele>1794.7</ele><time>2026-03-08T15:03:07.000Z</time></trkpt>
<trkpt lat="42.081434" lon="23.626482"><ele>1794.7</ele><time>2026-03-08T15:03:08.000Z</time></trkpt>
<trkpt lat="42.081424" lon="23.626496"><ele>1794.7</ele><time>2026-03-08T15:03:09.000Z</time></trkpt>
<trkpt lat="42.081415" lon="23.626509"><ele>1794.7</ele><time>2026-03-08T15:03:10.000Z</time></trkpt>
<trkpt lat="42.081405" lon="23.62652"><ele>1794.7</ele><time>2026-03-08T15:03:11.000Z</time></trkpt>
<trkpt lat="42.081395" lon="23.626532"><ele>1794.1</ele><time>2026-03-08T15:03:12.000Z</time></trkpt>
<trkpt lat="42.081385" lon="23.626542"><ele>1794.1</ele><time>2026-03-08T15:03:13.000Z</time></trkpt>
<trkpt lat="42.081376" lon="23.626553"><ele>1794.1</ele><time>2026-03-08T15:03:14.000Z</time></trkpt>
<trkpt lat="42.081366" lon="23.626563"><ele>1794.1</ele><time>2026-03-08T15:03:15.000Z</time></trkpt>
<trkpt lat="42.081356" lon="23.626574"><ele>1794.1</ele><time>2026-03-08T15:03:16.000Z</time></trkpt>
<trkpt lat="42.081347" lon="23.626586"><ele>1793.9</ele><time>2026-03-08T15:03:17.000Z</time></trkpt>
<trkpt lat="42.081338" lon="23.626599"><ele>1793.9</ele><time>2026-03-08T15:03:18.000Z</time></trkpt>
<trkpt lat="42.081329" lon="23.626612"><ele>1793.9</ele><time>2026-03-08T15:03:19.000Z</time></trkpt>
<trkpt lat="42.08132" lon="23.626625"><ele>1793.9</ele><time>2026-03-08T15:03:20.000Z</time></trkpt>
<trkpt lat="42.081311" lon="23.626637"><ele>1793.9</ele><time>2026-03-08T15:03:21.000Z</time></trkpt>
<trkpt lat="42.081302" lon="23.626648"><ele>1793.3</ele><time>2026-03-08T15:03:22.000Z</time></trkpt>
<trkpt lat="42.081292" lon="23.62666"><ele>1793.3</ele><time>2026-03-08T15:03:23.000Z</time></trkpt>
<trkpt lat="42.081282" lon="23.626672"><ele>1793.3</ele><time>2026-03-08T15:03:24.000Z</time></trkpt>
<trkpt lat="42.081272" lon="23.626684"><ele>1793.3</ele><time>2026-03-08T15:03:25.000Z</time></trkpt>
<trkpt lat="42.081261" lon="23.626696"><ele>1793.3</ele><time>2026-03-08T15:03:26.000Z</time></trkpt>
<trkpt lat="42.08125" lon="23.626708"><ele>1792.6</ele><time>2026-03-08T15:03:27.000Z</time></trkpt>
<trkpt lat="42.081239" lon="23.626721"><ele>1792.6</ele><time>2026-03-08T15:03:28.000Z</time></trkpt>
<trkpt lat="42.081229" lon="23.626734"><ele>1792.6</ele><time>2026-03-08T15:03:29.000Z</time></trkpt>
<trkpt lat="42.081218" lon="23.626747"><ele>1792.6</ele><time>2026-03-08T15:03:30.000Z</time></trkpt>
<trkpt lat="42.081209" lon="23.626761"><ele>1792.6</ele><time>2026-03-08T15:03:31.000Z</time></trkpt>
<trkpt lat="42.0812" lon="23.626774"><ele>1792.2</ele><time>2026-03-08T15:03:32.000Z</time></trkpt>
<trkpt lat="42.081193" lon="23.626789"><ele>1792.2</ele><time>2026-03-08T15:03:33.000Z</time></trkpt>
<trkpt lat="42.081186" lon="23.626805"><ele>1792.2</ele><time>2026-03-08T15:03:34.000Z</time></trkpt>
<trkpt lat="42.081178" lon="23.626822"><ele>1792.2</ele><time>2026-03-08T15:03:35.000Z</time></trkpt>
<trkpt lat="42.081171" lon="23.626839"><ele>1792.2</ele><time>2026-03-08T15:03:36.000Z</time></trkpt>
<trkpt lat="42.081164" lon="23.626856"><ele>1791.6</ele><time>2026-03-08T15:03:37.000Z</time></trkpt>
<trkpt lat="42.081157" lon="23.626871"><ele>1791.6</ele><time>2026-03-08T15:03:38.000Z</time></trkpt>
<trkpt lat="42.081148" lon="23.626886"><ele>1791.6</ele><time>2026-03-08T15:03:39.000Z</time></trkpt>
<trkpt lat="42.08114" lon="23.6269"><ele>1791.6</ele><time>2026-03-08T15:03:40.000Z</time></trkpt>
<trkpt lat="42.081132" lon="23.626914"><ele>1791.6</ele><time>2026-03-08T15:03:41.000Z</time></trkpt>
<trkpt lat="42.081125" lon="23.626929"><ele>1791.1</ele><time>2026-03-08T15:03:42.000Z</time></trkpt>
<trkpt lat="42.081119" lon="23.626945"><ele>1791.1</ele><time>2026-03-08T15:03:43.000Z</time></trkpt>
<trkpt lat="42.081113" lon="23.626961"><ele>1791.1</ele><time>2026-03-08T15:03:44.000Z</time></trkpt>
<trkpt lat="42.081108" lon="23.626977"><ele>1791.1</ele><time>2026-03-08T15:03:45.000Z</time></trkpt>
<trkpt lat="42.081104" lon="23.626994"><ele>1791.1</ele><time>2026-03-08T15:03:46.000Z</time></trkpt>
<trkpt lat="42.0811" lon="23.62701"><ele>1790.8</ele><time>2026-03-08T15:03:47.000Z</time></trkpt>
<trkpt lat="42.081098" lon="23.627026"><ele>1790.8</ele><time>2026-03-08T15:03:48.000Z</time></trkpt>
<trkpt lat="42.081095" lon="23.627041"><ele>1790.8</ele><time>2026-03-08T15:03:49.000Z</time></trkpt>
<trkpt lat="42.081094" lon="23.627055"><ele>1790.8</ele><time>2026-03-08T15:03:50.000Z</time></trkpt>
<trkpt lat="42.081093" lon="23.627067"><ele>1790.8</ele><time>2026-03-08T15:03:51.000Z</time></trkpt>
<trkpt lat="42.081093" lon="23.62708"><ele>1790.1</ele><time>2026-03-08T15:03:52.000Z</time></trkpt>
<trkpt lat="42.081093" lon="23.627091"><ele>1790.1</ele><time>2026-03-08T15:03:53.000Z</time></trkpt>
<trkpt lat="42.081092" lon="23.627103"><ele>1790.1</ele><time>2026-03-08T15:03:54.000Z</time></trkpt>
<trkpt lat="42.081091" lon="23.627112"><ele>1790.1</ele><time>2026-03-08T15:03:55.000Z</time></trkpt>
<trkpt lat="42.08109" lon="23.62712"><ele>1790.1</ele><time>2026-03-08T15:03:56.000Z</time></trkpt>
<trkpt lat="42.081087" lon="23.627125"><ele>1789.3</ele><time>2026-03-08T15:03:57.000Z</time></trkpt>
<trkpt lat="42.081085" lon="23.627128"><ele>1789.3</ele><time>2026-03-08T15:03:58.000Z</time></trkpt>
<trkpt lat="42.081085" lon="23.627132"><ele>1789.3</ele><time>2026-03-08T15:03:59.000Z</time></trkpt>
<trkpt lat="42.081085" lon="23.627137"><ele>1789.3</ele><time>2026-03-08T15:04:00.000Z</time></trkpt>
<trkpt lat="42.081088" lon="23.627144"><ele>1789.3</ele><time>2026-03-08T15:04:01.000Z</time></trkpt>
<trkpt lat="42.08109" lon="23.627153"><ele>1788.9</ele><time>2026-03-08T15:04:02.000Z</time></trkpt>
<trkpt lat="42.081093" lon="23.627165"><ele>1788.9</ele><time>2026-03-08T15:04:03.000Z</time></trkpt>
<trkpt lat="42.081096" lon="23.627177"><ele>1788.9</ele><time>2026-03-08T15:04:04.000Z</time></trkpt>
<trkpt lat="42.081097" lon="23.62719"><ele>1788.9</ele><time>2026-03-08T15:04:05.000Z</time></trkpt>
<trkpt lat="42.081097" lon="23.627202"><ele>1788.9</ele><time>2026-03-08T15:04:06.000Z</time></trkpt>
<trkpt lat="42.081096" lon="23.627215"><ele>1788.3</ele><time>2026-03-08T15:04:07.000Z</time></trkpt>
<trkpt lat="42.081095" lon="23.627227"><ele>1788.3</ele><time>2026-03-08T15:04:08.000Z</time></trkpt>
<trkpt lat="42.081096" lon="23.627239"><ele>1788.3</ele><time>2026-03-08T15:04:09.000Z</time></trkpt>
<trkpt lat="42.081098" lon="23.627251"><ele>1788.3</ele><time>2026-03-08T15:04:10.000Z</time></trkpt>
<trkpt lat="42.081102" lon="23.627264"><ele>1788.3</ele><time>2026-03-08T15:04:11.000Z</time></trkpt>
<trkpt lat="42.081105" lon="23.627279"><ele>1788</ele><time>2026-03-08T15:04:12.000Z</time></trkpt>
<trkpt lat="42.081109" lon="23.627293"><ele>1788</ele><time>2026-03-08T15:04:13.000Z</time></trkpt>
<trkpt lat="42.081113" lon="23.627308"><ele>1788</ele><time>2026-03-08T15:04:14.000Z</time></trkpt>
<trkpt lat="42.081115" lon="23.627325"><ele>1788</ele><time>2026-03-08T15:04:15.000Z</time></trkpt>
<trkpt lat="42.081118" lon="23.627342"><ele>1788</ele><time>2026-03-08T15:04:16.000Z</time></trkpt>
<trkpt lat="42.081122" lon="23.62736"><ele>1787.9</ele><time>2026-03-08T15:04:17.000Z</time></trkpt>
<trkpt lat="42.081126" lon="23.627378"><ele>1787.9</ele><time>2026-03-08T15:04:18.000Z</time></trkpt>
<trkpt lat="42.081129" lon="23.627396"><ele>1787.9</ele><time>2026-03-08T15:04:19.000Z</time></trkpt>
<trkpt lat="42.081133" lon="23.627413"><ele>1787.9</ele><time>2026-03-08T15:04:20.000Z</time></trkpt>
<trkpt lat="42.081138" lon="23.62743"><ele>1787.9</ele><time>2026-03-08T15:04:21.000Z</time></trkpt>
<trkpt lat="42.081143" lon="23.627446"><ele>1787.6</ele><time>2026-03-08T15:04:22.000Z</time></trkpt>
<trkpt lat="42.081147" lon="23.627463"><ele>1787.6</ele><time>2026-03-08T15:04:23.000Z</time></trkpt>
<trkpt lat="42.081153" lon="23.62748"><ele>1787.6</ele><time>2026-03-08T15:04:24.000Z</time></trkpt>
<trkpt lat="42.081157" lon="23.627497"><ele>1787.6</ele><time>2026-03-08T15:04:25.000Z</time></trkpt>
<trkpt lat="42.081161" lon="23.627513"><ele>1787.6</ele><time>2026-03-08T15:04:26.000Z</time></trkpt>
<trkpt lat="42.081163" lon="23.62753"><ele>1787.1</ele><time>2026-03-08T15:04:27.000Z</time></trkpt>
<trkpt lat="42.081166" lon="23.627546"><ele>1787.1</ele><time>2026-03-08T15:04:28.000Z</time></trkpt>
<trkpt lat="42.081169" lon="23.627562"><ele>1787.1</ele><time>2026-03-08T15:04:29.000Z</time></trkpt>
<trkpt lat="42.081171" lon="23.627578"><ele>1787.1</ele><time>2026-03-08T15:04:30.000Z</time></trkpt>
<trkpt lat="42.081173" lon="23.627595"><ele>1787.1</ele><time>2026-03-08T15:04:31.000Z</time></trkpt>
<trkpt lat="42.081176" lon="23.627611"><ele>1786.9</ele><time>2026-03-08T15:04:32.000Z</time></trkpt>
<trkpt lat="42.081178" lon="23.627627"><ele>1786.9</ele><time>2026-03-08T15:04:33.000Z</time></trkpt>
<trkpt lat="42.08118" lon="23.627643"><ele>1786.9</ele><time>2026-03-08T15:04:34.000Z</time></trkpt>
<trkpt lat="42.081182" lon="23.62766"><ele>1786.9</ele><time>2026-03-08T15:04:35.000Z</time></trkpt>
<trkpt lat="42.081185" lon="23.627676"><ele>1786.9</ele><time>2026-03-08T15:04:36.000Z</time></trkpt>
<trkpt lat="42.081188" lon="23.627692"><ele>1786.3</ele><time>2026-03-08T15:04:37.000Z</time></trkpt>
<trkpt lat="42.081192" lon="23.627708"><ele>1786.3</ele><time>2026-03-08T15:04:38.000Z</time></trkpt>
<trkpt lat="42.081196" lon="23.627725"><ele>1786.3</ele><time>2026-03-08T15:04:39.000Z</time></trkpt>
<trkpt lat="42.0812" lon="23.627741"><ele>1786.3</ele><time>2026-03-08T15:04:40.000Z</time></trkpt>
<trkpt lat="42.081205" lon="23.627757"><ele>1786.3</ele><time>2026-03-08T15:04:41.000Z</time></trkpt>
<trkpt lat="42.08121" lon="23.627772"><ele>1785.8</ele><time>2026-03-08T15:04:42.000Z</time></trkpt>
<trkpt lat="42.081215" lon="23.627788"><ele>1785.8</ele><time>2026-03-08T15:04:43.000Z</time></trkpt>
<trkpt lat="42.08122" lon="23.627803"><ele>1785.8</ele><time>2026-03-08T15:04:44.000Z</time></trkpt>
<trkpt lat="42.081224" lon="23.627819"><ele>1785.8</ele><time>2026-03-08T15:04:45.000Z</time></trkpt>
<trkpt lat="42.081229" lon="23.627835"><ele>1785.8</ele><time>2026-03-08T15:04:46.000Z</time></trkpt>
<trkpt lat="42.081233" lon="23.627851"><ele>1785.5</ele><time>2026-03-08T15:04:47.000Z</time></trkpt>
<trkpt lat="42.081237" lon="23.627869"><ele>1785.5</ele><time>2026-03-08T15:04:48.000Z</time></trkpt>
<trkpt lat="42.081238" lon="23.627888"><ele>1785.5</ele><time>2026-03-08T15:04:49.000Z</time></trkpt>
<trkpt lat="42.081239" lon="23.627906"><ele>1785.5</ele><time>2026-03-08T15:04:50.000Z</time></trkpt>
<trkpt lat="42.081239" lon="23.627925"><ele>1785.5</ele><time>2026-03-08T15:04:51.000Z</time></trkpt>
<trkpt lat="42.081236" lon="23.627944"><ele>1784.6</ele><time>2026-03-08T15:04:52.000Z</time></trkpt>
<trkpt lat="42.081233" lon="23.627963"><ele>1784.6</ele><time>2026-03-08T15:04:53.000Z</time></trkpt>
<trkpt lat="42.08123" lon="23.627981"><ele>1784.6</ele><time>2026-03-08T15:04:54.000Z</time></trkpt>
<trkpt lat="42.081226" lon="23.627999"><ele>1784.6</ele><time>2026-03-08T15:04:55.000Z</time></trkpt>
<trkpt lat="42.081222" lon="23.628016"><ele>1784.6</ele><time>2026-03-08T15:04:56.000Z</time></trkpt>
<trkpt lat="42.081217" lon="23.628033"><ele>1783.6</ele><time>2026-03-08T15:04:57.000Z</time></trkpt>
<trkpt lat="42.081211" lon="23.628049"><ele>1783.6</ele><time>2026-03-08T15:04:58.000Z</time></trkpt>
<trkpt lat="42.081204" lon="23.628063"><ele>1783.6</ele><time>2026-03-08T15:04:59.000Z</time></trkpt>
<trkpt lat="42.081197" lon="23.628078"><ele>1783.6</ele><time>2026-03-08T15:05:00.000Z</time></trkpt>
<trkpt lat="42.081189" lon="23.628093"><ele>1783.6</ele><time>2026-03-08T15:05:01.000Z</time></trkpt>
<trkpt lat="42.08118" lon="23.628106"><ele>1783.1</ele><time>2026-03-08T15:05:02.000Z</time></trkpt>
<trkpt lat="42.081171" lon="23.62812"><ele>1783.1</ele><time>2026-03-08T15:05:03.000Z</time></trkpt>
<trkpt lat="42.081161" lon="23.628135"><ele>1783.1</ele><time>2026-03-08T15:05:04.000Z</time></trkpt>
<trkpt lat="42.081151" lon="23.628149"><ele>1783.1</ele><time>2026-03-08T15:05:05.000Z</time></trkpt>
<trkpt lat="42.08114" lon="23.628163"><ele>1783.1</ele><time>2026-03-08T15:05:06.000Z</time></trkpt>
<trkpt lat="42.081129" lon="23.628177"><ele>1782</ele><time>2026-03-08T15:05:07.000Z</time></trkpt>
<trkpt lat="42.081119" lon="23.62819"><ele>1782</ele><time>2026-03-08T15:05:08.000Z</time></trkpt>
<trkpt lat="42.08111" lon="23.628204"><ele>1782</ele><time>2026-03-08T15:05:09.000Z</time></trkpt>
<trkpt lat="42.0811" lon="23.628217"><ele>1782</ele><time>2026-03-08T15:05:10.000Z</time></trkpt>
<trkpt lat="42.08109" lon="23.62823"><ele>1782</ele><time>2026-03-08T15:05:11.000Z</time></trkpt>
<trkpt lat="42.081079" lon="23.628244"><ele>1780.9</ele><time>2026-03-08T15:05:12.000Z</time></trkpt>
<trkpt lat="42.081068" lon="23.628257"><ele>1780.9</ele><time>2026-03-08T15:05:13.000Z</time></trkpt>
<trkpt lat="42.081056" lon="23.628271"><ele>1780.9</ele><time>2026-03-08T15:05:14.000Z</time></trkpt>
<trkpt lat="42.081045" lon="23.628283"><ele>1780.9</ele><time>2026-03-08T15:05:15.000Z</time></trkpt>
<trkpt lat="42.081035" lon="23.628296"><ele>1780.9</ele><time>2026-03-08T15:05:16.000Z</time></trkpt>
<trkpt lat="42.081025" lon="23.628308"><ele>1780.4</ele><time>2026-03-08T15:05:17.000Z</time></trkpt>
<trkpt lat="42.081015" lon="23.628319"><ele>1780.4</ele><time>2026-03-08T15:05:18.000Z</time></trkpt>
<trkpt lat="42.081006" lon="23.628331"><ele>1780.4</ele><time>2026-03-08T15:05:19.000Z</time></trkpt>
<trkpt lat="42.080997" lon="23.628342"><ele>1780.4</ele><time>2026-03-08T15:05:20.000Z</time></trkpt>
<trkpt lat="42.080988" lon="23.628354"><ele>1780.4</ele><time>2026-03-08T15:05:21.000Z</time></trkpt>
<trkpt lat="42.080979" lon="23.628367"><ele>1779.6</ele><time>2026-03-08T15:05:22.000Z</time></trkpt>
<trkpt lat="42.080971" lon="23.628379"><ele>1779.6</ele><time>2026-03-08T15:05:23.000Z</time></trkpt>
<trkpt lat="42.080962" lon="23.628392"><ele>1779.6</ele><time>2026-03-08T15:05:24.000Z</time></trkpt>
<trkpt lat="42.080954" lon="23.628405"><ele>1779.6</ele><time>2026-03-08T15:05:25.000Z</time></trkpt>
<trkpt lat="42.080945" lon="23.628419"><ele>1779.6</ele><time>2026-03-08T15:05:26.000Z</time></trkpt>
<trkpt lat="42.080935" lon="23.628432"><ele>1778.8</ele><time>2026-03-08T15:05:27.000Z</time></trkpt>
<trkpt lat="42.080924" lon="23.628445"><ele>1778.8</ele><time>2026-03-08T15:05:28.000Z</time></trkpt>
<trkpt lat="42.080914" lon="23.628457"><ele>1778.8</ele><time>2026-03-08T15:05:29.000Z</time></trkpt>
<trkpt lat="42.080903" lon="23.628469"><ele>1778.8</ele><time>2026-03-08T15:05:30.000Z</time></trkpt>
<trkpt lat="42.080893" lon="23.628481"><ele>1778.8</ele><time>2026-03-08T15:05:31.000Z</time></trkpt>
<trkpt lat="42.080883" lon="23.628493"><ele>1778.4</ele><time>2026-03-08T15:05:32.000Z</time></trkpt>
<trkpt lat="42.080873" lon="23.628505"><ele>1778.4</ele><time>2026-03-08T15:05:33.000Z</time></trkpt>
<trkpt lat="42.080863" lon="23.628519"><ele>1778.4</ele><time>2026-03-08T15:05:34.000Z</time></trkpt>
<trkpt lat="42.080853" lon="23.628531"><ele>1778.4</ele><time>2026-03-08T15:05:35.000Z</time></trkpt>
<trkpt lat="42.080844" lon="23.628544"><ele>1778.4</ele><time>2026-03-08T15:05:36.000Z</time></trkpt>
<trkpt lat="42.080833" lon="23.628555"><ele>1777.6</ele><time>2026-03-08T15:05:37.000Z</time></trkpt>
<trkpt lat="42.080824" lon="23.628568"><ele>1777.6</ele><time>2026-03-08T15:05:38.000Z</time></trkpt>
<trkpt lat="42.080814" lon="23.628581"><ele>1777.6</ele><time>2026-03-08T15:05:39.000Z</time></trkpt>
<trkpt lat="42.080805" lon="23.628595"><ele>1777.6</ele><time>2026-03-08T15:05:40.000Z</time></trkpt>
<trkpt lat="42.080794" lon="23.628609"><ele>1777.6</ele><time>2026-03-08T15:05:41.000Z</time></trkpt>
<trkpt lat="42.080784" lon="23.628622"><ele>1776.7</ele><time>2026-03-08T15:05:42.000Z</time></trkpt>
<trkpt lat="42.080774" lon="23.628636"><ele>1776.7</ele><time>2026-03-08T15:05:43.000Z</time></trkpt>
<trkpt lat="42.080763" lon="23.628649"><ele>1776.7</ele><time>2026-03-08T15:05:44.000Z</time></trkpt>
<trkpt lat="42.080752" lon="23.628662"><ele>1776.7</ele><time>2026-03-08T15:05:45.000Z</time></trkpt>
<trkpt lat="42.080742" lon="23.628674"><ele>1776.7</ele><time>2026-03-08T15:05:46.000Z</time></trkpt>
<trkpt lat="42.080731" lon="23.628687"><ele>1776.2</ele><time>2026-03-08T15:05:47.000Z</time></trkpt>
<trkpt lat="42.08072" lon="23.6287"><ele>1776.2</ele><time>2026-03-08T15:05:48.000Z</time></trkpt>
<trkpt lat="42.08071" lon="23.628714"><ele>1776.2</ele><time>2026-03-08T15:05:49.000Z</time></trkpt>
<trkpt lat="42.080699" lon="23.628728"><ele>1776.2</ele><time>2026-03-08T15:05:50.000Z</time></trkpt>
<trkpt lat="42.080689" lon="23.628743"><ele>1776.2</ele><time>2026-03-08T15:05:51.000Z</time></trkpt>
<trkpt lat="42.080679" lon="23.628759"><ele>1775</ele><time>2026-03-08T15:05:52.000Z</time></trkpt>
<trkpt lat="42.080669" lon="23.628774"><ele>1775</ele><time>2026-03-08T15:05:53.000Z</time></trkpt>
<trkpt lat="42.080659" lon="23.628789"><ele>1775</ele><time>2026-03-08T15:05:54.000Z</time></trkpt>
<trkpt lat="42.080649" lon="23.628803"><ele>1775</ele><time>2026-03-08T15:05:55.000Z</time></trkpt>
<trkpt lat="42.08064" lon="23.628818"><ele>1775</ele><time>2026-03-08T15:05:56.000Z</time></trkpt>
<trkpt lat="42.080633" lon="23.628834"><ele>1773.7</ele><time>2026-03-08T15:05:57.000Z</time></trkpt>
<trkpt lat="42.080625" lon="23.62885"><ele>1773.7</ele><time>2026-03-08T15:05:58.000Z</time></trkpt>
<trkpt lat="42.080618" lon="23.628866"><ele>1773.7</ele><time>2026-03-08T15:05:59.000Z</time></trkpt>
<trkpt lat="42.08061" lon="23.628883"><ele>1773.7</ele><time>2026-03-08T15:06:00.000Z</time></trkpt>
<trkpt lat="42.080602" lon="23.628898"><ele>1773.7</ele><time>2026-03-08T15:06:01.000Z</time></trkpt>
<trkpt lat="42.080595" lon="23.628913"><ele>1773.2</ele><time>2026-03-08T15:06:02.000Z</time></trkpt>
<trkpt lat="42.080588" lon="23.628929"><ele>1773.2</ele><time>2026-03-08T15:06:03.000Z</time></trkpt>
<trkpt lat="42.080582" lon="23.628943"><ele>1773.2</ele><time>2026-03-08T15:06:04.000Z</time></trkpt>
<trkpt lat="42.080579" lon="23.628958"><ele>1773.2</ele><time>2026-03-08T15:06:05.000Z</time></trkpt>
<trkpt lat="42.080576" lon="23.628973"><ele>1773.2</ele><time>2026-03-08T15:06:06.000Z</time></trkpt>
<trkpt lat="42.080574" lon="23.628988"><ele>1772.3</ele><time>2026-03-08T15:06:07.000Z</time></trkpt>
<trkpt lat="42.080574" lon="23.629003"><ele>1772.3</ele><time>2026-03-08T15:06:08.000Z</time></trkpt>
<trkpt lat="42.080573" lon="23.629019"><ele>1772.3</ele><time>2026-03-08T15:06:09.000Z</time></trkpt>
<trkpt lat="42.080573" lon="23.629035"><ele>1772.3</ele><time>2026-03-08T15:06:10.000Z</time></trkpt>
<trkpt lat="42.080572" lon="23.62905"><ele>1772.3</ele><time>2026-03-08T15:06:11.000Z</time></trkpt>
<trkpt lat="42.080573" lon="23.629065"><ele>1771.7</ele><time>2026-03-08T15:06:12.000Z</time></trkpt>
<trkpt lat="42.080574" lon="23.629081"><ele>1771.7</ele><time>2026-03-08T15:06:13.000Z</time></trkpt>
<trkpt lat="42.080576" lon="23.629097"><ele>1771.7</ele><time>2026-03-08T15:06:14.000Z</time></trkpt>
<trkpt lat="42.080578" lon="23.629112"><ele>1771.7</ele><time>2026-03-08T15:06:15.000Z</time></trkpt>
<trkpt lat="42.08058" lon="23.629126"><ele>1771.7</ele><time>2026-03-08T15:06:16.000Z</time></trkpt>
<trkpt lat="42.08058" lon="23.629139"><ele>1771.3</ele><time>2026-03-08T15:06:17.000Z</time></trkpt>
<trkpt lat="42.080579" lon="23.629148"><ele>1771.3</ele><time>2026-03-08T15:06:18.000Z</time></trkpt>
<trkpt lat="42.080577" lon="23.629155"><ele>1771.3</ele><time>2026-03-08T15:06:19.000Z</time></trkpt>
<trkpt lat="42.080574" lon="23.629161"><ele>1771.3</ele><time>2026-03-08T15:06:20.000Z</time></trkpt>
<trkpt lat="42.080569" lon="23.629166"><ele>1771.3</ele><time>2026-03-08T15:06:21.000Z</time></trkpt>
<trkpt lat="42.080565" lon="23.62917"><ele>1770.6</ele><time>2026-03-08T15:06:22.000Z</time></trkpt>
<trkpt lat="42.080559" lon="23.629173"><ele>1770.6</ele><time>2026-03-08T15:06:23.000Z</time></trkpt>
<trkpt lat="42.080553" lon="23.629174"><ele>1770.6</ele><time>2026-03-08T15:06:24.000Z</time></trkpt>
<trkpt lat="42.080547" lon="23.629174"><ele>1770.6</ele><time>2026-03-08T15:06:25.000Z</time></trkpt>
<trkpt lat="42.08054" lon="23.629175"><ele>1770.6</ele><time>2026-03-08T15:06:26.000Z</time></trkpt>
<trkpt lat="42.080533" lon="23.629177"><ele>1769.7</ele><time>2026-03-08T15:06:27.000Z</time></trkpt>
<trkpt lat="42.080525" lon="23.629182"><ele>1769.7</ele><time>2026-03-08T15:06:28.000Z</time></trkpt>
<trkpt lat="42.080517" lon="23.629189"><ele>1769.7</ele><time>2026-03-08T15:06:29.000Z</time></trkpt>
<trkpt lat="42.080507" lon="23.6292"><ele>1769.7</ele><time>2026-03-08T15:06:30.000Z</time></trkpt>
<trkpt lat="42.080499" lon="23.62921"><ele>1769.7</ele><time>2026-03-08T15:06:31.000Z</time></trkpt>
<trkpt lat="42.08049" lon="23.629221"><ele>1769.2</ele><time>2026-03-08T15:06:32.000Z</time></trkpt>
<trkpt lat="42.080481" lon="23.629229"><ele>1769.2</ele><time>2026-03-08T15:06:33.000Z</time></trkpt>
<trkpt lat="42.080472" lon="23.629237"><ele>1769.2</ele><time>2026-03-08T15:06:34.000Z</time></trkpt>
<trkpt lat="42.080465" lon="23.629244"><ele>1769.2</ele><time>2026-03-08T15:06:35.000Z</time></trkpt>
<trkpt lat="42.080457" lon="23.62925"><ele>1769.2</ele><time>2026-03-08T15:06:36.000Z</time></trkpt>
<trkpt lat="42.080449" lon="23.629257"><ele>1768.2</ele><time>2026-03-08T15:06:37.000Z</time></trkpt>
<trkpt lat="42.080441" lon="23.629265"><ele>1768.2</ele><time>2026-03-08T15:06:38.000Z</time></trkpt>
<trkpt lat="42.080432" lon="23.629273"><ele>1768.2</ele><time>2026-03-08T15:06:39.000Z</time></trkpt>
<trkpt lat="42.080423" lon="23.629281"><ele>1768.2</ele><time>2026-03-08T15:06:40.000Z</time></trkpt>
<trkpt lat="42.080413" lon="23.629288"><ele>1768.2</ele><time>2026-03-08T15:06:41.000Z</time></trkpt>
<trkpt lat="42.080403" lon="23.629292"><ele>1767.1</ele><time>2026-03-08T15:06:42.000Z</time></trkpt>
<trkpt lat="42.080393" lon="23.629296"><ele>1767.1</ele><time>2026-03-08T15:06:43.000Z</time></trkpt>
<trkpt lat="42.080383" lon="23.6293"><ele>1767.1</ele><time>2026-03-08T15:06:44.000Z</time></trkpt>
<trkpt lat="42.080372" lon="23.629304"><ele>1767.1</ele><time>2026-03-08T15:06:45.000Z</time></trkpt>
<trkpt lat="42.08036" lon="23.629309"><ele>1767.1</ele><time>2026-03-08T15:06:46.000Z</time></trkpt>
<trkpt lat="42.080348" lon="23.629315"><ele>1766.6</ele><time>2026-03-08T15:06:47.000Z</time></trkpt>
<trkpt lat="42.080336" lon="23.629321"><ele>1766.6</ele><time>2026-03-08T15:06:48.000Z</time></trkpt>
<trkpt lat="42.080326" lon="23.629328"><ele>1766.6</ele><time>2026-03-08T15:06:49.000Z</time></trkpt>
<trkpt lat="42.080317" lon="23.629335"><ele>1766.6</ele><time>2026-03-08T15:06:50.000Z</time></trkpt>
<trkpt lat="42.08031" lon="23.629344"><ele>1766.6</ele><time>2026-03-08T15:06:51.000Z</time></trkpt>
<trkpt lat="42.080304" lon="23.629355"><ele>1765.6</ele><time>2026-03-08T15:06:52.000Z</time></trkpt>
<trkpt lat="42.080299" lon="23.629366"><ele>1765.6</ele><time>2026-03-08T15:06:53.000Z</time></trkpt>
<trkpt lat="42.080294" lon="23.62938"><ele>1765.6</ele><time>2026-03-08T15:06:54.000Z</time></trkpt>
<trkpt lat="42.080288" lon="23.629394"><ele>1765.6</ele><time>2026-03-08T15:06:55.000Z</time></trkpt>
<trkpt lat="42.080282" lon="23.629406"><ele>1765.6</ele><time>2026-03-08T15:06:56.000Z</time></trkpt>
<trkpt lat="42.080277" lon="23.629416"><ele>1764.5</ele><time>2026-03-08T15:06:57.000Z</time></trkpt>
<trkpt lat="42.080272" lon="23.629424"><ele>1764.5</ele><time>2026-03-08T15:06:58.000Z</time></trkpt>
<trkpt lat="42.080266" lon="23.62943"><ele>1764.5</ele><time>2026-03-08T15:06:59.000Z</time></trkpt>
<trkpt lat="42.080261" lon="23.629435"><ele>1764.5</ele><time>2026-03-08T15:07:00.000Z</time></trkpt>
<trkpt lat="42.080255" lon="23.629439"><ele>1764.5</ele><time>2026-03-08T15:07:01.000Z</time></trkpt>
<trkpt lat="42.080249" lon="23.629445"><ele>1763.9</ele><time>2026-03-08T15:07:02.000Z</time></trkpt>
<trkpt lat="42.080242" lon="23.629451"><ele>1763.9</ele><time>2026-03-08T15:07:03.000Z</time></trkpt>
<trkpt lat="42.080236" lon="23.629458"><ele>1763.9</ele><time>2026-03-08T15:07:04.000Z</time></trkpt>
<trkpt lat="42.080229" lon="23.629465"><ele>1763.9</ele><time>2026-03-08T15:07:05.000Z</time></trkpt>
<trkpt lat="42.080223" lon="23.629475"><ele>1763.9</ele><time>2026-03-08T15:07:06.000Z</time></trkpt>
<trkpt lat="42.080217" lon="23.629484"><ele>1762.8</ele><time>2026-03-08T15:07:07.000Z</time></trkpt>
<trkpt lat="42.080212" lon="23.629494"><ele>1762.8</ele><time>2026-03-08T15:07:08.000Z</time></trkpt>
<trkpt lat="42.080208" lon="23.629505"><ele>1762.8</ele><time>2026-03-08T15:07:09.000Z</time></trkpt>
<trkpt lat="42.080205" lon="23.629516"><ele>1762.8</ele><time>2026-03-08T15:07:10.000Z</time></trkpt>
<trkpt lat="42.080201" lon="23.629526"><ele>1762.8</ele><time>2026-03-08T15:07:11.000Z</time></trkpt>
<trkpt lat="42.080197" lon="23.629536"><ele>1761.6</ele><time>2026-03-08T15:07:12.000Z</time></trkpt>
<trkpt lat="42.080193" lon="23.629545"><ele>1761.6</ele><time>2026-03-08T15:07:13.000Z</time></trkpt>
<trkpt lat="42.080187" lon="23.629554"><ele>1761.6</ele><time>2026-03-08T15:07:14.000Z</time></trkpt>
<trkpt lat="42.08018" lon="23.629564"><ele>1761.6</ele><time>2026-03-08T15:07:15.000Z</time></trkpt>
<trkpt lat="42.080174" lon="23.629573"><ele>1761.6</ele><time>2026-03-08T15:07:16.000Z</time></trkpt>
<trkpt lat="42.080166" lon="23.629582"><ele>1761.1</ele><time>2026-03-08T15:07:17.000Z</time></trkpt>
<trkpt lat="42.080159" lon="23.629593"><ele>1761.1</ele><time>2026-03-08T15:07:18.000Z</time></trkpt>
<trkpt lat="42.080151" lon="23.629604"><ele>1761.1</ele><time>2026-03-08T15:07:19.000Z</time></trkpt>
<trkpt lat="42.080144" lon="23.629613"><ele>1761.1</ele><time>2026-03-08T15:07:20.000Z</time></trkpt>
<trkpt lat="42.080137" lon="23.629623"><ele>1761.1</ele><time>2026-03-08T15:07:21.000Z</time></trkpt>
<trkpt lat="42.08013" lon="23.629633"><ele>1759.9</ele><time>2026-03-08T15:07:22.000Z</time></trkpt>
<trkpt lat="42.080123" lon="23.629642"><ele>1759.9</ele><time>2026-03-08T15:07:23.000Z</time></trkpt>
<trkpt lat="42.080117" lon="23.629649"><ele>1759.9</ele><time>2026-03-08T15:07:24.000Z</time></trkpt>
<trkpt lat="42.08011" lon="23.629658"><ele>1759.9</ele><time>2026-03-08T15:07:25.000Z</time></trkpt>
<trkpt lat="42.080103" lon="23.629667"><ele>1759.9</ele><time>2026-03-08T15:07:26.000Z</time></trkpt>
<trkpt lat="42.080097" lon="23.629675"><ele>1758.5</ele><time>2026-03-08T15:07:27.000Z</time></trkpt>
<trkpt lat="42.080092" lon="23.629682"><ele>1758.5</ele><time>2026-03-08T15:07:28.000Z</time></trkpt>
<trkpt lat="42.080087" lon="23.629691"><ele>1758.5</ele><time>2026-03-08T15:07:29.000Z</time></trkpt>
<trkpt lat="42.080083" lon="23.629698"><ele>1758.5</ele><time>2026-03-08T15:07:30.000Z</time></trkpt>
<trkpt lat="42.080078" lon="23.629705"><ele>1758.5</ele><time>2026-03-08T15:07:31.000Z</time></trkpt>
<trkpt lat="42.080074" lon="23.629713"><ele>1757.9</ele><time>2026-03-08T15:07:32.000Z</time></trkpt>
<trkpt lat="42.080069" lon="23.62972"><ele>1757.9</ele><time>2026-03-08T15:07:33.000Z</time></trkpt>
<trkpt lat="42.080064" lon="23.629729"><ele>1757.9</ele><time>2026-03-08T15:07:34.000Z</time></trkpt>
<trkpt lat="42.080058" lon="23.629739"><ele>1757.9</ele><time>2026-03-08T15:07:35.000Z</time></trkpt>
<trkpt lat="42.080054" lon="23.62975"><ele>1757.9</ele><time>2026-03-08T15:07:36.000Z</time></trkpt>
<trkpt lat="42.080049" lon="23.629762"><ele>1756.6</ele><time>2026-03-08T15:07:37.000Z</time></trkpt>
<trkpt lat="42.080045" lon="23.629773"><ele>1756.6</ele><time>2026-03-08T15:07:38.000Z</time></trkpt>
<trkpt lat="42.080044" lon="23.629784"><ele>1756.6</ele><time>2026-03-08T15:07:39.000Z</time></trkpt>
<trkpt lat="42.080043" lon="23.629794"><ele>1756.6</ele><time>2026-03-08T15:07:40.000Z</time></trkpt>
<trkpt lat="42.080041" lon="23.629801"><ele>1756.6</ele><time>2026-03-08T15:07:41.000Z</time></trkpt>
<trkpt lat="42.080041" lon="23.629806"><ele>1755.4</ele><time>2026-03-08T15:07:42.000Z</time></trkpt>
<trkpt lat="42.08004" lon="23.629812"><ele>1755.4</ele><time>2026-03-08T15:07:43.000Z</time></trkpt>
<trkpt lat="42.080039" lon="23.629817"><ele>1755.4</ele><time>2026-03-08T15:07:44.000Z</time></trkpt>
<trkpt lat="42.080038" lon="23.629822"><ele>1755.4</ele><time>2026-03-08T15:07:45.000Z</time></trkpt>
<trkpt lat="42.080037" lon="23.629828"><ele>1755.4</ele><time>2026-03-08T15:07:46.000Z</time></trkpt>
<trkpt lat="42.080036" lon="23.629836"><ele>1754.9</ele><time>2026-03-08T15:07:47.000Z</time></trkpt>
<trkpt lat="42.080036" lon="23.629843"><ele>1754.9</ele><time>2026-03-08T15:07:48.000Z</time></trkpt>
<trkpt lat="42.080035" lon="23.629849"><ele>1754.9</ele><time>2026-03-08T15:07:49.000Z</time></trkpt>
<trkpt lat="42.080034" lon="23.629856"><ele>1754.9</ele><time>2026-03-08T15:07:50.000Z</time></trkpt>
<trkpt lat="42.080034" lon="23.629862"><ele>1754.9</ele><time>2026-03-08T15:07:51.000Z</time></trkpt>
<trkpt lat="42.080034" lon="23.629868"><ele>1753.8</ele><time>2026-03-08T15:07:52.000Z</time></trkpt>
<trkpt lat="42.080034" lon="23.629876"><ele>1753.8</ele><time>2026-03-08T15:07:53.000Z</time></trkpt>
<trkpt lat="42.080034" lon="23.629886"><ele>1753.8</ele><time>2026-03-08T15:07:54.000Z</time></trkpt>
<trkpt lat="42.080035" lon="23.629896"><ele>1753.8</ele><time>2026-03-08T15:07:55.000Z</time></trkpt>
<trkpt lat="42.080034" lon="23.62991"><ele>1753.8</ele><time>2026-03-08T15:07:56.000Z</time></trkpt>
<trkpt lat="42.080033" lon="23.629924"><ele>1753</ele><time>2026-03-08T15:07:57.000Z</time></trkpt>
<trkpt lat="42.080034" lon="23.629937"><ele>1753</ele><time>2026-03-08T15:07:58.000Z</time></trkpt>
<trkpt lat="42.080037" lon="23.629953"><ele>1753</ele><time>2026-03-08T15:07:59.000Z</time></trkpt>
<trkpt lat="42.08004" lon="23.629969"><ele>1753</ele><time>2026-03-08T15:08:00.000Z</time></trkpt>
<trkpt lat="42.080044" lon="23.629983"><ele>1753</ele><time>2026-03-08T15:08:01.000Z</time></trkpt>
<trkpt lat="42.080047" lon="23.629997"><ele>1752.6</ele><time>2026-03-08T15:08:02.000Z</time></trkpt>
<trkpt lat="42.080047" lon="23.630012"><ele>1752.6</ele><time>2026-03-08T15:08:03.000Z</time></trkpt>
<trkpt lat="42.080044" lon="23.630027"><ele>1752.6</ele><time>2026-03-08T15:08:04.000Z</time></trkpt>
<trkpt lat="42.080041" lon="23.630041"><ele>1752.6</ele><time>2026-03-08T15:08:05.000Z</time></trkpt>
<trkpt lat="42.080038" lon="23.630056"><ele>1752.6</ele><time>2026-03-08T15:08:06.000Z</time></trkpt>
<trkpt lat="42.080035" lon="23.63007"><ele>1752</ele><time>2026-03-08T15:08:07.000Z</time></trkpt>
<trkpt lat="42.080033" lon="23.630081"><ele>1752</ele><time>2026-03-08T15:08:08.000Z</time></trkpt>
<trkpt lat="42.080032" lon="23.630087"><ele>1752</ele><time>2026-03-08T15:08:09.000Z</time></trkpt>
<trkpt lat="42.080029" lon="23.630092"><ele>1752</ele><time>2026-03-08T15:08:10.000Z</time></trkpt>
<trkpt lat="42.080025" lon="23.630094"><ele>1752</ele><time>2026-03-08T15:08:11.000Z</time></trkpt>
<trkpt lat="42.080018" lon="23.630094"><ele>1751.2</ele><time>2026-03-08T15:08:12.000Z</time></trkpt>
<trkpt lat="42.08001" lon="23.630094"><ele>1751.2</ele><time>2026-03-08T15:08:13.000Z</time></trkpt>
<trkpt lat="42.08" lon="23.630095"><ele>1751.2</ele><time>2026-03-08T15:08:14.000Z</time></trkpt>
<trkpt lat="42.079989" lon="23.630097"><ele>1751.2</ele><time>2026-03-08T15:08:15.000Z</time></trkpt>
<trkpt lat="42.079977" lon="23.6301"><ele>1751.2</ele><time>2026-03-08T15:08:16.000Z</time></trkpt>
<trkpt lat="42.079966" lon="23.630103"><ele>1750.9</ele><time>2026-03-08T15:08:17.000Z</time></trkpt>
<trkpt lat="42.079954" lon="23.630107"><ele>1750.9</ele><time>2026-03-08T15:08:18.000Z</time></trkpt>
<trkpt lat="42.079941" lon="23.63011"><ele>1750.9</ele><time>2026-03-08T15:08:19.000Z</time></trkpt>
<trkpt lat="42.079927" lon="23.630113"><ele>1750.9</ele><time>2026-03-08T15:08:20.000Z</time></trkpt>
<trkpt lat="42.079914" lon="23.630116"><ele>1750.9</ele><time>2026-03-08T15:08:21.000Z</time></trkpt>
<trkpt lat="42.0799" lon="23.630119"><ele>1750.3</ele><time>2026-03-08T15:08:22.000Z</time></trkpt>
<trkpt lat="42.079887" lon="23.630122"><ele>1750.3</ele><time>2026-03-08T15:08:23.000Z</time></trkpt>
<trkpt lat="42.079875" lon="23.630126"><ele>1750.3</ele><time>2026-03-08T15:08:24.000Z</time></trkpt>
<trkpt lat="42.079863" lon="23.63013"><ele>1750.3</ele><time>2026-03-08T15:08:25.000Z</time></trkpt>
<trkpt lat="42.079852" lon="23.630134"><ele>1750.3</ele><time>2026-03-08T15:08:26.000Z</time></trkpt>
<trkpt lat="42.079839" lon="23.630137"><ele>1749.7</ele><time>2026-03-08T15:08:27.000Z</time></trkpt>
<trkpt lat="42.079827" lon="23.630141"><ele>1749.7</ele><time>2026-03-08T15:08:28.000Z</time></trkpt>
<trkpt lat="42.079814" lon="23.630144"><ele>1749.7</ele><time>2026-03-08T15:08:29.000Z</time></trkpt>
<trkpt lat="42.0798" lon="23.630147"><ele>1749.7</ele><time>2026-03-08T15:08:30.000Z</time></trkpt>
<trkpt lat="42.079786" lon="23.630151"><ele>1749.7</ele><time>2026-03-08T15:08:31.000Z</time></trkpt>
<trkpt lat="42.079772" lon="23.630155"><ele>1749.5</ele><time>2026-03-08T15:08:32.000Z</time></trkpt>
<trkpt lat="42.079758" lon="23.630158"><ele>1749.5</ele><time>2026-03-08T15:08:33.000Z</time></trkpt>
<trkpt lat="42.079743" lon="23.63016"><ele>1749.5</ele><time>2026-03-08T15:08:34.000Z</time></trkpt>
<trkpt lat="42.079727" lon="23.630162"><ele>1749.5</ele><time>2026-03-08T15:08:35.000Z</time></trkpt>
<trkpt lat="42.079711" lon="23.630164"><ele>1749.5</ele><time>2026-03-08T15:08:36.000Z</time></trkpt>
<trkpt lat="42.079695" lon="23.630166"><ele>1748.8</ele><time>2026-03-08T15:08:37.000Z</time></trkpt>
<trkpt lat="42.079678" lon="23.630168"><ele>1748.8</ele><time>2026-03-08T15:08:38.000Z</time></trkpt>
<trkpt lat="42.079661" lon="23.63017"><ele>1748.8</ele><time>2026-03-08T15:08:39.000Z</time></trkpt>
<trkpt lat="42.079645" lon="23.630173"><ele>1748.8</ele><time>2026-03-08T15:08:40.000Z</time></trkpt>
<trkpt lat="42.07963" lon="23.630175"><ele>1748.8</ele><time>2026-03-08T15:08:41.000Z</time></trkpt>
<trkpt lat="42.079616" lon="23.630177"><ele>1748.1</ele><time>2026-03-08T15:08:42.000Z</time></trkpt>
<trkpt lat="42.079602" lon="23.630179"><ele>1748.1</ele><time>2026-03-08T15:08:43.000Z</time></trkpt>
<trkpt lat="42.079588" lon="23.630181"><ele>1748.1</ele><time>2026-03-08T15:08:44.000Z</time></trkpt>
<trkpt lat="42.079574" lon="23.630182"><ele>1748.1</ele><time>2026-03-08T15:08:45.000Z</time></trkpt>
<trkpt lat="42.07956" lon="23.630182"><ele>1748.1</ele><time>2026-03-08T15:08:46.000Z</time></trkpt>
<trkpt lat="42.079546" lon="23.630182"><ele>1747.8</ele><time>2026-03-08T15:08:47.000Z</time></trkpt>
<trkpt lat="42.079533" lon="23.630181"><ele>1747.8</ele><time>2026-03-08T15:08:48.000Z</time></trkpt>
<trkpt lat="42.07952" lon="23.630179"><ele>1747.8</ele><time>2026-03-08T15:08:49.000Z</time></trkpt>
<trkpt lat="42.079508" lon="23.630178"><ele>1747.8</ele><time>2026-03-08T15:08:50.000Z</time></trkpt>
<trkpt lat="42.079495" lon="23.630176"><ele>1747.8</ele><time>2026-03-08T15:08:51.000Z</time></trkpt>
<trkpt lat="42.079481" lon="23.630174"><ele>1747.2</ele><time>2026-03-08T15:08:52.000Z</time></trkpt>
<trkpt lat="42.079467" lon="23.63017"><ele>1747.2</ele><time>2026-03-08T15:08:53.000Z</time></trkpt>
<trkpt lat="42.079453" lon="23.630166"><ele>1747.2</ele><time>2026-03-08T15:08:54.000Z</time></trkpt>
<trkpt lat="42.079438" lon="23.630161"><ele>1747.2</ele><time>2026-03-08T15:08:55.000Z</time></trkpt>
<trkpt lat="42.079424" lon="23.630154"><ele>1747.2</ele><time>2026-03-08T15:08:56.000Z</time></trkpt>
<trkpt lat="42.07941" lon="23.630147"><ele>1746.6</ele><time>2026-03-08T15:08:57.000Z</time></trkpt>
<trkpt lat="42.079396" lon="23.630141"><ele>1746.6</ele><time>2026-03-08T15:08:58.000Z</time></trkpt>
<trkpt lat="42.079383" lon="23.630133"><ele>1746.6</ele><time>2026-03-08T15:08:59.000Z</time></trkpt>
<trkpt lat="42.07937" lon="23.630124"><ele>1746.6</ele><time>2026-03-08T15:09:00.000Z</time></trkpt>
<trkpt lat="42.079358" lon="23.630115"><ele>1746.6</ele><time>2026-03-08T15:09:01.000Z</time></trkpt>
<trkpt lat="42.079348" lon="23.630106"><ele>1746.3</ele><time>2026-03-08T15:09:02.000Z</time></trkpt>
<trkpt lat="42.079337" lon="23.630096"><ele>1746.3</ele><time>2026-03-08T15:09:03.000Z</time></trkpt>
<trkpt lat="42.079327" lon="23.630087"><ele>1746.3</ele><time>2026-03-08T15:09:04.000Z</time></trkpt>
<trkpt lat="42.079317" lon="23.630078"><ele>1746.3</ele><time>2026-03-08T15:09:05.000Z</time></trkpt>
<trkpt lat="42.079306" lon="23.630068"><ele>1746.3</ele><time>2026-03-08T15:09:06.000Z</time></trkpt>
<trkpt lat="42.079295" lon="23.630059"><ele>1745.5</ele><time>2026-03-08T15:09:07.000Z</time></trkpt>
<trkpt lat="42.079284" lon="23.630048"><ele>1745.5</ele><time>2026-03-08T15:09:08.000Z</time></trkpt>
<trkpt lat="42.079273" lon="23.630036"><ele>1745.5</ele><time>2026-03-08T15:09:09.000Z</time></trkpt>
<trkpt lat="42.079261" lon="23.630023"><ele>1745.5</ele><time>2026-03-08T15:09:10.000Z</time></trkpt>
<trkpt lat="42.079251" lon="23.63001"><ele>1745.5</ele><time>2026-03-08T15:09:11.000Z</time></trkpt>
<trkpt lat="42.079241" lon="23.629998"><ele>1744.9</ele><time>2026-03-08T15:09:12.000Z</time></trkpt>
<trkpt lat="42.079232" lon="23.629987"><ele>1744.9</ele><time>2026-03-08T15:09:13.000Z</time></trkpt>
<trkpt lat="42.079223" lon="23.629976"><ele>1744.9</ele><time>2026-03-08T15:09:14.000Z</time></trkpt>
<trkpt lat="42.079214" lon="23.629966"><ele>1744.9</ele><time>2026-03-08T15:09:15.000Z</time></trkpt>
<trkpt lat="42.079205" lon="23.629957"><ele>1744.9</ele><time>2026-03-08T15:09:16.000Z</time></trkpt>
<trkpt lat="42.079196" lon="23.629946"><ele>1744.6</ele><time>2026-03-08T15:09:17.000Z</time></trkpt>
<trkpt lat="42.079187" lon="23.629935"><ele>1744.6</ele><time>2026-03-08T15:09:18.000Z</time></trkpt>
<trkpt lat="42.079179" lon="23.629924"><ele>1744.6</ele><time>2026-03-08T15:09:19.000Z</time></trkpt>
<trkpt lat="42.07917" lon="23.629912"><ele>1744.6</ele><time>2026-03-08T15:09:20.000Z</time></trkpt>
<trkpt lat="42.079162" lon="23.629899"><ele>1744.6</ele><time>2026-03-08T15:09:21.000Z</time></trkpt>
<trkpt lat="42.079154" lon="23.629886"><ele>1744</ele><time>2026-03-08T15:09:22.000Z</time></trkpt>
<trkpt lat="42.079146" lon="23.629873"><ele>1744</ele><time>2026-03-08T15:09:23.000Z</time></trkpt>
<trkpt lat="42.079137" lon="23.629859"><ele>1744</ele><time>2026-03-08T15:09:24.000Z</time></trkpt>
<trkpt lat="42.079128" lon="23.629846"><ele>1744</ele><time>2026-03-08T15:09:25.000Z</time></trkpt>
<trkpt lat="42.079118" lon="23.629834"><ele>1744</ele><time>2026-03-08T15:09:26.000Z</time></trkpt>
<trkpt lat="42.079108" lon="23.629822"><ele>1743.2</ele><time>2026-03-08T15:09:27.000Z</time></trkpt>
<trkpt lat="42.079099" lon="23.629811"><ele>1743.2</ele><time>2026-03-08T15:09:28.000Z</time></trkpt>
<trkpt lat="42.07909" lon="23.6298"><ele>1743.2</ele><time>2026-03-08T15:09:29.000Z</time></trkpt>
<trkpt lat="42.079082" lon="23.62979"><ele>1743.2</ele><time>2026-03-08T15:09:30.000Z</time></trkpt>
<trkpt lat="42.079074" lon="23.629779"><ele>1743.2</ele><time>2026-03-08T15:09:31.000Z</time></trkpt>
<trkpt lat="42.079065" lon="23.629767"><ele>1742.8</ele><time>2026-03-08T15:09:32.000Z</time></trkpt>
<trkpt lat="42.079057" lon="23.629755"><ele>1742.8</ele><time>2026-03-08T15:09:33.000Z</time></trkpt>
<trkpt lat="42.079048" lon="23.629743"><ele>1742.8</ele><time>2026-03-08T15:09:34.000Z</time></trkpt>
<trkpt lat="42.079038" lon="23.62973"><ele>1742.8</ele><time>2026-03-08T15:09:35.000Z</time></trkpt>
<trkpt lat="42.079028" lon="23.629718"><ele>1742.8</ele><time>2026-03-08T15:09:36.000Z</time></trkpt>
<trkpt lat="42.079019" lon="23.629704"><ele>1742.2</ele><time>2026-03-08T15:09:37.000Z</time></trkpt>
<trkpt lat="42.07901" lon="23.62969"><ele>1742.2</ele><time>2026-03-08T15:09:38.000Z</time></trkpt>
<trkpt lat="42.079002" lon="23.629676"><ele>1742.2</ele><time>2026-03-08T15:09:39.000Z</time></trkpt>
<trkpt lat="42.078994" lon="23.629662"><ele>1742.2</ele><time>2026-03-08T15:09:40.000Z</time></trkpt>
<trkpt lat="42.078987" lon="23.629648"><ele>1742.2</ele><time>2026-03-08T15:09:41.000Z</time></trkpt>
<trkpt lat="42.078979" lon="23.629633"><ele>1741.6</ele><time>2026-03-08T15:09:42.000Z</time></trkpt>
<trkpt lat="42.078971" lon="23.629619"><ele>1741.6</ele><time>2026-03-08T15:09:43.000Z</time></trkpt>
<trkpt lat="42.078962" lon="23.629605"><ele>1741.6</ele><time>2026-03-08T15:09:44.000Z</time></trkpt>
<trkpt lat="42.078954" lon="23.629592"><ele>1741.6</ele><time>2026-03-08T15:09:45.000Z</time></trkpt>
<trkpt lat="42.078945" lon="23.62958"><ele>1741.6</ele><time>2026-03-08T15:09:46.000Z</time></trkpt>
<trkpt lat="42.078936" lon="23.629568"><ele>1741.3</ele><time>2026-03-08T15:09:47.000Z</time></trkpt>
<trkpt lat="42.078926" lon="23.629557"><ele>1741.3</ele><time>2026-03-08T15:09:48.000Z</time></trkpt>
<trkpt lat="42.078916" lon="23.629545"><ele>1741.3</ele><time>2026-03-08T15:09:49.000Z</time></trkpt>
<trkpt lat="42.078907" lon="23.629534"><ele>1741.3</ele><time>2026-03-08T15:09:50.000Z</time></trkpt>
<trkpt lat="42.078898" lon="23.629521"><ele>1741.3</ele><time>2026-03-08T15:09:51.000Z</time></trkpt>
<trkpt lat="42.07889" lon="23.629508"><ele>1740.8</ele><time>2026-03-08T15:09:52.000Z</time></trkpt>
<trkpt lat="42.078882" lon="23.629495"><ele>1740.8</ele><time>2026-03-08T15:09:53.000Z</time></trkpt>
<trkpt lat="42.078875" lon="23.629483"><ele>1740.8</ele><time>2026-03-08T15:09:54.000Z</time></trkpt>
<trkpt lat="42.078868" lon="23.629469"><ele>1740.8</ele><time>2026-03-08T15:09:55.000Z</time></trkpt>
<trkpt lat="42.078861" lon="23.629455"><ele>1740.8</ele><time>2026-03-08T15:09:56.000Z</time></trkpt>
<trkpt lat="42.078853" lon="23.629441"><ele>1740.2</ele><time>2026-03-08T15:09:57.000Z</time></trkpt>
<trkpt lat="42.078845" lon="23.629426"><ele>1740.2</ele><time>2026-03-08T15:09:58.000Z</time></trkpt>
<trkpt lat="42.078837" lon="23.629409"><ele>1740.2</ele><time>2026-03-08T15:09:59.000Z</time></trkpt>
<trkpt lat="42.07883" lon="23.629392"><ele>1740.2</ele><time>2026-03-08T15:10:00.000Z</time></trkpt>
<trkpt lat="42.078822" lon="23.629373"><ele>1740.2</ele><time>2026-03-08T15:10:01.000Z</time></trkpt>
<trkpt lat="42.078816" lon="23.629355"><ele>1739.9</ele><time>2026-03-08T15:10:02.000Z</time></trkpt>
<trkpt lat="42.078809" lon="23.629338"><ele>1739.9</ele><time>2026-03-08T15:10:03.000Z</time></trkpt>
<trkpt lat="42.078801" lon="23.629323"><ele>1739.9</ele><time>2026-03-08T15:10:04.000Z</time></trkpt>
<trkpt lat="42.078792" lon="23.629309"><ele>1739.9</ele><time>2026-03-08T15:10:05.000Z</time></trkpt>
<trkpt lat="42.078782" lon="23.629297"><ele>1739.9</ele><time>2026-03-08T15:10:06.000Z</time></trkpt>
<trkpt lat="42.078771" lon="23.629284"><ele>1739.1</ele><time>2026-03-08T15:10:07.000Z</time></trkpt>
<trkpt lat="42.078761" lon="23.629273"><ele>1739.1</ele><time>2026-03-08T15:10:08.000Z</time></trkpt>
<trkpt lat="42.07875" lon="23.629262"><ele>1739.1</ele><time>2026-03-08T15:10:09.000Z</time></trkpt>
<trkpt lat="42.078739" lon="23.629251"><ele>1739.1</ele><time>2026-03-08T15:10:10.000Z</time></trkpt>
<trkpt lat="42.078728" lon="23.629241"><ele>1739.1</ele><time>2026-03-08T15:10:11.000Z</time></trkpt>
<trkpt lat="42.078719" lon="23.62923"><ele>1738.4</ele><time>2026-03-08T15:10:12.000Z</time></trkpt>
<trkpt lat="42.078709" lon="23.629221"><ele>1738.4</ele><time>2026-03-08T15:10:13.000Z</time></trkpt>
<trkpt lat="42.078702" lon="23.629209"><ele>1738.4</ele><time>2026-03-08T15:10:14.000Z</time></trkpt>
<trkpt lat="42.078696" lon="23.629198"><ele>1738.4</ele><time>2026-03-08T15:10:15.000Z</time></trkpt>
<trkpt lat="42.078691" lon="23.629187"><ele>1738.4</ele><time>2026-03-08T15:10:16.000Z</time></trkpt>
<trkpt lat="42.078689" lon="23.629179"><ele>1738</ele><time>2026-03-08T15:10:17.000Z</time></trkpt>
<trkpt lat="42.078688" lon="23.62917"><ele>1738</ele><time>2026-03-08T15:10:18.000Z</time></trkpt>
<trkpt lat="42.078689" lon="23.629163"><ele>1738</ele><time>2026-03-08T15:10:19.000Z</time></trkpt>
<trkpt lat="42.078692" lon="23.629157"><ele>1738</ele><time>2026-03-08T15:10:20.000Z</time></trkpt>
<trkpt lat="42.078694" lon="23.629151"><ele>1738</ele><time>2026-03-08T15:10:21.000Z</time></trkpt>
<trkpt lat="42.078696" lon="23.629145"><ele>1737.3</ele><time>2026-03-08T15:10:22.000Z</time></trkpt>
<trkpt lat="42.078699" lon="23.629138"><ele>1737.3</ele><time>2026-03-08T15:10:23.000Z</time></trkpt>
<trkpt lat="42.078702" lon="23.629133"><ele>1737.3</ele><time>2026-03-08T15:10:24.000Z</time></trkpt>
<trkpt lat="42.078703" lon="23.629129"><ele>1737.3</ele><time>2026-03-08T15:10:25.000Z</time></trkpt>
<trkpt lat="42.078705" lon="23.629127"><ele>1737.3</ele><time>2026-03-08T15:10:26.000Z</time></trkpt>
<trkpt lat="42.078707" lon="23.629126"><ele>1736.7</ele><time>2026-03-08T15:10:27.000Z</time></trkpt>
<trkpt lat="42.078708" lon="23.629126"><ele>1736.7</ele><time>2026-03-08T15:10:28.000Z</time></trkpt>
<trkpt lat="42.078709" lon="23.629126"><ele>1736.7</ele><time>2026-03-08T15:10:29.000Z</time></trkpt>
<trkpt lat="42.078709" lon="23.629125"><ele>1736.7</ele><time>2026-03-08T15:10:30.000Z</time></trkpt>
<trkpt lat="42.078709" lon="23.629125"><ele>1736.7</ele><time>2026-03-08T15:10:31.000Z</time></trkpt>
<trkpt lat="42.078709" lon="23.629125"><ele>1736.4</ele><time>2026-03-08T15:10:32.000Z</time></trkpt>
<trkpt lat="42.078709" lon="23.629125"><ele>1736.4</ele><time>2026-03-08T15:10:33.000Z</time></trkpt>
<trkpt lat="42.07871" lon="23.629125"><ele>1736.4</ele><time>2026-03-08T15:10:34.000Z</time></trkpt>
<trkpt lat="42.07871" lon="23.629125"><ele>1736.4</ele><time>2026-03-08T15:10:35.000Z</time></trkpt>
<trkpt lat="42.078711" lon="23.629125"><ele>1736.4</ele><time>2026-03-08T15:10:36.000Z</time></trkpt>
<trkpt lat="42.078711" lon="23.629126"><ele>1736.2</ele><time>2026-03-08T15:10:37.000Z</time></trkpt>
<trkpt lat="42.07871" lon="23.629126"><ele>1736.2</ele><time>2026-03-08T15:10:38.000Z</time></trkpt>
<trkpt lat="42.078709" lon="23.629128"><ele>1736.2</ele><time>2026-03-08T15:10:39.000Z</time></trkpt>
<trkpt lat="42.078707" lon="23.62913"><ele>1736.2</ele><time>2026-03-08T15:10:40.000Z</time></trkpt>
<trkpt lat="42.078705" lon="23.629132"><ele>1736.2</ele><time>2026-03-08T15:10:41.000Z</time></trkpt>
<trkpt lat="42.078701" lon="23.629135"><ele>1736.1</ele><time>2026-03-08T15:10:42.000Z</time></trkpt>
<trkpt lat="42.0787" lon="23.629138"><ele>1736.1</ele><time>2026-03-08T15:10:43.000Z</time></trkpt>
<trkpt lat="42.078702" lon="23.629136"><ele>1736.1</ele><time>2026-03-08T15:10:46.000Z</time></trkpt>
</trkseg></trk></gpx>